<?xml version="1.0" encoding="UTF-8" standalone="no" ?>
<gpx xmlns="http://www.topografix.com/GPX/1/1" xmlns:xsi="http://www.w3.org/2001/XMLSchema-instance" xsi:schemaLocation="http://www.topografix.com/GPX/1/1 http://www.topografix.com/GPX/1/1/gpx.xsd" version="1.1" creator="VisuGPX - https://www.visugpx.com">
  <metadata>
    <name>GR20</name>
    <desc><![CDATA[GR20 - Juin 2015]]></desc>
  </metadata>
  <trk>
    <name><![CDATA[GR20 Conca - I Paliri]]></name>
    <trkseg>
      <trkpt lat="41.73958" lon="9.33156">
        <ele>328.8</ele>
        <time>2015-06-18T06:51:02Z</time>
      </trkpt>
      <trkpt lat="41.73957" lon="9.33156">
        <ele>328.8</ele>
        <time>2015-06-18T06:51:04Z</time>
      </trkpt>
      <trkpt lat="41.73957" lon="9.33158">
        <ele>329.4</ele>
        <time>2015-06-18T06:52:33Z</time>
      </trkpt>
      <trkpt lat="41.73961" lon="9.33156">
        <ele>330</ele>
        <time>2015-06-18T06:52:42Z</time>
      </trkpt>
      <trkpt lat="41.73964" lon="9.33154">
        <ele>331.2</ele>
        <time>2015-06-18T06:52:49Z</time>
      </trkpt>
      <trkpt lat="41.73967" lon="9.33151">
        <ele>331</ele>
        <time>2015-06-18T06:52:56Z</time>
      </trkpt>
      <trkpt lat="41.73971" lon="9.33148">
        <ele>332</ele>
        <time>2015-06-18T06:53:03Z</time>
      </trkpt>
      <trkpt lat="41.73975" lon="9.33147">
        <ele>332.8</ele>
        <time>2015-06-18T06:53:09Z</time>
      </trkpt>
      <trkpt lat="41.7399" lon="9.33136">
        <ele>334.8</ele>
        <time>2015-06-18T06:53:29Z</time>
      </trkpt>
      <trkpt lat="41.73992" lon="9.33133">
        <ele>334.8</ele>
        <time>2015-06-18T06:53:34Z</time>
      </trkpt>
      <trkpt lat="41.73974" lon="9.33148">
        <ele>334.4</ele>
        <time>2015-06-18T06:54:00Z</time>
      </trkpt>
      <trkpt lat="41.7397" lon="9.33151">
        <ele>333.6</ele>
        <time>2015-06-18T06:54:06Z</time>
      </trkpt>
      <trkpt lat="41.73967" lon="9.33153">
        <ele>332.8</ele>
        <time>2015-06-18T06:54:11Z</time>
      </trkpt>
      <trkpt lat="41.73962" lon="9.33156">
        <ele>331.4</ele>
        <time>2015-06-18T06:54:17Z</time>
      </trkpt>
      <trkpt lat="41.73955" lon="9.33156">
        <ele>330.4</ele>
        <time>2015-06-18T06:54:23Z</time>
      </trkpt>
      <trkpt lat="41.73954" lon="9.33155">
        <ele>330</ele>
        <time>2015-06-18T06:54:24Z</time>
      </trkpt>
      <trkpt lat="41.73941" lon="9.33145">
        <ele>329.6</ele>
        <time>2015-06-18T06:54:36Z</time>
      </trkpt>
      <trkpt lat="41.73939" lon="9.33142">
        <ele>330</ele>
        <time>2015-06-18T06:54:39Z</time>
      </trkpt>
      <trkpt lat="41.73938" lon="9.33138">
        <ele>330.4</ele>
        <time>2015-06-18T06:54:42Z</time>
      </trkpt>
      <trkpt lat="41.73936" lon="9.33135">
        <ele>330.8</ele>
        <time>2015-06-18T06:54:45Z</time>
      </trkpt>
      <trkpt lat="41.73934" lon="9.33125">
        <ele>331.8</ele>
        <time>2015-06-18T06:54:53Z</time>
      </trkpt>
      <trkpt lat="41.73933" lon="9.33113">
        <ele>332.6</ele>
        <time>2015-06-18T06:55:04Z</time>
      </trkpt>
      <trkpt lat="41.73933" lon="9.33111">
        <ele>332.8</ele>
        <time>2015-06-18T06:55:06Z</time>
      </trkpt>
      <trkpt lat="41.73936" lon="9.33098">
        <ele>333.8</ele>
        <time>2015-06-18T06:55:19Z</time>
      </trkpt>
      <trkpt lat="41.73941" lon="9.33086">
        <ele>334.8</ele>
        <time>2015-06-18T06:55:30Z</time>
      </trkpt>
      <trkpt lat="41.73944" lon="9.33078">
        <ele>335.4</ele>
        <time>2015-06-18T06:55:37Z</time>
      </trkpt>
      <trkpt lat="41.73945" lon="9.33071">
        <ele>336.4</ele>
        <time>2015-06-18T06:55:44Z</time>
      </trkpt>
      <trkpt lat="41.73946" lon="9.33062">
        <ele>337.6</ele>
        <time>2015-06-18T06:55:52Z</time>
      </trkpt>
      <trkpt lat="41.73946" lon="9.33054">
        <ele>338.4</ele>
        <time>2015-06-18T06:55:59Z</time>
      </trkpt>
      <trkpt lat="41.73948" lon="9.33045">
        <ele>339.6</ele>
        <time>2015-06-18T06:56:07Z</time>
      </trkpt>
      <trkpt lat="41.7395" lon="9.33039">
        <ele>341</ele>
        <time>2015-06-18T06:56:16Z</time>
      </trkpt>
      <trkpt lat="41.73954" lon="9.33034">
        <ele>341.6</ele>
        <time>2015-06-18T06:56:23Z</time>
      </trkpt>
      <trkpt lat="41.73955" lon="9.33034">
        <ele>341.8</ele>
        <time>2015-06-18T06:56:24Z</time>
      </trkpt>
      <trkpt lat="41.73959" lon="9.33029">
        <ele>342.8</ele>
        <time>2015-06-18T06:56:30Z</time>
      </trkpt>
      <trkpt lat="41.73961" lon="9.33024">
        <ele>343.6</ele>
        <time>2015-06-18T06:56:35Z</time>
      </trkpt>
      <trkpt lat="41.73965" lon="9.33021">
        <ele>344.6</ele>
        <time>2015-06-18T06:56:40Z</time>
      </trkpt>
      <trkpt lat="41.73971" lon="9.3302">
        <ele>346</ele>
        <time>2015-06-18T06:56:48Z</time>
      </trkpt>
      <trkpt lat="41.7398" lon="9.33021">
        <ele>347.6</ele>
        <time>2015-06-18T06:56:58Z</time>
      </trkpt>
      <trkpt lat="41.73992" lon="9.33026">
        <ele>348.4</ele>
        <time>2015-06-18T06:57:10Z</time>
      </trkpt>
      <trkpt lat="41.74002" lon="9.33028">
        <ele>349.4</ele>
        <time>2015-06-18T06:57:21Z</time>
      </trkpt>
      <trkpt lat="41.74009" lon="9.33028">
        <ele>350</ele>
        <time>2015-06-18T06:57:30Z</time>
      </trkpt>
      <trkpt lat="41.74018" lon="9.33023">
        <ele>351.6</ele>
        <time>2015-06-18T06:57:41Z</time>
      </trkpt>
      <trkpt lat="41.74028" lon="9.33018">
        <ele>352.4</ele>
        <time>2015-06-18T06:57:53Z</time>
      </trkpt>
      <trkpt lat="41.74037" lon="9.33016">
        <ele>353.2</ele>
        <time>2015-06-18T06:58:03Z</time>
      </trkpt>
      <trkpt lat="41.74044" lon="9.33013">
        <ele>354.2</ele>
        <time>2015-06-18T06:58:11Z</time>
      </trkpt>
      <trkpt lat="41.74051" lon="9.33012">
        <ele>355.2</ele>
        <time>2015-06-18T06:58:19Z</time>
      </trkpt>
      <trkpt lat="41.74054" lon="9.33011">
        <ele>356</ele>
        <time>2015-06-18T06:58:26Z</time>
      </trkpt>
      <trkpt lat="41.74059" lon="9.33011">
        <ele>357</ele>
        <time>2015-06-18T06:58:32Z</time>
      </trkpt>
      <trkpt lat="41.74061" lon="9.3301">
        <ele>357.2</ele>
        <time>2015-06-18T06:58:35Z</time>
      </trkpt>
      <trkpt lat="41.7407" lon="9.33006">
        <ele>358.6</ele>
        <time>2015-06-18T06:58:47Z</time>
      </trkpt>
      <trkpt lat="41.74078" lon="9.33003">
        <ele>359.2</ele>
        <time>2015-06-18T06:58:56Z</time>
      </trkpt>
      <trkpt lat="41.74085" lon="9.32997">
        <ele>360.2</ele>
        <time>2015-06-18T06:59:05Z</time>
      </trkpt>
      <trkpt lat="41.74092" lon="9.32996">
        <ele>361</ele>
        <time>2015-06-18T06:59:12Z</time>
      </trkpt>
      <trkpt lat="41.74099" lon="9.32996">
        <ele>362</ele>
        <time>2015-06-18T06:59:19Z</time>
      </trkpt>
      <trkpt lat="41.74105" lon="9.32991">
        <ele>363.2</ele>
        <time>2015-06-18T06:59:27Z</time>
      </trkpt>
      <trkpt lat="41.7411" lon="9.32987">
        <ele>364</ele>
        <time>2015-06-18T06:59:35Z</time>
      </trkpt>
      <trkpt lat="41.74114" lon="9.32982">
        <ele>365.2</ele>
        <time>2015-06-18T06:59:45Z</time>
      </trkpt>
      <trkpt lat="41.74117" lon="9.32981">
        <ele>366.2</ele>
        <time>2015-06-18T06:59:57Z</time>
      </trkpt>
      <trkpt lat="41.74121" lon="9.32976">
        <ele>366.8</ele>
        <time>2015-06-18T07:01:14Z</time>
      </trkpt>
      <trkpt lat="41.7412" lon="9.32977">
        <ele>367.4</ele>
        <time>2015-06-18T07:03:01Z</time>
      </trkpt>
      <trkpt lat="41.74126" lon="9.32979">
        <ele>366.2</ele>
        <time>2015-06-18T07:05:24Z</time>
      </trkpt>
      <trkpt lat="41.74129" lon="9.32981">
        <ele>365.6</ele>
        <time>2015-06-18T07:05:29Z</time>
      </trkpt>
      <trkpt lat="41.74139" lon="9.32979">
        <ele>363.4</ele>
        <time>2015-06-18T07:05:47Z</time>
      </trkpt>
      <trkpt lat="41.74145" lon="9.32977">
        <ele>362.6</ele>
        <time>2015-06-18T07:05:55Z</time>
      </trkpt>
      <trkpt lat="41.74157" lon="9.32979">
        <ele>361.6</ele>
        <time>2015-06-18T07:06:13Z</time>
      </trkpt>
      <trkpt lat="41.74159" lon="9.32979">
        <ele>361.8</ele>
        <time>2015-06-18T07:06:15Z</time>
      </trkpt>
      <trkpt lat="41.74162" lon="9.32979">
        <ele>361.8</ele>
        <time>2015-06-18T07:06:18Z</time>
      </trkpt>
      <trkpt lat="41.74164" lon="9.3298">
        <ele>362</ele>
        <time>2015-06-18T07:06:22Z</time>
      </trkpt>
      <trkpt lat="41.74169" lon="9.32978">
        <ele>362.8</ele>
        <time>2015-06-18T07:06:29Z</time>
      </trkpt>
      <trkpt lat="41.74171" lon="9.32975">
        <ele>364</ele>
        <time>2015-06-18T07:06:37Z</time>
      </trkpt>
      <trkpt lat="41.74176" lon="9.32974">
        <ele>365.2</ele>
        <time>2015-06-18T07:06:48Z</time>
      </trkpt>
      <trkpt lat="41.74177" lon="9.32974">
        <ele>366.2</ele>
        <time>2015-06-18T07:06:56Z</time>
      </trkpt>
      <trkpt lat="41.74181" lon="9.32976">
        <ele>367</ele>
        <time>2015-06-18T07:07:03Z</time>
      </trkpt>
      <trkpt lat="41.74185" lon="9.32975">
        <ele>368.2</ele>
        <time>2015-06-18T07:07:10Z</time>
      </trkpt>
      <trkpt lat="41.74188" lon="9.32973">
        <ele>369.6</ele>
        <time>2015-06-18T07:07:18Z</time>
      </trkpt>
      <trkpt lat="41.74191" lon="9.32972">
        <ele>370.2</ele>
        <time>2015-06-18T07:07:23Z</time>
      </trkpt>
      <trkpt lat="41.74195" lon="9.32971">
        <ele>371.6</ele>
        <time>2015-06-18T07:07:31Z</time>
      </trkpt>
      <trkpt lat="41.742" lon="9.32969">
        <ele>372.6</ele>
        <time>2015-06-18T07:07:41Z</time>
      </trkpt>
      <trkpt lat="41.74204" lon="9.32967">
        <ele>373.6</ele>
        <time>2015-06-18T07:07:48Z</time>
      </trkpt>
      <trkpt lat="41.74207" lon="9.32962">
        <ele>374.6</ele>
        <time>2015-06-18T07:07:57Z</time>
      </trkpt>
      <trkpt lat="41.74211" lon="9.32959">
        <ele>375.4</ele>
        <time>2015-06-18T07:08:04Z</time>
      </trkpt>
      <trkpt lat="41.74217" lon="9.32959">
        <ele>376.6</ele>
        <time>2015-06-18T07:08:15Z</time>
      </trkpt>
      <trkpt lat="41.74221" lon="9.32959">
        <ele>377.8</ele>
        <time>2015-06-18T07:08:23Z</time>
      </trkpt>
      <trkpt lat="41.74225" lon="9.32958">
        <ele>378.8</ele>
        <time>2015-06-18T07:08:32Z</time>
      </trkpt>
      <trkpt lat="41.74228" lon="9.32958">
        <ele>379.2</ele>
        <time>2015-06-18T07:08:36Z</time>
      </trkpt>
      <trkpt lat="41.74232" lon="9.32957">
        <ele>379.8</ele>
        <time>2015-06-18T07:08:41Z</time>
      </trkpt>
      <trkpt lat="41.74235" lon="9.32955">
        <ele>380.8</ele>
        <time>2015-06-18T07:08:48Z</time>
      </trkpt>
      <trkpt lat="41.7424" lon="9.3296">
        <ele>381.8</ele>
        <time>2015-06-18T07:08:56Z</time>
      </trkpt>
      <trkpt lat="41.74242" lon="9.3296">
        <ele>382.8</ele>
        <time>2015-06-18T07:09:03Z</time>
      </trkpt>
      <trkpt lat="41.74247" lon="9.3296">
        <ele>384.2</ele>
        <time>2015-06-18T07:09:14Z</time>
      </trkpt>
      <trkpt lat="41.74249" lon="9.32962">
        <ele>384.8</ele>
        <time>2015-06-18T07:09:21Z</time>
      </trkpt>
      <trkpt lat="41.74252" lon="9.32967">
        <ele>386</ele>
        <time>2015-06-18T07:09:29Z</time>
      </trkpt>
      <trkpt lat="41.74254" lon="9.32971">
        <ele>386.8</ele>
        <time>2015-06-18T07:09:36Z</time>
      </trkpt>
      <trkpt lat="41.74258" lon="9.32973">
        <ele>388.2</ele>
        <time>2015-06-18T07:09:44Z</time>
      </trkpt>
      <trkpt lat="41.74259" lon="9.32973">
        <ele>388.4</ele>
        <time>2015-06-18T07:09:47Z</time>
      </trkpt>
      <trkpt lat="41.74261" lon="9.32975">
        <ele>389.2</ele>
        <time>2015-06-18T07:09:52Z</time>
      </trkpt>
      <trkpt lat="41.74261" lon="9.32979">
        <ele>389.8</ele>
        <time>2015-06-18T07:09:58Z</time>
      </trkpt>
      <trkpt lat="41.74264" lon="9.32976">
        <ele>391.2</ele>
        <time>2015-06-18T07:10:07Z</time>
      </trkpt>
      <trkpt lat="41.74268" lon="9.32973">
        <ele>392.2</ele>
        <time>2015-06-18T07:10:15Z</time>
      </trkpt>
      <trkpt lat="41.74271" lon="9.32969">
        <ele>393.6</ele>
        <time>2015-06-18T07:10:25Z</time>
      </trkpt>
      <trkpt lat="41.74274" lon="9.32968">
        <ele>394.4</ele>
        <time>2015-06-18T07:10:34Z</time>
      </trkpt>
      <trkpt lat="41.74275" lon="9.32969">
        <ele>395.4</ele>
        <time>2015-06-18T07:10:41Z</time>
      </trkpt>
      <trkpt lat="41.7428" lon="9.32974">
        <ele>396.6</ele>
        <time>2015-06-18T07:10:57Z</time>
      </trkpt>
      <trkpt lat="41.74281" lon="9.32978">
        <ele>397.2</ele>
        <time>2015-06-18T07:11:03Z</time>
      </trkpt>
      <trkpt lat="41.74281" lon="9.32985">
        <ele>398.4</ele>
        <time>2015-06-18T07:11:12Z</time>
      </trkpt>
      <trkpt lat="41.74286" lon="9.32988">
        <ele>399.8</ele>
        <time>2015-06-18T07:11:21Z</time>
      </trkpt>
      <trkpt lat="41.74292" lon="9.32984">
        <ele>401</ele>
        <time>2015-06-18T07:11:30Z</time>
      </trkpt>
      <trkpt lat="41.74296" lon="9.32983">
        <ele>402</ele>
        <time>2015-06-18T07:11:39Z</time>
      </trkpt>
      <trkpt lat="41.74301" lon="9.32981">
        <ele>403</ele>
        <time>2015-06-18T07:11:48Z</time>
      </trkpt>
      <trkpt lat="41.74307" lon="9.32977">
        <ele>404.4</ele>
        <time>2015-06-18T07:12:00Z</time>
      </trkpt>
      <trkpt lat="41.7431" lon="9.32973">
        <ele>405.2</ele>
        <time>2015-06-18T07:12:07Z</time>
      </trkpt>
      <trkpt lat="41.74314" lon="9.3297">
        <ele>406.2</ele>
        <time>2015-06-18T07:12:14Z</time>
      </trkpt>
      <trkpt lat="41.74319" lon="9.3297">
        <ele>407.2</ele>
        <time>2015-06-18T07:12:25Z</time>
      </trkpt>
      <trkpt lat="41.74324" lon="9.32971">
        <ele>408.4</ele>
        <time>2015-06-18T07:12:33Z</time>
      </trkpt>
      <trkpt lat="41.74327" lon="9.32969">
        <ele>409.2</ele>
        <time>2015-06-18T07:12:38Z</time>
      </trkpt>
      <trkpt lat="41.7433" lon="9.32966">
        <ele>410.6</ele>
        <time>2015-06-18T07:12:46Z</time>
      </trkpt>
      <trkpt lat="41.74332" lon="9.32962">
        <ele>412.2</ele>
        <time>2015-06-18T07:12:55Z</time>
      </trkpt>
      <trkpt lat="41.74334" lon="9.3296">
        <ele>412.8</ele>
        <time>2015-06-18T07:13:01Z</time>
      </trkpt>
      <trkpt lat="41.74337" lon="9.32957">
        <ele>414</ele>
        <time>2015-06-18T07:13:10Z</time>
      </trkpt>
      <trkpt lat="41.74341" lon="9.32953">
        <ele>415.4</ele>
        <time>2015-06-18T07:13:18Z</time>
      </trkpt>
      <trkpt lat="41.74344" lon="9.32948">
        <ele>416.4</ele>
        <time>2015-06-18T07:13:28Z</time>
      </trkpt>
      <trkpt lat="41.74348" lon="9.32944">
        <ele>417.4</ele>
        <time>2015-06-18T07:13:37Z</time>
      </trkpt>
      <trkpt lat="41.74351" lon="9.32942">
        <ele>418.2</ele>
        <time>2015-06-18T07:13:43Z</time>
      </trkpt>
      <trkpt lat="41.74354" lon="9.32938">
        <ele>419.6</ele>
        <time>2015-06-18T07:13:51Z</time>
      </trkpt>
      <trkpt lat="41.74357" lon="9.32935">
        <ele>421</ele>
        <time>2015-06-18T07:14:02Z</time>
      </trkpt>
      <trkpt lat="41.74359" lon="9.3293">
        <ele>421.8</ele>
        <time>2015-06-18T07:14:09Z</time>
      </trkpt>
      <trkpt lat="41.74363" lon="9.32928">
        <ele>423.2</ele>
        <time>2015-06-18T07:14:18Z</time>
      </trkpt>
      <trkpt lat="41.74366" lon="9.32926">
        <ele>424</ele>
        <time>2015-06-18T07:14:25Z</time>
      </trkpt>
      <trkpt lat="41.74369" lon="9.3292">
        <ele>425.6</ele>
        <time>2015-06-18T07:14:34Z</time>
      </trkpt>
      <trkpt lat="41.74372" lon="9.32921">
        <ele>426.2</ele>
        <time>2015-06-18T07:14:41Z</time>
      </trkpt>
      <trkpt lat="41.74376" lon="9.32914">
        <ele>428</ele>
        <time>2015-06-18T07:14:55Z</time>
      </trkpt>
      <trkpt lat="41.74379" lon="9.32914">
        <ele>428.4</ele>
        <time>2015-06-18T07:15:01Z</time>
      </trkpt>
      <trkpt lat="41.74383" lon="9.32915">
        <ele>430</ele>
        <time>2015-06-18T07:15:11Z</time>
      </trkpt>
      <trkpt lat="41.74387" lon="9.32915">
        <ele>430.8</ele>
        <time>2015-06-18T07:15:20Z</time>
      </trkpt>
      <trkpt lat="41.74391" lon="9.32914">
        <ele>431.8</ele>
        <time>2015-06-18T07:15:28Z</time>
      </trkpt>
      <trkpt lat="41.74395" lon="9.32913">
        <ele>433.2</ele>
        <time>2015-06-18T07:15:35Z</time>
      </trkpt>
      <trkpt lat="41.74398" lon="9.32913">
        <ele>434.2</ele>
        <time>2015-06-18T07:15:43Z</time>
      </trkpt>
      <trkpt lat="41.744" lon="9.32911">
        <ele>435.2</ele>
        <time>2015-06-18T07:15:50Z</time>
      </trkpt>
      <trkpt lat="41.74404" lon="9.32907">
        <ele>436.4</ele>
        <time>2015-06-18T07:15:58Z</time>
      </trkpt>
      <trkpt lat="41.74407" lon="9.32904">
        <ele>437.6</ele>
        <time>2015-06-18T07:16:06Z</time>
      </trkpt>
      <trkpt lat="41.7441" lon="9.32902">
        <ele>438.8</ele>
        <time>2015-06-18T07:16:15Z</time>
      </trkpt>
      <trkpt lat="41.74413" lon="9.32898">
        <ele>439.8</ele>
        <time>2015-06-18T07:16:23Z</time>
      </trkpt>
      <trkpt lat="41.74415" lon="9.32894">
        <ele>440.8</ele>
        <time>2015-06-18T07:16:30Z</time>
      </trkpt>
      <trkpt lat="41.74419" lon="9.3289">
        <ele>442.2</ele>
        <time>2015-06-18T07:16:43Z</time>
      </trkpt>
      <trkpt lat="41.74421" lon="9.32889">
        <ele>442.6</ele>
        <time>2015-06-18T07:16:48Z</time>
      </trkpt>
      <trkpt lat="41.74424" lon="9.32887">
        <ele>444</ele>
        <time>2015-06-18T07:16:55Z</time>
      </trkpt>
      <trkpt lat="41.74426" lon="9.32885">
        <ele>445</ele>
        <time>2015-06-18T07:17:02Z</time>
      </trkpt>
      <trkpt lat="41.74429" lon="9.32881">
        <ele>446.2</ele>
        <time>2015-06-18T07:17:09Z</time>
      </trkpt>
      <trkpt lat="41.74431" lon="9.32876">
        <ele>447.4</ele>
        <time>2015-06-18T07:17:16Z</time>
      </trkpt>
      <trkpt lat="41.74435" lon="9.3287">
        <ele>449</ele>
        <time>2015-06-18T07:17:26Z</time>
      </trkpt>
      <trkpt lat="41.74438" lon="9.32866">
        <ele>449.6</ele>
        <time>2015-06-18T07:17:33Z</time>
      </trkpt>
      <trkpt lat="41.74441" lon="9.32859">
        <ele>450.8</ele>
        <time>2015-06-18T07:17:43Z</time>
      </trkpt>
      <trkpt lat="41.74444" lon="9.32852">
        <ele>451.6</ele>
        <time>2015-06-18T07:17:51Z</time>
      </trkpt>
      <trkpt lat="41.74446" lon="9.32843">
        <ele>453</ele>
        <time>2015-06-18T07:18:06Z</time>
      </trkpt>
      <trkpt lat="41.74448" lon="9.32838">
        <ele>453.6</ele>
        <time>2015-06-18T07:18:13Z</time>
      </trkpt>
      <trkpt lat="41.74454" lon="9.32836">
        <ele>454.8</ele>
        <time>2015-06-18T07:18:25Z</time>
      </trkpt>
      <trkpt lat="41.74454" lon="9.3283">
        <ele>455.8</ele>
        <time>2015-06-18T07:18:31Z</time>
      </trkpt>
      <trkpt lat="41.74458" lon="9.32822">
        <ele>457.2</ele>
        <time>2015-06-18T07:18:41Z</time>
      </trkpt>
      <trkpt lat="41.74459" lon="9.32813">
        <ele>458.4</ele>
        <time>2015-06-18T07:18:51Z</time>
      </trkpt>
      <trkpt lat="41.74461" lon="9.32798">
        <ele>459.6</ele>
        <time>2015-06-18T07:19:09Z</time>
      </trkpt>
      <trkpt lat="41.74464" lon="9.32794">
        <ele>460.4</ele>
        <time>2015-06-18T07:19:17Z</time>
      </trkpt>
      <trkpt lat="41.74466" lon="9.32784">
        <ele>461.6</ele>
        <time>2015-06-18T07:19:27Z</time>
      </trkpt>
      <trkpt lat="41.74472" lon="9.32777">
        <ele>462.6</ele>
        <time>2015-06-18T07:19:39Z</time>
      </trkpt>
      <trkpt lat="41.74474" lon="9.32778">
        <ele>463.8</ele>
        <time>2015-06-18T07:19:48Z</time>
      </trkpt>
      <trkpt lat="41.74475" lon="9.32781">
        <ele>464.2</ele>
        <time>2015-06-18T07:19:53Z</time>
      </trkpt>
      <trkpt lat="41.74476" lon="9.32786">
        <ele>465.6</ele>
        <time>2015-06-18T07:20:01Z</time>
      </trkpt>
      <trkpt lat="41.74478" lon="9.32793">
        <ele>467</ele>
        <time>2015-06-18T07:20:12Z</time>
      </trkpt>
      <trkpt lat="41.7448" lon="9.32799">
        <ele>468</ele>
        <time>2015-06-18T07:20:22Z</time>
      </trkpt>
      <trkpt lat="41.74482" lon="9.32802">
        <ele>469</ele>
        <time>2015-06-18T07:20:30Z</time>
      </trkpt>
      <trkpt lat="41.74485" lon="9.32801">
        <ele>470.2</ele>
        <time>2015-06-18T07:20:39Z</time>
      </trkpt>
      <trkpt lat="41.74487" lon="9.32799">
        <ele>471.2</ele>
        <time>2015-06-18T07:20:48Z</time>
      </trkpt>
      <trkpt lat="41.7449" lon="9.32798">
        <ele>472.2</ele>
        <time>2015-06-18T07:20:55Z</time>
      </trkpt>
      <trkpt lat="41.74493" lon="9.32796">
        <ele>473.4</ele>
        <time>2015-06-18T07:21:03Z</time>
      </trkpt>
      <trkpt lat="41.74498" lon="9.32796">
        <ele>474.4</ele>
        <time>2015-06-18T07:21:11Z</time>
      </trkpt>
      <trkpt lat="41.745" lon="9.32789">
        <ele>475.8</ele>
        <time>2015-06-18T07:21:20Z</time>
      </trkpt>
      <trkpt lat="41.74504" lon="9.32787">
        <ele>476.4</ele>
        <time>2015-06-18T07:21:29Z</time>
      </trkpt>
      <trkpt lat="41.74507" lon="9.32786">
        <ele>477.6</ele>
        <time>2015-06-18T07:21:38Z</time>
      </trkpt>
      <trkpt lat="41.7451" lon="9.32784">
        <ele>478.6</ele>
        <time>2015-06-18T07:21:46Z</time>
      </trkpt>
      <trkpt lat="41.74513" lon="9.32781">
        <ele>479.8</ele>
        <time>2015-06-18T07:21:53Z</time>
      </trkpt>
      <trkpt lat="41.74515" lon="9.3278">
        <ele>481</ele>
        <time>2015-06-18T07:22:01Z</time>
      </trkpt>
      <trkpt lat="41.74519" lon="9.32777">
        <ele>482</ele>
        <time>2015-06-18T07:22:11Z</time>
      </trkpt>
      <trkpt lat="41.74523" lon="9.32777">
        <ele>483.2</ele>
        <time>2015-06-18T07:22:20Z</time>
      </trkpt>
      <trkpt lat="41.74525" lon="9.32777">
        <ele>484</ele>
        <time>2015-06-18T07:22:27Z</time>
      </trkpt>
      <trkpt lat="41.74528" lon="9.32774">
        <ele>485.2</ele>
        <time>2015-06-18T07:22:35Z</time>
      </trkpt>
      <trkpt lat="41.74532" lon="9.32773">
        <ele>486.4</ele>
        <time>2015-06-18T07:22:44Z</time>
      </trkpt>
      <trkpt lat="41.74537" lon="9.32768">
        <ele>487.6</ele>
        <time>2015-06-18T07:23:02Z</time>
      </trkpt>
      <trkpt lat="41.74541" lon="9.32766">
        <ele>488.4</ele>
        <time>2015-06-18T07:23:08Z</time>
      </trkpt>
      <trkpt lat="41.74544" lon="9.32762">
        <ele>489.4</ele>
        <time>2015-06-18T07:23:15Z</time>
      </trkpt>
      <trkpt lat="41.7455" lon="9.32755">
        <ele>491</ele>
        <time>2015-06-18T07:23:32Z</time>
      </trkpt>
      <trkpt lat="41.74554" lon="9.32751">
        <ele>492</ele>
        <time>2015-06-18T07:23:41Z</time>
      </trkpt>
      <trkpt lat="41.7456" lon="9.32747">
        <ele>493.2</ele>
        <time>2015-06-18T07:23:51Z</time>
      </trkpt>
      <trkpt lat="41.74564" lon="9.32745">
        <ele>494.2</ele>
        <time>2015-06-18T07:24:00Z</time>
      </trkpt>
      <trkpt lat="41.74568" lon="9.32741">
        <ele>495.2</ele>
        <time>2015-06-18T07:24:08Z</time>
      </trkpt>
      <trkpt lat="41.74571" lon="9.32735">
        <ele>496.4</ele>
        <time>2015-06-18T07:24:17Z</time>
      </trkpt>
      <trkpt lat="41.74575" lon="9.3273">
        <ele>497.6</ele>
        <time>2015-06-18T07:24:28Z</time>
      </trkpt>
      <trkpt lat="41.74578" lon="9.32722">
        <ele>498.8</ele>
        <time>2015-06-18T07:24:38Z</time>
      </trkpt>
      <trkpt lat="41.74581" lon="9.32717">
        <ele>499.8</ele>
        <time>2015-06-18T07:24:47Z</time>
      </trkpt>
      <trkpt lat="41.74584" lon="9.32713">
        <ele>501.2</ele>
        <time>2015-06-18T07:24:55Z</time>
      </trkpt>
      <trkpt lat="41.74585" lon="9.32706">
        <ele>502.4</ele>
        <time>2015-06-18T07:25:04Z</time>
      </trkpt>
      <trkpt lat="41.74587" lon="9.32702">
        <ele>503</ele>
        <time>2015-06-18T07:25:11Z</time>
      </trkpt>
      <trkpt lat="41.74591" lon="9.32696">
        <ele>504.6</ele>
        <time>2015-06-18T07:25:20Z</time>
      </trkpt>
      <trkpt lat="41.74592" lon="9.32701">
        <ele>505.8</ele>
        <time>2015-06-18T07:25:30Z</time>
      </trkpt>
      <trkpt lat="41.74597" lon="9.32704">
        <ele>507</ele>
        <time>2015-06-18T07:25:41Z</time>
      </trkpt>
      <trkpt lat="41.746" lon="9.32701">
        <ele>508.2</ele>
        <time>2015-06-18T07:25:48Z</time>
      </trkpt>
      <trkpt lat="41.74602" lon="9.32695">
        <ele>509.2</ele>
        <time>2015-06-18T07:25:54Z</time>
      </trkpt>
      <trkpt lat="41.74605" lon="9.32691">
        <ele>510.6</ele>
        <time>2015-06-18T07:26:03Z</time>
      </trkpt>
      <trkpt lat="41.74607" lon="9.32686">
        <ele>511.4</ele>
        <time>2015-06-18T07:26:11Z</time>
      </trkpt>
      <trkpt lat="41.7461" lon="9.32681">
        <ele>513</ele>
        <time>2015-06-18T07:26:20Z</time>
      </trkpt>
      <trkpt lat="41.74614" lon="9.32679">
        <ele>513.8</ele>
        <time>2015-06-18T07:26:29Z</time>
      </trkpt>
      <trkpt lat="41.74616" lon="9.32674">
        <ele>515.2</ele>
        <time>2015-06-18T07:26:39Z</time>
      </trkpt>
      <trkpt lat="41.74619" lon="9.32671">
        <ele>516.2</ele>
        <time>2015-06-18T07:26:47Z</time>
      </trkpt>
      <trkpt lat="41.74623" lon="9.32668">
        <ele>517.4</ele>
        <time>2015-06-18T07:26:56Z</time>
      </trkpt>
      <trkpt lat="41.74624" lon="9.32664">
        <ele>518.4</ele>
        <time>2015-06-18T07:27:03Z</time>
      </trkpt>
      <trkpt lat="41.74627" lon="9.32659">
        <ele>519.6</ele>
        <time>2015-06-18T07:27:11Z</time>
      </trkpt>
      <trkpt lat="41.74627" lon="9.32652">
        <ele>520.6</ele>
        <time>2015-06-18T07:27:19Z</time>
      </trkpt>
      <trkpt lat="41.74628" lon="9.32645">
        <ele>522.2</ele>
        <time>2015-06-18T07:27:31Z</time>
      </trkpt>
      <trkpt lat="41.74631" lon="9.32638">
        <ele>523.2</ele>
        <time>2015-06-18T07:27:51Z</time>
      </trkpt>
      <trkpt lat="41.74633" lon="9.32634">
        <ele>524.4</ele>
        <time>2015-06-18T07:28:01Z</time>
      </trkpt>
      <trkpt lat="41.74635" lon="9.32635">
        <ele>525.2</ele>
        <time>2015-06-18T07:28:09Z</time>
      </trkpt>
      <trkpt lat="41.74639" lon="9.32636">
        <ele>526.4</ele>
        <time>2015-06-18T07:28:17Z</time>
      </trkpt>
      <trkpt lat="41.74642" lon="9.32639">
        <ele>527.6</ele>
        <time>2015-06-18T07:28:26Z</time>
      </trkpt>
      <trkpt lat="41.74644" lon="9.32644">
        <ele>528.6</ele>
        <time>2015-06-18T07:28:33Z</time>
      </trkpt>
      <trkpt lat="41.74648" lon="9.32647">
        <ele>529.8</ele>
        <time>2015-06-18T07:28:42Z</time>
      </trkpt>
      <trkpt lat="41.74651" lon="9.32644">
        <ele>531</ele>
        <time>2015-06-18T07:28:52Z</time>
      </trkpt>
      <trkpt lat="41.74653" lon="9.32644">
        <ele>531.8</ele>
        <time>2015-06-18T07:28:59Z</time>
      </trkpt>
      <trkpt lat="41.74655" lon="9.32644">
        <ele>533.2</ele>
        <time>2015-06-18T07:29:08Z</time>
      </trkpt>
      <trkpt lat="41.74657" lon="9.32646">
        <ele>534.2</ele>
        <time>2015-06-18T07:29:16Z</time>
      </trkpt>
      <trkpt lat="41.74659" lon="9.32651">
        <ele>535.2</ele>
        <time>2015-06-18T07:29:26Z</time>
      </trkpt>
      <trkpt lat="41.74662" lon="9.32656">
        <ele>536.8</ele>
        <time>2015-06-18T07:29:34Z</time>
      </trkpt>
      <trkpt lat="41.74666" lon="9.3265">
        <ele>537.8</ele>
        <time>2015-06-18T07:29:48Z</time>
      </trkpt>
      <trkpt lat="41.74667" lon="9.32644">
        <ele>539</ele>
        <time>2015-06-18T07:29:59Z</time>
      </trkpt>
      <trkpt lat="41.74668" lon="9.32641">
        <ele>540.2</ele>
        <time>2015-06-18T07:30:08Z</time>
      </trkpt>
      <trkpt lat="41.74669" lon="9.32631">
        <ele>541.2</ele>
        <time>2015-06-18T07:30:18Z</time>
      </trkpt>
      <trkpt lat="41.7467" lon="9.32624">
        <ele>542.4</ele>
        <time>2015-06-18T07:30:28Z</time>
      </trkpt>
      <trkpt lat="41.74671" lon="9.32621">
        <ele>543.6</ele>
        <time>2015-06-18T07:30:36Z</time>
      </trkpt>
      <trkpt lat="41.74674" lon="9.3262">
        <ele>544.6</ele>
        <time>2015-06-18T07:30:45Z</time>
      </trkpt>
      <trkpt lat="41.74678" lon="9.32617">
        <ele>546</ele>
        <time>2015-06-18T07:30:56Z</time>
      </trkpt>
      <trkpt lat="41.74677" lon="9.32613">
        <ele>546.8</ele>
        <time>2015-06-18T07:31:02Z</time>
      </trkpt>
      <trkpt lat="41.74676" lon="9.32609">
        <ele>548.6</ele>
        <time>2015-06-18T07:31:14Z</time>
      </trkpt>
      <trkpt lat="41.74678" lon="9.32611">
        <ele>549.6</ele>
        <time>2015-06-18T07:31:25Z</time>
      </trkpt>
      <trkpt lat="41.74681" lon="9.3261">
        <ele>550.6</ele>
        <time>2015-06-18T07:31:34Z</time>
      </trkpt>
      <trkpt lat="41.74684" lon="9.3261">
        <ele>551</ele>
        <time>2015-06-18T07:31:40Z</time>
      </trkpt>
      <trkpt lat="41.74688" lon="9.32608">
        <ele>552.6</ele>
        <time>2015-06-18T07:31:51Z</time>
      </trkpt>
      <trkpt lat="41.7469" lon="9.32606">
        <ele>553.4</ele>
        <time>2015-06-18T07:31:58Z</time>
      </trkpt>
      <trkpt lat="41.74691" lon="9.32601">
        <ele>555</ele>
        <time>2015-06-18T07:32:06Z</time>
      </trkpt>
      <trkpt lat="41.74692" lon="9.32599">
        <ele>556.2</ele>
        <time>2015-06-18T07:32:16Z</time>
      </trkpt>
      <trkpt lat="41.74696" lon="9.32599">
        <ele>557.2</ele>
        <time>2015-06-18T07:32:25Z</time>
      </trkpt>
      <trkpt lat="41.74698" lon="9.32597">
        <ele>558</ele>
        <time>2015-06-18T07:32:34Z</time>
      </trkpt>
      <trkpt lat="41.74698" lon="9.32594">
        <ele>559</ele>
        <time>2015-06-18T07:32:40Z</time>
      </trkpt>
      <trkpt lat="41.74697" lon="9.32588">
        <ele>560</ele>
        <time>2015-06-18T07:32:46Z</time>
      </trkpt>
      <trkpt lat="41.74696" lon="9.32587">
        <ele>560.2</ele>
        <time>2015-06-18T07:32:47Z</time>
      </trkpt>
      <trkpt lat="41.74698" lon="9.32584">
        <ele>561.4</ele>
        <time>2015-06-18T07:32:57Z</time>
      </trkpt>
      <trkpt lat="41.74701" lon="9.32584">
        <ele>562.6</ele>
        <time>2015-06-18T07:33:07Z</time>
      </trkpt>
      <trkpt lat="41.74703" lon="9.32587">
        <ele>563.4</ele>
        <time>2015-06-18T07:33:14Z</time>
      </trkpt>
      <trkpt lat="41.74708" lon="9.32589">
        <ele>564.6</ele>
        <time>2015-06-18T07:33:22Z</time>
      </trkpt>
      <trkpt lat="41.74711" lon="9.3259">
        <ele>566</ele>
        <time>2015-06-18T07:33:31Z</time>
      </trkpt>
      <trkpt lat="41.74715" lon="9.32591">
        <ele>567</ele>
        <time>2015-06-18T07:33:39Z</time>
      </trkpt>
      <trkpt lat="41.7472" lon="9.32592">
        <ele>567.8</ele>
        <time>2015-06-18T07:33:46Z</time>
      </trkpt>
      <trkpt lat="41.74723" lon="9.32595">
        <ele>569.4</ele>
        <time>2015-06-18T07:33:55Z</time>
      </trkpt>
      <trkpt lat="41.74728" lon="9.32597">
        <ele>570.2</ele>
        <time>2015-06-18T07:34:05Z</time>
      </trkpt>
      <trkpt lat="41.7473" lon="9.32597">
        <ele>571</ele>
        <time>2015-06-18T07:34:10Z</time>
      </trkpt>
      <trkpt lat="41.74734" lon="9.32599">
        <ele>572.4</ele>
        <time>2015-06-18T07:34:18Z</time>
      </trkpt>
      <trkpt lat="41.74739" lon="9.326">
        <ele>573.6</ele>
        <time>2015-06-18T07:34:27Z</time>
      </trkpt>
      <trkpt lat="41.74744" lon="9.326">
        <ele>574.6</ele>
        <time>2015-06-18T07:34:35Z</time>
      </trkpt>
      <trkpt lat="41.7475" lon="9.32599">
        <ele>576.2</ele>
        <time>2015-06-18T07:34:46Z</time>
      </trkpt>
      <trkpt lat="41.74746" lon="9.32601">
        <ele>576</ele>
        <time>2015-06-18T07:40:29Z</time>
      </trkpt>
      <trkpt lat="41.74769" lon="9.32595">
        <ele>576</ele>
        <time>2015-06-18T07:41:25Z</time>
      </trkpt>
      <trkpt lat="41.74776" lon="9.32589">
        <ele>575.6</ele>
        <time>2015-06-18T07:42:27Z</time>
      </trkpt>
      <trkpt lat="41.74777" lon="9.32586">
        <ele>575</ele>
        <time>2015-06-18T07:42:33Z</time>
      </trkpt>
      <trkpt lat="41.74779" lon="9.32584">
        <ele>573.4</ele>
        <time>2015-06-18T07:42:42Z</time>
      </trkpt>
      <trkpt lat="41.74781" lon="9.32581">
        <ele>572.4</ele>
        <time>2015-06-18T07:42:51Z</time>
      </trkpt>
      <trkpt lat="41.74785" lon="9.3258">
        <ele>571</ele>
        <time>2015-06-18T07:43:01Z</time>
      </trkpt>
      <trkpt lat="41.74788" lon="9.32575">
        <ele>570</ele>
        <time>2015-06-18T07:43:10Z</time>
      </trkpt>
      <trkpt lat="41.74792" lon="9.32568">
        <ele>568.8</ele>
        <time>2015-06-18T07:43:20Z</time>
      </trkpt>
      <trkpt lat="41.74797" lon="9.32563">
        <ele>567.4</ele>
        <time>2015-06-18T07:43:54Z</time>
      </trkpt>
      <trkpt lat="41.748" lon="9.32546">
        <ele>565.8</ele>
        <time>2015-06-18T07:44:08Z</time>
      </trkpt>
      <trkpt lat="41.74803" lon="9.32529">
        <ele>564.8</ele>
        <time>2015-06-18T07:44:29Z</time>
      </trkpt>
      <trkpt lat="41.74807" lon="9.32525">
        <ele>563.8</ele>
        <time>2015-06-18T07:44:36Z</time>
      </trkpt>
      <trkpt lat="41.74812" lon="9.32522">
        <ele>562.6</ele>
        <time>2015-06-18T07:44:44Z</time>
      </trkpt>
      <trkpt lat="41.74816" lon="9.32519">
        <ele>561.2</ele>
        <time>2015-06-18T07:44:53Z</time>
      </trkpt>
      <trkpt lat="41.74817" lon="9.32517">
        <ele>560.6</ele>
        <time>2015-06-18T07:44:57Z</time>
      </trkpt>
      <trkpt lat="41.7482" lon="9.32516">
        <ele>560</ele>
        <time>2015-06-18T07:45:03Z</time>
      </trkpt>
      <trkpt lat="41.74841" lon="9.32494">
        <ele>558.4</ele>
        <time>2015-06-18T07:45:30Z</time>
      </trkpt>
      <trkpt lat="41.74859" lon="9.32472">
        <ele>558.2</ele>
        <time>2015-06-18T07:45:55Z</time>
      </trkpt>
      <trkpt lat="41.74864" lon="9.32462">
        <ele>559.2</ele>
        <time>2015-06-18T07:46:05Z</time>
      </trkpt>
      <trkpt lat="41.74868" lon="9.32451">
        <ele>560.6</ele>
        <time>2015-06-18T07:46:19Z</time>
      </trkpt>
      <trkpt lat="41.74867" lon="9.32433">
        <ele>561.6</ele>
        <time>2015-06-18T07:46:38Z</time>
      </trkpt>
      <trkpt lat="41.74866" lon="9.32423">
        <ele>562</ele>
        <time>2015-06-18T07:46:48Z</time>
      </trkpt>
      <trkpt lat="41.74866" lon="9.3241">
        <ele>563.4</ele>
        <time>2015-06-18T07:47:00Z</time>
      </trkpt>
      <trkpt lat="41.74859" lon="9.32396">
        <ele>564.2</ele>
        <time>2015-06-18T07:47:14Z</time>
      </trkpt>
      <trkpt lat="41.74857" lon="9.32389">
        <ele>565</ele>
        <time>2015-06-18T07:47:23Z</time>
      </trkpt>
      <trkpt lat="41.74856" lon="9.32379">
        <ele>566.2</ele>
        <time>2015-06-18T07:47:34Z</time>
      </trkpt>
      <trkpt lat="41.74856" lon="9.32374">
        <ele>566.8</ele>
        <time>2015-06-18T07:47:40Z</time>
      </trkpt>
      <trkpt lat="41.74853" lon="9.32366">
        <ele>568.2</ele>
        <time>2015-06-18T07:47:49Z</time>
      </trkpt>
      <trkpt lat="41.74851" lon="9.32358">
        <ele>569.4</ele>
        <time>2015-06-18T07:47:58Z</time>
      </trkpt>
      <trkpt lat="41.74851" lon="9.32299">
        <ele>570.4</ele>
        <time>2015-06-18T07:48:50Z</time>
      </trkpt>
      <trkpt lat="41.74857" lon="9.32281">
        <ele>570.6</ele>
        <time>2015-06-18T07:49:09Z</time>
      </trkpt>
      <trkpt lat="41.74862" lon="9.32271">
        <ele>571.4</ele>
        <time>2015-06-18T07:49:22Z</time>
      </trkpt>
      <trkpt lat="41.74867" lon="9.32262">
        <ele>572.4</ele>
        <time>2015-06-18T07:49:43Z</time>
      </trkpt>
      <trkpt lat="41.74872" lon="9.32256">
        <ele>573.4</ele>
        <time>2015-06-18T07:49:53Z</time>
      </trkpt>
      <trkpt lat="41.74876" lon="9.32248">
        <ele>574.2</ele>
        <time>2015-06-18T07:50:02Z</time>
      </trkpt>
      <trkpt lat="41.74878" lon="9.32244">
        <ele>575.2</ele>
        <time>2015-06-18T07:50:09Z</time>
      </trkpt>
      <trkpt lat="41.74879" lon="9.3224">
        <ele>576.2</ele>
        <time>2015-06-18T07:50:16Z</time>
      </trkpt>
      <trkpt lat="41.74882" lon="9.32237">
        <ele>577.2</ele>
        <time>2015-06-18T07:50:22Z</time>
      </trkpt>
      <trkpt lat="41.74883" lon="9.32231">
        <ele>578.4</ele>
        <time>2015-06-18T07:50:29Z</time>
      </trkpt>
      <trkpt lat="41.74885" lon="9.32229">
        <ele>579.4</ele>
        <time>2015-06-18T07:50:35Z</time>
      </trkpt>
      <trkpt lat="41.74884" lon="9.32224">
        <ele>580.4</ele>
        <time>2015-06-18T07:50:41Z</time>
      </trkpt>
      <trkpt lat="41.74885" lon="9.32217">
        <ele>581.6</ele>
        <time>2015-06-18T07:50:49Z</time>
      </trkpt>
      <trkpt lat="41.74881" lon="9.32213">
        <ele>582.8</ele>
        <time>2015-06-18T07:50:57Z</time>
      </trkpt>
      <trkpt lat="41.7488" lon="9.32212">
        <ele>583.4</ele>
        <time>2015-06-18T07:51:02Z</time>
      </trkpt>
      <trkpt lat="41.7488" lon="9.32208">
        <ele>584.6</ele>
        <time>2015-06-18T07:51:08Z</time>
      </trkpt>
      <trkpt lat="41.74878" lon="9.32201">
        <ele>586.2</ele>
        <time>2015-06-18T07:51:16Z</time>
      </trkpt>
      <trkpt lat="41.74872" lon="9.32192">
        <ele>587.4</ele>
        <time>2015-06-18T07:51:28Z</time>
      </trkpt>
      <trkpt lat="41.74851" lon="9.32149">
        <ele>587.6</ele>
        <time>2015-06-18T07:52:18Z</time>
      </trkpt>
      <trkpt lat="41.74849" lon="9.32142">
        <ele>586.4</ele>
        <time>2015-06-18T07:52:26Z</time>
      </trkpt>
      <trkpt lat="41.74847" lon="9.32132">
        <ele>585.2</ele>
        <time>2015-06-18T07:52:35Z</time>
      </trkpt>
      <trkpt lat="41.74843" lon="9.32123">
        <ele>584.4</ele>
        <time>2015-06-18T07:52:43Z</time>
      </trkpt>
      <trkpt lat="41.74842" lon="9.32111">
        <ele>583</ele>
        <time>2015-06-18T07:52:52Z</time>
      </trkpt>
      <trkpt lat="41.74845" lon="9.32076">
        <ele>581.8</ele>
        <time>2015-06-18T07:53:27Z</time>
      </trkpt>
      <trkpt lat="41.74857" lon="9.32066">
        <ele>582.6</ele>
        <time>2015-06-18T07:53:44Z</time>
      </trkpt>
      <trkpt lat="41.74864" lon="9.32058">
        <ele>581.4</ele>
        <time>2015-06-18T07:53:53Z</time>
      </trkpt>
      <trkpt lat="41.74871" lon="9.32054">
        <ele>580.6</ele>
        <time>2015-06-18T07:54:00Z</time>
      </trkpt>
      <trkpt lat="41.74879" lon="9.32047">
        <ele>579</ele>
        <time>2015-06-18T07:54:09Z</time>
      </trkpt>
      <trkpt lat="41.74899" lon="9.31993">
        <ele>577.4</ele>
        <time>2015-06-18T07:54:56Z</time>
      </trkpt>
      <trkpt lat="41.74898" lon="9.31981">
        <ele>577.6</ele>
        <time>2015-06-18T07:55:09Z</time>
      </trkpt>
      <trkpt lat="41.74896" lon="9.31976">
        <ele>578.4</ele>
        <time>2015-06-18T07:55:19Z</time>
      </trkpt>
      <trkpt lat="41.74891" lon="9.31973">
        <ele>579.2</ele>
        <time>2015-06-18T07:55:29Z</time>
      </trkpt>
      <trkpt lat="41.7489" lon="9.31971">
        <ele>579.6</ele>
        <time>2015-06-18T07:55:33Z</time>
      </trkpt>
      <trkpt lat="41.74887" lon="9.31967">
        <ele>581.4</ele>
        <time>2015-06-18T07:55:40Z</time>
      </trkpt>
      <trkpt lat="41.74885" lon="9.31969">
        <ele>582.4</ele>
        <time>2015-06-18T07:55:49Z</time>
      </trkpt>
      <trkpt lat="41.74882" lon="9.31968">
        <ele>583.6</ele>
        <time>2015-06-18T07:55:59Z</time>
      </trkpt>
      <trkpt lat="41.7488" lon="9.31964">
        <ele>584.6</ele>
        <time>2015-06-18T07:56:07Z</time>
      </trkpt>
      <trkpt lat="41.74877" lon="9.31963">
        <ele>585.6</ele>
        <time>2015-06-18T07:56:16Z</time>
      </trkpt>
      <trkpt lat="41.74877" lon="9.31965">
        <ele>586</ele>
        <time>2015-06-18T07:56:22Z</time>
      </trkpt>
      <trkpt lat="41.74878" lon="9.31968">
        <ele>587.4</ele>
        <time>2015-06-18T07:56:29Z</time>
      </trkpt>
      <trkpt lat="41.74875" lon="9.31969">
        <ele>588.4</ele>
        <time>2015-06-18T07:56:37Z</time>
      </trkpt>
      <trkpt lat="41.74875" lon="9.31967">
        <ele>589.8</ele>
        <time>2015-06-18T07:56:46Z</time>
      </trkpt>
      <trkpt lat="41.74873" lon="9.31963">
        <ele>591</ele>
        <time>2015-06-18T07:56:56Z</time>
      </trkpt>
      <trkpt lat="41.74873" lon="9.3196">
        <ele>591.6</ele>
        <time>2015-06-18T07:57:03Z</time>
      </trkpt>
      <trkpt lat="41.74871" lon="9.31955">
        <ele>592.8</ele>
        <time>2015-06-18T07:57:13Z</time>
      </trkpt>
      <trkpt lat="41.74869" lon="9.3195">
        <ele>593.8</ele>
        <time>2015-06-18T07:57:21Z</time>
      </trkpt>
      <trkpt lat="41.74865" lon="9.31948">
        <ele>594.8</ele>
        <time>2015-06-18T07:57:31Z</time>
      </trkpt>
      <trkpt lat="41.74865" lon="9.31945">
        <ele>595.6</ele>
        <time>2015-06-18T07:57:37Z</time>
      </trkpt>
      <trkpt lat="41.74864" lon="9.31938">
        <ele>597</ele>
        <time>2015-06-18T07:57:45Z</time>
      </trkpt>
      <trkpt lat="41.74864" lon="9.31937">
        <ele>597</ele>
        <time>2015-06-18T07:57:46Z</time>
      </trkpt>
      <trkpt lat="41.74864" lon="9.31933">
        <ele>597.8</ele>
        <time>2015-06-18T07:57:53Z</time>
      </trkpt>
      <trkpt lat="41.74866" lon="9.31928">
        <ele>599</ele>
        <time>2015-06-18T07:58:00Z</time>
      </trkpt>
      <trkpt lat="41.74873" lon="9.31926">
        <ele>600</ele>
        <time>2015-06-18T07:58:10Z</time>
      </trkpt>
      <trkpt lat="41.74876" lon="9.31923">
        <ele>601.2</ele>
        <time>2015-06-18T07:58:18Z</time>
      </trkpt>
      <trkpt lat="41.74883" lon="9.31912">
        <ele>601.4</ele>
        <time>2015-06-18T07:58:32Z</time>
      </trkpt>
      <trkpt lat="41.74883" lon="9.31911">
        <ele>601.4</ele>
        <time>2015-06-18T07:58:33Z</time>
      </trkpt>
      <trkpt lat="41.74885" lon="9.31909">
        <ele>601.2</ele>
        <time>2015-06-18T07:58:36Z</time>
      </trkpt>
      <trkpt lat="41.74896" lon="9.31904">
        <ele>601.4</ele>
        <time>2015-06-18T07:58:55Z</time>
      </trkpt>
      <trkpt lat="41.74899" lon="9.31903">
        <ele>602.2</ele>
        <time>2015-06-18T07:59:03Z</time>
      </trkpt>
      <trkpt lat="41.74902" lon="9.31901">
        <ele>603</ele>
        <time>2015-06-18T07:59:09Z</time>
      </trkpt>
      <trkpt lat="41.74905" lon="9.31899">
        <ele>604</ele>
        <time>2015-06-18T07:59:14Z</time>
      </trkpt>
      <trkpt lat="41.7491" lon="9.31896">
        <ele>605.6</ele>
        <time>2015-06-18T07:59:22Z</time>
      </trkpt>
      <trkpt lat="41.7491" lon="9.31892">
        <ele>606.6</ele>
        <time>2015-06-18T07:59:31Z</time>
      </trkpt>
      <trkpt lat="41.74911" lon="9.31892">
        <ele>607.2</ele>
        <time>2015-06-18T07:59:37Z</time>
      </trkpt>
      <trkpt lat="41.74914" lon="9.31888">
        <ele>608.6</ele>
        <time>2015-06-18T07:59:45Z</time>
      </trkpt>
      <trkpt lat="41.7492" lon="9.31887">
        <ele>609.8</ele>
        <time>2015-06-18T07:59:56Z</time>
      </trkpt>
      <trkpt lat="41.74927" lon="9.31887">
        <ele>611</ele>
        <time>2015-06-18T08:00:06Z</time>
      </trkpt>
      <trkpt lat="41.7493" lon="9.31883">
        <ele>611.6</ele>
        <time>2015-06-18T08:00:12Z</time>
      </trkpt>
      <trkpt lat="41.74939" lon="9.31871">
        <ele>612.2</ele>
        <time>2015-06-18T08:00:36Z</time>
      </trkpt>
      <trkpt lat="41.7495" lon="9.31866">
        <ele>611</ele>
        <time>2015-06-18T08:00:50Z</time>
      </trkpt>
      <trkpt lat="41.74952" lon="9.31866">
        <ele>610.8</ele>
        <time>2015-06-18T08:00:51Z</time>
      </trkpt>
      <trkpt lat="41.74964" lon="9.31863">
        <ele>609.6</ele>
        <time>2015-06-18T08:01:03Z</time>
      </trkpt>
      <trkpt lat="41.74992" lon="9.31856">
        <ele>609.2</ele>
        <time>2015-06-18T08:01:33Z</time>
      </trkpt>
      <trkpt lat="41.74997" lon="9.31852">
        <ele>610.4</ele>
        <time>2015-06-18T08:01:42Z</time>
      </trkpt>
      <trkpt lat="41.74999" lon="9.31848">
        <ele>611.4</ele>
        <time>2015-06-18T08:01:50Z</time>
      </trkpt>
      <trkpt lat="41.75009" lon="9.31835">
        <ele>612.6</ele>
        <time>2015-06-18T08:02:05Z</time>
      </trkpt>
      <trkpt lat="41.75014" lon="9.31823">
        <ele>613.2</ele>
        <time>2015-06-18T08:02:18Z</time>
      </trkpt>
      <trkpt lat="41.75015" lon="9.3181">
        <ele>614.4</ele>
        <time>2015-06-18T08:02:28Z</time>
      </trkpt>
      <trkpt lat="41.75007" lon="9.3175">
        <ele>615</ele>
        <time>2015-06-18T08:03:19Z</time>
      </trkpt>
      <trkpt lat="41.75007" lon="9.31748">
        <ele>615.2</ele>
        <time>2015-06-18T08:03:21Z</time>
      </trkpt>
      <trkpt lat="41.75011" lon="9.31722">
        <ele>615.6</ele>
        <time>2015-06-18T08:03:45Z</time>
      </trkpt>
      <trkpt lat="41.75031" lon="9.31686">
        <ele>616.6</ele>
        <time>2015-06-18T08:04:35Z</time>
      </trkpt>
      <trkpt lat="41.75032" lon="9.31686">
        <ele>616.6</ele>
        <time>2015-06-18T08:04:36Z</time>
      </trkpt>
      <trkpt lat="41.75036" lon="9.3166">
        <ele>616.8</ele>
        <time>2015-06-18T08:05:03Z</time>
      </trkpt>
      <trkpt lat="41.75028" lon="9.3163">
        <ele>615.2</ele>
        <time>2015-06-18T08:05:28Z</time>
      </trkpt>
      <trkpt lat="41.75017" lon="9.31612">
        <ele>615.4</ele>
        <time>2015-06-18T08:05:50Z</time>
      </trkpt>
      <trkpt lat="41.75012" lon="9.3161">
        <ele>616</ele>
        <time>2015-06-18T08:05:58Z</time>
      </trkpt>
      <trkpt lat="41.75011" lon="9.31608">
        <ele>617.4</ele>
        <time>2015-06-18T08:06:07Z</time>
      </trkpt>
      <trkpt lat="41.75008" lon="9.31603">
        <ele>618.2</ele>
        <time>2015-06-18T08:06:17Z</time>
      </trkpt>
      <trkpt lat="41.75003" lon="9.31599">
        <ele>619.4</ele>
        <time>2015-06-18T08:06:25Z</time>
      </trkpt>
      <trkpt lat="41.75002" lon="9.31597">
        <ele>620</ele>
        <time>2015-06-18T08:06:31Z</time>
      </trkpt>
      <trkpt lat="41.7501" lon="9.3158">
        <ele>621.2</ele>
        <time>2015-06-18T08:07:03Z</time>
      </trkpt>
      <trkpt lat="41.75023" lon="9.31568">
        <ele>622.4</ele>
        <time>2015-06-18T08:07:21Z</time>
      </trkpt>
      <trkpt lat="41.75051" lon="9.31536">
        <ele>621.6</ele>
        <time>2015-06-18T08:07:59Z</time>
      </trkpt>
      <trkpt lat="41.75052" lon="9.31534">
        <ele>621.6</ele>
        <time>2015-06-18T08:08:01Z</time>
      </trkpt>
      <trkpt lat="41.75052" lon="9.31532">
        <ele>621.6</ele>
        <time>2015-06-18T08:08:03Z</time>
      </trkpt>
      <trkpt lat="41.75052" lon="9.31527">
        <ele>621.6</ele>
        <time>2015-06-18T08:08:08Z</time>
      </trkpt>
      <trkpt lat="41.75055" lon="9.3152">
        <ele>622.4</ele>
        <time>2015-06-18T08:08:17Z</time>
      </trkpt>
      <trkpt lat="41.75055" lon="9.31518">
        <ele>622.6</ele>
        <time>2015-06-18T08:08:20Z</time>
      </trkpt>
      <trkpt lat="41.75056" lon="9.31516">
        <ele>622.6</ele>
        <time>2015-06-18T08:08:22Z</time>
      </trkpt>
      <trkpt lat="41.75057" lon="9.31512">
        <ele>622.8</ele>
        <time>2015-06-18T08:08:27Z</time>
      </trkpt>
      <trkpt lat="41.7506" lon="9.31506">
        <ele>623</ele>
        <time>2015-06-18T08:08:33Z</time>
      </trkpt>
      <trkpt lat="41.75063" lon="9.31487">
        <ele>624.4</ele>
        <time>2015-06-18T08:08:58Z</time>
      </trkpt>
      <trkpt lat="41.75066" lon="9.31481">
        <ele>625.2</ele>
        <time>2015-06-18T08:09:08Z</time>
      </trkpt>
      <trkpt lat="41.75068" lon="9.31475">
        <ele>626.2</ele>
        <time>2015-06-18T08:09:19Z</time>
      </trkpt>
      <trkpt lat="41.75068" lon="9.31471">
        <ele>627.4</ele>
        <time>2015-06-18T08:09:27Z</time>
      </trkpt>
      <trkpt lat="41.7507" lon="9.31466">
        <ele>628.4</ele>
        <time>2015-06-18T08:09:38Z</time>
      </trkpt>
      <trkpt lat="41.75074" lon="9.31463">
        <ele>628.8</ele>
        <time>2015-06-18T08:09:42Z</time>
      </trkpt>
      <trkpt lat="41.75075" lon="9.31461">
        <ele>629.6</ele>
        <time>2015-06-18T08:09:47Z</time>
      </trkpt>
      <trkpt lat="41.75078" lon="9.31455">
        <ele>630.4</ele>
        <time>2015-06-18T08:10:00Z</time>
      </trkpt>
      <trkpt lat="41.75082" lon="9.3145">
        <ele>631.8</ele>
        <time>2015-06-18T08:10:09Z</time>
      </trkpt>
      <trkpt lat="41.75083" lon="9.31449">
        <ele>632.6</ele>
        <time>2015-06-18T08:10:19Z</time>
      </trkpt>
      <trkpt lat="41.75088" lon="9.31446">
        <ele>633.8</ele>
        <time>2015-06-18T08:10:30Z</time>
      </trkpt>
      <trkpt lat="41.75092" lon="9.31442">
        <ele>634.6</ele>
        <time>2015-06-18T08:10:39Z</time>
      </trkpt>
      <trkpt lat="41.75102" lon="9.31431">
        <ele>636</ele>
        <time>2015-06-18T08:11:08Z</time>
      </trkpt>
      <trkpt lat="41.75107" lon="9.31429">
        <ele>636</ele>
        <time>2015-06-18T08:11:13Z</time>
      </trkpt>
      <trkpt lat="41.75114" lon="9.31428">
        <ele>636.8</ele>
        <time>2015-06-18T08:11:22Z</time>
      </trkpt>
      <trkpt lat="41.75122" lon="9.31431">
        <ele>638.2</ele>
        <time>2015-06-18T08:11:33Z</time>
      </trkpt>
      <trkpt lat="41.75128" lon="9.31432">
        <ele>639</ele>
        <time>2015-06-18T08:11:42Z</time>
      </trkpt>
      <trkpt lat="41.75134" lon="9.31433">
        <ele>639.8</ele>
        <time>2015-06-18T08:11:51Z</time>
      </trkpt>
      <trkpt lat="41.75138" lon="9.31434">
        <ele>641.2</ele>
        <time>2015-06-18T08:12:01Z</time>
      </trkpt>
      <trkpt lat="41.75146" lon="9.31435">
        <ele>642.2</ele>
        <time>2015-06-18T08:12:11Z</time>
      </trkpt>
      <trkpt lat="41.75158" lon="9.31435">
        <ele>643.6</ele>
        <time>2015-06-18T08:12:29Z</time>
      </trkpt>
      <trkpt lat="41.75201" lon="9.31443">
        <ele>644.2</ele>
        <time>2015-06-18T08:13:18Z</time>
      </trkpt>
      <trkpt lat="41.75208" lon="9.31449">
        <ele>644.8</ele>
        <time>2015-06-18T08:13:26Z</time>
      </trkpt>
      <trkpt lat="41.75238" lon="9.31492">
        <ele>644.6</ele>
        <time>2015-06-18T08:14:12Z</time>
      </trkpt>
      <trkpt lat="41.75247" lon="9.31498">
        <ele>643.6</ele>
        <time>2015-06-18T08:14:23Z</time>
      </trkpt>
      <trkpt lat="41.75254" lon="9.31503">
        <ele>643.2</ele>
        <time>2015-06-18T08:14:32Z</time>
      </trkpt>
      <trkpt lat="41.75295" lon="9.31521">
        <ele>643.2</ele>
        <time>2015-06-18T08:15:12Z</time>
      </trkpt>
      <trkpt lat="41.75306" lon="9.31531">
        <ele>644</ele>
        <time>2015-06-18T08:15:30Z</time>
      </trkpt>
      <trkpt lat="41.75346" lon="9.31506">
        <ele>643.2</ele>
        <time>2015-06-18T08:16:15Z</time>
      </trkpt>
      <trkpt lat="41.75353" lon="9.31491">
        <ele>643.4</ele>
        <time>2015-06-18T08:16:34Z</time>
      </trkpt>
      <trkpt lat="41.75355" lon="9.31489">
        <ele>643.6</ele>
        <time>2015-06-18T08:16:39Z</time>
      </trkpt>
      <trkpt lat="41.75374" lon="9.31472">
        <ele>644</ele>
        <time>2015-06-18T08:17:08Z</time>
      </trkpt>
      <trkpt lat="41.75407" lon="9.31456">
        <ele>643.8</ele>
        <time>2015-06-18T08:17:44Z</time>
      </trkpt>
      <trkpt lat="41.75414" lon="9.31454">
        <ele>642.8</ele>
        <time>2015-06-18T08:17:52Z</time>
      </trkpt>
      <trkpt lat="41.75426" lon="9.31452">
        <ele>641.4</ele>
        <time>2015-06-18T08:18:03Z</time>
      </trkpt>
      <trkpt lat="41.75431" lon="9.31448">
        <ele>640.6</ele>
        <time>2015-06-18T08:18:09Z</time>
      </trkpt>
      <trkpt lat="41.75436" lon="9.3144">
        <ele>639</ele>
        <time>2015-06-18T08:18:20Z</time>
      </trkpt>
      <trkpt lat="41.75437" lon="9.31436">
        <ele>638.8</ele>
        <time>2015-06-18T08:18:24Z</time>
      </trkpt>
      <trkpt lat="41.75439" lon="9.31435">
        <ele>638.2</ele>
        <time>2015-06-18T08:18:28Z</time>
      </trkpt>
      <trkpt lat="41.7544" lon="9.31429">
        <ele>637.2</ele>
        <time>2015-06-18T08:18:35Z</time>
      </trkpt>
      <trkpt lat="41.75444" lon="9.31424">
        <ele>636.2</ele>
        <time>2015-06-18T08:18:42Z</time>
      </trkpt>
      <trkpt lat="41.75446" lon="9.31415">
        <ele>635</ele>
        <time>2015-06-18T08:18:50Z</time>
      </trkpt>
      <trkpt lat="41.75448" lon="9.31407">
        <ele>633.8</ele>
        <time>2015-06-18T08:18:58Z</time>
      </trkpt>
      <trkpt lat="41.75449" lon="9.314">
        <ele>632.4</ele>
        <time>2015-06-18T08:19:08Z</time>
      </trkpt>
      <trkpt lat="41.7545" lon="9.31395">
        <ele>631.2</ele>
        <time>2015-06-18T08:19:49Z</time>
      </trkpt>
      <trkpt lat="41.75454" lon="9.3139">
        <ele>630.8</ele>
        <time>2015-06-18T08:19:55Z</time>
      </trkpt>
      <trkpt lat="41.75455" lon="9.31383">
        <ele>628.8</ele>
        <time>2015-06-18T08:20:15Z</time>
      </trkpt>
      <trkpt lat="41.75459" lon="9.31379">
        <ele>628.2</ele>
        <time>2015-06-18T08:20:23Z</time>
      </trkpt>
      <trkpt lat="41.75463" lon="9.31373">
        <ele>627.2</ele>
        <time>2015-06-18T08:20:30Z</time>
      </trkpt>
      <trkpt lat="41.75458" lon="9.31356">
        <ele>625.6</ele>
        <time>2015-06-18T08:20:50Z</time>
      </trkpt>
      <trkpt lat="41.75458" lon="9.31354">
        <ele>625.8</ele>
        <time>2015-06-18T08:20:53Z</time>
      </trkpt>
      <trkpt lat="41.75461" lon="9.31351">
        <ele>626.4</ele>
        <time>2015-06-18T08:20:59Z</time>
      </trkpt>
      <trkpt lat="41.75463" lon="9.31349">
        <ele>626.6</ele>
        <time>2015-06-18T08:21:02Z</time>
      </trkpt>
      <trkpt lat="41.75491" lon="9.31345">
        <ele>626.6</ele>
        <time>2015-06-18T08:21:33Z</time>
      </trkpt>
      <trkpt lat="41.75507" lon="9.31344">
        <ele>624.8</ele>
        <time>2015-06-18T08:21:52Z</time>
      </trkpt>
      <trkpt lat="41.75512" lon="9.31345">
        <ele>624.6</ele>
        <time>2015-06-18T08:22:01Z</time>
      </trkpt>
      <trkpt lat="41.75515" lon="9.31345">
        <ele>624.2</ele>
        <time>2015-06-18T08:22:03Z</time>
      </trkpt>
      <trkpt lat="41.75556" lon="9.31326">
        <ele>623.8</ele>
        <time>2015-06-18T08:22:47Z</time>
      </trkpt>
      <trkpt lat="41.75557" lon="9.31324">
        <ele>624</ele>
        <time>2015-06-18T08:22:48Z</time>
      </trkpt>
      <trkpt lat="41.75558" lon="9.31319">
        <ele>624.4</ele>
        <time>2015-06-18T08:22:54Z</time>
      </trkpt>
      <trkpt lat="41.7556" lon="9.31316">
        <ele>624.6</ele>
        <time>2015-06-18T08:22:58Z</time>
      </trkpt>
      <trkpt lat="41.75563" lon="9.31308">
        <ele>625.8</ele>
        <time>2015-06-18T08:23:07Z</time>
      </trkpt>
      <trkpt lat="41.75578" lon="9.31286">
        <ele>625.6</ele>
        <time>2015-06-18T08:23:33Z</time>
      </trkpt>
      <trkpt lat="41.75587" lon="9.31279">
        <ele>625.2</ele>
        <time>2015-06-18T08:23:50Z</time>
      </trkpt>
      <trkpt lat="41.75607" lon="9.31278">
        <ele>625.8</ele>
        <time>2015-06-18T08:24:14Z</time>
      </trkpt>
      <trkpt lat="41.75613" lon="9.31277">
        <ele>626.8</ele>
        <time>2015-06-18T08:24:24Z</time>
      </trkpt>
      <trkpt lat="41.75622" lon="9.31278">
        <ele>628</ele>
        <time>2015-06-18T08:24:34Z</time>
      </trkpt>
      <trkpt lat="41.75648" lon="9.31267">
        <ele>628.4</ele>
        <time>2015-06-18T08:25:08Z</time>
      </trkpt>
      <trkpt lat="41.75657" lon="9.31261">
        <ele>627.2</ele>
        <time>2015-06-18T08:25:17Z</time>
      </trkpt>
      <trkpt lat="41.75675" lon="9.31248">
        <ele>626.8</ele>
        <time>2015-06-18T08:25:48Z</time>
      </trkpt>
      <trkpt lat="41.75683" lon="9.31245">
        <ele>628</ele>
        <time>2015-06-18T08:26:00Z</time>
      </trkpt>
      <trkpt lat="41.75691" lon="9.3124">
        <ele>629.2</ele>
        <time>2015-06-18T08:26:13Z</time>
      </trkpt>
      <trkpt lat="41.75699" lon="9.31238">
        <ele>630.4</ele>
        <time>2015-06-18T08:26:26Z</time>
      </trkpt>
      <trkpt lat="41.75732" lon="9.31242">
        <ele>630</ele>
        <time>2015-06-18T08:27:05Z</time>
      </trkpt>
      <trkpt lat="41.75765" lon="9.31242">
        <ele>631.2</ele>
        <time>2015-06-18T08:27:37Z</time>
      </trkpt>
      <trkpt lat="41.758" lon="9.31232">
        <ele>630.4</ele>
        <time>2015-06-18T08:28:20Z</time>
      </trkpt>
      <trkpt lat="41.75806" lon="9.3123">
        <ele>630</ele>
        <time>2015-06-18T08:28:28Z</time>
      </trkpt>
      <trkpt lat="41.7581" lon="9.3123">
        <ele>629</ele>
        <time>2015-06-18T08:28:34Z</time>
      </trkpt>
      <trkpt lat="41.75814" lon="9.31227">
        <ele>627.8</ele>
        <time>2015-06-18T08:28:41Z</time>
      </trkpt>
      <trkpt lat="41.75816" lon="9.31224">
        <ele>626.6</ele>
        <time>2015-06-18T08:28:48Z</time>
      </trkpt>
      <trkpt lat="41.75818" lon="9.3122">
        <ele>625.8</ele>
        <time>2015-06-18T08:28:54Z</time>
      </trkpt>
      <trkpt lat="41.75821" lon="9.31215">
        <ele>624.4</ele>
        <time>2015-06-18T08:29:02Z</time>
      </trkpt>
      <trkpt lat="41.75822" lon="9.31213">
        <ele>623.8</ele>
        <time>2015-06-18T08:29:07Z</time>
      </trkpt>
      <trkpt lat="41.75824" lon="9.3121">
        <ele>622.6</ele>
        <time>2015-06-18T08:29:12Z</time>
      </trkpt>
      <trkpt lat="41.75827" lon="9.31205">
        <ele>621.2</ele>
        <time>2015-06-18T08:29:18Z</time>
      </trkpt>
      <trkpt lat="41.75829" lon="9.31201">
        <ele>620</ele>
        <time>2015-06-18T08:29:24Z</time>
      </trkpt>
      <trkpt lat="41.7583" lon="9.31195">
        <ele>618.8</ele>
        <time>2015-06-18T08:29:30Z</time>
      </trkpt>
      <trkpt lat="41.75832" lon="9.31186">
        <ele>617.4</ele>
        <time>2015-06-18T08:29:38Z</time>
      </trkpt>
      <trkpt lat="41.75833" lon="9.31169">
        <ele>616.2</ele>
        <time>2015-06-18T08:29:54Z</time>
      </trkpt>
      <trkpt lat="41.75834" lon="9.31163">
        <ele>615.8</ele>
        <time>2015-06-18T08:29:59Z</time>
      </trkpt>
      <trkpt lat="41.75835" lon="9.31154">
        <ele>615</ele>
        <time>2015-06-18T08:30:06Z</time>
      </trkpt>
      <trkpt lat="41.75836" lon="9.31152">
        <ele>614.8</ele>
        <time>2015-06-18T08:30:08Z</time>
      </trkpt>
      <trkpt lat="41.75837" lon="9.3115">
        <ele>614.6</ele>
        <time>2015-06-18T08:30:11Z</time>
      </trkpt>
      <trkpt lat="41.75839" lon="9.3114">
        <ele>613.8</ele>
        <time>2015-06-18T08:30:22Z</time>
      </trkpt>
      <trkpt lat="41.75845" lon="9.31122">
        <ele>613.2</ele>
        <time>2015-06-18T08:30:39Z</time>
      </trkpt>
      <trkpt lat="41.75857" lon="9.3111">
        <ele>611.8</ele>
        <time>2015-06-18T08:31:02Z</time>
      </trkpt>
      <trkpt lat="41.75863" lon="9.31105">
        <ele>612.2</ele>
        <time>2015-06-18T08:31:10Z</time>
      </trkpt>
      <trkpt lat="41.75866" lon="9.31102">
        <ele>612.4</ele>
        <time>2015-06-18T08:31:15Z</time>
      </trkpt>
      <trkpt lat="41.7587" lon="9.31097">
        <ele>613.6</ele>
        <time>2015-06-18T08:31:24Z</time>
      </trkpt>
      <trkpt lat="41.75871" lon="9.31097">
        <ele>613.6</ele>
        <time>2015-06-18T08:31:25Z</time>
      </trkpt>
      <trkpt lat="41.75878" lon="9.3109">
        <ele>614.6</ele>
        <time>2015-06-18T08:31:36Z</time>
      </trkpt>
      <trkpt lat="41.75879" lon="9.31089">
        <ele>614.6</ele>
        <time>2015-06-18T08:31:38Z</time>
      </trkpt>
      <trkpt lat="41.75879" lon="9.31085">
        <ele>615.4</ele>
        <time>2015-06-18T08:31:44Z</time>
      </trkpt>
      <trkpt lat="41.75882" lon="9.31081">
        <ele>616.8</ele>
        <time>2015-06-18T08:31:52Z</time>
      </trkpt>
      <trkpt lat="41.75888" lon="9.31076">
        <ele>617.6</ele>
        <time>2015-06-18T08:32:00Z</time>
      </trkpt>
      <trkpt lat="41.75903" lon="9.31068">
        <ele>617.8</ele>
        <time>2015-06-18T08:32:18Z</time>
      </trkpt>
      <trkpt lat="41.75914" lon="9.31063">
        <ele>618</ele>
        <time>2015-06-18T08:32:29Z</time>
      </trkpt>
      <trkpt lat="41.75929" lon="9.31052">
        <ele>618.6</ele>
        <time>2015-06-18T08:32:48Z</time>
      </trkpt>
      <trkpt lat="41.75937" lon="9.31046">
        <ele>617.2</ele>
        <time>2015-06-18T08:32:58Z</time>
      </trkpt>
      <trkpt lat="41.75941" lon="9.31042">
        <ele>616.6</ele>
        <time>2015-06-18T08:33:04Z</time>
      </trkpt>
      <trkpt lat="41.75948" lon="9.31037">
        <ele>616</ele>
        <time>2015-06-18T08:33:13Z</time>
      </trkpt>
      <trkpt lat="41.75955" lon="9.31031">
        <ele>615.2</ele>
        <time>2015-06-18T08:33:22Z</time>
      </trkpt>
      <trkpt lat="41.75958" lon="9.31025">
        <ele>614.2</ele>
        <time>2015-06-18T08:33:31Z</time>
      </trkpt>
      <trkpt lat="41.75961" lon="9.31017">
        <ele>613.2</ele>
        <time>2015-06-18T08:33:39Z</time>
      </trkpt>
      <trkpt lat="41.7596" lon="9.31007">
        <ele>612.4</ele>
        <time>2015-06-18T08:33:46Z</time>
      </trkpt>
      <trkpt lat="41.75958" lon="9.31005">
        <ele>612.2</ele>
        <time>2015-06-18T08:33:48Z</time>
      </trkpt>
      <trkpt lat="41.75958" lon="9.31004">
        <ele>611.6</ele>
        <time>2015-06-18T08:33:51Z</time>
      </trkpt>
      <trkpt lat="41.75959" lon="9.31006">
        <ele>611.4</ele>
        <time>2015-06-18T08:33:54Z</time>
      </trkpt>
      <trkpt lat="41.75959" lon="9.31008">
        <ele>610.4</ele>
        <time>2015-06-18T08:34:01Z</time>
      </trkpt>
      <trkpt lat="41.75956" lon="9.31008">
        <ele>609.2</ele>
        <time>2015-06-18T08:34:08Z</time>
      </trkpt>
      <trkpt lat="41.75955" lon="9.31005">
        <ele>608.4</ele>
        <time>2015-06-18T08:34:14Z</time>
      </trkpt>
      <trkpt lat="41.75955" lon="9.31003">
        <ele>607.2</ele>
        <time>2015-06-18T08:34:21Z</time>
      </trkpt>
      <trkpt lat="41.75957" lon="9.31001">
        <ele>606.2</ele>
        <time>2015-06-18T08:34:28Z</time>
      </trkpt>
      <trkpt lat="41.75956" lon="9.30995">
        <ele>604.8</ele>
        <time>2015-06-18T08:34:35Z</time>
      </trkpt>
      <trkpt lat="41.75955" lon="9.30992">
        <ele>604.4</ele>
        <time>2015-06-18T08:34:38Z</time>
      </trkpt>
      <trkpt lat="41.75955" lon="9.30988">
        <ele>603.8</ele>
        <time>2015-06-18T08:34:43Z</time>
      </trkpt>
      <trkpt lat="41.75959" lon="9.30981">
        <ele>602.8</ele>
        <time>2015-06-18T08:34:52Z</time>
      </trkpt>
      <trkpt lat="41.75961" lon="9.30976">
        <ele>601.8</ele>
        <time>2015-06-18T08:34:59Z</time>
      </trkpt>
      <trkpt lat="41.75959" lon="9.30973">
        <ele>600.6</ele>
        <time>2015-06-18T08:35:06Z</time>
      </trkpt>
      <trkpt lat="41.75957" lon="9.30972">
        <ele>599.8</ele>
        <time>2015-06-18T08:35:12Z</time>
      </trkpt>
      <trkpt lat="41.75961" lon="9.30975">
        <ele>598.4</ele>
        <time>2015-06-18T08:35:23Z</time>
      </trkpt>
      <trkpt lat="41.75964" lon="9.30977">
        <ele>597</ele>
        <time>2015-06-18T08:35:45Z</time>
      </trkpt>
      <trkpt lat="41.75965" lon="9.30977">
        <ele>596</ele>
        <time>2015-06-18T08:35:56Z</time>
      </trkpt>
      <trkpt lat="41.75967" lon="9.30979">
        <ele>595</ele>
        <time>2015-06-18T08:36:05Z</time>
      </trkpt>
      <trkpt lat="41.75966" lon="9.30979">
        <ele>594.2</ele>
        <time>2015-06-18T08:36:12Z</time>
      </trkpt>
      <trkpt lat="41.75967" lon="9.30977">
        <ele>593</ele>
        <time>2015-06-18T08:36:20Z</time>
      </trkpt>
      <trkpt lat="41.75967" lon="9.30972">
        <ele>592</ele>
        <time>2015-06-18T08:36:28Z</time>
      </trkpt>
      <trkpt lat="41.75965" lon="9.30967">
        <ele>590.6</ele>
        <time>2015-06-18T08:36:37Z</time>
      </trkpt>
      <trkpt lat="41.75959" lon="9.30961">
        <ele>589.8</ele>
        <time>2015-06-18T08:36:46Z</time>
      </trkpt>
      <trkpt lat="41.75961" lon="9.30958">
        <ele>588.4</ele>
        <time>2015-06-18T08:36:56Z</time>
      </trkpt>
      <trkpt lat="41.75965" lon="9.30954">
        <ele>587.6</ele>
        <time>2015-06-18T08:37:04Z</time>
      </trkpt>
      <trkpt lat="41.75969" lon="9.30953">
        <ele>586.8</ele>
        <time>2015-06-18T08:37:08Z</time>
      </trkpt>
      <trkpt lat="41.75971" lon="9.30951">
        <ele>586.2</ele>
        <time>2015-06-18T08:37:14Z</time>
      </trkpt>
      <trkpt lat="41.75974" lon="9.30948">
        <ele>585.2</ele>
        <time>2015-06-18T08:37:22Z</time>
      </trkpt>
      <trkpt lat="41.75977" lon="9.30945">
        <ele>584.2</ele>
        <time>2015-06-18T08:37:29Z</time>
      </trkpt>
      <trkpt lat="41.75981" lon="9.30946">
        <ele>582.8</ele>
        <time>2015-06-18T08:37:38Z</time>
      </trkpt>
      <trkpt lat="41.75982" lon="9.30947">
        <ele>583</ele>
        <time>2015-06-18T08:37:39Z</time>
      </trkpt>
      <trkpt lat="41.75984" lon="9.30952">
        <ele>582</ele>
        <time>2015-06-18T08:37:45Z</time>
      </trkpt>
      <trkpt lat="41.75986" lon="9.30957">
        <ele>580.8</ele>
        <time>2015-06-18T08:37:52Z</time>
      </trkpt>
      <trkpt lat="41.7599" lon="9.30959">
        <ele>579.6</ele>
        <time>2015-06-18T08:37:59Z</time>
      </trkpt>
      <trkpt lat="41.75994" lon="9.30961">
        <ele>578.4</ele>
        <time>2015-06-18T08:38:07Z</time>
      </trkpt>
      <trkpt lat="41.75999" lon="9.30964">
        <ele>577.6</ele>
        <time>2015-06-18T08:38:14Z</time>
      </trkpt>
      <trkpt lat="41.75988" lon="9.30949">
        <ele>576</ele>
        <time>2015-06-18T08:38:23Z</time>
      </trkpt>
      <trkpt lat="41.75985" lon="9.30946">
        <ele>576</ele>
        <time>2015-06-18T08:38:25Z</time>
      </trkpt>
      <trkpt lat="41.75977" lon="9.30938">
        <ele>574.8</ele>
        <time>2015-06-18T08:38:35Z</time>
      </trkpt>
      <trkpt lat="41.75979" lon="9.30937">
        <ele>573.8</ele>
        <time>2015-06-18T08:38:43Z</time>
      </trkpt>
      <trkpt lat="41.75982" lon="9.30936">
        <ele>572.6</ele>
        <time>2015-06-18T08:38:51Z</time>
      </trkpt>
      <trkpt lat="41.75984" lon="9.30937">
        <ele>572.4</ele>
        <time>2015-06-18T08:38:53Z</time>
      </trkpt>
      <trkpt lat="41.75991" lon="9.30938">
        <ele>571.4</ele>
        <time>2015-06-18T08:39:00Z</time>
      </trkpt>
      <trkpt lat="41.75996" lon="9.30935">
        <ele>570.2</ele>
        <time>2015-06-18T08:39:12Z</time>
      </trkpt>
      <trkpt lat="41.75998" lon="9.30933">
        <ele>569</ele>
        <time>2015-06-18T08:39:22Z</time>
      </trkpt>
      <trkpt lat="41.75997" lon="9.30929">
        <ele>568</ele>
        <time>2015-06-18T08:39:30Z</time>
      </trkpt>
      <trkpt lat="41.75998" lon="9.30925">
        <ele>566.6</ele>
        <time>2015-06-18T08:39:38Z</time>
      </trkpt>
      <trkpt lat="41.76001" lon="9.30922">
        <ele>566</ele>
        <time>2015-06-18T08:39:45Z</time>
      </trkpt>
      <trkpt lat="41.76001" lon="9.30917">
        <ele>565.2</ele>
        <time>2015-06-18T08:39:50Z</time>
      </trkpt>
      <trkpt lat="41.76007" lon="9.30914">
        <ele>563.8</ele>
        <time>2015-06-18T08:39:56Z</time>
      </trkpt>
      <trkpt lat="41.76012" lon="9.30895">
        <ele>563</ele>
        <time>2015-06-18T08:40:16Z</time>
      </trkpt>
      <trkpt lat="41.76015" lon="9.30882">
        <ele>563.6</ele>
        <time>2015-06-18T08:40:31Z</time>
      </trkpt>
      <trkpt lat="41.76016" lon="9.30873">
        <ele>563.2</ele>
        <time>2015-06-18T08:40:39Z</time>
      </trkpt>
      <trkpt lat="41.76013" lon="9.30868">
        <ele>562.6</ele>
        <time>2015-06-18T08:40:43Z</time>
      </trkpt>
      <trkpt lat="41.76012" lon="9.30866">
        <ele>562.4</ele>
        <time>2015-06-18T08:40:46Z</time>
      </trkpt>
      <trkpt lat="41.76016" lon="9.30859">
        <ele>561.8</ele>
        <time>2015-06-18T08:40:57Z</time>
      </trkpt>
      <trkpt lat="41.76025" lon="9.30848">
        <ele>561</ele>
        <time>2015-06-18T08:41:11Z</time>
      </trkpt>
      <trkpt lat="41.7603" lon="9.30838">
        <ele>559.8</ele>
        <time>2015-06-18T08:41:19Z</time>
      </trkpt>
      <trkpt lat="41.76036" lon="9.30824">
        <ele>558.4</ele>
        <time>2015-06-18T08:41:31Z</time>
      </trkpt>
      <trkpt lat="41.7604" lon="9.308">
        <ele>557.4</ele>
        <time>2015-06-18T08:41:53Z</time>
      </trkpt>
      <trkpt lat="41.76036" lon="9.30795">
        <ele>556.6</ele>
        <time>2015-06-18T08:41:59Z</time>
      </trkpt>
      <trkpt lat="41.76038" lon="9.30792">
        <ele>556</ele>
        <time>2015-06-18T08:42:10Z</time>
      </trkpt>
      <trkpt lat="41.7604" lon="9.30791">
        <ele>555.6</ele>
        <time>2015-06-18T08:42:15Z</time>
      </trkpt>
      <trkpt lat="41.76047" lon="9.30793">
        <ele>553.4</ele>
        <time>2015-06-18T08:42:27Z</time>
      </trkpt>
      <trkpt lat="41.76055" lon="9.30796">
        <ele>553</ele>
        <time>2015-06-18T08:42:36Z</time>
      </trkpt>
      <trkpt lat="41.76076" lon="9.30784">
        <ele>550.8</ele>
        <time>2015-06-18T08:43:01Z</time>
      </trkpt>
      <trkpt lat="41.76082" lon="9.3078">
        <ele>550.6</ele>
        <time>2015-06-18T08:43:08Z</time>
      </trkpt>
      <trkpt lat="41.76086" lon="9.30778">
        <ele>549.2</ele>
        <time>2015-06-18T08:43:15Z</time>
      </trkpt>
      <trkpt lat="41.76089" lon="9.30777">
        <ele>548.6</ele>
        <time>2015-06-18T08:43:19Z</time>
      </trkpt>
      <trkpt lat="41.76094" lon="9.30774">
        <ele>547.4</ele>
        <time>2015-06-18T08:43:25Z</time>
      </trkpt>
      <trkpt lat="41.76098" lon="9.3077">
        <ele>546.2</ele>
        <time>2015-06-18T08:43:31Z</time>
      </trkpt>
      <trkpt lat="41.76101" lon="9.30766">
        <ele>544.6</ele>
        <time>2015-06-18T08:43:39Z</time>
      </trkpt>
      <trkpt lat="41.76103" lon="9.30756">
        <ele>543</ele>
        <time>2015-06-18T08:44:08Z</time>
      </trkpt>
      <trkpt lat="41.76109" lon="9.30793">
        <ele>546.6</ele>
        <time>2015-06-18T08:55:06Z</time>
      </trkpt>
      <trkpt lat="41.7611" lon="9.308">
        <ele>548.2</ele>
        <time>2015-06-18T08:55:20Z</time>
      </trkpt>
      <trkpt lat="41.76111" lon="9.30803">
        <ele>547.8</ele>
        <time>2015-06-18T08:55:26Z</time>
      </trkpt>
      <trkpt lat="41.7611" lon="9.30807">
        <ele>548.8</ele>
        <time>2015-06-18T08:55:32Z</time>
      </trkpt>
      <trkpt lat="41.76109" lon="9.30811">
        <ele>550</ele>
        <time>2015-06-18T08:55:39Z</time>
      </trkpt>
      <trkpt lat="41.76109" lon="9.30817">
        <ele>551.4</ele>
        <time>2015-06-18T08:55:47Z</time>
      </trkpt>
      <trkpt lat="41.76111" lon="9.30826">
        <ele>552.4</ele>
        <time>2015-06-18T08:55:57Z</time>
      </trkpt>
      <trkpt lat="41.76114" lon="9.30835">
        <ele>553.6</ele>
        <time>2015-06-18T08:56:08Z</time>
      </trkpt>
      <trkpt lat="41.76119" lon="9.30838">
        <ele>554.8</ele>
        <time>2015-06-18T08:56:20Z</time>
      </trkpt>
      <trkpt lat="41.76122" lon="9.30842">
        <ele>555.6</ele>
        <time>2015-06-18T08:56:27Z</time>
      </trkpt>
      <trkpt lat="41.76128" lon="9.30841">
        <ele>557</ele>
        <time>2015-06-18T08:56:38Z</time>
      </trkpt>
      <trkpt lat="41.7613" lon="9.30835">
        <ele>557.8</ele>
        <time>2015-06-18T08:56:48Z</time>
      </trkpt>
      <trkpt lat="41.7613" lon="9.30829">
        <ele>559.2</ele>
        <time>2015-06-18T08:56:58Z</time>
      </trkpt>
      <trkpt lat="41.76131" lon="9.30825">
        <ele>560.4</ele>
        <time>2015-06-18T08:57:07Z</time>
      </trkpt>
      <trkpt lat="41.76134" lon="9.30816">
        <ele>561.6</ele>
        <time>2015-06-18T08:57:18Z</time>
      </trkpt>
      <trkpt lat="41.76136" lon="9.30809">
        <ele>562.8</ele>
        <time>2015-06-18T08:57:29Z</time>
      </trkpt>
      <trkpt lat="41.76139" lon="9.308">
        <ele>563.8</ele>
        <time>2015-06-18T08:57:44Z</time>
      </trkpt>
      <trkpt lat="41.76141" lon="9.30792">
        <ele>565</ele>
        <time>2015-06-18T08:57:57Z</time>
      </trkpt>
      <trkpt lat="41.76142" lon="9.30788">
        <ele>565.8</ele>
        <time>2015-06-18T08:58:07Z</time>
      </trkpt>
      <trkpt lat="41.76145" lon="9.30776">
        <ele>567.4</ele>
        <time>2015-06-18T08:58:41Z</time>
      </trkpt>
      <trkpt lat="41.76158" lon="9.30725">
        <ele>568.4</ele>
        <time>2015-06-18T08:59:33Z</time>
      </trkpt>
      <trkpt lat="41.7616" lon="9.30719">
        <ele>569.4</ele>
        <time>2015-06-18T08:59:43Z</time>
      </trkpt>
      <trkpt lat="41.7616" lon="9.30713">
        <ele>570.8</ele>
        <time>2015-06-18T08:59:52Z</time>
      </trkpt>
      <trkpt lat="41.76161" lon="9.30709">
        <ele>571.6</ele>
        <time>2015-06-18T09:00:00Z</time>
      </trkpt>
      <trkpt lat="41.76161" lon="9.30704">
        <ele>572.6</ele>
        <time>2015-06-18T09:00:07Z</time>
      </trkpt>
      <trkpt lat="41.76163" lon="9.30702">
        <ele>574</ele>
        <time>2015-06-18T09:00:18Z</time>
      </trkpt>
      <trkpt lat="41.76166" lon="9.30704">
        <ele>575.2</ele>
        <time>2015-06-18T09:00:27Z</time>
      </trkpt>
      <trkpt lat="41.76172" lon="9.30703">
        <ele>576.4</ele>
        <time>2015-06-18T09:00:36Z</time>
      </trkpt>
      <trkpt lat="41.76176" lon="9.30701">
        <ele>577.4</ele>
        <time>2015-06-18T09:00:45Z</time>
      </trkpt>
      <trkpt lat="41.76181" lon="9.30699">
        <ele>579</ele>
        <time>2015-06-18T09:00:55Z</time>
      </trkpt>
      <trkpt lat="41.76186" lon="9.30699">
        <ele>579.8</ele>
        <time>2015-06-18T09:01:04Z</time>
      </trkpt>
      <trkpt lat="41.76192" lon="9.307">
        <ele>581</ele>
        <time>2015-06-18T09:01:14Z</time>
      </trkpt>
      <trkpt lat="41.76201" lon="9.30702">
        <ele>582</ele>
        <time>2015-06-18T09:01:29Z</time>
      </trkpt>
      <trkpt lat="41.76209" lon="9.30703">
        <ele>583</ele>
        <time>2015-06-18T09:01:42Z</time>
      </trkpt>
      <trkpt lat="41.76214" lon="9.30705">
        <ele>584.2</ele>
        <time>2015-06-18T09:01:51Z</time>
      </trkpt>
      <trkpt lat="41.7622" lon="9.30708">
        <ele>585.2</ele>
        <time>2015-06-18T09:02:03Z</time>
      </trkpt>
      <trkpt lat="41.76224" lon="9.30708">
        <ele>586.2</ele>
        <time>2015-06-18T09:02:12Z</time>
      </trkpt>
      <trkpt lat="41.76229" lon="9.3071">
        <ele>587.6</ele>
        <time>2015-06-18T09:02:22Z</time>
      </trkpt>
      <trkpt lat="41.76233" lon="9.30713">
        <ele>588.6</ele>
        <time>2015-06-18T09:02:31Z</time>
      </trkpt>
      <trkpt lat="41.76239" lon="9.30713">
        <ele>589.8</ele>
        <time>2015-06-18T09:02:42Z</time>
      </trkpt>
      <trkpt lat="41.76245" lon="9.30711">
        <ele>590.6</ele>
        <time>2015-06-18T09:02:52Z</time>
      </trkpt>
      <trkpt lat="41.76252" lon="9.30706">
        <ele>592</ele>
        <time>2015-06-18T09:03:05Z</time>
      </trkpt>
      <trkpt lat="41.76261" lon="9.30704">
        <ele>593.2</ele>
        <time>2015-06-18T09:03:19Z</time>
      </trkpt>
      <trkpt lat="41.76265" lon="9.30703">
        <ele>594</ele>
        <time>2015-06-18T09:03:28Z</time>
      </trkpt>
      <trkpt lat="41.76271" lon="9.30698">
        <ele>595.4</ele>
        <time>2015-06-18T09:03:38Z</time>
      </trkpt>
      <trkpt lat="41.76276" lon="9.30693">
        <ele>596.4</ele>
        <time>2015-06-18T09:03:49Z</time>
      </trkpt>
      <trkpt lat="41.76283" lon="9.30687">
        <ele>597.8</ele>
        <time>2015-06-18T09:04:05Z</time>
      </trkpt>
      <trkpt lat="41.76298" lon="9.30664">
        <ele>598.6</ele>
        <time>2015-06-18T09:04:30Z</time>
      </trkpt>
      <trkpt lat="41.76314" lon="9.30649">
        <ele>598.4</ele>
        <time>2015-06-18T09:04:50Z</time>
      </trkpt>
      <trkpt lat="41.76354" lon="9.30619">
        <ele>598.4</ele>
        <time>2015-06-18T09:05:37Z</time>
      </trkpt>
      <trkpt lat="41.76393" lon="9.30587">
        <ele>597.8</ele>
        <time>2015-06-18T09:06:20Z</time>
      </trkpt>
      <trkpt lat="41.7642" lon="9.30572">
        <ele>597.4</ele>
        <time>2015-06-18T09:06:51Z</time>
      </trkpt>
      <trkpt lat="41.76464" lon="9.30558">
        <ele>597.2</ele>
        <time>2015-06-18T09:07:37Z</time>
      </trkpt>
      <trkpt lat="41.76476" lon="9.3055">
        <ele>597.6</ele>
        <time>2015-06-18T09:07:54Z</time>
      </trkpt>
      <trkpt lat="41.76478" lon="9.30547">
        <ele>597.6</ele>
        <time>2015-06-18T09:07:57Z</time>
      </trkpt>
      <trkpt lat="41.76479" lon="9.30545">
        <ele>597.8</ele>
        <time>2015-06-18T09:08:00Z</time>
      </trkpt>
      <trkpt lat="41.76491" lon="9.30539">
        <ele>598.2</ele>
        <time>2015-06-18T09:08:13Z</time>
      </trkpt>
      <trkpt lat="41.76522" lon="9.30516">
        <ele>598.6</ele>
        <time>2015-06-18T09:08:47Z</time>
      </trkpt>
      <trkpt lat="41.76523" lon="9.30514">
        <ele>598.4</ele>
        <time>2015-06-18T09:08:49Z</time>
      </trkpt>
      <trkpt lat="41.76565" lon="9.30489">
        <ele>599</ele>
        <time>2015-06-18T09:09:34Z</time>
      </trkpt>
      <trkpt lat="41.76606" lon="9.3046">
        <ele>598.6</ele>
        <time>2015-06-18T09:10:17Z</time>
      </trkpt>
      <trkpt lat="41.76614" lon="9.30455">
        <ele>598.4</ele>
        <time>2015-06-18T09:10:27Z</time>
      </trkpt>
      <trkpt lat="41.76623" lon="9.30445">
        <ele>597.8</ele>
        <time>2015-06-18T09:10:45Z</time>
      </trkpt>
      <trkpt lat="41.76624" lon="9.30419">
        <ele>598.2</ele>
        <time>2015-06-18T09:11:39Z</time>
      </trkpt>
      <trkpt lat="41.7662" lon="9.30414">
        <ele>599.4</ele>
        <time>2015-06-18T09:11:52Z</time>
      </trkpt>
      <trkpt lat="41.7661" lon="9.30414">
        <ele>600.4</ele>
        <time>2015-06-18T09:12:06Z</time>
      </trkpt>
      <trkpt lat="41.76602" lon="9.30412">
        <ele>601.4</ele>
        <time>2015-06-18T09:12:17Z</time>
      </trkpt>
      <trkpt lat="41.76598" lon="9.30409">
        <ele>602.6</ele>
        <time>2015-06-18T09:12:31Z</time>
      </trkpt>
      <trkpt lat="41.76598" lon="9.30403">
        <ele>603.4</ele>
        <time>2015-06-18T09:12:39Z</time>
      </trkpt>
      <trkpt lat="41.76598" lon="9.304">
        <ele>604.2</ele>
        <time>2015-06-18T09:12:44Z</time>
      </trkpt>
      <trkpt lat="41.76598" lon="9.30397">
        <ele>604.8</ele>
        <time>2015-06-18T09:12:48Z</time>
      </trkpt>
      <trkpt lat="41.76596" lon="9.30393">
        <ele>606</ele>
        <time>2015-06-18T09:12:57Z</time>
      </trkpt>
      <trkpt lat="41.76593" lon="9.30389">
        <ele>606.8</ele>
        <time>2015-06-18T09:13:04Z</time>
      </trkpt>
      <trkpt lat="41.76594" lon="9.30379">
        <ele>608.2</ele>
        <time>2015-06-18T09:13:18Z</time>
      </trkpt>
      <trkpt lat="41.76593" lon="9.30373">
        <ele>609.4</ele>
        <time>2015-06-18T09:13:28Z</time>
      </trkpt>
      <trkpt lat="41.76592" lon="9.30368">
        <ele>610.4</ele>
        <time>2015-06-18T09:13:37Z</time>
      </trkpt>
      <trkpt lat="41.76592" lon="9.3036">
        <ele>611.4</ele>
        <time>2015-06-18T09:13:49Z</time>
      </trkpt>
      <trkpt lat="41.7659" lon="9.30353">
        <ele>612.6</ele>
        <time>2015-06-18T09:13:59Z</time>
      </trkpt>
      <trkpt lat="41.76589" lon="9.30343">
        <ele>613.8</ele>
        <time>2015-06-18T09:14:11Z</time>
      </trkpt>
      <trkpt lat="41.76587" lon="9.30334">
        <ele>615</ele>
        <time>2015-06-18T09:14:24Z</time>
      </trkpt>
      <trkpt lat="41.76589" lon="9.30331">
        <ele>616</ele>
        <time>2015-06-18T09:14:33Z</time>
      </trkpt>
      <trkpt lat="41.76592" lon="9.30326">
        <ele>617.2</ele>
        <time>2015-06-18T09:14:43Z</time>
      </trkpt>
      <trkpt lat="41.76596" lon="9.30323">
        <ele>618.2</ele>
        <time>2015-06-18T09:14:53Z</time>
      </trkpt>
      <trkpt lat="41.76598" lon="9.30319">
        <ele>619</ele>
        <time>2015-06-18T09:15:01Z</time>
      </trkpt>
      <trkpt lat="41.76597" lon="9.30313">
        <ele>620.2</ele>
        <time>2015-06-18T09:15:10Z</time>
      </trkpt>
      <trkpt lat="41.76597" lon="9.30306">
        <ele>621.8</ele>
        <time>2015-06-18T09:15:24Z</time>
      </trkpt>
      <trkpt lat="41.76596" lon="9.30302">
        <ele>622.4</ele>
        <time>2015-06-18T09:15:31Z</time>
      </trkpt>
      <trkpt lat="41.76596" lon="9.30297">
        <ele>623.6</ele>
        <time>2015-06-18T09:15:40Z</time>
      </trkpt>
      <trkpt lat="41.76598" lon="9.30294">
        <ele>624.6</ele>
        <time>2015-06-18T09:15:49Z</time>
      </trkpt>
      <trkpt lat="41.76595" lon="9.30291">
        <ele>626</ele>
        <time>2015-06-18T09:15:58Z</time>
      </trkpt>
      <trkpt lat="41.76593" lon="9.30286">
        <ele>627</ele>
        <time>2015-06-18T09:16:06Z</time>
      </trkpt>
      <trkpt lat="41.76593" lon="9.3028">
        <ele>628</ele>
        <time>2015-06-18T09:16:14Z</time>
      </trkpt>
      <trkpt lat="41.76596" lon="9.30274">
        <ele>629</ele>
        <time>2015-06-18T09:16:22Z</time>
      </trkpt>
      <trkpt lat="41.76597" lon="9.30267">
        <ele>630.6</ele>
        <time>2015-06-18T09:16:34Z</time>
      </trkpt>
      <trkpt lat="41.76596" lon="9.30263">
        <ele>631.6</ele>
        <time>2015-06-18T09:16:44Z</time>
      </trkpt>
      <trkpt lat="41.76596" lon="9.30259">
        <ele>632.6</ele>
        <time>2015-06-18T09:16:51Z</time>
      </trkpt>
      <trkpt lat="41.76593" lon="9.30255">
        <ele>633.8</ele>
        <time>2015-06-18T09:16:59Z</time>
      </trkpt>
      <trkpt lat="41.76589" lon="9.3025">
        <ele>634.8</ele>
        <time>2015-06-18T09:17:10Z</time>
      </trkpt>
      <trkpt lat="41.76584" lon="9.3024">
        <ele>636.4</ele>
        <time>2015-06-18T09:17:27Z</time>
      </trkpt>
      <trkpt lat="41.76579" lon="9.30236">
        <ele>637.4</ele>
        <time>2015-06-18T09:17:39Z</time>
      </trkpt>
      <trkpt lat="41.76576" lon="9.30235">
        <ele>638.6</ele>
        <time>2015-06-18T09:17:47Z</time>
      </trkpt>
      <trkpt lat="41.76574" lon="9.30232">
        <ele>639.6</ele>
        <time>2015-06-18T09:17:57Z</time>
      </trkpt>
      <trkpt lat="41.76571" lon="9.30228">
        <ele>640.8</ele>
        <time>2015-06-18T09:18:08Z</time>
      </trkpt>
      <trkpt lat="41.76568" lon="9.30224">
        <ele>642</ele>
        <time>2015-06-18T09:18:16Z</time>
      </trkpt>
      <trkpt lat="41.76567" lon="9.30219">
        <ele>643.2</ele>
        <time>2015-06-18T09:18:27Z</time>
      </trkpt>
      <trkpt lat="41.76562" lon="9.30217">
        <ele>644.2</ele>
        <time>2015-06-18T09:18:37Z</time>
      </trkpt>
      <trkpt lat="41.76556" lon="9.30211">
        <ele>645.8</ele>
        <time>2015-06-18T09:18:53Z</time>
      </trkpt>
      <trkpt lat="41.76553" lon="9.30203">
        <ele>646.8</ele>
        <time>2015-06-18T09:19:04Z</time>
      </trkpt>
      <trkpt lat="41.76553" lon="9.30199">
        <ele>647.2</ele>
        <time>2015-06-18T09:19:11Z</time>
      </trkpt>
      <trkpt lat="41.76552" lon="9.30193">
        <ele>649.2</ele>
        <time>2015-06-18T09:19:20Z</time>
      </trkpt>
      <trkpt lat="41.76548" lon="9.30186">
        <ele>650.2</ele>
        <time>2015-06-18T09:19:34Z</time>
      </trkpt>
      <trkpt lat="41.76545" lon="9.30183">
        <ele>651.2</ele>
        <time>2015-06-18T09:19:42Z</time>
      </trkpt>
      <trkpt lat="41.76543" lon="9.30178">
        <ele>652.2</ele>
        <time>2015-06-18T09:19:53Z</time>
      </trkpt>
      <trkpt lat="41.76535" lon="9.30166">
        <ele>653.8</ele>
        <time>2015-06-18T09:20:08Z</time>
      </trkpt>
      <trkpt lat="41.76532" lon="9.30153">
        <ele>654.8</ele>
        <time>2015-06-18T09:20:28Z</time>
      </trkpt>
      <trkpt lat="41.76533" lon="9.30148">
        <ele>655.8</ele>
        <time>2015-06-18T09:20:36Z</time>
      </trkpt>
      <trkpt lat="41.76535" lon="9.30145">
        <ele>657</ele>
        <time>2015-06-18T09:20:45Z</time>
      </trkpt>
      <trkpt lat="41.76537" lon="9.3014">
        <ele>657.8</ele>
        <time>2015-06-18T09:20:53Z</time>
      </trkpt>
      <trkpt lat="41.76535" lon="9.30129">
        <ele>659.2</ele>
        <time>2015-06-18T09:21:04Z</time>
      </trkpt>
      <trkpt lat="41.76534" lon="9.30116">
        <ele>660.4</ele>
        <time>2015-06-18T09:21:17Z</time>
      </trkpt>
      <trkpt lat="41.76535" lon="9.30108">
        <ele>661.2</ele>
        <time>2015-06-18T09:21:29Z</time>
      </trkpt>
      <trkpt lat="41.76535" lon="9.30099">
        <ele>662.6</ele>
        <time>2015-06-18T09:21:39Z</time>
      </trkpt>
      <trkpt lat="41.76536" lon="9.30096">
        <ele>663.2</ele>
        <time>2015-06-18T09:21:46Z</time>
      </trkpt>
      <trkpt lat="41.76534" lon="9.30092">
        <ele>664.6</ele>
        <time>2015-06-18T09:21:55Z</time>
      </trkpt>
      <trkpt lat="41.76535" lon="9.30088">
        <ele>665.4</ele>
        <time>2015-06-18T09:22:03Z</time>
      </trkpt>
      <trkpt lat="41.76532" lon="9.30081">
        <ele>667.2</ele>
        <time>2015-06-18T09:22:15Z</time>
      </trkpt>
      <trkpt lat="41.76531" lon="9.30077">
        <ele>668</ele>
        <time>2015-06-18T09:22:23Z</time>
      </trkpt>
      <trkpt lat="41.76524" lon="9.30073">
        <ele>669.6</ele>
        <time>2015-06-18T09:22:37Z</time>
      </trkpt>
      <trkpt lat="41.76521" lon="9.30069">
        <ele>670.2</ele>
        <time>2015-06-18T09:22:48Z</time>
      </trkpt>
      <trkpt lat="41.76518" lon="9.30064">
        <ele>671.4</ele>
        <time>2015-06-18T09:22:57Z</time>
      </trkpt>
      <trkpt lat="41.76512" lon="9.30059">
        <ele>672.6</ele>
        <time>2015-06-18T09:23:10Z</time>
      </trkpt>
      <trkpt lat="41.76514" lon="9.30056">
        <ele>673.8</ele>
        <time>2015-06-18T09:23:22Z</time>
      </trkpt>
      <trkpt lat="41.76518" lon="9.30054">
        <ele>674.8</ele>
        <time>2015-06-18T09:23:31Z</time>
      </trkpt>
      <trkpt lat="41.76524" lon="9.30048">
        <ele>676.2</ele>
        <time>2015-06-18T09:23:44Z</time>
      </trkpt>
      <trkpt lat="41.76527" lon="9.30041">
        <ele>677.2</ele>
        <time>2015-06-18T09:23:55Z</time>
      </trkpt>
      <trkpt lat="41.76529" lon="9.30035">
        <ele>678.6</ele>
        <time>2015-06-18T09:24:05Z</time>
      </trkpt>
      <trkpt lat="41.76532" lon="9.3003">
        <ele>679.2</ele>
        <time>2015-06-18T09:24:12Z</time>
      </trkpt>
      <trkpt lat="41.76536" lon="9.30024">
        <ele>680.6</ele>
        <time>2015-06-18T09:24:23Z</time>
      </trkpt>
      <trkpt lat="41.76539" lon="9.30023">
        <ele>681.2</ele>
        <time>2015-06-18T09:24:30Z</time>
      </trkpt>
      <trkpt lat="41.76542" lon="9.30018">
        <ele>683</ele>
        <time>2015-06-18T09:24:39Z</time>
      </trkpt>
      <trkpt lat="41.76545" lon="9.30013">
        <ele>683.8</ele>
        <time>2015-06-18T09:24:46Z</time>
      </trkpt>
      <trkpt lat="41.76549" lon="9.30011">
        <ele>685.2</ele>
        <time>2015-06-18T09:24:55Z</time>
      </trkpt>
      <trkpt lat="41.76555" lon="9.30008">
        <ele>686.2</ele>
        <time>2015-06-18T09:25:05Z</time>
      </trkpt>
      <trkpt lat="41.76559" lon="9.30006">
        <ele>687.6</ele>
        <time>2015-06-18T09:25:17Z</time>
      </trkpt>
      <trkpt lat="41.76563" lon="9.30005">
        <ele>688.6</ele>
        <time>2015-06-18T09:25:26Z</time>
      </trkpt>
      <trkpt lat="41.76566" lon="9.30004">
        <ele>689.4</ele>
        <time>2015-06-18T09:25:35Z</time>
      </trkpt>
      <trkpt lat="41.76568" lon="9.30004">
        <ele>690.6</ele>
        <time>2015-06-18T09:25:42Z</time>
      </trkpt>
      <trkpt lat="41.76571" lon="9.30003">
        <ele>692</ele>
        <time>2015-06-18T09:25:52Z</time>
      </trkpt>
      <trkpt lat="41.76577" lon="9.30002">
        <ele>693.4</ele>
        <time>2015-06-18T09:26:02Z</time>
      </trkpt>
      <trkpt lat="41.76581" lon="9.29999">
        <ele>694</ele>
        <time>2015-06-18T09:26:11Z</time>
      </trkpt>
      <trkpt lat="41.76584" lon="9.29994">
        <ele>695.4</ele>
        <time>2015-06-18T09:26:22Z</time>
      </trkpt>
      <trkpt lat="41.76589" lon="9.29993">
        <ele>696.6</ele>
        <time>2015-06-18T09:26:30Z</time>
      </trkpt>
      <trkpt lat="41.76593" lon="9.29993">
        <ele>697.6</ele>
        <time>2015-06-18T09:26:39Z</time>
      </trkpt>
      <trkpt lat="41.76597" lon="9.29993">
        <ele>698.6</ele>
        <time>2015-06-18T09:26:49Z</time>
      </trkpt>
      <trkpt lat="41.76602" lon="9.29992">
        <ele>700</ele>
        <time>2015-06-18T09:26:59Z</time>
      </trkpt>
      <trkpt lat="41.76606" lon="9.2999">
        <ele>701.2</ele>
        <time>2015-06-18T09:27:09Z</time>
      </trkpt>
      <trkpt lat="41.7661" lon="9.29991">
        <ele>702</ele>
        <time>2015-06-18T09:27:18Z</time>
      </trkpt>
      <trkpt lat="41.76613" lon="9.29992">
        <ele>702.8</ele>
        <time>2015-06-18T09:27:22Z</time>
      </trkpt>
      <trkpt lat="41.76618" lon="9.2999">
        <ele>703.6</ele>
        <time>2015-06-18T09:27:31Z</time>
      </trkpt>
      <trkpt lat="41.76619" lon="9.2999">
        <ele>704.6</ele>
        <time>2015-06-18T09:27:45Z</time>
      </trkpt>
      <trkpt lat="41.76624" lon="9.2999">
        <ele>705.4</ele>
        <time>2015-06-18T09:27:53Z</time>
      </trkpt>
      <trkpt lat="41.7663" lon="9.29989">
        <ele>706.6</ele>
        <time>2015-06-18T09:28:03Z</time>
      </trkpt>
      <trkpt lat="41.76638" lon="9.29986">
        <ele>707.6</ele>
        <time>2015-06-18T09:28:14Z</time>
      </trkpt>
      <trkpt lat="41.76643" lon="9.29985">
        <ele>708.8</ele>
        <time>2015-06-18T09:28:23Z</time>
      </trkpt>
      <trkpt lat="41.76653" lon="9.29987">
        <ele>710.2</ele>
        <time>2015-06-18T09:28:39Z</time>
      </trkpt>
      <trkpt lat="41.76666" lon="9.29985">
        <ele>711.4</ele>
        <time>2015-06-18T09:28:54Z</time>
      </trkpt>
      <trkpt lat="41.76672" lon="9.29985">
        <ele>712.4</ele>
        <time>2015-06-18T09:29:04Z</time>
      </trkpt>
      <trkpt lat="41.7668" lon="9.2998">
        <ele>713.4</ele>
        <time>2015-06-18T09:29:15Z</time>
      </trkpt>
      <trkpt lat="41.76685" lon="9.29971">
        <ele>714.4</ele>
        <time>2015-06-18T09:29:28Z</time>
      </trkpt>
      <trkpt lat="41.76689" lon="9.29965">
        <ele>715.8</ele>
        <time>2015-06-18T09:29:40Z</time>
      </trkpt>
      <trkpt lat="41.76692" lon="9.29957">
        <ele>716.6</ele>
        <time>2015-06-18T09:29:49Z</time>
      </trkpt>
      <trkpt lat="41.76699" lon="9.29952">
        <ele>717.4</ele>
        <time>2015-06-18T09:29:59Z</time>
      </trkpt>
      <trkpt lat="41.76708" lon="9.29944">
        <ele>718.6</ele>
        <time>2015-06-18T09:30:12Z</time>
      </trkpt>
      <trkpt lat="41.76712" lon="9.29945">
        <ele>719.4</ele>
        <time>2015-06-18T09:30:22Z</time>
      </trkpt>
      <trkpt lat="41.76717" lon="9.29946">
        <ele>720.6</ele>
        <time>2015-06-18T09:30:32Z</time>
      </trkpt>
      <trkpt lat="41.76724" lon="9.2995">
        <ele>721.6</ele>
        <time>2015-06-18T09:30:43Z</time>
      </trkpt>
      <trkpt lat="41.76766" lon="9.2996">
        <ele>721.2</ele>
        <time>2015-06-18T09:31:27Z</time>
      </trkpt>
      <trkpt lat="41.76795" lon="9.30005">
        <ele>720.8</ele>
        <time>2015-06-18T09:32:07Z</time>
      </trkpt>
      <trkpt lat="41.76799" lon="9.30008">
        <ele>721</ele>
        <time>2015-06-18T09:32:12Z</time>
      </trkpt>
      <trkpt lat="41.76802" lon="9.30012">
        <ele>721.2</ele>
        <time>2015-06-18T09:32:16Z</time>
      </trkpt>
      <trkpt lat="41.76828" lon="9.30012">
        <ele>722</ele>
        <time>2015-06-18T09:32:43Z</time>
      </trkpt>
      <trkpt lat="41.76833" lon="9.30013">
        <ele>722.8</ele>
        <time>2015-06-18T09:32:50Z</time>
      </trkpt>
      <trkpt lat="41.76839" lon="9.30012">
        <ele>723.8</ele>
        <time>2015-06-18T09:32:57Z</time>
      </trkpt>
      <trkpt lat="41.76846" lon="9.3001">
        <ele>725.2</ele>
        <time>2015-06-18T09:33:08Z</time>
      </trkpt>
      <trkpt lat="41.76856" lon="9.30003">
        <ele>726.4</ele>
        <time>2015-06-18T09:33:22Z</time>
      </trkpt>
      <trkpt lat="41.76863" lon="9.3">
        <ele>727.2</ele>
        <time>2015-06-18T09:33:31Z</time>
      </trkpt>
      <trkpt lat="41.76869" lon="9.29998">
        <ele>727.8</ele>
        <time>2015-06-18T09:33:39Z</time>
      </trkpt>
      <trkpt lat="41.76871" lon="9.29992">
        <ele>729</ele>
        <time>2015-06-18T09:33:47Z</time>
      </trkpt>
      <trkpt lat="41.76874" lon="9.29989">
        <ele>730.2</ele>
        <time>2015-06-18T09:33:56Z</time>
      </trkpt>
      <trkpt lat="41.76876" lon="9.29986">
        <ele>731</ele>
        <time>2015-06-18T09:34:02Z</time>
      </trkpt>
      <trkpt lat="41.76878" lon="9.29982">
        <ele>732.4</ele>
        <time>2015-06-18T09:34:09Z</time>
      </trkpt>
      <trkpt lat="41.7688" lon="9.29979">
        <ele>733.4</ele>
        <time>2015-06-18T09:34:16Z</time>
      </trkpt>
      <trkpt lat="41.76885" lon="9.29974">
        <ele>734.6</ele>
        <time>2015-06-18T09:34:25Z</time>
      </trkpt>
      <trkpt lat="41.76889" lon="9.29952">
        <ele>735.8</ele>
        <time>2015-06-18T09:34:44Z</time>
      </trkpt>
      <trkpt lat="41.76917" lon="9.2993">
        <ele>736.4</ele>
        <time>2015-06-18T09:35:27Z</time>
      </trkpt>
      <trkpt lat="41.7692" lon="9.29926">
        <ele>737.4</ele>
        <time>2015-06-18T09:35:33Z</time>
      </trkpt>
      <trkpt lat="41.76922" lon="9.29919">
        <ele>739</ele>
        <time>2015-06-18T09:35:42Z</time>
      </trkpt>
      <trkpt lat="41.76929" lon="9.29915">
        <ele>740.2</ele>
        <time>2015-06-18T09:35:52Z</time>
      </trkpt>
      <trkpt lat="41.76943" lon="9.29898">
        <ele>741.4</ele>
        <time>2015-06-18T09:36:21Z</time>
      </trkpt>
      <trkpt lat="41.76944" lon="9.29896">
        <ele>741.4</ele>
        <time>2015-06-18T09:36:23Z</time>
      </trkpt>
      <trkpt lat="41.76948" lon="9.29889">
        <ele>741.8</ele>
        <time>2015-06-18T09:36:31Z</time>
      </trkpt>
      <trkpt lat="41.76948" lon="9.29888">
        <ele>741.8</ele>
        <time>2015-06-18T09:36:32Z</time>
      </trkpt>
      <trkpt lat="41.76949" lon="9.29887">
        <ele>741.8</ele>
        <time>2015-06-18T09:36:33Z</time>
      </trkpt>
      <trkpt lat="41.76951" lon="9.29879">
        <ele>743.2</ele>
        <time>2015-06-18T09:36:42Z</time>
      </trkpt>
      <trkpt lat="41.76953" lon="9.2987">
        <ele>744.2</ele>
        <time>2015-06-18T09:36:56Z</time>
      </trkpt>
      <trkpt lat="41.76955" lon="9.29865">
        <ele>745</ele>
        <time>2015-06-18T09:37:03Z</time>
      </trkpt>
      <trkpt lat="41.76958" lon="9.29855">
        <ele>746.6</ele>
        <time>2015-06-18T09:37:17Z</time>
      </trkpt>
      <trkpt lat="41.76958" lon="9.29844">
        <ele>747.6</ele>
        <time>2015-06-18T09:37:26Z</time>
      </trkpt>
      <trkpt lat="41.76959" lon="9.29831">
        <ele>748.4</ele>
        <time>2015-06-18T09:37:39Z</time>
      </trkpt>
      <trkpt lat="41.76959" lon="9.29815">
        <ele>749.6</ele>
        <time>2015-06-18T09:37:57Z</time>
      </trkpt>
      <trkpt lat="41.76959" lon="9.29805">
        <ele>750.6</ele>
        <time>2015-06-18T09:38:09Z</time>
      </trkpt>
      <trkpt lat="41.76959" lon="9.29801">
        <ele>751.6</ele>
        <time>2015-06-18T09:38:16Z</time>
      </trkpt>
      <trkpt lat="41.7696" lon="9.29794">
        <ele>752.8</ele>
        <time>2015-06-18T09:38:27Z</time>
      </trkpt>
      <trkpt lat="41.7696" lon="9.29788">
        <ele>753.8</ele>
        <time>2015-06-18T09:38:35Z</time>
      </trkpt>
      <trkpt lat="41.76959" lon="9.29781">
        <ele>755.2</ele>
        <time>2015-06-18T09:38:45Z</time>
      </trkpt>
      <trkpt lat="41.76956" lon="9.29773">
        <ele>756</ele>
        <time>2015-06-18T09:38:55Z</time>
      </trkpt>
      <trkpt lat="41.76957" lon="9.29769">
        <ele>756.6</ele>
        <time>2015-06-18T09:39:01Z</time>
      </trkpt>
      <trkpt lat="41.76955" lon="9.29761">
        <ele>758</ele>
        <time>2015-06-18T09:39:09Z</time>
      </trkpt>
      <trkpt lat="41.76954" lon="9.29755">
        <ele>759.4</ele>
        <time>2015-06-18T09:39:18Z</time>
      </trkpt>
      <trkpt lat="41.76953" lon="9.29748">
        <ele>760</ele>
        <time>2015-06-18T09:39:25Z</time>
      </trkpt>
      <trkpt lat="41.76952" lon="9.29744">
        <ele>761.6</ele>
        <time>2015-06-18T09:39:34Z</time>
      </trkpt>
      <trkpt lat="41.7696" lon="9.29749">
        <ele>763</ele>
        <time>2015-06-18T09:39:48Z</time>
      </trkpt>
      <trkpt lat="41.76965" lon="9.2975">
        <ele>763.6</ele>
        <time>2015-06-18T09:39:55Z</time>
      </trkpt>
      <trkpt lat="41.76969" lon="9.29749">
        <ele>765</ele>
        <time>2015-06-18T09:40:05Z</time>
      </trkpt>
      <trkpt lat="41.76974" lon="9.29749">
        <ele>766.2</ele>
        <time>2015-06-18T09:40:13Z</time>
      </trkpt>
      <trkpt lat="41.76979" lon="9.29749">
        <ele>767.2</ele>
        <time>2015-06-18T09:40:23Z</time>
      </trkpt>
      <trkpt lat="41.76983" lon="9.29754">
        <ele>768.4</ele>
        <time>2015-06-18T09:40:32Z</time>
      </trkpt>
      <trkpt lat="41.76993" lon="9.29764">
        <ele>769.8</ele>
        <time>2015-06-18T09:40:49Z</time>
      </trkpt>
      <trkpt lat="41.77004" lon="9.29775">
        <ele>771.2</ele>
        <time>2015-06-18T09:41:10Z</time>
      </trkpt>
      <trkpt lat="41.77008" lon="9.29774">
        <ele>771.6</ele>
        <time>2015-06-18T09:41:16Z</time>
      </trkpt>
      <trkpt lat="41.77012" lon="9.29771">
        <ele>773.4</ele>
        <time>2015-06-18T09:41:25Z</time>
      </trkpt>
      <trkpt lat="41.77014" lon="9.2977">
        <ele>774</ele>
        <time>2015-06-18T09:41:32Z</time>
      </trkpt>
      <trkpt lat="41.77017" lon="9.29767">
        <ele>775</ele>
        <time>2015-06-18T09:41:39Z</time>
      </trkpt>
      <trkpt lat="41.7702" lon="9.29761">
        <ele>776.4</ele>
        <time>2015-06-18T09:41:49Z</time>
      </trkpt>
      <trkpt lat="41.77024" lon="9.29759">
        <ele>777.4</ele>
        <time>2015-06-18T09:41:56Z</time>
      </trkpt>
      <trkpt lat="41.77028" lon="9.2976">
        <ele>778.8</ele>
        <time>2015-06-18T09:42:05Z</time>
      </trkpt>
      <trkpt lat="41.77031" lon="9.29761">
        <ele>780</ele>
        <time>2015-06-18T09:42:14Z</time>
      </trkpt>
      <trkpt lat="41.77035" lon="9.29762">
        <ele>781.2</ele>
        <time>2015-06-18T09:42:24Z</time>
      </trkpt>
      <trkpt lat="41.7704" lon="9.29762">
        <ele>782.2</ele>
        <time>2015-06-18T09:42:32Z</time>
      </trkpt>
      <trkpt lat="41.77045" lon="9.29764">
        <ele>783.6</ele>
        <time>2015-06-18T09:42:41Z</time>
      </trkpt>
      <trkpt lat="41.77049" lon="9.29764">
        <ele>784.4</ele>
        <time>2015-06-18T09:42:49Z</time>
      </trkpt>
      <trkpt lat="41.77054" lon="9.29764">
        <ele>785.4</ele>
        <time>2015-06-18T09:42:58Z</time>
      </trkpt>
      <trkpt lat="41.77061" lon="9.29761">
        <ele>787.2</ele>
        <time>2015-06-18T09:43:14Z</time>
      </trkpt>
      <trkpt lat="41.77067" lon="9.29762">
        <ele>788</ele>
        <time>2015-06-18T09:43:25Z</time>
      </trkpt>
      <trkpt lat="41.77073" lon="9.2976">
        <ele>789.4</ele>
        <time>2015-06-18T09:43:39Z</time>
      </trkpt>
      <trkpt lat="41.77077" lon="9.29762">
        <ele>790.6</ele>
        <time>2015-06-18T09:43:49Z</time>
      </trkpt>
      <trkpt lat="41.77085" lon="9.29763">
        <ele>792</ele>
        <time>2015-06-18T09:44:04Z</time>
      </trkpt>
      <trkpt lat="41.77089" lon="9.29758">
        <ele>792.4</ele>
        <time>2015-06-18T09:44:09Z</time>
      </trkpt>
      <trkpt lat="41.77089" lon="9.29756">
        <ele>792.4</ele>
        <time>2015-06-18T09:44:11Z</time>
      </trkpt>
      <trkpt lat="41.77089" lon="9.29756">
        <ele>792.8</ele>
        <time>2015-06-18T09:44:14Z</time>
      </trkpt>
      <trkpt lat="41.77091" lon="9.29753">
        <ele>793.8</ele>
        <time>2015-06-18T09:44:26Z</time>
      </trkpt>
      <trkpt lat="41.77094" lon="9.29749">
        <ele>795.2</ele>
        <time>2015-06-18T09:44:35Z</time>
      </trkpt>
      <trkpt lat="41.77098" lon="9.29751">
        <ele>796.2</ele>
        <time>2015-06-18T09:44:44Z</time>
      </trkpt>
      <trkpt lat="41.77105" lon="9.29756">
        <ele>798.4</ele>
        <time>2015-06-18T09:44:58Z</time>
      </trkpt>
      <trkpt lat="41.77114" lon="9.29758">
        <ele>798.8</ele>
        <time>2015-06-18T09:45:09Z</time>
      </trkpt>
      <trkpt lat="41.77117" lon="9.29758">
        <ele>799</ele>
        <time>2015-06-18T09:45:11Z</time>
      </trkpt>
      <trkpt lat="41.77118" lon="9.29758">
        <ele>799.4</ele>
        <time>2015-06-18T09:45:13Z</time>
      </trkpt>
      <trkpt lat="41.77124" lon="9.2976">
        <ele>800.2</ele>
        <time>2015-06-18T09:45:23Z</time>
      </trkpt>
      <trkpt lat="41.7713" lon="9.29766">
        <ele>801.6</ele>
        <time>2015-06-18T09:45:37Z</time>
      </trkpt>
      <trkpt lat="41.77133" lon="9.29771">
        <ele>802.6</ele>
        <time>2015-06-18T09:45:46Z</time>
      </trkpt>
      <trkpt lat="41.77143" lon="9.29776">
        <ele>804</ele>
        <time>2015-06-18T09:46:03Z</time>
      </trkpt>
      <trkpt lat="41.77148" lon="9.29776">
        <ele>805</ele>
        <time>2015-06-18T09:46:12Z</time>
      </trkpt>
      <trkpt lat="41.77153" lon="9.29778">
        <ele>806</ele>
        <time>2015-06-18T09:46:20Z</time>
      </trkpt>
      <trkpt lat="41.77155" lon="9.29777">
        <ele>806.2</ele>
        <time>2015-06-18T09:46:22Z</time>
      </trkpt>
      <trkpt lat="41.77158" lon="9.29777">
        <ele>806.8</ele>
        <time>2015-06-18T09:46:28Z</time>
      </trkpt>
      <trkpt lat="41.77162" lon="9.29779">
        <ele>807.8</ele>
        <time>2015-06-18T09:46:37Z</time>
      </trkpt>
      <trkpt lat="41.77165" lon="9.29782">
        <ele>809</ele>
        <time>2015-06-18T09:46:45Z</time>
      </trkpt>
      <trkpt lat="41.7717" lon="9.29782">
        <ele>810.2</ele>
        <time>2015-06-18T09:46:55Z</time>
      </trkpt>
      <trkpt lat="41.77171" lon="9.29775">
        <ele>812</ele>
        <time>2015-06-18T09:47:23Z</time>
      </trkpt>
      <trkpt lat="41.77175" lon="9.29768">
        <ele>813</ele>
        <time>2015-06-18T09:47:36Z</time>
      </trkpt>
      <trkpt lat="41.7718" lon="9.29761">
        <ele>814</ele>
        <time>2015-06-18T09:47:49Z</time>
      </trkpt>
      <trkpt lat="41.77181" lon="9.29758">
        <ele>814.4</ele>
        <time>2015-06-18T09:47:52Z</time>
      </trkpt>
      <trkpt lat="41.77182" lon="9.29753">
        <ele>814.6</ele>
        <time>2015-06-18T09:47:58Z</time>
      </trkpt>
      <trkpt lat="41.77184" lon="9.29747">
        <ele>816.2</ele>
        <time>2015-06-18T09:48:09Z</time>
      </trkpt>
      <trkpt lat="41.77187" lon="9.2974">
        <ele>817</ele>
        <time>2015-06-18T09:48:18Z</time>
      </trkpt>
      <trkpt lat="41.77187" lon="9.29739">
        <ele>817.2</ele>
        <time>2015-06-18T09:48:20Z</time>
      </trkpt>
      <trkpt lat="41.77188" lon="9.29733">
        <ele>818</ele>
        <time>2015-06-18T09:48:28Z</time>
      </trkpt>
      <trkpt lat="41.77184" lon="9.29728">
        <ele>819.4</ele>
        <time>2015-06-18T09:48:40Z</time>
      </trkpt>
      <trkpt lat="41.77182" lon="9.29724">
        <ele>820.4</ele>
        <time>2015-06-18T09:48:50Z</time>
      </trkpt>
      <trkpt lat="41.77177" lon="9.29723">
        <ele>822</ele>
        <time>2015-06-18T09:49:02Z</time>
      </trkpt>
      <trkpt lat="41.77176" lon="9.29718">
        <ele>822.4</ele>
        <time>2015-06-18T09:49:09Z</time>
      </trkpt>
      <trkpt lat="41.77175" lon="9.29711">
        <ele>824</ele>
        <time>2015-06-18T09:49:20Z</time>
      </trkpt>
      <trkpt lat="41.77178" lon="9.29705">
        <ele>825</ele>
        <time>2015-06-18T09:49:32Z</time>
      </trkpt>
      <trkpt lat="41.77181" lon="9.29702">
        <ele>825.8</ele>
        <time>2015-06-18T09:49:39Z</time>
      </trkpt>
      <trkpt lat="41.77184" lon="9.297">
        <ele>827</ele>
        <time>2015-06-18T09:49:47Z</time>
      </trkpt>
      <trkpt lat="41.77189" lon="9.29701">
        <ele>828</ele>
        <time>2015-06-18T09:49:55Z</time>
      </trkpt>
      <trkpt lat="41.77192" lon="9.29701">
        <ele>829.2</ele>
        <time>2015-06-18T09:50:04Z</time>
      </trkpt>
      <trkpt lat="41.77193" lon="9.29701">
        <ele>830</ele>
        <time>2015-06-18T09:50:11Z</time>
      </trkpt>
      <trkpt lat="41.77199" lon="9.29693">
        <ele>831.8</ele>
        <time>2015-06-18T09:50:22Z</time>
      </trkpt>
      <trkpt lat="41.77199" lon="9.29693">
        <ele>831.6</ele>
        <time>2015-06-18T09:50:23Z</time>
      </trkpt>
      <trkpt lat="41.77201" lon="9.29692">
        <ele>832</ele>
        <time>2015-06-18T09:50:25Z</time>
      </trkpt>
      <trkpt lat="41.77206" lon="9.29687">
        <ele>832.4</ele>
        <time>2015-06-18T09:50:32Z</time>
      </trkpt>
      <trkpt lat="41.77217" lon="9.2968">
        <ele>833.8</ele>
        <time>2015-06-18T09:50:54Z</time>
      </trkpt>
      <trkpt lat="41.77221" lon="9.29674">
        <ele>834.8</ele>
        <time>2015-06-18T09:51:04Z</time>
      </trkpt>
      <trkpt lat="41.77225" lon="9.29668">
        <ele>835.8</ele>
        <time>2015-06-18T09:51:12Z</time>
      </trkpt>
      <trkpt lat="41.77226" lon="9.29663">
        <ele>836.6</ele>
        <time>2015-06-18T09:51:19Z</time>
      </trkpt>
      <trkpt lat="41.77225" lon="9.29654">
        <ele>838.4</ele>
        <time>2015-06-18T09:51:33Z</time>
      </trkpt>
      <trkpt lat="41.77224" lon="9.29651">
        <ele>838.8</ele>
        <time>2015-06-18T09:51:39Z</time>
      </trkpt>
      <trkpt lat="41.77223" lon="9.29648">
        <ele>840</ele>
        <time>2015-06-18T09:51:46Z</time>
      </trkpt>
      <trkpt lat="41.77222" lon="9.2964">
        <ele>841.2</ele>
        <time>2015-06-18T09:51:56Z</time>
      </trkpt>
      <trkpt lat="41.77221" lon="9.29633">
        <ele>842.2</ele>
        <time>2015-06-18T09:52:04Z</time>
      </trkpt>
      <trkpt lat="41.77223" lon="9.29633">
        <ele>843.4</ele>
        <time>2015-06-18T09:52:11Z</time>
      </trkpt>
      <trkpt lat="41.77227" lon="9.29634">
        <ele>844.2</ele>
        <time>2015-06-18T09:52:18Z</time>
      </trkpt>
      <trkpt lat="41.77228" lon="9.29629">
        <ele>845.8</ele>
        <time>2015-06-18T09:52:28Z</time>
      </trkpt>
      <trkpt lat="41.77227" lon="9.29622">
        <ele>846.8</ele>
        <time>2015-06-18T09:52:39Z</time>
      </trkpt>
      <trkpt lat="41.77227" lon="9.2962">
        <ele>847.2</ele>
        <time>2015-06-18T09:52:43Z</time>
      </trkpt>
      <trkpt lat="41.77228" lon="9.29618">
        <ele>847.8</ele>
        <time>2015-06-18T09:52:49Z</time>
      </trkpt>
      <trkpt lat="41.77226" lon="9.29616">
        <ele>848.6</ele>
        <time>2015-06-18T09:52:56Z</time>
      </trkpt>
      <trkpt lat="41.77225" lon="9.29614">
        <ele>850</ele>
        <time>2015-06-18T09:53:06Z</time>
      </trkpt>
      <trkpt lat="41.77222" lon="9.29606">
        <ele>851.2</ele>
        <time>2015-06-18T09:53:15Z</time>
      </trkpt>
      <trkpt lat="41.77219" lon="9.29598">
        <ele>852.6</ele>
        <time>2015-06-18T09:53:29Z</time>
      </trkpt>
      <trkpt lat="41.77225" lon="9.29594">
        <ele>853.6</ele>
        <time>2015-06-18T09:53:43Z</time>
      </trkpt>
      <trkpt lat="41.77229" lon="9.29589">
        <ele>854.8</ele>
        <time>2015-06-18T09:53:55Z</time>
      </trkpt>
      <trkpt lat="41.77234" lon="9.29581">
        <ele>855.8</ele>
        <time>2015-06-18T09:54:08Z</time>
      </trkpt>
      <trkpt lat="41.77235" lon="9.29577">
        <ele>856.8</ele>
        <time>2015-06-18T09:54:17Z</time>
      </trkpt>
      <trkpt lat="41.77238" lon="9.29574">
        <ele>858</ele>
        <time>2015-06-18T09:54:28Z</time>
      </trkpt>
      <trkpt lat="41.77241" lon="9.29569">
        <ele>859</ele>
        <time>2015-06-18T09:54:38Z</time>
      </trkpt>
      <trkpt lat="41.77243" lon="9.29563">
        <ele>860.2</ele>
        <time>2015-06-18T09:54:50Z</time>
      </trkpt>
      <trkpt lat="41.77244" lon="9.29561">
        <ele>861.2</ele>
        <time>2015-06-18T09:54:59Z</time>
      </trkpt>
      <trkpt lat="41.77246" lon="9.29557">
        <ele>862.4</ele>
        <time>2015-06-18T09:55:07Z</time>
      </trkpt>
      <trkpt lat="41.77249" lon="9.29556">
        <ele>863.6</ele>
        <time>2015-06-18T09:55:16Z</time>
      </trkpt>
      <trkpt lat="41.77251" lon="9.29551">
        <ele>864.8</ele>
        <time>2015-06-18T09:55:24Z</time>
      </trkpt>
      <trkpt lat="41.77254" lon="9.29544">
        <ele>866</ele>
        <time>2015-06-18T09:55:36Z</time>
      </trkpt>
      <trkpt lat="41.77258" lon="9.29541">
        <ele>867.4</ele>
        <time>2015-06-18T09:55:44Z</time>
      </trkpt>
      <trkpt lat="41.7726" lon="9.29536">
        <ele>868.4</ele>
        <time>2015-06-18T09:55:54Z</time>
      </trkpt>
      <trkpt lat="41.77261" lon="9.29533">
        <ele>869.8</ele>
        <time>2015-06-18T09:56:05Z</time>
      </trkpt>
      <trkpt lat="41.77262" lon="9.2953">
        <ele>871</ele>
        <time>2015-06-18T09:56:18Z</time>
      </trkpt>
      <trkpt lat="41.77266" lon="9.29528">
        <ele>872.4</ele>
        <time>2015-06-18T09:56:32Z</time>
      </trkpt>
      <trkpt lat="41.77264" lon="9.29516">
        <ele>873.8</ele>
        <time>2015-06-18T09:56:46Z</time>
      </trkpt>
      <trkpt lat="41.77264" lon="9.29514">
        <ele>874.2</ele>
        <time>2015-06-18T09:56:53Z</time>
      </trkpt>
      <trkpt lat="41.77263" lon="9.29511">
        <ele>875.6</ele>
        <time>2015-06-18T09:57:03Z</time>
      </trkpt>
      <trkpt lat="41.77262" lon="9.29509">
        <ele>877</ele>
        <time>2015-06-18T09:57:16Z</time>
      </trkpt>
      <trkpt lat="41.77261" lon="9.29505">
        <ele>877.8</ele>
        <time>2015-06-18T09:57:26Z</time>
      </trkpt>
      <trkpt lat="41.77263" lon="9.29503">
        <ele>879</ele>
        <time>2015-06-18T09:57:35Z</time>
      </trkpt>
      <trkpt lat="41.77264" lon="9.29498">
        <ele>880</ele>
        <time>2015-06-18T09:57:45Z</time>
      </trkpt>
      <trkpt lat="41.77263" lon="9.29491">
        <ele>881.4</ele>
        <time>2015-06-18T09:57:54Z</time>
      </trkpt>
      <trkpt lat="41.77262" lon="9.29485">
        <ele>882.8</ele>
        <time>2015-06-18T09:58:03Z</time>
      </trkpt>
      <trkpt lat="41.77262" lon="9.29479">
        <ele>883.8</ele>
        <time>2015-06-18T09:58:11Z</time>
      </trkpt>
      <trkpt lat="41.77262" lon="9.29474">
        <ele>885</ele>
        <time>2015-06-18T09:58:21Z</time>
      </trkpt>
      <trkpt lat="41.77261" lon="9.2947">
        <ele>886.6</ele>
        <time>2015-06-18T09:58:32Z</time>
      </trkpt>
      <trkpt lat="41.77259" lon="9.29465">
        <ele>887.8</ele>
        <time>2015-06-18T09:58:43Z</time>
      </trkpt>
      <trkpt lat="41.77261" lon="9.29462">
        <ele>888.4</ele>
        <time>2015-06-18T09:58:51Z</time>
      </trkpt>
      <trkpt lat="41.7726" lon="9.29459">
        <ele>890.2</ele>
        <time>2015-06-18T09:59:07Z</time>
      </trkpt>
      <trkpt lat="41.77261" lon="9.29453">
        <ele>891.2</ele>
        <time>2015-06-18T09:59:16Z</time>
      </trkpt>
      <trkpt lat="41.77263" lon="9.29452">
        <ele>892.4</ele>
        <time>2015-06-18T09:59:27Z</time>
      </trkpt>
      <trkpt lat="41.77264" lon="9.29448">
        <ele>893.8</ele>
        <time>2015-06-18T09:59:37Z</time>
      </trkpt>
      <trkpt lat="41.77263" lon="9.29443">
        <ele>894.8</ele>
        <time>2015-06-18T09:59:46Z</time>
      </trkpt>
      <trkpt lat="41.77267" lon="9.29436">
        <ele>896.4</ele>
        <time>2015-06-18T09:59:57Z</time>
      </trkpt>
      <trkpt lat="41.77265" lon="9.2943">
        <ele>897.2</ele>
        <time>2015-06-18T10:00:04Z</time>
      </trkpt>
      <trkpt lat="41.77264" lon="9.29425">
        <ele>898.8</ele>
        <time>2015-06-18T10:00:13Z</time>
      </trkpt>
      <trkpt lat="41.77262" lon="9.29418">
        <ele>900</ele>
        <time>2015-06-18T10:00:24Z</time>
      </trkpt>
      <trkpt lat="41.77261" lon="9.29411">
        <ele>901.2</ele>
        <time>2015-06-18T10:00:34Z</time>
      </trkpt>
      <trkpt lat="41.77259" lon="9.29405">
        <ele>902.4</ele>
        <time>2015-06-18T10:00:43Z</time>
      </trkpt>
      <trkpt lat="41.77257" lon="9.294">
        <ele>903.8</ele>
        <time>2015-06-18T10:00:54Z</time>
      </trkpt>
      <trkpt lat="41.77254" lon="9.29392">
        <ele>905</ele>
        <time>2015-06-18T10:01:06Z</time>
      </trkpt>
      <trkpt lat="41.77252" lon="9.29386">
        <ele>906.2</ele>
        <time>2015-06-18T10:01:20Z</time>
      </trkpt>
      <trkpt lat="41.7725" lon="9.29381">
        <ele>907</ele>
        <time>2015-06-18T10:01:28Z</time>
      </trkpt>
      <trkpt lat="41.77249" lon="9.29377">
        <ele>908.4</ele>
        <time>2015-06-18T10:01:36Z</time>
      </trkpt>
      <trkpt lat="41.77249" lon="9.29393">
        <ele>909.2</ele>
        <time>2015-06-18T10:01:42Z</time>
      </trkpt>
      <trkpt lat="41.77249" lon="9.29394">
        <ele>909.8</ele>
        <time>2015-06-18T10:01:44Z</time>
      </trkpt>
      <trkpt lat="41.77249" lon="9.29394">
        <ele>909.8</ele>
        <time>2015-06-18T10:01:45Z</time>
      </trkpt>
      <trkpt lat="41.77245" lon="9.29395">
        <ele>911</ele>
        <time>2015-06-18T10:01:55Z</time>
      </trkpt>
      <trkpt lat="41.77243" lon="9.29393">
        <ele>911.8</ele>
        <time>2015-06-18T10:02:01Z</time>
      </trkpt>
      <trkpt lat="41.77243" lon="9.29395">
        <ele>913.2</ele>
        <time>2015-06-18T10:02:10Z</time>
      </trkpt>
      <trkpt lat="41.77244" lon="9.29394">
        <ele>913.8</ele>
        <time>2015-06-18T10:02:17Z</time>
      </trkpt>
      <trkpt lat="41.77244" lon="9.29392">
        <ele>915.2</ele>
        <time>2015-06-18T10:02:25Z</time>
      </trkpt>
      <trkpt lat="41.77244" lon="9.29384">
        <ele>916.6</ele>
        <time>2015-06-18T10:02:38Z</time>
      </trkpt>
      <trkpt lat="41.77246" lon="9.29375">
        <ele>917.6</ele>
        <time>2015-06-18T10:02:52Z</time>
      </trkpt>
      <trkpt lat="41.77245" lon="9.29366">
        <ele>918.6</ele>
        <time>2015-06-18T10:03:04Z</time>
      </trkpt>
      <trkpt lat="41.77247" lon="9.29364">
        <ele>919.4</ele>
        <time>2015-06-18T10:03:12Z</time>
      </trkpt>
      <trkpt lat="41.77251" lon="9.29354">
        <ele>920.6</ele>
        <time>2015-06-18T10:03:25Z</time>
      </trkpt>
      <trkpt lat="41.77251" lon="9.29349">
        <ele>921</ele>
        <time>2015-06-18T10:03:33Z</time>
      </trkpt>
      <trkpt lat="41.77251" lon="9.29341">
        <ele>922.2</ele>
        <time>2015-06-18T10:03:42Z</time>
      </trkpt>
      <trkpt lat="41.77253" lon="9.29335">
        <ele>923.6</ele>
        <time>2015-06-18T10:03:53Z</time>
      </trkpt>
      <trkpt lat="41.77252" lon="9.29325">
        <ele>924.4</ele>
        <time>2015-06-18T10:04:02Z</time>
      </trkpt>
      <trkpt lat="41.77259" lon="9.29311">
        <ele>924.4</ele>
        <time>2015-06-18T10:04:15Z</time>
      </trkpt>
      <trkpt lat="41.7726" lon="9.2931">
        <ele>924.4</ele>
        <time>2015-06-18T10:04:17Z</time>
      </trkpt>
      <trkpt lat="41.77275" lon="9.29265">
        <ele>924</ele>
        <time>2015-06-18T10:05:10Z</time>
      </trkpt>
      <trkpt lat="41.77274" lon="9.29261">
        <ele>923.8</ele>
        <time>2015-06-18T10:05:14Z</time>
      </trkpt>
      <trkpt lat="41.77238" lon="9.29229">
        <ele>922.4</ele>
        <time>2015-06-18T10:05:59Z</time>
      </trkpt>
      <trkpt lat="41.77213" lon="9.29211">
        <ele>922.8</ele>
        <time>2015-06-18T10:06:29Z</time>
      </trkpt>
      <trkpt lat="41.77229" lon="9.2922">
        <ele>922.8</ele>
        <time>2015-06-18T10:07:20Z</time>
      </trkpt>
      <trkpt lat="41.77235" lon="9.29215">
        <ele>922.8</ele>
        <time>2015-06-18T10:07:26Z</time>
      </trkpt>
      <trkpt lat="41.77243" lon="9.2921">
        <ele>923.6</ele>
        <time>2015-06-18T10:07:33Z</time>
      </trkpt>
      <trkpt lat="41.77247" lon="9.29194">
        <ele>924.6</ele>
        <time>2015-06-18T10:07:44Z</time>
      </trkpt>
      <trkpt lat="41.77247" lon="9.29194">
        <ele>924.6</ele>
        <time>2015-06-18T10:07:45Z</time>
      </trkpt>
      <trkpt lat="41.77237" lon="9.29179">
        <ele>925.6</ele>
        <time>2015-06-18T10:07:59Z</time>
      </trkpt>
      <trkpt lat="41.77237" lon="9.29149">
        <ele>926.6</ele>
        <time>2015-06-18T10:08:21Z</time>
      </trkpt>
      <trkpt lat="41.77236" lon="9.29136">
        <ele>927.2</ele>
        <time>2015-06-18T10:08:33Z</time>
      </trkpt>
      <trkpt lat="41.77237" lon="9.29122">
        <ele>928.4</ele>
        <time>2015-06-18T10:08:45Z</time>
      </trkpt>
      <trkpt lat="41.77235" lon="9.29106">
        <ele>929.2</ele>
        <time>2015-06-18T10:08:57Z</time>
      </trkpt>
      <trkpt lat="41.77232" lon="9.29088">
        <ele>929.8</ele>
        <time>2015-06-18T10:09:09Z</time>
      </trkpt>
      <trkpt lat="41.77232" lon="9.29079">
        <ele>930.8</ele>
        <time>2015-06-18T10:09:18Z</time>
      </trkpt>
      <trkpt lat="41.77229" lon="9.29072">
        <ele>931.4</ele>
        <time>2015-06-18T10:09:24Z</time>
      </trkpt>
      <trkpt lat="41.77229" lon="9.29065">
        <ele>932.6</ele>
        <time>2015-06-18T10:09:30Z</time>
      </trkpt>
      <trkpt lat="41.7723" lon="9.29026">
        <ele>932</ele>
        <time>2015-06-18T10:10:51Z</time>
      </trkpt>
      <trkpt lat="41.77231" lon="9.29009">
        <ele>931.6</ele>
        <time>2015-06-18T10:11:15Z</time>
      </trkpt>
      <trkpt lat="41.77231" lon="9.29008">
        <ele>931.8</ele>
        <time>2015-06-18T10:11:16Z</time>
      </trkpt>
      <trkpt lat="41.77232" lon="9.29006">
        <ele>932.4</ele>
        <time>2015-06-18T10:11:24Z</time>
      </trkpt>
      <trkpt lat="41.77234" lon="9.29005">
        <ele>933.8</ele>
        <time>2015-06-18T10:11:37Z</time>
      </trkpt>
      <trkpt lat="41.77235" lon="9.29005">
        <ele>934.8</ele>
        <time>2015-06-18T10:11:45Z</time>
      </trkpt>
      <trkpt lat="41.77237" lon="9.29">
        <ele>935.8</ele>
        <time>2015-06-18T10:12:01Z</time>
      </trkpt>
      <trkpt lat="41.7724" lon="9.28999">
        <ele>936.4</ele>
        <time>2015-06-18T10:12:10Z</time>
      </trkpt>
      <trkpt lat="41.77246" lon="9.28998">
        <ele>937.2</ele>
        <time>2015-06-18T10:12:21Z</time>
      </trkpt>
      <trkpt lat="41.77249" lon="9.28997">
        <ele>937.4</ele>
        <time>2015-06-18T10:12:24Z</time>
      </trkpt>
      <trkpt lat="41.77251" lon="9.28994">
        <ele>938</ele>
        <time>2015-06-18T10:12:28Z</time>
      </trkpt>
      <trkpt lat="41.77252" lon="9.28992">
        <ele>938.4</ele>
        <time>2015-06-18T10:12:31Z</time>
      </trkpt>
      <trkpt lat="41.77252" lon="9.28991">
        <ele>938.4</ele>
        <time>2015-06-18T10:12:33Z</time>
      </trkpt>
      <trkpt lat="41.77253" lon="9.28987">
        <ele>939.4</ele>
        <time>2015-06-18T10:12:41Z</time>
      </trkpt>
      <trkpt lat="41.77255" lon="9.28981">
        <ele>940.6</ele>
        <time>2015-06-18T10:12:50Z</time>
      </trkpt>
      <trkpt lat="41.7726" lon="9.28973">
        <ele>941.6</ele>
        <time>2015-06-18T10:13:01Z</time>
      </trkpt>
      <trkpt lat="41.77263" lon="9.28971">
        <ele>941.8</ele>
        <time>2015-06-18T10:13:05Z</time>
      </trkpt>
      <trkpt lat="41.77265" lon="9.28969">
        <ele>942.2</ele>
        <time>2015-06-18T10:13:08Z</time>
      </trkpt>
      <trkpt lat="41.77267" lon="9.28964">
        <ele>943.2</ele>
        <time>2015-06-18T10:13:14Z</time>
      </trkpt>
      <trkpt lat="41.77271" lon="9.2896">
        <ele>944.4</ele>
        <time>2015-06-18T10:13:21Z</time>
      </trkpt>
      <trkpt lat="41.77274" lon="9.28956">
        <ele>945.4</ele>
        <time>2015-06-18T10:13:29Z</time>
      </trkpt>
      <trkpt lat="41.77277" lon="9.28951">
        <ele>946.8</ele>
        <time>2015-06-18T10:13:41Z</time>
      </trkpt>
      <trkpt lat="41.77283" lon="9.28947">
        <ele>947.8</ele>
        <time>2015-06-18T10:13:54Z</time>
      </trkpt>
      <trkpt lat="41.77285" lon="9.28943">
        <ele>948.4</ele>
        <time>2015-06-18T10:14:00Z</time>
      </trkpt>
      <trkpt lat="41.77286" lon="9.2894">
        <ele>949.2</ele>
        <time>2015-06-18T10:14:05Z</time>
      </trkpt>
      <trkpt lat="41.77287" lon="9.28937">
        <ele>950.2</ele>
        <time>2015-06-18T10:14:09Z</time>
      </trkpt>
      <trkpt lat="41.77288" lon="9.28934">
        <ele>951.6</ele>
        <time>2015-06-18T10:14:15Z</time>
      </trkpt>
      <trkpt lat="41.77289" lon="9.28929">
        <ele>953</ele>
        <time>2015-06-18T10:14:23Z</time>
      </trkpt>
      <trkpt lat="41.77289" lon="9.28923">
        <ele>954.2</ele>
        <time>2015-06-18T10:14:31Z</time>
      </trkpt>
      <trkpt lat="41.77289" lon="9.28904">
        <ele>955.4</ele>
        <time>2015-06-18T10:14:49Z</time>
      </trkpt>
      <trkpt lat="41.77291" lon="9.28901">
        <ele>955.6</ele>
        <time>2015-06-18T10:14:55Z</time>
      </trkpt>
      <trkpt lat="41.77295" lon="9.28898">
        <ele>956.6</ele>
        <time>2015-06-18T10:15:01Z</time>
      </trkpt>
      <trkpt lat="41.77302" lon="9.28896">
        <ele>958.2</ele>
        <time>2015-06-18T10:15:15Z</time>
      </trkpt>
      <trkpt lat="41.77306" lon="9.28897">
        <ele>959</ele>
        <time>2015-06-18T10:15:26Z</time>
      </trkpt>
      <trkpt lat="41.77312" lon="9.28896">
        <ele>960</ele>
        <time>2015-06-18T10:15:35Z</time>
      </trkpt>
      <trkpt lat="41.77317" lon="9.28896">
        <ele>961</ele>
        <time>2015-06-18T10:15:42Z</time>
      </trkpt>
      <trkpt lat="41.77324" lon="9.28894">
        <ele>962.2</ele>
        <time>2015-06-18T10:15:52Z</time>
      </trkpt>
      <trkpt lat="41.77326" lon="9.28894">
        <ele>962.6</ele>
        <time>2015-06-18T10:15:57Z</time>
      </trkpt>
      <trkpt lat="41.77328" lon="9.28893">
        <ele>963.6</ele>
        <time>2015-06-18T10:16:03Z</time>
      </trkpt>
      <trkpt lat="41.77332" lon="9.28891">
        <ele>965</ele>
        <time>2015-06-18T10:16:12Z</time>
      </trkpt>
      <trkpt lat="41.77346" lon="9.28889">
        <ele>966.4</ele>
        <time>2015-06-18T10:16:37Z</time>
      </trkpt>
      <trkpt lat="41.77349" lon="9.28887">
        <ele>967</ele>
        <time>2015-06-18T10:16:43Z</time>
      </trkpt>
      <trkpt lat="41.77353" lon="9.28882">
        <ele>968.2</ele>
        <time>2015-06-18T10:16:51Z</time>
      </trkpt>
      <trkpt lat="41.77358" lon="9.28878">
        <ele>969.2</ele>
        <time>2015-06-18T10:17:01Z</time>
      </trkpt>
      <trkpt lat="41.77361" lon="9.28869">
        <ele>970.4</ele>
        <time>2015-06-18T10:17:14Z</time>
      </trkpt>
      <trkpt lat="41.77362" lon="9.28865">
        <ele>971</ele>
        <time>2015-06-18T10:17:22Z</time>
      </trkpt>
      <trkpt lat="41.77363" lon="9.2886">
        <ele>971.8</ele>
        <time>2015-06-18T10:17:28Z</time>
      </trkpt>
      <trkpt lat="41.77366" lon="9.28857">
        <ele>973.4</ele>
        <time>2015-06-18T10:17:36Z</time>
      </trkpt>
      <trkpt lat="41.77369" lon="9.28857">
        <ele>974.2</ele>
        <time>2015-06-18T10:17:44Z</time>
      </trkpt>
      <trkpt lat="41.77371" lon="9.28855">
        <ele>975.6</ele>
        <time>2015-06-18T10:17:54Z</time>
      </trkpt>
      <trkpt lat="41.77373" lon="9.28854">
        <ele>976.2</ele>
        <time>2015-06-18T10:18:01Z</time>
      </trkpt>
      <trkpt lat="41.77378" lon="9.28852">
        <ele>977.4</ele>
        <time>2015-06-18T10:18:09Z</time>
      </trkpt>
      <trkpt lat="41.77378" lon="9.28847">
        <ele>978.6</ele>
        <time>2015-06-18T10:18:18Z</time>
      </trkpt>
      <trkpt lat="41.7738" lon="9.28845">
        <ele>979.4</ele>
        <time>2015-06-18T10:18:25Z</time>
      </trkpt>
      <trkpt lat="41.77382" lon="9.28843">
        <ele>980.6</ele>
        <time>2015-06-18T10:18:33Z</time>
      </trkpt>
      <trkpt lat="41.77385" lon="9.2884">
        <ele>981.4</ele>
        <time>2015-06-18T10:18:39Z</time>
      </trkpt>
      <trkpt lat="41.77388" lon="9.28835">
        <ele>982.6</ele>
        <time>2015-06-18T10:18:47Z</time>
      </trkpt>
      <trkpt lat="41.77389" lon="9.28833">
        <ele>983.4</ele>
        <time>2015-06-18T10:18:54Z</time>
      </trkpt>
      <trkpt lat="41.77392" lon="9.2883">
        <ele>984.4</ele>
        <time>2015-06-18T10:19:01Z</time>
      </trkpt>
      <trkpt lat="41.77396" lon="9.28825">
        <ele>985.8</ele>
        <time>2015-06-18T10:19:11Z</time>
      </trkpt>
      <trkpt lat="41.77398" lon="9.28822">
        <ele>986.8</ele>
        <time>2015-06-18T10:19:19Z</time>
      </trkpt>
      <trkpt lat="41.77401" lon="9.28808">
        <ele>988</ele>
        <time>2015-06-18T10:19:35Z</time>
      </trkpt>
      <trkpt lat="41.77402" lon="9.28808">
        <ele>988.2</ele>
        <time>2015-06-18T10:19:37Z</time>
      </trkpt>
      <trkpt lat="41.77404" lon="9.28805">
        <ele>988.6</ele>
        <time>2015-06-18T10:19:44Z</time>
      </trkpt>
      <trkpt lat="41.77405" lon="9.28795">
        <ele>990</ele>
        <time>2015-06-18T10:19:53Z</time>
      </trkpt>
      <trkpt lat="41.77415" lon="9.28785">
        <ele>991.4</ele>
        <time>2015-06-18T10:20:18Z</time>
      </trkpt>
      <trkpt lat="41.77418" lon="9.2878">
        <ele>991.8</ele>
        <time>2015-06-18T10:20:29Z</time>
      </trkpt>
      <trkpt lat="41.77423" lon="9.28777">
        <ele>992.8</ele>
        <time>2015-06-18T10:20:43Z</time>
      </trkpt>
      <trkpt lat="41.77427" lon="9.28774">
        <ele>993.8</ele>
        <time>2015-06-18T10:20:51Z</time>
      </trkpt>
      <trkpt lat="41.77438" lon="9.28764">
        <ele>995</ele>
        <time>2015-06-18T10:21:07Z</time>
      </trkpt>
      <trkpt lat="41.77443" lon="9.2876">
        <ele>995.8</ele>
        <time>2015-06-18T10:21:16Z</time>
      </trkpt>
      <trkpt lat="41.7745" lon="9.28757">
        <ele>997</ele>
        <time>2015-06-18T10:21:26Z</time>
      </trkpt>
      <trkpt lat="41.77456" lon="9.28755">
        <ele>998</ele>
        <time>2015-06-18T10:21:35Z</time>
      </trkpt>
      <trkpt lat="41.77464" lon="9.28731">
        <ele>999.2</ele>
        <time>2015-06-18T10:21:59Z</time>
      </trkpt>
      <trkpt lat="41.77464" lon="9.28729">
        <ele>999.4</ele>
        <time>2015-06-18T10:22:00Z</time>
      </trkpt>
      <trkpt lat="41.77464" lon="9.28711">
        <ele>999.8</ele>
        <time>2015-06-18T10:22:14Z</time>
      </trkpt>
      <trkpt lat="41.7748" lon="9.28691">
        <ele>1000.2</ele>
        <time>2015-06-18T10:22:47Z</time>
      </trkpt>
      <trkpt lat="41.77484" lon="9.28688">
        <ele>1000.4</ele>
        <time>2015-06-18T10:22:52Z</time>
      </trkpt>
      <trkpt lat="41.7749" lon="9.2868">
        <ele>1001</ele>
        <time>2015-06-18T10:22:59Z</time>
      </trkpt>
      <trkpt lat="41.77497" lon="9.28665">
        <ele>1001.8</ele>
        <time>2015-06-18T10:23:16Z</time>
      </trkpt>
      <trkpt lat="41.77498" lon="9.28656">
        <ele>1002.4</ele>
        <time>2015-06-18T10:23:25Z</time>
      </trkpt>
      <trkpt lat="41.7751" lon="9.28599">
        <ele>1003.6</ele>
        <time>2015-06-18T10:24:08Z</time>
      </trkpt>
      <trkpt lat="41.77512" lon="9.28592">
        <ele>1003.6</ele>
        <time>2015-06-18T10:24:13Z</time>
      </trkpt>
      <trkpt lat="41.77549" lon="9.28559">
        <ele>1003</ele>
        <time>2015-06-18T10:24:55Z</time>
      </trkpt>
      <trkpt lat="41.7755" lon="9.28558">
        <ele>1003</ele>
        <time>2015-06-18T10:24:56Z</time>
      </trkpt>
      <trkpt lat="41.77553" lon="9.28556">
        <ele>1002.8</ele>
        <time>2015-06-18T10:24:59Z</time>
      </trkpt>
      <trkpt lat="41.77554" lon="9.28555">
        <ele>1002.8</ele>
        <time>2015-06-18T10:25:00Z</time>
      </trkpt>
      <trkpt lat="41.77562" lon="9.28544">
        <ele>1002.6</ele>
        <time>2015-06-18T10:25:12Z</time>
      </trkpt>
      <trkpt lat="41.77581" lon="9.28527">
        <ele>1001.8</ele>
        <time>2015-06-18T10:25:36Z</time>
      </trkpt>
      <trkpt lat="41.77599" lon="9.28508">
        <ele>1001.4</ele>
        <time>2015-06-18T10:26:00Z</time>
      </trkpt>
      <trkpt lat="41.77631" lon="9.2847">
        <ele>1000</ele>
        <time>2015-06-18T10:26:45Z</time>
      </trkpt>
      <trkpt lat="41.77659" lon="9.28452">
        <ele>999.4</ele>
        <time>2015-06-18T10:27:18Z</time>
      </trkpt>
      <trkpt lat="41.77662" lon="9.28449">
        <ele>999</ele>
        <time>2015-06-18T10:27:24Z</time>
      </trkpt>
      <trkpt lat="41.77668" lon="9.28444">
        <ele>997.6</ele>
        <time>2015-06-18T10:27:33Z</time>
      </trkpt>
      <trkpt lat="41.77677" lon="9.28437">
        <ele>996.2</ele>
        <time>2015-06-18T10:27:46Z</time>
      </trkpt>
      <trkpt lat="41.77684" lon="9.28433">
        <ele>995.2</ele>
        <time>2015-06-18T10:27:57Z</time>
      </trkpt>
      <trkpt lat="41.77686" lon="9.28432">
        <ele>995</ele>
        <time>2015-06-18T10:28:01Z</time>
      </trkpt>
      <trkpt lat="41.77692" lon="9.2843">
        <ele>994</ele>
        <time>2015-06-18T10:28:10Z</time>
      </trkpt>
      <trkpt lat="41.77699" lon="9.28427">
        <ele>993.4</ele>
        <time>2015-06-18T10:28:16Z</time>
      </trkpt>
      <trkpt lat="41.77711" lon="9.28421">
        <ele>992.6</ele>
        <time>2015-06-18T10:28:30Z</time>
      </trkpt>
      <trkpt lat="41.77721" lon="9.28419">
        <ele>991.6</ele>
        <time>2015-06-18T10:28:40Z</time>
      </trkpt>
      <trkpt lat="41.77739" lon="9.28422">
        <ele>990.4</ele>
        <time>2015-06-18T10:29:01Z</time>
      </trkpt>
      <trkpt lat="41.77759" lon="9.28418">
        <ele>989.2</ele>
        <time>2015-06-18T10:29:18Z</time>
      </trkpt>
      <trkpt lat="41.77765" lon="9.28417">
        <ele>988.8</ele>
        <time>2015-06-18T10:29:25Z</time>
      </trkpt>
      <trkpt lat="41.77786" lon="9.28414">
        <ele>987.6</ele>
        <time>2015-06-18T10:29:46Z</time>
      </trkpt>
      <trkpt lat="41.77788" lon="9.28414">
        <ele>987.6</ele>
        <time>2015-06-18T10:29:48Z</time>
      </trkpt>
      <trkpt lat="41.77794" lon="9.28411">
        <ele>987.2</ele>
        <time>2015-06-18T10:29:55Z</time>
      </trkpt>
      <trkpt lat="41.77832" lon="9.28387">
        <ele>988</ele>
        <time>2015-06-18T10:30:40Z</time>
      </trkpt>
      <trkpt lat="41.77851" lon="9.28367">
        <ele>988</ele>
        <time>2015-06-18T10:31:07Z</time>
      </trkpt>
      <trkpt lat="41.77853" lon="9.28363">
        <ele>987.2</ele>
        <time>2015-06-18T10:31:13Z</time>
      </trkpt>
      <trkpt lat="41.77855" lon="9.28355">
        <ele>985.8</ele>
        <time>2015-06-18T10:31:20Z</time>
      </trkpt>
      <trkpt lat="41.77868" lon="9.28333">
        <ele>985.2</ele>
        <time>2015-06-18T10:31:42Z</time>
      </trkpt>
      <trkpt lat="41.77872" lon="9.2832">
        <ele>986.6</ele>
        <time>2015-06-18T10:31:58Z</time>
      </trkpt>
      <trkpt lat="41.77874" lon="9.28315">
        <ele>988</ele>
        <time>2015-06-18T10:32:06Z</time>
      </trkpt>
      <trkpt lat="41.77875" lon="9.28321">
        <ele>987.2</ele>
        <time>2015-06-18T10:38:13Z</time>
      </trkpt>
      <trkpt lat="41.77875" lon="9.28321">
        <ele>987.4</ele>
        <time>2015-06-18T10:38:17Z</time>
      </trkpt>
      <trkpt lat="41.77868" lon="9.28305">
        <ele>988.4</ele>
        <time>2015-06-18T11:17:32Z</time>
      </trkpt>
      <trkpt lat="41.77868" lon="9.28296">
        <ele>990.2</ele>
        <time>2015-06-18T11:17:47Z</time>
      </trkpt>
      <trkpt lat="41.77871" lon="9.28295">
        <ele>989.8</ele>
        <time>2015-06-18T11:17:52Z</time>
      </trkpt>
      <trkpt lat="41.77873" lon="9.28296">
        <ele>990.4</ele>
        <time>2015-06-18T11:17:57Z</time>
      </trkpt>
      <trkpt lat="41.77878" lon="9.28296">
        <ele>992.2</ele>
        <time>2015-06-18T11:18:06Z</time>
      </trkpt>
      <trkpt lat="41.77882" lon="9.28296">
        <ele>993.2</ele>
        <time>2015-06-18T11:18:12Z</time>
      </trkpt>
      <trkpt lat="41.77885" lon="9.28295">
        <ele>994.2</ele>
        <time>2015-06-18T11:18:18Z</time>
      </trkpt>
      <trkpt lat="41.77886" lon="9.28292">
        <ele>995</ele>
        <time>2015-06-18T11:18:24Z</time>
      </trkpt>
      <trkpt lat="41.77891" lon="9.2829">
        <ele>996.4</ele>
        <time>2015-06-18T11:18:34Z</time>
      </trkpt>
      <trkpt lat="41.77893" lon="9.28284">
        <ele>997.8</ele>
        <time>2015-06-18T11:18:45Z</time>
      </trkpt>
      <trkpt lat="41.77896" lon="9.28281">
        <ele>998.8</ele>
        <time>2015-06-18T11:18:53Z</time>
      </trkpt>
      <trkpt lat="41.77898" lon="9.28278">
        <ele>999.8</ele>
        <time>2015-06-18T11:19:01Z</time>
      </trkpt>
      <trkpt lat="41.779" lon="9.28276">
        <ele>1001</ele>
        <time>2015-06-18T11:19:08Z</time>
      </trkpt>
      <trkpt lat="41.779" lon="9.28272">
        <ele>1001.8</ele>
        <time>2015-06-18T11:19:15Z</time>
      </trkpt>
      <trkpt lat="41.77903" lon="9.2827">
        <ele>1003</ele>
        <time>2015-06-18T11:19:22Z</time>
      </trkpt>
      <trkpt lat="41.77906" lon="9.28269">
        <ele>1004</ele>
        <time>2015-06-18T11:19:28Z</time>
      </trkpt>
      <trkpt lat="41.7791" lon="9.2827">
        <ele>1005.4</ele>
        <time>2015-06-18T11:19:36Z</time>
      </trkpt>
      <trkpt lat="41.77914" lon="9.2827">
        <ele>1006.2</ele>
        <time>2015-06-18T11:19:42Z</time>
      </trkpt>
      <trkpt lat="41.77919" lon="9.28268">
        <ele>1007.8</ele>
        <time>2015-06-18T11:19:51Z</time>
      </trkpt>
      <trkpt lat="41.77926" lon="9.2826">
        <ele>1009.2</ele>
        <time>2015-06-18T11:20:04Z</time>
      </trkpt>
      <trkpt lat="41.7793" lon="9.28256">
        <ele>1010</ele>
        <time>2015-06-18T11:20:13Z</time>
      </trkpt>
      <trkpt lat="41.77939" lon="9.28237">
        <ele>1010.8</ele>
        <time>2015-06-18T11:20:32Z</time>
      </trkpt>
      <trkpt lat="41.77952" lon="9.28217">
        <ele>1010</ele>
        <time>2015-06-18T11:20:51Z</time>
      </trkpt>
      <trkpt lat="41.77961" lon="9.28202">
        <ele>1009.2</ele>
        <time>2015-06-18T11:21:05Z</time>
      </trkpt>
      <trkpt lat="41.77965" lon="9.28191">
        <ele>1008.4</ele>
        <time>2015-06-18T11:21:15Z</time>
      </trkpt>
      <trkpt lat="41.77965" lon="9.2819">
        <ele>1008.2</ele>
        <time>2015-06-18T11:21:16Z</time>
      </trkpt>
      <trkpt lat="41.77965" lon="9.28187">
        <ele>1008</ele>
        <time>2015-06-18T11:21:18Z</time>
      </trkpt>
      <trkpt lat="41.77965" lon="9.28183">
        <ele>1007.6</ele>
        <time>2015-06-18T11:21:21Z</time>
      </trkpt>
      <trkpt lat="41.77968" lon="9.28176">
        <ele>1007.2</ele>
        <time>2015-06-18T11:21:27Z</time>
      </trkpt>
      <trkpt lat="41.77971" lon="9.28174">
        <ele>1007</ele>
        <time>2015-06-18T11:21:30Z</time>
      </trkpt>
      <trkpt lat="41.77973" lon="9.28168">
        <ele>1006.2</ele>
        <time>2015-06-18T11:21:35Z</time>
      </trkpt>
      <trkpt lat="41.77982" lon="9.28157">
        <ele>1005.4</ele>
        <time>2015-06-18T11:21:51Z</time>
      </trkpt>
      <trkpt lat="41.77982" lon="9.28156">
        <ele>1005.6</ele>
        <time>2015-06-18T11:21:52Z</time>
      </trkpt>
      <trkpt lat="41.77999" lon="9.28133">
        <ele>1007</ele>
        <time>2015-06-18T11:22:30Z</time>
      </trkpt>
      <trkpt lat="41.78002" lon="9.28131">
        <ele>1008.6</ele>
        <time>2015-06-18T11:22:40Z</time>
      </trkpt>
      <trkpt lat="41.78005" lon="9.28129">
        <ele>1009.4</ele>
        <time>2015-06-18T11:22:48Z</time>
      </trkpt>
      <trkpt lat="41.78009" lon="9.28129">
        <ele>1010.2</ele>
        <time>2015-06-18T11:24:43Z</time>
      </trkpt>
      <trkpt lat="41.78016" lon="9.28126">
        <ele>1009</ele>
        <time>2015-06-18T11:25:00Z</time>
      </trkpt>
      <trkpt lat="41.78016" lon="9.28124">
        <ele>1008.4</ele>
        <time>2015-06-18T11:25:08Z</time>
      </trkpt>
      <trkpt lat="41.7802" lon="9.28124">
        <ele>1007.4</ele>
        <time>2015-06-18T11:25:15Z</time>
      </trkpt>
      <trkpt lat="41.7802" lon="9.28123">
        <ele>1007.4</ele>
        <time>2015-06-18T11:25:16Z</time>
      </trkpt>
      <trkpt lat="41.78019" lon="9.2812">
        <ele>1005.8</ele>
        <time>2015-06-18T11:25:29Z</time>
      </trkpt>
      <trkpt lat="41.78019" lon="9.28116">
        <ele>1005.6</ele>
        <time>2015-06-18T11:25:33Z</time>
      </trkpt>
      <trkpt lat="41.78019" lon="9.28115">
        <ele>1005.6</ele>
        <time>2015-06-18T11:25:35Z</time>
      </trkpt>
      <trkpt lat="41.78018" lon="9.2811">
        <ele>1005.2</ele>
        <time>2015-06-18T11:25:42Z</time>
      </trkpt>
      <trkpt lat="41.78017" lon="9.28104">
        <ele>1004.2</ele>
        <time>2015-06-18T11:25:51Z</time>
      </trkpt>
      <trkpt lat="41.78018" lon="9.28103">
        <ele>1004</ele>
        <time>2015-06-18T11:25:53Z</time>
      </trkpt>
      <trkpt lat="41.78019" lon="9.28103">
        <ele>1004</ele>
        <time>2015-06-18T11:25:55Z</time>
      </trkpt>
      <trkpt lat="41.78029" lon="9.2809">
        <ele>1003.8</ele>
        <time>2015-06-18T11:26:14Z</time>
      </trkpt>
      <trkpt lat="41.78033" lon="9.2809">
        <ele>1004.4</ele>
        <time>2015-06-18T11:26:19Z</time>
      </trkpt>
      <trkpt lat="41.78038" lon="9.28095">
        <ele>1005.8</ele>
        <time>2015-06-18T11:26:27Z</time>
      </trkpt>
      <trkpt lat="41.78042" lon="9.28098">
        <ele>1006.8</ele>
        <time>2015-06-18T11:26:34Z</time>
      </trkpt>
      <trkpt lat="41.78046" lon="9.28098">
        <ele>1008</ele>
        <time>2015-06-18T11:26:42Z</time>
      </trkpt>
      <trkpt lat="41.78049" lon="9.28097">
        <ele>1008.6</ele>
        <time>2015-06-18T11:26:46Z</time>
      </trkpt>
      <trkpt lat="41.7806" lon="9.28102">
        <ele>1010.6</ele>
        <time>2015-06-18T11:26:59Z</time>
      </trkpt>
      <trkpt lat="41.78066" lon="9.28104">
        <ele>1011.4</ele>
        <time>2015-06-18T11:27:09Z</time>
      </trkpt>
      <trkpt lat="41.78067" lon="9.28105">
        <ele>1011.8</ele>
        <time>2015-06-18T11:27:14Z</time>
      </trkpt>
      <trkpt lat="41.78073" lon="9.28108">
        <ele>1013.6</ele>
        <time>2015-06-18T11:27:29Z</time>
      </trkpt>
      <trkpt lat="41.78074" lon="9.28109">
        <ele>1013.6</ele>
        <time>2015-06-18T11:27:42Z</time>
      </trkpt>
      <trkpt lat="41.78074" lon="9.28109">
        <ele>1013.6</ele>
        <time>2015-06-18T11:27:44Z</time>
      </trkpt>
      <trkpt lat="41.78079" lon="9.28113">
        <ele>1012.6</ele>
        <time>2015-06-18T11:27:53Z</time>
      </trkpt>
      <trkpt lat="41.78082" lon="9.28119">
        <ele>1012.2</ele>
        <time>2015-06-18T11:28:02Z</time>
      </trkpt>
      <trkpt lat="41.78083" lon="9.28124">
        <ele>1011.2</ele>
        <time>2015-06-18T11:28:15Z</time>
      </trkpt>
      <trkpt lat="41.78088" lon="9.2813">
        <ele>1009.8</ele>
        <time>2015-06-18T11:28:25Z</time>
      </trkpt>
      <trkpt lat="41.78093" lon="9.2813">
        <ele>1008.4</ele>
        <time>2015-06-18T11:28:46Z</time>
      </trkpt>
      <trkpt lat="41.78094" lon="9.28132">
        <ele>1007.4</ele>
        <time>2015-06-18T11:29:03Z</time>
      </trkpt>
      <trkpt lat="41.78097" lon="9.28136">
        <ele>1007</ele>
        <time>2015-06-18T11:29:11Z</time>
      </trkpt>
      <trkpt lat="41.78104" lon="9.2814">
        <ele>1005.8</ele>
        <time>2015-06-18T11:29:22Z</time>
      </trkpt>
      <trkpt lat="41.78105" lon="9.28147">
        <ele>1004.6</ele>
        <time>2015-06-18T11:29:29Z</time>
      </trkpt>
      <trkpt lat="41.78111" lon="9.28156">
        <ele>1003.6</ele>
        <time>2015-06-18T11:29:36Z</time>
      </trkpt>
      <trkpt lat="41.78113" lon="9.28159">
        <ele>1002.4</ele>
        <time>2015-06-18T11:29:44Z</time>
      </trkpt>
      <trkpt lat="41.78116" lon="9.28155">
        <ele>1001</ele>
        <time>2015-06-18T11:29:51Z</time>
      </trkpt>
      <trkpt lat="41.78123" lon="9.28158">
        <ele>999.6</ele>
        <time>2015-06-18T11:30:04Z</time>
      </trkpt>
      <trkpt lat="41.78126" lon="9.28164">
        <ele>998.4</ele>
        <time>2015-06-18T11:30:15Z</time>
      </trkpt>
      <trkpt lat="41.78129" lon="9.28166">
        <ele>997.8</ele>
        <time>2015-06-18T11:30:23Z</time>
      </trkpt>
      <trkpt lat="41.78131" lon="9.2817">
        <ele>997</ele>
        <time>2015-06-18T11:30:28Z</time>
      </trkpt>
      <trkpt lat="41.78133" lon="9.28175">
        <ele>995.4</ele>
        <time>2015-06-18T11:30:35Z</time>
      </trkpt>
      <trkpt lat="41.78135" lon="9.28179">
        <ele>994.6</ele>
        <time>2015-06-18T11:30:41Z</time>
      </trkpt>
      <trkpt lat="41.78138" lon="9.28182">
        <ele>993.2</ele>
        <time>2015-06-18T11:30:49Z</time>
      </trkpt>
      <trkpt lat="41.78137" lon="9.28176">
        <ele>992.2</ele>
        <time>2015-06-18T11:30:55Z</time>
      </trkpt>
      <trkpt lat="41.78137" lon="9.28171">
        <ele>990.6</ele>
        <time>2015-06-18T11:31:10Z</time>
      </trkpt>
      <trkpt lat="41.7814" lon="9.28165">
        <ele>989.8</ele>
        <time>2015-06-18T11:31:17Z</time>
      </trkpt>
      <trkpt lat="41.78142" lon="9.28158">
        <ele>988.6</ele>
        <time>2015-06-18T11:31:26Z</time>
      </trkpt>
      <trkpt lat="41.78147" lon="9.2815">
        <ele>987.6</ele>
        <time>2015-06-18T11:31:40Z</time>
      </trkpt>
      <trkpt lat="41.7815" lon="9.28144">
        <ele>986.4</ele>
        <time>2015-06-18T11:31:48Z</time>
      </trkpt>
      <trkpt lat="41.78151" lon="9.2814">
        <ele>985.6</ele>
        <time>2015-06-18T11:31:55Z</time>
      </trkpt>
      <trkpt lat="41.78154" lon="9.2814">
        <ele>984.6</ele>
        <time>2015-06-18T11:32:01Z</time>
      </trkpt>
      <trkpt lat="41.78156" lon="9.28144">
        <ele>983.4</ele>
        <time>2015-06-18T11:32:08Z</time>
      </trkpt>
      <trkpt lat="41.7816" lon="9.28146">
        <ele>982.2</ele>
        <time>2015-06-18T11:32:15Z</time>
      </trkpt>
      <trkpt lat="41.78164" lon="9.28149">
        <ele>980.8</ele>
        <time>2015-06-18T11:32:23Z</time>
      </trkpt>
      <trkpt lat="41.78164" lon="9.28152">
        <ele>979.2</ele>
        <time>2015-06-18T11:32:35Z</time>
      </trkpt>
      <trkpt lat="41.78164" lon="9.28153">
        <ele>978.4</ele>
        <time>2015-06-18T11:32:45Z</time>
      </trkpt>
      <trkpt lat="41.78165" lon="9.28154">
        <ele>977.6</ele>
        <time>2015-06-18T11:32:51Z</time>
      </trkpt>
      <trkpt lat="41.78165" lon="9.28157">
        <ele>976.4</ele>
        <time>2015-06-18T11:32:58Z</time>
      </trkpt>
      <trkpt lat="41.78167" lon="9.28164">
        <ele>975.2</ele>
        <time>2015-06-18T11:33:09Z</time>
      </trkpt>
      <trkpt lat="41.78168" lon="9.28166">
        <ele>974.6</ele>
        <time>2015-06-18T11:33:14Z</time>
      </trkpt>
      <trkpt lat="41.78172" lon="9.28166">
        <ele>973</ele>
        <time>2015-06-18T11:33:22Z</time>
      </trkpt>
      <trkpt lat="41.78173" lon="9.28165">
        <ele>972.8</ele>
        <time>2015-06-18T11:33:24Z</time>
      </trkpt>
      <trkpt lat="41.78173" lon="9.28161">
        <ele>971.8</ele>
        <time>2015-06-18T11:33:31Z</time>
      </trkpt>
      <trkpt lat="41.78175" lon="9.28157">
        <ele>970.6</ele>
        <time>2015-06-18T11:33:39Z</time>
      </trkpt>
      <trkpt lat="41.78175" lon="9.28152">
        <ele>969.6</ele>
        <time>2015-06-18T11:33:46Z</time>
      </trkpt>
      <trkpt lat="41.78176" lon="9.2815">
        <ele>968.6</ele>
        <time>2015-06-18T11:33:54Z</time>
      </trkpt>
      <trkpt lat="41.78179" lon="9.28145">
        <ele>967</ele>
        <time>2015-06-18T11:34:03Z</time>
      </trkpt>
      <trkpt lat="41.7818" lon="9.28142">
        <ele>966.2</ele>
        <time>2015-06-18T11:34:11Z</time>
      </trkpt>
      <trkpt lat="41.78185" lon="9.28142">
        <ele>965</ele>
        <time>2015-06-18T11:34:21Z</time>
      </trkpt>
      <trkpt lat="41.78186" lon="9.28147">
        <ele>964.2</ele>
        <time>2015-06-18T11:34:28Z</time>
      </trkpt>
      <trkpt lat="41.78189" lon="9.28148">
        <ele>963</ele>
        <time>2015-06-18T11:34:34Z</time>
      </trkpt>
      <trkpt lat="41.7819" lon="9.28152">
        <ele>961.6</ele>
        <time>2015-06-18T11:34:44Z</time>
      </trkpt>
      <trkpt lat="41.78191" lon="9.28156">
        <ele>960.6</ele>
        <time>2015-06-18T11:34:53Z</time>
      </trkpt>
      <trkpt lat="41.78196" lon="9.28159">
        <ele>959.4</ele>
        <time>2015-06-18T11:35:02Z</time>
      </trkpt>
      <trkpt lat="41.78197" lon="9.28161">
        <ele>958</ele>
        <time>2015-06-18T11:35:11Z</time>
      </trkpt>
      <trkpt lat="41.78196" lon="9.28158">
        <ele>957</ele>
        <time>2015-06-18T11:35:20Z</time>
      </trkpt>
      <trkpt lat="41.78197" lon="9.28155">
        <ele>956.2</ele>
        <time>2015-06-18T11:35:28Z</time>
      </trkpt>
      <trkpt lat="41.78199" lon="9.2816">
        <ele>954.8</ele>
        <time>2015-06-18T11:35:39Z</time>
      </trkpt>
      <trkpt lat="41.782" lon="9.28161">
        <ele>953.6</ele>
        <time>2015-06-18T11:35:47Z</time>
      </trkpt>
      <trkpt lat="41.78202" lon="9.28159">
        <ele>952.6</ele>
        <time>2015-06-18T11:35:55Z</time>
      </trkpt>
      <trkpt lat="41.78204" lon="9.28159">
        <ele>951.8</ele>
        <time>2015-06-18T11:36:00Z</time>
      </trkpt>
      <trkpt lat="41.78204" lon="9.28162">
        <ele>950.4</ele>
        <time>2015-06-18T11:36:08Z</time>
      </trkpt>
      <trkpt lat="41.78207" lon="9.28162">
        <ele>948.8</ele>
        <time>2015-06-18T11:36:21Z</time>
      </trkpt>
      <trkpt lat="41.78207" lon="9.28159">
        <ele>948</ele>
        <time>2015-06-18T11:36:28Z</time>
      </trkpt>
      <trkpt lat="41.78207" lon="9.28155">
        <ele>947</ele>
        <time>2015-06-18T11:36:35Z</time>
      </trkpt>
      <trkpt lat="41.78208" lon="9.28152">
        <ele>946.2</ele>
        <time>2015-06-18T11:36:41Z</time>
      </trkpt>
      <trkpt lat="41.7821" lon="9.28153">
        <ele>945</ele>
        <time>2015-06-18T11:36:46Z</time>
      </trkpt>
      <trkpt lat="41.78211" lon="9.28156">
        <ele>943.2</ele>
        <time>2015-06-18T11:36:56Z</time>
      </trkpt>
      <trkpt lat="41.78214" lon="9.28152">
        <ele>942.4</ele>
        <time>2015-06-18T11:37:03Z</time>
      </trkpt>
      <trkpt lat="41.78215" lon="9.28148">
        <ele>941.2</ele>
        <time>2015-06-18T11:37:10Z</time>
      </trkpt>
      <trkpt lat="41.78218" lon="9.28145">
        <ele>940.2</ele>
        <time>2015-06-18T11:37:16Z</time>
      </trkpt>
      <trkpt lat="41.7822" lon="9.28141">
        <ele>938.6</ele>
        <time>2015-06-18T11:37:25Z</time>
      </trkpt>
      <trkpt lat="41.78222" lon="9.28139">
        <ele>937.6</ele>
        <time>2015-06-18T11:37:33Z</time>
      </trkpt>
      <trkpt lat="41.78226" lon="9.28138">
        <ele>936.4</ele>
        <time>2015-06-18T11:37:42Z</time>
      </trkpt>
      <trkpt lat="41.78229" lon="9.28138">
        <ele>935.4</ele>
        <time>2015-06-18T11:37:49Z</time>
      </trkpt>
      <trkpt lat="41.78244" lon="9.2814">
        <ele>934</ele>
        <time>2015-06-18T11:38:10Z</time>
      </trkpt>
      <trkpt lat="41.78248" lon="9.28145">
        <ele>932.8</ele>
        <time>2015-06-18T11:38:18Z</time>
      </trkpt>
      <trkpt lat="41.7825" lon="9.28147">
        <ele>932</ele>
        <time>2015-06-18T11:38:23Z</time>
      </trkpt>
      <trkpt lat="41.78252" lon="9.28147">
        <ele>931.2</ele>
        <time>2015-06-18T11:38:27Z</time>
      </trkpt>
      <trkpt lat="41.78255" lon="9.28149">
        <ele>929.2</ele>
        <time>2015-06-18T11:38:34Z</time>
      </trkpt>
      <trkpt lat="41.78256" lon="9.28149">
        <ele>929</ele>
        <time>2015-06-18T11:38:36Z</time>
      </trkpt>
      <trkpt lat="41.78259" lon="9.2815">
        <ele>928.2</ele>
        <time>2015-06-18T11:38:41Z</time>
      </trkpt>
      <trkpt lat="41.78263" lon="9.28149">
        <ele>926.8</ele>
        <time>2015-06-18T11:38:49Z</time>
      </trkpt>
      <trkpt lat="41.78266" lon="9.28151">
        <ele>926</ele>
        <time>2015-06-18T11:38:54Z</time>
      </trkpt>
      <trkpt lat="41.78266" lon="9.28152">
        <ele>925.6</ele>
        <time>2015-06-18T11:38:56Z</time>
      </trkpt>
      <trkpt lat="41.78268" lon="9.2815">
        <ele>925</ele>
        <time>2015-06-18T11:38:59Z</time>
      </trkpt>
      <trkpt lat="41.78268" lon="9.2815">
        <ele>923.4</ele>
        <time>2015-06-18T11:39:05Z</time>
      </trkpt>
      <trkpt lat="41.7827" lon="9.28149">
        <ele>922.4</ele>
        <time>2015-06-18T11:39:11Z</time>
      </trkpt>
      <trkpt lat="41.7827" lon="9.28151">
        <ele>921</ele>
        <time>2015-06-18T11:39:18Z</time>
      </trkpt>
      <trkpt lat="41.7827" lon="9.28149">
        <ele>919.8</ele>
        <time>2015-06-18T11:39:25Z</time>
      </trkpt>
      <trkpt lat="41.78275" lon="9.28146">
        <ele>919</ele>
        <time>2015-06-18T11:39:31Z</time>
      </trkpt>
      <trkpt lat="41.7828" lon="9.28143">
        <ele>918</ele>
        <time>2015-06-18T11:39:36Z</time>
      </trkpt>
      <trkpt lat="41.78281" lon="9.28142">
        <ele>917.8</ele>
        <time>2015-06-18T11:39:37Z</time>
      </trkpt>
      <trkpt lat="41.78283" lon="9.2814">
        <ele>916.2</ele>
        <time>2015-06-18T11:39:45Z</time>
      </trkpt>
      <trkpt lat="41.78284" lon="9.28142">
        <ele>915.8</ele>
        <time>2015-06-18T11:39:49Z</time>
      </trkpt>
      <trkpt lat="41.78284" lon="9.28142">
        <ele>915.4</ele>
        <time>2015-06-18T11:39:51Z</time>
      </trkpt>
      <trkpt lat="41.78288" lon="9.28142">
        <ele>914.4</ele>
        <time>2015-06-18T11:39:56Z</time>
      </trkpt>
      <trkpt lat="41.78291" lon="9.2814">
        <ele>912.8</ele>
        <time>2015-06-18T11:40:03Z</time>
      </trkpt>
      <trkpt lat="41.78292" lon="9.28142">
        <ele>912</ele>
        <time>2015-06-18T11:40:09Z</time>
      </trkpt>
      <trkpt lat="41.78294" lon="9.28142">
        <ele>910.8</ele>
        <time>2015-06-18T11:40:14Z</time>
      </trkpt>
      <trkpt lat="41.78295" lon="9.28142">
        <ele>909.6</ele>
        <time>2015-06-18T11:40:19Z</time>
      </trkpt>
      <trkpt lat="41.78297" lon="9.28144">
        <ele>908.2</ele>
        <time>2015-06-18T11:40:24Z</time>
      </trkpt>
      <trkpt lat="41.783" lon="9.28144">
        <ele>907.6</ele>
        <time>2015-06-18T11:40:28Z</time>
      </trkpt>
      <trkpt lat="41.78303" lon="9.28144">
        <ele>907</ele>
        <time>2015-06-18T11:40:30Z</time>
      </trkpt>
      <trkpt lat="41.78305" lon="9.28145">
        <ele>906.4</ele>
        <time>2015-06-18T11:40:33Z</time>
      </trkpt>
      <trkpt lat="41.78312" lon="9.28143">
        <ele>905.6</ele>
        <time>2015-06-18T11:40:37Z</time>
      </trkpt>
      <trkpt lat="41.78312" lon="9.28143">
        <ele>905.4</ele>
        <time>2015-06-18T11:40:38Z</time>
      </trkpt>
      <trkpt lat="41.7832" lon="9.2814">
        <ele>904.4</ele>
        <time>2015-06-18T11:40:48Z</time>
      </trkpt>
      <trkpt lat="41.78323" lon="9.28135">
        <ele>902.8</ele>
        <time>2015-06-18T11:40:58Z</time>
      </trkpt>
      <trkpt lat="41.78326" lon="9.28137">
        <ele>901.6</ele>
        <time>2015-06-18T11:41:11Z</time>
      </trkpt>
      <trkpt lat="41.78332" lon="9.28136">
        <ele>900.2</ele>
        <time>2015-06-18T11:41:28Z</time>
      </trkpt>
      <trkpt lat="41.78336" lon="9.28136">
        <ele>899.2</ele>
        <time>2015-06-18T11:41:38Z</time>
      </trkpt>
      <trkpt lat="41.78344" lon="9.28135">
        <ele>897.6</ele>
        <time>2015-06-18T11:42:00Z</time>
      </trkpt>
      <trkpt lat="41.78348" lon="9.28134">
        <ele>897</ele>
        <time>2015-06-18T11:42:06Z</time>
      </trkpt>
      <trkpt lat="41.78349" lon="9.28134">
        <ele>896.6</ele>
        <time>2015-06-18T11:42:08Z</time>
      </trkpt>
      <trkpt lat="41.78351" lon="9.28135">
        <ele>896.2</ele>
        <time>2015-06-18T11:42:11Z</time>
      </trkpt>
      <trkpt lat="41.78354" lon="9.28133">
        <ele>893.6</ele>
        <time>2015-06-18T11:42:21Z</time>
      </trkpt>
      <trkpt lat="41.78356" lon="9.28133">
        <ele>893</ele>
        <time>2015-06-18T11:42:28Z</time>
      </trkpt>
      <trkpt lat="41.78362" lon="9.28134">
        <ele>892</ele>
        <time>2015-06-18T11:42:39Z</time>
      </trkpt>
      <trkpt lat="41.78368" lon="9.28137">
        <ele>890.4</ele>
        <time>2015-06-18T11:42:47Z</time>
      </trkpt>
      <trkpt lat="41.78373" lon="9.28139">
        <ele>889.4</ele>
        <time>2015-06-18T11:42:56Z</time>
      </trkpt>
      <trkpt lat="41.78378" lon="9.28138">
        <ele>888.2</ele>
        <time>2015-06-18T11:43:04Z</time>
      </trkpt>
      <trkpt lat="41.78381" lon="9.28144">
        <ele>887</ele>
        <time>2015-06-18T11:43:12Z</time>
      </trkpt>
      <trkpt lat="41.7838" lon="9.28147">
        <ele>886.8</ele>
        <time>2015-06-18T11:43:14Z</time>
      </trkpt>
      <trkpt lat="41.78379" lon="9.28148">
        <ele>886</ele>
        <time>2015-06-18T11:43:19Z</time>
      </trkpt>
      <trkpt lat="41.78378" lon="9.28147">
        <ele>885</ele>
        <time>2015-06-18T11:43:25Z</time>
      </trkpt>
      <trkpt lat="41.78379" lon="9.28146">
        <ele>883.6</ele>
        <time>2015-06-18T11:43:32Z</time>
      </trkpt>
      <trkpt lat="41.78383" lon="9.28147">
        <ele>882.4</ele>
        <time>2015-06-18T11:43:39Z</time>
      </trkpt>
      <trkpt lat="41.78384" lon="9.28145">
        <ele>881.4</ele>
        <time>2015-06-18T11:43:45Z</time>
      </trkpt>
      <trkpt lat="41.78392" lon="9.28142">
        <ele>879.6</ele>
        <time>2015-06-18T11:43:55Z</time>
      </trkpt>
      <trkpt lat="41.78397" lon="9.28137">
        <ele>878.2</ele>
        <time>2015-06-18T11:44:07Z</time>
      </trkpt>
      <trkpt lat="41.78399" lon="9.28141">
        <ele>877.8</ele>
        <time>2015-06-18T11:44:11Z</time>
      </trkpt>
      <trkpt lat="41.78399" lon="9.28143">
        <ele>877.6</ele>
        <time>2015-06-18T11:44:13Z</time>
      </trkpt>
      <trkpt lat="41.784" lon="9.28144">
        <ele>877.2</ele>
        <time>2015-06-18T11:44:15Z</time>
      </trkpt>
      <trkpt lat="41.78399" lon="9.28153">
        <ele>876.2</ele>
        <time>2015-06-18T11:44:23Z</time>
      </trkpt>
      <trkpt lat="41.784" lon="9.28156">
        <ele>875.4</ele>
        <time>2015-06-18T11:44:28Z</time>
      </trkpt>
      <trkpt lat="41.784" lon="9.28162">
        <ele>874.2</ele>
        <time>2015-06-18T11:44:34Z</time>
      </trkpt>
      <trkpt lat="41.78398" lon="9.28162">
        <ele>872</ele>
        <time>2015-06-18T11:44:49Z</time>
      </trkpt>
      <trkpt lat="41.784" lon="9.28161">
        <ele>871.6</ele>
        <time>2015-06-18T11:44:54Z</time>
      </trkpt>
      <trkpt lat="41.78403" lon="9.28158">
        <ele>870.2</ele>
        <time>2015-06-18T11:45:01Z</time>
      </trkpt>
      <trkpt lat="41.78404" lon="9.28154">
        <ele>868.8</ele>
        <time>2015-06-18T11:45:08Z</time>
      </trkpt>
      <trkpt lat="41.78408" lon="9.28149">
        <ele>867.8</ele>
        <time>2015-06-18T11:45:14Z</time>
      </trkpt>
      <trkpt lat="41.78411" lon="9.28144">
        <ele>866.2</ele>
        <time>2015-06-18T11:45:23Z</time>
      </trkpt>
      <trkpt lat="41.78415" lon="9.2814">
        <ele>865.4</ele>
        <time>2015-06-18T11:45:31Z</time>
      </trkpt>
      <trkpt lat="41.78417" lon="9.2814">
        <ele>865.2</ele>
        <time>2015-06-18T11:45:33Z</time>
      </trkpt>
      <trkpt lat="41.78419" lon="9.28138">
        <ele>864</ele>
        <time>2015-06-18T11:45:39Z</time>
      </trkpt>
      <trkpt lat="41.78426" lon="9.28138">
        <ele>862.2</ele>
        <time>2015-06-18T11:45:55Z</time>
      </trkpt>
      <trkpt lat="41.78431" lon="9.2814">
        <ele>861.8</ele>
        <time>2015-06-18T11:45:59Z</time>
      </trkpt>
      <trkpt lat="41.78434" lon="9.28141">
        <ele>861.6</ele>
        <time>2015-06-18T11:46:05Z</time>
      </trkpt>
      <trkpt lat="41.78441" lon="9.2814">
        <ele>861</ele>
        <time>2015-06-18T11:46:16Z</time>
      </trkpt>
      <trkpt lat="41.78447" lon="9.28147">
        <ele>860.8</ele>
        <time>2015-06-18T11:46:33Z</time>
      </trkpt>
      <trkpt lat="41.78449" lon="9.2815">
        <ele>860.2</ele>
        <time>2015-06-18T11:46:39Z</time>
      </trkpt>
      <trkpt lat="41.78452" lon="9.28152">
        <ele>859</ele>
        <time>2015-06-18T11:46:45Z</time>
      </trkpt>
      <trkpt lat="41.78455" lon="9.28153">
        <ele>857.8</ele>
        <time>2015-06-18T11:46:52Z</time>
      </trkpt>
      <trkpt lat="41.78457" lon="9.28155">
        <ele>857</ele>
        <time>2015-06-18T11:46:57Z</time>
      </trkpt>
      <trkpt lat="41.78458" lon="9.28155">
        <ele>856.6</ele>
        <time>2015-06-18T11:46:59Z</time>
      </trkpt>
      <trkpt lat="41.78464" lon="9.28155">
        <ele>855</ele>
        <time>2015-06-18T11:47:06Z</time>
      </trkpt>
      <trkpt lat="41.78468" lon="9.28156">
        <ele>854.2</ele>
        <time>2015-06-18T11:47:13Z</time>
      </trkpt>
      <trkpt lat="41.78471" lon="9.28155">
        <ele>853</ele>
        <time>2015-06-18T11:47:20Z</time>
      </trkpt>
      <trkpt lat="41.78475" lon="9.28152">
        <ele>851.8</ele>
        <time>2015-06-18T11:47:27Z</time>
      </trkpt>
      <trkpt lat="41.7848" lon="9.28146">
        <ele>850.8</ele>
        <time>2015-06-18T11:47:34Z</time>
      </trkpt>
      <trkpt lat="41.78483" lon="9.28147">
        <ele>850.6</ele>
        <time>2015-06-18T11:47:37Z</time>
      </trkpt>
      <trkpt lat="41.78491" lon="9.28146">
        <ele>850.2</ele>
        <time>2015-06-18T11:47:47Z</time>
      </trkpt>
      <trkpt lat="41.78495" lon="9.28146">
        <ele>850.2</ele>
        <time>2015-06-18T11:47:50Z</time>
      </trkpt>
      <trkpt lat="41.78499" lon="9.28142">
        <ele>850.2</ele>
        <time>2015-06-18T11:47:58Z</time>
      </trkpt>
      <trkpt lat="41.78506" lon="9.28142">
        <ele>851.2</ele>
        <time>2015-06-18T11:48:12Z</time>
      </trkpt>
      <trkpt lat="41.78514" lon="9.28138">
        <ele>851.2</ele>
        <time>2015-06-18T11:48:23Z</time>
      </trkpt>
      <trkpt lat="41.78515" lon="9.28138">
        <ele>851.2</ele>
        <time>2015-06-18T11:48:25Z</time>
      </trkpt>
      <trkpt lat="41.78527" lon="9.28138">
        <ele>850.6</ele>
        <time>2015-06-18T11:48:40Z</time>
      </trkpt>
      <trkpt lat="41.78529" lon="9.28136">
        <ele>850.4</ele>
        <time>2015-06-18T11:48:43Z</time>
      </trkpt>
      <trkpt lat="41.78535" lon="9.28133">
        <ele>850.2</ele>
        <time>2015-06-18T11:48:49Z</time>
      </trkpt>
      <trkpt lat="41.7854" lon="9.28132">
        <ele>850.2</ele>
        <time>2015-06-18T11:48:54Z</time>
      </trkpt>
      <trkpt lat="41.78542" lon="9.28131">
        <ele>850.4</ele>
        <time>2015-06-18T11:48:57Z</time>
      </trkpt>
      <trkpt lat="41.78543" lon="9.28131">
        <ele>850.8</ele>
        <time>2015-06-18T11:49:01Z</time>
      </trkpt>
      <trkpt lat="41.78555" lon="9.28132">
        <ele>851.2</ele>
        <time>2015-06-18T11:49:16Z</time>
      </trkpt>
      <trkpt lat="41.7858" lon="9.2813">
        <ele>851.2</ele>
        <time>2015-06-18T11:49:45Z</time>
      </trkpt>
      <trkpt lat="41.78586" lon="9.28131">
        <ele>850.4</ele>
        <time>2015-06-18T11:49:52Z</time>
      </trkpt>
      <trkpt lat="41.78587" lon="9.2813">
        <ele>850.2</ele>
        <time>2015-06-18T11:49:53Z</time>
      </trkpt>
      <trkpt lat="41.78604" lon="9.28126">
        <ele>849.2</ele>
        <time>2015-06-18T11:50:10Z</time>
      </trkpt>
      <trkpt lat="41.78611" lon="9.28126">
        <ele>848.4</ele>
        <time>2015-06-18T11:50:17Z</time>
      </trkpt>
      <trkpt lat="41.78625" lon="9.28126">
        <ele>847</ele>
        <time>2015-06-18T11:50:30Z</time>
      </trkpt>
      <trkpt lat="41.78627" lon="9.28125">
        <ele>846.8</ele>
        <time>2015-06-18T11:50:34Z</time>
      </trkpt>
      <trkpt lat="41.78643" lon="9.28123">
        <ele>845</ele>
        <time>2015-06-18T11:50:52Z</time>
      </trkpt>
      <trkpt lat="41.78665" lon="9.28119">
        <ele>846.8</ele>
        <time>2015-06-18T11:51:25Z</time>
      </trkpt>
      <trkpt lat="41.7868" lon="9.28128">
        <ele>847.2</ele>
        <time>2015-06-18T11:51:49Z</time>
      </trkpt>
      <trkpt lat="41.78693" lon="9.28141">
        <ele>848.4</ele>
        <time>2015-06-18T11:52:08Z</time>
      </trkpt>
      <trkpt lat="41.78704" lon="9.28144">
        <ele>849.4</ele>
        <time>2015-06-18T11:52:23Z</time>
      </trkpt>
      <trkpt lat="41.78723" lon="9.28153">
        <ele>851</ele>
        <time>2015-06-18T11:52:46Z</time>
      </trkpt>
      <trkpt lat="41.7876" lon="9.28154">
        <ele>851.4</ele>
        <time>2015-06-18T11:53:27Z</time>
      </trkpt>
      <trkpt lat="41.78777" lon="9.28155">
        <ele>851.6</ele>
        <time>2015-06-18T11:53:50Z</time>
      </trkpt>
      <trkpt lat="41.78781" lon="9.28153">
        <ele>852.6</ele>
        <time>2015-06-18T11:53:58Z</time>
      </trkpt>
      <trkpt lat="41.78789" lon="9.28152">
        <ele>854.2</ele>
        <time>2015-06-18T11:54:10Z</time>
      </trkpt>
      <trkpt lat="41.78794" lon="9.28152">
        <ele>855.2</ele>
        <time>2015-06-18T11:54:21Z</time>
      </trkpt>
      <trkpt lat="41.78804" lon="9.28151">
        <ele>856.8</ele>
        <time>2015-06-18T11:54:36Z</time>
      </trkpt>
      <trkpt lat="41.78811" lon="9.28149">
        <ele>857.6</ele>
        <time>2015-06-18T11:54:45Z</time>
      </trkpt>
      <trkpt lat="41.78814" lon="9.28148">
        <ele>858</ele>
        <time>2015-06-18T11:54:53Z</time>
      </trkpt>
      <trkpt lat="41.78818" lon="9.28146">
        <ele>859</ele>
        <time>2015-06-18T11:55:03Z</time>
      </trkpt>
      <trkpt lat="41.78824" lon="9.28145">
        <ele>860</ele>
        <time>2015-06-18T11:55:12Z</time>
      </trkpt>
      <trkpt lat="41.78838" lon="9.28145">
        <ele>861.8</ele>
        <time>2015-06-18T11:55:35Z</time>
      </trkpt>
      <trkpt lat="41.78848" lon="9.28145">
        <ele>862.8</ele>
        <time>2015-06-18T11:55:50Z</time>
      </trkpt>
      <trkpt lat="41.78854" lon="9.28143">
        <ele>863.8</ele>
        <time>2015-06-18T11:55:59Z</time>
      </trkpt>
      <trkpt lat="41.7886" lon="9.28142">
        <ele>864.8</ele>
        <time>2015-06-18T11:56:10Z</time>
      </trkpt>
      <trkpt lat="41.7886" lon="9.28142">
        <ele>865</ele>
        <time>2015-06-18T11:56:11Z</time>
      </trkpt>
      <trkpt lat="41.78872" lon="9.28145">
        <ele>866.4</ele>
        <time>2015-06-18T11:56:30Z</time>
      </trkpt>
      <trkpt lat="41.78882" lon="9.28145">
        <ele>866.8</ele>
        <time>2015-06-18T11:56:39Z</time>
      </trkpt>
      <trkpt lat="41.78899" lon="9.28148">
        <ele>867.2</ele>
        <time>2015-06-18T11:57:02Z</time>
      </trkpt>
      <trkpt lat="41.78905" lon="9.28148">
        <ele>866.4</ele>
        <time>2015-06-18T11:57:08Z</time>
      </trkpt>
      <trkpt lat="41.78907" lon="9.28146">
        <ele>866.2</ele>
        <time>2015-06-18T11:57:12Z</time>
      </trkpt>
      <trkpt lat="41.7891" lon="9.28144">
        <ele>866.4</ele>
        <time>2015-06-18T11:57:19Z</time>
      </trkpt>
      <trkpt lat="41.78915" lon="9.28141">
        <ele>867.8</ele>
        <time>2015-06-18T11:57:26Z</time>
      </trkpt>
      <trkpt lat="41.78926" lon="9.28136">
        <ele>868.4</ele>
        <time>2015-06-18T11:57:43Z</time>
      </trkpt>
      <trkpt lat="41.78927" lon="9.28136">
        <ele>868.6</ele>
        <time>2015-06-18T11:57:44Z</time>
      </trkpt>
      <trkpt lat="41.78934" lon="9.28135">
        <ele>869.4</ele>
        <time>2015-06-18T11:57:54Z</time>
      </trkpt>
      <trkpt lat="41.7894" lon="9.28134">
        <ele>870.2</ele>
        <time>2015-06-18T11:58:02Z</time>
      </trkpt>
      <trkpt lat="41.78944" lon="9.28133">
        <ele>871</ele>
        <time>2015-06-18T11:58:08Z</time>
      </trkpt>
      <trkpt lat="41.78952" lon="9.28131">
        <ele>871.8</ele>
        <time>2015-06-18T11:58:20Z</time>
      </trkpt>
      <trkpt lat="41.78961" lon="9.28129">
        <ele>872.8</ele>
        <time>2015-06-18T11:58:32Z</time>
      </trkpt>
      <trkpt lat="41.78965" lon="9.28128">
        <ele>873.4</ele>
        <time>2015-06-18T11:58:38Z</time>
      </trkpt>
      <trkpt lat="41.78972" lon="9.28125">
        <ele>874</ele>
        <time>2015-06-18T11:58:49Z</time>
      </trkpt>
      <trkpt lat="41.78979" lon="9.28123">
        <ele>875.2</ele>
        <time>2015-06-18T11:59:00Z</time>
      </trkpt>
      <trkpt lat="41.78986" lon="9.28118">
        <ele>876.4</ele>
        <time>2015-06-18T11:59:10Z</time>
      </trkpt>
      <trkpt lat="41.78988" lon="9.28115">
        <ele>877</ele>
        <time>2015-06-18T11:59:16Z</time>
      </trkpt>
      <trkpt lat="41.78991" lon="9.28114">
        <ele>878.4</ele>
        <time>2015-06-18T11:59:23Z</time>
      </trkpt>
      <trkpt lat="41.79009" lon="9.28107">
        <ele>880.4</ele>
        <time>2015-06-18T11:59:52Z</time>
      </trkpt>
      <trkpt lat="41.79016" lon="9.28099">
        <ele>881.4</ele>
        <time>2015-06-18T12:00:05Z</time>
      </trkpt>
      <trkpt lat="41.79019" lon="9.28089">
        <ele>882.2</ele>
        <time>2015-06-18T12:00:15Z</time>
      </trkpt>
      <trkpt lat="41.79025" lon="9.28076">
        <ele>883.8</ele>
        <time>2015-06-18T12:00:31Z</time>
      </trkpt>
      <trkpt lat="41.79029" lon="9.28066">
        <ele>885</ele>
        <time>2015-06-18T12:00:43Z</time>
      </trkpt>
      <trkpt lat="41.79029" lon="9.28055">
        <ele>886</ele>
        <time>2015-06-18T12:00:54Z</time>
      </trkpt>
      <trkpt lat="41.79029" lon="9.28048">
        <ele>887</ele>
        <time>2015-06-18T12:01:02Z</time>
      </trkpt>
      <trkpt lat="41.79035" lon="9.28035">
        <ele>888.6</ele>
        <time>2015-06-18T12:01:17Z</time>
      </trkpt>
      <trkpt lat="41.79049" lon="9.27981">
        <ele>889.2</ele>
        <time>2015-06-18T12:02:05Z</time>
      </trkpt>
      <trkpt lat="41.79049" lon="9.27973">
        <ele>889.2</ele>
        <time>2015-06-18T12:02:11Z</time>
      </trkpt>
      <trkpt lat="41.7905" lon="9.27956">
        <ele>888.2</ele>
        <time>2015-06-18T12:02:25Z</time>
      </trkpt>
      <trkpt lat="41.79049" lon="9.27944">
        <ele>887.6</ele>
        <time>2015-06-18T12:02:35Z</time>
      </trkpt>
      <trkpt lat="41.79047" lon="9.27934">
        <ele>886.4</ele>
        <time>2015-06-18T12:02:47Z</time>
      </trkpt>
      <trkpt lat="41.79042" lon="9.27914">
        <ele>885.8</ele>
        <time>2015-06-18T12:03:05Z</time>
      </trkpt>
      <trkpt lat="41.79036" lon="9.27897">
        <ele>885</ele>
        <time>2015-06-18T12:03:21Z</time>
      </trkpt>
      <trkpt lat="41.7903" lon="9.27875">
        <ele>884</ele>
        <time>2015-06-18T12:03:40Z</time>
      </trkpt>
      <trkpt lat="41.79021" lon="9.27843">
        <ele>883.4</ele>
        <time>2015-06-18T12:04:05Z</time>
      </trkpt>
      <trkpt lat="41.79009" lon="9.27833">
        <ele>882.8</ele>
        <time>2015-06-18T12:04:18Z</time>
      </trkpt>
      <trkpt lat="41.79006" lon="9.27826">
        <ele>882</ele>
        <time>2015-06-18T12:04:25Z</time>
      </trkpt>
      <trkpt lat="41.78999" lon="9.27812">
        <ele>881</ele>
        <time>2015-06-18T12:04:39Z</time>
      </trkpt>
      <trkpt lat="41.78991" lon="9.2778">
        <ele>880.8</ele>
        <time>2015-06-18T12:05:16Z</time>
      </trkpt>
      <trkpt lat="41.78976" lon="9.27774">
        <ele>880.6</ele>
        <time>2015-06-18T12:05:31Z</time>
      </trkpt>
      <trkpt lat="41.78973" lon="9.27774">
        <ele>880.2</ele>
        <time>2015-06-18T12:05:34Z</time>
      </trkpt>
      <trkpt lat="41.78958" lon="9.27765">
        <ele>880.4</ele>
        <time>2015-06-18T12:05:53Z</time>
      </trkpt>
      <trkpt lat="41.78951" lon="9.27765">
        <ele>881.6</ele>
        <time>2015-06-18T12:06:01Z</time>
      </trkpt>
      <trkpt lat="41.78935" lon="9.27757">
        <ele>882.4</ele>
        <time>2015-06-18T12:06:22Z</time>
      </trkpt>
      <trkpt lat="41.78928" lon="9.27751">
        <ele>883.2</ele>
        <time>2015-06-18T12:06:32Z</time>
      </trkpt>
      <trkpt lat="41.78914" lon="9.2774">
        <ele>885</ele>
        <time>2015-06-18T12:06:53Z</time>
      </trkpt>
      <trkpt lat="41.78892" lon="9.27708">
        <ele>886.4</ele>
        <time>2015-06-18T12:07:36Z</time>
      </trkpt>
      <trkpt lat="41.78883" lon="9.27688">
        <ele>886.4</ele>
        <time>2015-06-18T12:07:57Z</time>
      </trkpt>
      <trkpt lat="41.78876" lon="9.27679">
        <ele>887</ele>
        <time>2015-06-18T12:08:08Z</time>
      </trkpt>
      <trkpt lat="41.78871" lon="9.2767">
        <ele>888</ele>
        <time>2015-06-18T12:08:18Z</time>
      </trkpt>
      <trkpt lat="41.78871" lon="9.27669">
        <ele>888</ele>
        <time>2015-06-18T12:08:19Z</time>
      </trkpt>
      <trkpt lat="41.78878" lon="9.27646">
        <ele>888.8</ele>
        <time>2015-06-18T12:08:41Z</time>
      </trkpt>
      <trkpt lat="41.78878" lon="9.27645">
        <ele>889</ele>
        <time>2015-06-18T12:08:42Z</time>
      </trkpt>
      <trkpt lat="41.7888" lon="9.27642">
        <ele>889.6</ele>
        <time>2015-06-18T12:08:45Z</time>
      </trkpt>
      <trkpt lat="41.78881" lon="9.27637">
        <ele>890.2</ele>
        <time>2015-06-18T12:08:49Z</time>
      </trkpt>
      <trkpt lat="41.78883" lon="9.27631">
        <ele>890.8</ele>
        <time>2015-06-18T12:08:54Z</time>
      </trkpt>
      <trkpt lat="41.78882" lon="9.27626">
        <ele>891.4</ele>
        <time>2015-06-18T12:08:58Z</time>
      </trkpt>
      <trkpt lat="41.78883" lon="9.27624">
        <ele>891.8</ele>
        <time>2015-06-18T12:09:00Z</time>
      </trkpt>
      <trkpt lat="41.78882" lon="9.27616">
        <ele>892.8</ele>
        <time>2015-06-18T12:09:09Z</time>
      </trkpt>
      <trkpt lat="41.78879" lon="9.27605">
        <ele>894</ele>
        <time>2015-06-18T12:09:21Z</time>
      </trkpt>
      <trkpt lat="41.78876" lon="9.27597">
        <ele>895</ele>
        <time>2015-06-18T12:09:31Z</time>
      </trkpt>
      <trkpt lat="41.78872" lon="9.27579">
        <ele>896.6</ele>
        <time>2015-06-18T12:09:52Z</time>
      </trkpt>
      <trkpt lat="41.78872" lon="9.27574">
        <ele>896.8</ele>
        <time>2015-06-18T12:09:56Z</time>
      </trkpt>
      <trkpt lat="41.78866" lon="9.27561">
        <ele>898</ele>
        <time>2015-06-18T12:10:07Z</time>
      </trkpt>
      <trkpt lat="41.78865" lon="9.2756">
        <ele>898.2</ele>
        <time>2015-06-18T12:10:08Z</time>
      </trkpt>
      <trkpt lat="41.7886" lon="9.2756">
        <ele>898.8</ele>
        <time>2015-06-18T12:10:19Z</time>
      </trkpt>
      <trkpt lat="41.78853" lon="9.27557">
        <ele>900.4</ele>
        <time>2015-06-18T12:10:32Z</time>
      </trkpt>
      <trkpt lat="41.78844" lon="9.27555">
        <ele>901.6</ele>
        <time>2015-06-18T12:10:44Z</time>
      </trkpt>
      <trkpt lat="41.78828" lon="9.27542">
        <ele>903.2</ele>
        <time>2015-06-18T12:11:10Z</time>
      </trkpt>
      <trkpt lat="41.78821" lon="9.27527">
        <ele>904</ele>
        <time>2015-06-18T12:11:25Z</time>
      </trkpt>
      <trkpt lat="41.78821" lon="9.27522">
        <ele>904.6</ele>
        <time>2015-06-18T12:11:30Z</time>
      </trkpt>
      <trkpt lat="41.78819" lon="9.27516">
        <ele>905.2</ele>
        <time>2015-06-18T12:11:38Z</time>
      </trkpt>
      <trkpt lat="41.78815" lon="9.27505">
        <ele>906.4</ele>
        <time>2015-06-18T12:11:48Z</time>
      </trkpt>
      <trkpt lat="41.78815" lon="9.27504">
        <ele>906.6</ele>
        <time>2015-06-18T12:11:50Z</time>
      </trkpt>
      <trkpt lat="41.78812" lon="9.27496">
        <ele>907.8</ele>
        <time>2015-06-18T12:12:02Z</time>
      </trkpt>
      <trkpt lat="41.78811" lon="9.27491">
        <ele>908</ele>
        <time>2015-06-18T12:12:06Z</time>
      </trkpt>
      <trkpt lat="41.78808" lon="9.27483">
        <ele>908.8</ele>
        <time>2015-06-18T12:12:13Z</time>
      </trkpt>
      <trkpt lat="41.78805" lon="9.27474">
        <ele>910</ele>
        <time>2015-06-18T12:12:22Z</time>
      </trkpt>
      <trkpt lat="41.78801" lon="9.27472">
        <ele>911.4</ele>
        <time>2015-06-18T12:12:32Z</time>
      </trkpt>
      <trkpt lat="41.78795" lon="9.27471">
        <ele>912.6</ele>
        <time>2015-06-18T12:12:43Z</time>
      </trkpt>
      <trkpt lat="41.78789" lon="9.27464">
        <ele>914.2</ele>
        <time>2015-06-18T12:12:57Z</time>
      </trkpt>
      <trkpt lat="41.78773" lon="9.27445">
        <ele>915.6</ele>
        <time>2015-06-18T12:13:32Z</time>
      </trkpt>
      <trkpt lat="41.78769" lon="9.2744">
        <ele>915.8</ele>
        <time>2015-06-18T12:13:39Z</time>
      </trkpt>
      <trkpt lat="41.78763" lon="9.27433">
        <ele>916.6</ele>
        <time>2015-06-18T12:13:50Z</time>
      </trkpt>
      <trkpt lat="41.7875" lon="9.27411">
        <ele>918</ele>
        <time>2015-06-18T12:14:14Z</time>
      </trkpt>
      <trkpt lat="41.78733" lon="9.27392">
        <ele>919.6</ele>
        <time>2015-06-18T12:14:45Z</time>
      </trkpt>
      <trkpt lat="41.7873" lon="9.27379">
        <ele>920.4</ele>
        <time>2015-06-18T12:15:00Z</time>
      </trkpt>
      <trkpt lat="41.78728" lon="9.27369">
        <ele>921.6</ele>
        <time>2015-06-18T12:15:13Z</time>
      </trkpt>
      <trkpt lat="41.78725" lon="9.27363">
        <ele>922.4</ele>
        <time>2015-06-18T12:15:21Z</time>
      </trkpt>
      <trkpt lat="41.78722" lon="9.27359">
        <ele>923.6</ele>
        <time>2015-06-18T12:15:32Z</time>
      </trkpt>
      <trkpt lat="41.78718" lon="9.27352">
        <ele>925</ele>
        <time>2015-06-18T12:15:45Z</time>
      </trkpt>
      <trkpt lat="41.78715" lon="9.27339">
        <ele>926.6</ele>
        <time>2015-06-18T12:16:01Z</time>
      </trkpt>
      <trkpt lat="41.78713" lon="9.27331">
        <ele>927.2</ele>
        <time>2015-06-18T12:16:12Z</time>
      </trkpt>
      <trkpt lat="41.78716" lon="9.27315">
        <ele>929</ele>
        <time>2015-06-18T12:16:32Z</time>
      </trkpt>
      <trkpt lat="41.78712" lon="9.27307">
        <ele>929.8</ele>
        <time>2015-06-18T12:16:42Z</time>
      </trkpt>
      <trkpt lat="41.7871" lon="9.27303">
        <ele>930.6</ele>
        <time>2015-06-18T12:16:49Z</time>
      </trkpt>
      <trkpt lat="41.7871" lon="9.27299">
        <ele>932</ele>
        <time>2015-06-18T12:16:59Z</time>
      </trkpt>
      <trkpt lat="41.7871" lon="9.27291">
        <ele>933.4</ele>
        <time>2015-06-18T12:17:10Z</time>
      </trkpt>
      <trkpt lat="41.78714" lon="9.2728">
        <ele>934.4</ele>
        <time>2015-06-18T12:17:26Z</time>
      </trkpt>
      <trkpt lat="41.78714" lon="9.27266">
        <ele>935.6</ele>
        <time>2015-06-18T12:17:39Z</time>
      </trkpt>
      <trkpt lat="41.78714" lon="9.27263">
        <ele>935.8</ele>
        <time>2015-06-18T12:17:44Z</time>
      </trkpt>
      <trkpt lat="41.78714" lon="9.27256">
        <ele>936.6</ele>
        <time>2015-06-18T12:17:55Z</time>
      </trkpt>
      <trkpt lat="41.78714" lon="9.27249">
        <ele>937.8</ele>
        <time>2015-06-18T12:18:03Z</time>
      </trkpt>
      <trkpt lat="41.78711" lon="9.27243">
        <ele>939</ele>
        <time>2015-06-18T12:18:12Z</time>
      </trkpt>
      <trkpt lat="41.78712" lon="9.27237">
        <ele>940</ele>
        <time>2015-06-18T12:18:20Z</time>
      </trkpt>
      <trkpt lat="41.78712" lon="9.27228">
        <ele>941.4</ele>
        <time>2015-06-18T12:18:31Z</time>
      </trkpt>
      <trkpt lat="41.78706" lon="9.27203">
        <ele>943</ele>
        <time>2015-06-18T12:19:13Z</time>
      </trkpt>
      <trkpt lat="41.78704" lon="9.27195">
        <ele>943.8</ele>
        <time>2015-06-18T12:19:22Z</time>
      </trkpt>
      <trkpt lat="41.78703" lon="9.2718">
        <ele>945.2</ele>
        <time>2015-06-18T12:19:37Z</time>
      </trkpt>
      <trkpt lat="41.78701" lon="9.27167">
        <ele>946.2</ele>
        <time>2015-06-18T12:19:50Z</time>
      </trkpt>
      <trkpt lat="41.78697" lon="9.27145">
        <ele>948</ele>
        <time>2015-06-18T12:20:13Z</time>
      </trkpt>
      <trkpt lat="41.78694" lon="9.27136">
        <ele>948.4</ele>
        <time>2015-06-18T12:20:23Z</time>
      </trkpt>
      <trkpt lat="41.78686" lon="9.27118">
        <ele>950.2</ele>
        <time>2015-06-18T12:20:44Z</time>
      </trkpt>
      <trkpt lat="41.78681" lon="9.27105">
        <ele>951.4</ele>
        <time>2015-06-18T12:20:58Z</time>
      </trkpt>
      <trkpt lat="41.78675" lon="9.27067">
        <ele>952.6</ele>
        <time>2015-06-18T12:21:35Z</time>
      </trkpt>
      <trkpt lat="41.78688" lon="9.27023">
        <ele>954.2</ele>
        <time>2015-06-18T12:22:23Z</time>
      </trkpt>
      <trkpt lat="41.78697" lon="9.27008">
        <ele>955</ele>
        <time>2015-06-18T12:22:39Z</time>
      </trkpt>
      <trkpt lat="41.78703" lon="9.27">
        <ele>955.4</ele>
        <time>2015-06-18T12:22:49Z</time>
      </trkpt>
      <trkpt lat="41.78714" lon="9.26984">
        <ele>956.6</ele>
        <time>2015-06-18T12:23:09Z</time>
      </trkpt>
      <trkpt lat="41.78722" lon="9.26976">
        <ele>957.6</ele>
        <time>2015-06-18T12:23:23Z</time>
      </trkpt>
      <trkpt lat="41.78729" lon="9.26968">
        <ele>958.8</ele>
        <time>2015-06-18T12:23:36Z</time>
      </trkpt>
      <trkpt lat="41.78732" lon="9.26962">
        <ele>959.6</ele>
        <time>2015-06-18T12:23:44Z</time>
      </trkpt>
      <trkpt lat="41.78742" lon="9.26939">
        <ele>961.2</ele>
        <time>2015-06-18T12:24:07Z</time>
      </trkpt>
      <trkpt lat="41.78743" lon="9.26917">
        <ele>962</ele>
        <time>2015-06-18T12:24:28Z</time>
      </trkpt>
      <trkpt lat="41.78738" lon="9.26887">
        <ele>962</ele>
        <time>2015-06-18T12:24:58Z</time>
      </trkpt>
      <trkpt lat="41.78736" lon="9.26873">
        <ele>961.2</ele>
        <time>2015-06-18T12:25:12Z</time>
      </trkpt>
      <trkpt lat="41.78732" lon="9.26862">
        <ele>960.2</ele>
        <time>2015-06-18T12:25:21Z</time>
      </trkpt>
      <trkpt lat="41.78731" lon="9.26852">
        <ele>959.2</ele>
        <time>2015-06-18T12:25:31Z</time>
      </trkpt>
      <trkpt lat="41.78731" lon="9.26841">
        <ele>958.2</ele>
        <time>2015-06-18T12:25:41Z</time>
      </trkpt>
      <trkpt lat="41.78741" lon="9.2682">
        <ele>957</ele>
        <time>2015-06-18T12:26:29Z</time>
      </trkpt>
      <trkpt lat="41.78749" lon="9.26793">
        <ele>957</ele>
        <time>2015-06-18T12:26:55Z</time>
      </trkpt>
      <trkpt lat="41.78752" lon="9.26787">
        <ele>957</ele>
        <time>2015-06-18T12:27:00Z</time>
      </trkpt>
      <trkpt lat="41.78763" lon="9.26758">
        <ele>957.6</ele>
        <time>2015-06-18T12:27:31Z</time>
      </trkpt>
      <trkpt lat="41.78773" lon="9.26751">
        <ele>958.2</ele>
        <time>2015-06-18T12:27:48Z</time>
      </trkpt>
      <trkpt lat="41.78781" lon="9.26748">
        <ele>958.6</ele>
        <time>2015-06-18T12:28:00Z</time>
      </trkpt>
      <trkpt lat="41.78787" lon="9.26745">
        <ele>959.2</ele>
        <time>2015-06-18T12:28:07Z</time>
      </trkpt>
      <trkpt lat="41.78789" lon="9.26742">
        <ele>959.6</ele>
        <time>2015-06-18T12:28:11Z</time>
      </trkpt>
      <trkpt lat="41.78794" lon="9.26738">
        <ele>960.4</ele>
        <time>2015-06-18T12:28:19Z</time>
      </trkpt>
      <trkpt lat="41.78796" lon="9.26733">
        <ele>961.4</ele>
        <time>2015-06-18T12:28:25Z</time>
      </trkpt>
      <trkpt lat="41.78799" lon="9.26728">
        <ele>962.6</ele>
        <time>2015-06-18T12:28:31Z</time>
      </trkpt>
      <trkpt lat="41.788" lon="9.26725">
        <ele>963</ele>
        <time>2015-06-18T12:28:38Z</time>
      </trkpt>
      <trkpt lat="41.78799" lon="9.26721">
        <ele>964</ele>
        <time>2015-06-18T12:28:46Z</time>
      </trkpt>
      <trkpt lat="41.78798" lon="9.26718">
        <ele>965</ele>
        <time>2015-06-18T12:28:54Z</time>
      </trkpt>
      <trkpt lat="41.78801" lon="9.26714">
        <ele>966</ele>
        <time>2015-06-18T12:29:01Z</time>
      </trkpt>
      <trkpt lat="41.78802" lon="9.26706">
        <ele>967.4</ele>
        <time>2015-06-18T12:29:12Z</time>
      </trkpt>
      <trkpt lat="41.78805" lon="9.267">
        <ele>968</ele>
        <time>2015-06-18T12:29:22Z</time>
      </trkpt>
      <trkpt lat="41.78808" lon="9.26696">
        <ele>967.8</ele>
        <time>2015-06-18T12:29:32Z</time>
      </trkpt>
      <trkpt lat="41.7881" lon="9.2669">
        <ele>967</ele>
        <time>2015-06-18T12:29:38Z</time>
      </trkpt>
      <trkpt lat="41.78811" lon="9.26684">
        <ele>965.8</ele>
        <time>2015-06-18T12:29:46Z</time>
      </trkpt>
      <trkpt lat="41.78813" lon="9.26677">
        <ele>964.8</ele>
        <time>2015-06-18T12:29:54Z</time>
      </trkpt>
      <trkpt lat="41.78816" lon="9.2667">
        <ele>963.8</ele>
        <time>2015-06-18T12:30:03Z</time>
      </trkpt>
      <trkpt lat="41.78819" lon="9.26662">
        <ele>962.4</ele>
        <time>2015-06-18T12:30:13Z</time>
      </trkpt>
      <trkpt lat="41.78822" lon="9.26659">
        <ele>962</ele>
        <time>2015-06-18T12:30:19Z</time>
      </trkpt>
      <trkpt lat="41.78827" lon="9.26656">
        <ele>960.6</ele>
        <time>2015-06-18T12:30:26Z</time>
      </trkpt>
      <trkpt lat="41.78831" lon="9.26655">
        <ele>959.4</ele>
        <time>2015-06-18T12:30:34Z</time>
      </trkpt>
      <trkpt lat="41.78838" lon="9.26656">
        <ele>958</ele>
        <time>2015-06-18T12:30:44Z</time>
      </trkpt>
      <trkpt lat="41.78845" lon="9.26659">
        <ele>957.2</ele>
        <time>2015-06-18T12:30:53Z</time>
      </trkpt>
      <trkpt lat="41.78851" lon="9.2666">
        <ele>956.4</ele>
        <time>2015-06-18T12:31:00Z</time>
      </trkpt>
      <trkpt lat="41.78857" lon="9.26658">
        <ele>955</ele>
        <time>2015-06-18T12:31:10Z</time>
      </trkpt>
      <trkpt lat="41.78861" lon="9.2666">
        <ele>954</ele>
        <time>2015-06-18T12:31:18Z</time>
      </trkpt>
      <trkpt lat="41.7887" lon="9.26657">
        <ele>952.6</ele>
        <time>2015-06-18T12:31:31Z</time>
      </trkpt>
      <trkpt lat="41.78867" lon="9.26649">
        <ele>951.4</ele>
        <time>2015-06-18T12:31:45Z</time>
      </trkpt>
      <trkpt lat="41.7886" lon="9.26638">
        <ele>950.4</ele>
        <time>2015-06-18T12:32:01Z</time>
      </trkpt>
      <trkpt lat="41.7886" lon="9.26625">
        <ele>949.6</ele>
        <time>2015-06-18T12:32:15Z</time>
      </trkpt>
      <trkpt lat="41.78859" lon="9.26613">
        <ele>948.8</ele>
        <time>2015-06-18T12:32:33Z</time>
      </trkpt>
      <trkpt lat="41.78861" lon="9.26602">
        <ele>947.6</ele>
        <time>2015-06-18T12:32:47Z</time>
      </trkpt>
      <trkpt lat="41.78863" lon="9.26594">
        <ele>946.6</ele>
        <time>2015-06-18T12:32:59Z</time>
      </trkpt>
      <trkpt lat="41.78867" lon="9.26581">
        <ele>945.8</ele>
        <time>2015-06-18T12:33:10Z</time>
      </trkpt>
      <trkpt lat="41.78867" lon="9.2658">
        <ele>945.6</ele>
        <time>2015-06-18T12:33:11Z</time>
      </trkpt>
      <trkpt lat="41.78872" lon="9.2657">
        <ele>944.4</ele>
        <time>2015-06-18T12:33:24Z</time>
      </trkpt>
      <trkpt lat="41.78873" lon="9.26569">
        <ele>944.4</ele>
        <time>2015-06-18T12:33:26Z</time>
      </trkpt>
      <trkpt lat="41.78876" lon="9.26563">
        <ele>943.8</ele>
        <time>2015-06-18T12:33:34Z</time>
      </trkpt>
      <trkpt lat="41.78883" lon="9.26554">
        <ele>942.6</ele>
        <time>2015-06-18T12:33:48Z</time>
      </trkpt>
      <trkpt lat="41.78892" lon="9.26541">
        <ele>941.8</ele>
        <time>2015-06-18T12:34:03Z</time>
      </trkpt>
      <trkpt lat="41.78923" lon="9.26499">
        <ele>942.2</ele>
        <time>2015-06-18T12:34:52Z</time>
      </trkpt>
      <trkpt lat="41.78924" lon="9.2649">
        <ele>942</ele>
        <time>2015-06-18T12:34:59Z</time>
      </trkpt>
      <trkpt lat="41.78926" lon="9.26484">
        <ele>941.8</ele>
        <time>2015-06-18T12:35:03Z</time>
      </trkpt>
      <trkpt lat="41.78928" lon="9.26476">
        <ele>941.8</ele>
        <time>2015-06-18T12:35:09Z</time>
      </trkpt>
      <trkpt lat="41.7893" lon="9.2647">
        <ele>941.8</ele>
        <time>2015-06-18T12:35:15Z</time>
      </trkpt>
      <trkpt lat="41.7893" lon="9.26468">
        <ele>942</ele>
        <time>2015-06-18T12:35:17Z</time>
      </trkpt>
      <trkpt lat="41.7893" lon="9.26466">
        <ele>942.2</ele>
        <time>2015-06-18T12:35:19Z</time>
      </trkpt>
      <trkpt lat="41.78931" lon="9.26463">
        <ele>942</ele>
        <time>2015-06-18T12:35:21Z</time>
      </trkpt>
      <trkpt lat="41.78931" lon="9.26459">
        <ele>942</ele>
        <time>2015-06-18T12:35:24Z</time>
      </trkpt>
      <trkpt lat="41.78928" lon="9.26455">
        <ele>942</ele>
        <time>2015-06-18T12:35:29Z</time>
      </trkpt>
      <trkpt lat="41.78928" lon="9.26453">
        <ele>941.8</ele>
        <time>2015-06-18T12:35:31Z</time>
      </trkpt>
      <trkpt lat="41.7893" lon="9.26445">
        <ele>942</ele>
        <time>2015-06-18T12:35:39Z</time>
      </trkpt>
      <trkpt lat="41.78932" lon="9.26438">
        <ele>942</ele>
        <time>2015-06-18T12:35:44Z</time>
      </trkpt>
      <trkpt lat="41.7894" lon="9.26423">
        <ele>942.2</ele>
        <time>2015-06-18T12:36:01Z</time>
      </trkpt>
      <trkpt lat="41.78943" lon="9.26418">
        <ele>942.2</ele>
        <time>2015-06-18T12:36:06Z</time>
      </trkpt>
      <trkpt lat="41.78948" lon="9.26406">
        <ele>942.2</ele>
        <time>2015-06-18T12:36:15Z</time>
      </trkpt>
      <trkpt lat="41.78952" lon="9.26388">
        <ele>942.6</ele>
        <time>2015-06-18T12:36:31Z</time>
      </trkpt>
      <trkpt lat="41.78952" lon="9.26385">
        <ele>942.8</ele>
        <time>2015-06-18T12:36:33Z</time>
      </trkpt>
      <trkpt lat="41.78955" lon="9.26364">
        <ele>943</ele>
        <time>2015-06-18T12:36:51Z</time>
      </trkpt>
      <trkpt lat="41.78966" lon="9.26336">
        <ele>944</ele>
        <time>2015-06-18T12:37:18Z</time>
      </trkpt>
      <trkpt lat="41.78967" lon="9.26329">
        <ele>944</ele>
        <time>2015-06-18T12:37:23Z</time>
      </trkpt>
      <trkpt lat="41.78986" lon="9.26281">
        <ele>945.4</ele>
        <time>2015-06-18T12:37:54Z</time>
      </trkpt>
      <trkpt lat="41.78984" lon="9.26267">
        <ele>946.2</ele>
        <time>2015-06-18T12:38:06Z</time>
      </trkpt>
      <trkpt lat="41.78985" lon="9.26258">
        <ele>946.8</ele>
        <time>2015-06-18T12:38:14Z</time>
      </trkpt>
      <trkpt lat="41.78992" lon="9.26201">
        <ele>947.8</ele>
        <time>2015-06-18T12:38:59Z</time>
      </trkpt>
      <trkpt lat="41.7903" lon="9.2618">
        <ele>947.4</ele>
        <time>2015-06-18T12:39:48Z</time>
      </trkpt>
      <trkpt lat="41.79033" lon="9.2618">
        <ele>947.4</ele>
        <time>2015-06-18T12:39:50Z</time>
      </trkpt>
      <trkpt lat="41.79078" lon="9.26182">
        <ele>948.2</ele>
        <time>2015-06-18T12:40:29Z</time>
      </trkpt>
      <trkpt lat="41.7909" lon="9.26179">
        <ele>948.8</ele>
        <time>2015-06-18T12:40:41Z</time>
      </trkpt>
      <trkpt lat="41.791" lon="9.26173">
        <ele>949.6</ele>
        <time>2015-06-18T12:40:55Z</time>
      </trkpt>
      <trkpt lat="41.79107" lon="9.26158">
        <ele>951</ele>
        <time>2015-06-18T12:41:24Z</time>
      </trkpt>
      <trkpt lat="41.79113" lon="9.26152">
        <ele>951.2</ele>
        <time>2015-06-18T12:41:30Z</time>
      </trkpt>
      <trkpt lat="41.79117" lon="9.26141">
        <ele>951.8</ele>
        <time>2015-06-18T12:41:38Z</time>
      </trkpt>
      <trkpt lat="41.79124" lon="9.26137">
        <ele>952.8</ele>
        <time>2015-06-18T12:41:50Z</time>
      </trkpt>
      <trkpt lat="41.79131" lon="9.26135">
        <ele>953.6</ele>
        <time>2015-06-18T12:41:58Z</time>
      </trkpt>
      <trkpt lat="41.79134" lon="9.26135">
        <ele>954.2</ele>
        <time>2015-06-18T12:42:01Z</time>
      </trkpt>
      <trkpt lat="41.79138" lon="9.26134">
        <ele>954.4</ele>
        <time>2015-06-18T12:42:03Z</time>
      </trkpt>
      <trkpt lat="41.7914" lon="9.26135">
        <ele>954.6</ele>
        <time>2015-06-18T12:42:05Z</time>
      </trkpt>
      <trkpt lat="41.79143" lon="9.26139">
        <ele>955.8</ele>
        <time>2015-06-18T12:42:12Z</time>
      </trkpt>
      <trkpt lat="41.79148" lon="9.2614">
        <ele>957.2</ele>
        <time>2015-06-18T12:42:21Z</time>
      </trkpt>
      <trkpt lat="41.79151" lon="9.26139">
        <ele>957.8</ele>
        <time>2015-06-18T12:42:27Z</time>
      </trkpt>
      <trkpt lat="41.7916" lon="9.26131">
        <ele>959.2</ele>
        <time>2015-06-18T12:42:36Z</time>
      </trkpt>
      <trkpt lat="41.7916" lon="9.2613">
        <ele>959.4</ele>
        <time>2015-06-18T12:42:37Z</time>
      </trkpt>
      <trkpt lat="41.7916" lon="9.26129">
        <ele>959.4</ele>
        <time>2015-06-18T12:42:38Z</time>
      </trkpt>
      <trkpt lat="41.79164" lon="9.26125">
        <ele>960.6</ele>
        <time>2015-06-18T12:42:46Z</time>
      </trkpt>
      <trkpt lat="41.7917" lon="9.2612">
        <ele>961.4</ele>
        <time>2015-06-18T12:42:55Z</time>
      </trkpt>
      <trkpt lat="41.79171" lon="9.26119">
        <ele>961.4</ele>
        <time>2015-06-18T12:42:56Z</time>
      </trkpt>
      <trkpt lat="41.79175" lon="9.26116">
        <ele>962.6</ele>
        <time>2015-06-18T12:43:07Z</time>
      </trkpt>
      <trkpt lat="41.79179" lon="9.26117">
        <ele>963.6</ele>
        <time>2015-06-18T12:43:16Z</time>
      </trkpt>
      <trkpt lat="41.79181" lon="9.26118">
        <ele>964.6</ele>
        <time>2015-06-18T12:43:24Z</time>
      </trkpt>
      <trkpt lat="41.79184" lon="9.26122">
        <ele>965.6</ele>
        <time>2015-06-18T12:43:32Z</time>
      </trkpt>
      <trkpt lat="41.79188" lon="9.26122">
        <ele>966.8</ele>
        <time>2015-06-18T12:43:41Z</time>
      </trkpt>
      <trkpt lat="41.7919" lon="9.2612">
        <ele>967.8</ele>
        <time>2015-06-18T12:43:48Z</time>
      </trkpt>
      <trkpt lat="41.79194" lon="9.26116">
        <ele>968.8</ele>
        <time>2015-06-18T12:43:59Z</time>
      </trkpt>
      <trkpt lat="41.79197" lon="9.26113">
        <ele>970</ele>
        <time>2015-06-18T12:44:14Z</time>
      </trkpt>
      <trkpt lat="41.79199" lon="9.26108">
        <ele>971.4</ele>
        <time>2015-06-18T12:44:31Z</time>
      </trkpt>
      <trkpt lat="41.79203" lon="9.26103">
        <ele>971.8</ele>
        <time>2015-06-18T12:44:38Z</time>
      </trkpt>
      <trkpt lat="41.79204" lon="9.26102">
        <ele>972.4</ele>
        <time>2015-06-18T12:44:42Z</time>
      </trkpt>
      <trkpt lat="41.79205" lon="9.261">
        <ele>973.6</ele>
        <time>2015-06-18T12:44:55Z</time>
      </trkpt>
      <trkpt lat="41.79208" lon="9.26096">
        <ele>974.4</ele>
        <time>2015-06-18T12:45:03Z</time>
      </trkpt>
      <trkpt lat="41.79211" lon="9.26094">
        <ele>975.6</ele>
        <time>2015-06-18T12:45:13Z</time>
      </trkpt>
      <trkpt lat="41.79214" lon="9.2609">
        <ele>976.4</ele>
        <time>2015-06-18T12:45:23Z</time>
      </trkpt>
      <trkpt lat="41.79214" lon="9.2609">
        <ele>976.8</ele>
        <time>2015-06-18T12:45:25Z</time>
      </trkpt>
      <trkpt lat="41.79218" lon="9.26087">
        <ele>977.8</ele>
        <time>2015-06-18T12:45:35Z</time>
      </trkpt>
      <trkpt lat="41.79227" lon="9.26079">
        <ele>978.8</ele>
        <time>2015-06-18T12:45:48Z</time>
      </trkpt>
      <trkpt lat="41.79227" lon="9.26079">
        <ele>979</ele>
        <time>2015-06-18T12:45:49Z</time>
      </trkpt>
      <trkpt lat="41.7923" lon="9.26077">
        <ele>979</ele>
        <time>2015-06-18T12:45:51Z</time>
      </trkpt>
      <trkpt lat="41.79234" lon="9.26073">
        <ele>980</ele>
        <time>2015-06-18T12:46:00Z</time>
      </trkpt>
      <trkpt lat="41.79241" lon="9.26069">
        <ele>981.2</ele>
        <time>2015-06-18T12:46:12Z</time>
      </trkpt>
      <trkpt lat="41.79248" lon="9.26068">
        <ele>982</ele>
        <time>2015-06-18T12:46:21Z</time>
      </trkpt>
      <trkpt lat="41.7925" lon="9.26071">
        <ele>982.8</ele>
        <time>2015-06-18T12:46:28Z</time>
      </trkpt>
      <trkpt lat="41.79253" lon="9.26071">
        <ele>984</ele>
        <time>2015-06-18T12:46:36Z</time>
      </trkpt>
      <trkpt lat="41.79255" lon="9.2607">
        <ele>984.6</ele>
        <time>2015-06-18T12:46:40Z</time>
      </trkpt>
      <trkpt lat="41.79258" lon="9.26069">
        <ele>986.6</ele>
        <time>2015-06-18T12:46:52Z</time>
      </trkpt>
      <trkpt lat="41.79262" lon="9.26065">
        <ele>987.6</ele>
        <time>2015-06-18T12:47:01Z</time>
      </trkpt>
      <trkpt lat="41.79267" lon="9.26061">
        <ele>988.8</ele>
        <time>2015-06-18T12:47:12Z</time>
      </trkpt>
      <trkpt lat="41.79271" lon="9.26059">
        <ele>989.8</ele>
        <time>2015-06-18T12:47:22Z</time>
      </trkpt>
      <trkpt lat="41.79274" lon="9.26058">
        <ele>990.6</ele>
        <time>2015-06-18T12:47:30Z</time>
      </trkpt>
      <trkpt lat="41.79279" lon="9.26055">
        <ele>991.6</ele>
        <time>2015-06-18T12:47:37Z</time>
      </trkpt>
      <trkpt lat="41.79283" lon="9.2605">
        <ele>992.6</ele>
        <time>2015-06-18T12:47:45Z</time>
      </trkpt>
      <trkpt lat="41.79286" lon="9.26049">
        <ele>994</ele>
        <time>2015-06-18T12:47:53Z</time>
      </trkpt>
      <trkpt lat="41.79288" lon="9.26051">
        <ele>994.8</ele>
        <time>2015-06-18T12:48:02Z</time>
      </trkpt>
      <trkpt lat="41.79289" lon="9.26048">
        <ele>996</ele>
        <time>2015-06-18T12:48:10Z</time>
      </trkpt>
      <trkpt lat="41.79294" lon="9.26044">
        <ele>997.2</ele>
        <time>2015-06-18T12:48:22Z</time>
      </trkpt>
      <trkpt lat="41.79296" lon="9.26041">
        <ele>998</ele>
        <time>2015-06-18T12:48:29Z</time>
      </trkpt>
      <trkpt lat="41.793" lon="9.26032">
        <ele>999.2</ele>
        <time>2015-06-18T12:48:40Z</time>
      </trkpt>
      <trkpt lat="41.79303" lon="9.26024">
        <ele>1000.2</ele>
        <time>2015-06-18T12:48:51Z</time>
      </trkpt>
      <trkpt lat="41.79306" lon="9.26017">
        <ele>1001.2</ele>
        <time>2015-06-18T12:49:02Z</time>
      </trkpt>
      <trkpt lat="41.7931" lon="9.26017">
        <ele>1002.2</ele>
        <time>2015-06-18T12:49:11Z</time>
      </trkpt>
      <trkpt lat="41.79314" lon="9.26014">
        <ele>1004</ele>
        <time>2015-06-18T12:49:23Z</time>
      </trkpt>
      <trkpt lat="41.79316" lon="9.26016">
        <ele>1004.4</ele>
        <time>2015-06-18T12:49:30Z</time>
      </trkpt>
      <trkpt lat="41.79319" lon="9.26019">
        <ele>1005.4</ele>
        <time>2015-06-18T12:49:37Z</time>
      </trkpt>
      <trkpt lat="41.79323" lon="9.26022">
        <ele>1006.6</ele>
        <time>2015-06-18T12:49:45Z</time>
      </trkpt>
      <trkpt lat="41.79328" lon="9.26018">
        <ele>1007.4</ele>
        <time>2015-06-18T12:49:51Z</time>
      </trkpt>
      <trkpt lat="41.79328" lon="9.26017">
        <ele>1007.6</ele>
        <time>2015-06-18T12:49:53Z</time>
      </trkpt>
      <trkpt lat="41.79329" lon="9.26013">
        <ele>1008.8</ele>
        <time>2015-06-18T12:50:02Z</time>
      </trkpt>
      <trkpt lat="41.79328" lon="9.26012">
        <ele>1009.8</ele>
        <time>2015-06-18T12:50:10Z</time>
      </trkpt>
      <trkpt lat="41.79328" lon="9.26013">
        <ele>1010</ele>
        <time>2015-06-18T12:50:12Z</time>
      </trkpt>
      <trkpt lat="41.79329" lon="9.26011">
        <ele>1011</ele>
        <time>2015-06-18T12:50:20Z</time>
      </trkpt>
      <trkpt lat="41.79332" lon="9.26011">
        <ele>1012</ele>
        <time>2015-06-18T12:50:28Z</time>
      </trkpt>
      <trkpt lat="41.79335" lon="9.26012">
        <ele>1013</ele>
        <time>2015-06-18T12:50:35Z</time>
      </trkpt>
      <trkpt lat="41.79339" lon="9.26012">
        <ele>1014.2</ele>
        <time>2015-06-18T12:50:44Z</time>
      </trkpt>
      <trkpt lat="41.79339" lon="9.2601">
        <ele>1015.2</ele>
        <time>2015-06-18T12:50:51Z</time>
      </trkpt>
      <trkpt lat="41.79342" lon="9.2601">
        <ele>1016.4</ele>
        <time>2015-06-18T12:51:03Z</time>
      </trkpt>
      <trkpt lat="41.79348" lon="9.2601">
        <ele>1017.4</ele>
        <time>2015-06-18T12:51:13Z</time>
      </trkpt>
      <trkpt lat="41.79351" lon="9.26012">
        <ele>1018.8</ele>
        <time>2015-06-18T12:51:20Z</time>
      </trkpt>
      <trkpt lat="41.79354" lon="9.26014">
        <ele>1019.6</ele>
        <time>2015-06-18T12:51:28Z</time>
      </trkpt>
      <trkpt lat="41.79357" lon="9.2602">
        <ele>1021</ele>
        <time>2015-06-18T12:51:37Z</time>
      </trkpt>
      <trkpt lat="41.79361" lon="9.26025">
        <ele>1022.2</ele>
        <time>2015-06-18T12:51:47Z</time>
      </trkpt>
      <trkpt lat="41.79362" lon="9.26033">
        <ele>1023</ele>
        <time>2015-06-18T12:51:59Z</time>
      </trkpt>
      <trkpt lat="41.79363" lon="9.2604">
        <ele>1024.2</ele>
        <time>2015-06-18T12:52:09Z</time>
      </trkpt>
      <trkpt lat="41.79366" lon="9.26047">
        <ele>1025.6</ele>
        <time>2015-06-18T12:52:21Z</time>
      </trkpt>
      <trkpt lat="41.79368" lon="9.2605">
        <ele>1026.2</ele>
        <time>2015-06-18T12:52:29Z</time>
      </trkpt>
      <trkpt lat="41.79373" lon="9.2605">
        <ele>1027.4</ele>
        <time>2015-06-18T12:52:36Z</time>
      </trkpt>
      <trkpt lat="41.7938" lon="9.26048">
        <ele>1029</ele>
        <time>2015-06-18T12:52:50Z</time>
      </trkpt>
      <trkpt lat="41.79387" lon="9.26039">
        <ele>1030.2</ele>
        <time>2015-06-18T12:53:08Z</time>
      </trkpt>
      <trkpt lat="41.7939" lon="9.26037">
        <ele>1031</ele>
        <time>2015-06-18T12:53:16Z</time>
      </trkpt>
      <trkpt lat="41.79395" lon="9.26032">
        <ele>1032</ele>
        <time>2015-06-18T12:53:27Z</time>
      </trkpt>
      <trkpt lat="41.79405" lon="9.26026">
        <ele>1033.2</ele>
        <time>2015-06-18T12:53:40Z</time>
      </trkpt>
      <trkpt lat="41.79408" lon="9.26017">
        <ele>1034.2</ele>
        <time>2015-06-18T12:53:49Z</time>
      </trkpt>
      <trkpt lat="41.79409" lon="9.26012">
        <ele>1035</ele>
        <time>2015-06-18T12:53:56Z</time>
      </trkpt>
      <trkpt lat="41.79413" lon="9.26008">
        <ele>1035.8</ele>
        <time>2015-06-18T12:54:02Z</time>
      </trkpt>
      <trkpt lat="41.79418" lon="9.26004">
        <ele>1037.2</ele>
        <time>2015-06-18T12:54:10Z</time>
      </trkpt>
      <trkpt lat="41.79418" lon="9.26002">
        <ele>1037.2</ele>
        <time>2015-06-18T12:54:11Z</time>
      </trkpt>
      <trkpt lat="41.79416" lon="9.26001">
        <ele>1037.4</ele>
        <time>2015-06-18T12:54:13Z</time>
      </trkpt>
      <trkpt lat="41.79417" lon="9.25993">
        <ele>1038.2</ele>
        <time>2015-06-18T12:54:22Z</time>
      </trkpt>
      <trkpt lat="41.79417" lon="9.25982">
        <ele>1038.2</ele>
        <time>2015-06-18T12:54:34Z</time>
      </trkpt>
      <trkpt lat="41.79412" lon="9.25975">
        <ele>1037.6</ele>
        <time>2015-06-18T12:54:42Z</time>
      </trkpt>
      <trkpt lat="41.79411" lon="9.25973">
        <ele>1037.4</ele>
        <time>2015-06-18T12:54:44Z</time>
      </trkpt>
      <trkpt lat="41.79408" lon="9.25965">
        <ele>1036.8</ele>
        <time>2015-06-18T12:54:50Z</time>
      </trkpt>
      <trkpt lat="41.79408" lon="9.25964">
        <ele>1035.8</ele>
        <time>2015-06-18T12:54:51Z</time>
      </trkpt>
    </trkseg>
  </trk>
  <trk>
    <name><![CDATA[GR20 I Paliri - Asinau]]></name>
    <trkseg>
      <trkpt lat="41.79382" lon="9.25857">
        <ele>1033</ele>
        <time>2015-06-19T05:02:36Z</time>
      </trkpt>
      <trkpt lat="41.79382" lon="9.25857">
        <ele>1033.4</ele>
        <time>2015-06-19T05:02:37Z</time>
      </trkpt>
      <trkpt lat="41.79383" lon="9.25854">
        <ele>1033.4</ele>
        <time>2015-06-19T05:02:38Z</time>
      </trkpt>
      <trkpt lat="41.79385" lon="9.25846">
        <ele>1033.2</ele>
        <time>2015-06-19T05:02:41Z</time>
      </trkpt>
      <trkpt lat="41.79385" lon="9.25843">
        <ele>1033</ele>
        <time>2015-06-19T05:02:42Z</time>
      </trkpt>
      <trkpt lat="41.79385" lon="9.25842">
        <ele>1033</ele>
        <time>2015-06-19T05:02:43Z</time>
      </trkpt>
      <trkpt lat="41.79385" lon="9.2584">
        <ele>1033</ele>
        <time>2015-06-19T05:02:44Z</time>
      </trkpt>
      <trkpt lat="41.79385" lon="9.25839">
        <ele>1033</ele>
        <time>2015-06-19T05:02:45Z</time>
      </trkpt>
      <trkpt lat="41.79385" lon="9.25838">
        <ele>1033.2</ele>
        <time>2015-06-19T05:02:46Z</time>
      </trkpt>
      <trkpt lat="41.79385" lon="9.25838">
        <ele>1033.4</ele>
        <time>2015-06-19T05:02:47Z</time>
      </trkpt>
      <trkpt lat="41.79385" lon="9.25837">
        <ele>1033.4</ele>
        <time>2015-06-19T05:02:48Z</time>
      </trkpt>
      <trkpt lat="41.79384" lon="9.25837">
        <ele>1033.6</ele>
        <time>2015-06-19T05:02:49Z</time>
      </trkpt>
      <trkpt lat="41.79384" lon="9.25836">
        <ele>1033.4</ele>
        <time>2015-06-19T05:02:50Z</time>
      </trkpt>
      <trkpt lat="41.79384" lon="9.25836">
        <ele>1033.4</ele>
        <time>2015-06-19T05:02:51Z</time>
      </trkpt>
      <trkpt lat="41.79383" lon="9.25835">
        <ele>1033.4</ele>
        <time>2015-06-19T05:02:52Z</time>
      </trkpt>
      <trkpt lat="41.79383" lon="9.25834">
        <ele>1033.2</ele>
        <time>2015-06-19T05:02:53Z</time>
      </trkpt>
      <trkpt lat="41.79383" lon="9.25833">
        <ele>1033.2</ele>
        <time>2015-06-19T05:02:54Z</time>
      </trkpt>
      <trkpt lat="41.79383" lon="9.25832">
        <ele>1033.2</ele>
        <time>2015-06-19T05:02:55Z</time>
      </trkpt>
      <trkpt lat="41.79382" lon="9.25831">
        <ele>1033.4</ele>
        <time>2015-06-19T05:02:56Z</time>
      </trkpt>
      <trkpt lat="41.79383" lon="9.25831">
        <ele>1033.4</ele>
        <time>2015-06-19T05:02:57Z</time>
      </trkpt>
      <trkpt lat="41.79383" lon="9.2583">
        <ele>1033.4</ele>
        <time>2015-06-19T05:02:58Z</time>
      </trkpt>
      <trkpt lat="41.79383" lon="9.25829">
        <ele>1033.4</ele>
        <time>2015-06-19T05:02:59Z</time>
      </trkpt>
      <trkpt lat="41.79382" lon="9.25828">
        <ele>1033.6</ele>
        <time>2015-06-19T05:03:00Z</time>
      </trkpt>
      <trkpt lat="41.79383" lon="9.25827">
        <ele>1033.6</ele>
        <time>2015-06-19T05:03:01Z</time>
      </trkpt>
      <trkpt lat="41.79383" lon="9.25826">
        <ele>1033.6</ele>
        <time>2015-06-19T05:03:02Z</time>
      </trkpt>
      <trkpt lat="41.79384" lon="9.25826">
        <ele>1033.6</ele>
        <time>2015-06-19T05:03:03Z</time>
      </trkpt>
      <trkpt lat="41.79385" lon="9.25826">
        <ele>1033.6</ele>
        <time>2015-06-19T05:03:04Z</time>
      </trkpt>
      <trkpt lat="41.79386" lon="9.25827">
        <ele>1033.6</ele>
        <time>2015-06-19T05:03:05Z</time>
      </trkpt>
      <trkpt lat="41.79387" lon="9.25827">
        <ele>1033.4</ele>
        <time>2015-06-19T05:03:06Z</time>
      </trkpt>
      <trkpt lat="41.79388" lon="9.25827">
        <ele>1033.6</ele>
        <time>2015-06-19T05:03:07Z</time>
      </trkpt>
      <trkpt lat="41.79388" lon="9.25826">
        <ele>1033.6</ele>
        <time>2015-06-19T05:03:08Z</time>
      </trkpt>
      <trkpt lat="41.79389" lon="9.25826">
        <ele>1033.6</ele>
        <time>2015-06-19T05:03:09Z</time>
      </trkpt>
      <trkpt lat="41.79389" lon="9.25826">
        <ele>1033.6</ele>
        <time>2015-06-19T05:03:10Z</time>
      </trkpt>
      <trkpt lat="41.79389" lon="9.25825">
        <ele>1033.6</ele>
        <time>2015-06-19T05:03:11Z</time>
      </trkpt>
      <trkpt lat="41.79389" lon="9.25825">
        <ele>1033.6</ele>
        <time>2015-06-19T05:03:12Z</time>
      </trkpt>
      <trkpt lat="41.79389" lon="9.25825">
        <ele>1033.6</ele>
        <time>2015-06-19T05:03:13Z</time>
      </trkpt>
      <trkpt lat="41.79389" lon="9.25824">
        <ele>1033.6</ele>
        <time>2015-06-19T05:03:14Z</time>
      </trkpt>
      <trkpt lat="41.79389" lon="9.25824">
        <ele>1033.6</ele>
        <time>2015-06-19T05:03:15Z</time>
      </trkpt>
      <trkpt lat="41.79389" lon="9.25823">
        <ele>1033.4</ele>
        <time>2015-06-19T05:03:17Z</time>
      </trkpt>
      <trkpt lat="41.79389" lon="9.25822">
        <ele>1033.2</ele>
        <time>2015-06-19T05:03:19Z</time>
      </trkpt>
      <trkpt lat="41.79389" lon="9.25821">
        <ele>1033</ele>
        <time>2015-06-19T05:03:21Z</time>
      </trkpt>
      <trkpt lat="41.79388" lon="9.2582">
        <ele>1033</ele>
        <time>2015-06-19T05:03:23Z</time>
      </trkpt>
      <trkpt lat="41.79388" lon="9.25819">
        <ele>1033</ele>
        <time>2015-06-19T05:03:25Z</time>
      </trkpt>
      <trkpt lat="41.79388" lon="9.25818">
        <ele>1033</ele>
        <time>2015-06-19T05:03:27Z</time>
      </trkpt>
      <trkpt lat="41.79388" lon="9.25817">
        <ele>1032.6</ele>
        <time>2015-06-19T05:03:29Z</time>
      </trkpt>
      <trkpt lat="41.79388" lon="9.25816">
        <ele>1032.2</ele>
        <time>2015-06-19T05:03:31Z</time>
      </trkpt>
      <trkpt lat="41.79387" lon="9.25815">
        <ele>1032</ele>
        <time>2015-06-19T05:03:33Z</time>
      </trkpt>
      <trkpt lat="41.79387" lon="9.25814">
        <ele>1032</ele>
        <time>2015-06-19T05:03:35Z</time>
      </trkpt>
      <trkpt lat="41.79388" lon="9.25814">
        <ele>1032</ele>
        <time>2015-06-19T05:03:38Z</time>
      </trkpt>
      <trkpt lat="41.79387" lon="9.25814">
        <ele>1031.8</ele>
        <time>2015-06-19T05:03:41Z</time>
      </trkpt>
      <trkpt lat="41.79385" lon="9.25816">
        <ele>1031.8</ele>
        <time>2015-06-19T05:03:45Z</time>
      </trkpt>
      <trkpt lat="41.79381" lon="9.2582">
        <ele>1031.8</ele>
        <time>2015-06-19T05:03:50Z</time>
      </trkpt>
      <trkpt lat="41.79375" lon="9.25819">
        <ele>1031.6</ele>
        <time>2015-06-19T05:03:55Z</time>
      </trkpt>
      <trkpt lat="41.79371" lon="9.25819">
        <ele>1031.6</ele>
        <time>2015-06-19T05:04:00Z</time>
      </trkpt>
      <trkpt lat="41.79362" lon="9.25814">
        <ele>1031.4</ele>
        <time>2015-06-19T05:04:09Z</time>
      </trkpt>
      <trkpt lat="41.79349" lon="9.25811">
        <ele>1031</ele>
        <time>2015-06-19T05:04:21Z</time>
      </trkpt>
      <trkpt lat="41.79309" lon="9.25825">
        <ele>1030.4</ele>
        <time>2015-06-19T05:04:57Z</time>
      </trkpt>
      <trkpt lat="41.79298" lon="9.25826">
        <ele>1029.4</ele>
        <time>2015-06-19T05:05:09Z</time>
      </trkpt>
      <trkpt lat="41.79287" lon="9.25828">
        <ele>1028</ele>
        <time>2015-06-19T05:05:28Z</time>
      </trkpt>
      <trkpt lat="41.79278" lon="9.2583">
        <ele>1027.2</ele>
        <time>2015-06-19T05:05:38Z</time>
      </trkpt>
      <trkpt lat="41.79272" lon="9.25828">
        <ele>1025.8</ele>
        <time>2015-06-19T05:05:48Z</time>
      </trkpt>
      <trkpt lat="41.79266" lon="9.25821">
        <ele>1024.8</ele>
        <time>2015-06-19T05:05:58Z</time>
      </trkpt>
      <trkpt lat="41.79262" lon="9.25814">
        <ele>1023.8</ele>
        <time>2015-06-19T05:06:10Z</time>
      </trkpt>
      <trkpt lat="41.79259" lon="9.25808">
        <ele>1023</ele>
        <time>2015-06-19T05:06:17Z</time>
      </trkpt>
      <trkpt lat="41.79255" lon="9.25802">
        <ele>1021.8</ele>
        <time>2015-06-19T05:06:25Z</time>
      </trkpt>
      <trkpt lat="41.79252" lon="9.25797">
        <ele>1020.4</ele>
        <time>2015-06-19T05:06:33Z</time>
      </trkpt>
      <trkpt lat="41.79247" lon="9.25793">
        <ele>1019.6</ele>
        <time>2015-06-19T05:06:40Z</time>
      </trkpt>
      <trkpt lat="41.7924" lon="9.25788">
        <ele>1018.4</ele>
        <time>2015-06-19T05:06:49Z</time>
      </trkpt>
      <trkpt lat="41.79237" lon="9.25783">
        <ele>1017.6</ele>
        <time>2015-06-19T05:06:57Z</time>
      </trkpt>
      <trkpt lat="41.79236" lon="9.25777">
        <ele>1016.6</ele>
        <time>2015-06-19T05:07:04Z</time>
      </trkpt>
      <trkpt lat="41.79236" lon="9.25769">
        <ele>1015.2</ele>
        <time>2015-06-19T05:07:12Z</time>
      </trkpt>
      <trkpt lat="41.79234" lon="9.25765">
        <ele>1014.4</ele>
        <time>2015-06-19T05:07:21Z</time>
      </trkpt>
      <trkpt lat="41.79235" lon="9.2576">
        <ele>1013.4</ele>
        <time>2015-06-19T05:07:28Z</time>
      </trkpt>
      <trkpt lat="41.79232" lon="9.25753">
        <ele>1012.2</ele>
        <time>2015-06-19T05:07:37Z</time>
      </trkpt>
      <trkpt lat="41.79231" lon="9.25746">
        <ele>1011.4</ele>
        <time>2015-06-19T05:07:45Z</time>
      </trkpt>
      <trkpt lat="41.7923" lon="9.25738">
        <ele>1010</ele>
        <time>2015-06-19T05:07:53Z</time>
      </trkpt>
      <trkpt lat="41.79226" lon="9.25732">
        <ele>1008.8</ele>
        <time>2015-06-19T05:08:03Z</time>
      </trkpt>
      <trkpt lat="41.79222" lon="9.25727">
        <ele>1008</ele>
        <time>2015-06-19T05:08:12Z</time>
      </trkpt>
      <trkpt lat="41.79214" lon="9.25705">
        <ele>1006.6</ele>
        <time>2015-06-19T05:08:35Z</time>
      </trkpt>
      <trkpt lat="41.79212" lon="9.2569">
        <ele>1005.6</ele>
        <time>2015-06-19T05:08:48Z</time>
      </trkpt>
      <trkpt lat="41.7921" lon="9.25673">
        <ele>1004.6</ele>
        <time>2015-06-19T05:09:02Z</time>
      </trkpt>
      <trkpt lat="41.79209" lon="9.25664">
        <ele>1004.2</ele>
        <time>2015-06-19T05:09:08Z</time>
      </trkpt>
      <trkpt lat="41.79205" lon="9.25649">
        <ele>1004</ele>
        <time>2015-06-19T05:09:24Z</time>
      </trkpt>
      <trkpt lat="41.79208" lon="9.25643">
        <ele>1003.6</ele>
        <time>2015-06-19T05:09:35Z</time>
      </trkpt>
      <trkpt lat="41.79208" lon="9.25639">
        <ele>1003.8</ele>
        <time>2015-06-19T05:09:39Z</time>
      </trkpt>
      <trkpt lat="41.792" lon="9.256">
        <ele>1005.4</ele>
        <time>2015-06-19T05:10:19Z</time>
      </trkpt>
      <trkpt lat="41.79198" lon="9.25595">
        <ele>1004.8</ele>
        <time>2015-06-19T05:10:24Z</time>
      </trkpt>
      <trkpt lat="41.79198" lon="9.25592">
        <ele>1004.2</ele>
        <time>2015-06-19T05:10:26Z</time>
      </trkpt>
      <trkpt lat="41.792" lon="9.25579">
        <ele>1003</ele>
        <time>2015-06-19T05:10:38Z</time>
      </trkpt>
      <trkpt lat="41.79198" lon="9.2557">
        <ele>1002.4</ele>
        <time>2015-06-19T05:10:50Z</time>
      </trkpt>
      <trkpt lat="41.79197" lon="9.25565">
        <ele>1001.2</ele>
        <time>2015-06-19T05:10:59Z</time>
      </trkpt>
      <trkpt lat="41.79193" lon="9.25563">
        <ele>1000.2</ele>
        <time>2015-06-19T05:11:08Z</time>
      </trkpt>
      <trkpt lat="41.79194" lon="9.25556">
        <ele>999</ele>
        <time>2015-06-19T05:11:16Z</time>
      </trkpt>
      <trkpt lat="41.79196" lon="9.2555">
        <ele>998.2</ele>
        <time>2015-06-19T05:11:23Z</time>
      </trkpt>
      <trkpt lat="41.79201" lon="9.25538">
        <ele>996.8</ele>
        <time>2015-06-19T05:11:35Z</time>
      </trkpt>
      <trkpt lat="41.79206" lon="9.25532">
        <ele>995.8</ele>
        <time>2015-06-19T05:11:43Z</time>
      </trkpt>
      <trkpt lat="41.79213" lon="9.25529">
        <ele>994.8</ele>
        <time>2015-06-19T05:11:52Z</time>
      </trkpt>
      <trkpt lat="41.79234" lon="9.2551">
        <ele>993.4</ele>
        <time>2015-06-19T05:12:16Z</time>
      </trkpt>
      <trkpt lat="41.79241" lon="9.25501">
        <ele>992.6</ele>
        <time>2015-06-19T05:12:29Z</time>
      </trkpt>
      <trkpt lat="41.79242" lon="9.25497">
        <ele>992</ele>
        <time>2015-06-19T05:12:36Z</time>
      </trkpt>
      <trkpt lat="41.79243" lon="9.2549">
        <ele>991.2</ele>
        <time>2015-06-19T05:12:42Z</time>
      </trkpt>
      <trkpt lat="41.79252" lon="9.25468">
        <ele>991</ele>
        <time>2015-06-19T05:13:11Z</time>
      </trkpt>
      <trkpt lat="41.79254" lon="9.25448">
        <ele>991.8</ele>
        <time>2015-06-19T05:13:33Z</time>
      </trkpt>
      <trkpt lat="41.79252" lon="9.25442">
        <ele>991.8</ele>
        <time>2015-06-19T05:13:38Z</time>
      </trkpt>
      <trkpt lat="41.79251" lon="9.2544">
        <ele>991.6</ele>
        <time>2015-06-19T05:13:40Z</time>
      </trkpt>
      <trkpt lat="41.79251" lon="9.25436">
        <ele>991.4</ele>
        <time>2015-06-19T05:13:46Z</time>
      </trkpt>
      <trkpt lat="41.7925" lon="9.25425">
        <ele>990</ele>
        <time>2015-06-19T05:13:56Z</time>
      </trkpt>
      <trkpt lat="41.79249" lon="9.25423">
        <ele>989.8</ele>
        <time>2015-06-19T05:13:59Z</time>
      </trkpt>
      <trkpt lat="41.79248" lon="9.25417">
        <ele>989</ele>
        <time>2015-06-19T05:14:06Z</time>
      </trkpt>
      <trkpt lat="41.79247" lon="9.2541">
        <ele>988.4</ele>
        <time>2015-06-19T05:14:12Z</time>
      </trkpt>
      <trkpt lat="41.79235" lon="9.25365">
        <ele>987.4</ele>
        <time>2015-06-19T05:14:59Z</time>
      </trkpt>
      <trkpt lat="41.79235" lon="9.2536">
        <ele>987.8</ele>
        <time>2015-06-19T05:15:06Z</time>
      </trkpt>
      <trkpt lat="41.79233" lon="9.25352">
        <ele>989.2</ele>
        <time>2015-06-19T05:15:17Z</time>
      </trkpt>
      <trkpt lat="41.79232" lon="9.25347">
        <ele>990.2</ele>
        <time>2015-06-19T05:15:27Z</time>
      </trkpt>
      <trkpt lat="41.79233" lon="9.25346">
        <ele>991.2</ele>
        <time>2015-06-19T05:15:34Z</time>
      </trkpt>
      <trkpt lat="41.79234" lon="9.25342">
        <ele>992.2</ele>
        <time>2015-06-19T05:15:41Z</time>
      </trkpt>
      <trkpt lat="41.79236" lon="9.25335">
        <ele>993.4</ele>
        <time>2015-06-19T05:15:52Z</time>
      </trkpt>
      <trkpt lat="41.7924" lon="9.2533">
        <ele>994.4</ele>
        <time>2015-06-19T05:16:02Z</time>
      </trkpt>
      <trkpt lat="41.79241" lon="9.25316">
        <ele>995.8</ele>
        <time>2015-06-19T05:16:16Z</time>
      </trkpt>
      <trkpt lat="41.79239" lon="9.25299">
        <ele>996.6</ele>
        <time>2015-06-19T05:16:33Z</time>
      </trkpt>
      <trkpt lat="41.79238" lon="9.25291">
        <ele>997</ele>
        <time>2015-06-19T05:16:41Z</time>
      </trkpt>
      <trkpt lat="41.79233" lon="9.25282">
        <ele>997.4</ele>
        <time>2015-06-19T05:17:00Z</time>
      </trkpt>
      <trkpt lat="41.79233" lon="9.2528">
        <ele>996.6</ele>
        <time>2015-06-19T05:17:06Z</time>
      </trkpt>
      <trkpt lat="41.79233" lon="9.25274">
        <ele>995.6</ele>
        <time>2015-06-19T05:17:12Z</time>
      </trkpt>
      <trkpt lat="41.79232" lon="9.25268">
        <ele>994.2</ele>
        <time>2015-06-19T05:17:19Z</time>
      </trkpt>
      <trkpt lat="41.79231" lon="9.25267">
        <ele>993.8</ele>
        <time>2015-06-19T05:17:21Z</time>
      </trkpt>
      <trkpt lat="41.79227" lon="9.25266">
        <ele>993.6</ele>
        <time>2015-06-19T05:17:24Z</time>
      </trkpt>
      <trkpt lat="41.7922" lon="9.25256">
        <ele>993.6</ele>
        <time>2015-06-19T05:17:35Z</time>
      </trkpt>
      <trkpt lat="41.79219" lon="9.25253">
        <ele>993.6</ele>
        <time>2015-06-19T05:17:37Z</time>
      </trkpt>
      <trkpt lat="41.79216" lon="9.25249">
        <ele>994.2</ele>
        <time>2015-06-19T05:17:41Z</time>
      </trkpt>
      <trkpt lat="41.79196" lon="9.25221">
        <ele>995.2</ele>
        <time>2015-06-19T05:18:30Z</time>
      </trkpt>
      <trkpt lat="41.79196" lon="9.25219">
        <ele>995.2</ele>
        <time>2015-06-19T05:18:33Z</time>
      </trkpt>
      <trkpt lat="41.79194" lon="9.25213">
        <ele>995.4</ele>
        <time>2015-06-19T05:18:37Z</time>
      </trkpt>
      <trkpt lat="41.79194" lon="9.2521">
        <ele>996</ele>
        <time>2015-06-19T05:18:40Z</time>
      </trkpt>
      <trkpt lat="41.79189" lon="9.25198">
        <ele>997.8</ele>
        <time>2015-06-19T05:18:51Z</time>
      </trkpt>
      <trkpt lat="41.79189" lon="9.25198">
        <ele>997.8</ele>
        <time>2015-06-19T05:18:54Z</time>
      </trkpt>
      <trkpt lat="41.79186" lon="9.25192">
        <ele>998</ele>
        <time>2015-06-19T05:19:01Z</time>
      </trkpt>
      <trkpt lat="41.79183" lon="9.25189">
        <ele>999.4</ele>
        <time>2015-06-19T05:19:08Z</time>
      </trkpt>
      <trkpt lat="41.79177" lon="9.25185">
        <ele>1001</ele>
        <time>2015-06-19T05:19:21Z</time>
      </trkpt>
      <trkpt lat="41.79162" lon="9.25176">
        <ele>1000.8</ele>
        <time>2015-06-19T05:19:50Z</time>
      </trkpt>
      <trkpt lat="41.79156" lon="9.25168">
        <ele>1002.2</ele>
        <time>2015-06-19T05:20:00Z</time>
      </trkpt>
      <trkpt lat="41.79154" lon="9.25163">
        <ele>1003.4</ele>
        <time>2015-06-19T05:20:12Z</time>
      </trkpt>
      <trkpt lat="41.79153" lon="9.2516">
        <ele>1004.4</ele>
        <time>2015-06-19T05:20:21Z</time>
      </trkpt>
      <trkpt lat="41.79152" lon="9.2515">
        <ele>1005.6</ele>
        <time>2015-06-19T05:20:33Z</time>
      </trkpt>
      <trkpt lat="41.79151" lon="9.25144">
        <ele>1007</ele>
        <time>2015-06-19T05:20:43Z</time>
      </trkpt>
      <trkpt lat="41.79151" lon="9.25141">
        <ele>1007.4</ele>
        <time>2015-06-19T05:20:49Z</time>
      </trkpt>
      <trkpt lat="41.79151" lon="9.25134">
        <ele>1009</ele>
        <time>2015-06-19T05:20:59Z</time>
      </trkpt>
      <trkpt lat="41.79146" lon="9.25118">
        <ele>1010.4</ele>
        <time>2015-06-19T05:21:16Z</time>
      </trkpt>
      <trkpt lat="41.79131" lon="9.25096">
        <ele>1011.2</ele>
        <time>2015-06-19T05:21:53Z</time>
      </trkpt>
      <trkpt lat="41.7913" lon="9.25095">
        <ele>1011.4</ele>
        <time>2015-06-19T05:21:54Z</time>
      </trkpt>
      <trkpt lat="41.79126" lon="9.25087">
        <ele>1012.6</ele>
        <time>2015-06-19T05:22:08Z</time>
      </trkpt>
      <trkpt lat="41.79128" lon="9.25085">
        <ele>1013.6</ele>
        <time>2015-06-19T05:22:19Z</time>
      </trkpt>
      <trkpt lat="41.79133" lon="9.25085">
        <ele>1014.6</ele>
        <time>2015-06-19T05:22:27Z</time>
      </trkpt>
      <trkpt lat="41.7913" lon="9.2508">
        <ele>1015.8</ele>
        <time>2015-06-19T05:22:37Z</time>
      </trkpt>
      <trkpt lat="41.79129" lon="9.25073">
        <ele>1017.2</ele>
        <time>2015-06-19T05:22:46Z</time>
      </trkpt>
      <trkpt lat="41.79126" lon="9.25073">
        <ele>1018.4</ele>
        <time>2015-06-19T05:22:56Z</time>
      </trkpt>
      <trkpt lat="41.79126" lon="9.25071">
        <ele>1019.4</ele>
        <time>2015-06-19T05:23:05Z</time>
      </trkpt>
      <trkpt lat="41.79124" lon="9.25073">
        <ele>1020</ele>
        <time>2015-06-19T05:23:11Z</time>
      </trkpt>
      <trkpt lat="41.791" lon="9.25058">
        <ele>1021.4</ele>
        <time>2015-06-19T05:24:05Z</time>
      </trkpt>
      <trkpt lat="41.79085" lon="9.25045">
        <ele>1019.8</ele>
        <time>2015-06-19T05:24:25Z</time>
      </trkpt>
      <trkpt lat="41.79071" lon="9.25044">
        <ele>1019</ele>
        <time>2015-06-19T05:24:37Z</time>
      </trkpt>
      <trkpt lat="41.79065" lon="9.25044">
        <ele>1018.8</ele>
        <time>2015-06-19T05:24:43Z</time>
      </trkpt>
      <trkpt lat="41.79062" lon="9.25041">
        <ele>1018.8</ele>
        <time>2015-06-19T05:24:53Z</time>
      </trkpt>
      <trkpt lat="41.79058" lon="9.2504">
        <ele>1019.8</ele>
        <time>2015-06-19T05:24:59Z</time>
      </trkpt>
      <trkpt lat="41.79053" lon="9.25036">
        <ele>1020.8</ele>
        <time>2015-06-19T05:25:08Z</time>
      </trkpt>
      <trkpt lat="41.79053" lon="9.25036">
        <ele>1021.2</ele>
        <time>2015-06-19T05:25:09Z</time>
      </trkpt>
      <trkpt lat="41.79046" lon="9.25032">
        <ele>1022.4</ele>
        <time>2015-06-19T05:25:20Z</time>
      </trkpt>
      <trkpt lat="41.79039" lon="9.25024">
        <ele>1023.8</ele>
        <time>2015-06-19T05:25:36Z</time>
      </trkpt>
      <trkpt lat="41.79037" lon="9.2502">
        <ele>1024.4</ele>
        <time>2015-06-19T05:25:45Z</time>
      </trkpt>
      <trkpt lat="41.79033" lon="9.25012">
        <ele>1025.4</ele>
        <time>2015-06-19T05:25:54Z</time>
      </trkpt>
      <trkpt lat="41.7903" lon="9.25007">
        <ele>1026.6</ele>
        <time>2015-06-19T05:26:01Z</time>
      </trkpt>
      <trkpt lat="41.79029" lon="9.25006">
        <ele>1027.6</ele>
        <time>2015-06-19T05:26:08Z</time>
      </trkpt>
      <trkpt lat="41.7903" lon="9.25005">
        <ele>1028.8</ele>
        <time>2015-06-19T05:26:16Z</time>
      </trkpt>
      <trkpt lat="41.79026" lon="9.24999">
        <ele>1029.8</ele>
        <time>2015-06-19T05:26:23Z</time>
      </trkpt>
      <trkpt lat="41.79028" lon="9.24997">
        <ele>1030.8</ele>
        <time>2015-06-19T05:26:30Z</time>
      </trkpt>
      <trkpt lat="41.79029" lon="9.24991">
        <ele>1032.2</ele>
        <time>2015-06-19T05:26:38Z</time>
      </trkpt>
      <trkpt lat="41.79031" lon="9.24989">
        <ele>1033</ele>
        <time>2015-06-19T05:26:46Z</time>
      </trkpt>
      <trkpt lat="41.79032" lon="9.24988">
        <ele>1033.8</ele>
        <time>2015-06-19T05:27:19Z</time>
      </trkpt>
      <trkpt lat="41.79041" lon="9.24994">
        <ele>1034.6</ele>
        <time>2015-06-19T05:27:51Z</time>
      </trkpt>
      <trkpt lat="41.79042" lon="9.24994">
        <ele>1035.6</ele>
        <time>2015-06-19T05:27:59Z</time>
      </trkpt>
      <trkpt lat="41.79041" lon="9.24992">
        <ele>1036.6</ele>
        <time>2015-06-19T05:28:08Z</time>
      </trkpt>
      <trkpt lat="41.79042" lon="9.24989">
        <ele>1038</ele>
        <time>2015-06-19T05:28:19Z</time>
      </trkpt>
      <trkpt lat="41.79045" lon="9.24989">
        <ele>1039</ele>
        <time>2015-06-19T05:28:27Z</time>
      </trkpt>
      <trkpt lat="41.79046" lon="9.24987">
        <ele>1040.2</ele>
        <time>2015-06-19T05:28:36Z</time>
      </trkpt>
      <trkpt lat="41.79046" lon="9.24983">
        <ele>1041.2</ele>
        <time>2015-06-19T05:28:45Z</time>
      </trkpt>
      <trkpt lat="41.79044" lon="9.24978">
        <ele>1042.2</ele>
        <time>2015-06-19T05:28:53Z</time>
      </trkpt>
      <trkpt lat="41.79042" lon="9.24976">
        <ele>1042.6</ele>
        <time>2015-06-19T05:28:56Z</time>
      </trkpt>
      <trkpt lat="41.79038" lon="9.24972">
        <ele>1043.6</ele>
        <time>2015-06-19T05:29:03Z</time>
      </trkpt>
      <trkpt lat="41.79034" lon="9.24966">
        <ele>1044.8</ele>
        <time>2015-06-19T05:29:14Z</time>
      </trkpt>
      <trkpt lat="41.79038" lon="9.24965">
        <ele>1046</ele>
        <time>2015-06-19T05:29:27Z</time>
      </trkpt>
      <trkpt lat="41.79043" lon="9.24967">
        <ele>1047</ele>
        <time>2015-06-19T05:29:35Z</time>
      </trkpt>
      <trkpt lat="41.79046" lon="9.24966">
        <ele>1048</ele>
        <time>2015-06-19T05:29:43Z</time>
      </trkpt>
      <trkpt lat="41.79049" lon="9.24962">
        <ele>1049.4</ele>
        <time>2015-06-19T05:29:56Z</time>
      </trkpt>
      <trkpt lat="41.79049" lon="9.2496">
        <ele>1050.6</ele>
        <time>2015-06-19T05:30:06Z</time>
      </trkpt>
      <trkpt lat="41.79048" lon="9.24958">
        <ele>1051.2</ele>
        <time>2015-06-19T05:30:14Z</time>
      </trkpt>
      <trkpt lat="41.79046" lon="9.24955">
        <ele>1052.8</ele>
        <time>2015-06-19T05:30:24Z</time>
      </trkpt>
      <trkpt lat="41.79045" lon="9.24954">
        <ele>1053.2</ele>
        <time>2015-06-19T05:30:28Z</time>
      </trkpt>
      <trkpt lat="41.79041" lon="9.24954">
        <ele>1053.8</ele>
        <time>2015-06-19T05:30:33Z</time>
      </trkpt>
      <trkpt lat="41.79039" lon="9.24955">
        <ele>1054.2</ele>
        <time>2015-06-19T05:30:35Z</time>
      </trkpt>
      <trkpt lat="41.79039" lon="9.24955">
        <ele>1054.6</ele>
        <time>2015-06-19T05:30:38Z</time>
      </trkpt>
      <trkpt lat="41.79038" lon="9.24954">
        <ele>1055</ele>
        <time>2015-06-19T05:30:49Z</time>
      </trkpt>
      <trkpt lat="41.79036" lon="9.24951">
        <ele>1056.4</ele>
        <time>2015-06-19T05:30:58Z</time>
      </trkpt>
      <trkpt lat="41.79034" lon="9.24948">
        <ele>1057.4</ele>
        <time>2015-06-19T05:31:08Z</time>
      </trkpt>
      <trkpt lat="41.79034" lon="9.24947">
        <ele>1058.6</ele>
        <time>2015-06-19T05:31:17Z</time>
      </trkpt>
      <trkpt lat="41.79033" lon="9.24946">
        <ele>1059.6</ele>
        <time>2015-06-19T05:31:25Z</time>
      </trkpt>
      <trkpt lat="41.7902" lon="9.24945">
        <ele>1061.8</ele>
        <time>2015-06-19T05:31:48Z</time>
      </trkpt>
      <trkpt lat="41.79008" lon="9.24941">
        <ele>1062.6</ele>
        <time>2015-06-19T05:32:15Z</time>
      </trkpt>
      <trkpt lat="41.79003" lon="9.24939">
        <ele>1063.4</ele>
        <time>2015-06-19T05:32:26Z</time>
      </trkpt>
      <trkpt lat="41.79004" lon="9.24938">
        <ele>1065</ele>
        <time>2015-06-19T05:32:36Z</time>
      </trkpt>
      <trkpt lat="41.79005" lon="9.24936">
        <ele>1066</ele>
        <time>2015-06-19T05:32:43Z</time>
      </trkpt>
      <trkpt lat="41.79002" lon="9.24933">
        <ele>1067.4</ele>
        <time>2015-06-19T05:32:53Z</time>
      </trkpt>
      <trkpt lat="41.79002" lon="9.24933">
        <ele>1067.4</ele>
        <time>2015-06-19T05:32:54Z</time>
      </trkpt>
      <trkpt lat="41.79" lon="9.24934">
        <ele>1068.6</ele>
        <time>2015-06-19T05:33:04Z</time>
      </trkpt>
      <trkpt lat="41.78997" lon="9.24934">
        <ele>1069.6</ele>
        <time>2015-06-19T05:33:14Z</time>
      </trkpt>
      <trkpt lat="41.78996" lon="9.24934">
        <ele>1070.8</ele>
        <time>2015-06-19T05:33:27Z</time>
      </trkpt>
      <trkpt lat="41.78997" lon="9.24933">
        <ele>1072.2</ele>
        <time>2015-06-19T05:33:39Z</time>
      </trkpt>
      <trkpt lat="41.79" lon="9.24931">
        <ele>1073.2</ele>
        <time>2015-06-19T05:33:54Z</time>
      </trkpt>
      <trkpt lat="41.79002" lon="9.24929">
        <ele>1073.8</ele>
        <time>2015-06-19T05:34:00Z</time>
      </trkpt>
      <trkpt lat="41.78999" lon="9.24924">
        <ele>1075.6</ele>
        <time>2015-06-19T05:34:10Z</time>
      </trkpt>
      <trkpt lat="41.78977" lon="9.24916">
        <ele>1077.4</ele>
        <time>2015-06-19T05:34:38Z</time>
      </trkpt>
      <trkpt lat="41.78967" lon="9.24917">
        <ele>1077.6</ele>
        <time>2015-06-19T05:34:57Z</time>
      </trkpt>
      <trkpt lat="41.78967" lon="9.24916">
        <ele>1076.8</ele>
        <time>2015-06-19T05:35:04Z</time>
      </trkpt>
      <trkpt lat="41.78968" lon="9.24913">
        <ele>1075.8</ele>
        <time>2015-06-19T05:35:11Z</time>
      </trkpt>
      <trkpt lat="41.78974" lon="9.2491">
        <ele>1074.8</ele>
        <time>2015-06-19T05:35:18Z</time>
      </trkpt>
      <trkpt lat="41.78973" lon="9.24909">
        <ele>1073.8</ele>
        <time>2015-06-19T05:35:24Z</time>
      </trkpt>
      <trkpt lat="41.78976" lon="9.24905">
        <ele>1072.6</ele>
        <time>2015-06-19T05:35:30Z</time>
      </trkpt>
      <trkpt lat="41.78973" lon="9.24904">
        <ele>1071.6</ele>
        <time>2015-06-19T05:35:36Z</time>
      </trkpt>
      <trkpt lat="41.78968" lon="9.24898">
        <ele>1071</ele>
        <time>2015-06-19T05:35:40Z</time>
      </trkpt>
      <trkpt lat="41.78962" lon="9.24896">
        <ele>1069.2</ele>
        <time>2015-06-19T05:35:48Z</time>
      </trkpt>
      <trkpt lat="41.7896" lon="9.24892">
        <ele>1068.8</ele>
        <time>2015-06-19T05:35:51Z</time>
      </trkpt>
      <trkpt lat="41.78958" lon="9.24883">
        <ele>1068.8</ele>
        <time>2015-06-19T05:36:07Z</time>
      </trkpt>
      <trkpt lat="41.78957" lon="9.24884">
        <ele>1069.8</ele>
        <time>2015-06-19T05:36:13Z</time>
      </trkpt>
      <trkpt lat="41.78956" lon="9.2488">
        <ele>1071.2</ele>
        <time>2015-06-19T05:36:21Z</time>
      </trkpt>
      <trkpt lat="41.78954" lon="9.24875">
        <ele>1071.8</ele>
        <time>2015-06-19T05:36:27Z</time>
      </trkpt>
      <trkpt lat="41.78953" lon="9.24872">
        <ele>1073.2</ele>
        <time>2015-06-19T05:36:35Z</time>
      </trkpt>
      <trkpt lat="41.7895" lon="9.24866">
        <ele>1074.2</ele>
        <time>2015-06-19T05:36:43Z</time>
      </trkpt>
      <trkpt lat="41.78944" lon="9.24863">
        <ele>1076</ele>
        <time>2015-06-19T05:36:53Z</time>
      </trkpt>
      <trkpt lat="41.78942" lon="9.24864">
        <ele>1076.6</ele>
        <time>2015-06-19T05:37:02Z</time>
      </trkpt>
      <trkpt lat="41.78944" lon="9.24865">
        <ele>1077.8</ele>
        <time>2015-06-19T05:37:11Z</time>
      </trkpt>
      <trkpt lat="41.78944" lon="9.24868">
        <ele>1078.4</ele>
        <time>2015-06-19T05:37:17Z</time>
      </trkpt>
      <trkpt lat="41.78946" lon="9.24865">
        <ele>1079.8</ele>
        <time>2015-06-19T05:37:25Z</time>
      </trkpt>
      <trkpt lat="41.78951" lon="9.2486">
        <ele>1080.6</ele>
        <time>2015-06-19T05:37:32Z</time>
      </trkpt>
      <trkpt lat="41.78954" lon="9.24861">
        <ele>1081.4</ele>
        <time>2015-06-19T05:37:38Z</time>
      </trkpt>
      <trkpt lat="41.78956" lon="9.24861">
        <ele>1082.2</ele>
        <time>2015-06-19T05:37:43Z</time>
      </trkpt>
      <trkpt lat="41.78957" lon="9.24855">
        <ele>1083</ele>
        <time>2015-06-19T05:37:52Z</time>
      </trkpt>
      <trkpt lat="41.78959" lon="9.24854">
        <ele>1084.2</ele>
        <time>2015-06-19T05:38:02Z</time>
      </trkpt>
      <trkpt lat="41.78962" lon="9.24856">
        <ele>1085.2</ele>
        <time>2015-06-19T05:38:10Z</time>
      </trkpt>
      <trkpt lat="41.78966" lon="9.24854">
        <ele>1086.2</ele>
        <time>2015-06-19T05:38:19Z</time>
      </trkpt>
      <trkpt lat="41.78969" lon="9.24853">
        <ele>1087.4</ele>
        <time>2015-06-19T05:38:27Z</time>
      </trkpt>
      <trkpt lat="41.78973" lon="9.24859">
        <ele>1088.2</ele>
        <time>2015-06-19T05:38:34Z</time>
      </trkpt>
      <trkpt lat="41.78973" lon="9.24861">
        <ele>1088.4</ele>
        <time>2015-06-19T05:38:36Z</time>
      </trkpt>
      <trkpt lat="41.78976" lon="9.24868">
        <ele>1088.8</ele>
        <time>2015-06-19T05:38:44Z</time>
      </trkpt>
      <trkpt lat="41.78979" lon="9.24874">
        <ele>1089.4</ele>
        <time>2015-06-19T05:38:52Z</time>
      </trkpt>
      <trkpt lat="41.78983" lon="9.24878">
        <ele>1091</ele>
        <time>2015-06-19T05:39:03Z</time>
      </trkpt>
      <trkpt lat="41.78986" lon="9.24882">
        <ele>1091.6</ele>
        <time>2015-06-19T05:39:11Z</time>
      </trkpt>
      <trkpt lat="41.78989" lon="9.24886">
        <ele>1092.6</ele>
        <time>2015-06-19T05:39:19Z</time>
      </trkpt>
      <trkpt lat="41.78991" lon="9.24891">
        <ele>1094</ele>
        <time>2015-06-19T05:39:27Z</time>
      </trkpt>
      <trkpt lat="41.78991" lon="9.24892">
        <ele>1095</ele>
        <time>2015-06-19T05:39:36Z</time>
      </trkpt>
      <trkpt lat="41.78993" lon="9.24892">
        <ele>1095.6</ele>
        <time>2015-06-19T05:39:42Z</time>
      </trkpt>
      <trkpt lat="41.78993" lon="9.24896">
        <ele>1097</ele>
        <time>2015-06-19T05:39:50Z</time>
      </trkpt>
      <trkpt lat="41.78996" lon="9.24897">
        <ele>1098.2</ele>
        <time>2015-06-19T05:39:58Z</time>
      </trkpt>
      <trkpt lat="41.78998" lon="9.249">
        <ele>1099.2</ele>
        <time>2015-06-19T05:40:06Z</time>
      </trkpt>
      <trkpt lat="41.78998" lon="9.24903">
        <ele>1100.6</ele>
        <time>2015-06-19T05:40:17Z</time>
      </trkpt>
      <trkpt lat="41.79006" lon="9.24901">
        <ele>1101.6</ele>
        <time>2015-06-19T05:40:51Z</time>
      </trkpt>
      <trkpt lat="41.79007" lon="9.24903">
        <ele>1102.4</ele>
        <time>2015-06-19T05:41:00Z</time>
      </trkpt>
      <trkpt lat="41.79007" lon="9.24903">
        <ele>1103.2</ele>
        <time>2015-06-19T05:41:04Z</time>
      </trkpt>
      <trkpt lat="41.79009" lon="9.24903">
        <ele>1103.8</ele>
        <time>2015-06-19T05:41:08Z</time>
      </trkpt>
      <trkpt lat="41.79012" lon="9.24901">
        <ele>1104.8</ele>
        <time>2015-06-19T05:41:15Z</time>
      </trkpt>
      <trkpt lat="41.79016" lon="9.24901">
        <ele>1106</ele>
        <time>2015-06-19T05:41:23Z</time>
      </trkpt>
      <trkpt lat="41.79018" lon="9.24902">
        <ele>1107.2</ele>
        <time>2015-06-19T05:41:32Z</time>
      </trkpt>
      <trkpt lat="41.7902" lon="9.24904">
        <ele>1108.4</ele>
        <time>2015-06-19T05:41:41Z</time>
      </trkpt>
      <trkpt lat="41.79024" lon="9.24904">
        <ele>1109.4</ele>
        <time>2015-06-19T05:41:48Z</time>
      </trkpt>
      <trkpt lat="41.79028" lon="9.24905">
        <ele>1110.2</ele>
        <time>2015-06-19T05:41:53Z</time>
      </trkpt>
      <trkpt lat="41.79029" lon="9.24906">
        <ele>1110.8</ele>
        <time>2015-06-19T05:41:58Z</time>
      </trkpt>
      <trkpt lat="41.79032" lon="9.24907">
        <ele>1111.4</ele>
        <time>2015-06-19T05:42:05Z</time>
      </trkpt>
      <trkpt lat="41.79034" lon="9.24907">
        <ele>1111.8</ele>
        <time>2015-06-19T05:42:12Z</time>
      </trkpt>
      <trkpt lat="41.79032" lon="9.24898">
        <ele>1112</ele>
        <time>2015-06-19T05:43:32Z</time>
      </trkpt>
      <trkpt lat="41.79036" lon="9.24906">
        <ele>1112.8</ele>
        <time>2015-06-19T05:44:50Z</time>
      </trkpt>
      <trkpt lat="41.79037" lon="9.24905">
        <ele>1113.6</ele>
        <time>2015-06-19T05:44:57Z</time>
      </trkpt>
      <trkpt lat="41.7904" lon="9.24904">
        <ele>1114.8</ele>
        <time>2015-06-19T05:45:05Z</time>
      </trkpt>
      <trkpt lat="41.79042" lon="9.24901">
        <ele>1115.6</ele>
        <time>2015-06-19T05:45:13Z</time>
      </trkpt>
      <trkpt lat="41.79044" lon="9.24898">
        <ele>1116</ele>
        <time>2015-06-19T05:45:16Z</time>
      </trkpt>
      <trkpt lat="41.79042" lon="9.24897">
        <ele>1117</ele>
        <time>2015-06-19T05:45:23Z</time>
      </trkpt>
      <trkpt lat="41.79042" lon="9.24895">
        <ele>1118.2</ele>
        <time>2015-06-19T05:45:32Z</time>
      </trkpt>
      <trkpt lat="41.79039" lon="9.24893">
        <ele>1119.2</ele>
        <time>2015-06-19T05:45:41Z</time>
      </trkpt>
      <trkpt lat="41.79039" lon="9.24893">
        <ele>1120.4</ele>
        <time>2015-06-19T05:45:53Z</time>
      </trkpt>
      <trkpt lat="41.7904" lon="9.24888">
        <ele>1121.2</ele>
        <time>2015-06-19T05:46:01Z</time>
      </trkpt>
      <trkpt lat="41.7904" lon="9.24885">
        <ele>1122.4</ele>
        <time>2015-06-19T05:46:10Z</time>
      </trkpt>
      <trkpt lat="41.79039" lon="9.24885">
        <ele>1123.6</ele>
        <time>2015-06-19T05:46:18Z</time>
      </trkpt>
      <trkpt lat="41.79039" lon="9.24882">
        <ele>1124.8</ele>
        <time>2015-06-19T05:46:27Z</time>
      </trkpt>
      <trkpt lat="41.79041" lon="9.24881">
        <ele>1125.8</ele>
        <time>2015-06-19T05:46:38Z</time>
      </trkpt>
      <trkpt lat="41.79044" lon="9.2488">
        <ele>1127</ele>
        <time>2015-06-19T05:46:47Z</time>
      </trkpt>
      <trkpt lat="41.79042" lon="9.24879">
        <ele>1128.2</ele>
        <time>2015-06-19T05:46:58Z</time>
      </trkpt>
      <trkpt lat="41.79037" lon="9.24874">
        <ele>1129.6</ele>
        <time>2015-06-19T05:47:09Z</time>
      </trkpt>
      <trkpt lat="41.79036" lon="9.24872">
        <ele>1130.6</ele>
        <time>2015-06-19T05:47:18Z</time>
      </trkpt>
      <trkpt lat="41.7903" lon="9.24869">
        <ele>1132</ele>
        <time>2015-06-19T05:47:31Z</time>
      </trkpt>
      <trkpt lat="41.79026" lon="9.24856">
        <ele>1133.2</ele>
        <time>2015-06-19T05:47:52Z</time>
      </trkpt>
      <trkpt lat="41.79026" lon="9.24847">
        <ele>1134</ele>
        <time>2015-06-19T05:48:02Z</time>
      </trkpt>
      <trkpt lat="41.79027" lon="9.24842">
        <ele>1135.6</ele>
        <time>2015-06-19T05:48:13Z</time>
      </trkpt>
      <trkpt lat="41.79026" lon="9.24835">
        <ele>1136.2</ele>
        <time>2015-06-19T05:48:23Z</time>
      </trkpt>
      <trkpt lat="41.79022" lon="9.2483">
        <ele>1137</ele>
        <time>2015-06-19T05:48:32Z</time>
      </trkpt>
      <trkpt lat="41.79023" lon="9.24826">
        <ele>1138.2</ele>
        <time>2015-06-19T05:48:40Z</time>
      </trkpt>
      <trkpt lat="41.79023" lon="9.24822">
        <ele>1139.4</ele>
        <time>2015-06-19T05:48:50Z</time>
      </trkpt>
      <trkpt lat="41.79029" lon="9.24823">
        <ele>1140.4</ele>
        <time>2015-06-19T05:49:01Z</time>
      </trkpt>
      <trkpt lat="41.79033" lon="9.24828">
        <ele>1142</ele>
        <time>2015-06-19T05:49:11Z</time>
      </trkpt>
      <trkpt lat="41.79034" lon="9.2483">
        <ele>1142</ele>
        <time>2015-06-19T05:49:13Z</time>
      </trkpt>
      <trkpt lat="41.79034" lon="9.24835">
        <ele>1142.6</ele>
        <time>2015-06-19T05:49:18Z</time>
      </trkpt>
      <trkpt lat="41.79033" lon="9.24835">
        <ele>1144</ele>
        <time>2015-06-19T05:49:29Z</time>
      </trkpt>
      <trkpt lat="41.79033" lon="9.24833">
        <ele>1145.2</ele>
        <time>2015-06-19T05:49:41Z</time>
      </trkpt>
      <trkpt lat="41.79035" lon="9.24827">
        <ele>1146</ele>
        <time>2015-06-19T05:49:56Z</time>
      </trkpt>
      <trkpt lat="41.79036" lon="9.24831">
        <ele>1146.8</ele>
        <time>2015-06-19T05:50:05Z</time>
      </trkpt>
      <trkpt lat="41.79038" lon="9.24831">
        <ele>1148.4</ele>
        <time>2015-06-19T05:50:16Z</time>
      </trkpt>
      <trkpt lat="41.79038" lon="9.24836">
        <ele>1149</ele>
        <time>2015-06-19T05:50:24Z</time>
      </trkpt>
      <trkpt lat="41.79042" lon="9.24835">
        <ele>1150</ele>
        <time>2015-06-19T05:50:34Z</time>
      </trkpt>
      <trkpt lat="41.79043" lon="9.24836">
        <ele>1151.2</ele>
        <time>2015-06-19T05:50:42Z</time>
      </trkpt>
      <trkpt lat="41.79047" lon="9.24835">
        <ele>1152.4</ele>
        <time>2015-06-19T05:50:52Z</time>
      </trkpt>
      <trkpt lat="41.7905" lon="9.24831">
        <ele>1153.4</ele>
        <time>2015-06-19T05:51:02Z</time>
      </trkpt>
      <trkpt lat="41.7905" lon="9.24823">
        <ele>1154.8</ele>
        <time>2015-06-19T05:51:15Z</time>
      </trkpt>
      <trkpt lat="41.79049" lon="9.24819">
        <ele>1155.6</ele>
        <time>2015-06-19T05:51:23Z</time>
      </trkpt>
      <trkpt lat="41.7905" lon="9.24819">
        <ele>1156.8</ele>
        <time>2015-06-19T05:51:35Z</time>
      </trkpt>
      <trkpt lat="41.79052" lon="9.24822">
        <ele>1157.6</ele>
        <time>2015-06-19T05:51:42Z</time>
      </trkpt>
      <trkpt lat="41.79056" lon="9.24824">
        <ele>1159</ele>
        <time>2015-06-19T05:51:54Z</time>
      </trkpt>
      <trkpt lat="41.7906" lon="9.2482">
        <ele>1159.8</ele>
        <time>2015-06-19T05:52:02Z</time>
      </trkpt>
      <trkpt lat="41.7906" lon="9.24816">
        <ele>1161</ele>
        <time>2015-06-19T05:52:11Z</time>
      </trkpt>
      <trkpt lat="41.79061" lon="9.24812">
        <ele>1162.4</ele>
        <time>2015-06-19T05:52:22Z</time>
      </trkpt>
      <trkpt lat="41.79059" lon="9.2481">
        <ele>1163.2</ele>
        <time>2015-06-19T05:52:29Z</time>
      </trkpt>
      <trkpt lat="41.79059" lon="9.2481">
        <ele>1164.6</ele>
        <time>2015-06-19T05:52:48Z</time>
      </trkpt>
      <trkpt lat="41.79063" lon="9.24809">
        <ele>1165.8</ele>
        <time>2015-06-19T05:52:57Z</time>
      </trkpt>
      <trkpt lat="41.79066" lon="9.24813">
        <ele>1166.8</ele>
        <time>2015-06-19T05:53:09Z</time>
      </trkpt>
      <trkpt lat="41.79066" lon="9.24814">
        <ele>1168</ele>
        <time>2015-06-19T05:53:16Z</time>
      </trkpt>
      <trkpt lat="41.79067" lon="9.24818">
        <ele>1168.8</ele>
        <time>2015-06-19T05:53:23Z</time>
      </trkpt>
      <trkpt lat="41.7907" lon="9.24821">
        <ele>1170.2</ele>
        <time>2015-06-19T05:53:33Z</time>
      </trkpt>
      <trkpt lat="41.7907" lon="9.24821">
        <ele>1170.4</ele>
        <time>2015-06-19T05:53:34Z</time>
      </trkpt>
      <trkpt lat="41.79069" lon="9.2482">
        <ele>1170.4</ele>
        <time>2015-06-19T05:53:36Z</time>
      </trkpt>
      <trkpt lat="41.7907" lon="9.24821">
        <ele>1171.2</ele>
        <time>2015-06-19T05:53:44Z</time>
      </trkpt>
      <trkpt lat="41.79071" lon="9.2482">
        <ele>1172.2</ele>
        <time>2015-06-19T05:53:51Z</time>
      </trkpt>
      <trkpt lat="41.79075" lon="9.24816">
        <ele>1173.6</ele>
        <time>2015-06-19T05:54:02Z</time>
      </trkpt>
      <trkpt lat="41.79078" lon="9.24818">
        <ele>1174.6</ele>
        <time>2015-06-19T05:54:11Z</time>
      </trkpt>
      <trkpt lat="41.7908" lon="9.24818">
        <ele>1176</ele>
        <time>2015-06-19T05:54:20Z</time>
      </trkpt>
      <trkpt lat="41.79081" lon="9.24818">
        <ele>1176.8</ele>
        <time>2015-06-19T05:54:28Z</time>
      </trkpt>
      <trkpt lat="41.79084" lon="9.24818">
        <ele>1178</ele>
        <time>2015-06-19T05:54:38Z</time>
      </trkpt>
      <trkpt lat="41.79086" lon="9.24819">
        <ele>1178.8</ele>
        <time>2015-06-19T05:54:47Z</time>
      </trkpt>
      <trkpt lat="41.79086" lon="9.24819">
        <ele>1178.6</ele>
        <time>2015-06-19T05:54:53Z</time>
      </trkpt>
      <trkpt lat="41.791" lon="9.24816">
        <ele>1169.8</ele>
        <time>2015-06-19T06:01:50Z</time>
      </trkpt>
      <trkpt lat="41.79103" lon="9.24811">
        <ele>1168.2</ele>
        <time>2015-06-19T06:02:04Z</time>
      </trkpt>
      <trkpt lat="41.79102" lon="9.24807">
        <ele>1168.4</ele>
        <time>2015-06-19T06:02:12Z</time>
      </trkpt>
      <trkpt lat="41.79105" lon="9.24808">
        <ele>1167.6</ele>
        <time>2015-06-19T06:02:18Z</time>
      </trkpt>
      <trkpt lat="41.79111" lon="9.24813">
        <ele>1166</ele>
        <time>2015-06-19T06:02:27Z</time>
      </trkpt>
      <trkpt lat="41.79114" lon="9.24809">
        <ele>1164.6</ele>
        <time>2015-06-19T06:02:37Z</time>
      </trkpt>
      <trkpt lat="41.79112" lon="9.24803">
        <ele>1163.6</ele>
        <time>2015-06-19T06:02:45Z</time>
      </trkpt>
      <trkpt lat="41.79112" lon="9.24798">
        <ele>1162.2</ele>
        <time>2015-06-19T06:03:17Z</time>
      </trkpt>
      <trkpt lat="41.79111" lon="9.24793">
        <ele>1161.2</ele>
        <time>2015-06-19T06:03:25Z</time>
      </trkpt>
      <trkpt lat="41.79109" lon="9.24789">
        <ele>1160.4</ele>
        <time>2015-06-19T06:03:30Z</time>
      </trkpt>
      <trkpt lat="41.7911" lon="9.24787">
        <ele>1160</ele>
        <time>2015-06-19T06:03:32Z</time>
      </trkpt>
      <trkpt lat="41.7911" lon="9.24786">
        <ele>1160</ele>
        <time>2015-06-19T06:03:34Z</time>
      </trkpt>
      <trkpt lat="41.79113" lon="9.24785">
        <ele>1158.6</ele>
        <time>2015-06-19T06:03:45Z</time>
      </trkpt>
      <trkpt lat="41.79116" lon="9.24786">
        <ele>1157.6</ele>
        <time>2015-06-19T06:03:52Z</time>
      </trkpt>
      <trkpt lat="41.79119" lon="9.24787">
        <ele>1156.6</ele>
        <time>2015-06-19T06:03:59Z</time>
      </trkpt>
      <trkpt lat="41.79122" lon="9.24786">
        <ele>1155.4</ele>
        <time>2015-06-19T06:04:05Z</time>
      </trkpt>
      <trkpt lat="41.79122" lon="9.24783">
        <ele>1154</ele>
        <time>2015-06-19T06:04:13Z</time>
      </trkpt>
      <trkpt lat="41.79121" lon="9.24778">
        <ele>1153</ele>
        <time>2015-06-19T06:04:20Z</time>
      </trkpt>
      <trkpt lat="41.79121" lon="9.24775">
        <ele>1151.4</ele>
        <time>2015-06-19T06:04:29Z</time>
      </trkpt>
      <trkpt lat="41.79124" lon="9.24775">
        <ele>1150.6</ele>
        <time>2015-06-19T06:04:37Z</time>
      </trkpt>
      <trkpt lat="41.79128" lon="9.24774">
        <ele>1149</ele>
        <time>2015-06-19T06:04:47Z</time>
      </trkpt>
      <trkpt lat="41.79127" lon="9.24771">
        <ele>1147.6</ele>
        <time>2015-06-19T06:04:58Z</time>
      </trkpt>
      <trkpt lat="41.79129" lon="9.24768">
        <ele>1146.8</ele>
        <time>2015-06-19T06:05:11Z</time>
      </trkpt>
      <trkpt lat="41.7913" lon="9.24769">
        <ele>1145.8</ele>
        <time>2015-06-19T06:05:18Z</time>
      </trkpt>
      <trkpt lat="41.79134" lon="9.24773">
        <ele>1144</ele>
        <time>2015-06-19T06:05:29Z</time>
      </trkpt>
      <trkpt lat="41.79138" lon="9.24774">
        <ele>1143</ele>
        <time>2015-06-19T06:05:38Z</time>
      </trkpt>
      <trkpt lat="41.7914" lon="9.24773">
        <ele>1142</ele>
        <time>2015-06-19T06:05:45Z</time>
      </trkpt>
      <trkpt lat="41.79143" lon="9.24775">
        <ele>1140.8</ele>
        <time>2015-06-19T06:05:52Z</time>
      </trkpt>
      <trkpt lat="41.79149" lon="9.24772">
        <ele>1139.4</ele>
        <time>2015-06-19T06:05:59Z</time>
      </trkpt>
      <trkpt lat="41.79149" lon="9.2477">
        <ele>1138.2</ele>
        <time>2015-06-19T06:06:07Z</time>
      </trkpt>
      <trkpt lat="41.79151" lon="9.24765">
        <ele>1137</ele>
        <time>2015-06-19T06:06:15Z</time>
      </trkpt>
      <trkpt lat="41.79151" lon="9.24762">
        <ele>1136</ele>
        <time>2015-06-19T06:06:22Z</time>
      </trkpt>
      <trkpt lat="41.79147" lon="9.24755">
        <ele>1134.4</ele>
        <time>2015-06-19T06:06:32Z</time>
      </trkpt>
      <trkpt lat="41.79146" lon="9.2475">
        <ele>1133</ele>
        <time>2015-06-19T06:06:43Z</time>
      </trkpt>
      <trkpt lat="41.79142" lon="9.24746">
        <ele>1131.8</ele>
        <time>2015-06-19T06:06:53Z</time>
      </trkpt>
      <trkpt lat="41.79139" lon="9.24741">
        <ele>1130.6</ele>
        <time>2015-06-19T06:07:01Z</time>
      </trkpt>
      <trkpt lat="41.79139" lon="9.24734">
        <ele>1129.4</ele>
        <time>2015-06-19T06:07:09Z</time>
      </trkpt>
      <trkpt lat="41.79139" lon="9.2473">
        <ele>1128</ele>
        <time>2015-06-19T06:07:16Z</time>
      </trkpt>
      <trkpt lat="41.79139" lon="9.24726">
        <ele>1126.8</ele>
        <time>2015-06-19T06:07:24Z</time>
      </trkpt>
      <trkpt lat="41.79138" lon="9.24723">
        <ele>1125.6</ele>
        <time>2015-06-19T06:07:31Z</time>
      </trkpt>
      <trkpt lat="41.79133" lon="9.24716">
        <ele>1124.2</ele>
        <time>2015-06-19T06:07:41Z</time>
      </trkpt>
      <trkpt lat="41.79128" lon="9.2471">
        <ele>1122.8</ele>
        <time>2015-06-19T06:07:51Z</time>
      </trkpt>
      <trkpt lat="41.79119" lon="9.24699">
        <ele>1122.4</ele>
        <time>2015-06-19T06:08:07Z</time>
      </trkpt>
      <trkpt lat="41.79118" lon="9.24697">
        <ele>1122.4</ele>
        <time>2015-06-19T06:08:10Z</time>
      </trkpt>
      <trkpt lat="41.79115" lon="9.24692">
        <ele>1121.2</ele>
        <time>2015-06-19T06:08:18Z</time>
      </trkpt>
      <trkpt lat="41.79111" lon="9.24685">
        <ele>1119.8</ele>
        <time>2015-06-19T06:08:27Z</time>
      </trkpt>
      <trkpt lat="41.7911" lon="9.24682">
        <ele>1119.2</ele>
        <time>2015-06-19T06:08:30Z</time>
      </trkpt>
      <trkpt lat="41.79108" lon="9.24678">
        <ele>1118.8</ele>
        <time>2015-06-19T06:08:34Z</time>
      </trkpt>
      <trkpt lat="41.79106" lon="9.24676">
        <ele>1117.2</ele>
        <time>2015-06-19T06:08:41Z</time>
      </trkpt>
      <trkpt lat="41.79103" lon="9.24673">
        <ele>1116.2</ele>
        <time>2015-06-19T06:08:48Z</time>
      </trkpt>
      <trkpt lat="41.791" lon="9.24669">
        <ele>1115</ele>
        <time>2015-06-19T06:08:54Z</time>
      </trkpt>
      <trkpt lat="41.79098" lon="9.24667">
        <ele>1113.6</ele>
        <time>2015-06-19T06:09:01Z</time>
      </trkpt>
      <trkpt lat="41.79088" lon="9.24659">
        <ele>1111.6</ele>
        <time>2015-06-19T06:09:17Z</time>
      </trkpt>
      <trkpt lat="41.79085" lon="9.24659">
        <ele>1111.4</ele>
        <time>2015-06-19T06:09:19Z</time>
      </trkpt>
      <trkpt lat="41.79084" lon="9.24658">
        <ele>1111.2</ele>
        <time>2015-06-19T06:09:21Z</time>
      </trkpt>
      <trkpt lat="41.79081" lon="9.24656">
        <ele>1111</ele>
        <time>2015-06-19T06:09:25Z</time>
      </trkpt>
      <trkpt lat="41.79078" lon="9.24655">
        <ele>1111</ele>
        <time>2015-06-19T06:09:28Z</time>
      </trkpt>
      <trkpt lat="41.79071" lon="9.2465">
        <ele>1110.4</ele>
        <time>2015-06-19T06:09:36Z</time>
      </trkpt>
      <trkpt lat="41.7907" lon="9.24649">
        <ele>1110.4</ele>
        <time>2015-06-19T06:09:37Z</time>
      </trkpt>
      <trkpt lat="41.79047" lon="9.2463">
        <ele>1108</ele>
        <time>2015-06-19T06:10:16Z</time>
      </trkpt>
      <trkpt lat="41.79045" lon="9.24626">
        <ele>1107.2</ele>
        <time>2015-06-19T06:10:22Z</time>
      </trkpt>
      <trkpt lat="41.79045" lon="9.24622">
        <ele>1106.6</ele>
        <time>2015-06-19T06:10:25Z</time>
      </trkpt>
      <trkpt lat="41.79043" lon="9.24619">
        <ele>1106</ele>
        <time>2015-06-19T06:10:28Z</time>
      </trkpt>
      <trkpt lat="41.79043" lon="9.24617">
        <ele>1105.8</ele>
        <time>2015-06-19T06:10:30Z</time>
      </trkpt>
      <trkpt lat="41.79042" lon="9.24616">
        <ele>1105.6</ele>
        <time>2015-06-19T06:10:31Z</time>
      </trkpt>
      <trkpt lat="41.7904" lon="9.2461">
        <ele>1104.8</ele>
        <time>2015-06-19T06:10:36Z</time>
      </trkpt>
      <trkpt lat="41.7904" lon="9.24607">
        <ele>1104.6</ele>
        <time>2015-06-19T06:10:38Z</time>
      </trkpt>
      <trkpt lat="41.7904" lon="9.24606">
        <ele>1104.6</ele>
        <time>2015-06-19T06:10:39Z</time>
      </trkpt>
      <trkpt lat="41.79041" lon="9.24601">
        <ele>1103.8</ele>
        <time>2015-06-19T06:10:43Z</time>
      </trkpt>
      <trkpt lat="41.79042" lon="9.246">
        <ele>1103.4</ele>
        <time>2015-06-19T06:10:45Z</time>
      </trkpt>
      <trkpt lat="41.7904" lon="9.24596">
        <ele>1102</ele>
        <time>2015-06-19T06:10:51Z</time>
      </trkpt>
      <trkpt lat="41.79036" lon="9.24586">
        <ele>1100.4</ele>
        <time>2015-06-19T06:11:02Z</time>
      </trkpt>
      <trkpt lat="41.79036" lon="9.24585">
        <ele>1100.2</ele>
        <time>2015-06-19T06:11:03Z</time>
      </trkpt>
      <trkpt lat="41.79035" lon="9.24584">
        <ele>1100.4</ele>
        <time>2015-06-19T06:11:04Z</time>
      </trkpt>
      <trkpt lat="41.79034" lon="9.2458">
        <ele>1099.6</ele>
        <time>2015-06-19T06:11:10Z</time>
      </trkpt>
      <trkpt lat="41.79032" lon="9.24575">
        <ele>1098.2</ele>
        <time>2015-06-19T06:11:16Z</time>
      </trkpt>
      <trkpt lat="41.79031" lon="9.24571">
        <ele>1097.6</ele>
        <time>2015-06-19T06:11:19Z</time>
      </trkpt>
      <trkpt lat="41.7903" lon="9.2457">
        <ele>1097</ele>
        <time>2015-06-19T06:11:23Z</time>
      </trkpt>
      <trkpt lat="41.79035" lon="9.24567">
        <ele>1096</ele>
        <time>2015-06-19T06:11:28Z</time>
      </trkpt>
      <trkpt lat="41.79036" lon="9.24566">
        <ele>1095.8</ele>
        <time>2015-06-19T06:11:29Z</time>
      </trkpt>
      <trkpt lat="41.79036" lon="9.24566">
        <ele>1095.6</ele>
        <time>2015-06-19T06:11:30Z</time>
      </trkpt>
      <trkpt lat="41.79035" lon="9.24563">
        <ele>1094.4</ele>
        <time>2015-06-19T06:11:36Z</time>
      </trkpt>
      <trkpt lat="41.79032" lon="9.24562">
        <ele>1093</ele>
        <time>2015-06-19T06:11:44Z</time>
      </trkpt>
      <trkpt lat="41.7903" lon="9.24558">
        <ele>1092</ele>
        <time>2015-06-19T06:11:50Z</time>
      </trkpt>
      <trkpt lat="41.79031" lon="9.24553">
        <ele>1090.6</ele>
        <time>2015-06-19T06:11:58Z</time>
      </trkpt>
      <trkpt lat="41.79025" lon="9.24545">
        <ele>1089</ele>
        <time>2015-06-19T06:12:08Z</time>
      </trkpt>
      <trkpt lat="41.79023" lon="9.24538">
        <ele>1087.8</ele>
        <time>2015-06-19T06:12:16Z</time>
      </trkpt>
      <trkpt lat="41.79022" lon="9.24537">
        <ele>1087.8</ele>
        <time>2015-06-19T06:12:17Z</time>
      </trkpt>
      <trkpt lat="41.79022" lon="9.24533">
        <ele>1086.8</ele>
        <time>2015-06-19T06:12:23Z</time>
      </trkpt>
      <trkpt lat="41.7902" lon="9.24525">
        <ele>1085.4</ele>
        <time>2015-06-19T06:12:31Z</time>
      </trkpt>
      <trkpt lat="41.79019" lon="9.24523">
        <ele>1085</ele>
        <time>2015-06-19T06:12:33Z</time>
      </trkpt>
      <trkpt lat="41.79017" lon="9.2452">
        <ele>1085</ele>
        <time>2015-06-19T06:12:36Z</time>
      </trkpt>
      <trkpt lat="41.79015" lon="9.24514">
        <ele>1084.8</ele>
        <time>2015-06-19T06:12:41Z</time>
      </trkpt>
      <trkpt lat="41.79012" lon="9.24504">
        <ele>1084.8</ele>
        <time>2015-06-19T06:12:52Z</time>
      </trkpt>
      <trkpt lat="41.79012" lon="9.24497">
        <ele>1084.4</ele>
        <time>2015-06-19T06:13:00Z</time>
      </trkpt>
      <trkpt lat="41.79012" lon="9.24478">
        <ele>1084.2</ele>
        <time>2015-06-19T06:13:16Z</time>
      </trkpt>
      <trkpt lat="41.79011" lon="9.24476">
        <ele>1084</ele>
        <time>2015-06-19T06:13:19Z</time>
      </trkpt>
      <trkpt lat="41.79008" lon="9.24469">
        <ele>1084.4</ele>
        <time>2015-06-19T06:13:26Z</time>
      </trkpt>
      <trkpt lat="41.79007" lon="9.24467">
        <ele>1084.6</ele>
        <time>2015-06-19T06:13:29Z</time>
      </trkpt>
      <trkpt lat="41.79002" lon="9.2446">
        <ele>1085.4</ele>
        <time>2015-06-19T06:13:36Z</time>
      </trkpt>
      <trkpt lat="41.79002" lon="9.2446">
        <ele>1085.6</ele>
        <time>2015-06-19T06:13:37Z</time>
      </trkpt>
      <trkpt lat="41.78975" lon="9.24415">
        <ele>1085</ele>
        <time>2015-06-19T06:14:33Z</time>
      </trkpt>
      <trkpt lat="41.78973" lon="9.24413">
        <ele>1084.8</ele>
        <time>2015-06-19T06:14:35Z</time>
      </trkpt>
      <trkpt lat="41.78971" lon="9.24411">
        <ele>1084.8</ele>
        <time>2015-06-19T06:14:37Z</time>
      </trkpt>
      <trkpt lat="41.78969" lon="9.2441">
        <ele>1084.8</ele>
        <time>2015-06-19T06:14:39Z</time>
      </trkpt>
      <trkpt lat="41.78968" lon="9.24409">
        <ele>1084.6</ele>
        <time>2015-06-19T06:14:42Z</time>
      </trkpt>
      <trkpt lat="41.78966" lon="9.24408">
        <ele>1083.8</ele>
        <time>2015-06-19T06:14:49Z</time>
      </trkpt>
      <trkpt lat="41.78963" lon="9.24405">
        <ele>1082.4</ele>
        <time>2015-06-19T06:14:59Z</time>
      </trkpt>
      <trkpt lat="41.78963" lon="9.24403">
        <ele>1081.4</ele>
        <time>2015-06-19T06:15:05Z</time>
      </trkpt>
      <trkpt lat="41.78959" lon="9.24397">
        <ele>1079.8</ele>
        <time>2015-06-19T06:15:12Z</time>
      </trkpt>
      <trkpt lat="41.78959" lon="9.24396">
        <ele>1079.6</ele>
        <time>2015-06-19T06:15:13Z</time>
      </trkpt>
      <trkpt lat="41.78947" lon="9.24381">
        <ele>1077.8</ele>
        <time>2015-06-19T06:15:30Z</time>
      </trkpt>
      <trkpt lat="41.78945" lon="9.24376">
        <ele>1077.4</ele>
        <time>2015-06-19T06:15:37Z</time>
      </trkpt>
      <trkpt lat="41.78945" lon="9.24372">
        <ele>1076.2</ele>
        <time>2015-06-19T06:15:43Z</time>
      </trkpt>
      <trkpt lat="41.78944" lon="9.24368">
        <ele>1075.2</ele>
        <time>2015-06-19T06:15:48Z</time>
      </trkpt>
      <trkpt lat="41.78941" lon="9.24362">
        <ele>1073.6</ele>
        <time>2015-06-19T06:15:55Z</time>
      </trkpt>
      <trkpt lat="41.78937" lon="9.24357">
        <ele>1072.4</ele>
        <time>2015-06-19T06:16:01Z</time>
      </trkpt>
      <trkpt lat="41.78935" lon="9.24353">
        <ele>1071</ele>
        <time>2015-06-19T06:16:08Z</time>
      </trkpt>
      <trkpt lat="41.78934" lon="9.24349">
        <ele>1069.8</ele>
        <time>2015-06-19T06:16:15Z</time>
      </trkpt>
      <trkpt lat="41.78933" lon="9.24346">
        <ele>1068.8</ele>
        <time>2015-06-19T06:16:21Z</time>
      </trkpt>
      <trkpt lat="41.78933" lon="9.24342">
        <ele>1067.8</ele>
        <time>2015-06-19T06:16:26Z</time>
      </trkpt>
      <trkpt lat="41.78931" lon="9.24336">
        <ele>1066.8</ele>
        <time>2015-06-19T06:16:30Z</time>
      </trkpt>
      <trkpt lat="41.7893" lon="9.24332">
        <ele>1066.2</ele>
        <time>2015-06-19T06:16:32Z</time>
      </trkpt>
      <trkpt lat="41.78929" lon="9.24329">
        <ele>1065.4</ele>
        <time>2015-06-19T06:16:36Z</time>
      </trkpt>
      <trkpt lat="41.7893" lon="9.24326">
        <ele>1064</ele>
        <time>2015-06-19T06:16:42Z</time>
      </trkpt>
      <trkpt lat="41.7893" lon="9.24323">
        <ele>1062.8</ele>
        <time>2015-06-19T06:16:48Z</time>
      </trkpt>
      <trkpt lat="41.78929" lon="9.24318">
        <ele>1061.6</ele>
        <time>2015-06-19T06:16:55Z</time>
      </trkpt>
      <trkpt lat="41.78922" lon="9.24312">
        <ele>1060</ele>
        <time>2015-06-19T06:17:03Z</time>
      </trkpt>
      <trkpt lat="41.78917" lon="9.24308">
        <ele>1059</ele>
        <time>2015-06-19T06:17:10Z</time>
      </trkpt>
      <trkpt lat="41.78917" lon="9.24308">
        <ele>1058.8</ele>
        <time>2015-06-19T06:17:11Z</time>
      </trkpt>
      <trkpt lat="41.78916" lon="9.24307">
        <ele>1058.8</ele>
        <time>2015-06-19T06:17:12Z</time>
      </trkpt>
      <trkpt lat="41.78912" lon="9.24303">
        <ele>1057.2</ele>
        <time>2015-06-19T06:17:21Z</time>
      </trkpt>
      <trkpt lat="41.78906" lon="9.24297">
        <ele>1056.4</ele>
        <time>2015-06-19T06:17:29Z</time>
      </trkpt>
      <trkpt lat="41.78904" lon="9.24292">
        <ele>1056</ele>
        <time>2015-06-19T06:17:32Z</time>
      </trkpt>
      <trkpt lat="41.78904" lon="9.24288">
        <ele>1055.2</ele>
        <time>2015-06-19T06:17:36Z</time>
      </trkpt>
      <trkpt lat="41.78905" lon="9.24287">
        <ele>1055.2</ele>
        <time>2015-06-19T06:17:38Z</time>
      </trkpt>
      <trkpt lat="41.78903" lon="9.24278">
        <ele>1053.4</ele>
        <time>2015-06-19T06:17:48Z</time>
      </trkpt>
      <trkpt lat="41.78901" lon="9.24275">
        <ele>1052.8</ele>
        <time>2015-06-19T06:17:54Z</time>
      </trkpt>
      <trkpt lat="41.78903" lon="9.24266">
        <ele>1051</ele>
        <time>2015-06-19T06:18:03Z</time>
      </trkpt>
      <trkpt lat="41.78902" lon="9.2426">
        <ele>1050.2</ele>
        <time>2015-06-19T06:18:11Z</time>
      </trkpt>
      <trkpt lat="41.78902" lon="9.24256">
        <ele>1049</ele>
        <time>2015-06-19T06:18:17Z</time>
      </trkpt>
      <trkpt lat="41.78901" lon="9.24249">
        <ele>1047.8</ele>
        <time>2015-06-19T06:18:23Z</time>
      </trkpt>
      <trkpt lat="41.78901" lon="9.24245">
        <ele>1047.2</ele>
        <time>2015-06-19T06:18:26Z</time>
      </trkpt>
      <trkpt lat="41.78901" lon="9.24238">
        <ele>1046.2</ele>
        <time>2015-06-19T06:18:33Z</time>
      </trkpt>
      <trkpt lat="41.78904" lon="9.24234">
        <ele>1044.8</ele>
        <time>2015-06-19T06:18:42Z</time>
      </trkpt>
      <trkpt lat="41.78904" lon="9.24224">
        <ele>1043.4</ele>
        <time>2015-06-19T06:18:55Z</time>
      </trkpt>
      <trkpt lat="41.78897" lon="9.24214">
        <ele>1042</ele>
        <time>2015-06-19T06:19:06Z</time>
      </trkpt>
      <trkpt lat="41.78896" lon="9.24208">
        <ele>1041</ele>
        <time>2015-06-19T06:19:14Z</time>
      </trkpt>
      <trkpt lat="41.78895" lon="9.24201">
        <ele>1040</ele>
        <time>2015-06-19T06:19:20Z</time>
      </trkpt>
      <trkpt lat="41.78895" lon="9.242">
        <ele>1039.8</ele>
        <time>2015-06-19T06:19:21Z</time>
      </trkpt>
      <trkpt lat="41.78895" lon="9.24196">
        <ele>1039.4</ele>
        <time>2015-06-19T06:19:24Z</time>
      </trkpt>
      <trkpt lat="41.78894" lon="9.24195">
        <ele>1039</ele>
        <time>2015-06-19T06:19:26Z</time>
      </trkpt>
      <trkpt lat="41.78893" lon="9.2419">
        <ele>1038</ele>
        <time>2015-06-19T06:19:30Z</time>
      </trkpt>
      <trkpt lat="41.78892" lon="9.24187">
        <ele>1037.2</ele>
        <time>2015-06-19T06:19:33Z</time>
      </trkpt>
      <trkpt lat="41.78893" lon="9.24186">
        <ele>1036.8</ele>
        <time>2015-06-19T06:19:35Z</time>
      </trkpt>
      <trkpt lat="41.78893" lon="9.24183">
        <ele>1036.4</ele>
        <time>2015-06-19T06:19:38Z</time>
      </trkpt>
      <trkpt lat="41.78892" lon="9.2418">
        <ele>1035</ele>
        <time>2015-06-19T06:19:44Z</time>
      </trkpt>
      <trkpt lat="41.78894" lon="9.24171">
        <ele>1033.4</ele>
        <time>2015-06-19T06:19:51Z</time>
      </trkpt>
      <trkpt lat="41.78895" lon="9.2417">
        <ele>1033.2</ele>
        <time>2015-06-19T06:19:53Z</time>
      </trkpt>
      <trkpt lat="41.78894" lon="9.24167">
        <ele>1032.6</ele>
        <time>2015-06-19T06:19:57Z</time>
      </trkpt>
      <trkpt lat="41.78894" lon="9.24162">
        <ele>1031.2</ele>
        <time>2015-06-19T06:20:04Z</time>
      </trkpt>
      <trkpt lat="41.78894" lon="9.24159">
        <ele>1029.8</ele>
        <time>2015-06-19T06:20:11Z</time>
      </trkpt>
      <trkpt lat="41.78891" lon="9.24155">
        <ele>1029</ele>
        <time>2015-06-19T06:20:17Z</time>
      </trkpt>
      <trkpt lat="41.78887" lon="9.24151">
        <ele>1027.6</ele>
        <time>2015-06-19T06:20:25Z</time>
      </trkpt>
      <trkpt lat="41.78882" lon="9.2415">
        <ele>1026.4</ele>
        <time>2015-06-19T06:20:32Z</time>
      </trkpt>
      <trkpt lat="41.78878" lon="9.24143">
        <ele>1025.4</ele>
        <time>2015-06-19T06:20:38Z</time>
      </trkpt>
      <trkpt lat="41.78877" lon="9.24141">
        <ele>1024.8</ele>
        <time>2015-06-19T06:20:41Z</time>
      </trkpt>
      <trkpt lat="41.78873" lon="9.24135">
        <ele>1023.6</ele>
        <time>2015-06-19T06:20:50Z</time>
      </trkpt>
      <trkpt lat="41.78869" lon="9.24129">
        <ele>1022.4</ele>
        <time>2015-06-19T06:20:58Z</time>
      </trkpt>
      <trkpt lat="41.78869" lon="9.24126">
        <ele>1022.2</ele>
        <time>2015-06-19T06:21:00Z</time>
      </trkpt>
      <trkpt lat="41.78869" lon="9.24125">
        <ele>1021.8</ele>
        <time>2015-06-19T06:21:02Z</time>
      </trkpt>
      <trkpt lat="41.7887" lon="9.2412">
        <ele>1021</ele>
        <time>2015-06-19T06:21:07Z</time>
      </trkpt>
      <trkpt lat="41.78868" lon="9.24114">
        <ele>1020.4</ele>
        <time>2015-06-19T06:21:13Z</time>
      </trkpt>
      <trkpt lat="41.78864" lon="9.24109">
        <ele>1018.6</ele>
        <time>2015-06-19T06:21:20Z</time>
      </trkpt>
      <trkpt lat="41.78864" lon="9.24097">
        <ele>1017.2</ele>
        <time>2015-06-19T06:21:28Z</time>
      </trkpt>
      <trkpt lat="41.78868" lon="9.24088">
        <ele>1016.6</ele>
        <time>2015-06-19T06:21:34Z</time>
      </trkpt>
      <trkpt lat="41.78867" lon="9.24087">
        <ele>1016.2</ele>
        <time>2015-06-19T06:21:35Z</time>
      </trkpt>
      <trkpt lat="41.78866" lon="9.24085">
        <ele>1015.6</ele>
        <time>2015-06-19T06:21:38Z</time>
      </trkpt>
      <trkpt lat="41.78867" lon="9.24081">
        <ele>1015</ele>
        <time>2015-06-19T06:21:42Z</time>
      </trkpt>
      <trkpt lat="41.78866" lon="9.24071">
        <ele>1013</ele>
        <time>2015-06-19T06:21:54Z</time>
      </trkpt>
      <trkpt lat="41.78866" lon="9.24051">
        <ele>1011.4</ele>
        <time>2015-06-19T06:22:11Z</time>
      </trkpt>
      <trkpt lat="41.78868" lon="9.24048">
        <ele>1011.2</ele>
        <time>2015-06-19T06:22:15Z</time>
      </trkpt>
      <trkpt lat="41.78871" lon="9.24036">
        <ele>1010.2</ele>
        <time>2015-06-19T06:22:29Z</time>
      </trkpt>
      <trkpt lat="41.78872" lon="9.24032">
        <ele>1009.8</ele>
        <time>2015-06-19T06:22:33Z</time>
      </trkpt>
      <trkpt lat="41.78872" lon="9.24029">
        <ele>1009.6</ele>
        <time>2015-06-19T06:22:36Z</time>
      </trkpt>
      <trkpt lat="41.78876" lon="9.24018">
        <ele>1008.8</ele>
        <time>2015-06-19T06:22:52Z</time>
      </trkpt>
      <trkpt lat="41.7888" lon="9.23987">
        <ele>1008.2</ele>
        <time>2015-06-19T06:23:23Z</time>
      </trkpt>
      <trkpt lat="41.78878" lon="9.2398">
        <ele>1008.4</ele>
        <time>2015-06-19T06:23:28Z</time>
      </trkpt>
      <trkpt lat="41.78863" lon="9.23949">
        <ele>1008.4</ele>
        <time>2015-06-19T06:23:53Z</time>
      </trkpt>
      <trkpt lat="41.78861" lon="9.23947">
        <ele>1008.4</ele>
        <time>2015-06-19T06:23:57Z</time>
      </trkpt>
      <trkpt lat="41.78859" lon="9.23945">
        <ele>1008.4</ele>
        <time>2015-06-19T06:23:59Z</time>
      </trkpt>
      <trkpt lat="41.7882" lon="9.23917">
        <ele>1008.2</ele>
        <time>2015-06-19T06:24:42Z</time>
      </trkpt>
      <trkpt lat="41.78796" lon="9.23886">
        <ele>1007.2</ele>
        <time>2015-06-19T06:25:14Z</time>
      </trkpt>
      <trkpt lat="41.78795" lon="9.23882">
        <ele>1006.8</ele>
        <time>2015-06-19T06:25:19Z</time>
      </trkpt>
      <trkpt lat="41.78808" lon="9.23866">
        <ele>1007</ele>
        <time>2015-06-19T06:26:23Z</time>
      </trkpt>
      <trkpt lat="41.78829" lon="9.23856">
        <ele>1008</ele>
        <time>2015-06-19T06:26:43Z</time>
      </trkpt>
      <trkpt lat="41.78846" lon="9.23849">
        <ele>1008.8</ele>
        <time>2015-06-19T06:27:01Z</time>
      </trkpt>
      <trkpt lat="41.78854" lon="9.23847">
        <ele>1009.6</ele>
        <time>2015-06-19T06:27:10Z</time>
      </trkpt>
      <trkpt lat="41.78884" lon="9.23842">
        <ele>1011</ele>
        <time>2015-06-19T06:27:46Z</time>
      </trkpt>
      <trkpt lat="41.78891" lon="9.23852">
        <ele>1011.8</ele>
        <time>2015-06-19T06:27:59Z</time>
      </trkpt>
      <trkpt lat="41.78897" lon="9.23865">
        <ele>1012.6</ele>
        <time>2015-06-19T06:28:10Z</time>
      </trkpt>
      <trkpt lat="41.7891" lon="9.23869">
        <ele>1014</ele>
        <time>2015-06-19T06:28:24Z</time>
      </trkpt>
      <trkpt lat="41.78918" lon="9.23865">
        <ele>1014.4</ele>
        <time>2015-06-19T06:28:39Z</time>
      </trkpt>
      <trkpt lat="41.7892" lon="9.23863">
        <ele>1015.2</ele>
        <time>2015-06-19T06:28:44Z</time>
      </trkpt>
      <trkpt lat="41.78923" lon="9.23861">
        <ele>1016.2</ele>
        <time>2015-06-19T06:28:48Z</time>
      </trkpt>
      <trkpt lat="41.78925" lon="9.2386">
        <ele>1016.6</ele>
        <time>2015-06-19T06:28:50Z</time>
      </trkpt>
      <trkpt lat="41.78925" lon="9.23858">
        <ele>1017</ele>
        <time>2015-06-19T06:28:52Z</time>
      </trkpt>
      <trkpt lat="41.78925" lon="9.23856">
        <ele>1017.6</ele>
        <time>2015-06-19T06:28:55Z</time>
      </trkpt>
      <trkpt lat="41.78925" lon="9.23852">
        <ele>1019</ele>
        <time>2015-06-19T06:29:02Z</time>
      </trkpt>
      <trkpt lat="41.78926" lon="9.23849">
        <ele>1020.2</ele>
        <time>2015-06-19T06:29:09Z</time>
      </trkpt>
      <trkpt lat="41.78928" lon="9.23845">
        <ele>1021.6</ele>
        <time>2015-06-19T06:29:18Z</time>
      </trkpt>
      <trkpt lat="41.78929" lon="9.23844">
        <ele>1022.4</ele>
        <time>2015-06-19T06:29:25Z</time>
      </trkpt>
      <trkpt lat="41.78932" lon="9.23842">
        <ele>1023.4</ele>
        <time>2015-06-19T06:29:33Z</time>
      </trkpt>
      <trkpt lat="41.78936" lon="9.23843">
        <ele>1024.6</ele>
        <time>2015-06-19T06:29:41Z</time>
      </trkpt>
      <trkpt lat="41.7894" lon="9.23843">
        <ele>1025.8</ele>
        <time>2015-06-19T06:29:49Z</time>
      </trkpt>
      <trkpt lat="41.78944" lon="9.23845">
        <ele>1027</ele>
        <time>2015-06-19T06:29:57Z</time>
      </trkpt>
      <trkpt lat="41.78948" lon="9.23845">
        <ele>1028</ele>
        <time>2015-06-19T06:30:07Z</time>
      </trkpt>
      <trkpt lat="41.78953" lon="9.23847">
        <ele>1029</ele>
        <time>2015-06-19T06:30:15Z</time>
      </trkpt>
      <trkpt lat="41.78957" lon="9.23848">
        <ele>1030</ele>
        <time>2015-06-19T06:30:22Z</time>
      </trkpt>
      <trkpt lat="41.78962" lon="9.23848">
        <ele>1031.2</ele>
        <time>2015-06-19T06:30:31Z</time>
      </trkpt>
      <trkpt lat="41.78965" lon="9.23848">
        <ele>1032</ele>
        <time>2015-06-19T06:30:37Z</time>
      </trkpt>
      <trkpt lat="41.78971" lon="9.23843">
        <ele>1033.8</ele>
        <time>2015-06-19T06:30:48Z</time>
      </trkpt>
      <trkpt lat="41.78978" lon="9.23837">
        <ele>1034.8</ele>
        <time>2015-06-19T06:30:58Z</time>
      </trkpt>
      <trkpt lat="41.78976" lon="9.23832">
        <ele>1036.2</ele>
        <time>2015-06-19T06:31:14Z</time>
      </trkpt>
      <trkpt lat="41.78976" lon="9.23825">
        <ele>1037</ele>
        <time>2015-06-19T06:31:24Z</time>
      </trkpt>
      <trkpt lat="41.78977" lon="9.2382">
        <ele>1037.8</ele>
        <time>2015-06-19T06:31:32Z</time>
      </trkpt>
      <trkpt lat="41.78977" lon="9.23814">
        <ele>1039.4</ele>
        <time>2015-06-19T06:31:41Z</time>
      </trkpt>
      <trkpt lat="41.78971" lon="9.23811">
        <ele>1040.4</ele>
        <time>2015-06-19T06:31:53Z</time>
      </trkpt>
      <trkpt lat="41.78965" lon="9.23807">
        <ele>1041.4</ele>
        <time>2015-06-19T06:32:04Z</time>
      </trkpt>
      <trkpt lat="41.78962" lon="9.23801">
        <ele>1042.6</ele>
        <time>2015-06-19T06:32:15Z</time>
      </trkpt>
      <trkpt lat="41.78956" lon="9.23794">
        <ele>1044</ele>
        <time>2015-06-19T06:32:28Z</time>
      </trkpt>
      <trkpt lat="41.78949" lon="9.2379">
        <ele>1045.2</ele>
        <time>2015-06-19T06:32:41Z</time>
      </trkpt>
      <trkpt lat="41.78945" lon="9.23785">
        <ele>1046</ele>
        <time>2015-06-19T06:32:52Z</time>
      </trkpt>
      <trkpt lat="41.78945" lon="9.23784">
        <ele>1046.2</ele>
        <time>2015-06-19T06:32:53Z</time>
      </trkpt>
      <trkpt lat="41.78946" lon="9.23778">
        <ele>1047.2</ele>
        <time>2015-06-19T06:33:04Z</time>
      </trkpt>
      <trkpt lat="41.78945" lon="9.23774">
        <ele>1048.2</ele>
        <time>2015-06-19T06:33:13Z</time>
      </trkpt>
      <trkpt lat="41.78949" lon="9.23769">
        <ele>1049.2</ele>
        <time>2015-06-19T06:33:21Z</time>
      </trkpt>
      <trkpt lat="41.78947" lon="9.23764">
        <ele>1050.6</ele>
        <time>2015-06-19T06:33:32Z</time>
      </trkpt>
      <trkpt lat="41.78945" lon="9.23761">
        <ele>1051.6</ele>
        <time>2015-06-19T06:33:42Z</time>
      </trkpt>
      <trkpt lat="41.78945" lon="9.23758">
        <ele>1052.8</ele>
        <time>2015-06-19T06:33:50Z</time>
      </trkpt>
      <trkpt lat="41.78945" lon="9.23752">
        <ele>1053.8</ele>
        <time>2015-06-19T06:33:59Z</time>
      </trkpt>
      <trkpt lat="41.78944" lon="9.23746">
        <ele>1055</ele>
        <time>2015-06-19T06:34:08Z</time>
      </trkpt>
      <trkpt lat="41.78942" lon="9.23742">
        <ele>1056.2</ele>
        <time>2015-06-19T06:34:17Z</time>
      </trkpt>
      <trkpt lat="41.78943" lon="9.23737">
        <ele>1057.2</ele>
        <time>2015-06-19T06:34:27Z</time>
      </trkpt>
      <trkpt lat="41.78947" lon="9.23732">
        <ele>1058.6</ele>
        <time>2015-06-19T06:34:37Z</time>
      </trkpt>
      <trkpt lat="41.78947" lon="9.23727">
        <ele>1059.2</ele>
        <time>2015-06-19T06:34:43Z</time>
      </trkpt>
      <trkpt lat="41.78945" lon="9.23724">
        <ele>1060.8</ele>
        <time>2015-06-19T06:34:52Z</time>
      </trkpt>
      <trkpt lat="41.78946" lon="9.23722">
        <ele>1061.2</ele>
        <time>2015-06-19T06:34:55Z</time>
      </trkpt>
      <trkpt lat="41.78945" lon="9.23718">
        <ele>1062</ele>
        <time>2015-06-19T06:35:03Z</time>
      </trkpt>
      <trkpt lat="41.78943" lon="9.23712">
        <ele>1063</ele>
        <time>2015-06-19T06:35:15Z</time>
      </trkpt>
      <trkpt lat="41.78944" lon="9.23707">
        <ele>1064.4</ele>
        <time>2015-06-19T06:35:24Z</time>
      </trkpt>
      <trkpt lat="41.78943" lon="9.237">
        <ele>1065.4</ele>
        <time>2015-06-19T06:35:36Z</time>
      </trkpt>
      <trkpt lat="41.78942" lon="9.23694">
        <ele>1066.8</ele>
        <time>2015-06-19T06:35:47Z</time>
      </trkpt>
      <trkpt lat="41.78941" lon="9.23687">
        <ele>1067.6</ele>
        <time>2015-06-19T06:35:57Z</time>
      </trkpt>
      <trkpt lat="41.7894" lon="9.2368">
        <ele>1068.8</ele>
        <time>2015-06-19T06:36:07Z</time>
      </trkpt>
      <trkpt lat="41.78939" lon="9.23668">
        <ele>1070.4</ele>
        <time>2015-06-19T06:36:21Z</time>
      </trkpt>
      <trkpt lat="41.78934" lon="9.23657">
        <ele>1071.6</ele>
        <time>2015-06-19T06:36:37Z</time>
      </trkpt>
      <trkpt lat="41.78936" lon="9.23648">
        <ele>1073</ele>
        <time>2015-06-19T06:36:51Z</time>
      </trkpt>
      <trkpt lat="41.78935" lon="9.23644">
        <ele>1074</ele>
        <time>2015-06-19T06:37:03Z</time>
      </trkpt>
      <trkpt lat="41.78933" lon="9.23629">
        <ele>1075.4</ele>
        <time>2015-06-19T06:37:23Z</time>
      </trkpt>
      <trkpt lat="41.7893" lon="9.23624">
        <ele>1077</ele>
        <time>2015-06-19T06:37:42Z</time>
      </trkpt>
      <trkpt lat="41.78929" lon="9.23625">
        <ele>1077.2</ele>
        <time>2015-06-19T06:37:49Z</time>
      </trkpt>
      <trkpt lat="41.78934" lon="9.23607">
        <ele>1078.2</ele>
        <time>2015-06-19T06:38:45Z</time>
      </trkpt>
      <trkpt lat="41.78934" lon="9.23606">
        <ele>1077.4</ele>
        <time>2015-06-19T06:38:58Z</time>
      </trkpt>
      <trkpt lat="41.78932" lon="9.23609">
        <ele>1076.6</ele>
        <time>2015-06-19T06:39:21Z</time>
      </trkpt>
      <trkpt lat="41.78934" lon="9.23585">
        <ele>1077.2</ele>
        <time>2015-06-19T06:40:14Z</time>
      </trkpt>
      <trkpt lat="41.78937" lon="9.23582">
        <ele>1078</ele>
        <time>2015-06-19T06:40:21Z</time>
      </trkpt>
      <trkpt lat="41.78938" lon="9.23576">
        <ele>1079.2</ele>
        <time>2015-06-19T06:40:28Z</time>
      </trkpt>
      <trkpt lat="41.78941" lon="9.23573">
        <ele>1080.4</ele>
        <time>2015-06-19T06:40:35Z</time>
      </trkpt>
      <trkpt lat="41.78945" lon="9.2357">
        <ele>1081.6</ele>
        <time>2015-06-19T06:40:42Z</time>
      </trkpt>
      <trkpt lat="41.78945" lon="9.23565">
        <ele>1083.2</ele>
        <time>2015-06-19T06:40:51Z</time>
      </trkpt>
      <trkpt lat="41.78945" lon="9.23561">
        <ele>1084.4</ele>
        <time>2015-06-19T06:40:58Z</time>
      </trkpt>
      <trkpt lat="41.78948" lon="9.23559">
        <ele>1085.4</ele>
        <time>2015-06-19T06:41:06Z</time>
      </trkpt>
      <trkpt lat="41.78951" lon="9.23559">
        <ele>1086.4</ele>
        <time>2015-06-19T06:41:13Z</time>
      </trkpt>
      <trkpt lat="41.78954" lon="9.23558">
        <ele>1088.2</ele>
        <time>2015-06-19T06:41:24Z</time>
      </trkpt>
      <trkpt lat="41.78954" lon="9.23556">
        <ele>1089.2</ele>
        <time>2015-06-19T06:41:33Z</time>
      </trkpt>
      <trkpt lat="41.78958" lon="9.23552">
        <ele>1090</ele>
        <time>2015-06-19T06:41:40Z</time>
      </trkpt>
      <trkpt lat="41.78962" lon="9.23551">
        <ele>1090.2</ele>
        <time>2015-06-19T06:41:45Z</time>
      </trkpt>
      <trkpt lat="41.78965" lon="9.23549">
        <ele>1091.2</ele>
        <time>2015-06-19T06:41:52Z</time>
      </trkpt>
      <trkpt lat="41.78967" lon="9.23548">
        <ele>1092.6</ele>
        <time>2015-06-19T06:42:02Z</time>
      </trkpt>
      <trkpt lat="41.78971" lon="9.23548">
        <ele>1093.8</ele>
        <time>2015-06-19T06:42:13Z</time>
      </trkpt>
      <trkpt lat="41.78974" lon="9.23546">
        <ele>1094.6</ele>
        <time>2015-06-19T06:42:35Z</time>
      </trkpt>
      <trkpt lat="41.78977" lon="9.23542">
        <ele>1095.6</ele>
        <time>2015-06-19T06:42:41Z</time>
      </trkpt>
      <trkpt lat="41.78979" lon="9.23539">
        <ele>1097.2</ele>
        <time>2015-06-19T06:42:49Z</time>
      </trkpt>
      <trkpt lat="41.78981" lon="9.23537">
        <ele>1098</ele>
        <time>2015-06-19T06:42:56Z</time>
      </trkpt>
      <trkpt lat="41.78985" lon="9.23536">
        <ele>1099.6</ele>
        <time>2015-06-19T06:43:06Z</time>
      </trkpt>
      <trkpt lat="41.7899" lon="9.23537">
        <ele>1101</ele>
        <time>2015-06-19T06:43:15Z</time>
      </trkpt>
      <trkpt lat="41.78993" lon="9.23534">
        <ele>1101.8</ele>
        <time>2015-06-19T06:43:25Z</time>
      </trkpt>
      <trkpt lat="41.7899" lon="9.23535">
        <ele>1102.8</ele>
        <time>2015-06-19T06:43:33Z</time>
      </trkpt>
      <trkpt lat="41.78992" lon="9.23538">
        <ele>1104</ele>
        <time>2015-06-19T06:43:42Z</time>
      </trkpt>
      <trkpt lat="41.78992" lon="9.23538">
        <ele>1104.2</ele>
        <time>2015-06-19T06:43:43Z</time>
      </trkpt>
      <trkpt lat="41.78989" lon="9.23539">
        <ele>1105</ele>
        <time>2015-06-19T06:43:49Z</time>
      </trkpt>
      <trkpt lat="41.78991" lon="9.23534">
        <ele>1106.6</ele>
        <time>2015-06-19T06:43:58Z</time>
      </trkpt>
      <trkpt lat="41.78994" lon="9.23532">
        <ele>1107</ele>
        <time>2015-06-19T06:44:01Z</time>
      </trkpt>
      <trkpt lat="41.78998" lon="9.23528">
        <ele>1107.6</ele>
        <time>2015-06-19T06:44:05Z</time>
      </trkpt>
      <trkpt lat="41.79001" lon="9.23526">
        <ele>1107.8</ele>
        <time>2015-06-19T06:44:08Z</time>
      </trkpt>
      <trkpt lat="41.79001" lon="9.23525">
        <ele>1108</ele>
        <time>2015-06-19T06:44:09Z</time>
      </trkpt>
      <trkpt lat="41.79001" lon="9.23524">
        <ele>1108</ele>
        <time>2015-06-19T06:44:10Z</time>
      </trkpt>
      <trkpt lat="41.79008" lon="9.2352">
        <ele>1109</ele>
        <time>2015-06-19T06:44:18Z</time>
      </trkpt>
      <trkpt lat="41.79008" lon="9.2352">
        <ele>1109</ele>
        <time>2015-06-19T06:44:19Z</time>
      </trkpt>
      <trkpt lat="41.79011" lon="9.23517">
        <ele>1109.8</ele>
        <time>2015-06-19T06:44:26Z</time>
      </trkpt>
      <trkpt lat="41.79012" lon="9.23514">
        <ele>1111.2</ele>
        <time>2015-06-19T06:44:33Z</time>
      </trkpt>
      <trkpt lat="41.79015" lon="9.23511">
        <ele>1112.4</ele>
        <time>2015-06-19T06:44:42Z</time>
      </trkpt>
      <trkpt lat="41.79019" lon="9.23511">
        <ele>1113.4</ele>
        <time>2015-06-19T06:44:51Z</time>
      </trkpt>
      <trkpt lat="41.79022" lon="9.23513">
        <ele>1114.4</ele>
        <time>2015-06-19T06:45:00Z</time>
      </trkpt>
      <trkpt lat="41.79023" lon="9.23511">
        <ele>1115.6</ele>
        <time>2015-06-19T06:45:09Z</time>
      </trkpt>
      <trkpt lat="41.79022" lon="9.23507">
        <ele>1116.8</ele>
        <time>2015-06-19T06:45:18Z</time>
      </trkpt>
      <trkpt lat="41.79023" lon="9.23506">
        <ele>1118</ele>
        <time>2015-06-19T06:45:27Z</time>
      </trkpt>
      <trkpt lat="41.79029" lon="9.23503">
        <ele>1118.6</ele>
        <time>2015-06-19T06:45:33Z</time>
      </trkpt>
      <trkpt lat="41.79032" lon="9.23501">
        <ele>1118.8</ele>
        <time>2015-06-19T06:45:36Z</time>
      </trkpt>
      <trkpt lat="41.79036" lon="9.23499">
        <ele>1119.2</ele>
        <time>2015-06-19T06:45:39Z</time>
      </trkpt>
      <trkpt lat="41.79038" lon="9.23497">
        <ele>1119.4</ele>
        <time>2015-06-19T06:45:41Z</time>
      </trkpt>
      <trkpt lat="41.79038" lon="9.23497">
        <ele>1119.6</ele>
        <time>2015-06-19T06:45:43Z</time>
      </trkpt>
      <trkpt lat="41.7904" lon="9.23496">
        <ele>1120</ele>
        <time>2015-06-19T06:45:47Z</time>
      </trkpt>
      <trkpt lat="41.79044" lon="9.23494">
        <ele>1121.2</ele>
        <time>2015-06-19T06:45:55Z</time>
      </trkpt>
      <trkpt lat="41.79044" lon="9.23494">
        <ele>1122.4</ele>
        <time>2015-06-19T06:46:03Z</time>
      </trkpt>
      <trkpt lat="41.79044" lon="9.23491">
        <ele>1123.4</ele>
        <time>2015-06-19T06:46:12Z</time>
      </trkpt>
      <trkpt lat="41.79042" lon="9.23488">
        <ele>1124.6</ele>
        <time>2015-06-19T06:46:20Z</time>
      </trkpt>
      <trkpt lat="41.79041" lon="9.23486">
        <ele>1126</ele>
        <time>2015-06-19T06:46:30Z</time>
      </trkpt>
      <trkpt lat="41.79042" lon="9.23485">
        <ele>1126.8</ele>
        <time>2015-06-19T06:46:37Z</time>
      </trkpt>
      <trkpt lat="41.79041" lon="9.23482">
        <ele>1128.2</ele>
        <time>2015-06-19T06:46:45Z</time>
      </trkpt>
      <trkpt lat="41.79043" lon="9.23479">
        <ele>1129.2</ele>
        <time>2015-06-19T06:46:52Z</time>
      </trkpt>
      <trkpt lat="41.79042" lon="9.23475">
        <ele>1130.4</ele>
        <time>2015-06-19T06:47:01Z</time>
      </trkpt>
      <trkpt lat="41.79045" lon="9.23473">
        <ele>1131.2</ele>
        <time>2015-06-19T06:47:08Z</time>
      </trkpt>
      <trkpt lat="41.79047" lon="9.23469">
        <ele>1132.8</ele>
        <time>2015-06-19T06:47:18Z</time>
      </trkpt>
      <trkpt lat="41.79049" lon="9.23463">
        <ele>1133.6</ele>
        <time>2015-06-19T06:47:26Z</time>
      </trkpt>
      <trkpt lat="41.79051" lon="9.23457">
        <ele>1134.8</ele>
        <time>2015-06-19T06:47:34Z</time>
      </trkpt>
      <trkpt lat="41.79054" lon="9.2345">
        <ele>1136.4</ele>
        <time>2015-06-19T06:47:52Z</time>
      </trkpt>
      <trkpt lat="41.79053" lon="9.23446">
        <ele>1137</ele>
        <time>2015-06-19T06:48:04Z</time>
      </trkpt>
      <trkpt lat="41.79054" lon="9.23443">
        <ele>1137.8</ele>
        <time>2015-06-19T06:48:10Z</time>
      </trkpt>
      <trkpt lat="41.79055" lon="9.2344">
        <ele>1139.2</ele>
        <time>2015-06-19T06:48:17Z</time>
      </trkpt>
      <trkpt lat="41.79054" lon="9.23432">
        <ele>1140.6</ele>
        <time>2015-06-19T06:48:27Z</time>
      </trkpt>
      <trkpt lat="41.79055" lon="9.23425">
        <ele>1141.4</ele>
        <time>2015-06-19T06:48:36Z</time>
      </trkpt>
      <trkpt lat="41.79056" lon="9.23425">
        <ele>1141.8</ele>
        <time>2015-06-19T06:48:38Z</time>
      </trkpt>
      <trkpt lat="41.79057" lon="9.23423">
        <ele>1142.4</ele>
        <time>2015-06-19T06:48:43Z</time>
      </trkpt>
      <trkpt lat="41.79061" lon="9.23421">
        <ele>1143.2</ele>
        <time>2015-06-19T06:48:48Z</time>
      </trkpt>
      <trkpt lat="41.79061" lon="9.2342">
        <ele>1143.8</ele>
        <time>2015-06-19T06:48:53Z</time>
      </trkpt>
      <trkpt lat="41.79062" lon="9.2342">
        <ele>1144.8</ele>
        <time>2015-06-19T06:49:01Z</time>
      </trkpt>
      <trkpt lat="41.79064" lon="9.23418">
        <ele>1146</ele>
        <time>2015-06-19T06:49:10Z</time>
      </trkpt>
      <trkpt lat="41.79065" lon="9.23416">
        <ele>1147</ele>
        <time>2015-06-19T06:49:18Z</time>
      </trkpt>
      <trkpt lat="41.79067" lon="9.2341">
        <ele>1148.2</ele>
        <time>2015-06-19T06:49:27Z</time>
      </trkpt>
      <trkpt lat="41.79066" lon="9.23404">
        <ele>1149.6</ele>
        <time>2015-06-19T06:49:37Z</time>
      </trkpt>
      <trkpt lat="41.79069" lon="9.23399">
        <ele>1150.6</ele>
        <time>2015-06-19T06:49:45Z</time>
      </trkpt>
      <trkpt lat="41.79069" lon="9.23393">
        <ele>1151.6</ele>
        <time>2015-06-19T06:49:54Z</time>
      </trkpt>
      <trkpt lat="41.79071" lon="9.23386">
        <ele>1153</ele>
        <time>2015-06-19T06:50:05Z</time>
      </trkpt>
      <trkpt lat="41.79076" lon="9.23383">
        <ele>1154</ele>
        <time>2015-06-19T06:50:14Z</time>
      </trkpt>
      <trkpt lat="41.79067" lon="9.23327">
        <ele>1155.2</ele>
        <time>2015-06-19T06:51:07Z</time>
      </trkpt>
      <trkpt lat="41.79069" lon="9.23319">
        <ele>1155.4</ele>
        <time>2015-06-19T06:51:13Z</time>
      </trkpt>
      <trkpt lat="41.79072" lon="9.23314">
        <ele>1155.4</ele>
        <time>2015-06-19T06:51:17Z</time>
      </trkpt>
      <trkpt lat="41.79083" lon="9.23302">
        <ele>1154.8</ele>
        <time>2015-06-19T06:51:28Z</time>
      </trkpt>
      <trkpt lat="41.79084" lon="9.23282">
        <ele>1154</ele>
        <time>2015-06-19T06:51:42Z</time>
      </trkpt>
      <trkpt lat="41.79084" lon="9.23264">
        <ele>1154</ele>
        <time>2015-06-19T06:51:57Z</time>
      </trkpt>
      <trkpt lat="41.79083" lon="9.23257">
        <ele>1155</ele>
        <time>2015-06-19T06:52:04Z</time>
      </trkpt>
      <trkpt lat="41.79082" lon="9.23252">
        <ele>1156</ele>
        <time>2015-06-19T06:52:10Z</time>
      </trkpt>
      <trkpt lat="41.79084" lon="9.23245">
        <ele>1157.4</ele>
        <time>2015-06-19T06:52:18Z</time>
      </trkpt>
      <trkpt lat="41.79106" lon="9.23239">
        <ele>1158.4</ele>
        <time>2015-06-19T06:54:09Z</time>
      </trkpt>
      <trkpt lat="41.79109" lon="9.2324">
        <ele>1158.6</ele>
        <time>2015-06-19T06:54:12Z</time>
      </trkpt>
      <trkpt lat="41.79111" lon="9.2324">
        <ele>1159.8</ele>
        <time>2015-06-19T06:54:17Z</time>
      </trkpt>
      <trkpt lat="41.79118" lon="9.2324">
        <ele>1160.8</ele>
        <time>2015-06-19T06:54:28Z</time>
      </trkpt>
      <trkpt lat="41.79126" lon="9.23233">
        <ele>1162</ele>
        <time>2015-06-19T06:54:43Z</time>
      </trkpt>
      <trkpt lat="41.79161" lon="9.23195">
        <ele>1162.6</ele>
        <time>2015-06-19T06:55:27Z</time>
      </trkpt>
      <trkpt lat="41.79171" lon="9.23184">
        <ele>1162.8</ele>
        <time>2015-06-19T06:55:40Z</time>
      </trkpt>
      <trkpt lat="41.79173" lon="9.23182">
        <ele>1163</ele>
        <time>2015-06-19T06:55:43Z</time>
      </trkpt>
      <trkpt lat="41.79174" lon="9.23179">
        <ele>1163.4</ele>
        <time>2015-06-19T06:55:48Z</time>
      </trkpt>
      <trkpt lat="41.79179" lon="9.23174">
        <ele>1164.2</ele>
        <time>2015-06-19T06:55:54Z</time>
      </trkpt>
      <trkpt lat="41.79181" lon="9.23167">
        <ele>1164.4</ele>
        <time>2015-06-19T06:56:00Z</time>
      </trkpt>
      <trkpt lat="41.79185" lon="9.23159">
        <ele>1164.4</ele>
        <time>2015-06-19T06:56:06Z</time>
      </trkpt>
      <trkpt lat="41.79194" lon="9.2314">
        <ele>1164.2</ele>
        <time>2015-06-19T06:56:24Z</time>
      </trkpt>
      <trkpt lat="41.79191" lon="9.23079">
        <ele>1164.6</ele>
        <time>2015-06-19T06:57:08Z</time>
      </trkpt>
      <trkpt lat="41.7919" lon="9.23066">
        <ele>1165</ele>
        <time>2015-06-19T06:57:21Z</time>
      </trkpt>
      <trkpt lat="41.79192" lon="9.23058">
        <ele>1165</ele>
        <time>2015-06-19T06:57:26Z</time>
      </trkpt>
      <trkpt lat="41.7921" lon="9.23042">
        <ele>1165.4</ele>
        <time>2015-06-19T06:57:40Z</time>
      </trkpt>
      <trkpt lat="41.79233" lon="9.23041">
        <ele>1166.2</ele>
        <time>2015-06-19T06:58:08Z</time>
      </trkpt>
      <trkpt lat="41.79245" lon="9.23043">
        <ele>1166.2</ele>
        <time>2015-06-19T06:58:25Z</time>
      </trkpt>
      <trkpt lat="41.79252" lon="9.23044">
        <ele>1166.4</ele>
        <time>2015-06-19T06:58:29Z</time>
      </trkpt>
      <trkpt lat="41.79268" lon="9.23048">
        <ele>1167</ele>
        <time>2015-06-19T06:58:39Z</time>
      </trkpt>
      <trkpt lat="41.79272" lon="9.23047">
        <ele>1167.2</ele>
        <time>2015-06-19T06:58:44Z</time>
      </trkpt>
      <trkpt lat="41.79276" lon="9.23048">
        <ele>1167.4</ele>
        <time>2015-06-19T06:58:48Z</time>
      </trkpt>
      <trkpt lat="41.79278" lon="9.23049">
        <ele>1167.6</ele>
        <time>2015-06-19T06:58:50Z</time>
      </trkpt>
      <trkpt lat="41.79286" lon="9.23051">
        <ele>1167.8</ele>
        <time>2015-06-19T06:58:57Z</time>
      </trkpt>
      <trkpt lat="41.79287" lon="9.23051">
        <ele>1167.8</ele>
        <time>2015-06-19T06:58:59Z</time>
      </trkpt>
      <trkpt lat="41.7929" lon="9.23052">
        <ele>1168</ele>
        <time>2015-06-19T06:59:05Z</time>
      </trkpt>
      <trkpt lat="41.79296" lon="9.23049">
        <ele>1168.4</ele>
        <time>2015-06-19T06:59:11Z</time>
      </trkpt>
      <trkpt lat="41.79304" lon="9.23044">
        <ele>1168.4</ele>
        <time>2015-06-19T06:59:19Z</time>
      </trkpt>
      <trkpt lat="41.79308" lon="9.23041">
        <ele>1168.4</ele>
        <time>2015-06-19T06:59:23Z</time>
      </trkpt>
      <trkpt lat="41.7931" lon="9.23039">
        <ele>1168.2</ele>
        <time>2015-06-19T06:59:26Z</time>
      </trkpt>
      <trkpt lat="41.79312" lon="9.23038">
        <ele>1168.2</ele>
        <time>2015-06-19T06:59:28Z</time>
      </trkpt>
      <trkpt lat="41.79321" lon="9.23032">
        <ele>1167.6</ele>
        <time>2015-06-19T06:59:38Z</time>
      </trkpt>
      <trkpt lat="41.79326" lon="9.23028">
        <ele>1167.4</ele>
        <time>2015-06-19T06:59:43Z</time>
      </trkpt>
      <trkpt lat="41.79332" lon="9.23024">
        <ele>1167.2</ele>
        <time>2015-06-19T06:59:50Z</time>
      </trkpt>
      <trkpt lat="41.79333" lon="9.23023">
        <ele>1167.2</ele>
        <time>2015-06-19T06:59:51Z</time>
      </trkpt>
      <trkpt lat="41.79337" lon="9.23021">
        <ele>1167</ele>
        <time>2015-06-19T06:59:56Z</time>
      </trkpt>
      <trkpt lat="41.79338" lon="9.23021">
        <ele>1166.8</ele>
        <time>2015-06-19T06:59:58Z</time>
      </trkpt>
      <trkpt lat="41.79352" lon="9.23013">
        <ele>1166.4</ele>
        <time>2015-06-19T07:00:09Z</time>
      </trkpt>
      <trkpt lat="41.79355" lon="9.23012">
        <ele>1166.4</ele>
        <time>2015-06-19T07:00:11Z</time>
      </trkpt>
      <trkpt lat="41.79358" lon="9.23011">
        <ele>1166.4</ele>
        <time>2015-06-19T07:00:13Z</time>
      </trkpt>
      <trkpt lat="41.79361" lon="9.23009">
        <ele>1166.4</ele>
        <time>2015-06-19T07:00:15Z</time>
      </trkpt>
      <trkpt lat="41.7937" lon="9.23002">
        <ele>1166.8</ele>
        <time>2015-06-19T07:00:24Z</time>
      </trkpt>
      <trkpt lat="41.79377" lon="9.22996">
        <ele>1167</ele>
        <time>2015-06-19T07:00:32Z</time>
      </trkpt>
      <trkpt lat="41.79381" lon="9.22992">
        <ele>1167.4</ele>
        <time>2015-06-19T07:00:36Z</time>
      </trkpt>
      <trkpt lat="41.79394" lon="9.2298">
        <ele>1167.8</ele>
        <time>2015-06-19T07:00:55Z</time>
      </trkpt>
      <trkpt lat="41.79396" lon="9.22978">
        <ele>1167.8</ele>
        <time>2015-06-19T07:00:57Z</time>
      </trkpt>
      <trkpt lat="41.794" lon="9.22975">
        <ele>1168</ele>
        <time>2015-06-19T07:01:01Z</time>
      </trkpt>
      <trkpt lat="41.79401" lon="9.22975">
        <ele>1168.2</ele>
        <time>2015-06-19T07:01:03Z</time>
      </trkpt>
      <trkpt lat="41.79406" lon="9.22968">
        <ele>1168.4</ele>
        <time>2015-06-19T07:01:10Z</time>
      </trkpt>
      <trkpt lat="41.79409" lon="9.22961">
        <ele>1168.4</ele>
        <time>2015-06-19T07:01:15Z</time>
      </trkpt>
      <trkpt lat="41.79411" lon="9.22959">
        <ele>1168.4</ele>
        <time>2015-06-19T07:01:19Z</time>
      </trkpt>
      <trkpt lat="41.79416" lon="9.22958">
        <ele>1168.4</ele>
        <time>2015-06-19T07:01:24Z</time>
      </trkpt>
      <trkpt lat="41.79419" lon="9.22958">
        <ele>1168.2</ele>
        <time>2015-06-19T07:01:27Z</time>
      </trkpt>
      <trkpt lat="41.79426" lon="9.2296">
        <ele>1168.4</ele>
        <time>2015-06-19T07:01:32Z</time>
      </trkpt>
      <trkpt lat="41.79431" lon="9.2296">
        <ele>1168.6</ele>
        <time>2015-06-19T07:01:35Z</time>
      </trkpt>
      <trkpt lat="41.79433" lon="9.22961">
        <ele>1168.6</ele>
        <time>2015-06-19T07:01:37Z</time>
      </trkpt>
      <trkpt lat="41.79443" lon="9.22968">
        <ele>1168.6</ele>
        <time>2015-06-19T07:01:47Z</time>
      </trkpt>
      <trkpt lat="41.79445" lon="9.22969">
        <ele>1168.6</ele>
        <time>2015-06-19T07:01:49Z</time>
      </trkpt>
      <trkpt lat="41.7946" lon="9.22962">
        <ele>1168.6</ele>
        <time>2015-06-19T07:02:06Z</time>
      </trkpt>
      <trkpt lat="41.79472" lon="9.22938">
        <ele>1169.4</ele>
        <time>2015-06-19T07:02:45Z</time>
      </trkpt>
      <trkpt lat="41.79466" lon="9.22916">
        <ele>1169.8</ele>
        <time>2015-06-19T07:03:09Z</time>
      </trkpt>
      <trkpt lat="41.79487" lon="9.22885">
        <ele>1169.2</ele>
        <time>2015-06-19T07:03:58Z</time>
      </trkpt>
      <trkpt lat="41.79493" lon="9.22884">
        <ele>1169.6</ele>
        <time>2015-06-19T07:36:00Z</time>
      </trkpt>
      <trkpt lat="41.79492" lon="9.22873">
        <ele>1171</ele>
        <time>2015-06-19T07:36:13Z</time>
      </trkpt>
      <trkpt lat="41.79495" lon="9.22859">
        <ele>1171</ele>
        <time>2015-06-19T07:36:29Z</time>
      </trkpt>
      <trkpt lat="41.79499" lon="9.22852">
        <ele>1172.2</ele>
        <time>2015-06-19T07:36:40Z</time>
      </trkpt>
      <trkpt lat="41.79507" lon="9.22845">
        <ele>1173.4</ele>
        <time>2015-06-19T07:36:51Z</time>
      </trkpt>
      <trkpt lat="41.79508" lon="9.22844">
        <ele>1173.4</ele>
        <time>2015-06-19T07:36:52Z</time>
      </trkpt>
      <trkpt lat="41.79514" lon="9.22835">
        <ele>1174.2</ele>
        <time>2015-06-19T07:37:01Z</time>
      </trkpt>
      <trkpt lat="41.79518" lon="9.22821">
        <ele>1175.6</ele>
        <time>2015-06-19T07:37:13Z</time>
      </trkpt>
      <trkpt lat="41.79517" lon="9.22806">
        <ele>1176.8</ele>
        <time>2015-06-19T07:37:27Z</time>
      </trkpt>
      <trkpt lat="41.79519" lon="9.22788">
        <ele>1177.8</ele>
        <time>2015-06-19T07:37:42Z</time>
      </trkpt>
      <trkpt lat="41.79523" lon="9.22779">
        <ele>1178.6</ele>
        <time>2015-06-19T07:37:52Z</time>
      </trkpt>
      <trkpt lat="41.79527" lon="9.22769">
        <ele>1179.6</ele>
        <time>2015-06-19T07:38:01Z</time>
      </trkpt>
      <trkpt lat="41.79537" lon="9.22753">
        <ele>1181.2</ele>
        <time>2015-06-19T07:38:14Z</time>
      </trkpt>
      <trkpt lat="41.79542" lon="9.22745">
        <ele>1182</ele>
        <time>2015-06-19T07:38:25Z</time>
      </trkpt>
      <trkpt lat="41.79546" lon="9.2274">
        <ele>1182.6</ele>
        <time>2015-06-19T07:38:31Z</time>
      </trkpt>
      <trkpt lat="41.7955" lon="9.22734">
        <ele>1183</ele>
        <time>2015-06-19T07:38:37Z</time>
      </trkpt>
      <trkpt lat="41.79556" lon="9.22721">
        <ele>1184.4</ele>
        <time>2015-06-19T07:38:50Z</time>
      </trkpt>
      <trkpt lat="41.79559" lon="9.22707">
        <ele>1185.4</ele>
        <time>2015-06-19T07:39:03Z</time>
      </trkpt>
      <trkpt lat="41.79561" lon="9.22705">
        <ele>1185.6</ele>
        <time>2015-06-19T07:39:05Z</time>
      </trkpt>
      <trkpt lat="41.79563" lon="9.22702">
        <ele>1185.8</ele>
        <time>2015-06-19T07:39:08Z</time>
      </trkpt>
      <trkpt lat="41.79564" lon="9.22699">
        <ele>1186.2</ele>
        <time>2015-06-19T07:39:11Z</time>
      </trkpt>
      <trkpt lat="41.79566" lon="9.22697">
        <ele>1186.2</ele>
        <time>2015-06-19T07:39:14Z</time>
      </trkpt>
      <trkpt lat="41.7957" lon="9.22692">
        <ele>1187</ele>
        <time>2015-06-19T07:39:18Z</time>
      </trkpt>
      <trkpt lat="41.79571" lon="9.22689">
        <ele>1187</ele>
        <time>2015-06-19T07:39:21Z</time>
      </trkpt>
      <trkpt lat="41.79572" lon="9.22685">
        <ele>1187.6</ele>
        <time>2015-06-19T07:39:26Z</time>
      </trkpt>
      <trkpt lat="41.79576" lon="9.22675">
        <ele>1188.8</ele>
        <time>2015-06-19T07:39:39Z</time>
      </trkpt>
      <trkpt lat="41.79579" lon="9.22664">
        <ele>1189.6</ele>
        <time>2015-06-19T07:39:49Z</time>
      </trkpt>
      <trkpt lat="41.7958" lon="9.22659">
        <ele>1190</ele>
        <time>2015-06-19T07:39:53Z</time>
      </trkpt>
      <trkpt lat="41.79583" lon="9.22644">
        <ele>1191.2</ele>
        <time>2015-06-19T07:40:06Z</time>
      </trkpt>
      <trkpt lat="41.79584" lon="9.2264">
        <ele>1191.2</ele>
        <time>2015-06-19T07:40:09Z</time>
      </trkpt>
      <trkpt lat="41.79585" lon="9.22636">
        <ele>1191.6</ele>
        <time>2015-06-19T07:40:13Z</time>
      </trkpt>
      <trkpt lat="41.79587" lon="9.22628">
        <ele>1192.6</ele>
        <time>2015-06-19T07:40:21Z</time>
      </trkpt>
      <trkpt lat="41.79587" lon="9.22614">
        <ele>1193.6</ele>
        <time>2015-06-19T07:40:36Z</time>
      </trkpt>
      <trkpt lat="41.79587" lon="9.22607">
        <ele>1194</ele>
        <time>2015-06-19T07:40:41Z</time>
      </trkpt>
      <trkpt lat="41.79587" lon="9.22597">
        <ele>1194.6</ele>
        <time>2015-06-19T07:40:49Z</time>
      </trkpt>
      <trkpt lat="41.7959" lon="9.22578">
        <ele>1196</ele>
        <time>2015-06-19T07:41:05Z</time>
      </trkpt>
      <trkpt lat="41.7959" lon="9.2257">
        <ele>1196.6</ele>
        <time>2015-06-19T07:41:12Z</time>
      </trkpt>
      <trkpt lat="41.7959" lon="9.22562">
        <ele>1197.2</ele>
        <time>2015-06-19T07:41:20Z</time>
      </trkpt>
      <trkpt lat="41.79589" lon="9.22545">
        <ele>1198.2</ele>
        <time>2015-06-19T07:41:32Z</time>
      </trkpt>
      <trkpt lat="41.79588" lon="9.22542">
        <ele>1198.4</ele>
        <time>2015-06-19T07:41:35Z</time>
      </trkpt>
      <trkpt lat="41.79587" lon="9.22527">
        <ele>1199.6</ele>
        <time>2015-06-19T07:41:48Z</time>
      </trkpt>
      <trkpt lat="41.79587" lon="9.22507">
        <ele>1200.4</ele>
        <time>2015-06-19T07:42:04Z</time>
      </trkpt>
      <trkpt lat="41.79587" lon="9.22494">
        <ele>1201.2</ele>
        <time>2015-06-19T07:42:16Z</time>
      </trkpt>
      <trkpt lat="41.79588" lon="9.22481">
        <ele>1201.6</ele>
        <time>2015-06-19T07:44:29Z</time>
      </trkpt>
      <trkpt lat="41.7958" lon="9.22438">
        <ele>1201.6</ele>
        <time>2015-06-19T07:45:09Z</time>
      </trkpt>
      <trkpt lat="41.79584" lon="9.22434">
        <ele>1201.2</ele>
        <time>2015-06-19T07:45:18Z</time>
      </trkpt>
      <trkpt lat="41.79594" lon="9.22429">
        <ele>1200.6</ele>
        <time>2015-06-19T07:45:47Z</time>
      </trkpt>
      <trkpt lat="41.79604" lon="9.22428">
        <ele>1199.6</ele>
        <time>2015-06-19T07:45:58Z</time>
      </trkpt>
      <trkpt lat="41.79621" lon="9.22412">
        <ele>1198</ele>
        <time>2015-06-19T07:46:25Z</time>
      </trkpt>
      <trkpt lat="41.7963" lon="9.22396">
        <ele>1197.2</ele>
        <time>2015-06-19T07:46:41Z</time>
      </trkpt>
      <trkpt lat="41.79635" lon="9.22386">
        <ele>1196.2</ele>
        <time>2015-06-19T07:46:51Z</time>
      </trkpt>
      <trkpt lat="41.79669" lon="9.22347">
        <ele>1195.6</ele>
        <time>2015-06-19T07:47:44Z</time>
      </trkpt>
      <trkpt lat="41.79676" lon="9.22334">
        <ele>1194.2</ele>
        <time>2015-06-19T07:48:00Z</time>
      </trkpt>
      <trkpt lat="41.79683" lon="9.2232">
        <ele>1193.6</ele>
        <time>2015-06-19T07:48:13Z</time>
      </trkpt>
      <trkpt lat="41.79685" lon="9.22309">
        <ele>1192.6</ele>
        <time>2015-06-19T07:48:23Z</time>
      </trkpt>
      <trkpt lat="41.79689" lon="9.22283">
        <ele>1191.2</ele>
        <time>2015-06-19T07:48:41Z</time>
      </trkpt>
      <trkpt lat="41.79691" lon="9.22275">
        <ele>1191.2</ele>
        <time>2015-06-19T07:48:47Z</time>
      </trkpt>
      <trkpt lat="41.79708" lon="9.22244">
        <ele>1190.2</ele>
        <time>2015-06-19T07:49:15Z</time>
      </trkpt>
      <trkpt lat="41.7971" lon="9.22227">
        <ele>1190.4</ele>
        <time>2015-06-19T07:49:41Z</time>
      </trkpt>
      <trkpt lat="41.79711" lon="9.22219">
        <ele>1189.2</ele>
        <time>2015-06-19T07:49:50Z</time>
      </trkpt>
      <trkpt lat="41.79713" lon="9.22208">
        <ele>1188</ele>
        <time>2015-06-19T07:50:05Z</time>
      </trkpt>
      <trkpt lat="41.79719" lon="9.22175">
        <ele>1186.6</ele>
        <time>2015-06-19T07:50:51Z</time>
      </trkpt>
      <trkpt lat="41.7972" lon="9.22171">
        <ele>1186.4</ele>
        <time>2015-06-19T07:50:54Z</time>
      </trkpt>
      <trkpt lat="41.7972" lon="9.22138">
        <ele>1185.6</ele>
        <time>2015-06-19T07:51:49Z</time>
      </trkpt>
      <trkpt lat="41.79724" lon="9.22131">
        <ele>1185.8</ele>
        <time>2015-06-19T07:52:14Z</time>
      </trkpt>
      <trkpt lat="41.79726" lon="9.22134">
        <ele>1186.4</ele>
        <time>2015-06-19T07:52:21Z</time>
      </trkpt>
      <trkpt lat="41.7973" lon="9.22137">
        <ele>1187.4</ele>
        <time>2015-06-19T07:52:29Z</time>
      </trkpt>
      <trkpt lat="41.79733" lon="9.22135">
        <ele>1188.8</ele>
        <time>2015-06-19T07:52:39Z</time>
      </trkpt>
      <trkpt lat="41.79736" lon="9.22136">
        <ele>1190.2</ele>
        <time>2015-06-19T07:52:49Z</time>
      </trkpt>
      <trkpt lat="41.79737" lon="9.22134">
        <ele>1190.6</ele>
        <time>2015-06-19T07:52:58Z</time>
      </trkpt>
      <trkpt lat="41.79738" lon="9.22125">
        <ele>1192.2</ele>
        <time>2015-06-19T07:53:21Z</time>
      </trkpt>
      <trkpt lat="41.79739" lon="9.22123">
        <ele>1193.2</ele>
        <time>2015-06-19T07:53:30Z</time>
      </trkpt>
      <trkpt lat="41.79738" lon="9.22115">
        <ele>1194.6</ele>
        <time>2015-06-19T07:53:43Z</time>
      </trkpt>
      <trkpt lat="41.79741" lon="9.22107">
        <ele>1195.2</ele>
        <time>2015-06-19T07:54:06Z</time>
      </trkpt>
      <trkpt lat="41.79744" lon="9.22104">
        <ele>1196.4</ele>
        <time>2015-06-19T07:54:14Z</time>
      </trkpt>
      <trkpt lat="41.79747" lon="9.22102">
        <ele>1197.6</ele>
        <time>2015-06-19T07:54:24Z</time>
      </trkpt>
      <trkpt lat="41.79749" lon="9.22101">
        <ele>1199.4</ele>
        <time>2015-06-19T07:54:39Z</time>
      </trkpt>
      <trkpt lat="41.7975" lon="9.22097">
        <ele>1200</ele>
        <time>2015-06-19T07:54:48Z</time>
      </trkpt>
      <trkpt lat="41.79751" lon="9.22088">
        <ele>1201.6</ele>
        <time>2015-06-19T07:55:05Z</time>
      </trkpt>
      <trkpt lat="41.79755" lon="9.22084">
        <ele>1202.4</ele>
        <time>2015-06-19T07:55:17Z</time>
      </trkpt>
      <trkpt lat="41.79757" lon="9.2208">
        <ele>1203.2</ele>
        <time>2015-06-19T07:55:24Z</time>
      </trkpt>
      <trkpt lat="41.79749" lon="9.22063">
        <ele>1205</ele>
        <time>2015-06-19T07:56:00Z</time>
      </trkpt>
      <trkpt lat="41.79751" lon="9.22053">
        <ele>1206.4</ele>
        <time>2015-06-19T07:56:22Z</time>
      </trkpt>
      <trkpt lat="41.79751" lon="9.22049">
        <ele>1207</ele>
        <time>2015-06-19T07:56:33Z</time>
      </trkpt>
      <trkpt lat="41.79752" lon="9.22047">
        <ele>1208.4</ele>
        <time>2015-06-19T07:56:46Z</time>
      </trkpt>
      <trkpt lat="41.7975" lon="9.22038">
        <ele>1209.8</ele>
        <time>2015-06-19T07:57:15Z</time>
      </trkpt>
      <trkpt lat="41.79749" lon="9.22033">
        <ele>1210.2</ele>
        <time>2015-06-19T07:57:24Z</time>
      </trkpt>
      <trkpt lat="41.79749" lon="9.2203">
        <ele>1211.8</ele>
        <time>2015-06-19T07:57:35Z</time>
      </trkpt>
      <trkpt lat="41.79748" lon="9.22027">
        <ele>1212.4</ele>
        <time>2015-06-19T07:57:42Z</time>
      </trkpt>
      <trkpt lat="41.79746" lon="9.22024">
        <ele>1214</ele>
        <time>2015-06-19T07:57:56Z</time>
      </trkpt>
      <trkpt lat="41.79745" lon="9.22021">
        <ele>1214.8</ele>
        <time>2015-06-19T07:58:04Z</time>
      </trkpt>
      <trkpt lat="41.79745" lon="9.22018">
        <ele>1216.2</ele>
        <time>2015-06-19T07:58:13Z</time>
      </trkpt>
      <trkpt lat="41.79745" lon="9.22018">
        <ele>1216.6</ele>
        <time>2015-06-19T07:58:16Z</time>
      </trkpt>
      <trkpt lat="41.79746" lon="9.22015">
        <ele>1217.6</ele>
        <time>2015-06-19T07:58:27Z</time>
      </trkpt>
      <trkpt lat="41.79746" lon="9.22011">
        <ele>1218.6</ele>
        <time>2015-06-19T07:58:38Z</time>
      </trkpt>
      <trkpt lat="41.79746" lon="9.22008">
        <ele>1219.6</ele>
        <time>2015-06-19T07:58:47Z</time>
      </trkpt>
      <trkpt lat="41.79748" lon="9.22005">
        <ele>1220.8</ele>
        <time>2015-06-19T07:58:55Z</time>
      </trkpt>
      <trkpt lat="41.79751" lon="9.22003">
        <ele>1222</ele>
        <time>2015-06-19T07:59:05Z</time>
      </trkpt>
      <trkpt lat="41.79753" lon="9.21999">
        <ele>1223.4</ele>
        <time>2015-06-19T07:59:19Z</time>
      </trkpt>
      <trkpt lat="41.79756" lon="9.21996">
        <ele>1224.4</ele>
        <time>2015-06-19T07:59:29Z</time>
      </trkpt>
      <trkpt lat="41.79759" lon="9.21994">
        <ele>1225.4</ele>
        <time>2015-06-19T07:59:37Z</time>
      </trkpt>
      <trkpt lat="41.79765" lon="9.21999">
        <ele>1227</ele>
        <time>2015-06-19T08:00:19Z</time>
      </trkpt>
      <trkpt lat="41.79766" lon="9.22002">
        <ele>1228.4</ele>
        <time>2015-06-19T08:00:30Z</time>
      </trkpt>
      <trkpt lat="41.79768" lon="9.22002">
        <ele>1229.4</ele>
        <time>2015-06-19T08:00:42Z</time>
      </trkpt>
      <trkpt lat="41.79768" lon="9.22001">
        <ele>1230.8</ele>
        <time>2015-06-19T08:00:52Z</time>
      </trkpt>
      <trkpt lat="41.79767" lon="9.21993">
        <ele>1231.6</ele>
        <time>2015-06-19T08:01:18Z</time>
      </trkpt>
      <trkpt lat="41.79766" lon="9.21988">
        <ele>1233.4</ele>
        <time>2015-06-19T08:01:29Z</time>
      </trkpt>
      <trkpt lat="41.79768" lon="9.21978">
        <ele>1234.6</ele>
        <time>2015-06-19T08:01:46Z</time>
      </trkpt>
      <trkpt lat="41.7977" lon="9.21975">
        <ele>1235</ele>
        <time>2015-06-19T08:01:52Z</time>
      </trkpt>
      <trkpt lat="41.79773" lon="9.21978">
        <ele>1236.6</ele>
        <time>2015-06-19T08:02:02Z</time>
      </trkpt>
      <trkpt lat="41.79774" lon="9.21981">
        <ele>1237.6</ele>
        <time>2015-06-19T08:02:11Z</time>
      </trkpt>
      <trkpt lat="41.79779" lon="9.21984">
        <ele>1239</ele>
        <time>2015-06-19T08:02:25Z</time>
      </trkpt>
      <trkpt lat="41.79783" lon="9.21982">
        <ele>1240</ele>
        <time>2015-06-19T08:02:35Z</time>
      </trkpt>
      <trkpt lat="41.79784" lon="9.2198">
        <ele>1241.2</ele>
        <time>2015-06-19T08:02:46Z</time>
      </trkpt>
      <trkpt lat="41.79786" lon="9.2198">
        <ele>1242.2</ele>
        <time>2015-06-19T08:03:00Z</time>
      </trkpt>
      <trkpt lat="41.7979" lon="9.21979">
        <ele>1243.8</ele>
        <time>2015-06-19T08:03:12Z</time>
      </trkpt>
      <trkpt lat="41.7979" lon="9.21975">
        <ele>1245.2</ele>
        <time>2015-06-19T08:03:25Z</time>
      </trkpt>
      <trkpt lat="41.79791" lon="9.21973">
        <ele>1246</ele>
        <time>2015-06-19T08:03:38Z</time>
      </trkpt>
      <trkpt lat="41.79793" lon="9.21969">
        <ele>1247.2</ele>
        <time>2015-06-19T08:03:47Z</time>
      </trkpt>
      <trkpt lat="41.79794" lon="9.21967">
        <ele>1248.4</ele>
        <time>2015-06-19T08:03:59Z</time>
      </trkpt>
      <trkpt lat="41.79795" lon="9.21965">
        <ele>1249.2</ele>
        <time>2015-06-19T08:04:09Z</time>
      </trkpt>
      <trkpt lat="41.79796" lon="9.21968">
        <ele>1250.8</ele>
        <time>2015-06-19T08:04:21Z</time>
      </trkpt>
      <trkpt lat="41.798" lon="9.21966">
        <ele>1251.4</ele>
        <time>2015-06-19T08:04:27Z</time>
      </trkpt>
      <trkpt lat="41.798" lon="9.21965">
        <ele>1251.6</ele>
        <time>2015-06-19T08:04:29Z</time>
      </trkpt>
      <trkpt lat="41.798" lon="9.21966">
        <ele>1251.8</ele>
        <time>2015-06-19T08:04:33Z</time>
      </trkpt>
      <trkpt lat="41.798" lon="9.21966">
        <ele>1253.2</ele>
        <time>2015-06-19T08:04:47Z</time>
      </trkpt>
      <trkpt lat="41.79802" lon="9.21965">
        <ele>1254.2</ele>
        <time>2015-06-19T08:04:58Z</time>
      </trkpt>
      <trkpt lat="41.79803" lon="9.21965">
        <ele>1255.2</ele>
        <time>2015-06-19T08:05:08Z</time>
      </trkpt>
      <trkpt lat="41.79804" lon="9.21964">
        <ele>1256</ele>
        <time>2015-06-19T08:05:14Z</time>
      </trkpt>
      <trkpt lat="41.79804" lon="9.21962">
        <ele>1257.6</ele>
        <time>2015-06-19T08:05:36Z</time>
      </trkpt>
      <trkpt lat="41.79803" lon="9.2196">
        <ele>1258.6</ele>
        <time>2015-06-19T08:05:45Z</time>
      </trkpt>
      <trkpt lat="41.79801" lon="9.21958">
        <ele>1259.8</ele>
        <time>2015-06-19T08:05:54Z</time>
      </trkpt>
      <trkpt lat="41.79799" lon="9.21954">
        <ele>1261.2</ele>
        <time>2015-06-19T08:06:05Z</time>
      </trkpt>
      <trkpt lat="41.79798" lon="9.21945">
        <ele>1262.4</ele>
        <time>2015-06-19T08:06:20Z</time>
      </trkpt>
      <trkpt lat="41.79799" lon="9.21936">
        <ele>1263.4</ele>
        <time>2015-06-19T08:06:46Z</time>
      </trkpt>
      <trkpt lat="41.79799" lon="9.21932">
        <ele>1264.6</ele>
        <time>2015-06-19T08:06:55Z</time>
      </trkpt>
      <trkpt lat="41.798" lon="9.21903">
        <ele>1266.4</ele>
        <time>2015-06-19T08:07:37Z</time>
      </trkpt>
      <trkpt lat="41.79801" lon="9.219">
        <ele>1266.8</ele>
        <time>2015-06-19T08:07:43Z</time>
      </trkpt>
      <trkpt lat="41.79803" lon="9.21897">
        <ele>1268</ele>
        <time>2015-06-19T08:07:52Z</time>
      </trkpt>
      <trkpt lat="41.79805" lon="9.21891">
        <ele>1269.6</ele>
        <time>2015-06-19T08:08:03Z</time>
      </trkpt>
      <trkpt lat="41.79806" lon="9.21884">
        <ele>1270.8</ele>
        <time>2015-06-19T08:08:16Z</time>
      </trkpt>
      <trkpt lat="41.79806" lon="9.21878">
        <ele>1271.4</ele>
        <time>2015-06-19T08:08:26Z</time>
      </trkpt>
      <trkpt lat="41.79808" lon="9.21878">
        <ele>1273</ele>
        <time>2015-06-19T08:09:07Z</time>
      </trkpt>
      <trkpt lat="41.79813" lon="9.2187">
        <ele>1273.2</ele>
        <time>2015-06-19T08:10:07Z</time>
      </trkpt>
      <trkpt lat="41.79821" lon="9.21854">
        <ele>1274</ele>
        <time>2015-06-19T08:10:43Z</time>
      </trkpt>
      <trkpt lat="41.79823" lon="9.21856">
        <ele>1275.4</ele>
        <time>2015-06-19T08:10:53Z</time>
      </trkpt>
      <trkpt lat="41.79826" lon="9.21854">
        <ele>1276.2</ele>
        <time>2015-06-19T08:11:00Z</time>
      </trkpt>
      <trkpt lat="41.79833" lon="9.21848">
        <ele>1277.6</ele>
        <time>2015-06-19T08:11:11Z</time>
      </trkpt>
      <trkpt lat="41.79837" lon="9.21845">
        <ele>1278.4</ele>
        <time>2015-06-19T08:11:20Z</time>
      </trkpt>
      <trkpt lat="41.79845" lon="9.2182">
        <ele>1279.4</ele>
        <time>2015-06-19T08:11:47Z</time>
      </trkpt>
      <trkpt lat="41.79846" lon="9.21817">
        <ele>1279.4</ele>
        <time>2015-06-19T08:11:52Z</time>
      </trkpt>
      <trkpt lat="41.79852" lon="9.21813">
        <ele>1281.2</ele>
        <time>2015-06-19T08:12:09Z</time>
      </trkpt>
      <trkpt lat="41.79856" lon="9.2181">
        <ele>1282.4</ele>
        <time>2015-06-19T08:12:22Z</time>
      </trkpt>
      <trkpt lat="41.7986" lon="9.21808">
        <ele>1283.2</ele>
        <time>2015-06-19T08:12:32Z</time>
      </trkpt>
      <trkpt lat="41.79862" lon="9.21806">
        <ele>1284.4</ele>
        <time>2015-06-19T08:12:41Z</time>
      </trkpt>
      <trkpt lat="41.79862" lon="9.21805">
        <ele>1285.6</ele>
        <time>2015-06-19T08:12:50Z</time>
      </trkpt>
      <trkpt lat="41.79862" lon="9.21805">
        <ele>1286.6</ele>
        <time>2015-06-19T08:13:00Z</time>
      </trkpt>
      <trkpt lat="41.79865" lon="9.21802">
        <ele>1288.2</ele>
        <time>2015-06-19T08:13:14Z</time>
      </trkpt>
      <trkpt lat="41.79869" lon="9.21801">
        <ele>1289.2</ele>
        <time>2015-06-19T08:13:29Z</time>
      </trkpt>
      <trkpt lat="41.79873" lon="9.21802">
        <ele>1289.8</ele>
        <time>2015-06-19T08:13:38Z</time>
      </trkpt>
      <trkpt lat="41.79875" lon="9.21801">
        <ele>1291</ele>
        <time>2015-06-19T08:13:52Z</time>
      </trkpt>
      <trkpt lat="41.79878" lon="9.21799">
        <ele>1292.2</ele>
        <time>2015-06-19T08:14:02Z</time>
      </trkpt>
      <trkpt lat="41.79884" lon="9.21795">
        <ele>1293.2</ele>
        <time>2015-06-19T08:14:11Z</time>
      </trkpt>
      <trkpt lat="41.79884" lon="9.21794">
        <ele>1294</ele>
        <time>2015-06-19T08:14:19Z</time>
      </trkpt>
      <trkpt lat="41.79887" lon="9.21792">
        <ele>1295.4</ele>
        <time>2015-06-19T08:14:30Z</time>
      </trkpt>
      <trkpt lat="41.79888" lon="9.21792">
        <ele>1296.6</ele>
        <time>2015-06-19T08:14:41Z</time>
      </trkpt>
      <trkpt lat="41.79889" lon="9.21791">
        <ele>1297.2</ele>
        <time>2015-06-19T08:14:48Z</time>
      </trkpt>
      <trkpt lat="41.79891" lon="9.21793">
        <ele>1298.6</ele>
        <time>2015-06-19T08:15:01Z</time>
      </trkpt>
      <trkpt lat="41.79894" lon="9.21793">
        <ele>1300.2</ele>
        <time>2015-06-19T08:15:14Z</time>
      </trkpt>
      <trkpt lat="41.79896" lon="9.21792">
        <ele>1300.8</ele>
        <time>2015-06-19T08:15:22Z</time>
      </trkpt>
      <trkpt lat="41.79899" lon="9.21794">
        <ele>1302</ele>
        <time>2015-06-19T08:15:31Z</time>
      </trkpt>
      <trkpt lat="41.79902" lon="9.21793">
        <ele>1303.4</ele>
        <time>2015-06-19T08:15:47Z</time>
      </trkpt>
      <trkpt lat="41.79902" lon="9.21797">
        <ele>1304.6</ele>
        <time>2015-06-19T08:16:00Z</time>
      </trkpt>
      <trkpt lat="41.79902" lon="9.218">
        <ele>1306</ele>
        <time>2015-06-19T08:16:14Z</time>
      </trkpt>
      <trkpt lat="41.79904" lon="9.21801">
        <ele>1306.8</ele>
        <time>2015-06-19T08:16:25Z</time>
      </trkpt>
      <trkpt lat="41.79905" lon="9.21801">
        <ele>1307.8</ele>
        <time>2015-06-19T08:16:54Z</time>
      </trkpt>
      <trkpt lat="41.79909" lon="9.21802">
        <ele>1308.6</ele>
        <time>2015-06-19T08:17:23Z</time>
      </trkpt>
      <trkpt lat="41.7991" lon="9.21799">
        <ele>1310</ele>
        <time>2015-06-19T08:17:36Z</time>
      </trkpt>
      <trkpt lat="41.79912" lon="9.21794">
        <ele>1311</ele>
        <time>2015-06-19T08:17:50Z</time>
      </trkpt>
      <trkpt lat="41.79915" lon="9.21791">
        <ele>1312.2</ele>
        <time>2015-06-19T08:17:59Z</time>
      </trkpt>
      <trkpt lat="41.79916" lon="9.21787">
        <ele>1313.2</ele>
        <time>2015-06-19T08:18:08Z</time>
      </trkpt>
      <trkpt lat="41.79919" lon="9.21787">
        <ele>1314.4</ele>
        <time>2015-06-19T08:18:20Z</time>
      </trkpt>
      <trkpt lat="41.79925" lon="9.21782">
        <ele>1315.6</ele>
        <time>2015-06-19T08:18:31Z</time>
      </trkpt>
      <trkpt lat="41.79926" lon="9.21781">
        <ele>1315.8</ele>
        <time>2015-06-19T08:18:32Z</time>
      </trkpt>
      <trkpt lat="41.79928" lon="9.21779">
        <ele>1316.8</ele>
        <time>2015-06-19T08:18:41Z</time>
      </trkpt>
      <trkpt lat="41.79929" lon="9.21775">
        <ele>1318</ele>
        <time>2015-06-19T08:18:51Z</time>
      </trkpt>
      <trkpt lat="41.7993" lon="9.21779">
        <ele>1319</ele>
        <time>2015-06-19T08:19:01Z</time>
      </trkpt>
      <trkpt lat="41.79929" lon="9.21779">
        <ele>1320.4</ele>
        <time>2015-06-19T08:19:14Z</time>
      </trkpt>
      <trkpt lat="41.79927" lon="9.2178">
        <ele>1320.6</ele>
        <time>2015-06-19T08:19:16Z</time>
      </trkpt>
      <trkpt lat="41.79925" lon="9.21781">
        <ele>1320.6</ele>
        <time>2015-06-19T08:19:17Z</time>
      </trkpt>
      <trkpt lat="41.79923" lon="9.21782">
        <ele>1320.8</ele>
        <time>2015-06-19T08:19:20Z</time>
      </trkpt>
      <trkpt lat="41.79916" lon="9.21787">
        <ele>1321.4</ele>
        <time>2015-06-19T08:19:25Z</time>
      </trkpt>
      <trkpt lat="41.79914" lon="9.21789">
        <ele>1321.6</ele>
        <time>2015-06-19T08:19:26Z</time>
      </trkpt>
      <trkpt lat="41.79925" lon="9.21792">
        <ele>1322.6</ele>
        <time>2015-06-19T08:19:40Z</time>
      </trkpt>
      <trkpt lat="41.79927" lon="9.2179">
        <ele>1322.6</ele>
        <time>2015-06-19T08:19:42Z</time>
      </trkpt>
      <trkpt lat="41.79928" lon="9.2179">
        <ele>1322.8</ele>
        <time>2015-06-19T08:19:44Z</time>
      </trkpt>
      <trkpt lat="41.79933" lon="9.21788">
        <ele>1323.2</ele>
        <time>2015-06-19T08:19:56Z</time>
      </trkpt>
      <trkpt lat="41.79934" lon="9.21789">
        <ele>1324.6</ele>
        <time>2015-06-19T08:20:11Z</time>
      </trkpt>
      <trkpt lat="41.79936" lon="9.21791">
        <ele>1325.6</ele>
        <time>2015-06-19T08:20:20Z</time>
      </trkpt>
      <trkpt lat="41.79943" lon="9.21793">
        <ele>1327.2</ele>
        <time>2015-06-19T08:20:38Z</time>
      </trkpt>
      <trkpt lat="41.79944" lon="9.21795">
        <ele>1328.2</ele>
        <time>2015-06-19T08:20:47Z</time>
      </trkpt>
      <trkpt lat="41.79948" lon="9.21794">
        <ele>1329.4</ele>
        <time>2015-06-19T08:20:59Z</time>
      </trkpt>
      <trkpt lat="41.79951" lon="9.21789">
        <ele>1331</ele>
        <time>2015-06-19T08:21:15Z</time>
      </trkpt>
      <trkpt lat="41.79947" lon="9.21792">
        <ele>1332.2</ele>
        <time>2015-06-19T08:21:28Z</time>
      </trkpt>
      <trkpt lat="41.79947" lon="9.21793">
        <ele>1333</ele>
        <time>2015-06-19T08:21:35Z</time>
      </trkpt>
      <trkpt lat="41.79944" lon="9.21795">
        <ele>1333.8</ele>
        <time>2015-06-19T08:21:41Z</time>
      </trkpt>
      <trkpt lat="41.79945" lon="9.21795">
        <ele>1334</ele>
        <time>2015-06-19T08:21:43Z</time>
      </trkpt>
      <trkpt lat="41.79949" lon="9.21797">
        <ele>1334.4</ele>
        <time>2015-06-19T08:21:49Z</time>
      </trkpt>
      <trkpt lat="41.79949" lon="9.218">
        <ele>1334.4</ele>
        <time>2015-06-19T08:21:56Z</time>
      </trkpt>
      <trkpt lat="41.79948" lon="9.21801">
        <ele>1334.6</ele>
        <time>2015-06-19T08:21:57Z</time>
      </trkpt>
      <trkpt lat="41.79951" lon="9.218">
        <ele>1335</ele>
        <time>2015-06-19T08:22:01Z</time>
      </trkpt>
      <trkpt lat="41.79954" lon="9.218">
        <ele>1335.6</ele>
        <time>2015-06-19T08:22:09Z</time>
      </trkpt>
      <trkpt lat="41.79958" lon="9.218">
        <ele>1336.2</ele>
        <time>2015-06-19T08:22:13Z</time>
      </trkpt>
      <trkpt lat="41.79956" lon="9.218">
        <ele>1336.6</ele>
        <time>2015-06-19T08:22:16Z</time>
      </trkpt>
      <trkpt lat="41.79957" lon="9.21799">
        <ele>1337</ele>
        <time>2015-06-19T08:22:23Z</time>
      </trkpt>
      <trkpt lat="41.79961" lon="9.21797">
        <ele>1338.4</ele>
        <time>2015-06-19T08:22:37Z</time>
      </trkpt>
      <trkpt lat="41.79962" lon="9.21789">
        <ele>1339.6</ele>
        <time>2015-06-19T08:22:47Z</time>
      </trkpt>
      <trkpt lat="41.79962" lon="9.21789">
        <ele>1339.8</ele>
        <time>2015-06-19T08:22:48Z</time>
      </trkpt>
      <trkpt lat="41.79969" lon="9.21789">
        <ele>1340.6</ele>
        <time>2015-06-19T08:23:04Z</time>
      </trkpt>
      <trkpt lat="41.7997" lon="9.2179">
        <ele>1341.8</ele>
        <time>2015-06-19T08:23:12Z</time>
      </trkpt>
      <trkpt lat="41.79972" lon="9.21795">
        <ele>1343</ele>
        <time>2015-06-19T08:23:21Z</time>
      </trkpt>
      <trkpt lat="41.79975" lon="9.21804">
        <ele>1344.4</ele>
        <time>2015-06-19T08:23:38Z</time>
      </trkpt>
      <trkpt lat="41.79974" lon="9.21805">
        <ele>1345.6</ele>
        <time>2015-06-19T08:23:49Z</time>
      </trkpt>
      <trkpt lat="41.7998" lon="9.218">
        <ele>1346.4</ele>
        <time>2015-06-19T08:23:57Z</time>
      </trkpt>
      <trkpt lat="41.7998" lon="9.218">
        <ele>1346.8</ele>
        <time>2015-06-19T08:24:00Z</time>
      </trkpt>
      <trkpt lat="41.79981" lon="9.21797">
        <ele>1348.2</ele>
        <time>2015-06-19T08:24:13Z</time>
      </trkpt>
      <trkpt lat="41.79983" lon="9.21792">
        <ele>1349</ele>
        <time>2015-06-19T08:24:22Z</time>
      </trkpt>
      <trkpt lat="41.79984" lon="9.21794">
        <ele>1350.6</ele>
        <time>2015-06-19T08:24:35Z</time>
      </trkpt>
      <trkpt lat="41.79986" lon="9.21797">
        <ele>1351.8</ele>
        <time>2015-06-19T08:24:51Z</time>
      </trkpt>
      <trkpt lat="41.79985" lon="9.21798">
        <ele>1352.6</ele>
        <time>2015-06-19T08:25:01Z</time>
      </trkpt>
      <trkpt lat="41.79985" lon="9.21804">
        <ele>1354.4</ele>
        <time>2015-06-19T08:25:21Z</time>
      </trkpt>
      <trkpt lat="41.7998" lon="9.21807">
        <ele>1355.4</ele>
        <time>2015-06-19T08:25:33Z</time>
      </trkpt>
      <trkpt lat="41.79979" lon="9.21807">
        <ele>1355.4</ele>
        <time>2015-06-19T08:25:34Z</time>
      </trkpt>
      <trkpt lat="41.79979" lon="9.21807">
        <ele>1355.4</ele>
        <time>2015-06-19T08:25:35Z</time>
      </trkpt>
      <trkpt lat="41.7998" lon="9.21806">
        <ele>1357</ele>
        <time>2015-06-19T08:25:49Z</time>
      </trkpt>
      <trkpt lat="41.79982" lon="9.21805">
        <ele>1358.2</ele>
        <time>2015-06-19T08:26:04Z</time>
      </trkpt>
      <trkpt lat="41.79985" lon="9.2181">
        <ele>1359.4</ele>
        <time>2015-06-19T08:26:17Z</time>
      </trkpt>
      <trkpt lat="41.79988" lon="9.2181">
        <ele>1359.8</ele>
        <time>2015-06-19T08:26:20Z</time>
      </trkpt>
      <trkpt lat="41.79995" lon="9.21807">
        <ele>1360.4</ele>
        <time>2015-06-19T08:26:28Z</time>
      </trkpt>
      <trkpt lat="41.79998" lon="9.21807">
        <ele>1361</ele>
        <time>2015-06-19T08:26:32Z</time>
      </trkpt>
      <trkpt lat="41.80005" lon="9.21802">
        <ele>1362.4</ele>
        <time>2015-06-19T08:26:43Z</time>
      </trkpt>
      <trkpt lat="41.80006" lon="9.218">
        <ele>1362.4</ele>
        <time>2015-06-19T08:26:45Z</time>
      </trkpt>
      <trkpt lat="41.8001" lon="9.21801">
        <ele>1363.4</ele>
        <time>2015-06-19T08:27:01Z</time>
      </trkpt>
      <trkpt lat="41.8001" lon="9.21807">
        <ele>1364.2</ele>
        <time>2015-06-19T08:27:10Z</time>
      </trkpt>
      <trkpt lat="41.8001" lon="9.21808">
        <ele>1364.8</ele>
        <time>2015-06-19T08:27:14Z</time>
      </trkpt>
      <trkpt lat="41.80012" lon="9.21809">
        <ele>1365.4</ele>
        <time>2015-06-19T08:27:25Z</time>
      </trkpt>
      <trkpt lat="41.80011" lon="9.2181">
        <ele>1366.8</ele>
        <time>2015-06-19T08:27:36Z</time>
      </trkpt>
      <trkpt lat="41.80009" lon="9.21807">
        <ele>1368.6</ele>
        <time>2015-06-19T08:27:54Z</time>
      </trkpt>
      <trkpt lat="41.80009" lon="9.218">
        <ele>1369.6</ele>
        <time>2015-06-19T08:28:05Z</time>
      </trkpt>
      <trkpt lat="41.8001" lon="9.218">
        <ele>1369.8</ele>
        <time>2015-06-19T08:28:06Z</time>
      </trkpt>
      <trkpt lat="41.80009" lon="9.21794">
        <ele>1371.4</ele>
        <time>2015-06-19T08:28:25Z</time>
      </trkpt>
      <trkpt lat="41.80002" lon="9.218">
        <ele>1371.4</ele>
        <time>2015-06-19T08:28:30Z</time>
      </trkpt>
      <trkpt lat="41.79999" lon="9.21802">
        <ele>1371.4</ele>
        <time>2015-06-19T08:28:32Z</time>
      </trkpt>
      <trkpt lat="41.79999" lon="9.21802">
        <ele>1371.8</ele>
        <time>2015-06-19T08:28:38Z</time>
      </trkpt>
      <trkpt lat="41.79996" lon="9.21799">
        <ele>1373</ele>
        <time>2015-06-19T08:28:48Z</time>
      </trkpt>
      <trkpt lat="41.79977" lon="9.21799">
        <ele>1374.4</ele>
        <time>2015-06-19T08:28:58Z</time>
      </trkpt>
      <trkpt lat="41.79969" lon="9.21804">
        <ele>1375.6</ele>
        <time>2015-06-19T08:29:09Z</time>
      </trkpt>
      <trkpt lat="41.79981" lon="9.218">
        <ele>1376.8</ele>
        <time>2015-06-19T08:29:21Z</time>
      </trkpt>
      <trkpt lat="41.79983" lon="9.21798">
        <ele>1377.2</ele>
        <time>2015-06-19T08:29:24Z</time>
      </trkpt>
      <trkpt lat="41.79983" lon="9.21797">
        <ele>1377.4</ele>
        <time>2015-06-19T08:29:26Z</time>
      </trkpt>
      <trkpt lat="41.79985" lon="9.21795">
        <ele>1378</ele>
        <time>2015-06-19T08:29:31Z</time>
      </trkpt>
      <trkpt lat="41.79986" lon="9.21793">
        <ele>1378.8</ele>
        <time>2015-06-19T08:29:39Z</time>
      </trkpt>
      <trkpt lat="41.79986" lon="9.21792">
        <ele>1379</ele>
        <time>2015-06-19T08:29:40Z</time>
      </trkpt>
      <trkpt lat="41.79988" lon="9.21789">
        <ele>1379.8</ele>
        <time>2015-06-19T08:29:46Z</time>
      </trkpt>
      <trkpt lat="41.79992" lon="9.2179">
        <ele>1380.4</ele>
        <time>2015-06-19T08:29:55Z</time>
      </trkpt>
      <trkpt lat="41.79996" lon="9.21783">
        <ele>1381.4</ele>
        <time>2015-06-19T08:30:11Z</time>
      </trkpt>
      <trkpt lat="41.79994" lon="9.21781">
        <ele>1381.6</ele>
        <time>2015-06-19T08:30:13Z</time>
      </trkpt>
      <trkpt lat="41.79992" lon="9.21776">
        <ele>1382.2</ele>
        <time>2015-06-19T08:30:19Z</time>
      </trkpt>
      <trkpt lat="41.79992" lon="9.21774">
        <ele>1382.4</ele>
        <time>2015-06-19T08:30:22Z</time>
      </trkpt>
      <trkpt lat="41.79992" lon="9.2177">
        <ele>1383.6</ele>
        <time>2015-06-19T08:30:31Z</time>
      </trkpt>
      <trkpt lat="41.79993" lon="9.21769">
        <ele>1384.8</ele>
        <time>2015-06-19T08:30:50Z</time>
      </trkpt>
      <trkpt lat="41.79995" lon="9.2177">
        <ele>1385.8</ele>
        <time>2015-06-19T08:30:59Z</time>
      </trkpt>
      <trkpt lat="41.80002" lon="9.21769">
        <ele>1387.4</ele>
        <time>2015-06-19T08:31:12Z</time>
      </trkpt>
      <trkpt lat="41.80003" lon="9.21766">
        <ele>1388.4</ele>
        <time>2015-06-19T08:31:21Z</time>
      </trkpt>
      <trkpt lat="41.80002" lon="9.21767">
        <ele>1389.8</ele>
        <time>2015-06-19T08:31:35Z</time>
      </trkpt>
      <trkpt lat="41.80006" lon="9.21769">
        <ele>1390.8</ele>
        <time>2015-06-19T08:31:49Z</time>
      </trkpt>
      <trkpt lat="41.80014" lon="9.21772">
        <ele>1391.6</ele>
        <time>2015-06-19T08:31:58Z</time>
      </trkpt>
      <trkpt lat="41.80014" lon="9.21772">
        <ele>1392</ele>
        <time>2015-06-19T08:32:01Z</time>
      </trkpt>
      <trkpt lat="41.80016" lon="9.21775">
        <ele>1393</ele>
        <time>2015-06-19T08:32:12Z</time>
      </trkpt>
      <trkpt lat="41.80018" lon="9.21774">
        <ele>1393.6</ele>
        <time>2015-06-19T08:32:18Z</time>
      </trkpt>
      <trkpt lat="41.80031" lon="9.21777">
        <ele>1394</ele>
        <time>2015-06-19T08:32:23Z</time>
      </trkpt>
      <trkpt lat="41.80032" lon="9.21778">
        <ele>1394.2</ele>
        <time>2015-06-19T08:32:27Z</time>
      </trkpt>
      <trkpt lat="41.80032" lon="9.21778">
        <ele>1394.2</ele>
        <time>2015-06-19T08:32:28Z</time>
      </trkpt>
      <trkpt lat="41.80028" lon="9.21784">
        <ele>1395.2</ele>
        <time>2015-06-19T08:32:40Z</time>
      </trkpt>
      <trkpt lat="41.80022" lon="9.21788">
        <ele>1396.4</ele>
        <time>2015-06-19T08:32:59Z</time>
      </trkpt>
      <trkpt lat="41.80026" lon="9.21788">
        <ele>1397.8</ele>
        <time>2015-06-19T08:33:14Z</time>
      </trkpt>
      <trkpt lat="41.80025" lon="9.21792">
        <ele>1398.8</ele>
        <time>2015-06-19T08:33:24Z</time>
      </trkpt>
      <trkpt lat="41.80023" lon="9.21793">
        <ele>1399</ele>
        <time>2015-06-19T08:33:28Z</time>
      </trkpt>
      <trkpt lat="41.80021" lon="9.21795">
        <ele>1400.4</ele>
        <time>2015-06-19T08:33:42Z</time>
      </trkpt>
      <trkpt lat="41.80021" lon="9.21798">
        <ele>1401</ele>
        <time>2015-06-19T08:33:51Z</time>
      </trkpt>
      <trkpt lat="41.80023" lon="9.21803">
        <ele>1402</ele>
        <time>2015-06-19T08:34:05Z</time>
      </trkpt>
      <trkpt lat="41.80021" lon="9.218">
        <ele>1402</ele>
        <time>2015-06-19T08:34:10Z</time>
      </trkpt>
      <trkpt lat="41.80018" lon="9.21795">
        <ele>1402</ele>
        <time>2015-06-19T08:34:16Z</time>
      </trkpt>
      <trkpt lat="41.8001" lon="9.21785">
        <ele>1402.2</ele>
        <time>2015-06-19T08:34:21Z</time>
      </trkpt>
      <trkpt lat="41.80009" lon="9.21781">
        <ele>1402.8</ele>
        <time>2015-06-19T08:34:23Z</time>
      </trkpt>
      <trkpt lat="41.80003" lon="9.21771">
        <ele>1403.4</ele>
        <time>2015-06-19T08:34:31Z</time>
      </trkpt>
      <trkpt lat="41.80002" lon="9.21768">
        <ele>1403.4</ele>
        <time>2015-06-19T08:34:33Z</time>
      </trkpt>
      <trkpt lat="41.79997" lon="9.21763">
        <ele>1403.6</ele>
        <time>2015-06-19T08:34:42Z</time>
      </trkpt>
      <trkpt lat="41.79996" lon="9.21762">
        <ele>1403.8</ele>
        <time>2015-06-19T08:34:44Z</time>
      </trkpt>
      <trkpt lat="41.80009" lon="9.21776">
        <ele>1405.2</ele>
        <time>2015-06-19T08:34:59Z</time>
      </trkpt>
      <trkpt lat="41.80009" lon="9.21773">
        <ele>1405.6</ele>
        <time>2015-06-19T08:35:04Z</time>
      </trkpt>
      <trkpt lat="41.80006" lon="9.21767">
        <ele>1405.6</ele>
        <time>2015-06-19T08:35:07Z</time>
      </trkpt>
      <trkpt lat="41.80004" lon="9.21766">
        <ele>1406</ele>
        <time>2015-06-19T08:35:10Z</time>
      </trkpt>
      <trkpt lat="41.80003" lon="9.21764">
        <ele>1406.8</ele>
        <time>2015-06-19T08:35:19Z</time>
      </trkpt>
      <trkpt lat="41.80004" lon="9.21762">
        <ele>1408</ele>
        <time>2015-06-19T08:35:29Z</time>
      </trkpt>
      <trkpt lat="41.80004" lon="9.2176">
        <ele>1409.4</ele>
        <time>2015-06-19T08:35:44Z</time>
      </trkpt>
      <trkpt lat="41.79999" lon="9.21754">
        <ele>1410.8</ele>
        <time>2015-06-19T08:35:59Z</time>
      </trkpt>
      <trkpt lat="41.79996" lon="9.21749">
        <ele>1412</ele>
        <time>2015-06-19T08:36:20Z</time>
      </trkpt>
      <trkpt lat="41.79997" lon="9.21746">
        <ele>1413.2</ele>
        <time>2015-06-19T08:36:36Z</time>
      </trkpt>
      <trkpt lat="41.79997" lon="9.21746">
        <ele>1413.8</ele>
        <time>2015-06-19T08:36:44Z</time>
      </trkpt>
      <trkpt lat="41.79993" lon="9.21743">
        <ele>1415</ele>
        <time>2015-06-19T08:36:58Z</time>
      </trkpt>
      <trkpt lat="41.79998" lon="9.21745">
        <ele>1416.2</ele>
        <time>2015-06-19T08:37:09Z</time>
      </trkpt>
      <trkpt lat="41.79996" lon="9.21741">
        <ele>1417</ele>
        <time>2015-06-19T08:37:14Z</time>
      </trkpt>
      <trkpt lat="41.79995" lon="9.21741">
        <ele>1417</ele>
        <time>2015-06-19T08:37:15Z</time>
      </trkpt>
      <trkpt lat="41.79996" lon="9.21741">
        <ele>1418.4</ele>
        <time>2015-06-19T08:37:25Z</time>
      </trkpt>
      <trkpt lat="41.79998" lon="9.21743">
        <ele>1419.8</ele>
        <time>2015-06-19T08:37:40Z</time>
      </trkpt>
      <trkpt lat="41.79997" lon="9.21738">
        <ele>1421</ele>
        <time>2015-06-19T08:37:50Z</time>
      </trkpt>
      <trkpt lat="41.79998" lon="9.21737">
        <ele>1422.2</ele>
        <time>2015-06-19T08:38:01Z</time>
      </trkpt>
      <trkpt lat="41.80009" lon="9.21739">
        <ele>1423.6</ele>
        <time>2015-06-19T08:38:25Z</time>
      </trkpt>
      <trkpt lat="41.80016" lon="9.21744">
        <ele>1423</ele>
        <time>2015-06-19T08:39:01Z</time>
      </trkpt>
      <trkpt lat="41.80016" lon="9.21746">
        <ele>1422</ele>
        <time>2015-06-19T08:39:14Z</time>
      </trkpt>
      <trkpt lat="41.80024" lon="9.21746">
        <ele>1420.6</ele>
        <time>2015-06-19T08:39:34Z</time>
      </trkpt>
      <trkpt lat="41.80027" lon="9.2175">
        <ele>1420.2</ele>
        <time>2015-06-19T08:39:41Z</time>
      </trkpt>
      <trkpt lat="41.80032" lon="9.2175">
        <ele>1419.4</ele>
        <time>2015-06-19T08:39:48Z</time>
      </trkpt>
      <trkpt lat="41.80031" lon="9.21742">
        <ele>1417.8</ele>
        <time>2015-06-19T08:40:02Z</time>
      </trkpt>
      <trkpt lat="41.80032" lon="9.21739">
        <ele>1417</ele>
        <time>2015-06-19T08:40:15Z</time>
      </trkpt>
      <trkpt lat="41.80034" lon="9.21736">
        <ele>1415.6</ele>
        <time>2015-06-19T08:41:09Z</time>
      </trkpt>
      <trkpt lat="41.80035" lon="9.2173">
        <ele>1415</ele>
        <time>2015-06-19T08:41:27Z</time>
      </trkpt>
      <trkpt lat="41.80034" lon="9.21726">
        <ele>1414</ele>
        <time>2015-06-19T08:41:40Z</time>
      </trkpt>
      <trkpt lat="41.80035" lon="9.21719">
        <ele>1413</ele>
        <time>2015-06-19T08:41:47Z</time>
      </trkpt>
      <trkpt lat="41.80036" lon="9.21713">
        <ele>1412.2</ele>
        <time>2015-06-19T08:41:52Z</time>
      </trkpt>
      <trkpt lat="41.80037" lon="9.21709">
        <ele>1411.4</ele>
        <time>2015-06-19T08:41:56Z</time>
      </trkpt>
      <trkpt lat="41.80036" lon="9.21704">
        <ele>1411.2</ele>
        <time>2015-06-19T08:41:59Z</time>
      </trkpt>
      <trkpt lat="41.80035" lon="9.217">
        <ele>1411.2</ele>
        <time>2015-06-19T08:42:03Z</time>
      </trkpt>
      <trkpt lat="41.80034" lon="9.21699">
        <ele>1411</ele>
        <time>2015-06-19T08:42:05Z</time>
      </trkpt>
      <trkpt lat="41.80033" lon="9.21697">
        <ele>1410.8</ele>
        <time>2015-06-19T08:42:08Z</time>
      </trkpt>
      <trkpt lat="41.80035" lon="9.21689">
        <ele>1410.2</ele>
        <time>2015-06-19T08:42:19Z</time>
      </trkpt>
      <trkpt lat="41.80037" lon="9.21684">
        <ele>1409.2</ele>
        <time>2015-06-19T08:42:41Z</time>
      </trkpt>
      <trkpt lat="41.80039" lon="9.21686">
        <ele>1408.2</ele>
        <time>2015-06-19T08:42:52Z</time>
      </trkpt>
      <trkpt lat="41.80038" lon="9.21685">
        <ele>1408</ele>
        <time>2015-06-19T08:42:57Z</time>
      </trkpt>
      <trkpt lat="41.8004" lon="9.21684">
        <ele>1405.8</ele>
        <time>2015-06-19T08:43:07Z</time>
      </trkpt>
      <trkpt lat="41.80039" lon="9.21676">
        <ele>1404.4</ele>
        <time>2015-06-19T08:43:22Z</time>
      </trkpt>
      <trkpt lat="41.80042" lon="9.21674">
        <ele>1404.2</ele>
        <time>2015-06-19T08:43:29Z</time>
      </trkpt>
      <trkpt lat="41.80044" lon="9.21673">
        <ele>1403.4</ele>
        <time>2015-06-19T08:43:34Z</time>
      </trkpt>
      <trkpt lat="41.80045" lon="9.21661">
        <ele>1401.6</ele>
        <time>2015-06-19T08:44:04Z</time>
      </trkpt>
      <trkpt lat="41.80046" lon="9.21661">
        <ele>1401.2</ele>
        <time>2015-06-19T08:44:13Z</time>
      </trkpt>
      <trkpt lat="41.80048" lon="9.21657">
        <ele>1400</ele>
        <time>2015-06-19T08:44:30Z</time>
      </trkpt>
      <trkpt lat="41.80052" lon="9.21654">
        <ele>1399.2</ele>
        <time>2015-06-19T08:44:41Z</time>
      </trkpt>
      <trkpt lat="41.80056" lon="9.21657">
        <ele>1398</ele>
        <time>2015-06-19T08:44:53Z</time>
      </trkpt>
      <trkpt lat="41.80058" lon="9.2166">
        <ele>1397</ele>
        <time>2015-06-19T08:45:00Z</time>
      </trkpt>
      <trkpt lat="41.80059" lon="9.21661">
        <ele>1395.8</ele>
        <time>2015-06-19T08:45:07Z</time>
      </trkpt>
      <trkpt lat="41.80063" lon="9.21671">
        <ele>1394</ele>
        <time>2015-06-19T08:45:29Z</time>
      </trkpt>
      <trkpt lat="41.80067" lon="9.21672">
        <ele>1393.4</ele>
        <time>2015-06-19T08:45:36Z</time>
      </trkpt>
      <trkpt lat="41.80067" lon="9.21672">
        <ele>1393.2</ele>
        <time>2015-06-19T08:45:37Z</time>
      </trkpt>
      <trkpt lat="41.80068" lon="9.21669">
        <ele>1392.6</ele>
        <time>2015-06-19T08:45:42Z</time>
      </trkpt>
      <trkpt lat="41.80071" lon="9.21672">
        <ele>1391.6</ele>
        <time>2015-06-19T08:45:54Z</time>
      </trkpt>
      <trkpt lat="41.80072" lon="9.21684">
        <ele>1390</ele>
        <time>2015-06-19T08:46:18Z</time>
      </trkpt>
      <trkpt lat="41.80072" lon="9.21682">
        <ele>1389.2</ele>
        <time>2015-06-19T08:46:26Z</time>
      </trkpt>
      <trkpt lat="41.80072" lon="9.2168">
        <ele>1387.8</ele>
        <time>2015-06-19T08:46:35Z</time>
      </trkpt>
      <trkpt lat="41.8007" lon="9.21682">
        <ele>1386.6</ele>
        <time>2015-06-19T08:47:06Z</time>
      </trkpt>
      <trkpt lat="41.80071" lon="9.21689">
        <ele>1385.4</ele>
        <time>2015-06-19T08:47:16Z</time>
      </trkpt>
      <trkpt lat="41.80073" lon="9.21696">
        <ele>1384</ele>
        <time>2015-06-19T08:47:26Z</time>
      </trkpt>
      <trkpt lat="41.80077" lon="9.21693">
        <ele>1383.4</ele>
        <time>2015-06-19T08:47:31Z</time>
      </trkpt>
      <trkpt lat="41.80081" lon="9.21689">
        <ele>1381.4</ele>
        <time>2015-06-19T08:47:41Z</time>
      </trkpt>
      <trkpt lat="41.80082" lon="9.21684">
        <ele>1380.4</ele>
        <time>2015-06-19T08:47:48Z</time>
      </trkpt>
      <trkpt lat="41.80083" lon="9.21678">
        <ele>1379.2</ele>
        <time>2015-06-19T08:47:56Z</time>
      </trkpt>
      <trkpt lat="41.80081" lon="9.21669">
        <ele>1378.4</ele>
        <time>2015-06-19T08:48:05Z</time>
      </trkpt>
      <trkpt lat="41.80083" lon="9.21665">
        <ele>1377</ele>
        <time>2015-06-19T08:48:12Z</time>
      </trkpt>
      <trkpt lat="41.80083" lon="9.21659">
        <ele>1375</ele>
        <time>2015-06-19T08:48:31Z</time>
      </trkpt>
      <trkpt lat="41.80086" lon="9.21656">
        <ele>1374.4</ele>
        <time>2015-06-19T08:48:40Z</time>
      </trkpt>
      <trkpt lat="41.80088" lon="9.21654">
        <ele>1373.2</ele>
        <time>2015-06-19T08:48:47Z</time>
      </trkpt>
      <trkpt lat="41.80091" lon="9.21651">
        <ele>1371.4</ele>
        <time>2015-06-19T08:48:57Z</time>
      </trkpt>
      <trkpt lat="41.80095" lon="9.21646">
        <ele>1370.6</ele>
        <time>2015-06-19T08:49:04Z</time>
      </trkpt>
      <trkpt lat="41.80095" lon="9.21646">
        <ele>1370.2</ele>
        <time>2015-06-19T08:49:05Z</time>
      </trkpt>
      <trkpt lat="41.80107" lon="9.21638">
        <ele>1370</ele>
        <time>2015-06-19T08:49:29Z</time>
      </trkpt>
      <trkpt lat="41.80122" lon="9.2163">
        <ele>1369.6</ele>
        <time>2015-06-19T08:50:26Z</time>
      </trkpt>
      <trkpt lat="41.80124" lon="9.21627">
        <ele>1370.2</ele>
        <time>2015-06-19T08:50:36Z</time>
      </trkpt>
      <trkpt lat="41.80126" lon="9.21625">
        <ele>1371.4</ele>
        <time>2015-06-19T08:50:50Z</time>
      </trkpt>
      <trkpt lat="41.80127" lon="9.21623">
        <ele>1371.8</ele>
        <time>2015-06-19T08:51:03Z</time>
      </trkpt>
      <trkpt lat="41.80131" lon="9.21618">
        <ele>1371.2</ele>
        <time>2015-06-19T08:51:37Z</time>
      </trkpt>
      <trkpt lat="41.80132" lon="9.21615">
        <ele>1371</ele>
        <time>2015-06-19T08:52:00Z</time>
      </trkpt>
      <trkpt lat="41.80134" lon="9.21614">
        <ele>1371.6</ele>
        <time>2015-06-19T08:52:12Z</time>
      </trkpt>
      <trkpt lat="41.8013" lon="9.21612">
        <ele>1372.2</ele>
        <time>2015-06-19T08:52:24Z</time>
      </trkpt>
      <trkpt lat="41.8013" lon="9.2161">
        <ele>1373.2</ele>
        <time>2015-06-19T08:52:36Z</time>
      </trkpt>
      <trkpt lat="41.80135" lon="9.21609">
        <ele>1374.2</ele>
        <time>2015-06-19T08:53:07Z</time>
      </trkpt>
      <trkpt lat="41.80136" lon="9.21602">
        <ele>1374</ele>
        <time>2015-06-19T08:53:29Z</time>
      </trkpt>
      <trkpt lat="41.80136" lon="9.216">
        <ele>1375.2</ele>
        <time>2015-06-19T08:53:38Z</time>
      </trkpt>
      <trkpt lat="41.80132" lon="9.21596">
        <ele>1376.2</ele>
        <time>2015-06-19T08:53:52Z</time>
      </trkpt>
      <trkpt lat="41.80132" lon="9.21593">
        <ele>1376.8</ele>
        <time>2015-06-19T08:53:59Z</time>
      </trkpt>
      <trkpt lat="41.80133" lon="9.2159">
        <ele>1377.8</ele>
        <time>2015-06-19T08:54:08Z</time>
      </trkpt>
      <trkpt lat="41.80134" lon="9.21588">
        <ele>1378.8</ele>
        <time>2015-06-19T08:54:18Z</time>
      </trkpt>
      <trkpt lat="41.80133" lon="9.21585">
        <ele>1380</ele>
        <time>2015-06-19T08:54:27Z</time>
      </trkpt>
      <trkpt lat="41.80131" lon="9.21584">
        <ele>1380.8</ele>
        <time>2015-06-19T08:54:35Z</time>
      </trkpt>
      <trkpt lat="41.80131" lon="9.21582">
        <ele>1382</ele>
        <time>2015-06-19T08:54:50Z</time>
      </trkpt>
      <trkpt lat="41.8013" lon="9.21583">
        <ele>1382</ele>
        <time>2015-06-19T08:54:54Z</time>
      </trkpt>
      <trkpt lat="41.80131" lon="9.21581">
        <ele>1382.6</ele>
        <time>2015-06-19T08:56:00Z</time>
      </trkpt>
      <trkpt lat="41.80128" lon="9.2158">
        <ele>1383</ele>
        <time>2015-06-19T08:56:35Z</time>
      </trkpt>
      <trkpt lat="41.80126" lon="9.21579">
        <ele>1383.6</ele>
        <time>2015-06-19T08:56:43Z</time>
      </trkpt>
      <trkpt lat="41.80126" lon="9.21578">
        <ele>1384.6</ele>
        <time>2015-06-19T08:56:52Z</time>
      </trkpt>
      <trkpt lat="41.80127" lon="9.21576">
        <ele>1385.4</ele>
        <time>2015-06-19T08:57:03Z</time>
      </trkpt>
      <trkpt lat="41.80127" lon="9.21576">
        <ele>1386.8</ele>
        <time>2015-06-19T08:57:15Z</time>
      </trkpt>
      <trkpt lat="41.80127" lon="9.21573">
        <ele>1387.6</ele>
        <time>2015-06-19T08:57:26Z</time>
      </trkpt>
      <trkpt lat="41.80125" lon="9.2157">
        <ele>1388.2</ele>
        <time>2015-06-19T08:57:35Z</time>
      </trkpt>
      <trkpt lat="41.80125" lon="9.21568">
        <ele>1388.4</ele>
        <time>2015-06-19T08:57:36Z</time>
      </trkpt>
      <trkpt lat="41.80123" lon="9.21568">
        <ele>1389.2</ele>
        <time>2015-06-19T08:57:41Z</time>
      </trkpt>
      <trkpt lat="41.80122" lon="9.21566">
        <ele>1390.2</ele>
        <time>2015-06-19T08:57:52Z</time>
      </trkpt>
      <trkpt lat="41.80122" lon="9.21565">
        <ele>1391.4</ele>
        <time>2015-06-19T08:58:33Z</time>
      </trkpt>
      <trkpt lat="41.80119" lon="9.21566">
        <ele>1392.2</ele>
        <time>2015-06-19T08:58:39Z</time>
      </trkpt>
      <trkpt lat="41.8012" lon="9.21566">
        <ele>1392.2</ele>
        <time>2015-06-19T08:58:41Z</time>
      </trkpt>
      <trkpt lat="41.80122" lon="9.21566">
        <ele>1392.4</ele>
        <time>2015-06-19T08:58:43Z</time>
      </trkpt>
      <trkpt lat="41.80121" lon="9.21563">
        <ele>1393.2</ele>
        <time>2015-06-19T08:58:56Z</time>
      </trkpt>
      <trkpt lat="41.80117" lon="9.21558">
        <ele>1394.4</ele>
        <time>2015-06-19T08:59:08Z</time>
      </trkpt>
      <trkpt lat="41.80117" lon="9.21558">
        <ele>1394.4</ele>
        <time>2015-06-19T08:59:09Z</time>
      </trkpt>
      <trkpt lat="41.80118" lon="9.21555">
        <ele>1395.2</ele>
        <time>2015-06-19T08:59:14Z</time>
      </trkpt>
      <trkpt lat="41.80119" lon="9.21556">
        <ele>1396.8</ele>
        <time>2015-06-19T08:59:33Z</time>
      </trkpt>
      <trkpt lat="41.8013" lon="9.21552">
        <ele>1397</ele>
        <time>2015-06-19T08:59:40Z</time>
      </trkpt>
      <trkpt lat="41.80134" lon="9.21553">
        <ele>1397.2</ele>
        <time>2015-06-19T08:59:42Z</time>
      </trkpt>
      <trkpt lat="41.80139" lon="9.21552">
        <ele>1397.2</ele>
        <time>2015-06-19T08:59:43Z</time>
      </trkpt>
      <trkpt lat="41.80142" lon="9.21552">
        <ele>1397.2</ele>
        <time>2015-06-19T08:59:44Z</time>
      </trkpt>
      <trkpt lat="41.80153" lon="9.21552">
        <ele>1397</ele>
        <time>2015-06-19T08:59:46Z</time>
      </trkpt>
      <trkpt lat="41.8015" lon="9.21547">
        <ele>1397.4</ele>
        <time>2015-06-19T08:59:51Z</time>
      </trkpt>
      <trkpt lat="41.8016" lon="9.21539">
        <ele>1397.6</ele>
        <time>2015-06-19T09:00:01Z</time>
      </trkpt>
      <trkpt lat="41.80152" lon="9.21538">
        <ele>1397.6</ele>
        <time>2015-06-19T09:00:07Z</time>
      </trkpt>
      <trkpt lat="41.80152" lon="9.21538">
        <ele>1397.6</ele>
        <time>2015-06-19T09:00:08Z</time>
      </trkpt>
      <trkpt lat="41.80151" lon="9.21534">
        <ele>1398</ele>
        <time>2015-06-19T09:00:12Z</time>
      </trkpt>
      <trkpt lat="41.80152" lon="9.21529">
        <ele>1398.6</ele>
        <time>2015-06-19T09:00:18Z</time>
      </trkpt>
      <trkpt lat="41.80152" lon="9.21528">
        <ele>1399.2</ele>
        <time>2015-06-19T09:00:23Z</time>
      </trkpt>
      <trkpt lat="41.80152" lon="9.21529">
        <ele>1399.4</ele>
        <time>2015-06-19T09:00:25Z</time>
      </trkpt>
      <trkpt lat="41.80154" lon="9.21529">
        <ele>1399.6</ele>
        <time>2015-06-19T09:00:26Z</time>
      </trkpt>
      <trkpt lat="41.80159" lon="9.21525">
        <ele>1400.6</ele>
        <time>2015-06-19T09:00:36Z</time>
      </trkpt>
      <trkpt lat="41.80161" lon="9.21521">
        <ele>1402</ele>
        <time>2015-06-19T09:00:45Z</time>
      </trkpt>
      <trkpt lat="41.80159" lon="9.21523">
        <ele>1402.8</ele>
        <time>2015-06-19T09:00:54Z</time>
      </trkpt>
      <trkpt lat="41.80159" lon="9.21522">
        <ele>1403.2</ele>
        <time>2015-06-19T09:00:57Z</time>
      </trkpt>
      <trkpt lat="41.80159" lon="9.21521">
        <ele>1403.4</ele>
        <time>2015-06-19T09:01:00Z</time>
      </trkpt>
      <trkpt lat="41.80153" lon="9.21513">
        <ele>1405</ele>
        <time>2015-06-19T09:01:18Z</time>
      </trkpt>
      <trkpt lat="41.80151" lon="9.21506">
        <ele>1406.2</ele>
        <time>2015-06-19T09:01:29Z</time>
      </trkpt>
      <trkpt lat="41.80152" lon="9.21502">
        <ele>1407.2</ele>
        <time>2015-06-19T09:01:55Z</time>
      </trkpt>
      <trkpt lat="41.80151" lon="9.21504">
        <ele>1405.8</ele>
        <time>2015-06-19T09:02:05Z</time>
      </trkpt>
      <trkpt lat="41.80151" lon="9.21505">
        <ele>1405.4</ele>
        <time>2015-06-19T09:02:11Z</time>
      </trkpt>
      <trkpt lat="41.80148" lon="9.2151">
        <ele>1404</ele>
        <time>2015-06-19T09:02:20Z</time>
      </trkpt>
      <trkpt lat="41.80145" lon="9.21512">
        <ele>1403.4</ele>
        <time>2015-06-19T09:02:28Z</time>
      </trkpt>
      <trkpt lat="41.80147" lon="9.21513">
        <ele>1402.2</ele>
        <time>2015-06-19T09:02:35Z</time>
      </trkpt>
      <trkpt lat="41.80151" lon="9.21513">
        <ele>1401</ele>
        <time>2015-06-19T09:02:55Z</time>
      </trkpt>
      <trkpt lat="41.80158" lon="9.21513">
        <ele>1399.6</ele>
        <time>2015-06-19T09:03:10Z</time>
      </trkpt>
      <trkpt lat="41.80175" lon="9.21513">
        <ele>1399</ele>
        <time>2015-06-19T09:03:49Z</time>
      </trkpt>
      <trkpt lat="41.80176" lon="9.21516">
        <ele>1400.2</ele>
        <time>2015-06-19T09:03:59Z</time>
      </trkpt>
      <trkpt lat="41.80176" lon="9.21509">
        <ele>1401.2</ele>
        <time>2015-06-19T09:04:12Z</time>
      </trkpt>
      <trkpt lat="41.80176" lon="9.21508">
        <ele>1402.2</ele>
        <time>2015-06-19T09:04:21Z</time>
      </trkpt>
      <trkpt lat="41.80178" lon="9.21506">
        <ele>1403.2</ele>
        <time>2015-06-19T09:04:29Z</time>
      </trkpt>
      <trkpt lat="41.80179" lon="9.21503">
        <ele>1404.4</ele>
        <time>2015-06-19T09:04:39Z</time>
      </trkpt>
      <trkpt lat="41.80181" lon="9.21502">
        <ele>1405.2</ele>
        <time>2015-06-19T09:04:47Z</time>
      </trkpt>
      <trkpt lat="41.80183" lon="9.215">
        <ele>1406.2</ele>
        <time>2015-06-19T09:04:55Z</time>
      </trkpt>
      <trkpt lat="41.80187" lon="9.21499">
        <ele>1407.4</ele>
        <time>2015-06-19T09:05:10Z</time>
      </trkpt>
      <trkpt lat="41.80192" lon="9.215">
        <ele>1408.6</ele>
        <time>2015-06-19T09:05:25Z</time>
      </trkpt>
      <trkpt lat="41.80193" lon="9.21499">
        <ele>1409</ele>
        <time>2015-06-19T09:05:28Z</time>
      </trkpt>
      <trkpt lat="41.80193" lon="9.21495">
        <ele>1409.6</ele>
        <time>2015-06-19T09:05:42Z</time>
      </trkpt>
      <trkpt lat="41.80194" lon="9.21491">
        <ele>1410.6</ele>
        <time>2015-06-19T09:05:52Z</time>
      </trkpt>
      <trkpt lat="41.80196" lon="9.21492">
        <ele>1411.6</ele>
        <time>2015-06-19T09:06:03Z</time>
      </trkpt>
      <trkpt lat="41.802" lon="9.21491">
        <ele>1412.6</ele>
        <time>2015-06-19T09:06:19Z</time>
      </trkpt>
      <trkpt lat="41.80199" lon="9.21492">
        <ele>1413.6</ele>
        <time>2015-06-19T09:06:29Z</time>
      </trkpt>
      <trkpt lat="41.802" lon="9.21487">
        <ele>1414.8</ele>
        <time>2015-06-19T09:06:46Z</time>
      </trkpt>
      <trkpt lat="41.802" lon="9.21487">
        <ele>1415.6</ele>
        <time>2015-06-19T09:06:55Z</time>
      </trkpt>
      <trkpt lat="41.80202" lon="9.21486">
        <ele>1417.2</ele>
        <time>2015-06-19T09:07:16Z</time>
      </trkpt>
      <trkpt lat="41.80202" lon="9.21487">
        <ele>1418.2</ele>
        <time>2015-06-19T09:07:27Z</time>
      </trkpt>
      <trkpt lat="41.80203" lon="9.21483">
        <ele>1419.2</ele>
        <time>2015-06-19T09:07:42Z</time>
      </trkpt>
      <trkpt lat="41.80205" lon="9.2148">
        <ele>1420.2</ele>
        <time>2015-06-19T09:07:52Z</time>
      </trkpt>
      <trkpt lat="41.80205" lon="9.21473">
        <ele>1421.8</ele>
        <time>2015-06-19T09:08:10Z</time>
      </trkpt>
      <trkpt lat="41.80205" lon="9.21473">
        <ele>1421.8</ele>
        <time>2015-06-19T09:08:11Z</time>
      </trkpt>
      <trkpt lat="41.802" lon="9.21461">
        <ele>1422.6</ele>
        <time>2015-06-19T09:08:25Z</time>
      </trkpt>
      <trkpt lat="41.80205" lon="9.21474">
        <ele>1422.8</ele>
        <time>2015-06-19T09:09:00Z</time>
      </trkpt>
      <trkpt lat="41.8021" lon="9.21479">
        <ele>1423.4</ele>
        <time>2015-06-19T09:09:04Z</time>
      </trkpt>
      <trkpt lat="41.80211" lon="9.21481">
        <ele>1423.4</ele>
        <time>2015-06-19T09:09:07Z</time>
      </trkpt>
      <trkpt lat="41.80208" lon="9.21487">
        <ele>1423.6</ele>
        <time>2015-06-19T09:09:17Z</time>
      </trkpt>
      <trkpt lat="41.80212" lon="9.2149">
        <ele>1423.2</ele>
        <time>2015-06-19T09:09:27Z</time>
      </trkpt>
      <trkpt lat="41.80214" lon="9.21489">
        <ele>1423</ele>
        <time>2015-06-19T09:09:29Z</time>
      </trkpt>
      <trkpt lat="41.80214" lon="9.2149">
        <ele>1422.6</ele>
        <time>2015-06-19T09:09:33Z</time>
      </trkpt>
      <trkpt lat="41.80212" lon="9.21503">
        <ele>1420.8</ele>
        <time>2015-06-19T09:10:01Z</time>
      </trkpt>
      <trkpt lat="41.80217" lon="9.2152">
        <ele>1420.8</ele>
        <time>2015-06-19T09:10:05Z</time>
      </trkpt>
      <trkpt lat="41.80225" lon="9.21507">
        <ele>1420.6</ele>
        <time>2015-06-19T09:10:08Z</time>
      </trkpt>
      <trkpt lat="41.80226" lon="9.21498">
        <ele>1420.4</ele>
        <time>2015-06-19T09:10:14Z</time>
      </trkpt>
      <trkpt lat="41.80218" lon="9.21501">
        <ele>1421.4</ele>
        <time>2015-06-19T09:10:59Z</time>
      </trkpt>
      <trkpt lat="41.80217" lon="9.21498">
        <ele>1421.2</ele>
        <time>2015-06-19T09:13:37Z</time>
      </trkpt>
      <trkpt lat="41.80215" lon="9.21492">
        <ele>1421.2</ele>
        <time>2015-06-19T09:14:31Z</time>
      </trkpt>
      <trkpt lat="41.80219" lon="9.2149">
        <ele>1420</ele>
        <time>2015-06-19T09:14:46Z</time>
      </trkpt>
      <trkpt lat="41.80222" lon="9.21489">
        <ele>1419.8</ele>
        <time>2015-06-19T09:14:56Z</time>
      </trkpt>
      <trkpt lat="41.80223" lon="9.21491">
        <ele>1418.6</ele>
        <time>2015-06-19T09:15:10Z</time>
      </trkpt>
      <trkpt lat="41.80224" lon="9.2149">
        <ele>1417.8</ele>
        <time>2015-06-19T09:15:18Z</time>
      </trkpt>
      <trkpt lat="41.80224" lon="9.2149">
        <ele>1417.4</ele>
        <time>2015-06-19T09:15:22Z</time>
      </trkpt>
      <trkpt lat="41.8022" lon="9.21493">
        <ele>1415.4</ele>
        <time>2015-06-19T09:15:38Z</time>
      </trkpt>
      <trkpt lat="41.80247" lon="9.21493">
        <ele>1414.4</ele>
        <time>2015-06-19T09:16:05Z</time>
      </trkpt>
      <trkpt lat="41.80257" lon="9.21492">
        <ele>1414.4</ele>
        <time>2015-06-19T09:16:07Z</time>
      </trkpt>
      <trkpt lat="41.80256" lon="9.21494">
        <ele>1414.2</ele>
        <time>2015-06-19T09:16:09Z</time>
      </trkpt>
      <trkpt lat="41.80265" lon="9.21498">
        <ele>1414</ele>
        <time>2015-06-19T09:16:13Z</time>
      </trkpt>
      <trkpt lat="41.80299" lon="9.21506">
        <ele>1413.8</ele>
        <time>2015-06-19T09:16:19Z</time>
      </trkpt>
      <trkpt lat="41.80311" lon="9.21505">
        <ele>1413.8</ele>
        <time>2015-06-19T09:16:21Z</time>
      </trkpt>
      <trkpt lat="41.8032" lon="9.21505">
        <ele>1413.6</ele>
        <time>2015-06-19T09:16:23Z</time>
      </trkpt>
      <trkpt lat="41.80335" lon="9.21503">
        <ele>1413.4</ele>
        <time>2015-06-19T09:16:25Z</time>
      </trkpt>
      <trkpt lat="41.80354" lon="9.215">
        <ele>1413.4</ele>
        <time>2015-06-19T09:16:29Z</time>
      </trkpt>
      <trkpt lat="41.80365" lon="9.21499">
        <ele>1413.2</ele>
        <time>2015-06-19T09:16:33Z</time>
      </trkpt>
      <trkpt lat="41.80368" lon="9.21498">
        <ele>1412.8</ele>
        <time>2015-06-19T09:16:35Z</time>
      </trkpt>
      <trkpt lat="41.80369" lon="9.21497">
        <ele>1412.6</ele>
        <time>2015-06-19T09:16:37Z</time>
      </trkpt>
      <trkpt lat="41.80358" lon="9.215">
        <ele>1412.6</ele>
        <time>2015-06-19T09:16:42Z</time>
      </trkpt>
      <trkpt lat="41.80357" lon="9.215">
        <ele>1412.4</ele>
        <time>2015-06-19T09:16:44Z</time>
      </trkpt>
      <trkpt lat="41.80356" lon="9.215">
        <ele>1412</ele>
        <time>2015-06-19T09:16:49Z</time>
      </trkpt>
      <trkpt lat="41.80345" lon="9.215">
        <ele>1412</ele>
        <time>2015-06-19T09:16:53Z</time>
      </trkpt>
      <trkpt lat="41.80333" lon="9.21501">
        <ele>1411.8</ele>
        <time>2015-06-19T09:17:00Z</time>
      </trkpt>
      <trkpt lat="41.80322" lon="9.21506">
        <ele>1411.8</ele>
        <time>2015-06-19T09:17:08Z</time>
      </trkpt>
      <trkpt lat="41.80322" lon="9.21506">
        <ele>1411.8</ele>
        <time>2015-06-19T09:17:10Z</time>
      </trkpt>
      <trkpt lat="41.80314" lon="9.21506">
        <ele>1411.8</ele>
        <time>2015-06-19T09:17:17Z</time>
      </trkpt>
      <trkpt lat="41.80312" lon="9.21508">
        <ele>1411.6</ele>
        <time>2015-06-19T09:17:19Z</time>
      </trkpt>
      <trkpt lat="41.80313" lon="9.21507">
        <ele>1411.6</ele>
        <time>2015-06-19T09:17:22Z</time>
      </trkpt>
      <trkpt lat="41.80312" lon="9.21507">
        <ele>1411.8</ele>
        <time>2015-06-19T09:17:25Z</time>
      </trkpt>
      <trkpt lat="41.80309" lon="9.21507">
        <ele>1411.6</ele>
        <time>2015-06-19T09:17:27Z</time>
      </trkpt>
      <trkpt lat="41.80311" lon="9.21507">
        <ele>1411.6</ele>
        <time>2015-06-19T09:17:29Z</time>
      </trkpt>
      <trkpt lat="41.80317" lon="9.21507">
        <ele>1411.2</ele>
        <time>2015-06-19T09:17:33Z</time>
      </trkpt>
      <trkpt lat="41.80318" lon="9.21509">
        <ele>1411</ele>
        <time>2015-06-19T09:17:35Z</time>
      </trkpt>
      <trkpt lat="41.80319" lon="9.21513">
        <ele>1410.8</ele>
        <time>2015-06-19T09:17:38Z</time>
      </trkpt>
      <trkpt lat="41.80321" lon="9.21516">
        <ele>1410.4</ele>
        <time>2015-06-19T09:17:42Z</time>
      </trkpt>
      <trkpt lat="41.80325" lon="9.21516">
        <ele>1409.4</ele>
        <time>2015-06-19T09:17:50Z</time>
      </trkpt>
      <trkpt lat="41.80322" lon="9.21516">
        <ele>1408.6</ele>
        <time>2015-06-19T09:17:58Z</time>
      </trkpt>
      <trkpt lat="41.8032" lon="9.21516">
        <ele>1408.4</ele>
        <time>2015-06-19T09:18:00Z</time>
      </trkpt>
      <trkpt lat="41.80315" lon="9.21514">
        <ele>1407.6</ele>
        <time>2015-06-19T09:18:05Z</time>
      </trkpt>
      <trkpt lat="41.80311" lon="9.21512">
        <ele>1406.4</ele>
        <time>2015-06-19T09:18:20Z</time>
      </trkpt>
      <trkpt lat="41.80315" lon="9.21509">
        <ele>1405.2</ele>
        <time>2015-06-19T09:18:29Z</time>
      </trkpt>
      <trkpt lat="41.80314" lon="9.215">
        <ele>1403.8</ele>
        <time>2015-06-19T09:18:55Z</time>
      </trkpt>
      <trkpt lat="41.8032" lon="9.21497">
        <ele>1403.8</ele>
        <time>2015-06-19T09:19:11Z</time>
      </trkpt>
      <trkpt lat="41.80324" lon="9.21496">
        <ele>1403.8</ele>
        <time>2015-06-19T09:19:24Z</time>
      </trkpt>
      <trkpt lat="41.80328" lon="9.21495">
        <ele>1403.6</ele>
        <time>2015-06-19T09:19:27Z</time>
      </trkpt>
      <trkpt lat="41.80329" lon="9.21495">
        <ele>1403.8</ele>
        <time>2015-06-19T09:19:29Z</time>
      </trkpt>
      <trkpt lat="41.80319" lon="9.21497">
        <ele>1403.4</ele>
        <time>2015-06-19T09:19:42Z</time>
      </trkpt>
      <trkpt lat="41.80301" lon="9.21495">
        <ele>1403.2</ele>
        <time>2015-06-19T09:20:01Z</time>
      </trkpt>
      <trkpt lat="41.80324" lon="9.21497">
        <ele>1403.4</ele>
        <time>2015-06-19T09:20:28Z</time>
      </trkpt>
      <trkpt lat="41.80317" lon="9.21496">
        <ele>1403.2</ele>
        <time>2015-06-19T09:20:34Z</time>
      </trkpt>
      <trkpt lat="41.80318" lon="9.21496">
        <ele>1403.2</ele>
        <time>2015-06-19T09:20:37Z</time>
      </trkpt>
      <trkpt lat="41.80319" lon="9.21496">
        <ele>1403.2</ele>
        <time>2015-06-19T09:20:40Z</time>
      </trkpt>
      <trkpt lat="41.80318" lon="9.21495">
        <ele>1403.4</ele>
        <time>2015-06-19T09:20:45Z</time>
      </trkpt>
      <trkpt lat="41.80314" lon="9.21492">
        <ele>1404</ele>
        <time>2015-06-19T09:20:52Z</time>
      </trkpt>
      <trkpt lat="41.80306" lon="9.21492">
        <ele>1404.4</ele>
        <time>2015-06-19T09:20:55Z</time>
      </trkpt>
      <trkpt lat="41.80303" lon="9.21491">
        <ele>1404.8</ele>
        <time>2015-06-19T09:20:59Z</time>
      </trkpt>
      <trkpt lat="41.80299" lon="9.21491">
        <ele>1405.2</ele>
        <time>2015-06-19T09:21:02Z</time>
      </trkpt>
      <trkpt lat="41.80286" lon="9.21493">
        <ele>1405.4</ele>
        <time>2015-06-19T09:21:04Z</time>
      </trkpt>
      <trkpt lat="41.80284" lon="9.21494">
        <ele>1405.8</ele>
        <time>2015-06-19T09:21:07Z</time>
      </trkpt>
      <trkpt lat="41.80283" lon="9.21494">
        <ele>1405.6</ele>
        <time>2015-06-19T09:21:08Z</time>
      </trkpt>
      <trkpt lat="41.80277" lon="9.21495">
        <ele>1406.4</ele>
        <time>2015-06-19T09:21:14Z</time>
      </trkpt>
      <trkpt lat="41.80271" lon="9.21496">
        <ele>1407</ele>
        <time>2015-06-19T09:21:19Z</time>
      </trkpt>
      <trkpt lat="41.80269" lon="9.21491">
        <ele>1408</ele>
        <time>2015-06-19T09:21:25Z</time>
      </trkpt>
      <trkpt lat="41.80271" lon="9.2149">
        <ele>1408.6</ele>
        <time>2015-06-19T09:21:30Z</time>
      </trkpt>
      <trkpt lat="41.80272" lon="9.21488">
        <ele>1408.8</ele>
        <time>2015-06-19T09:21:36Z</time>
      </trkpt>
      <trkpt lat="41.80272" lon="9.2148">
        <ele>1410.2</ele>
        <time>2015-06-19T09:21:45Z</time>
      </trkpt>
      <trkpt lat="41.80272" lon="9.21481">
        <ele>1410.6</ele>
        <time>2015-06-19T09:21:52Z</time>
      </trkpt>
      <trkpt lat="41.80276" lon="9.21473">
        <ele>1411.8</ele>
        <time>2015-06-19T09:22:03Z</time>
      </trkpt>
      <trkpt lat="41.80276" lon="9.21466">
        <ele>1412.2</ele>
        <time>2015-06-19T09:22:08Z</time>
      </trkpt>
      <trkpt lat="41.80276" lon="9.21463">
        <ele>1412.6</ele>
        <time>2015-06-19T09:22:11Z</time>
      </trkpt>
      <trkpt lat="41.80276" lon="9.21462">
        <ele>1412.6</ele>
        <time>2015-06-19T09:22:12Z</time>
      </trkpt>
      <trkpt lat="41.80276" lon="9.21455">
        <ele>1413.8</ele>
        <time>2015-06-19T09:22:25Z</time>
      </trkpt>
      <trkpt lat="41.80283" lon="9.21455">
        <ele>1414.4</ele>
        <time>2015-06-19T09:22:39Z</time>
      </trkpt>
      <trkpt lat="41.80285" lon="9.21452">
        <ele>1415</ele>
        <time>2015-06-19T09:22:48Z</time>
      </trkpt>
      <trkpt lat="41.80287" lon="9.2145">
        <ele>1415.8</ele>
        <time>2015-06-19T09:22:55Z</time>
      </trkpt>
      <trkpt lat="41.80289" lon="9.21449">
        <ele>1417.2</ele>
        <time>2015-06-19T09:23:05Z</time>
      </trkpt>
      <trkpt lat="41.80294" lon="9.21451">
        <ele>1417.8</ele>
        <time>2015-06-19T09:23:18Z</time>
      </trkpt>
      <trkpt lat="41.80297" lon="9.21449">
        <ele>1419</ele>
        <time>2015-06-19T09:23:29Z</time>
      </trkpt>
      <trkpt lat="41.80299" lon="9.21445">
        <ele>1419.4</ele>
        <time>2015-06-19T09:23:39Z</time>
      </trkpt>
      <trkpt lat="41.803" lon="9.21444">
        <ele>1420.6</ele>
        <time>2015-06-19T09:23:48Z</time>
      </trkpt>
      <trkpt lat="41.803" lon="9.21441">
        <ele>1421.8</ele>
        <time>2015-06-19T09:24:03Z</time>
      </trkpt>
      <trkpt lat="41.80298" lon="9.21437">
        <ele>1422.6</ele>
        <time>2015-06-19T09:24:13Z</time>
      </trkpt>
      <trkpt lat="41.80301" lon="9.21434">
        <ele>1423.6</ele>
        <time>2015-06-19T09:24:23Z</time>
      </trkpt>
      <trkpt lat="41.80301" lon="9.21431">
        <ele>1424.8</ele>
        <time>2015-06-19T09:24:41Z</time>
      </trkpt>
      <trkpt lat="41.80299" lon="9.21428">
        <ele>1425.4</ele>
        <time>2015-06-19T09:24:49Z</time>
      </trkpt>
      <trkpt lat="41.80299" lon="9.21423">
        <ele>1426.6</ele>
        <time>2015-06-19T09:25:00Z</time>
      </trkpt>
      <trkpt lat="41.80299" lon="9.21422">
        <ele>1427</ele>
        <time>2015-06-19T09:25:07Z</time>
      </trkpt>
      <trkpt lat="41.80304" lon="9.21423">
        <ele>1428.4</ele>
        <time>2015-06-19T09:25:22Z</time>
      </trkpt>
      <trkpt lat="41.80308" lon="9.21421">
        <ele>1429.8</ele>
        <time>2015-06-19T09:25:34Z</time>
      </trkpt>
      <trkpt lat="41.8031" lon="9.21418">
        <ele>1430.4</ele>
        <time>2015-06-19T09:25:56Z</time>
      </trkpt>
      <trkpt lat="41.80313" lon="9.21419">
        <ele>1431.4</ele>
        <time>2015-06-19T09:26:04Z</time>
      </trkpt>
      <trkpt lat="41.80316" lon="9.21419">
        <ele>1432.6</ele>
        <time>2015-06-19T09:26:18Z</time>
      </trkpt>
      <trkpt lat="41.80316" lon="9.21416">
        <ele>1433.4</ele>
        <time>2015-06-19T09:26:27Z</time>
      </trkpt>
      <trkpt lat="41.80314" lon="9.21413">
        <ele>1434.6</ele>
        <time>2015-06-19T09:26:35Z</time>
      </trkpt>
      <trkpt lat="41.80312" lon="9.2141">
        <ele>1435.6</ele>
        <time>2015-06-19T09:26:43Z</time>
      </trkpt>
      <trkpt lat="41.80312" lon="9.21406">
        <ele>1436.4</ele>
        <time>2015-06-19T09:26:58Z</time>
      </trkpt>
      <trkpt lat="41.80312" lon="9.21403">
        <ele>1436.6</ele>
        <time>2015-06-19T09:27:03Z</time>
      </trkpt>
      <trkpt lat="41.80312" lon="9.214">
        <ele>1437.8</ele>
        <time>2015-06-19T09:27:11Z</time>
      </trkpt>
      <trkpt lat="41.80313" lon="9.21397">
        <ele>1438.8</ele>
        <time>2015-06-19T09:27:31Z</time>
      </trkpt>
      <trkpt lat="41.80314" lon="9.21392">
        <ele>1440.2</ele>
        <time>2015-06-19T09:27:45Z</time>
      </trkpt>
      <trkpt lat="41.80315" lon="9.21389">
        <ele>1441.2</ele>
        <time>2015-06-19T09:27:58Z</time>
      </trkpt>
      <trkpt lat="41.80319" lon="9.21391">
        <ele>1442.4</ele>
        <time>2015-06-19T09:28:11Z</time>
      </trkpt>
      <trkpt lat="41.80323" lon="9.21395">
        <ele>1443.4</ele>
        <time>2015-06-19T09:28:23Z</time>
      </trkpt>
      <trkpt lat="41.80329" lon="9.21394">
        <ele>1444.2</ele>
        <time>2015-06-19T09:28:33Z</time>
      </trkpt>
      <trkpt lat="41.80332" lon="9.21396">
        <ele>1445.4</ele>
        <time>2015-06-19T09:28:43Z</time>
      </trkpt>
      <trkpt lat="41.80335" lon="9.21396">
        <ele>1447.2</ele>
        <time>2015-06-19T09:29:07Z</time>
      </trkpt>
      <trkpt lat="41.80336" lon="9.21396">
        <ele>1447.6</ele>
        <time>2015-06-19T09:29:16Z</time>
      </trkpt>
      <trkpt lat="41.80338" lon="9.21395">
        <ele>1449.2</ele>
        <time>2015-06-19T09:29:28Z</time>
      </trkpt>
      <trkpt lat="41.80341" lon="9.21395">
        <ele>1450.2</ele>
        <time>2015-06-19T09:29:39Z</time>
      </trkpt>
      <trkpt lat="41.80344" lon="9.21397">
        <ele>1451.6</ele>
        <time>2015-06-19T09:29:59Z</time>
      </trkpt>
      <trkpt lat="41.80346" lon="9.21398">
        <ele>1453</ele>
        <time>2015-06-19T09:30:16Z</time>
      </trkpt>
      <trkpt lat="41.80347" lon="9.21394">
        <ele>1453.8</ele>
        <time>2015-06-19T09:30:37Z</time>
      </trkpt>
      <trkpt lat="41.8035" lon="9.21398">
        <ele>1455.2</ele>
        <time>2015-06-19T09:30:49Z</time>
      </trkpt>
      <trkpt lat="41.80352" lon="9.21403">
        <ele>1456.4</ele>
        <time>2015-06-19T09:31:01Z</time>
      </trkpt>
      <trkpt lat="41.80358" lon="9.21413">
        <ele>1458.4</ele>
        <time>2015-06-19T09:32:44Z</time>
      </trkpt>
      <trkpt lat="41.8036" lon="9.21413">
        <ele>1459.4</ele>
        <time>2015-06-19T09:32:52Z</time>
      </trkpt>
      <trkpt lat="41.8036" lon="9.21412">
        <ele>1460.8</ele>
        <time>2015-06-19T09:33:01Z</time>
      </trkpt>
      <trkpt lat="41.80364" lon="9.21415">
        <ele>1462.2</ele>
        <time>2015-06-19T09:33:23Z</time>
      </trkpt>
      <trkpt lat="41.80369" lon="9.21417">
        <ele>1463.4</ele>
        <time>2015-06-19T09:33:39Z</time>
      </trkpt>
      <trkpt lat="41.80371" lon="9.21416">
        <ele>1464.4</ele>
        <time>2015-06-19T09:33:49Z</time>
      </trkpt>
      <trkpt lat="41.80372" lon="9.21418">
        <ele>1465.4</ele>
        <time>2015-06-19T09:33:59Z</time>
      </trkpt>
      <trkpt lat="41.80376" lon="9.2142">
        <ele>1467.2</ele>
        <time>2015-06-19T09:34:17Z</time>
      </trkpt>
      <trkpt lat="41.80385" lon="9.21425">
        <ele>1468.2</ele>
        <time>2015-06-19T09:34:36Z</time>
      </trkpt>
      <trkpt lat="41.80386" lon="9.21427">
        <ele>1469.2</ele>
        <time>2015-06-19T09:34:43Z</time>
      </trkpt>
      <trkpt lat="41.80387" lon="9.21426">
        <ele>1470.8</ele>
        <time>2015-06-19T09:34:59Z</time>
      </trkpt>
      <trkpt lat="41.80389" lon="9.21428">
        <ele>1471.8</ele>
        <time>2015-06-19T09:35:10Z</time>
      </trkpt>
      <trkpt lat="41.80392" lon="9.21428">
        <ele>1473</ele>
        <time>2015-06-19T09:35:21Z</time>
      </trkpt>
      <trkpt lat="41.80391" lon="9.21432">
        <ele>1474</ele>
        <time>2015-06-19T09:35:34Z</time>
      </trkpt>
      <trkpt lat="41.80394" lon="9.21443">
        <ele>1474.4</ele>
        <time>2015-06-19T09:35:47Z</time>
      </trkpt>
      <trkpt lat="41.80396" lon="9.21448">
        <ele>1475.6</ele>
        <time>2015-06-19T09:36:02Z</time>
      </trkpt>
      <trkpt lat="41.80399" lon="9.21449">
        <ele>1476.6</ele>
        <time>2015-06-19T09:36:10Z</time>
      </trkpt>
      <trkpt lat="41.8041" lon="9.21452">
        <ele>1478</ele>
        <time>2015-06-19T09:36:32Z</time>
      </trkpt>
      <trkpt lat="41.80409" lon="9.21453">
        <ele>1479.2</ele>
        <time>2015-06-19T09:36:44Z</time>
      </trkpt>
      <trkpt lat="41.80409" lon="9.21452">
        <ele>1480.4</ele>
        <time>2015-06-19T09:37:01Z</time>
      </trkpt>
      <trkpt lat="41.80412" lon="9.21453">
        <ele>1481.2</ele>
        <time>2015-06-19T09:37:11Z</time>
      </trkpt>
      <trkpt lat="41.80415" lon="9.21458">
        <ele>1482.6</ele>
        <time>2015-06-19T09:37:27Z</time>
      </trkpt>
      <trkpt lat="41.80417" lon="9.21456">
        <ele>1483.8</ele>
        <time>2015-06-19T09:37:38Z</time>
      </trkpt>
      <trkpt lat="41.80417" lon="9.21454">
        <ele>1485.2</ele>
        <time>2015-06-19T09:37:56Z</time>
      </trkpt>
      <trkpt lat="41.8042" lon="9.21452">
        <ele>1486.2</ele>
        <time>2015-06-19T09:38:40Z</time>
      </trkpt>
      <trkpt lat="41.80419" lon="9.21452">
        <ele>1487</ele>
        <time>2015-06-19T09:38:50Z</time>
      </trkpt>
      <trkpt lat="41.8042" lon="9.21453">
        <ele>1488</ele>
        <time>2015-06-19T09:38:59Z</time>
      </trkpt>
      <trkpt lat="41.80423" lon="9.21458">
        <ele>1489.8</ele>
        <time>2015-06-19T09:39:18Z</time>
      </trkpt>
      <trkpt lat="41.80426" lon="9.21458">
        <ele>1490.4</ele>
        <time>2015-06-19T09:39:28Z</time>
      </trkpt>
      <trkpt lat="41.8043" lon="9.21458">
        <ele>1492</ele>
        <time>2015-06-19T09:39:42Z</time>
      </trkpt>
      <trkpt lat="41.80431" lon="9.21462">
        <ele>1492.8</ele>
        <time>2015-06-19T09:39:52Z</time>
      </trkpt>
      <trkpt lat="41.80434" lon="9.2147">
        <ele>1494</ele>
        <time>2015-06-19T09:40:07Z</time>
      </trkpt>
      <trkpt lat="41.80442" lon="9.21489">
        <ele>1494.8</ele>
        <time>2015-06-19T09:41:02Z</time>
      </trkpt>
      <trkpt lat="41.80443" lon="9.21488">
        <ele>1496</ele>
        <time>2015-06-19T09:41:12Z</time>
      </trkpt>
      <trkpt lat="41.80446" lon="9.21489">
        <ele>1497</ele>
        <time>2015-06-19T09:41:19Z</time>
      </trkpt>
      <trkpt lat="41.80447" lon="9.21487">
        <ele>1498.2</ele>
        <time>2015-06-19T09:41:28Z</time>
      </trkpt>
      <trkpt lat="41.80451" lon="9.21483">
        <ele>1499.4</ele>
        <time>2015-06-19T09:41:41Z</time>
      </trkpt>
      <trkpt lat="41.80454" lon="9.21481">
        <ele>1500.6</ele>
        <time>2015-06-19T09:42:00Z</time>
      </trkpt>
      <trkpt lat="41.80457" lon="9.21479">
        <ele>1501.4</ele>
        <time>2015-06-19T09:42:10Z</time>
      </trkpt>
      <trkpt lat="41.80457" lon="9.21476">
        <ele>1502.8</ele>
        <time>2015-06-19T09:42:28Z</time>
      </trkpt>
      <trkpt lat="41.80457" lon="9.21474">
        <ele>1503.2</ele>
        <time>2015-06-19T09:42:41Z</time>
      </trkpt>
      <trkpt lat="41.80461" lon="9.21476">
        <ele>1504.6</ele>
        <time>2015-06-19T09:42:59Z</time>
      </trkpt>
      <trkpt lat="41.80465" lon="9.21485">
        <ele>1506.2</ele>
        <time>2015-06-19T09:43:22Z</time>
      </trkpt>
      <trkpt lat="41.80465" lon="9.21484">
        <ele>1506.2</ele>
        <time>2015-06-19T09:43:33Z</time>
      </trkpt>
      <trkpt lat="41.80463" lon="9.21483">
        <ele>1505.8</ele>
        <time>2015-06-19T09:43:43Z</time>
      </trkpt>
      <trkpt lat="41.80465" lon="9.21483">
        <ele>1505.8</ele>
        <time>2015-06-19T09:49:03Z</time>
      </trkpt>
      <trkpt lat="41.80477" lon="9.21481">
        <ele>1506.4</ele>
        <time>2015-06-19T09:49:57Z</time>
      </trkpt>
      <trkpt lat="41.80481" lon="9.21482">
        <ele>1506.4</ele>
        <time>2015-06-19T09:50:08Z</time>
      </trkpt>
      <trkpt lat="41.80484" lon="9.21486">
        <ele>1506.4</ele>
        <time>2015-06-19T09:50:26Z</time>
      </trkpt>
      <trkpt lat="41.80493" lon="9.21493">
        <ele>1506.6</ele>
        <time>2015-06-19T09:50:49Z</time>
      </trkpt>
      <trkpt lat="41.80496" lon="9.21493">
        <ele>1507.4</ele>
        <time>2015-06-19T09:50:58Z</time>
      </trkpt>
      <trkpt lat="41.80499" lon="9.21491">
        <ele>1508.8</ele>
        <time>2015-06-19T09:51:13Z</time>
      </trkpt>
      <trkpt lat="41.80503" lon="9.21488">
        <ele>1509.6</ele>
        <time>2015-06-19T09:51:23Z</time>
      </trkpt>
      <trkpt lat="41.8052" lon="9.215">
        <ele>1511</ele>
        <time>2015-06-19T09:52:03Z</time>
      </trkpt>
      <trkpt lat="41.80536" lon="9.21497">
        <ele>1512.4</ele>
        <time>2015-06-19T09:52:32Z</time>
      </trkpt>
      <trkpt lat="41.8055" lon="9.21491">
        <ele>1512.6</ele>
        <time>2015-06-19T09:53:34Z</time>
      </trkpt>
      <trkpt lat="41.80551" lon="9.21494">
        <ele>1512.4</ele>
        <time>2015-06-19T09:53:37Z</time>
      </trkpt>
      <trkpt lat="41.80552" lon="9.21497">
        <ele>1511.8</ele>
        <time>2015-06-19T09:53:40Z</time>
      </trkpt>
      <trkpt lat="41.80553" lon="9.21496">
        <ele>1511.6</ele>
        <time>2015-06-19T09:53:41Z</time>
      </trkpt>
      <trkpt lat="41.80583" lon="9.21494">
        <ele>1511.4</ele>
        <time>2015-06-19T09:54:38Z</time>
      </trkpt>
      <trkpt lat="41.80573" lon="9.21497">
        <ele>1511.4</ele>
        <time>2015-06-19T09:55:08Z</time>
      </trkpt>
      <trkpt lat="41.80567" lon="9.21495">
        <ele>1510.2</ele>
        <time>2015-06-19T09:55:18Z</time>
      </trkpt>
      <trkpt lat="41.80562" lon="9.21489">
        <ele>1510.4</ele>
        <time>2015-06-19T09:55:32Z</time>
      </trkpt>
      <trkpt lat="41.80562" lon="9.21486">
        <ele>1511.2</ele>
        <time>2015-06-19T09:55:45Z</time>
      </trkpt>
      <trkpt lat="41.80566" lon="9.21485">
        <ele>1512.4</ele>
        <time>2015-06-19T09:55:53Z</time>
      </trkpt>
      <trkpt lat="41.80569" lon="9.21484">
        <ele>1513.6</ele>
        <time>2015-06-19T09:56:03Z</time>
      </trkpt>
      <trkpt lat="41.80572" lon="9.21483">
        <ele>1514.8</ele>
        <time>2015-06-19T09:56:13Z</time>
      </trkpt>
      <trkpt lat="41.80574" lon="9.21481">
        <ele>1515.8</ele>
        <time>2015-06-19T09:56:23Z</time>
      </trkpt>
      <trkpt lat="41.80584" lon="9.2148">
        <ele>1517.4</ele>
        <time>2015-06-19T09:56:45Z</time>
      </trkpt>
      <trkpt lat="41.80599" lon="9.21477">
        <ele>1518.2</ele>
        <time>2015-06-19T09:57:13Z</time>
      </trkpt>
      <trkpt lat="41.80599" lon="9.21472">
        <ele>1519.2</ele>
        <time>2015-06-19T09:57:22Z</time>
      </trkpt>
      <trkpt lat="41.806" lon="9.21472">
        <ele>1520.4</ele>
        <time>2015-06-19T09:57:32Z</time>
      </trkpt>
      <trkpt lat="41.80602" lon="9.21471">
        <ele>1521.8</ele>
        <time>2015-06-19T09:57:41Z</time>
      </trkpt>
      <trkpt lat="41.80606" lon="9.21471">
        <ele>1522.6</ele>
        <time>2015-06-19T09:57:52Z</time>
      </trkpt>
      <trkpt lat="41.80611" lon="9.21464">
        <ele>1523.4</ele>
        <time>2015-06-19T09:58:05Z</time>
      </trkpt>
      <trkpt lat="41.80615" lon="9.21458">
        <ele>1524.4</ele>
        <time>2015-06-19T09:58:17Z</time>
      </trkpt>
      <trkpt lat="41.80615" lon="9.21452">
        <ele>1525.4</ele>
        <time>2015-06-19T09:58:26Z</time>
      </trkpt>
      <trkpt lat="41.80617" lon="9.21445">
        <ele>1526.6</ele>
        <time>2015-06-19T09:58:37Z</time>
      </trkpt>
      <trkpt lat="41.8062" lon="9.21443">
        <ele>1527.4</ele>
        <time>2015-06-19T09:58:46Z</time>
      </trkpt>
      <trkpt lat="41.80624" lon="9.2144">
        <ele>1528</ele>
        <time>2015-06-19T09:58:53Z</time>
      </trkpt>
      <trkpt lat="41.80628" lon="9.21434">
        <ele>1529.6</ele>
        <time>2015-06-19T09:59:04Z</time>
      </trkpt>
      <trkpt lat="41.80631" lon="9.21432">
        <ele>1530.8</ele>
        <time>2015-06-19T09:59:17Z</time>
      </trkpt>
      <trkpt lat="41.80635" lon="9.21428">
        <ele>1531.4</ele>
        <time>2015-06-19T09:59:26Z</time>
      </trkpt>
      <trkpt lat="41.80638" lon="9.21423">
        <ele>1532</ele>
        <time>2015-06-19T09:59:36Z</time>
      </trkpt>
      <trkpt lat="41.8064" lon="9.21423">
        <ele>1532.8</ele>
        <time>2015-06-19T09:59:41Z</time>
      </trkpt>
      <trkpt lat="41.80641" lon="9.21425">
        <ele>1534</ele>
        <time>2015-06-19T09:59:47Z</time>
      </trkpt>
      <trkpt lat="41.80644" lon="9.21427">
        <ele>1534.2</ele>
        <time>2015-06-19T09:59:52Z</time>
      </trkpt>
      <trkpt lat="41.80649" lon="9.21428">
        <ele>1535.4</ele>
        <time>2015-06-19T10:00:03Z</time>
      </trkpt>
      <trkpt lat="41.80654" lon="9.21427">
        <ele>1536</ele>
        <time>2015-06-19T10:00:13Z</time>
      </trkpt>
      <trkpt lat="41.80658" lon="9.21427">
        <ele>1537.4</ele>
        <time>2015-06-19T10:00:22Z</time>
      </trkpt>
      <trkpt lat="41.80662" lon="9.21426">
        <ele>1538.2</ele>
        <time>2015-06-19T10:00:30Z</time>
      </trkpt>
      <trkpt lat="41.80666" lon="9.21423">
        <ele>1539.4</ele>
        <time>2015-06-19T10:00:40Z</time>
      </trkpt>
      <trkpt lat="41.80669" lon="9.21426">
        <ele>1540</ele>
        <time>2015-06-19T10:00:47Z</time>
      </trkpt>
      <trkpt lat="41.80671" lon="9.21428">
        <ele>1541.4</ele>
        <time>2015-06-19T10:00:54Z</time>
      </trkpt>
      <trkpt lat="41.80677" lon="9.21427">
        <ele>1542.6</ele>
        <time>2015-06-19T10:01:04Z</time>
      </trkpt>
      <trkpt lat="41.8068" lon="9.21428">
        <ele>1543.4</ele>
        <time>2015-06-19T10:01:14Z</time>
      </trkpt>
      <trkpt lat="41.80685" lon="9.21428">
        <ele>1544.4</ele>
        <time>2015-06-19T10:01:25Z</time>
      </trkpt>
      <trkpt lat="41.80689" lon="9.21428">
        <ele>1545.4</ele>
        <time>2015-06-19T10:01:36Z</time>
      </trkpt>
      <trkpt lat="41.80692" lon="9.21428">
        <ele>1546.4</ele>
        <time>2015-06-19T10:01:44Z</time>
      </trkpt>
      <trkpt lat="41.80697" lon="9.21427">
        <ele>1547.4</ele>
        <time>2015-06-19T10:01:55Z</time>
      </trkpt>
      <trkpt lat="41.80699" lon="9.21427">
        <ele>1548.4</ele>
        <time>2015-06-19T10:02:03Z</time>
      </trkpt>
      <trkpt lat="41.80701" lon="9.21426">
        <ele>1549</ele>
        <time>2015-06-19T10:02:10Z</time>
      </trkpt>
      <trkpt lat="41.80705" lon="9.21424">
        <ele>1550.4</ele>
        <time>2015-06-19T10:02:19Z</time>
      </trkpt>
      <trkpt lat="41.80708" lon="9.21419">
        <ele>1551.2</ele>
        <time>2015-06-19T10:02:29Z</time>
      </trkpt>
      <trkpt lat="41.80709" lon="9.21416">
        <ele>1552.2</ele>
        <time>2015-06-19T10:02:37Z</time>
      </trkpt>
      <trkpt lat="41.80711" lon="9.21414">
        <ele>1553.2</ele>
        <time>2015-06-19T10:02:47Z</time>
      </trkpt>
      <trkpt lat="41.80712" lon="9.2141">
        <ele>1554</ele>
        <time>2015-06-19T10:02:54Z</time>
      </trkpt>
      <trkpt lat="41.80715" lon="9.21409">
        <ele>1555.4</ele>
        <time>2015-06-19T10:03:04Z</time>
      </trkpt>
      <trkpt lat="41.8072" lon="9.21406">
        <ele>1556.2</ele>
        <time>2015-06-19T10:03:14Z</time>
      </trkpt>
      <trkpt lat="41.80724" lon="9.21406">
        <ele>1557.2</ele>
        <time>2015-06-19T10:03:25Z</time>
      </trkpt>
      <trkpt lat="41.8073" lon="9.21405">
        <ele>1558.2</ele>
        <time>2015-06-19T10:03:35Z</time>
      </trkpt>
      <trkpt lat="41.80733" lon="9.21404">
        <ele>1559.2</ele>
        <time>2015-06-19T10:03:43Z</time>
      </trkpt>
      <trkpt lat="41.80737" lon="9.21405">
        <ele>1560.4</ele>
        <time>2015-06-19T10:03:52Z</time>
      </trkpt>
      <trkpt lat="41.8074" lon="9.214">
        <ele>1561.6</ele>
        <time>2015-06-19T10:04:03Z</time>
      </trkpt>
      <trkpt lat="41.80739" lon="9.21393">
        <ele>1562.6</ele>
        <time>2015-06-19T10:04:15Z</time>
      </trkpt>
      <trkpt lat="41.80739" lon="9.2139">
        <ele>1563.4</ele>
        <time>2015-06-19T10:04:22Z</time>
      </trkpt>
      <trkpt lat="41.8074" lon="9.2139">
        <ele>1564.4</ele>
        <time>2015-06-19T10:04:30Z</time>
      </trkpt>
      <trkpt lat="41.80745" lon="9.21389">
        <ele>1565.8</ele>
        <time>2015-06-19T10:04:41Z</time>
      </trkpt>
      <trkpt lat="41.80748" lon="9.21389">
        <ele>1566.8</ele>
        <time>2015-06-19T10:04:50Z</time>
      </trkpt>
      <trkpt lat="41.80755" lon="9.21389">
        <ele>1567.6</ele>
        <time>2015-06-19T10:05:00Z</time>
      </trkpt>
      <trkpt lat="41.80758" lon="9.21389">
        <ele>1568.4</ele>
        <time>2015-06-19T10:05:08Z</time>
      </trkpt>
      <trkpt lat="41.80761" lon="9.21389">
        <ele>1569.4</ele>
        <time>2015-06-19T10:05:16Z</time>
      </trkpt>
      <trkpt lat="41.80763" lon="9.21389">
        <ele>1570.6</ele>
        <time>2015-06-19T10:05:25Z</time>
      </trkpt>
      <trkpt lat="41.80766" lon="9.21388">
        <ele>1571.8</ele>
        <time>2015-06-19T10:05:37Z</time>
      </trkpt>
      <trkpt lat="41.80768" lon="9.21387">
        <ele>1572.2</ele>
        <time>2015-06-19T10:05:44Z</time>
      </trkpt>
      <trkpt lat="41.8077" lon="9.21387">
        <ele>1573.6</ele>
        <time>2015-06-19T10:05:52Z</time>
      </trkpt>
      <trkpt lat="41.80773" lon="9.21385">
        <ele>1574.6</ele>
        <time>2015-06-19T10:06:01Z</time>
      </trkpt>
      <trkpt lat="41.80775" lon="9.21384">
        <ele>1575.6</ele>
        <time>2015-06-19T10:06:15Z</time>
      </trkpt>
      <trkpt lat="41.80778" lon="9.21384">
        <ele>1576.8</ele>
        <time>2015-06-19T10:06:23Z</time>
      </trkpt>
      <trkpt lat="41.80779" lon="9.21381">
        <ele>1577.8</ele>
        <time>2015-06-19T10:06:33Z</time>
      </trkpt>
      <trkpt lat="41.80778" lon="9.21377">
        <ele>1578.6</ele>
        <time>2015-06-19T10:06:42Z</time>
      </trkpt>
      <trkpt lat="41.8078" lon="9.21375">
        <ele>1579.6</ele>
        <time>2015-06-19T10:06:50Z</time>
      </trkpt>
      <trkpt lat="41.80782" lon="9.21372">
        <ele>1581</ele>
        <time>2015-06-19T10:07:01Z</time>
      </trkpt>
      <trkpt lat="41.80783" lon="9.21368">
        <ele>1581.8</ele>
        <time>2015-06-19T10:07:17Z</time>
      </trkpt>
      <trkpt lat="41.80786" lon="9.21363">
        <ele>1582.8</ele>
        <time>2015-06-19T10:07:29Z</time>
      </trkpt>
      <trkpt lat="41.80789" lon="9.21361">
        <ele>1583.6</ele>
        <time>2015-06-19T10:07:39Z</time>
      </trkpt>
      <trkpt lat="41.8079" lon="9.21362">
        <ele>1584.6</ele>
        <time>2015-06-19T10:07:48Z</time>
      </trkpt>
      <trkpt lat="41.80794" lon="9.21362">
        <ele>1586</ele>
        <time>2015-06-19T10:08:04Z</time>
      </trkpt>
      <trkpt lat="41.80797" lon="9.21363">
        <ele>1587</ele>
        <time>2015-06-19T10:08:14Z</time>
      </trkpt>
      <trkpt lat="41.80797" lon="9.21364">
        <ele>1588</ele>
        <time>2015-06-19T10:08:23Z</time>
      </trkpt>
      <trkpt lat="41.80802" lon="9.21364">
        <ele>1588.8</ele>
        <time>2015-06-19T10:08:36Z</time>
      </trkpt>
      <trkpt lat="41.80805" lon="9.21362">
        <ele>1590</ele>
        <time>2015-06-19T10:08:47Z</time>
      </trkpt>
      <trkpt lat="41.8081" lon="9.21357">
        <ele>1591</ele>
        <time>2015-06-19T10:09:02Z</time>
      </trkpt>
      <trkpt lat="41.80816" lon="9.21355">
        <ele>1592</ele>
        <time>2015-06-19T10:09:14Z</time>
      </trkpt>
      <trkpt lat="41.8082" lon="9.21355">
        <ele>1592.8</ele>
        <time>2015-06-19T10:09:27Z</time>
      </trkpt>
      <trkpt lat="41.80824" lon="9.21356">
        <ele>1593.8</ele>
        <time>2015-06-19T10:09:40Z</time>
      </trkpt>
      <trkpt lat="41.80828" lon="9.21355">
        <ele>1594.8</ele>
        <time>2015-06-19T10:09:51Z</time>
      </trkpt>
      <trkpt lat="41.80831" lon="9.21355">
        <ele>1595.6</ele>
        <time>2015-06-19T10:10:02Z</time>
      </trkpt>
      <trkpt lat="41.80836" lon="9.21356">
        <ele>1596.4</ele>
        <time>2015-06-19T10:10:14Z</time>
      </trkpt>
      <trkpt lat="41.8084" lon="9.21357">
        <ele>1597.8</ele>
        <time>2015-06-19T10:10:25Z</time>
      </trkpt>
      <trkpt lat="41.80843" lon="9.21354">
        <ele>1598.6</ele>
        <time>2015-06-19T10:10:33Z</time>
      </trkpt>
      <trkpt lat="41.80846" lon="9.21355">
        <ele>1599.6</ele>
        <time>2015-06-19T10:10:45Z</time>
      </trkpt>
      <trkpt lat="41.80849" lon="9.21356">
        <ele>1600.6</ele>
        <time>2015-06-19T10:10:54Z</time>
      </trkpt>
      <trkpt lat="41.80853" lon="9.21357">
        <ele>1601.8</ele>
        <time>2015-06-19T10:11:10Z</time>
      </trkpt>
      <trkpt lat="41.80857" lon="9.21358">
        <ele>1602.4</ele>
        <time>2015-06-19T10:11:20Z</time>
      </trkpt>
      <trkpt lat="41.80861" lon="9.21359">
        <ele>1603.6</ele>
        <time>2015-06-19T10:11:29Z</time>
      </trkpt>
      <trkpt lat="41.80865" lon="9.2136">
        <ele>1605</ele>
        <time>2015-06-19T10:11:42Z</time>
      </trkpt>
      <trkpt lat="41.80869" lon="9.21363">
        <ele>1605.8</ele>
        <time>2015-06-19T10:11:55Z</time>
      </trkpt>
      <trkpt lat="41.80874" lon="9.21363">
        <ele>1607</ele>
        <time>2015-06-19T10:12:08Z</time>
      </trkpt>
      <trkpt lat="41.80878" lon="9.21365">
        <ele>1608</ele>
        <time>2015-06-19T10:12:18Z</time>
      </trkpt>
      <trkpt lat="41.80884" lon="9.21366">
        <ele>1608.8</ele>
        <time>2015-06-19T10:12:29Z</time>
      </trkpt>
      <trkpt lat="41.80886" lon="9.21368">
        <ele>1609.8</ele>
        <time>2015-06-19T10:12:39Z</time>
      </trkpt>
      <trkpt lat="41.80889" lon="9.21374">
        <ele>1610.8</ele>
        <time>2015-06-19T10:12:52Z</time>
      </trkpt>
      <trkpt lat="41.80891" lon="9.21379">
        <ele>1611.8</ele>
        <time>2015-06-19T10:13:01Z</time>
      </trkpt>
      <trkpt lat="41.80895" lon="9.21381">
        <ele>1613.2</ele>
        <time>2015-06-19T10:13:22Z</time>
      </trkpt>
      <trkpt lat="41.80897" lon="9.21381">
        <ele>1613.4</ele>
        <time>2015-06-19T10:13:28Z</time>
      </trkpt>
      <trkpt lat="41.809" lon="9.21378">
        <ele>1614.6</ele>
        <time>2015-06-19T10:13:36Z</time>
      </trkpt>
      <trkpt lat="41.80903" lon="9.21379">
        <ele>1615.8</ele>
        <time>2015-06-19T10:13:45Z</time>
      </trkpt>
      <trkpt lat="41.80916" lon="9.21374">
        <ele>1617.2</ele>
        <time>2015-06-19T10:14:23Z</time>
      </trkpt>
      <trkpt lat="41.80923" lon="9.21375">
        <ele>1617.8</ele>
        <time>2015-06-19T10:14:43Z</time>
      </trkpt>
      <trkpt lat="41.80924" lon="9.21376">
        <ele>1618.4</ele>
        <time>2015-06-19T10:14:51Z</time>
      </trkpt>
      <trkpt lat="41.80934" lon="9.21377">
        <ele>1620</ele>
        <time>2015-06-19T10:15:09Z</time>
      </trkpt>
      <trkpt lat="41.80939" lon="9.21379">
        <ele>1620.8</ele>
        <time>2015-06-19T10:15:21Z</time>
      </trkpt>
      <trkpt lat="41.80943" lon="9.21379">
        <ele>1621.4</ele>
        <time>2015-06-19T10:15:30Z</time>
      </trkpt>
      <trkpt lat="41.8095" lon="9.21381">
        <ele>1622.6</ele>
        <time>2015-06-19T10:15:42Z</time>
      </trkpt>
      <trkpt lat="41.80956" lon="9.21381">
        <ele>1623.6</ele>
        <time>2015-06-19T10:15:54Z</time>
      </trkpt>
      <trkpt lat="41.80962" lon="9.2138">
        <ele>1624.4</ele>
        <time>2015-06-19T10:16:05Z</time>
      </trkpt>
      <trkpt lat="41.80966" lon="9.21381">
        <ele>1625.2</ele>
        <time>2015-06-19T10:16:13Z</time>
      </trkpt>
      <trkpt lat="41.80973" lon="9.21382">
        <ele>1626.8</ele>
        <time>2015-06-19T10:16:29Z</time>
      </trkpt>
      <trkpt lat="41.80977" lon="9.21379">
        <ele>1627.4</ele>
        <time>2015-06-19T10:16:38Z</time>
      </trkpt>
      <trkpt lat="41.80983" lon="9.2138">
        <ele>1628.6</ele>
        <time>2015-06-19T10:16:52Z</time>
      </trkpt>
      <trkpt lat="41.80986" lon="9.21383">
        <ele>1629.4</ele>
        <time>2015-06-19T10:17:02Z</time>
      </trkpt>
      <trkpt lat="41.80991" lon="9.21382">
        <ele>1630</ele>
        <time>2015-06-19T10:17:12Z</time>
      </trkpt>
      <trkpt lat="41.80997" lon="9.21382">
        <ele>1631.4</ele>
        <time>2015-06-19T10:17:24Z</time>
      </trkpt>
      <trkpt lat="41.80998" lon="9.2138">
        <ele>1632.2</ele>
        <time>2015-06-19T10:17:32Z</time>
      </trkpt>
      <trkpt lat="41.81003" lon="9.21382">
        <ele>1633.2</ele>
        <time>2015-06-19T10:17:48Z</time>
      </trkpt>
      <trkpt lat="41.8101" lon="9.21383">
        <ele>1634.2</ele>
        <time>2015-06-19T10:18:00Z</time>
      </trkpt>
      <trkpt lat="41.81014" lon="9.21381">
        <ele>1635.2</ele>
        <time>2015-06-19T10:18:13Z</time>
      </trkpt>
      <trkpt lat="41.81019" lon="9.21381">
        <ele>1636.4</ele>
        <time>2015-06-19T10:18:24Z</time>
      </trkpt>
      <trkpt lat="41.81023" lon="9.21377">
        <ele>1637.4</ele>
        <time>2015-06-19T10:18:38Z</time>
      </trkpt>
      <trkpt lat="41.81027" lon="9.21376">
        <ele>1637.8</ele>
        <time>2015-06-19T10:18:45Z</time>
      </trkpt>
      <trkpt lat="41.81034" lon="9.21377">
        <ele>1639.4</ele>
        <time>2015-06-19T10:19:03Z</time>
      </trkpt>
      <trkpt lat="41.81033" lon="9.21377">
        <ele>1639.8</ele>
        <time>2015-06-19T10:19:16Z</time>
      </trkpt>
      <trkpt lat="41.8107" lon="9.21402">
        <ele>1643.4</ele>
        <time>2015-06-19T10:35:57Z</time>
      </trkpt>
      <trkpt lat="41.81076" lon="9.2141">
        <ele>1644</ele>
        <time>2015-06-19T10:36:17Z</time>
      </trkpt>
      <trkpt lat="41.81082" lon="9.21417">
        <ele>1645</ele>
        <time>2015-06-19T10:36:33Z</time>
      </trkpt>
      <trkpt lat="41.81094" lon="9.21429">
        <ele>1646.2</ele>
        <time>2015-06-19T10:37:15Z</time>
      </trkpt>
      <trkpt lat="41.81096" lon="9.21432">
        <ele>1646.8</ele>
        <time>2015-06-19T10:37:24Z</time>
      </trkpt>
      <trkpt lat="41.81114" lon="9.21439">
        <ele>1647.6</ele>
        <time>2015-06-19T10:38:13Z</time>
      </trkpt>
      <trkpt lat="41.81121" lon="9.21438">
        <ele>1646</ele>
        <time>2015-06-19T10:38:23Z</time>
      </trkpt>
      <trkpt lat="41.81136" lon="9.21437">
        <ele>1645</ele>
        <time>2015-06-19T10:38:56Z</time>
      </trkpt>
      <trkpt lat="41.81139" lon="9.21435">
        <ele>1644.2</ele>
        <time>2015-06-19T10:39:14Z</time>
      </trkpt>
      <trkpt lat="41.81142" lon="9.21434">
        <ele>1643.2</ele>
        <time>2015-06-19T10:39:20Z</time>
      </trkpt>
      <trkpt lat="41.81143" lon="9.21434">
        <ele>1643.2</ele>
        <time>2015-06-19T10:39:22Z</time>
      </trkpt>
      <trkpt lat="41.81146" lon="9.21435">
        <ele>1641.8</ele>
        <time>2015-06-19T10:39:30Z</time>
      </trkpt>
      <trkpt lat="41.81144" lon="9.21434">
        <ele>1640.8</ele>
        <time>2015-06-19T10:39:38Z</time>
      </trkpt>
      <trkpt lat="41.81147" lon="9.21433">
        <ele>1639.6</ele>
        <time>2015-06-19T10:39:46Z</time>
      </trkpt>
      <trkpt lat="41.81148" lon="9.21434">
        <ele>1637.8</ele>
        <time>2015-06-19T10:39:57Z</time>
      </trkpt>
      <trkpt lat="41.8115" lon="9.21433">
        <ele>1637</ele>
        <time>2015-06-19T10:40:05Z</time>
      </trkpt>
      <trkpt lat="41.81152" lon="9.2143">
        <ele>1636.2</ele>
        <time>2015-06-19T10:40:13Z</time>
      </trkpt>
      <trkpt lat="41.81151" lon="9.21428">
        <ele>1635</ele>
        <time>2015-06-19T10:40:19Z</time>
      </trkpt>
      <trkpt lat="41.81152" lon="9.21426">
        <ele>1634.4</ele>
        <time>2015-06-19T10:40:24Z</time>
      </trkpt>
      <trkpt lat="41.81156" lon="9.21427">
        <ele>1632.8</ele>
        <time>2015-06-19T10:40:31Z</time>
      </trkpt>
      <trkpt lat="41.81159" lon="9.21425">
        <ele>1631.8</ele>
        <time>2015-06-19T10:40:37Z</time>
      </trkpt>
      <trkpt lat="41.8116" lon="9.21424">
        <ele>1631.6</ele>
        <time>2015-06-19T10:40:38Z</time>
      </trkpt>
      <trkpt lat="41.81163" lon="9.21424">
        <ele>1630.8</ele>
        <time>2015-06-19T10:40:44Z</time>
      </trkpt>
      <trkpt lat="41.81167" lon="9.21424">
        <ele>1629.2</ele>
        <time>2015-06-19T10:40:56Z</time>
      </trkpt>
      <trkpt lat="41.81167" lon="9.2142">
        <ele>1628.4</ele>
        <time>2015-06-19T10:41:02Z</time>
      </trkpt>
      <trkpt lat="41.81168" lon="9.21418">
        <ele>1627.8</ele>
        <time>2015-06-19T10:41:05Z</time>
      </trkpt>
      <trkpt lat="41.81173" lon="9.21418">
        <ele>1625.4</ele>
        <time>2015-06-19T10:41:16Z</time>
      </trkpt>
      <trkpt lat="41.81177" lon="9.2142">
        <ele>1625.2</ele>
        <time>2015-06-19T10:41:22Z</time>
      </trkpt>
      <trkpt lat="41.8118" lon="9.21421">
        <ele>1624.2</ele>
        <time>2015-06-19T10:41:27Z</time>
      </trkpt>
      <trkpt lat="41.81186" lon="9.21423">
        <ele>1622.6</ele>
        <time>2015-06-19T10:41:34Z</time>
      </trkpt>
      <trkpt lat="41.8119" lon="9.21422">
        <ele>1621.4</ele>
        <time>2015-06-19T10:41:41Z</time>
      </trkpt>
      <trkpt lat="41.81191" lon="9.21423">
        <ele>1621.4</ele>
        <time>2015-06-19T10:41:42Z</time>
      </trkpt>
      <trkpt lat="41.81193" lon="9.21421">
        <ele>1620</ele>
        <time>2015-06-19T10:41:52Z</time>
      </trkpt>
      <trkpt lat="41.81192" lon="9.21419">
        <ele>1619.2</ele>
        <time>2015-06-19T10:42:00Z</time>
      </trkpt>
      <trkpt lat="41.81197" lon="9.21416">
        <ele>1617.8</ele>
        <time>2015-06-19T10:42:08Z</time>
      </trkpt>
      <trkpt lat="41.81205" lon="9.21415">
        <ele>1616.4</ele>
        <time>2015-06-19T10:42:17Z</time>
      </trkpt>
      <trkpt lat="41.81208" lon="9.21413">
        <ele>1615.6</ele>
        <time>2015-06-19T10:42:26Z</time>
      </trkpt>
      <trkpt lat="41.81211" lon="9.21412">
        <ele>1615.2</ele>
        <time>2015-06-19T10:42:30Z</time>
      </trkpt>
      <trkpt lat="41.81215" lon="9.21409">
        <ele>1613.6</ele>
        <time>2015-06-19T10:42:38Z</time>
      </trkpt>
      <trkpt lat="41.81242" lon="9.21408">
        <ele>1612.2</ele>
        <time>2015-06-19T10:43:30Z</time>
      </trkpt>
      <trkpt lat="41.81244" lon="9.21405">
        <ele>1611</ele>
        <time>2015-06-19T10:43:38Z</time>
      </trkpt>
      <trkpt lat="41.81246" lon="9.21405">
        <ele>1610.2</ele>
        <time>2015-06-19T10:43:44Z</time>
      </trkpt>
      <trkpt lat="41.81247" lon="9.21403">
        <ele>1608.8</ele>
        <time>2015-06-19T10:43:52Z</time>
      </trkpt>
      <trkpt lat="41.81248" lon="9.21401">
        <ele>1607.4</ele>
        <time>2015-06-19T10:43:59Z</time>
      </trkpt>
      <trkpt lat="41.81246" lon="9.21398">
        <ele>1607</ele>
        <time>2015-06-19T10:44:03Z</time>
      </trkpt>
      <trkpt lat="41.81245" lon="9.21396">
        <ele>1606.6</ele>
        <time>2015-06-19T10:44:05Z</time>
      </trkpt>
      <trkpt lat="41.81241" lon="9.21392">
        <ele>1605.4</ele>
        <time>2015-06-19T10:44:12Z</time>
      </trkpt>
      <trkpt lat="41.81244" lon="9.21389">
        <ele>1604</ele>
        <time>2015-06-19T10:44:21Z</time>
      </trkpt>
      <trkpt lat="41.81249" lon="9.21389">
        <ele>1603</ele>
        <time>2015-06-19T10:44:28Z</time>
      </trkpt>
      <trkpt lat="41.81253" lon="9.21389">
        <ele>1601.8</ele>
        <time>2015-06-19T10:44:36Z</time>
      </trkpt>
      <trkpt lat="41.81252" lon="9.21388">
        <ele>1601.6</ele>
        <time>2015-06-19T10:44:39Z</time>
      </trkpt>
      <trkpt lat="41.81252" lon="9.21386">
        <ele>1600.6</ele>
        <time>2015-06-19T10:44:45Z</time>
      </trkpt>
      <trkpt lat="41.81249" lon="9.21385">
        <ele>1599.6</ele>
        <time>2015-06-19T10:44:52Z</time>
      </trkpt>
      <trkpt lat="41.81245" lon="9.21378">
        <ele>1598.8</ele>
        <time>2015-06-19T10:45:00Z</time>
      </trkpt>
      <trkpt lat="41.81247" lon="9.21377">
        <ele>1597.4</ele>
        <time>2015-06-19T10:45:07Z</time>
      </trkpt>
      <trkpt lat="41.81249" lon="9.21376">
        <ele>1596.2</ele>
        <time>2015-06-19T10:45:15Z</time>
      </trkpt>
      <trkpt lat="41.81248" lon="9.21372">
        <ele>1595.2</ele>
        <time>2015-06-19T10:45:32Z</time>
      </trkpt>
      <trkpt lat="41.81246" lon="9.21369">
        <ele>1593.8</ele>
        <time>2015-06-19T10:45:43Z</time>
      </trkpt>
      <trkpt lat="41.81247" lon="9.21365">
        <ele>1593.4</ele>
        <time>2015-06-19T10:45:47Z</time>
      </trkpt>
      <trkpt lat="41.81251" lon="9.21363">
        <ele>1591.6</ele>
        <time>2015-06-19T10:45:55Z</time>
      </trkpt>
      <trkpt lat="41.81254" lon="9.21362">
        <ele>1590.6</ele>
        <time>2015-06-19T10:46:03Z</time>
      </trkpt>
      <trkpt lat="41.81259" lon="9.21359">
        <ele>1589.6</ele>
        <time>2015-06-19T10:46:10Z</time>
      </trkpt>
      <trkpt lat="41.81261" lon="9.21359">
        <ele>1588.2</ele>
        <time>2015-06-19T10:46:24Z</time>
      </trkpt>
      <trkpt lat="41.81267" lon="9.21359">
        <ele>1587.2</ele>
        <time>2015-06-19T10:46:31Z</time>
      </trkpt>
      <trkpt lat="41.81278" lon="9.21354">
        <ele>1585.2</ele>
        <time>2015-06-19T10:46:55Z</time>
      </trkpt>
      <trkpt lat="41.81278" lon="9.21352">
        <ele>1585.2</ele>
        <time>2015-06-19T10:47:01Z</time>
      </trkpt>
      <trkpt lat="41.81278" lon="9.21348">
        <ele>1583.4</ele>
        <time>2015-06-19T10:47:13Z</time>
      </trkpt>
      <trkpt lat="41.81278" lon="9.21345">
        <ele>1582.6</ele>
        <time>2015-06-19T10:47:20Z</time>
      </trkpt>
      <trkpt lat="41.8128" lon="9.21342">
        <ele>1581.8</ele>
        <time>2015-06-19T10:47:25Z</time>
      </trkpt>
      <trkpt lat="41.81283" lon="9.21338">
        <ele>1580.8</ele>
        <time>2015-06-19T10:47:30Z</time>
      </trkpt>
      <trkpt lat="41.81297" lon="9.21327">
        <ele>1578.8</ele>
        <time>2015-06-19T10:47:53Z</time>
      </trkpt>
      <trkpt lat="41.81304" lon="9.21326">
        <ele>1577.8</ele>
        <time>2015-06-19T10:48:02Z</time>
      </trkpt>
      <trkpt lat="41.81311" lon="9.21323">
        <ele>1576.4</ele>
        <time>2015-06-19T10:48:22Z</time>
      </trkpt>
      <trkpt lat="41.81316" lon="9.21323">
        <ele>1575.2</ele>
        <time>2015-06-19T10:48:31Z</time>
      </trkpt>
      <trkpt lat="41.81324" lon="9.21325">
        <ele>1574.2</ele>
        <time>2015-06-19T10:48:41Z</time>
      </trkpt>
      <trkpt lat="41.81327" lon="9.21323">
        <ele>1574</ele>
        <time>2015-06-19T10:48:44Z</time>
      </trkpt>
      <trkpt lat="41.81331" lon="9.21321">
        <ele>1572.8</ele>
        <time>2015-06-19T10:48:54Z</time>
      </trkpt>
      <trkpt lat="41.81333" lon="9.2132">
        <ele>1572.6</ele>
        <time>2015-06-19T10:48:58Z</time>
      </trkpt>
      <trkpt lat="41.81339" lon="9.21321">
        <ele>1570.8</ele>
        <time>2015-06-19T10:49:07Z</time>
      </trkpt>
      <trkpt lat="41.8135" lon="9.21325">
        <ele>1569.6</ele>
        <time>2015-06-19T10:49:22Z</time>
      </trkpt>
      <trkpt lat="41.81369" lon="9.2134">
        <ele>1569.6</ele>
        <time>2015-06-19T10:49:51Z</time>
      </trkpt>
      <trkpt lat="41.81374" lon="9.21343">
        <ele>1568.8</ele>
        <time>2015-06-19T10:49:57Z</time>
      </trkpt>
      <trkpt lat="41.81385" lon="9.21344">
        <ele>1567.6</ele>
        <time>2015-06-19T10:50:14Z</time>
      </trkpt>
      <trkpt lat="41.81389" lon="9.21341">
        <ele>1566.4</ele>
        <time>2015-06-19T10:50:23Z</time>
      </trkpt>
      <trkpt lat="41.81393" lon="9.21341">
        <ele>1565.6</ele>
        <time>2015-06-19T10:50:31Z</time>
      </trkpt>
      <trkpt lat="41.81396" lon="9.21338">
        <ele>1564.6</ele>
        <time>2015-06-19T10:50:38Z</time>
      </trkpt>
      <trkpt lat="41.81398" lon="9.21337">
        <ele>1564.2</ele>
        <time>2015-06-19T10:50:42Z</time>
      </trkpt>
      <trkpt lat="41.81401" lon="9.21335">
        <ele>1562.8</ele>
        <time>2015-06-19T10:50:48Z</time>
      </trkpt>
      <trkpt lat="41.81404" lon="9.2133">
        <ele>1561.2</ele>
        <time>2015-06-19T10:51:00Z</time>
      </trkpt>
      <trkpt lat="41.81406" lon="9.21326">
        <ele>1560.2</ele>
        <time>2015-06-19T10:51:09Z</time>
      </trkpt>
      <trkpt lat="41.81408" lon="9.21323">
        <ele>1559.4</ele>
        <time>2015-06-19T10:51:15Z</time>
      </trkpt>
      <trkpt lat="41.81411" lon="9.21321">
        <ele>1558.2</ele>
        <time>2015-06-19T10:51:23Z</time>
      </trkpt>
      <trkpt lat="41.81412" lon="9.21318">
        <ele>1557</ele>
        <time>2015-06-19T10:51:36Z</time>
      </trkpt>
      <trkpt lat="41.81411" lon="9.21317">
        <ele>1555.8</ele>
        <time>2015-06-19T10:51:45Z</time>
      </trkpt>
      <trkpt lat="41.8141" lon="9.21312">
        <ele>1555</ele>
        <time>2015-06-19T10:51:58Z</time>
      </trkpt>
      <trkpt lat="41.81412" lon="9.21311">
        <ele>1554.4</ele>
        <time>2015-06-19T10:52:03Z</time>
      </trkpt>
      <trkpt lat="41.8141" lon="9.21306">
        <ele>1552.8</ele>
        <time>2015-06-19T10:52:12Z</time>
      </trkpt>
      <trkpt lat="41.81408" lon="9.21304">
        <ele>1551.8</ele>
        <time>2015-06-19T10:52:21Z</time>
      </trkpt>
      <trkpt lat="41.81408" lon="9.21299">
        <ele>1550.4</ele>
        <time>2015-06-19T10:52:30Z</time>
      </trkpt>
      <trkpt lat="41.81412" lon="9.21294">
        <ele>1549.6</ele>
        <time>2015-06-19T10:52:37Z</time>
      </trkpt>
      <trkpt lat="41.81416" lon="9.21289">
        <ele>1548</ele>
        <time>2015-06-19T10:52:53Z</time>
      </trkpt>
      <trkpt lat="41.81418" lon="9.21284">
        <ele>1547.4</ele>
        <time>2015-06-19T10:53:01Z</time>
      </trkpt>
      <trkpt lat="41.81419" lon="9.21283">
        <ele>1546.6</ele>
        <time>2015-06-19T10:53:07Z</time>
      </trkpt>
      <trkpt lat="41.8142" lon="9.21282">
        <ele>1545.2</ele>
        <time>2015-06-19T10:53:13Z</time>
      </trkpt>
      <trkpt lat="41.81416" lon="9.21278">
        <ele>1543.8</ele>
        <time>2015-06-19T10:53:23Z</time>
      </trkpt>
      <trkpt lat="41.81416" lon="9.21276">
        <ele>1543</ele>
        <time>2015-06-19T10:53:30Z</time>
      </trkpt>
      <trkpt lat="41.81418" lon="9.21275">
        <ele>1542</ele>
        <time>2015-06-19T10:53:35Z</time>
      </trkpt>
      <trkpt lat="41.81424" lon="9.21274">
        <ele>1540.2</ele>
        <time>2015-06-19T10:53:46Z</time>
      </trkpt>
      <trkpt lat="41.81425" lon="9.2127">
        <ele>1539.6</ele>
        <time>2015-06-19T10:53:56Z</time>
      </trkpt>
      <trkpt lat="41.81425" lon="9.21268">
        <ele>1538.4</ele>
        <time>2015-06-19T10:54:04Z</time>
      </trkpt>
      <trkpt lat="41.81425" lon="9.2126">
        <ele>1537</ele>
        <time>2015-06-19T10:54:15Z</time>
      </trkpt>
      <trkpt lat="41.81425" lon="9.21258">
        <ele>1536.8</ele>
        <time>2015-06-19T10:54:17Z</time>
      </trkpt>
      <trkpt lat="41.81426" lon="9.21255">
        <ele>1536.6</ele>
        <time>2015-06-19T10:54:20Z</time>
      </trkpt>
      <trkpt lat="41.81429" lon="9.21251">
        <ele>1535.8</ele>
        <time>2015-06-19T10:54:25Z</time>
      </trkpt>
      <trkpt lat="41.81434" lon="9.21251">
        <ele>1533.8</ele>
        <time>2015-06-19T10:54:33Z</time>
      </trkpt>
      <trkpt lat="41.8144" lon="9.21249">
        <ele>1532.6</ele>
        <time>2015-06-19T10:54:45Z</time>
      </trkpt>
      <trkpt lat="41.81436" lon="9.21245">
        <ele>1531.8</ele>
        <time>2015-06-19T10:54:51Z</time>
      </trkpt>
      <trkpt lat="41.81435" lon="9.21245">
        <ele>1531.8</ele>
        <time>2015-06-19T10:54:52Z</time>
      </trkpt>
      <trkpt lat="41.81434" lon="9.21246">
        <ele>1531.2</ele>
        <time>2015-06-19T10:54:55Z</time>
      </trkpt>
      <trkpt lat="41.81432" lon="9.21246">
        <ele>1530.4</ele>
        <time>2015-06-19T10:54:59Z</time>
      </trkpt>
      <trkpt lat="41.81429" lon="9.21248">
        <ele>1529.6</ele>
        <time>2015-06-19T10:55:07Z</time>
      </trkpt>
      <trkpt lat="41.81427" lon="9.21243">
        <ele>1528.6</ele>
        <time>2015-06-19T10:55:14Z</time>
      </trkpt>
      <trkpt lat="41.81429" lon="9.21242">
        <ele>1527.8</ele>
        <time>2015-06-19T10:55:18Z</time>
      </trkpt>
      <trkpt lat="41.81433" lon="9.2124">
        <ele>1525.8</ele>
        <time>2015-06-19T10:55:33Z</time>
      </trkpt>
      <trkpt lat="41.81435" lon="9.21238">
        <ele>1524.8</ele>
        <time>2015-06-19T10:55:46Z</time>
      </trkpt>
      <trkpt lat="41.81437" lon="9.21235">
        <ele>1523.8</ele>
        <time>2015-06-19T10:55:54Z</time>
      </trkpt>
      <trkpt lat="41.81439" lon="9.21232">
        <ele>1523</ele>
        <time>2015-06-19T10:56:01Z</time>
      </trkpt>
      <trkpt lat="41.8144" lon="9.21231">
        <ele>1522.8</ele>
        <time>2015-06-19T10:56:03Z</time>
      </trkpt>
      <trkpt lat="41.81442" lon="9.21229">
        <ele>1521.8</ele>
        <time>2015-06-19T10:56:09Z</time>
      </trkpt>
      <trkpt lat="41.81444" lon="9.21224">
        <ele>1520.4</ele>
        <time>2015-06-19T10:56:15Z</time>
      </trkpt>
      <trkpt lat="41.81445" lon="9.21224">
        <ele>1518.6</ele>
        <time>2015-06-19T10:56:26Z</time>
      </trkpt>
      <trkpt lat="41.81445" lon="9.2122">
        <ele>1518</ele>
        <time>2015-06-19T10:56:36Z</time>
      </trkpt>
      <trkpt lat="41.81447" lon="9.21218">
        <ele>1517.4</ele>
        <time>2015-06-19T10:56:41Z</time>
      </trkpt>
      <trkpt lat="41.81448" lon="9.21213">
        <ele>1515.8</ele>
        <time>2015-06-19T10:56:47Z</time>
      </trkpt>
      <trkpt lat="41.8145" lon="9.2121">
        <ele>1514.2</ele>
        <time>2015-06-19T10:56:56Z</time>
      </trkpt>
      <trkpt lat="41.81452" lon="9.21204">
        <ele>1513.2</ele>
        <time>2015-06-19T10:57:07Z</time>
      </trkpt>
      <trkpt lat="41.81449" lon="9.212">
        <ele>1512</ele>
        <time>2015-06-19T10:57:25Z</time>
      </trkpt>
      <trkpt lat="41.81447" lon="9.21199">
        <ele>1510.8</ele>
        <time>2015-06-19T10:57:32Z</time>
      </trkpt>
      <trkpt lat="41.81447" lon="9.21196">
        <ele>1510</ele>
        <time>2015-06-19T10:57:38Z</time>
      </trkpt>
      <trkpt lat="41.81446" lon="9.21193">
        <ele>1508.4</ele>
        <time>2015-06-19T10:57:50Z</time>
      </trkpt>
      <trkpt lat="41.81451" lon="9.21191">
        <ele>1507.6</ele>
        <time>2015-06-19T10:57:56Z</time>
      </trkpt>
      <trkpt lat="41.81452" lon="9.21188">
        <ele>1506</ele>
        <time>2015-06-19T10:58:04Z</time>
      </trkpt>
      <trkpt lat="41.81454" lon="9.21182">
        <ele>1504.6</ele>
        <time>2015-06-19T10:58:13Z</time>
      </trkpt>
      <trkpt lat="41.81455" lon="9.2118">
        <ele>1503.8</ele>
        <time>2015-06-19T10:58:19Z</time>
      </trkpt>
      <trkpt lat="41.81453" lon="9.21178">
        <ele>1502.8</ele>
        <time>2015-06-19T10:58:25Z</time>
      </trkpt>
      <trkpt lat="41.81455" lon="9.21174">
        <ele>1501.6</ele>
        <time>2015-06-19T10:58:31Z</time>
      </trkpt>
      <trkpt lat="41.81461" lon="9.2117">
        <ele>1500</ele>
        <time>2015-06-19T10:58:40Z</time>
      </trkpt>
      <trkpt lat="41.81465" lon="9.2117">
        <ele>1499.4</ele>
        <time>2015-06-19T10:58:47Z</time>
      </trkpt>
      <trkpt lat="41.81468" lon="9.21165">
        <ele>1498.2</ele>
        <time>2015-06-19T10:58:53Z</time>
      </trkpt>
      <trkpt lat="41.81469" lon="9.21165">
        <ele>1498</ele>
        <time>2015-06-19T10:58:54Z</time>
      </trkpt>
      <trkpt lat="41.81471" lon="9.21164">
        <ele>1497.2</ele>
        <time>2015-06-19T10:58:59Z</time>
      </trkpt>
      <trkpt lat="41.81475" lon="9.21163">
        <ele>1495.8</ele>
        <time>2015-06-19T10:59:05Z</time>
      </trkpt>
      <trkpt lat="41.8148" lon="9.21163">
        <ele>1494.6</ele>
        <time>2015-06-19T10:59:11Z</time>
      </trkpt>
      <trkpt lat="41.81483" lon="9.21163">
        <ele>1493.6</ele>
        <time>2015-06-19T10:59:16Z</time>
      </trkpt>
      <trkpt lat="41.81485" lon="9.21156">
        <ele>1492</ele>
        <time>2015-06-19T10:59:24Z</time>
      </trkpt>
      <trkpt lat="41.81485" lon="9.21154">
        <ele>1491.6</ele>
        <time>2015-06-19T10:59:26Z</time>
      </trkpt>
      <trkpt lat="41.81484" lon="9.21148">
        <ele>1491</ele>
        <time>2015-06-19T10:59:30Z</time>
      </trkpt>
      <trkpt lat="41.81486" lon="9.21146">
        <ele>1490.6</ele>
        <time>2015-06-19T10:59:32Z</time>
      </trkpt>
      <trkpt lat="41.81488" lon="9.21144">
        <ele>1490.2</ele>
        <time>2015-06-19T10:59:34Z</time>
      </trkpt>
      <trkpt lat="41.81494" lon="9.21136">
        <ele>1488.2</ele>
        <time>2015-06-19T10:59:42Z</time>
      </trkpt>
      <trkpt lat="41.815" lon="9.21132">
        <ele>1486.8</ele>
        <time>2015-06-19T10:59:50Z</time>
      </trkpt>
      <trkpt lat="41.815" lon="9.21128">
        <ele>1485.8</ele>
        <time>2015-06-19T10:59:57Z</time>
      </trkpt>
      <trkpt lat="41.81496" lon="9.21129">
        <ele>1485</ele>
        <time>2015-06-19T11:00:03Z</time>
      </trkpt>
      <trkpt lat="41.81499" lon="9.21127">
        <ele>1483.4</ele>
        <time>2015-06-19T11:00:10Z</time>
      </trkpt>
      <trkpt lat="41.81501" lon="9.21125">
        <ele>1482.4</ele>
        <time>2015-06-19T11:00:19Z</time>
      </trkpt>
      <trkpt lat="41.81504" lon="9.21121">
        <ele>1480.8</ele>
        <time>2015-06-19T11:00:30Z</time>
      </trkpt>
      <trkpt lat="41.81509" lon="9.2112">
        <ele>1480</ele>
        <time>2015-06-19T11:00:36Z</time>
      </trkpt>
      <trkpt lat="41.81511" lon="9.2112">
        <ele>1479.8</ele>
        <time>2015-06-19T11:00:38Z</time>
      </trkpt>
      <trkpt lat="41.81517" lon="9.21123">
        <ele>1478.6</ele>
        <time>2015-06-19T11:00:45Z</time>
      </trkpt>
      <trkpt lat="41.8152" lon="9.21129">
        <ele>1477.4</ele>
        <time>2015-06-19T11:00:53Z</time>
      </trkpt>
      <trkpt lat="41.81524" lon="9.21129">
        <ele>1476.4</ele>
        <time>2015-06-19T11:01:01Z</time>
      </trkpt>
      <trkpt lat="41.81528" lon="9.2113">
        <ele>1475.8</ele>
        <time>2015-06-19T11:01:05Z</time>
      </trkpt>
      <trkpt lat="41.8153" lon="9.21131">
        <ele>1475.4</ele>
        <time>2015-06-19T11:01:07Z</time>
      </trkpt>
      <trkpt lat="41.81536" lon="9.21134">
        <ele>1473.8</ele>
        <time>2015-06-19T11:01:15Z</time>
      </trkpt>
      <trkpt lat="41.81539" lon="9.21133">
        <ele>1473.2</ele>
        <time>2015-06-19T11:01:21Z</time>
      </trkpt>
      <trkpt lat="41.81543" lon="9.21135">
        <ele>1471.8</ele>
        <time>2015-06-19T11:01:27Z</time>
      </trkpt>
      <trkpt lat="41.81545" lon="9.21137">
        <ele>1470.4</ele>
        <time>2015-06-19T11:01:35Z</time>
      </trkpt>
      <trkpt lat="41.81551" lon="9.21141">
        <ele>1469</ele>
        <time>2015-06-19T11:01:44Z</time>
      </trkpt>
      <trkpt lat="41.81556" lon="9.21143">
        <ele>1468</ele>
        <time>2015-06-19T11:01:51Z</time>
      </trkpt>
      <trkpt lat="41.81559" lon="9.21144">
        <ele>1467.2</ele>
        <time>2015-06-19T11:01:57Z</time>
      </trkpt>
      <trkpt lat="41.81561" lon="9.21146">
        <ele>1465.2</ele>
        <time>2015-06-19T11:02:07Z</time>
      </trkpt>
      <trkpt lat="41.81563" lon="9.21145">
        <ele>1464.8</ele>
        <time>2015-06-19T11:02:14Z</time>
      </trkpt>
      <trkpt lat="41.81565" lon="9.21143">
        <ele>1463.4</ele>
        <time>2015-06-19T11:02:22Z</time>
      </trkpt>
      <trkpt lat="41.81569" lon="9.21144">
        <ele>1462.6</ele>
        <time>2015-06-19T11:02:27Z</time>
      </trkpt>
      <trkpt lat="41.81575" lon="9.21146">
        <ele>1461.2</ele>
        <time>2015-06-19T11:02:33Z</time>
      </trkpt>
      <trkpt lat="41.81582" lon="9.21144">
        <ele>1459.8</ele>
        <time>2015-06-19T11:02:41Z</time>
      </trkpt>
      <trkpt lat="41.81589" lon="9.21145">
        <ele>1458.2</ele>
        <time>2015-06-19T11:02:51Z</time>
      </trkpt>
      <trkpt lat="41.81595" lon="9.21146">
        <ele>1457.2</ele>
        <time>2015-06-19T11:03:01Z</time>
      </trkpt>
      <trkpt lat="41.81596" lon="9.2115">
        <ele>1456.2</ele>
        <time>2015-06-19T11:03:10Z</time>
      </trkpt>
      <trkpt lat="41.81599" lon="9.21153">
        <ele>1455</ele>
        <time>2015-06-19T11:03:18Z</time>
      </trkpt>
      <trkpt lat="41.81603" lon="9.21157">
        <ele>1454</ele>
        <time>2015-06-19T11:03:26Z</time>
      </trkpt>
      <trkpt lat="41.81603" lon="9.21156">
        <ele>1453.6</ele>
        <time>2015-06-19T11:03:28Z</time>
      </trkpt>
      <trkpt lat="41.81605" lon="9.21158">
        <ele>1452.8</ele>
        <time>2015-06-19T11:03:35Z</time>
      </trkpt>
      <trkpt lat="41.81607" lon="9.21163">
        <ele>1451.4</ele>
        <time>2015-06-19T11:03:44Z</time>
      </trkpt>
      <trkpt lat="41.8161" lon="9.21162">
        <ele>1450.2</ele>
        <time>2015-06-19T11:03:52Z</time>
      </trkpt>
      <trkpt lat="41.81612" lon="9.21161">
        <ele>1449</ele>
        <time>2015-06-19T11:04:00Z</time>
      </trkpt>
      <trkpt lat="41.81611" lon="9.21161">
        <ele>1447.6</ele>
        <time>2015-06-19T11:04:09Z</time>
      </trkpt>
      <trkpt lat="41.81613" lon="9.2116">
        <ele>1446.6</ele>
        <time>2015-06-19T11:04:17Z</time>
      </trkpt>
      <trkpt lat="41.81616" lon="9.21161">
        <ele>1445.4</ele>
        <time>2015-06-19T11:04:25Z</time>
      </trkpt>
      <trkpt lat="41.81616" lon="9.2116">
        <ele>1444.4</ele>
        <time>2015-06-19T11:04:32Z</time>
      </trkpt>
      <trkpt lat="41.81616" lon="9.21164">
        <ele>1443</ele>
        <time>2015-06-19T11:04:41Z</time>
      </trkpt>
      <trkpt lat="41.81623" lon="9.21172">
        <ele>1441.6</ele>
        <time>2015-06-19T11:04:50Z</time>
      </trkpt>
      <trkpt lat="41.81628" lon="9.21173">
        <ele>1440.2</ele>
        <time>2015-06-19T11:05:05Z</time>
      </trkpt>
      <trkpt lat="41.81628" lon="9.21172">
        <ele>1439.6</ele>
        <time>2015-06-19T11:05:10Z</time>
      </trkpt>
      <trkpt lat="41.81631" lon="9.21173">
        <ele>1438.6</ele>
        <time>2015-06-19T11:05:16Z</time>
      </trkpt>
      <trkpt lat="41.81631" lon="9.21168">
        <ele>1437</ele>
        <time>2015-06-19T11:05:23Z</time>
      </trkpt>
      <trkpt lat="41.81627" lon="9.21159">
        <ele>1434.8</ele>
        <time>2015-06-19T11:05:36Z</time>
      </trkpt>
      <trkpt lat="41.81628" lon="9.21155">
        <ele>1434.6</ele>
        <time>2015-06-19T11:05:44Z</time>
      </trkpt>
      <trkpt lat="41.81632" lon="9.21158">
        <ele>1433.2</ele>
        <time>2015-06-19T11:05:55Z</time>
      </trkpt>
      <trkpt lat="41.81635" lon="9.21159">
        <ele>1433</ele>
        <time>2015-06-19T11:06:00Z</time>
      </trkpt>
      <trkpt lat="41.81638" lon="9.21161">
        <ele>1432.8</ele>
        <time>2015-06-19T11:06:01Z</time>
      </trkpt>
      <trkpt lat="41.8164" lon="9.21156">
        <ele>1432.2</ele>
        <time>2015-06-19T11:06:07Z</time>
      </trkpt>
      <trkpt lat="41.8164" lon="9.2115">
        <ele>1431.2</ele>
        <time>2015-06-19T11:06:12Z</time>
      </trkpt>
      <trkpt lat="41.8164" lon="9.21149">
        <ele>1431</ele>
        <time>2015-06-19T11:06:13Z</time>
      </trkpt>
      <trkpt lat="41.81641" lon="9.21147">
        <ele>1429.8</ele>
        <time>2015-06-19T11:06:19Z</time>
      </trkpt>
      <trkpt lat="41.81639" lon="9.2114">
        <ele>1428</ele>
        <time>2015-06-19T11:06:30Z</time>
      </trkpt>
      <trkpt lat="41.81637" lon="9.21137">
        <ele>1427.2</ele>
        <time>2015-06-19T11:06:39Z</time>
      </trkpt>
      <trkpt lat="41.81636" lon="9.21132">
        <ele>1425.6</ele>
        <time>2015-06-19T11:06:48Z</time>
      </trkpt>
      <trkpt lat="41.81637" lon="9.21125">
        <ele>1424.6</ele>
        <time>2015-06-19T11:06:56Z</time>
      </trkpt>
      <trkpt lat="41.81635" lon="9.2112">
        <ele>1424.2</ele>
        <time>2015-06-19T11:07:01Z</time>
      </trkpt>
      <trkpt lat="41.81638" lon="9.21115">
        <ele>1423.4</ele>
        <time>2015-06-19T11:07:06Z</time>
      </trkpt>
      <trkpt lat="41.81639" lon="9.21113">
        <ele>1423.2</ele>
        <time>2015-06-19T11:07:08Z</time>
      </trkpt>
      <trkpt lat="41.81638" lon="9.21112">
        <ele>1423</ele>
        <time>2015-06-19T11:07:09Z</time>
      </trkpt>
      <trkpt lat="41.81637" lon="9.21109">
        <ele>1422.8</ele>
        <time>2015-06-19T11:07:11Z</time>
      </trkpt>
      <trkpt lat="41.81638" lon="9.21104">
        <ele>1422</ele>
        <time>2015-06-19T11:07:17Z</time>
      </trkpt>
      <trkpt lat="41.81635" lon="9.21098">
        <ele>1421.2</ele>
        <time>2015-06-19T11:07:22Z</time>
      </trkpt>
      <trkpt lat="41.81636" lon="9.21096">
        <ele>1420.6</ele>
        <time>2015-06-19T11:07:25Z</time>
      </trkpt>
      <trkpt lat="41.81637" lon="9.2109">
        <ele>1419.8</ele>
        <time>2015-06-19T11:07:31Z</time>
      </trkpt>
      <trkpt lat="41.81638" lon="9.2109">
        <ele>1419.6</ele>
        <time>2015-06-19T11:07:32Z</time>
      </trkpt>
      <trkpt lat="41.8164" lon="9.21086">
        <ele>1418.6</ele>
        <time>2015-06-19T11:07:38Z</time>
      </trkpt>
      <trkpt lat="41.81641" lon="9.21081">
        <ele>1417.6</ele>
        <time>2015-06-19T11:07:44Z</time>
      </trkpt>
      <trkpt lat="41.81641" lon="9.21077">
        <ele>1416</ele>
        <time>2015-06-19T11:07:51Z</time>
      </trkpt>
      <trkpt lat="41.81644" lon="9.21075">
        <ele>1414.6</ele>
        <time>2015-06-19T11:07:59Z</time>
      </trkpt>
      <trkpt lat="41.81643" lon="9.2107">
        <ele>1413.4</ele>
        <time>2015-06-19T11:08:06Z</time>
      </trkpt>
      <trkpt lat="41.81642" lon="9.21066">
        <ele>1412.6</ele>
        <time>2015-06-19T11:08:12Z</time>
      </trkpt>
      <trkpt lat="41.81642" lon="9.2106">
        <ele>1411</ele>
        <time>2015-06-19T11:08:19Z</time>
      </trkpt>
      <trkpt lat="41.81642" lon="9.21059">
        <ele>1411</ele>
        <time>2015-06-19T11:08:20Z</time>
      </trkpt>
      <trkpt lat="41.81644" lon="9.21056">
        <ele>1410</ele>
        <time>2015-06-19T11:08:26Z</time>
      </trkpt>
      <trkpt lat="41.81644" lon="9.21052">
        <ele>1409</ele>
        <time>2015-06-19T11:08:32Z</time>
      </trkpt>
      <trkpt lat="41.81644" lon="9.2105">
        <ele>1407.8</ele>
        <time>2015-06-19T11:08:37Z</time>
      </trkpt>
      <trkpt lat="41.81642" lon="9.21048">
        <ele>1406.6</ele>
        <time>2015-06-19T11:08:43Z</time>
      </trkpt>
      <trkpt lat="41.81643" lon="9.21048">
        <ele>1405.6</ele>
        <time>2015-06-19T11:08:48Z</time>
      </trkpt>
      <trkpt lat="41.81642" lon="9.21044">
        <ele>1404.2</ele>
        <time>2015-06-19T11:08:54Z</time>
      </trkpt>
      <trkpt lat="41.81638" lon="9.21035">
        <ele>1402</ele>
        <time>2015-06-19T11:09:12Z</time>
      </trkpt>
      <trkpt lat="41.81638" lon="9.21031">
        <ele>1401.4</ele>
        <time>2015-06-19T11:09:19Z</time>
      </trkpt>
      <trkpt lat="41.81641" lon="9.21026">
        <ele>1400.6</ele>
        <time>2015-06-19T11:09:24Z</time>
      </trkpt>
      <trkpt lat="41.81642" lon="9.21026">
        <ele>1400.2</ele>
        <time>2015-06-19T11:09:25Z</time>
      </trkpt>
      <trkpt lat="41.81646" lon="9.21022">
        <ele>1399</ele>
        <time>2015-06-19T11:09:31Z</time>
      </trkpt>
      <trkpt lat="41.81646" lon="9.21021">
        <ele>1398.8</ele>
        <time>2015-06-19T11:09:33Z</time>
      </trkpt>
      <trkpt lat="41.81648" lon="9.21015">
        <ele>1397.6</ele>
        <time>2015-06-19T11:09:40Z</time>
      </trkpt>
      <trkpt lat="41.81649" lon="9.21013">
        <ele>1396</ele>
        <time>2015-06-19T11:09:49Z</time>
      </trkpt>
      <trkpt lat="41.81651" lon="9.21012">
        <ele>1395.4</ele>
        <time>2015-06-19T11:09:56Z</time>
      </trkpt>
      <trkpt lat="41.81655" lon="9.21009">
        <ele>1394.2</ele>
        <time>2015-06-19T11:10:03Z</time>
      </trkpt>
      <trkpt lat="41.81655" lon="9.21006">
        <ele>1392.8</ele>
        <time>2015-06-19T11:10:10Z</time>
      </trkpt>
      <trkpt lat="41.81657" lon="9.21003">
        <ele>1391.6</ele>
        <time>2015-06-19T11:10:17Z</time>
      </trkpt>
      <trkpt lat="41.81665" lon="9.21002">
        <ele>1390</ele>
        <time>2015-06-19T11:10:25Z</time>
      </trkpt>
      <trkpt lat="41.81665" lon="9.21">
        <ele>1389.8</ele>
        <time>2015-06-19T11:10:26Z</time>
      </trkpt>
      <trkpt lat="41.81666" lon="9.20996">
        <ele>1388.8</ele>
        <time>2015-06-19T11:10:32Z</time>
      </trkpt>
      <trkpt lat="41.81672" lon="9.20995">
        <ele>1387.4</ele>
        <time>2015-06-19T11:10:41Z</time>
      </trkpt>
      <trkpt lat="41.81675" lon="9.20993">
        <ele>1386.4</ele>
        <time>2015-06-19T11:10:48Z</time>
      </trkpt>
      <trkpt lat="41.81678" lon="9.2099">
        <ele>1384.6</ele>
        <time>2015-06-19T11:10:58Z</time>
      </trkpt>
      <trkpt lat="41.8168" lon="9.20991">
        <ele>1383.8</ele>
        <time>2015-06-19T11:11:05Z</time>
      </trkpt>
      <trkpt lat="41.81686" lon="9.20993">
        <ele>1382.6</ele>
        <time>2015-06-19T11:11:13Z</time>
      </trkpt>
      <trkpt lat="41.8169" lon="9.20992">
        <ele>1381.4</ele>
        <time>2015-06-19T11:11:20Z</time>
      </trkpt>
      <trkpt lat="41.81689" lon="9.20987">
        <ele>1379.8</ele>
        <time>2015-06-19T11:11:29Z</time>
      </trkpt>
      <trkpt lat="41.8169" lon="9.20982">
        <ele>1378.8</ele>
        <time>2015-06-19T11:11:35Z</time>
      </trkpt>
      <trkpt lat="41.81689" lon="9.20978">
        <ele>1377.4</ele>
        <time>2015-06-19T11:11:41Z</time>
      </trkpt>
      <trkpt lat="41.8169" lon="9.20975">
        <ele>1375.8</ele>
        <time>2015-06-19T11:11:49Z</time>
      </trkpt>
      <trkpt lat="41.8169" lon="9.20971">
        <ele>1374.4</ele>
        <time>2015-06-19T11:11:59Z</time>
      </trkpt>
      <trkpt lat="41.81689" lon="9.20965">
        <ele>1373.8</ele>
        <time>2015-06-19T11:12:04Z</time>
      </trkpt>
      <trkpt lat="41.8169" lon="9.20964">
        <ele>1373.4</ele>
        <time>2015-06-19T11:12:07Z</time>
      </trkpt>
      <trkpt lat="41.8169" lon="9.20961">
        <ele>1372</ele>
        <time>2015-06-19T11:12:13Z</time>
      </trkpt>
      <trkpt lat="41.81692" lon="9.2096">
        <ele>1371.2</ele>
        <time>2015-06-19T11:12:20Z</time>
      </trkpt>
      <trkpt lat="41.81692" lon="9.20958">
        <ele>1370.2</ele>
        <time>2015-06-19T11:12:25Z</time>
      </trkpt>
      <trkpt lat="41.8169" lon="9.20949">
        <ele>1368.6</ele>
        <time>2015-06-19T11:12:32Z</time>
      </trkpt>
      <trkpt lat="41.81691" lon="9.20949">
        <ele>1368.2</ele>
        <time>2015-06-19T11:12:34Z</time>
      </trkpt>
      <trkpt lat="41.81692" lon="9.20947">
        <ele>1368</ele>
        <time>2015-06-19T11:12:36Z</time>
      </trkpt>
      <trkpt lat="41.81694" lon="9.20946">
        <ele>1367</ele>
        <time>2015-06-19T11:12:40Z</time>
      </trkpt>
      <trkpt lat="41.81696" lon="9.20946">
        <ele>1366.2</ele>
        <time>2015-06-19T11:12:46Z</time>
      </trkpt>
      <trkpt lat="41.81698" lon="9.20945">
        <ele>1364.6</ele>
        <time>2015-06-19T11:12:54Z</time>
      </trkpt>
      <trkpt lat="41.81699" lon="9.2094">
        <ele>1363.4</ele>
        <time>2015-06-19T11:13:02Z</time>
      </trkpt>
      <trkpt lat="41.81697" lon="9.20936">
        <ele>1362.6</ele>
        <time>2015-06-19T11:13:07Z</time>
      </trkpt>
      <trkpt lat="41.81696" lon="9.20934">
        <ele>1361.4</ele>
        <time>2015-06-19T11:13:12Z</time>
      </trkpt>
      <trkpt lat="41.81695" lon="9.20924">
        <ele>1359.6</ele>
        <time>2015-06-19T11:13:20Z</time>
      </trkpt>
      <trkpt lat="41.81698" lon="9.20921">
        <ele>1358</ele>
        <time>2015-06-19T11:13:29Z</time>
      </trkpt>
      <trkpt lat="41.81705" lon="9.20918">
        <ele>1356.8</ele>
        <time>2015-06-19T11:13:39Z</time>
      </trkpt>
      <trkpt lat="41.81708" lon="9.20913">
        <ele>1356.2</ele>
        <time>2015-06-19T11:13:44Z</time>
      </trkpt>
      <trkpt lat="41.81709" lon="9.20913">
        <ele>1356</ele>
        <time>2015-06-19T11:13:45Z</time>
      </trkpt>
      <trkpt lat="41.8171" lon="9.20909">
        <ele>1355.2</ele>
        <time>2015-06-19T11:13:49Z</time>
      </trkpt>
      <trkpt lat="41.81711" lon="9.20908">
        <ele>1354.8</ele>
        <time>2015-06-19T11:13:51Z</time>
      </trkpt>
      <trkpt lat="41.81714" lon="9.20907">
        <ele>1353</ele>
        <time>2015-06-19T11:14:00Z</time>
      </trkpt>
      <trkpt lat="41.81716" lon="9.20905">
        <ele>1352</ele>
        <time>2015-06-19T11:14:10Z</time>
      </trkpt>
      <trkpt lat="41.81718" lon="9.20901">
        <ele>1350.8</ele>
        <time>2015-06-19T11:14:16Z</time>
      </trkpt>
      <trkpt lat="41.8172" lon="9.20898">
        <ele>1349.4</ele>
        <time>2015-06-19T11:14:22Z</time>
      </trkpt>
      <trkpt lat="41.81722" lon="9.20898">
        <ele>1349</ele>
        <time>2015-06-19T11:14:24Z</time>
      </trkpt>
      <trkpt lat="41.81722" lon="9.20895">
        <ele>1348.2</ele>
        <time>2015-06-19T11:14:29Z</time>
      </trkpt>
      <trkpt lat="41.81723" lon="9.20891">
        <ele>1347.2</ele>
        <time>2015-06-19T11:14:36Z</time>
      </trkpt>
      <trkpt lat="41.81724" lon="9.20884">
        <ele>1345.6</ele>
        <time>2015-06-19T11:14:43Z</time>
      </trkpt>
      <trkpt lat="41.81724" lon="9.20884">
        <ele>1345.2</ele>
        <time>2015-06-19T11:14:45Z</time>
      </trkpt>
      <trkpt lat="41.81724" lon="9.20882">
        <ele>1344.6</ele>
        <time>2015-06-19T11:14:48Z</time>
      </trkpt>
      <trkpt lat="41.81723" lon="9.2088">
        <ele>1342.6</ele>
        <time>2015-06-19T11:14:56Z</time>
      </trkpt>
      <trkpt lat="41.81726" lon="9.20873">
        <ele>1341.4</ele>
        <time>2015-06-19T11:15:04Z</time>
      </trkpt>
      <trkpt lat="41.81729" lon="9.20872">
        <ele>1340</ele>
        <time>2015-06-19T11:15:13Z</time>
      </trkpt>
      <trkpt lat="41.81733" lon="9.20867">
        <ele>1338.8</ele>
        <time>2015-06-19T11:15:21Z</time>
      </trkpt>
      <trkpt lat="41.81737" lon="9.20861">
        <ele>1338.4</ele>
        <time>2015-06-19T11:15:25Z</time>
      </trkpt>
      <trkpt lat="41.8174" lon="9.20856">
        <ele>1337</ele>
        <time>2015-06-19T11:15:33Z</time>
      </trkpt>
      <trkpt lat="41.81743" lon="9.20855">
        <ele>1336.4</ele>
        <time>2015-06-19T11:15:40Z</time>
      </trkpt>
      <trkpt lat="41.81743" lon="9.20851">
        <ele>1335</ele>
        <time>2015-06-19T11:15:48Z</time>
      </trkpt>
      <trkpt lat="41.81741" lon="9.20846">
        <ele>1333.2</ele>
        <time>2015-06-19T11:15:58Z</time>
      </trkpt>
      <trkpt lat="41.81745" lon="9.20846">
        <ele>1331.6</ele>
        <time>2015-06-19T11:16:26Z</time>
      </trkpt>
      <trkpt lat="41.81744" lon="9.20842">
        <ele>1330.2</ele>
        <time>2015-06-19T11:16:38Z</time>
      </trkpt>
      <trkpt lat="41.81745" lon="9.20839">
        <ele>1329.4</ele>
        <time>2015-06-19T11:16:45Z</time>
      </trkpt>
      <trkpt lat="41.81746" lon="9.20832">
        <ele>1328.2</ele>
        <time>2015-06-19T11:16:53Z</time>
      </trkpt>
      <trkpt lat="41.81751" lon="9.20828">
        <ele>1326.4</ele>
        <time>2015-06-19T11:17:04Z</time>
      </trkpt>
      <trkpt lat="41.81752" lon="9.20826">
        <ele>1325.6</ele>
        <time>2015-06-19T11:17:12Z</time>
      </trkpt>
      <trkpt lat="41.81751" lon="9.20823">
        <ele>1324.6</ele>
        <time>2015-06-19T11:17:19Z</time>
      </trkpt>
      <trkpt lat="41.81758" lon="9.20822">
        <ele>1322.6</ele>
        <time>2015-06-19T11:17:33Z</time>
      </trkpt>
      <trkpt lat="41.81762" lon="9.20821">
        <ele>1322</ele>
        <time>2015-06-19T11:17:39Z</time>
      </trkpt>
      <trkpt lat="41.81761" lon="9.20816">
        <ele>1320.4</ele>
        <time>2015-06-19T11:17:46Z</time>
      </trkpt>
      <trkpt lat="41.81764" lon="9.20816">
        <ele>1318.6</ele>
        <time>2015-06-19T11:17:57Z</time>
      </trkpt>
      <trkpt lat="41.81765" lon="9.20812">
        <ele>1317.4</ele>
        <time>2015-06-19T11:18:15Z</time>
      </trkpt>
      <trkpt lat="41.81765" lon="9.20807">
        <ele>1316.8</ele>
        <time>2015-06-19T11:18:19Z</time>
      </trkpt>
      <trkpt lat="41.81769" lon="9.20803">
        <ele>1314.4</ele>
        <time>2015-06-19T11:18:30Z</time>
      </trkpt>
      <trkpt lat="41.8177" lon="9.20801">
        <ele>1313.2</ele>
        <time>2015-06-19T11:18:39Z</time>
      </trkpt>
      <trkpt lat="41.81772" lon="9.20798">
        <ele>1312.4</ele>
        <time>2015-06-19T11:18:45Z</time>
      </trkpt>
      <trkpt lat="41.81774" lon="9.20795">
        <ele>1311</ele>
        <time>2015-06-19T11:18:53Z</time>
      </trkpt>
      <trkpt lat="41.81775" lon="9.20791">
        <ele>1309.4</ele>
        <time>2015-06-19T11:19:02Z</time>
      </trkpt>
      <trkpt lat="41.81777" lon="9.20789">
        <ele>1308.8</ele>
        <time>2015-06-19T11:19:08Z</time>
      </trkpt>
      <trkpt lat="41.81782" lon="9.20789">
        <ele>1308.2</ele>
        <time>2015-06-19T11:19:12Z</time>
      </trkpt>
      <trkpt lat="41.81783" lon="9.20788">
        <ele>1307.4</ele>
        <time>2015-06-19T11:19:14Z</time>
      </trkpt>
      <trkpt lat="41.81785" lon="9.20785">
        <ele>1306.2</ele>
        <time>2015-06-19T11:19:20Z</time>
      </trkpt>
      <trkpt lat="41.81786" lon="9.20785">
        <ele>1305.8</ele>
        <time>2015-06-19T11:19:22Z</time>
      </trkpt>
      <trkpt lat="41.81785" lon="9.20782">
        <ele>1304.8</ele>
        <time>2015-06-19T11:19:26Z</time>
      </trkpt>
      <trkpt lat="41.81787" lon="9.20782">
        <ele>1303.6</ele>
        <time>2015-06-19T11:19:32Z</time>
      </trkpt>
      <trkpt lat="41.81791" lon="9.20781">
        <ele>1302</ele>
        <time>2015-06-19T11:19:39Z</time>
      </trkpt>
      <trkpt lat="41.81795" lon="9.20778">
        <ele>1300.4</ele>
        <time>2015-06-19T11:19:46Z</time>
      </trkpt>
      <trkpt lat="41.81793" lon="9.20773">
        <ele>1298.6</ele>
        <time>2015-06-19T11:19:57Z</time>
      </trkpt>
      <trkpt lat="41.81785" lon="9.20773">
        <ele>1298.2</ele>
        <time>2015-06-19T11:20:13Z</time>
      </trkpt>
      <trkpt lat="41.81786" lon="9.20775">
        <ele>1298</ele>
        <time>2015-06-19T11:20:26Z</time>
      </trkpt>
      <trkpt lat="41.81793" lon="9.20775">
        <ele>1298.2</ele>
        <time>2015-06-19T11:20:40Z</time>
      </trkpt>
      <trkpt lat="41.81793" lon="9.20774">
        <ele>1296.2</ele>
        <time>2015-06-19T11:20:49Z</time>
      </trkpt>
      <trkpt lat="41.81803" lon="9.20811">
        <ele>1297.8</ele>
        <time>2015-06-19T11:52:53Z</time>
      </trkpt>
      <trkpt lat="41.81804" lon="9.20829">
        <ele>1297</ele>
        <time>2015-06-19T11:53:28Z</time>
      </trkpt>
      <trkpt lat="41.81803" lon="9.20835">
        <ele>1296</ele>
        <time>2015-06-19T11:53:38Z</time>
      </trkpt>
      <trkpt lat="41.81804" lon="9.20847">
        <ele>1295.8</ele>
        <time>2015-06-19T11:54:05Z</time>
      </trkpt>
      <trkpt lat="41.81802" lon="9.20851">
        <ele>1297</ele>
        <time>2015-06-19T11:54:13Z</time>
      </trkpt>
      <trkpt lat="41.818" lon="9.20855">
        <ele>1297.8</ele>
        <time>2015-06-19T11:54:22Z</time>
      </trkpt>
      <trkpt lat="41.81799" lon="9.20861">
        <ele>1299</ele>
        <time>2015-06-19T11:54:30Z</time>
      </trkpt>
      <trkpt lat="41.81798" lon="9.20861">
        <ele>1299.8</ele>
        <time>2015-06-19T11:54:37Z</time>
      </trkpt>
      <trkpt lat="41.818" lon="9.20859">
        <ele>1300</ele>
        <time>2015-06-19T11:54:39Z</time>
      </trkpt>
      <trkpt lat="41.81803" lon="9.20856">
        <ele>1301.2</ele>
        <time>2015-06-19T11:54:48Z</time>
      </trkpt>
      <trkpt lat="41.81809" lon="9.20855">
        <ele>1302.6</ele>
        <time>2015-06-19T11:55:06Z</time>
      </trkpt>
      <trkpt lat="41.81813" lon="9.20859">
        <ele>1303.4</ele>
        <time>2015-06-19T11:55:16Z</time>
      </trkpt>
      <trkpt lat="41.81819" lon="9.20868">
        <ele>1304.6</ele>
        <time>2015-06-19T11:55:30Z</time>
      </trkpt>
      <trkpt lat="41.81816" lon="9.20874">
        <ele>1305.2</ele>
        <time>2015-06-19T11:55:36Z</time>
      </trkpt>
      <trkpt lat="41.81813" lon="9.20875">
        <ele>1305.6</ele>
        <time>2015-06-19T11:55:39Z</time>
      </trkpt>
      <trkpt lat="41.81809" lon="9.20875">
        <ele>1307</ele>
        <time>2015-06-19T11:55:49Z</time>
      </trkpt>
      <trkpt lat="41.81808" lon="9.2088">
        <ele>1307.6</ele>
        <time>2015-06-19T11:56:00Z</time>
      </trkpt>
      <trkpt lat="41.81827" lon="9.20889">
        <ele>1309.6</ele>
        <time>2015-06-19T11:56:47Z</time>
      </trkpt>
      <trkpt lat="41.81832" lon="9.20894">
        <ele>1310.2</ele>
        <time>2015-06-19T11:56:54Z</time>
      </trkpt>
      <trkpt lat="41.81835" lon="9.20896">
        <ele>1310.8</ele>
        <time>2015-06-19T11:56:59Z</time>
      </trkpt>
      <trkpt lat="41.81837" lon="9.20904">
        <ele>1312</ele>
        <time>2015-06-19T11:57:15Z</time>
      </trkpt>
      <trkpt lat="41.81845" lon="9.20929">
        <ele>1313.8</ele>
        <time>2015-06-19T11:57:53Z</time>
      </trkpt>
      <trkpt lat="41.81846" lon="9.20935">
        <ele>1314</ele>
        <time>2015-06-19T11:58:00Z</time>
      </trkpt>
      <trkpt lat="41.81858" lon="9.20937">
        <ele>1314.4</ele>
        <time>2015-06-19T11:58:10Z</time>
      </trkpt>
      <trkpt lat="41.81862" lon="9.20939">
        <ele>1314.6</ele>
        <time>2015-06-19T11:58:14Z</time>
      </trkpt>
      <trkpt lat="41.81865" lon="9.20944">
        <ele>1314.6</ele>
        <time>2015-06-19T11:58:20Z</time>
      </trkpt>
      <trkpt lat="41.81865" lon="9.20945">
        <ele>1314.8</ele>
        <time>2015-06-19T11:58:21Z</time>
      </trkpt>
      <trkpt lat="41.81875" lon="9.20954">
        <ele>1315.6</ele>
        <time>2015-06-19T11:58:37Z</time>
      </trkpt>
      <trkpt lat="41.81903" lon="9.20944">
        <ele>1317.2</ele>
        <time>2015-06-19T11:59:59Z</time>
      </trkpt>
      <trkpt lat="41.81904" lon="9.20946">
        <ele>1317.8</ele>
        <time>2015-06-19T12:00:02Z</time>
      </trkpt>
      <trkpt lat="41.81905" lon="9.20948">
        <ele>1317.8</ele>
        <time>2015-06-19T12:00:03Z</time>
      </trkpt>
      <trkpt lat="41.81907" lon="9.20949">
        <ele>1318.2</ele>
        <time>2015-06-19T12:00:06Z</time>
      </trkpt>
      <trkpt lat="41.81931" lon="9.20948">
        <ele>1318.6</ele>
        <time>2015-06-19T12:00:33Z</time>
      </trkpt>
      <trkpt lat="41.81939" lon="9.20947">
        <ele>1320.2</ele>
        <time>2015-06-19T12:00:46Z</time>
      </trkpt>
      <trkpt lat="41.81953" lon="9.20947">
        <ele>1321.2</ele>
        <time>2015-06-19T12:01:01Z</time>
      </trkpt>
      <trkpt lat="41.81969" lon="9.20948">
        <ele>1322.8</ele>
        <time>2015-06-19T12:01:19Z</time>
      </trkpt>
      <trkpt lat="41.81975" lon="9.20945">
        <ele>1323.6</ele>
        <time>2015-06-19T12:01:27Z</time>
      </trkpt>
      <trkpt lat="41.81988" lon="9.20943">
        <ele>1325.6</ele>
        <time>2015-06-19T12:01:42Z</time>
      </trkpt>
      <trkpt lat="41.81995" lon="9.2095">
        <ele>1326.8</ele>
        <time>2015-06-19T12:01:55Z</time>
      </trkpt>
      <trkpt lat="41.82004" lon="9.20951">
        <ele>1328</ele>
        <time>2015-06-19T12:02:06Z</time>
      </trkpt>
      <trkpt lat="41.82018" lon="9.20946">
        <ele>1330.2</ele>
        <time>2015-06-19T12:02:24Z</time>
      </trkpt>
      <trkpt lat="41.82042" lon="9.20946">
        <ele>1330.4</ele>
        <time>2015-06-19T12:02:51Z</time>
      </trkpt>
      <trkpt lat="41.82074" lon="9.20971">
        <ele>1331.6</ele>
        <time>2015-06-19T12:03:32Z</time>
      </trkpt>
      <trkpt lat="41.82081" lon="9.20976">
        <ele>1332.2</ele>
        <time>2015-06-19T12:03:42Z</time>
      </trkpt>
      <trkpt lat="41.82084" lon="9.20977">
        <ele>1332.2</ele>
        <time>2015-06-19T12:03:46Z</time>
      </trkpt>
      <trkpt lat="41.82085" lon="9.20977">
        <ele>1332.8</ele>
        <time>2015-06-19T12:03:49Z</time>
      </trkpt>
      <trkpt lat="41.82088" lon="9.20978">
        <ele>1333.2</ele>
        <time>2015-06-19T12:03:58Z</time>
      </trkpt>
      <trkpt lat="41.82089" lon="9.20978">
        <ele>1332.6</ele>
        <time>2015-06-19T12:04:05Z</time>
      </trkpt>
      <trkpt lat="41.82099" lon="9.20974">
        <ele>1332.6</ele>
        <time>2015-06-19T12:04:26Z</time>
      </trkpt>
      <trkpt lat="41.82114" lon="9.20976">
        <ele>1333.6</ele>
        <time>2015-06-19T12:04:41Z</time>
      </trkpt>
      <trkpt lat="41.82118" lon="9.20976">
        <ele>1333.6</ele>
        <time>2015-06-19T12:04:44Z</time>
      </trkpt>
      <trkpt lat="41.8215" lon="9.20975">
        <ele>1335</ele>
        <time>2015-06-19T12:05:14Z</time>
      </trkpt>
      <trkpt lat="41.82164" lon="9.20978">
        <ele>1337</ele>
        <time>2015-06-19T12:05:35Z</time>
      </trkpt>
      <trkpt lat="41.82176" lon="9.20978">
        <ele>1338.8</ele>
        <time>2015-06-19T12:05:51Z</time>
      </trkpt>
      <trkpt lat="41.82187" lon="9.2098">
        <ele>1340.4</ele>
        <time>2015-06-19T12:06:08Z</time>
      </trkpt>
      <trkpt lat="41.82194" lon="9.20985">
        <ele>1341.4</ele>
        <time>2015-06-19T12:06:18Z</time>
      </trkpt>
      <trkpt lat="41.82195" lon="9.20986">
        <ele>1341.4</ele>
        <time>2015-06-19T12:06:20Z</time>
      </trkpt>
      <trkpt lat="41.82198" lon="9.20989">
        <ele>1341.8</ele>
        <time>2015-06-19T12:06:24Z</time>
      </trkpt>
      <trkpt lat="41.82208" lon="9.20999">
        <ele>1344.2</ele>
        <time>2015-06-19T12:06:47Z</time>
      </trkpt>
      <trkpt lat="41.82225" lon="9.21015">
        <ele>1346.6</ele>
        <time>2015-06-19T12:07:15Z</time>
      </trkpt>
      <trkpt lat="41.82244" lon="9.21028">
        <ele>1348.8</ele>
        <time>2015-06-19T12:07:43Z</time>
      </trkpt>
      <trkpt lat="41.82281" lon="9.2106">
        <ele>1352.4</ele>
        <time>2015-06-19T12:08:39Z</time>
      </trkpt>
      <trkpt lat="41.82302" lon="9.21089">
        <ele>1353.8</ele>
        <time>2015-06-19T12:09:14Z</time>
      </trkpt>
      <trkpt lat="41.82307" lon="9.21097">
        <ele>1353.4</ele>
        <time>2015-06-19T12:09:23Z</time>
      </trkpt>
      <trkpt lat="41.82309" lon="9.21099">
        <ele>1353.4</ele>
        <time>2015-06-19T12:09:26Z</time>
      </trkpt>
      <trkpt lat="41.82313" lon="9.211">
        <ele>1352.8</ele>
        <time>2015-06-19T12:09:31Z</time>
      </trkpt>
      <trkpt lat="41.82316" lon="9.21103">
        <ele>1352.4</ele>
        <time>2015-06-19T12:09:36Z</time>
      </trkpt>
      <trkpt lat="41.82321" lon="9.21107">
        <ele>1351.2</ele>
        <time>2015-06-19T12:09:46Z</time>
      </trkpt>
      <trkpt lat="41.82323" lon="9.21108">
        <ele>1351</ele>
        <time>2015-06-19T12:09:51Z</time>
      </trkpt>
      <trkpt lat="41.82367" lon="9.21094">
        <ele>1352.6</ele>
        <time>2015-06-19T12:11:01Z</time>
      </trkpt>
      <trkpt lat="41.82371" lon="9.21093">
        <ele>1352.6</ele>
        <time>2015-06-19T12:11:07Z</time>
      </trkpt>
      <trkpt lat="41.8238" lon="9.21095">
        <ele>1352.6</ele>
        <time>2015-06-19T12:11:21Z</time>
      </trkpt>
      <trkpt lat="41.82423" lon="9.21108">
        <ele>1355.2</ele>
        <time>2015-06-19T12:12:07Z</time>
      </trkpt>
      <trkpt lat="41.82462" lon="9.21115">
        <ele>1356.4</ele>
        <time>2015-06-19T12:12:50Z</time>
      </trkpt>
      <trkpt lat="41.82496" lon="9.21132">
        <ele>1358</ele>
        <time>2015-06-19T12:13:33Z</time>
      </trkpt>
      <trkpt lat="41.82515" lon="9.21143">
        <ele>1359</ele>
        <time>2015-06-19T12:13:54Z</time>
      </trkpt>
      <trkpt lat="41.82526" lon="9.21143">
        <ele>1359.2</ele>
        <time>2015-06-19T12:13:59Z</time>
      </trkpt>
      <trkpt lat="41.8256" lon="9.21176">
        <ele>1360.2</ele>
        <time>2015-06-19T12:14:43Z</time>
      </trkpt>
      <trkpt lat="41.82568" lon="9.21177">
        <ele>1359.8</ele>
        <time>2015-06-19T12:14:52Z</time>
      </trkpt>
      <trkpt lat="41.82582" lon="9.21177">
        <ele>1360.2</ele>
        <time>2015-06-19T12:15:11Z</time>
      </trkpt>
      <trkpt lat="41.8259" lon="9.21179">
        <ele>1359.6</ele>
        <time>2015-06-19T12:15:23Z</time>
      </trkpt>
      <trkpt lat="41.82598" lon="9.2118">
        <ele>1359.4</ele>
        <time>2015-06-19T12:15:33Z</time>
      </trkpt>
      <trkpt lat="41.826" lon="9.21181">
        <ele>1359.2</ele>
        <time>2015-06-19T12:15:35Z</time>
      </trkpt>
      <trkpt lat="41.82617" lon="9.2119">
        <ele>1358.6</ele>
        <time>2015-06-19T12:15:50Z</time>
      </trkpt>
      <trkpt lat="41.82653" lon="9.21225">
        <ele>1359</ele>
        <time>2015-06-19T12:16:36Z</time>
      </trkpt>
      <trkpt lat="41.82664" lon="9.21265">
        <ele>1359.8</ele>
        <time>2015-06-19T12:17:08Z</time>
      </trkpt>
      <trkpt lat="41.82668" lon="9.21269">
        <ele>1359.8</ele>
        <time>2015-06-19T12:17:13Z</time>
      </trkpt>
      <trkpt lat="41.82677" lon="9.21278">
        <ele>1360.4</ele>
        <time>2015-06-19T12:17:26Z</time>
      </trkpt>
      <trkpt lat="41.82677" lon="9.2128">
        <ele>1360.6</ele>
        <time>2015-06-19T12:17:28Z</time>
      </trkpt>
      <trkpt lat="41.8268" lon="9.21283">
        <ele>1361</ele>
        <time>2015-06-19T12:17:32Z</time>
      </trkpt>
      <trkpt lat="41.82682" lon="9.21284">
        <ele>1361.2</ele>
        <time>2015-06-19T12:17:35Z</time>
      </trkpt>
      <trkpt lat="41.82706" lon="9.2129">
        <ele>1362.8</ele>
        <time>2015-06-19T12:18:17Z</time>
      </trkpt>
      <trkpt lat="41.82729" lon="9.21295">
        <ele>1364.4</ele>
        <time>2015-06-19T12:19:09Z</time>
      </trkpt>
      <trkpt lat="41.8273" lon="9.21292">
        <ele>1364.2</ele>
        <time>2015-06-19T12:19:14Z</time>
      </trkpt>
      <trkpt lat="41.82731" lon="9.2129">
        <ele>1363.6</ele>
        <time>2015-06-19T12:19:18Z</time>
      </trkpt>
      <trkpt lat="41.82732" lon="9.21287">
        <ele>1362.2</ele>
        <time>2015-06-19T12:19:22Z</time>
      </trkpt>
      <trkpt lat="41.82734" lon="9.21285">
        <ele>1361.4</ele>
        <time>2015-06-19T12:19:27Z</time>
      </trkpt>
      <trkpt lat="41.82734" lon="9.21283">
        <ele>1360</ele>
        <time>2015-06-19T12:19:34Z</time>
      </trkpt>
      <trkpt lat="41.82735" lon="9.2128">
        <ele>1359.4</ele>
        <time>2015-06-19T12:19:39Z</time>
      </trkpt>
      <trkpt lat="41.82734" lon="9.21279">
        <ele>1358.8</ele>
        <time>2015-06-19T12:19:43Z</time>
      </trkpt>
      <trkpt lat="41.82732" lon="9.21276">
        <ele>1356.8</ele>
        <time>2015-06-19T12:19:51Z</time>
      </trkpt>
      <trkpt lat="41.82735" lon="9.21274">
        <ele>1356.4</ele>
        <time>2015-06-19T12:19:56Z</time>
      </trkpt>
      <trkpt lat="41.82738" lon="9.2127">
        <ele>1355.2</ele>
        <time>2015-06-19T12:20:04Z</time>
      </trkpt>
      <trkpt lat="41.82739" lon="9.21268">
        <ele>1354.4</ele>
        <time>2015-06-19T12:20:11Z</time>
      </trkpt>
      <trkpt lat="41.8274" lon="9.21265">
        <ele>1353.2</ele>
        <time>2015-06-19T12:20:23Z</time>
      </trkpt>
      <trkpt lat="41.8274" lon="9.21264">
        <ele>1353</ele>
        <time>2015-06-19T12:20:27Z</time>
      </trkpt>
      <trkpt lat="41.82744" lon="9.2126">
        <ele>1351.4</ele>
        <time>2015-06-19T12:20:34Z</time>
      </trkpt>
      <trkpt lat="41.82743" lon="9.21259">
        <ele>1351</ele>
        <time>2015-06-19T12:20:36Z</time>
      </trkpt>
      <trkpt lat="41.82743" lon="9.21257">
        <ele>1351</ele>
        <time>2015-06-19T12:20:40Z</time>
      </trkpt>
      <trkpt lat="41.82744" lon="9.21255">
        <ele>1350.2</ele>
        <time>2015-06-19T12:20:45Z</time>
      </trkpt>
      <trkpt lat="41.82744" lon="9.21253">
        <ele>1348.8</ele>
        <time>2015-06-19T12:20:51Z</time>
      </trkpt>
      <trkpt lat="41.82745" lon="9.2125">
        <ele>1348</ele>
        <time>2015-06-19T12:20:57Z</time>
      </trkpt>
      <trkpt lat="41.82747" lon="9.21247">
        <ele>1347.2</ele>
        <time>2015-06-19T12:21:02Z</time>
      </trkpt>
      <trkpt lat="41.8275" lon="9.21245">
        <ele>1346.2</ele>
        <time>2015-06-19T12:21:07Z</time>
      </trkpt>
      <trkpt lat="41.82751" lon="9.21242">
        <ele>1344.6</ele>
        <time>2015-06-19T12:21:15Z</time>
      </trkpt>
      <trkpt lat="41.82754" lon="9.21241">
        <ele>1344.2</ele>
        <time>2015-06-19T12:21:20Z</time>
      </trkpt>
      <trkpt lat="41.82755" lon="9.21242">
        <ele>1342.8</ele>
        <time>2015-06-19T12:21:27Z</time>
      </trkpt>
      <trkpt lat="41.82753" lon="9.21241">
        <ele>1342.2</ele>
        <time>2015-06-19T12:21:32Z</time>
      </trkpt>
      <trkpt lat="41.82756" lon="9.21231">
        <ele>1340.6</ele>
        <time>2015-06-19T12:21:46Z</time>
      </trkpt>
      <trkpt lat="41.82758" lon="9.21227">
        <ele>1340.4</ele>
        <time>2015-06-19T12:21:51Z</time>
      </trkpt>
      <trkpt lat="41.82758" lon="9.21224">
        <ele>1340</ele>
        <time>2015-06-19T12:21:55Z</time>
      </trkpt>
      <trkpt lat="41.82758" lon="9.2122">
        <ele>1339.2</ele>
        <time>2015-06-19T12:22:01Z</time>
      </trkpt>
      <trkpt lat="41.8276" lon="9.2122">
        <ele>1338.6</ele>
        <time>2015-06-19T12:22:06Z</time>
      </trkpt>
      <trkpt lat="41.82764" lon="9.21221">
        <ele>1337.6</ele>
        <time>2015-06-19T12:22:12Z</time>
      </trkpt>
      <trkpt lat="41.82788" lon="9.21213">
        <ele>1336.2</ele>
        <time>2015-06-19T12:22:38Z</time>
      </trkpt>
      <trkpt lat="41.82797" lon="9.21208">
        <ele>1335</ele>
        <time>2015-06-19T12:22:48Z</time>
      </trkpt>
      <trkpt lat="41.82799" lon="9.21205">
        <ele>1334.6</ele>
        <time>2015-06-19T12:22:57Z</time>
      </trkpt>
      <trkpt lat="41.82803" lon="9.21195">
        <ele>1333.2</ele>
        <time>2015-06-19T12:23:09Z</time>
      </trkpt>
      <trkpt lat="41.82803" lon="9.21192">
        <ele>1332.6</ele>
        <time>2015-06-19T12:23:16Z</time>
      </trkpt>
      <trkpt lat="41.8281" lon="9.21185">
        <ele>1331.6</ele>
        <time>2015-06-19T12:23:28Z</time>
      </trkpt>
      <trkpt lat="41.8282" lon="9.21179">
        <ele>1330.6</ele>
        <time>2015-06-19T12:23:41Z</time>
      </trkpt>
      <trkpt lat="41.82839" lon="9.21186">
        <ele>1329.6</ele>
        <time>2015-06-19T12:24:11Z</time>
      </trkpt>
      <trkpt lat="41.82841" lon="9.21186">
        <ele>1329.4</ele>
        <time>2015-06-19T12:24:16Z</time>
      </trkpt>
      <trkpt lat="41.82844" lon="9.21187">
        <ele>1328.4</ele>
        <time>2015-06-19T12:24:22Z</time>
      </trkpt>
      <trkpt lat="41.82857" lon="9.21188">
        <ele>1327.2</ele>
        <time>2015-06-19T12:24:38Z</time>
      </trkpt>
      <trkpt lat="41.82862" lon="9.21188">
        <ele>1327</ele>
        <time>2015-06-19T12:24:43Z</time>
      </trkpt>
      <trkpt lat="41.82862" lon="9.21188">
        <ele>1326.4</ele>
        <time>2015-06-19T12:24:45Z</time>
      </trkpt>
      <trkpt lat="41.82863" lon="9.21187">
        <ele>1326.4</ele>
        <time>2015-06-19T12:24:46Z</time>
      </trkpt>
      <trkpt lat="41.82872" lon="9.21191">
        <ele>1325.2</ele>
        <time>2015-06-19T12:25:01Z</time>
      </trkpt>
      <trkpt lat="41.82874" lon="9.21191">
        <ele>1325.2</ele>
        <time>2015-06-19T12:25:03Z</time>
      </trkpt>
      <trkpt lat="41.82875" lon="9.21191">
        <ele>1325.2</ele>
        <time>2015-06-19T12:25:04Z</time>
      </trkpt>
      <trkpt lat="41.82876" lon="9.21191">
        <ele>1325.2</ele>
        <time>2015-06-19T12:25:05Z</time>
      </trkpt>
      <trkpt lat="41.82877" lon="9.21192">
        <ele>1325.2</ele>
        <time>2015-06-19T12:25:07Z</time>
      </trkpt>
      <trkpt lat="41.82887" lon="9.21195">
        <ele>1324.8</ele>
        <time>2015-06-19T12:25:18Z</time>
      </trkpt>
      <trkpt lat="41.82892" lon="9.21195">
        <ele>1324.8</ele>
        <time>2015-06-19T12:25:21Z</time>
      </trkpt>
      <trkpt lat="41.82895" lon="9.21196">
        <ele>1324.8</ele>
        <time>2015-06-19T12:25:23Z</time>
      </trkpt>
      <trkpt lat="41.82897" lon="9.21196">
        <ele>1324.8</ele>
        <time>2015-06-19T12:25:24Z</time>
      </trkpt>
      <trkpt lat="41.829" lon="9.21198">
        <ele>1324.4</ele>
        <time>2015-06-19T12:25:29Z</time>
      </trkpt>
      <trkpt lat="41.82907" lon="9.21199">
        <ele>1322.6</ele>
        <time>2015-06-19T12:25:38Z</time>
      </trkpt>
      <trkpt lat="41.82906" lon="9.21202">
        <ele>1322</ele>
        <time>2015-06-19T12:25:50Z</time>
      </trkpt>
      <trkpt lat="41.82909" lon="9.21205">
        <ele>1321.6</ele>
        <time>2015-06-19T12:25:55Z</time>
      </trkpt>
      <trkpt lat="41.82913" lon="9.21207">
        <ele>1320.2</ele>
        <time>2015-06-19T12:26:02Z</time>
      </trkpt>
      <trkpt lat="41.82916" lon="9.21207">
        <ele>1319.4</ele>
        <time>2015-06-19T12:26:09Z</time>
      </trkpt>
      <trkpt lat="41.82917" lon="9.21207">
        <ele>1318.6</ele>
        <time>2015-06-19T12:26:13Z</time>
      </trkpt>
      <trkpt lat="41.82918" lon="9.2121">
        <ele>1317.8</ele>
        <time>2015-06-19T12:26:18Z</time>
      </trkpt>
      <trkpt lat="41.82922" lon="9.21212">
        <ele>1316.6</ele>
        <time>2015-06-19T12:26:23Z</time>
      </trkpt>
      <trkpt lat="41.82926" lon="9.21215">
        <ele>1315.2</ele>
        <time>2015-06-19T12:26:33Z</time>
      </trkpt>
      <trkpt lat="41.82928" lon="9.21217">
        <ele>1314.4</ele>
        <time>2015-06-19T12:26:39Z</time>
      </trkpt>
      <trkpt lat="41.8293" lon="9.21218">
        <ele>1313.4</ele>
        <time>2015-06-19T12:26:48Z</time>
      </trkpt>
      <trkpt lat="41.82934" lon="9.21219">
        <ele>1312.2</ele>
        <time>2015-06-19T12:26:55Z</time>
      </trkpt>
      <trkpt lat="41.82936" lon="9.21223">
        <ele>1311.4</ele>
        <time>2015-06-19T12:27:03Z</time>
      </trkpt>
      <trkpt lat="41.82942" lon="9.21228">
        <ele>1311.2</ele>
        <time>2015-06-19T12:27:07Z</time>
      </trkpt>
      <trkpt lat="41.82946" lon="9.2123">
        <ele>1310.4</ele>
        <time>2015-06-19T12:27:11Z</time>
      </trkpt>
      <trkpt lat="41.82951" lon="9.21231">
        <ele>1310</ele>
        <time>2015-06-19T12:27:16Z</time>
      </trkpt>
      <trkpt lat="41.82953" lon="9.2123">
        <ele>1310</ele>
        <time>2015-06-19T12:27:17Z</time>
      </trkpt>
      <trkpt lat="41.82954" lon="9.2123">
        <ele>1310</ele>
        <time>2015-06-19T12:27:18Z</time>
      </trkpt>
      <trkpt lat="41.82956" lon="9.2123">
        <ele>1310</ele>
        <time>2015-06-19T12:27:20Z</time>
      </trkpt>
      <trkpt lat="41.82961" lon="9.21229">
        <ele>1310</ele>
        <time>2015-06-19T12:27:24Z</time>
      </trkpt>
      <trkpt lat="41.82963" lon="9.21229">
        <ele>1310</ele>
        <time>2015-06-19T12:27:26Z</time>
      </trkpt>
      <trkpt lat="41.82969" lon="9.21231">
        <ele>1309.6</ele>
        <time>2015-06-19T12:27:33Z</time>
      </trkpt>
      <trkpt lat="41.82975" lon="9.21241">
        <ele>1309.6</ele>
        <time>2015-06-19T12:27:44Z</time>
      </trkpt>
      <trkpt lat="41.82976" lon="9.21242">
        <ele>1309.8</ele>
        <time>2015-06-19T12:28:05Z</time>
      </trkpt>
      <trkpt lat="41.82986" lon="9.21234">
        <ele>1309.6</ele>
        <time>2015-06-19T12:29:01Z</time>
      </trkpt>
      <trkpt lat="41.82985" lon="9.21234">
        <ele>1310.2</ele>
        <time>2015-06-19T12:29:06Z</time>
      </trkpt>
      <trkpt lat="41.82984" lon="9.2124">
        <ele>1311.4</ele>
        <time>2015-06-19T12:29:14Z</time>
      </trkpt>
      <trkpt lat="41.82984" lon="9.21237">
        <ele>1313</ele>
        <time>2015-06-19T12:29:27Z</time>
      </trkpt>
      <trkpt lat="41.83004" lon="9.21239">
        <ele>1315.2</ele>
        <time>2015-06-19T12:30:09Z</time>
      </trkpt>
      <trkpt lat="41.83006" lon="9.21239">
        <ele>1316</ele>
        <time>2015-06-19T12:30:19Z</time>
      </trkpt>
      <trkpt lat="41.83014" lon="9.21235">
        <ele>1317</ele>
        <time>2015-06-19T12:30:27Z</time>
      </trkpt>
      <trkpt lat="41.83021" lon="9.21238">
        <ele>1318.6</ele>
        <time>2015-06-19T12:30:40Z</time>
      </trkpt>
      <trkpt lat="41.83029" lon="9.21237">
        <ele>1320.2</ele>
        <time>2015-06-19T12:30:58Z</time>
      </trkpt>
      <trkpt lat="41.83031" lon="9.21237">
        <ele>1321.2</ele>
        <time>2015-06-19T12:31:09Z</time>
      </trkpt>
      <trkpt lat="41.83033" lon="9.21236">
        <ele>1321.8</ele>
        <time>2015-06-19T12:31:13Z</time>
      </trkpt>
      <trkpt lat="41.8307" lon="9.2125">
        <ele>1322.8</ele>
        <time>2015-06-19T12:31:51Z</time>
      </trkpt>
      <trkpt lat="41.83099" lon="9.21264">
        <ele>1323</ele>
        <time>2015-06-19T12:32:25Z</time>
      </trkpt>
      <trkpt lat="41.831" lon="9.21265">
        <ele>1323</ele>
        <time>2015-06-19T12:32:27Z</time>
      </trkpt>
      <trkpt lat="41.83115" lon="9.21284">
        <ele>1322.4</ele>
        <time>2015-06-19T12:32:49Z</time>
      </trkpt>
      <trkpt lat="41.83118" lon="9.2129">
        <ele>1322.2</ele>
        <time>2015-06-19T12:32:56Z</time>
      </trkpt>
      <trkpt lat="41.83123" lon="9.21297">
        <ele>1320.8</ele>
        <time>2015-06-19T12:33:05Z</time>
      </trkpt>
      <trkpt lat="41.83123" lon="9.21299">
        <ele>1320.8</ele>
        <time>2015-06-19T12:33:07Z</time>
      </trkpt>
      <trkpt lat="41.83122" lon="9.21302">
        <ele>1320.6</ele>
        <time>2015-06-19T12:33:11Z</time>
      </trkpt>
      <trkpt lat="41.83119" lon="9.21309">
        <ele>1319.2</ele>
        <time>2015-06-19T12:33:19Z</time>
      </trkpt>
      <trkpt lat="41.83119" lon="9.21318">
        <ele>1317.8</ele>
        <time>2015-06-19T12:33:29Z</time>
      </trkpt>
      <trkpt lat="41.83118" lon="9.2132">
        <ele>1317.8</ele>
        <time>2015-06-19T12:33:31Z</time>
      </trkpt>
      <trkpt lat="41.83121" lon="9.2132">
        <ele>1317.8</ele>
        <time>2015-06-19T12:33:33Z</time>
      </trkpt>
      <trkpt lat="41.83123" lon="9.2132">
        <ele>1317.8</ele>
        <time>2015-06-19T12:33:36Z</time>
      </trkpt>
      <trkpt lat="41.83142" lon="9.21322">
        <ele>1318</ele>
        <time>2015-06-19T12:34:09Z</time>
      </trkpt>
      <trkpt lat="41.83155" lon="9.21318">
        <ele>1316.6</ele>
        <time>2015-06-19T12:34:30Z</time>
      </trkpt>
      <trkpt lat="41.83155" lon="9.21319">
        <ele>1316.6</ele>
        <time>2015-06-19T12:34:35Z</time>
      </trkpt>
      <trkpt lat="41.83159" lon="9.21319">
        <ele>1315.4</ele>
        <time>2015-06-19T12:34:41Z</time>
      </trkpt>
      <trkpt lat="41.83162" lon="9.21318">
        <ele>1314.4</ele>
        <time>2015-06-19T12:34:49Z</time>
      </trkpt>
      <trkpt lat="41.83167" lon="9.21316">
        <ele>1313.2</ele>
        <time>2015-06-19T12:35:02Z</time>
      </trkpt>
      <trkpt lat="41.83167" lon="9.21316">
        <ele>1312</ele>
        <time>2015-06-19T12:35:16Z</time>
      </trkpt>
      <trkpt lat="41.83164" lon="9.21319">
        <ele>1312</ele>
        <time>2015-06-19T12:35:38Z</time>
      </trkpt>
      <trkpt lat="41.83171" lon="9.21323">
        <ele>1310.6</ele>
        <time>2015-06-19T12:35:53Z</time>
      </trkpt>
      <trkpt lat="41.83176" lon="9.21323">
        <ele>1310.2</ele>
        <time>2015-06-19T12:35:58Z</time>
      </trkpt>
      <trkpt lat="41.8318" lon="9.21324">
        <ele>1310</ele>
        <time>2015-06-19T12:36:02Z</time>
      </trkpt>
      <trkpt lat="41.83182" lon="9.21326">
        <ele>1309.8</ele>
        <time>2015-06-19T12:36:04Z</time>
      </trkpt>
      <trkpt lat="41.83188" lon="9.21323">
        <ele>1310</ele>
        <time>2015-06-19T12:36:23Z</time>
      </trkpt>
      <trkpt lat="41.8319" lon="9.21322">
        <ele>1308.8</ele>
        <time>2015-06-19T12:36:32Z</time>
      </trkpt>
      <trkpt lat="41.83185" lon="9.21329">
        <ele>1308</ele>
        <time>2015-06-19T12:36:49Z</time>
      </trkpt>
      <trkpt lat="41.83187" lon="9.21328">
        <ele>1307.8</ele>
        <time>2015-06-19T12:36:51Z</time>
      </trkpt>
      <trkpt lat="41.83187" lon="9.21328">
        <ele>1307.6</ele>
        <time>2015-06-19T12:36:57Z</time>
      </trkpt>
      <trkpt lat="41.83194" lon="9.21325">
        <ele>1306.6</ele>
        <time>2015-06-19T12:37:05Z</time>
      </trkpt>
      <trkpt lat="41.83196" lon="9.21324">
        <ele>1306.4</ele>
        <time>2015-06-19T12:37:07Z</time>
      </trkpt>
      <trkpt lat="41.832" lon="9.21324">
        <ele>1306</ele>
        <time>2015-06-19T12:37:11Z</time>
      </trkpt>
      <trkpt lat="41.83203" lon="9.21321">
        <ele>1305.2</ele>
        <time>2015-06-19T12:37:18Z</time>
      </trkpt>
      <trkpt lat="41.83212" lon="9.21326">
        <ele>1304.6</ele>
        <time>2015-06-19T12:37:46Z</time>
      </trkpt>
      <trkpt lat="41.83212" lon="9.21325">
        <ele>1303.6</ele>
        <time>2015-06-19T12:37:54Z</time>
      </trkpt>
      <trkpt lat="41.83216" lon="9.21328">
        <ele>1302.8</ele>
        <time>2015-06-19T12:38:02Z</time>
      </trkpt>
      <trkpt lat="41.83218" lon="9.2133">
        <ele>1302</ele>
        <time>2015-06-19T12:38:08Z</time>
      </trkpt>
      <trkpt lat="41.83226" lon="9.21328">
        <ele>1301</ele>
        <time>2015-06-19T12:38:14Z</time>
      </trkpt>
      <trkpt lat="41.8323" lon="9.21327">
        <ele>1300.6</ele>
        <time>2015-06-19T12:38:19Z</time>
      </trkpt>
      <trkpt lat="41.83235" lon="9.21338">
        <ele>1299.8</ele>
        <time>2015-06-19T12:38:37Z</time>
      </trkpt>
      <trkpt lat="41.8324" lon="9.21349">
        <ele>1300.4</ele>
        <time>2015-06-19T12:38:54Z</time>
      </trkpt>
      <trkpt lat="41.83238" lon="9.21352">
        <ele>1300.6</ele>
        <time>2015-06-19T12:38:56Z</time>
      </trkpt>
      <trkpt lat="41.8324" lon="9.21355">
        <ele>1301.4</ele>
        <time>2015-06-19T12:39:02Z</time>
      </trkpt>
      <trkpt lat="41.83244" lon="9.21362">
        <ele>1302.6</ele>
        <time>2015-06-19T12:39:12Z</time>
      </trkpt>
      <trkpt lat="41.83245" lon="9.21363">
        <ele>1302.6</ele>
        <time>2015-06-19T12:39:13Z</time>
      </trkpt>
      <trkpt lat="41.83246" lon="9.21368">
        <ele>1303.4</ele>
        <time>2015-06-19T12:39:18Z</time>
      </trkpt>
      <trkpt lat="41.83248" lon="9.21372">
        <ele>1303.8</ele>
        <time>2015-06-19T12:39:21Z</time>
      </trkpt>
      <trkpt lat="41.8325" lon="9.21377">
        <ele>1304.8</ele>
        <time>2015-06-19T12:39:28Z</time>
      </trkpt>
      <trkpt lat="41.8325" lon="9.21382">
        <ele>1305.2</ele>
        <time>2015-06-19T12:39:34Z</time>
      </trkpt>
      <trkpt lat="41.83258" lon="9.2139">
        <ele>1306.4</ele>
        <time>2015-06-19T12:39:48Z</time>
      </trkpt>
      <trkpt lat="41.8326" lon="9.2139">
        <ele>1306.4</ele>
        <time>2015-06-19T12:39:50Z</time>
      </trkpt>
      <trkpt lat="41.83262" lon="9.2139">
        <ele>1306.6</ele>
        <time>2015-06-19T12:39:52Z</time>
      </trkpt>
      <trkpt lat="41.83264" lon="9.2139">
        <ele>1307</ele>
        <time>2015-06-19T12:39:54Z</time>
      </trkpt>
      <trkpt lat="41.83268" lon="9.21392">
        <ele>1307.4</ele>
        <time>2015-06-19T12:39:59Z</time>
      </trkpt>
      <trkpt lat="41.83276" lon="9.214">
        <ele>1307.4</ele>
        <time>2015-06-19T12:40:20Z</time>
      </trkpt>
      <trkpt lat="41.83276" lon="9.214">
        <ele>1307.6</ele>
        <time>2015-06-19T12:40:21Z</time>
      </trkpt>
      <trkpt lat="41.83277" lon="9.214">
        <ele>1307.8</ele>
        <time>2015-06-19T12:40:23Z</time>
      </trkpt>
      <trkpt lat="41.83284" lon="9.21402">
        <ele>1308.6</ele>
        <time>2015-06-19T12:40:32Z</time>
      </trkpt>
      <trkpt lat="41.83285" lon="9.21402">
        <ele>1308.6</ele>
        <time>2015-06-19T12:40:33Z</time>
      </trkpt>
      <trkpt lat="41.83289" lon="9.21401">
        <ele>1309</ele>
        <time>2015-06-19T12:40:36Z</time>
      </trkpt>
      <trkpt lat="41.83292" lon="9.21404">
        <ele>1309.2</ele>
        <time>2015-06-19T12:40:41Z</time>
      </trkpt>
      <trkpt lat="41.83292" lon="9.21406">
        <ele>1309.4</ele>
        <time>2015-06-19T12:40:43Z</time>
      </trkpt>
      <trkpt lat="41.83293" lon="9.21413">
        <ele>1310.6</ele>
        <time>2015-06-19T12:40:52Z</time>
      </trkpt>
      <trkpt lat="41.83294" lon="9.21416">
        <ele>1311.2</ele>
        <time>2015-06-19T12:40:56Z</time>
      </trkpt>
      <trkpt lat="41.83313" lon="9.21419">
        <ele>1311.6</ele>
        <time>2015-06-19T12:41:17Z</time>
      </trkpt>
      <trkpt lat="41.83326" lon="9.21424">
        <ele>1311.6</ele>
        <time>2015-06-19T12:41:37Z</time>
      </trkpt>
      <trkpt lat="41.83344" lon="9.21428">
        <ele>1311.4</ele>
        <time>2015-06-19T12:42:03Z</time>
      </trkpt>
      <trkpt lat="41.83349" lon="9.21428">
        <ele>1311</ele>
        <time>2015-06-19T12:42:08Z</time>
      </trkpt>
      <trkpt lat="41.83348" lon="9.21431">
        <ele>1311</ele>
        <time>2015-06-19T12:42:11Z</time>
      </trkpt>
      <trkpt lat="41.8335" lon="9.21434">
        <ele>1311</ele>
        <time>2015-06-19T12:42:14Z</time>
      </trkpt>
      <trkpt lat="41.8335" lon="9.21435">
        <ele>1311.2</ele>
        <time>2015-06-19T12:42:16Z</time>
      </trkpt>
      <trkpt lat="41.83357" lon="9.21443">
        <ele>1313</ele>
        <time>2015-06-19T12:42:29Z</time>
      </trkpt>
      <trkpt lat="41.83363" lon="9.21446">
        <ele>1314.2</ele>
        <time>2015-06-19T12:42:55Z</time>
      </trkpt>
      <trkpt lat="41.83376" lon="9.21452">
        <ele>1315.2</ele>
        <time>2015-06-19T12:43:15Z</time>
      </trkpt>
      <trkpt lat="41.83383" lon="9.21456">
        <ele>1315.4</ele>
        <time>2015-06-19T12:43:29Z</time>
      </trkpt>
      <trkpt lat="41.83387" lon="9.21458">
        <ele>1316.8</ele>
        <time>2015-06-19T12:43:41Z</time>
      </trkpt>
      <trkpt lat="41.83417" lon="9.21453">
        <ele>1317.2</ele>
        <time>2015-06-19T12:44:42Z</time>
      </trkpt>
      <trkpt lat="41.83428" lon="9.21459">
        <ele>1316.4</ele>
        <time>2015-06-19T12:45:12Z</time>
      </trkpt>
      <trkpt lat="41.83458" lon="9.21446">
        <ele>1316.2</ele>
        <time>2015-06-19T12:46:05Z</time>
      </trkpt>
      <trkpt lat="41.83475" lon="9.21438">
        <ele>1315.6</ele>
        <time>2015-06-19T12:46:58Z</time>
      </trkpt>
      <trkpt lat="41.83472" lon="9.21443">
        <ele>1315.6</ele>
        <time>2015-06-19T12:47:06Z</time>
      </trkpt>
      <trkpt lat="41.8347" lon="9.21444">
        <ele>1315.8</ele>
        <time>2015-06-19T12:47:08Z</time>
      </trkpt>
      <trkpt lat="41.8347" lon="9.21445">
        <ele>1316</ele>
        <time>2015-06-19T12:47:10Z</time>
      </trkpt>
      <trkpt lat="41.83485" lon="9.21436">
        <ele>1317.2</ele>
        <time>2015-06-19T12:48:07Z</time>
      </trkpt>
      <trkpt lat="41.83487" lon="9.21443">
        <ele>1319</ele>
        <time>2015-06-19T12:48:41Z</time>
      </trkpt>
      <trkpt lat="41.83491" lon="9.21443">
        <ele>1320.4</ele>
        <time>2015-06-19T12:48:50Z</time>
      </trkpt>
      <trkpt lat="41.83496" lon="9.21449">
        <ele>1321</ele>
        <time>2015-06-19T12:49:08Z</time>
      </trkpt>
      <trkpt lat="41.83501" lon="9.21448">
        <ele>1321.8</ele>
        <time>2015-06-19T12:49:19Z</time>
      </trkpt>
      <trkpt lat="41.83494" lon="9.21446">
        <ele>1322.6</ele>
        <time>2015-06-19T12:49:50Z</time>
      </trkpt>
      <trkpt lat="41.83494" lon="9.21445">
        <ele>1322.6</ele>
        <time>2015-06-19T12:49:52Z</time>
      </trkpt>
      <trkpt lat="41.83493" lon="9.21445">
        <ele>1322.4</ele>
        <time>2015-06-19T12:49:54Z</time>
      </trkpt>
      <trkpt lat="41.83489" lon="9.21444">
        <ele>1321</ele>
        <time>2015-06-19T12:50:06Z</time>
      </trkpt>
      <trkpt lat="41.83485" lon="9.21438">
        <ele>1320.6</ele>
        <time>2015-06-19T12:50:25Z</time>
      </trkpt>
      <trkpt lat="41.83488" lon="9.21432">
        <ele>1319.4</ele>
        <time>2015-06-19T12:50:35Z</time>
      </trkpt>
      <trkpt lat="41.83491" lon="9.21428">
        <ele>1318.6</ele>
        <time>2015-06-19T12:50:44Z</time>
      </trkpt>
      <trkpt lat="41.83491" lon="9.21423">
        <ele>1317.8</ele>
        <time>2015-06-19T12:50:50Z</time>
      </trkpt>
      <trkpt lat="41.83485" lon="9.21424">
        <ele>1317</ele>
        <time>2015-06-19T12:51:15Z</time>
      </trkpt>
      <trkpt lat="41.83482" lon="9.21426">
        <ele>1317</ele>
        <time>2015-06-19T12:51:17Z</time>
      </trkpt>
      <trkpt lat="41.83482" lon="9.21426">
        <ele>1316.8</ele>
        <time>2015-06-19T12:51:19Z</time>
      </trkpt>
      <trkpt lat="41.83478" lon="9.21434">
        <ele>1317</ele>
        <time>2015-06-19T12:51:29Z</time>
      </trkpt>
      <trkpt lat="41.8348" lon="9.21435">
        <ele>1317</ele>
        <time>2015-06-19T12:51:31Z</time>
      </trkpt>
      <trkpt lat="41.83483" lon="9.21441">
        <ele>1318</ele>
        <time>2015-06-19T12:52:09Z</time>
      </trkpt>
      <trkpt lat="41.83483" lon="9.21442">
        <ele>1318.6</ele>
        <time>2015-06-19T12:52:16Z</time>
      </trkpt>
      <trkpt lat="41.83483" lon="9.21442">
        <ele>1319</ele>
        <time>2015-06-19T12:52:19Z</time>
      </trkpt>
      <trkpt lat="41.8348" lon="9.21444">
        <ele>1319.4</ele>
        <time>2015-06-19T12:53:20Z</time>
      </trkpt>
      <trkpt lat="41.83482" lon="9.21437">
        <ele>1319.4</ele>
        <time>2015-06-19T12:54:24Z</time>
      </trkpt>
      <trkpt lat="41.8348" lon="9.21437">
        <ele>1318.8</ele>
        <time>2015-06-19T12:54:29Z</time>
      </trkpt>
      <trkpt lat="41.83483" lon="9.21432">
        <ele>1317.2</ele>
        <time>2015-06-19T12:54:51Z</time>
      </trkpt>
      <trkpt lat="41.83475" lon="9.21429">
        <ele>1316.2</ele>
        <time>2015-06-19T12:55:11Z</time>
      </trkpt>
      <trkpt lat="41.8347" lon="9.21426">
        <ele>1316.8</ele>
        <time>2015-06-19T12:56:01Z</time>
      </trkpt>
      <trkpt lat="41.83462" lon="9.21426">
        <ele>1317.4</ele>
        <time>2015-06-19T12:56:08Z</time>
      </trkpt>
      <trkpt lat="41.83462" lon="9.21423">
        <ele>1317.6</ele>
        <time>2015-06-19T12:56:11Z</time>
      </trkpt>
      <trkpt lat="41.83462" lon="9.21422">
        <ele>1317.8</ele>
        <time>2015-06-19T12:56:12Z</time>
      </trkpt>
      <trkpt lat="41.8346" lon="9.2142">
        <ele>1318</ele>
        <time>2015-06-19T12:56:15Z</time>
      </trkpt>
      <trkpt lat="41.83459" lon="9.2142">
        <ele>1318.4</ele>
        <time>2015-06-19T12:56:17Z</time>
      </trkpt>
      <trkpt lat="41.83458" lon="9.21419">
        <ele>1318.4</ele>
        <time>2015-06-19T12:56:18Z</time>
      </trkpt>
      <trkpt lat="41.8345" lon="9.21416">
        <ele>1320.4</ele>
        <time>2015-06-19T12:56:29Z</time>
      </trkpt>
      <trkpt lat="41.83451" lon="9.21408">
        <ele>1321</ele>
        <time>2015-06-19T12:56:36Z</time>
      </trkpt>
      <trkpt lat="41.83452" lon="9.21405">
        <ele>1321</ele>
        <time>2015-06-19T12:56:38Z</time>
      </trkpt>
      <trkpt lat="41.83456" lon="9.21383">
        <ele>1321.4</ele>
        <time>2015-06-19T12:56:53Z</time>
      </trkpt>
      <trkpt lat="41.83458" lon="9.21378">
        <ele>1321</ele>
        <time>2015-06-19T12:56:57Z</time>
      </trkpt>
      <trkpt lat="41.8346" lon="9.21366">
        <ele>1320.6</ele>
        <time>2015-06-19T12:57:06Z</time>
      </trkpt>
      <trkpt lat="41.83463" lon="9.21349">
        <ele>1320.4</ele>
        <time>2015-06-19T12:57:21Z</time>
      </trkpt>
      <trkpt lat="41.83477" lon="9.21338">
        <ele>1320.4</ele>
        <time>2015-06-19T12:57:45Z</time>
      </trkpt>
      <trkpt lat="41.83472" lon="9.21339">
        <ele>1321.2</ele>
        <time>2015-06-19T12:57:52Z</time>
      </trkpt>
      <trkpt lat="41.83469" lon="9.21341">
        <ele>1320.8</ele>
        <time>2015-06-19T12:57:56Z</time>
      </trkpt>
      <trkpt lat="41.83452" lon="9.2139">
        <ele>1321.2</ele>
        <time>2015-06-19T12:58:34Z</time>
      </trkpt>
      <trkpt lat="41.83455" lon="9.21399">
        <ele>1321.4</ele>
        <time>2015-06-19T12:58:41Z</time>
      </trkpt>
      <trkpt lat="41.83463" lon="9.21406">
        <ele>1322.2</ele>
        <time>2015-06-19T12:58:49Z</time>
      </trkpt>
      <trkpt lat="41.83465" lon="9.21406">
        <ele>1322.4</ele>
        <time>2015-06-19T12:58:51Z</time>
      </trkpt>
      <trkpt lat="41.83472" lon="9.21409">
        <ele>1323.8</ele>
        <time>2015-06-19T12:59:02Z</time>
      </trkpt>
      <trkpt lat="41.83478" lon="9.21403">
        <ele>1324.8</ele>
        <time>2015-06-19T12:59:12Z</time>
      </trkpt>
      <trkpt lat="41.8348" lon="9.21403">
        <ele>1325.4</ele>
        <time>2015-06-19T12:59:18Z</time>
      </trkpt>
      <trkpt lat="41.83487" lon="9.21403">
        <ele>1326.6</ele>
        <time>2015-06-19T12:59:24Z</time>
      </trkpt>
      <trkpt lat="41.83488" lon="9.21401">
        <ele>1327</ele>
        <time>2015-06-19T12:59:27Z</time>
      </trkpt>
      <trkpt lat="41.83488" lon="9.21399">
        <ele>1327.2</ele>
        <time>2015-06-19T12:59:31Z</time>
      </trkpt>
      <trkpt lat="41.83489" lon="9.21395">
        <ele>1328.2</ele>
        <time>2015-06-19T12:59:41Z</time>
      </trkpt>
      <trkpt lat="41.83491" lon="9.2139">
        <ele>1329.4</ele>
        <time>2015-06-19T12:59:50Z</time>
      </trkpt>
      <trkpt lat="41.83493" lon="9.21385">
        <ele>1330.8</ele>
        <time>2015-06-19T13:00:01Z</time>
      </trkpt>
      <trkpt lat="41.83497" lon="9.21386">
        <ele>1332</ele>
        <time>2015-06-19T13:00:12Z</time>
      </trkpt>
      <trkpt lat="41.83503" lon="9.2138">
        <ele>1333.4</ele>
        <time>2015-06-19T13:00:28Z</time>
      </trkpt>
      <trkpt lat="41.83506" lon="9.21383">
        <ele>1334.4</ele>
        <time>2015-06-19T13:00:39Z</time>
      </trkpt>
      <trkpt lat="41.83512" lon="9.21384">
        <ele>1335.6</ele>
        <time>2015-06-19T13:00:49Z</time>
      </trkpt>
      <trkpt lat="41.83518" lon="9.21388">
        <ele>1337.2</ele>
        <time>2015-06-19T13:01:03Z</time>
      </trkpt>
      <trkpt lat="41.8352" lon="9.21391">
        <ele>1337.8</ele>
        <time>2015-06-19T13:01:13Z</time>
      </trkpt>
      <trkpt lat="41.83525" lon="9.21391">
        <ele>1339.2</ele>
        <time>2015-06-19T13:01:26Z</time>
      </trkpt>
      <trkpt lat="41.83529" lon="9.21391">
        <ele>1340.6</ele>
        <time>2015-06-19T13:01:42Z</time>
      </trkpt>
      <trkpt lat="41.83536" lon="9.21392">
        <ele>1341.8</ele>
        <time>2015-06-19T13:02:09Z</time>
      </trkpt>
      <trkpt lat="41.83542" lon="9.21388">
        <ele>1343.6</ele>
        <time>2015-06-19T13:02:21Z</time>
      </trkpt>
      <trkpt lat="41.83547" lon="9.21387">
        <ele>1344.4</ele>
        <time>2015-06-19T13:02:32Z</time>
      </trkpt>
      <trkpt lat="41.83553" lon="9.21385">
        <ele>1345.8</ele>
        <time>2015-06-19T13:02:45Z</time>
      </trkpt>
      <trkpt lat="41.83557" lon="9.21387">
        <ele>1346.8</ele>
        <time>2015-06-19T13:02:54Z</time>
      </trkpt>
      <trkpt lat="41.83562" lon="9.21383">
        <ele>1347.8</ele>
        <time>2015-06-19T13:03:04Z</time>
      </trkpt>
      <trkpt lat="41.83565" lon="9.21382">
        <ele>1349</ele>
        <time>2015-06-19T13:03:14Z</time>
      </trkpt>
      <trkpt lat="41.8357" lon="9.21379">
        <ele>1350.2</ele>
        <time>2015-06-19T13:03:24Z</time>
      </trkpt>
      <trkpt lat="41.83573" lon="9.21378">
        <ele>1351.4</ele>
        <time>2015-06-19T13:03:36Z</time>
      </trkpt>
      <trkpt lat="41.83578" lon="9.21381">
        <ele>1353</ele>
        <time>2015-06-19T13:03:48Z</time>
      </trkpt>
      <trkpt lat="41.83588" lon="9.2138">
        <ele>1354</ele>
        <time>2015-06-19T13:04:01Z</time>
      </trkpt>
      <trkpt lat="41.83592" lon="9.21379">
        <ele>1354.8</ele>
        <time>2015-06-19T13:04:09Z</time>
      </trkpt>
      <trkpt lat="41.83598" lon="9.21379">
        <ele>1356</ele>
        <time>2015-06-19T13:04:19Z</time>
      </trkpt>
      <trkpt lat="41.83601" lon="9.21379">
        <ele>1357.2</ele>
        <time>2015-06-19T13:04:28Z</time>
      </trkpt>
      <trkpt lat="41.83607" lon="9.21375">
        <ele>1358.2</ele>
        <time>2015-06-19T13:04:36Z</time>
      </trkpt>
      <trkpt lat="41.83609" lon="9.21373">
        <ele>1358.8</ele>
        <time>2015-06-19T13:04:40Z</time>
      </trkpt>
      <trkpt lat="41.83609" lon="9.2137">
        <ele>1359.4</ele>
        <time>2015-06-19T13:04:49Z</time>
      </trkpt>
      <trkpt lat="41.83614" lon="9.21366">
        <ele>1360.8</ele>
        <time>2015-06-19T13:04:59Z</time>
      </trkpt>
      <trkpt lat="41.83615" lon="9.21367">
        <ele>1361.6</ele>
        <time>2015-06-19T13:05:06Z</time>
      </trkpt>
      <trkpt lat="41.83617" lon="9.21368">
        <ele>1362.8</ele>
        <time>2015-06-19T13:05:15Z</time>
      </trkpt>
      <trkpt lat="41.83618" lon="9.21368">
        <ele>1364.2</ele>
        <time>2015-06-19T13:05:26Z</time>
      </trkpt>
      <trkpt lat="41.8362" lon="9.21367">
        <ele>1365.2</ele>
        <time>2015-06-19T13:05:35Z</time>
      </trkpt>
      <trkpt lat="41.83624" lon="9.21363">
        <ele>1366.4</ele>
        <time>2015-06-19T13:05:50Z</time>
      </trkpt>
      <trkpt lat="41.83625" lon="9.21363">
        <ele>1367.4</ele>
        <time>2015-06-19T13:05:58Z</time>
      </trkpt>
      <trkpt lat="41.83628" lon="9.21362">
        <ele>1368.6</ele>
        <time>2015-06-19T13:06:06Z</time>
      </trkpt>
      <trkpt lat="41.83629" lon="9.21361">
        <ele>1370</ele>
        <time>2015-06-19T13:06:16Z</time>
      </trkpt>
      <trkpt lat="41.83636" lon="9.21359">
        <ele>1370.6</ele>
        <time>2015-06-19T13:06:24Z</time>
      </trkpt>
      <trkpt lat="41.83644" lon="9.2136">
        <ele>1372.2</ele>
        <time>2015-06-19T13:06:37Z</time>
      </trkpt>
      <trkpt lat="41.83649" lon="9.21355">
        <ele>1372.8</ele>
        <time>2015-06-19T13:06:47Z</time>
      </trkpt>
      <trkpt lat="41.8365" lon="9.21356">
        <ele>1373.2</ele>
        <time>2015-06-19T13:06:50Z</time>
      </trkpt>
      <trkpt lat="41.83655" lon="9.2136">
        <ele>1374.6</ele>
        <time>2015-06-19T13:07:05Z</time>
      </trkpt>
      <trkpt lat="41.83656" lon="9.21358">
        <ele>1375.2</ele>
        <time>2015-06-19T13:07:13Z</time>
      </trkpt>
      <trkpt lat="41.83657" lon="9.21354">
        <ele>1376.4</ele>
        <time>2015-06-19T13:07:21Z</time>
      </trkpt>
      <trkpt lat="41.83661" lon="9.21353">
        <ele>1377.6</ele>
        <time>2015-06-19T13:07:31Z</time>
      </trkpt>
      <trkpt lat="41.83661" lon="9.21355">
        <ele>1378.6</ele>
        <time>2015-06-19T13:07:40Z</time>
      </trkpt>
      <trkpt lat="41.83664" lon="9.21351">
        <ele>1380.2</ele>
        <time>2015-06-19T13:07:54Z</time>
      </trkpt>
      <trkpt lat="41.83666" lon="9.21349">
        <ele>1381</ele>
        <time>2015-06-19T13:08:04Z</time>
      </trkpt>
      <trkpt lat="41.8367" lon="9.21346">
        <ele>1382</ele>
        <time>2015-06-19T13:08:13Z</time>
      </trkpt>
      <trkpt lat="41.83672" lon="9.21341">
        <ele>1383.2</ele>
        <time>2015-06-19T13:08:21Z</time>
      </trkpt>
      <trkpt lat="41.83679" lon="9.21339">
        <ele>1384.8</ele>
        <time>2015-06-19T13:08:49Z</time>
      </trkpt>
      <trkpt lat="41.83684" lon="9.21347">
        <ele>1385.8</ele>
        <time>2015-06-19T13:08:58Z</time>
      </trkpt>
      <trkpt lat="41.83687" lon="9.21342">
        <ele>1387.2</ele>
        <time>2015-06-19T13:09:10Z</time>
      </trkpt>
      <trkpt lat="41.83692" lon="9.21335">
        <ele>1388.8</ele>
        <time>2015-06-19T13:09:29Z</time>
      </trkpt>
      <trkpt lat="41.83694" lon="9.2133">
        <ele>1389.4</ele>
        <time>2015-06-19T13:09:37Z</time>
      </trkpt>
      <trkpt lat="41.83698" lon="9.21324">
        <ele>1390.8</ele>
        <time>2015-06-19T13:09:50Z</time>
      </trkpt>
      <trkpt lat="41.83702" lon="9.21319">
        <ele>1391.8</ele>
        <time>2015-06-19T13:10:02Z</time>
      </trkpt>
      <trkpt lat="41.83705" lon="9.21312">
        <ele>1393.6</ele>
        <time>2015-06-19T13:10:19Z</time>
      </trkpt>
      <trkpt lat="41.83709" lon="9.21308">
        <ele>1394.2</ele>
        <time>2015-06-19T13:10:29Z</time>
      </trkpt>
      <trkpt lat="41.83713" lon="9.21304">
        <ele>1395.6</ele>
        <time>2015-06-19T13:10:40Z</time>
      </trkpt>
      <trkpt lat="41.83717" lon="9.21307">
        <ele>1396.8</ele>
        <time>2015-06-19T13:10:52Z</time>
      </trkpt>
      <trkpt lat="41.8372" lon="9.21303">
        <ele>1397.8</ele>
        <time>2015-06-19T13:11:02Z</time>
      </trkpt>
      <trkpt lat="41.83723" lon="9.21301">
        <ele>1399</ele>
        <time>2015-06-19T13:11:09Z</time>
      </trkpt>
      <trkpt lat="41.83728" lon="9.21297">
        <ele>1400.4</ele>
        <time>2015-06-19T13:11:27Z</time>
      </trkpt>
      <trkpt lat="41.83728" lon="9.21297">
        <ele>1400.4</ele>
        <time>2015-06-19T13:11:29Z</time>
      </trkpt>
      <trkpt lat="41.83731" lon="9.21293">
        <ele>1401.4</ele>
        <time>2015-06-19T13:11:42Z</time>
      </trkpt>
      <trkpt lat="41.83733" lon="9.21292">
        <ele>1402.8</ele>
        <time>2015-06-19T13:11:54Z</time>
      </trkpt>
      <trkpt lat="41.83736" lon="9.21293">
        <ele>1403.6</ele>
        <time>2015-06-19T13:12:02Z</time>
      </trkpt>
      <trkpt lat="41.83739" lon="9.21287">
        <ele>1405</ele>
        <time>2015-06-19T13:12:16Z</time>
      </trkpt>
      <trkpt lat="41.83742" lon="9.21283">
        <ele>1406.2</ele>
        <time>2015-06-19T13:12:28Z</time>
      </trkpt>
      <trkpt lat="41.83746" lon="9.21272">
        <ele>1407.6</ele>
        <time>2015-06-19T13:12:42Z</time>
      </trkpt>
      <trkpt lat="41.8375" lon="9.21268">
        <ele>1408.4</ele>
        <time>2015-06-19T13:12:52Z</time>
      </trkpt>
      <trkpt lat="41.83751" lon="9.21265">
        <ele>1408.8</ele>
        <time>2015-06-19T13:12:55Z</time>
      </trkpt>
      <trkpt lat="41.83755" lon="9.21261">
        <ele>1409.6</ele>
        <time>2015-06-19T13:13:08Z</time>
      </trkpt>
      <trkpt lat="41.83754" lon="9.21228">
        <ele>1411.4</ele>
        <time>2015-06-19T13:13:54Z</time>
      </trkpt>
      <trkpt lat="41.83754" lon="9.21216">
        <ele>1412.4</ele>
        <time>2015-06-19T13:14:13Z</time>
      </trkpt>
      <trkpt lat="41.83757" lon="9.21215">
        <ele>1413.8</ele>
        <time>2015-06-19T13:14:27Z</time>
      </trkpt>
      <trkpt lat="41.8376" lon="9.21216">
        <ele>1414.4</ele>
        <time>2015-06-19T13:14:34Z</time>
      </trkpt>
      <trkpt lat="41.83763" lon="9.21211">
        <ele>1415.6</ele>
        <time>2015-06-19T13:14:45Z</time>
      </trkpt>
      <trkpt lat="41.83763" lon="9.21208">
        <ele>1416.8</ele>
        <time>2015-06-19T13:14:53Z</time>
      </trkpt>
      <trkpt lat="41.83764" lon="9.21204">
        <ele>1418.2</ele>
        <time>2015-06-19T13:15:04Z</time>
      </trkpt>
      <trkpt lat="41.83768" lon="9.21206">
        <ele>1419.2</ele>
        <time>2015-06-19T13:15:16Z</time>
      </trkpt>
      <trkpt lat="41.83769" lon="9.21204">
        <ele>1420.4</ele>
        <time>2015-06-19T13:15:26Z</time>
      </trkpt>
      <trkpt lat="41.83771" lon="9.21201">
        <ele>1421.2</ele>
        <time>2015-06-19T13:15:34Z</time>
      </trkpt>
      <trkpt lat="41.83772" lon="9.21201">
        <ele>1422.4</ele>
        <time>2015-06-19T13:15:41Z</time>
      </trkpt>
      <trkpt lat="41.83774" lon="9.21202">
        <ele>1423.6</ele>
        <time>2015-06-19T13:15:48Z</time>
      </trkpt>
      <trkpt lat="41.83774" lon="9.21202">
        <ele>1424</ele>
        <time>2015-06-19T13:15:52Z</time>
      </trkpt>
      <trkpt lat="41.83777" lon="9.212">
        <ele>1425.2</ele>
        <time>2015-06-19T13:16:05Z</time>
      </trkpt>
      <trkpt lat="41.83781" lon="9.21199">
        <ele>1426</ele>
        <time>2015-06-19T13:16:15Z</time>
      </trkpt>
      <trkpt lat="41.83783" lon="9.21198">
        <ele>1427</ele>
        <time>2015-06-19T13:16:24Z</time>
      </trkpt>
      <trkpt lat="41.83785" lon="9.21194">
        <ele>1428.4</ele>
        <time>2015-06-19T13:16:36Z</time>
      </trkpt>
      <trkpt lat="41.83788" lon="9.21191">
        <ele>1429.8</ele>
        <time>2015-06-19T13:16:46Z</time>
      </trkpt>
      <trkpt lat="41.8379" lon="9.21189">
        <ele>1430.6</ele>
        <time>2015-06-19T13:16:57Z</time>
      </trkpt>
      <trkpt lat="41.83792" lon="9.21186">
        <ele>1431.6</ele>
        <time>2015-06-19T13:17:04Z</time>
      </trkpt>
      <trkpt lat="41.83794" lon="9.21181">
        <ele>1433.4</ele>
        <time>2015-06-19T13:17:18Z</time>
      </trkpt>
      <trkpt lat="41.83795" lon="9.21181">
        <ele>1434.4</ele>
        <time>2015-06-19T13:17:29Z</time>
      </trkpt>
      <trkpt lat="41.83795" lon="9.2118">
        <ele>1434.4</ele>
        <time>2015-06-19T13:17:30Z</time>
      </trkpt>
      <trkpt lat="41.83798" lon="9.21182">
        <ele>1435.2</ele>
        <time>2015-06-19T13:17:39Z</time>
      </trkpt>
      <trkpt lat="41.83804" lon="9.21191">
        <ele>1436.8</ele>
        <time>2015-06-19T13:18:03Z</time>
      </trkpt>
      <trkpt lat="41.83808" lon="9.21198">
        <ele>1438.2</ele>
        <time>2015-06-19T13:18:19Z</time>
      </trkpt>
      <trkpt lat="41.83812" lon="9.212">
        <ele>1439.4</ele>
        <time>2015-06-19T13:18:33Z</time>
      </trkpt>
      <trkpt lat="41.83815" lon="9.21196">
        <ele>1440.4</ele>
        <time>2015-06-19T13:18:43Z</time>
      </trkpt>
      <trkpt lat="41.83817" lon="9.2119">
        <ele>1441.4</ele>
        <time>2015-06-19T13:18:58Z</time>
      </trkpt>
      <trkpt lat="41.83817" lon="9.21184">
        <ele>1442.8</ele>
        <time>2015-06-19T13:19:12Z</time>
      </trkpt>
      <trkpt lat="41.83822" lon="9.21181">
        <ele>1444.4</ele>
        <time>2015-06-19T13:19:27Z</time>
      </trkpt>
      <trkpt lat="41.83825" lon="9.2118">
        <ele>1445.2</ele>
        <time>2015-06-19T13:19:44Z</time>
      </trkpt>
      <trkpt lat="41.83829" lon="9.21176">
        <ele>1446.6</ele>
        <time>2015-06-19T13:19:58Z</time>
      </trkpt>
      <trkpt lat="41.83832" lon="9.21175">
        <ele>1447.8</ele>
        <time>2015-06-19T13:20:12Z</time>
      </trkpt>
      <trkpt lat="41.83836" lon="9.21176">
        <ele>1448.6</ele>
        <time>2015-06-19T13:20:23Z</time>
      </trkpt>
      <trkpt lat="41.83838" lon="9.21174">
        <ele>1449.8</ele>
        <time>2015-06-19T13:20:35Z</time>
      </trkpt>
      <trkpt lat="41.83842" lon="9.21173">
        <ele>1450.8</ele>
        <time>2015-06-19T13:20:42Z</time>
      </trkpt>
      <trkpt lat="41.83845" lon="9.21174">
        <ele>1452</ele>
        <time>2015-06-19T13:20:52Z</time>
      </trkpt>
      <trkpt lat="41.8385" lon="9.21175">
        <ele>1453</ele>
        <time>2015-06-19T13:21:04Z</time>
      </trkpt>
      <trkpt lat="41.83852" lon="9.21175">
        <ele>1454</ele>
        <time>2015-06-19T13:21:11Z</time>
      </trkpt>
      <trkpt lat="41.83856" lon="9.21173">
        <ele>1455.8</ele>
        <time>2015-06-19T13:21:23Z</time>
      </trkpt>
      <trkpt lat="41.83858" lon="9.21174">
        <ele>1457</ele>
        <time>2015-06-19T13:21:34Z</time>
      </trkpt>
      <trkpt lat="41.8386" lon="9.21174">
        <ele>1458.2</ele>
        <time>2015-06-19T13:21:44Z</time>
      </trkpt>
      <trkpt lat="41.83867" lon="9.21182">
        <ele>1459.6</ele>
        <time>2015-06-19T13:22:09Z</time>
      </trkpt>
      <trkpt lat="41.83869" lon="9.21176">
        <ele>1460.4</ele>
        <time>2015-06-19T13:22:22Z</time>
      </trkpt>
      <trkpt lat="41.83872" lon="9.21174">
        <ele>1461</ele>
        <time>2015-06-19T13:22:28Z</time>
      </trkpt>
      <trkpt lat="41.83875" lon="9.21174">
        <ele>1462.8</ele>
        <time>2015-06-19T13:22:49Z</time>
      </trkpt>
      <trkpt lat="41.83877" lon="9.21176">
        <ele>1464</ele>
        <time>2015-06-19T13:23:02Z</time>
      </trkpt>
      <trkpt lat="41.83882" lon="9.21178">
        <ele>1465</ele>
        <time>2015-06-19T13:23:15Z</time>
      </trkpt>
      <trkpt lat="41.83885" lon="9.21174">
        <ele>1466</ele>
        <time>2015-06-19T13:23:28Z</time>
      </trkpt>
      <trkpt lat="41.83888" lon="9.21174">
        <ele>1466.6</ele>
        <time>2015-06-19T13:23:35Z</time>
      </trkpt>
      <trkpt lat="41.83891" lon="9.21172">
        <ele>1468</ele>
        <time>2015-06-19T13:23:45Z</time>
      </trkpt>
      <trkpt lat="41.83892" lon="9.21172">
        <ele>1469</ele>
        <time>2015-06-19T13:23:53Z</time>
      </trkpt>
      <trkpt lat="41.83895" lon="9.21174">
        <ele>1470.4</ele>
        <time>2015-06-19T13:24:05Z</time>
      </trkpt>
      <trkpt lat="41.83899" lon="9.2118">
        <ele>1471.8</ele>
        <time>2015-06-19T13:24:20Z</time>
      </trkpt>
      <trkpt lat="41.83903" lon="9.2118">
        <ele>1472.6</ele>
        <time>2015-06-19T13:24:31Z</time>
      </trkpt>
      <trkpt lat="41.83907" lon="9.21179">
        <ele>1474.2</ele>
        <time>2015-06-19T13:24:44Z</time>
      </trkpt>
      <trkpt lat="41.83909" lon="9.21182">
        <ele>1475</ele>
        <time>2015-06-19T13:24:53Z</time>
      </trkpt>
      <trkpt lat="41.83913" lon="9.21184">
        <ele>1475.8</ele>
        <time>2015-06-19T13:25:05Z</time>
      </trkpt>
      <trkpt lat="41.83915" lon="9.21184">
        <ele>1477.2</ele>
        <time>2015-06-19T13:25:20Z</time>
      </trkpt>
      <trkpt lat="41.83918" lon="9.21183">
        <ele>1478.2</ele>
        <time>2015-06-19T13:25:32Z</time>
      </trkpt>
      <trkpt lat="41.8392" lon="9.21182">
        <ele>1478.8</ele>
        <time>2015-06-19T13:25:39Z</time>
      </trkpt>
      <trkpt lat="41.83921" lon="9.21177">
        <ele>1480</ele>
        <time>2015-06-19T13:25:51Z</time>
      </trkpt>
      <trkpt lat="41.83924" lon="9.21174">
        <ele>1481.8</ele>
        <time>2015-06-19T13:26:08Z</time>
      </trkpt>
      <trkpt lat="41.83928" lon="9.21173">
        <ele>1482.6</ele>
        <time>2015-06-19T13:26:20Z</time>
      </trkpt>
      <trkpt lat="41.83931" lon="9.21172">
        <ele>1483.4</ele>
        <time>2015-06-19T13:26:28Z</time>
      </trkpt>
      <trkpt lat="41.83932" lon="9.21173">
        <ele>1485</ele>
        <time>2015-06-19T13:26:42Z</time>
      </trkpt>
      <trkpt lat="41.83936" lon="9.21173">
        <ele>1486</ele>
        <time>2015-06-19T13:26:52Z</time>
      </trkpt>
      <trkpt lat="41.83939" lon="9.21172">
        <ele>1486.8</ele>
        <time>2015-06-19T13:27:01Z</time>
      </trkpt>
      <trkpt lat="41.83944" lon="9.21174">
        <ele>1488.6</ele>
        <time>2015-06-19T13:27:13Z</time>
      </trkpt>
      <trkpt lat="41.83948" lon="9.21175">
        <ele>1489.8</ele>
        <time>2015-06-19T13:27:26Z</time>
      </trkpt>
      <trkpt lat="41.83953" lon="9.21174">
        <ele>1490.4</ele>
        <time>2015-06-19T13:27:38Z</time>
      </trkpt>
      <trkpt lat="41.83954" lon="9.21174">
        <ele>1490.4</ele>
        <time>2015-06-19T13:27:40Z</time>
      </trkpt>
      <trkpt lat="41.83956" lon="9.21175">
        <ele>1491.2</ele>
        <time>2015-06-19T13:27:48Z</time>
      </trkpt>
      <trkpt lat="41.83961" lon="9.21174">
        <ele>1492.8</ele>
        <time>2015-06-19T13:28:01Z</time>
      </trkpt>
      <trkpt lat="41.83964" lon="9.21174">
        <ele>1493.6</ele>
        <time>2015-06-19T13:28:10Z</time>
      </trkpt>
      <trkpt lat="41.83967" lon="9.21171">
        <ele>1495</ele>
        <time>2015-06-19T13:28:20Z</time>
      </trkpt>
      <trkpt lat="41.83971" lon="9.21171">
        <ele>1496</ele>
        <time>2015-06-19T13:28:31Z</time>
      </trkpt>
      <trkpt lat="41.83973" lon="9.2117">
        <ele>1496.8</ele>
        <time>2015-06-19T13:28:40Z</time>
      </trkpt>
      <trkpt lat="41.83975" lon="9.21169">
        <ele>1497.8</ele>
        <time>2015-06-19T13:28:52Z</time>
      </trkpt>
      <trkpt lat="41.83978" lon="9.21169">
        <ele>1498.8</ele>
        <time>2015-06-19T13:29:02Z</time>
      </trkpt>
      <trkpt lat="41.83981" lon="9.21169">
        <ele>1500</ele>
        <time>2015-06-19T13:29:12Z</time>
      </trkpt>
      <trkpt lat="41.83984" lon="9.21168">
        <ele>1501.2</ele>
        <time>2015-06-19T13:29:24Z</time>
      </trkpt>
      <trkpt lat="41.83986" lon="9.21171">
        <ele>1502</ele>
        <time>2015-06-19T13:29:35Z</time>
      </trkpt>
      <trkpt lat="41.83991" lon="9.21171">
        <ele>1503.4</ele>
        <time>2015-06-19T13:29:46Z</time>
      </trkpt>
      <trkpt lat="41.83994" lon="9.21173">
        <ele>1504</ele>
        <time>2015-06-19T13:29:55Z</time>
      </trkpt>
      <trkpt lat="41.83999" lon="9.2118">
        <ele>1505.6</ele>
        <time>2015-06-19T13:30:11Z</time>
      </trkpt>
      <trkpt lat="41.84003" lon="9.21195">
        <ele>1506.4</ele>
        <time>2015-06-19T13:30:29Z</time>
      </trkpt>
      <trkpt lat="41.84015" lon="9.21211">
        <ele>1507.4</ele>
        <time>2015-06-19T13:30:55Z</time>
      </trkpt>
      <trkpt lat="41.84038" lon="9.21233">
        <ele>1507</ele>
        <time>2015-06-19T13:31:58Z</time>
      </trkpt>
      <trkpt lat="41.8404" lon="9.2124">
        <ele>1506.8</ele>
        <time>2015-06-19T13:32:16Z</time>
      </trkpt>
      <trkpt lat="41.84036" lon="9.2125">
        <ele>1508</ele>
        <time>2015-06-19T13:32:30Z</time>
      </trkpt>
      <trkpt lat="41.84037" lon="9.21254">
        <ele>1509</ele>
        <time>2015-06-19T13:32:41Z</time>
      </trkpt>
      <trkpt lat="41.84036" lon="9.21257">
        <ele>1510</ele>
        <time>2015-06-19T13:32:53Z</time>
      </trkpt>
      <trkpt lat="41.84038" lon="9.21264">
        <ele>1511</ele>
        <time>2015-06-19T13:33:03Z</time>
      </trkpt>
      <trkpt lat="41.84052" lon="9.2128">
        <ele>1512</ele>
        <time>2015-06-19T13:33:52Z</time>
      </trkpt>
      <trkpt lat="41.84052" lon="9.21281">
        <ele>1512.2</ele>
        <time>2015-06-19T13:33:53Z</time>
      </trkpt>
      <trkpt lat="41.84096" lon="9.21287">
        <ele>1508.8</ele>
        <time>2015-06-19T13:37:21Z</time>
      </trkpt>
      <trkpt lat="41.84102" lon="9.21282">
        <ele>1510.4</ele>
        <time>2015-06-19T13:37:37Z</time>
      </trkpt>
      <trkpt lat="41.84107" lon="9.21286">
        <ele>1510.6</ele>
        <time>2015-06-19T13:37:54Z</time>
      </trkpt>
      <trkpt lat="41.8411" lon="9.21291">
        <ele>1511.4</ele>
        <time>2015-06-19T13:38:05Z</time>
      </trkpt>
      <trkpt lat="41.84112" lon="9.21301">
        <ele>1512.6</ele>
        <time>2015-06-19T13:38:22Z</time>
      </trkpt>
      <trkpt lat="41.84121" lon="9.21306">
        <ele>1513.6</ele>
        <time>2015-06-19T13:38:37Z</time>
      </trkpt>
      <trkpt lat="41.84122" lon="9.21324">
        <ele>1513.2</ele>
        <time>2015-06-19T13:39:04Z</time>
      </trkpt>
      <trkpt lat="41.84144" lon="9.21363">
        <ele>1513.4</ele>
        <time>2015-06-19T13:40:07Z</time>
      </trkpt>
      <trkpt lat="41.84147" lon="9.2137">
        <ele>1514.6</ele>
        <time>2015-06-19T13:40:22Z</time>
      </trkpt>
      <trkpt lat="41.84148" lon="9.21379">
        <ele>1515.6</ele>
        <time>2015-06-19T13:40:33Z</time>
      </trkpt>
      <trkpt lat="41.8415" lon="9.21395">
        <ele>1516.4</ele>
        <time>2015-06-19T13:41:00Z</time>
      </trkpt>
      <trkpt lat="41.84152" lon="9.21399">
        <ele>1517.6</ele>
        <time>2015-06-19T13:41:10Z</time>
      </trkpt>
      <trkpt lat="41.84151" lon="9.21404">
        <ele>1518.4</ele>
        <time>2015-06-19T13:41:17Z</time>
      </trkpt>
      <trkpt lat="41.8415" lon="9.21411">
        <ele>1520</ele>
        <time>2015-06-19T13:41:26Z</time>
      </trkpt>
      <trkpt lat="41.84151" lon="9.21413">
        <ele>1519.6</ele>
        <time>2015-06-19T13:41:30Z</time>
      </trkpt>
      <trkpt lat="41.84151" lon="9.21414">
        <ele>1519.8</ele>
        <time>2015-06-19T13:41:32Z</time>
      </trkpt>
    </trkseg>
  </trk>
  <trk>
    <name><![CDATA[GR20 Asinau - Usciolu]]></name>
    <trkseg>
      <trkpt lat="41.84176" lon="9.21395">
        <ele>1543.4</ele>
        <time>2015-06-20T04:41:16Z</time>
      </trkpt>
      <trkpt lat="41.84176" lon="9.21388">
        <ele>1544.6</ele>
        <time>2015-06-20T04:41:33Z</time>
      </trkpt>
      <trkpt lat="41.84177" lon="9.21379">
        <ele>1544.8</ele>
        <time>2015-06-20T04:41:45Z</time>
      </trkpt>
      <trkpt lat="41.84171" lon="9.21362">
        <ele>1545.6</ele>
        <time>2015-06-20T04:41:52Z</time>
      </trkpt>
      <trkpt lat="41.84173" lon="9.21362">
        <ele>1546</ele>
        <time>2015-06-20T04:41:55Z</time>
      </trkpt>
      <trkpt lat="41.84174" lon="9.21359">
        <ele>1546.8</ele>
        <time>2015-06-20T04:42:01Z</time>
      </trkpt>
      <trkpt lat="41.84177" lon="9.21362">
        <ele>1547</ele>
        <time>2015-06-20T04:42:03Z</time>
      </trkpt>
      <trkpt lat="41.8418" lon="9.21365">
        <ele>1547.2</ele>
        <time>2015-06-20T04:42:07Z</time>
      </trkpt>
      <trkpt lat="41.84183" lon="9.21366">
        <ele>1547.8</ele>
        <time>2015-06-20T04:42:13Z</time>
      </trkpt>
      <trkpt lat="41.84184" lon="9.21364">
        <ele>1548.4</ele>
        <time>2015-06-20T04:42:20Z</time>
      </trkpt>
      <trkpt lat="41.84187" lon="9.21362">
        <ele>1549.6</ele>
        <time>2015-06-20T04:42:30Z</time>
      </trkpt>
      <trkpt lat="41.84188" lon="9.21356">
        <ele>1551</ele>
        <time>2015-06-20T04:42:41Z</time>
      </trkpt>
      <trkpt lat="41.84189" lon="9.21355">
        <ele>1551.8</ele>
        <time>2015-06-20T04:42:51Z</time>
      </trkpt>
      <trkpt lat="41.84191" lon="9.21341">
        <ele>1553</ele>
        <time>2015-06-20T04:43:12Z</time>
      </trkpt>
      <trkpt lat="41.84189" lon="9.21311">
        <ele>1553.6</ele>
        <time>2015-06-20T04:44:03Z</time>
      </trkpt>
      <trkpt lat="41.84189" lon="9.21296">
        <ele>1554.8</ele>
        <time>2015-06-20T04:44:29Z</time>
      </trkpt>
      <trkpt lat="41.84188" lon="9.21283">
        <ele>1555.4</ele>
        <time>2015-06-20T04:44:44Z</time>
      </trkpt>
      <trkpt lat="41.84191" lon="9.21276">
        <ele>1556.2</ele>
        <time>2015-06-20T04:44:57Z</time>
      </trkpt>
      <trkpt lat="41.84192" lon="9.21274">
        <ele>1556.8</ele>
        <time>2015-06-20T04:45:04Z</time>
      </trkpt>
      <trkpt lat="41.84191" lon="9.21268">
        <ele>1558.6</ele>
        <time>2015-06-20T04:45:15Z</time>
      </trkpt>
      <trkpt lat="41.84191" lon="9.21267">
        <ele>1558.8</ele>
        <time>2015-06-20T04:45:17Z</time>
      </trkpt>
      <trkpt lat="41.8419" lon="9.21263">
        <ele>1559</ele>
        <time>2015-06-20T04:45:24Z</time>
      </trkpt>
      <trkpt lat="41.84189" lon="9.21258">
        <ele>1560.2</ele>
        <time>2015-06-20T04:45:35Z</time>
      </trkpt>
      <trkpt lat="41.8419" lon="9.21251">
        <ele>1561.6</ele>
        <time>2015-06-20T04:45:52Z</time>
      </trkpt>
      <trkpt lat="41.8419" lon="9.21247">
        <ele>1562.2</ele>
        <time>2015-06-20T04:46:00Z</time>
      </trkpt>
      <trkpt lat="41.84189" lon="9.21244">
        <ele>1563</ele>
        <time>2015-06-20T04:46:07Z</time>
      </trkpt>
      <trkpt lat="41.84187" lon="9.21239">
        <ele>1564.4</ele>
        <time>2015-06-20T04:46:18Z</time>
      </trkpt>
      <trkpt lat="41.84187" lon="9.21236">
        <ele>1565</ele>
        <time>2015-06-20T04:46:26Z</time>
      </trkpt>
      <trkpt lat="41.84183" lon="9.21231">
        <ele>1566.6</ele>
        <time>2015-06-20T04:46:37Z</time>
      </trkpt>
      <trkpt lat="41.8418" lon="9.21223">
        <ele>1567.4</ele>
        <time>2015-06-20T04:46:50Z</time>
      </trkpt>
      <trkpt lat="41.84171" lon="9.21209">
        <ele>1568.6</ele>
        <time>2015-06-20T04:47:10Z</time>
      </trkpt>
      <trkpt lat="41.84172" lon="9.21204">
        <ele>1569.2</ele>
        <time>2015-06-20T04:47:20Z</time>
      </trkpt>
      <trkpt lat="41.8417" lon="9.21196">
        <ele>1570.4</ele>
        <time>2015-06-20T04:47:30Z</time>
      </trkpt>
      <trkpt lat="41.84171" lon="9.21192">
        <ele>1571</ele>
        <time>2015-06-20T04:47:39Z</time>
      </trkpt>
      <trkpt lat="41.84171" lon="9.21187">
        <ele>1572.4</ele>
        <time>2015-06-20T04:47:50Z</time>
      </trkpt>
      <trkpt lat="41.8417" lon="9.21183">
        <ele>1573.4</ele>
        <time>2015-06-20T04:47:59Z</time>
      </trkpt>
      <trkpt lat="41.84172" lon="9.21179">
        <ele>1574.6</ele>
        <time>2015-06-20T04:48:09Z</time>
      </trkpt>
      <trkpt lat="41.84172" lon="9.21175">
        <ele>1575.2</ele>
        <time>2015-06-20T04:48:17Z</time>
      </trkpt>
      <trkpt lat="41.84173" lon="9.21169">
        <ele>1576.6</ele>
        <time>2015-06-20T04:48:29Z</time>
      </trkpt>
      <trkpt lat="41.84175" lon="9.21168">
        <ele>1577.4</ele>
        <time>2015-06-20T04:48:37Z</time>
      </trkpt>
      <trkpt lat="41.84177" lon="9.21167">
        <ele>1578.2</ele>
        <time>2015-06-20T04:48:45Z</time>
      </trkpt>
      <trkpt lat="41.84178" lon="9.21163">
        <ele>1579.8</ele>
        <time>2015-06-20T04:48:57Z</time>
      </trkpt>
      <trkpt lat="41.84178" lon="9.2115">
        <ele>1580.8</ele>
        <time>2015-06-20T04:49:13Z</time>
      </trkpt>
      <trkpt lat="41.84179" lon="9.21144">
        <ele>1581.6</ele>
        <time>2015-06-20T04:49:23Z</time>
      </trkpt>
      <trkpt lat="41.84181" lon="9.2114">
        <ele>1582.8</ele>
        <time>2015-06-20T04:49:33Z</time>
      </trkpt>
      <trkpt lat="41.84183" lon="9.21139">
        <ele>1583.4</ele>
        <time>2015-06-20T04:49:40Z</time>
      </trkpt>
      <trkpt lat="41.84185" lon="9.21137">
        <ele>1584.6</ele>
        <time>2015-06-20T04:49:48Z</time>
      </trkpt>
      <trkpt lat="41.84186" lon="9.21136">
        <ele>1585.6</ele>
        <time>2015-06-20T04:49:56Z</time>
      </trkpt>
      <trkpt lat="41.8419" lon="9.21136">
        <ele>1586.6</ele>
        <time>2015-06-20T04:50:07Z</time>
      </trkpt>
      <trkpt lat="41.8419" lon="9.21132">
        <ele>1587.8</ele>
        <time>2015-06-20T04:50:15Z</time>
      </trkpt>
      <trkpt lat="41.84194" lon="9.21131">
        <ele>1589</ele>
        <time>2015-06-20T04:50:27Z</time>
      </trkpt>
      <trkpt lat="41.84196" lon="9.21132">
        <ele>1589.6</ele>
        <time>2015-06-20T04:50:33Z</time>
      </trkpt>
      <trkpt lat="41.84199" lon="9.21134">
        <ele>1590.8</ele>
        <time>2015-06-20T04:50:41Z</time>
      </trkpt>
      <trkpt lat="41.84199" lon="9.21136">
        <ele>1592</ele>
        <time>2015-06-20T04:50:49Z</time>
      </trkpt>
      <trkpt lat="41.84199" lon="9.21138">
        <ele>1593</ele>
        <time>2015-06-20T04:50:57Z</time>
      </trkpt>
      <trkpt lat="41.84202" lon="9.21135">
        <ele>1594</ele>
        <time>2015-06-20T04:51:14Z</time>
      </trkpt>
      <trkpt lat="41.84203" lon="9.21131">
        <ele>1594.8</ele>
        <time>2015-06-20T04:51:22Z</time>
      </trkpt>
      <trkpt lat="41.84205" lon="9.21128">
        <ele>1596.2</ele>
        <time>2015-06-20T04:51:33Z</time>
      </trkpt>
      <trkpt lat="41.84206" lon="9.21131">
        <ele>1597.2</ele>
        <time>2015-06-20T04:51:43Z</time>
      </trkpt>
      <trkpt lat="41.84208" lon="9.21129">
        <ele>1598.4</ele>
        <time>2015-06-20T04:52:02Z</time>
      </trkpt>
      <trkpt lat="41.8421" lon="9.21124">
        <ele>1599.4</ele>
        <time>2015-06-20T04:52:20Z</time>
      </trkpt>
      <trkpt lat="41.84214" lon="9.21125">
        <ele>1600.2</ele>
        <time>2015-06-20T04:52:32Z</time>
      </trkpt>
      <trkpt lat="41.84216" lon="9.21126">
        <ele>1601.2</ele>
        <time>2015-06-20T04:52:40Z</time>
      </trkpt>
      <trkpt lat="41.84216" lon="9.21126">
        <ele>1601.4</ele>
        <time>2015-06-20T04:52:42Z</time>
      </trkpt>
      <trkpt lat="41.84215" lon="9.21123">
        <ele>1602.4</ele>
        <time>2015-06-20T04:52:51Z</time>
      </trkpt>
      <trkpt lat="41.84216" lon="9.21118">
        <ele>1603.6</ele>
        <time>2015-06-20T04:53:01Z</time>
      </trkpt>
      <trkpt lat="41.84219" lon="9.2112">
        <ele>1604.2</ele>
        <time>2015-06-20T04:53:09Z</time>
      </trkpt>
      <trkpt lat="41.8422" lon="9.21124">
        <ele>1605.8</ele>
        <time>2015-06-20T04:53:18Z</time>
      </trkpt>
      <trkpt lat="41.84223" lon="9.21122">
        <ele>1606.8</ele>
        <time>2015-06-20T04:53:30Z</time>
      </trkpt>
      <trkpt lat="41.84225" lon="9.21122">
        <ele>1607.4</ele>
        <time>2015-06-20T04:53:38Z</time>
      </trkpt>
      <trkpt lat="41.84226" lon="9.21122">
        <ele>1608.2</ele>
        <time>2015-06-20T04:53:44Z</time>
      </trkpt>
      <trkpt lat="41.84227" lon="9.21123">
        <ele>1609.4</ele>
        <time>2015-06-20T04:53:51Z</time>
      </trkpt>
      <trkpt lat="41.84228" lon="9.21126">
        <ele>1610.8</ele>
        <time>2015-06-20T04:54:02Z</time>
      </trkpt>
      <trkpt lat="41.84231" lon="9.21125">
        <ele>1612</ele>
        <time>2015-06-20T04:54:17Z</time>
      </trkpt>
      <trkpt lat="41.84233" lon="9.21123">
        <ele>1613</ele>
        <time>2015-06-20T04:54:28Z</time>
      </trkpt>
      <trkpt lat="41.84234" lon="9.21123">
        <ele>1614</ele>
        <time>2015-06-20T04:54:40Z</time>
      </trkpt>
      <trkpt lat="41.84238" lon="9.21124">
        <ele>1615.2</ele>
        <time>2015-06-20T04:54:53Z</time>
      </trkpt>
      <trkpt lat="41.8424" lon="9.21125">
        <ele>1616</ele>
        <time>2015-06-20T04:55:02Z</time>
      </trkpt>
      <trkpt lat="41.84242" lon="9.21126">
        <ele>1616.8</ele>
        <time>2015-06-20T04:55:09Z</time>
      </trkpt>
      <trkpt lat="41.84242" lon="9.2112">
        <ele>1618.6</ele>
        <time>2015-06-20T04:55:29Z</time>
      </trkpt>
      <trkpt lat="41.84246" lon="9.21125">
        <ele>1619.4</ele>
        <time>2015-06-20T04:55:52Z</time>
      </trkpt>
      <trkpt lat="41.84247" lon="9.21123">
        <ele>1619.8</ele>
        <time>2015-06-20T04:55:59Z</time>
      </trkpt>
      <trkpt lat="41.84248" lon="9.21119">
        <ele>1621.4</ele>
        <time>2015-06-20T04:56:10Z</time>
      </trkpt>
      <trkpt lat="41.84249" lon="9.21119">
        <ele>1621.6</ele>
        <time>2015-06-20T04:56:13Z</time>
      </trkpt>
      <trkpt lat="41.84249" lon="9.21118">
        <ele>1622.4</ele>
        <time>2015-06-20T04:56:22Z</time>
      </trkpt>
      <trkpt lat="41.84251" lon="9.21117">
        <ele>1623.4</ele>
        <time>2015-06-20T04:56:30Z</time>
      </trkpt>
      <trkpt lat="41.84251" lon="9.21114">
        <ele>1624.6</ele>
        <time>2015-06-20T04:56:39Z</time>
      </trkpt>
      <trkpt lat="41.84253" lon="9.21111">
        <ele>1625.8</ele>
        <time>2015-06-20T04:56:49Z</time>
      </trkpt>
      <trkpt lat="41.84256" lon="9.21112">
        <ele>1626.6</ele>
        <time>2015-06-20T04:56:59Z</time>
      </trkpt>
      <trkpt lat="41.84257" lon="9.21114">
        <ele>1628</ele>
        <time>2015-06-20T04:57:09Z</time>
      </trkpt>
      <trkpt lat="41.84258" lon="9.21117">
        <ele>1628.6</ele>
        <time>2015-06-20T04:57:17Z</time>
      </trkpt>
      <trkpt lat="41.84261" lon="9.21117">
        <ele>1630.2</ele>
        <time>2015-06-20T04:57:34Z</time>
      </trkpt>
      <trkpt lat="41.84263" lon="9.2112">
        <ele>1631</ele>
        <time>2015-06-20T04:57:44Z</time>
      </trkpt>
      <trkpt lat="41.84265" lon="9.21118">
        <ele>1632.2</ele>
        <time>2015-06-20T04:57:59Z</time>
      </trkpt>
      <trkpt lat="41.84267" lon="9.21115">
        <ele>1633.2</ele>
        <time>2015-06-20T04:58:08Z</time>
      </trkpt>
      <trkpt lat="41.84269" lon="9.21114">
        <ele>1634</ele>
        <time>2015-06-20T04:58:17Z</time>
      </trkpt>
      <trkpt lat="41.8427" lon="9.21111">
        <ele>1635.2</ele>
        <time>2015-06-20T04:58:29Z</time>
      </trkpt>
      <trkpt lat="41.8427" lon="9.21108">
        <ele>1636</ele>
        <time>2015-06-20T04:58:36Z</time>
      </trkpt>
      <trkpt lat="41.84274" lon="9.21104">
        <ele>1637.4</ele>
        <time>2015-06-20T04:58:48Z</time>
      </trkpt>
      <trkpt lat="41.84276" lon="9.21104">
        <ele>1638.6</ele>
        <time>2015-06-20T04:58:58Z</time>
      </trkpt>
      <trkpt lat="41.84278" lon="9.21104">
        <ele>1639.6</ele>
        <time>2015-06-20T04:59:08Z</time>
      </trkpt>
      <trkpt lat="41.84279" lon="9.21105">
        <ele>1640.4</ele>
        <time>2015-06-20T04:59:21Z</time>
      </trkpt>
      <trkpt lat="41.84281" lon="9.21106">
        <ele>1642</ele>
        <time>2015-06-20T04:59:35Z</time>
      </trkpt>
      <trkpt lat="41.84282" lon="9.21107">
        <ele>1642.8</ele>
        <time>2015-06-20T04:59:45Z</time>
      </trkpt>
      <trkpt lat="41.84283" lon="9.21106">
        <ele>1644</ele>
        <time>2015-06-20T04:59:55Z</time>
      </trkpt>
      <trkpt lat="41.84284" lon="9.21107">
        <ele>1645.2</ele>
        <time>2015-06-20T05:00:09Z</time>
      </trkpt>
      <trkpt lat="41.84287" lon="9.21109">
        <ele>1646.8</ele>
        <time>2015-06-20T05:00:31Z</time>
      </trkpt>
      <trkpt lat="41.8429" lon="9.21107">
        <ele>1647.6</ele>
        <time>2015-06-20T05:00:48Z</time>
      </trkpt>
      <trkpt lat="41.84291" lon="9.21106">
        <ele>1648.4</ele>
        <time>2015-06-20T05:00:55Z</time>
      </trkpt>
      <trkpt lat="41.84291" lon="9.21103">
        <ele>1649.4</ele>
        <time>2015-06-20T05:01:02Z</time>
      </trkpt>
      <trkpt lat="41.84293" lon="9.21104">
        <ele>1650.6</ele>
        <time>2015-06-20T05:01:12Z</time>
      </trkpt>
      <trkpt lat="41.84296" lon="9.21105">
        <ele>1651.6</ele>
        <time>2015-06-20T05:01:22Z</time>
      </trkpt>
      <trkpt lat="41.84297" lon="9.21105">
        <ele>1652.6</ele>
        <time>2015-06-20T05:01:30Z</time>
      </trkpt>
      <trkpt lat="41.84301" lon="9.211">
        <ele>1653.8</ele>
        <time>2015-06-20T05:02:05Z</time>
      </trkpt>
      <trkpt lat="41.84302" lon="9.21098">
        <ele>1655.2</ele>
        <time>2015-06-20T05:02:13Z</time>
      </trkpt>
      <trkpt lat="41.84303" lon="9.21099">
        <ele>1656</ele>
        <time>2015-06-20T05:02:23Z</time>
      </trkpt>
      <trkpt lat="41.84301" lon="9.21095">
        <ele>1657.2</ele>
        <time>2015-06-20T05:02:30Z</time>
      </trkpt>
      <trkpt lat="41.84304" lon="9.21094">
        <ele>1658.2</ele>
        <time>2015-06-20T05:02:38Z</time>
      </trkpt>
      <trkpt lat="41.84304" lon="9.21097">
        <ele>1659.4</ele>
        <time>2015-06-20T05:02:47Z</time>
      </trkpt>
      <trkpt lat="41.84307" lon="9.21096">
        <ele>1661</ele>
        <time>2015-06-20T05:02:58Z</time>
      </trkpt>
      <trkpt lat="41.84307" lon="9.21094">
        <ele>1662</ele>
        <time>2015-06-20T05:03:07Z</time>
      </trkpt>
      <trkpt lat="41.8431" lon="9.21093">
        <ele>1663</ele>
        <time>2015-06-20T05:03:19Z</time>
      </trkpt>
      <trkpt lat="41.84312" lon="9.21093">
        <ele>1664.6</ele>
        <time>2015-06-20T05:03:30Z</time>
      </trkpt>
      <trkpt lat="41.84312" lon="9.2109">
        <ele>1665.4</ele>
        <time>2015-06-20T05:03:39Z</time>
      </trkpt>
      <trkpt lat="41.84315" lon="9.21087">
        <ele>1666.8</ele>
        <time>2015-06-20T05:03:50Z</time>
      </trkpt>
      <trkpt lat="41.84317" lon="9.21089">
        <ele>1667.8</ele>
        <time>2015-06-20T05:04:01Z</time>
      </trkpt>
      <trkpt lat="41.84317" lon="9.21093">
        <ele>1668.8</ele>
        <time>2015-06-20T05:04:09Z</time>
      </trkpt>
      <trkpt lat="41.8432" lon="9.21094">
        <ele>1669.8</ele>
        <time>2015-06-20T05:05:08Z</time>
      </trkpt>
      <trkpt lat="41.84322" lon="9.21092">
        <ele>1671</ele>
        <time>2015-06-20T05:05:16Z</time>
      </trkpt>
      <trkpt lat="41.84324" lon="9.21089">
        <ele>1672</ele>
        <time>2015-06-20T05:05:25Z</time>
      </trkpt>
      <trkpt lat="41.84327" lon="9.21088">
        <ele>1673.4</ele>
        <time>2015-06-20T05:05:34Z</time>
      </trkpt>
      <trkpt lat="41.84328" lon="9.21091">
        <ele>1674.4</ele>
        <time>2015-06-20T05:05:44Z</time>
      </trkpt>
      <trkpt lat="41.8433" lon="9.21096">
        <ele>1675.4</ele>
        <time>2015-06-20T05:05:53Z</time>
      </trkpt>
      <trkpt lat="41.84333" lon="9.21096">
        <ele>1676.6</ele>
        <time>2015-06-20T05:06:04Z</time>
      </trkpt>
      <trkpt lat="41.84336" lon="9.211">
        <ele>1677.8</ele>
        <time>2015-06-20T05:06:13Z</time>
      </trkpt>
      <trkpt lat="41.84339" lon="9.21101">
        <ele>1678.8</ele>
        <time>2015-06-20T05:06:23Z</time>
      </trkpt>
      <trkpt lat="41.8434" lon="9.21101">
        <ele>1679.8</ele>
        <time>2015-06-20T05:06:33Z</time>
      </trkpt>
      <trkpt lat="41.84344" lon="9.21101">
        <ele>1681</ele>
        <time>2015-06-20T05:06:45Z</time>
      </trkpt>
      <trkpt lat="41.84343" lon="9.21097">
        <ele>1681.8</ele>
        <time>2015-06-20T05:06:54Z</time>
      </trkpt>
      <trkpt lat="41.84343" lon="9.21092">
        <ele>1683</ele>
        <time>2015-06-20T05:07:03Z</time>
      </trkpt>
      <trkpt lat="41.84344" lon="9.21089">
        <ele>1684</ele>
        <time>2015-06-20T05:07:12Z</time>
      </trkpt>
      <trkpt lat="41.84346" lon="9.21087">
        <ele>1685</ele>
        <time>2015-06-20T05:07:21Z</time>
      </trkpt>
      <trkpt lat="41.84346" lon="9.21084">
        <ele>1686.2</ele>
        <time>2015-06-20T05:07:30Z</time>
      </trkpt>
      <trkpt lat="41.84346" lon="9.2108">
        <ele>1686.8</ele>
        <time>2015-06-20T05:07:38Z</time>
      </trkpt>
      <trkpt lat="41.84348" lon="9.21078">
        <ele>1688.4</ele>
        <time>2015-06-20T05:07:48Z</time>
      </trkpt>
      <trkpt lat="41.84352" lon="9.21075">
        <ele>1689.2</ele>
        <time>2015-06-20T05:08:01Z</time>
      </trkpt>
      <trkpt lat="41.84354" lon="9.21076">
        <ele>1690</ele>
        <time>2015-06-20T05:08:09Z</time>
      </trkpt>
      <trkpt lat="41.84358" lon="9.21074">
        <ele>1691.8</ele>
        <time>2015-06-20T05:08:42Z</time>
      </trkpt>
      <trkpt lat="41.84361" lon="9.21071">
        <ele>1692.2</ele>
        <time>2015-06-20T05:08:51Z</time>
      </trkpt>
      <trkpt lat="41.84363" lon="9.21069">
        <ele>1693</ele>
        <time>2015-06-20T05:08:59Z</time>
      </trkpt>
      <trkpt lat="41.84364" lon="9.21069">
        <ele>1693.2</ele>
        <time>2015-06-20T05:09:00Z</time>
      </trkpt>
      <trkpt lat="41.84365" lon="9.21068">
        <ele>1694.2</ele>
        <time>2015-06-20T05:09:09Z</time>
      </trkpt>
      <trkpt lat="41.8437" lon="9.2106">
        <ele>1695.6</ele>
        <time>2015-06-20T05:09:23Z</time>
      </trkpt>
      <trkpt lat="41.84371" lon="9.21056">
        <ele>1696.4</ele>
        <time>2015-06-20T05:09:31Z</time>
      </trkpt>
      <trkpt lat="41.84374" lon="9.21052">
        <ele>1697.6</ele>
        <time>2015-06-20T05:09:41Z</time>
      </trkpt>
      <trkpt lat="41.84378" lon="9.21039">
        <ele>1698.6</ele>
        <time>2015-06-20T05:09:58Z</time>
      </trkpt>
      <trkpt lat="41.8438" lon="9.21038">
        <ele>1699</ele>
        <time>2015-06-20T05:10:02Z</time>
      </trkpt>
      <trkpt lat="41.84381" lon="9.21035">
        <ele>1699.2</ele>
        <time>2015-06-20T05:10:10Z</time>
      </trkpt>
      <trkpt lat="41.84385" lon="9.21026">
        <ele>1700.8</ele>
        <time>2015-06-20T05:10:25Z</time>
      </trkpt>
      <trkpt lat="41.84387" lon="9.21023">
        <ele>1701.8</ele>
        <time>2015-06-20T05:10:33Z</time>
      </trkpt>
      <trkpt lat="41.84389" lon="9.21022">
        <ele>1702.6</ele>
        <time>2015-06-20T05:10:43Z</time>
      </trkpt>
      <trkpt lat="41.84393" lon="9.21017">
        <ele>1704</ele>
        <time>2015-06-20T05:10:54Z</time>
      </trkpt>
      <trkpt lat="41.84396" lon="9.21013">
        <ele>1704.8</ele>
        <time>2015-06-20T05:11:04Z</time>
      </trkpt>
      <trkpt lat="41.84398" lon="9.21009">
        <ele>1706</ele>
        <time>2015-06-20T05:11:14Z</time>
      </trkpt>
      <trkpt lat="41.84399" lon="9.21005">
        <ele>1706.8</ele>
        <time>2015-06-20T05:11:24Z</time>
      </trkpt>
      <trkpt lat="41.84401" lon="9.21002">
        <ele>1707.8</ele>
        <time>2015-06-20T05:11:31Z</time>
      </trkpt>
      <trkpt lat="41.84403" lon="9.20999">
        <ele>1708.8</ele>
        <time>2015-06-20T05:11:38Z</time>
      </trkpt>
      <trkpt lat="41.84406" lon="9.20993">
        <ele>1710.2</ele>
        <time>2015-06-20T05:11:52Z</time>
      </trkpt>
      <trkpt lat="41.84408" lon="9.20988">
        <ele>1711</ele>
        <time>2015-06-20T05:12:02Z</time>
      </trkpt>
      <trkpt lat="41.8441" lon="9.20984">
        <ele>1711.8</ele>
        <time>2015-06-20T05:12:10Z</time>
      </trkpt>
      <trkpt lat="41.84411" lon="9.20978">
        <ele>1713</ele>
        <time>2015-06-20T05:12:24Z</time>
      </trkpt>
      <trkpt lat="41.84412" lon="9.20968">
        <ele>1714.6</ele>
        <time>2015-06-20T05:12:37Z</time>
      </trkpt>
      <trkpt lat="41.84415" lon="9.20961">
        <ele>1715</ele>
        <time>2015-06-20T05:12:49Z</time>
      </trkpt>
      <trkpt lat="41.84417" lon="9.20959">
        <ele>1716</ele>
        <time>2015-06-20T05:12:58Z</time>
      </trkpt>
      <trkpt lat="41.84419" lon="9.20958">
        <ele>1717</ele>
        <time>2015-06-20T05:13:09Z</time>
      </trkpt>
      <trkpt lat="41.84422" lon="9.20956">
        <ele>1718</ele>
        <time>2015-06-20T05:13:19Z</time>
      </trkpt>
      <trkpt lat="41.84423" lon="9.20957">
        <ele>1719</ele>
        <time>2015-06-20T05:13:26Z</time>
      </trkpt>
      <trkpt lat="41.84426" lon="9.20953">
        <ele>1720.2</ele>
        <time>2015-06-20T05:13:36Z</time>
      </trkpt>
      <trkpt lat="41.84428" lon="9.2095">
        <ele>1721.2</ele>
        <time>2015-06-20T05:13:46Z</time>
      </trkpt>
      <trkpt lat="41.84432" lon="9.20942">
        <ele>1722.4</ele>
        <time>2015-06-20T05:13:59Z</time>
      </trkpt>
      <trkpt lat="41.84435" lon="9.20938">
        <ele>1723.2</ele>
        <time>2015-06-20T05:14:08Z</time>
      </trkpt>
      <trkpt lat="41.84436" lon="9.20936">
        <ele>1724.4</ele>
        <time>2015-06-20T05:14:18Z</time>
      </trkpt>
      <trkpt lat="41.84437" lon="9.2092">
        <ele>1725.2</ele>
        <time>2015-06-20T05:14:54Z</time>
      </trkpt>
      <trkpt lat="41.84436" lon="9.20916">
        <ele>1726</ele>
        <time>2015-06-20T05:15:02Z</time>
      </trkpt>
      <trkpt lat="41.84438" lon="9.20912">
        <ele>1727.2</ele>
        <time>2015-06-20T05:15:12Z</time>
      </trkpt>
      <trkpt lat="41.84437" lon="9.20907">
        <ele>1728.2</ele>
        <time>2015-06-20T05:15:20Z</time>
      </trkpt>
      <trkpt lat="41.84441" lon="9.20904">
        <ele>1729.2</ele>
        <time>2015-06-20T05:15:32Z</time>
      </trkpt>
      <trkpt lat="41.84443" lon="9.209">
        <ele>1730</ele>
        <time>2015-06-20T05:15:41Z</time>
      </trkpt>
      <trkpt lat="41.84444" lon="9.20899">
        <ele>1731.2</ele>
        <time>2015-06-20T05:15:50Z</time>
      </trkpt>
      <trkpt lat="41.84446" lon="9.20895">
        <ele>1732.2</ele>
        <time>2015-06-20T05:16:01Z</time>
      </trkpt>
      <trkpt lat="41.84447" lon="9.20896">
        <ele>1733</ele>
        <time>2015-06-20T05:16:08Z</time>
      </trkpt>
      <trkpt lat="41.84452" lon="9.20896">
        <ele>1734.2</ele>
        <time>2015-06-20T05:16:28Z</time>
      </trkpt>
      <trkpt lat="41.84456" lon="9.20896">
        <ele>1735.6</ele>
        <time>2015-06-20T05:16:58Z</time>
      </trkpt>
      <trkpt lat="41.8446" lon="9.20898">
        <ele>1736.2</ele>
        <time>2015-06-20T05:17:06Z</time>
      </trkpt>
      <trkpt lat="41.84462" lon="9.20896">
        <ele>1737.2</ele>
        <time>2015-06-20T05:17:13Z</time>
      </trkpt>
      <trkpt lat="41.84464" lon="9.20896">
        <ele>1738.2</ele>
        <time>2015-06-20T05:17:20Z</time>
      </trkpt>
      <trkpt lat="41.84465" lon="9.20895">
        <ele>1739.4</ele>
        <time>2015-06-20T05:17:27Z</time>
      </trkpt>
      <trkpt lat="41.84466" lon="9.20893">
        <ele>1740.4</ele>
        <time>2015-06-20T05:17:35Z</time>
      </trkpt>
      <trkpt lat="41.84466" lon="9.20892">
        <ele>1741.4</ele>
        <time>2015-06-20T05:17:43Z</time>
      </trkpt>
      <trkpt lat="41.84468" lon="9.20889">
        <ele>1742.8</ele>
        <time>2015-06-20T05:17:54Z</time>
      </trkpt>
      <trkpt lat="41.84469" lon="9.20888">
        <ele>1743.6</ele>
        <time>2015-06-20T05:18:03Z</time>
      </trkpt>
      <trkpt lat="41.84472" lon="9.20888">
        <ele>1744.6</ele>
        <time>2015-06-20T05:18:16Z</time>
      </trkpt>
      <trkpt lat="41.84473" lon="9.20888">
        <ele>1745.8</ele>
        <time>2015-06-20T05:18:25Z</time>
      </trkpt>
      <trkpt lat="41.84475" lon="9.20884">
        <ele>1746.6</ele>
        <time>2015-06-20T05:18:35Z</time>
      </trkpt>
      <trkpt lat="41.84478" lon="9.20885">
        <ele>1747.8</ele>
        <time>2015-06-20T05:18:44Z</time>
      </trkpt>
      <trkpt lat="41.84481" lon="9.20887">
        <ele>1749</ele>
        <time>2015-06-20T05:18:56Z</time>
      </trkpt>
      <trkpt lat="41.84483" lon="9.20891">
        <ele>1749.6</ele>
        <time>2015-06-20T05:19:04Z</time>
      </trkpt>
      <trkpt lat="41.84486" lon="9.20888">
        <ele>1751.2</ele>
        <time>2015-06-20T05:19:17Z</time>
      </trkpt>
      <trkpt lat="41.84486" lon="9.20885">
        <ele>1751.6</ele>
        <time>2015-06-20T05:19:25Z</time>
      </trkpt>
      <trkpt lat="41.84485" lon="9.20882">
        <ele>1753</ele>
        <time>2015-06-20T05:19:35Z</time>
      </trkpt>
      <trkpt lat="41.84489" lon="9.20885">
        <ele>1754.4</ele>
        <time>2015-06-20T05:20:01Z</time>
      </trkpt>
      <trkpt lat="41.84489" lon="9.20884">
        <ele>1755.2</ele>
        <time>2015-06-20T05:20:11Z</time>
      </trkpt>
      <trkpt lat="41.8449" lon="9.20881">
        <ele>1756.2</ele>
        <time>2015-06-20T05:20:28Z</time>
      </trkpt>
      <trkpt lat="41.84491" lon="9.2088">
        <ele>1757.2</ele>
        <time>2015-06-20T05:20:38Z</time>
      </trkpt>
      <trkpt lat="41.8449" lon="9.20876">
        <ele>1758.2</ele>
        <time>2015-06-20T05:20:48Z</time>
      </trkpt>
      <trkpt lat="41.84491" lon="9.20873">
        <ele>1759.4</ele>
        <time>2015-06-20T05:20:59Z</time>
      </trkpt>
      <trkpt lat="41.84491" lon="9.20872">
        <ele>1760</ele>
        <time>2015-06-20T05:21:09Z</time>
      </trkpt>
      <trkpt lat="41.84491" lon="9.2087">
        <ele>1761</ele>
        <time>2015-06-20T05:21:15Z</time>
      </trkpt>
      <trkpt lat="41.84491" lon="9.20868">
        <ele>1762.4</ele>
        <time>2015-06-20T05:21:26Z</time>
      </trkpt>
      <trkpt lat="41.84494" lon="9.20868">
        <ele>1763.6</ele>
        <time>2015-06-20T05:21:35Z</time>
      </trkpt>
      <trkpt lat="41.84497" lon="9.20867">
        <ele>1764.4</ele>
        <time>2015-06-20T05:21:46Z</time>
      </trkpt>
      <trkpt lat="41.84498" lon="9.20867">
        <ele>1765.2</ele>
        <time>2015-06-20T05:21:52Z</time>
      </trkpt>
      <trkpt lat="41.84501" lon="9.20865">
        <ele>1767</ele>
        <time>2015-06-20T05:22:03Z</time>
      </trkpt>
      <trkpt lat="41.84501" lon="9.20864">
        <ele>1767.6</ele>
        <time>2015-06-20T05:22:09Z</time>
      </trkpt>
      <trkpt lat="41.84504" lon="9.20864">
        <ele>1769.2</ele>
        <time>2015-06-20T05:22:27Z</time>
      </trkpt>
      <trkpt lat="41.84507" lon="9.20863">
        <ele>1770</ele>
        <time>2015-06-20T05:22:36Z</time>
      </trkpt>
      <trkpt lat="41.84507" lon="9.2086">
        <ele>1771.4</ele>
        <time>2015-06-20T05:22:44Z</time>
      </trkpt>
      <trkpt lat="41.84504" lon="9.20851">
        <ele>1772.8</ele>
        <time>2015-06-20T05:23:11Z</time>
      </trkpt>
      <trkpt lat="41.84505" lon="9.2085">
        <ele>1773.6</ele>
        <time>2015-06-20T05:23:18Z</time>
      </trkpt>
      <trkpt lat="41.84506" lon="9.20847">
        <ele>1774.8</ele>
        <time>2015-06-20T05:23:27Z</time>
      </trkpt>
      <trkpt lat="41.84507" lon="9.20844">
        <ele>1775.6</ele>
        <time>2015-06-20T05:23:35Z</time>
      </trkpt>
      <trkpt lat="41.84507" lon="9.20841">
        <ele>1776.6</ele>
        <time>2015-06-20T05:23:42Z</time>
      </trkpt>
      <trkpt lat="41.8451" lon="9.20839">
        <ele>1777.8</ele>
        <time>2015-06-20T05:23:50Z</time>
      </trkpt>
      <trkpt lat="41.84512" lon="9.20842">
        <ele>1779</ele>
        <time>2015-06-20T05:24:00Z</time>
      </trkpt>
      <trkpt lat="41.84515" lon="9.20842">
        <ele>1780</ele>
        <time>2015-06-20T05:24:10Z</time>
      </trkpt>
      <trkpt lat="41.84516" lon="9.20839">
        <ele>1781.2</ele>
        <time>2015-06-20T05:24:22Z</time>
      </trkpt>
      <trkpt lat="41.84516" lon="9.20836">
        <ele>1782</ele>
        <time>2015-06-20T05:24:30Z</time>
      </trkpt>
      <trkpt lat="41.84516" lon="9.20831">
        <ele>1783.6</ele>
        <time>2015-06-20T05:24:44Z</time>
      </trkpt>
      <trkpt lat="41.84519" lon="9.20833">
        <ele>1784.4</ele>
        <time>2015-06-20T05:24:54Z</time>
      </trkpt>
      <trkpt lat="41.8452" lon="9.2083">
        <ele>1785.6</ele>
        <time>2015-06-20T05:25:04Z</time>
      </trkpt>
      <trkpt lat="41.84522" lon="9.20829">
        <ele>1786.6</ele>
        <time>2015-06-20T05:25:13Z</time>
      </trkpt>
      <trkpt lat="41.84524" lon="9.20827">
        <ele>1788</ele>
        <time>2015-06-20T05:25:28Z</time>
      </trkpt>
      <trkpt lat="41.84525" lon="9.20825">
        <ele>1788.6</ele>
        <time>2015-06-20T05:25:37Z</time>
      </trkpt>
      <trkpt lat="41.84527" lon="9.20823">
        <ele>1789.8</ele>
        <time>2015-06-20T05:25:46Z</time>
      </trkpt>
      <trkpt lat="41.84527" lon="9.20821">
        <ele>1791</ele>
        <time>2015-06-20T05:25:58Z</time>
      </trkpt>
      <trkpt lat="41.84528" lon="9.20818">
        <ele>1792</ele>
        <time>2015-06-20T05:26:08Z</time>
      </trkpt>
      <trkpt lat="41.8453" lon="9.20818">
        <ele>1793</ele>
        <time>2015-06-20T05:26:17Z</time>
      </trkpt>
      <trkpt lat="41.84532" lon="9.20818">
        <ele>1794</ele>
        <time>2015-06-20T05:26:28Z</time>
      </trkpt>
      <trkpt lat="41.84534" lon="9.20819">
        <ele>1795.2</ele>
        <time>2015-06-20T05:26:36Z</time>
      </trkpt>
      <trkpt lat="41.84536" lon="9.2082">
        <ele>1796.4</ele>
        <time>2015-06-20T05:26:44Z</time>
      </trkpt>
      <trkpt lat="41.84537" lon="9.20818">
        <ele>1797.8</ele>
        <time>2015-06-20T05:26:57Z</time>
      </trkpt>
      <trkpt lat="41.84538" lon="9.20817">
        <ele>1798.8</ele>
        <time>2015-06-20T05:27:07Z</time>
      </trkpt>
      <trkpt lat="41.8454" lon="9.20818">
        <ele>1799.6</ele>
        <time>2015-06-20T05:27:18Z</time>
      </trkpt>
      <trkpt lat="41.84542" lon="9.20818">
        <ele>1800.4</ele>
        <time>2015-06-20T05:27:29Z</time>
      </trkpt>
      <trkpt lat="41.84545" lon="9.20817">
        <ele>1802</ele>
        <time>2015-06-20T05:27:45Z</time>
      </trkpt>
      <trkpt lat="41.84544" lon="9.20813">
        <ele>1803.2</ele>
        <time>2015-06-20T05:27:56Z</time>
      </trkpt>
      <trkpt lat="41.84549" lon="9.20814">
        <ele>1804.2</ele>
        <time>2015-06-20T05:28:10Z</time>
      </trkpt>
      <trkpt lat="41.84551" lon="9.20814">
        <ele>1804.8</ele>
        <time>2015-06-20T05:28:17Z</time>
      </trkpt>
      <trkpt lat="41.84555" lon="9.20816">
        <ele>1806.2</ele>
        <time>2015-06-20T05:28:28Z</time>
      </trkpt>
      <trkpt lat="41.84557" lon="9.20816">
        <ele>1807.2</ele>
        <time>2015-06-20T05:28:37Z</time>
      </trkpt>
      <trkpt lat="41.84559" lon="9.20816">
        <ele>1808.2</ele>
        <time>2015-06-20T05:28:45Z</time>
      </trkpt>
      <trkpt lat="41.84565" lon="9.20817">
        <ele>1809.8</ele>
        <time>2015-06-20T05:29:23Z</time>
      </trkpt>
      <trkpt lat="41.84566" lon="9.20818">
        <ele>1810.8</ele>
        <time>2015-06-20T05:29:34Z</time>
      </trkpt>
      <trkpt lat="41.84569" lon="9.20816">
        <ele>1811.8</ele>
        <time>2015-06-20T05:29:45Z</time>
      </trkpt>
      <trkpt lat="41.84572" lon="9.20814">
        <ele>1812.6</ele>
        <time>2015-06-20T05:29:55Z</time>
      </trkpt>
      <trkpt lat="41.84572" lon="9.2082">
        <ele>1814</ele>
        <time>2015-06-20T05:30:10Z</time>
      </trkpt>
      <trkpt lat="41.84573" lon="9.20816">
        <ele>1815</ele>
        <time>2015-06-20T05:30:27Z</time>
      </trkpt>
      <trkpt lat="41.84574" lon="9.20814">
        <ele>1816.2</ele>
        <time>2015-06-20T05:30:39Z</time>
      </trkpt>
      <trkpt lat="41.84575" lon="9.20812">
        <ele>1817.2</ele>
        <time>2015-06-20T05:30:51Z</time>
      </trkpt>
      <trkpt lat="41.84576" lon="9.20811">
        <ele>1818.2</ele>
        <time>2015-06-20T05:30:58Z</time>
      </trkpt>
      <trkpt lat="41.84579" lon="9.20812">
        <ele>1819.6</ele>
        <time>2015-06-20T05:31:09Z</time>
      </trkpt>
      <trkpt lat="41.8458" lon="9.2081">
        <ele>1820.8</ele>
        <time>2015-06-20T05:31:18Z</time>
      </trkpt>
      <trkpt lat="41.84582" lon="9.20809">
        <ele>1822</ele>
        <time>2015-06-20T05:31:30Z</time>
      </trkpt>
      <trkpt lat="41.84584" lon="9.20808">
        <ele>1822.8</ele>
        <time>2015-06-20T05:31:39Z</time>
      </trkpt>
      <trkpt lat="41.84584" lon="9.20806">
        <ele>1824</ele>
        <time>2015-06-20T05:31:54Z</time>
      </trkpt>
      <trkpt lat="41.84585" lon="9.20804">
        <ele>1825.2</ele>
        <time>2015-06-20T05:32:05Z</time>
      </trkpt>
      <trkpt lat="41.84586" lon="9.20802">
        <ele>1826.4</ele>
        <time>2015-06-20T05:32:15Z</time>
      </trkpt>
      <trkpt lat="41.84587" lon="9.208">
        <ele>1827.6</ele>
        <time>2015-06-20T05:32:26Z</time>
      </trkpt>
      <trkpt lat="41.84589" lon="9.20799">
        <ele>1828.6</ele>
        <time>2015-06-20T05:32:38Z</time>
      </trkpt>
      <trkpt lat="41.84591" lon="9.20801">
        <ele>1829.8</ele>
        <time>2015-06-20T05:32:50Z</time>
      </trkpt>
      <trkpt lat="41.84595" lon="9.20797">
        <ele>1830.8</ele>
        <time>2015-06-20T05:33:04Z</time>
      </trkpt>
      <trkpt lat="41.84593" lon="9.2079">
        <ele>1832.2</ele>
        <time>2015-06-20T05:33:14Z</time>
      </trkpt>
      <trkpt lat="41.84596" lon="9.20794">
        <ele>1833.4</ele>
        <time>2015-06-20T05:33:26Z</time>
      </trkpt>
      <trkpt lat="41.846" lon="9.20793">
        <ele>1834.4</ele>
        <time>2015-06-20T05:33:38Z</time>
      </trkpt>
      <trkpt lat="41.84604" lon="9.20792">
        <ele>1835.8</ele>
        <time>2015-06-20T05:33:53Z</time>
      </trkpt>
      <trkpt lat="41.84604" lon="9.2079">
        <ele>1836.6</ele>
        <time>2015-06-20T05:34:04Z</time>
      </trkpt>
      <trkpt lat="41.84606" lon="9.20791">
        <ele>1837.4</ele>
        <time>2015-06-20T05:34:10Z</time>
      </trkpt>
      <trkpt lat="41.84609" lon="9.20791">
        <ele>1838.8</ele>
        <time>2015-06-20T05:34:23Z</time>
      </trkpt>
      <trkpt lat="41.8461" lon="9.20791">
        <ele>1840</ele>
        <time>2015-06-20T05:34:34Z</time>
      </trkpt>
      <trkpt lat="41.84612" lon="9.20788">
        <ele>1841</ele>
        <time>2015-06-20T05:34:44Z</time>
      </trkpt>
      <trkpt lat="41.84614" lon="9.20789">
        <ele>1841.6</ele>
        <time>2015-06-20T05:34:53Z</time>
      </trkpt>
      <trkpt lat="41.84616" lon="9.20789">
        <ele>1842.8</ele>
        <time>2015-06-20T05:35:01Z</time>
      </trkpt>
      <trkpt lat="41.84621" lon="9.20789">
        <ele>1844.6</ele>
        <time>2015-06-20T05:35:31Z</time>
      </trkpt>
      <trkpt lat="41.84623" lon="9.2079">
        <ele>1845</ele>
        <time>2015-06-20T05:35:38Z</time>
      </trkpt>
      <trkpt lat="41.84628" lon="9.20793">
        <ele>1846.8</ele>
        <time>2015-06-20T05:35:55Z</time>
      </trkpt>
      <trkpt lat="41.84631" lon="9.20792">
        <ele>1847.6</ele>
        <time>2015-06-20T05:36:04Z</time>
      </trkpt>
      <trkpt lat="41.84633" lon="9.20791">
        <ele>1848.8</ele>
        <time>2015-06-20T05:36:14Z</time>
      </trkpt>
      <trkpt lat="41.84635" lon="9.20793">
        <ele>1850</ele>
        <time>2015-06-20T05:36:24Z</time>
      </trkpt>
      <trkpt lat="41.84636" lon="9.20796">
        <ele>1851</ele>
        <time>2015-06-20T05:36:33Z</time>
      </trkpt>
      <trkpt lat="41.84637" lon="9.208">
        <ele>1852.4</ele>
        <time>2015-06-20T05:36:48Z</time>
      </trkpt>
      <trkpt lat="41.8464" lon="9.20798">
        <ele>1852.8</ele>
        <time>2015-06-20T05:36:56Z</time>
      </trkpt>
      <trkpt lat="41.84642" lon="9.20796">
        <ele>1854.4</ele>
        <time>2015-06-20T05:37:12Z</time>
      </trkpt>
      <trkpt lat="41.84644" lon="9.20797">
        <ele>1855.6</ele>
        <time>2015-06-20T05:37:24Z</time>
      </trkpt>
      <trkpt lat="41.84644" lon="9.20799">
        <ele>1856.6</ele>
        <time>2015-06-20T05:37:36Z</time>
      </trkpt>
      <trkpt lat="41.84647" lon="9.20796">
        <ele>1857.6</ele>
        <time>2015-06-20T05:37:49Z</time>
      </trkpt>
      <trkpt lat="41.84649" lon="9.20795">
        <ele>1858.6</ele>
        <time>2015-06-20T05:38:00Z</time>
      </trkpt>
      <trkpt lat="41.84649" lon="9.2079">
        <ele>1859.8</ele>
        <time>2015-06-20T05:38:13Z</time>
      </trkpt>
      <trkpt lat="41.8465" lon="9.20788">
        <ele>1860.6</ele>
        <time>2015-06-20T05:38:22Z</time>
      </trkpt>
      <trkpt lat="41.8465" lon="9.20787">
        <ele>1862.4</ele>
        <time>2015-06-20T05:38:36Z</time>
      </trkpt>
      <trkpt lat="41.8465" lon="9.20785">
        <ele>1863.2</ele>
        <time>2015-06-20T05:38:48Z</time>
      </trkpt>
      <trkpt lat="41.8465" lon="9.20782">
        <ele>1864.2</ele>
        <time>2015-06-20T05:39:02Z</time>
      </trkpt>
      <trkpt lat="41.84651" lon="9.20777">
        <ele>1865.2</ele>
        <time>2015-06-20T05:39:13Z</time>
      </trkpt>
      <trkpt lat="41.84651" lon="9.20775">
        <ele>1866</ele>
        <time>2015-06-20T05:39:23Z</time>
      </trkpt>
      <trkpt lat="41.84653" lon="9.20769">
        <ele>1867.4</ele>
        <time>2015-06-20T05:39:39Z</time>
      </trkpt>
      <trkpt lat="41.84653" lon="9.20767">
        <ele>1868.4</ele>
        <time>2015-06-20T05:39:47Z</time>
      </trkpt>
      <trkpt lat="41.84652" lon="9.20766">
        <ele>1869.8</ele>
        <time>2015-06-20T05:39:58Z</time>
      </trkpt>
      <trkpt lat="41.84654" lon="9.20764">
        <ele>1871.2</ele>
        <time>2015-06-20T05:40:13Z</time>
      </trkpt>
      <trkpt lat="41.84656" lon="9.20765">
        <ele>1871.6</ele>
        <time>2015-06-20T05:40:21Z</time>
      </trkpt>
      <trkpt lat="41.84661" lon="9.20761">
        <ele>1873.4</ele>
        <time>2015-06-20T05:40:36Z</time>
      </trkpt>
      <trkpt lat="41.84661" lon="9.2076">
        <ele>1873.4</ele>
        <time>2015-06-20T05:40:38Z</time>
      </trkpt>
      <trkpt lat="41.84662" lon="9.20763">
        <ele>1874.4</ele>
        <time>2015-06-20T05:40:47Z</time>
      </trkpt>
      <trkpt lat="41.84664" lon="9.20768">
        <ele>1875.4</ele>
        <time>2015-06-20T05:40:57Z</time>
      </trkpt>
      <trkpt lat="41.84672" lon="9.20777">
        <ele>1876.2</ele>
        <time>2015-06-20T05:41:41Z</time>
      </trkpt>
      <trkpt lat="41.84672" lon="9.2077">
        <ele>1877.8</ele>
        <time>2015-06-20T05:41:50Z</time>
      </trkpt>
      <trkpt lat="41.84674" lon="9.20769">
        <ele>1878.6</ele>
        <time>2015-06-20T05:41:58Z</time>
      </trkpt>
      <trkpt lat="41.84676" lon="9.20768">
        <ele>1879.8</ele>
        <time>2015-06-20T05:42:05Z</time>
      </trkpt>
      <trkpt lat="41.84678" lon="9.20768">
        <ele>1881</ele>
        <time>2015-06-20T05:42:14Z</time>
      </trkpt>
      <trkpt lat="41.84678" lon="9.20765">
        <ele>1882.2</ele>
        <time>2015-06-20T05:42:23Z</time>
      </trkpt>
      <trkpt lat="41.84678" lon="9.20764">
        <ele>1883.8</ele>
        <time>2015-06-20T05:42:27Z</time>
      </trkpt>
      <trkpt lat="41.84596" lon="9.20364">
        <ele>2001</ele>
        <time>2015-06-20T06:22:47Z</time>
      </trkpt>
      <trkpt lat="41.84593" lon="9.20363">
        <ele>2001.2</ele>
        <time>2015-06-20T06:23:43Z</time>
      </trkpt>
      <trkpt lat="41.84593" lon="9.20361">
        <ele>2001.8</ele>
        <time>2015-06-20T06:24:19Z</time>
      </trkpt>
      <trkpt lat="41.84591" lon="9.20363">
        <ele>2001.6</ele>
        <time>2015-06-20T06:25:40Z</time>
      </trkpt>
      <trkpt lat="41.84598" lon="9.20361">
        <ele>2001.2</ele>
        <time>2015-06-20T06:26:56Z</time>
      </trkpt>
      <trkpt lat="41.846" lon="9.2036">
        <ele>2001</ele>
        <time>2015-06-20T06:28:28Z</time>
      </trkpt>
      <trkpt lat="41.84604" lon="9.20367">
        <ele>2001</ele>
        <time>2015-06-20T06:29:59Z</time>
      </trkpt>
      <trkpt lat="41.84608" lon="9.20369">
        <ele>2001.4</ele>
        <time>2015-06-20T06:30:05Z</time>
      </trkpt>
      <trkpt lat="41.84608" lon="9.20368">
        <ele>2001.6</ele>
        <time>2015-06-20T06:30:09Z</time>
      </trkpt>
      <trkpt lat="41.84601" lon="9.20366">
        <ele>2002.2</ele>
        <time>2015-06-20T06:30:25Z</time>
      </trkpt>
      <trkpt lat="41.84601" lon="9.20365">
        <ele>2001.4</ele>
        <time>2015-06-20T06:30:41Z</time>
      </trkpt>
      <trkpt lat="41.84594" lon="9.20366">
        <ele>2001.2</ele>
        <time>2015-06-20T06:32:10Z</time>
      </trkpt>
      <trkpt lat="41.84594" lon="9.20366">
        <ele>2001.2</ele>
        <time>2015-06-20T06:32:12Z</time>
      </trkpt>
      <trkpt lat="41.84614" lon="9.20372">
        <ele>2001</ele>
        <time>2015-06-20T06:33:16Z</time>
      </trkpt>
      <trkpt lat="41.84622" lon="9.20373">
        <ele>2001.8</ele>
        <time>2015-06-20T06:33:23Z</time>
      </trkpt>
      <trkpt lat="41.84629" lon="9.20375">
        <ele>2002</ele>
        <time>2015-06-20T06:33:30Z</time>
      </trkpt>
      <trkpt lat="41.84634" lon="9.20377">
        <ele>2002</ele>
        <time>2015-06-20T06:33:36Z</time>
      </trkpt>
      <trkpt lat="41.84638" lon="9.20377">
        <ele>2002.2</ele>
        <time>2015-06-20T06:33:40Z</time>
      </trkpt>
      <trkpt lat="41.84651" lon="9.20377">
        <ele>2003.2</ele>
        <time>2015-06-20T06:33:57Z</time>
      </trkpt>
      <trkpt lat="41.84651" lon="9.20378">
        <ele>2003.2</ele>
        <time>2015-06-20T06:34:00Z</time>
      </trkpt>
      <trkpt lat="41.84656" lon="9.20376">
        <ele>2003.4</ele>
        <time>2015-06-20T06:34:07Z</time>
      </trkpt>
      <trkpt lat="41.8467" lon="9.20374">
        <ele>2004.2</ele>
        <time>2015-06-20T06:34:26Z</time>
      </trkpt>
      <trkpt lat="41.84687" lon="9.20382">
        <ele>2002.6</ele>
        <time>2015-06-20T06:34:51Z</time>
      </trkpt>
      <trkpt lat="41.84698" lon="9.20384">
        <ele>2003.8</ele>
        <time>2015-06-20T06:35:07Z</time>
      </trkpt>
      <trkpt lat="41.84706" lon="9.20386">
        <ele>2004.4</ele>
        <time>2015-06-20T06:35:22Z</time>
      </trkpt>
      <trkpt lat="41.84709" lon="9.20391">
        <ele>2005</ele>
        <time>2015-06-20T06:35:33Z</time>
      </trkpt>
      <trkpt lat="41.84711" lon="9.20392">
        <ele>2005.8</ele>
        <time>2015-06-20T06:35:38Z</time>
      </trkpt>
      <trkpt lat="41.84712" lon="9.20392">
        <ele>2006</ele>
        <time>2015-06-20T06:35:41Z</time>
      </trkpt>
      <trkpt lat="41.84719" lon="9.20396">
        <ele>2007.4</ele>
        <time>2015-06-20T06:36:02Z</time>
      </trkpt>
      <trkpt lat="41.84719" lon="9.20398">
        <ele>2007.8</ele>
        <time>2015-06-20T06:36:09Z</time>
      </trkpt>
      <trkpt lat="41.84722" lon="9.20399">
        <ele>2009</ele>
        <time>2015-06-20T06:36:18Z</time>
      </trkpt>
      <trkpt lat="41.84728" lon="9.204">
        <ele>2010.2</ele>
        <time>2015-06-20T06:36:29Z</time>
      </trkpt>
      <trkpt lat="41.84731" lon="9.20403">
        <ele>2010.8</ele>
        <time>2015-06-20T06:36:38Z</time>
      </trkpt>
      <trkpt lat="41.84736" lon="9.20404">
        <ele>2012</ele>
        <time>2015-06-20T06:36:45Z</time>
      </trkpt>
      <trkpt lat="41.84742" lon="9.204">
        <ele>2012</ele>
        <time>2015-06-20T06:36:58Z</time>
      </trkpt>
      <trkpt lat="41.84743" lon="9.20399">
        <ele>2012.2</ele>
        <time>2015-06-20T06:37:00Z</time>
      </trkpt>
      <trkpt lat="41.84747" lon="9.204">
        <ele>2011</ele>
        <time>2015-06-20T06:37:07Z</time>
      </trkpt>
      <trkpt lat="41.84754" lon="9.20399">
        <ele>2009.6</ele>
        <time>2015-06-20T06:37:20Z</time>
      </trkpt>
      <trkpt lat="41.84762" lon="9.20402">
        <ele>2009.4</ele>
        <time>2015-06-20T06:37:38Z</time>
      </trkpt>
      <trkpt lat="41.84768" lon="9.20408">
        <ele>2009.6</ele>
        <time>2015-06-20T06:37:57Z</time>
      </trkpt>
      <trkpt lat="41.84769" lon="9.20411">
        <ele>2010.8</ele>
        <time>2015-06-20T06:38:05Z</time>
      </trkpt>
      <trkpt lat="41.84771" lon="9.20415">
        <ele>2012</ele>
        <time>2015-06-20T06:38:14Z</time>
      </trkpt>
      <trkpt lat="41.84775" lon="9.20416">
        <ele>2013.2</ele>
        <time>2015-06-20T06:38:22Z</time>
      </trkpt>
      <trkpt lat="41.84778" lon="9.20419">
        <ele>2014</ele>
        <time>2015-06-20T06:38:31Z</time>
      </trkpt>
      <trkpt lat="41.84777" lon="9.20423">
        <ele>2015.2</ele>
        <time>2015-06-20T06:38:41Z</time>
      </trkpt>
      <trkpt lat="41.84777" lon="9.20424">
        <ele>2015.8</ele>
        <time>2015-06-20T06:38:47Z</time>
      </trkpt>
      <trkpt lat="41.84781" lon="9.20427">
        <ele>2017.2</ele>
        <time>2015-06-20T06:38:59Z</time>
      </trkpt>
      <trkpt lat="41.84781" lon="9.2043">
        <ele>2017.8</ele>
        <time>2015-06-20T06:39:10Z</time>
      </trkpt>
      <trkpt lat="41.8478" lon="9.20433">
        <ele>2019.6</ele>
        <time>2015-06-20T06:39:21Z</time>
      </trkpt>
      <trkpt lat="41.8478" lon="9.20436">
        <ele>2020.4</ele>
        <time>2015-06-20T06:39:34Z</time>
      </trkpt>
      <trkpt lat="41.84781" lon="9.2044">
        <ele>2021.4</ele>
        <time>2015-06-20T06:39:44Z</time>
      </trkpt>
      <trkpt lat="41.8478" lon="9.20442">
        <ele>2022.2</ele>
        <time>2015-06-20T06:39:53Z</time>
      </trkpt>
      <trkpt lat="41.84779" lon="9.20443">
        <ele>2023.4</ele>
        <time>2015-06-20T06:40:03Z</time>
      </trkpt>
      <trkpt lat="41.84781" lon="9.20443">
        <ele>2024.6</ele>
        <time>2015-06-20T06:40:29Z</time>
      </trkpt>
      <trkpt lat="41.84774" lon="9.20448">
        <ele>2024.8</ele>
        <time>2015-06-20T06:40:52Z</time>
      </trkpt>
      <trkpt lat="41.84772" lon="9.20449">
        <ele>2025.4</ele>
        <time>2015-06-20T06:40:57Z</time>
      </trkpt>
      <trkpt lat="41.8477" lon="9.20451">
        <ele>2026.6</ele>
        <time>2015-06-20T06:41:03Z</time>
      </trkpt>
      <trkpt lat="41.84767" lon="9.20455">
        <ele>2028.2</ele>
        <time>2015-06-20T06:41:14Z</time>
      </trkpt>
      <trkpt lat="41.84769" lon="9.20457">
        <ele>2028.8</ele>
        <time>2015-06-20T06:41:20Z</time>
      </trkpt>
      <trkpt lat="41.84769" lon="9.2046">
        <ele>2030</ele>
        <time>2015-06-20T06:41:28Z</time>
      </trkpt>
      <trkpt lat="41.84771" lon="9.20463">
        <ele>2031.4</ele>
        <time>2015-06-20T06:41:37Z</time>
      </trkpt>
      <trkpt lat="41.8477" lon="9.20466">
        <ele>2032</ele>
        <time>2015-06-20T06:41:43Z</time>
      </trkpt>
      <trkpt lat="41.84773" lon="9.20468">
        <ele>2033.2</ele>
        <time>2015-06-20T06:41:50Z</time>
      </trkpt>
      <trkpt lat="41.84773" lon="9.20472">
        <ele>2034.4</ele>
        <time>2015-06-20T06:41:57Z</time>
      </trkpt>
      <trkpt lat="41.84771" lon="9.20473">
        <ele>2035.4</ele>
        <time>2015-06-20T06:42:04Z</time>
      </trkpt>
      <trkpt lat="41.84777" lon="9.20477">
        <ele>2036.6</ele>
        <time>2015-06-20T06:42:14Z</time>
      </trkpt>
      <trkpt lat="41.84783" lon="9.20483">
        <ele>2037.6</ele>
        <time>2015-06-20T06:42:28Z</time>
      </trkpt>
      <trkpt lat="41.84793" lon="9.20487">
        <ele>2038.8</ele>
        <time>2015-06-20T06:42:41Z</time>
      </trkpt>
      <trkpt lat="41.84799" lon="9.20492">
        <ele>2039.6</ele>
        <time>2015-06-20T06:42:53Z</time>
      </trkpt>
      <trkpt lat="41.848" lon="9.20497">
        <ele>2040.6</ele>
        <time>2015-06-20T06:43:01Z</time>
      </trkpt>
      <trkpt lat="41.84801" lon="9.20502">
        <ele>2041.4</ele>
        <time>2015-06-20T06:43:10Z</time>
      </trkpt>
      <trkpt lat="41.84803" lon="9.20505">
        <ele>2042.6</ele>
        <time>2015-06-20T06:43:17Z</time>
      </trkpt>
      <trkpt lat="41.84807" lon="9.20509">
        <ele>2044</ele>
        <time>2015-06-20T06:43:25Z</time>
      </trkpt>
      <trkpt lat="41.84809" lon="9.20513">
        <ele>2044.8</ele>
        <time>2015-06-20T06:43:33Z</time>
      </trkpt>
      <trkpt lat="41.8481" lon="9.20516">
        <ele>2046</ele>
        <time>2015-06-20T06:43:41Z</time>
      </trkpt>
      <trkpt lat="41.84811" lon="9.20521">
        <ele>2047</ele>
        <time>2015-06-20T06:43:51Z</time>
      </trkpt>
      <trkpt lat="41.84813" lon="9.20521">
        <ele>2047.8</ele>
        <time>2015-06-20T06:43:58Z</time>
      </trkpt>
      <trkpt lat="41.84817" lon="9.20525">
        <ele>2049.6</ele>
        <time>2015-06-20T06:44:10Z</time>
      </trkpt>
      <trkpt lat="41.84819" lon="9.20529">
        <ele>2050.4</ele>
        <time>2015-06-20T06:44:47Z</time>
      </trkpt>
      <trkpt lat="41.84821" lon="9.20535">
        <ele>2051</ele>
        <time>2015-06-20T06:45:00Z</time>
      </trkpt>
      <trkpt lat="41.84822" lon="9.20535">
        <ele>2051.2</ele>
        <time>2015-06-20T06:45:01Z</time>
      </trkpt>
      <trkpt lat="41.84822" lon="9.2054">
        <ele>2051.8</ele>
        <time>2015-06-20T06:45:09Z</time>
      </trkpt>
      <trkpt lat="41.84827" lon="9.20541">
        <ele>2052.8</ele>
        <time>2015-06-20T06:45:16Z</time>
      </trkpt>
      <trkpt lat="41.8484" lon="9.2055">
        <ele>2053.6</ele>
        <time>2015-06-20T06:45:37Z</time>
      </trkpt>
      <trkpt lat="41.84843" lon="9.20564">
        <ele>2054.8</ele>
        <time>2015-06-20T06:45:56Z</time>
      </trkpt>
      <trkpt lat="41.84844" lon="9.20569">
        <ele>2055.4</ele>
        <time>2015-06-20T06:46:02Z</time>
      </trkpt>
      <trkpt lat="41.84847" lon="9.20571">
        <ele>2056</ele>
        <time>2015-06-20T06:46:06Z</time>
      </trkpt>
      <trkpt lat="41.84851" lon="9.20572">
        <ele>2056.6</ele>
        <time>2015-06-20T06:46:10Z</time>
      </trkpt>
      <trkpt lat="41.84856" lon="9.20575">
        <ele>2057.8</ele>
        <time>2015-06-20T06:46:24Z</time>
      </trkpt>
      <trkpt lat="41.84859" lon="9.20575">
        <ele>2058.8</ele>
        <time>2015-06-20T06:46:33Z</time>
      </trkpt>
      <trkpt lat="41.84861" lon="9.20576">
        <ele>2059.6</ele>
        <time>2015-06-20T06:46:43Z</time>
      </trkpt>
      <trkpt lat="41.8487" lon="9.20588">
        <ele>2060</ele>
        <time>2015-06-20T06:47:11Z</time>
      </trkpt>
      <trkpt lat="41.84875" lon="9.20609">
        <ele>2059.2</ele>
        <time>2015-06-20T06:47:45Z</time>
      </trkpt>
      <trkpt lat="41.84874" lon="9.20614">
        <ele>2060.2</ele>
        <time>2015-06-20T06:47:53Z</time>
      </trkpt>
      <trkpt lat="41.84875" lon="9.20617">
        <ele>2061.4</ele>
        <time>2015-06-20T06:48:02Z</time>
      </trkpt>
      <trkpt lat="41.84877" lon="9.20617">
        <ele>2062.6</ele>
        <time>2015-06-20T06:48:14Z</time>
      </trkpt>
      <trkpt lat="41.84883" lon="9.20614">
        <ele>2063.4</ele>
        <time>2015-06-20T06:48:29Z</time>
      </trkpt>
      <trkpt lat="41.84886" lon="9.20616">
        <ele>2064.2</ele>
        <time>2015-06-20T06:48:40Z</time>
      </trkpt>
      <trkpt lat="41.84885" lon="9.20618">
        <ele>2065.4</ele>
        <time>2015-06-20T06:48:53Z</time>
      </trkpt>
      <trkpt lat="41.84887" lon="9.20619">
        <ele>2066.2</ele>
        <time>2015-06-20T06:49:00Z</time>
      </trkpt>
      <trkpt lat="41.84889" lon="9.20623">
        <ele>2067.6</ele>
        <time>2015-06-20T06:49:11Z</time>
      </trkpt>
      <trkpt lat="41.84891" lon="9.20625">
        <ele>2068.6</ele>
        <time>2015-06-20T06:49:18Z</time>
      </trkpt>
      <trkpt lat="41.8489" lon="9.20628">
        <ele>2069.6</ele>
        <time>2015-06-20T06:49:28Z</time>
      </trkpt>
      <trkpt lat="41.84893" lon="9.20629">
        <ele>2070.4</ele>
        <time>2015-06-20T06:49:36Z</time>
      </trkpt>
      <trkpt lat="41.84898" lon="9.20631">
        <ele>2071.8</ele>
        <time>2015-06-20T06:49:47Z</time>
      </trkpt>
      <trkpt lat="41.84903" lon="9.2063">
        <ele>2072.6</ele>
        <time>2015-06-20T06:49:57Z</time>
      </trkpt>
      <trkpt lat="41.84906" lon="9.20638">
        <ele>2074</ele>
        <time>2015-06-20T06:50:14Z</time>
      </trkpt>
      <trkpt lat="41.84903" lon="9.20638">
        <ele>2074.8</ele>
        <time>2015-06-20T06:50:22Z</time>
      </trkpt>
      <trkpt lat="41.84903" lon="9.20642">
        <ele>2075.8</ele>
        <time>2015-06-20T06:50:31Z</time>
      </trkpt>
      <trkpt lat="41.84907" lon="9.20643">
        <ele>2077</ele>
        <time>2015-06-20T06:50:40Z</time>
      </trkpt>
      <trkpt lat="41.84908" lon="9.20644">
        <ele>2077</ele>
        <time>2015-06-20T06:50:41Z</time>
      </trkpt>
      <trkpt lat="41.84911" lon="9.20641">
        <ele>2078.4</ele>
        <time>2015-06-20T06:50:54Z</time>
      </trkpt>
      <trkpt lat="41.84911" lon="9.20642">
        <ele>2079.2</ele>
        <time>2015-06-20T06:51:05Z</time>
      </trkpt>
      <trkpt lat="41.84913" lon="9.20644">
        <ele>2079.8</ele>
        <time>2015-06-20T06:51:13Z</time>
      </trkpt>
      <trkpt lat="41.84912" lon="9.20646">
        <ele>2080.8</ele>
        <time>2015-06-20T06:51:21Z</time>
      </trkpt>
      <trkpt lat="41.84915" lon="9.20648">
        <ele>2082</ele>
        <time>2015-06-20T06:51:30Z</time>
      </trkpt>
      <trkpt lat="41.8492" lon="9.20649">
        <ele>2083.2</ele>
        <time>2015-06-20T06:51:42Z</time>
      </trkpt>
      <trkpt lat="41.84927" lon="9.20657">
        <ele>2084.6</ele>
        <time>2015-06-20T06:51:57Z</time>
      </trkpt>
      <trkpt lat="41.84932" lon="9.20666">
        <ele>2085.4</ele>
        <time>2015-06-20T06:52:16Z</time>
      </trkpt>
      <trkpt lat="41.8494" lon="9.20671">
        <ele>2086.4</ele>
        <time>2015-06-20T06:52:29Z</time>
      </trkpt>
      <trkpt lat="41.8494" lon="9.20673">
        <ele>2086.8</ele>
        <time>2015-06-20T06:52:37Z</time>
      </trkpt>
      <trkpt lat="41.84936" lon="9.20675">
        <ele>2088</ele>
        <time>2015-06-20T06:52:45Z</time>
      </trkpt>
      <trkpt lat="41.84933" lon="9.20678">
        <ele>2089.2</ele>
        <time>2015-06-20T06:52:55Z</time>
      </trkpt>
      <trkpt lat="41.84931" lon="9.2068">
        <ele>2090</ele>
        <time>2015-06-20T06:53:08Z</time>
      </trkpt>
      <trkpt lat="41.84935" lon="9.20685">
        <ele>2091.2</ele>
        <time>2015-06-20T06:53:20Z</time>
      </trkpt>
      <trkpt lat="41.84938" lon="9.20688">
        <ele>2092</ele>
        <time>2015-06-20T06:53:32Z</time>
      </trkpt>
      <trkpt lat="41.84942" lon="9.20695">
        <ele>2093.4</ele>
        <time>2015-06-20T06:53:43Z</time>
      </trkpt>
      <trkpt lat="41.84945" lon="9.20702">
        <ele>2094.2</ele>
        <time>2015-06-20T06:53:55Z</time>
      </trkpt>
      <trkpt lat="41.8495" lon="9.20706">
        <ele>2095</ele>
        <time>2015-06-20T06:54:04Z</time>
      </trkpt>
      <trkpt lat="41.84956" lon="9.20712">
        <ele>2096.2</ele>
        <time>2015-06-20T06:54:18Z</time>
      </trkpt>
      <trkpt lat="41.84963" lon="9.2072">
        <ele>2097.8</ele>
        <time>2015-06-20T06:54:31Z</time>
      </trkpt>
      <trkpt lat="41.84969" lon="9.20724">
        <ele>2098.4</ele>
        <time>2015-06-20T06:54:42Z</time>
      </trkpt>
      <trkpt lat="41.84975" lon="9.2073">
        <ele>2099</ele>
        <time>2015-06-20T06:54:53Z</time>
      </trkpt>
      <trkpt lat="41.84978" lon="9.20741">
        <ele>2100.2</ele>
        <time>2015-06-20T06:55:06Z</time>
      </trkpt>
      <trkpt lat="41.84974" lon="9.20747">
        <ele>2101</ele>
        <time>2015-06-20T06:55:18Z</time>
      </trkpt>
      <trkpt lat="41.84973" lon="9.20748">
        <ele>2101.2</ele>
        <time>2015-06-20T06:55:21Z</time>
      </trkpt>
      <trkpt lat="41.8497" lon="9.20756">
        <ele>2102.4</ele>
        <time>2015-06-20T06:55:35Z</time>
      </trkpt>
      <trkpt lat="41.84968" lon="9.20759">
        <ele>2103</ele>
        <time>2015-06-20T06:55:41Z</time>
      </trkpt>
      <trkpt lat="41.84965" lon="9.2076">
        <ele>2104.4</ele>
        <time>2015-06-20T06:55:50Z</time>
      </trkpt>
      <trkpt lat="41.84971" lon="9.20766">
        <ele>2104.8</ele>
        <time>2015-06-20T06:58:10Z</time>
      </trkpt>
      <trkpt lat="41.84971" lon="9.20765">
        <ele>2104.4</ele>
        <time>2015-06-20T07:00:00Z</time>
      </trkpt>
      <trkpt lat="41.84989" lon="9.20771">
        <ele>2103.2</ele>
        <time>2015-06-20T07:00:21Z</time>
      </trkpt>
      <trkpt lat="41.84991" lon="9.20771">
        <ele>2103</ele>
        <time>2015-06-20T07:00:24Z</time>
      </trkpt>
      <trkpt lat="41.84999" lon="9.2077">
        <ele>2101.2</ele>
        <time>2015-06-20T07:00:32Z</time>
      </trkpt>
      <trkpt lat="41.85004" lon="9.20771">
        <ele>2100.4</ele>
        <time>2015-06-20T07:00:37Z</time>
      </trkpt>
      <trkpt lat="41.85017" lon="9.20766">
        <ele>2098.4</ele>
        <time>2015-06-20T07:00:49Z</time>
      </trkpt>
      <trkpt lat="41.85023" lon="9.20768">
        <ele>2098</ele>
        <time>2015-06-20T07:00:55Z</time>
      </trkpt>
      <trkpt lat="41.85028" lon="9.20769">
        <ele>2097.8</ele>
        <time>2015-06-20T07:01:00Z</time>
      </trkpt>
      <trkpt lat="41.85029" lon="9.20769">
        <ele>2098</ele>
        <time>2015-06-20T07:01:02Z</time>
      </trkpt>
      <trkpt lat="41.85036" lon="9.20764">
        <ele>2097</ele>
        <time>2015-06-20T07:01:27Z</time>
      </trkpt>
      <trkpt lat="41.85037" lon="9.20759">
        <ele>2096.2</ele>
        <time>2015-06-20T07:01:36Z</time>
      </trkpt>
      <trkpt lat="41.8504" lon="9.20759">
        <ele>2095.2</ele>
        <time>2015-06-20T07:01:42Z</time>
      </trkpt>
      <trkpt lat="41.85043" lon="9.20759">
        <ele>2094</ele>
        <time>2015-06-20T07:01:49Z</time>
      </trkpt>
      <trkpt lat="41.85045" lon="9.20755">
        <ele>2092.6</ele>
        <time>2015-06-20T07:01:59Z</time>
      </trkpt>
      <trkpt lat="41.85049" lon="9.20753">
        <ele>2091.8</ele>
        <time>2015-06-20T07:02:06Z</time>
      </trkpt>
      <trkpt lat="41.85052" lon="9.20756">
        <ele>2091.2</ele>
        <time>2015-06-20T07:02:10Z</time>
      </trkpt>
      <trkpt lat="41.85054" lon="9.20758">
        <ele>2090.4</ele>
        <time>2015-06-20T07:02:13Z</time>
      </trkpt>
      <trkpt lat="41.85057" lon="9.2076">
        <ele>2089.6</ele>
        <time>2015-06-20T07:02:16Z</time>
      </trkpt>
      <trkpt lat="41.85059" lon="9.20761">
        <ele>2089.4</ele>
        <time>2015-06-20T07:02:18Z</time>
      </trkpt>
      <trkpt lat="41.85069" lon="9.20761">
        <ele>2088.8</ele>
        <time>2015-06-20T07:02:32Z</time>
      </trkpt>
      <trkpt lat="41.85075" lon="9.20762">
        <ele>2088.2</ele>
        <time>2015-06-20T07:02:40Z</time>
      </trkpt>
      <trkpt lat="41.85082" lon="9.20762">
        <ele>2086.8</ele>
        <time>2015-06-20T07:02:56Z</time>
      </trkpt>
      <trkpt lat="41.85086" lon="9.20763">
        <ele>2085.6</ele>
        <time>2015-06-20T07:03:04Z</time>
      </trkpt>
      <trkpt lat="41.85089" lon="9.20762">
        <ele>2084.6</ele>
        <time>2015-06-20T07:03:15Z</time>
      </trkpt>
      <trkpt lat="41.85093" lon="9.20764">
        <ele>2083.8</ele>
        <time>2015-06-20T07:03:20Z</time>
      </trkpt>
      <trkpt lat="41.85094" lon="9.20765">
        <ele>2083.2</ele>
        <time>2015-06-20T07:03:22Z</time>
      </trkpt>
      <trkpt lat="41.851" lon="9.2077">
        <ele>2081.6</ele>
        <time>2015-06-20T07:03:37Z</time>
      </trkpt>
      <trkpt lat="41.85101" lon="9.20767">
        <ele>2081.4</ele>
        <time>2015-06-20T07:03:42Z</time>
      </trkpt>
      <trkpt lat="41.85105" lon="9.20767">
        <ele>2079.8</ele>
        <time>2015-06-20T07:03:49Z</time>
      </trkpt>
      <trkpt lat="41.85108" lon="9.20766">
        <ele>2078.4</ele>
        <time>2015-06-20T07:03:59Z</time>
      </trkpt>
      <trkpt lat="41.85112" lon="9.20766">
        <ele>2077.4</ele>
        <time>2015-06-20T07:04:07Z</time>
      </trkpt>
      <trkpt lat="41.85116" lon="9.20771">
        <ele>2076.2</ele>
        <time>2015-06-20T07:04:14Z</time>
      </trkpt>
      <trkpt lat="41.8512" lon="9.20769">
        <ele>2074.8</ele>
        <time>2015-06-20T07:04:28Z</time>
      </trkpt>
      <trkpt lat="41.85123" lon="9.20768">
        <ele>2074.2</ele>
        <time>2015-06-20T07:04:34Z</time>
      </trkpt>
      <trkpt lat="41.85128" lon="9.20768">
        <ele>2072.8</ele>
        <time>2015-06-20T07:04:41Z</time>
      </trkpt>
      <trkpt lat="41.85135" lon="9.2077">
        <ele>2071.6</ele>
        <time>2015-06-20T07:04:49Z</time>
      </trkpt>
      <trkpt lat="41.85142" lon="9.20778">
        <ele>2070.2</ele>
        <time>2015-06-20T07:05:00Z</time>
      </trkpt>
      <trkpt lat="41.8516" lon="9.20783">
        <ele>2068.8</ele>
        <time>2015-06-20T07:05:19Z</time>
      </trkpt>
      <trkpt lat="41.85166" lon="9.20784">
        <ele>2068.6</ele>
        <time>2015-06-20T07:05:25Z</time>
      </trkpt>
      <trkpt lat="41.85167" lon="9.20785">
        <ele>2068.4</ele>
        <time>2015-06-20T07:05:27Z</time>
      </trkpt>
      <trkpt lat="41.85172" lon="9.20784">
        <ele>2068</ele>
        <time>2015-06-20T07:05:35Z</time>
      </trkpt>
      <trkpt lat="41.85176" lon="9.20781">
        <ele>2066.8</ele>
        <time>2015-06-20T07:05:50Z</time>
      </trkpt>
      <trkpt lat="41.85182" lon="9.20781">
        <ele>2066</ele>
        <time>2015-06-20T07:05:58Z</time>
      </trkpt>
      <trkpt lat="41.85183" lon="9.20782">
        <ele>2065.6</ele>
        <time>2015-06-20T07:05:59Z</time>
      </trkpt>
      <trkpt lat="41.85185" lon="9.20784">
        <ele>2065.4</ele>
        <time>2015-06-20T07:06:02Z</time>
      </trkpt>
      <trkpt lat="41.85187" lon="9.20785">
        <ele>2064.6</ele>
        <time>2015-06-20T07:06:08Z</time>
      </trkpt>
      <trkpt lat="41.85197" lon="9.20788">
        <ele>2063.2</ele>
        <time>2015-06-20T07:06:22Z</time>
      </trkpt>
      <trkpt lat="41.85198" lon="9.20789">
        <ele>2063</ele>
        <time>2015-06-20T07:06:24Z</time>
      </trkpt>
      <trkpt lat="41.85201" lon="9.20788">
        <ele>2062.8</ele>
        <time>2015-06-20T07:06:28Z</time>
      </trkpt>
      <trkpt lat="41.85203" lon="9.20786">
        <ele>2062.2</ele>
        <time>2015-06-20T07:06:31Z</time>
      </trkpt>
      <trkpt lat="41.85205" lon="9.20786">
        <ele>2061.8</ele>
        <time>2015-06-20T07:06:34Z</time>
      </trkpt>
      <trkpt lat="41.85208" lon="9.2078">
        <ele>2060.2</ele>
        <time>2015-06-20T07:06:43Z</time>
      </trkpt>
      <trkpt lat="41.85213" lon="9.20776">
        <ele>2059.4</ele>
        <time>2015-06-20T07:06:51Z</time>
      </trkpt>
      <trkpt lat="41.85219" lon="9.20778">
        <ele>2058.2</ele>
        <time>2015-06-20T07:06:59Z</time>
      </trkpt>
      <trkpt lat="41.85224" lon="9.20776">
        <ele>2057</ele>
        <time>2015-06-20T07:07:08Z</time>
      </trkpt>
      <trkpt lat="41.85227" lon="9.20773">
        <ele>2055.8</ele>
        <time>2015-06-20T07:07:18Z</time>
      </trkpt>
      <trkpt lat="41.8523" lon="9.20772">
        <ele>2055</ele>
        <time>2015-06-20T07:07:24Z</time>
      </trkpt>
      <trkpt lat="41.85232" lon="9.20769">
        <ele>2053.6</ele>
        <time>2015-06-20T07:07:32Z</time>
      </trkpt>
      <trkpt lat="41.85234" lon="9.20764">
        <ele>2052.4</ele>
        <time>2015-06-20T07:07:41Z</time>
      </trkpt>
      <trkpt lat="41.85238" lon="9.20763">
        <ele>2051.6</ele>
        <time>2015-06-20T07:07:47Z</time>
      </trkpt>
      <trkpt lat="41.85237" lon="9.20758">
        <ele>2050.6</ele>
        <time>2015-06-20T07:07:57Z</time>
      </trkpt>
      <trkpt lat="41.85235" lon="9.20752">
        <ele>2049.4</ele>
        <time>2015-06-20T07:08:05Z</time>
      </trkpt>
      <trkpt lat="41.8524" lon="9.20751">
        <ele>2048</ele>
        <time>2015-06-20T07:08:14Z</time>
      </trkpt>
      <trkpt lat="41.85244" lon="9.2075">
        <ele>2047</ele>
        <time>2015-06-20T07:08:22Z</time>
      </trkpt>
      <trkpt lat="41.8525" lon="9.2075">
        <ele>2046</ele>
        <time>2015-06-20T07:08:30Z</time>
      </trkpt>
      <trkpt lat="41.85251" lon="9.20752">
        <ele>2045.8</ele>
        <time>2015-06-20T07:08:32Z</time>
      </trkpt>
      <trkpt lat="41.85251" lon="9.20754">
        <ele>2045.4</ele>
        <time>2015-06-20T07:08:34Z</time>
      </trkpt>
      <trkpt lat="41.85253" lon="9.20755">
        <ele>2045.2</ele>
        <time>2015-06-20T07:08:36Z</time>
      </trkpt>
      <trkpt lat="41.85258" lon="9.20749">
        <ele>2045</ele>
        <time>2015-06-20T07:08:45Z</time>
      </trkpt>
      <trkpt lat="41.85262" lon="9.20747">
        <ele>2043.8</ele>
        <time>2015-06-20T07:08:53Z</time>
      </trkpt>
      <trkpt lat="41.85267" lon="9.20745">
        <ele>2042.6</ele>
        <time>2015-06-20T07:09:02Z</time>
      </trkpt>
      <trkpt lat="41.85269" lon="9.20743">
        <ele>2041.8</ele>
        <time>2015-06-20T07:09:10Z</time>
      </trkpt>
      <trkpt lat="41.85273" lon="9.20742">
        <ele>2040.8</ele>
        <time>2015-06-20T07:09:15Z</time>
      </trkpt>
      <trkpt lat="41.85291" lon="9.20735">
        <ele>2038.8</ele>
        <time>2015-06-20T07:09:36Z</time>
      </trkpt>
      <trkpt lat="41.85294" lon="9.20736">
        <ele>2038.6</ele>
        <time>2015-06-20T07:09:40Z</time>
      </trkpt>
      <trkpt lat="41.85304" lon="9.20731">
        <ele>2038</ele>
        <time>2015-06-20T07:09:52Z</time>
      </trkpt>
      <trkpt lat="41.85317" lon="9.20729">
        <ele>2038.2</ele>
        <time>2015-06-20T07:10:09Z</time>
      </trkpt>
      <trkpt lat="41.85327" lon="9.20732">
        <ele>2037</ele>
        <time>2015-06-20T07:10:19Z</time>
      </trkpt>
      <trkpt lat="41.85329" lon="9.20732">
        <ele>2036.8</ele>
        <time>2015-06-20T07:10:22Z</time>
      </trkpt>
      <trkpt lat="41.85338" lon="9.20726">
        <ele>2036.6</ele>
        <time>2015-06-20T07:10:40Z</time>
      </trkpt>
      <trkpt lat="41.85341" lon="9.20726">
        <ele>2036.4</ele>
        <time>2015-06-20T07:10:45Z</time>
      </trkpt>
      <trkpt lat="41.85344" lon="9.20727">
        <ele>2035</ele>
        <time>2015-06-20T07:10:52Z</time>
      </trkpt>
      <trkpt lat="41.85348" lon="9.20726">
        <ele>2033.2</ele>
        <time>2015-06-20T07:11:05Z</time>
      </trkpt>
      <trkpt lat="41.85353" lon="9.20726">
        <ele>2032.6</ele>
        <time>2015-06-20T07:11:17Z</time>
      </trkpt>
      <trkpt lat="41.85357" lon="9.20724">
        <ele>2031.4</ele>
        <time>2015-06-20T07:11:28Z</time>
      </trkpt>
      <trkpt lat="41.85358" lon="9.20722">
        <ele>2031</ele>
        <time>2015-06-20T07:11:32Z</time>
      </trkpt>
      <trkpt lat="41.85359" lon="9.20722">
        <ele>2029.6</ele>
        <time>2015-06-20T07:11:38Z</time>
      </trkpt>
      <trkpt lat="41.8536" lon="9.20722">
        <ele>2028.2</ele>
        <time>2015-06-20T07:11:45Z</time>
      </trkpt>
      <trkpt lat="41.85362" lon="9.2072">
        <ele>2027.2</ele>
        <time>2015-06-20T07:11:54Z</time>
      </trkpt>
      <trkpt lat="41.85369" lon="9.20722">
        <ele>2025.4</ele>
        <time>2015-06-20T07:12:15Z</time>
      </trkpt>
      <trkpt lat="41.85371" lon="9.20718">
        <ele>2025.2</ele>
        <time>2015-06-20T07:12:21Z</time>
      </trkpt>
      <trkpt lat="41.85373" lon="9.20722">
        <ele>2023.6</ele>
        <time>2015-06-20T07:12:29Z</time>
      </trkpt>
      <trkpt lat="41.85377" lon="9.20721">
        <ele>2022.8</ele>
        <time>2015-06-20T07:12:39Z</time>
      </trkpt>
      <trkpt lat="41.85381" lon="9.20719">
        <ele>2021.6</ele>
        <time>2015-06-20T07:12:45Z</time>
      </trkpt>
      <trkpt lat="41.85385" lon="9.20715">
        <ele>2020.6</ele>
        <time>2015-06-20T07:12:51Z</time>
      </trkpt>
      <trkpt lat="41.85386" lon="9.20713">
        <ele>2020</ele>
        <time>2015-06-20T07:12:54Z</time>
      </trkpt>
      <trkpt lat="41.85387" lon="9.20709">
        <ele>2019.2</ele>
        <time>2015-06-20T07:13:01Z</time>
      </trkpt>
      <trkpt lat="41.85392" lon="9.20707">
        <ele>2018.4</ele>
        <time>2015-06-20T07:13:08Z</time>
      </trkpt>
      <trkpt lat="41.85396" lon="9.20703">
        <ele>2017</ele>
        <time>2015-06-20T07:13:18Z</time>
      </trkpt>
      <trkpt lat="41.85401" lon="9.207">
        <ele>2015.6</ele>
        <time>2015-06-20T07:13:31Z</time>
      </trkpt>
      <trkpt lat="41.85405" lon="9.20698">
        <ele>2014.6</ele>
        <time>2015-06-20T07:13:40Z</time>
      </trkpt>
      <trkpt lat="41.8541" lon="9.20695">
        <ele>2013.8</ele>
        <time>2015-06-20T07:13:48Z</time>
      </trkpt>
      <trkpt lat="41.85414" lon="9.20688">
        <ele>2012.6</ele>
        <time>2015-06-20T07:13:58Z</time>
      </trkpt>
      <trkpt lat="41.85416" lon="9.20684">
        <ele>2011.8</ele>
        <time>2015-06-20T07:14:04Z</time>
      </trkpt>
      <trkpt lat="41.85417" lon="9.2068">
        <ele>2010.2</ele>
        <time>2015-06-20T07:14:12Z</time>
      </trkpt>
      <trkpt lat="41.8542" lon="9.20678">
        <ele>2009.8</ele>
        <time>2015-06-20T07:14:18Z</time>
      </trkpt>
      <trkpt lat="41.85423" lon="9.20677">
        <ele>2008</ele>
        <time>2015-06-20T07:14:27Z</time>
      </trkpt>
      <trkpt lat="41.85427" lon="9.20675">
        <ele>2007</ele>
        <time>2015-06-20T07:14:35Z</time>
      </trkpt>
      <trkpt lat="41.85431" lon="9.20675">
        <ele>2006.4</ele>
        <time>2015-06-20T07:14:40Z</time>
      </trkpt>
      <trkpt lat="41.85442" lon="9.20678">
        <ele>2004.8</ele>
        <time>2015-06-20T07:14:56Z</time>
      </trkpt>
      <trkpt lat="41.85442" lon="9.20679">
        <ele>2004.6</ele>
        <time>2015-06-20T07:14:58Z</time>
      </trkpt>
      <trkpt lat="41.85447" lon="9.20669">
        <ele>2003.4</ele>
        <time>2015-06-20T07:15:38Z</time>
      </trkpt>
      <trkpt lat="41.85446" lon="9.20664">
        <ele>2002.8</ele>
        <time>2015-06-20T07:15:44Z</time>
      </trkpt>
      <trkpt lat="41.85445" lon="9.2066">
        <ele>2002</ele>
        <time>2015-06-20T07:15:49Z</time>
      </trkpt>
      <trkpt lat="41.85444" lon="9.20651">
        <ele>2000.2</ele>
        <time>2015-06-20T07:15:56Z</time>
      </trkpt>
      <trkpt lat="41.85444" lon="9.20648">
        <ele>2000.2</ele>
        <time>2015-06-20T07:15:58Z</time>
      </trkpt>
      <trkpt lat="41.85447" lon="9.20643">
        <ele>1999.6</ele>
        <time>2015-06-20T07:16:03Z</time>
      </trkpt>
      <trkpt lat="41.85449" lon="9.2064">
        <ele>1999</ele>
        <time>2015-06-20T07:16:06Z</time>
      </trkpt>
      <trkpt lat="41.85457" lon="9.20631">
        <ele>1997.8</ele>
        <time>2015-06-20T07:16:18Z</time>
      </trkpt>
      <trkpt lat="41.85458" lon="9.2063">
        <ele>1997.6</ele>
        <time>2015-06-20T07:16:20Z</time>
      </trkpt>
      <trkpt lat="41.85461" lon="9.20627">
        <ele>1997.2</ele>
        <time>2015-06-20T07:16:24Z</time>
      </trkpt>
      <trkpt lat="41.85466" lon="9.2062">
        <ele>1995.8</ele>
        <time>2015-06-20T07:16:33Z</time>
      </trkpt>
      <trkpt lat="41.85466" lon="9.20619">
        <ele>1995.8</ele>
        <time>2015-06-20T07:16:34Z</time>
      </trkpt>
      <trkpt lat="41.85468" lon="9.20614">
        <ele>1995.2</ele>
        <time>2015-06-20T07:16:41Z</time>
      </trkpt>
      <trkpt lat="41.85471" lon="9.20612">
        <ele>1993.8</ele>
        <time>2015-06-20T07:16:49Z</time>
      </trkpt>
      <trkpt lat="41.85475" lon="9.20608">
        <ele>1993.2</ele>
        <time>2015-06-20T07:16:54Z</time>
      </trkpt>
      <trkpt lat="41.85481" lon="9.20604">
        <ele>1991.6</ele>
        <time>2015-06-20T07:17:02Z</time>
      </trkpt>
      <trkpt lat="41.85487" lon="9.20598">
        <ele>1990.8</ele>
        <time>2015-06-20T07:17:11Z</time>
      </trkpt>
      <trkpt lat="41.85495" lon="9.20596">
        <ele>1989.4</ele>
        <time>2015-06-20T07:17:21Z</time>
      </trkpt>
      <trkpt lat="41.85498" lon="9.20595">
        <ele>1989.2</ele>
        <time>2015-06-20T07:17:24Z</time>
      </trkpt>
      <trkpt lat="41.85499" lon="9.20595">
        <ele>1988.8</ele>
        <time>2015-06-20T07:17:26Z</time>
      </trkpt>
      <trkpt lat="41.85506" lon="9.20593">
        <ele>1988</ele>
        <time>2015-06-20T07:17:34Z</time>
      </trkpt>
      <trkpt lat="41.85509" lon="9.20593">
        <ele>1987.8</ele>
        <time>2015-06-20T07:17:38Z</time>
      </trkpt>
      <trkpt lat="41.85515" lon="9.20591">
        <ele>1987.4</ele>
        <time>2015-06-20T07:17:46Z</time>
      </trkpt>
      <trkpt lat="41.85519" lon="9.2059">
        <ele>1986.4</ele>
        <time>2015-06-20T07:17:52Z</time>
      </trkpt>
      <trkpt lat="41.85527" lon="9.20593">
        <ele>1985</ele>
        <time>2015-06-20T07:18:02Z</time>
      </trkpt>
      <trkpt lat="41.8553" lon="9.20596">
        <ele>1984.4</ele>
        <time>2015-06-20T07:18:06Z</time>
      </trkpt>
      <trkpt lat="41.85536" lon="9.20597">
        <ele>1984</ele>
        <time>2015-06-20T07:18:14Z</time>
      </trkpt>
      <trkpt lat="41.8554" lon="9.20597">
        <ele>1983.2</ele>
        <time>2015-06-20T07:18:20Z</time>
      </trkpt>
      <trkpt lat="41.85546" lon="9.20596">
        <ele>1982.2</ele>
        <time>2015-06-20T07:18:26Z</time>
      </trkpt>
      <trkpt lat="41.85553" lon="9.20592">
        <ele>1980.8</ele>
        <time>2015-06-20T07:18:36Z</time>
      </trkpt>
      <trkpt lat="41.85558" lon="9.20591">
        <ele>1980</ele>
        <time>2015-06-20T07:18:41Z</time>
      </trkpt>
      <trkpt lat="41.85565" lon="9.2059">
        <ele>1978.6</ele>
        <time>2015-06-20T07:18:49Z</time>
      </trkpt>
      <trkpt lat="41.85565" lon="9.2059">
        <ele>1978.6</ele>
        <time>2015-06-20T07:18:50Z</time>
      </trkpt>
      <trkpt lat="41.85568" lon="9.20586">
        <ele>1977.6</ele>
        <time>2015-06-20T07:18:57Z</time>
      </trkpt>
      <trkpt lat="41.85573" lon="9.20579">
        <ele>1976.4</ele>
        <time>2015-06-20T07:19:06Z</time>
      </trkpt>
      <trkpt lat="41.85576" lon="9.20572">
        <ele>1975.4</ele>
        <time>2015-06-20T07:19:13Z</time>
      </trkpt>
      <trkpt lat="41.85581" lon="9.20565">
        <ele>1974.2</ele>
        <time>2015-06-20T07:19:21Z</time>
      </trkpt>
      <trkpt lat="41.85584" lon="9.20561">
        <ele>1973.6</ele>
        <time>2015-06-20T07:19:26Z</time>
      </trkpt>
      <trkpt lat="41.85585" lon="9.20558">
        <ele>1973.4</ele>
        <time>2015-06-20T07:19:29Z</time>
      </trkpt>
      <trkpt lat="41.85602" lon="9.20546">
        <ele>1973.8</ele>
        <time>2015-06-20T07:20:04Z</time>
      </trkpt>
      <trkpt lat="41.85606" lon="9.20539">
        <ele>1974</ele>
        <time>2015-06-20T07:20:19Z</time>
      </trkpt>
      <trkpt lat="41.85607" lon="9.20535">
        <ele>1973</ele>
        <time>2015-06-20T07:20:27Z</time>
      </trkpt>
      <trkpt lat="41.8561" lon="9.20529">
        <ele>1972</ele>
        <time>2015-06-20T07:20:35Z</time>
      </trkpt>
      <trkpt lat="41.85611" lon="9.20524">
        <ele>1971.2</ele>
        <time>2015-06-20T07:20:42Z</time>
      </trkpt>
      <trkpt lat="41.85622" lon="9.2051">
        <ele>1969.6</ele>
        <time>2015-06-20T07:20:57Z</time>
      </trkpt>
      <trkpt lat="41.85623" lon="9.20508">
        <ele>1969.4</ele>
        <time>2015-06-20T07:20:59Z</time>
      </trkpt>
      <trkpt lat="41.85623" lon="9.20506">
        <ele>1969.4</ele>
        <time>2015-06-20T07:21:01Z</time>
      </trkpt>
      <trkpt lat="41.85626" lon="9.20505">
        <ele>1969</ele>
        <time>2015-06-20T07:21:05Z</time>
      </trkpt>
      <trkpt lat="41.85637" lon="9.20496">
        <ele>1968.6</ele>
        <time>2015-06-20T07:21:22Z</time>
      </trkpt>
      <trkpt lat="41.85644" lon="9.20492">
        <ele>1967.4</ele>
        <time>2015-06-20T07:21:32Z</time>
      </trkpt>
      <trkpt lat="41.8565" lon="9.20486">
        <ele>1966</ele>
        <time>2015-06-20T07:21:42Z</time>
      </trkpt>
      <trkpt lat="41.85652" lon="9.20479">
        <ele>1965.2</ele>
        <time>2015-06-20T07:21:51Z</time>
      </trkpt>
      <trkpt lat="41.85658" lon="9.20475">
        <ele>1964.2</ele>
        <time>2015-06-20T07:21:58Z</time>
      </trkpt>
      <trkpt lat="41.85661" lon="9.20471">
        <ele>1963.6</ele>
        <time>2015-06-20T07:22:02Z</time>
      </trkpt>
      <trkpt lat="41.85665" lon="9.20468">
        <ele>1963.4</ele>
        <time>2015-06-20T07:22:07Z</time>
      </trkpt>
      <trkpt lat="41.85669" lon="9.20465">
        <ele>1963</ele>
        <time>2015-06-20T07:22:13Z</time>
      </trkpt>
      <trkpt lat="41.85674" lon="9.20464">
        <ele>1962.6</ele>
        <time>2015-06-20T07:22:18Z</time>
      </trkpt>
      <trkpt lat="41.8568" lon="9.20464">
        <ele>1962.2</ele>
        <time>2015-06-20T07:22:25Z</time>
      </trkpt>
      <trkpt lat="41.85684" lon="9.20459">
        <ele>1961.6</ele>
        <time>2015-06-20T07:22:34Z</time>
      </trkpt>
      <trkpt lat="41.85689" lon="9.2045">
        <ele>1960.6</ele>
        <time>2015-06-20T07:22:47Z</time>
      </trkpt>
      <trkpt lat="41.85691" lon="9.20445">
        <ele>1959.8</ele>
        <time>2015-06-20T07:22:54Z</time>
      </trkpt>
      <trkpt lat="41.85704" lon="9.20436">
        <ele>1958.8</ele>
        <time>2015-06-20T07:23:09Z</time>
      </trkpt>
      <trkpt lat="41.85712" lon="9.20424">
        <ele>1958.4</ele>
        <time>2015-06-20T07:23:22Z</time>
      </trkpt>
      <trkpt lat="41.85717" lon="9.20417">
        <ele>1958</ele>
        <time>2015-06-20T07:23:29Z</time>
      </trkpt>
      <trkpt lat="41.85729" lon="9.20395">
        <ele>1957.4</ele>
        <time>2015-06-20T07:23:50Z</time>
      </trkpt>
      <trkpt lat="41.85742" lon="9.20377">
        <ele>1956.4</ele>
        <time>2015-06-20T07:24:10Z</time>
      </trkpt>
      <trkpt lat="41.85767" lon="9.20343">
        <ele>1955.8</ele>
        <time>2015-06-20T07:24:44Z</time>
      </trkpt>
      <trkpt lat="41.8577" lon="9.20323">
        <ele>1956.6</ele>
        <time>2015-06-20T07:25:00Z</time>
      </trkpt>
      <trkpt lat="41.85771" lon="9.20321">
        <ele>1956.6</ele>
        <time>2015-06-20T07:25:02Z</time>
      </trkpt>
      <trkpt lat="41.85774" lon="9.20317">
        <ele>1957.6</ele>
        <time>2015-06-20T07:26:21Z</time>
      </trkpt>
      <trkpt lat="41.85774" lon="9.20317">
        <ele>1957.6</ele>
        <time>2015-06-20T07:26:24Z</time>
      </trkpt>
      <trkpt lat="41.85774" lon="9.20318">
        <ele>1957.6</ele>
        <time>2015-06-20T07:26:27Z</time>
      </trkpt>
      <trkpt lat="41.85775" lon="9.20315">
        <ele>1957.4</ele>
        <time>2015-06-20T07:27:11Z</time>
      </trkpt>
      <trkpt lat="41.85777" lon="9.20314">
        <ele>1956.4</ele>
        <time>2015-06-20T07:29:05Z</time>
      </trkpt>
      <trkpt lat="41.85777" lon="9.20314">
        <ele>1956.4</ele>
        <time>2015-06-20T07:29:13Z</time>
      </trkpt>
      <trkpt lat="41.85774" lon="9.20317">
        <ele>1956.2</ele>
        <time>2015-06-20T07:29:41Z</time>
      </trkpt>
      <trkpt lat="41.85766" lon="9.20301">
        <ele>1956.2</ele>
        <time>2015-06-20T07:32:03Z</time>
      </trkpt>
      <trkpt lat="41.85761" lon="9.20303">
        <ele>1956.8</ele>
        <time>2015-06-20T07:32:27Z</time>
      </trkpt>
      <trkpt lat="41.85763" lon="9.20306">
        <ele>1957</ele>
        <time>2015-06-20T07:32:33Z</time>
      </trkpt>
      <trkpt lat="41.85764" lon="9.20308">
        <ele>1958.8</ele>
        <time>2015-06-20T07:33:09Z</time>
      </trkpt>
      <trkpt lat="41.85766" lon="9.20306">
        <ele>1958.8</ele>
        <time>2015-06-20T07:33:32Z</time>
      </trkpt>
      <trkpt lat="41.8577" lon="9.20305">
        <ele>1958.2</ele>
        <time>2015-06-20T07:33:38Z</time>
      </trkpt>
      <trkpt lat="41.85771" lon="9.20305">
        <ele>1958</ele>
        <time>2015-06-20T07:33:39Z</time>
      </trkpt>
      <trkpt lat="41.85773" lon="9.20306">
        <ele>1957.8</ele>
        <time>2015-06-20T07:33:41Z</time>
      </trkpt>
      <trkpt lat="41.85774" lon="9.20308">
        <ele>1957</ele>
        <time>2015-06-20T07:33:44Z</time>
      </trkpt>
      <trkpt lat="41.85771" lon="9.20312">
        <ele>1956</ele>
        <time>2015-06-20T07:34:56Z</time>
      </trkpt>
      <trkpt lat="41.8577" lon="9.20313">
        <ele>1956</ele>
        <time>2015-06-20T07:35:50Z</time>
      </trkpt>
      <trkpt lat="41.8577" lon="9.20312">
        <ele>1956.2</ele>
        <time>2015-06-20T07:36:44Z</time>
      </trkpt>
      <trkpt lat="41.85775" lon="9.20316">
        <ele>1956.2</ele>
        <time>2015-06-20T07:38:45Z</time>
      </trkpt>
      <trkpt lat="41.85778" lon="9.20315">
        <ele>1956.4</ele>
        <time>2015-06-20T07:38:51Z</time>
      </trkpt>
      <trkpt lat="41.85789" lon="9.2031">
        <ele>1955.8</ele>
        <time>2015-06-20T07:40:57Z</time>
      </trkpt>
      <trkpt lat="41.85792" lon="9.20311">
        <ele>1955.8</ele>
        <time>2015-06-20T07:41:00Z</time>
      </trkpt>
      <trkpt lat="41.85805" lon="9.20306">
        <ele>1955.2</ele>
        <time>2015-06-20T07:41:16Z</time>
      </trkpt>
      <trkpt lat="41.85827" lon="9.20309">
        <ele>1953.8</ele>
        <time>2015-06-20T07:41:39Z</time>
      </trkpt>
      <trkpt lat="41.85828" lon="9.20308">
        <ele>1953.8</ele>
        <time>2015-06-20T07:41:41Z</time>
      </trkpt>
      <trkpt lat="41.85837" lon="9.20312">
        <ele>1953.2</ele>
        <time>2015-06-20T07:41:50Z</time>
      </trkpt>
      <trkpt lat="41.8584" lon="9.20313">
        <ele>1953</ele>
        <time>2015-06-20T07:41:53Z</time>
      </trkpt>
      <trkpt lat="41.85848" lon="9.20315">
        <ele>1952.2</ele>
        <time>2015-06-20T07:42:03Z</time>
      </trkpt>
      <trkpt lat="41.8585" lon="9.20315">
        <ele>1952</ele>
        <time>2015-06-20T07:42:05Z</time>
      </trkpt>
      <trkpt lat="41.85858" lon="9.20313">
        <ele>1951.4</ele>
        <time>2015-06-20T07:42:14Z</time>
      </trkpt>
      <trkpt lat="41.85887" lon="9.20325">
        <ele>1949.8</ele>
        <time>2015-06-20T07:42:44Z</time>
      </trkpt>
      <trkpt lat="41.85888" lon="9.20326">
        <ele>1949.8</ele>
        <time>2015-06-20T07:42:46Z</time>
      </trkpt>
      <trkpt lat="41.85894" lon="9.20327">
        <ele>1949.8</ele>
        <time>2015-06-20T07:42:52Z</time>
      </trkpt>
      <trkpt lat="41.85895" lon="9.20329">
        <ele>1950</ele>
        <time>2015-06-20T07:42:55Z</time>
      </trkpt>
      <trkpt lat="41.859" lon="9.20329">
        <ele>1949.6</ele>
        <time>2015-06-20T07:43:02Z</time>
      </trkpt>
      <trkpt lat="41.85901" lon="9.20329">
        <ele>1949.6</ele>
        <time>2015-06-20T07:43:03Z</time>
      </trkpt>
      <trkpt lat="41.85909" lon="9.20334">
        <ele>1949.2</ele>
        <time>2015-06-20T07:43:13Z</time>
      </trkpt>
      <trkpt lat="41.85926" lon="9.20335">
        <ele>1948.2</ele>
        <time>2015-06-20T07:43:35Z</time>
      </trkpt>
      <trkpt lat="41.85926" lon="9.20335">
        <ele>1948</ele>
        <time>2015-06-20T07:43:36Z</time>
      </trkpt>
      <trkpt lat="41.85934" lon="9.20332">
        <ele>1946.8</ele>
        <time>2015-06-20T07:43:47Z</time>
      </trkpt>
      <trkpt lat="41.85938" lon="9.20332">
        <ele>1946.4</ele>
        <time>2015-06-20T07:43:51Z</time>
      </trkpt>
      <trkpt lat="41.85956" lon="9.20334">
        <ele>1945.4</ele>
        <time>2015-06-20T07:44:20Z</time>
      </trkpt>
      <trkpt lat="41.85962" lon="9.20334">
        <ele>1944.6</ele>
        <time>2015-06-20T07:44:29Z</time>
      </trkpt>
      <trkpt lat="41.8597" lon="9.20331">
        <ele>1943.8</ele>
        <time>2015-06-20T07:44:38Z</time>
      </trkpt>
      <trkpt lat="41.85976" lon="9.20333">
        <ele>1942.8</ele>
        <time>2015-06-20T07:44:45Z</time>
      </trkpt>
      <trkpt lat="41.85997" lon="9.20336">
        <ele>1944</ele>
        <time>2015-06-20T07:45:13Z</time>
      </trkpt>
      <trkpt lat="41.86007" lon="9.20338">
        <ele>1944.8</ele>
        <time>2015-06-20T07:45:27Z</time>
      </trkpt>
      <trkpt lat="41.86013" lon="9.20338">
        <ele>1945</ele>
        <time>2015-06-20T07:45:34Z</time>
      </trkpt>
      <trkpt lat="41.86016" lon="9.20341">
        <ele>1945.2</ele>
        <time>2015-06-20T07:45:38Z</time>
      </trkpt>
      <trkpt lat="41.86016" lon="9.20342">
        <ele>1945.2</ele>
        <time>2015-06-20T07:45:39Z</time>
      </trkpt>
      <trkpt lat="41.86031" lon="9.20352">
        <ele>1945.6</ele>
        <time>2015-06-20T07:45:56Z</time>
      </trkpt>
      <trkpt lat="41.86038" lon="9.20358">
        <ele>1944.6</ele>
        <time>2015-06-20T07:46:09Z</time>
      </trkpt>
      <trkpt lat="41.86042" lon="9.20361">
        <ele>1943.6</ele>
        <time>2015-06-20T07:46:17Z</time>
      </trkpt>
      <trkpt lat="41.86046" lon="9.20365">
        <ele>1943</ele>
        <time>2015-06-20T07:46:23Z</time>
      </trkpt>
      <trkpt lat="41.86047" lon="9.20366">
        <ele>1942.8</ele>
        <time>2015-06-20T07:46:24Z</time>
      </trkpt>
      <trkpt lat="41.86052" lon="9.2037">
        <ele>1941.6</ele>
        <time>2015-06-20T07:46:32Z</time>
      </trkpt>
      <trkpt lat="41.86052" lon="9.20371">
        <ele>1941.6</ele>
        <time>2015-06-20T07:46:33Z</time>
      </trkpt>
      <trkpt lat="41.86057" lon="9.20377">
        <ele>1940.2</ele>
        <time>2015-06-20T07:46:41Z</time>
      </trkpt>
      <trkpt lat="41.86062" lon="9.20382">
        <ele>1939.6</ele>
        <time>2015-06-20T07:46:49Z</time>
      </trkpt>
      <trkpt lat="41.86063" lon="9.20385">
        <ele>1939.4</ele>
        <time>2015-06-20T07:46:51Z</time>
      </trkpt>
      <trkpt lat="41.86065" lon="9.2039">
        <ele>1938.4</ele>
        <time>2015-06-20T07:46:56Z</time>
      </trkpt>
      <trkpt lat="41.86067" lon="9.20393">
        <ele>1938</ele>
        <time>2015-06-20T07:47:00Z</time>
      </trkpt>
      <trkpt lat="41.86075" lon="9.20413">
        <ele>1936.8</ele>
        <time>2015-06-20T07:47:14Z</time>
      </trkpt>
      <trkpt lat="41.86078" lon="9.20424">
        <ele>1936.4</ele>
        <time>2015-06-20T07:47:24Z</time>
      </trkpt>
      <trkpt lat="41.86078" lon="9.20426">
        <ele>1936.4</ele>
        <time>2015-06-20T07:47:26Z</time>
      </trkpt>
      <trkpt lat="41.86078" lon="9.20429">
        <ele>1936.2</ele>
        <time>2015-06-20T07:47:28Z</time>
      </trkpt>
      <trkpt lat="41.86081" lon="9.20436">
        <ele>1936</ele>
        <time>2015-06-20T07:47:35Z</time>
      </trkpt>
      <trkpt lat="41.86083" lon="9.2044">
        <ele>1936</ele>
        <time>2015-06-20T07:47:39Z</time>
      </trkpt>
      <trkpt lat="41.86088" lon="9.20445">
        <ele>1936</ele>
        <time>2015-06-20T07:47:46Z</time>
      </trkpt>
      <trkpt lat="41.86104" lon="9.20454">
        <ele>1935.8</ele>
        <time>2015-06-20T07:48:03Z</time>
      </trkpt>
      <trkpt lat="41.86108" lon="9.20455">
        <ele>1935.6</ele>
        <time>2015-06-20T07:48:08Z</time>
      </trkpt>
      <trkpt lat="41.86113" lon="9.2046">
        <ele>1935.4</ele>
        <time>2015-06-20T07:48:15Z</time>
      </trkpt>
      <trkpt lat="41.86119" lon="9.20468">
        <ele>1933.8</ele>
        <time>2015-06-20T07:48:26Z</time>
      </trkpt>
      <trkpt lat="41.8612" lon="9.20471">
        <ele>1933.6</ele>
        <time>2015-06-20T07:48:29Z</time>
      </trkpt>
      <trkpt lat="41.86123" lon="9.20472">
        <ele>1933</ele>
        <time>2015-06-20T07:48:32Z</time>
      </trkpt>
      <trkpt lat="41.86125" lon="9.20474">
        <ele>1932.2</ele>
        <time>2015-06-20T07:48:36Z</time>
      </trkpt>
      <trkpt lat="41.86127" lon="9.20475">
        <ele>1931.8</ele>
        <time>2015-06-20T07:48:38Z</time>
      </trkpt>
      <trkpt lat="41.86132" lon="9.20478">
        <ele>1930.8</ele>
        <time>2015-06-20T07:48:45Z</time>
      </trkpt>
      <trkpt lat="41.86138" lon="9.20479">
        <ele>1929.6</ele>
        <time>2015-06-20T07:48:52Z</time>
      </trkpt>
      <trkpt lat="41.86143" lon="9.20481">
        <ele>1928.2</ele>
        <time>2015-06-20T07:49:00Z</time>
      </trkpt>
      <trkpt lat="41.8615" lon="9.20483">
        <ele>1927</ele>
        <time>2015-06-20T07:49:08Z</time>
      </trkpt>
      <trkpt lat="41.86154" lon="9.20485">
        <ele>1926.4</ele>
        <time>2015-06-20T07:49:13Z</time>
      </trkpt>
      <trkpt lat="41.86163" lon="9.20486">
        <ele>1924.6</ele>
        <time>2015-06-20T07:49:24Z</time>
      </trkpt>
      <trkpt lat="41.86171" lon="9.20484">
        <ele>1923.8</ele>
        <time>2015-06-20T07:49:32Z</time>
      </trkpt>
      <trkpt lat="41.86181" lon="9.2048">
        <ele>1922.6</ele>
        <time>2015-06-20T07:49:42Z</time>
      </trkpt>
      <trkpt lat="41.86188" lon="9.20478">
        <ele>1921.6</ele>
        <time>2015-06-20T07:49:52Z</time>
      </trkpt>
      <trkpt lat="41.86193" lon="9.20478">
        <ele>1920.8</ele>
        <time>2015-06-20T07:49:57Z</time>
      </trkpt>
      <trkpt lat="41.862" lon="9.20481">
        <ele>1920.4</ele>
        <time>2015-06-20T07:50:04Z</time>
      </trkpt>
      <trkpt lat="41.862" lon="9.20482">
        <ele>1920.4</ele>
        <time>2015-06-20T07:50:05Z</time>
      </trkpt>
      <trkpt lat="41.86201" lon="9.20483">
        <ele>1920.2</ele>
        <time>2015-06-20T07:50:06Z</time>
      </trkpt>
      <trkpt lat="41.86203" lon="9.20486">
        <ele>1919.4</ele>
        <time>2015-06-20T07:50:16Z</time>
      </trkpt>
      <trkpt lat="41.86207" lon="9.20486">
        <ele>1918.2</ele>
        <time>2015-06-20T07:50:25Z</time>
      </trkpt>
      <trkpt lat="41.8621" lon="9.20489">
        <ele>1917.4</ele>
        <time>2015-06-20T07:50:35Z</time>
      </trkpt>
      <trkpt lat="41.86214" lon="9.20488">
        <ele>1916.2</ele>
        <time>2015-06-20T07:50:43Z</time>
      </trkpt>
      <trkpt lat="41.86216" lon="9.20489">
        <ele>1915.8</ele>
        <time>2015-06-20T07:50:47Z</time>
      </trkpt>
      <trkpt lat="41.86219" lon="9.2049">
        <ele>1913.8</ele>
        <time>2015-06-20T07:50:56Z</time>
      </trkpt>
      <trkpt lat="41.86222" lon="9.20488">
        <ele>1913</ele>
        <time>2015-06-20T07:51:05Z</time>
      </trkpt>
      <trkpt lat="41.86224" lon="9.20491">
        <ele>1912.2</ele>
        <time>2015-06-20T07:51:14Z</time>
      </trkpt>
      <trkpt lat="41.86228" lon="9.20492">
        <ele>1911.2</ele>
        <time>2015-06-20T07:51:22Z</time>
      </trkpt>
      <trkpt lat="41.8623" lon="9.20495">
        <ele>1909.8</ele>
        <time>2015-06-20T07:51:31Z</time>
      </trkpt>
      <trkpt lat="41.86233" lon="9.20498">
        <ele>1909</ele>
        <time>2015-06-20T07:51:39Z</time>
      </trkpt>
      <trkpt lat="41.86236" lon="9.20497">
        <ele>1908.2</ele>
        <time>2015-06-20T07:51:44Z</time>
      </trkpt>
      <trkpt lat="41.8624" lon="9.205">
        <ele>1907</ele>
        <time>2015-06-20T07:51:51Z</time>
      </trkpt>
      <trkpt lat="41.86241" lon="9.20502">
        <ele>1906.4</ele>
        <time>2015-06-20T07:51:55Z</time>
      </trkpt>
      <trkpt lat="41.86245" lon="9.20505">
        <ele>1904.4</ele>
        <time>2015-06-20T07:52:03Z</time>
      </trkpt>
      <trkpt lat="41.86248" lon="9.20508">
        <ele>1903.4</ele>
        <time>2015-06-20T07:52:11Z</time>
      </trkpt>
      <trkpt lat="41.86252" lon="9.20512">
        <ele>1902.4</ele>
        <time>2015-06-20T07:52:18Z</time>
      </trkpt>
      <trkpt lat="41.86257" lon="9.20515">
        <ele>1901.6</ele>
        <time>2015-06-20T07:52:24Z</time>
      </trkpt>
      <trkpt lat="41.86262" lon="9.2052">
        <ele>1900.4</ele>
        <time>2015-06-20T07:52:33Z</time>
      </trkpt>
      <trkpt lat="41.86266" lon="9.2052">
        <ele>1899.4</ele>
        <time>2015-06-20T07:52:40Z</time>
      </trkpt>
      <trkpt lat="41.86272" lon="9.20521">
        <ele>1898</ele>
        <time>2015-06-20T07:52:49Z</time>
      </trkpt>
      <trkpt lat="41.86276" lon="9.20522">
        <ele>1896.8</ele>
        <time>2015-06-20T07:52:58Z</time>
      </trkpt>
      <trkpt lat="41.86281" lon="9.2052">
        <ele>1896.2</ele>
        <time>2015-06-20T07:53:05Z</time>
      </trkpt>
      <trkpt lat="41.86282" lon="9.20522">
        <ele>1895.8</ele>
        <time>2015-06-20T07:53:08Z</time>
      </trkpt>
      <trkpt lat="41.86282" lon="9.20523">
        <ele>1895.8</ele>
        <time>2015-06-20T07:53:09Z</time>
      </trkpt>
      <trkpt lat="41.86288" lon="9.20523">
        <ele>1895.2</ele>
        <time>2015-06-20T07:53:16Z</time>
      </trkpt>
      <trkpt lat="41.86292" lon="9.20524">
        <ele>1894.2</ele>
        <time>2015-06-20T07:53:22Z</time>
      </trkpt>
      <trkpt lat="41.86297" lon="9.20527">
        <ele>1893.2</ele>
        <time>2015-06-20T07:53:28Z</time>
      </trkpt>
      <trkpt lat="41.86302" lon="9.20529">
        <ele>1891.8</ele>
        <time>2015-06-20T07:53:36Z</time>
      </trkpt>
      <trkpt lat="41.86306" lon="9.2053">
        <ele>1890.8</ele>
        <time>2015-06-20T07:53:43Z</time>
      </trkpt>
      <trkpt lat="41.86308" lon="9.20531">
        <ele>1889.8</ele>
        <time>2015-06-20T07:53:49Z</time>
      </trkpt>
      <trkpt lat="41.86312" lon="9.20533">
        <ele>1888.6</ele>
        <time>2015-06-20T07:53:56Z</time>
      </trkpt>
      <trkpt lat="41.86314" lon="9.20539">
        <ele>1887.4</ele>
        <time>2015-06-20T07:54:04Z</time>
      </trkpt>
      <trkpt lat="41.86315" lon="9.20541">
        <ele>1886.8</ele>
        <time>2015-06-20T07:54:09Z</time>
      </trkpt>
      <trkpt lat="41.86313" lon="9.20544">
        <ele>1886.2</ele>
        <time>2015-06-20T07:54:13Z</time>
      </trkpt>
      <trkpt lat="41.86316" lon="9.20546">
        <ele>1884.2</ele>
        <time>2015-06-20T07:54:24Z</time>
      </trkpt>
      <trkpt lat="41.86316" lon="9.20549">
        <ele>1883.8</ele>
        <time>2015-06-20T07:54:28Z</time>
      </trkpt>
      <trkpt lat="41.86319" lon="9.20552">
        <ele>1882</ele>
        <time>2015-06-20T07:54:36Z</time>
      </trkpt>
      <trkpt lat="41.86321" lon="9.20556">
        <ele>1881.6</ele>
        <time>2015-06-20T07:54:42Z</time>
      </trkpt>
      <trkpt lat="41.86323" lon="9.20558">
        <ele>1880.8</ele>
        <time>2015-06-20T07:54:46Z</time>
      </trkpt>
      <trkpt lat="41.86325" lon="9.20562">
        <ele>1879</ele>
        <time>2015-06-20T07:54:53Z</time>
      </trkpt>
      <trkpt lat="41.8633" lon="9.20566">
        <ele>1878</ele>
        <time>2015-06-20T07:55:00Z</time>
      </trkpt>
      <trkpt lat="41.86335" lon="9.20565">
        <ele>1877</ele>
        <time>2015-06-20T07:55:07Z</time>
      </trkpt>
      <trkpt lat="41.86337" lon="9.20562">
        <ele>1876</ele>
        <time>2015-06-20T07:55:14Z</time>
      </trkpt>
      <trkpt lat="41.86342" lon="9.20563">
        <ele>1874.8</ele>
        <time>2015-06-20T07:55:23Z</time>
      </trkpt>
      <trkpt lat="41.86343" lon="9.20565">
        <ele>1873.8</ele>
        <time>2015-06-20T07:55:29Z</time>
      </trkpt>
      <trkpt lat="41.86342" lon="9.2057">
        <ele>1872.4</ele>
        <time>2015-06-20T07:55:37Z</time>
      </trkpt>
      <trkpt lat="41.86342" lon="9.20575">
        <ele>1871.4</ele>
        <time>2015-06-20T07:55:44Z</time>
      </trkpt>
      <trkpt lat="41.86344" lon="9.20577">
        <ele>1870.4</ele>
        <time>2015-06-20T07:55:54Z</time>
      </trkpt>
      <trkpt lat="41.86347" lon="9.2058">
        <ele>1869</ele>
        <time>2015-06-20T07:56:02Z</time>
      </trkpt>
      <trkpt lat="41.86348" lon="9.20582">
        <ele>1868.2</ele>
        <time>2015-06-20T07:56:09Z</time>
      </trkpt>
      <trkpt lat="41.8635" lon="9.20587">
        <ele>1866.8</ele>
        <time>2015-06-20T07:56:17Z</time>
      </trkpt>
      <trkpt lat="41.86352" lon="9.20591">
        <ele>1866</ele>
        <time>2015-06-20T07:56:24Z</time>
      </trkpt>
      <trkpt lat="41.86356" lon="9.20593">
        <ele>1864.8</ele>
        <time>2015-06-20T07:56:33Z</time>
      </trkpt>
      <trkpt lat="41.86358" lon="9.20596">
        <ele>1863.8</ele>
        <time>2015-06-20T07:56:41Z</time>
      </trkpt>
      <trkpt lat="41.86358" lon="9.206">
        <ele>1863</ele>
        <time>2015-06-20T07:56:46Z</time>
      </trkpt>
      <trkpt lat="41.86358" lon="9.20603">
        <ele>1861.4</ele>
        <time>2015-06-20T07:56:54Z</time>
      </trkpt>
      <trkpt lat="41.86361" lon="9.20607">
        <ele>1860.2</ele>
        <time>2015-06-20T07:57:05Z</time>
      </trkpt>
      <trkpt lat="41.86361" lon="9.20613">
        <ele>1859.4</ele>
        <time>2015-06-20T07:57:12Z</time>
      </trkpt>
      <trkpt lat="41.86361" lon="9.20618">
        <ele>1858.2</ele>
        <time>2015-06-20T07:57:22Z</time>
      </trkpt>
      <trkpt lat="41.86365" lon="9.20617">
        <ele>1857.4</ele>
        <time>2015-06-20T07:57:29Z</time>
      </trkpt>
      <trkpt lat="41.86365" lon="9.20618">
        <ele>1857</ele>
        <time>2015-06-20T07:57:31Z</time>
      </trkpt>
      <trkpt lat="41.86367" lon="9.20621">
        <ele>1855.8</ele>
        <time>2015-06-20T07:57:39Z</time>
      </trkpt>
      <trkpt lat="41.86369" lon="9.20624">
        <ele>1855.2</ele>
        <time>2015-06-20T07:57:46Z</time>
      </trkpt>
      <trkpt lat="41.86371" lon="9.20628">
        <ele>1853.6</ele>
        <time>2015-06-20T07:57:56Z</time>
      </trkpt>
      <trkpt lat="41.86373" lon="9.20632">
        <ele>1853</ele>
        <time>2015-06-20T07:58:04Z</time>
      </trkpt>
      <trkpt lat="41.86379" lon="9.20634">
        <ele>1851.8</ele>
        <time>2015-06-20T07:58:12Z</time>
      </trkpt>
      <trkpt lat="41.86379" lon="9.2064">
        <ele>1850.6</ele>
        <time>2015-06-20T07:58:20Z</time>
      </trkpt>
      <trkpt lat="41.86381" lon="9.20643">
        <ele>1850</ele>
        <time>2015-06-20T07:58:26Z</time>
      </trkpt>
      <trkpt lat="41.86382" lon="9.20646">
        <ele>1849</ele>
        <time>2015-06-20T07:58:31Z</time>
      </trkpt>
      <trkpt lat="41.86382" lon="9.20649">
        <ele>1848</ele>
        <time>2015-06-20T07:58:35Z</time>
      </trkpt>
      <trkpt lat="41.86386" lon="9.2065">
        <ele>1846.2</ele>
        <time>2015-06-20T07:58:44Z</time>
      </trkpt>
      <trkpt lat="41.8639" lon="9.20654">
        <ele>1845.4</ele>
        <time>2015-06-20T07:58:50Z</time>
      </trkpt>
      <trkpt lat="41.86389" lon="9.20659">
        <ele>1844.4</ele>
        <time>2015-06-20T07:58:57Z</time>
      </trkpt>
      <trkpt lat="41.86391" lon="9.2066">
        <ele>1843.2</ele>
        <time>2015-06-20T07:59:03Z</time>
      </trkpt>
      <trkpt lat="41.86393" lon="9.20665">
        <ele>1842</ele>
        <time>2015-06-20T07:59:11Z</time>
      </trkpt>
      <trkpt lat="41.86393" lon="9.20665">
        <ele>1841</ele>
        <time>2015-06-20T07:59:35Z</time>
      </trkpt>
      <trkpt lat="41.86398" lon="9.20669">
        <ele>1840.8</ele>
        <time>2015-06-20T07:59:54Z</time>
      </trkpt>
      <trkpt lat="41.86399" lon="9.20672">
        <ele>1839.8</ele>
        <time>2015-06-20T08:00:02Z</time>
      </trkpt>
      <trkpt lat="41.86398" lon="9.20675">
        <ele>1839.6</ele>
        <time>2015-06-20T08:00:07Z</time>
      </trkpt>
      <trkpt lat="41.86401" lon="9.20678">
        <ele>1837.6</ele>
        <time>2015-06-20T08:00:16Z</time>
      </trkpt>
      <trkpt lat="41.86404" lon="9.20682">
        <ele>1837</ele>
        <time>2015-06-20T08:00:23Z</time>
      </trkpt>
      <trkpt lat="41.86406" lon="9.20685">
        <ele>1836.4</ele>
        <time>2015-06-20T08:00:27Z</time>
      </trkpt>
      <trkpt lat="41.86409" lon="9.20687">
        <ele>1834.8</ele>
        <time>2015-06-20T08:00:33Z</time>
      </trkpt>
      <trkpt lat="41.86413" lon="9.20689">
        <ele>1833.6</ele>
        <time>2015-06-20T08:00:39Z</time>
      </trkpt>
      <trkpt lat="41.86418" lon="9.2069">
        <ele>1832.4</ele>
        <time>2015-06-20T08:00:45Z</time>
      </trkpt>
      <trkpt lat="41.8642" lon="9.20693">
        <ele>1831.2</ele>
        <time>2015-06-20T08:00:51Z</time>
      </trkpt>
      <trkpt lat="41.86422" lon="9.20696">
        <ele>1830</ele>
        <time>2015-06-20T08:00:57Z</time>
      </trkpt>
      <trkpt lat="41.86426" lon="9.20699">
        <ele>1829</ele>
        <time>2015-06-20T08:01:05Z</time>
      </trkpt>
      <trkpt lat="41.86427" lon="9.207">
        <ele>1828.2</ele>
        <time>2015-06-20T08:01:10Z</time>
      </trkpt>
      <trkpt lat="41.86431" lon="9.20703">
        <ele>1826.6</ele>
        <time>2015-06-20T08:01:18Z</time>
      </trkpt>
      <trkpt lat="41.86435" lon="9.20701">
        <ele>1825.6</ele>
        <time>2015-06-20T08:01:24Z</time>
      </trkpt>
      <trkpt lat="41.86439" lon="9.20697">
        <ele>1824.6</ele>
        <time>2015-06-20T08:01:32Z</time>
      </trkpt>
      <trkpt lat="41.86444" lon="9.20698">
        <ele>1823.2</ele>
        <time>2015-06-20T08:01:40Z</time>
      </trkpt>
      <trkpt lat="41.86444" lon="9.20702">
        <ele>1822.4</ele>
        <time>2015-06-20T08:01:45Z</time>
      </trkpt>
      <trkpt lat="41.86449" lon="9.20703">
        <ele>1820.8</ele>
        <time>2015-06-20T08:01:54Z</time>
      </trkpt>
      <trkpt lat="41.86453" lon="9.20702">
        <ele>1820.2</ele>
        <time>2015-06-20T08:02:00Z</time>
      </trkpt>
      <trkpt lat="41.86457" lon="9.20702">
        <ele>1819</ele>
        <time>2015-06-20T08:02:06Z</time>
      </trkpt>
      <trkpt lat="41.8646" lon="9.20703">
        <ele>1817.8</ele>
        <time>2015-06-20T08:02:12Z</time>
      </trkpt>
      <trkpt lat="41.86462" lon="9.20707">
        <ele>1817</ele>
        <time>2015-06-20T08:02:17Z</time>
      </trkpt>
      <trkpt lat="41.86466" lon="9.2071">
        <ele>1815.6</ele>
        <time>2015-06-20T08:02:23Z</time>
      </trkpt>
      <trkpt lat="41.8647" lon="9.20716">
        <ele>1814.2</ele>
        <time>2015-06-20T08:02:32Z</time>
      </trkpt>
      <trkpt lat="41.86472" lon="9.20719">
        <ele>1813.6</ele>
        <time>2015-06-20T08:02:36Z</time>
      </trkpt>
      <trkpt lat="41.86475" lon="9.20724">
        <ele>1812.4</ele>
        <time>2015-06-20T08:02:42Z</time>
      </trkpt>
      <trkpt lat="41.8648" lon="9.20727">
        <ele>1810.8</ele>
        <time>2015-06-20T08:02:50Z</time>
      </trkpt>
      <trkpt lat="41.86484" lon="9.20729">
        <ele>1810.2</ele>
        <time>2015-06-20T08:02:55Z</time>
      </trkpt>
      <trkpt lat="41.86487" lon="9.2073">
        <ele>1809.2</ele>
        <time>2015-06-20T08:03:00Z</time>
      </trkpt>
      <trkpt lat="41.8649" lon="9.2073">
        <ele>1808.2</ele>
        <time>2015-06-20T08:03:05Z</time>
      </trkpt>
      <trkpt lat="41.86494" lon="9.20735">
        <ele>1806.2</ele>
        <time>2015-06-20T08:03:13Z</time>
      </trkpt>
      <trkpt lat="41.86498" lon="9.20738">
        <ele>1805.6</ele>
        <time>2015-06-20T08:03:19Z</time>
      </trkpt>
      <trkpt lat="41.865" lon="9.20738">
        <ele>1805.4</ele>
        <time>2015-06-20T08:03:21Z</time>
      </trkpt>
      <trkpt lat="41.86502" lon="9.20738">
        <ele>1804.6</ele>
        <time>2015-06-20T08:03:24Z</time>
      </trkpt>
      <trkpt lat="41.86509" lon="9.20738">
        <ele>1802.8</ele>
        <time>2015-06-20T08:03:34Z</time>
      </trkpt>
      <trkpt lat="41.86512" lon="9.20737">
        <ele>1802.6</ele>
        <time>2015-06-20T08:03:39Z</time>
      </trkpt>
      <trkpt lat="41.86514" lon="9.20742">
        <ele>1801.2</ele>
        <time>2015-06-20T08:03:45Z</time>
      </trkpt>
      <trkpt lat="41.86518" lon="9.20744">
        <ele>1799.6</ele>
        <time>2015-06-20T08:03:53Z</time>
      </trkpt>
      <trkpt lat="41.86523" lon="9.20745">
        <ele>1798.8</ele>
        <time>2015-06-20T08:04:00Z</time>
      </trkpt>
      <trkpt lat="41.86526" lon="9.20748">
        <ele>1797.6</ele>
        <time>2015-06-20T08:04:07Z</time>
      </trkpt>
      <trkpt lat="41.86531" lon="9.2075">
        <ele>1796.6</ele>
        <time>2015-06-20T08:04:15Z</time>
      </trkpt>
      <trkpt lat="41.86535" lon="9.20753">
        <ele>1795.6</ele>
        <time>2015-06-20T08:04:22Z</time>
      </trkpt>
      <trkpt lat="41.86538" lon="9.20751">
        <ele>1795</ele>
        <time>2015-06-20T08:04:27Z</time>
      </trkpt>
      <trkpt lat="41.86542" lon="9.20749">
        <ele>1793.4</ele>
        <time>2015-06-20T08:04:35Z</time>
      </trkpt>
      <trkpt lat="41.86546" lon="9.20747">
        <ele>1792.6</ele>
        <time>2015-06-20T08:04:41Z</time>
      </trkpt>
      <trkpt lat="41.8655" lon="9.20748">
        <ele>1791.2</ele>
        <time>2015-06-20T08:04:48Z</time>
      </trkpt>
      <trkpt lat="41.86555" lon="9.20741">
        <ele>1790</ele>
        <time>2015-06-20T08:04:58Z</time>
      </trkpt>
      <trkpt lat="41.86557" lon="9.20738">
        <ele>1789.4</ele>
        <time>2015-06-20T08:05:03Z</time>
      </trkpt>
      <trkpt lat="41.8656" lon="9.20732">
        <ele>1788.2</ele>
        <time>2015-06-20T08:05:10Z</time>
      </trkpt>
      <trkpt lat="41.86561" lon="9.20726">
        <ele>1787.4</ele>
        <time>2015-06-20T08:05:16Z</time>
      </trkpt>
      <trkpt lat="41.86564" lon="9.20722">
        <ele>1786.2</ele>
        <time>2015-06-20T08:05:22Z</time>
      </trkpt>
      <trkpt lat="41.86568" lon="9.20715">
        <ele>1784.8</ele>
        <time>2015-06-20T08:05:32Z</time>
      </trkpt>
      <trkpt lat="41.86571" lon="9.20709">
        <ele>1784</ele>
        <time>2015-06-20T08:05:38Z</time>
      </trkpt>
      <trkpt lat="41.86578" lon="9.20705">
        <ele>1782.6</ele>
        <time>2015-06-20T08:05:46Z</time>
      </trkpt>
      <trkpt lat="41.86583" lon="9.207">
        <ele>1781.6</ele>
        <time>2015-06-20T08:05:53Z</time>
      </trkpt>
      <trkpt lat="41.86589" lon="9.20694">
        <ele>1780.6</ele>
        <time>2015-06-20T08:06:01Z</time>
      </trkpt>
      <trkpt lat="41.86592" lon="9.20689">
        <ele>1779.6</ele>
        <time>2015-06-20T08:06:07Z</time>
      </trkpt>
      <trkpt lat="41.86595" lon="9.20685">
        <ele>1778.6</ele>
        <time>2015-06-20T08:06:13Z</time>
      </trkpt>
      <trkpt lat="41.86599" lon="9.20677">
        <ele>1777.6</ele>
        <time>2015-06-20T08:06:20Z</time>
      </trkpt>
      <trkpt lat="41.86602" lon="9.20671">
        <ele>1776.4</ele>
        <time>2015-06-20T08:06:26Z</time>
      </trkpt>
      <trkpt lat="41.86604" lon="9.20665">
        <ele>1775.4</ele>
        <time>2015-06-20T08:06:33Z</time>
      </trkpt>
      <trkpt lat="41.86607" lon="9.20654">
        <ele>1774</ele>
        <time>2015-06-20T08:06:41Z</time>
      </trkpt>
      <trkpt lat="41.8661" lon="9.20644">
        <ele>1773</ele>
        <time>2015-06-20T08:06:50Z</time>
      </trkpt>
      <trkpt lat="41.86611" lon="9.20634">
        <ele>1772</ele>
        <time>2015-06-20T08:06:59Z</time>
      </trkpt>
      <trkpt lat="41.86612" lon="9.20625">
        <ele>1771.2</ele>
        <time>2015-06-20T08:07:07Z</time>
      </trkpt>
      <trkpt lat="41.86617" lon="9.20615">
        <ele>1770.2</ele>
        <time>2015-06-20T08:07:17Z</time>
      </trkpt>
      <trkpt lat="41.86618" lon="9.20613">
        <ele>1769.8</ele>
        <time>2015-06-20T08:07:19Z</time>
      </trkpt>
      <trkpt lat="41.86619" lon="9.20611">
        <ele>1769.6</ele>
        <time>2015-06-20T08:07:22Z</time>
      </trkpt>
      <trkpt lat="41.8662" lon="9.20611">
        <ele>1769.2</ele>
        <time>2015-06-20T08:07:24Z</time>
      </trkpt>
      <trkpt lat="41.86621" lon="9.20607">
        <ele>1768.8</ele>
        <time>2015-06-20T08:07:30Z</time>
      </trkpt>
      <trkpt lat="41.86621" lon="9.20597">
        <ele>1767.8</ele>
        <time>2015-06-20T08:07:49Z</time>
      </trkpt>
      <trkpt lat="41.86624" lon="9.20585">
        <ele>1766.6</ele>
        <time>2015-06-20T08:08:11Z</time>
      </trkpt>
      <trkpt lat="41.86625" lon="9.20581">
        <ele>1766</ele>
        <time>2015-06-20T08:08:25Z</time>
      </trkpt>
      <trkpt lat="41.86628" lon="9.20575">
        <ele>1764.8</ele>
        <time>2015-06-20T08:08:56Z</time>
      </trkpt>
      <trkpt lat="41.86629" lon="9.2056">
        <ele>1764</ele>
        <time>2015-06-20T08:09:19Z</time>
      </trkpt>
      <trkpt lat="41.86627" lon="9.20549">
        <ele>1763.2</ele>
        <time>2015-06-20T08:09:28Z</time>
      </trkpt>
      <trkpt lat="41.86626" lon="9.20546">
        <ele>1763</ele>
        <time>2015-06-20T08:09:30Z</time>
      </trkpt>
      <trkpt lat="41.86626" lon="9.20532">
        <ele>1762</ele>
        <time>2015-06-20T08:09:42Z</time>
      </trkpt>
      <trkpt lat="41.86625" lon="9.2053">
        <ele>1762</ele>
        <time>2015-06-20T08:09:44Z</time>
      </trkpt>
      <trkpt lat="41.86624" lon="9.20516">
        <ele>1761</ele>
        <time>2015-06-20T08:09:56Z</time>
      </trkpt>
      <trkpt lat="41.86625" lon="9.20515">
        <ele>1761</ele>
        <time>2015-06-20T08:09:59Z</time>
      </trkpt>
      <trkpt lat="41.86625" lon="9.20508">
        <ele>1760.4</ele>
        <time>2015-06-20T08:10:10Z</time>
      </trkpt>
      <trkpt lat="41.86623" lon="9.20503">
        <ele>1759.4</ele>
        <time>2015-06-20T08:10:16Z</time>
      </trkpt>
      <trkpt lat="41.86622" lon="9.20492">
        <ele>1758</ele>
        <time>2015-06-20T08:10:27Z</time>
      </trkpt>
      <trkpt lat="41.86623" lon="9.20482">
        <ele>1757.2</ele>
        <time>2015-06-20T08:10:35Z</time>
      </trkpt>
      <trkpt lat="41.86624" lon="9.20481">
        <ele>1757.2</ele>
        <time>2015-06-20T08:10:36Z</time>
      </trkpt>
      <trkpt lat="41.86628" lon="9.20473">
        <ele>1756.2</ele>
        <time>2015-06-20T08:10:45Z</time>
      </trkpt>
      <trkpt lat="41.86629" lon="9.20468">
        <ele>1755.6</ele>
        <time>2015-06-20T08:10:49Z</time>
      </trkpt>
      <trkpt lat="41.86631" lon="9.20465">
        <ele>1755.4</ele>
        <time>2015-06-20T08:10:53Z</time>
      </trkpt>
      <trkpt lat="41.86632" lon="9.20455">
        <ele>1755</ele>
        <time>2015-06-20T08:11:01Z</time>
      </trkpt>
      <trkpt lat="41.86632" lon="9.20454">
        <ele>1754.8</ele>
        <time>2015-06-20T08:11:02Z</time>
      </trkpt>
      <trkpt lat="41.86635" lon="9.2044">
        <ele>1754.4</ele>
        <time>2015-06-20T08:11:13Z</time>
      </trkpt>
      <trkpt lat="41.86637" lon="9.2043">
        <ele>1754</ele>
        <time>2015-06-20T08:11:23Z</time>
      </trkpt>
      <trkpt lat="41.8664" lon="9.20423">
        <ele>1753.2</ele>
        <time>2015-06-20T08:11:32Z</time>
      </trkpt>
      <trkpt lat="41.86644" lon="9.20414">
        <ele>1752</ele>
        <time>2015-06-20T08:11:41Z</time>
      </trkpt>
      <trkpt lat="41.86641" lon="9.204">
        <ele>1751</ele>
        <time>2015-06-20T08:11:52Z</time>
      </trkpt>
      <trkpt lat="41.86642" lon="9.20398">
        <ele>1750.8</ele>
        <time>2015-06-20T08:11:54Z</time>
      </trkpt>
      <trkpt lat="41.86644" lon="9.20394">
        <ele>1750.4</ele>
        <time>2015-06-20T08:11:58Z</time>
      </trkpt>
      <trkpt lat="41.86644" lon="9.20387">
        <ele>1749.8</ele>
        <time>2015-06-20T08:12:05Z</time>
      </trkpt>
      <trkpt lat="41.86645" lon="9.20387">
        <ele>1749.8</ele>
        <time>2015-06-20T08:12:06Z</time>
      </trkpt>
      <trkpt lat="41.86648" lon="9.20377">
        <ele>1749</ele>
        <time>2015-06-20T08:12:19Z</time>
      </trkpt>
      <trkpt lat="41.86651" lon="9.2037">
        <ele>1748.2</ele>
        <time>2015-06-20T08:12:26Z</time>
      </trkpt>
      <trkpt lat="41.86653" lon="9.20365">
        <ele>1747.4</ele>
        <time>2015-06-20T08:12:31Z</time>
      </trkpt>
      <trkpt lat="41.86657" lon="9.20354">
        <ele>1746.8</ele>
        <time>2015-06-20T08:12:49Z</time>
      </trkpt>
      <trkpt lat="41.86662" lon="9.20339">
        <ele>1745.6</ele>
        <time>2015-06-20T08:13:04Z</time>
      </trkpt>
      <trkpt lat="41.86666" lon="9.20328">
        <ele>1744.8</ele>
        <time>2015-06-20T08:13:17Z</time>
      </trkpt>
      <trkpt lat="41.86669" lon="9.2032">
        <ele>1744.2</ele>
        <time>2015-06-20T08:13:25Z</time>
      </trkpt>
      <trkpt lat="41.86672" lon="9.20311">
        <ele>1742.8</ele>
        <time>2015-06-20T08:13:36Z</time>
      </trkpt>
      <trkpt lat="41.86674" lon="9.20303">
        <ele>1742</ele>
        <time>2015-06-20T08:13:44Z</time>
      </trkpt>
      <trkpt lat="41.86677" lon="9.20294">
        <ele>1740.8</ele>
        <time>2015-06-20T08:13:56Z</time>
      </trkpt>
      <trkpt lat="41.86681" lon="9.20288">
        <ele>1739.8</ele>
        <time>2015-06-20T08:14:04Z</time>
      </trkpt>
      <trkpt lat="41.86684" lon="9.20282">
        <ele>1738.8</ele>
        <time>2015-06-20T08:14:13Z</time>
      </trkpt>
      <trkpt lat="41.86688" lon="9.20274">
        <ele>1737.6</ele>
        <time>2015-06-20T08:14:26Z</time>
      </trkpt>
      <trkpt lat="41.86691" lon="9.20271">
        <ele>1736.8</ele>
        <time>2015-06-20T08:14:34Z</time>
      </trkpt>
      <trkpt lat="41.86693" lon="9.20264">
        <ele>1735.4</ele>
        <time>2015-06-20T08:14:42Z</time>
      </trkpt>
      <trkpt lat="41.86695" lon="9.20261">
        <ele>1734.8</ele>
        <time>2015-06-20T08:14:49Z</time>
      </trkpt>
      <trkpt lat="41.86696" lon="9.20254">
        <ele>1733.6</ele>
        <time>2015-06-20T08:14:56Z</time>
      </trkpt>
      <trkpt lat="41.86696" lon="9.20248">
        <ele>1732.4</ele>
        <time>2015-06-20T08:15:04Z</time>
      </trkpt>
      <trkpt lat="41.86697" lon="9.20244">
        <ele>1731.8</ele>
        <time>2015-06-20T08:15:12Z</time>
      </trkpt>
      <trkpt lat="41.86698" lon="9.20239">
        <ele>1731</ele>
        <time>2015-06-20T08:15:17Z</time>
      </trkpt>
      <trkpt lat="41.86698" lon="9.20234">
        <ele>1729.6</ele>
        <time>2015-06-20T08:15:24Z</time>
      </trkpt>
      <trkpt lat="41.86699" lon="9.20229">
        <ele>1728.4</ele>
        <time>2015-06-20T08:15:30Z</time>
      </trkpt>
      <trkpt lat="41.86698" lon="9.20224">
        <ele>1727.6</ele>
        <time>2015-06-20T08:15:34Z</time>
      </trkpt>
      <trkpt lat="41.86698" lon="9.20222">
        <ele>1727.4</ele>
        <time>2015-06-20T08:15:36Z</time>
      </trkpt>
      <trkpt lat="41.86698" lon="9.2022">
        <ele>1726.8</ele>
        <time>2015-06-20T08:15:38Z</time>
      </trkpt>
      <trkpt lat="41.86697" lon="9.20214">
        <ele>1725.8</ele>
        <time>2015-06-20T08:15:43Z</time>
      </trkpt>
      <trkpt lat="41.86696" lon="9.20204">
        <ele>1724.8</ele>
        <time>2015-06-20T08:15:54Z</time>
      </trkpt>
      <trkpt lat="41.86696" lon="9.20199">
        <ele>1724</ele>
        <time>2015-06-20T08:16:00Z</time>
      </trkpt>
      <trkpt lat="41.86694" lon="9.20191">
        <ele>1722.8</ele>
        <time>2015-06-20T08:16:09Z</time>
      </trkpt>
      <trkpt lat="41.86692" lon="9.20185">
        <ele>1722.2</ele>
        <time>2015-06-20T08:16:16Z</time>
      </trkpt>
      <trkpt lat="41.8669" lon="9.20178">
        <ele>1721</ele>
        <time>2015-06-20T08:16:22Z</time>
      </trkpt>
      <trkpt lat="41.8669" lon="9.20171">
        <ele>1719.8</ele>
        <time>2015-06-20T08:16:30Z</time>
      </trkpt>
      <trkpt lat="41.86689" lon="9.20163">
        <ele>1718.6</ele>
        <time>2015-06-20T08:16:38Z</time>
      </trkpt>
      <trkpt lat="41.86686" lon="9.20156">
        <ele>1717.8</ele>
        <time>2015-06-20T08:16:46Z</time>
      </trkpt>
      <trkpt lat="41.86685" lon="9.2015">
        <ele>1717</ele>
        <time>2015-06-20T08:16:52Z</time>
      </trkpt>
      <trkpt lat="41.86684" lon="9.20145">
        <ele>1716</ele>
        <time>2015-06-20T08:16:58Z</time>
      </trkpt>
      <trkpt lat="41.86683" lon="9.20139">
        <ele>1714.8</ele>
        <time>2015-06-20T08:17:06Z</time>
      </trkpt>
      <trkpt lat="41.8668" lon="9.20133">
        <ele>1713.6</ele>
        <time>2015-06-20T08:17:14Z</time>
      </trkpt>
      <trkpt lat="41.86678" lon="9.20127">
        <ele>1712.8</ele>
        <time>2015-06-20T08:17:21Z</time>
      </trkpt>
      <trkpt lat="41.86675" lon="9.2012">
        <ele>1711.8</ele>
        <time>2015-06-20T08:17:29Z</time>
      </trkpt>
      <trkpt lat="41.86674" lon="9.20111">
        <ele>1710.4</ele>
        <time>2015-06-20T08:17:39Z</time>
      </trkpt>
      <trkpt lat="41.86671" lon="9.20103">
        <ele>1709.4</ele>
        <time>2015-06-20T08:17:48Z</time>
      </trkpt>
      <trkpt lat="41.86669" lon="9.20096">
        <ele>1708.8</ele>
        <time>2015-06-20T08:17:55Z</time>
      </trkpt>
      <trkpt lat="41.86667" lon="9.2009">
        <ele>1707.6</ele>
        <time>2015-06-20T08:18:02Z</time>
      </trkpt>
      <trkpt lat="41.86664" lon="9.20082">
        <ele>1706.4</ele>
        <time>2015-06-20T08:18:11Z</time>
      </trkpt>
      <trkpt lat="41.86661" lon="9.20077">
        <ele>1705.2</ele>
        <time>2015-06-20T08:18:19Z</time>
      </trkpt>
      <trkpt lat="41.86661" lon="9.20069">
        <ele>1704</ele>
        <time>2015-06-20T08:18:27Z</time>
      </trkpt>
      <trkpt lat="41.8666" lon="9.20065">
        <ele>1703.4</ele>
        <time>2015-06-20T08:18:33Z</time>
      </trkpt>
      <trkpt lat="41.8666" lon="9.20059">
        <ele>1702.2</ele>
        <time>2015-06-20T08:18:40Z</time>
      </trkpt>
      <trkpt lat="41.86659" lon="9.20053">
        <ele>1701.2</ele>
        <time>2015-06-20T08:18:47Z</time>
      </trkpt>
      <trkpt lat="41.86658" lon="9.20047">
        <ele>1700</ele>
        <time>2015-06-20T08:18:55Z</time>
      </trkpt>
      <trkpt lat="41.8666" lon="9.20042">
        <ele>1698.8</ele>
        <time>2015-06-20T08:19:03Z</time>
      </trkpt>
      <trkpt lat="41.86662" lon="9.20037">
        <ele>1697.8</ele>
        <time>2015-06-20T08:19:10Z</time>
      </trkpt>
      <trkpt lat="41.86662" lon="9.20032">
        <ele>1697.2</ele>
        <time>2015-06-20T08:19:15Z</time>
      </trkpt>
      <trkpt lat="41.86662" lon="9.20027">
        <ele>1695.8</ele>
        <time>2015-06-20T08:19:22Z</time>
      </trkpt>
      <trkpt lat="41.86662" lon="9.20022">
        <ele>1695</ele>
        <time>2015-06-20T08:19:28Z</time>
      </trkpt>
      <trkpt lat="41.86664" lon="9.20018">
        <ele>1694</ele>
        <time>2015-06-20T08:19:34Z</time>
      </trkpt>
      <trkpt lat="41.86666" lon="9.20015">
        <ele>1692.8</ele>
        <time>2015-06-20T08:19:40Z</time>
      </trkpt>
      <trkpt lat="41.86664" lon="9.20009">
        <ele>1691.8</ele>
        <time>2015-06-20T08:19:46Z</time>
      </trkpt>
      <trkpt lat="41.86665" lon="9.20004">
        <ele>1690.4</ele>
        <time>2015-06-20T08:19:54Z</time>
      </trkpt>
      <trkpt lat="41.86666" lon="9.2">
        <ele>1689.8</ele>
        <time>2015-06-20T08:20:00Z</time>
      </trkpt>
      <trkpt lat="41.86663" lon="9.19994">
        <ele>1688.6</ele>
        <time>2015-06-20T08:20:07Z</time>
      </trkpt>
      <trkpt lat="41.86661" lon="9.19989">
        <ele>1687.4</ele>
        <time>2015-06-20T08:20:14Z</time>
      </trkpt>
      <trkpt lat="41.86659" lon="9.19984">
        <ele>1686.6</ele>
        <time>2015-06-20T08:20:21Z</time>
      </trkpt>
      <trkpt lat="41.86658" lon="9.19978">
        <ele>1685.4</ele>
        <time>2015-06-20T08:20:28Z</time>
      </trkpt>
      <trkpt lat="41.86657" lon="9.19974">
        <ele>1684.4</ele>
        <time>2015-06-20T08:20:33Z</time>
      </trkpt>
      <trkpt lat="41.86658" lon="9.1997">
        <ele>1683.6</ele>
        <time>2015-06-20T08:20:38Z</time>
      </trkpt>
      <trkpt lat="41.86659" lon="9.19966">
        <ele>1682.4</ele>
        <time>2015-06-20T08:20:44Z</time>
      </trkpt>
      <trkpt lat="41.86659" lon="9.19961">
        <ele>1681.2</ele>
        <time>2015-06-20T08:20:50Z</time>
      </trkpt>
      <trkpt lat="41.8666" lon="9.19957">
        <ele>1680.4</ele>
        <time>2015-06-20T08:20:56Z</time>
      </trkpt>
      <trkpt lat="41.86659" lon="9.1995">
        <ele>1679</ele>
        <time>2015-06-20T08:21:04Z</time>
      </trkpt>
      <trkpt lat="41.86657" lon="9.19946">
        <ele>1678.4</ele>
        <time>2015-06-20T08:21:08Z</time>
      </trkpt>
      <trkpt lat="41.86656" lon="9.19939">
        <ele>1676.8</ele>
        <time>2015-06-20T08:21:16Z</time>
      </trkpt>
      <trkpt lat="41.86656" lon="9.19933">
        <ele>1675.8</ele>
        <time>2015-06-20T08:21:23Z</time>
      </trkpt>
      <trkpt lat="41.86653" lon="9.19925">
        <ele>1674.6</ele>
        <time>2015-06-20T08:21:31Z</time>
      </trkpt>
      <trkpt lat="41.86652" lon="9.19918">
        <ele>1673.4</ele>
        <time>2015-06-20T08:21:40Z</time>
      </trkpt>
      <trkpt lat="41.8665" lon="9.1991">
        <ele>1672.6</ele>
        <time>2015-06-20T08:21:49Z</time>
      </trkpt>
      <trkpt lat="41.86645" lon="9.19905">
        <ele>1671.8</ele>
        <time>2015-06-20T08:21:56Z</time>
      </trkpt>
      <trkpt lat="41.86641" lon="9.19898">
        <ele>1670.6</ele>
        <time>2015-06-20T08:22:04Z</time>
      </trkpt>
      <trkpt lat="41.86639" lon="9.19895">
        <ele>1670.2</ele>
        <time>2015-06-20T08:22:07Z</time>
      </trkpt>
      <trkpt lat="41.8664" lon="9.19892">
        <ele>1669.8</ele>
        <time>2015-06-20T08:22:11Z</time>
      </trkpt>
      <trkpt lat="41.86642" lon="9.19887">
        <ele>1668.8</ele>
        <time>2015-06-20T08:22:18Z</time>
      </trkpt>
      <trkpt lat="41.86641" lon="9.1988">
        <ele>1667.6</ele>
        <time>2015-06-20T08:22:25Z</time>
      </trkpt>
      <trkpt lat="41.8664" lon="9.19875">
        <ele>1666.4</ele>
        <time>2015-06-20T08:22:32Z</time>
      </trkpt>
      <trkpt lat="41.8664" lon="9.19869">
        <ele>1665.4</ele>
        <time>2015-06-20T08:22:39Z</time>
      </trkpt>
      <trkpt lat="41.8664" lon="9.19866">
        <ele>1664.8</ele>
        <time>2015-06-20T08:22:44Z</time>
      </trkpt>
      <trkpt lat="41.86638" lon="9.19862">
        <ele>1663.8</ele>
        <time>2015-06-20T08:22:49Z</time>
      </trkpt>
      <trkpt lat="41.8664" lon="9.19858">
        <ele>1662.6</ele>
        <time>2015-06-20T08:22:55Z</time>
      </trkpt>
      <trkpt lat="41.8664" lon="9.19851">
        <ele>1661.2</ele>
        <time>2015-06-20T08:23:03Z</time>
      </trkpt>
      <trkpt lat="41.86638" lon="9.19847">
        <ele>1660.6</ele>
        <time>2015-06-20T08:23:08Z</time>
      </trkpt>
      <trkpt lat="41.86634" lon="9.19845">
        <ele>1658.8</ele>
        <time>2015-06-20T08:23:17Z</time>
      </trkpt>
      <trkpt lat="41.86634" lon="9.19841">
        <ele>1658.2</ele>
        <time>2015-06-20T08:23:24Z</time>
      </trkpt>
      <trkpt lat="41.86634" lon="9.19838">
        <ele>1657.2</ele>
        <time>2015-06-20T08:23:30Z</time>
      </trkpt>
      <trkpt lat="41.86633" lon="9.19837">
        <ele>1655.8</ele>
        <time>2015-06-20T08:23:38Z</time>
      </trkpt>
      <trkpt lat="41.86634" lon="9.19838">
        <ele>1655.6</ele>
        <time>2015-06-20T08:24:14Z</time>
      </trkpt>
      <trkpt lat="41.86633" lon="9.19836">
        <ele>1655.2</ele>
        <time>2015-06-20T08:25:20Z</time>
      </trkpt>
      <trkpt lat="41.86633" lon="9.19833">
        <ele>1654.8</ele>
        <time>2015-06-20T08:26:16Z</time>
      </trkpt>
      <trkpt lat="41.86632" lon="9.19831">
        <ele>1654</ele>
        <time>2015-06-20T08:28:37Z</time>
      </trkpt>
      <trkpt lat="41.86633" lon="9.19825">
        <ele>1653.4</ele>
        <time>2015-06-20T08:28:46Z</time>
      </trkpt>
      <trkpt lat="41.86634" lon="9.19818">
        <ele>1652.4</ele>
        <time>2015-06-20T08:28:57Z</time>
      </trkpt>
      <trkpt lat="41.86636" lon="9.19815">
        <ele>1652</ele>
        <time>2015-06-20T08:29:02Z</time>
      </trkpt>
      <trkpt lat="41.86641" lon="9.19814">
        <ele>1650.2</ele>
        <time>2015-06-20T08:29:11Z</time>
      </trkpt>
      <trkpt lat="41.86643" lon="9.19811">
        <ele>1649.6</ele>
        <time>2015-06-20T08:29:20Z</time>
      </trkpt>
      <trkpt lat="41.86645" lon="9.19806">
        <ele>1648.6</ele>
        <time>2015-06-20T08:29:28Z</time>
      </trkpt>
      <trkpt lat="41.86646" lon="9.19802">
        <ele>1648</ele>
        <time>2015-06-20T08:29:33Z</time>
      </trkpt>
      <trkpt lat="41.86648" lon="9.19796">
        <ele>1646.2</ele>
        <time>2015-06-20T08:29:41Z</time>
      </trkpt>
      <trkpt lat="41.86651" lon="9.19795">
        <ele>1645.4</ele>
        <time>2015-06-20T08:29:48Z</time>
      </trkpt>
      <trkpt lat="41.86653" lon="9.1979">
        <ele>1644.2</ele>
        <time>2015-06-20T08:29:56Z</time>
      </trkpt>
      <trkpt lat="41.86655" lon="9.19788">
        <ele>1643.4</ele>
        <time>2015-06-20T08:30:02Z</time>
      </trkpt>
      <trkpt lat="41.86656" lon="9.19783">
        <ele>1642.4</ele>
        <time>2015-06-20T08:30:08Z</time>
      </trkpt>
      <trkpt lat="41.86658" lon="9.1978">
        <ele>1641</ele>
        <time>2015-06-20T08:30:16Z</time>
      </trkpt>
      <trkpt lat="41.86658" lon="9.19776">
        <ele>1640.4</ele>
        <time>2015-06-20T08:30:22Z</time>
      </trkpt>
      <trkpt lat="41.86658" lon="9.1977">
        <ele>1639</ele>
        <time>2015-06-20T08:30:30Z</time>
      </trkpt>
      <trkpt lat="41.86659" lon="9.19764">
        <ele>1638.2</ele>
        <time>2015-06-20T08:30:38Z</time>
      </trkpt>
      <trkpt lat="41.8666" lon="9.19758">
        <ele>1637</ele>
        <time>2015-06-20T08:30:46Z</time>
      </trkpt>
      <trkpt lat="41.86659" lon="9.19753">
        <ele>1636.2</ele>
        <time>2015-06-20T08:30:52Z</time>
      </trkpt>
      <trkpt lat="41.86659" lon="9.19747">
        <ele>1635.2</ele>
        <time>2015-06-20T08:30:58Z</time>
      </trkpt>
      <trkpt lat="41.8666" lon="9.19738">
        <ele>1633.8</ele>
        <time>2015-06-20T08:31:06Z</time>
      </trkpt>
      <trkpt lat="41.86658" lon="9.19732">
        <ele>1632.8</ele>
        <time>2015-06-20T08:31:13Z</time>
      </trkpt>
      <trkpt lat="41.86657" lon="9.19726">
        <ele>1631.4</ele>
        <time>2015-06-20T08:31:23Z</time>
      </trkpt>
      <trkpt lat="41.86658" lon="9.19723">
        <ele>1630.6</ele>
        <time>2015-06-20T08:31:31Z</time>
      </trkpt>
      <trkpt lat="41.86659" lon="9.19721">
        <ele>1629</ele>
        <time>2015-06-20T08:32:05Z</time>
      </trkpt>
      <trkpt lat="41.86659" lon="9.19714">
        <ele>1628.8</ele>
        <time>2015-06-20T08:32:37Z</time>
      </trkpt>
      <trkpt lat="41.8666" lon="9.19707">
        <ele>1627.8</ele>
        <time>2015-06-20T08:32:43Z</time>
      </trkpt>
      <trkpt lat="41.8666" lon="9.19703">
        <ele>1626.8</ele>
        <time>2015-06-20T08:32:48Z</time>
      </trkpt>
      <trkpt lat="41.8666" lon="9.19697">
        <ele>1625.4</ele>
        <time>2015-06-20T08:32:55Z</time>
      </trkpt>
      <trkpt lat="41.86657" lon="9.19688">
        <ele>1624.4</ele>
        <time>2015-06-20T08:33:03Z</time>
      </trkpt>
      <trkpt lat="41.86655" lon="9.19679">
        <ele>1623.2</ele>
        <time>2015-06-20T08:33:12Z</time>
      </trkpt>
      <trkpt lat="41.86655" lon="9.19678">
        <ele>1623.2</ele>
        <time>2015-06-20T08:33:13Z</time>
      </trkpt>
      <trkpt lat="41.86659" lon="9.19676">
        <ele>1622.4</ele>
        <time>2015-06-20T08:33:20Z</time>
      </trkpt>
      <trkpt lat="41.86663" lon="9.19673">
        <ele>1621</ele>
        <time>2015-06-20T08:33:27Z</time>
      </trkpt>
      <trkpt lat="41.86664" lon="9.19669">
        <ele>1620.2</ele>
        <time>2015-06-20T08:33:34Z</time>
      </trkpt>
      <trkpt lat="41.86665" lon="9.19664">
        <ele>1618.8</ele>
        <time>2015-06-20T08:33:41Z</time>
      </trkpt>
      <trkpt lat="41.86665" lon="9.19658">
        <ele>1618</ele>
        <time>2015-06-20T08:33:46Z</time>
      </trkpt>
      <trkpt lat="41.86665" lon="9.19653">
        <ele>1616.8</ele>
        <time>2015-06-20T08:33:52Z</time>
      </trkpt>
      <trkpt lat="41.86666" lon="9.19648">
        <ele>1615.8</ele>
        <time>2015-06-20T08:33:57Z</time>
      </trkpt>
      <trkpt lat="41.86668" lon="9.19644">
        <ele>1614.4</ele>
        <time>2015-06-20T08:34:03Z</time>
      </trkpt>
      <trkpt lat="41.86668" lon="9.1964">
        <ele>1613.4</ele>
        <time>2015-06-20T08:34:08Z</time>
      </trkpt>
      <trkpt lat="41.86671" lon="9.19631">
        <ele>1612</ele>
        <time>2015-06-20T08:34:16Z</time>
      </trkpt>
      <trkpt lat="41.86675" lon="9.19627">
        <ele>1611.2</ele>
        <time>2015-06-20T08:34:22Z</time>
      </trkpt>
      <trkpt lat="41.86676" lon="9.19624">
        <ele>1610.6</ele>
        <time>2015-06-20T08:34:25Z</time>
      </trkpt>
      <trkpt lat="41.86677" lon="9.19619">
        <ele>1609.6</ele>
        <time>2015-06-20T08:34:29Z</time>
      </trkpt>
      <trkpt lat="41.86677" lon="9.19618">
        <ele>1609.8</ele>
        <time>2015-06-20T08:34:30Z</time>
      </trkpt>
      <trkpt lat="41.86674" lon="9.19613">
        <ele>1609</ele>
        <time>2015-06-20T08:34:34Z</time>
      </trkpt>
      <trkpt lat="41.86673" lon="9.19609">
        <ele>1608.6</ele>
        <time>2015-06-20T08:34:37Z</time>
      </trkpt>
      <trkpt lat="41.86672" lon="9.19603">
        <ele>1608</ele>
        <time>2015-06-20T08:34:42Z</time>
      </trkpt>
      <trkpt lat="41.86671" lon="9.196">
        <ele>1608</ele>
        <time>2015-06-20T08:34:44Z</time>
      </trkpt>
      <trkpt lat="41.86678" lon="9.19593">
        <ele>1607.2</ele>
        <time>2015-06-20T08:34:54Z</time>
      </trkpt>
      <trkpt lat="41.86679" lon="9.19592">
        <ele>1607.2</ele>
        <time>2015-06-20T08:34:55Z</time>
      </trkpt>
      <trkpt lat="41.8668" lon="9.19591">
        <ele>1607.2</ele>
        <time>2015-06-20T08:34:56Z</time>
      </trkpt>
      <trkpt lat="41.86682" lon="9.19587">
        <ele>1606.8</ele>
        <time>2015-06-20T08:35:00Z</time>
      </trkpt>
      <trkpt lat="41.86685" lon="9.19584">
        <ele>1605.8</ele>
        <time>2015-06-20T08:35:05Z</time>
      </trkpt>
      <trkpt lat="41.86689" lon="9.19587">
        <ele>1605.6</ele>
        <time>2015-06-20T08:35:10Z</time>
      </trkpt>
      <trkpt lat="41.86691" lon="9.19584">
        <ele>1605.4</ele>
        <time>2015-06-20T08:35:13Z</time>
      </trkpt>
      <trkpt lat="41.86691" lon="9.19578">
        <ele>1604.8</ele>
        <time>2015-06-20T08:35:18Z</time>
      </trkpt>
      <trkpt lat="41.86693" lon="9.19575">
        <ele>1604.4</ele>
        <time>2015-06-20T08:35:21Z</time>
      </trkpt>
      <trkpt lat="41.86694" lon="9.19572">
        <ele>1604.2</ele>
        <time>2015-06-20T08:35:24Z</time>
      </trkpt>
      <trkpt lat="41.86699" lon="9.19559">
        <ele>1603.2</ele>
        <time>2015-06-20T08:35:36Z</time>
      </trkpt>
      <trkpt lat="41.86702" lon="9.1955">
        <ele>1602.6</ele>
        <time>2015-06-20T08:35:44Z</time>
      </trkpt>
      <trkpt lat="41.86705" lon="9.19547">
        <ele>1602.4</ele>
        <time>2015-06-20T08:35:47Z</time>
      </trkpt>
      <trkpt lat="41.86715" lon="9.19537">
        <ele>1601.4</ele>
        <time>2015-06-20T08:35:57Z</time>
      </trkpt>
      <trkpt lat="41.86725" lon="9.19523">
        <ele>1600</ele>
        <time>2015-06-20T08:36:11Z</time>
      </trkpt>
      <trkpt lat="41.86726" lon="9.19522">
        <ele>1600.2</ele>
        <time>2015-06-20T08:36:12Z</time>
      </trkpt>
      <trkpt lat="41.8673" lon="9.19515">
        <ele>1599.8</ele>
        <time>2015-06-20T08:36:18Z</time>
      </trkpt>
      <trkpt lat="41.86733" lon="9.1951">
        <ele>1599.4</ele>
        <time>2015-06-20T08:36:22Z</time>
      </trkpt>
      <trkpt lat="41.86735" lon="9.19508">
        <ele>1599.4</ele>
        <time>2015-06-20T08:36:24Z</time>
      </trkpt>
      <trkpt lat="41.86738" lon="9.19506">
        <ele>1599.4</ele>
        <time>2015-06-20T08:36:27Z</time>
      </trkpt>
      <trkpt lat="41.86745" lon="9.19498">
        <ele>1599.2</ele>
        <time>2015-06-20T08:36:36Z</time>
      </trkpt>
      <trkpt lat="41.86748" lon="9.19491">
        <ele>1599</ele>
        <time>2015-06-20T08:36:47Z</time>
      </trkpt>
      <trkpt lat="41.86749" lon="9.19483">
        <ele>1599.8</ele>
        <time>2015-06-20T08:37:06Z</time>
      </trkpt>
      <trkpt lat="41.86749" lon="9.19483">
        <ele>1599.6</ele>
        <time>2015-06-20T08:39:49Z</time>
      </trkpt>
      <trkpt lat="41.86746" lon="9.19481">
        <ele>1600</ele>
        <time>2015-06-20T08:40:37Z</time>
      </trkpt>
      <trkpt lat="41.86748" lon="9.19483">
        <ele>1599.4</ele>
        <time>2015-06-20T08:41:51Z</time>
      </trkpt>
      <trkpt lat="41.86764" lon="9.19482">
        <ele>1599.4</ele>
        <time>2015-06-20T08:42:45Z</time>
      </trkpt>
      <trkpt lat="41.86779" lon="9.19471">
        <ele>1598.4</ele>
        <time>2015-06-20T08:43:01Z</time>
      </trkpt>
      <trkpt lat="41.86792" lon="9.19454">
        <ele>1598</ele>
        <time>2015-06-20T08:43:20Z</time>
      </trkpt>
      <trkpt lat="41.86793" lon="9.1945">
        <ele>1597.6</ele>
        <time>2015-06-20T08:43:23Z</time>
      </trkpt>
      <trkpt lat="41.86793" lon="9.19448">
        <ele>1597.2</ele>
        <time>2015-06-20T08:43:25Z</time>
      </trkpt>
      <trkpt lat="41.86794" lon="9.19441">
        <ele>1597</ele>
        <time>2015-06-20T08:43:31Z</time>
      </trkpt>
      <trkpt lat="41.86799" lon="9.1943">
        <ele>1596</ele>
        <time>2015-06-20T08:43:41Z</time>
      </trkpt>
      <trkpt lat="41.868" lon="9.1943">
        <ele>1595.8</ele>
        <time>2015-06-20T08:43:42Z</time>
      </trkpt>
      <trkpt lat="41.86804" lon="9.19426">
        <ele>1595.2</ele>
        <time>2015-06-20T08:43:49Z</time>
      </trkpt>
      <trkpt lat="41.8681" lon="9.1942">
        <ele>1593.8</ele>
        <time>2015-06-20T08:43:58Z</time>
      </trkpt>
      <trkpt lat="41.86813" lon="9.1941">
        <ele>1592.8</ele>
        <time>2015-06-20T08:44:08Z</time>
      </trkpt>
      <trkpt lat="41.86818" lon="9.19405">
        <ele>1592</ele>
        <time>2015-06-20T08:44:16Z</time>
      </trkpt>
      <trkpt lat="41.86824" lon="9.19399">
        <ele>1590.6</ele>
        <time>2015-06-20T08:44:26Z</time>
      </trkpt>
      <trkpt lat="41.86832" lon="9.19392">
        <ele>1589.6</ele>
        <time>2015-06-20T08:44:39Z</time>
      </trkpt>
      <trkpt lat="41.8684" lon="9.19382">
        <ele>1588.6</ele>
        <time>2015-06-20T08:44:51Z</time>
      </trkpt>
      <trkpt lat="41.86843" lon="9.19377">
        <ele>1588</ele>
        <time>2015-06-20T08:44:57Z</time>
      </trkpt>
      <trkpt lat="41.86843" lon="9.19371">
        <ele>1587.6</ele>
        <time>2015-06-20T08:45:02Z</time>
      </trkpt>
      <trkpt lat="41.86843" lon="9.19368">
        <ele>1587.6</ele>
        <time>2015-06-20T08:45:06Z</time>
      </trkpt>
      <trkpt lat="41.86849" lon="9.19358">
        <ele>1586.4</ele>
        <time>2015-06-20T08:45:16Z</time>
      </trkpt>
      <trkpt lat="41.86854" lon="9.19354">
        <ele>1585.6</ele>
        <time>2015-06-20T08:45:23Z</time>
      </trkpt>
      <trkpt lat="41.86855" lon="9.19353">
        <ele>1585.6</ele>
        <time>2015-06-20T08:45:25Z</time>
      </trkpt>
      <trkpt lat="41.86867" lon="9.19334">
        <ele>1584.2</ele>
        <time>2015-06-20T08:45:45Z</time>
      </trkpt>
      <trkpt lat="41.86868" lon="9.19326">
        <ele>1584</ele>
        <time>2015-06-20T08:45:51Z</time>
      </trkpt>
      <trkpt lat="41.86868" lon="9.19324">
        <ele>1583.8</ele>
        <time>2015-06-20T08:45:52Z</time>
      </trkpt>
      <trkpt lat="41.8687" lon="9.19323">
        <ele>1584</ele>
        <time>2015-06-20T08:45:54Z</time>
      </trkpt>
      <trkpt lat="41.86871" lon="9.19321">
        <ele>1583.8</ele>
        <time>2015-06-20T08:45:56Z</time>
      </trkpt>
      <trkpt lat="41.86872" lon="9.19318">
        <ele>1583.6</ele>
        <time>2015-06-20T08:45:59Z</time>
      </trkpt>
      <trkpt lat="41.86875" lon="9.19313">
        <ele>1583.6</ele>
        <time>2015-06-20T08:46:03Z</time>
      </trkpt>
      <trkpt lat="41.86876" lon="9.1931">
        <ele>1583.2</ele>
        <time>2015-06-20T08:46:06Z</time>
      </trkpt>
      <trkpt lat="41.86876" lon="9.19309">
        <ele>1583.2</ele>
        <time>2015-06-20T08:46:07Z</time>
      </trkpt>
      <trkpt lat="41.86876" lon="9.19305">
        <ele>1583</ele>
        <time>2015-06-20T08:46:10Z</time>
      </trkpt>
      <trkpt lat="41.86877" lon="9.19303">
        <ele>1582.8</ele>
        <time>2015-06-20T08:46:12Z</time>
      </trkpt>
      <trkpt lat="41.86881" lon="9.193">
        <ele>1582.2</ele>
        <time>2015-06-20T08:46:18Z</time>
      </trkpt>
      <trkpt lat="41.86888" lon="9.19295">
        <ele>1581.6</ele>
        <time>2015-06-20T08:46:29Z</time>
      </trkpt>
      <trkpt lat="41.86892" lon="9.19292">
        <ele>1580.6</ele>
        <time>2015-06-20T08:46:37Z</time>
      </trkpt>
      <trkpt lat="41.86896" lon="9.19289">
        <ele>1579.4</ele>
        <time>2015-06-20T08:46:45Z</time>
      </trkpt>
      <trkpt lat="41.869" lon="9.19287">
        <ele>1578.8</ele>
        <time>2015-06-20T08:46:52Z</time>
      </trkpt>
      <trkpt lat="41.86904" lon="9.19284">
        <ele>1577.8</ele>
        <time>2015-06-20T08:46:57Z</time>
      </trkpt>
      <trkpt lat="41.86906" lon="9.19281">
        <ele>1577.4</ele>
        <time>2015-06-20T08:47:00Z</time>
      </trkpt>
      <trkpt lat="41.86905" lon="9.19275">
        <ele>1576.6</ele>
        <time>2015-06-20T08:47:06Z</time>
      </trkpt>
      <trkpt lat="41.86904" lon="9.19272">
        <ele>1576.2</ele>
        <time>2015-06-20T08:47:09Z</time>
      </trkpt>
      <trkpt lat="41.86905" lon="9.19269">
        <ele>1575.4</ele>
        <time>2015-06-20T08:47:12Z</time>
      </trkpt>
      <trkpt lat="41.86907" lon="9.19264">
        <ele>1574.4</ele>
        <time>2015-06-20T08:47:18Z</time>
      </trkpt>
      <trkpt lat="41.8691" lon="9.19256">
        <ele>1573.2</ele>
        <time>2015-06-20T08:47:26Z</time>
      </trkpt>
      <trkpt lat="41.86911" lon="9.19251">
        <ele>1572.4</ele>
        <time>2015-06-20T08:47:32Z</time>
      </trkpt>
      <trkpt lat="41.86915" lon="9.19245">
        <ele>1571</ele>
        <time>2015-06-20T08:47:40Z</time>
      </trkpt>
      <trkpt lat="41.86917" lon="9.19239">
        <ele>1570</ele>
        <time>2015-06-20T08:47:48Z</time>
      </trkpt>
      <trkpt lat="41.86921" lon="9.19227">
        <ele>1568.8</ele>
        <time>2015-06-20T08:47:59Z</time>
      </trkpt>
      <trkpt lat="41.8692" lon="9.19216">
        <ele>1567.8</ele>
        <time>2015-06-20T08:48:10Z</time>
      </trkpt>
      <trkpt lat="41.86918" lon="9.1921">
        <ele>1567</ele>
        <time>2015-06-20T08:48:17Z</time>
      </trkpt>
      <trkpt lat="41.86919" lon="9.19201">
        <ele>1565.4</ele>
        <time>2015-06-20T08:48:30Z</time>
      </trkpt>
      <trkpt lat="41.86922" lon="9.19195">
        <ele>1565.2</ele>
        <time>2015-06-20T08:48:36Z</time>
      </trkpt>
      <trkpt lat="41.86923" lon="9.19188">
        <ele>1564</ele>
        <time>2015-06-20T08:48:42Z</time>
      </trkpt>
      <trkpt lat="41.86923" lon="9.19183">
        <ele>1563.2</ele>
        <time>2015-06-20T08:48:47Z</time>
      </trkpt>
      <trkpt lat="41.86923" lon="9.19182">
        <ele>1563</ele>
        <time>2015-06-20T08:48:48Z</time>
      </trkpt>
      <trkpt lat="41.86921" lon="9.19178">
        <ele>1561.8</ele>
        <time>2015-06-20T08:48:53Z</time>
      </trkpt>
      <trkpt lat="41.86917" lon="9.19173">
        <ele>1560.8</ele>
        <time>2015-06-20T08:48:59Z</time>
      </trkpt>
      <trkpt lat="41.86915" lon="9.19172">
        <ele>1560.2</ele>
        <time>2015-06-20T08:49:02Z</time>
      </trkpt>
      <trkpt lat="41.86915" lon="9.19171">
        <ele>1559.6</ele>
        <time>2015-06-20T08:49:05Z</time>
      </trkpt>
      <trkpt lat="41.86917" lon="9.19165">
        <ele>1558.4</ele>
        <time>2015-06-20T08:49:13Z</time>
      </trkpt>
      <trkpt lat="41.86921" lon="9.1916">
        <ele>1557.2</ele>
        <time>2015-06-20T08:49:22Z</time>
      </trkpt>
      <trkpt lat="41.86923" lon="9.19153">
        <ele>1556.2</ele>
        <time>2015-06-20T08:49:33Z</time>
      </trkpt>
      <trkpt lat="41.86922" lon="9.1915">
        <ele>1554.8</ele>
        <time>2015-06-20T08:49:47Z</time>
      </trkpt>
      <trkpt lat="41.86922" lon="9.19143">
        <ele>1553.8</ele>
        <time>2015-06-20T08:50:00Z</time>
      </trkpt>
      <trkpt lat="41.86925" lon="9.19138">
        <ele>1553.6</ele>
        <time>2015-06-20T08:50:06Z</time>
      </trkpt>
      <trkpt lat="41.86927" lon="9.1913">
        <ele>1552.2</ele>
        <time>2015-06-20T08:50:15Z</time>
      </trkpt>
      <trkpt lat="41.86929" lon="9.19126">
        <ele>1551.6</ele>
        <time>2015-06-20T08:50:20Z</time>
      </trkpt>
      <trkpt lat="41.86933" lon="9.19121">
        <ele>1550.4</ele>
        <time>2015-06-20T08:50:26Z</time>
      </trkpt>
      <trkpt lat="41.86938" lon="9.19116">
        <ele>1549.2</ele>
        <time>2015-06-20T08:50:33Z</time>
      </trkpt>
      <trkpt lat="41.86942" lon="9.19105">
        <ele>1547.8</ele>
        <time>2015-06-20T08:50:43Z</time>
      </trkpt>
      <trkpt lat="41.86946" lon="9.19101">
        <ele>1547.2</ele>
        <time>2015-06-20T08:50:48Z</time>
      </trkpt>
      <trkpt lat="41.86948" lon="9.19103">
        <ele>1547</ele>
        <time>2015-06-20T08:50:50Z</time>
      </trkpt>
      <trkpt lat="41.86949" lon="9.19104">
        <ele>1546.6</ele>
        <time>2015-06-20T08:50:52Z</time>
      </trkpt>
      <trkpt lat="41.8696" lon="9.19096">
        <ele>1545.6</ele>
        <time>2015-06-20T08:51:23Z</time>
      </trkpt>
      <trkpt lat="41.86968" lon="9.19092">
        <ele>1544.2</ele>
        <time>2015-06-20T08:51:34Z</time>
      </trkpt>
      <trkpt lat="41.86967" lon="9.19085">
        <ele>1543.4</ele>
        <time>2015-06-20T08:51:45Z</time>
      </trkpt>
      <trkpt lat="41.86964" lon="9.19079">
        <ele>1542.2</ele>
        <time>2015-06-20T08:51:58Z</time>
      </trkpt>
      <trkpt lat="41.86966" lon="9.19074">
        <ele>1541.8</ele>
        <time>2015-06-20T08:52:05Z</time>
      </trkpt>
      <trkpt lat="41.8697" lon="9.19072">
        <ele>1540.4</ele>
        <time>2015-06-20T08:52:20Z</time>
      </trkpt>
      <trkpt lat="41.86974" lon="9.19065">
        <ele>1539.4</ele>
        <time>2015-06-20T08:52:31Z</time>
      </trkpt>
      <trkpt lat="41.86975" lon="9.19062">
        <ele>1539</ele>
        <time>2015-06-20T08:52:36Z</time>
      </trkpt>
      <trkpt lat="41.86976" lon="9.19057">
        <ele>1537.2</ele>
        <time>2015-06-20T08:52:45Z</time>
      </trkpt>
      <trkpt lat="41.86977" lon="9.19051">
        <ele>1536.4</ele>
        <time>2015-06-20T08:52:55Z</time>
      </trkpt>
      <trkpt lat="41.86979" lon="9.19045">
        <ele>1535</ele>
        <time>2015-06-20T08:53:04Z</time>
      </trkpt>
      <trkpt lat="41.86984" lon="9.19042">
        <ele>1534.6</ele>
        <time>2015-06-20T08:53:10Z</time>
      </trkpt>
      <trkpt lat="41.86985" lon="9.19041">
        <ele>1534.2</ele>
        <time>2015-06-20T08:53:12Z</time>
      </trkpt>
      <trkpt lat="41.86985" lon="9.19037">
        <ele>1533.6</ele>
        <time>2015-06-20T08:53:15Z</time>
      </trkpt>
      <trkpt lat="41.86987" lon="9.19035">
        <ele>1533</ele>
        <time>2015-06-20T08:53:18Z</time>
      </trkpt>
      <trkpt lat="41.86988" lon="9.19036">
        <ele>1532.8</ele>
        <time>2015-06-20T08:53:19Z</time>
      </trkpt>
      <trkpt lat="41.86992" lon="9.19034">
        <ele>1532.2</ele>
        <time>2015-06-20T08:53:25Z</time>
      </trkpt>
      <trkpt lat="41.86996" lon="9.19032">
        <ele>1531.2</ele>
        <time>2015-06-20T08:53:31Z</time>
      </trkpt>
      <trkpt lat="41.87" lon="9.19033">
        <ele>1529.8</ele>
        <time>2015-06-20T08:53:37Z</time>
      </trkpt>
      <trkpt lat="41.87006" lon="9.19033">
        <ele>1528.6</ele>
        <time>2015-06-20T08:53:48Z</time>
      </trkpt>
      <trkpt lat="41.87009" lon="9.19035">
        <ele>1527.8</ele>
        <time>2015-06-20T08:53:54Z</time>
      </trkpt>
      <trkpt lat="41.87014" lon="9.19034">
        <ele>1526.8</ele>
        <time>2015-06-20T08:54:02Z</time>
      </trkpt>
      <trkpt lat="41.8702" lon="9.19037">
        <ele>1525.4</ele>
        <time>2015-06-20T08:54:09Z</time>
      </trkpt>
      <trkpt lat="41.8703" lon="9.19041">
        <ele>1524.2</ele>
        <time>2015-06-20T08:54:22Z</time>
      </trkpt>
      <trkpt lat="41.87034" lon="9.19041">
        <ele>1524</ele>
        <time>2015-06-20T08:54:26Z</time>
      </trkpt>
      <trkpt lat="41.87035" lon="9.1904">
        <ele>1523.8</ele>
        <time>2015-06-20T08:54:28Z</time>
      </trkpt>
      <trkpt lat="41.87036" lon="9.1904">
        <ele>1523.4</ele>
        <time>2015-06-20T08:54:29Z</time>
      </trkpt>
      <trkpt lat="41.87037" lon="9.19041">
        <ele>1523.4</ele>
        <time>2015-06-20T08:54:30Z</time>
      </trkpt>
      <trkpt lat="41.8704" lon="9.19037">
        <ele>1522.4</ele>
        <time>2015-06-20T08:54:36Z</time>
      </trkpt>
      <trkpt lat="41.87041" lon="9.19036">
        <ele>1522.2</ele>
        <time>2015-06-20T08:54:37Z</time>
      </trkpt>
      <trkpt lat="41.87042" lon="9.19031">
        <ele>1521.4</ele>
        <time>2015-06-20T08:54:43Z</time>
      </trkpt>
      <trkpt lat="41.87046" lon="9.19029">
        <ele>1520.2</ele>
        <time>2015-06-20T08:54:50Z</time>
      </trkpt>
      <trkpt lat="41.87054" lon="9.19033">
        <ele>1518.6</ele>
        <time>2015-06-20T08:55:10Z</time>
      </trkpt>
      <trkpt lat="41.87058" lon="9.19029">
        <ele>1518</ele>
        <time>2015-06-20T08:55:17Z</time>
      </trkpt>
      <trkpt lat="41.87062" lon="9.19027">
        <ele>1517.4</ele>
        <time>2015-06-20T08:55:22Z</time>
      </trkpt>
      <trkpt lat="41.87066" lon="9.19028">
        <ele>1516.2</ele>
        <time>2015-06-20T08:55:28Z</time>
      </trkpt>
      <trkpt lat="41.8707" lon="9.19028">
        <ele>1515.2</ele>
        <time>2015-06-20T08:55:33Z</time>
      </trkpt>
      <trkpt lat="41.87075" lon="9.19029">
        <ele>1513.8</ele>
        <time>2015-06-20T08:55:39Z</time>
      </trkpt>
      <trkpt lat="41.87083" lon="9.19025">
        <ele>1512.6</ele>
        <time>2015-06-20T08:55:48Z</time>
      </trkpt>
      <trkpt lat="41.8709" lon="9.19021">
        <ele>1511.4</ele>
        <time>2015-06-20T08:55:56Z</time>
      </trkpt>
      <trkpt lat="41.87097" lon="9.19024">
        <ele>1510.6</ele>
        <time>2015-06-20T08:56:03Z</time>
      </trkpt>
      <trkpt lat="41.87101" lon="9.1902">
        <ele>1509.2</ele>
        <time>2015-06-20T08:56:10Z</time>
      </trkpt>
      <trkpt lat="41.87107" lon="9.19017">
        <ele>1508</ele>
        <time>2015-06-20T08:56:18Z</time>
      </trkpt>
      <trkpt lat="41.87113" lon="9.19016">
        <ele>1507.2</ele>
        <time>2015-06-20T08:56:25Z</time>
      </trkpt>
      <trkpt lat="41.87116" lon="9.19009">
        <ele>1506</ele>
        <time>2015-06-20T08:56:33Z</time>
      </trkpt>
      <trkpt lat="41.87118" lon="9.19005">
        <ele>1505.2</ele>
        <time>2015-06-20T08:56:40Z</time>
      </trkpt>
      <trkpt lat="41.87122" lon="9.18997">
        <ele>1504</ele>
        <time>2015-06-20T08:56:49Z</time>
      </trkpt>
      <trkpt lat="41.87126" lon="9.18997">
        <ele>1503.2</ele>
        <time>2015-06-20T08:56:55Z</time>
      </trkpt>
      <trkpt lat="41.87132" lon="9.19001">
        <ele>1501.8</ele>
        <time>2015-06-20T08:57:04Z</time>
      </trkpt>
      <trkpt lat="41.87138" lon="9.19003">
        <ele>1500.8</ele>
        <time>2015-06-20T08:57:24Z</time>
      </trkpt>
      <trkpt lat="41.87144" lon="9.19006">
        <ele>1499.6</ele>
        <time>2015-06-20T08:57:35Z</time>
      </trkpt>
      <trkpt lat="41.8715" lon="9.19006">
        <ele>1498.8</ele>
        <time>2015-06-20T08:57:42Z</time>
      </trkpt>
      <trkpt lat="41.87157" lon="9.19001">
        <ele>1497.6</ele>
        <time>2015-06-20T08:57:51Z</time>
      </trkpt>
      <trkpt lat="41.8716" lon="9.18994">
        <ele>1496.8</ele>
        <time>2015-06-20T08:57:58Z</time>
      </trkpt>
      <trkpt lat="41.87162" lon="9.1899">
        <ele>1495.8</ele>
        <time>2015-06-20T08:58:03Z</time>
      </trkpt>
      <trkpt lat="41.87164" lon="9.18987">
        <ele>1494.8</ele>
        <time>2015-06-20T08:58:08Z</time>
      </trkpt>
      <trkpt lat="41.87166" lon="9.18982">
        <ele>1493.4</ele>
        <time>2015-06-20T08:58:14Z</time>
      </trkpt>
      <trkpt lat="41.87165" lon="9.18973">
        <ele>1491.8</ele>
        <time>2015-06-20T08:58:23Z</time>
      </trkpt>
      <trkpt lat="41.87163" lon="9.18969">
        <ele>1491.2</ele>
        <time>2015-06-20T08:58:29Z</time>
      </trkpt>
      <trkpt lat="41.87161" lon="9.18964">
        <ele>1490.2</ele>
        <time>2015-06-20T08:58:35Z</time>
      </trkpt>
      <trkpt lat="41.87159" lon="9.18961">
        <ele>1489.6</ele>
        <time>2015-06-20T08:58:38Z</time>
      </trkpt>
      <trkpt lat="41.8716" lon="9.18958">
        <ele>1488.8</ele>
        <time>2015-06-20T08:58:43Z</time>
      </trkpt>
      <trkpt lat="41.8716" lon="9.18956">
        <ele>1488</ele>
        <time>2015-06-20T08:58:49Z</time>
      </trkpt>
      <trkpt lat="41.87163" lon="9.18954">
        <ele>1486.8</ele>
        <time>2015-06-20T08:58:55Z</time>
      </trkpt>
      <trkpt lat="41.87165" lon="9.18951">
        <ele>1485.6</ele>
        <time>2015-06-20T08:59:01Z</time>
      </trkpt>
      <trkpt lat="41.87164" lon="9.18946">
        <ele>1484.6</ele>
        <time>2015-06-20T08:59:06Z</time>
      </trkpt>
      <trkpt lat="41.87164" lon="9.18942">
        <ele>1483.4</ele>
        <time>2015-06-20T08:59:12Z</time>
      </trkpt>
      <trkpt lat="41.87164" lon="9.18939">
        <ele>1482.4</ele>
        <time>2015-06-20T08:59:17Z</time>
      </trkpt>
      <trkpt lat="41.87162" lon="9.18934">
        <ele>1481.2</ele>
        <time>2015-06-20T08:59:23Z</time>
      </trkpt>
      <trkpt lat="41.87163" lon="9.1893">
        <ele>1480</ele>
        <time>2015-06-20T08:59:29Z</time>
      </trkpt>
      <trkpt lat="41.87165" lon="9.18926">
        <ele>1478.6</ele>
        <time>2015-06-20T08:59:36Z</time>
      </trkpt>
      <trkpt lat="41.87167" lon="9.18927">
        <ele>1477.8</ele>
        <time>2015-06-20T08:59:42Z</time>
      </trkpt>
      <trkpt lat="41.87171" lon="9.18927">
        <ele>1476.6</ele>
        <time>2015-06-20T08:59:49Z</time>
      </trkpt>
      <trkpt lat="41.87174" lon="9.18927">
        <ele>1475.8</ele>
        <time>2015-06-20T08:59:54Z</time>
      </trkpt>
      <trkpt lat="41.87178" lon="9.18927">
        <ele>1474.2</ele>
        <time>2015-06-20T09:00:03Z</time>
      </trkpt>
      <trkpt lat="41.87179" lon="9.18926">
        <ele>1473.2</ele>
        <time>2015-06-20T09:00:10Z</time>
      </trkpt>
      <trkpt lat="41.8718" lon="9.18921">
        <ele>1472.2</ele>
        <time>2015-06-20T09:00:16Z</time>
      </trkpt>
      <trkpt lat="41.87182" lon="9.18919">
        <ele>1471</ele>
        <time>2015-06-20T09:00:23Z</time>
      </trkpt>
      <trkpt lat="41.87184" lon="9.18918">
        <ele>1470</ele>
        <time>2015-06-20T09:00:29Z</time>
      </trkpt>
      <trkpt lat="41.87186" lon="9.18915">
        <ele>1468.6</ele>
        <time>2015-06-20T09:00:36Z</time>
      </trkpt>
      <trkpt lat="41.87186" lon="9.18911">
        <ele>1467.6</ele>
        <time>2015-06-20T09:00:43Z</time>
      </trkpt>
      <trkpt lat="41.87184" lon="9.18909">
        <ele>1466.6</ele>
        <time>2015-06-20T09:00:50Z</time>
      </trkpt>
      <trkpt lat="41.87181" lon="9.18907">
        <ele>1465.6</ele>
        <time>2015-06-20T09:00:56Z</time>
      </trkpt>
      <trkpt lat="41.87179" lon="9.18902">
        <ele>1464.4</ele>
        <time>2015-06-20T09:01:03Z</time>
      </trkpt>
      <trkpt lat="41.8718" lon="9.18897">
        <ele>1463.4</ele>
        <time>2015-06-20T09:01:11Z</time>
      </trkpt>
      <trkpt lat="41.87179" lon="9.1889">
        <ele>1462.4</ele>
        <time>2015-06-20T09:01:17Z</time>
      </trkpt>
      <trkpt lat="41.8718" lon="9.18885">
        <ele>1461.6</ele>
        <time>2015-06-20T09:01:22Z</time>
      </trkpt>
      <trkpt lat="41.87184" lon="9.18877">
        <ele>1460.2</ele>
        <time>2015-06-20T09:01:29Z</time>
      </trkpt>
      <trkpt lat="41.87187" lon="9.18872">
        <ele>1459.2</ele>
        <time>2015-06-20T09:01:35Z</time>
      </trkpt>
      <trkpt lat="41.87191" lon="9.18869">
        <ele>1458.2</ele>
        <time>2015-06-20T09:01:40Z</time>
      </trkpt>
      <trkpt lat="41.87194" lon="9.18865">
        <ele>1457.4</ele>
        <time>2015-06-20T09:01:45Z</time>
      </trkpt>
      <trkpt lat="41.87198" lon="9.18861">
        <ele>1455.8</ele>
        <time>2015-06-20T09:01:52Z</time>
      </trkpt>
      <trkpt lat="41.872" lon="9.18855">
        <ele>1454.8</ele>
        <time>2015-06-20T09:01:59Z</time>
      </trkpt>
      <trkpt lat="41.87202" lon="9.18852">
        <ele>1454.2</ele>
        <time>2015-06-20T09:02:04Z</time>
      </trkpt>
      <trkpt lat="41.87206" lon="9.1885">
        <ele>1453.2</ele>
        <time>2015-06-20T09:02:09Z</time>
      </trkpt>
      <trkpt lat="41.87211" lon="9.18853">
        <ele>1451.2</ele>
        <time>2015-06-20T09:02:16Z</time>
      </trkpt>
      <trkpt lat="41.87221" lon="9.18849">
        <ele>1450.2</ele>
        <time>2015-06-20T09:02:32Z</time>
      </trkpt>
      <trkpt lat="41.87225" lon="9.18846">
        <ele>1449.4</ele>
        <time>2015-06-20T09:02:39Z</time>
      </trkpt>
      <trkpt lat="41.87229" lon="9.18841">
        <ele>1448.4</ele>
        <time>2015-06-20T09:02:47Z</time>
      </trkpt>
      <trkpt lat="41.87233" lon="9.18836">
        <ele>1447.2</ele>
        <time>2015-06-20T09:02:56Z</time>
      </trkpt>
      <trkpt lat="41.87234" lon="9.18832">
        <ele>1446.4</ele>
        <time>2015-06-20T09:03:03Z</time>
      </trkpt>
      <trkpt lat="41.87236" lon="9.18828">
        <ele>1445.2</ele>
        <time>2015-06-20T09:03:10Z</time>
      </trkpt>
      <trkpt lat="41.87238" lon="9.18822">
        <ele>1444.2</ele>
        <time>2015-06-20T09:03:18Z</time>
      </trkpt>
      <trkpt lat="41.8724" lon="9.18818">
        <ele>1443.2</ele>
        <time>2015-06-20T09:03:25Z</time>
      </trkpt>
      <trkpt lat="41.87241" lon="9.18811">
        <ele>1442</ele>
        <time>2015-06-20T09:03:32Z</time>
      </trkpt>
      <trkpt lat="41.87245" lon="9.18807">
        <ele>1441</ele>
        <time>2015-06-20T09:03:39Z</time>
      </trkpt>
      <trkpt lat="41.87248" lon="9.188">
        <ele>1439.8</ele>
        <time>2015-06-20T09:03:46Z</time>
      </trkpt>
      <trkpt lat="41.87248" lon="9.18794">
        <ele>1439</ele>
        <time>2015-06-20T09:03:52Z</time>
      </trkpt>
      <trkpt lat="41.8725" lon="9.18791">
        <ele>1438</ele>
        <time>2015-06-20T09:03:57Z</time>
      </trkpt>
      <trkpt lat="41.87251" lon="9.18788">
        <ele>1436.8</ele>
        <time>2015-06-20T09:04:02Z</time>
      </trkpt>
      <trkpt lat="41.8725" lon="9.18782">
        <ele>1435.2</ele>
        <time>2015-06-20T09:04:11Z</time>
      </trkpt>
      <trkpt lat="41.87247" lon="9.18775">
        <ele>1434.2</ele>
        <time>2015-06-20T09:04:20Z</time>
      </trkpt>
      <trkpt lat="41.87246" lon="9.1877">
        <ele>1433.4</ele>
        <time>2015-06-20T09:04:27Z</time>
      </trkpt>
      <trkpt lat="41.87244" lon="9.18765">
        <ele>1432.6</ele>
        <time>2015-06-20T09:04:33Z</time>
      </trkpt>
      <trkpt lat="41.8724" lon="9.18761">
        <ele>1431.4</ele>
        <time>2015-06-20T09:04:40Z</time>
      </trkpt>
      <trkpt lat="41.87235" lon="9.18758">
        <ele>1430</ele>
        <time>2015-06-20T09:04:48Z</time>
      </trkpt>
      <trkpt lat="41.87233" lon="9.18754">
        <ele>1429</ele>
        <time>2015-06-20T09:04:54Z</time>
      </trkpt>
      <trkpt lat="41.87229" lon="9.18749">
        <ele>1428</ele>
        <time>2015-06-20T09:05:00Z</time>
      </trkpt>
      <trkpt lat="41.87223" lon="9.1874">
        <ele>1426.4</ele>
        <time>2015-06-20T09:05:08Z</time>
      </trkpt>
      <trkpt lat="41.87218" lon="9.18733">
        <ele>1425.4</ele>
        <time>2015-06-20T09:05:17Z</time>
      </trkpt>
      <trkpt lat="41.8721" lon="9.18725">
        <ele>1424.4</ele>
        <time>2015-06-20T09:05:27Z</time>
      </trkpt>
      <trkpt lat="41.87195" lon="9.18714">
        <ele>1423</ele>
        <time>2015-06-20T09:05:44Z</time>
      </trkpt>
      <trkpt lat="41.87182" lon="9.187">
        <ele>1422.2</ele>
        <time>2015-06-20T09:06:00Z</time>
      </trkpt>
      <trkpt lat="41.87173" lon="9.1869">
        <ele>1421.6</ele>
        <time>2015-06-20T09:06:09Z</time>
      </trkpt>
      <trkpt lat="41.87169" lon="9.1869">
        <ele>1421.2</ele>
        <time>2015-06-20T09:06:13Z</time>
      </trkpt>
      <trkpt lat="41.87151" lon="9.18684">
        <ele>1421</ele>
        <time>2015-06-20T09:06:32Z</time>
      </trkpt>
      <trkpt lat="41.87146" lon="9.18681">
        <ele>1420.8</ele>
        <time>2015-06-20T09:06:40Z</time>
      </trkpt>
      <trkpt lat="41.87128" lon="9.18674">
        <ele>1420.4</ele>
        <time>2015-06-20T09:07:21Z</time>
      </trkpt>
      <trkpt lat="41.87124" lon="9.1867">
        <ele>1419.6</ele>
        <time>2015-06-20T09:07:37Z</time>
      </trkpt>
      <trkpt lat="41.87122" lon="9.18658">
        <ele>1419</ele>
        <time>2015-06-20T09:08:05Z</time>
      </trkpt>
      <trkpt lat="41.87118" lon="9.18655">
        <ele>1418.6</ele>
        <time>2015-06-20T09:08:11Z</time>
      </trkpt>
      <trkpt lat="41.87116" lon="9.18648">
        <ele>1418.4</ele>
        <time>2015-06-20T09:09:24Z</time>
      </trkpt>
      <trkpt lat="41.87112" lon="9.18654">
        <ele>1418.2</ele>
        <time>2015-06-20T09:09:30Z</time>
      </trkpt>
      <trkpt lat="41.8711" lon="9.18657">
        <ele>1417.4</ele>
        <time>2015-06-20T09:09:34Z</time>
      </trkpt>
      <trkpt lat="41.87111" lon="9.18658">
        <ele>1417.2</ele>
        <time>2015-06-20T09:09:36Z</time>
      </trkpt>
      <trkpt lat="41.8711" lon="9.18661">
        <ele>1416.4</ele>
        <time>2015-06-20T09:10:00Z</time>
      </trkpt>
      <trkpt lat="41.87106" lon="9.18655">
        <ele>1416.2</ele>
        <time>2015-06-20T09:10:48Z</time>
      </trkpt>
      <trkpt lat="41.87102" lon="9.18648">
        <ele>1416.2</ele>
        <time>2015-06-20T09:11:13Z</time>
      </trkpt>
      <trkpt lat="41.87103" lon="9.1865">
        <ele>1416.2</ele>
        <time>2015-06-20T09:11:15Z</time>
      </trkpt>
      <trkpt lat="41.87108" lon="9.18654">
        <ele>1416.4</ele>
        <time>2015-06-20T09:11:44Z</time>
      </trkpt>
      <trkpt lat="41.87113" lon="9.18649">
        <ele>1417</ele>
        <time>2015-06-20T09:12:43Z</time>
      </trkpt>
      <trkpt lat="41.87112" lon="9.18644">
        <ele>1418</ele>
        <time>2015-06-20T09:12:52Z</time>
      </trkpt>
      <trkpt lat="41.8711" lon="9.18627">
        <ele>1419</ele>
        <time>2015-06-20T09:15:57Z</time>
      </trkpt>
      <trkpt lat="41.8711" lon="9.18624">
        <ele>1419.2</ele>
        <time>2015-06-20T09:15:59Z</time>
      </trkpt>
      <trkpt lat="41.8712" lon="9.18622">
        <ele>1419</ele>
        <time>2015-06-20T09:16:10Z</time>
      </trkpt>
      <trkpt lat="41.87123" lon="9.18621">
        <ele>1419</ele>
        <time>2015-06-20T09:16:13Z</time>
      </trkpt>
      <trkpt lat="41.87144" lon="9.18605">
        <ele>1418.4</ele>
        <time>2015-06-20T09:16:42Z</time>
      </trkpt>
      <trkpt lat="41.87158" lon="9.186">
        <ele>1417</ele>
        <time>2015-06-20T09:16:58Z</time>
      </trkpt>
      <trkpt lat="41.87176" lon="9.18586">
        <ele>1417.4</ele>
        <time>2015-06-20T09:17:24Z</time>
      </trkpt>
      <trkpt lat="41.87182" lon="9.18582">
        <ele>1418.6</ele>
        <time>2015-06-20T09:17:35Z</time>
      </trkpt>
      <trkpt lat="41.8719" lon="9.18575">
        <ele>1419.6</ele>
        <time>2015-06-20T09:17:48Z</time>
      </trkpt>
      <trkpt lat="41.87195" lon="9.18565">
        <ele>1420.8</ele>
        <time>2015-06-20T09:18:00Z</time>
      </trkpt>
      <trkpt lat="41.87197" lon="9.18557">
        <ele>1421.8</ele>
        <time>2015-06-20T09:18:11Z</time>
      </trkpt>
      <trkpt lat="41.87199" lon="9.18549">
        <ele>1422.8</ele>
        <time>2015-06-20T09:18:20Z</time>
      </trkpt>
      <trkpt lat="41.872" lon="9.18542">
        <ele>1423.6</ele>
        <time>2015-06-20T09:18:28Z</time>
      </trkpt>
      <trkpt lat="41.87204" lon="9.18534">
        <ele>1425</ele>
        <time>2015-06-20T09:18:38Z</time>
      </trkpt>
      <trkpt lat="41.87205" lon="9.18524">
        <ele>1426</ele>
        <time>2015-06-20T09:18:47Z</time>
      </trkpt>
      <trkpt lat="41.87211" lon="9.18465">
        <ele>1427</ele>
        <time>2015-06-20T09:19:36Z</time>
      </trkpt>
      <trkpt lat="41.87217" lon="9.18456">
        <ele>1427.8</ele>
        <time>2015-06-20T09:19:47Z</time>
      </trkpt>
      <trkpt lat="41.87228" lon="9.18464">
        <ele>1428</ele>
        <time>2015-06-20T09:20:17Z</time>
      </trkpt>
      <trkpt lat="41.87228" lon="9.18465">
        <ele>1428</ele>
        <time>2015-06-20T09:20:18Z</time>
      </trkpt>
      <trkpt lat="41.8723" lon="9.18476">
        <ele>1426.6</ele>
        <time>2015-06-20T09:20:28Z</time>
      </trkpt>
      <trkpt lat="41.87231" lon="9.18478">
        <ele>1426.6</ele>
        <time>2015-06-20T09:20:29Z</time>
      </trkpt>
      <trkpt lat="41.87239" lon="9.18478">
        <ele>1425.4</ele>
        <time>2015-06-20T09:20:41Z</time>
      </trkpt>
      <trkpt lat="41.87252" lon="9.18492">
        <ele>1424.4</ele>
        <time>2015-06-20T09:21:03Z</time>
      </trkpt>
      <trkpt lat="41.8727" lon="9.18496">
        <ele>1423.6</ele>
        <time>2015-06-20T09:21:20Z</time>
      </trkpt>
      <trkpt lat="41.87306" lon="9.18483">
        <ele>1423.4</ele>
        <time>2015-06-20T09:22:08Z</time>
      </trkpt>
      <trkpt lat="41.8731" lon="9.18473">
        <ele>1424.4</ele>
        <time>2015-06-20T09:22:20Z</time>
      </trkpt>
      <trkpt lat="41.87316" lon="9.18464">
        <ele>1426.2</ele>
        <time>2015-06-20T09:22:36Z</time>
      </trkpt>
      <trkpt lat="41.87324" lon="9.1846">
        <ele>1427.2</ele>
        <time>2015-06-20T09:22:53Z</time>
      </trkpt>
      <trkpt lat="41.87325" lon="9.18453">
        <ele>1427.8</ele>
        <time>2015-06-20T09:23:03Z</time>
      </trkpt>
      <trkpt lat="41.87329" lon="9.18451">
        <ele>1428.6</ele>
        <time>2015-06-20T09:23:10Z</time>
      </trkpt>
      <trkpt lat="41.87328" lon="9.18444">
        <ele>1429.8</ele>
        <time>2015-06-20T09:23:21Z</time>
      </trkpt>
      <trkpt lat="41.87326" lon="9.18441">
        <ele>1430.6</ele>
        <time>2015-06-20T09:23:27Z</time>
      </trkpt>
      <trkpt lat="41.87326" lon="9.18441">
        <ele>1430.6</ele>
        <time>2015-06-20T09:23:28Z</time>
      </trkpt>
      <trkpt lat="41.87326" lon="9.18435">
        <ele>1432</ele>
        <time>2015-06-20T09:23:40Z</time>
      </trkpt>
      <trkpt lat="41.87327" lon="9.18431">
        <ele>1433.4</ele>
        <time>2015-06-20T09:23:50Z</time>
      </trkpt>
      <trkpt lat="41.87329" lon="9.18429">
        <ele>1434</ele>
        <time>2015-06-20T09:23:57Z</time>
      </trkpt>
      <trkpt lat="41.87334" lon="9.18428">
        <ele>1435.8</ele>
        <time>2015-06-20T09:24:09Z</time>
      </trkpt>
      <trkpt lat="41.87353" lon="9.18422">
        <ele>1437.4</ele>
        <time>2015-06-20T09:24:35Z</time>
      </trkpt>
      <trkpt lat="41.87385" lon="9.18417">
        <ele>1438.4</ele>
        <time>2015-06-20T09:25:37Z</time>
      </trkpt>
      <trkpt lat="41.87389" lon="9.18409">
        <ele>1438.8</ele>
        <time>2015-06-20T09:25:49Z</time>
      </trkpt>
      <trkpt lat="41.8739" lon="9.18403">
        <ele>1440</ele>
        <time>2015-06-20T09:25:56Z</time>
      </trkpt>
      <trkpt lat="41.87394" lon="9.184">
        <ele>1441</ele>
        <time>2015-06-20T09:26:04Z</time>
      </trkpt>
      <trkpt lat="41.87397" lon="9.18394">
        <ele>1442.2</ele>
        <time>2015-06-20T09:26:14Z</time>
      </trkpt>
      <trkpt lat="41.87403" lon="9.1839">
        <ele>1443.4</ele>
        <time>2015-06-20T09:26:23Z</time>
      </trkpt>
      <trkpt lat="41.87409" lon="9.18387">
        <ele>1444.8</ele>
        <time>2015-06-20T09:26:34Z</time>
      </trkpt>
      <trkpt lat="41.87409" lon="9.18382">
        <ele>1445.2</ele>
        <time>2015-06-20T09:26:42Z</time>
      </trkpt>
      <trkpt lat="41.87411" lon="9.18377">
        <ele>1446.6</ele>
        <time>2015-06-20T09:26:51Z</time>
      </trkpt>
      <trkpt lat="41.87416" lon="9.18375">
        <ele>1447.6</ele>
        <time>2015-06-20T09:27:00Z</time>
      </trkpt>
      <trkpt lat="41.87424" lon="9.1837">
        <ele>1448.8</ele>
        <time>2015-06-20T09:27:14Z</time>
      </trkpt>
      <trkpt lat="41.87427" lon="9.18364">
        <ele>1449.8</ele>
        <time>2015-06-20T09:27:23Z</time>
      </trkpt>
      <trkpt lat="41.87432" lon="9.1836">
        <ele>1450.8</ele>
        <time>2015-06-20T09:27:33Z</time>
      </trkpt>
      <trkpt lat="41.87442" lon="9.18354">
        <ele>1452</ele>
        <time>2015-06-20T09:27:47Z</time>
      </trkpt>
      <trkpt lat="41.87449" lon="9.18339">
        <ele>1453</ele>
        <time>2015-06-20T09:28:03Z</time>
      </trkpt>
      <trkpt lat="41.87465" lon="9.18311">
        <ele>1454.4</ele>
        <time>2015-06-20T09:29:02Z</time>
      </trkpt>
      <trkpt lat="41.87472" lon="9.18311">
        <ele>1453.8</ele>
        <time>2015-06-20T09:32:04Z</time>
      </trkpt>
      <trkpt lat="41.87476" lon="9.18305">
        <ele>1453.4</ele>
        <time>2015-06-20T09:32:58Z</time>
      </trkpt>
      <trkpt lat="41.87479" lon="9.18304">
        <ele>1453.2</ele>
        <time>2015-06-20T09:33:05Z</time>
      </trkpt>
      <trkpt lat="41.87482" lon="9.18299">
        <ele>1451.8</ele>
        <time>2015-06-20T09:33:14Z</time>
      </trkpt>
      <trkpt lat="41.87486" lon="9.18296">
        <ele>1451.4</ele>
        <time>2015-06-20T09:33:20Z</time>
      </trkpt>
      <trkpt lat="41.8749" lon="9.18299">
        <ele>1450.2</ele>
        <time>2015-06-20T09:33:25Z</time>
      </trkpt>
      <trkpt lat="41.87496" lon="9.18303">
        <ele>1448.4</ele>
        <time>2015-06-20T09:33:38Z</time>
      </trkpt>
      <trkpt lat="41.87501" lon="9.18301">
        <ele>1447.8</ele>
        <time>2015-06-20T09:33:47Z</time>
      </trkpt>
      <trkpt lat="41.87505" lon="9.18298">
        <ele>1446.8</ele>
        <time>2015-06-20T09:33:54Z</time>
      </trkpt>
      <trkpt lat="41.87512" lon="9.18293">
        <ele>1445.2</ele>
        <time>2015-06-20T09:34:06Z</time>
      </trkpt>
      <trkpt lat="41.87517" lon="9.18285">
        <ele>1444.2</ele>
        <time>2015-06-20T09:34:18Z</time>
      </trkpt>
      <trkpt lat="41.87529" lon="9.18278">
        <ele>1443.2</ele>
        <time>2015-06-20T09:34:34Z</time>
      </trkpt>
      <trkpt lat="41.87534" lon="9.18272">
        <ele>1442.8</ele>
        <time>2015-06-20T09:34:41Z</time>
      </trkpt>
      <trkpt lat="41.87536" lon="9.18272">
        <ele>1442.8</ele>
        <time>2015-06-20T09:34:43Z</time>
      </trkpt>
      <trkpt lat="41.87543" lon="9.18256">
        <ele>1442</ele>
        <time>2015-06-20T09:35:00Z</time>
      </trkpt>
      <trkpt lat="41.87544" lon="9.18253">
        <ele>1442</ele>
        <time>2015-06-20T09:35:02Z</time>
      </trkpt>
      <trkpt lat="41.87546" lon="9.18251">
        <ele>1441.8</ele>
        <time>2015-06-20T09:35:05Z</time>
      </trkpt>
      <trkpt lat="41.87547" lon="9.1825">
        <ele>1441.4</ele>
        <time>2015-06-20T09:35:07Z</time>
      </trkpt>
      <trkpt lat="41.87549" lon="9.18248">
        <ele>1441</ele>
        <time>2015-06-20T09:35:11Z</time>
      </trkpt>
      <trkpt lat="41.87555" lon="9.18241">
        <ele>1440.2</ele>
        <time>2015-06-20T09:35:19Z</time>
      </trkpt>
      <trkpt lat="41.87556" lon="9.18237">
        <ele>1439.8</ele>
        <time>2015-06-20T09:35:22Z</time>
      </trkpt>
      <trkpt lat="41.87562" lon="9.18233">
        <ele>1439.2</ele>
        <time>2015-06-20T09:35:28Z</time>
      </trkpt>
      <trkpt lat="41.87565" lon="9.18229">
        <ele>1439.2</ele>
        <time>2015-06-20T09:35:32Z</time>
      </trkpt>
      <trkpt lat="41.87567" lon="9.18225">
        <ele>1439.4</ele>
        <time>2015-06-20T09:35:36Z</time>
      </trkpt>
      <trkpt lat="41.87573" lon="9.18227">
        <ele>1439.6</ele>
        <time>2015-06-20T09:35:42Z</time>
      </trkpt>
      <trkpt lat="41.87578" lon="9.18225">
        <ele>1439.6</ele>
        <time>2015-06-20T09:35:48Z</time>
      </trkpt>
      <trkpt lat="41.87581" lon="9.18223">
        <ele>1439.4</ele>
        <time>2015-06-20T09:35:51Z</time>
      </trkpt>
      <trkpt lat="41.87582" lon="9.18224">
        <ele>1439.2</ele>
        <time>2015-06-20T09:35:53Z</time>
      </trkpt>
      <trkpt lat="41.87586" lon="9.18223">
        <ele>1439</ele>
        <time>2015-06-20T09:35:57Z</time>
      </trkpt>
      <trkpt lat="41.87593" lon="9.1822">
        <ele>1438.4</ele>
        <time>2015-06-20T09:36:07Z</time>
      </trkpt>
      <trkpt lat="41.87593" lon="9.18215">
        <ele>1438.4</ele>
        <time>2015-06-20T09:36:11Z</time>
      </trkpt>
      <trkpt lat="41.87594" lon="9.18208">
        <ele>1437</ele>
        <time>2015-06-20T09:36:18Z</time>
      </trkpt>
      <trkpt lat="41.87594" lon="9.18204">
        <ele>1436.2</ele>
        <time>2015-06-20T09:36:24Z</time>
      </trkpt>
      <trkpt lat="41.87597" lon="9.18202">
        <ele>1435.2</ele>
        <time>2015-06-20T09:36:29Z</time>
      </trkpt>
      <trkpt lat="41.876" lon="9.182">
        <ele>1433.8</ele>
        <time>2015-06-20T09:36:36Z</time>
      </trkpt>
      <trkpt lat="41.87613" lon="9.18188">
        <ele>1433.8</ele>
        <time>2015-06-20T09:37:11Z</time>
      </trkpt>
      <trkpt lat="41.87619" lon="9.18182">
        <ele>1434.6</ele>
        <time>2015-06-20T09:37:22Z</time>
      </trkpt>
      <trkpt lat="41.87618" lon="9.18174">
        <ele>1435.8</ele>
        <time>2015-06-20T09:37:33Z</time>
      </trkpt>
      <trkpt lat="41.8762" lon="9.18168">
        <ele>1436.8</ele>
        <time>2015-06-20T09:37:45Z</time>
      </trkpt>
      <trkpt lat="41.87623" lon="9.18162">
        <ele>1438</ele>
        <time>2015-06-20T09:37:58Z</time>
      </trkpt>
      <trkpt lat="41.87626" lon="9.18154">
        <ele>1439</ele>
        <time>2015-06-20T09:38:10Z</time>
      </trkpt>
      <trkpt lat="41.87632" lon="9.18151">
        <ele>1439.8</ele>
        <time>2015-06-20T09:38:19Z</time>
      </trkpt>
      <trkpt lat="41.87637" lon="9.18144">
        <ele>1441.2</ele>
        <time>2015-06-20T09:38:30Z</time>
      </trkpt>
      <trkpt lat="41.87642" lon="9.18135">
        <ele>1442.2</ele>
        <time>2015-06-20T09:38:43Z</time>
      </trkpt>
      <trkpt lat="41.87646" lon="9.18128">
        <ele>1443</ele>
        <time>2015-06-20T09:38:52Z</time>
      </trkpt>
      <trkpt lat="41.87654" lon="9.18113">
        <ele>1444</ele>
        <time>2015-06-20T09:39:09Z</time>
      </trkpt>
      <trkpt lat="41.87666" lon="9.181">
        <ele>1444</ele>
        <time>2015-06-20T09:39:24Z</time>
      </trkpt>
      <trkpt lat="41.87668" lon="9.18096">
        <ele>1444</ele>
        <time>2015-06-20T09:39:28Z</time>
      </trkpt>
      <trkpt lat="41.8767" lon="9.18093">
        <ele>1444</ele>
        <time>2015-06-20T09:39:31Z</time>
      </trkpt>
      <trkpt lat="41.87671" lon="9.18092">
        <ele>1444</ele>
        <time>2015-06-20T09:39:33Z</time>
      </trkpt>
      <trkpt lat="41.87677" lon="9.18092">
        <ele>1444.2</ele>
        <time>2015-06-20T09:39:39Z</time>
      </trkpt>
      <trkpt lat="41.87683" lon="9.18092">
        <ele>1444.4</ele>
        <time>2015-06-20T09:39:49Z</time>
      </trkpt>
      <trkpt lat="41.87689" lon="9.18091">
        <ele>1444.8</ele>
        <time>2015-06-20T09:39:59Z</time>
      </trkpt>
      <trkpt lat="41.87699" lon="9.18089">
        <ele>1446.2</ele>
        <time>2015-06-20T09:40:14Z</time>
      </trkpt>
      <trkpt lat="41.87706" lon="9.18086">
        <ele>1447.6</ele>
        <time>2015-06-20T09:40:26Z</time>
      </trkpt>
      <trkpt lat="41.87714" lon="9.18085">
        <ele>1448.2</ele>
        <time>2015-06-20T09:40:39Z</time>
      </trkpt>
      <trkpt lat="41.87721" lon="9.18087">
        <ele>1449.4</ele>
        <time>2015-06-20T09:40:52Z</time>
      </trkpt>
      <trkpt lat="41.87725" lon="9.18091">
        <ele>1450.2</ele>
        <time>2015-06-20T09:41:02Z</time>
      </trkpt>
      <trkpt lat="41.87731" lon="9.18094">
        <ele>1451.4</ele>
        <time>2015-06-20T09:41:14Z</time>
      </trkpt>
      <trkpt lat="41.87738" lon="9.18104">
        <ele>1452.6</ele>
        <time>2015-06-20T09:41:29Z</time>
      </trkpt>
      <trkpt lat="41.87741" lon="9.18105">
        <ele>1452.8</ele>
        <time>2015-06-20T09:41:33Z</time>
      </trkpt>
      <trkpt lat="41.87749" lon="9.1811">
        <ele>1453.8</ele>
        <time>2015-06-20T09:41:45Z</time>
      </trkpt>
      <trkpt lat="41.87755" lon="9.18114">
        <ele>1454.6</ele>
        <time>2015-06-20T09:41:53Z</time>
      </trkpt>
      <trkpt lat="41.87772" lon="9.18111">
        <ele>1455.8</ele>
        <time>2015-06-20T09:42:14Z</time>
      </trkpt>
      <trkpt lat="41.87775" lon="9.1811">
        <ele>1456</ele>
        <time>2015-06-20T09:42:18Z</time>
      </trkpt>
      <trkpt lat="41.87788" lon="9.18108">
        <ele>1455.8</ele>
        <time>2015-06-20T09:42:31Z</time>
      </trkpt>
      <trkpt lat="41.87799" lon="9.1811">
        <ele>1455.2</ele>
        <time>2015-06-20T09:42:42Z</time>
      </trkpt>
      <trkpt lat="41.87812" lon="9.18118">
        <ele>1455.6</ele>
        <time>2015-06-20T09:42:59Z</time>
      </trkpt>
      <trkpt lat="41.8782" lon="9.18124">
        <ele>1456.8</ele>
        <time>2015-06-20T09:43:07Z</time>
      </trkpt>
      <trkpt lat="41.87821" lon="9.18126">
        <ele>1456.8</ele>
        <time>2015-06-20T09:43:09Z</time>
      </trkpt>
      <trkpt lat="41.87824" lon="9.18127">
        <ele>1457.2</ele>
        <time>2015-06-20T09:43:12Z</time>
      </trkpt>
      <trkpt lat="41.87827" lon="9.18127">
        <ele>1457.2</ele>
        <time>2015-06-20T09:43:15Z</time>
      </trkpt>
      <trkpt lat="41.87828" lon="9.18126">
        <ele>1457.4</ele>
        <time>2015-06-20T09:43:17Z</time>
      </trkpt>
      <trkpt lat="41.87835" lon="9.18122">
        <ele>1458</ele>
        <time>2015-06-20T09:43:24Z</time>
      </trkpt>
      <trkpt lat="41.87854" lon="9.18105">
        <ele>1457</ele>
        <time>2015-06-20T09:45:24Z</time>
      </trkpt>
      <trkpt lat="41.87856" lon="9.18103">
        <ele>1456.8</ele>
        <time>2015-06-20T09:45:27Z</time>
      </trkpt>
      <trkpt lat="41.87867" lon="9.18096">
        <ele>1455.8</ele>
        <time>2015-06-20T09:45:40Z</time>
      </trkpt>
      <trkpt lat="41.87875" lon="9.18089">
        <ele>1455.2</ele>
        <time>2015-06-20T09:45:51Z</time>
      </trkpt>
      <trkpt lat="41.87878" lon="9.18088">
        <ele>1454.8</ele>
        <time>2015-06-20T09:45:55Z</time>
      </trkpt>
      <trkpt lat="41.87888" lon="9.1809">
        <ele>1454.2</ele>
        <time>2015-06-20T09:46:05Z</time>
      </trkpt>
      <trkpt lat="41.87893" lon="9.18087">
        <ele>1454</ele>
        <time>2015-06-20T09:46:11Z</time>
      </trkpt>
      <trkpt lat="41.87903" lon="9.18079">
        <ele>1453.2</ele>
        <time>2015-06-20T09:46:24Z</time>
      </trkpt>
      <trkpt lat="41.87907" lon="9.18078">
        <ele>1452.6</ele>
        <time>2015-06-20T09:46:29Z</time>
      </trkpt>
      <trkpt lat="41.87909" lon="9.18077">
        <ele>1452.4</ele>
        <time>2015-06-20T09:46:31Z</time>
      </trkpt>
      <trkpt lat="41.87914" lon="9.18076">
        <ele>1451.4</ele>
        <time>2015-06-20T09:46:37Z</time>
      </trkpt>
      <trkpt lat="41.87918" lon="9.18078">
        <ele>1450.6</ele>
        <time>2015-06-20T09:46:42Z</time>
      </trkpt>
      <trkpt lat="41.87919" lon="9.18076">
        <ele>1450.4</ele>
        <time>2015-06-20T09:46:46Z</time>
      </trkpt>
      <trkpt lat="41.87922" lon="9.1807">
        <ele>1449.4</ele>
        <time>2015-06-20T09:46:53Z</time>
      </trkpt>
      <trkpt lat="41.87926" lon="9.18068">
        <ele>1448.6</ele>
        <time>2015-06-20T09:46:59Z</time>
      </trkpt>
      <trkpt lat="41.8793" lon="9.18069">
        <ele>1447.8</ele>
        <time>2015-06-20T09:47:04Z</time>
      </trkpt>
      <trkpt lat="41.87934" lon="9.18067">
        <ele>1446</ele>
        <time>2015-06-20T09:47:11Z</time>
      </trkpt>
      <trkpt lat="41.87935" lon="9.18067">
        <ele>1445.8</ele>
        <time>2015-06-20T09:47:13Z</time>
      </trkpt>
      <trkpt lat="41.87938" lon="9.18065">
        <ele>1445.2</ele>
        <time>2015-06-20T09:47:17Z</time>
      </trkpt>
      <trkpt lat="41.87942" lon="9.18063">
        <ele>1444</ele>
        <time>2015-06-20T09:47:23Z</time>
      </trkpt>
      <trkpt lat="41.87944" lon="9.18056">
        <ele>1442.6</ele>
        <time>2015-06-20T09:47:30Z</time>
      </trkpt>
      <trkpt lat="41.8794" lon="9.18046">
        <ele>1441</ele>
        <time>2015-06-20T09:47:40Z</time>
      </trkpt>
      <trkpt lat="41.8795" lon="9.18038">
        <ele>1440.4</ele>
        <time>2015-06-20T09:48:16Z</time>
      </trkpt>
      <trkpt lat="41.87953" lon="9.1804">
        <ele>1439.6</ele>
        <time>2015-06-20T09:48:22Z</time>
      </trkpt>
      <trkpt lat="41.87967" lon="9.18027">
        <ele>1437.8</ele>
        <time>2015-06-20T09:48:47Z</time>
      </trkpt>
      <trkpt lat="41.87971" lon="9.18026">
        <ele>1437.4</ele>
        <time>2015-06-20T09:48:53Z</time>
      </trkpt>
      <trkpt lat="41.87976" lon="9.18032">
        <ele>1436.2</ele>
        <time>2015-06-20T09:49:00Z</time>
      </trkpt>
      <trkpt lat="41.87986" lon="9.18043">
        <ele>1434.4</ele>
        <time>2015-06-20T09:49:14Z</time>
      </trkpt>
      <trkpt lat="41.87995" lon="9.18053">
        <ele>1433.4</ele>
        <time>2015-06-20T09:49:29Z</time>
      </trkpt>
      <trkpt lat="41.88001" lon="9.18054">
        <ele>1432.6</ele>
        <time>2015-06-20T09:49:37Z</time>
      </trkpt>
      <trkpt lat="41.88008" lon="9.18052">
        <ele>1431.6</ele>
        <time>2015-06-20T09:49:47Z</time>
      </trkpt>
      <trkpt lat="41.88012" lon="9.18052">
        <ele>1430.8</ele>
        <time>2015-06-20T09:49:53Z</time>
      </trkpt>
      <trkpt lat="41.88015" lon="9.18053">
        <ele>1429.8</ele>
        <time>2015-06-20T09:49:58Z</time>
      </trkpt>
      <trkpt lat="41.88021" lon="9.1805">
        <ele>1428.6</ele>
        <time>2015-06-20T09:50:06Z</time>
      </trkpt>
      <trkpt lat="41.88023" lon="9.18047">
        <ele>1427.6</ele>
        <time>2015-06-20T09:50:11Z</time>
      </trkpt>
      <trkpt lat="41.8803" lon="9.18049">
        <ele>1425.8</ele>
        <time>2015-06-20T09:50:20Z</time>
      </trkpt>
      <trkpt lat="41.88035" lon="9.18047">
        <ele>1424.8</ele>
        <time>2015-06-20T09:50:27Z</time>
      </trkpt>
      <trkpt lat="41.88037" lon="9.18039">
        <ele>1423.8</ele>
        <time>2015-06-20T09:50:35Z</time>
      </trkpt>
      <trkpt lat="41.8804" lon="9.18037">
        <ele>1423</ele>
        <time>2015-06-20T09:50:42Z</time>
      </trkpt>
      <trkpt lat="41.88043" lon="9.18039">
        <ele>1421.6</ele>
        <time>2015-06-20T09:50:48Z</time>
      </trkpt>
      <trkpt lat="41.88047" lon="9.18039">
        <ele>1420.4</ele>
        <time>2015-06-20T09:50:59Z</time>
      </trkpt>
      <trkpt lat="41.88051" lon="9.18039">
        <ele>1419.4</ele>
        <time>2015-06-20T09:51:06Z</time>
      </trkpt>
      <trkpt lat="41.88054" lon="9.18041">
        <ele>1418.6</ele>
        <time>2015-06-20T09:51:11Z</time>
      </trkpt>
      <trkpt lat="41.88061" lon="9.18042">
        <ele>1417.2</ele>
        <time>2015-06-20T09:51:20Z</time>
      </trkpt>
      <trkpt lat="41.88062" lon="9.18045">
        <ele>1416.4</ele>
        <time>2015-06-20T09:51:33Z</time>
      </trkpt>
      <trkpt lat="41.88064" lon="9.18037">
        <ele>1416.2</ele>
        <time>2015-06-20T09:52:13Z</time>
      </trkpt>
      <trkpt lat="41.88067" lon="9.18034">
        <ele>1416.2</ele>
        <time>2015-06-20T09:52:16Z</time>
      </trkpt>
      <trkpt lat="41.8807" lon="9.1803">
        <ele>1415.6</ele>
        <time>2015-06-20T09:52:20Z</time>
      </trkpt>
      <trkpt lat="41.8807" lon="9.18027">
        <ele>1415.2</ele>
        <time>2015-06-20T09:52:23Z</time>
      </trkpt>
      <trkpt lat="41.88071" lon="9.1802">
        <ele>1415.2</ele>
        <time>2015-06-20T09:52:28Z</time>
      </trkpt>
      <trkpt lat="41.88065" lon="9.1804">
        <ele>1414.6</ele>
        <time>2015-06-20T09:53:58Z</time>
      </trkpt>
      <trkpt lat="41.88061" lon="9.18049">
        <ele>1415.8</ele>
        <time>2015-06-20T09:54:43Z</time>
      </trkpt>
      <trkpt lat="41.88062" lon="9.18047">
        <ele>1415.6</ele>
        <time>2015-06-20T09:55:34Z</time>
      </trkpt>
      <trkpt lat="41.88061" lon="9.1804">
        <ele>1414.8</ele>
        <time>2015-06-20T09:56:33Z</time>
      </trkpt>
      <trkpt lat="41.88061" lon="9.18045">
        <ele>1415.2</ele>
        <time>2015-06-20T09:59:23Z</time>
      </trkpt>
      <trkpt lat="41.8806" lon="9.18045">
        <ele>1415</ele>
        <time>2015-06-20T10:00:29Z</time>
      </trkpt>
      <trkpt lat="41.88111" lon="9.18041">
        <ele>1417.6</ele>
        <time>2015-06-20T10:25:45Z</time>
      </trkpt>
      <trkpt lat="41.88118" lon="9.18041">
        <ele>1418.8</ele>
        <time>2015-06-20T10:25:57Z</time>
      </trkpt>
      <trkpt lat="41.88124" lon="9.18044">
        <ele>1418.8</ele>
        <time>2015-06-20T10:26:03Z</time>
      </trkpt>
      <trkpt lat="41.88133" lon="9.18043">
        <ele>1419</ele>
        <time>2015-06-20T10:26:13Z</time>
      </trkpt>
      <trkpt lat="41.88136" lon="9.18043">
        <ele>1419.4</ele>
        <time>2015-06-20T10:26:16Z</time>
      </trkpt>
      <trkpt lat="41.88148" lon="9.18042">
        <ele>1420.2</ele>
        <time>2015-06-20T10:26:29Z</time>
      </trkpt>
      <trkpt lat="41.88161" lon="9.18045">
        <ele>1421</ele>
        <time>2015-06-20T10:26:44Z</time>
      </trkpt>
      <trkpt lat="41.88161" lon="9.18045">
        <ele>1421.2</ele>
        <time>2015-06-20T10:26:45Z</time>
      </trkpt>
      <trkpt lat="41.88168" lon="9.18042">
        <ele>1421.8</ele>
        <time>2015-06-20T10:26:52Z</time>
      </trkpt>
      <trkpt lat="41.88174" lon="9.18037">
        <ele>1422.8</ele>
        <time>2015-06-20T10:26:59Z</time>
      </trkpt>
      <trkpt lat="41.88186" lon="9.18034">
        <ele>1424.4</ele>
        <time>2015-06-20T10:27:10Z</time>
      </trkpt>
      <trkpt lat="41.88187" lon="9.18034">
        <ele>1424.4</ele>
        <time>2015-06-20T10:27:11Z</time>
      </trkpt>
      <trkpt lat="41.88188" lon="9.18034">
        <ele>1424.4</ele>
        <time>2015-06-20T10:27:12Z</time>
      </trkpt>
      <trkpt lat="41.88202" lon="9.18037">
        <ele>1425.4</ele>
        <time>2015-06-20T10:27:25Z</time>
      </trkpt>
      <trkpt lat="41.88216" lon="9.18027">
        <ele>1425.4</ele>
        <time>2015-06-20T10:27:44Z</time>
      </trkpt>
      <trkpt lat="41.8822" lon="9.18025">
        <ele>1425</ele>
        <time>2015-06-20T10:27:49Z</time>
      </trkpt>
      <trkpt lat="41.88222" lon="9.18023">
        <ele>1424.2</ele>
        <time>2015-06-20T10:27:52Z</time>
      </trkpt>
      <trkpt lat="41.8823" lon="9.18019">
        <ele>1423.6</ele>
        <time>2015-06-20T10:28:00Z</time>
      </trkpt>
      <trkpt lat="41.88235" lon="9.18019">
        <ele>1423.2</ele>
        <time>2015-06-20T10:28:05Z</time>
      </trkpt>
      <trkpt lat="41.88236" lon="9.18019">
        <ele>1423</ele>
        <time>2015-06-20T10:28:06Z</time>
      </trkpt>
      <trkpt lat="41.88239" lon="9.18019">
        <ele>1422.4</ele>
        <time>2015-06-20T10:28:11Z</time>
      </trkpt>
      <trkpt lat="41.88246" lon="9.18016">
        <ele>1421.2</ele>
        <time>2015-06-20T10:28:19Z</time>
      </trkpt>
      <trkpt lat="41.88259" lon="9.18019">
        <ele>1420</ele>
        <time>2015-06-20T10:28:38Z</time>
      </trkpt>
      <trkpt lat="41.88263" lon="9.1802">
        <ele>1421.6</ele>
        <time>2015-06-20T10:28:46Z</time>
      </trkpt>
      <trkpt lat="41.88267" lon="9.18023">
        <ele>1422.8</ele>
        <time>2015-06-20T10:28:55Z</time>
      </trkpt>
      <trkpt lat="41.88269" lon="9.18024">
        <ele>1423.2</ele>
        <time>2015-06-20T10:28:58Z</time>
      </trkpt>
      <trkpt lat="41.88275" lon="9.18027">
        <ele>1424</ele>
        <time>2015-06-20T10:29:07Z</time>
      </trkpt>
      <trkpt lat="41.88281" lon="9.18027">
        <ele>1425.2</ele>
        <time>2015-06-20T10:29:17Z</time>
      </trkpt>
      <trkpt lat="41.88286" lon="9.18026">
        <ele>1426.2</ele>
        <time>2015-06-20T10:29:26Z</time>
      </trkpt>
      <trkpt lat="41.88291" lon="9.18025">
        <ele>1427.4</ele>
        <time>2015-06-20T10:29:34Z</time>
      </trkpt>
      <trkpt lat="41.88298" lon="9.18025">
        <ele>1428.2</ele>
        <time>2015-06-20T10:29:42Z</time>
      </trkpt>
      <trkpt lat="41.88306" lon="9.18021">
        <ele>1429.6</ele>
        <time>2015-06-20T10:29:53Z</time>
      </trkpt>
      <trkpt lat="41.88313" lon="9.18017">
        <ele>1430.6</ele>
        <time>2015-06-20T10:30:02Z</time>
      </trkpt>
      <trkpt lat="41.8832" lon="9.18014">
        <ele>1431.8</ele>
        <time>2015-06-20T10:30:12Z</time>
      </trkpt>
      <trkpt lat="41.88328" lon="9.18015">
        <ele>1432.6</ele>
        <time>2015-06-20T10:30:22Z</time>
      </trkpt>
      <trkpt lat="41.88331" lon="9.18015">
        <ele>1433</ele>
        <time>2015-06-20T10:30:26Z</time>
      </trkpt>
      <trkpt lat="41.88336" lon="9.18015">
        <ele>1433.6</ele>
        <time>2015-06-20T10:30:33Z</time>
      </trkpt>
      <trkpt lat="41.88342" lon="9.18017">
        <ele>1434.6</ele>
        <time>2015-06-20T10:30:42Z</time>
      </trkpt>
      <trkpt lat="41.88345" lon="9.18019">
        <ele>1435.4</ele>
        <time>2015-06-20T10:30:48Z</time>
      </trkpt>
      <trkpt lat="41.88348" lon="9.18019">
        <ele>1436.6</ele>
        <time>2015-06-20T10:30:54Z</time>
      </trkpt>
      <trkpt lat="41.88349" lon="9.18018">
        <ele>1436.8</ele>
        <time>2015-06-20T10:30:56Z</time>
      </trkpt>
      <trkpt lat="41.88354" lon="9.18017">
        <ele>1438</ele>
        <time>2015-06-20T10:31:04Z</time>
      </trkpt>
      <trkpt lat="41.88363" lon="9.18014">
        <ele>1439</ele>
        <time>2015-06-20T10:31:14Z</time>
      </trkpt>
      <trkpt lat="41.88366" lon="9.18014">
        <ele>1439.2</ele>
        <time>2015-06-20T10:31:18Z</time>
      </trkpt>
      <trkpt lat="41.88375" lon="9.18013">
        <ele>1439.6</ele>
        <time>2015-06-20T10:31:25Z</time>
      </trkpt>
      <trkpt lat="41.8838" lon="9.18014">
        <ele>1440</ele>
        <time>2015-06-20T10:31:31Z</time>
      </trkpt>
      <trkpt lat="41.88394" lon="9.18017">
        <ele>1441.2</ele>
        <time>2015-06-20T10:31:45Z</time>
      </trkpt>
      <trkpt lat="41.88395" lon="9.18017">
        <ele>1441.2</ele>
        <time>2015-06-20T10:31:48Z</time>
      </trkpt>
      <trkpt lat="41.884" lon="9.18017">
        <ele>1441.6</ele>
        <time>2015-06-20T10:31:52Z</time>
      </trkpt>
      <trkpt lat="41.88406" lon="9.18017">
        <ele>1442.2</ele>
        <time>2015-06-20T10:31:58Z</time>
      </trkpt>
      <trkpt lat="41.88408" lon="9.18018">
        <ele>1442.2</ele>
        <time>2015-06-20T10:32:00Z</time>
      </trkpt>
      <trkpt lat="41.8845" lon="9.18039">
        <ele>1442.4</ele>
        <time>2015-06-20T10:32:44Z</time>
      </trkpt>
      <trkpt lat="41.88477" lon="9.18053">
        <ele>1443</ele>
        <time>2015-06-20T10:33:15Z</time>
      </trkpt>
      <trkpt lat="41.88487" lon="9.18058">
        <ele>1443.2</ele>
        <time>2015-06-20T10:33:25Z</time>
      </trkpt>
      <trkpt lat="41.88493" lon="9.1806">
        <ele>1443.4</ele>
        <time>2015-06-20T10:33:29Z</time>
      </trkpt>
      <trkpt lat="41.88501" lon="9.18065">
        <ele>1443.8</ele>
        <time>2015-06-20T10:33:39Z</time>
      </trkpt>
      <trkpt lat="41.88506" lon="9.18066">
        <ele>1444.6</ele>
        <time>2015-06-20T10:33:44Z</time>
      </trkpt>
      <trkpt lat="41.88521" lon="9.18071">
        <ele>1445.2</ele>
        <time>2015-06-20T10:34:01Z</time>
      </trkpt>
      <trkpt lat="41.88527" lon="9.1807">
        <ele>1445.2</ele>
        <time>2015-06-20T10:34:07Z</time>
      </trkpt>
      <trkpt lat="41.88529" lon="9.18071">
        <ele>1445.4</ele>
        <time>2015-06-20T10:34:09Z</time>
      </trkpt>
      <trkpt lat="41.88531" lon="9.18071">
        <ele>1445.6</ele>
        <time>2015-06-20T10:34:11Z</time>
      </trkpt>
      <trkpt lat="41.88544" lon="9.18074">
        <ele>1446.2</ele>
        <time>2015-06-20T10:34:26Z</time>
      </trkpt>
      <trkpt lat="41.88546" lon="9.18074">
        <ele>1446.4</ele>
        <time>2015-06-20T10:34:28Z</time>
      </trkpt>
      <trkpt lat="41.88568" lon="9.1808">
        <ele>1447.2</ele>
        <time>2015-06-20T10:34:50Z</time>
      </trkpt>
      <trkpt lat="41.88571" lon="9.1808">
        <ele>1447.4</ele>
        <time>2015-06-20T10:34:53Z</time>
      </trkpt>
      <trkpt lat="41.88584" lon="9.18083">
        <ele>1447.8</ele>
        <time>2015-06-20T10:35:06Z</time>
      </trkpt>
      <trkpt lat="41.88595" lon="9.18085">
        <ele>1447.8</ele>
        <time>2015-06-20T10:35:16Z</time>
      </trkpt>
      <trkpt lat="41.88607" lon="9.18095">
        <ele>1448.8</ele>
        <time>2015-06-20T10:35:30Z</time>
      </trkpt>
      <trkpt lat="41.88611" lon="9.18098">
        <ele>1448.8</ele>
        <time>2015-06-20T10:35:35Z</time>
      </trkpt>
      <trkpt lat="41.88617" lon="9.181">
        <ele>1449.8</ele>
        <time>2015-06-20T10:35:40Z</time>
      </trkpt>
      <trkpt lat="41.88635" lon="9.18099">
        <ele>1450.4</ele>
        <time>2015-06-20T10:35:58Z</time>
      </trkpt>
      <trkpt lat="41.88636" lon="9.18099">
        <ele>1450.4</ele>
        <time>2015-06-20T10:36:00Z</time>
      </trkpt>
      <trkpt lat="41.88637" lon="9.18099">
        <ele>1450.4</ele>
        <time>2015-06-20T10:36:01Z</time>
      </trkpt>
      <trkpt lat="41.88644" lon="9.18099">
        <ele>1451.2</ele>
        <time>2015-06-20T10:36:10Z</time>
      </trkpt>
      <trkpt lat="41.88646" lon="9.18099">
        <ele>1451.4</ele>
        <time>2015-06-20T10:36:12Z</time>
      </trkpt>
      <trkpt lat="41.88654" lon="9.18099">
        <ele>1452.4</ele>
        <time>2015-06-20T10:36:21Z</time>
      </trkpt>
      <trkpt lat="41.8866" lon="9.18099">
        <ele>1453</ele>
        <time>2015-06-20T10:36:28Z</time>
      </trkpt>
      <trkpt lat="41.88666" lon="9.18098">
        <ele>1454.2</ele>
        <time>2015-06-20T10:36:35Z</time>
      </trkpt>
      <trkpt lat="41.88677" lon="9.18095">
        <ele>1455.4</ele>
        <time>2015-06-20T10:36:50Z</time>
      </trkpt>
      <trkpt lat="41.88682" lon="9.18091">
        <ele>1456.2</ele>
        <time>2015-06-20T10:36:58Z</time>
      </trkpt>
      <trkpt lat="41.88688" lon="9.18088">
        <ele>1457.4</ele>
        <time>2015-06-20T10:37:07Z</time>
      </trkpt>
      <trkpt lat="41.88697" lon="9.18082">
        <ele>1458.8</ele>
        <time>2015-06-20T10:37:20Z</time>
      </trkpt>
      <trkpt lat="41.88704" lon="9.1808">
        <ele>1459.8</ele>
        <time>2015-06-20T10:37:32Z</time>
      </trkpt>
      <trkpt lat="41.88722" lon="9.18073">
        <ele>1461.2</ele>
        <time>2015-06-20T10:37:57Z</time>
      </trkpt>
      <trkpt lat="41.88735" lon="9.18067">
        <ele>1461</ele>
        <time>2015-06-20T10:38:12Z</time>
      </trkpt>
      <trkpt lat="41.88755" lon="9.18053">
        <ele>1460</ele>
        <time>2015-06-20T10:38:36Z</time>
      </trkpt>
      <trkpt lat="41.88761" lon="9.18054">
        <ele>1460.2</ele>
        <time>2015-06-20T10:38:43Z</time>
      </trkpt>
      <trkpt lat="41.88763" lon="9.18052">
        <ele>1460.2</ele>
        <time>2015-06-20T10:38:47Z</time>
      </trkpt>
      <trkpt lat="41.88778" lon="9.18052">
        <ele>1461</ele>
        <time>2015-06-20T10:39:06Z</time>
      </trkpt>
      <trkpt lat="41.8879" lon="9.18061">
        <ele>1462</ele>
        <time>2015-06-20T10:39:21Z</time>
      </trkpt>
      <trkpt lat="41.88818" lon="9.18072">
        <ele>1461.6</ele>
        <time>2015-06-20T10:39:54Z</time>
      </trkpt>
      <trkpt lat="41.88826" lon="9.18067">
        <ele>1460.8</ele>
        <time>2015-06-20T10:40:06Z</time>
      </trkpt>
      <trkpt lat="41.88831" lon="9.18066">
        <ele>1459.8</ele>
        <time>2015-06-20T10:40:17Z</time>
      </trkpt>
      <trkpt lat="41.88834" lon="9.18065">
        <ele>1459</ele>
        <time>2015-06-20T10:40:23Z</time>
      </trkpt>
      <trkpt lat="41.88837" lon="9.18064">
        <ele>1457.8</ele>
        <time>2015-06-20T10:40:31Z</time>
      </trkpt>
      <trkpt lat="41.88843" lon="9.18073">
        <ele>1456.4</ele>
        <time>2015-06-20T10:40:47Z</time>
      </trkpt>
      <trkpt lat="41.88849" lon="9.18069">
        <ele>1455.8</ele>
        <time>2015-06-20T10:40:54Z</time>
      </trkpt>
      <trkpt lat="41.88864" lon="9.18074">
        <ele>1455.2</ele>
        <time>2015-06-20T10:41:17Z</time>
      </trkpt>
      <trkpt lat="41.88872" lon="9.18086">
        <ele>1456.6</ele>
        <time>2015-06-20T10:41:31Z</time>
      </trkpt>
      <trkpt lat="41.88879" lon="9.1809">
        <ele>1457.4</ele>
        <time>2015-06-20T10:41:44Z</time>
      </trkpt>
      <trkpt lat="41.88883" lon="9.1809">
        <ele>1458.4</ele>
        <time>2015-06-20T10:41:52Z</time>
      </trkpt>
      <trkpt lat="41.88886" lon="9.18092">
        <ele>1460</ele>
        <time>2015-06-20T10:42:01Z</time>
      </trkpt>
      <trkpt lat="41.8889" lon="9.18098">
        <ele>1460.8</ele>
        <time>2015-06-20T10:42:12Z</time>
      </trkpt>
      <trkpt lat="41.88891" lon="9.18099">
        <ele>1461</ele>
        <time>2015-06-20T10:42:14Z</time>
      </trkpt>
      <trkpt lat="41.88895" lon="9.18102">
        <ele>1462</ele>
        <time>2015-06-20T10:42:22Z</time>
      </trkpt>
      <trkpt lat="41.88899" lon="9.18105">
        <ele>1463</ele>
        <time>2015-06-20T10:42:31Z</time>
      </trkpt>
      <trkpt lat="41.88902" lon="9.18107">
        <ele>1463.8</ele>
        <time>2015-06-20T10:42:38Z</time>
      </trkpt>
      <trkpt lat="41.88907" lon="9.1811">
        <ele>1465.4</ele>
        <time>2015-06-20T10:42:49Z</time>
      </trkpt>
      <trkpt lat="41.88913" lon="9.18111">
        <ele>1466.2</ele>
        <time>2015-06-20T10:42:58Z</time>
      </trkpt>
      <trkpt lat="41.88917" lon="9.18113">
        <ele>1467.4</ele>
        <time>2015-06-20T10:43:05Z</time>
      </trkpt>
      <trkpt lat="41.88922" lon="9.18112">
        <ele>1468.6</ele>
        <time>2015-06-20T10:43:12Z</time>
      </trkpt>
      <trkpt lat="41.88939" lon="9.18124">
        <ele>1470.2</ele>
        <time>2015-06-20T10:43:36Z</time>
      </trkpt>
      <trkpt lat="41.88949" lon="9.18131">
        <ele>1469</ele>
        <time>2015-06-20T10:43:50Z</time>
      </trkpt>
      <trkpt lat="41.88951" lon="9.18131">
        <ele>1469</ele>
        <time>2015-06-20T10:43:52Z</time>
      </trkpt>
      <trkpt lat="41.88955" lon="9.18129">
        <ele>1468</ele>
        <time>2015-06-20T10:43:58Z</time>
      </trkpt>
      <trkpt lat="41.88956" lon="9.18129">
        <ele>1468</ele>
        <time>2015-06-20T10:43:59Z</time>
      </trkpt>
      <trkpt lat="41.88959" lon="9.18132">
        <ele>1467.4</ele>
        <time>2015-06-20T10:44:03Z</time>
      </trkpt>
      <trkpt lat="41.88965" lon="9.18133">
        <ele>1466.2</ele>
        <time>2015-06-20T10:44:09Z</time>
      </trkpt>
      <trkpt lat="41.88972" lon="9.18136">
        <ele>1464.6</ele>
        <time>2015-06-20T10:44:16Z</time>
      </trkpt>
      <trkpt lat="41.88986" lon="9.18141">
        <ele>1463</ele>
        <time>2015-06-20T10:44:29Z</time>
      </trkpt>
      <trkpt lat="41.88991" lon="9.18143">
        <ele>1462.8</ele>
        <time>2015-06-20T10:44:34Z</time>
      </trkpt>
      <trkpt lat="41.89003" lon="9.18148">
        <ele>1462.8</ele>
        <time>2015-06-20T10:44:48Z</time>
      </trkpt>
      <trkpt lat="41.89047" lon="9.18154">
        <ele>1462.6</ele>
        <time>2015-06-20T10:45:38Z</time>
      </trkpt>
      <trkpt lat="41.89047" lon="9.18154">
        <ele>1462.6</ele>
        <time>2015-06-20T10:45:39Z</time>
      </trkpt>
      <trkpt lat="41.89067" lon="9.18164">
        <ele>1463.4</ele>
        <time>2015-06-20T10:46:07Z</time>
      </trkpt>
      <trkpt lat="41.89069" lon="9.18164">
        <ele>1463.2</ele>
        <time>2015-06-20T10:46:09Z</time>
      </trkpt>
      <trkpt lat="41.89072" lon="9.18163">
        <ele>1462.8</ele>
        <time>2015-06-20T10:46:14Z</time>
      </trkpt>
      <trkpt lat="41.89074" lon="9.18163">
        <ele>1462</ele>
        <time>2015-06-20T10:46:18Z</time>
      </trkpt>
      <trkpt lat="41.89077" lon="9.18164">
        <ele>1461.8</ele>
        <time>2015-06-20T10:46:20Z</time>
      </trkpt>
      <trkpt lat="41.89082" lon="9.18165">
        <ele>1461.2</ele>
        <time>2015-06-20T10:46:26Z</time>
      </trkpt>
      <trkpt lat="41.8909" lon="9.18162">
        <ele>1460</ele>
        <time>2015-06-20T10:46:35Z</time>
      </trkpt>
      <trkpt lat="41.89091" lon="9.18165">
        <ele>1459.8</ele>
        <time>2015-06-20T10:46:37Z</time>
      </trkpt>
      <trkpt lat="41.89093" lon="9.18168">
        <ele>1460</ele>
        <time>2015-06-20T10:46:40Z</time>
      </trkpt>
      <trkpt lat="41.89094" lon="9.18169">
        <ele>1459.8</ele>
        <time>2015-06-20T10:46:41Z</time>
      </trkpt>
      <trkpt lat="41.89096" lon="9.18171">
        <ele>1459.6</ele>
        <time>2015-06-20T10:46:43Z</time>
      </trkpt>
      <trkpt lat="41.89098" lon="9.18171">
        <ele>1459.4</ele>
        <time>2015-06-20T10:46:45Z</time>
      </trkpt>
      <trkpt lat="41.89101" lon="9.18169">
        <ele>1459.4</ele>
        <time>2015-06-20T10:46:49Z</time>
      </trkpt>
      <trkpt lat="41.89103" lon="9.18168">
        <ele>1459.2</ele>
        <time>2015-06-20T10:46:51Z</time>
      </trkpt>
      <trkpt lat="41.89107" lon="9.18164">
        <ele>1459.2</ele>
        <time>2015-06-20T10:46:56Z</time>
      </trkpt>
      <trkpt lat="41.89113" lon="9.18161">
        <ele>1459.8</ele>
        <time>2015-06-20T10:47:04Z</time>
      </trkpt>
      <trkpt lat="41.89114" lon="9.18161">
        <ele>1460</ele>
        <time>2015-06-20T10:47:05Z</time>
      </trkpt>
      <trkpt lat="41.89121" lon="9.1815">
        <ele>1460.8</ele>
        <time>2015-06-20T10:47:16Z</time>
      </trkpt>
      <trkpt lat="41.89123" lon="9.18143">
        <ele>1461.2</ele>
        <time>2015-06-20T10:47:22Z</time>
      </trkpt>
      <trkpt lat="41.89133" lon="9.18126">
        <ele>1461.8</ele>
        <time>2015-06-20T10:47:40Z</time>
      </trkpt>
      <trkpt lat="41.89134" lon="9.18125">
        <ele>1461.8</ele>
        <time>2015-06-20T10:47:42Z</time>
      </trkpt>
      <trkpt lat="41.89138" lon="9.18119">
        <ele>1462</ele>
        <time>2015-06-20T10:47:49Z</time>
      </trkpt>
      <trkpt lat="41.89149" lon="9.18107">
        <ele>1463</ele>
        <time>2015-06-20T10:48:06Z</time>
      </trkpt>
      <trkpt lat="41.89159" lon="9.18096">
        <ele>1464</ele>
        <time>2015-06-20T10:48:21Z</time>
      </trkpt>
      <trkpt lat="41.89163" lon="9.18095">
        <ele>1464.2</ele>
        <time>2015-06-20T10:48:25Z</time>
      </trkpt>
      <trkpt lat="41.89167" lon="9.18092">
        <ele>1465</ele>
        <time>2015-06-20T10:48:30Z</time>
      </trkpt>
      <trkpt lat="41.89174" lon="9.18089">
        <ele>1466</ele>
        <time>2015-06-20T10:48:39Z</time>
      </trkpt>
      <trkpt lat="41.89193" lon="9.18072">
        <ele>1466.2</ele>
        <time>2015-06-20T10:49:05Z</time>
      </trkpt>
      <trkpt lat="41.89195" lon="9.18064">
        <ele>1466.2</ele>
        <time>2015-06-20T10:49:11Z</time>
      </trkpt>
      <trkpt lat="41.89206" lon="9.18057">
        <ele>1467.2</ele>
        <time>2015-06-20T10:49:26Z</time>
      </trkpt>
      <trkpt lat="41.89211" lon="9.18054">
        <ele>1467.2</ele>
        <time>2015-06-20T10:49:32Z</time>
      </trkpt>
      <trkpt lat="41.89224" lon="9.18043">
        <ele>1468.4</ele>
        <time>2015-06-20T10:49:48Z</time>
      </trkpt>
      <trkpt lat="41.89225" lon="9.18043">
        <ele>1468.4</ele>
        <time>2015-06-20T10:49:49Z</time>
      </trkpt>
      <trkpt lat="41.89237" lon="9.18029">
        <ele>1469.4</ele>
        <time>2015-06-20T10:50:08Z</time>
      </trkpt>
      <trkpt lat="41.89247" lon="9.18011">
        <ele>1471</ele>
        <time>2015-06-20T10:50:27Z</time>
      </trkpt>
      <trkpt lat="41.89262" lon="9.17991">
        <ele>1471.6</ele>
        <time>2015-06-20T10:50:54Z</time>
      </trkpt>
      <trkpt lat="41.89267" lon="9.17985">
        <ele>1472.6</ele>
        <time>2015-06-20T10:51:03Z</time>
      </trkpt>
      <trkpt lat="41.89272" lon="9.17977">
        <ele>1473.6</ele>
        <time>2015-06-20T10:51:13Z</time>
      </trkpt>
      <trkpt lat="41.89275" lon="9.17972">
        <ele>1474.6</ele>
        <time>2015-06-20T10:51:22Z</time>
      </trkpt>
      <trkpt lat="41.89278" lon="9.17968">
        <ele>1475.6</ele>
        <time>2015-06-20T10:51:31Z</time>
      </trkpt>
      <trkpt lat="41.89282" lon="9.17968">
        <ele>1476.8</ele>
        <time>2015-06-20T10:51:39Z</time>
      </trkpt>
      <trkpt lat="41.89285" lon="9.17967">
        <ele>1477.6</ele>
        <time>2015-06-20T10:51:45Z</time>
      </trkpt>
      <trkpt lat="41.89288" lon="9.17969">
        <ele>1478.8</ele>
        <time>2015-06-20T10:51:51Z</time>
      </trkpt>
      <trkpt lat="41.89289" lon="9.1797">
        <ele>1478.8</ele>
        <time>2015-06-20T10:51:53Z</time>
      </trkpt>
      <trkpt lat="41.89296" lon="9.1797">
        <ele>1480.4</ele>
        <time>2015-06-20T10:52:04Z</time>
      </trkpt>
      <trkpt lat="41.89304" lon="9.17974">
        <ele>1481.6</ele>
        <time>2015-06-20T10:52:15Z</time>
      </trkpt>
      <trkpt lat="41.89313" lon="9.17982">
        <ele>1482.4</ele>
        <time>2015-06-20T10:52:29Z</time>
      </trkpt>
      <trkpt lat="41.89318" lon="9.17984">
        <ele>1483.4</ele>
        <time>2015-06-20T10:52:37Z</time>
      </trkpt>
      <trkpt lat="41.89333" lon="9.17986">
        <ele>1484.8</ele>
        <time>2015-06-20T10:52:56Z</time>
      </trkpt>
      <trkpt lat="41.8935" lon="9.17974">
        <ele>1486</ele>
        <time>2015-06-20T10:53:20Z</time>
      </trkpt>
      <trkpt lat="41.89356" lon="9.17965">
        <ele>1486.6</ele>
        <time>2015-06-20T10:53:33Z</time>
      </trkpt>
      <trkpt lat="41.8936" lon="9.17961">
        <ele>1487.4</ele>
        <time>2015-06-20T10:53:40Z</time>
      </trkpt>
      <trkpt lat="41.89364" lon="9.17959">
        <ele>1488.4</ele>
        <time>2015-06-20T10:53:46Z</time>
      </trkpt>
      <trkpt lat="41.89367" lon="9.17959">
        <ele>1489</ele>
        <time>2015-06-20T10:53:51Z</time>
      </trkpt>
      <trkpt lat="41.89372" lon="9.1796">
        <ele>1489.8</ele>
        <time>2015-06-20T10:53:59Z</time>
      </trkpt>
      <trkpt lat="41.89378" lon="9.1796">
        <ele>1490.8</ele>
        <time>2015-06-20T10:54:08Z</time>
      </trkpt>
      <trkpt lat="41.89382" lon="9.17963">
        <ele>1491.8</ele>
        <time>2015-06-20T10:54:16Z</time>
      </trkpt>
      <trkpt lat="41.89385" lon="9.17958">
        <ele>1493</ele>
        <time>2015-06-20T10:54:26Z</time>
      </trkpt>
      <trkpt lat="41.89391" lon="9.17957">
        <ele>1494</ele>
        <time>2015-06-20T10:54:38Z</time>
      </trkpt>
      <trkpt lat="41.89397" lon="9.17953">
        <ele>1495.2</ele>
        <time>2015-06-20T10:54:49Z</time>
      </trkpt>
      <trkpt lat="41.89401" lon="9.17952">
        <ele>1496.4</ele>
        <time>2015-06-20T10:54:58Z</time>
      </trkpt>
      <trkpt lat="41.89406" lon="9.17948">
        <ele>1497.8</ele>
        <time>2015-06-20T10:55:12Z</time>
      </trkpt>
      <trkpt lat="41.89411" lon="9.17946">
        <ele>1498.2</ele>
        <time>2015-06-20T10:55:21Z</time>
      </trkpt>
      <trkpt lat="41.89414" lon="9.17945">
        <ele>1499.8</ele>
        <time>2015-06-20T10:55:31Z</time>
      </trkpt>
      <trkpt lat="41.89418" lon="9.17945">
        <ele>1500.4</ele>
        <time>2015-06-20T10:55:39Z</time>
      </trkpt>
      <trkpt lat="41.89421" lon="9.17943">
        <ele>1501.6</ele>
        <time>2015-06-20T10:55:48Z</time>
      </trkpt>
      <trkpt lat="41.89425" lon="9.17944">
        <ele>1502.8</ele>
        <time>2015-06-20T10:55:56Z</time>
      </trkpt>
      <trkpt lat="41.89428" lon="9.17941">
        <ele>1504</ele>
        <time>2015-06-20T10:56:06Z</time>
      </trkpt>
      <trkpt lat="41.89432" lon="9.17941">
        <ele>1504.6</ele>
        <time>2015-06-20T10:56:13Z</time>
      </trkpt>
      <trkpt lat="41.89436" lon="9.17938">
        <ele>1505.8</ele>
        <time>2015-06-20T10:56:22Z</time>
      </trkpt>
      <trkpt lat="41.89441" lon="9.17936">
        <ele>1507</ele>
        <time>2015-06-20T10:56:31Z</time>
      </trkpt>
      <trkpt lat="41.89445" lon="9.17935">
        <ele>1508.2</ele>
        <time>2015-06-20T10:56:41Z</time>
      </trkpt>
      <trkpt lat="41.89448" lon="9.17935">
        <ele>1509</ele>
        <time>2015-06-20T10:56:49Z</time>
      </trkpt>
      <trkpt lat="41.89453" lon="9.17935">
        <ele>1510.4</ele>
        <time>2015-06-20T10:57:00Z</time>
      </trkpt>
      <trkpt lat="41.89456" lon="9.17935">
        <ele>1511</ele>
        <time>2015-06-20T10:57:08Z</time>
      </trkpt>
      <trkpt lat="41.89459" lon="9.17936">
        <ele>1512.4</ele>
        <time>2015-06-20T10:57:16Z</time>
      </trkpt>
      <trkpt lat="41.89463" lon="9.17939">
        <ele>1513.4</ele>
        <time>2015-06-20T10:57:24Z</time>
      </trkpt>
      <trkpt lat="41.89469" lon="9.17939">
        <ele>1514.8</ele>
        <time>2015-06-20T10:57:36Z</time>
      </trkpt>
      <trkpt lat="41.89474" lon="9.1794">
        <ele>1515.4</ele>
        <time>2015-06-20T10:57:46Z</time>
      </trkpt>
      <trkpt lat="41.89478" lon="9.17939">
        <ele>1516.2</ele>
        <time>2015-06-20T10:57:53Z</time>
      </trkpt>
      <trkpt lat="41.89481" lon="9.17939">
        <ele>1517.6</ele>
        <time>2015-06-20T10:58:02Z</time>
      </trkpt>
      <trkpt lat="41.89484" lon="9.17938">
        <ele>1518.8</ele>
        <time>2015-06-20T10:58:10Z</time>
      </trkpt>
      <trkpt lat="41.89487" lon="9.17935">
        <ele>1519.8</ele>
        <time>2015-06-20T10:58:19Z</time>
      </trkpt>
      <trkpt lat="41.89489" lon="9.17932">
        <ele>1520.8</ele>
        <time>2015-06-20T10:58:27Z</time>
      </trkpt>
      <trkpt lat="41.89492" lon="9.17927">
        <ele>1522</ele>
        <time>2015-06-20T10:58:36Z</time>
      </trkpt>
      <trkpt lat="41.89494" lon="9.17926">
        <ele>1522.6</ele>
        <time>2015-06-20T10:58:41Z</time>
      </trkpt>
      <trkpt lat="41.89499" lon="9.17927">
        <ele>1524</ele>
        <time>2015-06-20T10:58:48Z</time>
      </trkpt>
      <trkpt lat="41.89508" lon="9.17924">
        <ele>1525.6</ele>
        <time>2015-06-20T10:59:00Z</time>
      </trkpt>
      <trkpt lat="41.89522" lon="9.17915">
        <ele>1526.6</ele>
        <time>2015-06-20T10:59:20Z</time>
      </trkpt>
      <trkpt lat="41.89526" lon="9.17912">
        <ele>1527.2</ele>
        <time>2015-06-20T10:59:29Z</time>
      </trkpt>
      <trkpt lat="41.89545" lon="9.17905">
        <ele>1528.4</ele>
        <time>2015-06-20T10:59:55Z</time>
      </trkpt>
      <trkpt lat="41.89551" lon="9.17901">
        <ele>1529.2</ele>
        <time>2015-06-20T11:00:03Z</time>
      </trkpt>
      <trkpt lat="41.89556" lon="9.17899">
        <ele>1530</ele>
        <time>2015-06-20T11:00:09Z</time>
      </trkpt>
      <trkpt lat="41.89561" lon="9.17894">
        <ele>1531.6</ele>
        <time>2015-06-20T11:00:17Z</time>
      </trkpt>
      <trkpt lat="41.89568" lon="9.17891">
        <ele>1532.4</ele>
        <time>2015-06-20T11:00:26Z</time>
      </trkpt>
      <trkpt lat="41.89577" lon="9.17888">
        <ele>1533.4</ele>
        <time>2015-06-20T11:00:37Z</time>
      </trkpt>
      <trkpt lat="41.89583" lon="9.17888">
        <ele>1534.6</ele>
        <time>2015-06-20T11:00:46Z</time>
      </trkpt>
      <trkpt lat="41.89589" lon="9.17886">
        <ele>1535.4</ele>
        <time>2015-06-20T11:00:54Z</time>
      </trkpt>
      <trkpt lat="41.89605" lon="9.17884">
        <ele>1536.8</ele>
        <time>2015-06-20T11:01:14Z</time>
      </trkpt>
      <trkpt lat="41.89612" lon="9.17887">
        <ele>1537.8</ele>
        <time>2015-06-20T11:01:24Z</time>
      </trkpt>
      <trkpt lat="41.89656" lon="9.179">
        <ele>1538.2</ele>
        <time>2015-06-20T11:02:04Z</time>
      </trkpt>
      <trkpt lat="41.89657" lon="9.179">
        <ele>1538.2</ele>
        <time>2015-06-20T11:02:05Z</time>
      </trkpt>
      <trkpt lat="41.89688" lon="9.17886">
        <ele>1538.6</ele>
        <time>2015-06-20T11:02:35Z</time>
      </trkpt>
      <trkpt lat="41.8969" lon="9.17882">
        <ele>1538.4</ele>
        <time>2015-06-20T11:02:39Z</time>
      </trkpt>
      <trkpt lat="41.89692" lon="9.17878">
        <ele>1538.2</ele>
        <time>2015-06-20T11:02:42Z</time>
      </trkpt>
      <trkpt lat="41.89695" lon="9.17876">
        <ele>1538</ele>
        <time>2015-06-20T11:02:46Z</time>
      </trkpt>
      <trkpt lat="41.89697" lon="9.17874">
        <ele>1538</ele>
        <time>2015-06-20T11:02:48Z</time>
      </trkpt>
      <trkpt lat="41.89701" lon="9.17868">
        <ele>1537.8</ele>
        <time>2015-06-20T11:02:54Z</time>
      </trkpt>
      <trkpt lat="41.89726" lon="9.17852">
        <ele>1537.2</ele>
        <time>2015-06-20T11:03:19Z</time>
      </trkpt>
      <trkpt lat="41.89729" lon="9.17854">
        <ele>1537.6</ele>
        <time>2015-06-20T11:03:23Z</time>
      </trkpt>
      <trkpt lat="41.89738" lon="9.17856">
        <ele>1538</ele>
        <time>2015-06-20T11:03:32Z</time>
      </trkpt>
      <trkpt lat="41.89749" lon="9.17867">
        <ele>1539.2</ele>
        <time>2015-06-20T11:03:45Z</time>
      </trkpt>
      <trkpt lat="41.89776" lon="9.17892">
        <ele>1540.4</ele>
        <time>2015-06-20T11:04:19Z</time>
      </trkpt>
      <trkpt lat="41.89783" lon="9.17892">
        <ele>1540.8</ele>
        <time>2015-06-20T11:04:25Z</time>
      </trkpt>
      <trkpt lat="41.8979" lon="9.17892">
        <ele>1542.2</ele>
        <time>2015-06-20T11:04:32Z</time>
      </trkpt>
      <trkpt lat="41.89795" lon="9.17891">
        <ele>1543.2</ele>
        <time>2015-06-20T11:04:39Z</time>
      </trkpt>
      <trkpt lat="41.89798" lon="9.17892">
        <ele>1544.4</ele>
        <time>2015-06-20T11:04:47Z</time>
      </trkpt>
      <trkpt lat="41.89801" lon="9.17895">
        <ele>1545.4</ele>
        <time>2015-06-20T11:04:54Z</time>
      </trkpt>
      <trkpt lat="41.89804" lon="9.179">
        <ele>1546.6</ele>
        <time>2015-06-20T11:05:01Z</time>
      </trkpt>
      <trkpt lat="41.89808" lon="9.17907">
        <ele>1548.2</ele>
        <time>2015-06-20T11:05:11Z</time>
      </trkpt>
      <trkpt lat="41.89811" lon="9.17914">
        <ele>1549.2</ele>
        <time>2015-06-20T11:05:20Z</time>
      </trkpt>
      <trkpt lat="41.89814" lon="9.17926">
        <ele>1550.4</ele>
        <time>2015-06-20T11:05:32Z</time>
      </trkpt>
      <trkpt lat="41.89818" lon="9.17934">
        <ele>1551</ele>
        <time>2015-06-20T11:05:41Z</time>
      </trkpt>
      <trkpt lat="41.89826" lon="9.17954">
        <ele>1551.6</ele>
        <time>2015-06-20T11:06:00Z</time>
      </trkpt>
      <trkpt lat="41.89837" lon="9.18013">
        <ele>1552.2</ele>
        <time>2015-06-20T11:06:42Z</time>
      </trkpt>
      <trkpt lat="41.89859" lon="9.18065">
        <ele>1551.2</ele>
        <time>2015-06-20T11:07:25Z</time>
      </trkpt>
      <trkpt lat="41.89867" lon="9.18074">
        <ele>1552</ele>
        <time>2015-06-20T11:07:36Z</time>
      </trkpt>
      <trkpt lat="41.8987" lon="9.18078">
        <ele>1552.8</ele>
        <time>2015-06-20T11:07:42Z</time>
      </trkpt>
      <trkpt lat="41.89873" lon="9.18081">
        <ele>1554</ele>
        <time>2015-06-20T11:07:48Z</time>
      </trkpt>
      <trkpt lat="41.89884" lon="9.18096">
        <ele>1555.8</ele>
        <time>2015-06-20T11:08:10Z</time>
      </trkpt>
      <trkpt lat="41.89885" lon="9.18097">
        <ele>1556</ele>
        <time>2015-06-20T11:08:11Z</time>
      </trkpt>
      <trkpt lat="41.89887" lon="9.18098">
        <ele>1556</ele>
        <time>2015-06-20T11:08:13Z</time>
      </trkpt>
      <trkpt lat="41.89898" lon="9.1812">
        <ele>1556.6</ele>
        <time>2015-06-20T11:08:37Z</time>
      </trkpt>
      <trkpt lat="41.89902" lon="9.18121">
        <ele>1557.4</ele>
        <time>2015-06-20T11:08:43Z</time>
      </trkpt>
      <trkpt lat="41.89906" lon="9.18123">
        <ele>1558.6</ele>
        <time>2015-06-20T11:08:49Z</time>
      </trkpt>
      <trkpt lat="41.8991" lon="9.18126">
        <ele>1559.8</ele>
        <time>2015-06-20T11:08:56Z</time>
      </trkpt>
      <trkpt lat="41.89914" lon="9.18128">
        <ele>1560.6</ele>
        <time>2015-06-20T11:09:02Z</time>
      </trkpt>
      <trkpt lat="41.8992" lon="9.18131">
        <ele>1562.2</ele>
        <time>2015-06-20T11:09:11Z</time>
      </trkpt>
      <trkpt lat="41.89924" lon="9.18133">
        <ele>1563.2</ele>
        <time>2015-06-20T11:09:20Z</time>
      </trkpt>
      <trkpt lat="41.89927" lon="9.18135">
        <ele>1564.2</ele>
        <time>2015-06-20T11:09:27Z</time>
      </trkpt>
      <trkpt lat="41.8993" lon="9.18141">
        <ele>1565.4</ele>
        <time>2015-06-20T11:09:36Z</time>
      </trkpt>
      <trkpt lat="41.89943" lon="9.1815">
        <ele>1566.6</ele>
        <time>2015-06-20T11:09:59Z</time>
      </trkpt>
      <trkpt lat="41.89949" lon="9.18153">
        <ele>1567.4</ele>
        <time>2015-06-20T11:10:08Z</time>
      </trkpt>
      <trkpt lat="41.8995" lon="9.18153">
        <ele>1567.6</ele>
        <time>2015-06-20T11:10:09Z</time>
      </trkpt>
      <trkpt lat="41.89958" lon="9.18157">
        <ele>1568.6</ele>
        <time>2015-06-20T11:10:18Z</time>
      </trkpt>
      <trkpt lat="41.89965" lon="9.18159">
        <ele>1569.4</ele>
        <time>2015-06-20T11:10:27Z</time>
      </trkpt>
      <trkpt lat="41.89972" lon="9.1816">
        <ele>1570.6</ele>
        <time>2015-06-20T11:10:37Z</time>
      </trkpt>
      <trkpt lat="41.89976" lon="9.18162">
        <ele>1571.6</ele>
        <time>2015-06-20T11:10:45Z</time>
      </trkpt>
      <trkpt lat="41.89981" lon="9.18163">
        <ele>1572.6</ele>
        <time>2015-06-20T11:10:53Z</time>
      </trkpt>
      <trkpt lat="41.89983" lon="9.18164">
        <ele>1573.4</ele>
        <time>2015-06-20T11:10:59Z</time>
      </trkpt>
      <trkpt lat="41.89988" lon="9.1817">
        <ele>1574.6</ele>
        <time>2015-06-20T11:11:06Z</time>
      </trkpt>
      <trkpt lat="41.90016" lon="9.1819">
        <ele>1576.6</ele>
        <time>2015-06-20T11:11:39Z</time>
      </trkpt>
      <trkpt lat="41.90025" lon="9.18199">
        <ele>1577</ele>
        <time>2015-06-20T11:11:50Z</time>
      </trkpt>
      <trkpt lat="41.90026" lon="9.182">
        <ele>1577.4</ele>
        <time>2015-06-20T11:11:51Z</time>
      </trkpt>
      <trkpt lat="41.9003" lon="9.18204">
        <ele>1578</ele>
        <time>2015-06-20T11:11:59Z</time>
      </trkpt>
      <trkpt lat="41.90036" lon="9.18207">
        <ele>1579.2</ele>
        <time>2015-06-20T11:12:08Z</time>
      </trkpt>
      <trkpt lat="41.90051" lon="9.18222">
        <ele>1580.2</ele>
        <time>2015-06-20T11:12:29Z</time>
      </trkpt>
      <trkpt lat="41.9006" lon="9.18224">
        <ele>1581.2</ele>
        <time>2015-06-20T11:12:38Z</time>
      </trkpt>
      <trkpt lat="41.90061" lon="9.18224">
        <ele>1581.4</ele>
        <time>2015-06-20T11:12:39Z</time>
      </trkpt>
      <trkpt lat="41.90075" lon="9.1822">
        <ele>1581.6</ele>
        <time>2015-06-20T11:12:54Z</time>
      </trkpt>
      <trkpt lat="41.90089" lon="9.18216">
        <ele>1580</ele>
        <time>2015-06-20T11:13:08Z</time>
      </trkpt>
      <trkpt lat="41.90132" lon="9.18228">
        <ele>1579.2</ele>
        <time>2015-06-20T11:13:48Z</time>
      </trkpt>
      <trkpt lat="41.90135" lon="9.18228">
        <ele>1579</ele>
        <time>2015-06-20T11:13:50Z</time>
      </trkpt>
      <trkpt lat="41.90164" lon="9.1824">
        <ele>1578</ele>
        <time>2015-06-20T11:14:19Z</time>
      </trkpt>
      <trkpt lat="41.90169" lon="9.18245">
        <ele>1577.8</ele>
        <time>2015-06-20T11:14:24Z</time>
      </trkpt>
      <trkpt lat="41.90175" lon="9.18249">
        <ele>1577.2</ele>
        <time>2015-06-20T11:14:31Z</time>
      </trkpt>
      <trkpt lat="41.90178" lon="9.18247">
        <ele>1576.8</ele>
        <time>2015-06-20T11:14:35Z</time>
      </trkpt>
      <trkpt lat="41.90181" lon="9.18244">
        <ele>1576.8</ele>
        <time>2015-06-20T11:14:38Z</time>
      </trkpt>
      <trkpt lat="41.90188" lon="9.18241">
        <ele>1577.4</ele>
        <time>2015-06-20T11:14:46Z</time>
      </trkpt>
      <trkpt lat="41.90196" lon="9.1824">
        <ele>1577.8</ele>
        <time>2015-06-20T11:14:53Z</time>
      </trkpt>
      <trkpt lat="41.90204" lon="9.1824">
        <ele>1578</ele>
        <time>2015-06-20T11:14:59Z</time>
      </trkpt>
      <trkpt lat="41.9021" lon="9.18234">
        <ele>1578</ele>
        <time>2015-06-20T11:15:06Z</time>
      </trkpt>
      <trkpt lat="41.90218" lon="9.18227">
        <ele>1578.2</ele>
        <time>2015-06-20T11:15:15Z</time>
      </trkpt>
      <trkpt lat="41.90221" lon="9.18224">
        <ele>1579</ele>
        <time>2015-06-20T11:15:20Z</time>
      </trkpt>
      <trkpt lat="41.90224" lon="9.18221">
        <ele>1579.6</ele>
        <time>2015-06-20T11:15:25Z</time>
      </trkpt>
      <trkpt lat="41.90228" lon="9.18218">
        <ele>1580.4</ele>
        <time>2015-06-20T11:15:32Z</time>
      </trkpt>
      <trkpt lat="41.90235" lon="9.18214">
        <ele>1581.8</ele>
        <time>2015-06-20T11:15:42Z</time>
      </trkpt>
      <trkpt lat="41.90241" lon="9.18207">
        <ele>1583</ele>
        <time>2015-06-20T11:15:52Z</time>
      </trkpt>
      <trkpt lat="41.90245" lon="9.18195">
        <ele>1584</ele>
        <time>2015-06-20T11:16:03Z</time>
      </trkpt>
      <trkpt lat="41.90249" lon="9.18184">
        <ele>1585.2</ele>
        <time>2015-06-20T11:16:14Z</time>
      </trkpt>
      <trkpt lat="41.90261" lon="9.18126">
        <ele>1585.8</ele>
        <time>2015-06-20T11:16:54Z</time>
      </trkpt>
      <trkpt lat="41.90272" lon="9.18111">
        <ele>1585.8</ele>
        <time>2015-06-20T11:17:13Z</time>
      </trkpt>
      <trkpt lat="41.90272" lon="9.18108">
        <ele>1585.8</ele>
        <time>2015-06-20T11:17:16Z</time>
      </trkpt>
      <trkpt lat="41.90268" lon="9.18115">
        <ele>1584.8</ele>
        <time>2015-06-20T11:20:49Z</time>
      </trkpt>
      <trkpt lat="41.90272" lon="9.18116">
        <ele>1585.6</ele>
        <time>2015-06-20T11:21:38Z</time>
      </trkpt>
      <trkpt lat="41.9027" lon="9.18116">
        <ele>1585</ele>
        <time>2015-06-20T11:23:19Z</time>
      </trkpt>
      <trkpt lat="41.90267" lon="9.18117">
        <ele>1584.6</ele>
        <time>2015-06-20T11:25:41Z</time>
      </trkpt>
      <trkpt lat="41.90272" lon="9.18113">
        <ele>1585.2</ele>
        <time>2015-06-20T11:27:04Z</time>
      </trkpt>
      <trkpt lat="41.90273" lon="9.18112">
        <ele>1585.2</ele>
        <time>2015-06-20T11:27:09Z</time>
      </trkpt>
      <trkpt lat="41.90267" lon="9.18119">
        <ele>1584.8</ele>
        <time>2015-06-20T11:27:20Z</time>
      </trkpt>
      <trkpt lat="41.90265" lon="9.18117">
        <ele>1585</ele>
        <time>2015-06-20T11:27:40Z</time>
      </trkpt>
      <trkpt lat="41.90265" lon="9.18117">
        <ele>1585.4</ele>
        <time>2015-06-20T11:28:17Z</time>
      </trkpt>
      <trkpt lat="41.90265" lon="9.18118">
        <ele>1585</ele>
        <time>2015-06-20T11:28:24Z</time>
      </trkpt>
      <trkpt lat="41.90264" lon="9.18118">
        <ele>1585.4</ele>
        <time>2015-06-20T11:28:32Z</time>
      </trkpt>
      <trkpt lat="41.90264" lon="9.18119">
        <ele>1585.6</ele>
        <time>2015-06-20T11:28:34Z</time>
      </trkpt>
      <trkpt lat="41.90262" lon="9.18105">
        <ele>1585.8</ele>
        <time>2015-06-20T11:29:25Z</time>
      </trkpt>
      <trkpt lat="41.9026" lon="9.18098">
        <ele>1585.4</ele>
        <time>2015-06-20T11:29:33Z</time>
      </trkpt>
      <trkpt lat="41.90266" lon="9.181">
        <ele>1584.6</ele>
        <time>2015-06-20T11:31:14Z</time>
      </trkpt>
      <trkpt lat="41.90259" lon="9.18103">
        <ele>1583.4</ele>
        <time>2015-06-20T11:33:03Z</time>
      </trkpt>
      <trkpt lat="41.9026" lon="9.18093">
        <ele>1582.6</ele>
        <time>2015-06-20T11:36:10Z</time>
      </trkpt>
      <trkpt lat="41.90259" lon="9.18098">
        <ele>1582.6</ele>
        <time>2015-06-20T11:36:17Z</time>
      </trkpt>
      <trkpt lat="41.90265" lon="9.18101">
        <ele>1582.6</ele>
        <time>2015-06-20T11:38:45Z</time>
      </trkpt>
      <trkpt lat="41.90289" lon="9.18095">
        <ele>1582.6</ele>
        <time>2015-06-20T11:40:04Z</time>
      </trkpt>
      <trkpt lat="41.90291" lon="9.18096">
        <ele>1582.6</ele>
        <time>2015-06-20T11:40:06Z</time>
      </trkpt>
      <trkpt lat="41.90297" lon="9.18094">
        <ele>1582.8</ele>
        <time>2015-06-20T11:40:37Z</time>
      </trkpt>
      <trkpt lat="41.90282" lon="9.18098">
        <ele>1582.8</ele>
        <time>2015-06-20T11:40:41Z</time>
      </trkpt>
      <trkpt lat="41.90281" lon="9.18099">
        <ele>1582.8</ele>
        <time>2015-06-20T11:40:43Z</time>
      </trkpt>
      <trkpt lat="41.90267" lon="9.18078">
        <ele>1582.4</ele>
        <time>2015-06-20T11:41:40Z</time>
      </trkpt>
      <trkpt lat="41.90266" lon="9.1808">
        <ele>1582.6</ele>
        <time>2015-06-20T11:41:42Z</time>
      </trkpt>
      <trkpt lat="41.90267" lon="9.18098">
        <ele>1583.2</ele>
        <time>2015-06-20T11:45:00Z</time>
      </trkpt>
      <trkpt lat="41.90274" lon="9.181">
        <ele>1584</ele>
        <time>2015-06-20T11:45:39Z</time>
      </trkpt>
      <trkpt lat="41.9028" lon="9.18105">
        <ele>1584</ele>
        <time>2015-06-20T11:45:45Z</time>
      </trkpt>
      <trkpt lat="41.90282" lon="9.18105">
        <ele>1584.2</ele>
        <time>2015-06-20T11:45:47Z</time>
      </trkpt>
      <trkpt lat="41.90294" lon="9.18103">
        <ele>1583.2</ele>
        <time>2015-06-20T11:47:53Z</time>
      </trkpt>
      <trkpt lat="41.90293" lon="9.18102">
        <ele>1582.4</ele>
        <time>2015-06-20T11:48:52Z</time>
      </trkpt>
      <trkpt lat="41.90295" lon="9.18101">
        <ele>1582.4</ele>
        <time>2015-06-20T11:48:54Z</time>
      </trkpt>
      <trkpt lat="41.903" lon="9.18094">
        <ele>1582.4</ele>
        <time>2015-06-20T11:49:04Z</time>
      </trkpt>
      <trkpt lat="41.90288" lon="9.18088">
        <ele>1582.4</ele>
        <time>2015-06-20T11:49:18Z</time>
      </trkpt>
      <trkpt lat="41.90281" lon="9.18089">
        <ele>1582.4</ele>
        <time>2015-06-20T11:49:23Z</time>
      </trkpt>
      <trkpt lat="41.90282" lon="9.18092">
        <ele>1582.2</ele>
        <time>2015-06-20T11:49:43Z</time>
      </trkpt>
      <trkpt lat="41.90269" lon="9.18098">
        <ele>1581.8</ele>
        <time>2015-06-20T11:50:10Z</time>
      </trkpt>
      <trkpt lat="41.9027" lon="9.18105">
        <ele>1581.6</ele>
        <time>2015-06-20T11:50:14Z</time>
      </trkpt>
      <trkpt lat="41.9027" lon="9.18108">
        <ele>1581.6</ele>
        <time>2015-06-20T11:50:16Z</time>
      </trkpt>
      <trkpt lat="41.90269" lon="9.18109">
        <ele>1581.6</ele>
        <time>2015-06-20T11:50:18Z</time>
      </trkpt>
      <trkpt lat="41.90276" lon="9.18108">
        <ele>1581.2</ele>
        <time>2015-06-20T11:50:35Z</time>
      </trkpt>
      <trkpt lat="41.9028" lon="9.18107">
        <ele>1581.2</ele>
        <time>2015-06-20T11:50:40Z</time>
      </trkpt>
      <trkpt lat="41.90282" lon="9.18099">
        <ele>1580.8</ele>
        <time>2015-06-20T11:51:35Z</time>
      </trkpt>
      <trkpt lat="41.90286" lon="9.18096">
        <ele>1580</ele>
        <time>2015-06-20T11:53:13Z</time>
      </trkpt>
      <trkpt lat="41.90278" lon="9.181">
        <ele>1579.8</ele>
        <time>2015-06-20T11:53:39Z</time>
      </trkpt>
      <trkpt lat="41.90273" lon="9.18108">
        <ele>1580</ele>
        <time>2015-06-20T11:56:33Z</time>
      </trkpt>
      <trkpt lat="41.90275" lon="9.18108">
        <ele>1580</ele>
        <time>2015-06-20T11:56:44Z</time>
      </trkpt>
      <trkpt lat="41.90273" lon="9.18115">
        <ele>1580.2</ele>
        <time>2015-06-20T11:58:08Z</time>
      </trkpt>
      <trkpt lat="41.90268" lon="9.18112">
        <ele>1580.4</ele>
        <time>2015-06-20T11:59:42Z</time>
      </trkpt>
      <trkpt lat="41.90279" lon="9.18098">
        <ele>1581.4</ele>
        <time>2015-06-20T12:01:46Z</time>
      </trkpt>
      <trkpt lat="41.90274" lon="9.18103">
        <ele>1582.6</ele>
        <time>2015-06-20T12:04:28Z</time>
      </trkpt>
      <trkpt lat="41.9028" lon="9.18103">
        <ele>1582.8</ele>
        <time>2015-06-20T12:05:49Z</time>
      </trkpt>
      <trkpt lat="41.90301" lon="9.18086">
        <ele>1581.8</ele>
        <time>2015-06-20T12:06:11Z</time>
      </trkpt>
      <trkpt lat="41.90302" lon="9.18085">
        <ele>1581.4</ele>
        <time>2015-06-20T12:06:13Z</time>
      </trkpt>
      <trkpt lat="41.90304" lon="9.18082">
        <ele>1581.4</ele>
        <time>2015-06-20T12:06:15Z</time>
      </trkpt>
      <trkpt lat="41.90306" lon="9.18076">
        <ele>1581.2</ele>
        <time>2015-06-20T12:06:20Z</time>
      </trkpt>
      <trkpt lat="41.90307" lon="9.18073">
        <ele>1581</ele>
        <time>2015-06-20T12:06:23Z</time>
      </trkpt>
      <trkpt lat="41.90309" lon="9.18065">
        <ele>1580.8</ele>
        <time>2015-06-20T12:06:29Z</time>
      </trkpt>
      <trkpt lat="41.9031" lon="9.18063">
        <ele>1580.6</ele>
        <time>2015-06-20T12:06:30Z</time>
      </trkpt>
      <trkpt lat="41.90317" lon="9.18056">
        <ele>1580.2</ele>
        <time>2015-06-20T12:06:39Z</time>
      </trkpt>
      <trkpt lat="41.90317" lon="9.18056">
        <ele>1580</ele>
        <time>2015-06-20T12:06:40Z</time>
      </trkpt>
      <trkpt lat="41.90322" lon="9.18049">
        <ele>1579.2</ele>
        <time>2015-06-20T12:06:49Z</time>
      </trkpt>
      <trkpt lat="41.90326" lon="9.18047">
        <ele>1579.2</ele>
        <time>2015-06-20T12:06:52Z</time>
      </trkpt>
      <trkpt lat="41.90331" lon="9.1804">
        <ele>1578.8</ele>
        <time>2015-06-20T12:07:01Z</time>
      </trkpt>
      <trkpt lat="41.90333" lon="9.1803">
        <ele>1578</ele>
        <time>2015-06-20T12:07:08Z</time>
      </trkpt>
      <trkpt lat="41.90335" lon="9.18024">
        <ele>1577.6</ele>
        <time>2015-06-20T12:07:12Z</time>
      </trkpt>
      <trkpt lat="41.90335" lon="9.18019">
        <ele>1577.2</ele>
        <time>2015-06-20T12:07:16Z</time>
      </trkpt>
      <trkpt lat="41.90336" lon="9.18015">
        <ele>1577</ele>
        <time>2015-06-20T12:07:19Z</time>
      </trkpt>
      <trkpt lat="41.90337" lon="9.18014">
        <ele>1576.6</ele>
        <time>2015-06-20T12:07:20Z</time>
      </trkpt>
      <trkpt lat="41.90339" lon="9.18011">
        <ele>1576.4</ele>
        <time>2015-06-20T12:07:23Z</time>
      </trkpt>
      <trkpt lat="41.90341" lon="9.18009">
        <ele>1576</ele>
        <time>2015-06-20T12:07:25Z</time>
      </trkpt>
      <trkpt lat="41.90344" lon="9.18006">
        <ele>1575.2</ele>
        <time>2015-06-20T12:07:29Z</time>
      </trkpt>
      <trkpt lat="41.90349" lon="9.18003">
        <ele>1574.6</ele>
        <time>2015-06-20T12:07:32Z</time>
      </trkpt>
      <trkpt lat="41.90351" lon="9.18002">
        <ele>1574.2</ele>
        <time>2015-06-20T12:07:34Z</time>
      </trkpt>
      <trkpt lat="41.90355" lon="9.17998">
        <ele>1573.6</ele>
        <time>2015-06-20T12:07:38Z</time>
      </trkpt>
      <trkpt lat="41.90357" lon="9.17997">
        <ele>1573.6</ele>
        <time>2015-06-20T12:07:39Z</time>
      </trkpt>
      <trkpt lat="41.90361" lon="9.17992">
        <ele>1573</ele>
        <time>2015-06-20T12:07:44Z</time>
      </trkpt>
      <trkpt lat="41.90372" lon="9.17982">
        <ele>1571.6</ele>
        <time>2015-06-20T12:07:59Z</time>
      </trkpt>
      <trkpt lat="41.90377" lon="9.17978">
        <ele>1571.8</ele>
        <time>2015-06-20T12:08:04Z</time>
      </trkpt>
      <trkpt lat="41.90384" lon="9.17969">
        <ele>1572</ele>
        <time>2015-06-20T12:08:13Z</time>
      </trkpt>
      <trkpt lat="41.90386" lon="9.17965">
        <ele>1572</ele>
        <time>2015-06-20T12:08:16Z</time>
      </trkpt>
      <trkpt lat="41.90388" lon="9.17963">
        <ele>1571.8</ele>
        <time>2015-06-20T12:08:18Z</time>
      </trkpt>
      <trkpt lat="41.90389" lon="9.17961">
        <ele>1571.8</ele>
        <time>2015-06-20T12:08:20Z</time>
      </trkpt>
      <trkpt lat="41.90393" lon="9.17957">
        <ele>1571.4</ele>
        <time>2015-06-20T12:08:23Z</time>
      </trkpt>
      <trkpt lat="41.90399" lon="9.17953">
        <ele>1570.4</ele>
        <time>2015-06-20T12:08:29Z</time>
      </trkpt>
      <trkpt lat="41.90402" lon="9.1795">
        <ele>1570.2</ele>
        <time>2015-06-20T12:08:32Z</time>
      </trkpt>
      <trkpt lat="41.90406" lon="9.17941">
        <ele>1569.2</ele>
        <time>2015-06-20T12:08:38Z</time>
      </trkpt>
      <trkpt lat="41.9041" lon="9.1793">
        <ele>1568.6</ele>
        <time>2015-06-20T12:08:46Z</time>
      </trkpt>
      <trkpt lat="41.90413" lon="9.17923">
        <ele>1567.6</ele>
        <time>2015-06-20T12:08:54Z</time>
      </trkpt>
      <trkpt lat="41.90414" lon="9.17921">
        <ele>1567.4</ele>
        <time>2015-06-20T12:08:56Z</time>
      </trkpt>
      <trkpt lat="41.90418" lon="9.17915">
        <ele>1566.8</ele>
        <time>2015-06-20T12:09:01Z</time>
      </trkpt>
      <trkpt lat="41.90419" lon="9.17914">
        <ele>1566.6</ele>
        <time>2015-06-20T12:09:02Z</time>
      </trkpt>
      <trkpt lat="41.90422" lon="9.17911">
        <ele>1566</ele>
        <time>2015-06-20T12:09:05Z</time>
      </trkpt>
      <trkpt lat="41.90423" lon="9.1791">
        <ele>1565.6</ele>
        <time>2015-06-20T12:09:07Z</time>
      </trkpt>
      <trkpt lat="41.90423" lon="9.17909">
        <ele>1565.2</ele>
        <time>2015-06-20T12:09:08Z</time>
      </trkpt>
      <trkpt lat="41.90425" lon="9.17905">
        <ele>1564.4</ele>
        <time>2015-06-20T12:09:14Z</time>
      </trkpt>
      <trkpt lat="41.90429" lon="9.17901">
        <ele>1563.4</ele>
        <time>2015-06-20T12:09:20Z</time>
      </trkpt>
      <trkpt lat="41.90431" lon="9.17897">
        <ele>1562.6</ele>
        <time>2015-06-20T12:09:24Z</time>
      </trkpt>
      <trkpt lat="41.90431" lon="9.17896">
        <ele>1562.4</ele>
        <time>2015-06-20T12:09:25Z</time>
      </trkpt>
      <trkpt lat="41.90432" lon="9.17892">
        <ele>1561.4</ele>
        <time>2015-06-20T12:09:30Z</time>
      </trkpt>
      <trkpt lat="41.90432" lon="9.17887">
        <ele>1560.2</ele>
        <time>2015-06-20T12:09:35Z</time>
      </trkpt>
      <trkpt lat="41.90434" lon="9.17881">
        <ele>1559.6</ele>
        <time>2015-06-20T12:09:39Z</time>
      </trkpt>
      <trkpt lat="41.90434" lon="9.17878">
        <ele>1559</ele>
        <time>2015-06-20T12:09:41Z</time>
      </trkpt>
      <trkpt lat="41.90438" lon="9.17871">
        <ele>1558.2</ele>
        <time>2015-06-20T12:09:45Z</time>
      </trkpt>
      <trkpt lat="41.90439" lon="9.17868">
        <ele>1557.8</ele>
        <time>2015-06-20T12:09:46Z</time>
      </trkpt>
      <trkpt lat="41.90444" lon="9.17859">
        <ele>1557</ele>
        <time>2015-06-20T12:09:51Z</time>
      </trkpt>
      <trkpt lat="41.9045" lon="9.17849">
        <ele>1555.2</ele>
        <time>2015-06-20T12:10:01Z</time>
      </trkpt>
      <trkpt lat="41.90458" lon="9.17847">
        <ele>1554.2</ele>
        <time>2015-06-20T12:10:10Z</time>
      </trkpt>
      <trkpt lat="41.90463" lon="9.17842">
        <ele>1553.2</ele>
        <time>2015-06-20T12:10:19Z</time>
      </trkpt>
      <trkpt lat="41.90464" lon="9.17839">
        <ele>1553.2</ele>
        <time>2015-06-20T12:10:21Z</time>
      </trkpt>
      <trkpt lat="41.90467" lon="9.17837">
        <ele>1552.4</ele>
        <time>2015-06-20T12:10:26Z</time>
      </trkpt>
      <trkpt lat="41.90469" lon="9.17835">
        <ele>1552.2</ele>
        <time>2015-06-20T12:10:29Z</time>
      </trkpt>
      <trkpt lat="41.90473" lon="9.17838">
        <ele>1551.8</ele>
        <time>2015-06-20T12:10:33Z</time>
      </trkpt>
      <trkpt lat="41.90476" lon="9.17839">
        <ele>1551.4</ele>
        <time>2015-06-20T12:10:35Z</time>
      </trkpt>
      <trkpt lat="41.90476" lon="9.17839">
        <ele>1551.2</ele>
        <time>2015-06-20T12:10:36Z</time>
      </trkpt>
      <trkpt lat="41.90483" lon="9.1784">
        <ele>1550</ele>
        <time>2015-06-20T12:10:44Z</time>
      </trkpt>
      <trkpt lat="41.90485" lon="9.17843">
        <ele>1549.8</ele>
        <time>2015-06-20T12:10:46Z</time>
      </trkpt>
      <trkpt lat="41.90487" lon="9.17843">
        <ele>1549.8</ele>
        <time>2015-06-20T12:10:47Z</time>
      </trkpt>
      <trkpt lat="41.90491" lon="9.17844">
        <ele>1549.6</ele>
        <time>2015-06-20T12:10:50Z</time>
      </trkpt>
      <trkpt lat="41.90495" lon="9.17844">
        <ele>1549.4</ele>
        <time>2015-06-20T12:10:53Z</time>
      </trkpt>
      <trkpt lat="41.90497" lon="9.17842">
        <ele>1549</ele>
        <time>2015-06-20T12:10:56Z</time>
      </trkpt>
      <trkpt lat="41.90499" lon="9.17842">
        <ele>1548.8</ele>
        <time>2015-06-20T12:10:58Z</time>
      </trkpt>
      <trkpt lat="41.905" lon="9.17842">
        <ele>1548.8</ele>
        <time>2015-06-20T12:11:00Z</time>
      </trkpt>
      <trkpt lat="41.90504" lon="9.1784">
        <ele>1548.2</ele>
        <time>2015-06-20T12:11:04Z</time>
      </trkpt>
      <trkpt lat="41.9051" lon="9.17838">
        <ele>1548</ele>
        <time>2015-06-20T12:11:07Z</time>
      </trkpt>
      <trkpt lat="41.90513" lon="9.17837">
        <ele>1547.2</ele>
        <time>2015-06-20T12:11:10Z</time>
      </trkpt>
      <trkpt lat="41.90516" lon="9.17835">
        <ele>1547</ele>
        <time>2015-06-20T12:11:12Z</time>
      </trkpt>
      <trkpt lat="41.90523" lon="9.17829">
        <ele>1546.6</ele>
        <time>2015-06-20T12:11:18Z</time>
      </trkpt>
      <trkpt lat="41.90529" lon="9.17824">
        <ele>1546.4</ele>
        <time>2015-06-20T12:11:23Z</time>
      </trkpt>
      <trkpt lat="41.90531" lon="9.1782">
        <ele>1546</ele>
        <time>2015-06-20T12:11:25Z</time>
      </trkpt>
      <trkpt lat="41.90553" lon="9.17811">
        <ele>1545.8</ele>
        <time>2015-06-20T12:11:43Z</time>
      </trkpt>
      <trkpt lat="41.90566" lon="9.17804">
        <ele>1545.8</ele>
        <time>2015-06-20T12:11:53Z</time>
      </trkpt>
      <trkpt lat="41.90577" lon="9.1777">
        <ele>1545.2</ele>
        <time>2015-06-20T12:12:20Z</time>
      </trkpt>
      <trkpt lat="41.90574" lon="9.17768">
        <ele>1545.6</ele>
        <time>2015-06-20T12:12:22Z</time>
      </trkpt>
      <trkpt lat="41.90572" lon="9.17763">
        <ele>1546</ele>
        <time>2015-06-20T12:12:27Z</time>
      </trkpt>
      <trkpt lat="41.90572" lon="9.17758">
        <ele>1546.4</ele>
        <time>2015-06-20T12:12:30Z</time>
      </trkpt>
      <trkpt lat="41.90569" lon="9.17749">
        <ele>1547</ele>
        <time>2015-06-20T12:12:37Z</time>
      </trkpt>
      <trkpt lat="41.90567" lon="9.17744">
        <ele>1547.4</ele>
        <time>2015-06-20T12:12:41Z</time>
      </trkpt>
      <trkpt lat="41.90566" lon="9.17735">
        <ele>1548</ele>
        <time>2015-06-20T12:12:48Z</time>
      </trkpt>
      <trkpt lat="41.90575" lon="9.17714">
        <ele>1548.4</ele>
        <time>2015-06-20T12:13:08Z</time>
      </trkpt>
      <trkpt lat="41.90576" lon="9.17712">
        <ele>1548.4</ele>
        <time>2015-06-20T12:13:11Z</time>
      </trkpt>
      <trkpt lat="41.90589" lon="9.17705">
        <ele>1549.4</ele>
        <time>2015-06-20T12:13:24Z</time>
      </trkpt>
      <trkpt lat="41.90605" lon="9.17698">
        <ele>1551</ele>
        <time>2015-06-20T12:13:52Z</time>
      </trkpt>
      <trkpt lat="41.90611" lon="9.17694">
        <ele>1552.4</ele>
        <time>2015-06-20T12:14:08Z</time>
      </trkpt>
      <trkpt lat="41.9062" lon="9.17694">
        <ele>1553</ele>
        <time>2015-06-20T12:14:21Z</time>
      </trkpt>
      <trkpt lat="41.90628" lon="9.17694">
        <ele>1554</ele>
        <time>2015-06-20T12:14:32Z</time>
      </trkpt>
      <trkpt lat="41.90647" lon="9.17693">
        <ele>1555.2</ele>
        <time>2015-06-20T12:14:44Z</time>
      </trkpt>
      <trkpt lat="41.90655" lon="9.17704">
        <ele>1556.2</ele>
        <time>2015-06-20T12:15:02Z</time>
      </trkpt>
      <trkpt lat="41.90661" lon="9.17706">
        <ele>1557.2</ele>
        <time>2015-06-20T12:15:09Z</time>
      </trkpt>
      <trkpt lat="41.90663" lon="9.17707">
        <ele>1557.4</ele>
        <time>2015-06-20T12:15:11Z</time>
      </trkpt>
      <trkpt lat="41.90668" lon="9.17708">
        <ele>1557.6</ele>
        <time>2015-06-20T12:15:14Z</time>
      </trkpt>
      <trkpt lat="41.90673" lon="9.17709">
        <ele>1558</ele>
        <time>2015-06-20T12:15:18Z</time>
      </trkpt>
      <trkpt lat="41.90678" lon="9.17708">
        <ele>1558</ele>
        <time>2015-06-20T12:15:20Z</time>
      </trkpt>
      <trkpt lat="41.90681" lon="9.17708">
        <ele>1558</ele>
        <time>2015-06-20T12:15:24Z</time>
      </trkpt>
      <trkpt lat="41.90687" lon="9.17707">
        <ele>1558.2</ele>
        <time>2015-06-20T12:15:29Z</time>
      </trkpt>
      <trkpt lat="41.9069" lon="9.17709">
        <ele>1559.6</ele>
        <time>2015-06-20T12:15:34Z</time>
      </trkpt>
      <trkpt lat="41.90692" lon="9.17709">
        <ele>1559.6</ele>
        <time>2015-06-20T12:15:36Z</time>
      </trkpt>
      <trkpt lat="41.90693" lon="9.17708">
        <ele>1559.8</ele>
        <time>2015-06-20T12:15:37Z</time>
      </trkpt>
      <trkpt lat="41.90693" lon="9.17708">
        <ele>1560</ele>
        <time>2015-06-20T12:15:38Z</time>
      </trkpt>
      <trkpt lat="41.90696" lon="9.17708">
        <ele>1560.6</ele>
        <time>2015-06-20T12:15:42Z</time>
      </trkpt>
      <trkpt lat="41.90701" lon="9.17708">
        <ele>1561.4</ele>
        <time>2015-06-20T12:15:46Z</time>
      </trkpt>
      <trkpt lat="41.90702" lon="9.17708">
        <ele>1561.4</ele>
        <time>2015-06-20T12:15:47Z</time>
      </trkpt>
      <trkpt lat="41.90705" lon="9.17708">
        <ele>1561.6</ele>
        <time>2015-06-20T12:15:49Z</time>
      </trkpt>
      <trkpt lat="41.9072" lon="9.17711">
        <ele>1562.6</ele>
        <time>2015-06-20T12:16:02Z</time>
      </trkpt>
      <trkpt lat="41.90729" lon="9.17717">
        <ele>1564</ele>
        <time>2015-06-20T12:16:13Z</time>
      </trkpt>
      <trkpt lat="41.9073" lon="9.17718">
        <ele>1564.2</ele>
        <time>2015-06-20T12:16:15Z</time>
      </trkpt>
      <trkpt lat="41.90733" lon="9.1772">
        <ele>1564.4</ele>
        <time>2015-06-20T12:16:18Z</time>
      </trkpt>
      <trkpt lat="41.90733" lon="9.1772">
        <ele>1564.6</ele>
        <time>2015-06-20T12:16:19Z</time>
      </trkpt>
      <trkpt lat="41.90739" lon="9.17723">
        <ele>1565.4</ele>
        <time>2015-06-20T12:16:25Z</time>
      </trkpt>
      <trkpt lat="41.9074" lon="9.17724">
        <ele>1565.6</ele>
        <time>2015-06-20T12:16:27Z</time>
      </trkpt>
      <trkpt lat="41.90742" lon="9.17725">
        <ele>1565.6</ele>
        <time>2015-06-20T12:16:29Z</time>
      </trkpt>
      <trkpt lat="41.90742" lon="9.17729">
        <ele>1566.4</ele>
        <time>2015-06-20T12:16:34Z</time>
      </trkpt>
      <trkpt lat="41.90748" lon="9.17732">
        <ele>1568.4</ele>
        <time>2015-06-20T12:16:45Z</time>
      </trkpt>
      <trkpt lat="41.90755" lon="9.17731">
        <ele>1568.6</ele>
        <time>2015-06-20T12:16:50Z</time>
      </trkpt>
      <trkpt lat="41.90757" lon="9.17734">
        <ele>1569.2</ele>
        <time>2015-06-20T12:16:55Z</time>
      </trkpt>
      <trkpt lat="41.90759" lon="9.17734">
        <ele>1569.8</ele>
        <time>2015-06-20T12:17:00Z</time>
      </trkpt>
      <trkpt lat="41.90764" lon="9.17736">
        <ele>1571.2</ele>
        <time>2015-06-20T12:17:07Z</time>
      </trkpt>
      <trkpt lat="41.90769" lon="9.17737">
        <ele>1572.4</ele>
        <time>2015-06-20T12:17:22Z</time>
      </trkpt>
      <trkpt lat="41.9077" lon="9.17737">
        <ele>1573.2</ele>
        <time>2015-06-20T12:17:27Z</time>
      </trkpt>
      <trkpt lat="41.9078" lon="9.17742">
        <ele>1575</ele>
        <time>2015-06-20T12:17:41Z</time>
      </trkpt>
      <trkpt lat="41.90787" lon="9.17743">
        <ele>1575.8</ele>
        <time>2015-06-20T12:17:46Z</time>
      </trkpt>
      <trkpt lat="41.90787" lon="9.17743">
        <ele>1575.8</ele>
        <time>2015-06-20T12:17:47Z</time>
      </trkpt>
      <trkpt lat="41.90793" lon="9.17748">
        <ele>1576.8</ele>
        <time>2015-06-20T12:17:54Z</time>
      </trkpt>
      <trkpt lat="41.90807" lon="9.17758">
        <ele>1578</ele>
        <time>2015-06-20T12:18:14Z</time>
      </trkpt>
      <trkpt lat="41.90809" lon="9.17761">
        <ele>1578.4</ele>
        <time>2015-06-20T12:18:19Z</time>
      </trkpt>
      <trkpt lat="41.90813" lon="9.1777">
        <ele>1579.6</ele>
        <time>2015-06-20T12:18:31Z</time>
      </trkpt>
      <trkpt lat="41.90814" lon="9.17771">
        <ele>1579.6</ele>
        <time>2015-06-20T12:18:32Z</time>
      </trkpt>
      <trkpt lat="41.90816" lon="9.17773">
        <ele>1580</ele>
        <time>2015-06-20T12:18:34Z</time>
      </trkpt>
      <trkpt lat="41.90823" lon="9.1778">
        <ele>1581</ele>
        <time>2015-06-20T12:18:45Z</time>
      </trkpt>
      <trkpt lat="41.90823" lon="9.17781">
        <ele>1581.2</ele>
        <time>2015-06-20T12:18:46Z</time>
      </trkpt>
      <trkpt lat="41.90825" lon="9.17783">
        <ele>1581.2</ele>
        <time>2015-06-20T12:18:49Z</time>
      </trkpt>
      <trkpt lat="41.90826" lon="9.17784">
        <ele>1581.4</ele>
        <time>2015-06-20T12:18:51Z</time>
      </trkpt>
      <trkpt lat="41.90827" lon="9.17785">
        <ele>1581.4</ele>
        <time>2015-06-20T12:18:53Z</time>
      </trkpt>
      <trkpt lat="41.90829" lon="9.17787">
        <ele>1581.8</ele>
        <time>2015-06-20T12:18:57Z</time>
      </trkpt>
      <trkpt lat="41.90831" lon="9.17786">
        <ele>1582.4</ele>
        <time>2015-06-20T12:19:02Z</time>
      </trkpt>
      <trkpt lat="41.90829" lon="9.17782">
        <ele>1584</ele>
        <time>2015-06-20T12:19:10Z</time>
      </trkpt>
      <trkpt lat="41.90827" lon="9.17764">
        <ele>1585.4</ele>
        <time>2015-06-20T12:19:24Z</time>
      </trkpt>
      <trkpt lat="41.90827" lon="9.17762">
        <ele>1585.4</ele>
        <time>2015-06-20T12:19:25Z</time>
      </trkpt>
      <trkpt lat="41.90827" lon="9.17756">
        <ele>1585.8</ele>
        <time>2015-06-20T12:19:30Z</time>
      </trkpt>
      <trkpt lat="41.9083" lon="9.17754">
        <ele>1586</ele>
        <time>2015-06-20T12:19:34Z</time>
      </trkpt>
      <trkpt lat="41.9083" lon="9.17753">
        <ele>1586.2</ele>
        <time>2015-06-20T12:19:36Z</time>
      </trkpt>
      <trkpt lat="41.90831" lon="9.17752">
        <ele>1586.2</ele>
        <time>2015-06-20T12:19:38Z</time>
      </trkpt>
      <trkpt lat="41.90843" lon="9.17743">
        <ele>1588</ele>
        <time>2015-06-20T12:21:29Z</time>
      </trkpt>
      <trkpt lat="41.90841" lon="9.17739">
        <ele>1588.8</ele>
        <time>2015-06-20T12:21:36Z</time>
      </trkpt>
      <trkpt lat="41.9084" lon="9.17737">
        <ele>1590.2</ele>
        <time>2015-06-20T12:21:44Z</time>
      </trkpt>
      <trkpt lat="41.90841" lon="9.17736">
        <ele>1590.8</ele>
        <time>2015-06-20T12:21:48Z</time>
      </trkpt>
      <trkpt lat="41.90844" lon="9.1773">
        <ele>1592.4</ele>
        <time>2015-06-20T12:21:55Z</time>
      </trkpt>
      <trkpt lat="41.90843" lon="9.17726">
        <ele>1593.8</ele>
        <time>2015-06-20T12:22:05Z</time>
      </trkpt>
      <trkpt lat="41.9085" lon="9.17722">
        <ele>1594.6</ele>
        <time>2015-06-20T12:22:11Z</time>
      </trkpt>
      <trkpt lat="41.90853" lon="9.1772">
        <ele>1595.4</ele>
        <time>2015-06-20T12:22:15Z</time>
      </trkpt>
      <trkpt lat="41.90854" lon="9.17718">
        <ele>1596.2</ele>
        <time>2015-06-20T12:22:20Z</time>
      </trkpt>
      <trkpt lat="41.90856" lon="9.17714">
        <ele>1596.8</ele>
        <time>2015-06-20T12:22:26Z</time>
      </trkpt>
      <trkpt lat="41.90853" lon="9.17705">
        <ele>1598.8</ele>
        <time>2015-06-20T12:22:38Z</time>
      </trkpt>
      <trkpt lat="41.90851" lon="9.17699">
        <ele>1599.4</ele>
        <time>2015-06-20T12:22:45Z</time>
      </trkpt>
      <trkpt lat="41.90853" lon="9.17692">
        <ele>1601</ele>
        <time>2015-06-20T12:22:58Z</time>
      </trkpt>
      <trkpt lat="41.90856" lon="9.17687">
        <ele>1602</ele>
        <time>2015-06-20T12:23:05Z</time>
      </trkpt>
      <trkpt lat="41.90857" lon="9.17682">
        <ele>1603.4</ele>
        <time>2015-06-20T12:23:13Z</time>
      </trkpt>
      <trkpt lat="41.90856" lon="9.1768">
        <ele>1604</ele>
        <time>2015-06-20T12:23:19Z</time>
      </trkpt>
      <trkpt lat="41.90854" lon="9.17675">
        <ele>1605.6</ele>
        <time>2015-06-20T12:23:30Z</time>
      </trkpt>
      <trkpt lat="41.90852" lon="9.17671">
        <ele>1607</ele>
        <time>2015-06-20T12:23:41Z</time>
      </trkpt>
      <trkpt lat="41.90857" lon="9.17666">
        <ele>1608.4</ele>
        <time>2015-06-20T12:23:52Z</time>
      </trkpt>
      <trkpt lat="41.90859" lon="9.1766">
        <ele>1609.4</ele>
        <time>2015-06-20T12:23:59Z</time>
      </trkpt>
      <trkpt lat="41.90863" lon="9.17655">
        <ele>1610</ele>
        <time>2015-06-20T12:24:04Z</time>
      </trkpt>
      <trkpt lat="41.90864" lon="9.1765">
        <ele>1611</ele>
        <time>2015-06-20T12:24:14Z</time>
      </trkpt>
      <trkpt lat="41.90868" lon="9.17644">
        <ele>1611.8</ele>
        <time>2015-06-20T12:24:22Z</time>
      </trkpt>
      <trkpt lat="41.9087" lon="9.17638">
        <ele>1613.4</ele>
        <time>2015-06-20T12:24:31Z</time>
      </trkpt>
      <trkpt lat="41.90876" lon="9.17629">
        <ele>1614.4</ele>
        <time>2015-06-20T12:24:44Z</time>
      </trkpt>
      <trkpt lat="41.90878" lon="9.17625">
        <ele>1614.8</ele>
        <time>2015-06-20T12:24:48Z</time>
      </trkpt>
      <trkpt lat="41.90879" lon="9.17619">
        <ele>1616.8</ele>
        <time>2015-06-20T12:24:58Z</time>
      </trkpt>
      <trkpt lat="41.90885" lon="9.17618">
        <ele>1618</ele>
        <time>2015-06-20T12:25:08Z</time>
      </trkpt>
      <trkpt lat="41.90889" lon="9.17614">
        <ele>1619.2</ele>
        <time>2015-06-20T12:25:17Z</time>
      </trkpt>
      <trkpt lat="41.90893" lon="9.17617">
        <ele>1620.2</ele>
        <time>2015-06-20T12:25:26Z</time>
      </trkpt>
      <trkpt lat="41.90899" lon="9.1762">
        <ele>1621.4</ele>
        <time>2015-06-20T12:25:36Z</time>
      </trkpt>
      <trkpt lat="41.909" lon="9.17621">
        <ele>1621.8</ele>
        <time>2015-06-20T12:25:38Z</time>
      </trkpt>
      <trkpt lat="41.90907" lon="9.17624">
        <ele>1623</ele>
        <time>2015-06-20T12:25:49Z</time>
      </trkpt>
      <trkpt lat="41.90909" lon="9.17624">
        <ele>1623</ele>
        <time>2015-06-20T12:25:51Z</time>
      </trkpt>
      <trkpt lat="41.90912" lon="9.17624">
        <ele>1623.2</ele>
        <time>2015-06-20T12:25:53Z</time>
      </trkpt>
      <trkpt lat="41.90929" lon="9.17618">
        <ele>1623.6</ele>
        <time>2015-06-20T12:26:14Z</time>
      </trkpt>
      <trkpt lat="41.90929" lon="9.17617">
        <ele>1623.8</ele>
        <time>2015-06-20T12:26:15Z</time>
      </trkpt>
      <trkpt lat="41.9093" lon="9.17616">
        <ele>1623.6</ele>
        <time>2015-06-20T12:26:16Z</time>
      </trkpt>
      <trkpt lat="41.90932" lon="9.17613">
        <ele>1624</ele>
        <time>2015-06-20T12:26:20Z</time>
      </trkpt>
      <trkpt lat="41.90933" lon="9.17611">
        <ele>1624</ele>
        <time>2015-06-20T12:26:22Z</time>
      </trkpt>
      <trkpt lat="41.90944" lon="9.17599">
        <ele>1624.6</ele>
        <time>2015-06-20T12:26:46Z</time>
      </trkpt>
      <trkpt lat="41.90945" lon="9.17598">
        <ele>1624.8</ele>
        <time>2015-06-20T12:26:48Z</time>
      </trkpt>
      <trkpt lat="41.90947" lon="9.17597">
        <ele>1624.8</ele>
        <time>2015-06-20T12:26:50Z</time>
      </trkpt>
      <trkpt lat="41.90954" lon="9.17593">
        <ele>1625</ele>
        <time>2015-06-20T12:26:54Z</time>
      </trkpt>
      <trkpt lat="41.90965" lon="9.17589">
        <ele>1625.8</ele>
        <time>2015-06-20T12:27:02Z</time>
      </trkpt>
      <trkpt lat="41.90968" lon="9.17578">
        <ele>1626.2</ele>
        <time>2015-06-20T12:27:13Z</time>
      </trkpt>
      <trkpt lat="41.90973" lon="9.17566">
        <ele>1627.2</ele>
        <time>2015-06-20T12:27:55Z</time>
      </trkpt>
      <trkpt lat="41.90979" lon="9.17563">
        <ele>1628</ele>
        <time>2015-06-20T12:28:03Z</time>
      </trkpt>
      <trkpt lat="41.90981" lon="9.17562">
        <ele>1628.4</ele>
        <time>2015-06-20T12:28:05Z</time>
      </trkpt>
      <trkpt lat="41.90985" lon="9.1756">
        <ele>1628.4</ele>
        <time>2015-06-20T12:28:07Z</time>
      </trkpt>
      <trkpt lat="41.9099" lon="9.17556">
        <ele>1629</ele>
        <time>2015-06-20T12:28:12Z</time>
      </trkpt>
      <trkpt lat="41.90993" lon="9.17554">
        <ele>1629.4</ele>
        <time>2015-06-20T12:28:14Z</time>
      </trkpt>
      <trkpt lat="41.90994" lon="9.17553">
        <ele>1629.8</ele>
        <time>2015-06-20T12:28:16Z</time>
      </trkpt>
      <trkpt lat="41.90998" lon="9.17554">
        <ele>1630.6</ele>
        <time>2015-06-20T12:28:25Z</time>
      </trkpt>
      <trkpt lat="41.91001" lon="9.17551">
        <ele>1631.8</ele>
        <time>2015-06-20T12:28:34Z</time>
      </trkpt>
      <trkpt lat="41.91006" lon="9.17545">
        <ele>1633.4</ele>
        <time>2015-06-20T12:28:47Z</time>
      </trkpt>
      <trkpt lat="41.91012" lon="9.1754">
        <ele>1633.6</ele>
        <time>2015-06-20T12:28:54Z</time>
      </trkpt>
      <trkpt lat="41.91016" lon="9.17536">
        <ele>1633.8</ele>
        <time>2015-06-20T12:28:58Z</time>
      </trkpt>
      <trkpt lat="41.91021" lon="9.17531">
        <ele>1634</ele>
        <time>2015-06-20T12:29:03Z</time>
      </trkpt>
      <trkpt lat="41.91025" lon="9.17527">
        <ele>1634.4</ele>
        <time>2015-06-20T12:29:07Z</time>
      </trkpt>
      <trkpt lat="41.91027" lon="9.17525">
        <ele>1634.6</ele>
        <time>2015-06-20T12:29:10Z</time>
      </trkpt>
      <trkpt lat="41.91027" lon="9.17522">
        <ele>1635</ele>
        <time>2015-06-20T12:29:14Z</time>
      </trkpt>
      <trkpt lat="41.91027" lon="9.17521">
        <ele>1635.2</ele>
        <time>2015-06-20T12:29:15Z</time>
      </trkpt>
      <trkpt lat="41.91026" lon="9.17524">
        <ele>1636.6</ele>
        <time>2015-06-20T12:29:30Z</time>
      </trkpt>
      <trkpt lat="41.91027" lon="9.17524">
        <ele>1636.8</ele>
        <time>2015-06-20T12:29:34Z</time>
      </trkpt>
      <trkpt lat="41.91033" lon="9.17522">
        <ele>1638.8</ele>
        <time>2015-06-20T12:29:43Z</time>
      </trkpt>
      <trkpt lat="41.91033" lon="9.17522">
        <ele>1639</ele>
        <time>2015-06-20T12:29:44Z</time>
      </trkpt>
      <trkpt lat="41.91034" lon="9.17525">
        <ele>1639.4</ele>
        <time>2015-06-20T12:30:39Z</time>
      </trkpt>
      <trkpt lat="41.91033" lon="9.17528">
        <ele>1638.8</ele>
        <time>2015-06-20T12:30:46Z</time>
      </trkpt>
      <trkpt lat="41.91033" lon="9.17536">
        <ele>1638</ele>
        <time>2015-06-20T12:30:53Z</time>
      </trkpt>
      <trkpt lat="41.91033" lon="9.17539">
        <ele>1637.8</ele>
        <time>2015-06-20T12:30:55Z</time>
      </trkpt>
      <trkpt lat="41.91033" lon="9.17543">
        <ele>1637.2</ele>
        <time>2015-06-20T12:30:59Z</time>
      </trkpt>
      <trkpt lat="41.91036" lon="9.17557">
        <ele>1636.4</ele>
        <time>2015-06-20T12:31:12Z</time>
      </trkpt>
      <trkpt lat="41.91041" lon="9.17563">
        <ele>1636.4</ele>
        <time>2015-06-20T12:31:27Z</time>
      </trkpt>
      <trkpt lat="41.91045" lon="9.17563">
        <ele>1637.2</ele>
        <time>2015-06-20T12:31:34Z</time>
      </trkpt>
      <trkpt lat="41.91048" lon="9.17562">
        <ele>1638</ele>
        <time>2015-06-20T12:31:39Z</time>
      </trkpt>
      <trkpt lat="41.91052" lon="9.17562">
        <ele>1639.2</ele>
        <time>2015-06-20T12:31:44Z</time>
      </trkpt>
      <trkpt lat="41.91055" lon="9.17564">
        <ele>1640</ele>
        <time>2015-06-20T12:31:49Z</time>
      </trkpt>
      <trkpt lat="41.91055" lon="9.17568">
        <ele>1641</ele>
        <time>2015-06-20T12:31:55Z</time>
      </trkpt>
      <trkpt lat="41.91055" lon="9.17572">
        <ele>1642.4</ele>
        <time>2015-06-20T12:32:04Z</time>
      </trkpt>
      <trkpt lat="41.91063" lon="9.17579">
        <ele>1643.6</ele>
        <time>2015-06-20T12:32:15Z</time>
      </trkpt>
      <trkpt lat="41.91068" lon="9.17583">
        <ele>1644.6</ele>
        <time>2015-06-20T12:32:23Z</time>
      </trkpt>
      <trkpt lat="41.91071" lon="9.17587">
        <ele>1646.2</ele>
        <time>2015-06-20T12:32:35Z</time>
      </trkpt>
      <trkpt lat="41.91072" lon="9.17591">
        <ele>1647</ele>
        <time>2015-06-20T12:32:43Z</time>
      </trkpt>
      <trkpt lat="41.91075" lon="9.17593">
        <ele>1647.6</ele>
        <time>2015-06-20T12:32:49Z</time>
      </trkpt>
      <trkpt lat="41.9108" lon="9.176">
        <ele>1650</ele>
        <time>2015-06-20T12:33:02Z</time>
      </trkpt>
      <trkpt lat="41.91081" lon="9.17602">
        <ele>1650.8</ele>
        <time>2015-06-20T12:33:09Z</time>
      </trkpt>
      <trkpt lat="41.91082" lon="9.17605">
        <ele>1652</ele>
        <time>2015-06-20T12:33:19Z</time>
      </trkpt>
      <trkpt lat="41.91082" lon="9.17608">
        <ele>1652.8</ele>
        <time>2015-06-20T12:33:25Z</time>
      </trkpt>
      <trkpt lat="41.91086" lon="9.17616">
        <ele>1654.8</ele>
        <time>2015-06-20T12:33:39Z</time>
      </trkpt>
      <trkpt lat="41.9109" lon="9.17622">
        <ele>1656</ele>
        <time>2015-06-20T12:33:53Z</time>
      </trkpt>
      <trkpt lat="41.91089" lon="9.17628">
        <ele>1656.2</ele>
        <time>2015-06-20T12:33:58Z</time>
      </trkpt>
      <trkpt lat="41.9109" lon="9.17629">
        <ele>1656.6</ele>
        <time>2015-06-20T12:34:00Z</time>
      </trkpt>
      <trkpt lat="41.9109" lon="9.17632">
        <ele>1656.6</ele>
        <time>2015-06-20T12:34:02Z</time>
      </trkpt>
      <trkpt lat="41.9109" lon="9.17634">
        <ele>1656.8</ele>
        <time>2015-06-20T12:34:04Z</time>
      </trkpt>
      <trkpt lat="41.91092" lon="9.17636">
        <ele>1657</ele>
        <time>2015-06-20T12:34:06Z</time>
      </trkpt>
      <trkpt lat="41.91093" lon="9.17639">
        <ele>1657.4</ele>
        <time>2015-06-20T12:34:10Z</time>
      </trkpt>
      <trkpt lat="41.91092" lon="9.17642">
        <ele>1658.2</ele>
        <time>2015-06-20T12:34:15Z</time>
      </trkpt>
      <trkpt lat="41.91088" lon="9.17664">
        <ele>1659</ele>
        <time>2015-06-20T12:34:42Z</time>
      </trkpt>
      <trkpt lat="41.91088" lon="9.17666">
        <ele>1659.2</ele>
        <time>2015-06-20T12:34:43Z</time>
      </trkpt>
      <trkpt lat="41.91088" lon="9.17671">
        <ele>1659.6</ele>
        <time>2015-06-20T12:34:46Z</time>
      </trkpt>
      <trkpt lat="41.91084" lon="9.17682">
        <ele>1661</ele>
        <time>2015-06-20T12:34:55Z</time>
      </trkpt>
      <trkpt lat="41.9108" lon="9.17691">
        <ele>1661.8</ele>
        <time>2015-06-20T12:35:05Z</time>
      </trkpt>
      <trkpt lat="41.91079" lon="9.17694">
        <ele>1661.8</ele>
        <time>2015-06-20T12:35:07Z</time>
      </trkpt>
      <trkpt lat="41.91077" lon="9.17702">
        <ele>1662.2</ele>
        <time>2015-06-20T12:35:12Z</time>
      </trkpt>
      <trkpt lat="41.91071" lon="9.1774">
        <ele>1664</ele>
        <time>2015-06-20T12:35:38Z</time>
      </trkpt>
      <trkpt lat="41.91097" lon="9.17787">
        <ele>1664</ele>
        <time>2015-06-20T12:36:20Z</time>
      </trkpt>
      <trkpt lat="41.91137" lon="9.17814">
        <ele>1664.2</ele>
        <time>2015-06-20T12:36:58Z</time>
      </trkpt>
      <trkpt lat="41.91139" lon="9.17814">
        <ele>1664.6</ele>
        <time>2015-06-20T12:37:00Z</time>
      </trkpt>
      <trkpt lat="41.91141" lon="9.17815">
        <ele>1664.8</ele>
        <time>2015-06-20T12:37:03Z</time>
      </trkpt>
      <trkpt lat="41.91145" lon="9.17818">
        <ele>1665.6</ele>
        <time>2015-06-20T12:37:08Z</time>
      </trkpt>
      <trkpt lat="41.91159" lon="9.17831">
        <ele>1667.2</ele>
        <time>2015-06-20T12:37:29Z</time>
      </trkpt>
      <trkpt lat="41.91164" lon="9.17835">
        <ele>1667.4</ele>
        <time>2015-06-20T12:37:35Z</time>
      </trkpt>
      <trkpt lat="41.91165" lon="9.17836">
        <ele>1667.4</ele>
        <time>2015-06-20T12:37:37Z</time>
      </trkpt>
      <trkpt lat="41.91167" lon="9.17837">
        <ele>1667.6</ele>
        <time>2015-06-20T12:37:39Z</time>
      </trkpt>
      <trkpt lat="41.91169" lon="9.17839">
        <ele>1667.4</ele>
        <time>2015-06-20T12:37:41Z</time>
      </trkpt>
      <trkpt lat="41.91173" lon="9.17844">
        <ele>1667.6</ele>
        <time>2015-06-20T12:37:48Z</time>
      </trkpt>
      <trkpt lat="41.91175" lon="9.17848">
        <ele>1667.8</ele>
        <time>2015-06-20T12:37:53Z</time>
      </trkpt>
      <trkpt lat="41.91182" lon="9.17857">
        <ele>1669.2</ele>
        <time>2015-06-20T12:38:06Z</time>
      </trkpt>
      <trkpt lat="41.91185" lon="9.1786">
        <ele>1669.2</ele>
        <time>2015-06-20T12:38:09Z</time>
      </trkpt>
      <trkpt lat="41.9119" lon="9.17862">
        <ele>1669.8</ele>
        <time>2015-06-20T12:38:15Z</time>
      </trkpt>
      <trkpt lat="41.91192" lon="9.17863">
        <ele>1670.6</ele>
        <time>2015-06-20T12:38:19Z</time>
      </trkpt>
      <trkpt lat="41.91194" lon="9.17862">
        <ele>1670.8</ele>
        <time>2015-06-20T12:38:21Z</time>
      </trkpt>
      <trkpt lat="41.91195" lon="9.17862">
        <ele>1671</ele>
        <time>2015-06-20T12:38:23Z</time>
      </trkpt>
      <trkpt lat="41.91197" lon="9.17863">
        <ele>1671.2</ele>
        <time>2015-06-20T12:38:27Z</time>
      </trkpt>
      <trkpt lat="41.91197" lon="9.17865">
        <ele>1671.8</ele>
        <time>2015-06-20T12:38:32Z</time>
      </trkpt>
      <trkpt lat="41.912" lon="9.1787">
        <ele>1673.4</ele>
        <time>2015-06-20T12:38:44Z</time>
      </trkpt>
      <trkpt lat="41.91203" lon="9.17871">
        <ele>1674.2</ele>
        <time>2015-06-20T12:38:52Z</time>
      </trkpt>
      <trkpt lat="41.91206" lon="9.17874">
        <ele>1675.6</ele>
        <time>2015-06-20T12:39:05Z</time>
      </trkpt>
      <trkpt lat="41.91208" lon="9.17876">
        <ele>1676.6</ele>
        <time>2015-06-20T12:39:12Z</time>
      </trkpt>
      <trkpt lat="41.91211" lon="9.17882">
        <ele>1678</ele>
        <time>2015-06-20T12:39:37Z</time>
      </trkpt>
      <trkpt lat="41.91212" lon="9.17882">
        <ele>1678.6</ele>
        <time>2015-06-20T12:39:43Z</time>
      </trkpt>
      <trkpt lat="41.91214" lon="9.17883">
        <ele>1679.8</ele>
        <time>2015-06-20T12:39:51Z</time>
      </trkpt>
      <trkpt lat="41.91214" lon="9.17886">
        <ele>1681</ele>
        <time>2015-06-20T12:39:58Z</time>
      </trkpt>
      <trkpt lat="41.91215" lon="9.1789">
        <ele>1681.6</ele>
        <time>2015-06-20T12:40:03Z</time>
      </trkpt>
      <trkpt lat="41.91213" lon="9.17892">
        <ele>1681.6</ele>
        <time>2015-06-20T12:40:05Z</time>
      </trkpt>
      <trkpt lat="41.9122" lon="9.17895">
        <ele>1683.4</ele>
        <time>2015-06-20T12:40:15Z</time>
      </trkpt>
      <trkpt lat="41.9122" lon="9.17898">
        <ele>1684.4</ele>
        <time>2015-06-20T12:40:25Z</time>
      </trkpt>
      <trkpt lat="41.9122" lon="9.179">
        <ele>1686.2</ele>
        <time>2015-06-20T12:40:39Z</time>
      </trkpt>
      <trkpt lat="41.91221" lon="9.17902">
        <ele>1686.4</ele>
        <time>2015-06-20T12:40:43Z</time>
      </trkpt>
      <trkpt lat="41.91229" lon="9.17905">
        <ele>1688.2</ele>
        <time>2015-06-20T12:40:59Z</time>
      </trkpt>
      <trkpt lat="41.9123" lon="9.17905">
        <ele>1689.4</ele>
        <time>2015-06-20T12:41:10Z</time>
      </trkpt>
      <trkpt lat="41.9123" lon="9.17906">
        <ele>1690.2</ele>
        <time>2015-06-20T12:41:21Z</time>
      </trkpt>
      <trkpt lat="41.91232" lon="9.17909">
        <ele>1691.6</ele>
        <time>2015-06-20T12:41:31Z</time>
      </trkpt>
      <trkpt lat="41.91234" lon="9.17915">
        <ele>1692.6</ele>
        <time>2015-06-20T12:41:42Z</time>
      </trkpt>
      <trkpt lat="41.91241" lon="9.17918">
        <ele>1693.6</ele>
        <time>2015-06-20T12:41:49Z</time>
      </trkpt>
      <trkpt lat="41.91242" lon="9.17917">
        <ele>1693.6</ele>
        <time>2015-06-20T12:41:51Z</time>
      </trkpt>
      <trkpt lat="41.9125" lon="9.17916">
        <ele>1694.8</ele>
        <time>2015-06-20T12:42:02Z</time>
      </trkpt>
      <trkpt lat="41.91252" lon="9.17916">
        <ele>1695</ele>
        <time>2015-06-20T12:42:05Z</time>
      </trkpt>
      <trkpt lat="41.9125" lon="9.17921">
        <ele>1696</ele>
        <time>2015-06-20T12:42:14Z</time>
      </trkpt>
      <trkpt lat="41.9125" lon="9.17928">
        <ele>1697.6</ele>
        <time>2015-06-20T12:42:27Z</time>
      </trkpt>
      <trkpt lat="41.91253" lon="9.17931">
        <ele>1697.8</ele>
        <time>2015-06-20T12:42:31Z</time>
      </trkpt>
      <trkpt lat="41.91258" lon="9.17933">
        <ele>1699.6</ele>
        <time>2015-06-20T12:42:46Z</time>
      </trkpt>
      <trkpt lat="41.91259" lon="9.17933">
        <ele>1701</ele>
        <time>2015-06-20T12:42:59Z</time>
      </trkpt>
      <trkpt lat="41.9126" lon="9.17935">
        <ele>1701.8</ele>
        <time>2015-06-20T12:43:06Z</time>
      </trkpt>
      <trkpt lat="41.91261" lon="9.17938">
        <ele>1703</ele>
        <time>2015-06-20T12:43:16Z</time>
      </trkpt>
      <trkpt lat="41.91259" lon="9.17941">
        <ele>1704</ele>
        <time>2015-06-20T12:43:23Z</time>
      </trkpt>
      <trkpt lat="41.91258" lon="9.17949">
        <ele>1705.2</ele>
        <time>2015-06-20T12:43:33Z</time>
      </trkpt>
      <trkpt lat="41.91267" lon="9.17957">
        <ele>1706.6</ele>
        <time>2015-06-20T12:43:43Z</time>
      </trkpt>
      <trkpt lat="41.91269" lon="9.17956">
        <ele>1706.8</ele>
        <time>2015-06-20T12:43:45Z</time>
      </trkpt>
      <trkpt lat="41.9127" lon="9.17957">
        <ele>1707</ele>
        <time>2015-06-20T12:43:47Z</time>
      </trkpt>
      <trkpt lat="41.91272" lon="9.17961">
        <ele>1707.8</ele>
        <time>2015-06-20T12:43:57Z</time>
      </trkpt>
      <trkpt lat="41.91277" lon="9.17969">
        <ele>1709</ele>
        <time>2015-06-20T12:44:09Z</time>
      </trkpt>
      <trkpt lat="41.91281" lon="9.17972">
        <ele>1710</ele>
        <time>2015-06-20T12:44:18Z</time>
      </trkpt>
      <trkpt lat="41.9129" lon="9.1798">
        <ele>1711.8</ele>
        <time>2015-06-20T12:44:39Z</time>
      </trkpt>
      <trkpt lat="41.91293" lon="9.17989">
        <ele>1712.6</ele>
        <time>2015-06-20T12:44:50Z</time>
      </trkpt>
      <trkpt lat="41.91298" lon="9.17995">
        <ele>1713.8</ele>
        <time>2015-06-20T12:45:00Z</time>
      </trkpt>
      <trkpt lat="41.91304" lon="9.17996">
        <ele>1714.8</ele>
        <time>2015-06-20T12:45:07Z</time>
      </trkpt>
      <trkpt lat="41.91309" lon="9.18">
        <ele>1715.2</ele>
        <time>2015-06-20T12:45:17Z</time>
      </trkpt>
      <trkpt lat="41.91316" lon="9.18007">
        <ele>1716.2</ele>
        <time>2015-06-20T12:45:29Z</time>
      </trkpt>
      <trkpt lat="41.91319" lon="9.18011">
        <ele>1717.2</ele>
        <time>2015-06-20T12:45:37Z</time>
      </trkpt>
      <trkpt lat="41.91322" lon="9.18016">
        <ele>1718.2</ele>
        <time>2015-06-20T12:45:47Z</time>
      </trkpt>
      <trkpt lat="41.91331" lon="9.18021">
        <ele>1719.6</ele>
        <time>2015-06-20T12:45:56Z</time>
      </trkpt>
      <trkpt lat="41.91334" lon="9.18024">
        <ele>1721</ele>
        <time>2015-06-20T12:46:05Z</time>
      </trkpt>
      <trkpt lat="41.91339" lon="9.18026">
        <ele>1722</ele>
        <time>2015-06-20T12:46:12Z</time>
      </trkpt>
      <trkpt lat="41.91347" lon="9.18028">
        <ele>1723.6</ele>
        <time>2015-06-20T12:46:31Z</time>
      </trkpt>
      <trkpt lat="41.91356" lon="9.1803">
        <ele>1724.6</ele>
        <time>2015-06-20T12:46:46Z</time>
      </trkpt>
      <trkpt lat="41.91362" lon="9.18033">
        <ele>1725.2</ele>
        <time>2015-06-20T12:46:56Z</time>
      </trkpt>
      <trkpt lat="41.91368" lon="9.18035">
        <ele>1726.4</ele>
        <time>2015-06-20T12:47:07Z</time>
      </trkpt>
      <trkpt lat="41.91372" lon="9.1804">
        <ele>1727.8</ele>
        <time>2015-06-20T12:47:22Z</time>
      </trkpt>
      <trkpt lat="41.91373" lon="9.18042">
        <ele>1728.4</ele>
        <time>2015-06-20T12:47:26Z</time>
      </trkpt>
      <trkpt lat="41.9138" lon="9.18046">
        <ele>1729.8</ele>
        <time>2015-06-20T12:47:38Z</time>
      </trkpt>
      <trkpt lat="41.9138" lon="9.18047">
        <ele>1730</ele>
        <time>2015-06-20T12:47:40Z</time>
      </trkpt>
      <trkpt lat="41.91384" lon="9.1805">
        <ele>1731</ele>
        <time>2015-06-20T12:47:49Z</time>
      </trkpt>
      <trkpt lat="41.91389" lon="9.18052">
        <ele>1732</ele>
        <time>2015-06-20T12:47:57Z</time>
      </trkpt>
      <trkpt lat="41.91399" lon="9.1806">
        <ele>1733</ele>
        <time>2015-06-20T12:48:14Z</time>
      </trkpt>
      <trkpt lat="41.91429" lon="9.18081">
        <ele>1734.4</ele>
        <time>2015-06-20T12:49:04Z</time>
      </trkpt>
      <trkpt lat="41.91436" lon="9.18089">
        <ele>1735.2</ele>
        <time>2015-06-20T12:49:22Z</time>
      </trkpt>
      <trkpt lat="41.91441" lon="9.18094">
        <ele>1736.2</ele>
        <time>2015-06-20T12:49:38Z</time>
      </trkpt>
      <trkpt lat="41.91443" lon="9.18096">
        <ele>1737</ele>
        <time>2015-06-20T12:49:46Z</time>
      </trkpt>
      <trkpt lat="41.91446" lon="9.18098">
        <ele>1737.4</ele>
        <time>2015-06-20T12:49:49Z</time>
      </trkpt>
      <trkpt lat="41.91447" lon="9.18099">
        <ele>1737.6</ele>
        <time>2015-06-20T12:49:51Z</time>
      </trkpt>
      <trkpt lat="41.91449" lon="9.181">
        <ele>1738.4</ele>
        <time>2015-06-20T12:49:56Z</time>
      </trkpt>
      <trkpt lat="41.91451" lon="9.18104">
        <ele>1739.2</ele>
        <time>2015-06-20T12:50:08Z</time>
      </trkpt>
      <trkpt lat="41.91453" lon="9.18106">
        <ele>1740.8</ele>
        <time>2015-06-20T12:50:20Z</time>
      </trkpt>
      <trkpt lat="41.91456" lon="9.18108">
        <ele>1741.6</ele>
        <time>2015-06-20T12:50:31Z</time>
      </trkpt>
      <trkpt lat="41.91457" lon="9.1811">
        <ele>1742.8</ele>
        <time>2015-06-20T12:50:42Z</time>
      </trkpt>
      <trkpt lat="41.91455" lon="9.18111">
        <ele>1743.6</ele>
        <time>2015-06-20T12:50:49Z</time>
      </trkpt>
      <trkpt lat="41.91457" lon="9.18111">
        <ele>1745</ele>
        <time>2015-06-20T12:50:58Z</time>
      </trkpt>
      <trkpt lat="41.91461" lon="9.18114">
        <ele>1746</ele>
        <time>2015-06-20T12:51:12Z</time>
      </trkpt>
      <trkpt lat="41.91462" lon="9.1812">
        <ele>1746.8</ele>
        <time>2015-06-20T12:51:26Z</time>
      </trkpt>
      <trkpt lat="41.91461" lon="9.18122">
        <ele>1748.2</ele>
        <time>2015-06-20T12:51:39Z</time>
      </trkpt>
      <trkpt lat="41.91463" lon="9.18122">
        <ele>1748.4</ele>
        <time>2015-06-20T12:51:42Z</time>
      </trkpt>
      <trkpt lat="41.91462" lon="9.18122">
        <ele>1748.8</ele>
        <time>2015-06-20T12:51:44Z</time>
      </trkpt>
      <trkpt lat="41.91461" lon="9.18126">
        <ele>1749.6</ele>
        <time>2015-06-20T12:51:54Z</time>
      </trkpt>
      <trkpt lat="41.91463" lon="9.18127">
        <ele>1750.4</ele>
        <time>2015-06-20T12:52:01Z</time>
      </trkpt>
      <trkpt lat="41.91462" lon="9.18131">
        <ele>1751.8</ele>
        <time>2015-06-20T12:52:19Z</time>
      </trkpt>
      <trkpt lat="41.91462" lon="9.18131">
        <ele>1753</ele>
        <time>2015-06-20T12:52:25Z</time>
      </trkpt>
      <trkpt lat="41.91462" lon="9.18133">
        <ele>1754</ele>
        <time>2015-06-20T12:52:36Z</time>
      </trkpt>
      <trkpt lat="41.91462" lon="9.18137">
        <ele>1755.6</ele>
        <time>2015-06-20T12:52:48Z</time>
      </trkpt>
      <trkpt lat="41.91464" lon="9.18138">
        <ele>1756.4</ele>
        <time>2015-06-20T12:52:56Z</time>
      </trkpt>
      <trkpt lat="41.91465" lon="9.1814">
        <ele>1757.6</ele>
        <time>2015-06-20T12:53:03Z</time>
      </trkpt>
      <trkpt lat="41.9146" lon="9.18155">
        <ele>1759.2</ele>
        <time>2015-06-20T12:53:58Z</time>
      </trkpt>
      <trkpt lat="41.9146" lon="9.18158">
        <ele>1760</ele>
        <time>2015-06-20T12:54:10Z</time>
      </trkpt>
      <trkpt lat="41.91462" lon="9.18162">
        <ele>1761.4</ele>
        <time>2015-06-20T12:54:21Z</time>
      </trkpt>
      <trkpt lat="41.91462" lon="9.18162">
        <ele>1761.6</ele>
        <time>2015-06-20T12:54:23Z</time>
      </trkpt>
      <trkpt lat="41.91462" lon="9.18165">
        <ele>1762.2</ele>
        <time>2015-06-20T12:54:31Z</time>
      </trkpt>
      <trkpt lat="41.9146" lon="9.18171">
        <ele>1763.6</ele>
        <time>2015-06-20T12:54:42Z</time>
      </trkpt>
      <trkpt lat="41.91463" lon="9.18174">
        <ele>1763.8</ele>
        <time>2015-06-20T12:54:44Z</time>
      </trkpt>
      <trkpt lat="41.91464" lon="9.18174">
        <ele>1763.8</ele>
        <time>2015-06-20T12:54:45Z</time>
      </trkpt>
      <trkpt lat="41.91463" lon="9.18177">
        <ele>1764.6</ele>
        <time>2015-06-20T12:55:01Z</time>
      </trkpt>
      <trkpt lat="41.91463" lon="9.18182">
        <ele>1765.4</ele>
        <time>2015-06-20T12:55:12Z</time>
      </trkpt>
      <trkpt lat="41.91459" lon="9.18185">
        <ele>1767</ele>
        <time>2015-06-20T12:55:21Z</time>
      </trkpt>
      <trkpt lat="41.9146" lon="9.18188">
        <ele>1768</ele>
        <time>2015-06-20T12:55:29Z</time>
      </trkpt>
      <trkpt lat="41.91461" lon="9.18193">
        <ele>1769.2</ele>
        <time>2015-06-20T12:55:38Z</time>
      </trkpt>
      <trkpt lat="41.91466" lon="9.18198">
        <ele>1770</ele>
        <time>2015-06-20T12:55:45Z</time>
      </trkpt>
      <trkpt lat="41.91469" lon="9.18206">
        <ele>1770.4</ele>
        <time>2015-06-20T12:56:01Z</time>
      </trkpt>
      <trkpt lat="41.91472" lon="9.18208">
        <ele>1770.8</ele>
        <time>2015-06-20T12:56:05Z</time>
      </trkpt>
      <trkpt lat="41.91473" lon="9.18209">
        <ele>1771.2</ele>
        <time>2015-06-20T12:56:08Z</time>
      </trkpt>
      <trkpt lat="41.91478" lon="9.18214">
        <ele>1772.8</ele>
        <time>2015-06-20T12:56:21Z</time>
      </trkpt>
      <trkpt lat="41.91482" lon="9.18219">
        <ele>1774.4</ele>
        <time>2015-06-20T12:56:36Z</time>
      </trkpt>
      <trkpt lat="41.91483" lon="9.18225">
        <ele>1775.6</ele>
        <time>2015-06-20T12:56:50Z</time>
      </trkpt>
      <trkpt lat="41.91492" lon="9.1824">
        <ele>1777</ele>
        <time>2015-06-20T12:57:07Z</time>
      </trkpt>
      <trkpt lat="41.91492" lon="9.1824">
        <ele>1777</ele>
        <time>2015-06-20T12:57:08Z</time>
      </trkpt>
      <trkpt lat="41.91495" lon="9.18244">
        <ele>1777.2</ele>
        <time>2015-06-20T12:57:12Z</time>
      </trkpt>
      <trkpt lat="41.91499" lon="9.18246">
        <ele>1777.2</ele>
        <time>2015-06-20T12:57:15Z</time>
      </trkpt>
      <trkpt lat="41.91509" lon="9.18262">
        <ele>1778</ele>
        <time>2015-06-20T12:57:37Z</time>
      </trkpt>
      <trkpt lat="41.91514" lon="9.18272">
        <ele>1779</ele>
        <time>2015-06-20T12:57:48Z</time>
      </trkpt>
      <trkpt lat="41.91513" lon="9.18274">
        <ele>1779.6</ele>
        <time>2015-06-20T12:57:53Z</time>
      </trkpt>
      <trkpt lat="41.91514" lon="9.18276">
        <ele>1779.8</ele>
        <time>2015-06-20T12:57:55Z</time>
      </trkpt>
      <trkpt lat="41.91515" lon="9.18281">
        <ele>1781.2</ele>
        <time>2015-06-20T12:58:05Z</time>
      </trkpt>
      <trkpt lat="41.91516" lon="9.18283">
        <ele>1782</ele>
        <time>2015-06-20T12:58:10Z</time>
      </trkpt>
      <trkpt lat="41.91519" lon="9.18289">
        <ele>1782.8</ele>
        <time>2015-06-20T12:58:28Z</time>
      </trkpt>
      <trkpt lat="41.9152" lon="9.1829">
        <ele>1782.2</ele>
        <time>2015-06-20T12:58:35Z</time>
      </trkpt>
      <trkpt lat="41.91526" lon="9.18293">
        <ele>1781</ele>
        <time>2015-06-20T12:58:45Z</time>
      </trkpt>
      <trkpt lat="41.91528" lon="9.18296">
        <ele>1780.2</ele>
        <time>2015-06-20T12:58:53Z</time>
      </trkpt>
      <trkpt lat="41.91531" lon="9.18296">
        <ele>1779.8</ele>
        <time>2015-06-20T12:58:55Z</time>
      </trkpt>
      <trkpt lat="41.91531" lon="9.18296">
        <ele>1779.8</ele>
        <time>2015-06-20T12:58:57Z</time>
      </trkpt>
      <trkpt lat="41.91531" lon="9.18297">
        <ele>1779.4</ele>
        <time>2015-06-20T12:58:59Z</time>
      </trkpt>
      <trkpt lat="41.91537" lon="9.18297">
        <ele>1778.2</ele>
        <time>2015-06-20T12:59:06Z</time>
      </trkpt>
      <trkpt lat="41.91539" lon="9.18297">
        <ele>1778.2</ele>
        <time>2015-06-20T12:59:07Z</time>
      </trkpt>
      <trkpt lat="41.9154" lon="9.18297">
        <ele>1777.8</ele>
        <time>2015-06-20T12:59:10Z</time>
      </trkpt>
      <trkpt lat="41.91542" lon="9.18298">
        <ele>1777.4</ele>
        <time>2015-06-20T12:59:12Z</time>
      </trkpt>
      <trkpt lat="41.91542" lon="9.18301">
        <ele>1777.2</ele>
        <time>2015-06-20T12:59:14Z</time>
      </trkpt>
      <trkpt lat="41.91543" lon="9.18305">
        <ele>1776.2</ele>
        <time>2015-06-20T12:59:19Z</time>
      </trkpt>
      <trkpt lat="41.91547" lon="9.18306">
        <ele>1775.2</ele>
        <time>2015-06-20T12:59:26Z</time>
      </trkpt>
      <trkpt lat="41.91548" lon="9.18313">
        <ele>1773.2</ele>
        <time>2015-06-20T12:59:36Z</time>
      </trkpt>
      <trkpt lat="41.91545" lon="9.18313">
        <ele>1773</ele>
        <time>2015-06-20T12:59:42Z</time>
      </trkpt>
      <trkpt lat="41.91545" lon="9.18319">
        <ele>1771.8</ele>
        <time>2015-06-20T12:59:48Z</time>
      </trkpt>
      <trkpt lat="41.91546" lon="9.1832">
        <ele>1771.8</ele>
        <time>2015-06-20T12:59:50Z</time>
      </trkpt>
      <trkpt lat="41.91562" lon="9.18348">
        <ele>1770.2</ele>
        <time>2015-06-20T13:00:30Z</time>
      </trkpt>
      <trkpt lat="41.91561" lon="9.18351">
        <ele>1770.2</ele>
        <time>2015-06-20T13:00:31Z</time>
      </trkpt>
      <trkpt lat="41.91573" lon="9.18377">
        <ele>1769</ele>
        <time>2015-06-20T13:00:55Z</time>
      </trkpt>
      <trkpt lat="41.9158" lon="9.18383">
        <ele>1768</ele>
        <time>2015-06-20T13:01:08Z</time>
      </trkpt>
      <trkpt lat="41.91583" lon="9.18388">
        <ele>1767.2</ele>
        <time>2015-06-20T13:01:16Z</time>
      </trkpt>
      <trkpt lat="41.91585" lon="9.18391">
        <ele>1766.6</ele>
        <time>2015-06-20T13:01:21Z</time>
      </trkpt>
      <trkpt lat="41.91592" lon="9.18394">
        <ele>1765.2</ele>
        <time>2015-06-20T13:01:28Z</time>
      </trkpt>
      <trkpt lat="41.91595" lon="9.18395">
        <ele>1764.8</ele>
        <time>2015-06-20T13:01:31Z</time>
      </trkpt>
      <trkpt lat="41.91613" lon="9.18403">
        <ele>1764.2</ele>
        <time>2015-06-20T13:01:57Z</time>
      </trkpt>
      <trkpt lat="41.91614" lon="9.18405">
        <ele>1765.2</ele>
        <time>2015-06-20T13:02:03Z</time>
      </trkpt>
      <trkpt lat="41.91642" lon="9.18421">
        <ele>1766.2</ele>
        <time>2015-06-20T13:02:43Z</time>
      </trkpt>
      <trkpt lat="41.91646" lon="9.18424">
        <ele>1767</ele>
        <time>2015-06-20T13:02:56Z</time>
      </trkpt>
      <trkpt lat="41.91647" lon="9.18425">
        <ele>1767.6</ele>
        <time>2015-06-20T13:02:59Z</time>
      </trkpt>
      <trkpt lat="41.91663" lon="9.18423">
        <ele>1769.2</ele>
        <time>2015-06-20T13:03:24Z</time>
      </trkpt>
      <trkpt lat="41.9167" lon="9.18427">
        <ele>1770.2</ele>
        <time>2015-06-20T13:03:43Z</time>
      </trkpt>
      <trkpt lat="41.91674" lon="9.18429">
        <ele>1770.8</ele>
        <time>2015-06-20T13:03:48Z</time>
      </trkpt>
      <trkpt lat="41.91691" lon="9.18439">
        <ele>1772</ele>
        <time>2015-06-20T13:04:10Z</time>
      </trkpt>
      <trkpt lat="41.91698" lon="9.18444">
        <ele>1773</ele>
        <time>2015-06-20T13:04:19Z</time>
      </trkpt>
      <trkpt lat="41.91704" lon="9.18448">
        <ele>1774</ele>
        <time>2015-06-20T13:04:31Z</time>
      </trkpt>
      <trkpt lat="41.91709" lon="9.1845">
        <ele>1774.8</ele>
        <time>2015-06-20T13:04:39Z</time>
      </trkpt>
      <trkpt lat="41.91726" lon="9.18448">
        <ele>1776.2</ele>
        <time>2015-06-20T13:05:00Z</time>
      </trkpt>
      <trkpt lat="41.9174" lon="9.1845">
        <ele>1777.4</ele>
        <time>2015-06-20T13:05:16Z</time>
      </trkpt>
      <trkpt lat="41.91756" lon="9.18451">
        <ele>1777.8</ele>
        <time>2015-06-20T13:05:39Z</time>
      </trkpt>
      <trkpt lat="41.93514" lon="9.20587">
        <ele>1715.6</ele>
        <time>2015-06-20T14:49:49Z</time>
      </trkpt>
      <trkpt lat="41.93514" lon="9.20588">
        <ele>1715.8</ele>
        <time>2015-06-20T14:49:52Z</time>
      </trkpt>
    </trkseg>
  </trk>
  <trk>
    <name><![CDATA[GR20 Usciolu - Prati]]></name>
    <trkseg>
      <trkpt lat="41.93525" lon="9.2065">
        <ele>276.4</ele>
        <time>2015-06-21T04:19:21Z</time>
      </trkpt>
      <trkpt lat="41.93525" lon="9.2065">
        <ele>269</ele>
        <time>2015-06-21T04:19:22Z</time>
      </trkpt>
      <trkpt lat="41.93525" lon="9.2065">
        <ele>262</ele>
        <time>2015-06-21T04:19:23Z</time>
      </trkpt>
      <trkpt lat="41.93525" lon="9.2065">
        <ele>255</ele>
        <time>2015-06-21T04:19:24Z</time>
      </trkpt>
      <trkpt lat="41.93525" lon="9.2065">
        <ele>251.6</ele>
        <time>2015-06-21T04:19:25Z</time>
      </trkpt>
      <trkpt lat="41.93525" lon="9.2065">
        <ele>250</ele>
        <time>2015-06-21T04:19:26Z</time>
      </trkpt>
      <trkpt lat="41.93526" lon="9.2065">
        <ele>253.6</ele>
        <time>2015-06-21T04:19:27Z</time>
      </trkpt>
      <trkpt lat="41.93526" lon="9.2065">
        <ele>272</ele>
        <time>2015-06-21T04:19:28Z</time>
      </trkpt>
      <trkpt lat="41.93527" lon="9.2065">
        <ele>304.8</ele>
        <time>2015-06-21T04:19:29Z</time>
      </trkpt>
      <trkpt lat="41.93527" lon="9.2065">
        <ele>344</ele>
        <time>2015-06-21T04:19:30Z</time>
      </trkpt>
      <trkpt lat="41.93528" lon="9.2065">
        <ele>385.6</ele>
        <time>2015-06-21T04:19:31Z</time>
      </trkpt>
      <trkpt lat="41.93529" lon="9.20649">
        <ele>427.8</ele>
        <time>2015-06-21T04:19:32Z</time>
      </trkpt>
      <trkpt lat="41.9353" lon="9.20647">
        <ele>469.6</ele>
        <time>2015-06-21T04:19:33Z</time>
      </trkpt>
      <trkpt lat="41.9353" lon="9.20646">
        <ele>510.6</ele>
        <time>2015-06-21T04:19:34Z</time>
      </trkpt>
      <trkpt lat="41.93531" lon="9.20645">
        <ele>550.6</ele>
        <time>2015-06-21T04:19:35Z</time>
      </trkpt>
      <trkpt lat="41.93532" lon="9.20644">
        <ele>589.4</ele>
        <time>2015-06-21T04:19:36Z</time>
      </trkpt>
      <trkpt lat="41.93532" lon="9.20645">
        <ele>627</ele>
        <time>2015-06-21T04:19:37Z</time>
      </trkpt>
      <trkpt lat="41.93532" lon="9.20645">
        <ele>663.4</ele>
        <time>2015-06-21T04:19:38Z</time>
      </trkpt>
      <trkpt lat="41.93532" lon="9.20646">
        <ele>699</ele>
        <time>2015-06-21T04:19:39Z</time>
      </trkpt>
      <trkpt lat="41.93533" lon="9.20647">
        <ele>734</ele>
        <time>2015-06-21T04:19:40Z</time>
      </trkpt>
      <trkpt lat="41.93533" lon="9.20648">
        <ele>767.8</ele>
        <time>2015-06-21T04:19:41Z</time>
      </trkpt>
      <trkpt lat="41.93533" lon="9.20649">
        <ele>800.6</ele>
        <time>2015-06-21T04:19:42Z</time>
      </trkpt>
      <trkpt lat="41.93533" lon="9.20649">
        <ele>832.4</ele>
        <time>2015-06-21T04:19:43Z</time>
      </trkpt>
      <trkpt lat="41.93533" lon="9.2065">
        <ele>863</ele>
        <time>2015-06-21T04:19:44Z</time>
      </trkpt>
      <trkpt lat="41.93533" lon="9.20651">
        <ele>892.8</ele>
        <time>2015-06-21T04:19:45Z</time>
      </trkpt>
      <trkpt lat="41.93533" lon="9.20652">
        <ele>921.6</ele>
        <time>2015-06-21T04:19:46Z</time>
      </trkpt>
      <trkpt lat="41.93533" lon="9.20652">
        <ele>949.4</ele>
        <time>2015-06-21T04:19:47Z</time>
      </trkpt>
      <trkpt lat="41.93533" lon="9.20653">
        <ele>976.2</ele>
        <time>2015-06-21T04:19:48Z</time>
      </trkpt>
      <trkpt lat="41.93532" lon="9.20653">
        <ele>1002.2</ele>
        <time>2015-06-21T04:19:49Z</time>
      </trkpt>
      <trkpt lat="41.93532" lon="9.20654">
        <ele>1027.2</ele>
        <time>2015-06-21T04:19:50Z</time>
      </trkpt>
      <trkpt lat="41.93532" lon="9.20654">
        <ele>1051.6</ele>
        <time>2015-06-21T04:19:51Z</time>
      </trkpt>
      <trkpt lat="41.93532" lon="9.20655">
        <ele>1075</ele>
        <time>2015-06-21T04:19:52Z</time>
      </trkpt>
      <trkpt lat="41.93532" lon="9.20656">
        <ele>1097.6</ele>
        <time>2015-06-21T04:19:53Z</time>
      </trkpt>
      <trkpt lat="41.93532" lon="9.20656">
        <ele>1119.6</ele>
        <time>2015-06-21T04:19:54Z</time>
      </trkpt>
      <trkpt lat="41.93532" lon="9.20657">
        <ele>1140.8</ele>
        <time>2015-06-21T04:19:55Z</time>
      </trkpt>
      <trkpt lat="41.93533" lon="9.20657">
        <ele>1621.6</ele>
        <time>2015-06-21T04:19:56Z</time>
      </trkpt>
      <trkpt lat="41.93533" lon="9.20657">
        <ele>1621.8</ele>
        <time>2015-06-21T04:19:57Z</time>
      </trkpt>
      <trkpt lat="41.93533" lon="9.20658">
        <ele>1622</ele>
        <time>2015-06-21T04:19:58Z</time>
      </trkpt>
      <trkpt lat="41.93534" lon="9.20658">
        <ele>1622.2</ele>
        <time>2015-06-21T04:19:59Z</time>
      </trkpt>
      <trkpt lat="41.93534" lon="9.20658">
        <ele>1622.4</ele>
        <time>2015-06-21T04:20:00Z</time>
      </trkpt>
      <trkpt lat="41.93535" lon="9.20659">
        <ele>1622.4</ele>
        <time>2015-06-21T04:20:01Z</time>
      </trkpt>
      <trkpt lat="41.93535" lon="9.20659">
        <ele>1622.6</ele>
        <time>2015-06-21T04:20:02Z</time>
      </trkpt>
      <trkpt lat="41.93536" lon="9.2066">
        <ele>1622.6</ele>
        <time>2015-06-21T04:20:03Z</time>
      </trkpt>
      <trkpt lat="41.93536" lon="9.2066">
        <ele>1622.6</ele>
        <time>2015-06-21T04:20:04Z</time>
      </trkpt>
      <trkpt lat="41.93537" lon="9.20661">
        <ele>1622.8</ele>
        <time>2015-06-21T04:20:05Z</time>
      </trkpt>
      <trkpt lat="41.93537" lon="9.20661">
        <ele>1623</ele>
        <time>2015-06-21T04:20:06Z</time>
      </trkpt>
      <trkpt lat="41.93538" lon="9.20662">
        <ele>1624.2</ele>
        <time>2015-06-21T04:20:07Z</time>
      </trkpt>
      <trkpt lat="41.9354" lon="9.20665">
        <ele>1624.6</ele>
        <time>2015-06-21T04:20:11Z</time>
      </trkpt>
      <trkpt lat="41.93542" lon="9.20667">
        <ele>1625.4</ele>
        <time>2015-06-21T04:20:16Z</time>
      </trkpt>
      <trkpt lat="41.93543" lon="9.20668">
        <ele>1625.8</ele>
        <time>2015-06-21T04:20:19Z</time>
      </trkpt>
      <trkpt lat="41.93545" lon="9.20668">
        <ele>1626.4</ele>
        <time>2015-06-21T04:20:23Z</time>
      </trkpt>
      <trkpt lat="41.93547" lon="9.20668">
        <ele>1626.2</ele>
        <time>2015-06-21T04:20:27Z</time>
      </trkpt>
      <trkpt lat="41.93548" lon="9.2067">
        <ele>1626.4</ele>
        <time>2015-06-21T04:20:31Z</time>
      </trkpt>
      <trkpt lat="41.93547" lon="9.20672">
        <ele>1626.8</ele>
        <time>2015-06-21T04:20:35Z</time>
      </trkpt>
      <trkpt lat="41.93547" lon="9.20675">
        <ele>1627.2</ele>
        <time>2015-06-21T04:20:39Z</time>
      </trkpt>
      <trkpt lat="41.93547" lon="9.20678">
        <ele>1627.6</ele>
        <time>2015-06-21T04:20:42Z</time>
      </trkpt>
      <trkpt lat="41.93545" lon="9.2068">
        <ele>1628.4</ele>
        <time>2015-06-21T04:20:47Z</time>
      </trkpt>
      <trkpt lat="41.93544" lon="9.20683">
        <ele>1628.8</ele>
        <time>2015-06-21T04:20:51Z</time>
      </trkpt>
      <trkpt lat="41.93543" lon="9.20686">
        <ele>1629.2</ele>
        <time>2015-06-21T04:20:56Z</time>
      </trkpt>
      <trkpt lat="41.93543" lon="9.20687">
        <ele>1629.4</ele>
        <time>2015-06-21T04:21:00Z</time>
      </trkpt>
      <trkpt lat="41.93544" lon="9.20687">
        <ele>1629.8</ele>
        <time>2015-06-21T04:21:04Z</time>
      </trkpt>
      <trkpt lat="41.93545" lon="9.20689">
        <ele>1630.2</ele>
        <time>2015-06-21T04:21:08Z</time>
      </trkpt>
      <trkpt lat="41.93546" lon="9.2069">
        <ele>1630.8</ele>
        <time>2015-06-21T04:21:12Z</time>
      </trkpt>
      <trkpt lat="41.93547" lon="9.2069">
        <ele>1631</ele>
        <time>2015-06-21T04:21:16Z</time>
      </trkpt>
      <trkpt lat="41.93548" lon="9.20691">
        <ele>1631.4</ele>
        <time>2015-06-21T04:21:20Z</time>
      </trkpt>
      <trkpt lat="41.93548" lon="9.20692">
        <ele>1631.8</ele>
        <time>2015-06-21T04:21:24Z</time>
      </trkpt>
      <trkpt lat="41.93548" lon="9.20694">
        <ele>1632.2</ele>
        <time>2015-06-21T04:21:28Z</time>
      </trkpt>
      <trkpt lat="41.93549" lon="9.20694">
        <ele>1632.4</ele>
        <time>2015-06-21T04:21:31Z</time>
      </trkpt>
      <trkpt lat="41.9355" lon="9.20695">
        <ele>1633</ele>
        <time>2015-06-21T04:21:35Z</time>
      </trkpt>
      <trkpt lat="41.93551" lon="9.20696">
        <ele>1633.6</ele>
        <time>2015-06-21T04:21:39Z</time>
      </trkpt>
      <trkpt lat="41.93551" lon="9.20697">
        <ele>1633.8</ele>
        <time>2015-06-21T04:21:41Z</time>
      </trkpt>
      <trkpt lat="41.93552" lon="9.20698">
        <ele>1634</ele>
        <time>2015-06-21T04:21:43Z</time>
      </trkpt>
      <trkpt lat="41.93553" lon="9.20698">
        <ele>1634.6</ele>
        <time>2015-06-21T04:21:47Z</time>
      </trkpt>
      <trkpt lat="41.93553" lon="9.20697">
        <ele>1635</ele>
        <time>2015-06-21T04:21:50Z</time>
      </trkpt>
      <trkpt lat="41.93554" lon="9.20696">
        <ele>1635.4</ele>
        <time>2015-06-21T04:21:54Z</time>
      </trkpt>
      <trkpt lat="41.93555" lon="9.20695">
        <ele>1636</ele>
        <time>2015-06-21T04:21:58Z</time>
      </trkpt>
      <trkpt lat="41.93556" lon="9.20694">
        <ele>1636.4</ele>
        <time>2015-06-21T04:22:02Z</time>
      </trkpt>
      <trkpt lat="41.93558" lon="9.20694">
        <ele>1637</ele>
        <time>2015-06-21T04:22:07Z</time>
      </trkpt>
      <trkpt lat="41.93558" lon="9.20696">
        <ele>1637.4</ele>
        <time>2015-06-21T04:22:11Z</time>
      </trkpt>
      <trkpt lat="41.93559" lon="9.20697">
        <ele>1637.8</ele>
        <time>2015-06-21T04:22:15Z</time>
      </trkpt>
      <trkpt lat="41.9356" lon="9.20698">
        <ele>1638.4</ele>
        <time>2015-06-21T04:22:19Z</time>
      </trkpt>
      <trkpt lat="41.9356" lon="9.20696">
        <ele>1639</ele>
        <time>2015-06-21T04:22:24Z</time>
      </trkpt>
      <trkpt lat="41.93561" lon="9.20694">
        <ele>1639.2</ele>
        <time>2015-06-21T04:22:27Z</time>
      </trkpt>
      <trkpt lat="41.93563" lon="9.20694">
        <ele>1640</ele>
        <time>2015-06-21T04:22:32Z</time>
      </trkpt>
      <trkpt lat="41.93565" lon="9.20693">
        <ele>1640.4</ele>
        <time>2015-06-21T04:22:36Z</time>
      </trkpt>
      <trkpt lat="41.93566" lon="9.20696">
        <ele>1640.8</ele>
        <time>2015-06-21T04:22:42Z</time>
      </trkpt>
      <trkpt lat="41.93566" lon="9.20698">
        <ele>1641</ele>
        <time>2015-06-21T04:22:46Z</time>
      </trkpt>
      <trkpt lat="41.93566" lon="9.20699">
        <ele>1641.2</ele>
        <time>2015-06-21T04:22:50Z</time>
      </trkpt>
      <trkpt lat="41.93566" lon="9.20701">
        <ele>1641.6</ele>
        <time>2015-06-21T04:22:54Z</time>
      </trkpt>
      <trkpt lat="41.93566" lon="9.20702">
        <ele>1642</ele>
        <time>2015-06-21T04:22:58Z</time>
      </trkpt>
      <trkpt lat="41.93566" lon="9.20704">
        <ele>1642.4</ele>
        <time>2015-06-21T04:23:01Z</time>
      </trkpt>
      <trkpt lat="41.93566" lon="9.20706">
        <ele>1643.2</ele>
        <time>2015-06-21T04:23:06Z</time>
      </trkpt>
      <trkpt lat="41.93567" lon="9.20707">
        <ele>1643.6</ele>
        <time>2015-06-21T04:23:10Z</time>
      </trkpt>
      <trkpt lat="41.93569" lon="9.20708">
        <ele>1644</ele>
        <time>2015-06-21T04:23:14Z</time>
      </trkpt>
      <trkpt lat="41.9357" lon="9.20708">
        <ele>1644.4</ele>
        <time>2015-06-21T04:23:18Z</time>
      </trkpt>
      <trkpt lat="41.9357" lon="9.20707">
        <ele>1644.8</ele>
        <time>2015-06-21T04:23:21Z</time>
      </trkpt>
      <trkpt lat="41.93571" lon="9.20705">
        <ele>1645.6</ele>
        <time>2015-06-21T04:23:26Z</time>
      </trkpt>
      <trkpt lat="41.93572" lon="9.20703">
        <ele>1645.8</ele>
        <time>2015-06-21T04:23:30Z</time>
      </trkpt>
      <trkpt lat="41.93573" lon="9.20702">
        <ele>1646.2</ele>
        <time>2015-06-21T04:23:33Z</time>
      </trkpt>
      <trkpt lat="41.93574" lon="9.20702">
        <ele>1646.4</ele>
        <time>2015-06-21T04:23:34Z</time>
      </trkpt>
      <trkpt lat="41.93574" lon="9.20704">
        <ele>1646.8</ele>
        <time>2015-06-21T04:23:39Z</time>
      </trkpt>
      <trkpt lat="41.93574" lon="9.20705">
        <ele>1647.2</ele>
        <time>2015-06-21T04:23:43Z</time>
      </trkpt>
      <trkpt lat="41.93574" lon="9.20707">
        <ele>1647.4</ele>
        <time>2015-06-21T04:23:48Z</time>
      </trkpt>
      <trkpt lat="41.93576" lon="9.20705">
        <ele>1648</ele>
        <time>2015-06-21T04:23:53Z</time>
      </trkpt>
      <trkpt lat="41.93579" lon="9.20703">
        <ele>1648.2</ele>
        <time>2015-06-21T04:23:58Z</time>
      </trkpt>
      <trkpt lat="41.93581" lon="9.20702">
        <ele>1648.6</ele>
        <time>2015-06-21T04:24:02Z</time>
      </trkpt>
      <trkpt lat="41.93582" lon="9.207">
        <ele>1648.6</ele>
        <time>2015-06-21T04:24:06Z</time>
      </trkpt>
      <trkpt lat="41.93584" lon="9.20699">
        <ele>1649</ele>
        <time>2015-06-21T04:24:10Z</time>
      </trkpt>
      <trkpt lat="41.93585" lon="9.20699">
        <ele>1649.8</ele>
        <time>2015-06-21T04:24:14Z</time>
      </trkpt>
      <trkpt lat="41.93586" lon="9.20698">
        <ele>1650.2</ele>
        <time>2015-06-21T04:24:18Z</time>
      </trkpt>
      <trkpt lat="41.93588" lon="9.20698">
        <ele>1650.8</ele>
        <time>2015-06-21T04:24:23Z</time>
      </trkpt>
      <trkpt lat="41.93589" lon="9.20699">
        <ele>1651</ele>
        <time>2015-06-21T04:24:27Z</time>
      </trkpt>
      <trkpt lat="41.93589" lon="9.207">
        <ele>1651.4</ele>
        <time>2015-06-21T04:24:31Z</time>
      </trkpt>
      <trkpt lat="41.93589" lon="9.20702">
        <ele>1652</ele>
        <time>2015-06-21T04:24:36Z</time>
      </trkpt>
      <trkpt lat="41.93591" lon="9.20702">
        <ele>1652.4</ele>
        <time>2015-06-21T04:24:40Z</time>
      </trkpt>
      <trkpt lat="41.93592" lon="9.20702">
        <ele>1652.6</ele>
        <time>2015-06-21T04:24:43Z</time>
      </trkpt>
      <trkpt lat="41.93593" lon="9.20701">
        <ele>1653.2</ele>
        <time>2015-06-21T04:24:47Z</time>
      </trkpt>
      <trkpt lat="41.93595" lon="9.20701">
        <ele>1654</ele>
        <time>2015-06-21T04:24:52Z</time>
      </trkpt>
      <trkpt lat="41.93597" lon="9.20702">
        <ele>1654.4</ele>
        <time>2015-06-21T04:24:56Z</time>
      </trkpt>
      <trkpt lat="41.93598" lon="9.20703">
        <ele>1655</ele>
        <time>2015-06-21T04:25:01Z</time>
      </trkpt>
      <trkpt lat="41.93599" lon="9.20704">
        <ele>1655.2</ele>
        <time>2015-06-21T04:25:05Z</time>
      </trkpt>
      <trkpt lat="41.936" lon="9.20704">
        <ele>1655.8</ele>
        <time>2015-06-21T04:25:09Z</time>
      </trkpt>
      <trkpt lat="41.93601" lon="9.20704">
        <ele>1656.2</ele>
        <time>2015-06-21T04:25:14Z</time>
      </trkpt>
      <trkpt lat="41.93603" lon="9.20704">
        <ele>1656.4</ele>
        <time>2015-06-21T04:25:18Z</time>
      </trkpt>
      <trkpt lat="41.93605" lon="9.20704">
        <ele>1657</ele>
        <time>2015-06-21T04:25:23Z</time>
      </trkpt>
      <trkpt lat="41.93606" lon="9.20703">
        <ele>1657.4</ele>
        <time>2015-06-21T04:25:27Z</time>
      </trkpt>
      <trkpt lat="41.93606" lon="9.20706">
        <ele>1658</ele>
        <time>2015-06-21T04:25:32Z</time>
      </trkpt>
      <trkpt lat="41.93606" lon="9.20706">
        <ele>1658.4</ele>
        <time>2015-06-21T04:25:36Z</time>
      </trkpt>
      <trkpt lat="41.93606" lon="9.20706">
        <ele>1659</ele>
        <time>2015-06-21T04:25:40Z</time>
      </trkpt>
      <trkpt lat="41.93606" lon="9.20707">
        <ele>1659.6</ele>
        <time>2015-06-21T04:25:48Z</time>
      </trkpt>
      <trkpt lat="41.93605" lon="9.2071">
        <ele>1659.6</ele>
        <time>2015-06-21T04:25:54Z</time>
      </trkpt>
      <trkpt lat="41.93605" lon="9.20712">
        <ele>1659.8</ele>
        <time>2015-06-21T04:25:57Z</time>
      </trkpt>
      <trkpt lat="41.93605" lon="9.20712">
        <ele>1660</ele>
        <time>2015-06-21T04:26:01Z</time>
      </trkpt>
      <trkpt lat="41.93605" lon="9.20714">
        <ele>1660.8</ele>
        <time>2015-06-21T04:26:06Z</time>
      </trkpt>
      <trkpt lat="41.93605" lon="9.20716">
        <ele>1661.2</ele>
        <time>2015-06-21T04:26:10Z</time>
      </trkpt>
      <trkpt lat="41.93605" lon="9.20717">
        <ele>1661.2</ele>
        <time>2015-06-21T04:26:11Z</time>
      </trkpt>
      <trkpt lat="41.93605" lon="9.20717">
        <ele>1661.8</ele>
        <time>2015-06-21T04:26:14Z</time>
      </trkpt>
      <trkpt lat="41.93605" lon="9.20717">
        <ele>1662</ele>
        <time>2015-06-21T04:26:18Z</time>
      </trkpt>
      <trkpt lat="41.93608" lon="9.2072">
        <ele>1663</ele>
        <time>2015-06-21T04:26:26Z</time>
      </trkpt>
      <trkpt lat="41.93608" lon="9.2072">
        <ele>1663.2</ele>
        <time>2015-06-21T04:26:29Z</time>
      </trkpt>
      <trkpt lat="41.93608" lon="9.20722">
        <ele>1663.2</ele>
        <time>2015-06-21T04:26:33Z</time>
      </trkpt>
      <trkpt lat="41.93609" lon="9.20722">
        <ele>1664</ele>
        <time>2015-06-21T04:26:37Z</time>
      </trkpt>
      <trkpt lat="41.93608" lon="9.20722">
        <ele>1664.4</ele>
        <time>2015-06-21T04:26:42Z</time>
      </trkpt>
      <trkpt lat="41.93608" lon="9.20722">
        <ele>1665</ele>
        <time>2015-06-21T04:26:48Z</time>
      </trkpt>
      <trkpt lat="41.93603" lon="9.20724">
        <ele>1664.4</ele>
        <time>2015-06-21T04:27:03Z</time>
      </trkpt>
      <trkpt lat="41.93595" lon="9.20729">
        <ele>1662.4</ele>
        <time>2015-06-21T04:27:25Z</time>
      </trkpt>
      <trkpt lat="41.93596" lon="9.20731">
        <ele>1662</ele>
        <time>2015-06-21T04:27:33Z</time>
      </trkpt>
      <trkpt lat="41.93597" lon="9.20731">
        <ele>1662</ele>
        <time>2015-06-21T04:27:36Z</time>
      </trkpt>
      <trkpt lat="41.93599" lon="9.20733">
        <ele>1662.2</ele>
        <time>2015-06-21T04:27:40Z</time>
      </trkpt>
      <trkpt lat="41.936" lon="9.20736">
        <ele>1663</ele>
        <time>2015-06-21T04:27:44Z</time>
      </trkpt>
      <trkpt lat="41.93602" lon="9.20737">
        <ele>1663.4</ele>
        <time>2015-06-21T04:27:48Z</time>
      </trkpt>
      <trkpt lat="41.93604" lon="9.20737">
        <ele>1664.2</ele>
        <time>2015-06-21T04:27:53Z</time>
      </trkpt>
      <trkpt lat="41.93606" lon="9.20737">
        <ele>1664.8</ele>
        <time>2015-06-21T04:27:57Z</time>
      </trkpt>
      <trkpt lat="41.93607" lon="9.20738">
        <ele>1665.4</ele>
        <time>2015-06-21T04:28:01Z</time>
      </trkpt>
      <trkpt lat="41.93607" lon="9.20741">
        <ele>1666</ele>
        <time>2015-06-21T04:28:06Z</time>
      </trkpt>
      <trkpt lat="41.93608" lon="9.20743">
        <ele>1666.4</ele>
        <time>2015-06-21T04:28:10Z</time>
      </trkpt>
      <trkpt lat="41.93609" lon="9.20743">
        <ele>1667</ele>
        <time>2015-06-21T04:28:14Z</time>
      </trkpt>
      <trkpt lat="41.93609" lon="9.20744">
        <ele>1667.4</ele>
        <time>2015-06-21T04:28:18Z</time>
      </trkpt>
      <trkpt lat="41.9361" lon="9.20746">
        <ele>1668.2</ele>
        <time>2015-06-21T04:28:23Z</time>
      </trkpt>
      <trkpt lat="41.93611" lon="9.20745">
        <ele>1668.4</ele>
        <time>2015-06-21T04:28:27Z</time>
      </trkpt>
      <trkpt lat="41.93612" lon="9.20744">
        <ele>1668.8</ele>
        <time>2015-06-21T04:28:31Z</time>
      </trkpt>
      <trkpt lat="41.93613" lon="9.20745">
        <ele>1669.8</ele>
        <time>2015-06-21T04:28:36Z</time>
      </trkpt>
      <trkpt lat="41.93613" lon="9.20748">
        <ele>1670</ele>
        <time>2015-06-21T04:28:40Z</time>
      </trkpt>
      <trkpt lat="41.93614" lon="9.2075">
        <ele>1670.6</ele>
        <time>2015-06-21T04:28:44Z</time>
      </trkpt>
      <trkpt lat="41.93616" lon="9.20751">
        <ele>1670.8</ele>
        <time>2015-06-21T04:28:48Z</time>
      </trkpt>
      <trkpt lat="41.93619" lon="9.20752">
        <ele>1671.6</ele>
        <time>2015-06-21T04:28:53Z</time>
      </trkpt>
      <trkpt lat="41.9362" lon="9.20752">
        <ele>1672.2</ele>
        <time>2015-06-21T04:28:57Z</time>
      </trkpt>
      <trkpt lat="41.93622" lon="9.20753">
        <ele>1672.8</ele>
        <time>2015-06-21T04:29:01Z</time>
      </trkpt>
      <trkpt lat="41.93624" lon="9.20754">
        <ele>1673</ele>
        <time>2015-06-21T04:29:05Z</time>
      </trkpt>
      <trkpt lat="41.93625" lon="9.20756">
        <ele>1673.8</ele>
        <time>2015-06-21T04:29:09Z</time>
      </trkpt>
      <trkpt lat="41.93624" lon="9.20758">
        <ele>1674.4</ele>
        <time>2015-06-21T04:29:14Z</time>
      </trkpt>
      <trkpt lat="41.93624" lon="9.2076">
        <ele>1674.8</ele>
        <time>2015-06-21T04:29:18Z</time>
      </trkpt>
      <trkpt lat="41.93625" lon="9.20762">
        <ele>1675.4</ele>
        <time>2015-06-21T04:29:22Z</time>
      </trkpt>
      <trkpt lat="41.93626" lon="9.20765">
        <ele>1676</ele>
        <time>2015-06-21T04:29:27Z</time>
      </trkpt>
      <trkpt lat="41.93626" lon="9.20767">
        <ele>1676.4</ele>
        <time>2015-06-21T04:29:32Z</time>
      </trkpt>
      <trkpt lat="41.93627" lon="9.20766">
        <ele>1676.8</ele>
        <time>2015-06-21T04:29:35Z</time>
      </trkpt>
      <trkpt lat="41.93629" lon="9.20766">
        <ele>1677.2</ele>
        <time>2015-06-21T04:29:39Z</time>
      </trkpt>
      <trkpt lat="41.93631" lon="9.20769">
        <ele>1678.2</ele>
        <time>2015-06-21T04:29:45Z</time>
      </trkpt>
      <trkpt lat="41.93631" lon="9.2077">
        <ele>1678.8</ele>
        <time>2015-06-21T04:29:50Z</time>
      </trkpt>
      <trkpt lat="41.93632" lon="9.20771">
        <ele>1678.8</ele>
        <time>2015-06-21T04:29:53Z</time>
      </trkpt>
      <trkpt lat="41.93634" lon="9.20774">
        <ele>1680</ele>
        <time>2015-06-21T04:29:59Z</time>
      </trkpt>
      <trkpt lat="41.93635" lon="9.20775">
        <ele>1680.2</ele>
        <time>2015-06-21T04:30:03Z</time>
      </trkpt>
      <trkpt lat="41.93636" lon="9.20777">
        <ele>1680.6</ele>
        <time>2015-06-21T04:30:08Z</time>
      </trkpt>
      <trkpt lat="41.93638" lon="9.20779">
        <ele>1680.8</ele>
        <time>2015-06-21T04:30:12Z</time>
      </trkpt>
      <trkpt lat="41.93638" lon="9.2078">
        <ele>1681.4</ele>
        <time>2015-06-21T04:30:16Z</time>
      </trkpt>
      <trkpt lat="41.93639" lon="9.2078">
        <ele>1681.8</ele>
        <time>2015-06-21T04:30:20Z</time>
      </trkpt>
      <trkpt lat="41.9364" lon="9.20781">
        <ele>1682.6</ele>
        <time>2015-06-21T04:30:25Z</time>
      </trkpt>
      <trkpt lat="41.93642" lon="9.20781">
        <ele>1683.2</ele>
        <time>2015-06-21T04:30:29Z</time>
      </trkpt>
      <trkpt lat="41.93643" lon="9.20783">
        <ele>1683.8</ele>
        <time>2015-06-21T04:30:34Z</time>
      </trkpt>
      <trkpt lat="41.93644" lon="9.20785">
        <ele>1684.2</ele>
        <time>2015-06-21T04:30:38Z</time>
      </trkpt>
      <trkpt lat="41.93644" lon="9.20786">
        <ele>1684.8</ele>
        <time>2015-06-21T04:30:42Z</time>
      </trkpt>
      <trkpt lat="41.93646" lon="9.20785">
        <ele>1685.2</ele>
        <time>2015-06-21T04:30:46Z</time>
      </trkpt>
      <trkpt lat="41.93648" lon="9.20787">
        <ele>1686</ele>
        <time>2015-06-21T04:30:51Z</time>
      </trkpt>
      <trkpt lat="41.93648" lon="9.20789">
        <ele>1686.2</ele>
        <time>2015-06-21T04:30:55Z</time>
      </trkpt>
      <trkpt lat="41.93649" lon="9.20791">
        <ele>1687</ele>
        <time>2015-06-21T04:31:00Z</time>
      </trkpt>
      <trkpt lat="41.9365" lon="9.20795">
        <ele>1687.6</ele>
        <time>2015-06-21T04:31:06Z</time>
      </trkpt>
      <trkpt lat="41.93651" lon="9.20796">
        <ele>1688</ele>
        <time>2015-06-21T04:31:11Z</time>
      </trkpt>
      <trkpt lat="41.93652" lon="9.20798">
        <ele>1688</ele>
        <time>2015-06-21T04:31:14Z</time>
      </trkpt>
      <trkpt lat="41.93653" lon="9.208">
        <ele>1688.8</ele>
        <time>2015-06-21T04:31:18Z</time>
      </trkpt>
      <trkpt lat="41.93653" lon="9.20803">
        <ele>1689.6</ele>
        <time>2015-06-21T04:31:23Z</time>
      </trkpt>
      <trkpt lat="41.93654" lon="9.20806">
        <ele>1690</ele>
        <time>2015-06-21T04:31:28Z</time>
      </trkpt>
      <trkpt lat="41.93656" lon="9.20807">
        <ele>1690.6</ele>
        <time>2015-06-21T04:31:33Z</time>
      </trkpt>
      <trkpt lat="41.93658" lon="9.2081">
        <ele>1691</ele>
        <time>2015-06-21T04:31:38Z</time>
      </trkpt>
      <trkpt lat="41.93658" lon="9.20811">
        <ele>1691.6</ele>
        <time>2015-06-21T04:31:43Z</time>
      </trkpt>
      <trkpt lat="41.9366" lon="9.20813">
        <ele>1692</ele>
        <time>2015-06-21T04:31:48Z</time>
      </trkpt>
      <trkpt lat="41.93662" lon="9.20815">
        <ele>1692.4</ele>
        <time>2015-06-21T04:31:52Z</time>
      </trkpt>
      <trkpt lat="41.93661" lon="9.20817">
        <ele>1693</ele>
        <time>2015-06-21T04:31:56Z</time>
      </trkpt>
      <trkpt lat="41.93661" lon="9.20819">
        <ele>1693.8</ele>
        <time>2015-06-21T04:32:01Z</time>
      </trkpt>
      <trkpt lat="41.93661" lon="9.20822">
        <ele>1694.4</ele>
        <time>2015-06-21T04:32:07Z</time>
      </trkpt>
      <trkpt lat="41.93662" lon="9.20825">
        <ele>1694.8</ele>
        <time>2015-06-21T04:32:12Z</time>
      </trkpt>
      <trkpt lat="41.93662" lon="9.20828">
        <ele>1695.2</ele>
        <time>2015-06-21T04:32:17Z</time>
      </trkpt>
      <trkpt lat="41.93663" lon="9.2083">
        <ele>1695.2</ele>
        <time>2015-06-21T04:32:21Z</time>
      </trkpt>
      <trkpt lat="41.93664" lon="9.20833">
        <ele>1696</ele>
        <time>2015-06-21T04:32:26Z</time>
      </trkpt>
      <trkpt lat="41.93664" lon="9.20836">
        <ele>1696.6</ele>
        <time>2015-06-21T04:32:31Z</time>
      </trkpt>
      <trkpt lat="41.93663" lon="9.20839">
        <ele>1696.8</ele>
        <time>2015-06-21T04:32:36Z</time>
      </trkpt>
      <trkpt lat="41.93662" lon="9.20842">
        <ele>1697.4</ele>
        <time>2015-06-21T04:32:40Z</time>
      </trkpt>
      <trkpt lat="41.93662" lon="9.20843">
        <ele>1697.8</ele>
        <time>2015-06-21T04:32:42Z</time>
      </trkpt>
      <trkpt lat="41.93661" lon="9.20848">
        <ele>1698.2</ele>
        <time>2015-06-21T04:32:48Z</time>
      </trkpt>
      <trkpt lat="41.93662" lon="9.20852">
        <ele>1698.6</ele>
        <time>2015-06-21T04:32:53Z</time>
      </trkpt>
      <trkpt lat="41.93661" lon="9.20854">
        <ele>1699</ele>
        <time>2015-06-21T04:32:58Z</time>
      </trkpt>
      <trkpt lat="41.93661" lon="9.20857">
        <ele>1699.4</ele>
        <time>2015-06-21T04:33:03Z</time>
      </trkpt>
      <trkpt lat="41.93662" lon="9.2086">
        <ele>1700</ele>
        <time>2015-06-21T04:33:08Z</time>
      </trkpt>
      <trkpt lat="41.93662" lon="9.20863">
        <ele>1700.6</ele>
        <time>2015-06-21T04:33:14Z</time>
      </trkpt>
      <trkpt lat="41.93663" lon="9.20866">
        <ele>1700.8</ele>
        <time>2015-06-21T04:33:19Z</time>
      </trkpt>
      <trkpt lat="41.93664" lon="9.20869">
        <ele>1701</ele>
        <time>2015-06-21T04:33:23Z</time>
      </trkpt>
      <trkpt lat="41.93666" lon="9.20872">
        <ele>1701.8</ele>
        <time>2015-06-21T04:33:29Z</time>
      </trkpt>
      <trkpt lat="41.93667" lon="9.20874">
        <ele>1702.2</ele>
        <time>2015-06-21T04:33:33Z</time>
      </trkpt>
      <trkpt lat="41.93667" lon="9.20878">
        <ele>1702.8</ele>
        <time>2015-06-21T04:33:39Z</time>
      </trkpt>
      <trkpt lat="41.93667" lon="9.2088">
        <ele>1703</ele>
        <time>2015-06-21T04:33:44Z</time>
      </trkpt>
      <trkpt lat="41.93669" lon="9.20883">
        <ele>1703.8</ele>
        <time>2015-06-21T04:33:50Z</time>
      </trkpt>
      <trkpt lat="41.9367" lon="9.20886">
        <ele>1704</ele>
        <time>2015-06-21T04:33:55Z</time>
      </trkpt>
      <trkpt lat="41.93668" lon="9.2089">
        <ele>1704.8</ele>
        <time>2015-06-21T04:34:02Z</time>
      </trkpt>
      <trkpt lat="41.93666" lon="9.20895">
        <ele>1705</ele>
        <time>2015-06-21T04:34:09Z</time>
      </trkpt>
      <trkpt lat="41.93663" lon="9.20902">
        <ele>1705.4</ele>
        <time>2015-06-21T04:34:18Z</time>
      </trkpt>
      <trkpt lat="41.93659" lon="9.20906">
        <ele>1705.4</ele>
        <time>2015-06-21T04:34:25Z</time>
      </trkpt>
      <trkpt lat="41.93657" lon="9.20911">
        <ele>1705.6</ele>
        <time>2015-06-21T04:34:32Z</time>
      </trkpt>
      <trkpt lat="41.93657" lon="9.20914">
        <ele>1705.8</ele>
        <time>2015-06-21T04:34:36Z</time>
      </trkpt>
      <trkpt lat="41.93659" lon="9.20919">
        <ele>1706.4</ele>
        <time>2015-06-21T04:34:43Z</time>
      </trkpt>
      <trkpt lat="41.93659" lon="9.20922">
        <ele>1706.6</ele>
        <time>2015-06-21T04:34:47Z</time>
      </trkpt>
      <trkpt lat="41.93659" lon="9.20925">
        <ele>1707</ele>
        <time>2015-06-21T04:34:51Z</time>
      </trkpt>
      <trkpt lat="41.93659" lon="9.20929">
        <ele>1708</ele>
        <time>2015-06-21T04:34:56Z</time>
      </trkpt>
      <trkpt lat="41.9366" lon="9.20931">
        <ele>1708.2</ele>
        <time>2015-06-21T04:35:01Z</time>
      </trkpt>
      <trkpt lat="41.93662" lon="9.20932">
        <ele>1709.2</ele>
        <time>2015-06-21T04:35:06Z</time>
      </trkpt>
      <trkpt lat="41.93665" lon="9.20933">
        <ele>1709.6</ele>
        <time>2015-06-21T04:35:12Z</time>
      </trkpt>
      <trkpt lat="41.93665" lon="9.20935">
        <ele>1710</ele>
        <time>2015-06-21T04:35:17Z</time>
      </trkpt>
      <trkpt lat="41.93666" lon="9.20938">
        <ele>1710.6</ele>
        <time>2015-06-21T04:35:22Z</time>
      </trkpt>
      <trkpt lat="41.93667" lon="9.20941">
        <ele>1711</ele>
        <time>2015-06-21T04:35:27Z</time>
      </trkpt>
      <trkpt lat="41.93669" lon="9.20943">
        <ele>1711.2</ele>
        <time>2015-06-21T04:35:31Z</time>
      </trkpt>
      <trkpt lat="41.93671" lon="9.20946">
        <ele>1712</ele>
        <time>2015-06-21T04:35:36Z</time>
      </trkpt>
      <trkpt lat="41.9367" lon="9.20948">
        <ele>1712.6</ele>
        <time>2015-06-21T04:35:41Z</time>
      </trkpt>
      <trkpt lat="41.9367" lon="9.20951">
        <ele>1713.2</ele>
        <time>2015-06-21T04:35:46Z</time>
      </trkpt>
      <trkpt lat="41.93673" lon="9.20956">
        <ele>1714</ele>
        <time>2015-06-21T04:35:53Z</time>
      </trkpt>
      <trkpt lat="41.93674" lon="9.20958">
        <ele>1714.2</ele>
        <time>2015-06-21T04:35:58Z</time>
      </trkpt>
      <trkpt lat="41.93674" lon="9.20961">
        <ele>1714.8</ele>
        <time>2015-06-21T04:36:03Z</time>
      </trkpt>
      <trkpt lat="41.93675" lon="9.20964">
        <ele>1715.2</ele>
        <time>2015-06-21T04:36:08Z</time>
      </trkpt>
      <trkpt lat="41.93676" lon="9.20965">
        <ele>1715.4</ele>
        <time>2015-06-21T04:36:12Z</time>
      </trkpt>
      <trkpt lat="41.93678" lon="9.20968">
        <ele>1716.4</ele>
        <time>2015-06-21T04:36:18Z</time>
      </trkpt>
      <trkpt lat="41.93679" lon="9.20971">
        <ele>1716.8</ele>
        <time>2015-06-21T04:36:24Z</time>
      </trkpt>
      <trkpt lat="41.9368" lon="9.20972">
        <ele>1717.2</ele>
        <time>2015-06-21T04:36:29Z</time>
      </trkpt>
      <trkpt lat="41.93681" lon="9.20975">
        <ele>1717.8</ele>
        <time>2015-06-21T04:36:34Z</time>
      </trkpt>
      <trkpt lat="41.93682" lon="9.20977">
        <ele>1718.4</ele>
        <time>2015-06-21T04:36:39Z</time>
      </trkpt>
      <trkpt lat="41.93683" lon="9.20979">
        <ele>1719</ele>
        <time>2015-06-21T04:36:43Z</time>
      </trkpt>
      <trkpt lat="41.93683" lon="9.20982">
        <ele>1719.4</ele>
        <time>2015-06-21T04:36:48Z</time>
      </trkpt>
      <trkpt lat="41.93685" lon="9.20986">
        <ele>1720.2</ele>
        <time>2015-06-21T04:36:54Z</time>
      </trkpt>
      <trkpt lat="41.93685" lon="9.20988">
        <ele>1720.6</ele>
        <time>2015-06-21T04:36:58Z</time>
      </trkpt>
      <trkpt lat="41.93685" lon="9.20991">
        <ele>1721.2</ele>
        <time>2015-06-21T04:37:03Z</time>
      </trkpt>
      <trkpt lat="41.93683" lon="9.20995">
        <ele>1722</ele>
        <time>2015-06-21T04:37:10Z</time>
      </trkpt>
      <trkpt lat="41.93682" lon="9.20999">
        <ele>1722.2</ele>
        <time>2015-06-21T04:37:15Z</time>
      </trkpt>
      <trkpt lat="41.93681" lon="9.21002">
        <ele>1723</ele>
        <time>2015-06-21T04:37:20Z</time>
      </trkpt>
      <trkpt lat="41.93681" lon="9.21007">
        <ele>1723.6</ele>
        <time>2015-06-21T04:37:27Z</time>
      </trkpt>
      <trkpt lat="41.93684" lon="9.2101">
        <ele>1724</ele>
        <time>2015-06-21T04:37:33Z</time>
      </trkpt>
      <trkpt lat="41.93685" lon="9.21014">
        <ele>1724.6</ele>
        <time>2015-06-21T04:37:38Z</time>
      </trkpt>
      <trkpt lat="41.93686" lon="9.21016">
        <ele>1725</ele>
        <time>2015-06-21T04:37:42Z</time>
      </trkpt>
      <trkpt lat="41.93686" lon="9.21018">
        <ele>1725.4</ele>
        <time>2015-06-21T04:37:47Z</time>
      </trkpt>
      <trkpt lat="41.93685" lon="9.21021">
        <ele>1726.2</ele>
        <time>2015-06-21T04:37:51Z</time>
      </trkpt>
      <trkpt lat="41.93686" lon="9.21022">
        <ele>1727</ele>
        <time>2015-06-21T04:37:56Z</time>
      </trkpt>
      <trkpt lat="41.93687" lon="9.21025">
        <ele>1727.6</ele>
        <time>2015-06-21T04:38:01Z</time>
      </trkpt>
      <trkpt lat="41.93689" lon="9.21028">
        <ele>1728</ele>
        <time>2015-06-21T04:38:07Z</time>
      </trkpt>
      <trkpt lat="41.9369" lon="9.21028">
        <ele>1728.6</ele>
        <time>2015-06-21T04:38:11Z</time>
      </trkpt>
      <trkpt lat="41.93691" lon="9.21029">
        <ele>1729.2</ele>
        <time>2015-06-21T04:38:16Z</time>
      </trkpt>
      <trkpt lat="41.93693" lon="9.2103">
        <ele>1729.6</ele>
        <time>2015-06-21T04:38:20Z</time>
      </trkpt>
      <trkpt lat="41.93693" lon="9.21032">
        <ele>1730.4</ele>
        <time>2015-06-21T04:38:26Z</time>
      </trkpt>
      <trkpt lat="41.93695" lon="9.21033">
        <ele>1730.8</ele>
        <time>2015-06-21T04:38:31Z</time>
      </trkpt>
      <trkpt lat="41.93696" lon="9.21034">
        <ele>1731.6</ele>
        <time>2015-06-21T04:38:37Z</time>
      </trkpt>
      <trkpt lat="41.93696" lon="9.21036">
        <ele>1732</ele>
        <time>2015-06-21T04:38:42Z</time>
      </trkpt>
      <trkpt lat="41.93697" lon="9.21038">
        <ele>1732.6</ele>
        <time>2015-06-21T04:38:47Z</time>
      </trkpt>
      <trkpt lat="41.937" lon="9.2104">
        <ele>1733.2</ele>
        <time>2015-06-21T04:38:53Z</time>
      </trkpt>
      <trkpt lat="41.93702" lon="9.21041">
        <ele>1733.8</ele>
        <time>2015-06-21T04:38:59Z</time>
      </trkpt>
      <trkpt lat="41.93704" lon="9.21041">
        <ele>1734.4</ele>
        <time>2015-06-21T04:39:04Z</time>
      </trkpt>
      <trkpt lat="41.93706" lon="9.21042">
        <ele>1735</ele>
        <time>2015-06-21T04:39:09Z</time>
      </trkpt>
      <trkpt lat="41.93708" lon="9.21043">
        <ele>1735.8</ele>
        <time>2015-06-21T04:39:15Z</time>
      </trkpt>
      <trkpt lat="41.93709" lon="9.21045">
        <ele>1736.2</ele>
        <time>2015-06-21T04:39:20Z</time>
      </trkpt>
      <trkpt lat="41.93709" lon="9.21047">
        <ele>1736.8</ele>
        <time>2015-06-21T04:39:25Z</time>
      </trkpt>
      <trkpt lat="41.93708" lon="9.2105">
        <ele>1737.4</ele>
        <time>2015-06-21T04:39:30Z</time>
      </trkpt>
      <trkpt lat="41.93711" lon="9.21052">
        <ele>1738.2</ele>
        <time>2015-06-21T04:39:36Z</time>
      </trkpt>
      <trkpt lat="41.93713" lon="9.21054">
        <ele>1738.4</ele>
        <time>2015-06-21T04:39:40Z</time>
      </trkpt>
      <trkpt lat="41.93715" lon="9.21057">
        <ele>1739.2</ele>
        <time>2015-06-21T04:39:45Z</time>
      </trkpt>
      <trkpt lat="41.93716" lon="9.21059">
        <ele>1739.8</ele>
        <time>2015-06-21T04:39:49Z</time>
      </trkpt>
      <trkpt lat="41.93715" lon="9.21062">
        <ele>1740.4</ele>
        <time>2015-06-21T04:39:54Z</time>
      </trkpt>
      <trkpt lat="41.93714" lon="9.21069">
        <ele>1741.6</ele>
        <time>2015-06-21T04:40:02Z</time>
      </trkpt>
      <trkpt lat="41.93714" lon="9.21072">
        <ele>1741.8</ele>
        <time>2015-06-21T04:40:08Z</time>
      </trkpt>
      <trkpt lat="41.93714" lon="9.21077">
        <ele>1742.4</ele>
        <time>2015-06-21T04:40:15Z</time>
      </trkpt>
      <trkpt lat="41.93714" lon="9.21077">
        <ele>1742.8</ele>
        <time>2015-06-21T04:40:21Z</time>
      </trkpt>
      <trkpt lat="41.93716" lon="9.21087">
        <ele>1743.2</ele>
        <time>2015-06-21T04:40:32Z</time>
      </trkpt>
      <trkpt lat="41.93718" lon="9.21089">
        <ele>1743.2</ele>
        <time>2015-06-21T04:40:38Z</time>
      </trkpt>
      <trkpt lat="41.9372" lon="9.21091">
        <ele>1743.8</ele>
        <time>2015-06-21T04:40:44Z</time>
      </trkpt>
      <trkpt lat="41.9372" lon="9.21095">
        <ele>1744.2</ele>
        <time>2015-06-21T04:40:49Z</time>
      </trkpt>
      <trkpt lat="41.9372" lon="9.21098">
        <ele>1744.8</ele>
        <time>2015-06-21T04:40:53Z</time>
      </trkpt>
      <trkpt lat="41.93721" lon="9.21102">
        <ele>1745.8</ele>
        <time>2015-06-21T04:40:59Z</time>
      </trkpt>
      <trkpt lat="41.93722" lon="9.21105">
        <ele>1746</ele>
        <time>2015-06-21T04:41:05Z</time>
      </trkpt>
      <trkpt lat="41.93723" lon="9.21108">
        <ele>1746.4</ele>
        <time>2015-06-21T04:41:09Z</time>
      </trkpt>
      <trkpt lat="41.93724" lon="9.21111">
        <ele>1747.2</ele>
        <time>2015-06-21T04:41:14Z</time>
      </trkpt>
      <trkpt lat="41.93724" lon="9.21113">
        <ele>1747.6</ele>
        <time>2015-06-21T04:41:18Z</time>
      </trkpt>
      <trkpt lat="41.93723" lon="9.2112">
        <ele>1748.8</ele>
        <time>2015-06-21T04:41:26Z</time>
      </trkpt>
      <trkpt lat="41.93722" lon="9.21128">
        <ele>1749.2</ele>
        <time>2015-06-21T04:41:34Z</time>
      </trkpt>
      <trkpt lat="41.93721" lon="9.21136">
        <ele>1749.6</ele>
        <time>2015-06-21T04:41:42Z</time>
      </trkpt>
      <trkpt lat="41.9372" lon="9.2114">
        <ele>1749.8</ele>
        <time>2015-06-21T04:41:48Z</time>
      </trkpt>
      <trkpt lat="41.93719" lon="9.21144">
        <ele>1750</ele>
        <time>2015-06-21T04:41:53Z</time>
      </trkpt>
      <trkpt lat="41.93715" lon="9.21147">
        <ele>1750.8</ele>
        <time>2015-06-21T04:42:00Z</time>
      </trkpt>
      <trkpt lat="41.93714" lon="9.21147">
        <ele>1751.2</ele>
        <time>2015-06-21T04:42:04Z</time>
      </trkpt>
      <trkpt lat="41.93713" lon="9.21147">
        <ele>1751.6</ele>
        <time>2015-06-21T04:42:22Z</time>
      </trkpt>
      <trkpt lat="41.93711" lon="9.21149">
        <ele>1751.4</ele>
        <time>2015-06-21T04:42:27Z</time>
      </trkpt>
      <trkpt lat="41.93712" lon="9.21154">
        <ele>1752.2</ele>
        <time>2015-06-21T04:42:35Z</time>
      </trkpt>
      <trkpt lat="41.93711" lon="9.21157">
        <ele>1752.4</ele>
        <time>2015-06-21T04:42:40Z</time>
      </trkpt>
      <trkpt lat="41.93712" lon="9.2116">
        <ele>1752.8</ele>
        <time>2015-06-21T04:42:44Z</time>
      </trkpt>
      <trkpt lat="41.93713" lon="9.21163">
        <ele>1753.6</ele>
        <time>2015-06-21T04:42:49Z</time>
      </trkpt>
      <trkpt lat="41.93714" lon="9.21163">
        <ele>1754.4</ele>
        <time>2015-06-21T04:42:53Z</time>
      </trkpt>
      <trkpt lat="41.93715" lon="9.21164">
        <ele>1755.4</ele>
        <time>2015-06-21T04:43:06Z</time>
      </trkpt>
      <trkpt lat="41.93716" lon="9.21165">
        <ele>1755.4</ele>
        <time>2015-06-21T04:43:11Z</time>
      </trkpt>
      <trkpt lat="41.93716" lon="9.21165">
        <ele>1755.6</ele>
        <time>2015-06-21T04:43:14Z</time>
      </trkpt>
      <trkpt lat="41.93716" lon="9.21165">
        <ele>1756</ele>
        <time>2015-06-21T04:43:17Z</time>
      </trkpt>
      <trkpt lat="41.93715" lon="9.21165">
        <ele>1755.8</ele>
        <time>2015-06-21T04:43:21Z</time>
      </trkpt>
      <trkpt lat="41.93715" lon="9.21165">
        <ele>1755.8</ele>
        <time>2015-06-21T04:43:40Z</time>
      </trkpt>
      <trkpt lat="41.93715" lon="9.21165">
        <ele>1755.6</ele>
        <time>2015-06-21T04:43:52Z</time>
      </trkpt>
      <trkpt lat="41.93715" lon="9.21165">
        <ele>1755.6</ele>
        <time>2015-06-21T04:44:05Z</time>
      </trkpt>
      <trkpt lat="41.93716" lon="9.21164">
        <ele>1755.8</ele>
        <time>2015-06-21T04:44:14Z</time>
      </trkpt>
      <trkpt lat="41.93717" lon="9.21165">
        <ele>1755.8</ele>
        <time>2015-06-21T04:44:26Z</time>
      </trkpt>
      <trkpt lat="41.93717" lon="9.21165">
        <ele>1755.8</ele>
        <time>2015-06-21T04:44:42Z</time>
      </trkpt>
      <trkpt lat="41.93717" lon="9.21165">
        <ele>1755.6</ele>
        <time>2015-06-21T04:44:55Z</time>
      </trkpt>
      <trkpt lat="41.93716" lon="9.21165">
        <ele>1755.6</ele>
        <time>2015-06-21T04:45:03Z</time>
      </trkpt>
      <trkpt lat="41.93716" lon="9.21165">
        <ele>1756</ele>
        <time>2015-06-21T04:45:17Z</time>
      </trkpt>
      <trkpt lat="41.93716" lon="9.21164">
        <ele>1755.8</ele>
        <time>2015-06-21T04:45:33Z</time>
      </trkpt>
      <trkpt lat="41.93716" lon="9.21164">
        <ele>1755.4</ele>
        <time>2015-06-21T04:45:46Z</time>
      </trkpt>
      <trkpt lat="41.93716" lon="9.21165">
        <ele>1755.6</ele>
        <time>2015-06-21T04:45:55Z</time>
      </trkpt>
      <trkpt lat="41.93716" lon="9.21165">
        <ele>1755.6</ele>
        <time>2015-06-21T04:46:09Z</time>
      </trkpt>
      <trkpt lat="41.93716" lon="9.21165">
        <ele>1755.8</ele>
        <time>2015-06-21T04:46:19Z</time>
      </trkpt>
      <trkpt lat="41.93715" lon="9.21164">
        <ele>1755.8</ele>
        <time>2015-06-21T04:46:32Z</time>
      </trkpt>
      <trkpt lat="41.93715" lon="9.21164">
        <ele>1756</ele>
        <time>2015-06-21T04:46:44Z</time>
      </trkpt>
      <trkpt lat="41.93714" lon="9.21164">
        <ele>1756</ele>
        <time>2015-06-21T04:46:58Z</time>
      </trkpt>
      <trkpt lat="41.93715" lon="9.21167">
        <ele>1755.8</ele>
        <time>2015-06-21T04:47:03Z</time>
      </trkpt>
      <trkpt lat="41.93717" lon="9.2117">
        <ele>1755.8</ele>
        <time>2015-06-21T04:47:09Z</time>
      </trkpt>
      <trkpt lat="41.93721" lon="9.21175">
        <ele>1756</ele>
        <time>2015-06-21T04:47:18Z</time>
      </trkpt>
      <trkpt lat="41.93728" lon="9.21188">
        <ele>1756.2</ele>
        <time>2015-06-21T04:47:34Z</time>
      </trkpt>
      <trkpt lat="41.93734" lon="9.21195">
        <ele>1756.2</ele>
        <time>2015-06-21T04:47:43Z</time>
      </trkpt>
      <trkpt lat="41.93737" lon="9.21198">
        <ele>1756.4</ele>
        <time>2015-06-21T04:47:50Z</time>
      </trkpt>
      <trkpt lat="41.9374" lon="9.21197">
        <ele>1757</ele>
        <time>2015-06-21T04:47:56Z</time>
      </trkpt>
      <trkpt lat="41.93742" lon="9.21196">
        <ele>1757.6</ele>
        <time>2015-06-21T04:48:01Z</time>
      </trkpt>
      <trkpt lat="41.93743" lon="9.21197">
        <ele>1758.2</ele>
        <time>2015-06-21T04:48:06Z</time>
      </trkpt>
      <trkpt lat="41.93744" lon="9.21198">
        <ele>1759.2</ele>
        <time>2015-06-21T04:48:12Z</time>
      </trkpt>
      <trkpt lat="41.93748" lon="9.21202">
        <ele>1760</ele>
        <time>2015-06-21T04:48:19Z</time>
      </trkpt>
      <trkpt lat="41.93751" lon="9.21206">
        <ele>1760.4</ele>
        <time>2015-06-21T04:48:24Z</time>
      </trkpt>
      <trkpt lat="41.93755" lon="9.21208">
        <ele>1761.2</ele>
        <time>2015-06-21T04:48:30Z</time>
      </trkpt>
      <trkpt lat="41.93759" lon="9.21208">
        <ele>1761.8</ele>
        <time>2015-06-21T04:48:36Z</time>
      </trkpt>
      <trkpt lat="41.93762" lon="9.2121">
        <ele>1762.4</ele>
        <time>2015-06-21T04:48:42Z</time>
      </trkpt>
      <trkpt lat="41.93766" lon="9.21212">
        <ele>1763.2</ele>
        <time>2015-06-21T04:48:48Z</time>
      </trkpt>
      <trkpt lat="41.93769" lon="9.21213">
        <ele>1763.8</ele>
        <time>2015-06-21T04:48:55Z</time>
      </trkpt>
      <trkpt lat="41.93772" lon="9.21215">
        <ele>1764.2</ele>
        <time>2015-06-21T04:49:00Z</time>
      </trkpt>
      <trkpt lat="41.93775" lon="9.21219">
        <ele>1765</ele>
        <time>2015-06-21T04:49:06Z</time>
      </trkpt>
      <trkpt lat="41.93777" lon="9.21221">
        <ele>1765.6</ele>
        <time>2015-06-21T04:49:11Z</time>
      </trkpt>
      <trkpt lat="41.9378" lon="9.21221">
        <ele>1766.6</ele>
        <time>2015-06-21T04:49:18Z</time>
      </trkpt>
      <trkpt lat="41.93782" lon="9.21219">
        <ele>1767.2</ele>
        <time>2015-06-21T04:49:22Z</time>
      </trkpt>
      <trkpt lat="41.93784" lon="9.21218">
        <ele>1768</ele>
        <time>2015-06-21T04:49:28Z</time>
      </trkpt>
      <trkpt lat="41.93787" lon="9.21218">
        <ele>1768.8</ele>
        <time>2015-06-21T04:49:35Z</time>
      </trkpt>
      <trkpt lat="41.9379" lon="9.21219">
        <ele>1769.4</ele>
        <time>2015-06-21T04:49:42Z</time>
      </trkpt>
      <trkpt lat="41.93791" lon="9.21217">
        <ele>1769.6</ele>
        <time>2015-06-21T04:49:47Z</time>
      </trkpt>
      <trkpt lat="41.93794" lon="9.21215">
        <ele>1770.6</ele>
        <time>2015-06-21T04:49:53Z</time>
      </trkpt>
      <trkpt lat="41.93796" lon="9.21214">
        <ele>1771.2</ele>
        <time>2015-06-21T04:49:58Z</time>
      </trkpt>
      <trkpt lat="41.93799" lon="9.21213">
        <ele>1772.2</ele>
        <time>2015-06-21T04:50:05Z</time>
      </trkpt>
      <trkpt lat="41.938" lon="9.21211">
        <ele>1772.6</ele>
        <time>2015-06-21T04:50:09Z</time>
      </trkpt>
      <trkpt lat="41.93801" lon="9.21208">
        <ele>1773.6</ele>
        <time>2015-06-21T04:50:15Z</time>
      </trkpt>
      <trkpt lat="41.93802" lon="9.21206">
        <ele>1774.6</ele>
        <time>2015-06-21T04:50:21Z</time>
      </trkpt>
      <trkpt lat="41.93804" lon="9.21205">
        <ele>1775.2</ele>
        <time>2015-06-21T04:50:28Z</time>
      </trkpt>
      <trkpt lat="41.93805" lon="9.21203">
        <ele>1775.6</ele>
        <time>2015-06-21T04:50:33Z</time>
      </trkpt>
      <trkpt lat="41.93806" lon="9.21201">
        <ele>1776.6</ele>
        <time>2015-06-21T04:50:40Z</time>
      </trkpt>
      <trkpt lat="41.93808" lon="9.21198">
        <ele>1777.2</ele>
        <time>2015-06-21T04:50:47Z</time>
      </trkpt>
      <trkpt lat="41.93811" lon="9.21198">
        <ele>1777.4</ele>
        <time>2015-06-21T04:50:52Z</time>
      </trkpt>
      <trkpt lat="41.93813" lon="9.212">
        <ele>1778.6</ele>
        <time>2015-06-21T04:50:58Z</time>
      </trkpt>
      <trkpt lat="41.93815" lon="9.21203">
        <ele>1779.2</ele>
        <time>2015-06-21T04:51:04Z</time>
      </trkpt>
      <trkpt lat="41.93816" lon="9.21206">
        <ele>1779.8</ele>
        <time>2015-06-21T04:51:10Z</time>
      </trkpt>
      <trkpt lat="41.9382" lon="9.21208">
        <ele>1780.6</ele>
        <time>2015-06-21T04:51:18Z</time>
      </trkpt>
      <trkpt lat="41.93822" lon="9.21211">
        <ele>1781</ele>
        <time>2015-06-21T04:51:24Z</time>
      </trkpt>
      <trkpt lat="41.93823" lon="9.21213">
        <ele>1781.6</ele>
        <time>2015-06-21T04:51:30Z</time>
      </trkpt>
      <trkpt lat="41.93826" lon="9.21214">
        <ele>1782</ele>
        <time>2015-06-21T04:51:36Z</time>
      </trkpt>
      <trkpt lat="41.93828" lon="9.21216">
        <ele>1783</ele>
        <time>2015-06-21T04:51:42Z</time>
      </trkpt>
      <trkpt lat="41.9383" lon="9.21218">
        <ele>1783.6</ele>
        <time>2015-06-21T04:51:48Z</time>
      </trkpt>
      <trkpt lat="41.93833" lon="9.2122">
        <ele>1784.2</ele>
        <time>2015-06-21T04:51:54Z</time>
      </trkpt>
      <trkpt lat="41.93834" lon="9.21219">
        <ele>1785</ele>
        <time>2015-06-21T04:51:59Z</time>
      </trkpt>
      <trkpt lat="41.93837" lon="9.21219">
        <ele>1785.8</ele>
        <time>2015-06-21T04:52:07Z</time>
      </trkpt>
      <trkpt lat="41.9384" lon="9.21221">
        <ele>1786.2</ele>
        <time>2015-06-21T04:52:14Z</time>
      </trkpt>
      <trkpt lat="41.93841" lon="9.21223">
        <ele>1786.8</ele>
        <time>2015-06-21T04:52:19Z</time>
      </trkpt>
      <trkpt lat="41.93843" lon="9.21227">
        <ele>1788.2</ele>
        <time>2015-06-21T04:52:26Z</time>
      </trkpt>
      <trkpt lat="41.93846" lon="9.2123">
        <ele>1788.8</ele>
        <time>2015-06-21T04:52:33Z</time>
      </trkpt>
      <trkpt lat="41.93848" lon="9.21236">
        <ele>1789.4</ele>
        <time>2015-06-21T04:52:42Z</time>
      </trkpt>
      <trkpt lat="41.93851" lon="9.21241">
        <ele>1789.8</ele>
        <time>2015-06-21T04:52:50Z</time>
      </trkpt>
      <trkpt lat="41.93853" lon="9.21242">
        <ele>1790.4</ele>
        <time>2015-06-21T04:52:56Z</time>
      </trkpt>
      <trkpt lat="41.93855" lon="9.21244">
        <ele>1791</ele>
        <time>2015-06-21T04:53:02Z</time>
      </trkpt>
      <trkpt lat="41.93855" lon="9.21248">
        <ele>1792</ele>
        <time>2015-06-21T04:53:08Z</time>
      </trkpt>
      <trkpt lat="41.93857" lon="9.21253">
        <ele>1792.6</ele>
        <time>2015-06-21T04:53:15Z</time>
      </trkpt>
      <trkpt lat="41.9386" lon="9.21255">
        <ele>1793.2</ele>
        <time>2015-06-21T04:53:23Z</time>
      </trkpt>
      <trkpt lat="41.93862" lon="9.21257">
        <ele>1793.6</ele>
        <time>2015-06-21T04:53:29Z</time>
      </trkpt>
      <trkpt lat="41.93864" lon="9.21257">
        <ele>1794.4</ele>
        <time>2015-06-21T04:53:35Z</time>
      </trkpt>
      <trkpt lat="41.93867" lon="9.21258">
        <ele>1794.8</ele>
        <time>2015-06-21T04:53:41Z</time>
      </trkpt>
      <trkpt lat="41.9387" lon="9.2126">
        <ele>1795.6</ele>
        <time>2015-06-21T04:53:47Z</time>
      </trkpt>
      <trkpt lat="41.93871" lon="9.2126">
        <ele>1796.4</ele>
        <time>2015-06-21T04:53:53Z</time>
      </trkpt>
      <trkpt lat="41.93874" lon="9.21263">
        <ele>1797.2</ele>
        <time>2015-06-21T04:53:59Z</time>
      </trkpt>
      <trkpt lat="41.93876" lon="9.21266">
        <ele>1797.8</ele>
        <time>2015-06-21T04:54:05Z</time>
      </trkpt>
      <trkpt lat="41.93878" lon="9.21268">
        <ele>1798.6</ele>
        <time>2015-06-21T04:54:11Z</time>
      </trkpt>
      <trkpt lat="41.93881" lon="9.21271">
        <ele>1799.4</ele>
        <time>2015-06-21T04:54:17Z</time>
      </trkpt>
      <trkpt lat="41.93884" lon="9.21272">
        <ele>1799.8</ele>
        <time>2015-06-21T04:54:23Z</time>
      </trkpt>
      <trkpt lat="41.93887" lon="9.21274">
        <ele>1800.8</ele>
        <time>2015-06-21T04:54:29Z</time>
      </trkpt>
      <trkpt lat="41.93891" lon="9.21276">
        <ele>1801.4</ele>
        <time>2015-06-21T04:54:35Z</time>
      </trkpt>
      <trkpt lat="41.93898" lon="9.21284">
        <ele>1802.4</ele>
        <time>2015-06-21T04:54:47Z</time>
      </trkpt>
      <trkpt lat="41.93903" lon="9.21288">
        <ele>1802.6</ele>
        <time>2015-06-21T04:54:57Z</time>
      </trkpt>
      <trkpt lat="41.93908" lon="9.21291">
        <ele>1803</ele>
        <time>2015-06-21T04:55:04Z</time>
      </trkpt>
      <trkpt lat="41.93913" lon="9.21295">
        <ele>1803.8</ele>
        <time>2015-06-21T04:55:14Z</time>
      </trkpt>
      <trkpt lat="41.9392" lon="9.21301">
        <ele>1804.2</ele>
        <time>2015-06-21T04:55:24Z</time>
      </trkpt>
      <trkpt lat="41.9393" lon="9.21312">
        <ele>1804.6</ele>
        <time>2015-06-21T04:55:38Z</time>
      </trkpt>
      <trkpt lat="41.93937" lon="9.2132">
        <ele>1805</ele>
        <time>2015-06-21T04:55:50Z</time>
      </trkpt>
      <trkpt lat="41.93942" lon="9.21323">
        <ele>1805.2</ele>
        <time>2015-06-21T04:55:57Z</time>
      </trkpt>
      <trkpt lat="41.93942" lon="9.21324">
        <ele>1805.4</ele>
        <time>2015-06-21T04:55:58Z</time>
      </trkpt>
      <trkpt lat="41.93946" lon="9.21329">
        <ele>1805.6</ele>
        <time>2015-06-21T04:56:06Z</time>
      </trkpt>
      <trkpt lat="41.93948" lon="9.21333">
        <ele>1806.4</ele>
        <time>2015-06-21T04:56:14Z</time>
      </trkpt>
      <trkpt lat="41.93952" lon="9.21335">
        <ele>1806.8</ele>
        <time>2015-06-21T04:56:20Z</time>
      </trkpt>
      <trkpt lat="41.93957" lon="9.21336">
        <ele>1807.8</ele>
        <time>2015-06-21T04:56:28Z</time>
      </trkpt>
      <trkpt lat="41.93982" lon="9.21329">
        <ele>1804.6</ele>
        <time>2015-06-21T04:57:19Z</time>
      </trkpt>
      <trkpt lat="41.93989" lon="9.21325">
        <ele>1803.4</ele>
        <time>2015-06-21T04:57:29Z</time>
      </trkpt>
      <trkpt lat="41.93996" lon="9.21324">
        <ele>1801.6</ele>
        <time>2015-06-21T04:57:40Z</time>
      </trkpt>
      <trkpt lat="41.94008" lon="9.21327">
        <ele>1799.8</ele>
        <time>2015-06-21T04:57:54Z</time>
      </trkpt>
      <trkpt lat="41.9405" lon="9.21348">
        <ele>1798</ele>
        <time>2015-06-21T04:58:36Z</time>
      </trkpt>
      <trkpt lat="41.94064" lon="9.21356">
        <ele>1797.8</ele>
        <time>2015-06-21T04:58:50Z</time>
      </trkpt>
      <trkpt lat="41.94067" lon="9.21358">
        <ele>1797.8</ele>
        <time>2015-06-21T04:58:53Z</time>
      </trkpt>
      <trkpt lat="41.94077" lon="9.21363">
        <ele>1798</ele>
        <time>2015-06-21T04:59:03Z</time>
      </trkpt>
      <trkpt lat="41.9408" lon="9.21366">
        <ele>1798.2</ele>
        <time>2015-06-21T04:59:07Z</time>
      </trkpt>
      <trkpt lat="41.94085" lon="9.21368">
        <ele>1798.6</ele>
        <time>2015-06-21T04:59:13Z</time>
      </trkpt>
      <trkpt lat="41.94092" lon="9.21372">
        <ele>1799.2</ele>
        <time>2015-06-21T04:59:22Z</time>
      </trkpt>
      <trkpt lat="41.94097" lon="9.21375">
        <ele>1799.6</ele>
        <time>2015-06-21T04:59:29Z</time>
      </trkpt>
      <trkpt lat="41.94103" lon="9.21378">
        <ele>1800.4</ele>
        <time>2015-06-21T04:59:36Z</time>
      </trkpt>
      <trkpt lat="41.94112" lon="9.21382">
        <ele>1801</ele>
        <time>2015-06-21T04:59:48Z</time>
      </trkpt>
      <trkpt lat="41.94115" lon="9.21382">
        <ele>1801</ele>
        <time>2015-06-21T04:59:51Z</time>
      </trkpt>
      <trkpt lat="41.94116" lon="9.21383">
        <ele>1801.2</ele>
        <time>2015-06-21T04:59:53Z</time>
      </trkpt>
      <trkpt lat="41.94128" lon="9.21392">
        <ele>1802.4</ele>
        <time>2015-06-21T05:00:07Z</time>
      </trkpt>
      <trkpt lat="41.94145" lon="9.21401">
        <ele>1802.6</ele>
        <time>2015-06-21T05:00:25Z</time>
      </trkpt>
      <trkpt lat="41.94149" lon="9.21407">
        <ele>1802.6</ele>
        <time>2015-06-21T05:00:33Z</time>
      </trkpt>
      <trkpt lat="41.94151" lon="9.21408">
        <ele>1802.8</ele>
        <time>2015-06-21T05:00:35Z</time>
      </trkpt>
      <trkpt lat="41.94152" lon="9.2141">
        <ele>1802.8</ele>
        <time>2015-06-21T05:00:37Z</time>
      </trkpt>
      <trkpt lat="41.94155" lon="9.21412">
        <ele>1803.2</ele>
        <time>2015-06-21T05:00:42Z</time>
      </trkpt>
      <trkpt lat="41.94159" lon="9.21418">
        <ele>1804</ele>
        <time>2015-06-21T05:00:49Z</time>
      </trkpt>
      <trkpt lat="41.94161" lon="9.21423">
        <ele>1804.6</ele>
        <time>2015-06-21T05:00:55Z</time>
      </trkpt>
      <trkpt lat="41.94162" lon="9.21429">
        <ele>1805.4</ele>
        <time>2015-06-21T05:01:01Z</time>
      </trkpt>
      <trkpt lat="41.94166" lon="9.21437">
        <ele>1806.2</ele>
        <time>2015-06-21T05:01:10Z</time>
      </trkpt>
      <trkpt lat="41.9417" lon="9.21441">
        <ele>1806.8</ele>
        <time>2015-06-21T05:01:19Z</time>
      </trkpt>
      <trkpt lat="41.94173" lon="9.21443">
        <ele>1807.2</ele>
        <time>2015-06-21T05:01:25Z</time>
      </trkpt>
      <trkpt lat="41.94178" lon="9.21448">
        <ele>1808.2</ele>
        <time>2015-06-21T05:01:32Z</time>
      </trkpt>
      <trkpt lat="41.94182" lon="9.21456">
        <ele>1808.8</ele>
        <time>2015-06-21T05:01:40Z</time>
      </trkpt>
      <trkpt lat="41.94186" lon="9.21465">
        <ele>1809.6</ele>
        <time>2015-06-21T05:01:50Z</time>
      </trkpt>
      <trkpt lat="41.9419" lon="9.21473">
        <ele>1810.2</ele>
        <time>2015-06-21T05:01:58Z</time>
      </trkpt>
      <trkpt lat="41.94197" lon="9.21482">
        <ele>1810.8</ele>
        <time>2015-06-21T05:02:10Z</time>
      </trkpt>
      <trkpt lat="41.94211" lon="9.215">
        <ele>1811.4</ele>
        <time>2015-06-21T05:02:30Z</time>
      </trkpt>
      <trkpt lat="41.94217" lon="9.21507">
        <ele>1811.2</ele>
        <time>2015-06-21T05:02:38Z</time>
      </trkpt>
      <trkpt lat="41.94218" lon="9.2151">
        <ele>1811.2</ele>
        <time>2015-06-21T05:02:40Z</time>
      </trkpt>
      <trkpt lat="41.94219" lon="9.21511">
        <ele>1811.6</ele>
        <time>2015-06-21T05:02:42Z</time>
      </trkpt>
      <trkpt lat="41.94219" lon="9.21512">
        <ele>1811.4</ele>
        <time>2015-06-21T05:02:43Z</time>
      </trkpt>
      <trkpt lat="41.94224" lon="9.21521">
        <ele>1811.8</ele>
        <time>2015-06-21T05:02:55Z</time>
      </trkpt>
      <trkpt lat="41.94228" lon="9.21528">
        <ele>1812.2</ele>
        <time>2015-06-21T05:03:06Z</time>
      </trkpt>
      <trkpt lat="41.94233" lon="9.21534">
        <ele>1813</ele>
        <time>2015-06-21T05:03:15Z</time>
      </trkpt>
      <trkpt lat="41.94236" lon="9.21541">
        <ele>1813.2</ele>
        <time>2015-06-21T05:03:23Z</time>
      </trkpt>
      <trkpt lat="41.9424" lon="9.21546">
        <ele>1813.4</ele>
        <time>2015-06-21T05:03:29Z</time>
      </trkpt>
      <trkpt lat="41.94241" lon="9.21548">
        <ele>1813.2</ele>
        <time>2015-06-21T05:03:31Z</time>
      </trkpt>
      <trkpt lat="41.94243" lon="9.21551">
        <ele>1813.4</ele>
        <time>2015-06-21T05:03:35Z</time>
      </trkpt>
      <trkpt lat="41.94244" lon="9.21552">
        <ele>1813.2</ele>
        <time>2015-06-21T05:03:38Z</time>
      </trkpt>
      <trkpt lat="41.94251" lon="9.21563">
        <ele>1813.6</ele>
        <time>2015-06-21T05:03:50Z</time>
      </trkpt>
      <trkpt lat="41.94265" lon="9.21588">
        <ele>1812.4</ele>
        <time>2015-06-21T05:04:24Z</time>
      </trkpt>
      <trkpt lat="41.94268" lon="9.21598">
        <ele>1813</ele>
        <time>2015-06-21T05:04:36Z</time>
      </trkpt>
      <trkpt lat="41.94269" lon="9.21601">
        <ele>1813.2</ele>
        <time>2015-06-21T05:04:42Z</time>
      </trkpt>
      <trkpt lat="41.94269" lon="9.21605">
        <ele>1813.8</ele>
        <time>2015-06-21T05:04:49Z</time>
      </trkpt>
      <trkpt lat="41.94273" lon="9.21612">
        <ele>1814.8</ele>
        <time>2015-06-21T05:05:00Z</time>
      </trkpt>
      <trkpt lat="41.94287" lon="9.21622">
        <ele>1814.4</ele>
        <time>2015-06-21T05:05:39Z</time>
      </trkpt>
      <trkpt lat="41.94287" lon="9.21627">
        <ele>1814.2</ele>
        <time>2015-06-21T05:05:52Z</time>
      </trkpt>
      <trkpt lat="41.94286" lon="9.21631">
        <ele>1813.4</ele>
        <time>2015-06-21T05:05:57Z</time>
      </trkpt>
      <trkpt lat="41.94286" lon="9.21634">
        <ele>1813</ele>
        <time>2015-06-21T05:05:59Z</time>
      </trkpt>
      <trkpt lat="41.9429" lon="9.21644">
        <ele>1811.8</ele>
        <time>2015-06-21T05:06:07Z</time>
      </trkpt>
      <trkpt lat="41.94294" lon="9.21649">
        <ele>1811.4</ele>
        <time>2015-06-21T05:06:12Z</time>
      </trkpt>
      <trkpt lat="41.94295" lon="9.21651">
        <ele>1811.4</ele>
        <time>2015-06-21T05:06:14Z</time>
      </trkpt>
      <trkpt lat="41.94294" lon="9.21653">
        <ele>1811.4</ele>
        <time>2015-06-21T05:06:16Z</time>
      </trkpt>
      <trkpt lat="41.94296" lon="9.21665">
        <ele>1811.8</ele>
        <time>2015-06-21T05:06:32Z</time>
      </trkpt>
      <trkpt lat="41.94297" lon="9.21664">
        <ele>1812.2</ele>
        <time>2015-06-21T05:06:37Z</time>
      </trkpt>
      <trkpt lat="41.94299" lon="9.21663">
        <ele>1813.6</ele>
        <time>2015-06-21T05:06:49Z</time>
      </trkpt>
      <trkpt lat="41.94306" lon="9.21667">
        <ele>1813.6</ele>
        <time>2015-06-21T05:07:02Z</time>
      </trkpt>
      <trkpt lat="41.94309" lon="9.21668">
        <ele>1814</ele>
        <time>2015-06-21T05:07:07Z</time>
      </trkpt>
      <trkpt lat="41.9431" lon="9.21668">
        <ele>1814.8</ele>
        <time>2015-06-21T05:07:12Z</time>
      </trkpt>
      <trkpt lat="41.94313" lon="9.21666">
        <ele>1816.2</ele>
        <time>2015-06-21T05:07:24Z</time>
      </trkpt>
      <trkpt lat="41.94313" lon="9.21666">
        <ele>1816.6</ele>
        <time>2015-06-21T05:07:31Z</time>
      </trkpt>
      <trkpt lat="41.94307" lon="9.21667">
        <ele>1816.6</ele>
        <time>2015-06-21T05:07:44Z</time>
      </trkpt>
      <trkpt lat="41.94309" lon="9.21674">
        <ele>1815.8</ele>
        <time>2015-06-21T05:08:08Z</time>
      </trkpt>
      <trkpt lat="41.94309" lon="9.21677">
        <ele>1816</ele>
        <time>2015-06-21T05:08:25Z</time>
      </trkpt>
      <trkpt lat="41.94311" lon="9.21681">
        <ele>1816.4</ele>
        <time>2015-06-21T05:08:39Z</time>
      </trkpt>
      <trkpt lat="41.94312" lon="9.21682">
        <ele>1816.8</ele>
        <time>2015-06-21T05:08:45Z</time>
      </trkpt>
      <trkpt lat="41.94313" lon="9.21682">
        <ele>1818.2</ele>
        <time>2015-06-21T05:08:54Z</time>
      </trkpt>
      <trkpt lat="41.9432" lon="9.21689">
        <ele>1817.8</ele>
        <time>2015-06-21T05:09:30Z</time>
      </trkpt>
      <trkpt lat="41.94322" lon="9.21691">
        <ele>1818.2</ele>
        <time>2015-06-21T05:09:36Z</time>
      </trkpt>
      <trkpt lat="41.94323" lon="9.21695">
        <ele>1819</ele>
        <time>2015-06-21T05:09:42Z</time>
      </trkpt>
      <trkpt lat="41.94325" lon="9.21694">
        <ele>1820.2</ele>
        <time>2015-06-21T05:09:51Z</time>
      </trkpt>
      <trkpt lat="41.94327" lon="9.21692">
        <ele>1821</ele>
        <time>2015-06-21T05:10:00Z</time>
      </trkpt>
      <trkpt lat="41.9433" lon="9.21697">
        <ele>1821.6</ele>
        <time>2015-06-21T05:10:09Z</time>
      </trkpt>
      <trkpt lat="41.9434" lon="9.21719">
        <ele>1820.6</ele>
        <time>2015-06-21T05:10:54Z</time>
      </trkpt>
      <trkpt lat="41.9434" lon="9.21719">
        <ele>1820.6</ele>
        <time>2015-06-21T05:10:55Z</time>
      </trkpt>
      <trkpt lat="41.94343" lon="9.21724">
        <ele>1821.4</ele>
        <time>2015-06-21T05:11:02Z</time>
      </trkpt>
      <trkpt lat="41.94349" lon="9.21724">
        <ele>1822.2</ele>
        <time>2015-06-21T05:11:11Z</time>
      </trkpt>
      <trkpt lat="41.9435" lon="9.21724">
        <ele>1823.4</ele>
        <time>2015-06-21T05:11:32Z</time>
      </trkpt>
      <trkpt lat="41.94355" lon="9.21727">
        <ele>1823.2</ele>
        <time>2015-06-21T05:12:02Z</time>
      </trkpt>
      <trkpt lat="41.94359" lon="9.21733">
        <ele>1821.8</ele>
        <time>2015-06-21T05:12:29Z</time>
      </trkpt>
      <trkpt lat="41.94361" lon="9.21737">
        <ele>1820</ele>
        <time>2015-06-21T05:12:54Z</time>
      </trkpt>
      <trkpt lat="41.94362" lon="9.21739">
        <ele>1819</ele>
        <time>2015-06-21T05:13:03Z</time>
      </trkpt>
      <trkpt lat="41.94363" lon="9.21745">
        <ele>1817.6</ele>
        <time>2015-06-21T05:13:15Z</time>
      </trkpt>
      <trkpt lat="41.94364" lon="9.2175">
        <ele>1816.2</ele>
        <time>2015-06-21T05:13:24Z</time>
      </trkpt>
      <trkpt lat="41.94364" lon="9.21752">
        <ele>1815.4</ele>
        <time>2015-06-21T05:13:28Z</time>
      </trkpt>
      <trkpt lat="41.94363" lon="9.21754">
        <ele>1814.8</ele>
        <time>2015-06-21T05:13:33Z</time>
      </trkpt>
      <trkpt lat="41.94363" lon="9.21759">
        <ele>1813.2</ele>
        <time>2015-06-21T05:13:42Z</time>
      </trkpt>
      <trkpt lat="41.94374" lon="9.21774">
        <ele>1811.2</ele>
        <time>2015-06-21T05:14:25Z</time>
      </trkpt>
      <trkpt lat="41.94376" lon="9.21775">
        <ele>1812</ele>
        <time>2015-06-21T05:14:32Z</time>
      </trkpt>
      <trkpt lat="41.94378" lon="9.21773">
        <ele>1813</ele>
        <time>2015-06-21T05:14:39Z</time>
      </trkpt>
      <trkpt lat="41.94379" lon="9.21773">
        <ele>1813.6</ele>
        <time>2015-06-21T05:14:44Z</time>
      </trkpt>
      <trkpt lat="41.94379" lon="9.21773">
        <ele>1815</ele>
        <time>2015-06-21T05:15:08Z</time>
      </trkpt>
      <trkpt lat="41.9438" lon="9.21774">
        <ele>1815.4</ele>
        <time>2015-06-21T05:15:30Z</time>
      </trkpt>
      <trkpt lat="41.94382" lon="9.21771">
        <ele>1815.4</ele>
        <time>2015-06-21T05:15:52Z</time>
      </trkpt>
      <trkpt lat="41.94382" lon="9.21772">
        <ele>1816.2</ele>
        <time>2015-06-21T05:16:15Z</time>
      </trkpt>
      <trkpt lat="41.94387" lon="9.21767">
        <ele>1816.4</ele>
        <time>2015-06-21T05:16:27Z</time>
      </trkpt>
      <trkpt lat="41.9439" lon="9.21768">
        <ele>1817.2</ele>
        <time>2015-06-21T05:16:42Z</time>
      </trkpt>
      <trkpt lat="41.94381" lon="9.21769">
        <ele>1815.6</ele>
        <time>2015-06-21T05:18:00Z</time>
      </trkpt>
      <trkpt lat="41.94381" lon="9.21769">
        <ele>1815.6</ele>
        <time>2015-06-21T05:18:03Z</time>
      </trkpt>
      <trkpt lat="41.94381" lon="9.2177">
        <ele>1816.2</ele>
        <time>2015-06-21T05:18:22Z</time>
      </trkpt>
      <trkpt lat="41.94381" lon="9.21769">
        <ele>1816.2</ele>
        <time>2015-06-21T05:19:15Z</time>
      </trkpt>
      <trkpt lat="41.94381" lon="9.21769">
        <ele>1816</ele>
        <time>2015-06-21T05:19:46Z</time>
      </trkpt>
      <trkpt lat="41.94381" lon="9.21768">
        <ele>1816.2</ele>
        <time>2015-06-21T05:20:23Z</time>
      </trkpt>
      <trkpt lat="41.94382" lon="9.21765">
        <ele>1816.2</ele>
        <time>2015-06-21T05:20:46Z</time>
      </trkpt>
      <trkpt lat="41.94392" lon="9.21763">
        <ele>1816.8</ele>
        <time>2015-06-21T05:21:00Z</time>
      </trkpt>
      <trkpt lat="41.944" lon="9.21765">
        <ele>1817.2</ele>
        <time>2015-06-21T05:21:10Z</time>
      </trkpt>
      <trkpt lat="41.94404" lon="9.21765">
        <ele>1817.8</ele>
        <time>2015-06-21T05:21:15Z</time>
      </trkpt>
      <trkpt lat="41.94409" lon="9.2177">
        <ele>1818.2</ele>
        <time>2015-06-21T05:21:24Z</time>
      </trkpt>
      <trkpt lat="41.9441" lon="9.21774">
        <ele>1818.6</ele>
        <time>2015-06-21T05:21:31Z</time>
      </trkpt>
      <trkpt lat="41.9441" lon="9.21775">
        <ele>1819.4</ele>
        <time>2015-06-21T05:21:36Z</time>
      </trkpt>
      <trkpt lat="41.9441" lon="9.21777">
        <ele>1821</ele>
        <time>2015-06-21T05:21:44Z</time>
      </trkpt>
      <trkpt lat="41.94411" lon="9.21779">
        <ele>1821.8</ele>
        <time>2015-06-21T05:21:54Z</time>
      </trkpt>
      <trkpt lat="41.94411" lon="9.21782">
        <ele>1822.2</ele>
        <time>2015-06-21T05:21:59Z</time>
      </trkpt>
      <trkpt lat="41.94414" lon="9.21785">
        <ele>1823.8</ele>
        <time>2015-06-21T05:22:12Z</time>
      </trkpt>
      <trkpt lat="41.94417" lon="9.21785">
        <ele>1824.2</ele>
        <time>2015-06-21T05:22:18Z</time>
      </trkpt>
      <trkpt lat="41.94419" lon="9.21786">
        <ele>1825</ele>
        <time>2015-06-21T05:22:23Z</time>
      </trkpt>
      <trkpt lat="41.94422" lon="9.21787">
        <ele>1826.4</ele>
        <time>2015-06-21T05:22:31Z</time>
      </trkpt>
      <trkpt lat="41.94424" lon="9.21789">
        <ele>1826.2</ele>
        <time>2015-06-21T05:22:47Z</time>
      </trkpt>
      <trkpt lat="41.94443" lon="9.21805">
        <ele>1824.8</ele>
        <time>2015-06-21T05:23:28Z</time>
      </trkpt>
      <trkpt lat="41.94445" lon="9.21806">
        <ele>1825.8</ele>
        <time>2015-06-21T05:23:34Z</time>
      </trkpt>
      <trkpt lat="41.94448" lon="9.21807">
        <ele>1826.8</ele>
        <time>2015-06-21T05:23:41Z</time>
      </trkpt>
      <trkpt lat="41.94451" lon="9.21808">
        <ele>1827.6</ele>
        <time>2015-06-21T05:23:47Z</time>
      </trkpt>
      <trkpt lat="41.94464" lon="9.21822">
        <ele>1827.6</ele>
        <time>2015-06-21T05:24:26Z</time>
      </trkpt>
      <trkpt lat="41.94471" lon="9.21834">
        <ele>1826.4</ele>
        <time>2015-06-21T05:25:53Z</time>
      </trkpt>
      <trkpt lat="41.94468" lon="9.2183">
        <ele>1826.8</ele>
        <time>2015-06-21T05:26:00Z</time>
      </trkpt>
      <trkpt lat="41.94466" lon="9.21829">
        <ele>1827.4</ele>
        <time>2015-06-21T05:26:04Z</time>
      </trkpt>
      <trkpt lat="41.94457" lon="9.21812">
        <ele>1827.8</ele>
        <time>2015-06-21T05:26:28Z</time>
      </trkpt>
      <trkpt lat="41.94453" lon="9.21809">
        <ele>1827.6</ele>
        <time>2015-06-21T05:26:33Z</time>
      </trkpt>
      <trkpt lat="41.94451" lon="9.2181">
        <ele>1827.8</ele>
        <time>2015-06-21T05:26:38Z</time>
      </trkpt>
      <trkpt lat="41.9445" lon="9.21813">
        <ele>1827.6</ele>
        <time>2015-06-21T05:26:43Z</time>
      </trkpt>
      <trkpt lat="41.94451" lon="9.21815">
        <ele>1828.6</ele>
        <time>2015-06-21T05:26:48Z</time>
      </trkpt>
      <trkpt lat="41.9445" lon="9.21818">
        <ele>1829.8</ele>
        <time>2015-06-21T05:26:54Z</time>
      </trkpt>
      <trkpt lat="41.9445" lon="9.21819">
        <ele>1830.6</ele>
        <time>2015-06-21T05:26:58Z</time>
      </trkpt>
      <trkpt lat="41.94451" lon="9.21824">
        <ele>1832</ele>
        <time>2015-06-21T05:27:08Z</time>
      </trkpt>
      <trkpt lat="41.94452" lon="9.21828">
        <ele>1832.6</ele>
        <time>2015-06-21T05:27:15Z</time>
      </trkpt>
      <trkpt lat="41.94453" lon="9.21832">
        <ele>1834</ele>
        <time>2015-06-21T05:27:26Z</time>
      </trkpt>
      <trkpt lat="41.94455" lon="9.21835">
        <ele>1834.8</ele>
        <time>2015-06-21T05:27:36Z</time>
      </trkpt>
      <trkpt lat="41.94456" lon="9.21839">
        <ele>1835.6</ele>
        <time>2015-06-21T05:27:43Z</time>
      </trkpt>
      <trkpt lat="41.94457" lon="9.21852">
        <ele>1836.6</ele>
        <time>2015-06-21T05:28:06Z</time>
      </trkpt>
      <trkpt lat="41.94457" lon="9.21858">
        <ele>1837.2</ele>
        <time>2015-06-21T05:28:14Z</time>
      </trkpt>
      <trkpt lat="41.94459" lon="9.21865">
        <ele>1838.4</ele>
        <time>2015-06-21T05:28:22Z</time>
      </trkpt>
      <trkpt lat="41.9446" lon="9.21873">
        <ele>1839.4</ele>
        <time>2015-06-21T05:28:32Z</time>
      </trkpt>
      <trkpt lat="41.94459" lon="9.21878">
        <ele>1840.2</ele>
        <time>2015-06-21T05:28:39Z</time>
      </trkpt>
      <trkpt lat="41.94458" lon="9.21881">
        <ele>1841.2</ele>
        <time>2015-06-21T05:28:47Z</time>
      </trkpt>
      <trkpt lat="41.94458" lon="9.21884">
        <ele>1842.2</ele>
        <time>2015-06-21T05:28:55Z</time>
      </trkpt>
      <trkpt lat="41.94458" lon="9.21887">
        <ele>1843.2</ele>
        <time>2015-06-21T05:29:03Z</time>
      </trkpt>
      <trkpt lat="41.94459" lon="9.21889">
        <ele>1843.6</ele>
        <time>2015-06-21T05:29:09Z</time>
      </trkpt>
      <trkpt lat="41.94459" lon="9.2189">
        <ele>1844.8</ele>
        <time>2015-06-21T05:29:15Z</time>
      </trkpt>
      <trkpt lat="41.94464" lon="9.21896">
        <ele>1845.6</ele>
        <time>2015-06-21T05:29:50Z</time>
      </trkpt>
      <trkpt lat="41.94465" lon="9.21897">
        <ele>1846.2</ele>
        <time>2015-06-21T05:29:57Z</time>
      </trkpt>
      <trkpt lat="41.94467" lon="9.21899">
        <ele>1847.6</ele>
        <time>2015-06-21T05:30:09Z</time>
      </trkpt>
      <trkpt lat="41.94469" lon="9.219">
        <ele>1848.2</ele>
        <time>2015-06-21T05:30:18Z</time>
      </trkpt>
      <trkpt lat="41.94473" lon="9.21902">
        <ele>1849.6</ele>
        <time>2015-06-21T05:30:31Z</time>
      </trkpt>
      <trkpt lat="41.9448" lon="9.21908">
        <ele>1847.8</ele>
        <time>2015-06-21T05:31:54Z</time>
      </trkpt>
      <trkpt lat="41.9448" lon="9.21912">
        <ele>1846.4</ele>
        <time>2015-06-21T05:32:23Z</time>
      </trkpt>
      <trkpt lat="41.94483" lon="9.21916">
        <ele>1845</ele>
        <time>2015-06-21T05:32:38Z</time>
      </trkpt>
      <trkpt lat="41.94483" lon="9.21922">
        <ele>1843.6</ele>
        <time>2015-06-21T05:32:52Z</time>
      </trkpt>
      <trkpt lat="41.9449" lon="9.21931">
        <ele>1842.4</ele>
        <time>2015-06-21T05:33:20Z</time>
      </trkpt>
      <trkpt lat="41.94493" lon="9.21941">
        <ele>1841</ele>
        <time>2015-06-21T05:33:43Z</time>
      </trkpt>
      <trkpt lat="41.94494" lon="9.21945">
        <ele>1840.4</ele>
        <time>2015-06-21T05:33:47Z</time>
      </trkpt>
      <trkpt lat="41.94495" lon="9.21948">
        <ele>1840</ele>
        <time>2015-06-21T05:33:51Z</time>
      </trkpt>
      <trkpt lat="41.94501" lon="9.21959">
        <ele>1839.6</ele>
        <time>2015-06-21T05:34:15Z</time>
      </trkpt>
      <trkpt lat="41.94508" lon="9.21963">
        <ele>1839</ele>
        <time>2015-06-21T05:34:40Z</time>
      </trkpt>
      <trkpt lat="41.94508" lon="9.21963">
        <ele>1839</ele>
        <time>2015-06-21T05:34:43Z</time>
      </trkpt>
      <trkpt lat="41.94511" lon="9.21963">
        <ele>1839.2</ele>
        <time>2015-06-21T05:34:51Z</time>
      </trkpt>
      <trkpt lat="41.94514" lon="9.21966">
        <ele>1839.2</ele>
        <time>2015-06-21T05:34:56Z</time>
      </trkpt>
      <trkpt lat="41.94517" lon="9.21968">
        <ele>1839.2</ele>
        <time>2015-06-21T05:35:01Z</time>
      </trkpt>
      <trkpt lat="41.94521" lon="9.21974">
        <ele>1837.4</ele>
        <time>2015-06-21T05:35:11Z</time>
      </trkpt>
      <trkpt lat="41.94524" lon="9.21975">
        <ele>1836.4</ele>
        <time>2015-06-21T05:35:18Z</time>
      </trkpt>
      <trkpt lat="41.94527" lon="9.21977">
        <ele>1835.4</ele>
        <time>2015-06-21T05:35:24Z</time>
      </trkpt>
      <trkpt lat="41.94529" lon="9.2198">
        <ele>1834</ele>
        <time>2015-06-21T05:35:30Z</time>
      </trkpt>
      <trkpt lat="41.94532" lon="9.21982">
        <ele>1833.4</ele>
        <time>2015-06-21T05:35:34Z</time>
      </trkpt>
      <trkpt lat="41.94535" lon="9.21986">
        <ele>1832.2</ele>
        <time>2015-06-21T05:35:39Z</time>
      </trkpt>
      <trkpt lat="41.94537" lon="9.21989">
        <ele>1831.2</ele>
        <time>2015-06-21T05:35:43Z</time>
      </trkpt>
      <trkpt lat="41.94549" lon="9.21999">
        <ele>1829.6</ele>
        <time>2015-06-21T05:36:01Z</time>
      </trkpt>
      <trkpt lat="41.94552" lon="9.22002">
        <ele>1829.2</ele>
        <time>2015-06-21T05:36:06Z</time>
      </trkpt>
      <trkpt lat="41.94557" lon="9.22001">
        <ele>1827.8</ele>
        <time>2015-06-21T05:36:13Z</time>
      </trkpt>
      <trkpt lat="41.9456" lon="9.22003">
        <ele>1826.8</ele>
        <time>2015-06-21T05:36:19Z</time>
      </trkpt>
      <trkpt lat="41.94568" lon="9.22007">
        <ele>1825</ele>
        <time>2015-06-21T05:36:30Z</time>
      </trkpt>
      <trkpt lat="41.94572" lon="9.22009">
        <ele>1824.2</ele>
        <time>2015-06-21T05:36:37Z</time>
      </trkpt>
      <trkpt lat="41.94578" lon="9.22013">
        <ele>1822.8</ele>
        <time>2015-06-21T05:36:46Z</time>
      </trkpt>
      <trkpt lat="41.94582" lon="9.22013">
        <ele>1821.8</ele>
        <time>2015-06-21T05:36:52Z</time>
      </trkpt>
      <trkpt lat="41.94588" lon="9.22011">
        <ele>1820.6</ele>
        <time>2015-06-21T05:36:59Z</time>
      </trkpt>
      <trkpt lat="41.94593" lon="9.22009">
        <ele>1819.4</ele>
        <time>2015-06-21T05:37:05Z</time>
      </trkpt>
      <trkpt lat="41.94596" lon="9.22004">
        <ele>1818.2</ele>
        <time>2015-06-21T05:37:11Z</time>
      </trkpt>
      <trkpt lat="41.94601" lon="9.22004">
        <ele>1817</ele>
        <time>2015-06-21T05:37:18Z</time>
      </trkpt>
      <trkpt lat="41.94607" lon="9.22008">
        <ele>1815.6</ele>
        <time>2015-06-21T05:37:25Z</time>
      </trkpt>
      <trkpt lat="41.94614" lon="9.22015">
        <ele>1814.2</ele>
        <time>2015-06-21T05:37:34Z</time>
      </trkpt>
      <trkpt lat="41.94615" lon="9.22016">
        <ele>1814.2</ele>
        <time>2015-06-21T05:37:36Z</time>
      </trkpt>
      <trkpt lat="41.94618" lon="9.22018">
        <ele>1814</ele>
        <time>2015-06-21T05:37:39Z</time>
      </trkpt>
      <trkpt lat="41.94619" lon="9.2202">
        <ele>1813.8</ele>
        <time>2015-06-21T05:37:41Z</time>
      </trkpt>
      <trkpt lat="41.94622" lon="9.22022">
        <ele>1813.2</ele>
        <time>2015-06-21T05:37:45Z</time>
      </trkpt>
      <trkpt lat="41.94624" lon="9.22025">
        <ele>1812.4</ele>
        <time>2015-06-21T05:37:49Z</time>
      </trkpt>
      <trkpt lat="41.9463" lon="9.22027">
        <ele>1811.8</ele>
        <time>2015-06-21T05:37:57Z</time>
      </trkpt>
      <trkpt lat="41.94634" lon="9.22031">
        <ele>1811</ele>
        <time>2015-06-21T05:38:03Z</time>
      </trkpt>
      <trkpt lat="41.94637" lon="9.22036">
        <ele>1810.2</ele>
        <time>2015-06-21T05:38:08Z</time>
      </trkpt>
      <trkpt lat="41.94637" lon="9.22037">
        <ele>1809.6</ele>
        <time>2015-06-21T05:38:10Z</time>
      </trkpt>
      <trkpt lat="41.94639" lon="9.2204">
        <ele>1809.4</ele>
        <time>2015-06-21T05:38:14Z</time>
      </trkpt>
      <trkpt lat="41.94641" lon="9.22043">
        <ele>1809.2</ele>
        <time>2015-06-21T05:38:17Z</time>
      </trkpt>
      <trkpt lat="41.94642" lon="9.22048">
        <ele>1808.2</ele>
        <time>2015-06-21T05:38:21Z</time>
      </trkpt>
      <trkpt lat="41.94644" lon="9.22054">
        <ele>1807.6</ele>
        <time>2015-06-21T05:38:26Z</time>
      </trkpt>
      <trkpt lat="41.94644" lon="9.22054">
        <ele>1806.6</ele>
        <time>2015-06-21T05:38:31Z</time>
      </trkpt>
      <trkpt lat="41.94647" lon="9.22056">
        <ele>1806.4</ele>
        <time>2015-06-21T05:38:34Z</time>
      </trkpt>
      <trkpt lat="41.94651" lon="9.22059">
        <ele>1806</ele>
        <time>2015-06-21T05:38:39Z</time>
      </trkpt>
      <trkpt lat="41.94659" lon="9.22069">
        <ele>1804.4</ele>
        <time>2015-06-21T05:38:51Z</time>
      </trkpt>
      <trkpt lat="41.9466" lon="9.2207">
        <ele>1804.2</ele>
        <time>2015-06-21T05:38:53Z</time>
      </trkpt>
      <trkpt lat="41.94662" lon="9.2207">
        <ele>1804</ele>
        <time>2015-06-21T05:38:55Z</time>
      </trkpt>
      <trkpt lat="41.94666" lon="9.22076">
        <ele>1803.8</ele>
        <time>2015-06-21T05:39:00Z</time>
      </trkpt>
      <trkpt lat="41.94675" lon="9.22092">
        <ele>1802.4</ele>
        <time>2015-06-21T05:39:14Z</time>
      </trkpt>
      <trkpt lat="41.94679" lon="9.22103">
        <ele>1802.2</ele>
        <time>2015-06-21T05:39:23Z</time>
      </trkpt>
      <trkpt lat="41.9468" lon="9.22104">
        <ele>1802.4</ele>
        <time>2015-06-21T05:39:25Z</time>
      </trkpt>
      <trkpt lat="41.94682" lon="9.22106">
        <ele>1802.4</ele>
        <time>2015-06-21T05:39:27Z</time>
      </trkpt>
      <trkpt lat="41.94688" lon="9.22115">
        <ele>1802.6</ele>
        <time>2015-06-21T05:39:36Z</time>
      </trkpt>
      <trkpt lat="41.94692" lon="9.22118">
        <ele>1802.6</ele>
        <time>2015-06-21T05:39:41Z</time>
      </trkpt>
      <trkpt lat="41.94692" lon="9.2212">
        <ele>1802.6</ele>
        <time>2015-06-21T05:39:43Z</time>
      </trkpt>
      <trkpt lat="41.947" lon="9.22128">
        <ele>1803.6</ele>
        <time>2015-06-21T05:39:53Z</time>
      </trkpt>
      <trkpt lat="41.9471" lon="9.22137">
        <ele>1803.8</ele>
        <time>2015-06-21T05:40:06Z</time>
      </trkpt>
      <trkpt lat="41.94713" lon="9.22139">
        <ele>1803</ele>
        <time>2015-06-21T05:40:12Z</time>
      </trkpt>
      <trkpt lat="41.9472" lon="9.22141">
        <ele>1802.6</ele>
        <time>2015-06-21T05:40:19Z</time>
      </trkpt>
      <trkpt lat="41.94727" lon="9.22144">
        <ele>1801.8</ele>
        <time>2015-06-21T05:40:27Z</time>
      </trkpt>
      <trkpt lat="41.94727" lon="9.22144">
        <ele>1801.8</ele>
        <time>2015-06-21T05:40:28Z</time>
      </trkpt>
      <trkpt lat="41.94736" lon="9.22146">
        <ele>1800.8</ele>
        <time>2015-06-21T05:40:39Z</time>
      </trkpt>
      <trkpt lat="41.94745" lon="9.22148">
        <ele>1799.8</ele>
        <time>2015-06-21T05:40:57Z</time>
      </trkpt>
      <trkpt lat="41.94751" lon="9.22149">
        <ele>1798.8</ele>
        <time>2015-06-21T05:41:06Z</time>
      </trkpt>
      <trkpt lat="41.94756" lon="9.2215">
        <ele>1797.2</ele>
        <time>2015-06-21T05:41:15Z</time>
      </trkpt>
      <trkpt lat="41.94767" lon="9.22163">
        <ele>1795.8</ele>
        <time>2015-06-21T05:41:40Z</time>
      </trkpt>
      <trkpt lat="41.94771" lon="9.22168">
        <ele>1794.6</ele>
        <time>2015-06-21T05:41:51Z</time>
      </trkpt>
      <trkpt lat="41.94777" lon="9.2217">
        <ele>1793.6</ele>
        <time>2015-06-21T05:42:02Z</time>
      </trkpt>
      <trkpt lat="41.94782" lon="9.22174">
        <ele>1792.2</ele>
        <time>2015-06-21T05:42:17Z</time>
      </trkpt>
      <trkpt lat="41.94785" lon="9.22172">
        <ele>1791.8</ele>
        <time>2015-06-21T05:42:22Z</time>
      </trkpt>
      <trkpt lat="41.94789" lon="9.22175">
        <ele>1789.4</ele>
        <time>2015-06-21T05:42:44Z</time>
      </trkpt>
      <trkpt lat="41.94797" lon="9.22187">
        <ele>1788.2</ele>
        <time>2015-06-21T05:43:02Z</time>
      </trkpt>
      <trkpt lat="41.94801" lon="9.22192">
        <ele>1787.6</ele>
        <time>2015-06-21T05:43:10Z</time>
      </trkpt>
      <trkpt lat="41.9481" lon="9.22202">
        <ele>1785.8</ele>
        <time>2015-06-21T05:43:22Z</time>
      </trkpt>
      <trkpt lat="41.9481" lon="9.22205">
        <ele>1785.8</ele>
        <time>2015-06-21T05:43:25Z</time>
      </trkpt>
      <trkpt lat="41.94813" lon="9.22209">
        <ele>1785.4</ele>
        <time>2015-06-21T05:43:30Z</time>
      </trkpt>
      <trkpt lat="41.94816" lon="9.22209">
        <ele>1785.2</ele>
        <time>2015-06-21T05:43:32Z</time>
      </trkpt>
      <trkpt lat="41.94822" lon="9.22219">
        <ele>1784.8</ele>
        <time>2015-06-21T05:43:41Z</time>
      </trkpt>
      <trkpt lat="41.94824" lon="9.22221">
        <ele>1785</ele>
        <time>2015-06-21T05:43:44Z</time>
      </trkpt>
      <trkpt lat="41.94827" lon="9.22225">
        <ele>1785</ele>
        <time>2015-06-21T05:43:48Z</time>
      </trkpt>
      <trkpt lat="41.94828" lon="9.22226">
        <ele>1785</ele>
        <time>2015-06-21T05:43:50Z</time>
      </trkpt>
      <trkpt lat="41.94831" lon="9.22231">
        <ele>1785.4</ele>
        <time>2015-06-21T05:43:55Z</time>
      </trkpt>
      <trkpt lat="41.94832" lon="9.22232">
        <ele>1785.8</ele>
        <time>2015-06-21T05:43:56Z</time>
      </trkpt>
      <trkpt lat="41.94846" lon="9.2224">
        <ele>1786.6</ele>
        <time>2015-06-21T05:44:11Z</time>
      </trkpt>
      <trkpt lat="41.94848" lon="9.22239">
        <ele>1786.8</ele>
        <time>2015-06-21T05:44:13Z</time>
      </trkpt>
      <trkpt lat="41.94849" lon="9.22239">
        <ele>1786.8</ele>
        <time>2015-06-21T05:44:15Z</time>
      </trkpt>
      <trkpt lat="41.9486" lon="9.22238">
        <ele>1787.4</ele>
        <time>2015-06-21T05:44:28Z</time>
      </trkpt>
      <trkpt lat="41.94866" lon="9.22236">
        <ele>1788.2</ele>
        <time>2015-06-21T05:44:35Z</time>
      </trkpt>
      <trkpt lat="41.94877" lon="9.22236">
        <ele>1789.4</ele>
        <time>2015-06-21T05:44:51Z</time>
      </trkpt>
      <trkpt lat="41.94882" lon="9.22236">
        <ele>1790</ele>
        <time>2015-06-21T05:44:59Z</time>
      </trkpt>
      <trkpt lat="41.94889" lon="9.22234">
        <ele>1791.2</ele>
        <time>2015-06-21T05:45:13Z</time>
      </trkpt>
      <trkpt lat="41.94895" lon="9.22232">
        <ele>1791.8</ele>
        <time>2015-06-21T05:45:20Z</time>
      </trkpt>
      <trkpt lat="41.94906" lon="9.2223">
        <ele>1793</ele>
        <time>2015-06-21T05:45:34Z</time>
      </trkpt>
      <trkpt lat="41.94911" lon="9.22231">
        <ele>1793.8</ele>
        <time>2015-06-21T05:45:44Z</time>
      </trkpt>
      <trkpt lat="41.94914" lon="9.22229">
        <ele>1794.4</ele>
        <time>2015-06-21T05:45:50Z</time>
      </trkpt>
      <trkpt lat="41.94919" lon="9.22228">
        <ele>1795.6</ele>
        <time>2015-06-21T05:46:01Z</time>
      </trkpt>
      <trkpt lat="41.94925" lon="9.22228">
        <ele>1796.6</ele>
        <time>2015-06-21T05:46:11Z</time>
      </trkpt>
      <trkpt lat="41.94929" lon="9.22231">
        <ele>1797.6</ele>
        <time>2015-06-21T05:46:21Z</time>
      </trkpt>
      <trkpt lat="41.94931" lon="9.22231">
        <ele>1798.2</ele>
        <time>2015-06-21T05:46:28Z</time>
      </trkpt>
      <trkpt lat="41.94945" lon="9.22233">
        <ele>1799.6</ele>
        <time>2015-06-21T05:46:46Z</time>
      </trkpt>
      <trkpt lat="41.94959" lon="9.22238">
        <ele>1800.2</ele>
        <time>2015-06-21T05:47:02Z</time>
      </trkpt>
      <trkpt lat="41.94976" lon="9.22244">
        <ele>1801</ele>
        <time>2015-06-21T05:47:21Z</time>
      </trkpt>
      <trkpt lat="41.94977" lon="9.22243">
        <ele>1801</ele>
        <time>2015-06-21T05:47:23Z</time>
      </trkpt>
      <trkpt lat="41.95007" lon="9.2224">
        <ele>1800.2</ele>
        <time>2015-06-21T05:48:12Z</time>
      </trkpt>
      <trkpt lat="41.95008" lon="9.22237">
        <ele>1799.8</ele>
        <time>2015-06-21T05:48:16Z</time>
      </trkpt>
      <trkpt lat="41.95013" lon="9.22236">
        <ele>1799</ele>
        <time>2015-06-21T05:48:42Z</time>
      </trkpt>
      <trkpt lat="41.95019" lon="9.22241">
        <ele>1799</ele>
        <time>2015-06-21T05:48:49Z</time>
      </trkpt>
      <trkpt lat="41.95028" lon="9.22248">
        <ele>1797.8</ele>
        <time>2015-06-21T05:48:59Z</time>
      </trkpt>
      <trkpt lat="41.95035" lon="9.22248">
        <ele>1796.8</ele>
        <time>2015-06-21T05:49:07Z</time>
      </trkpt>
      <trkpt lat="41.95041" lon="9.22249">
        <ele>1795.4</ele>
        <time>2015-06-21T05:49:15Z</time>
      </trkpt>
      <trkpt lat="41.95045" lon="9.2225">
        <ele>1794.6</ele>
        <time>2015-06-21T05:49:21Z</time>
      </trkpt>
      <trkpt lat="41.95053" lon="9.22252">
        <ele>1793</ele>
        <time>2015-06-21T05:49:30Z</time>
      </trkpt>
      <trkpt lat="41.95057" lon="9.22253">
        <ele>1792.4</ele>
        <time>2015-06-21T05:49:36Z</time>
      </trkpt>
      <trkpt lat="41.95064" lon="9.22258">
        <ele>1791</ele>
        <time>2015-06-21T05:49:44Z</time>
      </trkpt>
      <trkpt lat="41.9507" lon="9.22263">
        <ele>1790</ele>
        <time>2015-06-21T05:49:52Z</time>
      </trkpt>
      <trkpt lat="41.95073" lon="9.22264">
        <ele>1789.8</ele>
        <time>2015-06-21T05:49:56Z</time>
      </trkpt>
      <trkpt lat="41.9508" lon="9.22267">
        <ele>1788.6</ele>
        <time>2015-06-21T05:50:04Z</time>
      </trkpt>
      <trkpt lat="41.95082" lon="9.22266">
        <ele>1788.2</ele>
        <time>2015-06-21T05:50:06Z</time>
      </trkpt>
      <trkpt lat="41.95084" lon="9.22267">
        <ele>1787.8</ele>
        <time>2015-06-21T05:50:08Z</time>
      </trkpt>
      <trkpt lat="41.9509" lon="9.22267">
        <ele>1787.2</ele>
        <time>2015-06-21T05:50:15Z</time>
      </trkpt>
      <trkpt lat="41.95095" lon="9.22265">
        <ele>1786.6</ele>
        <time>2015-06-21T05:50:20Z</time>
      </trkpt>
      <trkpt lat="41.95098" lon="9.22267">
        <ele>1786.2</ele>
        <time>2015-06-21T05:50:25Z</time>
      </trkpt>
      <trkpt lat="41.95102" lon="9.2227">
        <ele>1785.6</ele>
        <time>2015-06-21T05:50:31Z</time>
      </trkpt>
      <trkpt lat="41.95104" lon="9.22273">
        <ele>1784.8</ele>
        <time>2015-06-21T05:50:35Z</time>
      </trkpt>
      <trkpt lat="41.95108" lon="9.22278">
        <ele>1782.8</ele>
        <time>2015-06-21T05:50:43Z</time>
      </trkpt>
      <trkpt lat="41.9511" lon="9.22279">
        <ele>1782.2</ele>
        <time>2015-06-21T05:50:47Z</time>
      </trkpt>
      <trkpt lat="41.95111" lon="9.22281">
        <ele>1782</ele>
        <time>2015-06-21T05:50:49Z</time>
      </trkpt>
      <trkpt lat="41.95112" lon="9.22287">
        <ele>1781</ele>
        <time>2015-06-21T05:50:55Z</time>
      </trkpt>
      <trkpt lat="41.95115" lon="9.22293">
        <ele>1779.6</ele>
        <time>2015-06-21T05:51:02Z</time>
      </trkpt>
      <trkpt lat="41.95116" lon="9.22297">
        <ele>1778.6</ele>
        <time>2015-06-21T05:51:08Z</time>
      </trkpt>
      <trkpt lat="41.95119" lon="9.223">
        <ele>1777.6</ele>
        <time>2015-06-21T05:51:14Z</time>
      </trkpt>
      <trkpt lat="41.95123" lon="9.22303">
        <ele>1775.8</ele>
        <time>2015-06-21T05:51:24Z</time>
      </trkpt>
      <trkpt lat="41.95126" lon="9.22307">
        <ele>1774.8</ele>
        <time>2015-06-21T05:51:33Z</time>
      </trkpt>
      <trkpt lat="41.95128" lon="9.2231">
        <ele>1773.8</ele>
        <time>2015-06-21T05:51:41Z</time>
      </trkpt>
      <trkpt lat="41.95131" lon="9.22313">
        <ele>1773</ele>
        <time>2015-06-21T05:51:49Z</time>
      </trkpt>
      <trkpt lat="41.95134" lon="9.22314">
        <ele>1771.8</ele>
        <time>2015-06-21T05:51:56Z</time>
      </trkpt>
      <trkpt lat="41.95138" lon="9.22315">
        <ele>1770.4</ele>
        <time>2015-06-21T05:52:05Z</time>
      </trkpt>
      <trkpt lat="41.95141" lon="9.22319">
        <ele>1769.6</ele>
        <time>2015-06-21T05:52:13Z</time>
      </trkpt>
      <trkpt lat="41.95143" lon="9.22316">
        <ele>1768</ele>
        <time>2015-06-21T05:52:27Z</time>
      </trkpt>
      <trkpt lat="41.95145" lon="9.22315">
        <ele>1767</ele>
        <time>2015-06-21T05:52:35Z</time>
      </trkpt>
      <trkpt lat="41.95147" lon="9.22309">
        <ele>1765.8</ele>
        <time>2015-06-21T05:52:43Z</time>
      </trkpt>
      <trkpt lat="41.95148" lon="9.22303">
        <ele>1764.6</ele>
        <time>2015-06-21T05:52:51Z</time>
      </trkpt>
      <trkpt lat="41.95149" lon="9.223">
        <ele>1763.6</ele>
        <time>2015-06-21T05:52:58Z</time>
      </trkpt>
      <trkpt lat="41.95151" lon="9.22301">
        <ele>1762.6</ele>
        <time>2015-06-21T05:53:05Z</time>
      </trkpt>
      <trkpt lat="41.95154" lon="9.22301">
        <ele>1761.2</ele>
        <time>2015-06-21T05:53:13Z</time>
      </trkpt>
      <trkpt lat="41.95157" lon="9.22304">
        <ele>1760</ele>
        <time>2015-06-21T05:53:20Z</time>
      </trkpt>
      <trkpt lat="41.95158" lon="9.22303">
        <ele>1758.8</ele>
        <time>2015-06-21T05:53:30Z</time>
      </trkpt>
      <trkpt lat="41.95157" lon="9.22296">
        <ele>1757.6</ele>
        <time>2015-06-21T05:53:41Z</time>
      </trkpt>
      <trkpt lat="41.95158" lon="9.22289">
        <ele>1756.4</ele>
        <time>2015-06-21T05:53:51Z</time>
      </trkpt>
      <trkpt lat="41.95159" lon="9.22284">
        <ele>1755.4</ele>
        <time>2015-06-21T05:53:59Z</time>
      </trkpt>
      <trkpt lat="41.95159" lon="9.22278">
        <ele>1753.8</ele>
        <time>2015-06-21T05:54:10Z</time>
      </trkpt>
      <trkpt lat="41.95162" lon="9.22279">
        <ele>1753</ele>
        <time>2015-06-21T05:54:18Z</time>
      </trkpt>
      <trkpt lat="41.95166" lon="9.22284">
        <ele>1751.4</ele>
        <time>2015-06-21T05:54:27Z</time>
      </trkpt>
      <trkpt lat="41.9517" lon="9.22288">
        <ele>1750.6</ele>
        <time>2015-06-21T05:54:36Z</time>
      </trkpt>
      <trkpt lat="41.95175" lon="9.22298">
        <ele>1749</ele>
        <time>2015-06-21T05:54:49Z</time>
      </trkpt>
      <trkpt lat="41.95178" lon="9.22303">
        <ele>1748</ele>
        <time>2015-06-21T05:54:59Z</time>
      </trkpt>
      <trkpt lat="41.95183" lon="9.22308">
        <ele>1746.8</ele>
        <time>2015-06-21T05:55:08Z</time>
      </trkpt>
      <trkpt lat="41.95184" lon="9.22306">
        <ele>1745.6</ele>
        <time>2015-06-21T05:55:21Z</time>
      </trkpt>
      <trkpt lat="41.95182" lon="9.22301">
        <ele>1745</ele>
        <time>2015-06-21T05:55:27Z</time>
      </trkpt>
      <trkpt lat="41.95185" lon="9.22299">
        <ele>1743.2</ele>
        <time>2015-06-21T05:55:36Z</time>
      </trkpt>
      <trkpt lat="41.95188" lon="9.22302">
        <ele>1742.4</ele>
        <time>2015-06-21T05:55:44Z</time>
      </trkpt>
      <trkpt lat="41.95193" lon="9.22304">
        <ele>1741</ele>
        <time>2015-06-21T05:55:55Z</time>
      </trkpt>
      <trkpt lat="41.95195" lon="9.22302">
        <ele>1739.6</ele>
        <time>2015-06-21T05:56:04Z</time>
      </trkpt>
      <trkpt lat="41.95195" lon="9.22295">
        <ele>1738.6</ele>
        <time>2015-06-21T05:56:13Z</time>
      </trkpt>
      <trkpt lat="41.95194" lon="9.22292">
        <ele>1737.4</ele>
        <time>2015-06-21T05:56:20Z</time>
      </trkpt>
      <trkpt lat="41.95193" lon="9.22286">
        <ele>1736</ele>
        <time>2015-06-21T05:56:35Z</time>
      </trkpt>
      <trkpt lat="41.95192" lon="9.2228">
        <ele>1735</ele>
        <time>2015-06-21T05:56:45Z</time>
      </trkpt>
      <trkpt lat="41.95191" lon="9.22274">
        <ele>1733.8</ele>
        <time>2015-06-21T05:56:56Z</time>
      </trkpt>
      <trkpt lat="41.95192" lon="9.2227">
        <ele>1732.2</ele>
        <time>2015-06-21T05:57:08Z</time>
      </trkpt>
      <trkpt lat="41.95192" lon="9.22266">
        <ele>1731.8</ele>
        <time>2015-06-21T05:57:13Z</time>
      </trkpt>
      <trkpt lat="41.95193" lon="9.22261">
        <ele>1730.2</ele>
        <time>2015-06-21T05:57:21Z</time>
      </trkpt>
      <trkpt lat="41.95194" lon="9.22256">
        <ele>1729</ele>
        <time>2015-06-21T05:57:31Z</time>
      </trkpt>
      <trkpt lat="41.95197" lon="9.22256">
        <ele>1728.4</ele>
        <time>2015-06-21T05:57:36Z</time>
      </trkpt>
      <trkpt lat="41.95201" lon="9.22263">
        <ele>1726.6</ele>
        <time>2015-06-21T05:57:46Z</time>
      </trkpt>
      <trkpt lat="41.95204" lon="9.2227">
        <ele>1725.4</ele>
        <time>2015-06-21T05:57:53Z</time>
      </trkpt>
      <trkpt lat="41.95212" lon="9.22283">
        <ele>1724</ele>
        <time>2015-06-21T05:58:15Z</time>
      </trkpt>
      <trkpt lat="41.95215" lon="9.22286">
        <ele>1723.2</ele>
        <time>2015-06-21T05:58:22Z</time>
      </trkpt>
      <trkpt lat="41.95216" lon="9.22289">
        <ele>1722</ele>
        <time>2015-06-21T05:58:28Z</time>
      </trkpt>
      <trkpt lat="41.9522" lon="9.22293">
        <ele>1720.6</ele>
        <time>2015-06-21T05:58:38Z</time>
      </trkpt>
      <trkpt lat="41.95223" lon="9.22297">
        <ele>1719.8</ele>
        <time>2015-06-21T05:58:46Z</time>
      </trkpt>
      <trkpt lat="41.95227" lon="9.223">
        <ele>1718.6</ele>
        <time>2015-06-21T05:58:54Z</time>
      </trkpt>
      <trkpt lat="41.95231" lon="9.22307">
        <ele>1717.2</ele>
        <time>2015-06-21T05:59:05Z</time>
      </trkpt>
      <trkpt lat="41.95234" lon="9.22311">
        <ele>1716.4</ele>
        <time>2015-06-21T05:59:12Z</time>
      </trkpt>
      <trkpt lat="41.95236" lon="9.22315">
        <ele>1715.2</ele>
        <time>2015-06-21T05:59:20Z</time>
      </trkpt>
      <trkpt lat="41.95238" lon="9.22314">
        <ele>1714</ele>
        <time>2015-06-21T05:59:27Z</time>
      </trkpt>
      <trkpt lat="41.9524" lon="9.2231">
        <ele>1712.8</ele>
        <time>2015-06-21T05:59:36Z</time>
      </trkpt>
      <trkpt lat="41.95241" lon="9.22306">
        <ele>1711.8</ele>
        <time>2015-06-21T05:59:45Z</time>
      </trkpt>
      <trkpt lat="41.95243" lon="9.22306">
        <ele>1710.8</ele>
        <time>2015-06-21T05:59:52Z</time>
      </trkpt>
      <trkpt lat="41.95245" lon="9.22306">
        <ele>1709.4</ele>
        <time>2015-06-21T05:59:59Z</time>
      </trkpt>
      <trkpt lat="41.95247" lon="9.22308">
        <ele>1708.4</ele>
        <time>2015-06-21T06:00:05Z</time>
      </trkpt>
      <trkpt lat="41.9525" lon="9.22311">
        <ele>1707.2</ele>
        <time>2015-06-21T06:00:14Z</time>
      </trkpt>
      <trkpt lat="41.9525" lon="9.22316">
        <ele>1706.4</ele>
        <time>2015-06-21T06:00:20Z</time>
      </trkpt>
      <trkpt lat="41.95252" lon="9.22321">
        <ele>1704.6</ele>
        <time>2015-06-21T06:00:34Z</time>
      </trkpt>
      <trkpt lat="41.95252" lon="9.22329">
        <ele>1703.4</ele>
        <time>2015-06-21T06:01:20Z</time>
      </trkpt>
      <trkpt lat="41.95255" lon="9.22329">
        <ele>1702.4</ele>
        <time>2015-06-21T06:01:28Z</time>
      </trkpt>
      <trkpt lat="41.95257" lon="9.22328">
        <ele>1702</ele>
        <time>2015-06-21T06:01:32Z</time>
      </trkpt>
      <trkpt lat="41.95258" lon="9.22327">
        <ele>1701.8</ele>
        <time>2015-06-21T06:01:33Z</time>
      </trkpt>
      <trkpt lat="41.95262" lon="9.22327">
        <ele>1700.4</ele>
        <time>2015-06-21T06:01:40Z</time>
      </trkpt>
      <trkpt lat="41.95267" lon="9.22324">
        <ele>1698.8</ele>
        <time>2015-06-21T06:01:49Z</time>
      </trkpt>
      <trkpt lat="41.95268" lon="9.22326">
        <ele>1697.6</ele>
        <time>2015-06-21T06:02:00Z</time>
      </trkpt>
      <trkpt lat="41.95265" lon="9.22329">
        <ele>1697</ele>
        <time>2015-06-21T06:02:07Z</time>
      </trkpt>
      <trkpt lat="41.95263" lon="9.22334">
        <ele>1695.6</ele>
        <time>2015-06-21T06:02:16Z</time>
      </trkpt>
      <trkpt lat="41.95266" lon="9.22335">
        <ele>1694.6</ele>
        <time>2015-06-21T06:02:23Z</time>
      </trkpt>
      <trkpt lat="41.95269" lon="9.22334">
        <ele>1694</ele>
        <time>2015-06-21T06:02:28Z</time>
      </trkpt>
      <trkpt lat="41.95273" lon="9.22334">
        <ele>1692.6</ele>
        <time>2015-06-21T06:02:34Z</time>
      </trkpt>
      <trkpt lat="41.95278" lon="9.22332">
        <ele>1691</ele>
        <time>2015-06-21T06:02:42Z</time>
      </trkpt>
      <trkpt lat="41.95281" lon="9.22332">
        <ele>1690</ele>
        <time>2015-06-21T06:02:50Z</time>
      </trkpt>
      <trkpt lat="41.95286" lon="9.22331">
        <ele>1688.4</ele>
        <time>2015-06-21T06:03:04Z</time>
      </trkpt>
      <trkpt lat="41.95291" lon="9.22331">
        <ele>1687.2</ele>
        <time>2015-06-21T06:03:14Z</time>
      </trkpt>
      <trkpt lat="41.95295" lon="9.22333">
        <ele>1686.8</ele>
        <time>2015-06-21T06:03:21Z</time>
      </trkpt>
      <trkpt lat="41.95298" lon="9.22334">
        <ele>1684.8</ele>
        <time>2015-06-21T06:03:30Z</time>
      </trkpt>
      <trkpt lat="41.95301" lon="9.22335">
        <ele>1684.6</ele>
        <time>2015-06-21T06:03:35Z</time>
      </trkpt>
      <trkpt lat="41.95303" lon="9.22337">
        <ele>1683.4</ele>
        <time>2015-06-21T06:03:40Z</time>
      </trkpt>
      <trkpt lat="41.95306" lon="9.2234">
        <ele>1682.2</ele>
        <time>2015-06-21T06:03:46Z</time>
      </trkpt>
      <trkpt lat="41.95311" lon="9.22339">
        <ele>1681</ele>
        <time>2015-06-21T06:03:52Z</time>
      </trkpt>
      <trkpt lat="41.95316" lon="9.22341">
        <ele>1679.6</ele>
        <time>2015-06-21T06:04:00Z</time>
      </trkpt>
      <trkpt lat="41.95319" lon="9.2234">
        <ele>1678.6</ele>
        <time>2015-06-21T06:04:06Z</time>
      </trkpt>
      <trkpt lat="41.95322" lon="9.2234">
        <ele>1678</ele>
        <time>2015-06-21T06:04:11Z</time>
      </trkpt>
      <trkpt lat="41.95327" lon="9.22342">
        <ele>1676.4</ele>
        <time>2015-06-21T06:04:17Z</time>
      </trkpt>
      <trkpt lat="41.95332" lon="9.22345">
        <ele>1675.4</ele>
        <time>2015-06-21T06:04:24Z</time>
      </trkpt>
      <trkpt lat="41.95337" lon="9.22348">
        <ele>1674</ele>
        <time>2015-06-21T06:04:31Z</time>
      </trkpt>
      <trkpt lat="41.95338" lon="9.22348">
        <ele>1673.8</ele>
        <time>2015-06-21T06:04:32Z</time>
      </trkpt>
      <trkpt lat="41.95345" lon="9.22347">
        <ele>1672.8</ele>
        <time>2015-06-21T06:04:43Z</time>
      </trkpt>
      <trkpt lat="41.9535" lon="9.22347">
        <ele>1671.4</ele>
        <time>2015-06-21T06:04:57Z</time>
      </trkpt>
      <trkpt lat="41.95352" lon="9.22349">
        <ele>1670.6</ele>
        <time>2015-06-21T06:05:06Z</time>
      </trkpt>
      <trkpt lat="41.95355" lon="9.22351">
        <ele>1669.2</ele>
        <time>2015-06-21T06:05:13Z</time>
      </trkpt>
      <trkpt lat="41.95358" lon="9.22354">
        <ele>1668.2</ele>
        <time>2015-06-21T06:05:21Z</time>
      </trkpt>
      <trkpt lat="41.95361" lon="9.22355">
        <ele>1667.2</ele>
        <time>2015-06-21T06:05:27Z</time>
      </trkpt>
      <trkpt lat="41.95364" lon="9.22358">
        <ele>1665.8</ele>
        <time>2015-06-21T06:05:34Z</time>
      </trkpt>
      <trkpt lat="41.95367" lon="9.22363">
        <ele>1664.8</ele>
        <time>2015-06-21T06:05:41Z</time>
      </trkpt>
      <trkpt lat="41.95372" lon="9.22367">
        <ele>1663.2</ele>
        <time>2015-06-21T06:05:50Z</time>
      </trkpt>
      <trkpt lat="41.95377" lon="9.22369">
        <ele>1662.4</ele>
        <time>2015-06-21T06:05:58Z</time>
      </trkpt>
      <trkpt lat="41.9538" lon="9.22372">
        <ele>1661.4</ele>
        <time>2015-06-21T06:06:04Z</time>
      </trkpt>
      <trkpt lat="41.95383" lon="9.22375">
        <ele>1660</ele>
        <time>2015-06-21T06:06:13Z</time>
      </trkpt>
      <trkpt lat="41.95386" lon="9.22378">
        <ele>1659.2</ele>
        <time>2015-06-21T06:06:19Z</time>
      </trkpt>
      <trkpt lat="41.95387" lon="9.2238">
        <ele>1658.2</ele>
        <time>2015-06-21T06:06:25Z</time>
      </trkpt>
      <trkpt lat="41.95383" lon="9.22382">
        <ele>1656.6</ele>
        <time>2015-06-21T06:06:33Z</time>
      </trkpt>
      <trkpt lat="41.95378" lon="9.22381">
        <ele>1655.6</ele>
        <time>2015-06-21T06:06:40Z</time>
      </trkpt>
      <trkpt lat="41.95373" lon="9.22383">
        <ele>1654.4</ele>
        <time>2015-06-21T06:06:48Z</time>
      </trkpt>
      <trkpt lat="41.95369" lon="9.22383">
        <ele>1654</ele>
        <time>2015-06-21T06:06:53Z</time>
      </trkpt>
      <trkpt lat="41.95363" lon="9.22384">
        <ele>1652.4</ele>
        <time>2015-06-21T06:07:00Z</time>
      </trkpt>
      <trkpt lat="41.95357" lon="9.22386">
        <ele>1651.4</ele>
        <time>2015-06-21T06:07:08Z</time>
      </trkpt>
      <trkpt lat="41.9535" lon="9.22389">
        <ele>1649.8</ele>
        <time>2015-06-21T06:07:19Z</time>
      </trkpt>
      <trkpt lat="41.95345" lon="9.22392">
        <ele>1649</ele>
        <time>2015-06-21T06:07:27Z</time>
      </trkpt>
      <trkpt lat="41.95341" lon="9.22396">
        <ele>1647.6</ele>
        <time>2015-06-21T06:07:36Z</time>
      </trkpt>
      <trkpt lat="41.95339" lon="9.22397">
        <ele>1647</ele>
        <time>2015-06-21T06:07:42Z</time>
      </trkpt>
      <trkpt lat="41.95336" lon="9.22404">
        <ele>1645.4</ele>
        <time>2015-06-21T06:07:50Z</time>
      </trkpt>
      <trkpt lat="41.95338" lon="9.22405">
        <ele>1644.8</ele>
        <time>2015-06-21T06:07:54Z</time>
      </trkpt>
      <trkpt lat="41.95339" lon="9.22406">
        <ele>1644.8</ele>
        <time>2015-06-21T06:07:55Z</time>
      </trkpt>
      <trkpt lat="41.95345" lon="9.22404">
        <ele>1643.4</ele>
        <time>2015-06-21T06:08:03Z</time>
      </trkpt>
      <trkpt lat="41.95351" lon="9.22403">
        <ele>1642.2</ele>
        <time>2015-06-21T06:08:12Z</time>
      </trkpt>
      <trkpt lat="41.95355" lon="9.22405">
        <ele>1641.2</ele>
        <time>2015-06-21T06:08:20Z</time>
      </trkpt>
      <trkpt lat="41.95358" lon="9.22406">
        <ele>1640.2</ele>
        <time>2015-06-21T06:08:27Z</time>
      </trkpt>
      <trkpt lat="41.95363" lon="9.22409">
        <ele>1638.6</ele>
        <time>2015-06-21T06:08:43Z</time>
      </trkpt>
      <trkpt lat="41.95366" lon="9.22412">
        <ele>1638</ele>
        <time>2015-06-21T06:08:50Z</time>
      </trkpt>
      <trkpt lat="41.95369" lon="9.22413">
        <ele>1636.8</ele>
        <time>2015-06-21T06:08:58Z</time>
      </trkpt>
      <trkpt lat="41.95372" lon="9.22416">
        <ele>1635.8</ele>
        <time>2015-06-21T06:09:05Z</time>
      </trkpt>
      <trkpt lat="41.95372" lon="9.2242">
        <ele>1634.6</ele>
        <time>2015-06-21T06:09:12Z</time>
      </trkpt>
      <trkpt lat="41.9537" lon="9.2242">
        <ele>1633.8</ele>
        <time>2015-06-21T06:09:17Z</time>
      </trkpt>
      <trkpt lat="41.95365" lon="9.22422">
        <ele>1632.4</ele>
        <time>2015-06-21T06:09:22Z</time>
      </trkpt>
      <trkpt lat="41.95362" lon="9.22423">
        <ele>1632.2</ele>
        <time>2015-06-21T06:09:25Z</time>
      </trkpt>
      <trkpt lat="41.95351" lon="9.22426">
        <ele>1630.6</ele>
        <time>2015-06-21T06:09:35Z</time>
      </trkpt>
      <trkpt lat="41.95343" lon="9.22427">
        <ele>1629.6</ele>
        <time>2015-06-21T06:09:47Z</time>
      </trkpt>
      <trkpt lat="41.95345" lon="9.22429">
        <ele>1628.6</ele>
        <time>2015-06-21T06:09:55Z</time>
      </trkpt>
      <trkpt lat="41.95348" lon="9.2243">
        <ele>1627.6</ele>
        <time>2015-06-21T06:10:02Z</time>
      </trkpt>
      <trkpt lat="41.95352" lon="9.22432">
        <ele>1626.4</ele>
        <time>2015-06-21T06:10:10Z</time>
      </trkpt>
      <trkpt lat="41.95357" lon="9.22433">
        <ele>1625.4</ele>
        <time>2015-06-21T06:10:17Z</time>
      </trkpt>
      <trkpt lat="41.95361" lon="9.22436">
        <ele>1624.4</ele>
        <time>2015-06-21T06:10:24Z</time>
      </trkpt>
      <trkpt lat="41.95363" lon="9.22439">
        <ele>1623.4</ele>
        <time>2015-06-21T06:10:29Z</time>
      </trkpt>
      <trkpt lat="41.95364" lon="9.2244">
        <ele>1623.2</ele>
        <time>2015-06-21T06:10:32Z</time>
      </trkpt>
      <trkpt lat="41.95366" lon="9.22442">
        <ele>1622</ele>
        <time>2015-06-21T06:10:40Z</time>
      </trkpt>
      <trkpt lat="41.95362" lon="9.22444">
        <ele>1621</ele>
        <time>2015-06-21T06:10:47Z</time>
      </trkpt>
      <trkpt lat="41.95355" lon="9.22444">
        <ele>1619.8</ele>
        <time>2015-06-21T06:10:56Z</time>
      </trkpt>
      <trkpt lat="41.9535" lon="9.22446">
        <ele>1618.6</ele>
        <time>2015-06-21T06:11:03Z</time>
      </trkpt>
      <trkpt lat="41.9534" lon="9.22447">
        <ele>1617.4</ele>
        <time>2015-06-21T06:11:14Z</time>
      </trkpt>
      <trkpt lat="41.95339" lon="9.22449">
        <ele>1617.2</ele>
        <time>2015-06-21T06:11:15Z</time>
      </trkpt>
      <trkpt lat="41.95343" lon="9.22451">
        <ele>1616.4</ele>
        <time>2015-06-21T06:11:23Z</time>
      </trkpt>
      <trkpt lat="41.95347" lon="9.22453">
        <ele>1615.2</ele>
        <time>2015-06-21T06:11:31Z</time>
      </trkpt>
      <trkpt lat="41.95351" lon="9.22455">
        <ele>1614</ele>
        <time>2015-06-21T06:11:39Z</time>
      </trkpt>
      <trkpt lat="41.95355" lon="9.22458">
        <ele>1613.2</ele>
        <time>2015-06-21T06:11:46Z</time>
      </trkpt>
      <trkpt lat="41.95357" lon="9.2246">
        <ele>1612.4</ele>
        <time>2015-06-21T06:11:51Z</time>
      </trkpt>
      <trkpt lat="41.95357" lon="9.22463">
        <ele>1610.8</ele>
        <time>2015-06-21T06:11:58Z</time>
      </trkpt>
      <trkpt lat="41.95354" lon="9.22463">
        <ele>1610</ele>
        <time>2015-06-21T06:12:04Z</time>
      </trkpt>
      <trkpt lat="41.95352" lon="9.22462">
        <ele>1608.8</ele>
        <time>2015-06-21T06:12:11Z</time>
      </trkpt>
      <trkpt lat="41.9535" lon="9.22462">
        <ele>1607.6</ele>
        <time>2015-06-21T06:12:19Z</time>
      </trkpt>
      <trkpt lat="41.95347" lon="9.22465">
        <ele>1606.8</ele>
        <time>2015-06-21T06:12:25Z</time>
      </trkpt>
      <trkpt lat="41.95348" lon="9.22469">
        <ele>1605.6</ele>
        <time>2015-06-21T06:12:32Z</time>
      </trkpt>
      <trkpt lat="41.95349" lon="9.22472">
        <ele>1604.4</ele>
        <time>2015-06-21T06:12:38Z</time>
      </trkpt>
      <trkpt lat="41.9535" lon="9.22477">
        <ele>1603.2</ele>
        <time>2015-06-21T06:12:45Z</time>
      </trkpt>
      <trkpt lat="41.9535" lon="9.22479">
        <ele>1602</ele>
        <time>2015-06-21T06:12:51Z</time>
      </trkpt>
      <trkpt lat="41.95355" lon="9.22481">
        <ele>1600.8</ele>
        <time>2015-06-21T06:12:57Z</time>
      </trkpt>
      <trkpt lat="41.95357" lon="9.22486">
        <ele>1599.8</ele>
        <time>2015-06-21T06:13:05Z</time>
      </trkpt>
      <trkpt lat="41.95359" lon="9.2249">
        <ele>1599</ele>
        <time>2015-06-21T06:13:10Z</time>
      </trkpt>
      <trkpt lat="41.95362" lon="9.22494">
        <ele>1597.6</ele>
        <time>2015-06-21T06:13:17Z</time>
      </trkpt>
      <trkpt lat="41.95363" lon="9.22498">
        <ele>1596.4</ele>
        <time>2015-06-21T06:13:24Z</time>
      </trkpt>
      <trkpt lat="41.95365" lon="9.22501">
        <ele>1594.8</ele>
        <time>2015-06-21T06:13:35Z</time>
      </trkpt>
      <trkpt lat="41.95367" lon="9.22504">
        <ele>1594</ele>
        <time>2015-06-21T06:13:44Z</time>
      </trkpt>
      <trkpt lat="41.9537" lon="9.22508">
        <ele>1592.8</ele>
        <time>2015-06-21T06:13:52Z</time>
      </trkpt>
      <trkpt lat="41.95373" lon="9.22509">
        <ele>1591.4</ele>
        <time>2015-06-21T06:14:00Z</time>
      </trkpt>
      <trkpt lat="41.95376" lon="9.2251">
        <ele>1590.2</ele>
        <time>2015-06-21T06:14:10Z</time>
      </trkpt>
      <trkpt lat="41.95377" lon="9.22511">
        <ele>1589.4</ele>
        <time>2015-06-21T06:14:18Z</time>
      </trkpt>
      <trkpt lat="41.95378" lon="9.22514">
        <ele>1588.2</ele>
        <time>2015-06-21T06:14:25Z</time>
      </trkpt>
      <trkpt lat="41.9538" lon="9.22516">
        <ele>1587.2</ele>
        <time>2015-06-21T06:14:32Z</time>
      </trkpt>
      <trkpt lat="41.95383" lon="9.2252">
        <ele>1586.2</ele>
        <time>2015-06-21T06:14:38Z</time>
      </trkpt>
      <trkpt lat="41.95378" lon="9.22522">
        <ele>1584.6</ele>
        <time>2015-06-21T06:14:48Z</time>
      </trkpt>
      <trkpt lat="41.95374" lon="9.22524">
        <ele>1583.6</ele>
        <time>2015-06-21T06:14:56Z</time>
      </trkpt>
      <trkpt lat="41.95374" lon="9.2253">
        <ele>1582.4</ele>
        <time>2015-06-21T06:15:06Z</time>
      </trkpt>
      <trkpt lat="41.95376" lon="9.22532">
        <ele>1581.4</ele>
        <time>2015-06-21T06:15:13Z</time>
      </trkpt>
      <trkpt lat="41.95377" lon="9.22532">
        <ele>1579.6</ele>
        <time>2015-06-21T06:15:32Z</time>
      </trkpt>
      <trkpt lat="41.95379" lon="9.22532">
        <ele>1579.4</ele>
        <time>2015-06-21T06:15:38Z</time>
      </trkpt>
      <trkpt lat="41.95381" lon="9.22532">
        <ele>1578</ele>
        <time>2015-06-21T06:15:45Z</time>
      </trkpt>
      <trkpt lat="41.95383" lon="9.22533">
        <ele>1577.2</ele>
        <time>2015-06-21T06:15:49Z</time>
      </trkpt>
      <trkpt lat="41.95386" lon="9.22532">
        <ele>1576</ele>
        <time>2015-06-21T06:15:54Z</time>
      </trkpt>
      <trkpt lat="41.9539" lon="9.2253">
        <ele>1574.8</ele>
        <time>2015-06-21T06:15:59Z</time>
      </trkpt>
      <trkpt lat="41.95395" lon="9.22532">
        <ele>1573.4</ele>
        <time>2015-06-21T06:16:05Z</time>
      </trkpt>
      <trkpt lat="41.954" lon="9.22535">
        <ele>1572.2</ele>
        <time>2015-06-21T06:16:13Z</time>
      </trkpt>
      <trkpt lat="41.95403" lon="9.22537">
        <ele>1570.8</ele>
        <time>2015-06-21T06:16:21Z</time>
      </trkpt>
      <trkpt lat="41.95405" lon="9.22538">
        <ele>1570</ele>
        <time>2015-06-21T06:16:27Z</time>
      </trkpt>
      <trkpt lat="41.95408" lon="9.22538">
        <ele>1568.8</ele>
        <time>2015-06-21T06:16:35Z</time>
      </trkpt>
      <trkpt lat="41.9541" lon="9.22541">
        <ele>1567.6</ele>
        <time>2015-06-21T06:16:42Z</time>
      </trkpt>
      <trkpt lat="41.95413" lon="9.22541">
        <ele>1566.4</ele>
        <time>2015-06-21T06:16:50Z</time>
      </trkpt>
      <trkpt lat="41.95416" lon="9.22543">
        <ele>1565.8</ele>
        <time>2015-06-21T06:16:55Z</time>
      </trkpt>
      <trkpt lat="41.95421" lon="9.22546">
        <ele>1564</ele>
        <time>2015-06-21T06:17:04Z</time>
      </trkpt>
      <trkpt lat="41.95428" lon="9.22548">
        <ele>1562.8</ele>
        <time>2015-06-21T06:17:16Z</time>
      </trkpt>
      <trkpt lat="41.95434" lon="9.22551">
        <ele>1561.6</ele>
        <time>2015-06-21T06:17:24Z</time>
      </trkpt>
      <trkpt lat="41.95438" lon="9.22553">
        <ele>1560.8</ele>
        <time>2015-06-21T06:17:30Z</time>
      </trkpt>
      <trkpt lat="41.95437" lon="9.22557">
        <ele>1559.6</ele>
        <time>2015-06-21T06:17:37Z</time>
      </trkpt>
      <trkpt lat="41.95435" lon="9.22557">
        <ele>1558.6</ele>
        <time>2015-06-21T06:17:44Z</time>
      </trkpt>
      <trkpt lat="41.95433" lon="9.22559">
        <ele>1557.6</ele>
        <time>2015-06-21T06:17:51Z</time>
      </trkpt>
      <trkpt lat="41.9543" lon="9.22561">
        <ele>1556.2</ele>
        <time>2015-06-21T06:17:58Z</time>
      </trkpt>
      <trkpt lat="41.95426" lon="9.22564">
        <ele>1555.2</ele>
        <time>2015-06-21T06:18:05Z</time>
      </trkpt>
      <trkpt lat="41.95428" lon="9.22568">
        <ele>1553.8</ele>
        <time>2015-06-21T06:18:14Z</time>
      </trkpt>
      <trkpt lat="41.95431" lon="9.22572">
        <ele>1552.8</ele>
        <time>2015-06-21T06:18:22Z</time>
      </trkpt>
      <trkpt lat="41.95438" lon="9.22576">
        <ele>1551.4</ele>
        <time>2015-06-21T06:18:32Z</time>
      </trkpt>
      <trkpt lat="41.95446" lon="9.22574">
        <ele>1550.2</ele>
        <time>2015-06-21T06:20:00Z</time>
      </trkpt>
      <trkpt lat="41.95446" lon="9.22578">
        <ele>1549.8</ele>
        <time>2015-06-21T06:27:40Z</time>
      </trkpt>
      <trkpt lat="41.9545" lon="9.22583">
        <ele>1549</ele>
        <time>2015-06-21T06:28:51Z</time>
      </trkpt>
      <trkpt lat="41.95452" lon="9.22583">
        <ele>1548.2</ele>
        <time>2015-06-21T06:28:58Z</time>
      </trkpt>
      <trkpt lat="41.95455" lon="9.22579">
        <ele>1547.2</ele>
        <time>2015-06-21T06:29:04Z</time>
      </trkpt>
      <trkpt lat="41.9546" lon="9.22578">
        <ele>1545.6</ele>
        <time>2015-06-21T06:29:14Z</time>
      </trkpt>
      <trkpt lat="41.95462" lon="9.22578">
        <ele>1545</ele>
        <time>2015-06-21T06:29:19Z</time>
      </trkpt>
      <trkpt lat="41.95464" lon="9.22579">
        <ele>1544</ele>
        <time>2015-06-21T06:29:25Z</time>
      </trkpt>
      <trkpt lat="41.95467" lon="9.22582">
        <ele>1543.2</ele>
        <time>2015-06-21T06:29:29Z</time>
      </trkpt>
      <trkpt lat="41.9547" lon="9.22592">
        <ele>1541.4</ele>
        <time>2015-06-21T06:29:39Z</time>
      </trkpt>
      <trkpt lat="41.95474" lon="9.22598">
        <ele>1540.6</ele>
        <time>2015-06-21T06:29:46Z</time>
      </trkpt>
      <trkpt lat="41.95482" lon="9.22604">
        <ele>1540</ele>
        <time>2015-06-21T06:29:54Z</time>
      </trkpt>
      <trkpt lat="41.95489" lon="9.22607">
        <ele>1539.6</ele>
        <time>2015-06-21T06:30:00Z</time>
      </trkpt>
      <trkpt lat="41.95503" lon="9.22606">
        <ele>1539.6</ele>
        <time>2015-06-21T06:30:22Z</time>
      </trkpt>
      <trkpt lat="41.95514" lon="9.22601">
        <ele>1540.4</ele>
        <time>2015-06-21T06:30:38Z</time>
      </trkpt>
      <trkpt lat="41.95519" lon="9.22589">
        <ele>1539</ele>
        <time>2015-06-21T06:30:52Z</time>
      </trkpt>
      <trkpt lat="41.95526" lon="9.22583">
        <ele>1538.2</ele>
        <time>2015-06-21T06:31:02Z</time>
      </trkpt>
      <trkpt lat="41.95536" lon="9.22578">
        <ele>1537.2</ele>
        <time>2015-06-21T06:31:12Z</time>
      </trkpt>
      <trkpt lat="41.95559" lon="9.22586">
        <ele>1538</ele>
        <time>2015-06-21T06:31:37Z</time>
      </trkpt>
      <trkpt lat="41.95562" lon="9.22585">
        <ele>1538.2</ele>
        <time>2015-06-21T06:31:42Z</time>
      </trkpt>
      <trkpt lat="41.95564" lon="9.22583">
        <ele>1539.4</ele>
        <time>2015-06-21T06:31:48Z</time>
      </trkpt>
      <trkpt lat="41.95567" lon="9.22585">
        <ele>1541</ele>
        <time>2015-06-21T06:31:55Z</time>
      </trkpt>
      <trkpt lat="41.95569" lon="9.22586">
        <ele>1541.8</ele>
        <time>2015-06-21T06:31:59Z</time>
      </trkpt>
      <trkpt lat="41.9557" lon="9.22587">
        <ele>1541.8</ele>
        <time>2015-06-21T06:32:01Z</time>
      </trkpt>
      <trkpt lat="41.9557" lon="9.22591">
        <ele>1542.8</ele>
        <time>2015-06-21T06:32:06Z</time>
      </trkpt>
      <trkpt lat="41.95575" lon="9.22599">
        <ele>1544.6</ele>
        <time>2015-06-21T06:32:18Z</time>
      </trkpt>
      <trkpt lat="41.95584" lon="9.22605">
        <ele>1545.6</ele>
        <time>2015-06-21T06:32:33Z</time>
      </trkpt>
      <trkpt lat="41.95594" lon="9.22613">
        <ele>1546.4</ele>
        <time>2015-06-21T06:32:43Z</time>
      </trkpt>
      <trkpt lat="41.956" lon="9.22613">
        <ele>1547.6</ele>
        <time>2015-06-21T06:32:51Z</time>
      </trkpt>
      <trkpt lat="41.95603" lon="9.2262">
        <ele>1547.8</ele>
        <time>2015-06-21T06:33:00Z</time>
      </trkpt>
      <trkpt lat="41.95606" lon="9.22621">
        <ele>1547</ele>
        <time>2015-06-21T06:33:09Z</time>
      </trkpt>
      <trkpt lat="41.9561" lon="9.2262">
        <ele>1546</ele>
        <time>2015-06-21T06:33:16Z</time>
      </trkpt>
      <trkpt lat="41.95613" lon="9.22621">
        <ele>1545</ele>
        <time>2015-06-21T06:33:22Z</time>
      </trkpt>
      <trkpt lat="41.95613" lon="9.22623">
        <ele>1544</ele>
        <time>2015-06-21T06:33:28Z</time>
      </trkpt>
      <trkpt lat="41.95613" lon="9.22625">
        <ele>1543</ele>
        <time>2015-06-21T06:33:33Z</time>
      </trkpt>
      <trkpt lat="41.95614" lon="9.22627">
        <ele>1541.6</ele>
        <time>2015-06-21T06:33:39Z</time>
      </trkpt>
      <trkpt lat="41.95617" lon="9.22627">
        <ele>1540.4</ele>
        <time>2015-06-21T06:33:45Z</time>
      </trkpt>
      <trkpt lat="41.95619" lon="9.22631">
        <ele>1539.4</ele>
        <time>2015-06-21T06:33:51Z</time>
      </trkpt>
      <trkpt lat="41.95621" lon="9.22633">
        <ele>1538</ele>
        <time>2015-06-21T06:33:58Z</time>
      </trkpt>
      <trkpt lat="41.95624" lon="9.2263">
        <ele>1537</ele>
        <time>2015-06-21T06:34:04Z</time>
      </trkpt>
      <trkpt lat="41.95627" lon="9.22627">
        <ele>1535.8</ele>
        <time>2015-06-21T06:34:10Z</time>
      </trkpt>
      <trkpt lat="41.95627" lon="9.22626">
        <ele>1534.6</ele>
        <time>2015-06-21T06:34:17Z</time>
      </trkpt>
      <trkpt lat="41.95627" lon="9.22623">
        <ele>1534.2</ele>
        <time>2015-06-21T06:34:21Z</time>
      </trkpt>
      <trkpt lat="41.95631" lon="9.22622">
        <ele>1532.4</ele>
        <time>2015-06-21T06:34:28Z</time>
      </trkpt>
      <trkpt lat="41.95637" lon="9.22625">
        <ele>1530.8</ele>
        <time>2015-06-21T06:34:39Z</time>
      </trkpt>
      <trkpt lat="41.95639" lon="9.22627">
        <ele>1530.6</ele>
        <time>2015-06-21T06:34:41Z</time>
      </trkpt>
      <trkpt lat="41.95639" lon="9.22629">
        <ele>1530.6</ele>
        <time>2015-06-21T06:34:43Z</time>
      </trkpt>
      <trkpt lat="41.95639" lon="9.2263">
        <ele>1530.4</ele>
        <time>2015-06-21T06:34:44Z</time>
      </trkpt>
      <trkpt lat="41.9564" lon="9.22634">
        <ele>1528.6</ele>
        <time>2015-06-21T06:34:53Z</time>
      </trkpt>
      <trkpt lat="41.95642" lon="9.22632">
        <ele>1528.2</ele>
        <time>2015-06-21T06:34:59Z</time>
      </trkpt>
      <trkpt lat="41.9564" lon="9.22629">
        <ele>1526.6</ele>
        <time>2015-06-21T06:35:07Z</time>
      </trkpt>
      <trkpt lat="41.95641" lon="9.22628">
        <ele>1525.2</ele>
        <time>2015-06-21T06:35:15Z</time>
      </trkpt>
      <trkpt lat="41.95641" lon="9.22631">
        <ele>1525</ele>
        <time>2015-06-21T06:35:19Z</time>
      </trkpt>
      <trkpt lat="41.95642" lon="9.22637">
        <ele>1523.2</ele>
        <time>2015-06-21T06:35:26Z</time>
      </trkpt>
      <trkpt lat="41.95644" lon="9.22643">
        <ele>1522</ele>
        <time>2015-06-21T06:35:32Z</time>
      </trkpt>
      <trkpt lat="41.95645" lon="9.2265">
        <ele>1521</ele>
        <time>2015-06-21T06:35:38Z</time>
      </trkpt>
      <trkpt lat="41.95646" lon="9.22657">
        <ele>1519.2</ele>
        <time>2015-06-21T06:35:47Z</time>
      </trkpt>
      <trkpt lat="41.95646" lon="9.22662">
        <ele>1518.8</ele>
        <time>2015-06-21T06:35:52Z</time>
      </trkpt>
      <trkpt lat="41.95646" lon="9.22666">
        <ele>1517</ele>
        <time>2015-06-21T06:36:01Z</time>
      </trkpt>
      <trkpt lat="41.95647" lon="9.22668">
        <ele>1516.4</ele>
        <time>2015-06-21T06:36:08Z</time>
      </trkpt>
      <trkpt lat="41.95647" lon="9.22672">
        <ele>1515.4</ele>
        <time>2015-06-21T06:36:14Z</time>
      </trkpt>
      <trkpt lat="41.95645" lon="9.22676">
        <ele>1514.2</ele>
        <time>2015-06-21T06:36:21Z</time>
      </trkpt>
      <trkpt lat="41.95644" lon="9.22678">
        <ele>1513</ele>
        <time>2015-06-21T06:36:28Z</time>
      </trkpt>
      <trkpt lat="41.95648" lon="9.22681">
        <ele>1511.6</ele>
        <time>2015-06-21T06:36:35Z</time>
      </trkpt>
      <trkpt lat="41.9565" lon="9.22686">
        <ele>1510.6</ele>
        <time>2015-06-21T06:36:42Z</time>
      </trkpt>
      <trkpt lat="41.95652" lon="9.2268">
        <ele>1509.2</ele>
        <time>2015-06-21T06:36:52Z</time>
      </trkpt>
      <trkpt lat="41.95652" lon="9.22674">
        <ele>1508.8</ele>
        <time>2015-06-21T06:36:57Z</time>
      </trkpt>
      <trkpt lat="41.95653" lon="9.22668">
        <ele>1507.2</ele>
        <time>2015-06-21T06:37:03Z</time>
      </trkpt>
      <trkpt lat="41.95655" lon="9.2266">
        <ele>1506.2</ele>
        <time>2015-06-21T06:37:10Z</time>
      </trkpt>
      <trkpt lat="41.95659" lon="9.22646">
        <ele>1504.4</ele>
        <time>2015-06-21T06:37:23Z</time>
      </trkpt>
      <trkpt lat="41.95664" lon="9.22638">
        <ele>1503.4</ele>
        <time>2015-06-21T06:37:32Z</time>
      </trkpt>
      <trkpt lat="41.95671" lon="9.22634">
        <ele>1502.8</ele>
        <time>2015-06-21T06:37:37Z</time>
      </trkpt>
      <trkpt lat="41.9568" lon="9.22627">
        <ele>1501.2</ele>
        <time>2015-06-21T06:37:45Z</time>
      </trkpt>
      <trkpt lat="41.95686" lon="9.22623">
        <ele>1500.4</ele>
        <time>2015-06-21T06:37:50Z</time>
      </trkpt>
      <trkpt lat="41.95689" lon="9.22614">
        <ele>1499.8</ele>
        <time>2015-06-21T06:37:59Z</time>
      </trkpt>
      <trkpt lat="41.95694" lon="9.22607">
        <ele>1500.6</ele>
        <time>2015-06-21T06:38:12Z</time>
      </trkpt>
      <trkpt lat="41.957" lon="9.22597">
        <ele>1500.8</ele>
        <time>2015-06-21T06:38:37Z</time>
      </trkpt>
      <trkpt lat="41.95705" lon="9.22596">
        <ele>1499.6</ele>
        <time>2015-06-21T06:38:44Z</time>
      </trkpt>
      <trkpt lat="41.95711" lon="9.22596">
        <ele>1499</ele>
        <time>2015-06-21T06:38:49Z</time>
      </trkpt>
      <trkpt lat="41.95718" lon="9.22594">
        <ele>1497.2</ele>
        <time>2015-06-21T06:38:58Z</time>
      </trkpt>
      <trkpt lat="41.95724" lon="9.22593">
        <ele>1496.8</ele>
        <time>2015-06-21T06:39:02Z</time>
      </trkpt>
      <trkpt lat="41.95727" lon="9.22593">
        <ele>1496.2</ele>
        <time>2015-06-21T06:39:04Z</time>
      </trkpt>
      <trkpt lat="41.95733" lon="9.22591">
        <ele>1495.2</ele>
        <time>2015-06-21T06:39:10Z</time>
      </trkpt>
      <trkpt lat="41.95737" lon="9.22592">
        <ele>1494.6</ele>
        <time>2015-06-21T06:39:19Z</time>
      </trkpt>
      <trkpt lat="41.9574" lon="9.22591">
        <ele>1494.2</ele>
        <time>2015-06-21T06:39:25Z</time>
      </trkpt>
      <trkpt lat="41.95744" lon="9.22592">
        <ele>1492.8</ele>
        <time>2015-06-21T06:39:33Z</time>
      </trkpt>
      <trkpt lat="41.95747" lon="9.22595">
        <ele>1492.2</ele>
        <time>2015-06-21T06:39:38Z</time>
      </trkpt>
      <trkpt lat="41.95748" lon="9.22597">
        <ele>1490.4</ele>
        <time>2015-06-21T06:39:45Z</time>
      </trkpt>
      <trkpt lat="41.95748" lon="9.22602">
        <ele>1489.4</ele>
        <time>2015-06-21T06:39:57Z</time>
      </trkpt>
      <trkpt lat="41.95748" lon="9.22605">
        <ele>1488.4</ele>
        <time>2015-06-21T06:40:04Z</time>
      </trkpt>
      <trkpt lat="41.9575" lon="9.22603">
        <ele>1487.4</ele>
        <time>2015-06-21T06:40:10Z</time>
      </trkpt>
      <trkpt lat="41.95753" lon="9.22601">
        <ele>1486.4</ele>
        <time>2015-06-21T06:40:16Z</time>
      </trkpt>
      <trkpt lat="41.95755" lon="9.22599">
        <ele>1485</ele>
        <time>2015-06-21T06:40:23Z</time>
      </trkpt>
      <trkpt lat="41.95759" lon="9.22601">
        <ele>1484</ele>
        <time>2015-06-21T06:40:29Z</time>
      </trkpt>
      <trkpt lat="41.95762" lon="9.22601">
        <ele>1483</ele>
        <time>2015-06-21T06:40:35Z</time>
      </trkpt>
      <trkpt lat="41.95764" lon="9.22602">
        <ele>1482.2</ele>
        <time>2015-06-21T06:40:40Z</time>
      </trkpt>
      <trkpt lat="41.95769" lon="9.22601">
        <ele>1480.8</ele>
        <time>2015-06-21T06:40:46Z</time>
      </trkpt>
      <trkpt lat="41.95769" lon="9.22601">
        <ele>1480.6</ele>
        <time>2015-06-21T06:40:47Z</time>
      </trkpt>
      <trkpt lat="41.95771" lon="9.22601">
        <ele>1480.2</ele>
        <time>2015-06-21T06:40:49Z</time>
      </trkpt>
      <trkpt lat="41.95773" lon="9.22601">
        <ele>1480</ele>
        <time>2015-06-21T06:40:51Z</time>
      </trkpt>
      <trkpt lat="41.95778" lon="9.22598">
        <ele>1479</ele>
        <time>2015-06-21T06:40:56Z</time>
      </trkpt>
      <trkpt lat="41.95784" lon="9.22597">
        <ele>1478.2</ele>
        <time>2015-06-21T06:41:04Z</time>
      </trkpt>
      <trkpt lat="41.9579" lon="9.22599">
        <ele>1478.4</ele>
        <time>2015-06-21T06:41:12Z</time>
      </trkpt>
      <trkpt lat="41.95791" lon="9.22598">
        <ele>1478.6</ele>
        <time>2015-06-21T06:41:13Z</time>
      </trkpt>
      <trkpt lat="41.95804" lon="9.22598">
        <ele>1480.4</ele>
        <time>2015-06-21T06:41:33Z</time>
      </trkpt>
      <trkpt lat="41.95809" lon="9.22597">
        <ele>1480.6</ele>
        <time>2015-06-21T06:41:38Z</time>
      </trkpt>
      <trkpt lat="41.95811" lon="9.22596">
        <ele>1481</ele>
        <time>2015-06-21T06:41:40Z</time>
      </trkpt>
      <trkpt lat="41.95813" lon="9.22597">
        <ele>1481</ele>
        <time>2015-06-21T06:41:42Z</time>
      </trkpt>
      <trkpt lat="41.95814" lon="9.22597">
        <ele>1481.4</ele>
        <time>2015-06-21T06:41:44Z</time>
      </trkpt>
      <trkpt lat="41.95816" lon="9.22598">
        <ele>1482</ele>
        <time>2015-06-21T06:41:47Z</time>
      </trkpt>
      <trkpt lat="41.95819" lon="9.226">
        <ele>1482.4</ele>
        <time>2015-06-21T06:41:51Z</time>
      </trkpt>
      <trkpt lat="41.95825" lon="9.226">
        <ele>1483</ele>
        <time>2015-06-21T06:41:56Z</time>
      </trkpt>
      <trkpt lat="41.95826" lon="9.22599">
        <ele>1483</ele>
        <time>2015-06-21T06:41:58Z</time>
      </trkpt>
      <trkpt lat="41.95828" lon="9.22598">
        <ele>1483</ele>
        <time>2015-06-21T06:42:00Z</time>
      </trkpt>
      <trkpt lat="41.95835" lon="9.22599">
        <ele>1483</ele>
        <time>2015-06-21T06:42:07Z</time>
      </trkpt>
      <trkpt lat="41.95838" lon="9.22601">
        <ele>1482.8</ele>
        <time>2015-06-21T06:42:10Z</time>
      </trkpt>
      <trkpt lat="41.95839" lon="9.22601">
        <ele>1482.8</ele>
        <time>2015-06-21T06:42:12Z</time>
      </trkpt>
      <trkpt lat="41.95843" lon="9.226">
        <ele>1482.8</ele>
        <time>2015-06-21T06:42:16Z</time>
      </trkpt>
      <trkpt lat="41.95844" lon="9.226">
        <ele>1482.8</ele>
        <time>2015-06-21T06:42:18Z</time>
      </trkpt>
      <trkpt lat="41.9585" lon="9.226">
        <ele>1482.8</ele>
        <time>2015-06-21T06:42:22Z</time>
      </trkpt>
      <trkpt lat="41.9586" lon="9.22603">
        <ele>1482.8</ele>
        <time>2015-06-21T06:42:29Z</time>
      </trkpt>
      <trkpt lat="41.95861" lon="9.22603">
        <ele>1482.6</ele>
        <time>2015-06-21T06:42:31Z</time>
      </trkpt>
      <trkpt lat="41.95865" lon="9.22604">
        <ele>1481.8</ele>
        <time>2015-06-21T06:42:37Z</time>
      </trkpt>
      <trkpt lat="41.95869" lon="9.22604">
        <ele>1481.4</ele>
        <time>2015-06-21T06:42:40Z</time>
      </trkpt>
      <trkpt lat="41.95872" lon="9.22603">
        <ele>1481.2</ele>
        <time>2015-06-21T06:42:43Z</time>
      </trkpt>
      <trkpt lat="41.95875" lon="9.22603">
        <ele>1481.2</ele>
        <time>2015-06-21T06:42:47Z</time>
      </trkpt>
      <trkpt lat="41.95888" lon="9.22604">
        <ele>1481.4</ele>
        <time>2015-06-21T06:42:58Z</time>
      </trkpt>
      <trkpt lat="41.95895" lon="9.22605">
        <ele>1482</ele>
        <time>2015-06-21T06:43:04Z</time>
      </trkpt>
      <trkpt lat="41.95898" lon="9.22607">
        <ele>1482.2</ele>
        <time>2015-06-21T06:43:06Z</time>
      </trkpt>
      <trkpt lat="41.959" lon="9.22607">
        <ele>1482.4</ele>
        <time>2015-06-21T06:43:08Z</time>
      </trkpt>
      <trkpt lat="41.95905" lon="9.22609">
        <ele>1482.4</ele>
        <time>2015-06-21T06:43:11Z</time>
      </trkpt>
      <trkpt lat="41.95909" lon="9.22611">
        <ele>1482.6</ele>
        <time>2015-06-21T06:43:14Z</time>
      </trkpt>
      <trkpt lat="41.9591" lon="9.22613">
        <ele>1483</ele>
        <time>2015-06-21T06:43:16Z</time>
      </trkpt>
      <trkpt lat="41.9591" lon="9.22616">
        <ele>1483.6</ele>
        <time>2015-06-21T06:43:18Z</time>
      </trkpt>
      <trkpt lat="41.95915" lon="9.22621">
        <ele>1484.2</ele>
        <time>2015-06-21T06:43:25Z</time>
      </trkpt>
      <trkpt lat="41.95925" lon="9.22625">
        <ele>1484.8</ele>
        <time>2015-06-21T06:43:37Z</time>
      </trkpt>
      <trkpt lat="41.9593" lon="9.22625">
        <ele>1485.4</ele>
        <time>2015-06-21T06:43:43Z</time>
      </trkpt>
      <trkpt lat="41.95934" lon="9.22627">
        <ele>1486.4</ele>
        <time>2015-06-21T06:43:48Z</time>
      </trkpt>
      <trkpt lat="41.95937" lon="9.22628">
        <ele>1487.2</ele>
        <time>2015-06-21T06:43:52Z</time>
      </trkpt>
      <trkpt lat="41.95939" lon="9.22629">
        <ele>1488.2</ele>
        <time>2015-06-21T06:43:56Z</time>
      </trkpt>
      <trkpt lat="41.95952" lon="9.2263">
        <ele>1488.4</ele>
        <time>2015-06-21T06:44:09Z</time>
      </trkpt>
      <trkpt lat="41.95958" lon="9.22628">
        <ele>1487.4</ele>
        <time>2015-06-21T06:44:17Z</time>
      </trkpt>
      <trkpt lat="41.95964" lon="9.22629">
        <ele>1486.2</ele>
        <time>2015-06-21T06:44:25Z</time>
      </trkpt>
      <trkpt lat="41.95978" lon="9.22623">
        <ele>1484.6</ele>
        <time>2015-06-21T06:44:40Z</time>
      </trkpt>
      <trkpt lat="41.95983" lon="9.22617">
        <ele>1484</ele>
        <time>2015-06-21T06:44:47Z</time>
      </trkpt>
      <trkpt lat="41.95989" lon="9.22613">
        <ele>1482.6</ele>
        <time>2015-06-21T06:44:55Z</time>
      </trkpt>
      <trkpt lat="41.95993" lon="9.22613">
        <ele>1481.8</ele>
        <time>2015-06-21T06:45:02Z</time>
      </trkpt>
      <trkpt lat="41.95993" lon="9.22616">
        <ele>1481.2</ele>
        <time>2015-06-21T06:45:06Z</time>
      </trkpt>
      <trkpt lat="41.95994" lon="9.22619">
        <ele>1480.4</ele>
        <time>2015-06-21T06:45:10Z</time>
      </trkpt>
      <trkpt lat="41.95991" lon="9.22626">
        <ele>1478.2</ele>
        <time>2015-06-21T06:45:20Z</time>
      </trkpt>
      <trkpt lat="41.95991" lon="9.2263">
        <ele>1477.8</ele>
        <time>2015-06-21T06:45:26Z</time>
      </trkpt>
      <trkpt lat="41.95991" lon="9.22634">
        <ele>1477.2</ele>
        <time>2015-06-21T06:45:30Z</time>
      </trkpt>
      <trkpt lat="41.95991" lon="9.22635">
        <ele>1477</ele>
        <time>2015-06-21T06:45:31Z</time>
      </trkpt>
      <trkpt lat="41.95989" lon="9.2264">
        <ele>1475.4</ele>
        <time>2015-06-21T06:45:38Z</time>
      </trkpt>
      <trkpt lat="41.95987" lon="9.22644">
        <ele>1474.6</ele>
        <time>2015-06-21T06:45:43Z</time>
      </trkpt>
      <trkpt lat="41.95985" lon="9.22647">
        <ele>1473.6</ele>
        <time>2015-06-21T06:45:49Z</time>
      </trkpt>
      <trkpt lat="41.95984" lon="9.2265">
        <ele>1472.4</ele>
        <time>2015-06-21T06:45:54Z</time>
      </trkpt>
      <trkpt lat="41.95982" lon="9.22656">
        <ele>1471.4</ele>
        <time>2015-06-21T06:45:59Z</time>
      </trkpt>
      <trkpt lat="41.95982" lon="9.22657">
        <ele>1470.8</ele>
        <time>2015-06-21T06:46:01Z</time>
      </trkpt>
      <trkpt lat="41.9598" lon="9.2266">
        <ele>1470</ele>
        <time>2015-06-21T06:46:05Z</time>
      </trkpt>
      <trkpt lat="41.95979" lon="9.22665">
        <ele>1469.2</ele>
        <time>2015-06-21T06:46:10Z</time>
      </trkpt>
      <trkpt lat="41.95981" lon="9.22666">
        <ele>1467.8</ele>
        <time>2015-06-21T06:46:16Z</time>
      </trkpt>
      <trkpt lat="41.95985" lon="9.22663">
        <ele>1466.8</ele>
        <time>2015-06-21T06:46:22Z</time>
      </trkpt>
      <trkpt lat="41.95988" lon="9.22661">
        <ele>1465.4</ele>
        <time>2015-06-21T06:46:29Z</time>
      </trkpt>
      <trkpt lat="41.95989" lon="9.2266">
        <ele>1464.6</ele>
        <time>2015-06-21T06:46:35Z</time>
      </trkpt>
      <trkpt lat="41.95992" lon="9.22658">
        <ele>1463.6</ele>
        <time>2015-06-21T06:46:41Z</time>
      </trkpt>
      <trkpt lat="41.95995" lon="9.2266">
        <ele>1462.6</ele>
        <time>2015-06-21T06:46:46Z</time>
      </trkpt>
      <trkpt lat="41.95996" lon="9.22663">
        <ele>1461</ele>
        <time>2015-06-21T06:46:53Z</time>
      </trkpt>
      <trkpt lat="41.95997" lon="9.22666">
        <ele>1460</ele>
        <time>2015-06-21T06:46:59Z</time>
      </trkpt>
      <trkpt lat="41.96" lon="9.22669">
        <ele>1458.6</ele>
        <time>2015-06-21T06:47:06Z</time>
      </trkpt>
      <trkpt lat="41.96004" lon="9.22669">
        <ele>1457.4</ele>
        <time>2015-06-21T06:47:13Z</time>
      </trkpt>
      <trkpt lat="41.96009" lon="9.22667">
        <ele>1456.6</ele>
        <time>2015-06-21T06:47:19Z</time>
      </trkpt>
      <trkpt lat="41.96012" lon="9.22664">
        <ele>1455.6</ele>
        <time>2015-06-21T06:47:25Z</time>
      </trkpt>
      <trkpt lat="41.96015" lon="9.2266">
        <ele>1454.4</ele>
        <time>2015-06-21T06:47:31Z</time>
      </trkpt>
      <trkpt lat="41.96016" lon="9.22658">
        <ele>1453.2</ele>
        <time>2015-06-21T06:47:37Z</time>
      </trkpt>
      <trkpt lat="41.96019" lon="9.22656">
        <ele>1452.6</ele>
        <time>2015-06-21T06:47:40Z</time>
      </trkpt>
      <trkpt lat="41.96021" lon="9.22653">
        <ele>1452</ele>
        <time>2015-06-21T06:47:44Z</time>
      </trkpt>
      <trkpt lat="41.96027" lon="9.22651">
        <ele>1451</ele>
        <time>2015-06-21T06:47:51Z</time>
      </trkpt>
      <trkpt lat="41.96029" lon="9.22651">
        <ele>1450.8</ele>
        <time>2015-06-21T06:47:53Z</time>
      </trkpt>
      <trkpt lat="41.96032" lon="9.22647">
        <ele>1449.8</ele>
        <time>2015-06-21T06:47:57Z</time>
      </trkpt>
      <trkpt lat="41.96033" lon="9.22646">
        <ele>1449.8</ele>
        <time>2015-06-21T06:47:58Z</time>
      </trkpt>
      <trkpt lat="41.96035" lon="9.22644">
        <ele>1449.6</ele>
        <time>2015-06-21T06:48:00Z</time>
      </trkpt>
      <trkpt lat="41.96036" lon="9.2264">
        <ele>1448.6</ele>
        <time>2015-06-21T06:48:05Z</time>
      </trkpt>
      <trkpt lat="41.96037" lon="9.22638">
        <ele>1448.4</ele>
        <time>2015-06-21T06:48:09Z</time>
      </trkpt>
      <trkpt lat="41.96039" lon="9.22632">
        <ele>1447.6</ele>
        <time>2015-06-21T06:48:15Z</time>
      </trkpt>
      <trkpt lat="41.96041" lon="9.22629">
        <ele>1446.8</ele>
        <time>2015-06-21T06:48:20Z</time>
      </trkpt>
      <trkpt lat="41.96042" lon="9.22624">
        <ele>1445.4</ele>
        <time>2015-06-21T06:48:26Z</time>
      </trkpt>
      <trkpt lat="41.96044" lon="9.2262">
        <ele>1444.4</ele>
        <time>2015-06-21T06:48:32Z</time>
      </trkpt>
      <trkpt lat="41.96047" lon="9.22615">
        <ele>1443.4</ele>
        <time>2015-06-21T06:48:37Z</time>
      </trkpt>
      <trkpt lat="41.96051" lon="9.22611">
        <ele>1442.6</ele>
        <time>2015-06-21T06:48:41Z</time>
      </trkpt>
      <trkpt lat="41.96054" lon="9.22608">
        <ele>1441.4</ele>
        <time>2015-06-21T06:48:46Z</time>
      </trkpt>
      <trkpt lat="41.96055" lon="9.22606">
        <ele>1440.8</ele>
        <time>2015-06-21T06:48:48Z</time>
      </trkpt>
      <trkpt lat="41.96056" lon="9.22603">
        <ele>1440.2</ele>
        <time>2015-06-21T06:48:51Z</time>
      </trkpt>
      <trkpt lat="41.96058" lon="9.22601">
        <ele>1440</ele>
        <time>2015-06-21T06:48:53Z</time>
      </trkpt>
      <trkpt lat="41.96059" lon="9.22598">
        <ele>1439</ele>
        <time>2015-06-21T06:48:56Z</time>
      </trkpt>
      <trkpt lat="41.96063" lon="9.22594">
        <ele>1438.6</ele>
        <time>2015-06-21T06:49:01Z</time>
      </trkpt>
      <trkpt lat="41.96068" lon="9.2259">
        <ele>1437.6</ele>
        <time>2015-06-21T06:49:07Z</time>
      </trkpt>
      <trkpt lat="41.96069" lon="9.22589">
        <ele>1437.6</ele>
        <time>2015-06-21T06:49:08Z</time>
      </trkpt>
      <trkpt lat="41.9607" lon="9.22588">
        <ele>1437.4</ele>
        <time>2015-06-21T06:49:10Z</time>
      </trkpt>
      <trkpt lat="41.96072" lon="9.22585">
        <ele>1436.4</ele>
        <time>2015-06-21T06:49:15Z</time>
      </trkpt>
      <trkpt lat="41.96072" lon="9.2258">
        <ele>1435.2</ele>
        <time>2015-06-21T06:49:24Z</time>
      </trkpt>
      <trkpt lat="41.96071" lon="9.22577">
        <ele>1434.8</ele>
        <time>2015-06-21T06:49:27Z</time>
      </trkpt>
      <trkpt lat="41.96071" lon="9.22576">
        <ele>1434.8</ele>
        <time>2015-06-21T06:49:28Z</time>
      </trkpt>
      <trkpt lat="41.96071" lon="9.22575">
        <ele>1434.6</ele>
        <time>2015-06-21T06:49:29Z</time>
      </trkpt>
      <trkpt lat="41.96075" lon="9.22573">
        <ele>1433.4</ele>
        <time>2015-06-21T06:49:33Z</time>
      </trkpt>
      <trkpt lat="41.96076" lon="9.22571">
        <ele>1433</ele>
        <time>2015-06-21T06:49:35Z</time>
      </trkpt>
      <trkpt lat="41.96078" lon="9.2257">
        <ele>1432.6</ele>
        <time>2015-06-21T06:49:37Z</time>
      </trkpt>
      <trkpt lat="41.96079" lon="9.22568">
        <ele>1432</ele>
        <time>2015-06-21T06:49:40Z</time>
      </trkpt>
      <trkpt lat="41.96081" lon="9.22564">
        <ele>1431</ele>
        <time>2015-06-21T06:49:43Z</time>
      </trkpt>
      <trkpt lat="41.96089" lon="9.22554">
        <ele>1430</ele>
        <time>2015-06-21T06:49:50Z</time>
      </trkpt>
      <trkpt lat="41.96092" lon="9.22548">
        <ele>1430</ele>
        <time>2015-06-21T06:49:55Z</time>
      </trkpt>
      <trkpt lat="41.96093" lon="9.22547">
        <ele>1430</ele>
        <time>2015-06-21T06:49:57Z</time>
      </trkpt>
      <trkpt lat="41.96096" lon="9.22544">
        <ele>1430.2</ele>
        <time>2015-06-21T06:50:00Z</time>
      </trkpt>
      <trkpt lat="41.96098" lon="9.2254">
        <ele>1430.4</ele>
        <time>2015-06-21T06:50:03Z</time>
      </trkpt>
      <trkpt lat="41.96098" lon="9.22537">
        <ele>1430.4</ele>
        <time>2015-06-21T06:50:05Z</time>
      </trkpt>
      <trkpt lat="41.96098" lon="9.22534">
        <ele>1430.6</ele>
        <time>2015-06-21T06:50:08Z</time>
      </trkpt>
      <trkpt lat="41.961" lon="9.22527">
        <ele>1430.4</ele>
        <time>2015-06-21T06:50:14Z</time>
      </trkpt>
      <trkpt lat="41.96102" lon="9.22521">
        <ele>1430.4</ele>
        <time>2015-06-21T06:50:20Z</time>
      </trkpt>
      <trkpt lat="41.96103" lon="9.22518">
        <ele>1430.2</ele>
        <time>2015-06-21T06:50:23Z</time>
      </trkpt>
      <trkpt lat="41.96104" lon="9.22518">
        <ele>1430</ele>
        <time>2015-06-21T06:50:25Z</time>
      </trkpt>
      <trkpt lat="41.96103" lon="9.22519">
        <ele>1428.8</ele>
        <time>2015-06-21T06:50:30Z</time>
      </trkpt>
      <trkpt lat="41.96104" lon="9.22521">
        <ele>1427.4</ele>
        <time>2015-06-21T06:50:37Z</time>
      </trkpt>
      <trkpt lat="41.96106" lon="9.22522">
        <ele>1426.6</ele>
        <time>2015-06-21T06:50:42Z</time>
      </trkpt>
      <trkpt lat="41.96108" lon="9.22525">
        <ele>1425.6</ele>
        <time>2015-06-21T06:50:46Z</time>
      </trkpt>
      <trkpt lat="41.96111" lon="9.22529">
        <ele>1423.8</ele>
        <time>2015-06-21T06:50:52Z</time>
      </trkpt>
      <trkpt lat="41.96112" lon="9.2253">
        <ele>1423.2</ele>
        <time>2015-06-21T06:50:56Z</time>
      </trkpt>
      <trkpt lat="41.96114" lon="9.2253">
        <ele>1422.2</ele>
        <time>2015-06-21T06:51:00Z</time>
      </trkpt>
      <trkpt lat="41.96116" lon="9.22528">
        <ele>1421.2</ele>
        <time>2015-06-21T06:51:04Z</time>
      </trkpt>
      <trkpt lat="41.9612" lon="9.22529">
        <ele>1420.4</ele>
        <time>2015-06-21T06:51:06Z</time>
      </trkpt>
      <trkpt lat="41.96123" lon="9.22529">
        <ele>1420</ele>
        <time>2015-06-21T06:51:08Z</time>
      </trkpt>
      <trkpt lat="41.96125" lon="9.22529">
        <ele>1419.8</ele>
        <time>2015-06-21T06:51:09Z</time>
      </trkpt>
      <trkpt lat="41.96128" lon="9.22528">
        <ele>1419</ele>
        <time>2015-06-21T06:51:13Z</time>
      </trkpt>
      <trkpt lat="41.9613" lon="9.22527">
        <ele>1418.2</ele>
        <time>2015-06-21T06:51:16Z</time>
      </trkpt>
      <trkpt lat="41.9613" lon="9.22528">
        <ele>1418</ele>
        <time>2015-06-21T06:51:17Z</time>
      </trkpt>
      <trkpt lat="41.96132" lon="9.22528">
        <ele>1417.2</ele>
        <time>2015-06-21T06:51:22Z</time>
      </trkpt>
      <trkpt lat="41.96135" lon="9.22528">
        <ele>1416</ele>
        <time>2015-06-21T06:51:28Z</time>
      </trkpt>
      <trkpt lat="41.96139" lon="9.22527">
        <ele>1415.2</ele>
        <time>2015-06-21T06:51:33Z</time>
      </trkpt>
      <trkpt lat="41.9614" lon="9.22528">
        <ele>1414.2</ele>
        <time>2015-06-21T06:51:37Z</time>
      </trkpt>
      <trkpt lat="41.9614" lon="9.22527">
        <ele>1413</ele>
        <time>2015-06-21T06:51:42Z</time>
      </trkpt>
      <trkpt lat="41.96143" lon="9.22526">
        <ele>1412.2</ele>
        <time>2015-06-21T06:51:45Z</time>
      </trkpt>
      <trkpt lat="41.96147" lon="9.22525">
        <ele>1411.8</ele>
        <time>2015-06-21T06:51:49Z</time>
      </trkpt>
      <trkpt lat="41.96148" lon="9.22524">
        <ele>1411.6</ele>
        <time>2015-06-21T06:51:51Z</time>
      </trkpt>
      <trkpt lat="41.96152" lon="9.22524">
        <ele>1411.4</ele>
        <time>2015-06-21T06:51:56Z</time>
      </trkpt>
      <trkpt lat="41.96153" lon="9.22523">
        <ele>1411.4</ele>
        <time>2015-06-21T06:51:57Z</time>
      </trkpt>
      <trkpt lat="41.96155" lon="9.22523">
        <ele>1410.8</ele>
        <time>2015-06-21T06:52:02Z</time>
      </trkpt>
      <trkpt lat="41.9616" lon="9.2252">
        <ele>1409.4</ele>
        <time>2015-06-21T06:52:08Z</time>
      </trkpt>
      <trkpt lat="41.96161" lon="9.22519">
        <ele>1409.2</ele>
        <time>2015-06-21T06:52:09Z</time>
      </trkpt>
      <trkpt lat="41.96167" lon="9.22517">
        <ele>1408.2</ele>
        <time>2015-06-21T06:52:15Z</time>
      </trkpt>
      <trkpt lat="41.96169" lon="9.22517">
        <ele>1408</ele>
        <time>2015-06-21T06:52:17Z</time>
      </trkpt>
      <trkpt lat="41.96171" lon="9.22516">
        <ele>1407.6</ele>
        <time>2015-06-21T06:52:19Z</time>
      </trkpt>
      <trkpt lat="41.96172" lon="9.22516">
        <ele>1407.4</ele>
        <time>2015-06-21T06:52:20Z</time>
      </trkpt>
      <trkpt lat="41.96175" lon="9.22514">
        <ele>1406.4</ele>
        <time>2015-06-21T06:52:24Z</time>
      </trkpt>
      <trkpt lat="41.96176" lon="9.22513">
        <ele>1406.2</ele>
        <time>2015-06-21T06:52:25Z</time>
      </trkpt>
      <trkpt lat="41.96181" lon="9.22511">
        <ele>1405</ele>
        <time>2015-06-21T06:52:30Z</time>
      </trkpt>
      <trkpt lat="41.96181" lon="9.22511">
        <ele>1405</ele>
        <time>2015-06-21T06:52:31Z</time>
      </trkpt>
      <trkpt lat="41.96186" lon="9.22511">
        <ele>1404.2</ele>
        <time>2015-06-21T06:52:35Z</time>
      </trkpt>
      <trkpt lat="41.9619" lon="9.2251">
        <ele>1403.2</ele>
        <time>2015-06-21T06:52:39Z</time>
      </trkpt>
      <trkpt lat="41.96195" lon="9.22505">
        <ele>1401.4</ele>
        <time>2015-06-21T06:52:45Z</time>
      </trkpt>
      <trkpt lat="41.96196" lon="9.22504">
        <ele>1401.2</ele>
        <time>2015-06-21T06:52:46Z</time>
      </trkpt>
      <trkpt lat="41.96197" lon="9.22502">
        <ele>1400.6</ele>
        <time>2015-06-21T06:52:49Z</time>
      </trkpt>
      <trkpt lat="41.962" lon="9.22498">
        <ele>1400</ele>
        <time>2015-06-21T06:52:55Z</time>
      </trkpt>
      <trkpt lat="41.96203" lon="9.22496">
        <ele>1399.2</ele>
        <time>2015-06-21T06:53:00Z</time>
      </trkpt>
      <trkpt lat="41.96204" lon="9.22494">
        <ele>1398</ele>
        <time>2015-06-21T06:53:06Z</time>
      </trkpt>
      <trkpt lat="41.96205" lon="9.22489">
        <ele>1396.8</ele>
        <time>2015-06-21T06:53:12Z</time>
      </trkpt>
      <trkpt lat="41.9621" lon="9.22482">
        <ele>1395</ele>
        <time>2015-06-21T06:53:24Z</time>
      </trkpt>
      <trkpt lat="41.96212" lon="9.22479">
        <ele>1394.8</ele>
        <time>2015-06-21T06:53:27Z</time>
      </trkpt>
      <trkpt lat="41.96213" lon="9.22476">
        <ele>1394.6</ele>
        <time>2015-06-21T06:53:29Z</time>
      </trkpt>
      <trkpt lat="41.96215" lon="9.22472">
        <ele>1393.4</ele>
        <time>2015-06-21T06:53:35Z</time>
      </trkpt>
      <trkpt lat="41.96218" lon="9.22467">
        <ele>1392.6</ele>
        <time>2015-06-21T06:53:39Z</time>
      </trkpt>
      <trkpt lat="41.96219" lon="9.22464">
        <ele>1392.2</ele>
        <time>2015-06-21T06:53:41Z</time>
      </trkpt>
      <trkpt lat="41.96222" lon="9.22458">
        <ele>1391.6</ele>
        <time>2015-06-21T06:53:45Z</time>
      </trkpt>
      <trkpt lat="41.9623" lon="9.2244">
        <ele>1391.2</ele>
        <time>2015-06-21T06:54:03Z</time>
      </trkpt>
      <trkpt lat="41.96231" lon="9.22435">
        <ele>1391.2</ele>
        <time>2015-06-21T06:54:07Z</time>
      </trkpt>
      <trkpt lat="41.96236" lon="9.22429">
        <ele>1390.4</ele>
        <time>2015-06-21T06:54:15Z</time>
      </trkpt>
      <trkpt lat="41.96239" lon="9.22427">
        <ele>1390.4</ele>
        <time>2015-06-21T06:54:19Z</time>
      </trkpt>
      <trkpt lat="41.96245" lon="9.22425">
        <ele>1390.4</ele>
        <time>2015-06-21T06:54:25Z</time>
      </trkpt>
      <trkpt lat="41.96247" lon="9.22424">
        <ele>1390.2</ele>
        <time>2015-06-21T06:54:28Z</time>
      </trkpt>
      <trkpt lat="41.96257" lon="9.22417">
        <ele>1389.4</ele>
        <time>2015-06-21T06:54:38Z</time>
      </trkpt>
      <trkpt lat="41.96261" lon="9.22413">
        <ele>1388.8</ele>
        <time>2015-06-21T06:54:44Z</time>
      </trkpt>
      <trkpt lat="41.96268" lon="9.22413">
        <ele>1388.4</ele>
        <time>2015-06-21T06:55:01Z</time>
      </trkpt>
      <trkpt lat="41.96274" lon="9.22413">
        <ele>1387.6</ele>
        <time>2015-06-21T06:55:09Z</time>
      </trkpt>
      <trkpt lat="41.96276" lon="9.22412">
        <ele>1387.4</ele>
        <time>2015-06-21T06:55:11Z</time>
      </trkpt>
      <trkpt lat="41.96279" lon="9.22413">
        <ele>1386.8</ele>
        <time>2015-06-21T06:55:14Z</time>
      </trkpt>
      <trkpt lat="41.96284" lon="9.22415">
        <ele>1386.4</ele>
        <time>2015-06-21T06:55:18Z</time>
      </trkpt>
      <trkpt lat="41.96288" lon="9.22416">
        <ele>1386</ele>
        <time>2015-06-21T06:55:21Z</time>
      </trkpt>
      <trkpt lat="41.9629" lon="9.22417">
        <ele>1385.8</ele>
        <time>2015-06-21T06:55:23Z</time>
      </trkpt>
      <trkpt lat="41.96292" lon="9.22418">
        <ele>1385.2</ele>
        <time>2015-06-21T06:55:25Z</time>
      </trkpt>
      <trkpt lat="41.96293" lon="9.22419">
        <ele>1385</ele>
        <time>2015-06-21T06:55:27Z</time>
      </trkpt>
      <trkpt lat="41.96296" lon="9.2242">
        <ele>1384.8</ele>
        <time>2015-06-21T06:55:29Z</time>
      </trkpt>
      <trkpt lat="41.96297" lon="9.22421">
        <ele>1384.6</ele>
        <time>2015-06-21T06:55:30Z</time>
      </trkpt>
      <trkpt lat="41.96299" lon="9.22422">
        <ele>1383.8</ele>
        <time>2015-06-21T06:55:33Z</time>
      </trkpt>
      <trkpt lat="41.96301" lon="9.2242">
        <ele>1382.6</ele>
        <time>2015-06-21T06:55:41Z</time>
      </trkpt>
      <trkpt lat="41.96307" lon="9.22421">
        <ele>1381.8</ele>
        <time>2015-06-21T06:55:49Z</time>
      </trkpt>
      <trkpt lat="41.9631" lon="9.2242">
        <ele>1381.8</ele>
        <time>2015-06-21T06:55:51Z</time>
      </trkpt>
      <trkpt lat="41.96315" lon="9.22421">
        <ele>1381.6</ele>
        <time>2015-06-21T06:55:54Z</time>
      </trkpt>
      <trkpt lat="41.9632" lon="9.22419">
        <ele>1381.6</ele>
        <time>2015-06-21T06:55:59Z</time>
      </trkpt>
      <trkpt lat="41.96325" lon="9.22417">
        <ele>1382</ele>
        <time>2015-06-21T06:56:04Z</time>
      </trkpt>
      <trkpt lat="41.96327" lon="9.22416">
        <ele>1383.2</ele>
        <time>2015-06-21T06:56:09Z</time>
      </trkpt>
      <trkpt lat="41.96331" lon="9.22414">
        <ele>1384.4</ele>
        <time>2015-06-21T06:56:14Z</time>
      </trkpt>
      <trkpt lat="41.96332" lon="9.22412">
        <ele>1385</ele>
        <time>2015-06-21T06:56:17Z</time>
      </trkpt>
      <trkpt lat="41.96348" lon="9.2241">
        <ele>1385.4</ele>
        <time>2015-06-21T06:56:35Z</time>
      </trkpt>
      <trkpt lat="41.96351" lon="9.22411">
        <ele>1384.2</ele>
        <time>2015-06-21T06:56:42Z</time>
      </trkpt>
      <trkpt lat="41.96372" lon="9.22412">
        <ele>1383.2</ele>
        <time>2015-06-21T06:57:02Z</time>
      </trkpt>
      <trkpt lat="41.96374" lon="9.22411">
        <ele>1383.8</ele>
        <time>2015-06-21T06:57:04Z</time>
      </trkpt>
      <trkpt lat="41.96376" lon="9.22411">
        <ele>1384.2</ele>
        <time>2015-06-21T06:57:07Z</time>
      </trkpt>
      <trkpt lat="41.96377" lon="9.22411">
        <ele>1384.4</ele>
        <time>2015-06-21T06:57:08Z</time>
      </trkpt>
      <trkpt lat="41.96378" lon="9.22411">
        <ele>1384.8</ele>
        <time>2015-06-21T06:57:09Z</time>
      </trkpt>
      <trkpt lat="41.96382" lon="9.2241">
        <ele>1385.8</ele>
        <time>2015-06-21T06:57:15Z</time>
      </trkpt>
      <trkpt lat="41.96384" lon="9.22413">
        <ele>1386.6</ele>
        <time>2015-06-21T06:57:22Z</time>
      </trkpt>
      <trkpt lat="41.96387" lon="9.22413">
        <ele>1388.2</ele>
        <time>2015-06-21T06:57:31Z</time>
      </trkpt>
      <trkpt lat="41.96389" lon="9.22411">
        <ele>1389</ele>
        <time>2015-06-21T06:57:39Z</time>
      </trkpt>
      <trkpt lat="41.96389" lon="9.22406">
        <ele>1390.2</ele>
        <time>2015-06-21T06:57:48Z</time>
      </trkpt>
      <trkpt lat="41.96388" lon="9.22403">
        <ele>1391</ele>
        <time>2015-06-21T06:57:54Z</time>
      </trkpt>
      <trkpt lat="41.96393" lon="9.224">
        <ele>1392.4</ele>
        <time>2015-06-21T06:58:05Z</time>
      </trkpt>
      <trkpt lat="41.96397" lon="9.22401">
        <ele>1393.4</ele>
        <time>2015-06-21T06:58:12Z</time>
      </trkpt>
      <trkpt lat="41.964" lon="9.22404">
        <ele>1394.6</ele>
        <time>2015-06-21T06:58:21Z</time>
      </trkpt>
      <trkpt lat="41.96403" lon="9.22409">
        <ele>1395.8</ele>
        <time>2015-06-21T06:58:29Z</time>
      </trkpt>
      <trkpt lat="41.96404" lon="9.2241">
        <ele>1396.4</ele>
        <time>2015-06-21T06:58:35Z</time>
      </trkpt>
      <trkpt lat="41.96413" lon="9.22411">
        <ele>1397.4</ele>
        <time>2015-06-21T06:58:58Z</time>
      </trkpt>
      <trkpt lat="41.96417" lon="9.2241">
        <ele>1396.2</ele>
        <time>2015-06-21T06:59:05Z</time>
      </trkpt>
      <trkpt lat="41.96422" lon="9.22402">
        <ele>1394.6</ele>
        <time>2015-06-21T06:59:17Z</time>
      </trkpt>
      <trkpt lat="41.96425" lon="9.22402">
        <ele>1393.8</ele>
        <time>2015-06-21T06:59:28Z</time>
      </trkpt>
      <trkpt lat="41.96428" lon="9.22403">
        <ele>1393</ele>
        <time>2015-06-21T06:59:35Z</time>
      </trkpt>
      <trkpt lat="41.96431" lon="9.22405">
        <ele>1391.8</ele>
        <time>2015-06-21T06:59:42Z</time>
      </trkpt>
      <trkpt lat="41.96433" lon="9.22407">
        <ele>1391.2</ele>
        <time>2015-06-21T06:59:46Z</time>
      </trkpt>
      <trkpt lat="41.96434" lon="9.22409">
        <ele>1390.2</ele>
        <time>2015-06-21T06:59:51Z</time>
      </trkpt>
      <trkpt lat="41.96436" lon="9.22413">
        <ele>1388.6</ele>
        <time>2015-06-21T06:59:58Z</time>
      </trkpt>
      <trkpt lat="41.96437" lon="9.22414">
        <ele>1388</ele>
        <time>2015-06-21T07:00:02Z</time>
      </trkpt>
      <trkpt lat="41.96441" lon="9.22413">
        <ele>1386.6</ele>
        <time>2015-06-21T07:00:08Z</time>
      </trkpt>
      <trkpt lat="41.9646" lon="9.22412">
        <ele>1385</ele>
        <time>2015-06-21T07:00:29Z</time>
      </trkpt>
      <trkpt lat="41.9647" lon="9.22415">
        <ele>1384.8</ele>
        <time>2015-06-21T07:00:42Z</time>
      </trkpt>
      <trkpt lat="41.9647" lon="9.22416">
        <ele>1384.8</ele>
        <time>2015-06-21T07:00:43Z</time>
      </trkpt>
      <trkpt lat="41.96478" lon="9.2242">
        <ele>1384.2</ele>
        <time>2015-06-21T07:00:49Z</time>
      </trkpt>
      <trkpt lat="41.96488" lon="9.22421">
        <ele>1384.2</ele>
        <time>2015-06-21T07:01:02Z</time>
      </trkpt>
      <trkpt lat="41.96494" lon="9.22422">
        <ele>1385.8</ele>
        <time>2015-06-21T07:01:11Z</time>
      </trkpt>
      <trkpt lat="41.96498" lon="9.22424">
        <ele>1386</ele>
        <time>2015-06-21T07:01:15Z</time>
      </trkpt>
      <trkpt lat="41.965" lon="9.22424">
        <ele>1386.6</ele>
        <time>2015-06-21T07:01:18Z</time>
      </trkpt>
      <trkpt lat="41.96501" lon="9.22423">
        <ele>1386.6</ele>
        <time>2015-06-21T07:01:19Z</time>
      </trkpt>
      <trkpt lat="41.96504" lon="9.22422">
        <ele>1387.6</ele>
        <time>2015-06-21T07:01:24Z</time>
      </trkpt>
      <trkpt lat="41.96509" lon="9.2242">
        <ele>1388.8</ele>
        <time>2015-06-21T07:01:31Z</time>
      </trkpt>
      <trkpt lat="41.96513" lon="9.22419">
        <ele>1389.8</ele>
        <time>2015-06-21T07:01:38Z</time>
      </trkpt>
      <trkpt lat="41.96518" lon="9.22413">
        <ele>1391.4</ele>
        <time>2015-06-21T07:01:48Z</time>
      </trkpt>
      <trkpt lat="41.96522" lon="9.22407">
        <ele>1392.6</ele>
        <time>2015-06-21T07:01:59Z</time>
      </trkpt>
      <trkpt lat="41.96534" lon="9.22396">
        <ele>1393.8</ele>
        <time>2015-06-21T07:02:28Z</time>
      </trkpt>
      <trkpt lat="41.96539" lon="9.22394">
        <ele>1394.4</ele>
        <time>2015-06-21T07:02:37Z</time>
      </trkpt>
      <trkpt lat="41.96566" lon="9.22375">
        <ele>1396</ele>
        <time>2015-06-21T07:03:18Z</time>
      </trkpt>
      <trkpt lat="41.96569" lon="9.22377">
        <ele>1396.6</ele>
        <time>2015-06-21T07:03:26Z</time>
      </trkpt>
      <trkpt lat="41.96572" lon="9.22378">
        <ele>1397.2</ele>
        <time>2015-06-21T07:03:31Z</time>
      </trkpt>
      <trkpt lat="41.96576" lon="9.22377">
        <ele>1398.6</ele>
        <time>2015-06-21T07:03:38Z</time>
      </trkpt>
      <trkpt lat="41.9658" lon="9.22379">
        <ele>1400</ele>
        <time>2015-06-21T07:03:58Z</time>
      </trkpt>
      <trkpt lat="41.96578" lon="9.22386">
        <ele>1400.8</ele>
        <time>2015-06-21T07:04:08Z</time>
      </trkpt>
      <trkpt lat="41.96579" lon="9.22389">
        <ele>1401.6</ele>
        <time>2015-06-21T07:04:14Z</time>
      </trkpt>
      <trkpt lat="41.96589" lon="9.22393">
        <ele>1403.4</ele>
        <time>2015-06-21T07:04:29Z</time>
      </trkpt>
      <trkpt lat="41.96594" lon="9.22393">
        <ele>1403.8</ele>
        <time>2015-06-21T07:04:37Z</time>
      </trkpt>
      <trkpt lat="41.96597" lon="9.22392">
        <ele>1404.8</ele>
        <time>2015-06-21T07:04:46Z</time>
      </trkpt>
      <trkpt lat="41.966" lon="9.22393">
        <ele>1406.2</ele>
        <time>2015-06-21T07:04:55Z</time>
      </trkpt>
      <trkpt lat="41.96606" lon="9.22392">
        <ele>1406.8</ele>
        <time>2015-06-21T07:05:02Z</time>
      </trkpt>
      <trkpt lat="41.96611" lon="9.22393">
        <ele>1408.2</ele>
        <time>2015-06-21T07:05:10Z</time>
      </trkpt>
      <trkpt lat="41.96617" lon="9.22392">
        <ele>1409.2</ele>
        <time>2015-06-21T07:05:18Z</time>
      </trkpt>
      <trkpt lat="41.96621" lon="9.22392">
        <ele>1410.2</ele>
        <time>2015-06-21T07:05:26Z</time>
      </trkpt>
      <trkpt lat="41.96626" lon="9.22391">
        <ele>1411.6</ele>
        <time>2015-06-21T07:05:36Z</time>
      </trkpt>
      <trkpt lat="41.9663" lon="9.22388">
        <ele>1412.6</ele>
        <time>2015-06-21T07:05:44Z</time>
      </trkpt>
      <trkpt lat="41.96633" lon="9.22386">
        <ele>1413.4</ele>
        <time>2015-06-21T07:05:50Z</time>
      </trkpt>
      <trkpt lat="41.96637" lon="9.22384">
        <ele>1415</ele>
        <time>2015-06-21T07:05:59Z</time>
      </trkpt>
      <trkpt lat="41.96642" lon="9.22385">
        <ele>1415.8</ele>
        <time>2015-06-21T07:06:06Z</time>
      </trkpt>
      <trkpt lat="41.96646" lon="9.22385">
        <ele>1417</ele>
        <time>2015-06-21T07:06:15Z</time>
      </trkpt>
      <trkpt lat="41.9665" lon="9.22384">
        <ele>1418.2</ele>
        <time>2015-06-21T07:06:23Z</time>
      </trkpt>
      <trkpt lat="41.96655" lon="9.22384">
        <ele>1419.4</ele>
        <time>2015-06-21T07:06:31Z</time>
      </trkpt>
      <trkpt lat="41.96659" lon="9.22383">
        <ele>1420.2</ele>
        <time>2015-06-21T07:06:39Z</time>
      </trkpt>
      <trkpt lat="41.96663" lon="9.22382">
        <ele>1421.2</ele>
        <time>2015-06-21T07:06:46Z</time>
      </trkpt>
      <trkpt lat="41.96666" lon="9.22381">
        <ele>1422.2</ele>
        <time>2015-06-21T07:06:54Z</time>
      </trkpt>
      <trkpt lat="41.96673" lon="9.22383">
        <ele>1423.4</ele>
        <time>2015-06-21T07:07:04Z</time>
      </trkpt>
      <trkpt lat="41.96686" lon="9.22384">
        <ele>1424.4</ele>
        <time>2015-06-21T07:07:18Z</time>
      </trkpt>
      <trkpt lat="41.96692" lon="9.22387">
        <ele>1425.6</ele>
        <time>2015-06-21T07:07:28Z</time>
      </trkpt>
      <trkpt lat="41.96697" lon="9.22393">
        <ele>1426.2</ele>
        <time>2015-06-21T07:07:36Z</time>
      </trkpt>
      <trkpt lat="41.96704" lon="9.22397">
        <ele>1427.4</ele>
        <time>2015-06-21T07:07:48Z</time>
      </trkpt>
      <trkpt lat="41.96715" lon="9.22408">
        <ele>1428.6</ele>
        <time>2015-06-21T07:08:05Z</time>
      </trkpt>
      <trkpt lat="41.96721" lon="9.22412">
        <ele>1429.2</ele>
        <time>2015-06-21T07:08:15Z</time>
      </trkpt>
      <trkpt lat="41.96723" lon="9.22413">
        <ele>1429.6</ele>
        <time>2015-06-21T07:08:18Z</time>
      </trkpt>
      <trkpt lat="41.96731" lon="9.22418">
        <ele>1430.4</ele>
        <time>2015-06-21T07:08:27Z</time>
      </trkpt>
      <trkpt lat="41.96749" lon="9.22434">
        <ele>1431</ele>
        <time>2015-06-21T07:08:52Z</time>
      </trkpt>
      <trkpt lat="41.96756" lon="9.22436">
        <ele>1431.8</ele>
        <time>2015-06-21T07:08:59Z</time>
      </trkpt>
      <trkpt lat="41.96765" lon="9.2243">
        <ele>1433.2</ele>
        <time>2015-06-21T07:09:12Z</time>
      </trkpt>
      <trkpt lat="41.96767" lon="9.2243">
        <ele>1433.2</ele>
        <time>2015-06-21T07:09:14Z</time>
      </trkpt>
      <trkpt lat="41.9677" lon="9.22431">
        <ele>1433.8</ele>
        <time>2015-06-21T07:09:18Z</time>
      </trkpt>
      <trkpt lat="41.96772" lon="9.22434">
        <ele>1434</ele>
        <time>2015-06-21T07:09:21Z</time>
      </trkpt>
      <trkpt lat="41.96779" lon="9.22439">
        <ele>1434.2</ele>
        <time>2015-06-21T07:09:30Z</time>
      </trkpt>
      <trkpt lat="41.96809" lon="9.22438">
        <ele>1432.8</ele>
        <time>2015-06-21T07:09:55Z</time>
      </trkpt>
      <trkpt lat="41.96824" lon="9.22449">
        <ele>1432.6</ele>
        <time>2015-06-21T07:10:15Z</time>
      </trkpt>
      <trkpt lat="41.96828" lon="9.22454">
        <ele>1433.4</ele>
        <time>2015-06-21T07:10:21Z</time>
      </trkpt>
      <trkpt lat="41.96833" lon="9.22456">
        <ele>1434.2</ele>
        <time>2015-06-21T07:10:27Z</time>
      </trkpt>
      <trkpt lat="41.96844" lon="9.22457">
        <ele>1435.8</ele>
        <time>2015-06-21T07:10:39Z</time>
      </trkpt>
      <trkpt lat="41.9686" lon="9.22456">
        <ele>1437</ele>
        <time>2015-06-21T07:11:00Z</time>
      </trkpt>
      <trkpt lat="41.96888" lon="9.2246">
        <ele>1438</ele>
        <time>2015-06-21T07:11:30Z</time>
      </trkpt>
      <trkpt lat="41.96901" lon="9.22466">
        <ele>1438.4</ele>
        <time>2015-06-21T07:11:46Z</time>
      </trkpt>
      <trkpt lat="41.96906" lon="9.22465">
        <ele>1439.6</ele>
        <time>2015-06-21T07:11:53Z</time>
      </trkpt>
      <trkpt lat="41.96925" lon="9.22463">
        <ele>1440.6</ele>
        <time>2015-06-21T07:12:16Z</time>
      </trkpt>
      <trkpt lat="41.9693" lon="9.22459">
        <ele>1442</ele>
        <time>2015-06-21T07:12:25Z</time>
      </trkpt>
      <trkpt lat="41.96937" lon="9.22458">
        <ele>1443.2</ele>
        <time>2015-06-21T07:12:34Z</time>
      </trkpt>
      <trkpt lat="41.9694" lon="9.22456">
        <ele>1444</ele>
        <time>2015-06-21T07:12:41Z</time>
      </trkpt>
      <trkpt lat="41.96945" lon="9.22455">
        <ele>1445.2</ele>
        <time>2015-06-21T07:12:50Z</time>
      </trkpt>
      <trkpt lat="41.9695" lon="9.22453">
        <ele>1446.2</ele>
        <time>2015-06-21T07:12:58Z</time>
      </trkpt>
      <trkpt lat="41.96953" lon="9.22452">
        <ele>1447.6</ele>
        <time>2015-06-21T07:13:06Z</time>
      </trkpt>
      <trkpt lat="41.96957" lon="9.2245">
        <ele>1448.8</ele>
        <time>2015-06-21T07:13:14Z</time>
      </trkpt>
      <trkpt lat="41.9696" lon="9.2245">
        <ele>1450</ele>
        <time>2015-06-21T07:13:24Z</time>
      </trkpt>
      <trkpt lat="41.96962" lon="9.2245">
        <ele>1451</ele>
        <time>2015-06-21T07:13:32Z</time>
      </trkpt>
      <trkpt lat="41.96964" lon="9.2245">
        <ele>1452</ele>
        <time>2015-06-21T07:13:41Z</time>
      </trkpt>
      <trkpt lat="41.96968" lon="9.2245">
        <ele>1453.2</ele>
        <time>2015-06-21T07:13:50Z</time>
      </trkpt>
      <trkpt lat="41.96971" lon="9.22451">
        <ele>1454.2</ele>
        <time>2015-06-21T07:13:58Z</time>
      </trkpt>
      <trkpt lat="41.96974" lon="9.22452">
        <ele>1455.2</ele>
        <time>2015-06-21T07:14:07Z</time>
      </trkpt>
      <trkpt lat="41.96978" lon="9.22452">
        <ele>1456.2</ele>
        <time>2015-06-21T07:14:15Z</time>
      </trkpt>
      <trkpt lat="41.96984" lon="9.22453">
        <ele>1457.6</ele>
        <time>2015-06-21T07:14:25Z</time>
      </trkpt>
      <trkpt lat="41.96989" lon="9.22456">
        <ele>1458.2</ele>
        <time>2015-06-21T07:14:35Z</time>
      </trkpt>
      <trkpt lat="41.96992" lon="9.22459">
        <ele>1459.4</ele>
        <time>2015-06-21T07:14:43Z</time>
      </trkpt>
      <trkpt lat="41.96996" lon="9.22461">
        <ele>1460.4</ele>
        <time>2015-06-21T07:14:53Z</time>
      </trkpt>
      <trkpt lat="41.96999" lon="9.22463">
        <ele>1461.4</ele>
        <time>2015-06-21T07:15:00Z</time>
      </trkpt>
      <trkpt lat="41.97006" lon="9.22466">
        <ele>1463</ele>
        <time>2015-06-21T07:15:18Z</time>
      </trkpt>
      <trkpt lat="41.97015" lon="9.22469">
        <ele>1463.8</ele>
        <time>2015-06-21T07:15:31Z</time>
      </trkpt>
      <trkpt lat="41.97025" lon="9.22469">
        <ele>1465</ele>
        <time>2015-06-21T07:15:45Z</time>
      </trkpt>
      <trkpt lat="41.97032" lon="9.22471">
        <ele>1465.8</ele>
        <time>2015-06-21T07:15:54Z</time>
      </trkpt>
      <trkpt lat="41.97039" lon="9.22472">
        <ele>1467</ele>
        <time>2015-06-21T07:16:06Z</time>
      </trkpt>
      <trkpt lat="41.97044" lon="9.22474">
        <ele>1468.2</ele>
        <time>2015-06-21T07:16:15Z</time>
      </trkpt>
      <trkpt lat="41.97048" lon="9.22475">
        <ele>1469.2</ele>
        <time>2015-06-21T07:16:25Z</time>
      </trkpt>
      <trkpt lat="41.97053" lon="9.22476">
        <ele>1470</ele>
        <time>2015-06-21T07:16:34Z</time>
      </trkpt>
      <trkpt lat="41.97061" lon="9.22476">
        <ele>1471.4</ele>
        <time>2015-06-21T07:16:47Z</time>
      </trkpt>
      <trkpt lat="41.97065" lon="9.22476">
        <ele>1472.2</ele>
        <time>2015-06-21T07:16:54Z</time>
      </trkpt>
      <trkpt lat="41.9707" lon="9.22474">
        <ele>1473.2</ele>
        <time>2015-06-21T07:17:02Z</time>
      </trkpt>
      <trkpt lat="41.97074" lon="9.22474">
        <ele>1474.2</ele>
        <time>2015-06-21T07:17:11Z</time>
      </trkpt>
      <trkpt lat="41.9708" lon="9.22472">
        <ele>1475.8</ele>
        <time>2015-06-21T07:17:21Z</time>
      </trkpt>
      <trkpt lat="41.97084" lon="9.22471">
        <ele>1476.8</ele>
        <time>2015-06-21T07:17:30Z</time>
      </trkpt>
      <trkpt lat="41.97087" lon="9.22471">
        <ele>1477.2</ele>
        <time>2015-06-21T07:17:37Z</time>
      </trkpt>
      <trkpt lat="41.97092" lon="9.22471">
        <ele>1478.8</ele>
        <time>2015-06-21T07:17:46Z</time>
      </trkpt>
      <trkpt lat="41.97098" lon="9.22468">
        <ele>1480.2</ele>
        <time>2015-06-21T07:17:57Z</time>
      </trkpt>
      <trkpt lat="41.97103" lon="9.22467">
        <ele>1480.8</ele>
        <time>2015-06-21T07:18:05Z</time>
      </trkpt>
      <trkpt lat="41.97104" lon="9.22466">
        <ele>1481.2</ele>
        <time>2015-06-21T07:18:09Z</time>
      </trkpt>
      <trkpt lat="41.97111" lon="9.22463">
        <ele>1482.2</ele>
        <time>2015-06-21T07:18:19Z</time>
      </trkpt>
      <trkpt lat="41.97113" lon="9.22463">
        <ele>1482.2</ele>
        <time>2015-06-21T07:18:21Z</time>
      </trkpt>
      <trkpt lat="41.97119" lon="9.22464">
        <ele>1483.2</ele>
        <time>2015-06-21T07:18:32Z</time>
      </trkpt>
      <trkpt lat="41.97123" lon="9.22464">
        <ele>1483.8</ele>
        <time>2015-06-21T07:18:40Z</time>
      </trkpt>
      <trkpt lat="41.97144" lon="9.22456">
        <ele>1485.2</ele>
        <time>2015-06-21T07:19:09Z</time>
      </trkpt>
      <trkpt lat="41.97153" lon="9.22454">
        <ele>1486.2</ele>
        <time>2015-06-21T07:19:23Z</time>
      </trkpt>
      <trkpt lat="41.9716" lon="9.22449">
        <ele>1487</ele>
        <time>2015-06-21T07:19:34Z</time>
      </trkpt>
      <trkpt lat="41.97165" lon="9.22447">
        <ele>1487.8</ele>
        <time>2015-06-21T07:19:47Z</time>
      </trkpt>
      <trkpt lat="41.97171" lon="9.22444">
        <ele>1489</ele>
        <time>2015-06-21T07:20:03Z</time>
      </trkpt>
      <trkpt lat="41.97176" lon="9.2244">
        <ele>1490.2</ele>
        <time>2015-06-21T07:20:14Z</time>
      </trkpt>
      <trkpt lat="41.97181" lon="9.22438">
        <ele>1490.8</ele>
        <time>2015-06-21T07:20:23Z</time>
      </trkpt>
      <trkpt lat="41.97184" lon="9.22435">
        <ele>1491.8</ele>
        <time>2015-06-21T07:20:30Z</time>
      </trkpt>
      <trkpt lat="41.9719" lon="9.22432">
        <ele>1493</ele>
        <time>2015-06-21T07:20:40Z</time>
      </trkpt>
      <trkpt lat="41.97197" lon="9.22425">
        <ele>1494.2</ele>
        <time>2015-06-21T07:20:51Z</time>
      </trkpt>
      <trkpt lat="41.97203" lon="9.22421">
        <ele>1495.2</ele>
        <time>2015-06-21T07:21:02Z</time>
      </trkpt>
      <trkpt lat="41.97211" lon="9.22413">
        <ele>1496.4</ele>
        <time>2015-06-21T07:21:16Z</time>
      </trkpt>
      <trkpt lat="41.97217" lon="9.22411">
        <ele>1497.2</ele>
        <time>2015-06-21T07:21:25Z</time>
      </trkpt>
      <trkpt lat="41.97223" lon="9.22408">
        <ele>1498.2</ele>
        <time>2015-06-21T07:21:34Z</time>
      </trkpt>
      <trkpt lat="41.97228" lon="9.22402">
        <ele>1499.4</ele>
        <time>2015-06-21T07:21:45Z</time>
      </trkpt>
      <trkpt lat="41.97234" lon="9.22401">
        <ele>1500.2</ele>
        <time>2015-06-21T07:21:54Z</time>
      </trkpt>
      <trkpt lat="41.9724" lon="9.22397">
        <ele>1501.6</ele>
        <time>2015-06-21T07:22:04Z</time>
      </trkpt>
      <trkpt lat="41.97244" lon="9.22393">
        <ele>1502.2</ele>
        <time>2015-06-21T07:22:11Z</time>
      </trkpt>
      <trkpt lat="41.97249" lon="9.2239">
        <ele>1503.6</ele>
        <time>2015-06-21T07:22:21Z</time>
      </trkpt>
      <trkpt lat="41.97254" lon="9.22385">
        <ele>1504.6</ele>
        <time>2015-06-21T07:22:30Z</time>
      </trkpt>
      <trkpt lat="41.97258" lon="9.2238">
        <ele>1505.8</ele>
        <time>2015-06-21T07:22:40Z</time>
      </trkpt>
      <trkpt lat="41.97264" lon="9.22375">
        <ele>1506.8</ele>
        <time>2015-06-21T07:22:50Z</time>
      </trkpt>
      <trkpt lat="41.97268" lon="9.22369">
        <ele>1508</ele>
        <time>2015-06-21T07:23:00Z</time>
      </trkpt>
      <trkpt lat="41.97272" lon="9.22367">
        <ele>1508.6</ele>
        <time>2015-06-21T07:23:07Z</time>
      </trkpt>
      <trkpt lat="41.97276" lon="9.22363">
        <ele>1510.2</ele>
        <time>2015-06-21T07:23:17Z</time>
      </trkpt>
      <trkpt lat="41.9728" lon="9.2236">
        <ele>1511</ele>
        <time>2015-06-21T07:23:25Z</time>
      </trkpt>
      <trkpt lat="41.97284" lon="9.22358">
        <ele>1512</ele>
        <time>2015-06-21T07:23:32Z</time>
      </trkpt>
      <trkpt lat="41.97288" lon="9.22356">
        <ele>1513.2</ele>
        <time>2015-06-21T07:23:40Z</time>
      </trkpt>
      <trkpt lat="41.97294" lon="9.22351">
        <ele>1514.4</ele>
        <time>2015-06-21T07:23:50Z</time>
      </trkpt>
      <trkpt lat="41.97299" lon="9.22345">
        <ele>1515.4</ele>
        <time>2015-06-21T07:24:00Z</time>
      </trkpt>
      <trkpt lat="41.97316" lon="9.22333">
        <ele>1516.4</ele>
        <time>2015-06-21T07:24:35Z</time>
      </trkpt>
      <trkpt lat="41.97325" lon="9.22323">
        <ele>1516.8</ele>
        <time>2015-06-21T07:25:45Z</time>
      </trkpt>
      <trkpt lat="41.97329" lon="9.22324">
        <ele>1516</ele>
        <time>2015-06-21T07:25:50Z</time>
      </trkpt>
      <trkpt lat="41.97334" lon="9.22325">
        <ele>1514.8</ele>
        <time>2015-06-21T07:25:55Z</time>
      </trkpt>
      <trkpt lat="41.97333" lon="9.22326">
        <ele>1514.2</ele>
        <time>2015-06-21T07:25:57Z</time>
      </trkpt>
      <trkpt lat="41.97335" lon="9.2233">
        <ele>1512.8</ele>
        <time>2015-06-21T07:26:04Z</time>
      </trkpt>
      <trkpt lat="41.9734" lon="9.2233">
        <ele>1512</ele>
        <time>2015-06-21T07:26:11Z</time>
      </trkpt>
      <trkpt lat="41.97345" lon="9.22327">
        <ele>1511</ele>
        <time>2015-06-21T07:26:17Z</time>
      </trkpt>
      <trkpt lat="41.97351" lon="9.22322">
        <ele>1509.6</ele>
        <time>2015-06-21T07:26:26Z</time>
      </trkpt>
      <trkpt lat="41.97356" lon="9.22318">
        <ele>1508.4</ele>
        <time>2015-06-21T07:26:38Z</time>
      </trkpt>
      <trkpt lat="41.97359" lon="9.22317">
        <ele>1507.8</ele>
        <time>2015-06-21T07:26:43Z</time>
      </trkpt>
      <trkpt lat="41.9736" lon="9.22316">
        <ele>1507.4</ele>
        <time>2015-06-21T07:26:45Z</time>
      </trkpt>
      <trkpt lat="41.97365" lon="9.22312">
        <ele>1506</ele>
        <time>2015-06-21T07:27:10Z</time>
      </trkpt>
      <trkpt lat="41.97367" lon="9.2231">
        <ele>1505.6</ele>
        <time>2015-06-21T07:27:15Z</time>
      </trkpt>
      <trkpt lat="41.97372" lon="9.22307">
        <ele>1504.2</ele>
        <time>2015-06-21T07:27:23Z</time>
      </trkpt>
      <trkpt lat="41.97376" lon="9.22304">
        <ele>1503.8</ele>
        <time>2015-06-21T07:27:27Z</time>
      </trkpt>
      <trkpt lat="41.97378" lon="9.22302">
        <ele>1502.6</ele>
        <time>2015-06-21T07:27:32Z</time>
      </trkpt>
      <trkpt lat="41.97381" lon="9.22296">
        <ele>1501.2</ele>
        <time>2015-06-21T07:27:38Z</time>
      </trkpt>
      <trkpt lat="41.97382" lon="9.22295">
        <ele>1501</ele>
        <time>2015-06-21T07:27:39Z</time>
      </trkpt>
      <trkpt lat="41.97383" lon="9.22293">
        <ele>1500.4</ele>
        <time>2015-06-21T07:27:41Z</time>
      </trkpt>
      <trkpt lat="41.97386" lon="9.22288">
        <ele>1500</ele>
        <time>2015-06-21T07:27:49Z</time>
      </trkpt>
      <trkpt lat="41.97395" lon="9.22272">
        <ele>1498.8</ele>
        <time>2015-06-21T07:28:07Z</time>
      </trkpt>
      <trkpt lat="41.97396" lon="9.2227">
        <ele>1498.6</ele>
        <time>2015-06-21T07:28:09Z</time>
      </trkpt>
      <trkpt lat="41.97399" lon="9.22266">
        <ele>1498.6</ele>
        <time>2015-06-21T07:28:13Z</time>
      </trkpt>
      <trkpt lat="41.97407" lon="9.22259">
        <ele>1497.6</ele>
        <time>2015-06-21T07:28:21Z</time>
      </trkpt>
      <trkpt lat="41.97414" lon="9.22256">
        <ele>1496.8</ele>
        <time>2015-06-21T07:28:27Z</time>
      </trkpt>
      <trkpt lat="41.9742" lon="9.22252">
        <ele>1495.6</ele>
        <time>2015-06-21T07:28:33Z</time>
      </trkpt>
      <trkpt lat="41.97431" lon="9.22239">
        <ele>1493.8</ele>
        <time>2015-06-21T07:28:55Z</time>
      </trkpt>
      <trkpt lat="41.97445" lon="9.22232">
        <ele>1492.8</ele>
        <time>2015-06-21T07:29:14Z</time>
      </trkpt>
      <trkpt lat="41.9745" lon="9.22233">
        <ele>1492.2</ele>
        <time>2015-06-21T07:29:21Z</time>
      </trkpt>
      <trkpt lat="41.97453" lon="9.22233">
        <ele>1491.6</ele>
        <time>2015-06-21T07:29:26Z</time>
      </trkpt>
      <trkpt lat="41.97456" lon="9.22235">
        <ele>1489.8</ele>
        <time>2015-06-21T07:29:34Z</time>
      </trkpt>
      <trkpt lat="41.97458" lon="9.22234">
        <ele>1489.4</ele>
        <time>2015-06-21T07:29:38Z</time>
      </trkpt>
      <trkpt lat="41.97475" lon="9.22228">
        <ele>1487.2</ele>
        <time>2015-06-21T07:29:59Z</time>
      </trkpt>
      <trkpt lat="41.97482" lon="9.22226">
        <ele>1486.6</ele>
        <time>2015-06-21T07:30:06Z</time>
      </trkpt>
      <trkpt lat="41.97511" lon="9.22212">
        <ele>1486.2</ele>
        <time>2015-06-21T07:30:36Z</time>
      </trkpt>
      <trkpt lat="41.9752" lon="9.22213">
        <ele>1486.2</ele>
        <time>2015-06-21T07:30:46Z</time>
      </trkpt>
      <trkpt lat="41.97524" lon="9.22211">
        <ele>1485.8</ele>
        <time>2015-06-21T07:30:51Z</time>
      </trkpt>
      <trkpt lat="41.97526" lon="9.22211">
        <ele>1485.8</ele>
        <time>2015-06-21T07:30:53Z</time>
      </trkpt>
      <trkpt lat="41.9753" lon="9.22212">
        <ele>1484.8</ele>
        <time>2015-06-21T07:31:00Z</time>
      </trkpt>
      <trkpt lat="41.97539" lon="9.22211">
        <ele>1483.8</ele>
        <time>2015-06-21T07:31:10Z</time>
      </trkpt>
      <trkpt lat="41.97555" lon="9.22202">
        <ele>1484</ele>
        <time>2015-06-21T07:31:28Z</time>
      </trkpt>
      <trkpt lat="41.97579" lon="9.22189">
        <ele>1485</ele>
        <time>2015-06-21T07:31:55Z</time>
      </trkpt>
      <trkpt lat="41.97583" lon="9.22187">
        <ele>1485</ele>
        <time>2015-06-21T07:31:59Z</time>
      </trkpt>
      <trkpt lat="41.9759" lon="9.22185">
        <ele>1484.8</ele>
        <time>2015-06-21T07:32:07Z</time>
      </trkpt>
      <trkpt lat="41.97602" lon="9.22182">
        <ele>1484</ele>
        <time>2015-06-21T07:32:21Z</time>
      </trkpt>
      <trkpt lat="41.97622" lon="9.22176">
        <ele>1483.4</ele>
        <time>2015-06-21T07:32:40Z</time>
      </trkpt>
      <trkpt lat="41.97633" lon="9.22171">
        <ele>1483</ele>
        <time>2015-06-21T07:32:50Z</time>
      </trkpt>
      <trkpt lat="41.97636" lon="9.22169">
        <ele>1483</ele>
        <time>2015-06-21T07:32:53Z</time>
      </trkpt>
      <trkpt lat="41.97638" lon="9.22169">
        <ele>1483</ele>
        <time>2015-06-21T07:32:55Z</time>
      </trkpt>
      <trkpt lat="41.97642" lon="9.22166">
        <ele>1482.8</ele>
        <time>2015-06-21T07:33:00Z</time>
      </trkpt>
      <trkpt lat="41.97673" lon="9.22147">
        <ele>1482.6</ele>
        <time>2015-06-21T07:33:30Z</time>
      </trkpt>
      <trkpt lat="41.97691" lon="9.22135">
        <ele>1482</ele>
        <time>2015-06-21T07:33:49Z</time>
      </trkpt>
      <trkpt lat="41.97693" lon="9.22135">
        <ele>1482</ele>
        <time>2015-06-21T07:33:51Z</time>
      </trkpt>
      <trkpt lat="41.97698" lon="9.22132">
        <ele>1482</ele>
        <time>2015-06-21T07:33:56Z</time>
      </trkpt>
      <trkpt lat="41.97727" lon="9.22115">
        <ele>1482.4</ele>
        <time>2015-06-21T07:34:29Z</time>
      </trkpt>
      <trkpt lat="41.97735" lon="9.22115">
        <ele>1483.8</ele>
        <time>2015-06-21T07:34:38Z</time>
      </trkpt>
      <trkpt lat="41.97736" lon="9.22115">
        <ele>1483.6</ele>
        <time>2015-06-21T07:34:39Z</time>
      </trkpt>
      <trkpt lat="41.97743" lon="9.22116">
        <ele>1484.8</ele>
        <time>2015-06-21T07:34:49Z</time>
      </trkpt>
      <trkpt lat="41.97749" lon="9.22118">
        <ele>1485.6</ele>
        <time>2015-06-21T07:34:57Z</time>
      </trkpt>
      <trkpt lat="41.97753" lon="9.2212">
        <ele>1486.8</ele>
        <time>2015-06-21T07:35:04Z</time>
      </trkpt>
      <trkpt lat="41.97759" lon="9.22123">
        <ele>1488</ele>
        <time>2015-06-21T07:35:13Z</time>
      </trkpt>
      <trkpt lat="41.97763" lon="9.22126">
        <ele>1488.8</ele>
        <time>2015-06-21T07:35:20Z</time>
      </trkpt>
      <trkpt lat="41.97766" lon="9.22131">
        <ele>1489.8</ele>
        <time>2015-06-21T07:35:28Z</time>
      </trkpt>
      <trkpt lat="41.97771" lon="9.22136">
        <ele>1491.2</ele>
        <time>2015-06-21T07:35:36Z</time>
      </trkpt>
      <trkpt lat="41.97775" lon="9.22142">
        <ele>1492.2</ele>
        <time>2015-06-21T07:35:44Z</time>
      </trkpt>
      <trkpt lat="41.97779" lon="9.22146">
        <ele>1493.2</ele>
        <time>2015-06-21T07:35:51Z</time>
      </trkpt>
      <trkpt lat="41.97783" lon="9.2215">
        <ele>1494</ele>
        <time>2015-06-21T07:35:57Z</time>
      </trkpt>
      <trkpt lat="41.97787" lon="9.22155">
        <ele>1495.2</ele>
        <time>2015-06-21T07:36:04Z</time>
      </trkpt>
      <trkpt lat="41.9779" lon="9.22157">
        <ele>1496.6</ele>
        <time>2015-06-21T07:36:12Z</time>
      </trkpt>
      <trkpt lat="41.97794" lon="9.2216">
        <ele>1497.4</ele>
        <time>2015-06-21T07:36:18Z</time>
      </trkpt>
      <trkpt lat="41.97797" lon="9.22163">
        <ele>1498.8</ele>
        <time>2015-06-21T07:36:28Z</time>
      </trkpt>
      <trkpt lat="41.97804" lon="9.22164">
        <ele>1499.8</ele>
        <time>2015-06-21T07:36:37Z</time>
      </trkpt>
      <trkpt lat="41.97809" lon="9.22163">
        <ele>1500.8</ele>
        <time>2015-06-21T07:36:44Z</time>
      </trkpt>
      <trkpt lat="41.97819" lon="9.2216">
        <ele>1502.4</ele>
        <time>2015-06-21T07:36:57Z</time>
      </trkpt>
      <trkpt lat="41.97833" lon="9.22155">
        <ele>1502.8</ele>
        <time>2015-06-21T07:37:11Z</time>
      </trkpt>
      <trkpt lat="41.97876" lon="9.22134">
        <ele>1502.2</ele>
        <time>2015-06-21T07:37:56Z</time>
      </trkpt>
      <trkpt lat="41.97886" lon="9.22129">
        <ele>1501.8</ele>
        <time>2015-06-21T07:38:09Z</time>
      </trkpt>
      <trkpt lat="41.97925" lon="9.22116">
        <ele>1502</ele>
        <time>2015-06-21T07:38:58Z</time>
      </trkpt>
      <trkpt lat="41.97927" lon="9.22116">
        <ele>1501.8</ele>
        <time>2015-06-21T07:39:01Z</time>
      </trkpt>
      <trkpt lat="41.97937" lon="9.22118">
        <ele>1503.4</ele>
        <time>2015-06-21T07:39:13Z</time>
      </trkpt>
      <trkpt lat="41.97941" lon="9.2212">
        <ele>1503.8</ele>
        <time>2015-06-21T07:39:19Z</time>
      </trkpt>
      <trkpt lat="41.97954" lon="9.22122">
        <ele>1504.8</ele>
        <time>2015-06-21T07:39:32Z</time>
      </trkpt>
      <trkpt lat="41.97963" lon="9.22123">
        <ele>1505.2</ele>
        <time>2015-06-21T07:39:42Z</time>
      </trkpt>
      <trkpt lat="41.97971" lon="9.22125">
        <ele>1506.2</ele>
        <time>2015-06-21T07:39:54Z</time>
      </trkpt>
      <trkpt lat="41.97976" lon="9.22126">
        <ele>1506.8</ele>
        <time>2015-06-21T07:40:00Z</time>
      </trkpt>
      <trkpt lat="41.97981" lon="9.22128">
        <ele>1508.2</ele>
        <time>2015-06-21T07:40:08Z</time>
      </trkpt>
      <trkpt lat="41.97985" lon="9.22132">
        <ele>1509</ele>
        <time>2015-06-21T07:40:17Z</time>
      </trkpt>
      <trkpt lat="41.97989" lon="9.22132">
        <ele>1510.4</ele>
        <time>2015-06-21T07:40:25Z</time>
      </trkpt>
      <trkpt lat="41.97999" lon="9.22128">
        <ele>1511.8</ele>
        <time>2015-06-21T07:40:39Z</time>
      </trkpt>
      <trkpt lat="41.98001" lon="9.22131">
        <ele>1512.2</ele>
        <time>2015-06-21T07:40:46Z</time>
      </trkpt>
      <trkpt lat="41.98003" lon="9.22133">
        <ele>1513.2</ele>
        <time>2015-06-21T07:40:52Z</time>
      </trkpt>
      <trkpt lat="41.98007" lon="9.22134">
        <ele>1514.6</ele>
        <time>2015-06-21T07:41:02Z</time>
      </trkpt>
      <trkpt lat="41.98014" lon="9.22136">
        <ele>1515.8</ele>
        <time>2015-06-21T07:41:15Z</time>
      </trkpt>
      <trkpt lat="41.98019" lon="9.22142">
        <ele>1516.8</ele>
        <time>2015-06-21T07:41:26Z</time>
      </trkpt>
      <trkpt lat="41.98026" lon="9.22146">
        <ele>1517.8</ele>
        <time>2015-06-21T07:41:38Z</time>
      </trkpt>
      <trkpt lat="41.9803" lon="9.2215">
        <ele>1518.8</ele>
        <time>2015-06-21T07:41:45Z</time>
      </trkpt>
      <trkpt lat="41.98035" lon="9.22152">
        <ele>1519.8</ele>
        <time>2015-06-21T07:41:52Z</time>
      </trkpt>
      <trkpt lat="41.9804" lon="9.22151">
        <ele>1521.2</ele>
        <time>2015-06-21T07:42:01Z</time>
      </trkpt>
      <trkpt lat="41.98042" lon="9.22153">
        <ele>1522.2</ele>
        <time>2015-06-21T07:42:09Z</time>
      </trkpt>
      <trkpt lat="41.98044" lon="9.22155">
        <ele>1523.2</ele>
        <time>2015-06-21T07:42:16Z</time>
      </trkpt>
      <trkpt lat="41.98047" lon="9.22154">
        <ele>1524.6</ele>
        <time>2015-06-21T07:42:26Z</time>
      </trkpt>
      <trkpt lat="41.9805" lon="9.22156">
        <ele>1525.6</ele>
        <time>2015-06-21T07:42:34Z</time>
      </trkpt>
      <trkpt lat="41.98052" lon="9.22157">
        <ele>1526.2</ele>
        <time>2015-06-21T07:42:41Z</time>
      </trkpt>
      <trkpt lat="41.98055" lon="9.22155">
        <ele>1527.4</ele>
        <time>2015-06-21T07:42:51Z</time>
      </trkpt>
      <trkpt lat="41.98059" lon="9.22153">
        <ele>1528.4</ele>
        <time>2015-06-21T07:42:59Z</time>
      </trkpt>
      <trkpt lat="41.98063" lon="9.22154">
        <ele>1529.8</ele>
        <time>2015-06-21T07:43:09Z</time>
      </trkpt>
      <trkpt lat="41.98067" lon="9.22154">
        <ele>1530.6</ele>
        <time>2015-06-21T07:43:20Z</time>
      </trkpt>
      <trkpt lat="41.98072" lon="9.2215">
        <ele>1532.2</ele>
        <time>2015-06-21T07:43:32Z</time>
      </trkpt>
      <trkpt lat="41.98074" lon="9.22147">
        <ele>1532.6</ele>
        <time>2015-06-21T07:43:39Z</time>
      </trkpt>
      <trkpt lat="41.98078" lon="9.22149">
        <ele>1534.2</ele>
        <time>2015-06-21T07:43:52Z</time>
      </trkpt>
      <trkpt lat="41.98081" lon="9.22149">
        <ele>1535.4</ele>
        <time>2015-06-21T07:44:02Z</time>
      </trkpt>
      <trkpt lat="41.98085" lon="9.22148">
        <ele>1536.6</ele>
        <time>2015-06-21T07:44:12Z</time>
      </trkpt>
      <trkpt lat="41.98088" lon="9.22147">
        <ele>1537.4</ele>
        <time>2015-06-21T07:44:20Z</time>
      </trkpt>
      <trkpt lat="41.9809" lon="9.22145">
        <ele>1538.4</ele>
        <time>2015-06-21T07:44:27Z</time>
      </trkpt>
      <trkpt lat="41.98093" lon="9.22145">
        <ele>1539.6</ele>
        <time>2015-06-21T07:44:38Z</time>
      </trkpt>
      <trkpt lat="41.98095" lon="9.22144">
        <ele>1540.8</ele>
        <time>2015-06-21T07:44:48Z</time>
      </trkpt>
      <trkpt lat="41.98097" lon="9.22145">
        <ele>1542</ele>
        <time>2015-06-21T07:44:56Z</time>
      </trkpt>
      <trkpt lat="41.98099" lon="9.22144">
        <ele>1543</ele>
        <time>2015-06-21T07:45:04Z</time>
      </trkpt>
      <trkpt lat="41.98101" lon="9.22143">
        <ele>1544</ele>
        <time>2015-06-21T07:45:12Z</time>
      </trkpt>
      <trkpt lat="41.98106" lon="9.2213">
        <ele>1545.6</ele>
        <time>2015-06-21T07:45:51Z</time>
      </trkpt>
      <trkpt lat="41.9811" lon="9.22119">
        <ele>1546.8</ele>
        <time>2015-06-21T07:46:13Z</time>
      </trkpt>
      <trkpt lat="41.98113" lon="9.22116">
        <ele>1547.6</ele>
        <time>2015-06-21T07:46:24Z</time>
      </trkpt>
      <trkpt lat="41.98115" lon="9.22113">
        <ele>1548.2</ele>
        <time>2015-06-21T07:46:30Z</time>
      </trkpt>
      <trkpt lat="41.98118" lon="9.22111">
        <ele>1549.6</ele>
        <time>2015-06-21T07:46:40Z</time>
      </trkpt>
      <trkpt lat="41.98118" lon="9.22108">
        <ele>1550.6</ele>
        <time>2015-06-21T07:46:48Z</time>
      </trkpt>
      <trkpt lat="41.98121" lon="9.22104">
        <ele>1551.6</ele>
        <time>2015-06-21T07:46:57Z</time>
      </trkpt>
      <trkpt lat="41.98123" lon="9.221">
        <ele>1552.8</ele>
        <time>2015-06-21T07:47:06Z</time>
      </trkpt>
      <trkpt lat="41.98126" lon="9.22098">
        <ele>1553.8</ele>
        <time>2015-06-21T07:47:13Z</time>
      </trkpt>
      <trkpt lat="41.98129" lon="9.22094">
        <ele>1555</ele>
        <time>2015-06-21T07:47:20Z</time>
      </trkpt>
      <trkpt lat="41.98131" lon="9.2209">
        <ele>1556.2</ele>
        <time>2015-06-21T07:47:30Z</time>
      </trkpt>
      <trkpt lat="41.98135" lon="9.22081">
        <ele>1557.4</ele>
        <time>2015-06-21T07:47:45Z</time>
      </trkpt>
      <trkpt lat="41.98139" lon="9.22076">
        <ele>1558.6</ele>
        <time>2015-06-21T07:48:06Z</time>
      </trkpt>
      <trkpt lat="41.98141" lon="9.22076">
        <ele>1559.4</ele>
        <time>2015-06-21T07:48:15Z</time>
      </trkpt>
      <trkpt lat="41.98143" lon="9.22074">
        <ele>1560.8</ele>
        <time>2015-06-21T07:48:24Z</time>
      </trkpt>
      <trkpt lat="41.98143" lon="9.22072">
        <ele>1561.2</ele>
        <time>2015-06-21T07:48:30Z</time>
      </trkpt>
      <trkpt lat="41.98148" lon="9.22066">
        <ele>1563</ele>
        <time>2015-06-21T07:48:43Z</time>
      </trkpt>
      <trkpt lat="41.9815" lon="9.22064">
        <ele>1564</ele>
        <time>2015-06-21T07:48:54Z</time>
      </trkpt>
      <trkpt lat="41.98154" lon="9.22058">
        <ele>1565</ele>
        <time>2015-06-21T07:49:08Z</time>
      </trkpt>
      <trkpt lat="41.98154" lon="9.22057">
        <ele>1565.4</ele>
        <time>2015-06-21T07:49:14Z</time>
      </trkpt>
      <trkpt lat="41.98156" lon="9.22053">
        <ele>1567</ele>
        <time>2015-06-21T07:49:23Z</time>
      </trkpt>
      <trkpt lat="41.98161" lon="9.22046">
        <ele>1568.6</ele>
        <time>2015-06-21T07:49:44Z</time>
      </trkpt>
      <trkpt lat="41.9816" lon="9.22048">
        <ele>1569.4</ele>
        <time>2015-06-21T07:50:04Z</time>
      </trkpt>
      <trkpt lat="41.98161" lon="9.22049">
        <ele>1570.4</ele>
        <time>2015-06-21T07:50:13Z</time>
      </trkpt>
      <trkpt lat="41.98161" lon="9.22049">
        <ele>1570.2</ele>
        <time>2015-06-21T07:50:14Z</time>
      </trkpt>
      <trkpt lat="41.98167" lon="9.22047">
        <ele>1571.2</ele>
        <time>2015-06-21T07:50:31Z</time>
      </trkpt>
      <trkpt lat="41.98172" lon="9.22049">
        <ele>1572.2</ele>
        <time>2015-06-21T07:50:42Z</time>
      </trkpt>
      <trkpt lat="41.98178" lon="9.22046">
        <ele>1573.6</ele>
        <time>2015-06-21T07:50:55Z</time>
      </trkpt>
      <trkpt lat="41.98181" lon="9.22044">
        <ele>1574.8</ele>
        <time>2015-06-21T07:51:04Z</time>
      </trkpt>
      <trkpt lat="41.98185" lon="9.22043">
        <ele>1575.4</ele>
        <time>2015-06-21T07:51:11Z</time>
      </trkpt>
      <trkpt lat="41.9819" lon="9.22043">
        <ele>1576.6</ele>
        <time>2015-06-21T07:51:23Z</time>
      </trkpt>
      <trkpt lat="41.98195" lon="9.22042">
        <ele>1578</ele>
        <time>2015-06-21T07:51:33Z</time>
      </trkpt>
      <trkpt lat="41.98203" lon="9.22035">
        <ele>1578.2</ele>
        <time>2015-06-21T07:51:59Z</time>
      </trkpt>
      <trkpt lat="41.98208" lon="9.22029">
        <ele>1577</ele>
        <time>2015-06-21T07:52:22Z</time>
      </trkpt>
      <trkpt lat="41.98207" lon="9.22024">
        <ele>1576.6</ele>
        <time>2015-06-21T07:52:29Z</time>
      </trkpt>
      <trkpt lat="41.98206" lon="9.22019">
        <ele>1575.4</ele>
        <time>2015-06-21T07:52:35Z</time>
      </trkpt>
      <trkpt lat="41.98207" lon="9.22017">
        <ele>1574</ele>
        <time>2015-06-21T07:52:44Z</time>
      </trkpt>
      <trkpt lat="41.98209" lon="9.22014">
        <ele>1573.2</ele>
        <time>2015-06-21T07:52:51Z</time>
      </trkpt>
      <trkpt lat="41.98209" lon="9.22009">
        <ele>1572.4</ele>
        <time>2015-06-21T07:52:56Z</time>
      </trkpt>
      <trkpt lat="41.98213" lon="9.22007">
        <ele>1570.6</ele>
        <time>2015-06-21T07:53:05Z</time>
      </trkpt>
      <trkpt lat="41.98216" lon="9.22007">
        <ele>1569.8</ele>
        <time>2015-06-21T07:53:12Z</time>
      </trkpt>
      <trkpt lat="41.98219" lon="9.22001">
        <ele>1568.4</ele>
        <time>2015-06-21T07:53:32Z</time>
      </trkpt>
      <trkpt lat="41.98225" lon="9.21996">
        <ele>1567.6</ele>
        <time>2015-06-21T07:53:44Z</time>
      </trkpt>
      <trkpt lat="41.9823" lon="9.2199">
        <ele>1566.2</ele>
        <time>2015-06-21T07:53:54Z</time>
      </trkpt>
      <trkpt lat="41.98233" lon="9.21982">
        <ele>1564.8</ele>
        <time>2015-06-21T07:54:07Z</time>
      </trkpt>
      <trkpt lat="41.98233" lon="9.21976">
        <ele>1563.6</ele>
        <time>2015-06-21T07:54:21Z</time>
      </trkpt>
      <trkpt lat="41.98235" lon="9.21966">
        <ele>1562.8</ele>
        <time>2015-06-21T07:54:36Z</time>
      </trkpt>
      <trkpt lat="41.98238" lon="9.21962">
        <ele>1562.8</ele>
        <time>2015-06-21T07:55:03Z</time>
      </trkpt>
      <trkpt lat="41.98242" lon="9.21957">
        <ele>1564.2</ele>
        <time>2015-06-21T07:55:22Z</time>
      </trkpt>
      <trkpt lat="41.98243" lon="9.21954">
        <ele>1565</ele>
        <time>2015-06-21T07:55:30Z</time>
      </trkpt>
      <trkpt lat="41.98247" lon="9.21951">
        <ele>1566</ele>
        <time>2015-06-21T07:55:41Z</time>
      </trkpt>
      <trkpt lat="41.98251" lon="9.21945">
        <ele>1567.2</ele>
        <time>2015-06-21T07:55:51Z</time>
      </trkpt>
      <trkpt lat="41.98252" lon="9.21943">
        <ele>1568.2</ele>
        <time>2015-06-21T07:55:59Z</time>
      </trkpt>
      <trkpt lat="41.98255" lon="9.21938">
        <ele>1569.4</ele>
        <time>2015-06-21T07:56:21Z</time>
      </trkpt>
      <trkpt lat="41.98255" lon="9.21939">
        <ele>1570.8</ele>
        <time>2015-06-21T07:56:30Z</time>
      </trkpt>
      <trkpt lat="41.98257" lon="9.21942">
        <ele>1571.6</ele>
        <time>2015-06-21T07:56:39Z</time>
      </trkpt>
      <trkpt lat="41.98259" lon="9.21944">
        <ele>1572.6</ele>
        <time>2015-06-21T07:56:47Z</time>
      </trkpt>
      <trkpt lat="41.9826" lon="9.21943">
        <ele>1574.2</ele>
        <time>2015-06-21T07:57:00Z</time>
      </trkpt>
      <trkpt lat="41.9826" lon="9.21944">
        <ele>1574.8</ele>
        <time>2015-06-21T07:57:07Z</time>
      </trkpt>
      <trkpt lat="41.98262" lon="9.21941">
        <ele>1575.8</ele>
        <time>2015-06-21T07:57:15Z</time>
      </trkpt>
      <trkpt lat="41.98264" lon="9.21939">
        <ele>1577.4</ele>
        <time>2015-06-21T07:57:27Z</time>
      </trkpt>
      <trkpt lat="41.98265" lon="9.21941">
        <ele>1578.4</ele>
        <time>2015-06-21T07:57:37Z</time>
      </trkpt>
      <trkpt lat="41.98267" lon="9.21941">
        <ele>1579.4</ele>
        <time>2015-06-21T07:57:50Z</time>
      </trkpt>
      <trkpt lat="41.98276" lon="9.2194">
        <ele>1580</ele>
        <time>2015-06-21T07:58:32Z</time>
      </trkpt>
      <trkpt lat="41.98278" lon="9.21938">
        <ele>1579.4</ele>
        <time>2015-06-21T07:58:38Z</time>
      </trkpt>
      <trkpt lat="41.9828" lon="9.2194">
        <ele>1578.2</ele>
        <time>2015-06-21T07:58:45Z</time>
      </trkpt>
      <trkpt lat="41.98283" lon="9.2194">
        <ele>1577.2</ele>
        <time>2015-06-21T07:58:52Z</time>
      </trkpt>
      <trkpt lat="41.98287" lon="9.21942">
        <ele>1576</ele>
        <time>2015-06-21T07:58:58Z</time>
      </trkpt>
      <trkpt lat="41.98292" lon="9.21946">
        <ele>1574.6</ele>
        <time>2015-06-21T07:59:08Z</time>
      </trkpt>
      <trkpt lat="41.98297" lon="9.21952">
        <ele>1573.4</ele>
        <time>2015-06-21T07:59:18Z</time>
      </trkpt>
      <trkpt lat="41.98302" lon="9.21953">
        <ele>1572.4</ele>
        <time>2015-06-21T07:59:31Z</time>
      </trkpt>
      <trkpt lat="41.98306" lon="9.21954">
        <ele>1571.8</ele>
        <time>2015-06-21T07:59:38Z</time>
      </trkpt>
      <trkpt lat="41.98309" lon="9.21955">
        <ele>1570.6</ele>
        <time>2015-06-21T07:59:46Z</time>
      </trkpt>
      <trkpt lat="41.98314" lon="9.21956">
        <ele>1569.4</ele>
        <time>2015-06-21T07:59:53Z</time>
      </trkpt>
      <trkpt lat="41.98318" lon="9.21955">
        <ele>1568.6</ele>
        <time>2015-06-21T07:59:59Z</time>
      </trkpt>
      <trkpt lat="41.98324" lon="9.21957">
        <ele>1566.8</ele>
        <time>2015-06-21T08:00:07Z</time>
      </trkpt>
      <trkpt lat="41.98329" lon="9.21956">
        <ele>1566</ele>
        <time>2015-06-21T08:00:14Z</time>
      </trkpt>
      <trkpt lat="41.98345" lon="9.21957">
        <ele>1564.2</ele>
        <time>2015-06-21T08:00:28Z</time>
      </trkpt>
      <trkpt lat="41.98352" lon="9.21957">
        <ele>1564.2</ele>
        <time>2015-06-21T08:00:37Z</time>
      </trkpt>
      <trkpt lat="41.98355" lon="9.21947">
        <ele>1565.4</ele>
        <time>2015-06-21T08:00:51Z</time>
      </trkpt>
      <trkpt lat="41.98358" lon="9.21946">
        <ele>1566.4</ele>
        <time>2015-06-21T08:01:01Z</time>
      </trkpt>
      <trkpt lat="41.9836" lon="9.21947">
        <ele>1568</ele>
        <time>2015-06-21T08:01:11Z</time>
      </trkpt>
      <trkpt lat="41.98362" lon="9.21946">
        <ele>1568.6</ele>
        <time>2015-06-21T08:01:21Z</time>
      </trkpt>
      <trkpt lat="41.98365" lon="9.21944">
        <ele>1569.8</ele>
        <time>2015-06-21T08:01:30Z</time>
      </trkpt>
      <trkpt lat="41.9837" lon="9.21944">
        <ele>1571.4</ele>
        <time>2015-06-21T08:01:43Z</time>
      </trkpt>
      <trkpt lat="41.98372" lon="9.21942">
        <ele>1572.4</ele>
        <time>2015-06-21T08:01:55Z</time>
      </trkpt>
      <trkpt lat="41.98376" lon="9.21935">
        <ele>1573.2</ele>
        <time>2015-06-21T08:02:23Z</time>
      </trkpt>
      <trkpt lat="41.98382" lon="9.21927">
        <ele>1574.4</ele>
        <time>2015-06-21T08:02:38Z</time>
      </trkpt>
      <trkpt lat="41.98388" lon="9.21925">
        <ele>1575.8</ele>
        <time>2015-06-21T08:03:19Z</time>
      </trkpt>
      <trkpt lat="41.98389" lon="9.21925">
        <ele>1576.8</ele>
        <time>2015-06-21T08:03:31Z</time>
      </trkpt>
      <trkpt lat="41.984" lon="9.21922">
        <ele>1576.6</ele>
        <time>2015-06-21T08:04:07Z</time>
      </trkpt>
      <trkpt lat="41.98403" lon="9.21923">
        <ele>1576</ele>
        <time>2015-06-21T08:04:15Z</time>
      </trkpt>
      <trkpt lat="41.98406" lon="9.21921">
        <ele>1575</ele>
        <time>2015-06-21T08:04:24Z</time>
      </trkpt>
      <trkpt lat="41.98409" lon="9.21923">
        <ele>1574.2</ele>
        <time>2015-06-21T08:04:30Z</time>
      </trkpt>
      <trkpt lat="41.98412" lon="9.21922">
        <ele>1572.6</ele>
        <time>2015-06-21T08:04:40Z</time>
      </trkpt>
      <trkpt lat="41.98419" lon="9.21923">
        <ele>1571.6</ele>
        <time>2015-06-21T08:04:48Z</time>
      </trkpt>
      <trkpt lat="41.98425" lon="9.2192">
        <ele>1570.2</ele>
        <time>2015-06-21T08:05:14Z</time>
      </trkpt>
      <trkpt lat="41.98446" lon="9.21922">
        <ele>1570</ele>
        <time>2015-06-21T08:05:47Z</time>
      </trkpt>
      <trkpt lat="41.98448" lon="9.21921">
        <ele>1571.2</ele>
        <time>2015-06-21T08:05:54Z</time>
      </trkpt>
      <trkpt lat="41.98458" lon="9.21921">
        <ele>1572.6</ele>
        <time>2015-06-21T08:06:51Z</time>
      </trkpt>
      <trkpt lat="41.98467" lon="9.21919">
        <ele>1573.4</ele>
        <time>2015-06-21T08:07:43Z</time>
      </trkpt>
      <trkpt lat="41.98471" lon="9.21921">
        <ele>1574.2</ele>
        <time>2015-06-21T08:07:49Z</time>
      </trkpt>
      <trkpt lat="41.98471" lon="9.21921">
        <ele>1574.4</ele>
        <time>2015-06-21T08:07:51Z</time>
      </trkpt>
      <trkpt lat="41.98475" lon="9.2192">
        <ele>1574.6</ele>
        <time>2015-06-21T08:08:22Z</time>
      </trkpt>
      <trkpt lat="41.98476" lon="9.21919">
        <ele>1573.6</ele>
        <time>2015-06-21T08:08:36Z</time>
      </trkpt>
      <trkpt lat="41.98483" lon="9.21911">
        <ele>1573.4</ele>
        <time>2015-06-21T08:09:09Z</time>
      </trkpt>
      <trkpt lat="41.98493" lon="9.2191">
        <ele>1574.8</ele>
        <time>2015-06-21T08:09:51Z</time>
      </trkpt>
      <trkpt lat="41.98495" lon="9.2191">
        <ele>1575.4</ele>
        <time>2015-06-21T08:09:59Z</time>
      </trkpt>
      <trkpt lat="41.98498" lon="9.2191">
        <ele>1577</ele>
        <time>2015-06-21T08:10:08Z</time>
      </trkpt>
      <trkpt lat="41.985" lon="9.21908">
        <ele>1577.8</ele>
        <time>2015-06-21T08:10:15Z</time>
      </trkpt>
      <trkpt lat="41.98503" lon="9.21905">
        <ele>1579</ele>
        <time>2015-06-21T08:10:22Z</time>
      </trkpt>
      <trkpt lat="41.98506" lon="9.21906">
        <ele>1580.4</ele>
        <time>2015-06-21T08:10:38Z</time>
      </trkpt>
      <trkpt lat="41.98509" lon="9.21908">
        <ele>1581.4</ele>
        <time>2015-06-21T08:10:46Z</time>
      </trkpt>
      <trkpt lat="41.98509" lon="9.21906">
        <ele>1582.2</ele>
        <time>2015-06-21T08:10:54Z</time>
      </trkpt>
      <trkpt lat="41.98509" lon="9.2191">
        <ele>1583.4</ele>
        <time>2015-06-21T08:11:02Z</time>
      </trkpt>
      <trkpt lat="41.98509" lon="9.21912">
        <ele>1584.4</ele>
        <time>2015-06-21T08:11:09Z</time>
      </trkpt>
      <trkpt lat="41.98509" lon="9.21915">
        <ele>1585.6</ele>
        <time>2015-06-21T08:11:18Z</time>
      </trkpt>
      <trkpt lat="41.9851" lon="9.21918">
        <ele>1586.6</ele>
        <time>2015-06-21T08:11:30Z</time>
      </trkpt>
      <trkpt lat="41.98512" lon="9.21921">
        <ele>1587.6</ele>
        <time>2015-06-21T08:11:40Z</time>
      </trkpt>
      <trkpt lat="41.98514" lon="9.21918">
        <ele>1588.8</ele>
        <time>2015-06-21T08:11:50Z</time>
      </trkpt>
      <trkpt lat="41.98516" lon="9.21918">
        <ele>1589.6</ele>
        <time>2015-06-21T08:11:58Z</time>
      </trkpt>
      <trkpt lat="41.98518" lon="9.2192">
        <ele>1590.6</ele>
        <time>2015-06-21T08:12:06Z</time>
      </trkpt>
      <trkpt lat="41.98515" lon="9.21924">
        <ele>1591.4</ele>
        <time>2015-06-21T08:12:14Z</time>
      </trkpt>
      <trkpt lat="41.98514" lon="9.21927">
        <ele>1592.8</ele>
        <time>2015-06-21T08:12:23Z</time>
      </trkpt>
      <trkpt lat="41.98515" lon="9.21929">
        <ele>1593.8</ele>
        <time>2015-06-21T08:12:31Z</time>
      </trkpt>
      <trkpt lat="41.98514" lon="9.21931">
        <ele>1595</ele>
        <time>2015-06-21T08:12:41Z</time>
      </trkpt>
      <trkpt lat="41.98515" lon="9.21933">
        <ele>1595.8</ele>
        <time>2015-06-21T08:12:48Z</time>
      </trkpt>
      <trkpt lat="41.98518" lon="9.21933">
        <ele>1596.8</ele>
        <time>2015-06-21T08:12:56Z</time>
      </trkpt>
      <trkpt lat="41.98518" lon="9.21936">
        <ele>1598.4</ele>
        <time>2015-06-21T08:13:11Z</time>
      </trkpt>
      <trkpt lat="41.98516" lon="9.21939">
        <ele>1599</ele>
        <time>2015-06-21T08:13:19Z</time>
      </trkpt>
      <trkpt lat="41.98519" lon="9.21942">
        <ele>1600.4</ele>
        <time>2015-06-21T08:13:30Z</time>
      </trkpt>
      <trkpt lat="41.9852" lon="9.21943">
        <ele>1601.2</ele>
        <time>2015-06-21T08:13:38Z</time>
      </trkpt>
      <trkpt lat="41.98523" lon="9.21943">
        <ele>1602.4</ele>
        <time>2015-06-21T08:13:46Z</time>
      </trkpt>
      <trkpt lat="41.98524" lon="9.21945">
        <ele>1603.6</ele>
        <time>2015-06-21T08:13:55Z</time>
      </trkpt>
      <trkpt lat="41.98524" lon="9.21947">
        <ele>1604.8</ele>
        <time>2015-06-21T08:14:05Z</time>
      </trkpt>
      <trkpt lat="41.98525" lon="9.21948">
        <ele>1605.4</ele>
        <time>2015-06-21T08:14:13Z</time>
      </trkpt>
      <trkpt lat="41.98526" lon="9.21951">
        <ele>1606.8</ele>
        <time>2015-06-21T08:14:23Z</time>
      </trkpt>
      <trkpt lat="41.98529" lon="9.21953">
        <ele>1608</ele>
        <time>2015-06-21T08:14:33Z</time>
      </trkpt>
      <trkpt lat="41.9853" lon="9.21955">
        <ele>1608.8</ele>
        <time>2015-06-21T08:14:40Z</time>
      </trkpt>
      <trkpt lat="41.9853" lon="9.21958">
        <ele>1609.8</ele>
        <time>2015-06-21T08:14:47Z</time>
      </trkpt>
      <trkpt lat="41.98534" lon="9.21957">
        <ele>1611.2</ele>
        <time>2015-06-21T08:14:56Z</time>
      </trkpt>
      <trkpt lat="41.98538" lon="9.21956">
        <ele>1612.4</ele>
        <time>2015-06-21T08:15:05Z</time>
      </trkpt>
      <trkpt lat="41.98543" lon="9.21954">
        <ele>1613.4</ele>
        <time>2015-06-21T08:15:14Z</time>
      </trkpt>
      <trkpt lat="41.98545" lon="9.21954">
        <ele>1614.6</ele>
        <time>2015-06-21T08:15:22Z</time>
      </trkpt>
      <trkpt lat="41.98547" lon="9.21954">
        <ele>1616</ele>
        <time>2015-06-21T08:15:32Z</time>
      </trkpt>
      <trkpt lat="41.98549" lon="9.21952">
        <ele>1616.6</ele>
        <time>2015-06-21T08:15:40Z</time>
      </trkpt>
      <trkpt lat="41.9855" lon="9.21952">
        <ele>1618</ele>
        <time>2015-06-21T08:15:51Z</time>
      </trkpt>
      <trkpt lat="41.98552" lon="9.21954">
        <ele>1619.2</ele>
        <time>2015-06-21T08:15:59Z</time>
      </trkpt>
      <trkpt lat="41.98555" lon="9.21948">
        <ele>1620</ele>
        <time>2015-06-21T08:16:10Z</time>
      </trkpt>
      <trkpt lat="41.98555" lon="9.21947">
        <ele>1620.2</ele>
        <time>2015-06-21T08:16:12Z</time>
      </trkpt>
      <trkpt lat="41.98556" lon="9.21944">
        <ele>1621.2</ele>
        <time>2015-06-21T08:16:19Z</time>
      </trkpt>
      <trkpt lat="41.98558" lon="9.21931">
        <ele>1622.6</ele>
        <time>2015-06-21T08:16:35Z</time>
      </trkpt>
      <trkpt lat="41.98561" lon="9.21929">
        <ele>1623.2</ele>
        <time>2015-06-21T08:16:44Z</time>
      </trkpt>
      <trkpt lat="41.98562" lon="9.21924">
        <ele>1624.6</ele>
        <time>2015-06-21T08:16:54Z</time>
      </trkpt>
      <trkpt lat="41.98563" lon="9.21917">
        <ele>1625.4</ele>
        <time>2015-06-21T08:17:08Z</time>
      </trkpt>
      <trkpt lat="41.98565" lon="9.21911">
        <ele>1627</ele>
        <time>2015-06-21T08:17:25Z</time>
      </trkpt>
      <trkpt lat="41.98563" lon="9.2191">
        <ele>1628.2</ele>
        <time>2015-06-21T08:17:50Z</time>
      </trkpt>
      <trkpt lat="41.98562" lon="9.21909">
        <ele>1628.6</ele>
        <time>2015-06-21T08:18:00Z</time>
      </trkpt>
      <trkpt lat="41.98565" lon="9.2191">
        <ele>1629.4</ele>
        <time>2015-06-21T08:18:08Z</time>
      </trkpt>
      <trkpt lat="41.98563" lon="9.21912">
        <ele>1630.2</ele>
        <time>2015-06-21T08:18:16Z</time>
      </trkpt>
      <trkpt lat="41.98565" lon="9.21909">
        <ele>1630.8</ele>
        <time>2015-06-21T08:18:29Z</time>
      </trkpt>
      <trkpt lat="41.98566" lon="9.21907">
        <ele>1632</ele>
        <time>2015-06-21T08:18:43Z</time>
      </trkpt>
      <trkpt lat="41.98567" lon="9.21905">
        <ele>1632.8</ele>
        <time>2015-06-21T08:18:50Z</time>
      </trkpt>
      <trkpt lat="41.98574" lon="9.21906">
        <ele>1633.2</ele>
        <time>2015-06-21T08:20:16Z</time>
      </trkpt>
      <trkpt lat="41.98576" lon="9.21901">
        <ele>1632.4</ele>
        <time>2015-06-21T08:20:25Z</time>
      </trkpt>
      <trkpt lat="41.98581" lon="9.21902">
        <ele>1631.4</ele>
        <time>2015-06-21T08:20:32Z</time>
      </trkpt>
      <trkpt lat="41.98593" lon="9.219">
        <ele>1630</ele>
        <time>2015-06-21T08:20:47Z</time>
      </trkpt>
      <trkpt lat="41.98603" lon="9.21904">
        <ele>1629.8</ele>
        <time>2015-06-21T08:21:06Z</time>
      </trkpt>
      <trkpt lat="41.98613" lon="9.21902">
        <ele>1631.4</ele>
        <time>2015-06-21T08:21:22Z</time>
      </trkpt>
      <trkpt lat="41.98616" lon="9.21903">
        <ele>1631.8</ele>
        <time>2015-06-21T08:21:28Z</time>
      </trkpt>
      <trkpt lat="41.98617" lon="9.21904">
        <ele>1633</ele>
        <time>2015-06-21T08:21:34Z</time>
      </trkpt>
      <trkpt lat="41.9862" lon="9.21903">
        <ele>1634.2</ele>
        <time>2015-06-21T08:21:41Z</time>
      </trkpt>
      <trkpt lat="41.98623" lon="9.21901">
        <ele>1635.2</ele>
        <time>2015-06-21T08:21:50Z</time>
      </trkpt>
      <trkpt lat="41.98622" lon="9.21902">
        <ele>1636.6</ele>
        <time>2015-06-21T08:21:59Z</time>
      </trkpt>
      <trkpt lat="41.98624" lon="9.21901">
        <ele>1637.8</ele>
        <time>2015-06-21T08:22:10Z</time>
      </trkpt>
      <trkpt lat="41.98629" lon="9.219">
        <ele>1638.6</ele>
        <time>2015-06-21T08:22:20Z</time>
      </trkpt>
      <trkpt lat="41.98632" lon="9.21897">
        <ele>1639.8</ele>
        <time>2015-06-21T08:22:28Z</time>
      </trkpt>
      <trkpt lat="41.98635" lon="9.21889">
        <ele>1641.2</ele>
        <time>2015-06-21T08:22:39Z</time>
      </trkpt>
      <trkpt lat="41.98638" lon="9.21888">
        <ele>1641.8</ele>
        <time>2015-06-21T08:22:50Z</time>
      </trkpt>
      <trkpt lat="41.98638" lon="9.21887">
        <ele>1642.8</ele>
        <time>2015-06-21T08:22:57Z</time>
      </trkpt>
      <trkpt lat="41.98638" lon="9.21891">
        <ele>1644.2</ele>
        <time>2015-06-21T08:23:06Z</time>
      </trkpt>
      <trkpt lat="41.98642" lon="9.2189">
        <ele>1645.2</ele>
        <time>2015-06-21T08:23:17Z</time>
      </trkpt>
      <trkpt lat="41.98642" lon="9.21891">
        <ele>1646.2</ele>
        <time>2015-06-21T08:23:26Z</time>
      </trkpt>
      <trkpt lat="41.98645" lon="9.21892">
        <ele>1647.6</ele>
        <time>2015-06-21T08:23:36Z</time>
      </trkpt>
      <trkpt lat="41.98646" lon="9.21892">
        <ele>1648.6</ele>
        <time>2015-06-21T08:23:48Z</time>
      </trkpt>
      <trkpt lat="41.9865" lon="9.21891">
        <ele>1649.6</ele>
        <time>2015-06-21T08:23:56Z</time>
      </trkpt>
      <trkpt lat="41.98653" lon="9.21892">
        <ele>1650.8</ele>
        <time>2015-06-21T08:24:05Z</time>
      </trkpt>
      <trkpt lat="41.98658" lon="9.21893">
        <ele>1652</ele>
        <time>2015-06-21T08:24:15Z</time>
      </trkpt>
      <trkpt lat="41.9866" lon="9.21895">
        <ele>1652.8</ele>
        <time>2015-06-21T08:24:24Z</time>
      </trkpt>
      <trkpt lat="41.98659" lon="9.21899">
        <ele>1653.8</ele>
        <time>2015-06-21T08:24:33Z</time>
      </trkpt>
      <trkpt lat="41.98657" lon="9.21902">
        <ele>1655</ele>
        <time>2015-06-21T08:24:42Z</time>
      </trkpt>
      <trkpt lat="41.98657" lon="9.21904">
        <ele>1656.2</ele>
        <time>2015-06-21T08:24:52Z</time>
      </trkpt>
      <trkpt lat="41.98657" lon="9.21907">
        <ele>1657</ele>
        <time>2015-06-21T08:25:01Z</time>
      </trkpt>
      <trkpt lat="41.98658" lon="9.21907">
        <ele>1658.4</ele>
        <time>2015-06-21T08:25:10Z</time>
      </trkpt>
      <trkpt lat="41.9866" lon="9.2191">
        <ele>1659.4</ele>
        <time>2015-06-21T08:25:20Z</time>
      </trkpt>
      <trkpt lat="41.98666" lon="9.21912">
        <ele>1660.4</ele>
        <time>2015-06-21T08:25:29Z</time>
      </trkpt>
      <trkpt lat="41.98668" lon="9.21916">
        <ele>1661.4</ele>
        <time>2015-06-21T08:25:39Z</time>
      </trkpt>
      <trkpt lat="41.98672" lon="9.21917">
        <ele>1662.2</ele>
        <time>2015-06-21T08:25:45Z</time>
      </trkpt>
      <trkpt lat="41.98674" lon="9.21921">
        <ele>1663.6</ele>
        <time>2015-06-21T08:25:56Z</time>
      </trkpt>
      <trkpt lat="41.98677" lon="9.21923">
        <ele>1664.4</ele>
        <time>2015-06-21T08:26:04Z</time>
      </trkpt>
      <trkpt lat="41.98676" lon="9.21927">
        <ele>1665.6</ele>
        <time>2015-06-21T08:26:11Z</time>
      </trkpt>
      <trkpt lat="41.9868" lon="9.21929">
        <ele>1666.6</ele>
        <time>2015-06-21T08:26:18Z</time>
      </trkpt>
      <trkpt lat="41.98685" lon="9.21929">
        <ele>1667.6</ele>
        <time>2015-06-21T08:26:27Z</time>
      </trkpt>
      <trkpt lat="41.98688" lon="9.21933">
        <ele>1669.2</ele>
        <time>2015-06-21T08:26:37Z</time>
      </trkpt>
      <trkpt lat="41.98694" lon="9.21932">
        <ele>1670.2</ele>
        <time>2015-06-21T08:26:46Z</time>
      </trkpt>
      <trkpt lat="41.98697" lon="9.21935">
        <ele>1671.2</ele>
        <time>2015-06-21T08:26:54Z</time>
      </trkpt>
      <trkpt lat="41.987" lon="9.21937">
        <ele>1672.2</ele>
        <time>2015-06-21T08:27:02Z</time>
      </trkpt>
      <trkpt lat="41.98704" lon="9.21939">
        <ele>1673</ele>
        <time>2015-06-21T08:27:09Z</time>
      </trkpt>
      <trkpt lat="41.98715" lon="9.21937">
        <ele>1674.8</ele>
        <time>2015-06-21T08:27:25Z</time>
      </trkpt>
      <trkpt lat="41.98738" lon="9.21945">
        <ele>1675.6</ele>
        <time>2015-06-21T08:28:07Z</time>
      </trkpt>
      <trkpt lat="41.98747" lon="9.21952">
        <ele>1676.8</ele>
        <time>2015-06-21T08:28:19Z</time>
      </trkpt>
      <trkpt lat="41.98756" lon="9.21958">
        <ele>1677.6</ele>
        <time>2015-06-21T08:28:31Z</time>
      </trkpt>
      <trkpt lat="41.98757" lon="9.21959">
        <ele>1677.6</ele>
        <time>2015-06-21T08:28:32Z</time>
      </trkpt>
      <trkpt lat="41.98767" lon="9.21966">
        <ele>1678.8</ele>
        <time>2015-06-21T08:28:45Z</time>
      </trkpt>
      <trkpt lat="41.98776" lon="9.21974">
        <ele>1679.8</ele>
        <time>2015-06-21T08:28:58Z</time>
      </trkpt>
      <trkpt lat="41.98779" lon="9.21982">
        <ele>1680.6</ele>
        <time>2015-06-21T08:29:09Z</time>
      </trkpt>
      <trkpt lat="41.98789" lon="9.21989">
        <ele>1681.8</ele>
        <time>2015-06-21T08:29:21Z</time>
      </trkpt>
      <trkpt lat="41.98793" lon="9.21991">
        <ele>1682.4</ele>
        <time>2015-06-21T08:29:28Z</time>
      </trkpt>
      <trkpt lat="41.988" lon="9.21991">
        <ele>1683.8</ele>
        <time>2015-06-21T08:29:37Z</time>
      </trkpt>
      <trkpt lat="41.988" lon="9.21991">
        <ele>1684</ele>
        <time>2015-06-21T08:29:38Z</time>
      </trkpt>
      <trkpt lat="41.98804" lon="9.21992">
        <ele>1684.4</ele>
        <time>2015-06-21T08:29:45Z</time>
      </trkpt>
      <trkpt lat="41.9881" lon="9.21991">
        <ele>1685.8</ele>
        <time>2015-06-21T08:29:55Z</time>
      </trkpt>
      <trkpt lat="41.98814" lon="9.21992">
        <ele>1686.6</ele>
        <time>2015-06-21T08:30:02Z</time>
      </trkpt>
      <trkpt lat="41.98819" lon="9.2199">
        <ele>1688</ele>
        <time>2015-06-21T08:30:10Z</time>
      </trkpt>
      <trkpt lat="41.98823" lon="9.21989">
        <ele>1688.8</ele>
        <time>2015-06-21T08:30:17Z</time>
      </trkpt>
      <trkpt lat="41.98828" lon="9.21988">
        <ele>1690</ele>
        <time>2015-06-21T08:30:25Z</time>
      </trkpt>
      <trkpt lat="41.98832" lon="9.21987">
        <ele>1691</ele>
        <time>2015-06-21T08:30:33Z</time>
      </trkpt>
      <trkpt lat="41.98836" lon="9.21986">
        <ele>1692.2</ele>
        <time>2015-06-21T08:30:42Z</time>
      </trkpt>
      <trkpt lat="41.9884" lon="9.21982">
        <ele>1693.2</ele>
        <time>2015-06-21T08:30:49Z</time>
      </trkpt>
      <trkpt lat="41.98847" lon="9.21981">
        <ele>1694.4</ele>
        <time>2015-06-21T08:31:00Z</time>
      </trkpt>
      <trkpt lat="41.98851" lon="9.21978">
        <ele>1695.2</ele>
        <time>2015-06-21T08:31:08Z</time>
      </trkpt>
      <trkpt lat="41.98856" lon="9.21976">
        <ele>1696.4</ele>
        <time>2015-06-21T08:31:17Z</time>
      </trkpt>
      <trkpt lat="41.98859" lon="9.21975">
        <ele>1697.4</ele>
        <time>2015-06-21T08:31:25Z</time>
      </trkpt>
      <trkpt lat="41.98862" lon="9.21972">
        <ele>1698.6</ele>
        <time>2015-06-21T08:31:34Z</time>
      </trkpt>
      <trkpt lat="41.98868" lon="9.21968">
        <ele>1699.6</ele>
        <time>2015-06-21T08:31:44Z</time>
      </trkpt>
      <trkpt lat="41.98878" lon="9.21958">
        <ele>1701</ele>
        <time>2015-06-21T08:32:03Z</time>
      </trkpt>
      <trkpt lat="41.9888" lon="9.2196">
        <ele>1701.8</ele>
        <time>2015-06-21T08:32:13Z</time>
      </trkpt>
      <trkpt lat="41.98882" lon="9.21957">
        <ele>1703.4</ele>
        <time>2015-06-21T08:32:35Z</time>
      </trkpt>
      <trkpt lat="41.98884" lon="9.21957">
        <ele>1703.8</ele>
        <time>2015-06-21T08:32:49Z</time>
      </trkpt>
      <trkpt lat="41.98886" lon="9.21956">
        <ele>1705</ele>
        <time>2015-06-21T08:33:01Z</time>
      </trkpt>
      <trkpt lat="41.98889" lon="9.21955">
        <ele>1705.8</ele>
        <time>2015-06-21T08:33:10Z</time>
      </trkpt>
      <trkpt lat="41.98891" lon="9.21954">
        <ele>1707</ele>
        <time>2015-06-21T08:33:22Z</time>
      </trkpt>
      <trkpt lat="41.98893" lon="9.21955">
        <ele>1708</ele>
        <time>2015-06-21T08:33:39Z</time>
      </trkpt>
      <trkpt lat="41.98895" lon="9.21955">
        <ele>1709</ele>
        <time>2015-06-21T08:33:51Z</time>
      </trkpt>
      <trkpt lat="41.98897" lon="9.21952">
        <ele>1710.2</ele>
        <time>2015-06-21T08:34:02Z</time>
      </trkpt>
      <trkpt lat="41.98899" lon="9.21951">
        <ele>1710.8</ele>
        <time>2015-06-21T08:34:08Z</time>
      </trkpt>
      <trkpt lat="41.98901" lon="9.21951">
        <ele>1712.2</ele>
        <time>2015-06-21T08:34:17Z</time>
      </trkpt>
      <trkpt lat="41.98917" lon="9.21948">
        <ele>1713.2</ele>
        <time>2015-06-21T08:34:50Z</time>
      </trkpt>
      <trkpt lat="41.98927" lon="9.21947">
        <ele>1714.2</ele>
        <time>2015-06-21T08:35:05Z</time>
      </trkpt>
      <trkpt lat="41.98934" lon="9.21945">
        <ele>1715.6</ele>
        <time>2015-06-21T08:35:26Z</time>
      </trkpt>
      <trkpt lat="41.98936" lon="9.21944">
        <ele>1716.2</ele>
        <time>2015-06-21T08:35:33Z</time>
      </trkpt>
      <trkpt lat="41.98938" lon="9.21942">
        <ele>1717.2</ele>
        <time>2015-06-21T08:35:41Z</time>
      </trkpt>
      <trkpt lat="41.98942" lon="9.21938">
        <ele>1718.8</ele>
        <time>2015-06-21T08:35:50Z</time>
      </trkpt>
      <trkpt lat="41.98945" lon="9.21937">
        <ele>1719.6</ele>
        <time>2015-06-21T08:35:57Z</time>
      </trkpt>
      <trkpt lat="41.98948" lon="9.21937">
        <ele>1720.8</ele>
        <time>2015-06-21T08:36:09Z</time>
      </trkpt>
      <trkpt lat="41.9895" lon="9.21934">
        <ele>1722.4</ele>
        <time>2015-06-21T08:36:21Z</time>
      </trkpt>
      <trkpt lat="41.98952" lon="9.21932">
        <ele>1723.4</ele>
        <time>2015-06-21T08:36:34Z</time>
      </trkpt>
      <trkpt lat="41.98958" lon="9.21923">
        <ele>1724.6</ele>
        <time>2015-06-21T08:36:59Z</time>
      </trkpt>
      <trkpt lat="41.98962" lon="9.21919">
        <ele>1725.2</ele>
        <time>2015-06-21T08:37:10Z</time>
      </trkpt>
      <trkpt lat="41.98963" lon="9.21918">
        <ele>1726.2</ele>
        <time>2015-06-21T08:37:17Z</time>
      </trkpt>
      <trkpt lat="41.98965" lon="9.21914">
        <ele>1727.8</ele>
        <time>2015-06-21T08:37:27Z</time>
      </trkpt>
      <trkpt lat="41.98966" lon="9.21914">
        <ele>1728.2</ele>
        <time>2015-06-21T08:37:34Z</time>
      </trkpt>
      <trkpt lat="41.98968" lon="9.2191">
        <ele>1729.6</ele>
        <time>2015-06-21T08:37:44Z</time>
      </trkpt>
      <trkpt lat="41.98969" lon="9.21909">
        <ele>1730</ele>
        <time>2015-06-21T08:37:46Z</time>
      </trkpt>
      <trkpt lat="41.9897" lon="9.21907">
        <ele>1730.6</ele>
        <time>2015-06-21T08:37:53Z</time>
      </trkpt>
      <trkpt lat="41.98972" lon="9.21908">
        <ele>1732</ele>
        <time>2015-06-21T08:38:09Z</time>
      </trkpt>
      <trkpt lat="41.98974" lon="9.21909">
        <ele>1733.2</ele>
        <time>2015-06-21T08:38:20Z</time>
      </trkpt>
      <trkpt lat="41.98976" lon="9.21909">
        <ele>1733.8</ele>
        <time>2015-06-21T08:38:28Z</time>
      </trkpt>
      <trkpt lat="41.98978" lon="9.21906">
        <ele>1734.8</ele>
        <time>2015-06-21T08:38:35Z</time>
      </trkpt>
      <trkpt lat="41.9898" lon="9.21905">
        <ele>1736.2</ele>
        <time>2015-06-21T08:38:44Z</time>
      </trkpt>
      <trkpt lat="41.98981" lon="9.21904">
        <ele>1737.4</ele>
        <time>2015-06-21T08:38:55Z</time>
      </trkpt>
      <trkpt lat="41.98983" lon="9.219">
        <ele>1738.4</ele>
        <time>2015-06-21T08:39:04Z</time>
      </trkpt>
      <trkpt lat="41.98982" lon="9.21895">
        <ele>1739.6</ele>
        <time>2015-06-21T08:39:14Z</time>
      </trkpt>
      <trkpt lat="41.98984" lon="9.21894">
        <ele>1741</ele>
        <time>2015-06-21T08:39:31Z</time>
      </trkpt>
      <trkpt lat="41.98984" lon="9.21893">
        <ele>1741.4</ele>
        <time>2015-06-21T08:39:38Z</time>
      </trkpt>
      <trkpt lat="41.98985" lon="9.21891">
        <ele>1743.4</ele>
        <time>2015-06-21T08:39:53Z</time>
      </trkpt>
      <trkpt lat="41.98987" lon="9.21892">
        <ele>1744.2</ele>
        <time>2015-06-21T08:40:15Z</time>
      </trkpt>
      <trkpt lat="41.98987" lon="9.21886">
        <ele>1745.6</ele>
        <time>2015-06-21T08:40:27Z</time>
      </trkpt>
      <trkpt lat="41.98994" lon="9.2188">
        <ele>1746.6</ele>
        <time>2015-06-21T08:41:00Z</time>
      </trkpt>
      <trkpt lat="41.98997" lon="9.21879">
        <ele>1747.4</ele>
        <time>2015-06-21T08:41:08Z</time>
      </trkpt>
      <trkpt lat="41.98999" lon="9.21876">
        <ele>1748.6</ele>
        <time>2015-06-21T08:41:16Z</time>
      </trkpt>
      <trkpt lat="41.99001" lon="9.21874">
        <ele>1749.6</ele>
        <time>2015-06-21T08:41:27Z</time>
      </trkpt>
      <trkpt lat="41.99003" lon="9.21874">
        <ele>1750.6</ele>
        <time>2015-06-21T08:41:34Z</time>
      </trkpt>
      <trkpt lat="41.99007" lon="9.2187">
        <ele>1751.8</ele>
        <time>2015-06-21T08:41:44Z</time>
      </trkpt>
      <trkpt lat="41.99009" lon="9.21867">
        <ele>1752.6</ele>
        <time>2015-06-21T08:41:51Z</time>
      </trkpt>
      <trkpt lat="41.99013" lon="9.21861">
        <ele>1753.8</ele>
        <time>2015-06-21T08:42:00Z</time>
      </trkpt>
      <trkpt lat="41.99017" lon="9.21855">
        <ele>1755.2</ele>
        <time>2015-06-21T08:42:11Z</time>
      </trkpt>
      <trkpt lat="41.99018" lon="9.21854">
        <ele>1755.4</ele>
        <time>2015-06-21T08:42:15Z</time>
      </trkpt>
      <trkpt lat="41.99021" lon="9.21852">
        <ele>1757</ele>
        <time>2015-06-21T08:42:24Z</time>
      </trkpt>
      <trkpt lat="41.99024" lon="9.2185">
        <ele>1758</ele>
        <time>2015-06-21T08:42:32Z</time>
      </trkpt>
      <trkpt lat="41.99034" lon="9.21834">
        <ele>1759.4</ele>
        <time>2015-06-21T08:43:03Z</time>
      </trkpt>
      <trkpt lat="41.99035" lon="9.21834">
        <ele>1760</ele>
        <time>2015-06-21T08:43:10Z</time>
      </trkpt>
      <trkpt lat="41.99036" lon="9.21836">
        <ele>1761</ele>
        <time>2015-06-21T08:43:17Z</time>
      </trkpt>
      <trkpt lat="41.99058" lon="9.21838">
        <ele>1761</ele>
        <time>2015-06-21T08:44:38Z</time>
      </trkpt>
      <trkpt lat="41.99066" lon="9.21841">
        <ele>1760.4</ele>
        <time>2015-06-21T08:44:48Z</time>
      </trkpt>
      <trkpt lat="41.99068" lon="9.21842">
        <ele>1760</ele>
        <time>2015-06-21T08:44:50Z</time>
      </trkpt>
      <trkpt lat="41.9907" lon="9.21842">
        <ele>1760</ele>
        <time>2015-06-21T08:44:52Z</time>
      </trkpt>
      <trkpt lat="41.99074" lon="9.21844">
        <ele>1758.6</ele>
        <time>2015-06-21T08:44:57Z</time>
      </trkpt>
      <trkpt lat="41.99083" lon="9.21849">
        <ele>1758</ele>
        <time>2015-06-21T08:45:07Z</time>
      </trkpt>
      <trkpt lat="41.99087" lon="9.21851">
        <ele>1758</ele>
        <time>2015-06-21T08:45:12Z</time>
      </trkpt>
      <trkpt lat="41.9911" lon="9.21862">
        <ele>1757.8</ele>
        <time>2015-06-21T08:45:37Z</time>
      </trkpt>
      <trkpt lat="41.99127" lon="9.2186">
        <ele>1758.8</ele>
        <time>2015-06-21T08:45:58Z</time>
      </trkpt>
      <trkpt lat="41.9913" lon="9.21857">
        <ele>1759</ele>
        <time>2015-06-21T08:46:01Z</time>
      </trkpt>
      <trkpt lat="41.99135" lon="9.21851">
        <ele>1759.6</ele>
        <time>2015-06-21T08:46:14Z</time>
      </trkpt>
      <trkpt lat="41.99139" lon="9.21847">
        <ele>1760.4</ele>
        <time>2015-06-21T08:46:21Z</time>
      </trkpt>
      <trkpt lat="41.9915" lon="9.21841">
        <ele>1761.4</ele>
        <time>2015-06-21T08:46:36Z</time>
      </trkpt>
      <trkpt lat="41.99156" lon="9.21841">
        <ele>1762.8</ele>
        <time>2015-06-21T08:46:45Z</time>
      </trkpt>
      <trkpt lat="41.99159" lon="9.21838">
        <ele>1763.4</ele>
        <time>2015-06-21T08:46:51Z</time>
      </trkpt>
      <trkpt lat="41.99165" lon="9.21832">
        <ele>1765</ele>
        <time>2015-06-21T08:47:00Z</time>
      </trkpt>
      <trkpt lat="41.99175" lon="9.21833">
        <ele>1765.8</ele>
        <time>2015-06-21T08:47:13Z</time>
      </trkpt>
      <trkpt lat="41.99186" lon="9.21828">
        <ele>1766.4</ele>
        <time>2015-06-21T08:47:25Z</time>
      </trkpt>
      <trkpt lat="41.99189" lon="9.21826">
        <ele>1766.2</ele>
        <time>2015-06-21T08:47:28Z</time>
      </trkpt>
      <trkpt lat="41.99193" lon="9.21822">
        <ele>1765.8</ele>
        <time>2015-06-21T08:47:33Z</time>
      </trkpt>
      <trkpt lat="41.99196" lon="9.21817">
        <ele>1765.2</ele>
        <time>2015-06-21T08:47:37Z</time>
      </trkpt>
      <trkpt lat="41.99199" lon="9.21807">
        <ele>1765.2</ele>
        <time>2015-06-21T08:47:44Z</time>
      </trkpt>
      <trkpt lat="41.992" lon="9.21806">
        <ele>1765.2</ele>
        <time>2015-06-21T08:47:46Z</time>
      </trkpt>
      <trkpt lat="41.99209" lon="9.218">
        <ele>1765.6</ele>
        <time>2015-06-21T08:47:57Z</time>
      </trkpt>
      <trkpt lat="41.9921" lon="9.21797">
        <ele>1765.8</ele>
        <time>2015-06-21T08:48:00Z</time>
      </trkpt>
      <trkpt lat="41.99212" lon="9.21788">
        <ele>1766.6</ele>
        <time>2015-06-21T08:48:08Z</time>
      </trkpt>
      <trkpt lat="41.99216" lon="9.21778">
        <ele>1767.2</ele>
        <time>2015-06-21T08:48:19Z</time>
      </trkpt>
      <trkpt lat="41.9923" lon="9.21774">
        <ele>1768.4</ele>
        <time>2015-06-21T08:48:38Z</time>
      </trkpt>
      <trkpt lat="41.99252" lon="9.2177">
        <ele>1767.2</ele>
        <time>2015-06-21T08:49:04Z</time>
      </trkpt>
      <trkpt lat="41.99281" lon="9.21752">
        <ele>1768</ele>
        <time>2015-06-21T08:49:43Z</time>
      </trkpt>
      <trkpt lat="41.99289" lon="9.21746">
        <ele>1769.2</ele>
        <time>2015-06-21T08:49:54Z</time>
      </trkpt>
      <trkpt lat="41.99296" lon="9.21739">
        <ele>1769.8</ele>
        <time>2015-06-21T08:50:06Z</time>
      </trkpt>
      <trkpt lat="41.99298" lon="9.21733">
        <ele>1770.2</ele>
        <time>2015-06-21T08:50:17Z</time>
      </trkpt>
      <trkpt lat="41.99321" lon="9.21732">
        <ele>1771.8</ele>
        <time>2015-06-21T08:50:43Z</time>
      </trkpt>
      <trkpt lat="41.99365" lon="9.2174">
        <ele>1771.8</ele>
        <time>2015-06-21T08:51:26Z</time>
      </trkpt>
      <trkpt lat="41.99365" lon="9.2174">
        <ele>1772</ele>
        <time>2015-06-21T08:51:27Z</time>
      </trkpt>
      <trkpt lat="41.99377" lon="9.21742">
        <ele>1772.6</ele>
        <time>2015-06-21T08:51:39Z</time>
      </trkpt>
      <trkpt lat="41.99382" lon="9.21741">
        <ele>1773.8</ele>
        <time>2015-06-21T08:51:48Z</time>
      </trkpt>
      <trkpt lat="41.99386" lon="9.21742">
        <ele>1775</ele>
        <time>2015-06-21T08:51:57Z</time>
      </trkpt>
      <trkpt lat="41.99388" lon="9.21746">
        <ele>1775.8</ele>
        <time>2015-06-21T08:52:04Z</time>
      </trkpt>
      <trkpt lat="41.99393" lon="9.21747">
        <ele>1777</ele>
        <time>2015-06-21T08:52:12Z</time>
      </trkpt>
      <trkpt lat="41.99398" lon="9.21752">
        <ele>1778.4</ele>
        <time>2015-06-21T08:52:24Z</time>
      </trkpt>
      <trkpt lat="41.99404" lon="9.21756">
        <ele>1778.8</ele>
        <time>2015-06-21T08:52:31Z</time>
      </trkpt>
      <trkpt lat="41.99412" lon="9.2176">
        <ele>1780.2</ele>
        <time>2015-06-21T08:52:42Z</time>
      </trkpt>
      <trkpt lat="41.99419" lon="9.21758">
        <ele>1781.2</ele>
        <time>2015-06-21T08:52:54Z</time>
      </trkpt>
      <trkpt lat="41.99421" lon="9.21759">
        <ele>1781.8</ele>
        <time>2015-06-21T08:53:02Z</time>
      </trkpt>
      <trkpt lat="41.99424" lon="9.21758">
        <ele>1783.2</ele>
        <time>2015-06-21T08:53:12Z</time>
      </trkpt>
      <trkpt lat="41.99428" lon="9.21762">
        <ele>1784.4</ele>
        <time>2015-06-21T08:53:23Z</time>
      </trkpt>
      <trkpt lat="41.9943" lon="9.21762">
        <ele>1785.6</ele>
        <time>2015-06-21T08:53:35Z</time>
      </trkpt>
      <trkpt lat="41.99432" lon="9.21766">
        <ele>1786.4</ele>
        <time>2015-06-21T08:53:46Z</time>
      </trkpt>
      <trkpt lat="41.99436" lon="9.2177">
        <ele>1787.4</ele>
        <time>2015-06-21T08:53:54Z</time>
      </trkpt>
      <trkpt lat="41.99442" lon="9.21773">
        <ele>1788.6</ele>
        <time>2015-06-21T08:54:10Z</time>
      </trkpt>
      <trkpt lat="41.99444" lon="9.21773">
        <ele>1789.2</ele>
        <time>2015-06-21T08:54:18Z</time>
      </trkpt>
      <trkpt lat="41.99449" lon="9.21779">
        <ele>1790.8</ele>
        <time>2015-06-21T08:54:34Z</time>
      </trkpt>
      <trkpt lat="41.99452" lon="9.21777">
        <ele>1791.4</ele>
        <time>2015-06-21T08:54:43Z</time>
      </trkpt>
      <trkpt lat="41.99455" lon="9.21773">
        <ele>1792.4</ele>
        <time>2015-06-21T08:54:52Z</time>
      </trkpt>
      <trkpt lat="41.99457" lon="9.2177">
        <ele>1793.2</ele>
        <time>2015-06-21T08:55:02Z</time>
      </trkpt>
      <trkpt lat="41.99456" lon="9.21771">
        <ele>1795</ele>
        <time>2015-06-21T08:55:17Z</time>
      </trkpt>
      <trkpt lat="41.99465" lon="9.21778">
        <ele>1795.6</ele>
        <time>2015-06-21T08:55:39Z</time>
      </trkpt>
      <trkpt lat="41.99468" lon="9.21783">
        <ele>1796.8</ele>
        <time>2015-06-21T08:55:51Z</time>
      </trkpt>
      <trkpt lat="41.99479" lon="9.21793">
        <ele>1797.8</ele>
        <time>2015-06-21T08:56:25Z</time>
      </trkpt>
      <trkpt lat="41.99481" lon="9.21793">
        <ele>1798.6</ele>
        <time>2015-06-21T08:56:36Z</time>
      </trkpt>
      <trkpt lat="41.99483" lon="9.21792">
        <ele>1799.8</ele>
        <time>2015-06-21T08:56:48Z</time>
      </trkpt>
      <trkpt lat="41.99484" lon="9.21793">
        <ele>1800.4</ele>
        <time>2015-06-21T08:56:56Z</time>
      </trkpt>
      <trkpt lat="41.99487" lon="9.21797">
        <ele>1801.8</ele>
        <time>2015-06-21T08:57:06Z</time>
      </trkpt>
      <trkpt lat="41.99492" lon="9.21797">
        <ele>1802.8</ele>
        <time>2015-06-21T08:57:18Z</time>
      </trkpt>
      <trkpt lat="41.99495" lon="9.21801">
        <ele>1804</ele>
        <time>2015-06-21T08:57:29Z</time>
      </trkpt>
      <trkpt lat="41.99497" lon="9.21805">
        <ele>1805</ele>
        <time>2015-06-21T08:57:38Z</time>
      </trkpt>
      <trkpt lat="41.995" lon="9.21808">
        <ele>1805.8</ele>
        <time>2015-06-21T08:57:45Z</time>
      </trkpt>
      <trkpt lat="41.99504" lon="9.21809">
        <ele>1807.2</ele>
        <time>2015-06-21T08:57:56Z</time>
      </trkpt>
      <trkpt lat="41.99506" lon="9.21813">
        <ele>1808.4</ele>
        <time>2015-06-21T08:58:05Z</time>
      </trkpt>
      <trkpt lat="41.99514" lon="9.21813">
        <ele>1809.2</ele>
        <time>2015-06-21T08:58:22Z</time>
      </trkpt>
      <trkpt lat="41.99517" lon="9.2181">
        <ele>1810.6</ele>
        <time>2015-06-21T08:58:32Z</time>
      </trkpt>
      <trkpt lat="41.99521" lon="9.21807">
        <ele>1812</ele>
        <time>2015-06-21T08:58:41Z</time>
      </trkpt>
      <trkpt lat="41.99521" lon="9.21806">
        <ele>1812.6</ele>
        <time>2015-06-21T08:58:48Z</time>
      </trkpt>
      <trkpt lat="41.99521" lon="9.21803">
        <ele>1814.2</ele>
        <time>2015-06-21T08:59:04Z</time>
      </trkpt>
      <trkpt lat="41.99521" lon="9.21799">
        <ele>1814.6</ele>
        <time>2015-06-21T08:59:10Z</time>
      </trkpt>
      <trkpt lat="41.99524" lon="9.21795">
        <ele>1815.8</ele>
        <time>2015-06-21T08:59:21Z</time>
      </trkpt>
      <trkpt lat="41.99526" lon="9.21795">
        <ele>1816.8</ele>
        <time>2015-06-21T08:59:29Z</time>
      </trkpt>
      <trkpt lat="41.99526" lon="9.21797">
        <ele>1818</ele>
        <time>2015-06-21T08:59:37Z</time>
      </trkpt>
      <trkpt lat="41.99528" lon="9.21796">
        <ele>1819.2</ele>
        <time>2015-06-21T08:59:48Z</time>
      </trkpt>
      <trkpt lat="41.9953" lon="9.21797">
        <ele>1820.4</ele>
        <time>2015-06-21T09:00:00Z</time>
      </trkpt>
      <trkpt lat="41.99531" lon="9.21798">
        <ele>1820.6</ele>
        <time>2015-06-21T09:00:02Z</time>
      </trkpt>
      <trkpt lat="41.99532" lon="9.21797">
        <ele>1822</ele>
        <time>2015-06-21T09:00:15Z</time>
      </trkpt>
      <trkpt lat="41.99533" lon="9.21797">
        <ele>1822.4</ele>
        <time>2015-06-21T09:00:23Z</time>
      </trkpt>
      <trkpt lat="41.99535" lon="9.21796">
        <ele>1823.8</ele>
        <time>2015-06-21T09:00:33Z</time>
      </trkpt>
      <trkpt lat="41.99536" lon="9.21792">
        <ele>1824.6</ele>
        <time>2015-06-21T09:00:42Z</time>
      </trkpt>
      <trkpt lat="41.99537" lon="9.21789">
        <ele>1825.6</ele>
        <time>2015-06-21T09:00:51Z</time>
      </trkpt>
      <trkpt lat="41.9954" lon="9.21787">
        <ele>1826.6</ele>
        <time>2015-06-21T09:01:01Z</time>
      </trkpt>
      <trkpt lat="41.99541" lon="9.21786">
        <ele>1827.6</ele>
        <time>2015-06-21T09:01:08Z</time>
      </trkpt>
      <trkpt lat="41.99545" lon="9.21788">
        <ele>1828.8</ele>
        <time>2015-06-21T09:01:22Z</time>
      </trkpt>
      <trkpt lat="41.99547" lon="9.21785">
        <ele>1829.6</ele>
        <time>2015-06-21T09:01:31Z</time>
      </trkpt>
      <trkpt lat="41.99547" lon="9.21784">
        <ele>1831</ele>
        <time>2015-06-21T09:01:39Z</time>
      </trkpt>
      <trkpt lat="41.99548" lon="9.2178">
        <ele>1832</ele>
        <time>2015-06-21T09:01:52Z</time>
      </trkpt>
      <trkpt lat="41.99551" lon="9.2178">
        <ele>1833.2</ele>
        <time>2015-06-21T09:02:01Z</time>
      </trkpt>
      <trkpt lat="41.99554" lon="9.2178">
        <ele>1834.2</ele>
        <time>2015-06-21T09:02:08Z</time>
      </trkpt>
      <trkpt lat="41.99558" lon="9.21783">
        <ele>1835.8</ele>
        <time>2015-06-21T09:02:17Z</time>
      </trkpt>
      <trkpt lat="41.99564" lon="9.21786">
        <ele>1836.8</ele>
        <time>2015-06-21T09:02:33Z</time>
      </trkpt>
      <trkpt lat="41.99567" lon="9.21788">
        <ele>1837.4</ele>
        <time>2015-06-21T09:02:41Z</time>
      </trkpt>
      <trkpt lat="41.99575" lon="9.218">
        <ele>1839</ele>
        <time>2015-06-21T09:02:58Z</time>
      </trkpt>
      <trkpt lat="41.99579" lon="9.218">
        <ele>1839.2</ele>
        <time>2015-06-21T09:03:02Z</time>
      </trkpt>
      <trkpt lat="41.9958" lon="9.21799">
        <ele>1839.4</ele>
        <time>2015-06-21T09:03:04Z</time>
      </trkpt>
      <trkpt lat="41.99582" lon="9.21799">
        <ele>1839.8</ele>
        <time>2015-06-21T09:03:08Z</time>
      </trkpt>
      <trkpt lat="41.99584" lon="9.21797">
        <ele>1840.8</ele>
        <time>2015-06-21T09:03:16Z</time>
      </trkpt>
      <trkpt lat="41.99587" lon="9.21797">
        <ele>1841.2</ele>
        <time>2015-06-21T09:03:22Z</time>
      </trkpt>
      <trkpt lat="41.99591" lon="9.21802">
        <ele>1843</ele>
        <time>2015-06-21T09:03:32Z</time>
      </trkpt>
      <trkpt lat="41.99594" lon="9.21806">
        <ele>1843.4</ele>
        <time>2015-06-21T09:03:38Z</time>
      </trkpt>
      <trkpt lat="41.9961" lon="9.21818">
        <ele>1843.6</ele>
        <time>2015-06-21T09:04:08Z</time>
      </trkpt>
      <trkpt lat="41.9962" lon="9.21819">
        <ele>1844.6</ele>
        <time>2015-06-21T09:04:21Z</time>
      </trkpt>
      <trkpt lat="41.99623" lon="9.21816">
        <ele>1845</ele>
        <time>2015-06-21T09:04:27Z</time>
      </trkpt>
      <trkpt lat="41.99629" lon="9.21812">
        <ele>1845.6</ele>
        <time>2015-06-21T09:04:36Z</time>
      </trkpt>
      <trkpt lat="41.99632" lon="9.21811">
        <ele>1845.8</ele>
        <time>2015-06-21T09:04:39Z</time>
      </trkpt>
      <trkpt lat="41.99634" lon="9.2181">
        <ele>1846</ele>
        <time>2015-06-21T09:04:41Z</time>
      </trkpt>
      <trkpt lat="41.99639" lon="9.21809">
        <ele>1845.8</ele>
        <time>2015-06-21T09:04:52Z</time>
      </trkpt>
      <trkpt lat="41.99647" lon="9.21806">
        <ele>1844.6</ele>
        <time>2015-06-21T09:05:03Z</time>
      </trkpt>
      <trkpt lat="41.99652" lon="9.21801">
        <ele>1843.8</ele>
        <time>2015-06-21T09:05:10Z</time>
      </trkpt>
      <trkpt lat="41.99652" lon="9.21799">
        <ele>1843.8</ele>
        <time>2015-06-21T09:05:12Z</time>
      </trkpt>
      <trkpt lat="41.99647" lon="9.21786">
        <ele>1844.4</ele>
        <time>2015-06-21T09:05:27Z</time>
      </trkpt>
      <trkpt lat="41.99644" lon="9.21782">
        <ele>1845.4</ele>
        <time>2015-06-21T09:05:35Z</time>
      </trkpt>
      <trkpt lat="41.99645" lon="9.21777">
        <ele>1846.6</ele>
        <time>2015-06-21T09:05:46Z</time>
      </trkpt>
      <trkpt lat="41.99644" lon="9.21775">
        <ele>1847.4</ele>
        <time>2015-06-21T09:05:54Z</time>
      </trkpt>
      <trkpt lat="41.99646" lon="9.21771">
        <ele>1848.8</ele>
        <time>2015-06-21T09:06:05Z</time>
      </trkpt>
      <trkpt lat="41.99649" lon="9.21764">
        <ele>1849.8</ele>
        <time>2015-06-21T09:06:17Z</time>
      </trkpt>
      <trkpt lat="41.99649" lon="9.21759">
        <ele>1850.6</ele>
        <time>2015-06-21T09:06:27Z</time>
      </trkpt>
      <trkpt lat="41.99648" lon="9.21755">
        <ele>1851.8</ele>
        <time>2015-06-21T09:06:36Z</time>
      </trkpt>
      <trkpt lat="41.99647" lon="9.21753">
        <ele>1852.8</ele>
        <time>2015-06-21T09:06:44Z</time>
      </trkpt>
      <trkpt lat="41.99649" lon="9.21742">
        <ele>1853.8</ele>
        <time>2015-06-21T09:07:01Z</time>
      </trkpt>
      <trkpt lat="41.99651" lon="9.21739">
        <ele>1855.2</ele>
        <time>2015-06-21T09:07:20Z</time>
      </trkpt>
      <trkpt lat="41.99651" lon="9.21735">
        <ele>1856.2</ele>
        <time>2015-06-21T09:07:32Z</time>
      </trkpt>
      <trkpt lat="41.99656" lon="9.2173">
        <ele>1856</ele>
        <time>2015-06-21T09:08:35Z</time>
      </trkpt>
      <trkpt lat="41.99661" lon="9.21728">
        <ele>1855.2</ele>
        <time>2015-06-21T09:08:46Z</time>
      </trkpt>
      <trkpt lat="41.99666" lon="9.21727">
        <ele>1854.2</ele>
        <time>2015-06-21T09:08:56Z</time>
      </trkpt>
      <trkpt lat="41.99677" lon="9.21705">
        <ele>1852.4</ele>
        <time>2015-06-21T09:09:36Z</time>
      </trkpt>
      <trkpt lat="41.99687" lon="9.21684">
        <ele>1851.8</ele>
        <time>2015-06-21T09:11:14Z</time>
      </trkpt>
      <trkpt lat="41.99689" lon="9.21685">
        <ele>1850.8</ele>
        <time>2015-06-21T09:11:23Z</time>
      </trkpt>
      <trkpt lat="41.99689" lon="9.21685">
        <ele>1850</ele>
        <time>2015-06-21T09:11:30Z</time>
      </trkpt>
      <trkpt lat="41.99693" lon="9.21681">
        <ele>1848.6</ele>
        <time>2015-06-21T09:11:50Z</time>
      </trkpt>
      <trkpt lat="41.99694" lon="9.21677">
        <ele>1847.4</ele>
        <time>2015-06-21T09:12:00Z</time>
      </trkpt>
      <trkpt lat="41.99697" lon="9.21674">
        <ele>1846.6</ele>
        <time>2015-06-21T09:12:10Z</time>
      </trkpt>
      <trkpt lat="41.99702" lon="9.21668">
        <ele>1845.2</ele>
        <time>2015-06-21T09:12:21Z</time>
      </trkpt>
      <trkpt lat="41.99703" lon="9.21668">
        <ele>1844.2</ele>
        <time>2015-06-21T09:12:48Z</time>
      </trkpt>
      <trkpt lat="41.99704" lon="9.21668">
        <ele>1843.8</ele>
        <time>2015-06-21T09:12:53Z</time>
      </trkpt>
      <trkpt lat="41.99708" lon="9.21663">
        <ele>1843</ele>
        <time>2015-06-21T09:13:10Z</time>
      </trkpt>
      <trkpt lat="41.99712" lon="9.21661">
        <ele>1842.2</ele>
        <time>2015-06-21T09:13:19Z</time>
      </trkpt>
      <trkpt lat="41.99714" lon="9.21657">
        <ele>1841</ele>
        <time>2015-06-21T09:13:30Z</time>
      </trkpt>
      <trkpt lat="41.99718" lon="9.21658">
        <ele>1839.8</ele>
        <time>2015-06-21T09:13:41Z</time>
      </trkpt>
      <trkpt lat="41.9972" lon="9.21655">
        <ele>1838.6</ele>
        <time>2015-06-21T09:13:50Z</time>
      </trkpt>
      <trkpt lat="41.99729" lon="9.2165">
        <ele>1837.4</ele>
        <time>2015-06-21T09:14:04Z</time>
      </trkpt>
      <trkpt lat="41.99735" lon="9.21642">
        <ele>1836</ele>
        <time>2015-06-21T09:14:14Z</time>
      </trkpt>
      <trkpt lat="41.99753" lon="9.2163">
        <ele>1834.6</ele>
        <time>2015-06-21T09:15:01Z</time>
      </trkpt>
      <trkpt lat="41.99754" lon="9.21632">
        <ele>1833.6</ele>
        <time>2015-06-21T09:15:21Z</time>
      </trkpt>
      <trkpt lat="41.99755" lon="9.21635">
        <ele>1832.8</ele>
        <time>2015-06-21T09:15:31Z</time>
      </trkpt>
      <trkpt lat="41.99754" lon="9.21637">
        <ele>1831.6</ele>
        <time>2015-06-21T09:15:43Z</time>
      </trkpt>
      <trkpt lat="41.99755" lon="9.2164">
        <ele>1830.8</ele>
        <time>2015-06-21T09:15:51Z</time>
      </trkpt>
      <trkpt lat="41.99753" lon="9.21644">
        <ele>1829.6</ele>
        <time>2015-06-21T09:16:03Z</time>
      </trkpt>
      <trkpt lat="41.99753" lon="9.2165">
        <ele>1828.6</ele>
        <time>2015-06-21T09:16:16Z</time>
      </trkpt>
      <trkpt lat="41.99753" lon="9.21651">
        <ele>1828.4</ele>
        <time>2015-06-21T09:16:17Z</time>
      </trkpt>
      <trkpt lat="41.99755" lon="9.21649">
        <ele>1826.8</ele>
        <time>2015-06-21T09:17:03Z</time>
      </trkpt>
      <trkpt lat="41.99755" lon="9.21651">
        <ele>1825.6</ele>
        <time>2015-06-21T09:17:18Z</time>
      </trkpt>
      <trkpt lat="41.99759" lon="9.21649">
        <ele>1824.4</ele>
        <time>2015-06-21T09:17:46Z</time>
      </trkpt>
      <trkpt lat="41.9976" lon="9.2165">
        <ele>1824.2</ele>
        <time>2015-06-21T09:17:50Z</time>
      </trkpt>
      <trkpt lat="41.9976" lon="9.21652">
        <ele>1823</ele>
        <time>2015-06-21T09:18:02Z</time>
      </trkpt>
      <trkpt lat="41.99757" lon="9.21651">
        <ele>1822.4</ele>
        <time>2015-06-21T09:18:14Z</time>
      </trkpt>
      <trkpt lat="41.99764" lon="9.21645">
        <ele>1820.8</ele>
        <time>2015-06-21T09:18:28Z</time>
      </trkpt>
      <trkpt lat="41.99765" lon="9.21643">
        <ele>1820.8</ele>
        <time>2015-06-21T09:18:30Z</time>
      </trkpt>
      <trkpt lat="41.99775" lon="9.21642">
        <ele>1820.6</ele>
        <time>2015-06-21T09:18:40Z</time>
      </trkpt>
      <trkpt lat="41.99777" lon="9.21642">
        <ele>1820.6</ele>
        <time>2015-06-21T09:18:42Z</time>
      </trkpt>
      <trkpt lat="41.99777" lon="9.21645">
        <ele>1819.4</ele>
        <time>2015-06-21T09:18:56Z</time>
      </trkpt>
      <trkpt lat="41.99777" lon="9.21645">
        <ele>1818</ele>
        <time>2015-06-21T09:19:13Z</time>
      </trkpt>
      <trkpt lat="41.99778" lon="9.21643">
        <ele>1817.2</ele>
        <time>2015-06-21T09:19:30Z</time>
      </trkpt>
      <trkpt lat="41.99777" lon="9.21647">
        <ele>1816.6</ele>
        <time>2015-06-21T09:19:36Z</time>
      </trkpt>
      <trkpt lat="41.99772" lon="9.21655">
        <ele>1815.6</ele>
        <time>2015-06-21T09:19:47Z</time>
      </trkpt>
      <trkpt lat="41.99772" lon="9.21656">
        <ele>1815.4</ele>
        <time>2015-06-21T09:19:49Z</time>
      </trkpt>
      <trkpt lat="41.99773" lon="9.21657">
        <ele>1815.2</ele>
        <time>2015-06-21T09:19:53Z</time>
      </trkpt>
      <trkpt lat="41.99772" lon="9.21661">
        <ele>1813.4</ele>
        <time>2015-06-21T09:20:05Z</time>
      </trkpt>
      <trkpt lat="41.99772" lon="9.21662">
        <ele>1813</ele>
        <time>2015-06-21T09:20:13Z</time>
      </trkpt>
      <trkpt lat="41.99773" lon="9.2166">
        <ele>1811.2</ele>
        <time>2015-06-21T09:20:26Z</time>
      </trkpt>
      <trkpt lat="41.99774" lon="9.2166">
        <ele>1810.2</ele>
        <time>2015-06-21T09:20:36Z</time>
      </trkpt>
      <trkpt lat="41.99775" lon="9.21663">
        <ele>1809.2</ele>
        <time>2015-06-21T09:20:46Z</time>
      </trkpt>
      <trkpt lat="41.99776" lon="9.21662">
        <ele>1808</ele>
        <time>2015-06-21T09:20:54Z</time>
      </trkpt>
      <trkpt lat="41.99777" lon="9.21664">
        <ele>1807.2</ele>
        <time>2015-06-21T09:21:00Z</time>
      </trkpt>
      <trkpt lat="41.99783" lon="9.21659">
        <ele>1806.6</ele>
        <time>2015-06-21T09:21:04Z</time>
      </trkpt>
      <trkpt lat="41.99785" lon="9.21657">
        <ele>1806</ele>
        <time>2015-06-21T09:21:07Z</time>
      </trkpt>
      <trkpt lat="41.99793" lon="9.2165">
        <ele>1804.6</ele>
        <time>2015-06-21T09:21:27Z</time>
      </trkpt>
      <trkpt lat="41.99798" lon="9.2164">
        <ele>1803.4</ele>
        <time>2015-06-21T09:21:48Z</time>
      </trkpt>
      <trkpt lat="41.998" lon="9.21637">
        <ele>1804.6</ele>
        <time>2015-06-21T09:21:59Z</time>
      </trkpt>
      <trkpt lat="41.99805" lon="9.21633">
        <ele>1805.6</ele>
        <time>2015-06-21T09:22:12Z</time>
      </trkpt>
      <trkpt lat="41.99806" lon="9.21625">
        <ele>1806.4</ele>
        <time>2015-06-21T09:22:24Z</time>
      </trkpt>
      <trkpt lat="41.99808" lon="9.2162">
        <ele>1807.4</ele>
        <time>2015-06-21T09:22:33Z</time>
      </trkpt>
      <trkpt lat="41.99812" lon="9.21617">
        <ele>1808.4</ele>
        <time>2015-06-21T09:22:42Z</time>
      </trkpt>
      <trkpt lat="41.99817" lon="9.21615">
        <ele>1809.4</ele>
        <time>2015-06-21T09:22:52Z</time>
      </trkpt>
      <trkpt lat="41.99823" lon="9.21613">
        <ele>1810.6</ele>
        <time>2015-06-21T09:23:27Z</time>
      </trkpt>
      <trkpt lat="41.99826" lon="9.21606">
        <ele>1811.4</ele>
        <time>2015-06-21T09:23:41Z</time>
      </trkpt>
      <trkpt lat="41.99827" lon="9.21602">
        <ele>1812</ele>
        <time>2015-06-21T09:23:48Z</time>
      </trkpt>
      <trkpt lat="41.9983" lon="9.216">
        <ele>1814</ele>
        <time>2015-06-21T09:24:07Z</time>
      </trkpt>
      <trkpt lat="41.99832" lon="9.21598">
        <ele>1814.2</ele>
        <time>2015-06-21T09:24:16Z</time>
      </trkpt>
      <trkpt lat="41.99845" lon="9.21607">
        <ele>1814.4</ele>
        <time>2015-06-21T09:25:41Z</time>
      </trkpt>
      <trkpt lat="41.99845" lon="9.21609">
        <ele>1813</ele>
        <time>2015-06-21T09:25:50Z</time>
      </trkpt>
      <trkpt lat="41.99846" lon="9.2161">
        <ele>1812.6</ele>
        <time>2015-06-21T09:25:56Z</time>
      </trkpt>
      <trkpt lat="41.99851" lon="9.21604">
        <ele>1811.8</ele>
        <time>2015-06-21T09:26:27Z</time>
      </trkpt>
      <trkpt lat="41.99852" lon="9.21599">
        <ele>1812.2</ele>
        <time>2015-06-21T09:26:34Z</time>
      </trkpt>
      <trkpt lat="41.99854" lon="9.21598">
        <ele>1814</ele>
        <time>2015-06-21T09:26:44Z</time>
      </trkpt>
      <trkpt lat="41.99862" lon="9.21601">
        <ele>1815.2</ele>
        <time>2015-06-21T09:27:04Z</time>
      </trkpt>
      <trkpt lat="41.99874" lon="9.21595">
        <ele>1814.4</ele>
        <time>2015-06-21T09:27:32Z</time>
      </trkpt>
      <trkpt lat="41.99886" lon="9.21588">
        <ele>1814.4</ele>
        <time>2015-06-21T09:27:59Z</time>
      </trkpt>
      <trkpt lat="41.99889" lon="9.21588">
        <ele>1815.4</ele>
        <time>2015-06-21T09:28:06Z</time>
      </trkpt>
      <trkpt lat="41.99903" lon="9.21599">
        <ele>1815.4</ele>
        <time>2015-06-21T09:28:32Z</time>
      </trkpt>
      <trkpt lat="41.99908" lon="9.21601">
        <ele>1814.4</ele>
        <time>2015-06-21T09:28:43Z</time>
      </trkpt>
      <trkpt lat="41.9991" lon="9.21601">
        <ele>1813.4</ele>
        <time>2015-06-21T09:28:54Z</time>
      </trkpt>
      <trkpt lat="41.99928" lon="9.21591">
        <ele>1813.4</ele>
        <time>2015-06-21T09:29:43Z</time>
      </trkpt>
      <trkpt lat="41.99931" lon="9.21589">
        <ele>1814.4</ele>
        <time>2015-06-21T09:29:55Z</time>
      </trkpt>
      <trkpt lat="41.99939" lon="9.21588">
        <ele>1815.4</ele>
        <time>2015-06-21T09:30:11Z</time>
      </trkpt>
      <trkpt lat="41.99942" lon="9.21586">
        <ele>1816.6</ele>
        <time>2015-06-21T09:30:24Z</time>
      </trkpt>
      <trkpt lat="41.99945" lon="9.21587">
        <ele>1817.6</ele>
        <time>2015-06-21T09:30:40Z</time>
      </trkpt>
      <trkpt lat="41.99947" lon="9.21587">
        <ele>1818.4</ele>
        <time>2015-06-21T09:30:49Z</time>
      </trkpt>
      <trkpt lat="41.99949" lon="9.21583">
        <ele>1820</ele>
        <time>2015-06-21T09:31:11Z</time>
      </trkpt>
      <trkpt lat="41.99951" lon="9.21583">
        <ele>1820.8</ele>
        <time>2015-06-21T09:31:20Z</time>
      </trkpt>
      <trkpt lat="41.99953" lon="9.21582">
        <ele>1821.6</ele>
        <time>2015-06-21T09:31:28Z</time>
      </trkpt>
      <trkpt lat="41.99954" lon="9.21575">
        <ele>1823.2</ele>
        <time>2015-06-21T09:31:53Z</time>
      </trkpt>
      <trkpt lat="41.99956" lon="9.21572">
        <ele>1823.8</ele>
        <time>2015-06-21T09:32:01Z</time>
      </trkpt>
      <trkpt lat="41.99958" lon="9.21573">
        <ele>1824.8</ele>
        <time>2015-06-21T09:32:09Z</time>
      </trkpt>
      <trkpt lat="41.99959" lon="9.21571">
        <ele>1826.2</ele>
        <time>2015-06-21T09:32:22Z</time>
      </trkpt>
      <trkpt lat="41.99961" lon="9.21573">
        <ele>1827.2</ele>
        <time>2015-06-21T09:32:30Z</time>
      </trkpt>
      <trkpt lat="41.99966" lon="9.21575">
        <ele>1828.8</ele>
        <time>2015-06-21T09:33:12Z</time>
      </trkpt>
      <trkpt lat="41.99965" lon="9.21573">
        <ele>1830</ele>
        <time>2015-06-21T09:33:24Z</time>
      </trkpt>
      <trkpt lat="41.99968" lon="9.21575">
        <ele>1831</ele>
        <time>2015-06-21T09:33:35Z</time>
      </trkpt>
      <trkpt lat="41.99987" lon="9.21595">
        <ele>1831.4</ele>
        <time>2015-06-21T09:34:35Z</time>
      </trkpt>
      <trkpt lat="41.99989" lon="9.21597">
        <ele>1830.8</ele>
        <time>2015-06-21T09:34:41Z</time>
      </trkpt>
      <trkpt lat="41.99993" lon="9.21596">
        <ele>1830.6</ele>
        <time>2015-06-21T09:34:44Z</time>
      </trkpt>
      <trkpt lat="41.99997" lon="9.21595">
        <ele>1830</ele>
        <time>2015-06-21T09:34:49Z</time>
      </trkpt>
      <trkpt lat="42.00006" lon="9.21607">
        <ele>1830.6</ele>
        <time>2015-06-21T09:35:08Z</time>
      </trkpt>
      <trkpt lat="42.00017" lon="9.21617">
        <ele>1831.4</ele>
        <time>2015-06-21T09:35:30Z</time>
      </trkpt>
      <trkpt lat="42.00019" lon="9.21618">
        <ele>1832.4</ele>
        <time>2015-06-21T09:35:39Z</time>
      </trkpt>
      <trkpt lat="42.00026" lon="9.21619">
        <ele>1833.8</ele>
        <time>2015-06-21T09:37:05Z</time>
      </trkpt>
      <trkpt lat="42.00028" lon="9.21616">
        <ele>1834.8</ele>
        <time>2015-06-21T09:37:13Z</time>
      </trkpt>
      <trkpt lat="42.00028" lon="9.21615">
        <ele>1836.4</ele>
        <time>2015-06-21T09:37:28Z</time>
      </trkpt>
      <trkpt lat="42.00031" lon="9.21615">
        <ele>1837.4</ele>
        <time>2015-06-21T09:37:46Z</time>
      </trkpt>
      <trkpt lat="42.00035" lon="9.21617">
        <ele>1838.2</ele>
        <time>2015-06-21T09:37:54Z</time>
      </trkpt>
      <trkpt lat="42.00041" lon="9.21622">
        <ele>1839.4</ele>
        <time>2015-06-21T09:38:11Z</time>
      </trkpt>
      <trkpt lat="42.00042" lon="9.21623">
        <ele>1839.4</ele>
        <time>2015-06-21T09:38:14Z</time>
      </trkpt>
      <trkpt lat="42.00054" lon="9.21623">
        <ele>1840</ele>
        <time>2015-06-21T09:38:35Z</time>
      </trkpt>
      <trkpt lat="42.0006" lon="9.21622">
        <ele>1841</ele>
        <time>2015-06-21T09:40:24Z</time>
      </trkpt>
      <trkpt lat="42.00065" lon="9.21627">
        <ele>1839.8</ele>
        <time>2015-06-21T09:40:33Z</time>
      </trkpt>
      <trkpt lat="42.00069" lon="9.21628">
        <ele>1838</ele>
        <time>2015-06-21T09:40:53Z</time>
      </trkpt>
      <trkpt lat="42.00072" lon="9.2163">
        <ele>1837.6</ele>
        <time>2015-06-21T09:41:04Z</time>
      </trkpt>
      <trkpt lat="42.00074" lon="9.21628">
        <ele>1836.6</ele>
        <time>2015-06-21T09:41:14Z</time>
      </trkpt>
      <trkpt lat="42.00075" lon="9.21626">
        <ele>1835.8</ele>
        <time>2015-06-21T09:41:20Z</time>
      </trkpt>
      <trkpt lat="42.00076" lon="9.21621">
        <ele>1834</ele>
        <time>2015-06-21T09:41:30Z</time>
      </trkpt>
      <trkpt lat="42.00078" lon="9.2162">
        <ele>1832.8</ele>
        <time>2015-06-21T09:41:40Z</time>
      </trkpt>
      <trkpt lat="42.00079" lon="9.21619">
        <ele>1832.4</ele>
        <time>2015-06-21T09:41:48Z</time>
      </trkpt>
      <trkpt lat="42.0008" lon="9.21619">
        <ele>1831</ele>
        <time>2015-06-21T09:41:55Z</time>
      </trkpt>
      <trkpt lat="42.00082" lon="9.21617">
        <ele>1829.8</ele>
        <time>2015-06-21T09:42:05Z</time>
      </trkpt>
      <trkpt lat="42.00084" lon="9.21619">
        <ele>1828.6</ele>
        <time>2015-06-21T09:42:16Z</time>
      </trkpt>
      <trkpt lat="42.00085" lon="9.2162">
        <ele>1827.8</ele>
        <time>2015-06-21T09:42:23Z</time>
      </trkpt>
      <trkpt lat="42.00089" lon="9.21615">
        <ele>1826.4</ele>
        <time>2015-06-21T09:42:46Z</time>
      </trkpt>
      <trkpt lat="42.0009" lon="9.21613">
        <ele>1825.6</ele>
        <time>2015-06-21T09:42:53Z</time>
      </trkpt>
      <trkpt lat="42.00091" lon="9.21616">
        <ele>1824</ele>
        <time>2015-06-21T09:43:01Z</time>
      </trkpt>
      <trkpt lat="42.00094" lon="9.21616">
        <ele>1823</ele>
        <time>2015-06-21T09:43:09Z</time>
      </trkpt>
      <trkpt lat="42.00094" lon="9.21617">
        <ele>1822.6</ele>
        <time>2015-06-21T09:43:15Z</time>
      </trkpt>
      <trkpt lat="42.00097" lon="9.21613">
        <ele>1821</ele>
        <time>2015-06-21T09:43:26Z</time>
      </trkpt>
      <trkpt lat="42.00098" lon="9.21613">
        <ele>1820</ele>
        <time>2015-06-21T09:43:33Z</time>
      </trkpt>
      <trkpt lat="42.00099" lon="9.21614">
        <ele>1820</ele>
        <time>2015-06-21T09:43:35Z</time>
      </trkpt>
      <trkpt lat="42.00101" lon="9.21612">
        <ele>1819.2</ele>
        <time>2015-06-21T09:43:41Z</time>
      </trkpt>
      <trkpt lat="42.00104" lon="9.21608">
        <ele>1818</ele>
        <time>2015-06-21T09:43:50Z</time>
      </trkpt>
      <trkpt lat="42.00106" lon="9.21607">
        <ele>1816.2</ele>
        <time>2015-06-21T09:44:03Z</time>
      </trkpt>
      <trkpt lat="42.00108" lon="9.21606">
        <ele>1815.6</ele>
        <time>2015-06-21T09:44:12Z</time>
      </trkpt>
      <trkpt lat="42.00109" lon="9.21602">
        <ele>1814.2</ele>
        <time>2015-06-21T09:44:24Z</time>
      </trkpt>
      <trkpt lat="42.00111" lon="9.21602">
        <ele>1813.6</ele>
        <time>2015-06-21T09:44:30Z</time>
      </trkpt>
      <trkpt lat="42.00113" lon="9.21602">
        <ele>1812.4</ele>
        <time>2015-06-21T09:44:37Z</time>
      </trkpt>
      <trkpt lat="42.00117" lon="9.21602">
        <ele>1811.2</ele>
        <time>2015-06-21T09:44:46Z</time>
      </trkpt>
      <trkpt lat="42.0012" lon="9.21604">
        <ele>1810</ele>
        <time>2015-06-21T09:44:53Z</time>
      </trkpt>
      <trkpt lat="42.00123" lon="9.21604">
        <ele>1809</ele>
        <time>2015-06-21T09:45:01Z</time>
      </trkpt>
      <trkpt lat="42.00124" lon="9.21601">
        <ele>1808.2</ele>
        <time>2015-06-21T09:45:07Z</time>
      </trkpt>
      <trkpt lat="42.00128" lon="9.21601">
        <ele>1806.4</ele>
        <time>2015-06-21T09:45:21Z</time>
      </trkpt>
      <trkpt lat="42.00131" lon="9.216">
        <ele>1806</ele>
        <time>2015-06-21T09:45:25Z</time>
      </trkpt>
      <trkpt lat="42.00134" lon="9.21602">
        <ele>1804.6</ele>
        <time>2015-06-21T09:45:31Z</time>
      </trkpt>
      <trkpt lat="42.0014" lon="9.21606">
        <ele>1803</ele>
        <time>2015-06-21T09:45:41Z</time>
      </trkpt>
      <trkpt lat="42.00144" lon="9.21604">
        <ele>1802</ele>
        <time>2015-06-21T09:45:48Z</time>
      </trkpt>
      <trkpt lat="42.00146" lon="9.21605">
        <ele>1802</ele>
        <time>2015-06-21T09:45:50Z</time>
      </trkpt>
      <trkpt lat="42.0015" lon="9.21608">
        <ele>1800.8</ele>
        <time>2015-06-21T09:45:55Z</time>
      </trkpt>
      <trkpt lat="42.00156" lon="9.21612">
        <ele>1799.8</ele>
        <time>2015-06-21T09:46:02Z</time>
      </trkpt>
      <trkpt lat="42.00164" lon="9.21617">
        <ele>1798.4</ele>
        <time>2015-06-21T09:46:23Z</time>
      </trkpt>
      <trkpt lat="42.0017" lon="9.21615">
        <ele>1797.6</ele>
        <time>2015-06-21T09:46:33Z</time>
      </trkpt>
      <trkpt lat="42.00172" lon="9.21611">
        <ele>1796.6</ele>
        <time>2015-06-21T09:46:41Z</time>
      </trkpt>
      <trkpt lat="42.00181" lon="9.21609">
        <ele>1795.4</ele>
        <time>2015-06-21T09:46:54Z</time>
      </trkpt>
      <trkpt lat="42.00189" lon="9.21609">
        <ele>1794.4</ele>
        <time>2015-06-21T09:47:03Z</time>
      </trkpt>
      <trkpt lat="42.00195" lon="9.21609">
        <ele>1793.6</ele>
        <time>2015-06-21T09:47:11Z</time>
      </trkpt>
      <trkpt lat="42.00198" lon="9.21604">
        <ele>1792.4</ele>
        <time>2015-06-21T09:47:18Z</time>
      </trkpt>
      <trkpt lat="42.00203" lon="9.21601">
        <ele>1791.2</ele>
        <time>2015-06-21T09:47:26Z</time>
      </trkpt>
      <trkpt lat="42.00206" lon="9.21598">
        <ele>1790.6</ele>
        <time>2015-06-21T09:47:31Z</time>
      </trkpt>
      <trkpt lat="42.00211" lon="9.21594">
        <ele>1788.8</ele>
        <time>2015-06-21T09:47:38Z</time>
      </trkpt>
      <trkpt lat="42.00212" lon="9.21592">
        <ele>1788.6</ele>
        <time>2015-06-21T09:47:40Z</time>
      </trkpt>
      <trkpt lat="42.00214" lon="9.21587">
        <ele>1788.2</ele>
        <time>2015-06-21T09:47:45Z</time>
      </trkpt>
      <trkpt lat="42.00214" lon="9.21584">
        <ele>1787.2</ele>
        <time>2015-06-21T09:47:48Z</time>
      </trkpt>
      <trkpt lat="42.00214" lon="9.21581">
        <ele>1787</ele>
        <time>2015-06-21T09:47:51Z</time>
      </trkpt>
      <trkpt lat="42.00214" lon="9.21578">
        <ele>1786.4</ele>
        <time>2015-06-21T09:47:55Z</time>
      </trkpt>
      <trkpt lat="42.00214" lon="9.21567">
        <ele>1784.6</ele>
        <time>2015-06-21T09:48:05Z</time>
      </trkpt>
      <trkpt lat="42.00213" lon="9.21562">
        <ele>1783.8</ele>
        <time>2015-06-21T09:48:10Z</time>
      </trkpt>
      <trkpt lat="42.00213" lon="9.21558">
        <ele>1782.6</ele>
        <time>2015-06-21T09:48:15Z</time>
      </trkpt>
      <trkpt lat="42.00212" lon="9.2155">
        <ele>1781.2</ele>
        <time>2015-06-21T09:48:23Z</time>
      </trkpt>
      <trkpt lat="42.00212" lon="9.21548">
        <ele>1780.2</ele>
        <time>2015-06-21T09:48:28Z</time>
      </trkpt>
      <trkpt lat="42.00214" lon="9.2154">
        <ele>1778.6</ele>
        <time>2015-06-21T09:48:39Z</time>
      </trkpt>
      <trkpt lat="42.00218" lon="9.21534">
        <ele>1777.6</ele>
        <time>2015-06-21T09:48:46Z</time>
      </trkpt>
      <trkpt lat="42.00222" lon="9.21527">
        <ele>1776.4</ele>
        <time>2015-06-21T09:48:54Z</time>
      </trkpt>
      <trkpt lat="42.00226" lon="9.21521">
        <ele>1775.6</ele>
        <time>2015-06-21T09:49:01Z</time>
      </trkpt>
      <trkpt lat="42.00229" lon="9.21519">
        <ele>1775</ele>
        <time>2015-06-21T09:49:05Z</time>
      </trkpt>
      <trkpt lat="42.0023" lon="9.21518">
        <ele>1774.8</ele>
        <time>2015-06-21T09:49:06Z</time>
      </trkpt>
      <trkpt lat="42.00238" lon="9.21499">
        <ele>1772.8</ele>
        <time>2015-06-21T09:49:24Z</time>
      </trkpt>
      <trkpt lat="42.0024" lon="9.21498">
        <ele>1772.8</ele>
        <time>2015-06-21T09:49:26Z</time>
      </trkpt>
      <trkpt lat="42.00242" lon="9.21496">
        <ele>1772</ele>
        <time>2015-06-21T09:49:31Z</time>
      </trkpt>
      <trkpt lat="42.00244" lon="9.21495">
        <ele>1771.6</ele>
        <time>2015-06-21T09:49:35Z</time>
      </trkpt>
      <trkpt lat="42.00249" lon="9.21494">
        <ele>1770</ele>
        <time>2015-06-21T09:49:43Z</time>
      </trkpt>
      <trkpt lat="42.00251" lon="9.21499">
        <ele>1769</ele>
        <time>2015-06-21T09:49:49Z</time>
      </trkpt>
      <trkpt lat="42.00254" lon="9.21504">
        <ele>1767.8</ele>
        <time>2015-06-21T09:49:57Z</time>
      </trkpt>
      <trkpt lat="42.00256" lon="9.21505">
        <ele>1767</ele>
        <time>2015-06-21T09:50:02Z</time>
      </trkpt>
      <trkpt lat="42.00259" lon="9.21503">
        <ele>1765.2</ele>
        <time>2015-06-21T09:50:17Z</time>
      </trkpt>
      <trkpt lat="42.00264" lon="9.215">
        <ele>1764.4</ele>
        <time>2015-06-21T09:50:26Z</time>
      </trkpt>
      <trkpt lat="42.00267" lon="9.215">
        <ele>1764</ele>
        <time>2015-06-21T09:50:31Z</time>
      </trkpt>
      <trkpt lat="42.00272" lon="9.21495">
        <ele>1762.4</ele>
        <time>2015-06-21T09:50:39Z</time>
      </trkpt>
      <trkpt lat="42.00273" lon="9.21493">
        <ele>1762.2</ele>
        <time>2015-06-21T09:50:41Z</time>
      </trkpt>
      <trkpt lat="42.00275" lon="9.21491">
        <ele>1762</ele>
        <time>2015-06-21T09:50:43Z</time>
      </trkpt>
      <trkpt lat="42.00278" lon="9.21485">
        <ele>1760.2</ele>
        <time>2015-06-21T09:50:51Z</time>
      </trkpt>
      <trkpt lat="42.00282" lon="9.2148">
        <ele>1759.2</ele>
        <time>2015-06-21T09:51:00Z</time>
      </trkpt>
      <trkpt lat="42.00287" lon="9.21478">
        <ele>1758</ele>
        <time>2015-06-21T09:51:09Z</time>
      </trkpt>
      <trkpt lat="42.00292" lon="9.21476">
        <ele>1757.4</ele>
        <time>2015-06-21T09:51:17Z</time>
      </trkpt>
      <trkpt lat="42.00295" lon="9.21473">
        <ele>1756.4</ele>
        <time>2015-06-21T09:51:23Z</time>
      </trkpt>
      <trkpt lat="42.00297" lon="9.21469">
        <ele>1755.2</ele>
        <time>2015-06-21T09:51:29Z</time>
      </trkpt>
      <trkpt lat="42.00299" lon="9.21464">
        <ele>1753.6</ele>
        <time>2015-06-21T09:51:37Z</time>
      </trkpt>
      <trkpt lat="42.00302" lon="9.21462">
        <ele>1752.6</ele>
        <time>2015-06-21T09:51:44Z</time>
      </trkpt>
      <trkpt lat="42.00303" lon="9.2146">
        <ele>1752</ele>
        <time>2015-06-21T09:51:49Z</time>
      </trkpt>
      <trkpt lat="42.00304" lon="9.21457">
        <ele>1751</ele>
        <time>2015-06-21T09:51:54Z</time>
      </trkpt>
      <trkpt lat="42.00306" lon="9.21455">
        <ele>1750</ele>
        <time>2015-06-21T09:51:59Z</time>
      </trkpt>
      <trkpt lat="42.00308" lon="9.21451">
        <ele>1748.6</ele>
        <time>2015-06-21T09:52:06Z</time>
      </trkpt>
      <trkpt lat="42.0031" lon="9.21447">
        <ele>1747.6</ele>
        <time>2015-06-21T09:52:13Z</time>
      </trkpt>
      <trkpt lat="42.00312" lon="9.21444">
        <ele>1746.6</ele>
        <time>2015-06-21T09:52:20Z</time>
      </trkpt>
      <trkpt lat="42.00315" lon="9.21444">
        <ele>1745</ele>
        <time>2015-06-21T09:52:28Z</time>
      </trkpt>
      <trkpt lat="42.00318" lon="9.21443">
        <ele>1744.6</ele>
        <time>2015-06-21T09:52:34Z</time>
      </trkpt>
      <trkpt lat="42.0032" lon="9.21448">
        <ele>1743.8</ele>
        <time>2015-06-21T09:52:38Z</time>
      </trkpt>
      <trkpt lat="42.00322" lon="9.21448">
        <ele>1743</ele>
        <time>2015-06-21T09:52:41Z</time>
      </trkpt>
      <trkpt lat="42.00324" lon="9.21444">
        <ele>1741.8</ele>
        <time>2015-06-21T09:52:48Z</time>
      </trkpt>
      <trkpt lat="42.00327" lon="9.21436">
        <ele>1740.8</ele>
        <time>2015-06-21T09:52:55Z</time>
      </trkpt>
      <trkpt lat="42.00331" lon="9.21431">
        <ele>1739.8</ele>
        <time>2015-06-21T09:53:02Z</time>
      </trkpt>
      <trkpt lat="42.00337" lon="9.21431">
        <ele>1738.8</ele>
        <time>2015-06-21T09:53:10Z</time>
      </trkpt>
      <trkpt lat="42.0034" lon="9.21433">
        <ele>1737.6</ele>
        <time>2015-06-21T09:53:16Z</time>
      </trkpt>
      <trkpt lat="42.00345" lon="9.21436">
        <ele>1736.4</ele>
        <time>2015-06-21T09:53:23Z</time>
      </trkpt>
      <trkpt lat="42.00348" lon="9.21435">
        <ele>1735.4</ele>
        <time>2015-06-21T09:53:29Z</time>
      </trkpt>
      <trkpt lat="42.00351" lon="9.2143">
        <ele>1734.4</ele>
        <time>2015-06-21T09:53:35Z</time>
      </trkpt>
      <trkpt lat="42.00352" lon="9.21429">
        <ele>1734</ele>
        <time>2015-06-21T09:53:38Z</time>
      </trkpt>
      <trkpt lat="42.00356" lon="9.21426">
        <ele>1732.4</ele>
        <time>2015-06-21T09:53:44Z</time>
      </trkpt>
      <trkpt lat="42.0036" lon="9.21424">
        <ele>1731.2</ele>
        <time>2015-06-21T09:53:51Z</time>
      </trkpt>
      <trkpt lat="42.00364" lon="9.21428">
        <ele>1729.6</ele>
        <time>2015-06-21T09:54:00Z</time>
      </trkpt>
      <trkpt lat="42.00367" lon="9.21432">
        <ele>1728.8</ele>
        <time>2015-06-21T09:54:06Z</time>
      </trkpt>
      <trkpt lat="42.00369" lon="9.21435">
        <ele>1728</ele>
        <time>2015-06-21T09:54:12Z</time>
      </trkpt>
      <trkpt lat="42.00373" lon="9.21438">
        <ele>1726.4</ele>
        <time>2015-06-21T09:54:19Z</time>
      </trkpt>
      <trkpt lat="42.00376" lon="9.21438">
        <ele>1725.4</ele>
        <time>2015-06-21T09:54:26Z</time>
      </trkpt>
      <trkpt lat="42.00379" lon="9.21442">
        <ele>1724</ele>
        <time>2015-06-21T09:54:57Z</time>
      </trkpt>
      <trkpt lat="42.00384" lon="9.21437">
        <ele>1722.8</ele>
        <time>2015-06-21T09:55:10Z</time>
      </trkpt>
      <trkpt lat="42.00386" lon="9.21438">
        <ele>1722.4</ele>
        <time>2015-06-21T09:55:15Z</time>
      </trkpt>
      <trkpt lat="42.00388" lon="9.21439">
        <ele>1721.2</ele>
        <time>2015-06-21T09:55:21Z</time>
      </trkpt>
      <trkpt lat="42.00392" lon="9.21437">
        <ele>1719.8</ele>
        <time>2015-06-21T09:55:31Z</time>
      </trkpt>
      <trkpt lat="42.00395" lon="9.2144">
        <ele>1718.8</ele>
        <time>2015-06-21T09:55:38Z</time>
      </trkpt>
      <trkpt lat="42.00397" lon="9.21438">
        <ele>1717.8</ele>
        <time>2015-06-21T09:55:45Z</time>
      </trkpt>
      <trkpt lat="42.004" lon="9.21436">
        <ele>1717</ele>
        <time>2015-06-21T09:55:51Z</time>
      </trkpt>
      <trkpt lat="42.00404" lon="9.21434">
        <ele>1715.6</ele>
        <time>2015-06-21T09:55:58Z</time>
      </trkpt>
      <trkpt lat="42.00407" lon="9.21431">
        <ele>1715</ele>
        <time>2015-06-21T09:56:02Z</time>
      </trkpt>
      <trkpt lat="42.00409" lon="9.21431">
        <ele>1714.8</ele>
        <time>2015-06-21T09:56:04Z</time>
      </trkpt>
      <trkpt lat="42.00414" lon="9.21429">
        <ele>1713.6</ele>
        <time>2015-06-21T09:56:10Z</time>
      </trkpt>
      <trkpt lat="42.00415" lon="9.21429">
        <ele>1713.6</ele>
        <time>2015-06-21T09:56:11Z</time>
      </trkpt>
      <trkpt lat="42.00421" lon="9.21426">
        <ele>1712.4</ele>
        <time>2015-06-21T09:56:17Z</time>
      </trkpt>
      <trkpt lat="42.00429" lon="9.21421">
        <ele>1711.2</ele>
        <time>2015-06-21T09:56:25Z</time>
      </trkpt>
      <trkpt lat="42.00433" lon="9.21416">
        <ele>1710.8</ele>
        <time>2015-06-21T09:56:30Z</time>
      </trkpt>
      <trkpt lat="42.00439" lon="9.21407">
        <ele>1708.8</ele>
        <time>2015-06-21T09:56:38Z</time>
      </trkpt>
      <trkpt lat="42.00448" lon="9.21406">
        <ele>1708</ele>
        <time>2015-06-21T09:56:46Z</time>
      </trkpt>
      <trkpt lat="42.00469" lon="9.21404">
        <ele>1706.6</ele>
        <time>2015-06-21T09:57:05Z</time>
      </trkpt>
      <trkpt lat="42.00492" lon="9.21404">
        <ele>1705.6</ele>
        <time>2015-06-21T09:57:24Z</time>
      </trkpt>
      <trkpt lat="42.00511" lon="9.21398">
        <ele>1704.6</ele>
        <time>2015-06-21T09:57:41Z</time>
      </trkpt>
      <trkpt lat="42.0053" lon="9.21398">
        <ele>1703.6</ele>
        <time>2015-06-21T09:57:59Z</time>
      </trkpt>
      <trkpt lat="42.00542" lon="9.214">
        <ele>1702.8</ele>
        <time>2015-06-21T09:58:09Z</time>
      </trkpt>
      <trkpt lat="42.00559" lon="9.21407">
        <ele>1701.6</ele>
        <time>2015-06-21T09:58:24Z</time>
      </trkpt>
      <trkpt lat="42.00572" lon="9.21419">
        <ele>1700.8</ele>
        <time>2015-06-21T09:58:37Z</time>
      </trkpt>
      <trkpt lat="42.00574" lon="9.21423">
        <ele>1700.6</ele>
        <time>2015-06-21T09:58:40Z</time>
      </trkpt>
      <trkpt lat="42.00584" lon="9.21435">
        <ele>1699.6</ele>
        <time>2015-06-21T09:58:54Z</time>
      </trkpt>
      <trkpt lat="42.00593" lon="9.2144">
        <ele>1698.2</ele>
        <time>2015-06-21T09:59:03Z</time>
      </trkpt>
      <trkpt lat="42.006" lon="9.21443">
        <ele>1697.8</ele>
        <time>2015-06-21T09:59:10Z</time>
      </trkpt>
      <trkpt lat="42.00605" lon="9.21447">
        <ele>1697.4</ele>
        <time>2015-06-21T09:59:15Z</time>
      </trkpt>
      <trkpt lat="42.00607" lon="9.21449">
        <ele>1697.2</ele>
        <time>2015-06-21T09:59:17Z</time>
      </trkpt>
      <trkpt lat="42.00614" lon="9.21453">
        <ele>1696.6</ele>
        <time>2015-06-21T09:59:25Z</time>
      </trkpt>
      <trkpt lat="42.00615" lon="9.21455">
        <ele>1696.2</ele>
        <time>2015-06-21T09:59:27Z</time>
      </trkpt>
      <trkpt lat="42.00626" lon="9.21459">
        <ele>1695</ele>
        <time>2015-06-21T09:59:42Z</time>
      </trkpt>
      <trkpt lat="42.00634" lon="9.21461">
        <ele>1693.8</ele>
        <time>2015-06-21T09:59:51Z</time>
      </trkpt>
      <trkpt lat="42.00637" lon="9.21462">
        <ele>1693.4</ele>
        <time>2015-06-21T09:59:55Z</time>
      </trkpt>
      <trkpt lat="42.0064" lon="9.21462">
        <ele>1693</ele>
        <time>2015-06-21T09:59:58Z</time>
      </trkpt>
      <trkpt lat="42.00643" lon="9.21462">
        <ele>1692.6</ele>
        <time>2015-06-21T10:00:01Z</time>
      </trkpt>
      <trkpt lat="42.0065" lon="9.21464">
        <ele>1692.4</ele>
        <time>2015-06-21T10:00:07Z</time>
      </trkpt>
      <trkpt lat="42.00652" lon="9.21468">
        <ele>1691.4</ele>
        <time>2015-06-21T10:00:11Z</time>
      </trkpt>
      <trkpt lat="42.00654" lon="9.21468">
        <ele>1691</ele>
        <time>2015-06-21T10:00:13Z</time>
      </trkpt>
      <trkpt lat="42.00656" lon="9.21469">
        <ele>1690.6</ele>
        <time>2015-06-21T10:00:15Z</time>
      </trkpt>
      <trkpt lat="42.00664" lon="9.21476">
        <ele>1689.6</ele>
        <time>2015-06-21T10:00:24Z</time>
      </trkpt>
      <trkpt lat="42.00665" lon="9.21477">
        <ele>1689.4</ele>
        <time>2015-06-21T10:00:25Z</time>
      </trkpt>
      <trkpt lat="42.00671" lon="9.21484">
        <ele>1688.4</ele>
        <time>2015-06-21T10:00:33Z</time>
      </trkpt>
      <trkpt lat="42.00676" lon="9.21488">
        <ele>1687.8</ele>
        <time>2015-06-21T10:00:39Z</time>
      </trkpt>
      <trkpt lat="42.00681" lon="9.21495">
        <ele>1686.4</ele>
        <time>2015-06-21T10:00:46Z</time>
      </trkpt>
      <trkpt lat="42.00683" lon="9.21501">
        <ele>1685.8</ele>
        <time>2015-06-21T10:00:51Z</time>
      </trkpt>
      <trkpt lat="42.00685" lon="9.21501">
        <ele>1685.4</ele>
        <time>2015-06-21T10:00:53Z</time>
      </trkpt>
      <trkpt lat="42.00686" lon="9.21502">
        <ele>1685.2</ele>
        <time>2015-06-21T10:00:54Z</time>
      </trkpt>
      <trkpt lat="42.00687" lon="9.21505">
        <ele>1685</ele>
        <time>2015-06-21T10:00:56Z</time>
      </trkpt>
      <trkpt lat="42.00688" lon="9.21515">
        <ele>1683.8</ele>
        <time>2015-06-21T10:01:03Z</time>
      </trkpt>
      <trkpt lat="42.00689" lon="9.21517">
        <ele>1683.6</ele>
        <time>2015-06-21T10:01:05Z</time>
      </trkpt>
      <trkpt lat="42.00693" lon="9.21528">
        <ele>1683.6</ele>
        <time>2015-06-21T10:01:13Z</time>
      </trkpt>
      <trkpt lat="42.00703" lon="9.21539">
        <ele>1683.4</ele>
        <time>2015-06-21T10:01:25Z</time>
      </trkpt>
      <trkpt lat="42.00703" lon="9.21542">
        <ele>1683.4</ele>
        <time>2015-06-21T10:01:27Z</time>
      </trkpt>
      <trkpt lat="42.00706" lon="9.21548">
        <ele>1683</ele>
        <time>2015-06-21T10:01:32Z</time>
      </trkpt>
      <trkpt lat="42.00707" lon="9.21552">
        <ele>1682.8</ele>
        <time>2015-06-21T10:01:35Z</time>
      </trkpt>
      <trkpt lat="42.00713" lon="9.21558">
        <ele>1682.2</ele>
        <time>2015-06-21T10:01:41Z</time>
      </trkpt>
      <trkpt lat="42.00719" lon="9.21567">
        <ele>1681.8</ele>
        <time>2015-06-21T10:01:49Z</time>
      </trkpt>
      <trkpt lat="42.00724" lon="9.21575">
        <ele>1681</ele>
        <time>2015-06-21T10:01:58Z</time>
      </trkpt>
      <trkpt lat="42.00729" lon="9.21587">
        <ele>1680</ele>
        <time>2015-06-21T10:02:08Z</time>
      </trkpt>
      <trkpt lat="42.00735" lon="9.21598">
        <ele>1679</ele>
        <time>2015-06-21T10:02:18Z</time>
      </trkpt>
      <trkpt lat="42.00739" lon="9.21608">
        <ele>1677.8</ele>
        <time>2015-06-21T10:02:27Z</time>
      </trkpt>
      <trkpt lat="42.00745" lon="9.21621">
        <ele>1676.8</ele>
        <time>2015-06-21T10:02:38Z</time>
      </trkpt>
      <trkpt lat="42.00759" lon="9.21643">
        <ele>1675.8</ele>
        <time>2015-06-21T10:02:58Z</time>
      </trkpt>
      <trkpt lat="42.0076" lon="9.21645">
        <ele>1675.6</ele>
        <time>2015-06-21T10:03:00Z</time>
      </trkpt>
      <trkpt lat="42.00764" lon="9.21652">
        <ele>1675.2</ele>
        <time>2015-06-21T10:03:08Z</time>
      </trkpt>
      <trkpt lat="42.00766" lon="9.21657">
        <ele>1675</ele>
        <time>2015-06-21T10:03:12Z</time>
      </trkpt>
      <trkpt lat="42.00782" lon="9.21695">
        <ele>1674.4</ele>
        <time>2015-06-21T10:03:40Z</time>
      </trkpt>
      <trkpt lat="42.008" lon="9.21737">
        <ele>1673.8</ele>
        <time>2015-06-21T10:04:14Z</time>
      </trkpt>
      <trkpt lat="42.00809" lon="9.21745">
        <ele>1673.8</ele>
        <time>2015-06-21T10:04:24Z</time>
      </trkpt>
      <trkpt lat="42.0084" lon="9.2178">
        <ele>1674</ele>
        <time>2015-06-21T10:05:21Z</time>
      </trkpt>
      <trkpt lat="42.0084" lon="9.2179">
        <ele>1674</ele>
        <time>2015-06-21T10:05:30Z</time>
      </trkpt>
      <trkpt lat="42.0084" lon="9.21792">
        <ele>1674</ele>
        <time>2015-06-21T10:05:31Z</time>
      </trkpt>
      <trkpt lat="42.00838" lon="9.21798">
        <ele>1673.8</ele>
        <time>2015-06-21T10:05:36Z</time>
      </trkpt>
      <trkpt lat="42.00838" lon="9.21812">
        <ele>1673</ele>
        <time>2015-06-21T10:05:48Z</time>
      </trkpt>
      <trkpt lat="42.00837" lon="9.21815">
        <ele>1672.8</ele>
        <time>2015-06-21T10:05:52Z</time>
      </trkpt>
      <trkpt lat="42.00834" lon="9.21817">
        <ele>1672.6</ele>
        <time>2015-06-21T10:05:56Z</time>
      </trkpt>
      <trkpt lat="42.00826" lon="9.2182">
        <ele>1671.2</ele>
        <time>2015-06-21T10:06:06Z</time>
      </trkpt>
      <trkpt lat="42.00825" lon="9.21814">
        <ele>1671</ele>
        <time>2015-06-21T10:06:09Z</time>
      </trkpt>
      <trkpt lat="42.00824" lon="9.21815">
        <ele>1670.6</ele>
        <time>2015-06-21T10:06:12Z</time>
      </trkpt>
      <trkpt lat="42.00824" lon="9.21814">
        <ele>1670</ele>
        <time>2015-06-21T10:06:16Z</time>
      </trkpt>
      <trkpt lat="42.00824" lon="9.21824">
        <ele>1669.2</ele>
        <time>2015-06-21T10:07:12Z</time>
      </trkpt>
      <trkpt lat="42.00823" lon="9.21826">
        <ele>1668.4</ele>
        <time>2015-06-21T10:07:58Z</time>
      </trkpt>
      <trkpt lat="42.00823" lon="9.21829">
        <ele>1668.8</ele>
        <time>2015-06-21T10:09:06Z</time>
      </trkpt>
      <trkpt lat="42.00824" lon="9.21828">
        <ele>1669</ele>
        <time>2015-06-21T10:09:12Z</time>
      </trkpt>
      <trkpt lat="42.00824" lon="9.21826">
        <ele>1669.8</ele>
        <time>2015-06-21T10:09:39Z</time>
      </trkpt>
      <trkpt lat="42.0083" lon="9.21831">
        <ele>1669.8</ele>
        <time>2015-06-21T10:10:13Z</time>
      </trkpt>
      <trkpt lat="42.00841" lon="9.21831">
        <ele>1670.2</ele>
        <time>2015-06-21T10:10:27Z</time>
      </trkpt>
      <trkpt lat="42.00847" lon="9.21835">
        <ele>1671.6</ele>
        <time>2015-06-21T10:10:38Z</time>
      </trkpt>
      <trkpt lat="42.00856" lon="9.21838">
        <ele>1672.6</ele>
        <time>2015-06-21T10:11:29Z</time>
      </trkpt>
      <trkpt lat="42.00857" lon="9.21822">
        <ele>1673.8</ele>
        <time>2015-06-21T10:13:31Z</time>
      </trkpt>
      <trkpt lat="42.00859" lon="9.21822">
        <ele>1674.2</ele>
        <time>2015-06-21T10:13:47Z</time>
      </trkpt>
      <trkpt lat="42.00859" lon="9.21821">
        <ele>1675</ele>
        <time>2015-06-21T10:13:56Z</time>
      </trkpt>
      <trkpt lat="42.00859" lon="9.21824">
        <ele>1676</ele>
        <time>2015-06-21T10:14:11Z</time>
      </trkpt>
      <trkpt lat="42.00859" lon="9.21824">
        <ele>1676</ele>
        <time>2015-06-21T10:14:14Z</time>
      </trkpt>
      <trkpt lat="42.00859" lon="9.21825">
        <ele>1675.6</ele>
        <time>2015-06-21T10:14:16Z</time>
      </trkpt>
      <trkpt lat="42.0086" lon="9.21824">
        <ele>1675.6</ele>
        <time>2015-06-21T10:14:26Z</time>
      </trkpt>
      <trkpt lat="42.0086" lon="9.21824">
        <ele>1675.6</ele>
        <time>2015-06-21T10:14:28Z</time>
      </trkpt>
    </trkseg>
  </trk>
  <trk>
    <name><![CDATA[GR20 Prati - E Capannelle]]></name>
    <trkseg>
      <trkpt lat="42.0089" lon="9.21813">
        <ele>671</ele>
        <time>2015-06-22T03:45:11Z</time>
      </trkpt>
      <trkpt lat="42.0089" lon="9.21813">
        <ele>666.4</ele>
        <time>2015-06-22T03:45:12Z</time>
      </trkpt>
      <trkpt lat="42.00892" lon="9.21812">
        <ele>682</ele>
        <time>2015-06-22T03:45:14Z</time>
      </trkpt>
      <trkpt lat="42.00894" lon="9.21811">
        <ele>708.8</ele>
        <time>2015-06-22T03:45:15Z</time>
      </trkpt>
      <trkpt lat="42.00897" lon="9.2181">
        <ele>740.6</ele>
        <time>2015-06-22T03:45:16Z</time>
      </trkpt>
      <trkpt lat="42.009" lon="9.21809">
        <ele>774.4</ele>
        <time>2015-06-22T03:45:17Z</time>
      </trkpt>
      <trkpt lat="42.00902" lon="9.21808">
        <ele>808.6</ele>
        <time>2015-06-22T03:45:18Z</time>
      </trkpt>
      <trkpt lat="42.00904" lon="9.21808">
        <ele>842.4</ele>
        <time>2015-06-22T03:45:19Z</time>
      </trkpt>
      <trkpt lat="42.00905" lon="9.21808">
        <ele>871.6</ele>
        <time>2015-06-22T03:45:20Z</time>
      </trkpt>
      <trkpt lat="42.00906" lon="9.21807">
        <ele>894</ele>
        <time>2015-06-22T03:45:21Z</time>
      </trkpt>
      <trkpt lat="42.00907" lon="9.21807">
        <ele>916.6</ele>
        <time>2015-06-22T03:45:22Z</time>
      </trkpt>
      <trkpt lat="42.00908" lon="9.21807">
        <ele>943</ele>
        <time>2015-06-22T03:45:23Z</time>
      </trkpt>
      <trkpt lat="42.00909" lon="9.21807">
        <ele>974.6</ele>
        <time>2015-06-22T03:45:25Z</time>
      </trkpt>
      <trkpt lat="42.00911" lon="9.21807">
        <ele>1000.2</ele>
        <time>2015-06-22T03:45:26Z</time>
      </trkpt>
      <trkpt lat="42.00913" lon="9.21807">
        <ele>1026.6</ele>
        <time>2015-06-22T03:45:27Z</time>
      </trkpt>
      <trkpt lat="42.00915" lon="9.21808">
        <ele>1052.6</ele>
        <time>2015-06-22T03:45:28Z</time>
      </trkpt>
      <trkpt lat="42.00917" lon="9.21808">
        <ele>1078</ele>
        <time>2015-06-22T03:45:29Z</time>
      </trkpt>
      <trkpt lat="42.00918" lon="9.21809">
        <ele>1103</ele>
        <time>2015-06-22T03:45:30Z</time>
      </trkpt>
      <trkpt lat="42.00918" lon="9.21808">
        <ele>1127.2</ele>
        <time>2015-06-22T03:45:31Z</time>
      </trkpt>
      <trkpt lat="42.00918" lon="9.21808">
        <ele>1150.8</ele>
        <time>2015-06-22T03:45:32Z</time>
      </trkpt>
      <trkpt lat="42.00917" lon="9.21807">
        <ele>1173.4</ele>
        <time>2015-06-22T03:45:33Z</time>
      </trkpt>
      <trkpt lat="42.00916" lon="9.21805">
        <ele>1195.4</ele>
        <time>2015-06-22T03:45:34Z</time>
      </trkpt>
      <trkpt lat="42.00916" lon="9.21803">
        <ele>1808.8</ele>
        <time>2015-06-22T03:45:35Z</time>
      </trkpt>
      <trkpt lat="42.00917" lon="9.21802">
        <ele>1808.8</ele>
        <time>2015-06-22T03:45:36Z</time>
      </trkpt>
      <trkpt lat="42.00919" lon="9.21801">
        <ele>1808.8</ele>
        <time>2015-06-22T03:45:37Z</time>
      </trkpt>
      <trkpt lat="42.00921" lon="9.218">
        <ele>1809</ele>
        <time>2015-06-22T03:45:38Z</time>
      </trkpt>
      <trkpt lat="42.00923" lon="9.218">
        <ele>1809</ele>
        <time>2015-06-22T03:45:39Z</time>
      </trkpt>
      <trkpt lat="42.00924" lon="9.21799">
        <ele>1809.2</ele>
        <time>2015-06-22T03:45:40Z</time>
      </trkpt>
      <trkpt lat="42.00925" lon="9.21799">
        <ele>1809.2</ele>
        <time>2015-06-22T03:45:41Z</time>
      </trkpt>
      <trkpt lat="42.00926" lon="9.21799">
        <ele>1809.2</ele>
        <time>2015-06-22T03:45:42Z</time>
      </trkpt>
      <trkpt lat="42.00927" lon="9.21799">
        <ele>1809.4</ele>
        <time>2015-06-22T03:45:43Z</time>
      </trkpt>
      <trkpt lat="42.00927" lon="9.218">
        <ele>1809.4</ele>
        <time>2015-06-22T03:45:44Z</time>
      </trkpt>
      <trkpt lat="42.00928" lon="9.218">
        <ele>1809.4</ele>
        <time>2015-06-22T03:45:45Z</time>
      </trkpt>
      <trkpt lat="42.00928" lon="9.218">
        <ele>1809.6</ele>
        <time>2015-06-22T03:45:46Z</time>
      </trkpt>
      <trkpt lat="42.00929" lon="9.218">
        <ele>1809.6</ele>
        <time>2015-06-22T03:45:47Z</time>
      </trkpt>
      <trkpt lat="42.00929" lon="9.21801">
        <ele>1809.6</ele>
        <time>2015-06-22T03:45:48Z</time>
      </trkpt>
      <trkpt lat="42.0093" lon="9.21801">
        <ele>1809.8</ele>
        <time>2015-06-22T03:45:49Z</time>
      </trkpt>
      <trkpt lat="42.00931" lon="9.21802">
        <ele>1809.8</ele>
        <time>2015-06-22T03:45:50Z</time>
      </trkpt>
      <trkpt lat="42.00931" lon="9.21802">
        <ele>1809.8</ele>
        <time>2015-06-22T03:45:51Z</time>
      </trkpt>
      <trkpt lat="42.00932" lon="9.21803">
        <ele>1809.8</ele>
        <time>2015-06-22T03:45:52Z</time>
      </trkpt>
      <trkpt lat="42.00933" lon="9.21803">
        <ele>1809.8</ele>
        <time>2015-06-22T03:45:53Z</time>
      </trkpt>
      <trkpt lat="42.00934" lon="9.21804">
        <ele>1809.8</ele>
        <time>2015-06-22T03:45:54Z</time>
      </trkpt>
      <trkpt lat="42.00934" lon="9.21804">
        <ele>1809.8</ele>
        <time>2015-06-22T03:45:55Z</time>
      </trkpt>
      <trkpt lat="42.00935" lon="9.21804">
        <ele>1809.8</ele>
        <time>2015-06-22T03:45:56Z</time>
      </trkpt>
      <trkpt lat="42.00936" lon="9.21804">
        <ele>1810</ele>
        <time>2015-06-22T03:45:57Z</time>
      </trkpt>
      <trkpt lat="42.00936" lon="9.21804">
        <ele>1810</ele>
        <time>2015-06-22T03:45:58Z</time>
      </trkpt>
      <trkpt lat="42.00937" lon="9.21804">
        <ele>1810</ele>
        <time>2015-06-22T03:45:59Z</time>
      </trkpt>
      <trkpt lat="42.00937" lon="9.21804">
        <ele>1810</ele>
        <time>2015-06-22T03:46:00Z</time>
      </trkpt>
      <trkpt lat="42.00938" lon="9.21804">
        <ele>1810.2</ele>
        <time>2015-06-22T03:46:01Z</time>
      </trkpt>
      <trkpt lat="42.00938" lon="9.21805">
        <ele>1810</ele>
        <time>2015-06-22T03:46:02Z</time>
      </trkpt>
      <trkpt lat="42.00938" lon="9.21805">
        <ele>1810.2</ele>
        <time>2015-06-22T03:46:03Z</time>
      </trkpt>
      <trkpt lat="42.00939" lon="9.21805">
        <ele>1810.2</ele>
        <time>2015-06-22T03:46:04Z</time>
      </trkpt>
      <trkpt lat="42.00939" lon="9.21805">
        <ele>1810.4</ele>
        <time>2015-06-22T03:46:05Z</time>
      </trkpt>
      <trkpt lat="42.0094" lon="9.21806">
        <ele>1810.4</ele>
        <time>2015-06-22T03:46:06Z</time>
      </trkpt>
      <trkpt lat="42.0094" lon="9.21806">
        <ele>1810.6</ele>
        <time>2015-06-22T03:46:07Z</time>
      </trkpt>
      <trkpt lat="42.00941" lon="9.21806">
        <ele>1810.6</ele>
        <time>2015-06-22T03:46:08Z</time>
      </trkpt>
      <trkpt lat="42.00942" lon="9.21806">
        <ele>1810.6</ele>
        <time>2015-06-22T03:46:09Z</time>
      </trkpt>
      <trkpt lat="42.00943" lon="9.21806">
        <ele>1810.8</ele>
        <time>2015-06-22T03:46:10Z</time>
      </trkpt>
      <trkpt lat="42.00943" lon="9.21807">
        <ele>1810.8</ele>
        <time>2015-06-22T03:46:11Z</time>
      </trkpt>
      <trkpt lat="42.00944" lon="9.21807">
        <ele>1811</ele>
        <time>2015-06-22T03:46:12Z</time>
      </trkpt>
      <trkpt lat="42.00944" lon="9.21807">
        <ele>1811.2</ele>
        <time>2015-06-22T03:46:13Z</time>
      </trkpt>
      <trkpt lat="42.00945" lon="9.21807">
        <ele>1811.2</ele>
        <time>2015-06-22T03:46:14Z</time>
      </trkpt>
      <trkpt lat="42.00945" lon="9.21806">
        <ele>1811.4</ele>
        <time>2015-06-22T03:46:15Z</time>
      </trkpt>
      <trkpt lat="42.00945" lon="9.21806">
        <ele>1811.6</ele>
        <time>2015-06-22T03:46:16Z</time>
      </trkpt>
      <trkpt lat="42.00946" lon="9.21806">
        <ele>1811.6</ele>
        <time>2015-06-22T03:46:17Z</time>
      </trkpt>
      <trkpt lat="42.00946" lon="9.21805">
        <ele>1811.8</ele>
        <time>2015-06-22T03:46:18Z</time>
      </trkpt>
      <trkpt lat="42.00946" lon="9.21805">
        <ele>1811.8</ele>
        <time>2015-06-22T03:46:19Z</time>
      </trkpt>
      <trkpt lat="42.00946" lon="9.21805">
        <ele>1812</ele>
        <time>2015-06-22T03:46:20Z</time>
      </trkpt>
      <trkpt lat="42.00946" lon="9.21804">
        <ele>1812</ele>
        <time>2015-06-22T03:46:21Z</time>
      </trkpt>
      <trkpt lat="42.00946" lon="9.21804">
        <ele>1812.2</ele>
        <time>2015-06-22T03:46:22Z</time>
      </trkpt>
      <trkpt lat="42.00946" lon="9.21804">
        <ele>1812.4</ele>
        <time>2015-06-22T03:46:23Z</time>
      </trkpt>
      <trkpt lat="42.00946" lon="9.21804">
        <ele>1812.8</ele>
        <time>2015-06-22T03:46:24Z</time>
      </trkpt>
      <trkpt lat="42.00946" lon="9.21804">
        <ele>1812.8</ele>
        <time>2015-06-22T03:46:25Z</time>
      </trkpt>
      <trkpt lat="42.00947" lon="9.21804">
        <ele>1813</ele>
        <time>2015-06-22T03:46:26Z</time>
      </trkpt>
      <trkpt lat="42.00948" lon="9.21804">
        <ele>1813.2</ele>
        <time>2015-06-22T03:46:27Z</time>
      </trkpt>
      <trkpt lat="42.00948" lon="9.21803">
        <ele>1813.4</ele>
        <time>2015-06-22T03:46:28Z</time>
      </trkpt>
      <trkpt lat="42.00949" lon="9.21803">
        <ele>1813.4</ele>
        <time>2015-06-22T03:46:29Z</time>
      </trkpt>
      <trkpt lat="42.0095" lon="9.21802">
        <ele>1813.6</ele>
        <time>2015-06-22T03:46:30Z</time>
      </trkpt>
      <trkpt lat="42.00951" lon="9.21802">
        <ele>1814</ele>
        <time>2015-06-22T03:46:31Z</time>
      </trkpt>
      <trkpt lat="42.00952" lon="9.21801">
        <ele>1814</ele>
        <time>2015-06-22T03:46:32Z</time>
      </trkpt>
      <trkpt lat="42.00953" lon="9.21801">
        <ele>1814.4</ele>
        <time>2015-06-22T03:46:33Z</time>
      </trkpt>
      <trkpt lat="42.00954" lon="9.21801">
        <ele>1814.8</ele>
        <time>2015-06-22T03:46:34Z</time>
      </trkpt>
      <trkpt lat="42.00954" lon="9.21801">
        <ele>1814.8</ele>
        <time>2015-06-22T03:46:35Z</time>
      </trkpt>
      <trkpt lat="42.00955" lon="9.21801">
        <ele>1815.2</ele>
        <time>2015-06-22T03:46:36Z</time>
      </trkpt>
      <trkpt lat="42.00956" lon="9.21802">
        <ele>1815.4</ele>
        <time>2015-06-22T03:46:37Z</time>
      </trkpt>
      <trkpt lat="42.00956" lon="9.21802">
        <ele>1815.6</ele>
        <time>2015-06-22T03:46:38Z</time>
      </trkpt>
      <trkpt lat="42.00957" lon="9.21802">
        <ele>1815.6</ele>
        <time>2015-06-22T03:46:39Z</time>
      </trkpt>
      <trkpt lat="42.00957" lon="9.21803">
        <ele>1815.8</ele>
        <time>2015-06-22T03:46:40Z</time>
      </trkpt>
      <trkpt lat="42.00958" lon="9.21803">
        <ele>1816</ele>
        <time>2015-06-22T03:46:41Z</time>
      </trkpt>
      <trkpt lat="42.00958" lon="9.21803">
        <ele>1816</ele>
        <time>2015-06-22T03:46:42Z</time>
      </trkpt>
      <trkpt lat="42.00959" lon="9.21804">
        <ele>1817.4</ele>
        <time>2015-06-22T03:46:43Z</time>
      </trkpt>
      <trkpt lat="42.00969" lon="9.21805">
        <ele>1818.8</ele>
        <time>2015-06-22T03:46:55Z</time>
      </trkpt>
      <trkpt lat="42.00977" lon="9.21814">
        <ele>1818.8</ele>
        <time>2015-06-22T03:47:07Z</time>
      </trkpt>
      <trkpt lat="42.00993" lon="9.21814">
        <ele>1819.4</ele>
        <time>2015-06-22T03:47:23Z</time>
      </trkpt>
      <trkpt lat="42.00999" lon="9.21816">
        <ele>1820</ele>
        <time>2015-06-22T03:47:31Z</time>
      </trkpt>
      <trkpt lat="42.01006" lon="9.21817">
        <ele>1820.6</ele>
        <time>2015-06-22T03:47:42Z</time>
      </trkpt>
      <trkpt lat="42.01008" lon="9.21818">
        <ele>1821.4</ele>
        <time>2015-06-22T03:47:48Z</time>
      </trkpt>
      <trkpt lat="42.01014" lon="9.21821">
        <ele>1822.6</ele>
        <time>2015-06-22T03:47:58Z</time>
      </trkpt>
      <trkpt lat="42.01021" lon="9.21821">
        <ele>1823</ele>
        <time>2015-06-22T03:48:05Z</time>
      </trkpt>
      <trkpt lat="42.01025" lon="9.21821">
        <ele>1823.8</ele>
        <time>2015-06-22T03:48:13Z</time>
      </trkpt>
      <trkpt lat="42.01029" lon="9.21822">
        <ele>1824.6</ele>
        <time>2015-06-22T03:48:21Z</time>
      </trkpt>
      <trkpt lat="42.01034" lon="9.21825">
        <ele>1825.8</ele>
        <time>2015-06-22T03:48:29Z</time>
      </trkpt>
      <trkpt lat="42.01036" lon="9.21834">
        <ele>1826.8</ele>
        <time>2015-06-22T03:48:38Z</time>
      </trkpt>
      <trkpt lat="42.01038" lon="9.21834">
        <ele>1827</ele>
        <time>2015-06-22T03:48:44Z</time>
      </trkpt>
      <trkpt lat="42.01041" lon="9.21831">
        <ele>1828.2</ele>
        <time>2015-06-22T03:48:52Z</time>
      </trkpt>
      <trkpt lat="42.01044" lon="9.21832">
        <ele>1829.2</ele>
        <time>2015-06-22T03:49:00Z</time>
      </trkpt>
      <trkpt lat="42.01047" lon="9.21834">
        <ele>1829.8</ele>
        <time>2015-06-22T03:49:06Z</time>
      </trkpt>
      <trkpt lat="42.01051" lon="9.21835">
        <ele>1830.8</ele>
        <time>2015-06-22T03:49:12Z</time>
      </trkpt>
      <trkpt lat="42.01052" lon="9.21838">
        <ele>1831.8</ele>
        <time>2015-06-22T03:49:19Z</time>
      </trkpt>
      <trkpt lat="42.01055" lon="9.21842">
        <ele>1832.6</ele>
        <time>2015-06-22T03:49:28Z</time>
      </trkpt>
      <trkpt lat="42.01059" lon="9.21846">
        <ele>1833.6</ele>
        <time>2015-06-22T03:49:36Z</time>
      </trkpt>
      <trkpt lat="42.01064" lon="9.21847">
        <ele>1834.2</ele>
        <time>2015-06-22T03:49:43Z</time>
      </trkpt>
      <trkpt lat="42.01069" lon="9.21849">
        <ele>1835.2</ele>
        <time>2015-06-22T03:49:50Z</time>
      </trkpt>
      <trkpt lat="42.01077" lon="9.21851">
        <ele>1836.4</ele>
        <time>2015-06-22T03:50:00Z</time>
      </trkpt>
      <trkpt lat="42.01078" lon="9.21851">
        <ele>1836.4</ele>
        <time>2015-06-22T03:50:01Z</time>
      </trkpt>
      <trkpt lat="42.01079" lon="9.21852">
        <ele>1836.4</ele>
        <time>2015-06-22T03:50:03Z</time>
      </trkpt>
      <trkpt lat="42.01085" lon="9.21855">
        <ele>1837</ele>
        <time>2015-06-22T03:50:10Z</time>
      </trkpt>
      <trkpt lat="42.0109" lon="9.21856">
        <ele>1837.8</ele>
        <time>2015-06-22T03:50:17Z</time>
      </trkpt>
      <trkpt lat="42.01096" lon="9.21857">
        <ele>1838.8</ele>
        <time>2015-06-22T03:50:26Z</time>
      </trkpt>
      <trkpt lat="42.011" lon="9.21857">
        <ele>1839.6</ele>
        <time>2015-06-22T03:50:34Z</time>
      </trkpt>
      <trkpt lat="42.01105" lon="9.21856">
        <ele>1840.6</ele>
        <time>2015-06-22T03:50:47Z</time>
      </trkpt>
      <trkpt lat="42.0111" lon="9.21856">
        <ele>1841.4</ele>
        <time>2015-06-22T03:50:55Z</time>
      </trkpt>
      <trkpt lat="42.01108" lon="9.21859">
        <ele>1842.6</ele>
        <time>2015-06-22T03:51:05Z</time>
      </trkpt>
      <trkpt lat="42.01107" lon="9.21859">
        <ele>1843.6</ele>
        <time>2015-06-22T03:51:30Z</time>
      </trkpt>
      <trkpt lat="42.01118" lon="9.21854">
        <ele>1843.8</ele>
        <time>2015-06-22T03:51:48Z</time>
      </trkpt>
      <trkpt lat="42.01127" lon="9.21851">
        <ele>1844.6</ele>
        <time>2015-06-22T03:51:59Z</time>
      </trkpt>
      <trkpt lat="42.01138" lon="9.21851">
        <ele>1845.4</ele>
        <time>2015-06-22T03:52:12Z</time>
      </trkpt>
      <trkpt lat="42.01183" lon="9.21861">
        <ele>1845.8</ele>
        <time>2015-06-22T03:52:56Z</time>
      </trkpt>
      <trkpt lat="42.01204" lon="9.21875">
        <ele>1845.8</ele>
        <time>2015-06-22T03:53:18Z</time>
      </trkpt>
      <trkpt lat="42.01208" lon="9.21874">
        <ele>1845.8</ele>
        <time>2015-06-22T03:53:23Z</time>
      </trkpt>
      <trkpt lat="42.01248" lon="9.21891">
        <ele>1843.4</ele>
        <time>2015-06-22T03:54:09Z</time>
      </trkpt>
      <trkpt lat="42.01251" lon="9.2189">
        <ele>1843.2</ele>
        <time>2015-06-22T03:54:12Z</time>
      </trkpt>
      <trkpt lat="42.01264" lon="9.21896">
        <ele>1842.4</ele>
        <time>2015-06-22T03:54:28Z</time>
      </trkpt>
      <trkpt lat="42.01267" lon="9.21897">
        <ele>1841.8</ele>
        <time>2015-06-22T03:54:31Z</time>
      </trkpt>
      <trkpt lat="42.01269" lon="9.21898">
        <ele>1841.6</ele>
        <time>2015-06-22T03:54:33Z</time>
      </trkpt>
      <trkpt lat="42.01275" lon="9.21896">
        <ele>1841</ele>
        <time>2015-06-22T03:54:39Z</time>
      </trkpt>
      <trkpt lat="42.01281" lon="9.21898">
        <ele>1840.8</ele>
        <time>2015-06-22T03:54:46Z</time>
      </trkpt>
      <trkpt lat="42.01288" lon="9.2189">
        <ele>1840.2</ele>
        <time>2015-06-22T03:55:39Z</time>
      </trkpt>
      <trkpt lat="42.01284" lon="9.21894">
        <ele>1839.8</ele>
        <time>2015-06-22T03:57:25Z</time>
      </trkpt>
      <trkpt lat="42.01295" lon="9.21901">
        <ele>1838.8</ele>
        <time>2015-06-22T03:57:45Z</time>
      </trkpt>
      <trkpt lat="42.01305" lon="9.21904">
        <ele>1838.2</ele>
        <time>2015-06-22T03:57:54Z</time>
      </trkpt>
      <trkpt lat="42.01331" lon="9.21909">
        <ele>1836</ele>
        <time>2015-06-22T03:58:16Z</time>
      </trkpt>
      <trkpt lat="42.01332" lon="9.2191">
        <ele>1836</ele>
        <time>2015-06-22T03:58:17Z</time>
      </trkpt>
      <trkpt lat="42.01341" lon="9.21913">
        <ele>1835.4</ele>
        <time>2015-06-22T03:58:24Z</time>
      </trkpt>
      <trkpt lat="42.01347" lon="9.21918">
        <ele>1834.8</ele>
        <time>2015-06-22T03:58:30Z</time>
      </trkpt>
      <trkpt lat="42.01365" lon="9.21924">
        <ele>1834</ele>
        <time>2015-06-22T03:58:44Z</time>
      </trkpt>
      <trkpt lat="42.01367" lon="9.21925">
        <ele>1833.6</ele>
        <time>2015-06-22T03:58:46Z</time>
      </trkpt>
      <trkpt lat="42.01373" lon="9.21927">
        <ele>1833.6</ele>
        <time>2015-06-22T03:58:50Z</time>
      </trkpt>
      <trkpt lat="42.01384" lon="9.21922">
        <ele>1832.6</ele>
        <time>2015-06-22T03:59:00Z</time>
      </trkpt>
      <trkpt lat="42.01418" lon="9.21943">
        <ele>1831.2</ele>
        <time>2015-06-22T03:59:31Z</time>
      </trkpt>
      <trkpt lat="42.01426" lon="9.21947">
        <ele>1831</ele>
        <time>2015-06-22T03:59:38Z</time>
      </trkpt>
      <trkpt lat="42.01431" lon="9.2195">
        <ele>1831.2</ele>
        <time>2015-06-22T03:59:43Z</time>
      </trkpt>
      <trkpt lat="42.01446" lon="9.21959">
        <ele>1831.2</ele>
        <time>2015-06-22T03:59:56Z</time>
      </trkpt>
      <trkpt lat="42.01452" lon="9.21958">
        <ele>1831.2</ele>
        <time>2015-06-22T04:00:02Z</time>
      </trkpt>
      <trkpt lat="42.01458" lon="9.21959">
        <ele>1831</ele>
        <time>2015-06-22T04:00:07Z</time>
      </trkpt>
      <trkpt lat="42.01467" lon="9.21959">
        <ele>1830.8</ele>
        <time>2015-06-22T04:00:15Z</time>
      </trkpt>
      <trkpt lat="42.01492" lon="9.2197">
        <ele>1830.2</ele>
        <time>2015-06-22T04:00:38Z</time>
      </trkpt>
      <trkpt lat="42.015" lon="9.21979">
        <ele>1829.6</ele>
        <time>2015-06-22T04:00:48Z</time>
      </trkpt>
      <trkpt lat="42.01509" lon="9.21985">
        <ele>1829.4</ele>
        <time>2015-06-22T04:00:58Z</time>
      </trkpt>
      <trkpt lat="42.01524" lon="9.21985">
        <ele>1829.6</ele>
        <time>2015-06-22T04:01:15Z</time>
      </trkpt>
      <trkpt lat="42.0153" lon="9.21988">
        <ele>1830.6</ele>
        <time>2015-06-22T04:01:23Z</time>
      </trkpt>
      <trkpt lat="42.01541" lon="9.21989">
        <ele>1831.8</ele>
        <time>2015-06-22T04:01:34Z</time>
      </trkpt>
      <trkpt lat="42.01577" lon="9.22004">
        <ele>1832.4</ele>
        <time>2015-06-22T04:02:07Z</time>
      </trkpt>
      <trkpt lat="42.01578" lon="9.22006">
        <ele>1832.2</ele>
        <time>2015-06-22T04:02:09Z</time>
      </trkpt>
      <trkpt lat="42.01584" lon="9.22008">
        <ele>1831.8</ele>
        <time>2015-06-22T04:02:14Z</time>
      </trkpt>
      <trkpt lat="42.01592" lon="9.22011">
        <ele>1831.6</ele>
        <time>2015-06-22T04:02:22Z</time>
      </trkpt>
      <trkpt lat="42.01596" lon="9.22011">
        <ele>1831.4</ele>
        <time>2015-06-22T04:02:25Z</time>
      </trkpt>
      <trkpt lat="42.01598" lon="9.22013">
        <ele>1831.4</ele>
        <time>2015-06-22T04:02:28Z</time>
      </trkpt>
      <trkpt lat="42.016" lon="9.22013">
        <ele>1831.4</ele>
        <time>2015-06-22T04:02:30Z</time>
      </trkpt>
      <trkpt lat="42.01619" lon="9.2202">
        <ele>1830.4</ele>
        <time>2015-06-22T04:02:57Z</time>
      </trkpt>
      <trkpt lat="42.01661" lon="9.22039">
        <ele>1829.4</ele>
        <time>2015-06-22T04:03:33Z</time>
      </trkpt>
      <trkpt lat="42.01672" lon="9.22049">
        <ele>1829.8</ele>
        <time>2015-06-22T04:03:45Z</time>
      </trkpt>
      <trkpt lat="42.01682" lon="9.22052">
        <ele>1830.4</ele>
        <time>2015-06-22T04:03:55Z</time>
      </trkpt>
      <trkpt lat="42.01692" lon="9.22056">
        <ele>1830.4</ele>
        <time>2015-06-22T04:04:05Z</time>
      </trkpt>
      <trkpt lat="42.01694" lon="9.22056">
        <ele>1830.2</ele>
        <time>2015-06-22T04:04:07Z</time>
      </trkpt>
      <trkpt lat="42.01701" lon="9.22056">
        <ele>1830.2</ele>
        <time>2015-06-22T04:04:14Z</time>
      </trkpt>
      <trkpt lat="42.01708" lon="9.22057">
        <ele>1829.8</ele>
        <time>2015-06-22T04:04:20Z</time>
      </trkpt>
      <trkpt lat="42.01716" lon="9.22059">
        <ele>1829.8</ele>
        <time>2015-06-22T04:04:27Z</time>
      </trkpt>
      <trkpt lat="42.01761" lon="9.22057">
        <ele>1829.4</ele>
        <time>2015-06-22T04:05:10Z</time>
      </trkpt>
      <trkpt lat="42.01774" lon="9.22053">
        <ele>1829.2</ele>
        <time>2015-06-22T04:05:22Z</time>
      </trkpt>
      <trkpt lat="42.01776" lon="9.22051">
        <ele>1829.2</ele>
        <time>2015-06-22T04:05:25Z</time>
      </trkpt>
      <trkpt lat="42.01779" lon="9.22051">
        <ele>1829.2</ele>
        <time>2015-06-22T04:05:28Z</time>
      </trkpt>
      <trkpt lat="42.01786" lon="9.2205">
        <ele>1829.4</ele>
        <time>2015-06-22T04:05:33Z</time>
      </trkpt>
      <trkpt lat="42.01792" lon="9.2205">
        <ele>1829.4</ele>
        <time>2015-06-22T04:05:38Z</time>
      </trkpt>
      <trkpt lat="42.01796" lon="9.22049">
        <ele>1829.4</ele>
        <time>2015-06-22T04:05:42Z</time>
      </trkpt>
      <trkpt lat="42.018" lon="9.22049">
        <ele>1829.4</ele>
        <time>2015-06-22T04:05:46Z</time>
      </trkpt>
      <trkpt lat="42.01817" lon="9.22014">
        <ele>1827.8</ele>
        <time>2015-06-22T04:07:23Z</time>
      </trkpt>
      <trkpt lat="42.0182" lon="9.21999">
        <ele>1826.6</ele>
        <time>2015-06-22T04:07:40Z</time>
      </trkpt>
      <trkpt lat="42.01821" lon="9.21993">
        <ele>1826.4</ele>
        <time>2015-06-22T04:07:45Z</time>
      </trkpt>
      <trkpt lat="42.01824" lon="9.2199">
        <ele>1825.2</ele>
        <time>2015-06-22T04:07:49Z</time>
      </trkpt>
      <trkpt lat="42.01827" lon="9.21988">
        <ele>1824.4</ele>
        <time>2015-06-22T04:07:52Z</time>
      </trkpt>
      <trkpt lat="42.0183" lon="9.21986">
        <ele>1823.6</ele>
        <time>2015-06-22T04:07:57Z</time>
      </trkpt>
      <trkpt lat="42.01834" lon="9.21986">
        <ele>1822.2</ele>
        <time>2015-06-22T04:08:03Z</time>
      </trkpt>
      <trkpt lat="42.0184" lon="9.2198">
        <ele>1820.8</ele>
        <time>2015-06-22T04:08:12Z</time>
      </trkpt>
      <trkpt lat="42.01843" lon="9.21976">
        <ele>1820.2</ele>
        <time>2015-06-22T04:08:17Z</time>
      </trkpt>
      <trkpt lat="42.01844" lon="9.21972">
        <ele>1819</ele>
        <time>2015-06-22T04:08:22Z</time>
      </trkpt>
      <trkpt lat="42.01847" lon="9.2197">
        <ele>1817.6</ele>
        <time>2015-06-22T04:08:27Z</time>
      </trkpt>
      <trkpt lat="42.01849" lon="9.21963">
        <ele>1816</ele>
        <time>2015-06-22T04:08:34Z</time>
      </trkpt>
      <trkpt lat="42.01852" lon="9.2196">
        <ele>1815.2</ele>
        <time>2015-06-22T04:08:39Z</time>
      </trkpt>
      <trkpt lat="42.01854" lon="9.21956">
        <ele>1814</ele>
        <time>2015-06-22T04:08:44Z</time>
      </trkpt>
      <trkpt lat="42.01852" lon="9.21952">
        <ele>1812.6</ele>
        <time>2015-06-22T04:08:50Z</time>
      </trkpt>
      <trkpt lat="42.01854" lon="9.21944">
        <ele>1810.6</ele>
        <time>2015-06-22T04:08:58Z</time>
      </trkpt>
      <trkpt lat="42.01853" lon="9.21941">
        <ele>1810</ele>
        <time>2015-06-22T04:09:03Z</time>
      </trkpt>
      <trkpt lat="42.01854" lon="9.21938">
        <ele>1809.2</ele>
        <time>2015-06-22T04:09:07Z</time>
      </trkpt>
      <trkpt lat="42.01855" lon="9.21935">
        <ele>1807.4</ele>
        <time>2015-06-22T04:09:13Z</time>
      </trkpt>
      <trkpt lat="42.01859" lon="9.21929">
        <ele>1805.6</ele>
        <time>2015-06-22T04:09:21Z</time>
      </trkpt>
      <trkpt lat="42.01863" lon="9.21924">
        <ele>1804.4</ele>
        <time>2015-06-22T04:09:30Z</time>
      </trkpt>
      <trkpt lat="42.01866" lon="9.21918">
        <ele>1803.2</ele>
        <time>2015-06-22T04:09:38Z</time>
      </trkpt>
      <trkpt lat="42.0187" lon="9.21914">
        <ele>1802</ele>
        <time>2015-06-22T04:09:46Z</time>
      </trkpt>
      <trkpt lat="42.01875" lon="9.21911">
        <ele>1800.6</ele>
        <time>2015-06-22T04:09:54Z</time>
      </trkpt>
      <trkpt lat="42.01876" lon="9.21906">
        <ele>1799.8</ele>
        <time>2015-06-22T04:10:01Z</time>
      </trkpt>
      <trkpt lat="42.01878" lon="9.21898">
        <ele>1798</ele>
        <time>2015-06-22T04:10:11Z</time>
      </trkpt>
      <trkpt lat="42.01883" lon="9.21897">
        <ele>1796.2</ele>
        <time>2015-06-22T04:10:31Z</time>
      </trkpt>
      <trkpt lat="42.01881" lon="9.21892">
        <ele>1795.6</ele>
        <time>2015-06-22T04:10:38Z</time>
      </trkpt>
      <trkpt lat="42.01879" lon="9.2189">
        <ele>1794.4</ele>
        <time>2015-06-22T04:10:44Z</time>
      </trkpt>
      <trkpt lat="42.01876" lon="9.21888">
        <ele>1792.6</ele>
        <time>2015-06-22T04:10:52Z</time>
      </trkpt>
      <trkpt lat="42.01873" lon="9.21887">
        <ele>1791.6</ele>
        <time>2015-06-22T04:10:59Z</time>
      </trkpt>
      <trkpt lat="42.01868" lon="9.21886">
        <ele>1790.4</ele>
        <time>2015-06-22T04:11:06Z</time>
      </trkpt>
      <trkpt lat="42.01868" lon="9.21881">
        <ele>1788.8</ele>
        <time>2015-06-22T04:11:15Z</time>
      </trkpt>
      <trkpt lat="42.01866" lon="9.21878">
        <ele>1787.8</ele>
        <time>2015-06-22T04:11:23Z</time>
      </trkpt>
      <trkpt lat="42.01861" lon="9.21877">
        <ele>1786.6</ele>
        <time>2015-06-22T04:11:31Z</time>
      </trkpt>
      <trkpt lat="42.01857" lon="9.21875">
        <ele>1785.4</ele>
        <time>2015-06-22T04:11:38Z</time>
      </trkpt>
      <trkpt lat="42.01856" lon="9.21872">
        <ele>1784.2</ele>
        <time>2015-06-22T04:11:44Z</time>
      </trkpt>
      <trkpt lat="42.01857" lon="9.21869">
        <ele>1782.8</ele>
        <time>2015-06-22T04:11:51Z</time>
      </trkpt>
      <trkpt lat="42.01858" lon="9.21867">
        <ele>1781.8</ele>
        <time>2015-06-22T04:11:57Z</time>
      </trkpt>
      <trkpt lat="42.01861" lon="9.21864">
        <ele>1780.4</ele>
        <time>2015-06-22T04:12:04Z</time>
      </trkpt>
      <trkpt lat="42.0186" lon="9.21858">
        <ele>1779</ele>
        <time>2015-06-22T04:12:12Z</time>
      </trkpt>
      <trkpt lat="42.01858" lon="9.21859">
        <ele>1778.2</ele>
        <time>2015-06-22T04:12:17Z</time>
      </trkpt>
      <trkpt lat="42.01857" lon="9.21854">
        <ele>1776.6</ele>
        <time>2015-06-22T04:12:26Z</time>
      </trkpt>
      <trkpt lat="42.01858" lon="9.21849">
        <ele>1775.8</ele>
        <time>2015-06-22T04:12:33Z</time>
      </trkpt>
      <trkpt lat="42.01857" lon="9.21845">
        <ele>1774.4</ele>
        <time>2015-06-22T04:12:40Z</time>
      </trkpt>
      <trkpt lat="42.0186" lon="9.21843">
        <ele>1772.8</ele>
        <time>2015-06-22T04:12:49Z</time>
      </trkpt>
      <trkpt lat="42.01861" lon="9.21839">
        <ele>1772.2</ele>
        <time>2015-06-22T04:12:54Z</time>
      </trkpt>
      <trkpt lat="42.01861" lon="9.21837">
        <ele>1771.8</ele>
        <time>2015-06-22T04:12:58Z</time>
      </trkpt>
      <trkpt lat="42.0186" lon="9.21837">
        <ele>1771</ele>
        <time>2015-06-22T04:13:00Z</time>
      </trkpt>
      <trkpt lat="42.01857" lon="9.21836">
        <ele>1769.8</ele>
        <time>2015-06-22T04:13:06Z</time>
      </trkpt>
      <trkpt lat="42.01854" lon="9.21834">
        <ele>1768.4</ele>
        <time>2015-06-22T04:13:13Z</time>
      </trkpt>
      <trkpt lat="42.01856" lon="9.21832">
        <ele>1767.2</ele>
        <time>2015-06-22T04:13:21Z</time>
      </trkpt>
      <trkpt lat="42.01858" lon="9.21826">
        <ele>1766</ele>
        <time>2015-06-22T04:13:29Z</time>
      </trkpt>
      <trkpt lat="42.0186" lon="9.2182">
        <ele>1764.8</ele>
        <time>2015-06-22T04:13:37Z</time>
      </trkpt>
      <trkpt lat="42.01859" lon="9.21817">
        <ele>1763.2</ele>
        <time>2015-06-22T04:13:50Z</time>
      </trkpt>
      <trkpt lat="42.01854" lon="9.21818">
        <ele>1762</ele>
        <time>2015-06-22T04:14:06Z</time>
      </trkpt>
      <trkpt lat="42.01851" lon="9.21814">
        <ele>1760.8</ele>
        <time>2015-06-22T04:14:14Z</time>
      </trkpt>
      <trkpt lat="42.01852" lon="9.2181">
        <ele>1760</ele>
        <time>2015-06-22T04:14:19Z</time>
      </trkpt>
      <trkpt lat="42.01852" lon="9.21803">
        <ele>1758.6</ele>
        <time>2015-06-22T04:14:26Z</time>
      </trkpt>
      <trkpt lat="42.01856" lon="9.21797">
        <ele>1757.2</ele>
        <time>2015-06-22T04:14:34Z</time>
      </trkpt>
      <trkpt lat="42.01859" lon="9.21791">
        <ele>1756.4</ele>
        <time>2015-06-22T04:14:40Z</time>
      </trkpt>
      <trkpt lat="42.01861" lon="9.21789">
        <ele>1755.6</ele>
        <time>2015-06-22T04:14:45Z</time>
      </trkpt>
      <trkpt lat="42.01863" lon="9.21786">
        <ele>1754</ele>
        <time>2015-06-22T04:14:51Z</time>
      </trkpt>
      <trkpt lat="42.01865" lon="9.21782">
        <ele>1752.6</ele>
        <time>2015-06-22T04:14:59Z</time>
      </trkpt>
      <trkpt lat="42.01867" lon="9.2178">
        <ele>1751.8</ele>
        <time>2015-06-22T04:15:04Z</time>
      </trkpt>
      <trkpt lat="42.01868" lon="9.21777">
        <ele>1750.8</ele>
        <time>2015-06-22T04:15:09Z</time>
      </trkpt>
      <trkpt lat="42.01871" lon="9.21769">
        <ele>1748.6</ele>
        <time>2015-06-22T04:15:21Z</time>
      </trkpt>
      <trkpt lat="42.01872" lon="9.21768">
        <ele>1748</ele>
        <time>2015-06-22T04:15:27Z</time>
      </trkpt>
      <trkpt lat="42.01872" lon="9.21762">
        <ele>1746.6</ele>
        <time>2015-06-22T04:15:33Z</time>
      </trkpt>
      <trkpt lat="42.01873" lon="9.21762">
        <ele>1746.6</ele>
        <time>2015-06-22T04:15:34Z</time>
      </trkpt>
      <trkpt lat="42.01874" lon="9.21762">
        <ele>1746.2</ele>
        <time>2015-06-22T04:15:36Z</time>
      </trkpt>
      <trkpt lat="42.01877" lon="9.21758">
        <ele>1745.2</ele>
        <time>2015-06-22T04:15:42Z</time>
      </trkpt>
      <trkpt lat="42.0188" lon="9.21749">
        <ele>1743.6</ele>
        <time>2015-06-22T04:15:53Z</time>
      </trkpt>
      <trkpt lat="42.01881" lon="9.21744">
        <ele>1743</ele>
        <time>2015-06-22T04:15:59Z</time>
      </trkpt>
      <trkpt lat="42.0188" lon="9.21743">
        <ele>1741.6</ele>
        <time>2015-06-22T04:16:07Z</time>
      </trkpt>
      <trkpt lat="42.01877" lon="9.21741">
        <ele>1740.4</ele>
        <time>2015-06-22T04:16:14Z</time>
      </trkpt>
      <trkpt lat="42.01873" lon="9.21741">
        <ele>1739</ele>
        <time>2015-06-22T04:16:21Z</time>
      </trkpt>
      <trkpt lat="42.01869" lon="9.2174">
        <ele>1738</ele>
        <time>2015-06-22T04:16:28Z</time>
      </trkpt>
      <trkpt lat="42.01864" lon="9.2174">
        <ele>1736.8</ele>
        <time>2015-06-22T04:16:34Z</time>
      </trkpt>
      <trkpt lat="42.01861" lon="9.21737">
        <ele>1735.6</ele>
        <time>2015-06-22T04:16:41Z</time>
      </trkpt>
      <trkpt lat="42.01863" lon="9.21732">
        <ele>1734.2</ele>
        <time>2015-06-22T04:16:48Z</time>
      </trkpt>
      <trkpt lat="42.01863" lon="9.21729">
        <ele>1733.6</ele>
        <time>2015-06-22T04:16:53Z</time>
      </trkpt>
      <trkpt lat="42.01861" lon="9.21729">
        <ele>1732.8</ele>
        <time>2015-06-22T04:16:56Z</time>
      </trkpt>
      <trkpt lat="42.0186" lon="9.21728">
        <ele>1732.6</ele>
        <time>2015-06-22T04:16:58Z</time>
      </trkpt>
      <trkpt lat="42.01858" lon="9.21729">
        <ele>1731.8</ele>
        <time>2015-06-22T04:17:02Z</time>
      </trkpt>
      <trkpt lat="42.01853" lon="9.21727">
        <ele>1730.8</ele>
        <time>2015-06-22T04:17:09Z</time>
      </trkpt>
      <trkpt lat="42.01849" lon="9.21727">
        <ele>1729.2</ele>
        <time>2015-06-22T04:17:17Z</time>
      </trkpt>
      <trkpt lat="42.01846" lon="9.21727">
        <ele>1728</ele>
        <time>2015-06-22T04:17:24Z</time>
      </trkpt>
      <trkpt lat="42.01844" lon="9.21726">
        <ele>1727.6</ele>
        <time>2015-06-22T04:17:28Z</time>
      </trkpt>
      <trkpt lat="42.01847" lon="9.21721">
        <ele>1725.4</ele>
        <time>2015-06-22T04:17:38Z</time>
      </trkpt>
      <trkpt lat="42.01848" lon="9.21717">
        <ele>1724.8</ele>
        <time>2015-06-22T04:17:44Z</time>
      </trkpt>
      <trkpt lat="42.0185" lon="9.21713">
        <ele>1724</ele>
        <time>2015-06-22T04:17:49Z</time>
      </trkpt>
      <trkpt lat="42.01846" lon="9.21708">
        <ele>1721.8</ele>
        <time>2015-06-22T04:17:58Z</time>
      </trkpt>
      <trkpt lat="42.01844" lon="9.21707">
        <ele>1721</ele>
        <time>2015-06-22T04:18:04Z</time>
      </trkpt>
      <trkpt lat="42.01842" lon="9.21705">
        <ele>1719.6</ele>
        <time>2015-06-22T04:18:11Z</time>
      </trkpt>
      <trkpt lat="42.0184" lon="9.21703">
        <ele>1718.6</ele>
        <time>2015-06-22T04:18:18Z</time>
      </trkpt>
      <trkpt lat="42.01842" lon="9.21699">
        <ele>1717</ele>
        <time>2015-06-22T04:18:28Z</time>
      </trkpt>
      <trkpt lat="42.0185" lon="9.21693">
        <ele>1715.6</ele>
        <time>2015-06-22T04:18:40Z</time>
      </trkpt>
      <trkpt lat="42.01854" lon="9.21686">
        <ele>1714.6</ele>
        <time>2015-06-22T04:18:48Z</time>
      </trkpt>
      <trkpt lat="42.01859" lon="9.21681">
        <ele>1713.6</ele>
        <time>2015-06-22T04:18:56Z</time>
      </trkpt>
      <trkpt lat="42.01861" lon="9.21669">
        <ele>1712.4</ele>
        <time>2015-06-22T04:19:08Z</time>
      </trkpt>
      <trkpt lat="42.0186" lon="9.21662">
        <ele>1711.4</ele>
        <time>2015-06-22T04:19:14Z</time>
      </trkpt>
      <trkpt lat="42.0186" lon="9.21654">
        <ele>1710</ele>
        <time>2015-06-22T04:19:22Z</time>
      </trkpt>
      <trkpt lat="42.01861" lon="9.21648">
        <ele>1708.6</ele>
        <time>2015-06-22T04:19:30Z</time>
      </trkpt>
      <trkpt lat="42.01862" lon="9.21642">
        <ele>1707.8</ele>
        <time>2015-06-22T04:19:36Z</time>
      </trkpt>
      <trkpt lat="42.01865" lon="9.21636">
        <ele>1706.2</ele>
        <time>2015-06-22T04:19:45Z</time>
      </trkpt>
      <trkpt lat="42.01866" lon="9.21631">
        <ele>1705.4</ele>
        <time>2015-06-22T04:19:52Z</time>
      </trkpt>
      <trkpt lat="42.01865" lon="9.21627">
        <ele>1704.2</ele>
        <time>2015-06-22T04:19:59Z</time>
      </trkpt>
      <trkpt lat="42.01866" lon="9.21624">
        <ele>1703.2</ele>
        <time>2015-06-22T04:20:05Z</time>
      </trkpt>
      <trkpt lat="42.01868" lon="9.21622">
        <ele>1702.2</ele>
        <time>2015-06-22T04:20:11Z</time>
      </trkpt>
      <trkpt lat="42.01867" lon="9.2162">
        <ele>1700.8</ele>
        <time>2015-06-22T04:20:17Z</time>
      </trkpt>
      <trkpt lat="42.01866" lon="9.21615">
        <ele>1699.6</ele>
        <time>2015-06-22T04:20:24Z</time>
      </trkpt>
      <trkpt lat="42.01866" lon="9.21611">
        <ele>1698.6</ele>
        <time>2015-06-22T04:20:30Z</time>
      </trkpt>
      <trkpt lat="42.01871" lon="9.21605">
        <ele>1697</ele>
        <time>2015-06-22T04:20:37Z</time>
      </trkpt>
      <trkpt lat="42.01872" lon="9.21602">
        <ele>1696.4</ele>
        <time>2015-06-22T04:20:42Z</time>
      </trkpt>
      <trkpt lat="42.01873" lon="9.21596">
        <ele>1695.2</ele>
        <time>2015-06-22T04:20:48Z</time>
      </trkpt>
      <trkpt lat="42.01875" lon="9.21591">
        <ele>1693.6</ele>
        <time>2015-06-22T04:20:55Z</time>
      </trkpt>
      <trkpt lat="42.01876" lon="9.21588">
        <ele>1692.8</ele>
        <time>2015-06-22T04:21:00Z</time>
      </trkpt>
      <trkpt lat="42.01878" lon="9.21582">
        <ele>1691.2</ele>
        <time>2015-06-22T04:21:06Z</time>
      </trkpt>
      <trkpt lat="42.01881" lon="9.21579">
        <ele>1690.2</ele>
        <time>2015-06-22T04:21:12Z</time>
      </trkpt>
      <trkpt lat="42.01882" lon="9.21575">
        <ele>1689</ele>
        <time>2015-06-22T04:21:18Z</time>
      </trkpt>
      <trkpt lat="42.01885" lon="9.21571">
        <ele>1687.6</ele>
        <time>2015-06-22T04:21:25Z</time>
      </trkpt>
      <trkpt lat="42.01889" lon="9.21567">
        <ele>1686.8</ele>
        <time>2015-06-22T04:21:31Z</time>
      </trkpt>
      <trkpt lat="42.01892" lon="9.21564">
        <ele>1685.6</ele>
        <time>2015-06-22T04:21:37Z</time>
      </trkpt>
      <trkpt lat="42.01894" lon="9.21559">
        <ele>1684.4</ele>
        <time>2015-06-22T04:21:44Z</time>
      </trkpt>
      <trkpt lat="42.01893" lon="9.21556">
        <ele>1683.4</ele>
        <time>2015-06-22T04:21:49Z</time>
      </trkpt>
      <trkpt lat="42.01895" lon="9.21547">
        <ele>1681.8</ele>
        <time>2015-06-22T04:21:56Z</time>
      </trkpt>
      <trkpt lat="42.01897" lon="9.21542">
        <ele>1680.4</ele>
        <time>2015-06-22T04:22:03Z</time>
      </trkpt>
      <trkpt lat="42.01901" lon="9.21531">
        <ele>1679</ele>
        <time>2015-06-22T04:22:13Z</time>
      </trkpt>
      <trkpt lat="42.01905" lon="9.21519">
        <ele>1677.8</ele>
        <time>2015-06-22T04:22:28Z</time>
      </trkpt>
      <trkpt lat="42.01907" lon="9.2151">
        <ele>1676.8</ele>
        <time>2015-06-22T04:22:37Z</time>
      </trkpt>
      <trkpt lat="42.01908" lon="9.21503">
        <ele>1676</ele>
        <time>2015-06-22T04:22:43Z</time>
      </trkpt>
      <trkpt lat="42.01909" lon="9.21501">
        <ele>1675.8</ele>
        <time>2015-06-22T04:22:44Z</time>
      </trkpt>
      <trkpt lat="42.01915" lon="9.21495">
        <ele>1674.4</ele>
        <time>2015-06-22T04:22:51Z</time>
      </trkpt>
      <trkpt lat="42.01915" lon="9.21494">
        <ele>1674.4</ele>
        <time>2015-06-22T04:22:52Z</time>
      </trkpt>
      <trkpt lat="42.01919" lon="9.21488">
        <ele>1673.6</ele>
        <time>2015-06-22T04:23:00Z</time>
      </trkpt>
      <trkpt lat="42.01919" lon="9.21481">
        <ele>1672.4</ele>
        <time>2015-06-22T04:23:07Z</time>
      </trkpt>
      <trkpt lat="42.01922" lon="9.21478">
        <ele>1671.6</ele>
        <time>2015-06-22T04:23:13Z</time>
      </trkpt>
      <trkpt lat="42.01924" lon="9.21472">
        <ele>1670.2</ele>
        <time>2015-06-22T04:23:20Z</time>
      </trkpt>
      <trkpt lat="42.01926" lon="9.21467">
        <ele>1669.6</ele>
        <time>2015-06-22T04:23:25Z</time>
      </trkpt>
      <trkpt lat="42.01928" lon="9.21461">
        <ele>1668</ele>
        <time>2015-06-22T04:23:32Z</time>
      </trkpt>
      <trkpt lat="42.0193" lon="9.21455">
        <ele>1666.8</ele>
        <time>2015-06-22T04:23:38Z</time>
      </trkpt>
      <trkpt lat="42.0193" lon="9.2145">
        <ele>1665.8</ele>
        <time>2015-06-22T04:23:44Z</time>
      </trkpt>
      <trkpt lat="42.01928" lon="9.21446">
        <ele>1664.6</ele>
        <time>2015-06-22T04:23:50Z</time>
      </trkpt>
      <trkpt lat="42.01929" lon="9.21445">
        <ele>1663.8</ele>
        <time>2015-06-22T04:23:53Z</time>
      </trkpt>
      <trkpt lat="42.01929" lon="9.21443">
        <ele>1663.2</ele>
        <time>2015-06-22T04:23:57Z</time>
      </trkpt>
      <trkpt lat="42.01934" lon="9.21437">
        <ele>1661.6</ele>
        <time>2015-06-22T04:24:07Z</time>
      </trkpt>
      <trkpt lat="42.01938" lon="9.21428">
        <ele>1660.8</ele>
        <time>2015-06-22T04:24:16Z</time>
      </trkpt>
      <trkpt lat="42.01941" lon="9.21422">
        <ele>1659.4</ele>
        <time>2015-06-22T04:24:25Z</time>
      </trkpt>
      <trkpt lat="42.01943" lon="9.21418">
        <ele>1658.6</ele>
        <time>2015-06-22T04:24:32Z</time>
      </trkpt>
      <trkpt lat="42.01945" lon="9.21413">
        <ele>1657.8</ele>
        <time>2015-06-22T04:24:38Z</time>
      </trkpt>
      <trkpt lat="42.01946" lon="9.21407">
        <ele>1656.4</ele>
        <time>2015-06-22T04:24:45Z</time>
      </trkpt>
      <trkpt lat="42.01948" lon="9.21399">
        <ele>1654.8</ele>
        <time>2015-06-22T04:24:52Z</time>
      </trkpt>
      <trkpt lat="42.01952" lon="9.21393">
        <ele>1653.8</ele>
        <time>2015-06-22T04:25:00Z</time>
      </trkpt>
      <trkpt lat="42.01957" lon="9.21385">
        <ele>1652.8</ele>
        <time>2015-06-22T04:25:10Z</time>
      </trkpt>
      <trkpt lat="42.01956" lon="9.21381">
        <ele>1651.6</ele>
        <time>2015-06-22T04:25:16Z</time>
      </trkpt>
      <trkpt lat="42.01955" lon="9.21376">
        <ele>1650.6</ele>
        <time>2015-06-22T04:25:23Z</time>
      </trkpt>
      <trkpt lat="42.01952" lon="9.21374">
        <ele>1649.4</ele>
        <time>2015-06-22T04:25:31Z</time>
      </trkpt>
      <trkpt lat="42.01951" lon="9.21373">
        <ele>1648.4</ele>
        <time>2015-06-22T04:25:37Z</time>
      </trkpt>
      <trkpt lat="42.01949" lon="9.21369">
        <ele>1647</ele>
        <time>2015-06-22T04:25:44Z</time>
      </trkpt>
      <trkpt lat="42.01949" lon="9.21366">
        <ele>1645.8</ele>
        <time>2015-06-22T04:25:51Z</time>
      </trkpt>
      <trkpt lat="42.01948" lon="9.21361">
        <ele>1644.4</ele>
        <time>2015-06-22T04:25:59Z</time>
      </trkpt>
      <trkpt lat="42.01953" lon="9.21355">
        <ele>1643.2</ele>
        <time>2015-06-22T04:26:09Z</time>
      </trkpt>
      <trkpt lat="42.01959" lon="9.21344">
        <ele>1642</ele>
        <time>2015-06-22T04:26:21Z</time>
      </trkpt>
      <trkpt lat="42.01962" lon="9.21334">
        <ele>1641.2</ele>
        <time>2015-06-22T04:26:33Z</time>
      </trkpt>
      <trkpt lat="42.01965" lon="9.21325">
        <ele>1639.8</ele>
        <time>2015-06-22T04:26:42Z</time>
      </trkpt>
      <trkpt lat="42.01979" lon="9.21299">
        <ele>1639.8</ele>
        <time>2015-06-22T04:27:11Z</time>
      </trkpt>
      <trkpt lat="42.01981" lon="9.21259">
        <ele>1639.4</ele>
        <time>2015-06-22T04:27:39Z</time>
      </trkpt>
      <trkpt lat="42.01981" lon="9.21252">
        <ele>1639.8</ele>
        <time>2015-06-22T04:27:47Z</time>
      </trkpt>
      <trkpt lat="42.0198" lon="9.2125">
        <ele>1640</ele>
        <time>2015-06-22T04:27:49Z</time>
      </trkpt>
      <trkpt lat="42.01992" lon="9.21225">
        <ele>1639.4</ele>
        <time>2015-06-22T04:28:16Z</time>
      </trkpt>
      <trkpt lat="42.01995" lon="9.21222">
        <ele>1638.4</ele>
        <time>2015-06-22T04:28:23Z</time>
      </trkpt>
      <trkpt lat="42.02002" lon="9.21217">
        <ele>1636.8</ele>
        <time>2015-06-22T04:28:35Z</time>
      </trkpt>
      <trkpt lat="42.02005" lon="9.2121">
        <ele>1635.6</ele>
        <time>2015-06-22T04:28:45Z</time>
      </trkpt>
      <trkpt lat="42.02007" lon="9.21206">
        <ele>1635</ele>
        <time>2015-06-22T04:28:51Z</time>
      </trkpt>
      <trkpt lat="42.0201" lon="9.21204">
        <ele>1633.8</ele>
        <time>2015-06-22T04:28:57Z</time>
      </trkpt>
      <trkpt lat="42.0201" lon="9.212">
        <ele>1633.2</ele>
        <time>2015-06-22T04:29:01Z</time>
      </trkpt>
      <trkpt lat="42.02011" lon="9.21194">
        <ele>1631.4</ele>
        <time>2015-06-22T04:29:09Z</time>
      </trkpt>
      <trkpt lat="42.02013" lon="9.21194">
        <ele>1630.6</ele>
        <time>2015-06-22T04:29:15Z</time>
      </trkpt>
      <trkpt lat="42.02015" lon="9.21191">
        <ele>1629.4</ele>
        <time>2015-06-22T04:29:21Z</time>
      </trkpt>
      <trkpt lat="42.02016" lon="9.21185">
        <ele>1628.2</ele>
        <time>2015-06-22T04:29:27Z</time>
      </trkpt>
      <trkpt lat="42.0202" lon="9.21183">
        <ele>1627</ele>
        <time>2015-06-22T04:29:33Z</time>
      </trkpt>
      <trkpt lat="42.02021" lon="9.21175">
        <ele>1626.2</ele>
        <time>2015-06-22T04:29:38Z</time>
      </trkpt>
      <trkpt lat="42.02021" lon="9.21159">
        <ele>1624.4</ele>
        <time>2015-06-22T04:29:47Z</time>
      </trkpt>
      <trkpt lat="42.02026" lon="9.21147">
        <ele>1623.4</ele>
        <time>2015-06-22T04:29:56Z</time>
      </trkpt>
      <trkpt lat="42.0203" lon="9.21141">
        <ele>1622.6</ele>
        <time>2015-06-22T04:30:03Z</time>
      </trkpt>
      <trkpt lat="42.02032" lon="9.21138">
        <ele>1622</ele>
        <time>2015-06-22T04:30:09Z</time>
      </trkpt>
      <trkpt lat="42.02038" lon="9.21133">
        <ele>1620.8</ele>
        <time>2015-06-22T04:30:19Z</time>
      </trkpt>
      <trkpt lat="42.02039" lon="9.21129">
        <ele>1620.2</ele>
        <time>2015-06-22T04:30:26Z</time>
      </trkpt>
      <trkpt lat="42.02044" lon="9.21117">
        <ele>1618.6</ele>
        <time>2015-06-22T04:30:37Z</time>
      </trkpt>
      <trkpt lat="42.02046" lon="9.21112">
        <ele>1618.2</ele>
        <time>2015-06-22T04:30:42Z</time>
      </trkpt>
      <trkpt lat="42.02046" lon="9.2111">
        <ele>1618</ele>
        <time>2015-06-22T04:30:43Z</time>
      </trkpt>
      <trkpt lat="42.02045" lon="9.21106">
        <ele>1617</ele>
        <time>2015-06-22T04:30:49Z</time>
      </trkpt>
      <trkpt lat="42.02045" lon="9.21101">
        <ele>1615.8</ele>
        <time>2015-06-22T04:30:55Z</time>
      </trkpt>
      <trkpt lat="42.02047" lon="9.21094">
        <ele>1614.8</ele>
        <time>2015-06-22T04:31:01Z</time>
      </trkpt>
      <trkpt lat="42.0205" lon="9.21091">
        <ele>1613.8</ele>
        <time>2015-06-22T04:31:06Z</time>
      </trkpt>
      <trkpt lat="42.02053" lon="9.21086">
        <ele>1612.2</ele>
        <time>2015-06-22T04:31:15Z</time>
      </trkpt>
      <trkpt lat="42.02055" lon="9.21079">
        <ele>1611.2</ele>
        <time>2015-06-22T04:31:23Z</time>
      </trkpt>
      <trkpt lat="42.02057" lon="9.21077">
        <ele>1610.8</ele>
        <time>2015-06-22T04:31:25Z</time>
      </trkpt>
      <trkpt lat="42.02058" lon="9.21075">
        <ele>1610.6</ele>
        <time>2015-06-22T04:31:27Z</time>
      </trkpt>
      <trkpt lat="42.0206" lon="9.21075">
        <ele>1610.4</ele>
        <time>2015-06-22T04:31:28Z</time>
      </trkpt>
      <trkpt lat="42.02065" lon="9.2107">
        <ele>1609.2</ele>
        <time>2015-06-22T04:31:33Z</time>
      </trkpt>
      <trkpt lat="42.02068" lon="9.21069">
        <ele>1608.8</ele>
        <time>2015-06-22T04:31:36Z</time>
      </trkpt>
      <trkpt lat="42.02069" lon="9.2107">
        <ele>1608.6</ele>
        <time>2015-06-22T04:31:37Z</time>
      </trkpt>
      <trkpt lat="42.02069" lon="9.21071">
        <ele>1607.2</ele>
        <time>2015-06-22T04:31:42Z</time>
      </trkpt>
      <trkpt lat="42.02072" lon="9.2107">
        <ele>1606.2</ele>
        <time>2015-06-22T04:31:46Z</time>
      </trkpt>
      <trkpt lat="42.02076" lon="9.21066">
        <ele>1604.6</ele>
        <time>2015-06-22T04:31:52Z</time>
      </trkpt>
      <trkpt lat="42.02076" lon="9.21065">
        <ele>1604.4</ele>
        <time>2015-06-22T04:31:53Z</time>
      </trkpt>
      <trkpt lat="42.0208" lon="9.21061">
        <ele>1603.6</ele>
        <time>2015-06-22T04:31:57Z</time>
      </trkpt>
      <trkpt lat="42.02083" lon="9.21055">
        <ele>1602.2</ele>
        <time>2015-06-22T04:32:04Z</time>
      </trkpt>
      <trkpt lat="42.02085" lon="9.2105">
        <ele>1601.2</ele>
        <time>2015-06-22T04:32:10Z</time>
      </trkpt>
      <trkpt lat="42.02086" lon="9.21047">
        <ele>1601</ele>
        <time>2015-06-22T04:32:13Z</time>
      </trkpt>
      <trkpt lat="42.02088" lon="9.21041">
        <ele>1600.2</ele>
        <time>2015-06-22T04:32:19Z</time>
      </trkpt>
      <trkpt lat="42.0209" lon="9.21043">
        <ele>1598.8</ele>
        <time>2015-06-22T04:32:25Z</time>
      </trkpt>
      <trkpt lat="42.02092" lon="9.21045">
        <ele>1598</ele>
        <time>2015-06-22T04:32:30Z</time>
      </trkpt>
      <trkpt lat="42.02095" lon="9.21043">
        <ele>1597</ele>
        <time>2015-06-22T04:32:35Z</time>
      </trkpt>
      <trkpt lat="42.02095" lon="9.21042">
        <ele>1596.4</ele>
        <time>2015-06-22T04:32:36Z</time>
      </trkpt>
      <trkpt lat="42.02097" lon="9.21035">
        <ele>1595.4</ele>
        <time>2015-06-22T04:32:41Z</time>
      </trkpt>
      <trkpt lat="42.02099" lon="9.21028">
        <ele>1594.4</ele>
        <time>2015-06-22T04:32:47Z</time>
      </trkpt>
      <trkpt lat="42.02101" lon="9.21022">
        <ele>1593.2</ele>
        <time>2015-06-22T04:32:52Z</time>
      </trkpt>
      <trkpt lat="42.02103" lon="9.21013">
        <ele>1591.6</ele>
        <time>2015-06-22T04:33:00Z</time>
      </trkpt>
      <trkpt lat="42.02105" lon="9.21007">
        <ele>1591</ele>
        <time>2015-06-22T04:33:05Z</time>
      </trkpt>
      <trkpt lat="42.02107" lon="9.21003">
        <ele>1589.8</ele>
        <time>2015-06-22T04:33:10Z</time>
      </trkpt>
      <trkpt lat="42.02108" lon="9.21001">
        <ele>1589.2</ele>
        <time>2015-06-22T04:33:14Z</time>
      </trkpt>
      <trkpt lat="42.02109" lon="9.20998">
        <ele>1587.6</ele>
        <time>2015-06-22T04:33:18Z</time>
      </trkpt>
      <trkpt lat="42.02112" lon="9.20992">
        <ele>1586.2</ele>
        <time>2015-06-22T04:33:23Z</time>
      </trkpt>
      <trkpt lat="42.02115" lon="9.20987">
        <ele>1585</ele>
        <time>2015-06-22T04:33:28Z</time>
      </trkpt>
      <trkpt lat="42.02118" lon="9.20979">
        <ele>1583.2</ele>
        <time>2015-06-22T04:33:36Z</time>
      </trkpt>
      <trkpt lat="42.02121" lon="9.20974">
        <ele>1582.6</ele>
        <time>2015-06-22T04:33:41Z</time>
      </trkpt>
      <trkpt lat="42.02123" lon="9.20974">
        <ele>1581.6</ele>
        <time>2015-06-22T04:33:46Z</time>
      </trkpt>
      <trkpt lat="42.02125" lon="9.20969">
        <ele>1580.4</ele>
        <time>2015-06-22T04:33:52Z</time>
      </trkpt>
      <trkpt lat="42.02125" lon="9.20963">
        <ele>1578.4</ele>
        <time>2015-06-22T04:33:59Z</time>
      </trkpt>
      <trkpt lat="42.02125" lon="9.20962">
        <ele>1577.8</ele>
        <time>2015-06-22T04:34:03Z</time>
      </trkpt>
      <trkpt lat="42.02128" lon="9.20961">
        <ele>1576.4</ele>
        <time>2015-06-22T04:34:09Z</time>
      </trkpt>
      <trkpt lat="42.02131" lon="9.20956">
        <ele>1575</ele>
        <time>2015-06-22T04:34:16Z</time>
      </trkpt>
      <trkpt lat="42.02132" lon="9.20953">
        <ele>1574</ele>
        <time>2015-06-22T04:34:22Z</time>
      </trkpt>
      <trkpt lat="42.0213" lon="9.20953">
        <ele>1572.8</ele>
        <time>2015-06-22T04:34:28Z</time>
      </trkpt>
      <trkpt lat="42.02131" lon="9.20949">
        <ele>1572</ele>
        <time>2015-06-22T04:34:33Z</time>
      </trkpt>
      <trkpt lat="42.02133" lon="9.20945">
        <ele>1570.8</ele>
        <time>2015-06-22T04:34:38Z</time>
      </trkpt>
      <trkpt lat="42.02137" lon="9.20945">
        <ele>1569.2</ele>
        <time>2015-06-22T04:34:45Z</time>
      </trkpt>
      <trkpt lat="42.0214" lon="9.20943">
        <ele>1567.8</ele>
        <time>2015-06-22T04:34:53Z</time>
      </trkpt>
      <trkpt lat="42.02141" lon="9.20938">
        <ele>1567</ele>
        <time>2015-06-22T04:34:59Z</time>
      </trkpt>
      <trkpt lat="42.02142" lon="9.20939">
        <ele>1566</ele>
        <time>2015-06-22T04:35:05Z</time>
      </trkpt>
      <trkpt lat="42.02144" lon="9.20948">
        <ele>1564.6</ele>
        <time>2015-06-22T04:35:15Z</time>
      </trkpt>
      <trkpt lat="42.02147" lon="9.2095">
        <ele>1563.6</ele>
        <time>2015-06-22T04:35:22Z</time>
      </trkpt>
      <trkpt lat="42.02149" lon="9.20945">
        <ele>1562.4</ele>
        <time>2015-06-22T04:35:29Z</time>
      </trkpt>
      <trkpt lat="42.02153" lon="9.20949">
        <ele>1561.2</ele>
        <time>2015-06-22T04:35:42Z</time>
      </trkpt>
      <trkpt lat="42.02155" lon="9.20948">
        <ele>1560.6</ele>
        <time>2015-06-22T04:35:47Z</time>
      </trkpt>
      <trkpt lat="42.02158" lon="9.20942">
        <ele>1559</ele>
        <time>2015-06-22T04:35:54Z</time>
      </trkpt>
      <trkpt lat="42.02159" lon="9.20941">
        <ele>1558.4</ele>
        <time>2015-06-22T04:35:56Z</time>
      </trkpt>
      <trkpt lat="42.0216" lon="9.2094">
        <ele>1558.2</ele>
        <time>2015-06-22T04:35:59Z</time>
      </trkpt>
      <trkpt lat="42.02162" lon="9.20937">
        <ele>1557.2</ele>
        <time>2015-06-22T04:36:03Z</time>
      </trkpt>
      <trkpt lat="42.02164" lon="9.20937">
        <ele>1555.6</ele>
        <time>2015-06-22T04:36:09Z</time>
      </trkpt>
      <trkpt lat="42.02168" lon="9.20937">
        <ele>1554.6</ele>
        <time>2015-06-22T04:36:14Z</time>
      </trkpt>
      <trkpt lat="42.02171" lon="9.20938">
        <ele>1553.4</ele>
        <time>2015-06-22T04:36:18Z</time>
      </trkpt>
      <trkpt lat="42.02172" lon="9.20936">
        <ele>1553.2</ele>
        <time>2015-06-22T04:36:20Z</time>
      </trkpt>
      <trkpt lat="42.02175" lon="9.20931">
        <ele>1551.4</ele>
        <time>2015-06-22T04:36:28Z</time>
      </trkpt>
      <trkpt lat="42.02176" lon="9.20928">
        <ele>1550.8</ele>
        <time>2015-06-22T04:36:33Z</time>
      </trkpt>
      <trkpt lat="42.02177" lon="9.20927">
        <ele>1549.8</ele>
        <time>2015-06-22T04:36:38Z</time>
      </trkpt>
      <trkpt lat="42.02181" lon="9.20926">
        <ele>1548.4</ele>
        <time>2015-06-22T04:36:44Z</time>
      </trkpt>
      <trkpt lat="42.02184" lon="9.20925">
        <ele>1547.2</ele>
        <time>2015-06-22T04:36:50Z</time>
      </trkpt>
      <trkpt lat="42.02187" lon="9.20921">
        <ele>1546.2</ele>
        <time>2015-06-22T04:36:56Z</time>
      </trkpt>
      <trkpt lat="42.02188" lon="9.20917">
        <ele>1545.2</ele>
        <time>2015-06-22T04:37:00Z</time>
      </trkpt>
      <trkpt lat="42.02188" lon="9.20914">
        <ele>1545</ele>
        <time>2015-06-22T04:37:02Z</time>
      </trkpt>
      <trkpt lat="42.0219" lon="9.20914">
        <ele>1544.8</ele>
        <time>2015-06-22T04:37:03Z</time>
      </trkpt>
      <trkpt lat="42.02192" lon="9.20913">
        <ele>1544.4</ele>
        <time>2015-06-22T04:37:06Z</time>
      </trkpt>
      <trkpt lat="42.02193" lon="9.20912">
        <ele>1544</ele>
        <time>2015-06-22T04:37:08Z</time>
      </trkpt>
      <trkpt lat="42.02191" lon="9.20905">
        <ele>1542.2</ele>
        <time>2015-06-22T04:39:48Z</time>
      </trkpt>
      <trkpt lat="42.02194" lon="9.20903">
        <ele>1541.8</ele>
        <time>2015-06-22T04:39:53Z</time>
      </trkpt>
      <trkpt lat="42.02197" lon="9.20901">
        <ele>1540.6</ele>
        <time>2015-06-22T04:39:58Z</time>
      </trkpt>
      <trkpt lat="42.02202" lon="9.20898">
        <ele>1539</ele>
        <time>2015-06-22T04:40:04Z</time>
      </trkpt>
      <trkpt lat="42.02207" lon="9.209">
        <ele>1538</ele>
        <time>2015-06-22T04:40:10Z</time>
      </trkpt>
      <trkpt lat="42.02209" lon="9.20907">
        <ele>1536.4</ele>
        <time>2015-06-22T04:40:18Z</time>
      </trkpt>
      <trkpt lat="42.02212" lon="9.20911">
        <ele>1535.8</ele>
        <time>2015-06-22T04:40:23Z</time>
      </trkpt>
      <trkpt lat="42.02213" lon="9.20912">
        <ele>1535.6</ele>
        <time>2015-06-22T04:40:24Z</time>
      </trkpt>
      <trkpt lat="42.02216" lon="9.20915">
        <ele>1534.8</ele>
        <time>2015-06-22T04:40:29Z</time>
      </trkpt>
      <trkpt lat="42.02219" lon="9.20917">
        <ele>1533.6</ele>
        <time>2015-06-22T04:40:34Z</time>
      </trkpt>
      <trkpt lat="42.0222" lon="9.20922">
        <ele>1532.2</ele>
        <time>2015-06-22T04:40:40Z</time>
      </trkpt>
      <trkpt lat="42.0222" lon="9.20926">
        <ele>1531.6</ele>
        <time>2015-06-22T04:40:43Z</time>
      </trkpt>
      <trkpt lat="42.02221" lon="9.20928">
        <ele>1531.2</ele>
        <time>2015-06-22T04:40:45Z</time>
      </trkpt>
      <trkpt lat="42.02222" lon="9.20931">
        <ele>1530.2</ele>
        <time>2015-06-22T04:40:50Z</time>
      </trkpt>
      <trkpt lat="42.02223" lon="9.20937">
        <ele>1528.8</ele>
        <time>2015-06-22T04:40:55Z</time>
      </trkpt>
      <trkpt lat="42.02224" lon="9.2094">
        <ele>1528</ele>
        <time>2015-06-22T04:40:59Z</time>
      </trkpt>
      <trkpt lat="42.02226" lon="9.20944">
        <ele>1526.2</ele>
        <time>2015-06-22T04:41:04Z</time>
      </trkpt>
      <trkpt lat="42.0223" lon="9.20948">
        <ele>1525</ele>
        <time>2015-06-22T04:41:09Z</time>
      </trkpt>
      <trkpt lat="42.02235" lon="9.20953">
        <ele>1523.6</ele>
        <time>2015-06-22T04:41:15Z</time>
      </trkpt>
      <trkpt lat="42.02238" lon="9.20956">
        <ele>1522.8</ele>
        <time>2015-06-22T04:41:20Z</time>
      </trkpt>
      <trkpt lat="42.02242" lon="9.20956">
        <ele>1521.2</ele>
        <time>2015-06-22T04:41:26Z</time>
      </trkpt>
      <trkpt lat="42.02247" lon="9.20956">
        <ele>1520.4</ele>
        <time>2015-06-22T04:41:31Z</time>
      </trkpt>
      <trkpt lat="42.02249" lon="9.20959">
        <ele>1520.2</ele>
        <time>2015-06-22T04:41:33Z</time>
      </trkpt>
      <trkpt lat="42.02252" lon="9.2096">
        <ele>1519.4</ele>
        <time>2015-06-22T04:41:36Z</time>
      </trkpt>
      <trkpt lat="42.02257" lon="9.2096">
        <ele>1517.8</ele>
        <time>2015-06-22T04:41:42Z</time>
      </trkpt>
      <trkpt lat="42.02258" lon="9.20958">
        <ele>1517.4</ele>
        <time>2015-06-22T04:41:44Z</time>
      </trkpt>
      <trkpt lat="42.02259" lon="9.20958">
        <ele>1517</ele>
        <time>2015-06-22T04:41:46Z</time>
      </trkpt>
      <trkpt lat="42.02261" lon="9.20961">
        <ele>1515.2</ele>
        <time>2015-06-22T04:41:53Z</time>
      </trkpt>
      <trkpt lat="42.02262" lon="9.20963">
        <ele>1514</ele>
        <time>2015-06-22T04:42:00Z</time>
      </trkpt>
      <trkpt lat="42.02266" lon="9.20965">
        <ele>1513.2</ele>
        <time>2015-06-22T04:42:05Z</time>
      </trkpt>
      <trkpt lat="42.02269" lon="9.20968">
        <ele>1511.8</ele>
        <time>2015-06-22T04:42:10Z</time>
      </trkpt>
      <trkpt lat="42.0227" lon="9.20969">
        <ele>1510.8</ele>
        <time>2015-06-22T04:42:14Z</time>
      </trkpt>
      <trkpt lat="42.02272" lon="9.20971">
        <ele>1509.6</ele>
        <time>2015-06-22T04:42:19Z</time>
      </trkpt>
      <trkpt lat="42.02272" lon="9.20977">
        <ele>1508.6</ele>
        <time>2015-06-22T04:42:24Z</time>
      </trkpt>
      <trkpt lat="42.02272" lon="9.2098">
        <ele>1508</ele>
        <time>2015-06-22T04:42:26Z</time>
      </trkpt>
      <trkpt lat="42.02274" lon="9.20984">
        <ele>1507.6</ele>
        <time>2015-06-22T04:42:28Z</time>
      </trkpt>
      <trkpt lat="42.02276" lon="9.20989">
        <ele>1507.2</ele>
        <time>2015-06-22T04:42:30Z</time>
      </trkpt>
      <trkpt lat="42.02277" lon="9.20992">
        <ele>1506.4</ele>
        <time>2015-06-22T04:42:32Z</time>
      </trkpt>
      <trkpt lat="42.0228" lon="9.20998">
        <ele>1505.6</ele>
        <time>2015-06-22T04:42:37Z</time>
      </trkpt>
      <trkpt lat="42.02282" lon="9.20999">
        <ele>1505.2</ele>
        <time>2015-06-22T04:42:39Z</time>
      </trkpt>
      <trkpt lat="42.02287" lon="9.21002">
        <ele>1504.2</ele>
        <time>2015-06-22T04:42:49Z</time>
      </trkpt>
      <trkpt lat="42.02289" lon="9.21001">
        <ele>1503.2</ele>
        <time>2015-06-22T04:42:56Z</time>
      </trkpt>
      <trkpt lat="42.02292" lon="9.21002">
        <ele>1501.8</ele>
        <time>2015-06-22T04:43:03Z</time>
      </trkpt>
      <trkpt lat="42.02298" lon="9.21005">
        <ele>1500.6</ele>
        <time>2015-06-22T04:43:10Z</time>
      </trkpt>
      <trkpt lat="42.023" lon="9.21005">
        <ele>1500.2</ele>
        <time>2015-06-22T04:43:12Z</time>
      </trkpt>
      <trkpt lat="42.02301" lon="9.21005">
        <ele>1500.2</ele>
        <time>2015-06-22T04:43:13Z</time>
      </trkpt>
      <trkpt lat="42.02307" lon="9.21006">
        <ele>1499.6</ele>
        <time>2015-06-22T04:43:18Z</time>
      </trkpt>
      <trkpt lat="42.02309" lon="9.21009">
        <ele>1499.2</ele>
        <time>2015-06-22T04:43:20Z</time>
      </trkpt>
      <trkpt lat="42.02313" lon="9.21013">
        <ele>1498.6</ele>
        <time>2015-06-22T04:43:23Z</time>
      </trkpt>
      <trkpt lat="42.02318" lon="9.21017">
        <ele>1497.6</ele>
        <time>2015-06-22T04:43:27Z</time>
      </trkpt>
      <trkpt lat="42.02323" lon="9.21019">
        <ele>1497.2</ele>
        <time>2015-06-22T04:43:29Z</time>
      </trkpt>
      <trkpt lat="42.02328" lon="9.21018">
        <ele>1496.6</ele>
        <time>2015-06-22T04:43:32Z</time>
      </trkpt>
      <trkpt lat="42.02334" lon="9.21017">
        <ele>1495.6</ele>
        <time>2015-06-22T04:44:12Z</time>
      </trkpt>
      <trkpt lat="42.02334" lon="9.21015">
        <ele>1495.4</ele>
        <time>2015-06-22T04:44:14Z</time>
      </trkpt>
      <trkpt lat="42.02336" lon="9.21013">
        <ele>1495.6</ele>
        <time>2015-06-22T04:44:16Z</time>
      </trkpt>
      <trkpt lat="42.02345" lon="9.21008">
        <ele>1495.6</ele>
        <time>2015-06-22T04:44:27Z</time>
      </trkpt>
      <trkpt lat="42.0235" lon="9.21004">
        <ele>1495.8</ele>
        <time>2015-06-22T04:44:33Z</time>
      </trkpt>
      <trkpt lat="42.0235" lon="9.21003">
        <ele>1496</ele>
        <time>2015-06-22T04:44:34Z</time>
      </trkpt>
      <trkpt lat="42.02353" lon="9.21">
        <ele>1497.2</ele>
        <time>2015-06-22T04:44:39Z</time>
      </trkpt>
      <trkpt lat="42.02356" lon="9.20999">
        <ele>1497.6</ele>
        <time>2015-06-22T04:44:41Z</time>
      </trkpt>
      <trkpt lat="42.02358" lon="9.20997">
        <ele>1497.8</ele>
        <time>2015-06-22T04:44:43Z</time>
      </trkpt>
      <trkpt lat="42.02367" lon="9.20989">
        <ele>1498.4</ele>
        <time>2015-06-22T04:44:54Z</time>
      </trkpt>
      <trkpt lat="42.02371" lon="9.20989">
        <ele>1498.6</ele>
        <time>2015-06-22T04:44:59Z</time>
      </trkpt>
      <trkpt lat="42.02372" lon="9.20988">
        <ele>1498.6</ele>
        <time>2015-06-22T04:45:00Z</time>
      </trkpt>
      <trkpt lat="42.02375" lon="9.20988">
        <ele>1498.8</ele>
        <time>2015-06-22T04:45:02Z</time>
      </trkpt>
      <trkpt lat="42.02381" lon="9.20988">
        <ele>1499</ele>
        <time>2015-06-22T04:45:08Z</time>
      </trkpt>
      <trkpt lat="42.0239" lon="9.20986">
        <ele>1498.4</ele>
        <time>2015-06-22T04:45:20Z</time>
      </trkpt>
      <trkpt lat="42.02394" lon="9.20985">
        <ele>1497.8</ele>
        <time>2015-06-22T04:45:25Z</time>
      </trkpt>
      <trkpt lat="42.02405" lon="9.20984">
        <ele>1497</ele>
        <time>2015-06-22T04:45:38Z</time>
      </trkpt>
      <trkpt lat="42.02408" lon="9.20984">
        <ele>1497</ele>
        <time>2015-06-22T04:45:42Z</time>
      </trkpt>
      <trkpt lat="42.0241" lon="9.20984">
        <ele>1496.8</ele>
        <time>2015-06-22T04:45:44Z</time>
      </trkpt>
      <trkpt lat="42.02413" lon="9.20983">
        <ele>1496.6</ele>
        <time>2015-06-22T04:45:47Z</time>
      </trkpt>
      <trkpt lat="42.02414" lon="9.20984">
        <ele>1496.6</ele>
        <time>2015-06-22T04:45:49Z</time>
      </trkpt>
      <trkpt lat="42.02416" lon="9.20984">
        <ele>1496.4</ele>
        <time>2015-06-22T04:45:50Z</time>
      </trkpt>
      <trkpt lat="42.02417" lon="9.20985">
        <ele>1496.4</ele>
        <time>2015-06-22T04:45:51Z</time>
      </trkpt>
      <trkpt lat="42.02422" lon="9.20986">
        <ele>1495.6</ele>
        <time>2015-06-22T04:45:55Z</time>
      </trkpt>
      <trkpt lat="42.02425" lon="9.20988">
        <ele>1495</ele>
        <time>2015-06-22T04:45:58Z</time>
      </trkpt>
      <trkpt lat="42.02428" lon="9.2099">
        <ele>1494.6</ele>
        <time>2015-06-22T04:46:01Z</time>
      </trkpt>
      <trkpt lat="42.0243" lon="9.20992">
        <ele>1494.2</ele>
        <time>2015-06-22T04:46:05Z</time>
      </trkpt>
      <trkpt lat="42.02429" lon="9.20999">
        <ele>1492.8</ele>
        <time>2015-06-22T04:46:13Z</time>
      </trkpt>
      <trkpt lat="42.02433" lon="9.21007">
        <ele>1492.2</ele>
        <time>2015-06-22T04:46:20Z</time>
      </trkpt>
      <trkpt lat="42.02433" lon="9.21009">
        <ele>1491.4</ele>
        <time>2015-06-22T04:46:23Z</time>
      </trkpt>
      <trkpt lat="42.02437" lon="9.21012">
        <ele>1490.2</ele>
        <time>2015-06-22T04:46:34Z</time>
      </trkpt>
      <trkpt lat="42.02455" lon="9.21015">
        <ele>1489.6</ele>
        <time>2015-06-22T04:47:18Z</time>
      </trkpt>
      <trkpt lat="42.02458" lon="9.21006">
        <ele>1488.8</ele>
        <time>2015-06-22T04:47:27Z</time>
      </trkpt>
      <trkpt lat="42.02462" lon="9.20998">
        <ele>1488.6</ele>
        <time>2015-06-22T04:47:32Z</time>
      </trkpt>
      <trkpt lat="42.02464" lon="9.20993">
        <ele>1488.4</ele>
        <time>2015-06-22T04:47:35Z</time>
      </trkpt>
      <trkpt lat="42.02468" lon="9.2099">
        <ele>1488.4</ele>
        <time>2015-06-22T04:47:38Z</time>
      </trkpt>
      <trkpt lat="42.02476" lon="9.20986">
        <ele>1488</ele>
        <time>2015-06-22T04:47:45Z</time>
      </trkpt>
      <trkpt lat="42.0248" lon="9.20982">
        <ele>1487.6</ele>
        <time>2015-06-22T04:47:51Z</time>
      </trkpt>
      <trkpt lat="42.02482" lon="9.20978">
        <ele>1487.2</ele>
        <time>2015-06-22T04:47:55Z</time>
      </trkpt>
      <trkpt lat="42.02487" lon="9.20975">
        <ele>1486.4</ele>
        <time>2015-06-22T04:47:59Z</time>
      </trkpt>
      <trkpt lat="42.02487" lon="9.20975">
        <ele>1486.4</ele>
        <time>2015-06-22T04:48:00Z</time>
      </trkpt>
      <trkpt lat="42.02492" lon="9.20966">
        <ele>1485.6</ele>
        <time>2015-06-22T04:48:11Z</time>
      </trkpt>
      <trkpt lat="42.02497" lon="9.20962">
        <ele>1484.6</ele>
        <time>2015-06-22T04:48:18Z</time>
      </trkpt>
      <trkpt lat="42.02506" lon="9.20959">
        <ele>1483.4</ele>
        <time>2015-06-22T04:48:31Z</time>
      </trkpt>
      <trkpt lat="42.02507" lon="9.20957">
        <ele>1483.2</ele>
        <time>2015-06-22T04:48:33Z</time>
      </trkpt>
      <trkpt lat="42.02511" lon="9.20954">
        <ele>1482.8</ele>
        <time>2015-06-22T04:48:39Z</time>
      </trkpt>
      <trkpt lat="42.02514" lon="9.20946">
        <ele>1481.8</ele>
        <time>2015-06-22T04:48:46Z</time>
      </trkpt>
      <trkpt lat="42.02522" lon="9.20942">
        <ele>1480.8</ele>
        <time>2015-06-22T04:48:52Z</time>
      </trkpt>
      <trkpt lat="42.02531" lon="9.20934">
        <ele>1479.6</ele>
        <time>2015-06-22T04:49:03Z</time>
      </trkpt>
      <trkpt lat="42.0254" lon="9.2093">
        <ele>1478.4</ele>
        <time>2015-06-22T04:49:14Z</time>
      </trkpt>
      <trkpt lat="42.02551" lon="9.20923">
        <ele>1477.4</ele>
        <time>2015-06-22T04:49:26Z</time>
      </trkpt>
      <trkpt lat="42.02568" lon="9.20916">
        <ele>1476.8</ele>
        <time>2015-06-22T04:49:47Z</time>
      </trkpt>
      <trkpt lat="42.02576" lon="9.2092">
        <ele>1475.2</ele>
        <time>2015-06-22T04:49:57Z</time>
      </trkpt>
      <trkpt lat="42.02582" lon="9.20919">
        <ele>1474.4</ele>
        <time>2015-06-22T04:50:05Z</time>
      </trkpt>
      <trkpt lat="42.02586" lon="9.20916">
        <ele>1474</ele>
        <time>2015-06-22T04:50:08Z</time>
      </trkpt>
      <trkpt lat="42.02586" lon="9.20891">
        <ele>1473.4</ele>
        <time>2015-06-22T04:50:55Z</time>
      </trkpt>
      <trkpt lat="42.02586" lon="9.20889">
        <ele>1473.4</ele>
        <time>2015-06-22T04:50:56Z</time>
      </trkpt>
      <trkpt lat="42.02588" lon="9.2086">
        <ele>1473</ele>
        <time>2015-06-22T04:51:14Z</time>
      </trkpt>
      <trkpt lat="42.02588" lon="9.20853">
        <ele>1473.2</ele>
        <time>2015-06-22T04:51:18Z</time>
      </trkpt>
      <trkpt lat="42.02588" lon="9.20842">
        <ele>1473</ele>
        <time>2015-06-22T04:51:24Z</time>
      </trkpt>
      <trkpt lat="42.02589" lon="9.20838">
        <ele>1473</ele>
        <time>2015-06-22T04:51:27Z</time>
      </trkpt>
      <trkpt lat="42.02592" lon="9.20834">
        <ele>1473</ele>
        <time>2015-06-22T04:51:31Z</time>
      </trkpt>
      <trkpt lat="42.02595" lon="9.20829">
        <ele>1473</ele>
        <time>2015-06-22T04:51:38Z</time>
      </trkpt>
      <trkpt lat="42.02599" lon="9.20823">
        <ele>1472.4</ele>
        <time>2015-06-22T04:51:49Z</time>
      </trkpt>
      <trkpt lat="42.02607" lon="9.20815">
        <ele>1471.6</ele>
        <time>2015-06-22T04:51:58Z</time>
      </trkpt>
      <trkpt lat="42.02615" lon="9.20808">
        <ele>1471.2</ele>
        <time>2015-06-22T04:52:08Z</time>
      </trkpt>
      <trkpt lat="42.02617" lon="9.20805">
        <ele>1470.8</ele>
        <time>2015-06-22T04:52:12Z</time>
      </trkpt>
      <trkpt lat="42.02618" lon="9.20803">
        <ele>1470.6</ele>
        <time>2015-06-22T04:52:14Z</time>
      </trkpt>
      <trkpt lat="42.0262" lon="9.20802">
        <ele>1470</ele>
        <time>2015-06-22T04:52:18Z</time>
      </trkpt>
      <trkpt lat="42.02635" lon="9.20777">
        <ele>1469.2</ele>
        <time>2015-06-22T04:52:38Z</time>
      </trkpt>
      <trkpt lat="42.02639" lon="9.20768">
        <ele>1468.8</ele>
        <time>2015-06-22T04:52:46Z</time>
      </trkpt>
      <trkpt lat="42.02642" lon="9.20751">
        <ele>1468.4</ele>
        <time>2015-06-22T04:53:06Z</time>
      </trkpt>
      <trkpt lat="42.0265" lon="9.20738">
        <ele>1469.6</ele>
        <time>2015-06-22T04:53:17Z</time>
      </trkpt>
      <trkpt lat="42.02658" lon="9.2072">
        <ele>1471</ele>
        <time>2015-06-22T04:53:31Z</time>
      </trkpt>
      <trkpt lat="42.0268" lon="9.20703">
        <ele>1472.4</ele>
        <time>2015-06-22T04:53:55Z</time>
      </trkpt>
      <trkpt lat="42.02697" lon="9.20687">
        <ele>1472.6</ele>
        <time>2015-06-22T04:54:16Z</time>
      </trkpt>
      <trkpt lat="42.02697" lon="9.20682">
        <ele>1472.4</ele>
        <time>2015-06-22T04:54:19Z</time>
      </trkpt>
      <trkpt lat="42.02698" lon="9.20679">
        <ele>1472.4</ele>
        <time>2015-06-22T04:54:21Z</time>
      </trkpt>
      <trkpt lat="42.02698" lon="9.20678">
        <ele>1472.4</ele>
        <time>2015-06-22T04:54:23Z</time>
      </trkpt>
      <trkpt lat="42.02703" lon="9.20667">
        <ele>1472.4</ele>
        <time>2015-06-22T04:54:32Z</time>
      </trkpt>
      <trkpt lat="42.02713" lon="9.20655">
        <ele>1472.4</ele>
        <time>2015-06-22T04:54:46Z</time>
      </trkpt>
      <trkpt lat="42.02715" lon="9.20653">
        <ele>1472.4</ele>
        <time>2015-06-22T04:54:48Z</time>
      </trkpt>
      <trkpt lat="42.02719" lon="9.20638">
        <ele>1473.2</ele>
        <time>2015-06-22T04:55:02Z</time>
      </trkpt>
      <trkpt lat="42.02731" lon="9.20636">
        <ele>1474.2</ele>
        <time>2015-06-22T04:55:12Z</time>
      </trkpt>
      <trkpt lat="42.02732" lon="9.20636">
        <ele>1474.4</ele>
        <time>2015-06-22T04:55:14Z</time>
      </trkpt>
      <trkpt lat="42.0273" lon="9.20626">
        <ele>1474.2</ele>
        <time>2015-06-22T04:55:26Z</time>
      </trkpt>
      <trkpt lat="42.02726" lon="9.20618">
        <ele>1474</ele>
        <time>2015-06-22T04:55:33Z</time>
      </trkpt>
      <trkpt lat="42.02723" lon="9.20614">
        <ele>1474.6</ele>
        <time>2015-06-22T04:55:38Z</time>
      </trkpt>
      <trkpt lat="42.02703" lon="9.20588">
        <ele>1476.6</ele>
        <time>2015-06-22T04:56:08Z</time>
      </trkpt>
      <trkpt lat="42.02698" lon="9.20585">
        <ele>1477.4</ele>
        <time>2015-06-22T04:56:17Z</time>
      </trkpt>
      <trkpt lat="42.02689" lon="9.20582">
        <ele>1478.8</ele>
        <time>2015-06-22T04:56:26Z</time>
      </trkpt>
      <trkpt lat="42.02681" lon="9.2058">
        <ele>1480</ele>
        <time>2015-06-22T04:56:35Z</time>
      </trkpt>
      <trkpt lat="42.02672" lon="9.2058">
        <ele>1481</ele>
        <time>2015-06-22T04:56:45Z</time>
      </trkpt>
      <trkpt lat="42.02665" lon="9.20582">
        <ele>1482</ele>
        <time>2015-06-22T04:56:54Z</time>
      </trkpt>
      <trkpt lat="42.02661" lon="9.2058">
        <ele>1483</ele>
        <time>2015-06-22T04:57:01Z</time>
      </trkpt>
      <trkpt lat="42.02656" lon="9.20575">
        <ele>1484.2</ele>
        <time>2015-06-22T04:57:09Z</time>
      </trkpt>
      <trkpt lat="42.02652" lon="9.20571">
        <ele>1485.2</ele>
        <time>2015-06-22T04:57:17Z</time>
      </trkpt>
      <trkpt lat="42.02649" lon="9.20567">
        <ele>1486.4</ele>
        <time>2015-06-22T04:57:24Z</time>
      </trkpt>
      <trkpt lat="42.02644" lon="9.20561">
        <ele>1487.6</ele>
        <time>2015-06-22T04:57:35Z</time>
      </trkpt>
      <trkpt lat="42.02641" lon="9.20556">
        <ele>1488.6</ele>
        <time>2015-06-22T04:57:43Z</time>
      </trkpt>
      <trkpt lat="42.0264" lon="9.2055">
        <ele>1489.8</ele>
        <time>2015-06-22T04:57:50Z</time>
      </trkpt>
      <trkpt lat="42.02634" lon="9.20519">
        <ele>1490.4</ele>
        <time>2015-06-22T04:58:17Z</time>
      </trkpt>
      <trkpt lat="42.0262" lon="9.20486">
        <ele>1489</ele>
        <time>2015-06-22T04:58:42Z</time>
      </trkpt>
      <trkpt lat="42.02612" lon="9.20479">
        <ele>1488.6</ele>
        <time>2015-06-22T04:58:50Z</time>
      </trkpt>
      <trkpt lat="42.02609" lon="9.20459">
        <ele>1487</ele>
        <time>2015-06-22T04:59:04Z</time>
      </trkpt>
      <trkpt lat="42.02615" lon="9.20452">
        <ele>1486.8</ele>
        <time>2015-06-22T04:59:11Z</time>
      </trkpt>
      <trkpt lat="42.02618" lon="9.20449">
        <ele>1486.4</ele>
        <time>2015-06-22T04:59:15Z</time>
      </trkpt>
      <trkpt lat="42.02619" lon="9.20444">
        <ele>1485.6</ele>
        <time>2015-06-22T04:59:21Z</time>
      </trkpt>
      <trkpt lat="42.02621" lon="9.20442">
        <ele>1484.8</ele>
        <time>2015-06-22T04:59:26Z</time>
      </trkpt>
      <trkpt lat="42.02623" lon="9.20436">
        <ele>1483.6</ele>
        <time>2015-06-22T04:59:41Z</time>
      </trkpt>
      <trkpt lat="42.02623" lon="9.20429">
        <ele>1482.8</ele>
        <time>2015-06-22T04:59:47Z</time>
      </trkpt>
      <trkpt lat="42.02622" lon="9.20424">
        <ele>1481.6</ele>
        <time>2015-06-22T04:59:52Z</time>
      </trkpt>
      <trkpt lat="42.02623" lon="9.20421">
        <ele>1480.8</ele>
        <time>2015-06-22T04:59:56Z</time>
      </trkpt>
      <trkpt lat="42.02623" lon="9.20413">
        <ele>1479.6</ele>
        <time>2015-06-22T05:00:02Z</time>
      </trkpt>
      <trkpt lat="42.02629" lon="9.20399">
        <ele>1478</ele>
        <time>2015-06-22T05:00:14Z</time>
      </trkpt>
      <trkpt lat="42.02633" lon="9.20392">
        <ele>1478</ele>
        <time>2015-06-22T05:00:22Z</time>
      </trkpt>
      <trkpt lat="42.02635" lon="9.20373">
        <ele>1478.2</ele>
        <time>2015-06-22T05:00:36Z</time>
      </trkpt>
      <trkpt lat="42.02634" lon="9.20367">
        <ele>1477.6</ele>
        <time>2015-06-22T05:00:41Z</time>
      </trkpt>
      <trkpt lat="42.02635" lon="9.20357">
        <ele>1476</ele>
        <time>2015-06-22T05:00:48Z</time>
      </trkpt>
      <trkpt lat="42.02637" lon="9.20349">
        <ele>1475</ele>
        <time>2015-06-22T05:00:54Z</time>
      </trkpt>
      <trkpt lat="42.02638" lon="9.20341">
        <ele>1473.8</ele>
        <time>2015-06-22T05:01:00Z</time>
      </trkpt>
      <trkpt lat="42.02642" lon="9.20333">
        <ele>1472.8</ele>
        <time>2015-06-22T05:01:07Z</time>
      </trkpt>
      <trkpt lat="42.02646" lon="9.20329">
        <ele>1471.6</ele>
        <time>2015-06-22T05:01:13Z</time>
      </trkpt>
      <trkpt lat="42.02646" lon="9.20325">
        <ele>1471</ele>
        <time>2015-06-22T05:01:17Z</time>
      </trkpt>
      <trkpt lat="42.02646" lon="9.20324">
        <ele>1470.6</ele>
        <time>2015-06-22T05:01:18Z</time>
      </trkpt>
      <trkpt lat="42.02646" lon="9.20322">
        <ele>1470.6</ele>
        <time>2015-06-22T05:01:20Z</time>
      </trkpt>
      <trkpt lat="42.02648" lon="9.20318">
        <ele>1469.2</ele>
        <time>2015-06-22T05:01:25Z</time>
      </trkpt>
      <trkpt lat="42.0265" lon="9.20315">
        <ele>1468.4</ele>
        <time>2015-06-22T05:01:30Z</time>
      </trkpt>
      <trkpt lat="42.02652" lon="9.20312">
        <ele>1467.4</ele>
        <time>2015-06-22T05:01:35Z</time>
      </trkpt>
      <trkpt lat="42.02652" lon="9.20308">
        <ele>1466</ele>
        <time>2015-06-22T05:01:41Z</time>
      </trkpt>
      <trkpt lat="42.02652" lon="9.20302">
        <ele>1464.8</ele>
        <time>2015-06-22T05:01:47Z</time>
      </trkpt>
      <trkpt lat="42.02651" lon="9.20297">
        <ele>1463.6</ele>
        <time>2015-06-22T05:01:52Z</time>
      </trkpt>
      <trkpt lat="42.02651" lon="9.20293">
        <ele>1462.6</ele>
        <time>2015-06-22T05:01:58Z</time>
      </trkpt>
      <trkpt lat="42.02653" lon="9.20288">
        <ele>1461.4</ele>
        <time>2015-06-22T05:02:04Z</time>
      </trkpt>
      <trkpt lat="42.02652" lon="9.2028">
        <ele>1460.2</ele>
        <time>2015-06-22T05:02:11Z</time>
      </trkpt>
      <trkpt lat="42.0265" lon="9.20271">
        <ele>1459.2</ele>
        <time>2015-06-22T05:02:17Z</time>
      </trkpt>
      <trkpt lat="42.02651" lon="9.20263">
        <ele>1458</ele>
        <time>2015-06-22T05:02:23Z</time>
      </trkpt>
      <trkpt lat="42.02655" lon="9.20256">
        <ele>1456.6</ele>
        <time>2015-06-22T05:02:32Z</time>
      </trkpt>
      <trkpt lat="42.02656" lon="9.2025">
        <ele>1455.6</ele>
        <time>2015-06-22T05:02:39Z</time>
      </trkpt>
      <trkpt lat="42.02659" lon="9.20246">
        <ele>1454.4</ele>
        <time>2015-06-22T05:02:45Z</time>
      </trkpt>
      <trkpt lat="42.02661" lon="9.20242">
        <ele>1453.4</ele>
        <time>2015-06-22T05:02:52Z</time>
      </trkpt>
      <trkpt lat="42.02662" lon="9.20237">
        <ele>1452.2</ele>
        <time>2015-06-22T05:02:58Z</time>
      </trkpt>
      <trkpt lat="42.02662" lon="9.20235">
        <ele>1451.2</ele>
        <time>2015-06-22T05:03:03Z</time>
      </trkpt>
      <trkpt lat="42.02664" lon="9.20234">
        <ele>1449.8</ele>
        <time>2015-06-22T05:03:09Z</time>
      </trkpt>
      <trkpt lat="42.02669" lon="9.2023">
        <ele>1448.6</ele>
        <time>2015-06-22T05:03:15Z</time>
      </trkpt>
      <trkpt lat="42.02674" lon="9.20228">
        <ele>1447.6</ele>
        <time>2015-06-22T05:03:21Z</time>
      </trkpt>
      <trkpt lat="42.02679" lon="9.20226">
        <ele>1446.2</ele>
        <time>2015-06-22T05:03:29Z</time>
      </trkpt>
      <trkpt lat="42.02682" lon="9.20222">
        <ele>1445.6</ele>
        <time>2015-06-22T05:03:34Z</time>
      </trkpt>
      <trkpt lat="42.02683" lon="9.20216">
        <ele>1445.2</ele>
        <time>2015-06-22T05:03:39Z</time>
      </trkpt>
      <trkpt lat="42.02691" lon="9.20207">
        <ele>1443.6</ele>
        <time>2015-06-22T05:03:49Z</time>
      </trkpt>
      <trkpt lat="42.02694" lon="9.20202">
        <ele>1443.2</ele>
        <time>2015-06-22T05:03:56Z</time>
      </trkpt>
      <trkpt lat="42.02695" lon="9.20202">
        <ele>1443</ele>
        <time>2015-06-22T05:03:57Z</time>
      </trkpt>
      <trkpt lat="42.02697" lon="9.20199">
        <ele>1442</ele>
        <time>2015-06-22T05:04:02Z</time>
      </trkpt>
      <trkpt lat="42.02696" lon="9.20187">
        <ele>1440.6</ele>
        <time>2015-06-22T05:04:14Z</time>
      </trkpt>
      <trkpt lat="42.02693" lon="9.20182">
        <ele>1440.6</ele>
        <time>2015-06-22T05:04:17Z</time>
      </trkpt>
      <trkpt lat="42.02692" lon="9.20178">
        <ele>1439.8</ele>
        <time>2015-06-22T05:04:20Z</time>
      </trkpt>
      <trkpt lat="42.02692" lon="9.20174">
        <ele>1439.2</ele>
        <time>2015-06-22T05:04:23Z</time>
      </trkpt>
      <trkpt lat="42.02693" lon="9.20171">
        <ele>1439.2</ele>
        <time>2015-06-22T05:04:25Z</time>
      </trkpt>
      <trkpt lat="42.02691" lon="9.20163">
        <ele>1438.6</ele>
        <time>2015-06-22T05:04:31Z</time>
      </trkpt>
      <trkpt lat="42.0269" lon="9.2016">
        <ele>1438.4</ele>
        <time>2015-06-22T05:04:33Z</time>
      </trkpt>
      <trkpt lat="42.0269" lon="9.20159">
        <ele>1438.2</ele>
        <time>2015-06-22T05:04:34Z</time>
      </trkpt>
      <trkpt lat="42.0269" lon="9.20158">
        <ele>1438.2</ele>
        <time>2015-06-22T05:04:35Z</time>
      </trkpt>
      <trkpt lat="42.0269" lon="9.20149">
        <ele>1437.2</ele>
        <time>2015-06-22T05:04:44Z</time>
      </trkpt>
      <trkpt lat="42.02688" lon="9.20146">
        <ele>1437</ele>
        <time>2015-06-22T05:04:47Z</time>
      </trkpt>
      <trkpt lat="42.02686" lon="9.20138">
        <ele>1436</ele>
        <time>2015-06-22T05:04:55Z</time>
      </trkpt>
      <trkpt lat="42.0268" lon="9.20107">
        <ele>1434.8</ele>
        <time>2015-06-22T05:05:18Z</time>
      </trkpt>
      <trkpt lat="42.02678" lon="9.20105">
        <ele>1434.4</ele>
        <time>2015-06-22T05:05:23Z</time>
      </trkpt>
      <trkpt lat="42.02673" lon="9.201">
        <ele>1432.8</ele>
        <time>2015-06-22T05:05:30Z</time>
      </trkpt>
      <trkpt lat="42.02666" lon="9.20096">
        <ele>1431.8</ele>
        <time>2015-06-22T05:05:37Z</time>
      </trkpt>
      <trkpt lat="42.02654" lon="9.20086">
        <ele>1430.4</ele>
        <time>2015-06-22T05:05:52Z</time>
      </trkpt>
      <trkpt lat="42.02645" lon="9.2008">
        <ele>1429.2</ele>
        <time>2015-06-22T05:06:00Z</time>
      </trkpt>
      <trkpt lat="42.02639" lon="9.20078">
        <ele>1428.6</ele>
        <time>2015-06-22T05:06:06Z</time>
      </trkpt>
      <trkpt lat="42.02628" lon="9.20071">
        <ele>1427.2</ele>
        <time>2015-06-22T05:06:16Z</time>
      </trkpt>
      <trkpt lat="42.02624" lon="9.20063">
        <ele>1426.2</ele>
        <time>2015-06-22T05:06:23Z</time>
      </trkpt>
      <trkpt lat="42.02619" lon="9.20059">
        <ele>1425.4</ele>
        <time>2015-06-22T05:06:29Z</time>
      </trkpt>
      <trkpt lat="42.02614" lon="9.20055">
        <ele>1424.2</ele>
        <time>2015-06-22T05:06:35Z</time>
      </trkpt>
      <trkpt lat="42.02614" lon="9.20054">
        <ele>1424</ele>
        <time>2015-06-22T05:06:36Z</time>
      </trkpt>
      <trkpt lat="42.02614" lon="9.20051">
        <ele>1423.4</ele>
        <time>2015-06-22T05:06:39Z</time>
      </trkpt>
      <trkpt lat="42.02613" lon="9.2005">
        <ele>1423.4</ele>
        <time>2015-06-22T05:06:40Z</time>
      </trkpt>
      <trkpt lat="42.02608" lon="9.20046">
        <ele>1422</ele>
        <time>2015-06-22T05:06:46Z</time>
      </trkpt>
      <trkpt lat="42.02604" lon="9.20041">
        <ele>1420.6</ele>
        <time>2015-06-22T05:06:54Z</time>
      </trkpt>
      <trkpt lat="42.02601" lon="9.20037">
        <ele>1419.8</ele>
        <time>2015-06-22T05:06:59Z</time>
      </trkpt>
      <trkpt lat="42.02599" lon="9.20029">
        <ele>1418.6</ele>
        <time>2015-06-22T05:07:05Z</time>
      </trkpt>
      <trkpt lat="42.02598" lon="9.20022">
        <ele>1417.2</ele>
        <time>2015-06-22T05:07:11Z</time>
      </trkpt>
      <trkpt lat="42.02597" lon="9.20022">
        <ele>1417</ele>
        <time>2015-06-22T05:07:12Z</time>
      </trkpt>
      <trkpt lat="42.02594" lon="9.20019">
        <ele>1416</ele>
        <time>2015-06-22T05:07:18Z</time>
      </trkpt>
      <trkpt lat="42.02591" lon="9.2001">
        <ele>1414.6</ele>
        <time>2015-06-22T05:07:26Z</time>
      </trkpt>
      <trkpt lat="42.0259" lon="9.20008">
        <ele>1414.6</ele>
        <time>2015-06-22T05:07:29Z</time>
      </trkpt>
      <trkpt lat="42.0259" lon="9.20007">
        <ele>1414.4</ele>
        <time>2015-06-22T05:07:30Z</time>
      </trkpt>
      <trkpt lat="42.02588" lon="9.20003">
        <ele>1412.6</ele>
        <time>2015-06-22T05:07:37Z</time>
      </trkpt>
      <trkpt lat="42.02585" lon="9.20001">
        <ele>1411.4</ele>
        <time>2015-06-22T05:07:45Z</time>
      </trkpt>
      <trkpt lat="42.02585" lon="9.19998">
        <ele>1410.6</ele>
        <time>2015-06-22T05:07:50Z</time>
      </trkpt>
      <trkpt lat="42.02581" lon="9.19993">
        <ele>1409.2</ele>
        <time>2015-06-22T05:07:56Z</time>
      </trkpt>
      <trkpt lat="42.0258" lon="9.19992">
        <ele>1409.2</ele>
        <time>2015-06-22T05:07:57Z</time>
      </trkpt>
      <trkpt lat="42.02576" lon="9.19993">
        <ele>1408.6</ele>
        <time>2015-06-22T05:08:02Z</time>
      </trkpt>
      <trkpt lat="42.02573" lon="9.19989">
        <ele>1407.2</ele>
        <time>2015-06-22T05:08:08Z</time>
      </trkpt>
      <trkpt lat="42.02573" lon="9.19987">
        <ele>1406.2</ele>
        <time>2015-06-22T05:08:13Z</time>
      </trkpt>
      <trkpt lat="42.02571" lon="9.19985">
        <ele>1405</ele>
        <time>2015-06-22T05:08:18Z</time>
      </trkpt>
      <trkpt lat="42.02568" lon="9.19987">
        <ele>1403.4</ele>
        <time>2015-06-22T05:08:24Z</time>
      </trkpt>
      <trkpt lat="42.02564" lon="9.19983">
        <ele>1402.4</ele>
        <time>2015-06-22T05:08:30Z</time>
      </trkpt>
      <trkpt lat="42.02564" lon="9.19981">
        <ele>1401.8</ele>
        <time>2015-06-22T05:08:34Z</time>
      </trkpt>
      <trkpt lat="42.02561" lon="9.19977">
        <ele>1400.8</ele>
        <time>2015-06-22T05:08:38Z</time>
      </trkpt>
      <trkpt lat="42.02561" lon="9.19976">
        <ele>1400.6</ele>
        <time>2015-06-22T05:08:39Z</time>
      </trkpt>
      <trkpt lat="42.02559" lon="9.19973">
        <ele>1399.6</ele>
        <time>2015-06-22T05:08:44Z</time>
      </trkpt>
      <trkpt lat="42.02558" lon="9.19968">
        <ele>1398.4</ele>
        <time>2015-06-22T05:08:49Z</time>
      </trkpt>
      <trkpt lat="42.02557" lon="9.19963">
        <ele>1397.2</ele>
        <time>2015-06-22T05:08:54Z</time>
      </trkpt>
      <trkpt lat="42.02554" lon="9.19959">
        <ele>1396.2</ele>
        <time>2015-06-22T05:08:59Z</time>
      </trkpt>
      <trkpt lat="42.02554" lon="9.19958">
        <ele>1395.6</ele>
        <time>2015-06-22T05:09:00Z</time>
      </trkpt>
      <trkpt lat="42.02553" lon="9.19957">
        <ele>1395.4</ele>
        <time>2015-06-22T05:09:02Z</time>
      </trkpt>
      <trkpt lat="42.02551" lon="9.19955">
        <ele>1395</ele>
        <time>2015-06-22T05:09:04Z</time>
      </trkpt>
      <trkpt lat="42.02546" lon="9.19952">
        <ele>1394</ele>
        <time>2015-06-22T05:09:08Z</time>
      </trkpt>
      <trkpt lat="42.02543" lon="9.1995">
        <ele>1393.4</ele>
        <time>2015-06-22T05:09:10Z</time>
      </trkpt>
      <trkpt lat="42.0254" lon="9.19952">
        <ele>1392.4</ele>
        <time>2015-06-22T05:09:15Z</time>
      </trkpt>
      <trkpt lat="42.0254" lon="9.19952">
        <ele>1392.4</ele>
        <time>2015-06-22T05:09:16Z</time>
      </trkpt>
      <trkpt lat="42.02537" lon="9.19952">
        <ele>1391.2</ele>
        <time>2015-06-22T05:09:22Z</time>
      </trkpt>
      <trkpt lat="42.02533" lon="9.1995">
        <ele>1390</ele>
        <time>2015-06-22T05:09:28Z</time>
      </trkpt>
      <trkpt lat="42.02529" lon="9.19945">
        <ele>1388.8</ele>
        <time>2015-06-22T05:09:34Z</time>
      </trkpt>
      <trkpt lat="42.02528" lon="9.19942">
        <ele>1388.4</ele>
        <time>2015-06-22T05:09:37Z</time>
      </trkpt>
      <trkpt lat="42.02527" lon="9.19941">
        <ele>1387.8</ele>
        <time>2015-06-22T05:09:39Z</time>
      </trkpt>
      <trkpt lat="42.02525" lon="9.19939">
        <ele>1387.6</ele>
        <time>2015-06-22T05:09:41Z</time>
      </trkpt>
      <trkpt lat="42.02523" lon="9.19935">
        <ele>1386.8</ele>
        <time>2015-06-22T05:09:44Z</time>
      </trkpt>
      <trkpt lat="42.02522" lon="9.19933">
        <ele>1386.6</ele>
        <time>2015-06-22T05:09:45Z</time>
      </trkpt>
      <trkpt lat="42.02517" lon="9.1993">
        <ele>1385.4</ele>
        <time>2015-06-22T05:09:53Z</time>
      </trkpt>
      <trkpt lat="42.02515" lon="9.19929">
        <ele>1384.8</ele>
        <time>2015-06-22T05:09:56Z</time>
      </trkpt>
      <trkpt lat="42.02514" lon="9.19928">
        <ele>1384.4</ele>
        <time>2015-06-22T05:09:59Z</time>
      </trkpt>
      <trkpt lat="42.02509" lon="9.19926">
        <ele>1383</ele>
        <time>2015-06-22T05:10:07Z</time>
      </trkpt>
      <trkpt lat="42.025" lon="9.19923">
        <ele>1381.8</ele>
        <time>2015-06-22T05:10:18Z</time>
      </trkpt>
      <trkpt lat="42.02499" lon="9.19923">
        <ele>1381.6</ele>
        <time>2015-06-22T05:10:19Z</time>
      </trkpt>
      <trkpt lat="42.02498" lon="9.19921">
        <ele>1381.4</ele>
        <time>2015-06-22T05:10:22Z</time>
      </trkpt>
      <trkpt lat="42.02494" lon="9.19922">
        <ele>1380.4</ele>
        <time>2015-06-22T05:10:28Z</time>
      </trkpt>
      <trkpt lat="42.0249" lon="9.19919">
        <ele>1380</ele>
        <time>2015-06-22T05:10:33Z</time>
      </trkpt>
      <trkpt lat="42.02487" lon="9.19919">
        <ele>1379.4</ele>
        <time>2015-06-22T05:10:36Z</time>
      </trkpt>
      <trkpt lat="42.02479" lon="9.19921">
        <ele>1378.6</ele>
        <time>2015-06-22T05:10:44Z</time>
      </trkpt>
      <trkpt lat="42.02477" lon="9.19921">
        <ele>1378.2</ele>
        <time>2015-06-22T05:10:46Z</time>
      </trkpt>
      <trkpt lat="42.02476" lon="9.19921">
        <ele>1378</ele>
        <time>2015-06-22T05:10:48Z</time>
      </trkpt>
      <trkpt lat="42.02475" lon="9.19921">
        <ele>1377.4</ele>
        <time>2015-06-22T05:10:52Z</time>
      </trkpt>
      <trkpt lat="42.02475" lon="9.1992">
        <ele>1376.6</ele>
        <time>2015-06-22T05:10:58Z</time>
      </trkpt>
      <trkpt lat="42.02473" lon="9.19918">
        <ele>1375.6</ele>
        <time>2015-06-22T05:11:03Z</time>
      </trkpt>
      <trkpt lat="42.0247" lon="9.19917">
        <ele>1374.4</ele>
        <time>2015-06-22T05:11:08Z</time>
      </trkpt>
      <trkpt lat="42.02467" lon="9.19914">
        <ele>1373.4</ele>
        <time>2015-06-22T05:11:14Z</time>
      </trkpt>
      <trkpt lat="42.02463" lon="9.19909">
        <ele>1372.4</ele>
        <time>2015-06-22T05:11:19Z</time>
      </trkpt>
      <trkpt lat="42.02461" lon="9.19907">
        <ele>1371.8</ele>
        <time>2015-06-22T05:11:22Z</time>
      </trkpt>
      <trkpt lat="42.0246" lon="9.19907">
        <ele>1371.4</ele>
        <time>2015-06-22T05:11:23Z</time>
      </trkpt>
      <trkpt lat="42.02458" lon="9.19907">
        <ele>1370.4</ele>
        <time>2015-06-22T05:11:26Z</time>
      </trkpt>
      <trkpt lat="42.02456" lon="9.19905">
        <ele>1370</ele>
        <time>2015-06-22T05:11:28Z</time>
      </trkpt>
      <trkpt lat="42.02454" lon="9.19904">
        <ele>1369.8</ele>
        <time>2015-06-22T05:11:30Z</time>
      </trkpt>
      <trkpt lat="42.0245" lon="9.19904">
        <ele>1368.6</ele>
        <time>2015-06-22T05:11:35Z</time>
      </trkpt>
      <trkpt lat="42.02446" lon="9.19906">
        <ele>1367.8</ele>
        <time>2015-06-22T05:11:40Z</time>
      </trkpt>
      <trkpt lat="42.02444" lon="9.19906">
        <ele>1367.4</ele>
        <time>2015-06-22T05:11:41Z</time>
      </trkpt>
      <trkpt lat="42.02443" lon="9.19907">
        <ele>1367.4</ele>
        <time>2015-06-22T05:11:42Z</time>
      </trkpt>
      <trkpt lat="42.02441" lon="9.19908">
        <ele>1367</ele>
        <time>2015-06-22T05:11:44Z</time>
      </trkpt>
      <trkpt lat="42.0244" lon="9.19907">
        <ele>1366.8</ele>
        <time>2015-06-22T05:11:45Z</time>
      </trkpt>
      <trkpt lat="42.02434" lon="9.19907">
        <ele>1365.4</ele>
        <time>2015-06-22T05:11:50Z</time>
      </trkpt>
      <trkpt lat="42.02433" lon="9.19907">
        <ele>1365.2</ele>
        <time>2015-06-22T05:11:51Z</time>
      </trkpt>
      <trkpt lat="42.02431" lon="9.19907">
        <ele>1365</ele>
        <time>2015-06-22T05:11:53Z</time>
      </trkpt>
      <trkpt lat="42.02428" lon="9.19907">
        <ele>1364.2</ele>
        <time>2015-06-22T05:11:56Z</time>
      </trkpt>
      <trkpt lat="42.02425" lon="9.19906">
        <ele>1363.8</ele>
        <time>2015-06-22T05:11:58Z</time>
      </trkpt>
      <trkpt lat="42.0242" lon="9.19901">
        <ele>1362.8</ele>
        <time>2015-06-22T05:12:02Z</time>
      </trkpt>
      <trkpt lat="42.02414" lon="9.19898">
        <ele>1361.4</ele>
        <time>2015-06-22T05:12:08Z</time>
      </trkpt>
      <trkpt lat="42.02414" lon="9.19897">
        <ele>1361.4</ele>
        <time>2015-06-22T05:12:09Z</time>
      </trkpt>
      <trkpt lat="42.02413" lon="9.19895">
        <ele>1360.8</ele>
        <time>2015-06-22T05:12:12Z</time>
      </trkpt>
      <trkpt lat="42.02412" lon="9.19894">
        <ele>1360.6</ele>
        <time>2015-06-22T05:12:14Z</time>
      </trkpt>
      <trkpt lat="42.02409" lon="9.1989">
        <ele>1359.6</ele>
        <time>2015-06-22T05:12:19Z</time>
      </trkpt>
      <trkpt lat="42.02408" lon="9.19888">
        <ele>1359</ele>
        <time>2015-06-22T05:12:21Z</time>
      </trkpt>
      <trkpt lat="42.02408" lon="9.19886">
        <ele>1358.4</ele>
        <time>2015-06-22T05:12:24Z</time>
      </trkpt>
      <trkpt lat="42.02409" lon="9.1988">
        <ele>1357.2</ele>
        <time>2015-06-22T05:12:29Z</time>
      </trkpt>
      <trkpt lat="42.02409" lon="9.19876">
        <ele>1356.2</ele>
        <time>2015-06-22T05:12:34Z</time>
      </trkpt>
      <trkpt lat="42.02409" lon="9.19871">
        <ele>1355</ele>
        <time>2015-06-22T05:12:38Z</time>
      </trkpt>
      <trkpt lat="42.02409" lon="9.19868">
        <ele>1354</ele>
        <time>2015-06-22T05:12:43Z</time>
      </trkpt>
      <trkpt lat="42.02411" lon="9.19866">
        <ele>1353</ele>
        <time>2015-06-22T05:12:47Z</time>
      </trkpt>
      <trkpt lat="42.02412" lon="9.19861">
        <ele>1351.2</ele>
        <time>2015-06-22T05:12:55Z</time>
      </trkpt>
      <trkpt lat="42.02412" lon="9.19856">
        <ele>1350.2</ele>
        <time>2015-06-22T05:13:01Z</time>
      </trkpt>
      <trkpt lat="42.02413" lon="9.19852">
        <ele>1349.4</ele>
        <time>2015-06-22T05:13:06Z</time>
      </trkpt>
      <trkpt lat="42.02416" lon="9.19849">
        <ele>1347.6</ele>
        <time>2015-06-22T05:13:14Z</time>
      </trkpt>
      <trkpt lat="42.02417" lon="9.19844">
        <ele>1347</ele>
        <time>2015-06-22T05:13:20Z</time>
      </trkpt>
      <trkpt lat="42.02418" lon="9.19839">
        <ele>1345.8</ele>
        <time>2015-06-22T05:13:25Z</time>
      </trkpt>
      <trkpt lat="42.02418" lon="9.19837">
        <ele>1345.6</ele>
        <time>2015-06-22T05:13:26Z</time>
      </trkpt>
      <trkpt lat="42.02419" lon="9.19833">
        <ele>1345</ele>
        <time>2015-06-22T05:13:29Z</time>
      </trkpt>
      <trkpt lat="42.02418" lon="9.19831">
        <ele>1344.8</ele>
        <time>2015-06-22T05:13:30Z</time>
      </trkpt>
      <trkpt lat="42.02417" lon="9.19825">
        <ele>1344</ele>
        <time>2015-06-22T05:13:34Z</time>
      </trkpt>
      <trkpt lat="42.02418" lon="9.19817">
        <ele>1342.6</ele>
        <time>2015-06-22T05:13:39Z</time>
      </trkpt>
      <trkpt lat="42.0242" lon="9.19811">
        <ele>1341.2</ele>
        <time>2015-06-22T05:13:45Z</time>
      </trkpt>
      <trkpt lat="42.02421" lon="9.19808">
        <ele>1341</ele>
        <time>2015-06-22T05:13:47Z</time>
      </trkpt>
      <trkpt lat="42.02423" lon="9.19806">
        <ele>1340.2</ele>
        <time>2015-06-22T05:13:50Z</time>
      </trkpt>
      <trkpt lat="42.02425" lon="9.19804">
        <ele>1340.2</ele>
        <time>2015-06-22T05:13:52Z</time>
      </trkpt>
      <trkpt lat="42.02425" lon="9.19804">
        <ele>1339.8</ele>
        <time>2015-06-22T05:13:53Z</time>
      </trkpt>
      <trkpt lat="42.02424" lon="9.19801">
        <ele>1340</ele>
        <time>2015-06-22T05:13:55Z</time>
      </trkpt>
      <trkpt lat="42.02425" lon="9.19796">
        <ele>1339</ele>
        <time>2015-06-22T05:13:59Z</time>
      </trkpt>
      <trkpt lat="42.02424" lon="9.19794">
        <ele>1339</ele>
        <time>2015-06-22T05:14:00Z</time>
      </trkpt>
      <trkpt lat="42.02425" lon="9.19789">
        <ele>1338</ele>
        <time>2015-06-22T05:14:04Z</time>
      </trkpt>
      <trkpt lat="42.02426" lon="9.19789">
        <ele>1337.8</ele>
        <time>2015-06-22T05:14:05Z</time>
      </trkpt>
      <trkpt lat="42.02428" lon="9.19786">
        <ele>1337</ele>
        <time>2015-06-22T05:14:08Z</time>
      </trkpt>
      <trkpt lat="42.02428" lon="9.19785">
        <ele>1336.8</ele>
        <time>2015-06-22T05:14:09Z</time>
      </trkpt>
      <trkpt lat="42.02429" lon="9.19781">
        <ele>1335.8</ele>
        <time>2015-06-22T05:14:13Z</time>
      </trkpt>
      <trkpt lat="42.02431" lon="9.19776">
        <ele>1335.4</ele>
        <time>2015-06-22T05:14:16Z</time>
      </trkpt>
      <trkpt lat="42.02433" lon="9.19774">
        <ele>1334.6</ele>
        <time>2015-06-22T05:14:18Z</time>
      </trkpt>
      <trkpt lat="42.02437" lon="9.19774">
        <ele>1334.4</ele>
        <time>2015-06-22T05:14:21Z</time>
      </trkpt>
      <trkpt lat="42.02438" lon="9.19773">
        <ele>1334.2</ele>
        <time>2015-06-22T05:14:22Z</time>
      </trkpt>
      <trkpt lat="42.02447" lon="9.19771">
        <ele>1332.8</ele>
        <time>2015-06-22T05:14:32Z</time>
      </trkpt>
      <trkpt lat="42.02448" lon="9.19771">
        <ele>1332.6</ele>
        <time>2015-06-22T05:14:34Z</time>
      </trkpt>
      <trkpt lat="42.02452" lon="9.19772">
        <ele>1332.4</ele>
        <time>2015-06-22T05:14:36Z</time>
      </trkpt>
      <trkpt lat="42.02459" lon="9.19772">
        <ele>1332.2</ele>
        <time>2015-06-22T05:14:40Z</time>
      </trkpt>
      <trkpt lat="42.02464" lon="9.19771">
        <ele>1331.4</ele>
        <time>2015-06-22T05:14:45Z</time>
      </trkpt>
      <trkpt lat="42.02469" lon="9.19772">
        <ele>1331</ele>
        <time>2015-06-22T05:14:48Z</time>
      </trkpt>
      <trkpt lat="42.02475" lon="9.19771">
        <ele>1330.6</ele>
        <time>2015-06-22T05:14:53Z</time>
      </trkpt>
      <trkpt lat="42.02479" lon="9.1977">
        <ele>1330.6</ele>
        <time>2015-06-22T05:14:56Z</time>
      </trkpt>
      <trkpt lat="42.0248" lon="9.19769">
        <ele>1330.4</ele>
        <time>2015-06-22T05:14:57Z</time>
      </trkpt>
      <trkpt lat="42.0248" lon="9.19769">
        <ele>1330.6</ele>
        <time>2015-06-22T05:14:58Z</time>
      </trkpt>
      <trkpt lat="42.02495" lon="9.19767">
        <ele>1329.2</ele>
        <time>2015-06-22T05:15:12Z</time>
      </trkpt>
      <trkpt lat="42.02496" lon="9.19767">
        <ele>1329.4</ele>
        <time>2015-06-22T05:15:13Z</time>
      </trkpt>
      <trkpt lat="42.02499" lon="9.19764">
        <ele>1329</ele>
        <time>2015-06-22T05:15:18Z</time>
      </trkpt>
      <trkpt lat="42.02507" lon="9.19758">
        <ele>1328.4</ele>
        <time>2015-06-22T05:15:27Z</time>
      </trkpt>
      <trkpt lat="42.02509" lon="9.19758">
        <ele>1328.4</ele>
        <time>2015-06-22T05:15:29Z</time>
      </trkpt>
      <trkpt lat="42.02516" lon="9.19757">
        <ele>1328.2</ele>
        <time>2015-06-22T05:15:34Z</time>
      </trkpt>
      <trkpt lat="42.02531" lon="9.19749">
        <ele>1327.6</ele>
        <time>2015-06-22T05:15:45Z</time>
      </trkpt>
      <trkpt lat="42.02538" lon="9.19744">
        <ele>1326.8</ele>
        <time>2015-06-22T05:15:52Z</time>
      </trkpt>
      <trkpt lat="42.02542" lon="9.19741">
        <ele>1326.4</ele>
        <time>2015-06-22T05:15:56Z</time>
      </trkpt>
      <trkpt lat="42.02555" lon="9.19732">
        <ele>1325.8</ele>
        <time>2015-06-22T05:16:08Z</time>
      </trkpt>
      <trkpt lat="42.02558" lon="9.19729">
        <ele>1325.4</ele>
        <time>2015-06-22T05:16:11Z</time>
      </trkpt>
      <trkpt lat="42.02561" lon="9.19727">
        <ele>1325</ele>
        <time>2015-06-22T05:16:14Z</time>
      </trkpt>
      <trkpt lat="42.02563" lon="9.19726">
        <ele>1324.8</ele>
        <time>2015-06-22T05:16:16Z</time>
      </trkpt>
      <trkpt lat="42.0257" lon="9.19717">
        <ele>1324.4</ele>
        <time>2015-06-22T05:16:26Z</time>
      </trkpt>
      <trkpt lat="42.02572" lon="9.19717">
        <ele>1324.2</ele>
        <time>2015-06-22T05:16:27Z</time>
      </trkpt>
      <trkpt lat="42.02574" lon="9.19715">
        <ele>1324.2</ele>
        <time>2015-06-22T05:16:31Z</time>
      </trkpt>
      <trkpt lat="42.02577" lon="9.19714">
        <ele>1324</ele>
        <time>2015-06-22T05:16:34Z</time>
      </trkpt>
      <trkpt lat="42.02584" lon="9.19712">
        <ele>1323.4</ele>
        <time>2015-06-22T05:16:41Z</time>
      </trkpt>
      <trkpt lat="42.02587" lon="9.19714">
        <ele>1323.4</ele>
        <time>2015-06-22T05:16:45Z</time>
      </trkpt>
      <trkpt lat="42.02595" lon="9.19718">
        <ele>1323.8</ele>
        <time>2015-06-22T05:18:51Z</time>
      </trkpt>
      <trkpt lat="42.02589" lon="9.19711">
        <ele>1323.4</ele>
        <time>2015-06-22T05:19:57Z</time>
      </trkpt>
      <trkpt lat="42.02586" lon="9.1971">
        <ele>1324.2</ele>
        <time>2015-06-22T05:22:22Z</time>
      </trkpt>
      <trkpt lat="42.02598" lon="9.19696">
        <ele>1323.6</ele>
        <time>2015-06-22T05:23:17Z</time>
      </trkpt>
      <trkpt lat="42.02602" lon="9.19688">
        <ele>1322.8</ele>
        <time>2015-06-22T05:23:24Z</time>
      </trkpt>
      <trkpt lat="42.02611" lon="9.19678">
        <ele>1321.2</ele>
        <time>2015-06-22T05:23:34Z</time>
      </trkpt>
      <trkpt lat="42.02616" lon="9.19673">
        <ele>1320.6</ele>
        <time>2015-06-22T05:23:40Z</time>
      </trkpt>
      <trkpt lat="42.02622" lon="9.19664">
        <ele>1319.4</ele>
        <time>2015-06-22T05:23:49Z</time>
      </trkpt>
      <trkpt lat="42.02631" lon="9.19654">
        <ele>1318.2</ele>
        <time>2015-06-22T05:24:01Z</time>
      </trkpt>
      <trkpt lat="42.02637" lon="9.19642">
        <ele>1317</ele>
        <time>2015-06-22T05:24:13Z</time>
      </trkpt>
      <trkpt lat="42.02648" lon="9.19634">
        <ele>1316</ele>
        <time>2015-06-22T05:24:25Z</time>
      </trkpt>
      <trkpt lat="42.02655" lon="9.19621">
        <ele>1315</ele>
        <time>2015-06-22T05:24:37Z</time>
      </trkpt>
      <trkpt lat="42.02661" lon="9.19612">
        <ele>1313.8</ele>
        <time>2015-06-22T05:24:46Z</time>
      </trkpt>
      <trkpt lat="42.02666" lon="9.19608">
        <ele>1313.2</ele>
        <time>2015-06-22T05:24:52Z</time>
      </trkpt>
      <trkpt lat="42.02672" lon="9.19603">
        <ele>1311.8</ele>
        <time>2015-06-22T05:25:00Z</time>
      </trkpt>
      <trkpt lat="42.0268" lon="9.19599">
        <ele>1310.6</ele>
        <time>2015-06-22T05:25:10Z</time>
      </trkpt>
      <trkpt lat="42.02688" lon="9.19594">
        <ele>1309.8</ele>
        <time>2015-06-22T05:25:18Z</time>
      </trkpt>
      <trkpt lat="42.02697" lon="9.19584">
        <ele>1308.6</ele>
        <time>2015-06-22T05:25:28Z</time>
      </trkpt>
      <trkpt lat="42.02703" lon="9.19579">
        <ele>1308</ele>
        <time>2015-06-22T05:25:35Z</time>
      </trkpt>
      <trkpt lat="42.02712" lon="9.19573">
        <ele>1306.6</ele>
        <time>2015-06-22T05:25:45Z</time>
      </trkpt>
      <trkpt lat="42.0272" lon="9.19567">
        <ele>1305.4</ele>
        <time>2015-06-22T05:25:56Z</time>
      </trkpt>
      <trkpt lat="42.02729" lon="9.19561">
        <ele>1304.2</ele>
        <time>2015-06-22T05:26:06Z</time>
      </trkpt>
      <trkpt lat="42.02734" lon="9.19557">
        <ele>1303.6</ele>
        <time>2015-06-22T05:26:13Z</time>
      </trkpt>
      <trkpt lat="42.02742" lon="9.19548">
        <ele>1302.4</ele>
        <time>2015-06-22T05:26:22Z</time>
      </trkpt>
      <trkpt lat="42.02749" lon="9.19542">
        <ele>1301.4</ele>
        <time>2015-06-22T05:26:29Z</time>
      </trkpt>
      <trkpt lat="42.02755" lon="9.19537">
        <ele>1300.4</ele>
        <time>2015-06-22T05:26:35Z</time>
      </trkpt>
      <trkpt lat="42.02761" lon="9.19531">
        <ele>1299.2</ele>
        <time>2015-06-22T05:26:42Z</time>
      </trkpt>
      <trkpt lat="42.02765" lon="9.19527">
        <ele>1298.2</ele>
        <time>2015-06-22T05:26:49Z</time>
      </trkpt>
      <trkpt lat="42.02773" lon="9.1952">
        <ele>1297</ele>
        <time>2015-06-22T05:26:58Z</time>
      </trkpt>
      <trkpt lat="42.0278" lon="9.19513">
        <ele>1296</ele>
        <time>2015-06-22T05:27:06Z</time>
      </trkpt>
      <trkpt lat="42.02785" lon="9.19508">
        <ele>1295</ele>
        <time>2015-06-22T05:27:13Z</time>
      </trkpt>
      <trkpt lat="42.02792" lon="9.19501">
        <ele>1293.8</ele>
        <time>2015-06-22T05:27:22Z</time>
      </trkpt>
      <trkpt lat="42.028" lon="9.19498">
        <ele>1292.6</ele>
        <time>2015-06-22T05:27:30Z</time>
      </trkpt>
      <trkpt lat="42.02804" lon="9.19496">
        <ele>1292</ele>
        <time>2015-06-22T05:27:35Z</time>
      </trkpt>
      <trkpt lat="42.02808" lon="9.19493">
        <ele>1291.6</ele>
        <time>2015-06-22T05:27:39Z</time>
      </trkpt>
      <trkpt lat="42.02818" lon="9.19488">
        <ele>1290.4</ele>
        <time>2015-06-22T05:27:48Z</time>
      </trkpt>
      <trkpt lat="42.02832" lon="9.1949">
        <ele>1289</ele>
        <time>2015-06-22T05:28:10Z</time>
      </trkpt>
      <trkpt lat="42.02826" lon="9.19477">
        <ele>1289.2</ele>
        <time>2015-06-22T05:28:45Z</time>
      </trkpt>
      <trkpt lat="42.02825" lon="9.19475">
        <ele>1289.2</ele>
        <time>2015-06-22T05:28:47Z</time>
      </trkpt>
      <trkpt lat="42.02815" lon="9.19466">
        <ele>1288.4</ele>
        <time>2015-06-22T05:29:02Z</time>
      </trkpt>
      <trkpt lat="42.02813" lon="9.19466">
        <ele>1288.2</ele>
        <time>2015-06-22T05:29:04Z</time>
      </trkpt>
      <trkpt lat="42.02807" lon="9.19453">
        <ele>1287.8</ele>
        <time>2015-06-22T05:29:20Z</time>
      </trkpt>
      <trkpt lat="42.02805" lon="9.19441">
        <ele>1287</ele>
        <time>2015-06-22T05:29:29Z</time>
      </trkpt>
      <trkpt lat="42.02811" lon="9.19409">
        <ele>1285.6</ele>
        <time>2015-06-22T05:29:53Z</time>
      </trkpt>
      <trkpt lat="42.0282" lon="9.19391">
        <ele>1284.8</ele>
        <time>2015-06-22T05:30:05Z</time>
      </trkpt>
      <trkpt lat="42.02821" lon="9.19388">
        <ele>1284.6</ele>
        <time>2015-06-22T05:30:07Z</time>
      </trkpt>
      <trkpt lat="42.02824" lon="9.19371">
        <ele>1283.6</ele>
        <time>2015-06-22T05:30:18Z</time>
      </trkpt>
      <trkpt lat="42.0283" lon="9.19356">
        <ele>1282.8</ele>
        <time>2015-06-22T05:30:28Z</time>
      </trkpt>
      <trkpt lat="42.02839" lon="9.19342">
        <ele>1281.6</ele>
        <time>2015-06-22T05:30:40Z</time>
      </trkpt>
      <trkpt lat="42.02843" lon="9.19334">
        <ele>1281</ele>
        <time>2015-06-22T05:30:46Z</time>
      </trkpt>
      <trkpt lat="42.02851" lon="9.19327">
        <ele>1279.6</ele>
        <time>2015-06-22T05:30:55Z</time>
      </trkpt>
      <trkpt lat="42.02859" lon="9.19318">
        <ele>1278.6</ele>
        <time>2015-06-22T05:31:04Z</time>
      </trkpt>
      <trkpt lat="42.02867" lon="9.19304">
        <ele>1277.4</ele>
        <time>2015-06-22T05:31:14Z</time>
      </trkpt>
      <trkpt lat="42.02874" lon="9.19284">
        <ele>1276.2</ele>
        <time>2015-06-22T05:31:29Z</time>
      </trkpt>
      <trkpt lat="42.0288" lon="9.19263">
        <ele>1275.4</ele>
        <time>2015-06-22T05:31:44Z</time>
      </trkpt>
      <trkpt lat="42.0288" lon="9.1926">
        <ele>1275.2</ele>
        <time>2015-06-22T05:31:47Z</time>
      </trkpt>
      <trkpt lat="42.02882" lon="9.19256">
        <ele>1275</ele>
        <time>2015-06-22T05:31:51Z</time>
      </trkpt>
      <trkpt lat="42.0289" lon="9.19246">
        <ele>1274.6</ele>
        <time>2015-06-22T05:31:59Z</time>
      </trkpt>
      <trkpt lat="42.02891" lon="9.19245">
        <ele>1274.6</ele>
        <time>2015-06-22T05:32:00Z</time>
      </trkpt>
      <trkpt lat="42.02892" lon="9.19243">
        <ele>1274.4</ele>
        <time>2015-06-22T05:32:02Z</time>
      </trkpt>
      <trkpt lat="42.02895" lon="9.19239">
        <ele>1274.2</ele>
        <time>2015-06-22T05:32:06Z</time>
      </trkpt>
      <trkpt lat="42.02895" lon="9.19237">
        <ele>1274.2</ele>
        <time>2015-06-22T05:32:07Z</time>
      </trkpt>
      <trkpt lat="42.029" lon="9.19217">
        <ele>1273.6</ele>
        <time>2015-06-22T05:32:19Z</time>
      </trkpt>
      <trkpt lat="42.02902" lon="9.19196">
        <ele>1273.2</ele>
        <time>2015-06-22T05:32:33Z</time>
      </trkpt>
      <trkpt lat="42.02903" lon="9.19187">
        <ele>1273</ele>
        <time>2015-06-22T05:32:38Z</time>
      </trkpt>
      <trkpt lat="42.02905" lon="9.19174">
        <ele>1272.6</ele>
        <time>2015-06-22T05:32:48Z</time>
      </trkpt>
      <trkpt lat="42.02905" lon="9.19154">
        <ele>1272.4</ele>
        <time>2015-06-22T05:32:58Z</time>
      </trkpt>
      <trkpt lat="42.02907" lon="9.19151">
        <ele>1272</ele>
        <time>2015-06-22T05:33:01Z</time>
      </trkpt>
      <trkpt lat="42.02906" lon="9.19137">
        <ele>1271.8</ele>
        <time>2015-06-22T05:33:08Z</time>
      </trkpt>
      <trkpt lat="42.02907" lon="9.1913">
        <ele>1271.4</ele>
        <time>2015-06-22T05:33:12Z</time>
      </trkpt>
      <trkpt lat="42.02908" lon="9.19121">
        <ele>1271</ele>
        <time>2015-06-22T05:33:18Z</time>
      </trkpt>
      <trkpt lat="42.02908" lon="9.19116">
        <ele>1270.6</ele>
        <time>2015-06-22T05:33:23Z</time>
      </trkpt>
      <trkpt lat="42.02909" lon="9.19096">
        <ele>1270</ele>
        <time>2015-06-22T05:33:36Z</time>
      </trkpt>
      <trkpt lat="42.02899" lon="9.19067">
        <ele>1269</ele>
        <time>2015-06-22T05:33:59Z</time>
      </trkpt>
      <trkpt lat="42.02888" lon="9.19056">
        <ele>1267.8</ele>
        <time>2015-06-22T05:34:15Z</time>
      </trkpt>
      <trkpt lat="42.0288" lon="9.18998">
        <ele>1268</ele>
        <time>2015-06-22T05:35:06Z</time>
      </trkpt>
      <trkpt lat="42.0288" lon="9.18996">
        <ele>1268.2</ele>
        <time>2015-06-22T05:35:08Z</time>
      </trkpt>
      <trkpt lat="42.02877" lon="9.18981">
        <ele>1268.6</ele>
        <time>2015-06-22T05:35:21Z</time>
      </trkpt>
      <trkpt lat="42.02873" lon="9.18974">
        <ele>1269</ele>
        <time>2015-06-22T05:35:27Z</time>
      </trkpt>
      <trkpt lat="42.02859" lon="9.1893">
        <ele>1269.8</ele>
        <time>2015-06-22T05:35:58Z</time>
      </trkpt>
      <trkpt lat="42.02853" lon="9.18918">
        <ele>1270</ele>
        <time>2015-06-22T05:36:06Z</time>
      </trkpt>
      <trkpt lat="42.02846" lon="9.18906">
        <ele>1270.8</ele>
        <time>2015-06-22T05:36:17Z</time>
      </trkpt>
      <trkpt lat="42.02846" lon="9.18903">
        <ele>1271</ele>
        <time>2015-06-22T05:36:19Z</time>
      </trkpt>
      <trkpt lat="42.02841" lon="9.1889">
        <ele>1272</ele>
        <time>2015-06-22T05:36:32Z</time>
      </trkpt>
      <trkpt lat="42.02841" lon="9.18881">
        <ele>1273</ele>
        <time>2015-06-22T05:36:41Z</time>
      </trkpt>
      <trkpt lat="42.02841" lon="9.18859">
        <ele>1274.2</ele>
        <time>2015-06-22T05:36:58Z</time>
      </trkpt>
      <trkpt lat="42.0284" lon="9.18857">
        <ele>1274.4</ele>
        <time>2015-06-22T05:37:00Z</time>
      </trkpt>
      <trkpt lat="42.02839" lon="9.18841">
        <ele>1275</ele>
        <time>2015-06-22T05:37:12Z</time>
      </trkpt>
      <trkpt lat="42.02837" lon="9.18825">
        <ele>1276</ele>
        <time>2015-06-22T05:37:23Z</time>
      </trkpt>
      <trkpt lat="42.02835" lon="9.18818">
        <ele>1276.2</ele>
        <time>2015-06-22T05:37:28Z</time>
      </trkpt>
      <trkpt lat="42.02828" lon="9.18803">
        <ele>1277</ele>
        <time>2015-06-22T05:37:41Z</time>
      </trkpt>
      <trkpt lat="42.02826" lon="9.18801">
        <ele>1277.4</ele>
        <time>2015-06-22T05:37:43Z</time>
      </trkpt>
      <trkpt lat="42.02821" lon="9.18788">
        <ele>1278.2</ele>
        <time>2015-06-22T05:37:56Z</time>
      </trkpt>
      <trkpt lat="42.0282" lon="9.18784">
        <ele>1278.6</ele>
        <time>2015-06-22T05:38:00Z</time>
      </trkpt>
      <trkpt lat="42.0282" lon="9.18776">
        <ele>1279.2</ele>
        <time>2015-06-22T05:38:07Z</time>
      </trkpt>
      <trkpt lat="42.02817" lon="9.18767">
        <ele>1280.4</ele>
        <time>2015-06-22T05:38:16Z</time>
      </trkpt>
      <trkpt lat="42.02813" lon="9.18762">
        <ele>1280.6</ele>
        <time>2015-06-22T05:38:22Z</time>
      </trkpt>
      <trkpt lat="42.02806" lon="9.18751">
        <ele>1281.4</ele>
        <time>2015-06-22T05:38:32Z</time>
      </trkpt>
      <trkpt lat="42.02801" lon="9.1873">
        <ele>1282.8</ele>
        <time>2015-06-22T05:38:51Z</time>
      </trkpt>
      <trkpt lat="42.02797" lon="9.18712">
        <ele>1283.8</ele>
        <time>2015-06-22T05:39:06Z</time>
      </trkpt>
      <trkpt lat="42.02793" lon="9.18693">
        <ele>1284.8</ele>
        <time>2015-06-22T05:39:24Z</time>
      </trkpt>
      <trkpt lat="42.02789" lon="9.18682">
        <ele>1285.2</ele>
        <time>2015-06-22T05:39:35Z</time>
      </trkpt>
      <trkpt lat="42.02783" lon="9.18676">
        <ele>1286</ele>
        <time>2015-06-22T05:39:43Z</time>
      </trkpt>
      <trkpt lat="42.02777" lon="9.18663">
        <ele>1286.6</ele>
        <time>2015-06-22T05:39:55Z</time>
      </trkpt>
      <trkpt lat="42.02775" lon="9.18652">
        <ele>1288</ele>
        <time>2015-06-22T05:40:05Z</time>
      </trkpt>
      <trkpt lat="42.02773" lon="9.18643">
        <ele>1288.8</ele>
        <time>2015-06-22T05:40:14Z</time>
      </trkpt>
      <trkpt lat="42.02771" lon="9.18636">
        <ele>1289.6</ele>
        <time>2015-06-22T05:40:21Z</time>
      </trkpt>
      <trkpt lat="42.02766" lon="9.18625">
        <ele>1290.8</ele>
        <time>2015-06-22T05:40:31Z</time>
      </trkpt>
      <trkpt lat="42.02759" lon="9.18621">
        <ele>1292.2</ele>
        <time>2015-06-22T05:40:40Z</time>
      </trkpt>
      <trkpt lat="42.02756" lon="9.18617">
        <ele>1293.2</ele>
        <time>2015-06-22T05:40:49Z</time>
      </trkpt>
      <trkpt lat="42.02754" lon="9.18611">
        <ele>1293.8</ele>
        <time>2015-06-22T05:40:56Z</time>
      </trkpt>
      <trkpt lat="42.02755" lon="9.18598">
        <ele>1295.4</ele>
        <time>2015-06-22T05:41:07Z</time>
      </trkpt>
      <trkpt lat="42.02754" lon="9.18587">
        <ele>1296.6</ele>
        <time>2015-06-22T05:41:20Z</time>
      </trkpt>
      <trkpt lat="42.02751" lon="9.18581">
        <ele>1297.4</ele>
        <time>2015-06-22T05:41:27Z</time>
      </trkpt>
      <trkpt lat="42.02747" lon="9.18575">
        <ele>1298.6</ele>
        <time>2015-06-22T05:41:35Z</time>
      </trkpt>
      <trkpt lat="42.02743" lon="9.18569">
        <ele>1299.6</ele>
        <time>2015-06-22T05:41:42Z</time>
      </trkpt>
      <trkpt lat="42.02738" lon="9.18554">
        <ele>1301.2</ele>
        <time>2015-06-22T05:41:54Z</time>
      </trkpt>
      <trkpt lat="42.02737" lon="9.18529">
        <ele>1302.6</ele>
        <time>2015-06-22T05:42:17Z</time>
      </trkpt>
      <trkpt lat="42.02734" lon="9.18516">
        <ele>1303.6</ele>
        <time>2015-06-22T05:42:33Z</time>
      </trkpt>
      <trkpt lat="42.02729" lon="9.18504">
        <ele>1304.8</ele>
        <time>2015-06-22T05:42:45Z</time>
      </trkpt>
      <trkpt lat="42.02723" lon="9.18493">
        <ele>1306</ele>
        <time>2015-06-22T05:42:55Z</time>
      </trkpt>
      <trkpt lat="42.0272" lon="9.18486">
        <ele>1307</ele>
        <time>2015-06-22T05:43:05Z</time>
      </trkpt>
      <trkpt lat="42.02719" lon="9.18476">
        <ele>1308</ele>
        <time>2015-06-22T05:43:13Z</time>
      </trkpt>
      <trkpt lat="42.02715" lon="9.18468">
        <ele>1308.4</ele>
        <time>2015-06-22T05:43:20Z</time>
      </trkpt>
      <trkpt lat="42.02714" lon="9.18459">
        <ele>1309.6</ele>
        <time>2015-06-22T05:43:31Z</time>
      </trkpt>
      <trkpt lat="42.02713" lon="9.1845">
        <ele>1310.6</ele>
        <time>2015-06-22T05:43:40Z</time>
      </trkpt>
      <trkpt lat="42.02711" lon="9.18441">
        <ele>1311.2</ele>
        <time>2015-06-22T05:43:48Z</time>
      </trkpt>
      <trkpt lat="42.02709" lon="9.18432">
        <ele>1312</ele>
        <time>2015-06-22T05:43:56Z</time>
      </trkpt>
      <trkpt lat="42.02706" lon="9.18419">
        <ele>1313</ele>
        <time>2015-06-22T05:44:08Z</time>
      </trkpt>
      <trkpt lat="42.02705" lon="9.18411">
        <ele>1313.6</ele>
        <time>2015-06-22T05:44:16Z</time>
      </trkpt>
      <trkpt lat="42.02704" lon="9.184">
        <ele>1314.2</ele>
        <time>2015-06-22T05:44:25Z</time>
      </trkpt>
      <trkpt lat="42.02702" lon="9.18391">
        <ele>1315</ele>
        <time>2015-06-22T05:44:34Z</time>
      </trkpt>
      <trkpt lat="42.02702" lon="9.1839">
        <ele>1315.2</ele>
        <time>2015-06-22T05:44:35Z</time>
      </trkpt>
      <trkpt lat="42.02702" lon="9.18389">
        <ele>1315.4</ele>
        <time>2015-06-22T05:44:37Z</time>
      </trkpt>
      <trkpt lat="42.02702" lon="9.18386">
        <ele>1315.8</ele>
        <time>2015-06-22T05:44:40Z</time>
      </trkpt>
      <trkpt lat="42.02703" lon="9.18378">
        <ele>1316.4</ele>
        <time>2015-06-22T05:44:48Z</time>
      </trkpt>
      <trkpt lat="42.02701" lon="9.18369">
        <ele>1317</ele>
        <time>2015-06-22T05:44:57Z</time>
      </trkpt>
      <trkpt lat="42.027" lon="9.18363">
        <ele>1318</ele>
        <time>2015-06-22T05:45:03Z</time>
      </trkpt>
      <trkpt lat="42.02699" lon="9.18361">
        <ele>1318.4</ele>
        <time>2015-06-22T05:45:07Z</time>
      </trkpt>
      <trkpt lat="42.027" lon="9.18351">
        <ele>1319.6</ele>
        <time>2015-06-22T05:45:17Z</time>
      </trkpt>
      <trkpt lat="42.027" lon="9.1834">
        <ele>1320.6</ele>
        <time>2015-06-22T05:45:29Z</time>
      </trkpt>
      <trkpt lat="42.02702" lon="9.18335">
        <ele>1321.2</ele>
        <time>2015-06-22T05:45:33Z</time>
      </trkpt>
      <trkpt lat="42.02704" lon="9.18329">
        <ele>1321.8</ele>
        <time>2015-06-22T05:45:39Z</time>
      </trkpt>
      <trkpt lat="42.02704" lon="9.18328">
        <ele>1321.8</ele>
        <time>2015-06-22T05:45:40Z</time>
      </trkpt>
      <trkpt lat="42.02705" lon="9.18325">
        <ele>1322.2</ele>
        <time>2015-06-22T05:45:44Z</time>
      </trkpt>
      <trkpt lat="42.02705" lon="9.1832">
        <ele>1322.8</ele>
        <time>2015-06-22T05:45:48Z</time>
      </trkpt>
      <trkpt lat="42.02708" lon="9.18312">
        <ele>1324</ele>
        <time>2015-06-22T05:45:58Z</time>
      </trkpt>
      <trkpt lat="42.02711" lon="9.18306">
        <ele>1324.8</ele>
        <time>2015-06-22T05:46:06Z</time>
      </trkpt>
      <trkpt lat="42.02713" lon="9.18297">
        <ele>1326.4</ele>
        <time>2015-06-22T05:46:16Z</time>
      </trkpt>
      <trkpt lat="42.02716" lon="9.18281">
        <ele>1327.4</ele>
        <time>2015-06-22T05:46:33Z</time>
      </trkpt>
      <trkpt lat="42.02718" lon="9.1827">
        <ele>1328.4</ele>
        <time>2015-06-22T05:46:44Z</time>
      </trkpt>
      <trkpt lat="42.02717" lon="9.1826">
        <ele>1329.4</ele>
        <time>2015-06-22T05:46:57Z</time>
      </trkpt>
      <trkpt lat="42.02717" lon="9.18253">
        <ele>1330.8</ele>
        <time>2015-06-22T05:47:07Z</time>
      </trkpt>
      <trkpt lat="42.02716" lon="9.18244">
        <ele>1331.6</ele>
        <time>2015-06-22T05:47:16Z</time>
      </trkpt>
      <trkpt lat="42.02719" lon="9.18235">
        <ele>1333</ele>
        <time>2015-06-22T05:47:26Z</time>
      </trkpt>
      <trkpt lat="42.02722" lon="9.18229">
        <ele>1334.2</ele>
        <time>2015-06-22T05:47:35Z</time>
      </trkpt>
      <trkpt lat="42.02722" lon="9.18223">
        <ele>1335.2</ele>
        <time>2015-06-22T05:47:43Z</time>
      </trkpt>
      <trkpt lat="42.02723" lon="9.18217">
        <ele>1336.4</ele>
        <time>2015-06-22T05:47:51Z</time>
      </trkpt>
      <trkpt lat="42.02724" lon="9.18208">
        <ele>1337.4</ele>
        <time>2015-06-22T05:48:01Z</time>
      </trkpt>
      <trkpt lat="42.02728" lon="9.18198">
        <ele>1338.6</ele>
        <time>2015-06-22T05:48:12Z</time>
      </trkpt>
      <trkpt lat="42.0273" lon="9.1819">
        <ele>1340</ele>
        <time>2015-06-22T05:48:22Z</time>
      </trkpt>
      <trkpt lat="42.02732" lon="9.18184">
        <ele>1341</ele>
        <time>2015-06-22T05:48:31Z</time>
      </trkpt>
      <trkpt lat="42.02732" lon="9.18179">
        <ele>1342</ele>
        <time>2015-06-22T05:48:40Z</time>
      </trkpt>
      <trkpt lat="42.02731" lon="9.18173">
        <ele>1343.4</ele>
        <time>2015-06-22T05:48:50Z</time>
      </trkpt>
      <trkpt lat="42.02732" lon="9.18163">
        <ele>1344.6</ele>
        <time>2015-06-22T05:49:01Z</time>
      </trkpt>
      <trkpt lat="42.02733" lon="9.18149">
        <ele>1345.8</ele>
        <time>2015-06-22T05:49:12Z</time>
      </trkpt>
      <trkpt lat="42.02736" lon="9.18119">
        <ele>1346.8</ele>
        <time>2015-06-22T05:49:39Z</time>
      </trkpt>
      <trkpt lat="42.02728" lon="9.18067">
        <ele>1347.4</ele>
        <time>2015-06-22T05:50:16Z</time>
      </trkpt>
      <trkpt lat="42.02724" lon="9.18062">
        <ele>1348</ele>
        <time>2015-06-22T05:50:24Z</time>
      </trkpt>
      <trkpt lat="42.02722" lon="9.18059">
        <ele>1348.6</ele>
        <time>2015-06-22T05:50:28Z</time>
      </trkpt>
      <trkpt lat="42.02722" lon="9.18054">
        <ele>1349.8</ele>
        <time>2015-06-22T05:50:34Z</time>
      </trkpt>
      <trkpt lat="42.02728" lon="9.18041">
        <ele>1351.6</ele>
        <time>2015-06-22T05:50:48Z</time>
      </trkpt>
      <trkpt lat="42.02731" lon="9.18038">
        <ele>1352.2</ele>
        <time>2015-06-22T05:50:54Z</time>
      </trkpt>
      <trkpt lat="42.02734" lon="9.18032">
        <ele>1353.6</ele>
        <time>2015-06-22T05:51:03Z</time>
      </trkpt>
      <trkpt lat="42.02735" lon="9.18028">
        <ele>1354.2</ele>
        <time>2015-06-22T05:51:10Z</time>
      </trkpt>
      <trkpt lat="42.02737" lon="9.18023">
        <ele>1355.8</ele>
        <time>2015-06-22T05:51:18Z</time>
      </trkpt>
      <trkpt lat="42.02739" lon="9.18018">
        <ele>1356.8</ele>
        <time>2015-06-22T05:51:26Z</time>
      </trkpt>
      <trkpt lat="42.02739" lon="9.18013">
        <ele>1357.6</ele>
        <time>2015-06-22T05:51:32Z</time>
      </trkpt>
      <trkpt lat="42.02736" lon="9.18005">
        <ele>1358.8</ele>
        <time>2015-06-22T05:51:40Z</time>
      </trkpt>
      <trkpt lat="42.02738" lon="9.17997">
        <ele>1360</ele>
        <time>2015-06-22T05:51:49Z</time>
      </trkpt>
      <trkpt lat="42.02739" lon="9.17988">
        <ele>1361</ele>
        <time>2015-06-22T05:51:59Z</time>
      </trkpt>
      <trkpt lat="42.02744" lon="9.17978">
        <ele>1362.4</ele>
        <time>2015-06-22T05:52:11Z</time>
      </trkpt>
      <trkpt lat="42.02743" lon="9.1797">
        <ele>1363.2</ele>
        <time>2015-06-22T05:52:20Z</time>
      </trkpt>
      <trkpt lat="42.02745" lon="9.17964">
        <ele>1364.4</ele>
        <time>2015-06-22T05:52:29Z</time>
      </trkpt>
      <trkpt lat="42.02746" lon="9.17955">
        <ele>1365.6</ele>
        <time>2015-06-22T05:52:38Z</time>
      </trkpt>
      <trkpt lat="42.02733" lon="9.1791">
        <ele>1365.6</ele>
        <time>2015-06-22T05:53:21Z</time>
      </trkpt>
      <trkpt lat="42.02727" lon="9.17895">
        <ele>1364.8</ele>
        <time>2015-06-22T05:53:34Z</time>
      </trkpt>
      <trkpt lat="42.02723" lon="9.17869">
        <ele>1364.4</ele>
        <time>2015-06-22T05:53:56Z</time>
      </trkpt>
      <trkpt lat="42.02718" lon="9.17855">
        <ele>1365.6</ele>
        <time>2015-06-22T05:54:05Z</time>
      </trkpt>
      <trkpt lat="42.02715" lon="9.1784">
        <ele>1366.6</ele>
        <time>2015-06-22T05:54:17Z</time>
      </trkpt>
      <trkpt lat="42.02714" lon="9.17829">
        <ele>1367.8</ele>
        <time>2015-06-22T05:54:29Z</time>
      </trkpt>
      <trkpt lat="42.02715" lon="9.17816">
        <ele>1368.6</ele>
        <time>2015-06-22T05:54:41Z</time>
      </trkpt>
      <trkpt lat="42.02713" lon="9.17804">
        <ele>1369.4</ele>
        <time>2015-06-22T05:54:49Z</time>
      </trkpt>
      <trkpt lat="42.02714" lon="9.17798">
        <ele>1370.4</ele>
        <time>2015-06-22T05:54:56Z</time>
      </trkpt>
      <trkpt lat="42.02716" lon="9.17792">
        <ele>1371.2</ele>
        <time>2015-06-22T05:55:04Z</time>
      </trkpt>
      <trkpt lat="42.02719" lon="9.17787">
        <ele>1372.4</ele>
        <time>2015-06-22T05:55:11Z</time>
      </trkpt>
      <trkpt lat="42.02718" lon="9.1778">
        <ele>1373.2</ele>
        <time>2015-06-22T05:55:17Z</time>
      </trkpt>
      <trkpt lat="42.02718" lon="9.17777">
        <ele>1373.8</ele>
        <time>2015-06-22T05:55:20Z</time>
      </trkpt>
      <trkpt lat="42.02719" lon="9.17766">
        <ele>1375</ele>
        <time>2015-06-22T05:55:30Z</time>
      </trkpt>
      <trkpt lat="42.0272" lon="9.17735">
        <ele>1376.4</ele>
        <time>2015-06-22T05:55:57Z</time>
      </trkpt>
      <trkpt lat="42.02725" lon="9.17693">
        <ele>1377</ele>
        <time>2015-06-22T05:56:29Z</time>
      </trkpt>
      <trkpt lat="42.02729" lon="9.17679">
        <ele>1377.8</ele>
        <time>2015-06-22T05:56:40Z</time>
      </trkpt>
      <trkpt lat="42.02731" lon="9.17668">
        <ele>1378.8</ele>
        <time>2015-06-22T05:56:50Z</time>
      </trkpt>
      <trkpt lat="42.02731" lon="9.17659">
        <ele>1379.8</ele>
        <time>2015-06-22T05:57:00Z</time>
      </trkpt>
      <trkpt lat="42.02732" lon="9.17654">
        <ele>1380.6</ele>
        <time>2015-06-22T05:57:07Z</time>
      </trkpt>
      <trkpt lat="42.02733" lon="9.17643">
        <ele>1381.8</ele>
        <time>2015-06-22T05:57:17Z</time>
      </trkpt>
      <trkpt lat="42.02735" lon="9.17629">
        <ele>1383.4</ele>
        <time>2015-06-22T05:57:30Z</time>
      </trkpt>
      <trkpt lat="42.02737" lon="9.17627">
        <ele>1383.4</ele>
        <time>2015-06-22T05:57:32Z</time>
      </trkpt>
      <trkpt lat="42.0274" lon="9.17612">
        <ele>1384.4</ele>
        <time>2015-06-22T05:57:47Z</time>
      </trkpt>
      <trkpt lat="42.0274" lon="9.17596">
        <ele>1385.8</ele>
        <time>2015-06-22T05:58:05Z</time>
      </trkpt>
      <trkpt lat="42.02739" lon="9.17587">
        <ele>1386.2</ele>
        <time>2015-06-22T05:58:15Z</time>
      </trkpt>
      <trkpt lat="42.0274" lon="9.17577">
        <ele>1387</ele>
        <time>2015-06-22T05:58:23Z</time>
      </trkpt>
      <trkpt lat="42.0274" lon="9.17576">
        <ele>1387.2</ele>
        <time>2015-06-22T05:58:24Z</time>
      </trkpt>
      <trkpt lat="42.0274" lon="9.17575">
        <ele>1387.2</ele>
        <time>2015-06-22T05:58:25Z</time>
      </trkpt>
      <trkpt lat="42.02741" lon="9.17568">
        <ele>1388.2</ele>
        <time>2015-06-22T05:58:33Z</time>
      </trkpt>
      <trkpt lat="42.02742" lon="9.17561">
        <ele>1389</ele>
        <time>2015-06-22T05:58:39Z</time>
      </trkpt>
      <trkpt lat="42.02739" lon="9.17555">
        <ele>1390.4</ele>
        <time>2015-06-22T05:58:48Z</time>
      </trkpt>
      <trkpt lat="42.02742" lon="9.17545">
        <ele>1391.2</ele>
        <time>2015-06-22T05:59:01Z</time>
      </trkpt>
      <trkpt lat="42.02743" lon="9.17533">
        <ele>1392.8</ele>
        <time>2015-06-22T05:59:13Z</time>
      </trkpt>
      <trkpt lat="42.02746" lon="9.17527">
        <ele>1393.4</ele>
        <time>2015-06-22T05:59:20Z</time>
      </trkpt>
      <trkpt lat="42.02748" lon="9.17521">
        <ele>1394.4</ele>
        <time>2015-06-22T05:59:27Z</time>
      </trkpt>
      <trkpt lat="42.02751" lon="9.17511">
        <ele>1395.6</ele>
        <time>2015-06-22T05:59:38Z</time>
      </trkpt>
      <trkpt lat="42.02752" lon="9.17509">
        <ele>1395.6</ele>
        <time>2015-06-22T05:59:40Z</time>
      </trkpt>
      <trkpt lat="42.02753" lon="9.17506">
        <ele>1396.2</ele>
        <time>2015-06-22T05:59:43Z</time>
      </trkpt>
      <trkpt lat="42.02753" lon="9.17503">
        <ele>1396.6</ele>
        <time>2015-06-22T05:59:46Z</time>
      </trkpt>
      <trkpt lat="42.02752" lon="9.17499">
        <ele>1397.6</ele>
        <time>2015-06-22T05:59:53Z</time>
      </trkpt>
      <trkpt lat="42.02756" lon="9.17492">
        <ele>1399</ele>
        <time>2015-06-22T06:00:05Z</time>
      </trkpt>
      <trkpt lat="42.02757" lon="9.17483">
        <ele>1399.6</ele>
        <time>2015-06-22T06:00:13Z</time>
      </trkpt>
      <trkpt lat="42.02759" lon="9.17472">
        <ele>1401.2</ele>
        <time>2015-06-22T06:00:22Z</time>
      </trkpt>
      <trkpt lat="42.02761" lon="9.17464">
        <ele>1402.2</ele>
        <time>2015-06-22T06:00:32Z</time>
      </trkpt>
      <trkpt lat="42.0276" lon="9.17452">
        <ele>1403.2</ele>
        <time>2015-06-22T06:00:45Z</time>
      </trkpt>
      <trkpt lat="42.02763" lon="9.17443">
        <ele>1404.2</ele>
        <time>2015-06-22T06:00:57Z</time>
      </trkpt>
      <trkpt lat="42.02764" lon="9.17428">
        <ele>1405.6</ele>
        <time>2015-06-22T06:01:13Z</time>
      </trkpt>
      <trkpt lat="42.02763" lon="9.17421">
        <ele>1406.4</ele>
        <time>2015-06-22T06:01:21Z</time>
      </trkpt>
      <trkpt lat="42.02766" lon="9.17407">
        <ele>1407.4</ele>
        <time>2015-06-22T06:01:35Z</time>
      </trkpt>
      <trkpt lat="42.02769" lon="9.17398">
        <ele>1408.4</ele>
        <time>2015-06-22T06:01:44Z</time>
      </trkpt>
      <trkpt lat="42.02769" lon="9.17392">
        <ele>1409</ele>
        <time>2015-06-22T06:01:49Z</time>
      </trkpt>
      <trkpt lat="42.02768" lon="9.1738">
        <ele>1410.8</ele>
        <time>2015-06-22T06:02:01Z</time>
      </trkpt>
      <trkpt lat="42.02758" lon="9.17349">
        <ele>1412.4</ele>
        <time>2015-06-22T06:02:28Z</time>
      </trkpt>
      <trkpt lat="42.02753" lon="9.17334">
        <ele>1412.8</ele>
        <time>2015-06-22T06:02:42Z</time>
      </trkpt>
      <trkpt lat="42.02746" lon="9.17318">
        <ele>1413.8</ele>
        <time>2015-06-22T06:02:58Z</time>
      </trkpt>
      <trkpt lat="42.02746" lon="9.1731">
        <ele>1415</ele>
        <time>2015-06-22T06:03:06Z</time>
      </trkpt>
      <trkpt lat="42.02746" lon="9.17303">
        <ele>1415.6</ele>
        <time>2015-06-22T06:03:12Z</time>
      </trkpt>
      <trkpt lat="42.02745" lon="9.17297">
        <ele>1416.6</ele>
        <time>2015-06-22T06:03:18Z</time>
      </trkpt>
      <trkpt lat="42.02744" lon="9.1728">
        <ele>1418.4</ele>
        <time>2015-06-22T06:03:37Z</time>
      </trkpt>
      <trkpt lat="42.0274" lon="9.17272">
        <ele>1419.2</ele>
        <time>2015-06-22T06:03:47Z</time>
      </trkpt>
      <trkpt lat="42.02739" lon="9.17263">
        <ele>1419.6</ele>
        <time>2015-06-22T06:03:55Z</time>
      </trkpt>
      <trkpt lat="42.02738" lon="9.1725">
        <ele>1420.4</ele>
        <time>2015-06-22T06:04:08Z</time>
      </trkpt>
      <trkpt lat="42.02736" lon="9.17244">
        <ele>1420.6</ele>
        <time>2015-06-22T06:04:11Z</time>
      </trkpt>
      <trkpt lat="42.02735" lon="9.1724">
        <ele>1420.8</ele>
        <time>2015-06-22T06:04:14Z</time>
      </trkpt>
      <trkpt lat="42.0273" lon="9.17218">
        <ele>1421.6</ele>
        <time>2015-06-22T06:04:33Z</time>
      </trkpt>
      <trkpt lat="42.0273" lon="9.17217">
        <ele>1421.6</ele>
        <time>2015-06-22T06:04:34Z</time>
      </trkpt>
      <trkpt lat="42.0273" lon="9.17205">
        <ele>1422.6</ele>
        <time>2015-06-22T06:04:47Z</time>
      </trkpt>
      <trkpt lat="42.02729" lon="9.17201">
        <ele>1422.8</ele>
        <time>2015-06-22T06:04:51Z</time>
      </trkpt>
      <trkpt lat="42.02728" lon="9.17195">
        <ele>1423.4</ele>
        <time>2015-06-22T06:04:57Z</time>
      </trkpt>
      <trkpt lat="42.02727" lon="9.17187">
        <ele>1424.4</ele>
        <time>2015-06-22T06:05:06Z</time>
      </trkpt>
      <trkpt lat="42.02723" lon="9.17177">
        <ele>1425.6</ele>
        <time>2015-06-22T06:05:17Z</time>
      </trkpt>
      <trkpt lat="42.02713" lon="9.17157">
        <ele>1426.4</ele>
        <time>2015-06-22T06:05:38Z</time>
      </trkpt>
      <trkpt lat="42.0271" lon="9.17144">
        <ele>1426.8</ele>
        <time>2015-06-22T06:05:50Z</time>
      </trkpt>
      <trkpt lat="42.02705" lon="9.17126">
        <ele>1427.8</ele>
        <time>2015-06-22T06:06:09Z</time>
      </trkpt>
      <trkpt lat="42.0272" lon="9.1709">
        <ele>1428.8</ele>
        <time>2015-06-22T06:06:43Z</time>
      </trkpt>
      <trkpt lat="42.02732" lon="9.17056">
        <ele>1428</ele>
        <time>2015-06-22T06:07:20Z</time>
      </trkpt>
      <trkpt lat="42.02731" lon="9.17029">
        <ele>1427.2</ele>
        <time>2015-06-22T06:08:09Z</time>
      </trkpt>
      <trkpt lat="42.02725" lon="9.17001">
        <ele>1426.2</ele>
        <time>2015-06-22T06:08:34Z</time>
      </trkpt>
      <trkpt lat="42.02721" lon="9.1698">
        <ele>1425</ele>
        <time>2015-06-22T06:08:51Z</time>
      </trkpt>
      <trkpt lat="42.0272" lon="9.16977">
        <ele>1425</ele>
        <time>2015-06-22T06:08:54Z</time>
      </trkpt>
      <trkpt lat="42.02719" lon="9.1697">
        <ele>1424.8</ele>
        <time>2015-06-22T06:09:00Z</time>
      </trkpt>
      <trkpt lat="42.02715" lon="9.16953">
        <ele>1425</ele>
        <time>2015-06-22T06:09:12Z</time>
      </trkpt>
      <trkpt lat="42.0272" lon="9.16905">
        <ele>1424</ele>
        <time>2015-06-22T06:09:41Z</time>
      </trkpt>
      <trkpt lat="42.02721" lon="9.16898">
        <ele>1424</ele>
        <time>2015-06-22T06:09:45Z</time>
      </trkpt>
      <trkpt lat="42.02715" lon="9.16862">
        <ele>1423.2</ele>
        <time>2015-06-22T06:10:17Z</time>
      </trkpt>
      <trkpt lat="42.02718" lon="9.16855">
        <ele>1423</ele>
        <time>2015-06-22T06:10:23Z</time>
      </trkpt>
      <trkpt lat="42.02718" lon="9.16847">
        <ele>1422.8</ele>
        <time>2015-06-22T06:10:29Z</time>
      </trkpt>
      <trkpt lat="42.02716" lon="9.16837">
        <ele>1422.4</ele>
        <time>2015-06-22T06:10:37Z</time>
      </trkpt>
      <trkpt lat="42.02714" lon="9.16829">
        <ele>1421.8</ele>
        <time>2015-06-22T06:10:45Z</time>
      </trkpt>
      <trkpt lat="42.02708" lon="9.16811">
        <ele>1420.2</ele>
        <time>2015-06-22T06:11:02Z</time>
      </trkpt>
      <trkpt lat="42.0271" lon="9.16807">
        <ele>1420</ele>
        <time>2015-06-22T06:11:06Z</time>
      </trkpt>
      <trkpt lat="42.0272" lon="9.16783">
        <ele>1419.2</ele>
        <time>2015-06-22T06:11:23Z</time>
      </trkpt>
      <trkpt lat="42.02725" lon="9.16774">
        <ele>1418.4</ele>
        <time>2015-06-22T06:11:31Z</time>
      </trkpt>
      <trkpt lat="42.02726" lon="9.16763">
        <ele>1417.2</ele>
        <time>2015-06-22T06:11:42Z</time>
      </trkpt>
      <trkpt lat="42.02727" lon="9.16756">
        <ele>1416.6</ele>
        <time>2015-06-22T06:11:49Z</time>
      </trkpt>
      <trkpt lat="42.02726" lon="9.1675">
        <ele>1416</ele>
        <time>2015-06-22T06:11:55Z</time>
      </trkpt>
      <trkpt lat="42.02729" lon="9.16737">
        <ele>1414.2</ele>
        <time>2015-06-22T06:12:05Z</time>
      </trkpt>
      <trkpt lat="42.02729" lon="9.16726">
        <ele>1413.4</ele>
        <time>2015-06-22T06:12:15Z</time>
      </trkpt>
      <trkpt lat="42.02728" lon="9.16707">
        <ele>1412.4</ele>
        <time>2015-06-22T06:12:28Z</time>
      </trkpt>
      <trkpt lat="42.02728" lon="9.16698">
        <ele>1411.6</ele>
        <time>2015-06-22T06:12:36Z</time>
      </trkpt>
      <trkpt lat="42.02727" lon="9.16694">
        <ele>1411.4</ele>
        <time>2015-06-22T06:12:39Z</time>
      </trkpt>
      <trkpt lat="42.02726" lon="9.1669">
        <ele>1411</ele>
        <time>2015-06-22T06:12:43Z</time>
      </trkpt>
      <trkpt lat="42.02727" lon="9.16686">
        <ele>1410.6</ele>
        <time>2015-06-22T06:12:46Z</time>
      </trkpt>
      <trkpt lat="42.02726" lon="9.16682">
        <ele>1410</ele>
        <time>2015-06-22T06:12:50Z</time>
      </trkpt>
      <trkpt lat="42.02726" lon="9.16679">
        <ele>1409.8</ele>
        <time>2015-06-22T06:12:52Z</time>
      </trkpt>
      <trkpt lat="42.02726" lon="9.16678">
        <ele>1409.6</ele>
        <time>2015-06-22T06:12:53Z</time>
      </trkpt>
      <trkpt lat="42.02727" lon="9.16672">
        <ele>1408.4</ele>
        <time>2015-06-22T06:12:59Z</time>
      </trkpt>
      <trkpt lat="42.02728" lon="9.16666">
        <ele>1407.8</ele>
        <time>2015-06-22T06:13:04Z</time>
      </trkpt>
      <trkpt lat="42.02728" lon="9.16661">
        <ele>1407.2</ele>
        <time>2015-06-22T06:13:08Z</time>
      </trkpt>
      <trkpt lat="42.02727" lon="9.16652">
        <ele>1406.4</ele>
        <time>2015-06-22T06:13:15Z</time>
      </trkpt>
      <trkpt lat="42.02727" lon="9.16651">
        <ele>1406.4</ele>
        <time>2015-06-22T06:13:16Z</time>
      </trkpt>
      <trkpt lat="42.02727" lon="9.16647">
        <ele>1406</ele>
        <time>2015-06-22T06:13:19Z</time>
      </trkpt>
      <trkpt lat="42.02727" lon="9.16641">
        <ele>1405.6</ele>
        <time>2015-06-22T06:13:23Z</time>
      </trkpt>
      <trkpt lat="42.02725" lon="9.1663">
        <ele>1404</ele>
        <time>2015-06-22T06:13:33Z</time>
      </trkpt>
      <trkpt lat="42.02724" lon="9.16627">
        <ele>1403.6</ele>
        <time>2015-06-22T06:13:36Z</time>
      </trkpt>
      <trkpt lat="42.02725" lon="9.16611">
        <ele>1403</ele>
        <time>2015-06-22T06:13:48Z</time>
      </trkpt>
      <trkpt lat="42.02721" lon="9.16586">
        <ele>1401.8</ele>
        <time>2015-06-22T06:14:10Z</time>
      </trkpt>
      <trkpt lat="42.02723" lon="9.16567">
        <ele>1401.4</ele>
        <time>2015-06-22T06:14:25Z</time>
      </trkpt>
      <trkpt lat="42.0272" lon="9.16548">
        <ele>1401</ele>
        <time>2015-06-22T06:14:41Z</time>
      </trkpt>
      <trkpt lat="42.02714" lon="9.16524">
        <ele>1400.4</ele>
        <time>2015-06-22T06:15:02Z</time>
      </trkpt>
      <trkpt lat="42.02714" lon="9.16513">
        <ele>1400</ele>
        <time>2015-06-22T06:15:12Z</time>
      </trkpt>
      <trkpt lat="42.02713" lon="9.16504">
        <ele>1399.4</ele>
        <time>2015-06-22T06:15:20Z</time>
      </trkpt>
      <trkpt lat="42.02713" lon="9.16502">
        <ele>1399.2</ele>
        <time>2015-06-22T06:15:23Z</time>
      </trkpt>
      <trkpt lat="42.02718" lon="9.16474">
        <ele>1398.2</ele>
        <time>2015-06-22T06:15:45Z</time>
      </trkpt>
      <trkpt lat="42.0272" lon="9.16465">
        <ele>1397.4</ele>
        <time>2015-06-22T06:15:52Z</time>
      </trkpt>
      <trkpt lat="42.02721" lon="9.16458">
        <ele>1396.4</ele>
        <time>2015-06-22T06:15:59Z</time>
      </trkpt>
      <trkpt lat="42.02722" lon="9.16451">
        <ele>1395.4</ele>
        <time>2015-06-22T06:16:05Z</time>
      </trkpt>
      <trkpt lat="42.02722" lon="9.16445">
        <ele>1394.6</ele>
        <time>2015-06-22T06:16:10Z</time>
      </trkpt>
      <trkpt lat="42.02721" lon="9.16439">
        <ele>1393.4</ele>
        <time>2015-06-22T06:16:15Z</time>
      </trkpt>
      <trkpt lat="42.02722" lon="9.16432">
        <ele>1392.2</ele>
        <time>2015-06-22T06:16:21Z</time>
      </trkpt>
      <trkpt lat="42.02722" lon="9.16424">
        <ele>1391</ele>
        <time>2015-06-22T06:16:28Z</time>
      </trkpt>
      <trkpt lat="42.02721" lon="9.16412">
        <ele>1389.6</ele>
        <time>2015-06-22T06:16:39Z</time>
      </trkpt>
      <trkpt lat="42.02719" lon="9.16407">
        <ele>1389.2</ele>
        <time>2015-06-22T06:16:44Z</time>
      </trkpt>
      <trkpt lat="42.0272" lon="9.16406">
        <ele>1389</ele>
        <time>2015-06-22T06:16:46Z</time>
      </trkpt>
      <trkpt lat="42.02718" lon="9.16401">
        <ele>1388.8</ele>
        <time>2015-06-22T06:16:51Z</time>
      </trkpt>
      <trkpt lat="42.02717" lon="9.16398">
        <ele>1388.8</ele>
        <time>2015-06-22T06:16:53Z</time>
      </trkpt>
      <trkpt lat="42.02714" lon="9.16396">
        <ele>1388.4</ele>
        <time>2015-06-22T06:16:55Z</time>
      </trkpt>
      <trkpt lat="42.0271" lon="9.16385">
        <ele>1387.2</ele>
        <time>2015-06-22T06:17:05Z</time>
      </trkpt>
      <trkpt lat="42.02709" lon="9.16384">
        <ele>1387</ele>
        <time>2015-06-22T06:17:08Z</time>
      </trkpt>
      <trkpt lat="42.02718" lon="9.16372">
        <ele>1387.2</ele>
        <time>2015-06-22T06:17:48Z</time>
      </trkpt>
      <trkpt lat="42.02737" lon="9.16364">
        <ele>1386.4</ele>
        <time>2015-06-22T06:18:05Z</time>
      </trkpt>
      <trkpt lat="42.02743" lon="9.16347">
        <ele>1385.4</ele>
        <time>2015-06-22T06:18:27Z</time>
      </trkpt>
      <trkpt lat="42.02747" lon="9.16334">
        <ele>1384.8</ele>
        <time>2015-06-22T06:18:58Z</time>
      </trkpt>
      <trkpt lat="42.02749" lon="9.16325">
        <ele>1384.2</ele>
        <time>2015-06-22T06:19:04Z</time>
      </trkpt>
      <trkpt lat="42.02744" lon="9.16266">
        <ele>1384.2</ele>
        <time>2015-06-22T06:19:44Z</time>
      </trkpt>
      <trkpt lat="42.0274" lon="9.16227">
        <ele>1385.2</ele>
        <time>2015-06-22T06:20:09Z</time>
      </trkpt>
      <trkpt lat="42.02735" lon="9.16211">
        <ele>1386</ele>
        <time>2015-06-22T06:20:30Z</time>
      </trkpt>
      <trkpt lat="42.02733" lon="9.16208">
        <ele>1386.2</ele>
        <time>2015-06-22T06:20:36Z</time>
      </trkpt>
      <trkpt lat="42.0273" lon="9.16196">
        <ele>1387.6</ele>
        <time>2015-06-22T06:20:49Z</time>
      </trkpt>
      <trkpt lat="42.0273" lon="9.16181">
        <ele>1388.6</ele>
        <time>2015-06-22T06:21:07Z</time>
      </trkpt>
      <trkpt lat="42.02729" lon="9.16173">
        <ele>1389.4</ele>
        <time>2015-06-22T06:21:15Z</time>
      </trkpt>
      <trkpt lat="42.02726" lon="9.16168">
        <ele>1389.8</ele>
        <time>2015-06-22T06:21:19Z</time>
      </trkpt>
      <trkpt lat="42.02725" lon="9.16162">
        <ele>1390.6</ele>
        <time>2015-06-22T06:21:25Z</time>
      </trkpt>
      <trkpt lat="42.02726" lon="9.1615">
        <ele>1392</ele>
        <time>2015-06-22T06:21:42Z</time>
      </trkpt>
      <trkpt lat="42.02725" lon="9.16144">
        <ele>1393</ele>
        <time>2015-06-22T06:21:50Z</time>
      </trkpt>
      <trkpt lat="42.02722" lon="9.16141">
        <ele>1393.8</ele>
        <time>2015-06-22T06:21:58Z</time>
      </trkpt>
      <trkpt lat="42.02717" lon="9.16136">
        <ele>1395.2</ele>
        <time>2015-06-22T06:22:08Z</time>
      </trkpt>
      <trkpt lat="42.02715" lon="9.16132">
        <ele>1396</ele>
        <time>2015-06-22T06:22:14Z</time>
      </trkpt>
      <trkpt lat="42.02709" lon="9.16126">
        <ele>1397.4</ele>
        <time>2015-06-22T06:22:24Z</time>
      </trkpt>
      <trkpt lat="42.02704" lon="9.16113">
        <ele>1398</ele>
        <time>2015-06-22T06:22:41Z</time>
      </trkpt>
      <trkpt lat="42.02699" lon="9.16103">
        <ele>1396.6</ele>
        <time>2015-06-22T06:22:51Z</time>
      </trkpt>
      <trkpt lat="42.02693" lon="9.16096">
        <ele>1395.8</ele>
        <time>2015-06-22T06:23:01Z</time>
      </trkpt>
      <trkpt lat="42.0269" lon="9.16093">
        <ele>1395.6</ele>
        <time>2015-06-22T06:23:14Z</time>
      </trkpt>
      <trkpt lat="42.02675" lon="9.16054">
        <ele>1395.6</ele>
        <time>2015-06-22T06:24:10Z</time>
      </trkpt>
      <trkpt lat="42.02675" lon="9.16051">
        <ele>1396</ele>
        <time>2015-06-22T06:24:36Z</time>
      </trkpt>
      <trkpt lat="42.02671" lon="9.16045">
        <ele>1397</ele>
        <time>2015-06-22T06:25:02Z</time>
      </trkpt>
      <trkpt lat="42.0266" lon="9.16043">
        <ele>1397.4</ele>
        <time>2015-06-22T06:25:14Z</time>
      </trkpt>
      <trkpt lat="42.0266" lon="9.16045">
        <ele>1397.6</ele>
        <time>2015-06-22T06:25:17Z</time>
      </trkpt>
      <trkpt lat="42.0266" lon="9.16045">
        <ele>1398.8</ele>
        <time>2015-06-22T06:25:26Z</time>
      </trkpt>
      <trkpt lat="42.02658" lon="9.16043">
        <ele>1399.8</ele>
        <time>2015-06-22T06:25:35Z</time>
      </trkpt>
      <trkpt lat="42.02654" lon="9.16034">
        <ele>1401.2</ele>
        <time>2015-06-22T06:25:45Z</time>
      </trkpt>
      <trkpt lat="42.02651" lon="9.1603">
        <ele>1402</ele>
        <time>2015-06-22T06:25:53Z</time>
      </trkpt>
      <trkpt lat="42.02651" lon="9.16027">
        <ele>1402.6</ele>
        <time>2015-06-22T06:25:57Z</time>
      </trkpt>
      <trkpt lat="42.02651" lon="9.16025">
        <ele>1402.8</ele>
        <time>2015-06-22T06:25:59Z</time>
      </trkpt>
      <trkpt lat="42.02645" lon="9.16011">
        <ele>1404.8</ele>
        <time>2015-06-22T06:26:17Z</time>
      </trkpt>
      <trkpt lat="42.02648" lon="9.15998">
        <ele>1405.6</ele>
        <time>2015-06-22T06:26:31Z</time>
      </trkpt>
      <trkpt lat="42.02655" lon="9.15982">
        <ele>1405.8</ele>
        <time>2015-06-22T06:26:53Z</time>
      </trkpt>
      <trkpt lat="42.02658" lon="9.15979">
        <ele>1405</ele>
        <time>2015-06-22T06:26:58Z</time>
      </trkpt>
      <trkpt lat="42.02679" lon="9.15972">
        <ele>1402.8</ele>
        <time>2015-06-22T06:28:19Z</time>
      </trkpt>
      <trkpt lat="42.0268" lon="9.15972">
        <ele>1402.8</ele>
        <time>2015-06-22T06:28:20Z</time>
      </trkpt>
      <trkpt lat="42.02689" lon="9.15969">
        <ele>1402.6</ele>
        <time>2015-06-22T06:29:06Z</time>
      </trkpt>
      <trkpt lat="42.02691" lon="9.15973">
        <ele>1403.6</ele>
        <time>2015-06-22T06:29:13Z</time>
      </trkpt>
      <trkpt lat="42.02691" lon="9.15977">
        <ele>1405</ele>
        <time>2015-06-22T06:29:21Z</time>
      </trkpt>
      <trkpt lat="42.02692" lon="9.15978">
        <ele>1406.2</ele>
        <time>2015-06-22T06:29:29Z</time>
      </trkpt>
      <trkpt lat="42.02695" lon="9.15982">
        <ele>1407.4</ele>
        <time>2015-06-22T06:29:42Z</time>
      </trkpt>
      <trkpt lat="42.02699" lon="9.15983">
        <ele>1408.2</ele>
        <time>2015-06-22T06:29:51Z</time>
      </trkpt>
      <trkpt lat="42.027" lon="9.15979">
        <ele>1409.2</ele>
        <time>2015-06-22T06:29:58Z</time>
      </trkpt>
      <trkpt lat="42.02702" lon="9.15972">
        <ele>1410.6</ele>
        <time>2015-06-22T06:30:08Z</time>
      </trkpt>
      <trkpt lat="42.02707" lon="9.15965">
        <ele>1411.8</ele>
        <time>2015-06-22T06:30:22Z</time>
      </trkpt>
      <trkpt lat="42.02711" lon="9.15956">
        <ele>1413</ele>
        <time>2015-06-22T06:30:36Z</time>
      </trkpt>
      <trkpt lat="42.02715" lon="9.1595">
        <ele>1413.8</ele>
        <time>2015-06-22T06:30:48Z</time>
      </trkpt>
      <trkpt lat="42.0272" lon="9.15948">
        <ele>1414.8</ele>
        <time>2015-06-22T06:30:58Z</time>
      </trkpt>
      <trkpt lat="42.02726" lon="9.15946">
        <ele>1416</ele>
        <time>2015-06-22T06:31:08Z</time>
      </trkpt>
      <trkpt lat="42.02734" lon="9.15942">
        <ele>1417.4</ele>
        <time>2015-06-22T06:31:21Z</time>
      </trkpt>
      <trkpt lat="42.0274" lon="9.15942">
        <ele>1418</ele>
        <time>2015-06-22T06:31:30Z</time>
      </trkpt>
      <trkpt lat="42.02744" lon="9.15941">
        <ele>1419.4</ele>
        <time>2015-06-22T06:31:42Z</time>
      </trkpt>
      <trkpt lat="42.02747" lon="9.15938">
        <ele>1420.4</ele>
        <time>2015-06-22T06:31:52Z</time>
      </trkpt>
      <trkpt lat="42.02751" lon="9.15934">
        <ele>1421.4</ele>
        <time>2015-06-22T06:32:00Z</time>
      </trkpt>
      <trkpt lat="42.02773" lon="9.15935">
        <ele>1422.8</ele>
        <time>2015-06-22T06:32:31Z</time>
      </trkpt>
      <trkpt lat="42.02786" lon="9.15945">
        <ele>1423.4</ele>
        <time>2015-06-22T06:32:50Z</time>
      </trkpt>
      <trkpt lat="42.02809" lon="9.15985">
        <ele>1423.2</ele>
        <time>2015-06-22T06:33:47Z</time>
      </trkpt>
      <trkpt lat="42.0281" lon="9.15992">
        <ele>1422.6</ele>
        <time>2015-06-22T06:33:57Z</time>
      </trkpt>
      <trkpt lat="42.02812" lon="9.15995">
        <ele>1422</ele>
        <time>2015-06-22T06:34:02Z</time>
      </trkpt>
      <trkpt lat="42.02815" lon="9.16001">
        <ele>1420.4</ele>
        <time>2015-06-22T06:34:10Z</time>
      </trkpt>
      <trkpt lat="42.02815" lon="9.16021">
        <ele>1419.8</ele>
        <time>2015-06-22T06:34:47Z</time>
      </trkpt>
      <trkpt lat="42.02814" lon="9.16029">
        <ele>1419.2</ele>
        <time>2015-06-22T06:35:05Z</time>
      </trkpt>
      <trkpt lat="42.02812" lon="9.1603">
        <ele>1418.8</ele>
        <time>2015-06-22T06:35:20Z</time>
      </trkpt>
      <trkpt lat="42.02817" lon="9.16041">
        <ele>1418</ele>
        <time>2015-06-22T06:35:46Z</time>
      </trkpt>
      <trkpt lat="42.02822" lon="9.16052">
        <ele>1417</ele>
        <time>2015-06-22T06:36:03Z</time>
      </trkpt>
      <trkpt lat="42.02826" lon="9.16057">
        <ele>1415.8</ele>
        <time>2015-06-22T06:36:11Z</time>
      </trkpt>
      <trkpt lat="42.02831" lon="9.16061">
        <ele>1415</ele>
        <time>2015-06-22T06:36:18Z</time>
      </trkpt>
      <trkpt lat="42.02835" lon="9.16067">
        <ele>1414.2</ele>
        <time>2015-06-22T06:36:29Z</time>
      </trkpt>
      <trkpt lat="42.02836" lon="9.1607">
        <ele>1414</ele>
        <time>2015-06-22T06:36:33Z</time>
      </trkpt>
      <trkpt lat="42.02839" lon="9.16073">
        <ele>1413.2</ele>
        <time>2015-06-22T06:36:38Z</time>
      </trkpt>
      <trkpt lat="42.02842" lon="9.16081">
        <ele>1411.8</ele>
        <time>2015-06-22T06:36:44Z</time>
      </trkpt>
      <trkpt lat="42.02843" lon="9.16083">
        <ele>1411.4</ele>
        <time>2015-06-22T06:36:46Z</time>
      </trkpt>
      <trkpt lat="42.02844" lon="9.16087">
        <ele>1410.6</ele>
        <time>2015-06-22T06:36:49Z</time>
      </trkpt>
      <trkpt lat="42.02848" lon="9.16103">
        <ele>1408.8</ele>
        <time>2015-06-22T06:37:17Z</time>
      </trkpt>
      <trkpt lat="42.02849" lon="9.16109">
        <ele>1407.6</ele>
        <time>2015-06-22T06:37:25Z</time>
      </trkpt>
      <trkpt lat="42.02851" lon="9.1612">
        <ele>1406.8</ele>
        <time>2015-06-22T06:37:34Z</time>
      </trkpt>
      <trkpt lat="42.02856" lon="9.16133">
        <ele>1405.2</ele>
        <time>2015-06-22T06:37:46Z</time>
      </trkpt>
      <trkpt lat="42.02858" lon="9.16141">
        <ele>1404.6</ele>
        <time>2015-06-22T06:37:54Z</time>
      </trkpt>
      <trkpt lat="42.02859" lon="9.16148">
        <ele>1403.6</ele>
        <time>2015-06-22T06:38:01Z</time>
      </trkpt>
      <trkpt lat="42.02859" lon="9.16156">
        <ele>1402.4</ele>
        <time>2015-06-22T06:38:08Z</time>
      </trkpt>
      <trkpt lat="42.02862" lon="9.16168">
        <ele>1400.8</ele>
        <time>2015-06-22T06:38:18Z</time>
      </trkpt>
      <trkpt lat="42.02869" lon="9.16177">
        <ele>1399.8</ele>
        <time>2015-06-22T06:38:28Z</time>
      </trkpt>
      <trkpt lat="42.02874" lon="9.16186">
        <ele>1398.6</ele>
        <time>2015-06-22T06:38:36Z</time>
      </trkpt>
      <trkpt lat="42.0288" lon="9.16191">
        <ele>1397.8</ele>
        <time>2015-06-22T06:38:42Z</time>
      </trkpt>
      <trkpt lat="42.02886" lon="9.16196">
        <ele>1397.8</ele>
        <time>2015-06-22T06:38:54Z</time>
      </trkpt>
      <trkpt lat="42.02892" lon="9.16202">
        <ele>1399.4</ele>
        <time>2015-06-22T06:39:04Z</time>
      </trkpt>
      <trkpt lat="42.02897" lon="9.16209">
        <ele>1400.4</ele>
        <time>2015-06-22T06:39:14Z</time>
      </trkpt>
      <trkpt lat="42.02901" lon="9.1621">
        <ele>1401.2</ele>
        <time>2015-06-22T06:39:23Z</time>
      </trkpt>
      <trkpt lat="42.02904" lon="9.16213">
        <ele>1402.2</ele>
        <time>2015-06-22T06:39:31Z</time>
      </trkpt>
      <trkpt lat="42.02907" lon="9.16216">
        <ele>1403.2</ele>
        <time>2015-06-22T06:39:40Z</time>
      </trkpt>
      <trkpt lat="42.02907" lon="9.16217">
        <ele>1403.4</ele>
        <time>2015-06-22T06:39:41Z</time>
      </trkpt>
      <trkpt lat="42.02911" lon="9.16232">
        <ele>1404.6</ele>
        <time>2015-06-22T06:39:57Z</time>
      </trkpt>
      <trkpt lat="42.02913" lon="9.1624">
        <ele>1405.4</ele>
        <time>2015-06-22T06:40:07Z</time>
      </trkpt>
      <trkpt lat="42.02921" lon="9.16252">
        <ele>1406.8</ele>
        <time>2015-06-22T06:40:21Z</time>
      </trkpt>
      <trkpt lat="42.02925" lon="9.16267">
        <ele>1407.6</ele>
        <time>2015-06-22T06:40:35Z</time>
      </trkpt>
      <trkpt lat="42.02928" lon="9.16279">
        <ele>1409</ele>
        <time>2015-06-22T06:40:47Z</time>
      </trkpt>
      <trkpt lat="42.0293" lon="9.16289">
        <ele>1409.6</ele>
        <time>2015-06-22T06:40:58Z</time>
      </trkpt>
      <trkpt lat="42.02935" lon="9.16297">
        <ele>1410.8</ele>
        <time>2015-06-22T06:41:06Z</time>
      </trkpt>
      <trkpt lat="42.02946" lon="9.16308">
        <ele>1412</ele>
        <time>2015-06-22T06:41:21Z</time>
      </trkpt>
      <trkpt lat="42.02963" lon="9.16326">
        <ele>1413.2</ele>
        <time>2015-06-22T06:41:49Z</time>
      </trkpt>
      <trkpt lat="42.02972" lon="9.1633">
        <ele>1414.4</ele>
        <time>2015-06-22T06:42:01Z</time>
      </trkpt>
      <trkpt lat="42.02978" lon="9.16331">
        <ele>1415.4</ele>
        <time>2015-06-22T06:42:11Z</time>
      </trkpt>
      <trkpt lat="42.02986" lon="9.16338">
        <ele>1416.4</ele>
        <time>2015-06-22T06:42:22Z</time>
      </trkpt>
      <trkpt lat="42.02987" lon="9.1634">
        <ele>1416.6</ele>
        <time>2015-06-22T06:42:25Z</time>
      </trkpt>
      <trkpt lat="42.02982" lon="9.16349">
        <ele>1417.2</ele>
        <time>2015-06-22T06:42:35Z</time>
      </trkpt>
      <trkpt lat="42.02971" lon="9.16363">
        <ele>1417.6</ele>
        <time>2015-06-22T06:42:48Z</time>
      </trkpt>
      <trkpt lat="42.0297" lon="9.16381">
        <ele>1418.6</ele>
        <time>2015-06-22T06:43:04Z</time>
      </trkpt>
      <trkpt lat="42.02972" lon="9.16393">
        <ele>1419.6</ele>
        <time>2015-06-22T06:43:13Z</time>
      </trkpt>
      <trkpt lat="42.02973" lon="9.16406">
        <ele>1420.8</ele>
        <time>2015-06-22T06:43:29Z</time>
      </trkpt>
      <trkpt lat="42.02975" lon="9.16418">
        <ele>1422</ele>
        <time>2015-06-22T06:43:42Z</time>
      </trkpt>
      <trkpt lat="42.02976" lon="9.16422">
        <ele>1422.4</ele>
        <time>2015-06-22T06:43:45Z</time>
      </trkpt>
      <trkpt lat="42.02977" lon="9.16426">
        <ele>1422.6</ele>
        <time>2015-06-22T06:43:49Z</time>
      </trkpt>
      <trkpt lat="42.0298" lon="9.1644">
        <ele>1423.8</ele>
        <time>2015-06-22T06:43:59Z</time>
      </trkpt>
      <trkpt lat="42.02981" lon="9.1645">
        <ele>1425.2</ele>
        <time>2015-06-22T06:44:09Z</time>
      </trkpt>
      <trkpt lat="42.02982" lon="9.16456">
        <ele>1425.8</ele>
        <time>2015-06-22T06:44:15Z</time>
      </trkpt>
      <trkpt lat="42.02982" lon="9.16473">
        <ele>1427.4</ele>
        <time>2015-06-22T06:44:30Z</time>
      </trkpt>
      <trkpt lat="42.02984" lon="9.16481">
        <ele>1428</ele>
        <time>2015-06-22T06:44:39Z</time>
      </trkpt>
      <trkpt lat="42.02985" lon="9.16482">
        <ele>1428.2</ele>
        <time>2015-06-22T06:44:41Z</time>
      </trkpt>
      <trkpt lat="42.02987" lon="9.16487">
        <ele>1429.4</ele>
        <time>2015-06-22T06:44:49Z</time>
      </trkpt>
      <trkpt lat="42.02992" lon="9.16499">
        <ele>1431</ele>
        <time>2015-06-22T06:45:02Z</time>
      </trkpt>
      <trkpt lat="42.02993" lon="9.16508">
        <ele>1431.2</ele>
        <time>2015-06-22T06:45:11Z</time>
      </trkpt>
      <trkpt lat="42.02993" lon="9.1651">
        <ele>1431.8</ele>
        <time>2015-06-22T06:45:14Z</time>
      </trkpt>
      <trkpt lat="42.02993" lon="9.16516">
        <ele>1432.6</ele>
        <time>2015-06-22T06:45:21Z</time>
      </trkpt>
      <trkpt lat="42.02996" lon="9.16524">
        <ele>1433.4</ele>
        <time>2015-06-22T06:45:30Z</time>
      </trkpt>
      <trkpt lat="42.02999" lon="9.16532">
        <ele>1434.8</ele>
        <time>2015-06-22T06:45:40Z</time>
      </trkpt>
      <trkpt lat="42.03003" lon="9.16542">
        <ele>1436</ele>
        <time>2015-06-22T06:45:54Z</time>
      </trkpt>
      <trkpt lat="42.03004" lon="9.16547">
        <ele>1436.6</ele>
        <time>2015-06-22T06:46:01Z</time>
      </trkpt>
      <trkpt lat="42.03007" lon="9.16557">
        <ele>1438</ele>
        <time>2015-06-22T06:46:13Z</time>
      </trkpt>
      <trkpt lat="42.03009" lon="9.16567">
        <ele>1439.2</ele>
        <time>2015-06-22T06:46:24Z</time>
      </trkpt>
      <trkpt lat="42.0301" lon="9.16577">
        <ele>1440</ele>
        <time>2015-06-22T06:46:33Z</time>
      </trkpt>
      <trkpt lat="42.03014" lon="9.16589">
        <ele>1441.4</ele>
        <time>2015-06-22T06:46:48Z</time>
      </trkpt>
      <trkpt lat="42.03019" lon="9.16595">
        <ele>1442.2</ele>
        <time>2015-06-22T06:46:59Z</time>
      </trkpt>
      <trkpt lat="42.03024" lon="9.16601">
        <ele>1443</ele>
        <time>2015-06-22T06:47:07Z</time>
      </trkpt>
      <trkpt lat="42.03025" lon="9.16602">
        <ele>1443.2</ele>
        <time>2015-06-22T06:47:09Z</time>
      </trkpt>
      <trkpt lat="42.03027" lon="9.16604">
        <ele>1443.4</ele>
        <time>2015-06-22T06:47:12Z</time>
      </trkpt>
      <trkpt lat="42.0303" lon="9.16605">
        <ele>1443.2</ele>
        <time>2015-06-22T06:47:14Z</time>
      </trkpt>
      <trkpt lat="42.03033" lon="9.16606">
        <ele>1443.8</ele>
        <time>2015-06-22T06:47:18Z</time>
      </trkpt>
      <trkpt lat="42.03036" lon="9.16612">
        <ele>1445</ele>
        <time>2015-06-22T06:47:27Z</time>
      </trkpt>
      <trkpt lat="42.03037" lon="9.16619">
        <ele>1446</ele>
        <time>2015-06-22T06:47:40Z</time>
      </trkpt>
      <trkpt lat="42.03037" lon="9.16627">
        <ele>1447.2</ele>
        <time>2015-06-22T06:47:48Z</time>
      </trkpt>
      <trkpt lat="42.03039" lon="9.16631">
        <ele>1447.6</ele>
        <time>2015-06-22T06:47:53Z</time>
      </trkpt>
      <trkpt lat="42.0304" lon="9.16636">
        <ele>1448.2</ele>
        <time>2015-06-22T06:47:57Z</time>
      </trkpt>
      <trkpt lat="42.03044" lon="9.16645">
        <ele>1449.4</ele>
        <time>2015-06-22T06:48:07Z</time>
      </trkpt>
      <trkpt lat="42.03046" lon="9.16652">
        <ele>1449.8</ele>
        <time>2015-06-22T06:48:14Z</time>
      </trkpt>
      <trkpt lat="42.03047" lon="9.16653">
        <ele>1450.2</ele>
        <time>2015-06-22T06:48:16Z</time>
      </trkpt>
      <trkpt lat="42.03048" lon="9.16655">
        <ele>1450.4</ele>
        <time>2015-06-22T06:48:19Z</time>
      </trkpt>
      <trkpt lat="42.03048" lon="9.1666">
        <ele>1451.2</ele>
        <time>2015-06-22T06:49:02Z</time>
      </trkpt>
      <trkpt lat="42.03048" lon="9.16659">
        <ele>1451.8</ele>
        <time>2015-06-22T06:49:30Z</time>
      </trkpt>
      <trkpt lat="42.03047" lon="9.1665">
        <ele>1453.2</ele>
        <time>2015-06-22T06:49:42Z</time>
      </trkpt>
      <trkpt lat="42.03042" lon="9.16636">
        <ele>1454</ele>
        <time>2015-06-22T06:50:05Z</time>
      </trkpt>
      <trkpt lat="42.03046" lon="9.16624">
        <ele>1455</ele>
        <time>2015-06-22T06:50:26Z</time>
      </trkpt>
      <trkpt lat="42.03048" lon="9.16617">
        <ele>1455.8</ele>
        <time>2015-06-22T06:50:35Z</time>
      </trkpt>
      <trkpt lat="42.03046" lon="9.16611">
        <ele>1456.8</ele>
        <time>2015-06-22T06:50:42Z</time>
      </trkpt>
      <trkpt lat="42.03043" lon="9.16603">
        <ele>1457.8</ele>
        <time>2015-06-22T06:50:53Z</time>
      </trkpt>
      <trkpt lat="42.03042" lon="9.166">
        <ele>1458.8</ele>
        <time>2015-06-22T06:50:59Z</time>
      </trkpt>
      <trkpt lat="42.03039" lon="9.16587">
        <ele>1460.4</ele>
        <time>2015-06-22T06:51:13Z</time>
      </trkpt>
      <trkpt lat="42.03041" lon="9.16579">
        <ele>1461.4</ele>
        <time>2015-06-22T06:51:21Z</time>
      </trkpt>
      <trkpt lat="42.03046" lon="9.16574">
        <ele>1462.2</ele>
        <time>2015-06-22T06:51:32Z</time>
      </trkpt>
      <trkpt lat="42.03047" lon="9.16568">
        <ele>1463.4</ele>
        <time>2015-06-22T06:51:38Z</time>
      </trkpt>
      <trkpt lat="42.03046" lon="9.16565">
        <ele>1463.4</ele>
        <time>2015-06-22T06:51:40Z</time>
      </trkpt>
      <trkpt lat="42.03048" lon="9.16552">
        <ele>1464.6</ele>
        <time>2015-06-22T06:51:53Z</time>
      </trkpt>
      <trkpt lat="42.03048" lon="9.16548">
        <ele>1465</ele>
        <time>2015-06-22T06:51:57Z</time>
      </trkpt>
      <trkpt lat="42.03046" lon="9.16543">
        <ele>1466</ele>
        <time>2015-06-22T06:52:02Z</time>
      </trkpt>
      <trkpt lat="42.03041" lon="9.16529">
        <ele>1468.2</ele>
        <time>2015-06-22T06:52:17Z</time>
      </trkpt>
      <trkpt lat="42.03038" lon="9.16522">
        <ele>1468.8</ele>
        <time>2015-06-22T06:52:25Z</time>
      </trkpt>
      <trkpt lat="42.03043" lon="9.16512">
        <ele>1469.8</ele>
        <time>2015-06-22T06:52:39Z</time>
      </trkpt>
      <trkpt lat="42.03045" lon="9.16508">
        <ele>1470.8</ele>
        <time>2015-06-22T06:52:46Z</time>
      </trkpt>
      <trkpt lat="42.03046" lon="9.165">
        <ele>1472.2</ele>
        <time>2015-06-22T06:52:55Z</time>
      </trkpt>
      <trkpt lat="42.03046" lon="9.16494">
        <ele>1473.4</ele>
        <time>2015-06-22T06:53:03Z</time>
      </trkpt>
      <trkpt lat="42.03045" lon="9.16487">
        <ele>1474</ele>
        <time>2015-06-22T06:53:11Z</time>
      </trkpt>
      <trkpt lat="42.03045" lon="9.1648">
        <ele>1475.4</ele>
        <time>2015-06-22T06:53:22Z</time>
      </trkpt>
      <trkpt lat="42.03046" lon="9.16474">
        <ele>1476.4</ele>
        <time>2015-06-22T06:53:32Z</time>
      </trkpt>
      <trkpt lat="42.03048" lon="9.1647">
        <ele>1477.4</ele>
        <time>2015-06-22T06:53:40Z</time>
      </trkpt>
      <trkpt lat="42.03049" lon="9.16466">
        <ele>1478.4</ele>
        <time>2015-06-22T06:53:47Z</time>
      </trkpt>
      <trkpt lat="42.03052" lon="9.16464">
        <ele>1479.2</ele>
        <time>2015-06-22T06:53:54Z</time>
      </trkpt>
      <trkpt lat="42.03056" lon="9.16458">
        <ele>1480.4</ele>
        <time>2015-06-22T06:54:04Z</time>
      </trkpt>
      <trkpt lat="42.03058" lon="9.16454">
        <ele>1481.4</ele>
        <time>2015-06-22T06:54:13Z</time>
      </trkpt>
      <trkpt lat="42.03059" lon="9.16449">
        <ele>1482.4</ele>
        <time>2015-06-22T06:54:20Z</time>
      </trkpt>
      <trkpt lat="42.0306" lon="9.16445">
        <ele>1483.6</ele>
        <time>2015-06-22T06:54:30Z</time>
      </trkpt>
      <trkpt lat="42.0306" lon="9.16439">
        <ele>1484.4</ele>
        <time>2015-06-22T06:54:39Z</time>
      </trkpt>
      <trkpt lat="42.03063" lon="9.16438">
        <ele>1485.6</ele>
        <time>2015-06-22T06:54:49Z</time>
      </trkpt>
      <trkpt lat="42.03065" lon="9.16442">
        <ele>1486.6</ele>
        <time>2015-06-22T06:54:57Z</time>
      </trkpt>
      <trkpt lat="42.03067" lon="9.1645">
        <ele>1487.6</ele>
        <time>2015-06-22T06:55:07Z</time>
      </trkpt>
      <trkpt lat="42.03068" lon="9.16457">
        <ele>1488.8</ele>
        <time>2015-06-22T06:55:16Z</time>
      </trkpt>
      <trkpt lat="42.03069" lon="9.16469">
        <ele>1490</ele>
        <time>2015-06-22T06:55:32Z</time>
      </trkpt>
      <trkpt lat="42.03071" lon="9.16475">
        <ele>1490.8</ele>
        <time>2015-06-22T06:55:40Z</time>
      </trkpt>
      <trkpt lat="42.03073" lon="9.16487">
        <ele>1492</ele>
        <time>2015-06-22T06:55:55Z</time>
      </trkpt>
      <trkpt lat="42.03077" lon="9.16495">
        <ele>1492.8</ele>
        <time>2015-06-22T06:56:07Z</time>
      </trkpt>
      <trkpt lat="42.03078" lon="9.165">
        <ele>1493.2</ele>
        <time>2015-06-22T06:56:13Z</time>
      </trkpt>
      <trkpt lat="42.03081" lon="9.16503">
        <ele>1494.6</ele>
        <time>2015-06-22T06:56:20Z</time>
      </trkpt>
      <trkpt lat="42.03085" lon="9.16514">
        <ele>1496.2</ele>
        <time>2015-06-22T06:56:40Z</time>
      </trkpt>
      <trkpt lat="42.03088" lon="9.1652">
        <ele>1496.6</ele>
        <time>2015-06-22T06:56:48Z</time>
      </trkpt>
      <trkpt lat="42.03091" lon="9.16522">
        <ele>1497</ele>
        <time>2015-06-22T06:56:52Z</time>
      </trkpt>
      <trkpt lat="42.03092" lon="9.16524">
        <ele>1497.2</ele>
        <time>2015-06-22T06:56:55Z</time>
      </trkpt>
      <trkpt lat="42.03094" lon="9.16529">
        <ele>1498.2</ele>
        <time>2015-06-22T06:57:00Z</time>
      </trkpt>
      <trkpt lat="42.03096" lon="9.16536">
        <ele>1499.8</ele>
        <time>2015-06-22T06:57:09Z</time>
      </trkpt>
      <trkpt lat="42.03099" lon="9.16544">
        <ele>1500.6</ele>
        <time>2015-06-22T06:57:19Z</time>
      </trkpt>
      <trkpt lat="42.03104" lon="9.1655">
        <ele>1501.8</ele>
        <time>2015-06-22T06:57:28Z</time>
      </trkpt>
      <trkpt lat="42.03108" lon="9.16558">
        <ele>1502.8</ele>
        <time>2015-06-22T06:57:37Z</time>
      </trkpt>
      <trkpt lat="42.03109" lon="9.16559">
        <ele>1503</ele>
        <time>2015-06-22T06:57:39Z</time>
      </trkpt>
      <trkpt lat="42.03114" lon="9.16563">
        <ele>1503.6</ele>
        <time>2015-06-22T06:57:45Z</time>
      </trkpt>
      <trkpt lat="42.03114" lon="9.16564">
        <ele>1503.6</ele>
        <time>2015-06-22T06:57:46Z</time>
      </trkpt>
      <trkpt lat="42.03119" lon="9.16568">
        <ele>1504.8</ele>
        <time>2015-06-22T06:57:56Z</time>
      </trkpt>
      <trkpt lat="42.03123" lon="9.16571">
        <ele>1505.6</ele>
        <time>2015-06-22T06:58:02Z</time>
      </trkpt>
      <trkpt lat="42.03125" lon="9.16575">
        <ele>1506.2</ele>
        <time>2015-06-22T06:58:06Z</time>
      </trkpt>
      <trkpt lat="42.03133" lon="9.1659">
        <ele>1507</ele>
        <time>2015-06-22T06:58:23Z</time>
      </trkpt>
      <trkpt lat="42.03136" lon="9.16594">
        <ele>1507.4</ele>
        <time>2015-06-22T06:58:29Z</time>
      </trkpt>
      <trkpt lat="42.03137" lon="9.16601">
        <ele>1508.6</ele>
        <time>2015-06-22T06:58:37Z</time>
      </trkpt>
      <trkpt lat="42.03138" lon="9.16604">
        <ele>1509.2</ele>
        <time>2015-06-22T06:58:40Z</time>
      </trkpt>
      <trkpt lat="42.03141" lon="9.16609">
        <ele>1509.8</ele>
        <time>2015-06-22T06:58:46Z</time>
      </trkpt>
      <trkpt lat="42.0314" lon="9.16617">
        <ele>1511</ele>
        <time>2015-06-22T06:58:55Z</time>
      </trkpt>
      <trkpt lat="42.03143" lon="9.16629">
        <ele>1512</ele>
        <time>2015-06-22T06:59:08Z</time>
      </trkpt>
      <trkpt lat="42.03149" lon="9.1663">
        <ele>1513</ele>
        <time>2015-06-22T06:59:20Z</time>
      </trkpt>
      <trkpt lat="42.03151" lon="9.16627">
        <ele>1513.8</ele>
        <time>2015-06-22T06:59:27Z</time>
      </trkpt>
      <trkpt lat="42.03149" lon="9.16622">
        <ele>1515.2</ele>
        <time>2015-06-22T06:59:35Z</time>
      </trkpt>
      <trkpt lat="42.03149" lon="9.16617">
        <ele>1516.4</ele>
        <time>2015-06-22T06:59:46Z</time>
      </trkpt>
      <trkpt lat="42.03149" lon="9.16609">
        <ele>1517</ele>
        <time>2015-06-22T06:59:54Z</time>
      </trkpt>
      <trkpt lat="42.03147" lon="9.16601">
        <ele>1518.2</ele>
        <time>2015-06-22T07:00:04Z</time>
      </trkpt>
      <trkpt lat="42.03145" lon="9.16594">
        <ele>1519.2</ele>
        <time>2015-06-22T07:00:14Z</time>
      </trkpt>
      <trkpt lat="42.03143" lon="9.16589">
        <ele>1520.4</ele>
        <time>2015-06-22T07:00:22Z</time>
      </trkpt>
      <trkpt lat="42.03144" lon="9.1658">
        <ele>1521.2</ele>
        <time>2015-06-22T07:00:32Z</time>
      </trkpt>
      <trkpt lat="42.03144" lon="9.16571">
        <ele>1522.4</ele>
        <time>2015-06-22T07:00:41Z</time>
      </trkpt>
      <trkpt lat="42.03143" lon="9.16562">
        <ele>1523.6</ele>
        <time>2015-06-22T07:00:51Z</time>
      </trkpt>
      <trkpt lat="42.03143" lon="9.16552">
        <ele>1524.8</ele>
        <time>2015-06-22T07:01:03Z</time>
      </trkpt>
      <trkpt lat="42.03143" lon="9.16542">
        <ele>1525.6</ele>
        <time>2015-06-22T07:01:20Z</time>
      </trkpt>
      <trkpt lat="42.03144" lon="9.16538">
        <ele>1526.4</ele>
        <time>2015-06-22T07:01:28Z</time>
      </trkpt>
      <trkpt lat="42.03142" lon="9.16531">
        <ele>1528.2</ele>
        <time>2015-06-22T07:01:39Z</time>
      </trkpt>
      <trkpt lat="42.03142" lon="9.16519">
        <ele>1529</ele>
        <time>2015-06-22T07:01:51Z</time>
      </trkpt>
      <trkpt lat="42.03142" lon="9.16514">
        <ele>1529.6</ele>
        <time>2015-06-22T07:01:59Z</time>
      </trkpt>
      <trkpt lat="42.03143" lon="9.16506">
        <ele>1530.8</ele>
        <time>2015-06-22T07:02:10Z</time>
      </trkpt>
      <trkpt lat="42.03148" lon="9.16501">
        <ele>1531.6</ele>
        <time>2015-06-22T07:02:20Z</time>
      </trkpt>
      <trkpt lat="42.0315" lon="9.16508">
        <ele>1532.8</ele>
        <time>2015-06-22T07:02:29Z</time>
      </trkpt>
      <trkpt lat="42.03152" lon="9.16518">
        <ele>1533.8</ele>
        <time>2015-06-22T07:02:39Z</time>
      </trkpt>
      <trkpt lat="42.03155" lon="9.16527">
        <ele>1534.8</ele>
        <time>2015-06-22T07:02:49Z</time>
      </trkpt>
      <trkpt lat="42.03159" lon="9.16535">
        <ele>1535.6</ele>
        <time>2015-06-22T07:02:59Z</time>
      </trkpt>
      <trkpt lat="42.03163" lon="9.16541">
        <ele>1536.8</ele>
        <time>2015-06-22T07:03:07Z</time>
      </trkpt>
      <trkpt lat="42.03165" lon="9.1655">
        <ele>1538</ele>
        <time>2015-06-22T07:03:19Z</time>
      </trkpt>
      <trkpt lat="42.03168" lon="9.1656">
        <ele>1539.2</ele>
        <time>2015-06-22T07:03:32Z</time>
      </trkpt>
      <trkpt lat="42.0317" lon="9.16569">
        <ele>1540</ele>
        <time>2015-06-22T07:03:48Z</time>
      </trkpt>
      <trkpt lat="42.03173" lon="9.16577">
        <ele>1540.8</ele>
        <time>2015-06-22T07:03:59Z</time>
      </trkpt>
      <trkpt lat="42.03179" lon="9.16581">
        <ele>1541.8</ele>
        <time>2015-06-22T07:04:09Z</time>
      </trkpt>
      <trkpt lat="42.03186" lon="9.1658">
        <ele>1542.8</ele>
        <time>2015-06-22T07:04:22Z</time>
      </trkpt>
      <trkpt lat="42.03192" lon="9.16579">
        <ele>1544.2</ele>
        <time>2015-06-22T07:04:33Z</time>
      </trkpt>
      <trkpt lat="42.03199" lon="9.16578">
        <ele>1544.6</ele>
        <time>2015-06-22T07:04:43Z</time>
      </trkpt>
      <trkpt lat="42.03207" lon="9.16576">
        <ele>1545.8</ele>
        <time>2015-06-22T07:05:01Z</time>
      </trkpt>
      <trkpt lat="42.03213" lon="9.16576">
        <ele>1547</ele>
        <time>2015-06-22T07:05:12Z</time>
      </trkpt>
      <trkpt lat="42.03225" lon="9.16586">
        <ele>1548</ele>
        <time>2015-06-22T07:05:30Z</time>
      </trkpt>
      <trkpt lat="42.03232" lon="9.16595">
        <ele>1549</ele>
        <time>2015-06-22T07:05:44Z</time>
      </trkpt>
      <trkpt lat="42.03239" lon="9.16602">
        <ele>1550</ele>
        <time>2015-06-22T07:05:55Z</time>
      </trkpt>
      <trkpt lat="42.03244" lon="9.16608">
        <ele>1550.8</ele>
        <time>2015-06-22T07:06:06Z</time>
      </trkpt>
      <trkpt lat="42.03246" lon="9.1661">
        <ele>1552.2</ele>
        <time>2015-06-22T07:06:36Z</time>
      </trkpt>
      <trkpt lat="42.03247" lon="9.16606">
        <ele>1552.8</ele>
        <time>2015-06-22T07:06:46Z</time>
      </trkpt>
      <trkpt lat="42.03247" lon="9.16606">
        <ele>1552.8</ele>
        <time>2015-06-22T07:06:49Z</time>
      </trkpt>
      <trkpt lat="42.03247" lon="9.16605">
        <ele>1553</ele>
        <time>2015-06-22T07:06:54Z</time>
      </trkpt>
      <trkpt lat="42.03247" lon="9.16605">
        <ele>1553</ele>
        <time>2015-06-22T07:06:55Z</time>
      </trkpt>
      <trkpt lat="42.03245" lon="9.16608">
        <ele>1553.6</ele>
        <time>2015-06-22T07:07:55Z</time>
      </trkpt>
      <trkpt lat="42.03244" lon="9.16605">
        <ele>1553.2</ele>
        <time>2015-06-22T07:11:46Z</time>
      </trkpt>
      <trkpt lat="42.03245" lon="9.16604">
        <ele>1553.2</ele>
        <time>2015-06-22T07:12:23Z</time>
      </trkpt>
      <trkpt lat="42.03245" lon="9.16605">
        <ele>1553.2</ele>
        <time>2015-06-22T07:13:12Z</time>
      </trkpt>
      <trkpt lat="42.03246" lon="9.16605">
        <ele>1552.6</ele>
        <time>2015-06-22T07:13:22Z</time>
      </trkpt>
      <trkpt lat="42.03245" lon="9.16604">
        <ele>1553.2</ele>
        <time>2015-06-22T07:14:32Z</time>
      </trkpt>
      <trkpt lat="42.03245" lon="9.16605">
        <ele>1553.2</ele>
        <time>2015-06-22T07:14:35Z</time>
      </trkpt>
      <trkpt lat="42.03244" lon="9.16604">
        <ele>1553.4</ele>
        <time>2015-06-22T07:15:23Z</time>
      </trkpt>
      <trkpt lat="42.03245" lon="9.16603">
        <ele>1553.2</ele>
        <time>2015-06-22T07:16:36Z</time>
      </trkpt>
      <trkpt lat="42.03246" lon="9.16603">
        <ele>1553.4</ele>
        <time>2015-06-22T07:17:22Z</time>
      </trkpt>
      <trkpt lat="42.03246" lon="9.16602">
        <ele>1553.2</ele>
        <time>2015-06-22T07:18:13Z</time>
      </trkpt>
      <trkpt lat="42.03246" lon="9.16603">
        <ele>1553.4</ele>
        <time>2015-06-22T07:19:27Z</time>
      </trkpt>
      <trkpt lat="42.03246" lon="9.16604">
        <ele>1553.2</ele>
        <time>2015-06-22T07:20:37Z</time>
      </trkpt>
      <trkpt lat="42.03247" lon="9.16605">
        <ele>1553.8</ele>
        <time>2015-06-22T07:22:30Z</time>
      </trkpt>
      <trkpt lat="42.03246" lon="9.16604">
        <ele>1553.6</ele>
        <time>2015-06-22T07:25:09Z</time>
      </trkpt>
      <trkpt lat="42.03245" lon="9.16604">
        <ele>1554</ele>
        <time>2015-06-22T07:28:04Z</time>
      </trkpt>
      <trkpt lat="42.03247" lon="9.16604">
        <ele>1554.2</ele>
        <time>2015-06-22T07:29:00Z</time>
      </trkpt>
      <trkpt lat="42.03249" lon="9.16609">
        <ele>1553</ele>
        <time>2015-06-22T07:30:20Z</time>
      </trkpt>
      <trkpt lat="42.03256" lon="9.16609">
        <ele>1552.8</ele>
        <time>2015-06-22T07:30:32Z</time>
      </trkpt>
      <trkpt lat="42.03265" lon="9.16609">
        <ele>1553.2</ele>
        <time>2015-06-22T07:30:49Z</time>
      </trkpt>
      <trkpt lat="42.03273" lon="9.16606">
        <ele>1554.2</ele>
        <time>2015-06-22T07:31:03Z</time>
      </trkpt>
      <trkpt lat="42.03276" lon="9.16601">
        <ele>1555</ele>
        <time>2015-06-22T07:31:11Z</time>
      </trkpt>
      <trkpt lat="42.03291" lon="9.16595">
        <ele>1556.6</ele>
        <time>2015-06-22T07:31:30Z</time>
      </trkpt>
      <trkpt lat="42.03301" lon="9.16579">
        <ele>1557.2</ele>
        <time>2015-06-22T07:31:46Z</time>
      </trkpt>
      <trkpt lat="42.03305" lon="9.16576">
        <ele>1557.4</ele>
        <time>2015-06-22T07:31:50Z</time>
      </trkpt>
      <trkpt lat="42.03306" lon="9.16574">
        <ele>1557.6</ele>
        <time>2015-06-22T07:31:52Z</time>
      </trkpt>
      <trkpt lat="42.03313" lon="9.16562">
        <ele>1558.2</ele>
        <time>2015-06-22T07:32:02Z</time>
      </trkpt>
      <trkpt lat="42.03328" lon="9.16567">
        <ele>1558.2</ele>
        <time>2015-06-22T07:32:23Z</time>
      </trkpt>
      <trkpt lat="42.03333" lon="9.16589">
        <ele>1557.8</ele>
        <time>2015-06-22T07:32:42Z</time>
      </trkpt>
      <trkpt lat="42.03335" lon="9.16594">
        <ele>1557.8</ele>
        <time>2015-06-22T07:32:47Z</time>
      </trkpt>
      <trkpt lat="42.03336" lon="9.16599">
        <ele>1558.2</ele>
        <time>2015-06-22T07:32:51Z</time>
      </trkpt>
      <trkpt lat="42.03336" lon="9.16603">
        <ele>1558.8</ele>
        <time>2015-06-22T07:32:54Z</time>
      </trkpt>
      <trkpt lat="42.03337" lon="9.16616">
        <ele>1560.2</ele>
        <time>2015-06-22T07:33:04Z</time>
      </trkpt>
      <trkpt lat="42.03338" lon="9.16617">
        <ele>1560.2</ele>
        <time>2015-06-22T07:33:05Z</time>
      </trkpt>
      <trkpt lat="42.03343" lon="9.16626">
        <ele>1561</ele>
        <time>2015-06-22T07:33:14Z</time>
      </trkpt>
      <trkpt lat="42.0335" lon="9.16639">
        <ele>1562</ele>
        <time>2015-06-22T07:33:26Z</time>
      </trkpt>
      <trkpt lat="42.03354" lon="9.16649">
        <ele>1563.2</ele>
        <time>2015-06-22T07:33:36Z</time>
      </trkpt>
      <trkpt lat="42.03359" lon="9.16661">
        <ele>1564.4</ele>
        <time>2015-06-22T07:33:49Z</time>
      </trkpt>
      <trkpt lat="42.03367" lon="9.16675">
        <ele>1565.2</ele>
        <time>2015-06-22T07:34:04Z</time>
      </trkpt>
      <trkpt lat="42.03377" lon="9.16691">
        <ele>1566.2</ele>
        <time>2015-06-22T07:34:22Z</time>
      </trkpt>
      <trkpt lat="42.03382" lon="9.16701">
        <ele>1567</ele>
        <time>2015-06-22T07:34:34Z</time>
      </trkpt>
      <trkpt lat="42.03386" lon="9.16709">
        <ele>1567.8</ele>
        <time>2015-06-22T07:34:42Z</time>
      </trkpt>
      <trkpt lat="42.03393" lon="9.16721">
        <ele>1569.2</ele>
        <time>2015-06-22T07:34:56Z</time>
      </trkpt>
      <trkpt lat="42.03395" lon="9.16726">
        <ele>1569.4</ele>
        <time>2015-06-22T07:35:00Z</time>
      </trkpt>
      <trkpt lat="42.03404" lon="9.1674">
        <ele>1570.4</ele>
        <time>2015-06-22T07:35:15Z</time>
      </trkpt>
      <trkpt lat="42.03409" lon="9.16756">
        <ele>1571</ele>
        <time>2015-06-22T07:35:33Z</time>
      </trkpt>
      <trkpt lat="42.03414" lon="9.16763">
        <ele>1571.6</ele>
        <time>2015-06-22T07:35:42Z</time>
      </trkpt>
      <trkpt lat="42.03422" lon="9.16775">
        <ele>1572.8</ele>
        <time>2015-06-22T07:35:54Z</time>
      </trkpt>
      <trkpt lat="42.03428" lon="9.16783">
        <ele>1573.8</ele>
        <time>2015-06-22T07:36:04Z</time>
      </trkpt>
      <trkpt lat="42.03429" lon="9.16784">
        <ele>1574</ele>
        <time>2015-06-22T07:36:05Z</time>
      </trkpt>
      <trkpt lat="42.03434" lon="9.16791">
        <ele>1575</ele>
        <time>2015-06-22T07:36:15Z</time>
      </trkpt>
      <trkpt lat="42.03442" lon="9.16798">
        <ele>1576</ele>
        <time>2015-06-22T07:36:26Z</time>
      </trkpt>
      <trkpt lat="42.03451" lon="9.16807">
        <ele>1577.4</ele>
        <time>2015-06-22T07:36:40Z</time>
      </trkpt>
      <trkpt lat="42.0347" lon="9.1682">
        <ele>1578.4</ele>
        <time>2015-06-22T07:37:04Z</time>
      </trkpt>
      <trkpt lat="42.0349" lon="9.16819">
        <ele>1578.8</ele>
        <time>2015-06-22T07:37:23Z</time>
      </trkpt>
      <trkpt lat="42.0349" lon="9.16835">
        <ele>1578.6</ele>
        <time>2015-06-22T07:37:35Z</time>
      </trkpt>
      <trkpt lat="42.03491" lon="9.16852">
        <ele>1579</ele>
        <time>2015-06-22T07:37:47Z</time>
      </trkpt>
      <trkpt lat="42.03491" lon="9.16853">
        <ele>1579</ele>
        <time>2015-06-22T07:37:48Z</time>
      </trkpt>
      <trkpt lat="42.03499" lon="9.16871">
        <ele>1579.8</ele>
        <time>2015-06-22T07:38:05Z</time>
      </trkpt>
      <trkpt lat="42.03529" lon="9.16894">
        <ele>1581</ele>
        <time>2015-06-22T07:38:38Z</time>
      </trkpt>
      <trkpt lat="42.03534" lon="9.16897">
        <ele>1581.2</ele>
        <time>2015-06-22T07:38:44Z</time>
      </trkpt>
      <trkpt lat="42.03563" lon="9.16911">
        <ele>1581</ele>
        <time>2015-06-22T07:39:12Z</time>
      </trkpt>
      <trkpt lat="42.03565" lon="9.16913">
        <ele>1580.6</ele>
        <time>2015-06-22T07:39:14Z</time>
      </trkpt>
      <trkpt lat="42.03569" lon="9.16916">
        <ele>1580.2</ele>
        <time>2015-06-22T07:39:19Z</time>
      </trkpt>
      <trkpt lat="42.03572" lon="9.16919">
        <ele>1580.2</ele>
        <time>2015-06-22T07:39:23Z</time>
      </trkpt>
      <trkpt lat="42.03585" lon="9.16925">
        <ele>1579.4</ele>
        <time>2015-06-22T07:39:34Z</time>
      </trkpt>
      <trkpt lat="42.03596" lon="9.16936">
        <ele>1578.4</ele>
        <time>2015-06-22T07:39:48Z</time>
      </trkpt>
      <trkpt lat="42.03605" lon="9.16939">
        <ele>1578.2</ele>
        <time>2015-06-22T07:40:03Z</time>
      </trkpt>
      <trkpt lat="42.03617" lon="9.16947">
        <ele>1577.8</ele>
        <time>2015-06-22T07:40:14Z</time>
      </trkpt>
      <trkpt lat="42.03619" lon="9.1695">
        <ele>1577.8</ele>
        <time>2015-06-22T07:40:17Z</time>
      </trkpt>
      <trkpt lat="42.03624" lon="9.16952">
        <ele>1577.6</ele>
        <time>2015-06-22T07:40:23Z</time>
      </trkpt>
      <trkpt lat="42.0367" lon="9.16965">
        <ele>1578.6</ele>
        <time>2015-06-22T07:41:06Z</time>
      </trkpt>
      <trkpt lat="42.03686" lon="9.16986">
        <ele>1578</ele>
        <time>2015-06-22T07:41:33Z</time>
      </trkpt>
      <trkpt lat="42.03688" lon="9.16988">
        <ele>1578</ele>
        <time>2015-06-22T07:41:36Z</time>
      </trkpt>
      <trkpt lat="42.03691" lon="9.16992">
        <ele>1578</ele>
        <time>2015-06-22T07:41:40Z</time>
      </trkpt>
      <trkpt lat="42.03708" lon="9.17004">
        <ele>1578.4</ele>
        <time>2015-06-22T07:42:00Z</time>
      </trkpt>
      <trkpt lat="42.03718" lon="9.17007">
        <ele>1578.4</ele>
        <time>2015-06-22T07:42:10Z</time>
      </trkpt>
      <trkpt lat="42.03756" lon="9.17015">
        <ele>1577.8</ele>
        <time>2015-06-22T07:42:42Z</time>
      </trkpt>
      <trkpt lat="42.03771" lon="9.17054">
        <ele>1576.8</ele>
        <time>2015-06-22T07:43:15Z</time>
      </trkpt>
      <trkpt lat="42.03773" lon="9.17066">
        <ele>1575.6</ele>
        <time>2015-06-22T07:43:25Z</time>
      </trkpt>
      <trkpt lat="42.03784" lon="9.17097">
        <ele>1574.4</ele>
        <time>2015-06-22T07:43:52Z</time>
      </trkpt>
      <trkpt lat="42.0379" lon="9.17112">
        <ele>1573.6</ele>
        <time>2015-06-22T07:44:05Z</time>
      </trkpt>
      <trkpt lat="42.03795" lon="9.17123">
        <ele>1572.6</ele>
        <time>2015-06-22T07:44:14Z</time>
      </trkpt>
      <trkpt lat="42.03797" lon="9.17144">
        <ele>1571.2</ele>
        <time>2015-06-22T07:44:28Z</time>
      </trkpt>
      <trkpt lat="42.03798" lon="9.17149">
        <ele>1570.8</ele>
        <time>2015-06-22T07:44:33Z</time>
      </trkpt>
      <trkpt lat="42.038" lon="9.17152">
        <ele>1570.6</ele>
        <time>2015-06-22T07:44:35Z</time>
      </trkpt>
      <trkpt lat="42.03802" lon="9.17156">
        <ele>1570.4</ele>
        <time>2015-06-22T07:44:37Z</time>
      </trkpt>
      <trkpt lat="42.0381" lon="9.17164">
        <ele>1569.6</ele>
        <time>2015-06-22T07:44:45Z</time>
      </trkpt>
      <trkpt lat="42.03814" lon="9.17169">
        <ele>1568.6</ele>
        <time>2015-06-22T07:44:51Z</time>
      </trkpt>
      <trkpt lat="42.03816" lon="9.17171">
        <ele>1568.4</ele>
        <time>2015-06-22T07:44:53Z</time>
      </trkpt>
      <trkpt lat="42.0382" lon="9.17177">
        <ele>1567.8</ele>
        <time>2015-06-22T07:44:58Z</time>
      </trkpt>
      <trkpt lat="42.03827" lon="9.1718">
        <ele>1566.6</ele>
        <time>2015-06-22T07:45:04Z</time>
      </trkpt>
      <trkpt lat="42.03844" lon="9.17195">
        <ele>1565.8</ele>
        <time>2015-06-22T07:45:26Z</time>
      </trkpt>
      <trkpt lat="42.03846" lon="9.17197">
        <ele>1565.6</ele>
        <time>2015-06-22T07:45:29Z</time>
      </trkpt>
      <trkpt lat="42.03849" lon="9.17198">
        <ele>1565.6</ele>
        <time>2015-06-22T07:45:32Z</time>
      </trkpt>
      <trkpt lat="42.03852" lon="9.17202">
        <ele>1565.2</ele>
        <time>2015-06-22T07:45:36Z</time>
      </trkpt>
      <trkpt lat="42.03864" lon="9.17219">
        <ele>1563.8</ele>
        <time>2015-06-22T07:45:53Z</time>
      </trkpt>
      <trkpt lat="42.0388" lon="9.17217">
        <ele>1563</ele>
        <time>2015-06-22T07:46:16Z</time>
      </trkpt>
      <trkpt lat="42.03884" lon="9.17214">
        <ele>1562.8</ele>
        <time>2015-06-22T07:46:19Z</time>
      </trkpt>
      <trkpt lat="42.03887" lon="9.17214">
        <ele>1562.4</ele>
        <time>2015-06-22T07:46:22Z</time>
      </trkpt>
      <trkpt lat="42.03897" lon="9.17216">
        <ele>1561.2</ele>
        <time>2015-06-22T07:46:29Z</time>
      </trkpt>
      <trkpt lat="42.03907" lon="9.17224">
        <ele>1560.2</ele>
        <time>2015-06-22T07:46:36Z</time>
      </trkpt>
      <trkpt lat="42.03915" lon="9.17228">
        <ele>1559</ele>
        <time>2015-06-22T07:46:43Z</time>
      </trkpt>
      <trkpt lat="42.03921" lon="9.17231">
        <ele>1558.4</ele>
        <time>2015-06-22T07:46:51Z</time>
      </trkpt>
      <trkpt lat="42.03929" lon="9.17231">
        <ele>1557.2</ele>
        <time>2015-06-22T07:47:02Z</time>
      </trkpt>
      <trkpt lat="42.03929" lon="9.17232">
        <ele>1557.2</ele>
        <time>2015-06-22T07:47:03Z</time>
      </trkpt>
      <trkpt lat="42.03936" lon="9.17233">
        <ele>1556.8</ele>
        <time>2015-06-22T07:47:11Z</time>
      </trkpt>
      <trkpt lat="42.03938" lon="9.17234">
        <ele>1556.6</ele>
        <time>2015-06-22T07:47:13Z</time>
      </trkpt>
      <trkpt lat="42.0394" lon="9.17235">
        <ele>1556.6</ele>
        <time>2015-06-22T07:47:15Z</time>
      </trkpt>
      <trkpt lat="42.03942" lon="9.17237">
        <ele>1556.2</ele>
        <time>2015-06-22T07:47:17Z</time>
      </trkpt>
      <trkpt lat="42.03943" lon="9.17237">
        <ele>1556</ele>
        <time>2015-06-22T07:47:18Z</time>
      </trkpt>
      <trkpt lat="42.03951" lon="9.17239">
        <ele>1554.6</ele>
        <time>2015-06-22T07:47:26Z</time>
      </trkpt>
      <trkpt lat="42.03956" lon="9.17243">
        <ele>1554</ele>
        <time>2015-06-22T07:47:31Z</time>
      </trkpt>
      <trkpt lat="42.03958" lon="9.17243">
        <ele>1553.2</ele>
        <time>2015-06-22T07:47:34Z</time>
      </trkpt>
      <trkpt lat="42.03959" lon="9.17243">
        <ele>1553</ele>
        <time>2015-06-22T07:47:35Z</time>
      </trkpt>
      <trkpt lat="42.03965" lon="9.17241">
        <ele>1551.4</ele>
        <time>2015-06-22T07:47:44Z</time>
      </trkpt>
      <trkpt lat="42.03971" lon="9.17235">
        <ele>1550.2</ele>
        <time>2015-06-22T07:47:53Z</time>
      </trkpt>
      <trkpt lat="42.03977" lon="9.17226">
        <ele>1549</ele>
        <time>2015-06-22T07:48:04Z</time>
      </trkpt>
      <trkpt lat="42.03983" lon="9.17213">
        <ele>1548.2</ele>
        <time>2015-06-22T07:48:17Z</time>
      </trkpt>
      <trkpt lat="42.03988" lon="9.172">
        <ele>1547</ele>
        <time>2015-06-22T07:48:29Z</time>
      </trkpt>
      <trkpt lat="42.03993" lon="9.1719">
        <ele>1546.2</ele>
        <time>2015-06-22T07:48:39Z</time>
      </trkpt>
      <trkpt lat="42.04002" lon="9.17174">
        <ele>1544.8</ele>
        <time>2015-06-22T07:48:53Z</time>
      </trkpt>
      <trkpt lat="42.04011" lon="9.17152">
        <ele>1543.6</ele>
        <time>2015-06-22T07:49:11Z</time>
      </trkpt>
      <trkpt lat="42.0402" lon="9.17087">
        <ele>1542.8</ele>
        <time>2015-06-22T07:50:02Z</time>
      </trkpt>
      <trkpt lat="42.04024" lon="9.17083">
        <ele>1543</ele>
        <time>2015-06-22T07:50:08Z</time>
      </trkpt>
      <trkpt lat="42.04028" lon="9.17083">
        <ele>1543</ele>
        <time>2015-06-22T07:50:11Z</time>
      </trkpt>
      <trkpt lat="42.04038" lon="9.17083">
        <ele>1543.2</ele>
        <time>2015-06-22T07:50:19Z</time>
      </trkpt>
      <trkpt lat="42.04042" lon="9.17084">
        <ele>1543.2</ele>
        <time>2015-06-22T07:50:22Z</time>
      </trkpt>
      <trkpt lat="42.0405" lon="9.17085">
        <ele>1542.2</ele>
        <time>2015-06-22T07:50:30Z</time>
      </trkpt>
      <trkpt lat="42.04059" lon="9.17078">
        <ele>1541.4</ele>
        <time>2015-06-22T07:50:42Z</time>
      </trkpt>
      <trkpt lat="42.0406" lon="9.17076">
        <ele>1541.4</ele>
        <time>2015-06-22T07:50:44Z</time>
      </trkpt>
      <trkpt lat="42.04082" lon="9.17047">
        <ele>1541</ele>
        <time>2015-06-22T07:51:12Z</time>
      </trkpt>
      <trkpt lat="42.04091" lon="9.1703">
        <ele>1540.4</ele>
        <time>2015-06-22T07:51:27Z</time>
      </trkpt>
      <trkpt lat="42.041" lon="9.17014">
        <ele>1539.6</ele>
        <time>2015-06-22T07:51:41Z</time>
      </trkpt>
      <trkpt lat="42.04102" lon="9.17012">
        <ele>1539.4</ele>
        <time>2015-06-22T07:51:43Z</time>
      </trkpt>
      <trkpt lat="42.04114" lon="9.1695">
        <ele>1538.8</ele>
        <time>2015-06-22T07:52:30Z</time>
      </trkpt>
      <trkpt lat="42.04112" lon="9.16917">
        <ele>1538.8</ele>
        <time>2015-06-22T07:52:53Z</time>
      </trkpt>
      <trkpt lat="42.04119" lon="9.16906">
        <ele>1538</ele>
        <time>2015-06-22T07:53:01Z</time>
      </trkpt>
      <trkpt lat="42.04128" lon="9.16883">
        <ele>1537.8</ele>
        <time>2015-06-22T07:53:21Z</time>
      </trkpt>
      <trkpt lat="42.04139" lon="9.16851">
        <ele>1538.8</ele>
        <time>2015-06-22T07:53:49Z</time>
      </trkpt>
      <trkpt lat="42.04164" lon="9.16798">
        <ele>1538.6</ele>
        <time>2015-06-22T07:54:36Z</time>
      </trkpt>
      <trkpt lat="42.04167" lon="9.1679">
        <ele>1538.8</ele>
        <time>2015-06-22T07:54:42Z</time>
      </trkpt>
      <trkpt lat="42.04167" lon="9.16787">
        <ele>1538.8</ele>
        <time>2015-06-22T07:54:45Z</time>
      </trkpt>
      <trkpt lat="42.04167" lon="9.16783">
        <ele>1538.8</ele>
        <time>2015-06-22T07:54:48Z</time>
      </trkpt>
      <trkpt lat="42.04167" lon="9.1678">
        <ele>1538.8</ele>
        <time>2015-06-22T07:54:51Z</time>
      </trkpt>
      <trkpt lat="42.04168" lon="9.16775">
        <ele>1539.2</ele>
        <time>2015-06-22T07:54:56Z</time>
      </trkpt>
      <trkpt lat="42.04168" lon="9.16774">
        <ele>1539.2</ele>
        <time>2015-06-22T07:54:58Z</time>
      </trkpt>
      <trkpt lat="42.04168" lon="9.16771">
        <ele>1539.8</ele>
        <time>2015-06-22T07:55:01Z</time>
      </trkpt>
      <trkpt lat="42.0417" lon="9.16769">
        <ele>1540</ele>
        <time>2015-06-22T07:55:03Z</time>
      </trkpt>
      <trkpt lat="42.04172" lon="9.16766">
        <ele>1540.4</ele>
        <time>2015-06-22T07:55:06Z</time>
      </trkpt>
      <trkpt lat="42.04174" lon="9.16764">
        <ele>1540.6</ele>
        <time>2015-06-22T07:55:08Z</time>
      </trkpt>
      <trkpt lat="42.04176" lon="9.16759">
        <ele>1540.6</ele>
        <time>2015-06-22T07:55:12Z</time>
      </trkpt>
      <trkpt lat="42.04181" lon="9.16749">
        <ele>1541.4</ele>
        <time>2015-06-22T07:55:27Z</time>
      </trkpt>
      <trkpt lat="42.04186" lon="9.16743">
        <ele>1542.4</ele>
        <time>2015-06-22T07:55:44Z</time>
      </trkpt>
      <trkpt lat="42.04194" lon="9.16734">
        <ele>1543.8</ele>
        <time>2015-06-22T07:56:06Z</time>
      </trkpt>
      <trkpt lat="42.04196" lon="9.16734">
        <ele>1543.8</ele>
        <time>2015-06-22T07:56:08Z</time>
      </trkpt>
      <trkpt lat="42.04198" lon="9.16733">
        <ele>1544</ele>
        <time>2015-06-22T07:56:10Z</time>
      </trkpt>
      <trkpt lat="42.042" lon="9.16733">
        <ele>1544.2</ele>
        <time>2015-06-22T07:56:13Z</time>
      </trkpt>
      <trkpt lat="42.04205" lon="9.16734">
        <ele>1544.2</ele>
        <time>2015-06-22T07:56:18Z</time>
      </trkpt>
      <trkpt lat="42.04247" lon="9.16759">
        <ele>1544.4</ele>
        <time>2015-06-22T07:56:54Z</time>
      </trkpt>
      <trkpt lat="42.04249" lon="9.16761">
        <ele>1544.2</ele>
        <time>2015-06-22T07:56:56Z</time>
      </trkpt>
      <trkpt lat="42.04256" lon="9.16766">
        <ele>1543.8</ele>
        <time>2015-06-22T07:57:02Z</time>
      </trkpt>
      <trkpt lat="42.0426" lon="9.16772">
        <ele>1543.4</ele>
        <time>2015-06-22T07:57:07Z</time>
      </trkpt>
      <trkpt lat="42.04288" lon="9.16797">
        <ele>1542.8</ele>
        <time>2015-06-22T07:57:37Z</time>
      </trkpt>
      <trkpt lat="42.04292" lon="9.16802">
        <ele>1542.6</ele>
        <time>2015-06-22T07:57:42Z</time>
      </trkpt>
      <trkpt lat="42.04296" lon="9.16801">
        <ele>1542.2</ele>
        <time>2015-06-22T07:57:47Z</time>
      </trkpt>
      <trkpt lat="42.043" lon="9.16797">
        <ele>1541.8</ele>
        <time>2015-06-22T07:57:52Z</time>
      </trkpt>
      <trkpt lat="42.04302" lon="9.16796">
        <ele>1541.8</ele>
        <time>2015-06-22T07:57:55Z</time>
      </trkpt>
      <trkpt lat="42.04307" lon="9.16792">
        <ele>1541.8</ele>
        <time>2015-06-22T07:58:00Z</time>
      </trkpt>
      <trkpt lat="42.0433" lon="9.1677">
        <ele>1541.4</ele>
        <time>2015-06-22T07:58:26Z</time>
      </trkpt>
      <trkpt lat="42.04338" lon="9.16763">
        <ele>1540.6</ele>
        <time>2015-06-22T07:58:40Z</time>
      </trkpt>
      <trkpt lat="42.04347" lon="9.16763">
        <ele>1540.6</ele>
        <time>2015-06-22T07:58:45Z</time>
      </trkpt>
      <trkpt lat="42.04363" lon="9.16766">
        <ele>1539.6</ele>
        <time>2015-06-22T07:59:00Z</time>
      </trkpt>
      <trkpt lat="42.04374" lon="9.16763">
        <ele>1539.4</ele>
        <time>2015-06-22T07:59:19Z</time>
      </trkpt>
      <trkpt lat="42.04403" lon="9.16715">
        <ele>1539</ele>
        <time>2015-06-22T08:00:02Z</time>
      </trkpt>
      <trkpt lat="42.04424" lon="9.16683">
        <ele>1538.2</ele>
        <time>2015-06-22T08:00:44Z</time>
      </trkpt>
      <trkpt lat="42.04434" lon="9.16681">
        <ele>1537.6</ele>
        <time>2015-06-22T08:00:55Z</time>
      </trkpt>
      <trkpt lat="42.0444" lon="9.16682">
        <ele>1536.4</ele>
        <time>2015-06-22T08:01:08Z</time>
      </trkpt>
      <trkpt lat="42.04463" lon="9.16667">
        <ele>1535.8</ele>
        <time>2015-06-22T08:01:29Z</time>
      </trkpt>
      <trkpt lat="42.04479" lon="9.16672">
        <ele>1534.6</ele>
        <time>2015-06-22T08:01:45Z</time>
      </trkpt>
      <trkpt lat="42.04493" lon="9.16681">
        <ele>1533.2</ele>
        <time>2015-06-22T08:01:57Z</time>
      </trkpt>
      <trkpt lat="42.04501" lon="9.16694">
        <ele>1532.2</ele>
        <time>2015-06-22T08:02:19Z</time>
      </trkpt>
      <trkpt lat="42.04503" lon="9.167">
        <ele>1531.6</ele>
        <time>2015-06-22T08:02:26Z</time>
      </trkpt>
      <trkpt lat="42.04509" lon="9.16708">
        <ele>1530.2</ele>
        <time>2015-06-22T08:02:38Z</time>
      </trkpt>
      <trkpt lat="42.04515" lon="9.16712">
        <ele>1529.4</ele>
        <time>2015-06-22T08:02:48Z</time>
      </trkpt>
      <trkpt lat="42.04535" lon="9.16702">
        <ele>1527.8</ele>
        <time>2015-06-22T08:03:53Z</time>
      </trkpt>
      <trkpt lat="42.04549" lon="9.16718">
        <ele>1527.4</ele>
        <time>2015-06-22T08:04:09Z</time>
      </trkpt>
      <trkpt lat="42.04559" lon="9.16734">
        <ele>1526.6</ele>
        <time>2015-06-22T08:04:23Z</time>
      </trkpt>
      <trkpt lat="42.0457" lon="9.16752">
        <ele>1525.6</ele>
        <time>2015-06-22T08:04:39Z</time>
      </trkpt>
      <trkpt lat="42.04595" lon="9.16758">
        <ele>1524.4</ele>
        <time>2015-06-22T08:05:00Z</time>
      </trkpt>
      <trkpt lat="42.04597" lon="9.1676">
        <ele>1524.2</ele>
        <time>2015-06-22T08:05:02Z</time>
      </trkpt>
      <trkpt lat="42.04602" lon="9.16763">
        <ele>1523.8</ele>
        <time>2015-06-22T08:05:07Z</time>
      </trkpt>
      <trkpt lat="42.04628" lon="9.16782">
        <ele>1521.8</ele>
        <time>2015-06-22T08:05:35Z</time>
      </trkpt>
      <trkpt lat="42.0464" lon="9.16797">
        <ele>1521.2</ele>
        <time>2015-06-22T08:05:52Z</time>
      </trkpt>
      <trkpt lat="42.04637" lon="9.16793">
        <ele>1521</ele>
        <time>2015-06-22T08:06:21Z</time>
      </trkpt>
      <trkpt lat="42.04677" lon="9.16808">
        <ele>1520.4</ele>
        <time>2015-06-22T08:07:13Z</time>
      </trkpt>
      <trkpt lat="42.04715" lon="9.16804">
        <ele>1520.8</ele>
        <time>2015-06-22T08:07:46Z</time>
      </trkpt>
      <trkpt lat="42.04736" lon="9.16817">
        <ele>1520.8</ele>
        <time>2015-06-22T08:08:06Z</time>
      </trkpt>
      <trkpt lat="42.04778" lon="9.16845">
        <ele>1521</ele>
        <time>2015-06-22T08:08:47Z</time>
      </trkpt>
      <trkpt lat="42.0479" lon="9.16849">
        <ele>1521.2</ele>
        <time>2015-06-22T08:09:01Z</time>
      </trkpt>
      <trkpt lat="42.04801" lon="9.16848">
        <ele>1522.2</ele>
        <time>2015-06-22T08:09:14Z</time>
      </trkpt>
      <trkpt lat="42.04801" lon="9.16848">
        <ele>1522.2</ele>
        <time>2015-06-22T08:09:15Z</time>
      </trkpt>
      <trkpt lat="42.0481" lon="9.16852">
        <ele>1522.8</ele>
        <time>2015-06-22T08:09:22Z</time>
      </trkpt>
      <trkpt lat="42.04832" lon="9.16873">
        <ele>1524.4</ele>
        <time>2015-06-22T08:09:48Z</time>
      </trkpt>
      <trkpt lat="42.04843" lon="9.16894">
        <ele>1524.6</ele>
        <time>2015-06-22T08:10:06Z</time>
      </trkpt>
      <trkpt lat="42.04849" lon="9.16902">
        <ele>1523.4</ele>
        <time>2015-06-22T08:10:14Z</time>
      </trkpt>
      <trkpt lat="42.04859" lon="9.16933">
        <ele>1521.8</ele>
        <time>2015-06-22T08:10:39Z</time>
      </trkpt>
      <trkpt lat="42.04862" lon="9.16945">
        <ele>1521.4</ele>
        <time>2015-06-22T08:10:48Z</time>
      </trkpt>
      <trkpt lat="42.04867" lon="9.16967">
        <ele>1520</ele>
        <time>2015-06-22T08:11:01Z</time>
      </trkpt>
      <trkpt lat="42.04873" lon="9.1698">
        <ele>1519.2</ele>
        <time>2015-06-22T08:11:11Z</time>
      </trkpt>
      <trkpt lat="42.04881" lon="9.16989">
        <ele>1518.2</ele>
        <time>2015-06-22T08:11:22Z</time>
      </trkpt>
      <trkpt lat="42.04896" lon="9.17">
        <ele>1517</ele>
        <time>2015-06-22T08:11:40Z</time>
      </trkpt>
      <trkpt lat="42.04906" lon="9.17002">
        <ele>1516.2</ele>
        <time>2015-06-22T08:11:47Z</time>
      </trkpt>
      <trkpt lat="42.0491" lon="9.17004">
        <ele>1515.6</ele>
        <time>2015-06-22T08:11:51Z</time>
      </trkpt>
      <trkpt lat="42.04918" lon="9.1701">
        <ele>1515.4</ele>
        <time>2015-06-22T08:11:59Z</time>
      </trkpt>
      <trkpt lat="42.04921" lon="9.17014">
        <ele>1515.2</ele>
        <time>2015-06-22T08:12:03Z</time>
      </trkpt>
      <trkpt lat="42.04923" lon="9.17014">
        <ele>1515</ele>
        <time>2015-06-22T08:12:05Z</time>
      </trkpt>
      <trkpt lat="42.04927" lon="9.17015">
        <ele>1514.6</ele>
        <time>2015-06-22T08:12:09Z</time>
      </trkpt>
      <trkpt lat="42.04932" lon="9.17017">
        <ele>1514.2</ele>
        <time>2015-06-22T08:12:13Z</time>
      </trkpt>
      <trkpt lat="42.04935" lon="9.17016">
        <ele>1514</ele>
        <time>2015-06-22T08:12:16Z</time>
      </trkpt>
      <trkpt lat="42.04937" lon="9.17016">
        <ele>1514</ele>
        <time>2015-06-22T08:12:18Z</time>
      </trkpt>
      <trkpt lat="42.04939" lon="9.17017">
        <ele>1514</ele>
        <time>2015-06-22T08:12:20Z</time>
      </trkpt>
      <trkpt lat="42.04943" lon="9.17018">
        <ele>1513.6</ele>
        <time>2015-06-22T08:12:25Z</time>
      </trkpt>
      <trkpt lat="42.04944" lon="9.17019">
        <ele>1513.6</ele>
        <time>2015-06-22T08:12:26Z</time>
      </trkpt>
      <trkpt lat="42.04964" lon="9.17024">
        <ele>1513.2</ele>
        <time>2015-06-22T08:12:45Z</time>
      </trkpt>
      <trkpt lat="42.04992" lon="9.17034">
        <ele>1511.6</ele>
        <time>2015-06-22T08:13:12Z</time>
      </trkpt>
      <trkpt lat="42.04999" lon="9.17038">
        <ele>1511.4</ele>
        <time>2015-06-22T08:13:20Z</time>
      </trkpt>
      <trkpt lat="42.05009" lon="9.1705">
        <ele>1510.4</ele>
        <time>2015-06-22T08:13:31Z</time>
      </trkpt>
      <trkpt lat="42.05015" lon="9.17057">
        <ele>1510.2</ele>
        <time>2015-06-22T08:13:38Z</time>
      </trkpt>
      <trkpt lat="42.0502" lon="9.17063">
        <ele>1509.4</ele>
        <time>2015-06-22T08:13:44Z</time>
      </trkpt>
      <trkpt lat="42.05035" lon="9.17075">
        <ele>1508.6</ele>
        <time>2015-06-22T08:14:07Z</time>
      </trkpt>
      <trkpt lat="42.05038" lon="9.17076">
        <ele>1508</ele>
        <time>2015-06-22T08:14:11Z</time>
      </trkpt>
      <trkpt lat="42.0504" lon="9.17077">
        <ele>1508</ele>
        <time>2015-06-22T08:14:13Z</time>
      </trkpt>
      <trkpt lat="42.05057" lon="9.17077">
        <ele>1507.8</ele>
        <time>2015-06-22T08:17:17Z</time>
      </trkpt>
      <trkpt lat="42.05059" lon="9.17065">
        <ele>1507.4</ele>
        <time>2015-06-22T08:17:31Z</time>
      </trkpt>
      <trkpt lat="42.05064" lon="9.17049">
        <ele>1506.4</ele>
        <time>2015-06-22T08:17:51Z</time>
      </trkpt>
      <trkpt lat="42.05062" lon="9.17045">
        <ele>1506.2</ele>
        <time>2015-06-22T08:17:58Z</time>
      </trkpt>
      <trkpt lat="42.05072" lon="9.17018">
        <ele>1505.8</ele>
        <time>2015-06-22T08:18:22Z</time>
      </trkpt>
      <trkpt lat="42.05079" lon="9.16994">
        <ele>1504.6</ele>
        <time>2015-06-22T08:18:37Z</time>
      </trkpt>
      <trkpt lat="42.05086" lon="9.16965">
        <ele>1503.6</ele>
        <time>2015-06-22T08:18:57Z</time>
      </trkpt>
      <trkpt lat="42.05109" lon="9.16928">
        <ele>1502.4</ele>
        <time>2015-06-22T08:19:35Z</time>
      </trkpt>
      <trkpt lat="42.05145" lon="9.1689">
        <ele>1501.6</ele>
        <time>2015-06-22T08:20:12Z</time>
      </trkpt>
      <trkpt lat="42.05155" lon="9.16877">
        <ele>1501.6</ele>
        <time>2015-06-22T08:20:23Z</time>
      </trkpt>
      <trkpt lat="42.05164" lon="9.16858">
        <ele>1500.8</ele>
        <time>2015-06-22T08:20:37Z</time>
      </trkpt>
      <trkpt lat="42.0517" lon="9.16815">
        <ele>1499.8</ele>
        <time>2015-06-22T08:21:07Z</time>
      </trkpt>
      <trkpt lat="42.05172" lon="9.16775">
        <ele>1499</ele>
        <time>2015-06-22T08:21:40Z</time>
      </trkpt>
      <trkpt lat="42.05172" lon="9.16772">
        <ele>1499</ele>
        <time>2015-06-22T08:21:42Z</time>
      </trkpt>
      <trkpt lat="42.05178" lon="9.16735">
        <ele>1498.4</ele>
        <time>2015-06-22T08:22:18Z</time>
      </trkpt>
      <trkpt lat="42.05186" lon="9.16731">
        <ele>1497.6</ele>
        <time>2015-06-22T08:22:28Z</time>
      </trkpt>
      <trkpt lat="42.05189" lon="9.1673">
        <ele>1497.6</ele>
        <time>2015-06-22T08:22:31Z</time>
      </trkpt>
      <trkpt lat="42.05197" lon="9.16724">
        <ele>1497.4</ele>
        <time>2015-06-22T08:22:48Z</time>
      </trkpt>
      <trkpt lat="42.05198" lon="9.16723">
        <ele>1497.4</ele>
        <time>2015-06-22T08:22:50Z</time>
      </trkpt>
      <trkpt lat="42.05201" lon="9.16719">
        <ele>1497</ele>
        <time>2015-06-22T08:23:00Z</time>
      </trkpt>
      <trkpt lat="42.05204" lon="9.16708">
        <ele>1495.6</ele>
        <time>2015-06-22T08:23:14Z</time>
      </trkpt>
      <trkpt lat="42.05211" lon="9.16701">
        <ele>1495</ele>
        <time>2015-06-22T08:23:31Z</time>
      </trkpt>
      <trkpt lat="42.05216" lon="9.16701">
        <ele>1494.4</ele>
        <time>2015-06-22T08:23:35Z</time>
      </trkpt>
      <trkpt lat="42.0522" lon="9.16699">
        <ele>1494.4</ele>
        <time>2015-06-22T08:23:38Z</time>
      </trkpt>
      <trkpt lat="42.05226" lon="9.16696">
        <ele>1493.8</ele>
        <time>2015-06-22T08:23:45Z</time>
      </trkpt>
      <trkpt lat="42.0523" lon="9.1669">
        <ele>1493.2</ele>
        <time>2015-06-22T08:23:52Z</time>
      </trkpt>
      <trkpt lat="42.05246" lon="9.167">
        <ele>1491.8</ele>
        <time>2015-06-22T08:24:10Z</time>
      </trkpt>
      <trkpt lat="42.05257" lon="9.16708">
        <ele>1490.8</ele>
        <time>2015-06-22T08:24:22Z</time>
      </trkpt>
      <trkpt lat="42.0527" lon="9.16719">
        <ele>1490.2</ele>
        <time>2015-06-22T08:24:37Z</time>
      </trkpt>
      <trkpt lat="42.05283" lon="9.16724">
        <ele>1488.8</ele>
        <time>2015-06-22T08:24:49Z</time>
      </trkpt>
      <trkpt lat="42.05305" lon="9.16718">
        <ele>1487.4</ele>
        <time>2015-06-22T08:25:24Z</time>
      </trkpt>
      <trkpt lat="42.0532" lon="9.16706">
        <ele>1488.4</ele>
        <time>2015-06-22T08:25:41Z</time>
      </trkpt>
      <trkpt lat="42.05322" lon="9.16702">
        <ele>1489</ele>
        <time>2015-06-22T08:25:45Z</time>
      </trkpt>
      <trkpt lat="42.05324" lon="9.16691">
        <ele>1489.8</ele>
        <time>2015-06-22T08:25:54Z</time>
      </trkpt>
      <trkpt lat="42.05323" lon="9.16688">
        <ele>1490</ele>
        <time>2015-06-22T08:25:57Z</time>
      </trkpt>
      <trkpt lat="42.05323" lon="9.16687">
        <ele>1490</ele>
        <time>2015-06-22T08:25:58Z</time>
      </trkpt>
      <trkpt lat="42.05324" lon="9.16684">
        <ele>1490.2</ele>
        <time>2015-06-22T08:26:01Z</time>
      </trkpt>
      <trkpt lat="42.05331" lon="9.16654">
        <ele>1490.6</ele>
        <time>2015-06-22T08:26:24Z</time>
      </trkpt>
      <trkpt lat="42.05334" lon="9.16644">
        <ele>1491.2</ele>
        <time>2015-06-22T08:26:33Z</time>
      </trkpt>
      <trkpt lat="42.05336" lon="9.1664">
        <ele>1491.4</ele>
        <time>2015-06-22T08:26:36Z</time>
      </trkpt>
      <trkpt lat="42.05338" lon="9.16635">
        <ele>1490.8</ele>
        <time>2015-06-22T08:26:43Z</time>
      </trkpt>
      <trkpt lat="42.05341" lon="9.16631">
        <ele>1490.4</ele>
        <time>2015-06-22T08:26:48Z</time>
      </trkpt>
      <trkpt lat="42.05344" lon="9.16628">
        <ele>1490.2</ele>
        <time>2015-06-22T08:26:51Z</time>
      </trkpt>
      <trkpt lat="42.05359" lon="9.16623">
        <ele>1488.8</ele>
        <time>2015-06-22T08:27:07Z</time>
      </trkpt>
      <trkpt lat="42.05365" lon="9.16622">
        <ele>1488</ele>
        <time>2015-06-22T08:27:16Z</time>
      </trkpt>
      <trkpt lat="42.05366" lon="9.16622">
        <ele>1487.6</ele>
        <time>2015-06-22T08:27:19Z</time>
      </trkpt>
      <trkpt lat="42.05376" lon="9.16624">
        <ele>1486.8</ele>
        <time>2015-06-22T08:27:32Z</time>
      </trkpt>
      <trkpt lat="42.05377" lon="9.16624">
        <ele>1486.8</ele>
        <time>2015-06-22T08:27:33Z</time>
      </trkpt>
      <trkpt lat="42.0539" lon="9.16623">
        <ele>1485.8</ele>
        <time>2015-06-22T08:27:46Z</time>
      </trkpt>
      <trkpt lat="42.05403" lon="9.1662">
        <ele>1484.6</ele>
        <time>2015-06-22T08:27:57Z</time>
      </trkpt>
      <trkpt lat="42.05412" lon="9.16617">
        <ele>1484</ele>
        <time>2015-06-22T08:28:05Z</time>
      </trkpt>
      <trkpt lat="42.05424" lon="9.16613">
        <ele>1482.6</ele>
        <time>2015-06-22T08:28:18Z</time>
      </trkpt>
      <trkpt lat="42.05428" lon="9.16609">
        <ele>1482.2</ele>
        <time>2015-06-22T08:28:23Z</time>
      </trkpt>
      <trkpt lat="42.05432" lon="9.16607">
        <ele>1481.4</ele>
        <time>2015-06-22T08:28:27Z</time>
      </trkpt>
      <trkpt lat="42.05435" lon="9.16605">
        <ele>1481.2</ele>
        <time>2015-06-22T08:28:30Z</time>
      </trkpt>
      <trkpt lat="42.05438" lon="9.16604">
        <ele>1481</ele>
        <time>2015-06-22T08:28:33Z</time>
      </trkpt>
      <trkpt lat="42.05447" lon="9.16598">
        <ele>1479.4</ele>
        <time>2015-06-22T08:28:42Z</time>
      </trkpt>
      <trkpt lat="42.05451" lon="9.16594">
        <ele>1478.8</ele>
        <time>2015-06-22T08:28:48Z</time>
      </trkpt>
      <trkpt lat="42.05454" lon="9.16587">
        <ele>1477.4</ele>
        <time>2015-06-22T08:28:55Z</time>
      </trkpt>
      <trkpt lat="42.05456" lon="9.16585">
        <ele>1477</ele>
        <time>2015-06-22T08:28:58Z</time>
      </trkpt>
      <trkpt lat="42.05457" lon="9.16582">
        <ele>1476.6</ele>
        <time>2015-06-22T08:29:00Z</time>
      </trkpt>
      <trkpt lat="42.05459" lon="9.1658">
        <ele>1476</ele>
        <time>2015-06-22T08:29:03Z</time>
      </trkpt>
      <trkpt lat="42.05463" lon="9.16573">
        <ele>1475.2</ele>
        <time>2015-06-22T08:29:09Z</time>
      </trkpt>
      <trkpt lat="42.05469" lon="9.16565">
        <ele>1473.6</ele>
        <time>2015-06-22T08:29:18Z</time>
      </trkpt>
      <trkpt lat="42.05472" lon="9.16557">
        <ele>1473</ele>
        <time>2015-06-22T08:29:24Z</time>
      </trkpt>
      <trkpt lat="42.05487" lon="9.16515">
        <ele>1471.6</ele>
        <time>2015-06-22T08:29:57Z</time>
      </trkpt>
      <trkpt lat="42.05489" lon="9.16507">
        <ele>1470.8</ele>
        <time>2015-06-22T08:30:03Z</time>
      </trkpt>
      <trkpt lat="42.05497" lon="9.16491">
        <ele>1469.2</ele>
        <time>2015-06-22T08:30:16Z</time>
      </trkpt>
      <trkpt lat="42.05498" lon="9.16489">
        <ele>1469.2</ele>
        <time>2015-06-22T08:30:18Z</time>
      </trkpt>
      <trkpt lat="42.05502" lon="9.16482">
        <ele>1468.4</ele>
        <time>2015-06-22T08:30:26Z</time>
      </trkpt>
      <trkpt lat="42.05507" lon="9.16473">
        <ele>1467.2</ele>
        <time>2015-06-22T08:30:37Z</time>
      </trkpt>
      <trkpt lat="42.05508" lon="9.16468">
        <ele>1467.2</ele>
        <time>2015-06-22T08:30:40Z</time>
      </trkpt>
      <trkpt lat="42.05514" lon="9.16455">
        <ele>1466.4</ele>
        <time>2015-06-22T08:30:53Z</time>
      </trkpt>
      <trkpt lat="42.05518" lon="9.16441">
        <ele>1465.6</ele>
        <time>2015-06-22T08:31:04Z</time>
      </trkpt>
      <trkpt lat="42.05523" lon="9.16421">
        <ele>1464</ele>
        <time>2015-06-22T08:31:21Z</time>
      </trkpt>
      <trkpt lat="42.05527" lon="9.16412">
        <ele>1463.4</ele>
        <time>2015-06-22T08:31:29Z</time>
      </trkpt>
      <trkpt lat="42.0553" lon="9.16402">
        <ele>1462.4</ele>
        <time>2015-06-22T08:31:39Z</time>
      </trkpt>
      <trkpt lat="42.05532" lon="9.16391">
        <ele>1461.4</ele>
        <time>2015-06-22T08:31:47Z</time>
      </trkpt>
      <trkpt lat="42.05542" lon="9.1637">
        <ele>1460.2</ele>
        <time>2015-06-22T08:32:05Z</time>
      </trkpt>
      <trkpt lat="42.05543" lon="9.1636">
        <ele>1459.8</ele>
        <time>2015-06-22T08:32:14Z</time>
      </trkpt>
      <trkpt lat="42.05543" lon="9.16359">
        <ele>1459.8</ele>
        <time>2015-06-22T08:32:15Z</time>
      </trkpt>
      <trkpt lat="42.05546" lon="9.16353">
        <ele>1459</ele>
        <time>2015-06-22T08:32:20Z</time>
      </trkpt>
      <trkpt lat="42.0555" lon="9.16341">
        <ele>1457.8</ele>
        <time>2015-06-22T08:32:29Z</time>
      </trkpt>
      <trkpt lat="42.05555" lon="9.16326">
        <ele>1456.4</ele>
        <time>2015-06-22T08:32:40Z</time>
      </trkpt>
      <trkpt lat="42.05561" lon="9.16314">
        <ele>1455.4</ele>
        <time>2015-06-22T08:32:50Z</time>
      </trkpt>
      <trkpt lat="42.05565" lon="9.16296">
        <ele>1454.4</ele>
        <time>2015-06-22T08:33:04Z</time>
      </trkpt>
      <trkpt lat="42.05564" lon="9.16277">
        <ele>1453.8</ele>
        <time>2015-06-22T08:33:19Z</time>
      </trkpt>
      <trkpt lat="42.05565" lon="9.16269">
        <ele>1453.2</ele>
        <time>2015-06-22T08:33:27Z</time>
      </trkpt>
      <trkpt lat="42.05565" lon="9.16267">
        <ele>1453</ele>
        <time>2015-06-22T08:33:29Z</time>
      </trkpt>
      <trkpt lat="42.05565" lon="9.16262">
        <ele>1452.4</ele>
        <time>2015-06-22T08:33:32Z</time>
      </trkpt>
      <trkpt lat="42.05564" lon="9.1626">
        <ele>1451.8</ele>
        <time>2015-06-22T08:33:36Z</time>
      </trkpt>
      <trkpt lat="42.05568" lon="9.16255">
        <ele>1451</ele>
        <time>2015-06-22T08:33:46Z</time>
      </trkpt>
      <trkpt lat="42.05575" lon="9.16243">
        <ele>1449.6</ele>
        <time>2015-06-22T08:33:59Z</time>
      </trkpt>
      <trkpt lat="42.05585" lon="9.16219">
        <ele>1449.2</ele>
        <time>2015-06-22T08:34:20Z</time>
      </trkpt>
      <trkpt lat="42.05587" lon="9.16208">
        <ele>1447.8</ele>
        <time>2015-06-22T08:34:30Z</time>
      </trkpt>
      <trkpt lat="42.0559" lon="9.16198">
        <ele>1446.6</ele>
        <time>2015-06-22T08:34:40Z</time>
      </trkpt>
      <trkpt lat="42.0559" lon="9.16189">
        <ele>1446.2</ele>
        <time>2015-06-22T08:34:48Z</time>
      </trkpt>
      <trkpt lat="42.05589" lon="9.16188">
        <ele>1446</ele>
        <time>2015-06-22T08:34:50Z</time>
      </trkpt>
      <trkpt lat="42.05586" lon="9.16184">
        <ele>1446.8</ele>
        <time>2015-06-22T08:35:13Z</time>
      </trkpt>
      <trkpt lat="42.05597" lon="9.16163">
        <ele>1447.6</ele>
        <time>2015-06-22T08:36:05Z</time>
      </trkpt>
      <trkpt lat="42.05627" lon="9.16138">
        <ele>1449</ele>
        <time>2015-06-22T08:36:47Z</time>
      </trkpt>
      <trkpt lat="42.05635" lon="9.16126">
        <ele>1450.2</ele>
        <time>2015-06-22T08:37:03Z</time>
      </trkpt>
      <trkpt lat="42.05638" lon="9.16139">
        <ele>1449.6</ele>
        <time>2015-06-22T08:37:50Z</time>
      </trkpt>
      <trkpt lat="42.05638" lon="9.16141">
        <ele>1448.2</ele>
        <time>2015-06-22T08:37:59Z</time>
      </trkpt>
      <trkpt lat="42.05642" lon="9.16144">
        <ele>1447</ele>
        <time>2015-06-22T08:38:39Z</time>
      </trkpt>
      <trkpt lat="42.05648" lon="9.16142">
        <ele>1446.6</ele>
        <time>2015-06-22T08:38:46Z</time>
      </trkpt>
      <trkpt lat="42.05648" lon="9.16142">
        <ele>1446.6</ele>
        <time>2015-06-22T08:38:48Z</time>
      </trkpt>
      <trkpt lat="42.0565" lon="9.16142">
        <ele>1446.8</ele>
        <time>2015-06-22T08:38:58Z</time>
      </trkpt>
      <trkpt lat="42.0565" lon="9.16142">
        <ele>1448</ele>
        <time>2015-06-22T08:39:04Z</time>
      </trkpt>
      <trkpt lat="42.05653" lon="9.16141">
        <ele>1448.8</ele>
        <time>2015-06-22T08:39:09Z</time>
      </trkpt>
      <trkpt lat="42.05656" lon="9.16142">
        <ele>1449.8</ele>
        <time>2015-06-22T08:39:14Z</time>
      </trkpt>
      <trkpt lat="42.05657" lon="9.16145">
        <ele>1450.4</ele>
        <time>2015-06-22T08:39:16Z</time>
      </trkpt>
      <trkpt lat="42.05668" lon="9.16167">
        <ele>1451</ele>
        <time>2015-06-22T08:39:53Z</time>
      </trkpt>
      <trkpt lat="42.05671" lon="9.16178">
        <ele>1450</ele>
        <time>2015-06-22T08:40:03Z</time>
      </trkpt>
      <trkpt lat="42.05675" lon="9.16185">
        <ele>1449.2</ele>
        <time>2015-06-22T08:40:12Z</time>
      </trkpt>
      <trkpt lat="42.05679" lon="9.1619">
        <ele>1447.8</ele>
        <time>2015-06-22T08:40:21Z</time>
      </trkpt>
      <trkpt lat="42.05684" lon="9.16201">
        <ele>1446.4</ele>
        <time>2015-06-22T08:40:37Z</time>
      </trkpt>
      <trkpt lat="42.05697" lon="9.16215">
        <ele>1445.8</ele>
        <time>2015-06-22T08:41:02Z</time>
      </trkpt>
      <trkpt lat="42.05704" lon="9.16225">
        <ele>1444</ele>
        <time>2015-06-22T08:41:15Z</time>
      </trkpt>
      <trkpt lat="42.05715" lon="9.16246">
        <ele>1443.4</ele>
        <time>2015-06-22T08:41:30Z</time>
      </trkpt>
      <trkpt lat="42.05716" lon="9.16255">
        <ele>1442.4</ele>
        <time>2015-06-22T08:41:38Z</time>
      </trkpt>
      <trkpt lat="42.05718" lon="9.16264">
        <ele>1441.4</ele>
        <time>2015-06-22T08:41:46Z</time>
      </trkpt>
      <trkpt lat="42.05722" lon="9.16273">
        <ele>1440.2</ele>
        <time>2015-06-22T08:41:55Z</time>
      </trkpt>
      <trkpt lat="42.05726" lon="9.16281">
        <ele>1439.2</ele>
        <time>2015-06-22T08:42:05Z</time>
      </trkpt>
      <trkpt lat="42.0573" lon="9.16285">
        <ele>1438.4</ele>
        <time>2015-06-22T08:42:12Z</time>
      </trkpt>
      <trkpt lat="42.05733" lon="9.16293">
        <ele>1437.4</ele>
        <time>2015-06-22T08:42:20Z</time>
      </trkpt>
      <trkpt lat="42.05733" lon="9.16296">
        <ele>1437.2</ele>
        <time>2015-06-22T08:42:22Z</time>
      </trkpt>
      <trkpt lat="42.05736" lon="9.16305">
        <ele>1436</ele>
        <time>2015-06-22T08:42:30Z</time>
      </trkpt>
      <trkpt lat="42.05739" lon="9.16318">
        <ele>1434.8</ele>
        <time>2015-06-22T08:42:41Z</time>
      </trkpt>
      <trkpt lat="42.05744" lon="9.16327">
        <ele>1433.6</ele>
        <time>2015-06-22T08:42:51Z</time>
      </trkpt>
      <trkpt lat="42.05754" lon="9.16332">
        <ele>1432.8</ele>
        <time>2015-06-22T08:43:08Z</time>
      </trkpt>
      <trkpt lat="42.05763" lon="9.16339">
        <ele>1431.4</ele>
        <time>2015-06-22T08:43:18Z</time>
      </trkpt>
      <trkpt lat="42.05769" lon="9.16344">
        <ele>1430.6</ele>
        <time>2015-06-22T08:43:27Z</time>
      </trkpt>
      <trkpt lat="42.05775" lon="9.16356">
        <ele>1429.4</ele>
        <time>2015-06-22T08:43:38Z</time>
      </trkpt>
      <trkpt lat="42.05781" lon="9.16376">
        <ele>1428.2</ele>
        <time>2015-06-22T08:43:52Z</time>
      </trkpt>
      <trkpt lat="42.05787" lon="9.16388">
        <ele>1427.4</ele>
        <time>2015-06-22T08:44:03Z</time>
      </trkpt>
      <trkpt lat="42.05789" lon="9.16397">
        <ele>1426.6</ele>
        <time>2015-06-22T08:44:09Z</time>
      </trkpt>
      <trkpt lat="42.05792" lon="9.16405">
        <ele>1425.2</ele>
        <time>2015-06-22T08:44:18Z</time>
      </trkpt>
      <trkpt lat="42.05795" lon="9.16412">
        <ele>1424.6</ele>
        <time>2015-06-22T08:44:24Z</time>
      </trkpt>
      <trkpt lat="42.05798" lon="9.16421">
        <ele>1423.4</ele>
        <time>2015-06-22T08:44:31Z</time>
      </trkpt>
      <trkpt lat="42.05801" lon="9.16433">
        <ele>1421.8</ele>
        <time>2015-06-22T08:44:41Z</time>
      </trkpt>
      <trkpt lat="42.05808" lon="9.16442">
        <ele>1421</ele>
        <time>2015-06-22T08:44:54Z</time>
      </trkpt>
      <trkpt lat="42.05808" lon="9.16443">
        <ele>1420.8</ele>
        <time>2015-06-22T08:44:55Z</time>
      </trkpt>
      <trkpt lat="42.05809" lon="9.16451">
        <ele>1420.2</ele>
        <time>2015-06-22T08:45:02Z</time>
      </trkpt>
      <trkpt lat="42.0581" lon="9.1646">
        <ele>1419</ele>
        <time>2015-06-22T08:45:10Z</time>
      </trkpt>
      <trkpt lat="42.05814" lon="9.16468">
        <ele>1417.8</ele>
        <time>2015-06-22T08:45:18Z</time>
      </trkpt>
      <trkpt lat="42.05816" lon="9.16471">
        <ele>1417.6</ele>
        <time>2015-06-22T08:45:21Z</time>
      </trkpt>
      <trkpt lat="42.05819" lon="9.16475">
        <ele>1417</ele>
        <time>2015-06-22T08:45:27Z</time>
      </trkpt>
      <trkpt lat="42.05823" lon="9.16475">
        <ele>1416</ele>
        <time>2015-06-22T08:45:32Z</time>
      </trkpt>
      <trkpt lat="42.05833" lon="9.16473">
        <ele>1415.2</ele>
        <time>2015-06-22T08:45:42Z</time>
      </trkpt>
      <trkpt lat="42.05836" lon="9.16478">
        <ele>1414.6</ele>
        <time>2015-06-22T08:45:51Z</time>
      </trkpt>
      <trkpt lat="42.05839" lon="9.16488">
        <ele>1414.4</ele>
        <time>2015-06-22T08:45:59Z</time>
      </trkpt>
      <trkpt lat="42.05847" lon="9.16511">
        <ele>1414.2</ele>
        <time>2015-06-22T08:46:16Z</time>
      </trkpt>
      <trkpt lat="42.05856" lon="9.16544">
        <ele>1412.8</ele>
        <time>2015-06-22T08:46:37Z</time>
      </trkpt>
      <trkpt lat="42.05856" lon="9.16549">
        <ele>1412.6</ele>
        <time>2015-06-22T08:46:41Z</time>
      </trkpt>
      <trkpt lat="42.05855" lon="9.16555">
        <ele>1412.2</ele>
        <time>2015-06-22T08:46:44Z</time>
      </trkpt>
      <trkpt lat="42.05856" lon="9.1656">
        <ele>1411.6</ele>
        <time>2015-06-22T08:46:48Z</time>
      </trkpt>
      <trkpt lat="42.05857" lon="9.16563">
        <ele>1411</ele>
        <time>2015-06-22T08:46:51Z</time>
      </trkpt>
      <trkpt lat="42.05859" lon="9.1657">
        <ele>1410</ele>
        <time>2015-06-22T08:46:57Z</time>
      </trkpt>
      <trkpt lat="42.0586" lon="9.16572">
        <ele>1409.8</ele>
        <time>2015-06-22T08:46:59Z</time>
      </trkpt>
      <trkpt lat="42.05865" lon="9.16579">
        <ele>1409.2</ele>
        <time>2015-06-22T08:47:04Z</time>
      </trkpt>
      <trkpt lat="42.05867" lon="9.16581">
        <ele>1408.4</ele>
        <time>2015-06-22T08:47:07Z</time>
      </trkpt>
      <trkpt lat="42.0587" lon="9.16583">
        <ele>1408.2</ele>
        <time>2015-06-22T08:47:09Z</time>
      </trkpt>
      <trkpt lat="42.05874" lon="9.16586">
        <ele>1407.4</ele>
        <time>2015-06-22T08:47:12Z</time>
      </trkpt>
      <trkpt lat="42.05876" lon="9.16589">
        <ele>1407</ele>
        <time>2015-06-22T08:47:14Z</time>
      </trkpt>
      <trkpt lat="42.05877" lon="9.16597">
        <ele>1405.6</ele>
        <time>2015-06-22T08:47:20Z</time>
      </trkpt>
      <trkpt lat="42.05878" lon="9.166">
        <ele>1405.2</ele>
        <time>2015-06-22T08:47:22Z</time>
      </trkpt>
      <trkpt lat="42.05879" lon="9.16603">
        <ele>1404.8</ele>
        <time>2015-06-22T08:47:25Z</time>
      </trkpt>
      <trkpt lat="42.0588" lon="9.16603">
        <ele>1404.4</ele>
        <time>2015-06-22T08:47:26Z</time>
      </trkpt>
      <trkpt lat="42.0588" lon="9.16604">
        <ele>1404.2</ele>
        <time>2015-06-22T08:47:27Z</time>
      </trkpt>
      <trkpt lat="42.05882" lon="9.16607">
        <ele>1403.8</ele>
        <time>2015-06-22T08:47:30Z</time>
      </trkpt>
      <trkpt lat="42.05882" lon="9.16609">
        <ele>1403.4</ele>
        <time>2015-06-22T08:47:32Z</time>
      </trkpt>
      <trkpt lat="42.05885" lon="9.16614">
        <ele>1402.2</ele>
        <time>2015-06-22T08:47:38Z</time>
      </trkpt>
      <trkpt lat="42.05893" lon="9.16625">
        <ele>1400.6</ele>
        <time>2015-06-22T08:47:49Z</time>
      </trkpt>
      <trkpt lat="42.05899" lon="9.16639">
        <ele>1399.4</ele>
        <time>2015-06-22T08:48:03Z</time>
      </trkpt>
      <trkpt lat="42.05904" lon="9.16648">
        <ele>1398.4</ele>
        <time>2015-06-22T08:48:11Z</time>
      </trkpt>
      <trkpt lat="42.05912" lon="9.16664">
        <ele>1397</ele>
        <time>2015-06-22T08:48:25Z</time>
      </trkpt>
      <trkpt lat="42.05918" lon="9.1667">
        <ele>1396.2</ele>
        <time>2015-06-22T08:48:33Z</time>
      </trkpt>
      <trkpt lat="42.05928" lon="9.16684">
        <ele>1394.8</ele>
        <time>2015-06-22T08:48:46Z</time>
      </trkpt>
      <trkpt lat="42.05937" lon="9.16691">
        <ele>1393.8</ele>
        <time>2015-06-22T08:48:56Z</time>
      </trkpt>
      <trkpt lat="42.05941" lon="9.16695">
        <ele>1393.2</ele>
        <time>2015-06-22T08:49:02Z</time>
      </trkpt>
      <trkpt lat="42.05945" lon="9.16706">
        <ele>1391.2</ele>
        <time>2015-06-22T08:49:13Z</time>
      </trkpt>
      <trkpt lat="42.05947" lon="9.16713">
        <ele>1390.8</ele>
        <time>2015-06-22T08:49:20Z</time>
      </trkpt>
      <trkpt lat="42.05949" lon="9.16722">
        <ele>1389.8</ele>
        <time>2015-06-22T08:49:27Z</time>
      </trkpt>
      <trkpt lat="42.05949" lon="9.16735">
        <ele>1388.4</ele>
        <time>2015-06-22T08:49:35Z</time>
      </trkpt>
      <trkpt lat="42.0595" lon="9.16742">
        <ele>1387.4</ele>
        <time>2015-06-22T08:49:42Z</time>
      </trkpt>
      <trkpt lat="42.05951" lon="9.16747">
        <ele>1386.6</ele>
        <time>2015-06-22T08:49:49Z</time>
      </trkpt>
      <trkpt lat="42.05947" lon="9.16758">
        <ele>1385.2</ele>
        <time>2015-06-22T08:50:12Z</time>
      </trkpt>
      <trkpt lat="42.05949" lon="9.16763">
        <ele>1385</ele>
        <time>2015-06-22T08:50:17Z</time>
      </trkpt>
      <trkpt lat="42.05949" lon="9.16771">
        <ele>1383.8</ele>
        <time>2015-06-22T08:50:24Z</time>
      </trkpt>
      <trkpt lat="42.0595" lon="9.16779">
        <ele>1383</ele>
        <time>2015-06-22T08:50:30Z</time>
      </trkpt>
      <trkpt lat="42.05954" lon="9.16786">
        <ele>1381.6</ele>
        <time>2015-06-22T08:50:36Z</time>
      </trkpt>
      <trkpt lat="42.05957" lon="9.1679">
        <ele>1380.8</ele>
        <time>2015-06-22T08:50:40Z</time>
      </trkpt>
      <trkpt lat="42.05959" lon="9.16794">
        <ele>1379.6</ele>
        <time>2015-06-22T08:50:45Z</time>
      </trkpt>
      <trkpt lat="42.05961" lon="9.16801">
        <ele>1378.2</ele>
        <time>2015-06-22T08:50:51Z</time>
      </trkpt>
      <trkpt lat="42.05974" lon="9.16832">
        <ele>1376.6</ele>
        <time>2015-06-22T08:51:25Z</time>
      </trkpt>
      <trkpt lat="42.05975" lon="9.16834">
        <ele>1376.4</ele>
        <time>2015-06-22T08:51:27Z</time>
      </trkpt>
      <trkpt lat="42.05977" lon="9.16836">
        <ele>1376</ele>
        <time>2015-06-22T08:51:29Z</time>
      </trkpt>
      <trkpt lat="42.05977" lon="9.16837">
        <ele>1375.6</ele>
        <time>2015-06-22T08:51:31Z</time>
      </trkpt>
      <trkpt lat="42.05978" lon="9.16842">
        <ele>1375</ele>
        <time>2015-06-22T08:51:35Z</time>
      </trkpt>
      <trkpt lat="42.0598" lon="9.16845">
        <ele>1374.6</ele>
        <time>2015-06-22T08:51:38Z</time>
      </trkpt>
      <trkpt lat="42.05983" lon="9.16847">
        <ele>1373.8</ele>
        <time>2015-06-22T08:51:43Z</time>
      </trkpt>
      <trkpt lat="42.05985" lon="9.16845">
        <ele>1372.4</ele>
        <time>2015-06-22T08:51:49Z</time>
      </trkpt>
      <trkpt lat="42.0599" lon="9.16839">
        <ele>1371.2</ele>
        <time>2015-06-22T08:51:58Z</time>
      </trkpt>
      <trkpt lat="42.05996" lon="9.16822">
        <ele>1369.6</ele>
        <time>2015-06-22T08:52:12Z</time>
      </trkpt>
      <trkpt lat="42.06001" lon="9.16809">
        <ele>1368.6</ele>
        <time>2015-06-22T08:52:23Z</time>
      </trkpt>
      <trkpt lat="42.06007" lon="9.16794">
        <ele>1367</ele>
        <time>2015-06-22T08:52:36Z</time>
      </trkpt>
      <trkpt lat="42.06009" lon="9.16773">
        <ele>1366</ele>
        <time>2015-06-22T08:52:48Z</time>
      </trkpt>
      <trkpt lat="42.0601" lon="9.16771">
        <ele>1365.8</ele>
        <time>2015-06-22T08:52:51Z</time>
      </trkpt>
      <trkpt lat="42.06011" lon="9.16764">
        <ele>1365.2</ele>
        <time>2015-06-22T08:52:57Z</time>
      </trkpt>
      <trkpt lat="42.06015" lon="9.16757">
        <ele>1364.8</ele>
        <time>2015-06-22T08:53:01Z</time>
      </trkpt>
      <trkpt lat="42.06016" lon="9.16754">
        <ele>1364.4</ele>
        <time>2015-06-22T08:53:03Z</time>
      </trkpt>
      <trkpt lat="42.06022" lon="9.16743">
        <ele>1363</ele>
        <time>2015-06-22T08:53:12Z</time>
      </trkpt>
      <trkpt lat="42.06025" lon="9.16735">
        <ele>1361.8</ele>
        <time>2015-06-22T08:53:20Z</time>
      </trkpt>
      <trkpt lat="42.06032" lon="9.16724">
        <ele>1360.4</ele>
        <time>2015-06-22T08:53:30Z</time>
      </trkpt>
      <trkpt lat="42.06035" lon="9.16724">
        <ele>1360.2</ele>
        <time>2015-06-22T08:53:34Z</time>
      </trkpt>
      <trkpt lat="42.06055" lon="9.16735">
        <ele>1359</ele>
        <time>2015-06-22T08:53:51Z</time>
      </trkpt>
      <trkpt lat="42.06071" lon="9.16735">
        <ele>1359</ele>
        <time>2015-06-22T08:54:06Z</time>
      </trkpt>
      <trkpt lat="42.06076" lon="9.16727">
        <ele>1360.4</ele>
        <time>2015-06-22T08:54:15Z</time>
      </trkpt>
      <trkpt lat="42.0608" lon="9.16721">
        <ele>1361</ele>
        <time>2015-06-22T08:54:22Z</time>
      </trkpt>
      <trkpt lat="42.06081" lon="9.1672">
        <ele>1361</ele>
        <time>2015-06-22T08:54:23Z</time>
      </trkpt>
      <trkpt lat="42.06083" lon="9.16713">
        <ele>1361.8</ele>
        <time>2015-06-22T08:54:28Z</time>
      </trkpt>
      <trkpt lat="42.06089" lon="9.16701">
        <ele>1363.4</ele>
        <time>2015-06-22T08:54:38Z</time>
      </trkpt>
      <trkpt lat="42.06114" lon="9.16702">
        <ele>1363.6</ele>
        <time>2015-06-22T08:55:16Z</time>
      </trkpt>
      <trkpt lat="42.06125" lon="9.16715">
        <ele>1362.4</ele>
        <time>2015-06-22T08:55:29Z</time>
      </trkpt>
      <trkpt lat="42.06131" lon="9.16722">
        <ele>1361.8</ele>
        <time>2015-06-22T08:55:37Z</time>
      </trkpt>
      <trkpt lat="42.06139" lon="9.16729">
        <ele>1360.4</ele>
        <time>2015-06-22T08:55:45Z</time>
      </trkpt>
      <trkpt lat="42.06148" lon="9.16735">
        <ele>1359.4</ele>
        <time>2015-06-22T08:55:56Z</time>
      </trkpt>
      <trkpt lat="42.06153" lon="9.16738">
        <ele>1358.8</ele>
        <time>2015-06-22T08:56:03Z</time>
      </trkpt>
      <trkpt lat="42.06166" lon="9.16744">
        <ele>1357.4</ele>
        <time>2015-06-22T08:56:14Z</time>
      </trkpt>
      <trkpt lat="42.06178" lon="9.16749">
        <ele>1356.2</ele>
        <time>2015-06-22T08:56:23Z</time>
      </trkpt>
      <trkpt lat="42.06182" lon="9.16751">
        <ele>1355.8</ele>
        <time>2015-06-22T08:56:29Z</time>
      </trkpt>
      <trkpt lat="42.06185" lon="9.16755">
        <ele>1354.4</ele>
        <time>2015-06-22T08:56:36Z</time>
      </trkpt>
      <trkpt lat="42.0619" lon="9.1676">
        <ele>1353.4</ele>
        <time>2015-06-22T08:56:42Z</time>
      </trkpt>
      <trkpt lat="42.06198" lon="9.16764">
        <ele>1352.8</ele>
        <time>2015-06-22T08:56:50Z</time>
      </trkpt>
      <trkpt lat="42.06209" lon="9.1676">
        <ele>1351.8</ele>
        <time>2015-06-22T08:57:04Z</time>
      </trkpt>
      <trkpt lat="42.06216" lon="9.16747">
        <ele>1351.6</ele>
        <time>2015-06-22T08:57:15Z</time>
      </trkpt>
      <trkpt lat="42.06226" lon="9.16734">
        <ele>1350.8</ele>
        <time>2015-06-22T08:57:27Z</time>
      </trkpt>
      <trkpt lat="42.06233" lon="9.16722">
        <ele>1349.8</ele>
        <time>2015-06-22T08:57:38Z</time>
      </trkpt>
      <trkpt lat="42.06238" lon="9.16715">
        <ele>1349.4</ele>
        <time>2015-06-22T08:57:43Z</time>
      </trkpt>
      <trkpt lat="42.06276" lon="9.1668">
        <ele>1348.2</ele>
        <time>2015-06-22T08:58:34Z</time>
      </trkpt>
      <trkpt lat="42.06281" lon="9.16674">
        <ele>1347.6</ele>
        <time>2015-06-22T08:58:43Z</time>
      </trkpt>
      <trkpt lat="42.06284" lon="9.16672">
        <ele>1347.2</ele>
        <time>2015-06-22T08:58:48Z</time>
      </trkpt>
      <trkpt lat="42.06292" lon="9.16675">
        <ele>1346.6</ele>
        <time>2015-06-22T08:59:05Z</time>
      </trkpt>
      <trkpt lat="42.06298" lon="9.16681">
        <ele>1345.4</ele>
        <time>2015-06-22T08:59:18Z</time>
      </trkpt>
      <trkpt lat="42.06301" lon="9.16683">
        <ele>1345</ele>
        <time>2015-06-22T08:59:24Z</time>
      </trkpt>
      <trkpt lat="42.0631" lon="9.1668">
        <ele>1343.6</ele>
        <time>2015-06-22T08:59:37Z</time>
      </trkpt>
      <trkpt lat="42.06316" lon="9.16675">
        <ele>1342.6</ele>
        <time>2015-06-22T08:59:46Z</time>
      </trkpt>
      <trkpt lat="42.0632" lon="9.16674">
        <ele>1341.6</ele>
        <time>2015-06-22T08:59:53Z</time>
      </trkpt>
      <trkpt lat="42.06327" lon="9.16672">
        <ele>1340.6</ele>
        <time>2015-06-22T08:59:59Z</time>
      </trkpt>
      <trkpt lat="42.06328" lon="9.16672">
        <ele>1340.6</ele>
        <time>2015-06-22T09:00:00Z</time>
      </trkpt>
      <trkpt lat="42.06345" lon="9.16669">
        <ele>1339</ele>
        <time>2015-06-22T09:00:14Z</time>
      </trkpt>
      <trkpt lat="42.06363" lon="9.16661">
        <ele>1338.4</ele>
        <time>2015-06-22T09:00:32Z</time>
      </trkpt>
      <trkpt lat="42.06368" lon="9.16662">
        <ele>1338.4</ele>
        <time>2015-06-22T09:00:38Z</time>
      </trkpt>
      <trkpt lat="42.0637" lon="9.16661">
        <ele>1338.4</ele>
        <time>2015-06-22T09:00:41Z</time>
      </trkpt>
      <trkpt lat="42.06377" lon="9.16674">
        <ele>1338.6</ele>
        <time>2015-06-22T09:01:29Z</time>
      </trkpt>
      <trkpt lat="42.06379" lon="9.16673">
        <ele>1336.6</ele>
        <time>2015-06-22T09:01:42Z</time>
      </trkpt>
      <trkpt lat="42.0639" lon="9.16677">
        <ele>1335.8</ele>
        <time>2015-06-22T09:01:55Z</time>
      </trkpt>
      <trkpt lat="42.0639" lon="9.16678">
        <ele>1335.8</ele>
        <time>2015-06-22T09:01:56Z</time>
      </trkpt>
      <trkpt lat="42.06391" lon="9.16681">
        <ele>1335</ele>
        <time>2015-06-22T09:02:04Z</time>
      </trkpt>
      <trkpt lat="42.06391" lon="9.16686">
        <ele>1333.8</ele>
        <time>2015-06-22T09:02:11Z</time>
      </trkpt>
      <trkpt lat="42.06392" lon="9.16687">
        <ele>1333</ele>
        <time>2015-06-22T09:02:16Z</time>
      </trkpt>
      <trkpt lat="42.06402" lon="9.16696">
        <ele>1331</ele>
        <time>2015-06-22T09:02:33Z</time>
      </trkpt>
      <trkpt lat="42.0643" lon="9.16691">
        <ele>1330</ele>
        <time>2015-06-22T09:03:06Z</time>
      </trkpt>
      <trkpt lat="42.06444" lon="9.1669">
        <ele>1328.8</ele>
        <time>2015-06-22T09:03:25Z</time>
      </trkpt>
      <trkpt lat="42.06452" lon="9.16693">
        <ele>1328.4</ele>
        <time>2015-06-22T09:03:31Z</time>
      </trkpt>
      <trkpt lat="42.06479" lon="9.16699">
        <ele>1327.6</ele>
        <time>2015-06-22T09:03:53Z</time>
      </trkpt>
      <trkpt lat="42.0652" lon="9.16715">
        <ele>1327.6</ele>
        <time>2015-06-22T09:04:37Z</time>
      </trkpt>
      <trkpt lat="42.06554" lon="9.16713">
        <ele>1329.2</ele>
        <time>2015-06-22T09:05:10Z</time>
      </trkpt>
      <trkpt lat="42.06575" lon="9.16697">
        <ele>1330.2</ele>
        <time>2015-06-22T09:05:40Z</time>
      </trkpt>
      <trkpt lat="42.06598" lon="9.16688">
        <ele>1329.8</ele>
        <time>2015-06-22T09:06:03Z</time>
      </trkpt>
      <trkpt lat="42.06606" lon="9.16687">
        <ele>1329.4</ele>
        <time>2015-06-22T09:06:11Z</time>
      </trkpt>
      <trkpt lat="42.06621" lon="9.16687">
        <ele>1329.2</ele>
        <time>2015-06-22T09:06:29Z</time>
      </trkpt>
      <trkpt lat="42.06642" lon="9.16697">
        <ele>1330.4</ele>
        <time>2015-06-22T09:06:50Z</time>
      </trkpt>
      <trkpt lat="42.0665" lon="9.16699">
        <ele>1330.8</ele>
        <time>2015-06-22T09:06:58Z</time>
      </trkpt>
      <trkpt lat="42.06661" lon="9.16698">
        <ele>1332</ele>
        <time>2015-06-22T09:07:09Z</time>
      </trkpt>
      <trkpt lat="42.06669" lon="9.16696">
        <ele>1333.4</ele>
        <time>2015-06-22T09:07:18Z</time>
      </trkpt>
      <trkpt lat="42.06676" lon="9.16688">
        <ele>1334.4</ele>
        <time>2015-06-22T09:07:30Z</time>
      </trkpt>
      <trkpt lat="42.06681" lon="9.16683">
        <ele>1335.4</ele>
        <time>2015-06-22T09:07:38Z</time>
      </trkpt>
      <trkpt lat="42.06683" lon="9.1668">
        <ele>1336</ele>
        <time>2015-06-22T09:07:41Z</time>
      </trkpt>
      <trkpt lat="42.06689" lon="9.16673">
        <ele>1336.8</ele>
        <time>2015-06-22T09:07:47Z</time>
      </trkpt>
      <trkpt lat="42.06696" lon="9.16667">
        <ele>1337.8</ele>
        <time>2015-06-22T09:07:58Z</time>
      </trkpt>
      <trkpt lat="42.06705" lon="9.16647">
        <ele>1339.4</ele>
        <time>2015-06-22T09:08:22Z</time>
      </trkpt>
      <trkpt lat="42.06706" lon="9.16645">
        <ele>1339.6</ele>
        <time>2015-06-22T09:08:24Z</time>
      </trkpt>
      <trkpt lat="42.06711" lon="9.16622">
        <ele>1340.6</ele>
        <time>2015-06-22T09:08:43Z</time>
      </trkpt>
      <trkpt lat="42.06712" lon="9.16616">
        <ele>1341.2</ele>
        <time>2015-06-22T09:08:50Z</time>
      </trkpt>
      <trkpt lat="42.06715" lon="9.16607">
        <ele>1342.6</ele>
        <time>2015-06-22T09:09:00Z</time>
      </trkpt>
      <trkpt lat="42.06718" lon="9.16601">
        <ele>1343.2</ele>
        <time>2015-06-22T09:09:06Z</time>
      </trkpt>
      <trkpt lat="42.06719" lon="9.16598">
        <ele>1343.2</ele>
        <time>2015-06-22T09:09:08Z</time>
      </trkpt>
      <trkpt lat="42.06722" lon="9.16595">
        <ele>1343.4</ele>
        <time>2015-06-22T09:09:11Z</time>
      </trkpt>
      <trkpt lat="42.0673" lon="9.16581">
        <ele>1343.2</ele>
        <time>2015-06-22T09:09:29Z</time>
      </trkpt>
      <trkpt lat="42.06743" lon="9.16573">
        <ele>1342</ele>
        <time>2015-06-22T09:10:37Z</time>
      </trkpt>
      <trkpt lat="42.06748" lon="9.1657">
        <ele>1341.4</ele>
        <time>2015-06-22T09:10:50Z</time>
      </trkpt>
      <trkpt lat="42.06748" lon="9.1657">
        <ele>1341</ele>
        <time>2015-06-22T09:10:55Z</time>
      </trkpt>
      <trkpt lat="42.0675" lon="9.16569">
        <ele>1339.8</ele>
        <time>2015-06-22T09:11:01Z</time>
      </trkpt>
      <trkpt lat="42.06752" lon="9.16565">
        <ele>1338.6</ele>
        <time>2015-06-22T09:11:07Z</time>
      </trkpt>
      <trkpt lat="42.06754" lon="9.16557">
        <ele>1337.2</ele>
        <time>2015-06-22T09:11:16Z</time>
      </trkpt>
      <trkpt lat="42.06756" lon="9.16552">
        <ele>1336.8</ele>
        <time>2015-06-22T09:11:21Z</time>
      </trkpt>
      <trkpt lat="42.06757" lon="9.16546">
        <ele>1335.6</ele>
        <time>2015-06-22T09:11:26Z</time>
      </trkpt>
      <trkpt lat="42.06754" lon="9.16512">
        <ele>1335</ele>
        <time>2015-06-22T09:11:53Z</time>
      </trkpt>
      <trkpt lat="42.06753" lon="9.16511">
        <ele>1335</ele>
        <time>2015-06-22T09:11:54Z</time>
      </trkpt>
      <trkpt lat="42.06752" lon="9.1651">
        <ele>1335.2</ele>
        <time>2015-06-22T09:11:55Z</time>
      </trkpt>
      <trkpt lat="42.06751" lon="9.16506">
        <ele>1335.2</ele>
        <time>2015-06-22T09:11:59Z</time>
      </trkpt>
      <trkpt lat="42.06748" lon="9.16494">
        <ele>1335.6</ele>
        <time>2015-06-22T09:12:09Z</time>
      </trkpt>
      <trkpt lat="42.06746" lon="9.16488">
        <ele>1335.4</ele>
        <time>2015-06-22T09:12:14Z</time>
      </trkpt>
      <trkpt lat="42.06743" lon="9.16472">
        <ele>1335.6</ele>
        <time>2015-06-22T09:12:28Z</time>
      </trkpt>
      <trkpt lat="42.06745" lon="9.16464">
        <ele>1335.8</ele>
        <time>2015-06-22T09:12:34Z</time>
      </trkpt>
      <trkpt lat="42.06745" lon="9.1646">
        <ele>1335.8</ele>
        <time>2015-06-22T09:12:37Z</time>
      </trkpt>
      <trkpt lat="42.06747" lon="9.16449">
        <ele>1336.4</ele>
        <time>2015-06-22T09:12:47Z</time>
      </trkpt>
      <trkpt lat="42.0675" lon="9.16442">
        <ele>1337</ele>
        <time>2015-06-22T09:12:55Z</time>
      </trkpt>
      <trkpt lat="42.06752" lon="9.16436">
        <ele>1337.8</ele>
        <time>2015-06-22T09:13:02Z</time>
      </trkpt>
      <trkpt lat="42.06755" lon="9.16423">
        <ele>1339.4</ele>
        <time>2015-06-22T09:13:16Z</time>
      </trkpt>
      <trkpt lat="42.06756" lon="9.16419">
        <ele>1339.4</ele>
        <time>2015-06-22T09:13:19Z</time>
      </trkpt>
      <trkpt lat="42.06758" lon="9.16411">
        <ele>1339.6</ele>
        <time>2015-06-22T09:13:23Z</time>
      </trkpt>
      <trkpt lat="42.06761" lon="9.16403">
        <ele>1340.6</ele>
        <time>2015-06-22T09:13:31Z</time>
      </trkpt>
      <trkpt lat="42.06765" lon="9.16398">
        <ele>1341.2</ele>
        <time>2015-06-22T09:13:36Z</time>
      </trkpt>
      <trkpt lat="42.06766" lon="9.16397">
        <ele>1341.6</ele>
        <time>2015-06-22T09:13:37Z</time>
      </trkpt>
      <trkpt lat="42.06767" lon="9.16395">
        <ele>1342.6</ele>
        <time>2015-06-22T09:13:41Z</time>
      </trkpt>
      <trkpt lat="42.0677" lon="9.16392">
        <ele>1343.4</ele>
        <time>2015-06-22T09:13:46Z</time>
      </trkpt>
      <trkpt lat="42.06787" lon="9.16374">
        <ele>1344.8</ele>
        <time>2015-06-22T09:14:13Z</time>
      </trkpt>
      <trkpt lat="42.06789" lon="9.16371">
        <ele>1344.8</ele>
        <time>2015-06-22T09:14:15Z</time>
      </trkpt>
      <trkpt lat="42.06794" lon="9.16366">
        <ele>1345</ele>
        <time>2015-06-22T09:14:20Z</time>
      </trkpt>
      <trkpt lat="42.0683" lon="9.16327">
        <ele>1345.6</ele>
        <time>2015-06-22T09:15:09Z</time>
      </trkpt>
      <trkpt lat="42.06841" lon="9.16318">
        <ele>1346</ele>
        <time>2015-06-22T09:15:22Z</time>
      </trkpt>
      <trkpt lat="42.06857" lon="9.16297">
        <ele>1345</ele>
        <time>2015-06-22T09:15:50Z</time>
      </trkpt>
      <trkpt lat="42.06857" lon="9.16289">
        <ele>1344.6</ele>
        <time>2015-06-22T09:15:57Z</time>
      </trkpt>
      <trkpt lat="42.06857" lon="9.16283">
        <ele>1344.2</ele>
        <time>2015-06-22T09:16:02Z</time>
      </trkpt>
      <trkpt lat="42.06857" lon="9.16282">
        <ele>1344.2</ele>
        <time>2015-06-22T09:16:03Z</time>
      </trkpt>
      <trkpt lat="42.06858" lon="9.16278">
        <ele>1343.8</ele>
        <time>2015-06-22T09:16:07Z</time>
      </trkpt>
      <trkpt lat="42.06859" lon="9.16274">
        <ele>1343</ele>
        <time>2015-06-22T09:16:12Z</time>
      </trkpt>
      <trkpt lat="42.0686" lon="9.16269">
        <ele>1341.6</ele>
        <time>2015-06-22T09:16:17Z</time>
      </trkpt>
      <trkpt lat="42.0686" lon="9.16266">
        <ele>1341.6</ele>
        <time>2015-06-22T09:16:19Z</time>
      </trkpt>
      <trkpt lat="42.0686" lon="9.16256">
        <ele>1341</ele>
        <time>2015-06-22T09:16:25Z</time>
      </trkpt>
      <trkpt lat="42.06863" lon="9.16236">
        <ele>1340.4</ele>
        <time>2015-06-22T09:16:43Z</time>
      </trkpt>
      <trkpt lat="42.06865" lon="9.1623">
        <ele>1339.8</ele>
        <time>2015-06-22T09:16:48Z</time>
      </trkpt>
      <trkpt lat="42.06865" lon="9.16228">
        <ele>1339.4</ele>
        <time>2015-06-22T09:16:50Z</time>
      </trkpt>
      <trkpt lat="42.0687" lon="9.16221">
        <ele>1338.8</ele>
        <time>2015-06-22T09:16:56Z</time>
      </trkpt>
      <trkpt lat="42.06875" lon="9.16213">
        <ele>1337.4</ele>
        <time>2015-06-22T09:17:06Z</time>
      </trkpt>
      <trkpt lat="42.06879" lon="9.16212">
        <ele>1336.6</ele>
        <time>2015-06-22T09:17:13Z</time>
      </trkpt>
      <trkpt lat="42.06883" lon="9.1621">
        <ele>1335.6</ele>
        <time>2015-06-22T09:17:19Z</time>
      </trkpt>
      <trkpt lat="42.06886" lon="9.1621">
        <ele>1334.4</ele>
        <time>2015-06-22T09:17:25Z</time>
      </trkpt>
      <trkpt lat="42.06895" lon="9.1621">
        <ele>1333.4</ele>
        <time>2015-06-22T09:17:32Z</time>
      </trkpt>
      <trkpt lat="42.06897" lon="9.16209">
        <ele>1333.2</ele>
        <time>2015-06-22T09:17:34Z</time>
      </trkpt>
      <trkpt lat="42.06899" lon="9.16209">
        <ele>1333</ele>
        <time>2015-06-22T09:17:36Z</time>
      </trkpt>
      <trkpt lat="42.06901" lon="9.1621">
        <ele>1332.8</ele>
        <time>2015-06-22T09:17:37Z</time>
      </trkpt>
      <trkpt lat="42.06906" lon="9.16216">
        <ele>1332</ele>
        <time>2015-06-22T09:17:46Z</time>
      </trkpt>
      <trkpt lat="42.06913" lon="9.16218">
        <ele>1331.2</ele>
        <time>2015-06-22T09:17:52Z</time>
      </trkpt>
      <trkpt lat="42.06939" lon="9.16189">
        <ele>1331.4</ele>
        <time>2015-06-22T09:18:30Z</time>
      </trkpt>
      <trkpt lat="42.0694" lon="9.16185">
        <ele>1331.2</ele>
        <time>2015-06-22T09:18:33Z</time>
      </trkpt>
      <trkpt lat="42.06942" lon="9.16182">
        <ele>1331.2</ele>
        <time>2015-06-22T09:18:35Z</time>
      </trkpt>
      <trkpt lat="42.06969" lon="9.16132">
        <ele>1332.4</ele>
        <time>2015-06-22T09:19:19Z</time>
      </trkpt>
      <trkpt lat="42.06973" lon="9.16113">
        <ele>1331.2</ele>
        <time>2015-06-22T09:19:35Z</time>
      </trkpt>
      <trkpt lat="42.06982" lon="9.16096">
        <ele>1330.8</ele>
        <time>2015-06-22T09:19:56Z</time>
      </trkpt>
      <trkpt lat="42.06992" lon="9.16071">
        <ele>1332.4</ele>
        <time>2015-06-22T09:20:18Z</time>
      </trkpt>
      <trkpt lat="42.06993" lon="9.16069">
        <ele>1332.4</ele>
        <time>2015-06-22T09:20:20Z</time>
      </trkpt>
      <trkpt lat="42.06994" lon="9.16068">
        <ele>1332.6</ele>
        <time>2015-06-22T09:20:22Z</time>
      </trkpt>
      <trkpt lat="42.06995" lon="9.16065">
        <ele>1332.8</ele>
        <time>2015-06-22T09:20:24Z</time>
      </trkpt>
      <trkpt lat="42.06996" lon="9.16062">
        <ele>1333.2</ele>
        <time>2015-06-22T09:20:27Z</time>
      </trkpt>
      <trkpt lat="42.06995" lon="9.16058">
        <ele>1333.4</ele>
        <time>2015-06-22T09:20:30Z</time>
      </trkpt>
      <trkpt lat="42.06996" lon="9.16054">
        <ele>1333.4</ele>
        <time>2015-06-22T09:20:34Z</time>
      </trkpt>
      <trkpt lat="42.06998" lon="9.16048">
        <ele>1334</ele>
        <time>2015-06-22T09:20:43Z</time>
      </trkpt>
      <trkpt lat="42.07001" lon="9.16036">
        <ele>1334.2</ele>
        <time>2015-06-22T09:20:52Z</time>
      </trkpt>
      <trkpt lat="42.07003" lon="9.16032">
        <ele>1334.6</ele>
        <time>2015-06-22T09:20:56Z</time>
      </trkpt>
      <trkpt lat="42.07004" lon="9.16028">
        <ele>1334.8</ele>
        <time>2015-06-22T09:20:59Z</time>
      </trkpt>
      <trkpt lat="42.07007" lon="9.16023">
        <ele>1335.2</ele>
        <time>2015-06-22T09:21:04Z</time>
      </trkpt>
      <trkpt lat="42.07008" lon="9.16021">
        <ele>1335.2</ele>
        <time>2015-06-22T09:21:06Z</time>
      </trkpt>
      <trkpt lat="42.0701" lon="9.16016">
        <ele>1335.6</ele>
        <time>2015-06-22T09:21:10Z</time>
      </trkpt>
      <trkpt lat="42.07016" lon="9.16004">
        <ele>1336.8</ele>
        <time>2015-06-22T09:21:24Z</time>
      </trkpt>
      <trkpt lat="42.07019" lon="9.15998">
        <ele>1337</ele>
        <time>2015-06-22T09:21:29Z</time>
      </trkpt>
      <trkpt lat="42.07021" lon="9.15993">
        <ele>1337.2</ele>
        <time>2015-06-22T09:21:34Z</time>
      </trkpt>
      <trkpt lat="42.0702" lon="9.1599">
        <ele>1337.4</ele>
        <time>2015-06-22T09:21:36Z</time>
      </trkpt>
      <trkpt lat="42.07026" lon="9.15973">
        <ele>1337.8</ele>
        <time>2015-06-22T09:21:56Z</time>
      </trkpt>
      <trkpt lat="42.07027" lon="9.1597">
        <ele>1338</ele>
        <time>2015-06-22T09:22:00Z</time>
      </trkpt>
      <trkpt lat="42.07029" lon="9.15968">
        <ele>1338</ele>
        <time>2015-06-22T09:22:03Z</time>
      </trkpt>
      <trkpt lat="42.07031" lon="9.15964">
        <ele>1338.4</ele>
        <time>2015-06-22T09:22:08Z</time>
      </trkpt>
      <trkpt lat="42.07034" lon="9.15959">
        <ele>1338.6</ele>
        <time>2015-06-22T09:22:12Z</time>
      </trkpt>
      <trkpt lat="42.07036" lon="9.15958">
        <ele>1338.6</ele>
        <time>2015-06-22T09:22:14Z</time>
      </trkpt>
      <trkpt lat="42.07058" lon="9.15927">
        <ele>1338.2</ele>
        <time>2015-06-22T09:22:42Z</time>
      </trkpt>
      <trkpt lat="42.07069" lon="9.15917">
        <ele>1338</ele>
        <time>2015-06-22T09:22:55Z</time>
      </trkpt>
      <trkpt lat="42.07076" lon="9.15907">
        <ele>1338.8</ele>
        <time>2015-06-22T09:23:08Z</time>
      </trkpt>
      <trkpt lat="42.07088" lon="9.15881">
        <ele>1340.2</ele>
        <time>2015-06-22T09:23:29Z</time>
      </trkpt>
      <trkpt lat="42.07108" lon="9.1586">
        <ele>1341.4</ele>
        <time>2015-06-22T09:23:53Z</time>
      </trkpt>
      <trkpt lat="42.0712" lon="9.15855">
        <ele>1342</ele>
        <time>2015-06-22T09:24:05Z</time>
      </trkpt>
      <trkpt lat="42.07121" lon="9.15853">
        <ele>1342</ele>
        <time>2015-06-22T09:24:07Z</time>
      </trkpt>
      <trkpt lat="42.07121" lon="9.15838">
        <ele>1342.4</ele>
        <time>2015-06-22T09:24:23Z</time>
      </trkpt>
      <trkpt lat="42.07124" lon="9.15834">
        <ele>1343.4</ele>
        <time>2015-06-22T09:24:32Z</time>
      </trkpt>
      <trkpt lat="42.07124" lon="9.15831">
        <ele>1344.4</ele>
        <time>2015-06-22T09:24:38Z</time>
      </trkpt>
      <trkpt lat="42.07126" lon="9.1583">
        <ele>1345.8</ele>
        <time>2015-06-22T09:24:47Z</time>
      </trkpt>
      <trkpt lat="42.0713" lon="9.15834">
        <ele>1347</ele>
        <time>2015-06-22T09:24:57Z</time>
      </trkpt>
      <trkpt lat="42.07135" lon="9.15832">
        <ele>1348.4</ele>
        <time>2015-06-22T09:25:06Z</time>
      </trkpt>
      <trkpt lat="42.07139" lon="9.15827">
        <ele>1349.6</ele>
        <time>2015-06-22T09:25:18Z</time>
      </trkpt>
      <trkpt lat="42.07141" lon="9.15825">
        <ele>1350.6</ele>
        <time>2015-06-22T09:25:28Z</time>
      </trkpt>
      <trkpt lat="42.07145" lon="9.15824">
        <ele>1351.6</ele>
        <time>2015-06-22T09:25:37Z</time>
      </trkpt>
      <trkpt lat="42.07145" lon="9.15819">
        <ele>1352.4</ele>
        <time>2015-06-22T09:25:43Z</time>
      </trkpt>
      <trkpt lat="42.07144" lon="9.15813">
        <ele>1354</ele>
        <time>2015-06-22T09:25:50Z</time>
      </trkpt>
      <trkpt lat="42.0714" lon="9.15804">
        <ele>1355.4</ele>
        <time>2015-06-22T09:26:00Z</time>
      </trkpt>
      <trkpt lat="42.07136" lon="9.15798">
        <ele>1356.2</ele>
        <time>2015-06-22T09:26:08Z</time>
      </trkpt>
      <trkpt lat="42.07132" lon="9.15792">
        <ele>1356.6</ele>
        <time>2015-06-22T09:26:13Z</time>
      </trkpt>
      <trkpt lat="42.07132" lon="9.15791">
        <ele>1356.8</ele>
        <time>2015-06-22T09:26:15Z</time>
      </trkpt>
      <trkpt lat="42.07133" lon="9.1579">
        <ele>1356.8</ele>
        <time>2015-06-22T09:26:16Z</time>
      </trkpt>
      <trkpt lat="42.0714" lon="9.15791">
        <ele>1357.6</ele>
        <time>2015-06-22T09:26:27Z</time>
      </trkpt>
      <trkpt lat="42.07143" lon="9.15789">
        <ele>1358.8</ele>
        <time>2015-06-22T09:26:34Z</time>
      </trkpt>
      <trkpt lat="42.0714" lon="9.15783">
        <ele>1360.2</ele>
        <time>2015-06-22T09:26:42Z</time>
      </trkpt>
      <trkpt lat="42.07143" lon="9.15777">
        <ele>1361.4</ele>
        <time>2015-06-22T09:26:55Z</time>
      </trkpt>
      <trkpt lat="42.07142" lon="9.15773">
        <ele>1362.6</ele>
        <time>2015-06-22T09:27:03Z</time>
      </trkpt>
      <trkpt lat="42.07144" lon="9.15771">
        <ele>1363.6</ele>
        <time>2015-06-22T09:27:12Z</time>
      </trkpt>
      <trkpt lat="42.07142" lon="9.15765">
        <ele>1365</ele>
        <time>2015-06-22T09:27:21Z</time>
      </trkpt>
      <trkpt lat="42.07143" lon="9.15756">
        <ele>1366.4</ele>
        <time>2015-06-22T09:27:32Z</time>
      </trkpt>
      <trkpt lat="42.07146" lon="9.15752">
        <ele>1367.6</ele>
        <time>2015-06-22T09:27:42Z</time>
      </trkpt>
      <trkpt lat="42.07149" lon="9.15754">
        <ele>1368.8</ele>
        <time>2015-06-22T09:27:52Z</time>
      </trkpt>
      <trkpt lat="42.07152" lon="9.15753">
        <ele>1369.8</ele>
        <time>2015-06-22T09:28:03Z</time>
      </trkpt>
      <trkpt lat="42.07152" lon="9.15749">
        <ele>1370.4</ele>
        <time>2015-06-22T09:28:14Z</time>
      </trkpt>
      <trkpt lat="42.07154" lon="9.15746">
        <ele>1371</ele>
        <time>2015-06-22T09:28:24Z</time>
      </trkpt>
      <trkpt lat="42.07154" lon="9.15743">
        <ele>1372.2</ele>
        <time>2015-06-22T09:28:32Z</time>
      </trkpt>
      <trkpt lat="42.07154" lon="9.15739">
        <ele>1373</ele>
        <time>2015-06-22T09:28:35Z</time>
      </trkpt>
      <trkpt lat="42.07153" lon="9.15735">
        <ele>1373.8</ele>
        <time>2015-06-22T09:28:41Z</time>
      </trkpt>
      <trkpt lat="42.07155" lon="9.15734">
        <ele>1374.8</ele>
        <time>2015-06-22T09:28:48Z</time>
      </trkpt>
      <trkpt lat="42.07156" lon="9.15731">
        <ele>1375.6</ele>
        <time>2015-06-22T09:28:54Z</time>
      </trkpt>
      <trkpt lat="42.07158" lon="9.15726">
        <ele>1377</ele>
        <time>2015-06-22T09:29:01Z</time>
      </trkpt>
      <trkpt lat="42.07161" lon="9.15719">
        <ele>1378.6</ele>
        <time>2015-06-22T09:29:21Z</time>
      </trkpt>
      <trkpt lat="42.07157" lon="9.15702">
        <ele>1380.4</ele>
        <time>2015-06-22T09:29:42Z</time>
      </trkpt>
      <trkpt lat="42.07153" lon="9.15698">
        <ele>1381.4</ele>
        <time>2015-06-22T09:29:54Z</time>
      </trkpt>
      <trkpt lat="42.0715" lon="9.15692">
        <ele>1382</ele>
        <time>2015-06-22T09:30:00Z</time>
      </trkpt>
      <trkpt lat="42.0715" lon="9.1569">
        <ele>1382.4</ele>
        <time>2015-06-22T09:30:03Z</time>
      </trkpt>
      <trkpt lat="42.07148" lon="9.15683">
        <ele>1383.2</ele>
        <time>2015-06-22T09:30:08Z</time>
      </trkpt>
      <trkpt lat="42.07147" lon="9.15679">
        <ele>1383.4</ele>
        <time>2015-06-22T09:30:11Z</time>
      </trkpt>
      <trkpt lat="42.07146" lon="9.15667">
        <ele>1384.8</ele>
        <time>2015-06-22T09:30:24Z</time>
      </trkpt>
      <trkpt lat="42.07145" lon="9.15664">
        <ele>1385.2</ele>
        <time>2015-06-22T09:30:28Z</time>
      </trkpt>
      <trkpt lat="42.07144" lon="9.15657">
        <ele>1385.6</ele>
        <time>2015-06-22T09:30:33Z</time>
      </trkpt>
      <trkpt lat="42.07144" lon="9.15656">
        <ele>1385.8</ele>
        <time>2015-06-22T09:30:34Z</time>
      </trkpt>
      <trkpt lat="42.07143" lon="9.1565">
        <ele>1387.2</ele>
        <time>2015-06-22T09:30:42Z</time>
      </trkpt>
      <trkpt lat="42.07145" lon="9.15643">
        <ele>1388.6</ele>
        <time>2015-06-22T09:30:52Z</time>
      </trkpt>
      <trkpt lat="42.07146" lon="9.1564">
        <ele>1389.8</ele>
        <time>2015-06-22T09:30:59Z</time>
      </trkpt>
      <trkpt lat="42.07144" lon="9.15639">
        <ele>1391.6</ele>
        <time>2015-06-22T09:31:13Z</time>
      </trkpt>
      <trkpt lat="42.07149" lon="9.15639">
        <ele>1393</ele>
        <time>2015-06-22T09:31:27Z</time>
      </trkpt>
      <trkpt lat="42.07154" lon="9.15636">
        <ele>1393.4</ele>
        <time>2015-06-22T09:31:33Z</time>
      </trkpt>
      <trkpt lat="42.07154" lon="9.15635">
        <ele>1393.8</ele>
        <time>2015-06-22T09:31:35Z</time>
      </trkpt>
      <trkpt lat="42.07154" lon="9.15632">
        <ele>1395.2</ele>
        <time>2015-06-22T09:31:43Z</time>
      </trkpt>
      <trkpt lat="42.07152" lon="9.15625">
        <ele>1396.6</ele>
        <time>2015-06-22T09:31:54Z</time>
      </trkpt>
      <trkpt lat="42.07152" lon="9.1562">
        <ele>1397</ele>
        <time>2015-06-22T09:31:58Z</time>
      </trkpt>
      <trkpt lat="42.0715" lon="9.15614">
        <ele>1397.8</ele>
        <time>2015-06-22T09:32:02Z</time>
      </trkpt>
      <trkpt lat="42.0715" lon="9.15605">
        <ele>1398</ele>
        <time>2015-06-22T09:32:06Z</time>
      </trkpt>
      <trkpt lat="42.0715" lon="9.15597">
        <ele>1398.4</ele>
        <time>2015-06-22T09:32:11Z</time>
      </trkpt>
      <trkpt lat="42.07149" lon="9.15595">
        <ele>1399</ele>
        <time>2015-06-22T09:32:14Z</time>
      </trkpt>
      <trkpt lat="42.07147" lon="9.1559">
        <ele>1399.8</ele>
        <time>2015-06-22T09:32:19Z</time>
      </trkpt>
      <trkpt lat="42.07146" lon="9.15587">
        <ele>1400.2</ele>
        <time>2015-06-22T09:32:21Z</time>
      </trkpt>
      <trkpt lat="42.07144" lon="9.1558">
        <ele>1401.4</ele>
        <time>2015-06-22T09:32:28Z</time>
      </trkpt>
      <trkpt lat="42.0714" lon="9.15571">
        <ele>1403</ele>
        <time>2015-06-22T09:32:38Z</time>
      </trkpt>
      <trkpt lat="42.07141" lon="9.1556">
        <ele>1404.4</ele>
        <time>2015-06-22T09:32:49Z</time>
      </trkpt>
      <trkpt lat="42.07141" lon="9.15556">
        <ele>1404.8</ele>
        <time>2015-06-22T09:32:52Z</time>
      </trkpt>
      <trkpt lat="42.07141" lon="9.15533">
        <ele>1405.8</ele>
        <time>2015-06-22T09:33:15Z</time>
      </trkpt>
      <trkpt lat="42.07142" lon="9.15527">
        <ele>1406.6</ele>
        <time>2015-06-22T09:33:24Z</time>
      </trkpt>
      <trkpt lat="42.07145" lon="9.15522">
        <ele>1408</ele>
        <time>2015-06-22T09:33:32Z</time>
      </trkpt>
      <trkpt lat="42.07143" lon="9.15518">
        <ele>1408.4</ele>
        <time>2015-06-22T09:33:36Z</time>
      </trkpt>
      <trkpt lat="42.07143" lon="9.15515">
        <ele>1409.4</ele>
        <time>2015-06-22T09:33:41Z</time>
      </trkpt>
      <trkpt lat="42.07145" lon="9.15509">
        <ele>1410.6</ele>
        <time>2015-06-22T09:33:53Z</time>
      </trkpt>
      <trkpt lat="42.07151" lon="9.15508">
        <ele>1411.6</ele>
        <time>2015-06-22T09:34:01Z</time>
      </trkpt>
      <trkpt lat="42.07152" lon="9.15508">
        <ele>1412.2</ele>
        <time>2015-06-22T09:34:05Z</time>
      </trkpt>
      <trkpt lat="42.07157" lon="9.15506">
        <ele>1413.2</ele>
        <time>2015-06-22T09:34:16Z</time>
      </trkpt>
      <trkpt lat="42.07156" lon="9.15505">
        <ele>1414.4</ele>
        <time>2015-06-22T09:34:26Z</time>
      </trkpt>
      <trkpt lat="42.07157" lon="9.15502">
        <ele>1415.8</ele>
        <time>2015-06-22T09:34:36Z</time>
      </trkpt>
      <trkpt lat="42.07155" lon="9.15497">
        <ele>1417.2</ele>
        <time>2015-06-22T09:34:48Z</time>
      </trkpt>
      <trkpt lat="42.07154" lon="9.15491">
        <ele>1418.6</ele>
        <time>2015-06-22T09:34:59Z</time>
      </trkpt>
      <trkpt lat="42.07153" lon="9.15485">
        <ele>1419.6</ele>
        <time>2015-06-22T09:35:06Z</time>
      </trkpt>
      <trkpt lat="42.07153" lon="9.15481">
        <ele>1420.6</ele>
        <time>2015-06-22T09:35:12Z</time>
      </trkpt>
      <trkpt lat="42.07152" lon="9.15477">
        <ele>1421.6</ele>
        <time>2015-06-22T09:35:17Z</time>
      </trkpt>
      <trkpt lat="42.07152" lon="9.1547">
        <ele>1421.8</ele>
        <time>2015-06-22T09:35:23Z</time>
      </trkpt>
      <trkpt lat="42.07152" lon="9.15468">
        <ele>1422.2</ele>
        <time>2015-06-22T09:35:25Z</time>
      </trkpt>
      <trkpt lat="42.0715" lon="9.15465">
        <ele>1422.8</ele>
        <time>2015-06-22T09:35:29Z</time>
      </trkpt>
      <trkpt lat="42.0715" lon="9.15465">
        <ele>1423</ele>
        <time>2015-06-22T09:35:31Z</time>
      </trkpt>
      <trkpt lat="42.07153" lon="9.15456">
        <ele>1425.2</ele>
        <time>2015-06-22T09:35:48Z</time>
      </trkpt>
      <trkpt lat="42.07152" lon="9.15452">
        <ele>1425.8</ele>
        <time>2015-06-22T09:35:56Z</time>
      </trkpt>
      <trkpt lat="42.07153" lon="9.15445">
        <ele>1427.4</ele>
        <time>2015-06-22T09:36:04Z</time>
      </trkpt>
      <trkpt lat="42.07152" lon="9.15439">
        <ele>1428.8</ele>
        <time>2015-06-22T09:36:16Z</time>
      </trkpt>
      <trkpt lat="42.07153" lon="9.15435">
        <ele>1429.6</ele>
        <time>2015-06-22T09:36:22Z</time>
      </trkpt>
      <trkpt lat="42.07154" lon="9.15425">
        <ele>1431.4</ele>
        <time>2015-06-22T09:36:34Z</time>
      </trkpt>
      <trkpt lat="42.07154" lon="9.15421">
        <ele>1432.2</ele>
        <time>2015-06-22T09:36:42Z</time>
      </trkpt>
      <trkpt lat="42.07154" lon="9.15412">
        <ele>1434</ele>
        <time>2015-06-22T09:36:53Z</time>
      </trkpt>
      <trkpt lat="42.07156" lon="9.15401">
        <ele>1435.2</ele>
        <time>2015-06-22T09:37:05Z</time>
      </trkpt>
      <trkpt lat="42.07157" lon="9.154">
        <ele>1435.8</ele>
        <time>2015-06-22T09:37:11Z</time>
      </trkpt>
      <trkpt lat="42.07166" lon="9.154">
        <ele>1437</ele>
        <time>2015-06-22T09:37:31Z</time>
      </trkpt>
      <trkpt lat="42.07167" lon="9.15398">
        <ele>1437.2</ele>
        <time>2015-06-22T09:37:33Z</time>
      </trkpt>
      <trkpt lat="42.07166" lon="9.15392">
        <ele>1438.4</ele>
        <time>2015-06-22T09:37:43Z</time>
      </trkpt>
      <trkpt lat="42.07166" lon="9.15383">
        <ele>1439.6</ele>
        <time>2015-06-22T09:37:53Z</time>
      </trkpt>
      <trkpt lat="42.07166" lon="9.1537">
        <ele>1440.8</ele>
        <time>2015-06-22T09:38:04Z</time>
      </trkpt>
      <trkpt lat="42.07165" lon="9.15363">
        <ele>1442</ele>
        <time>2015-06-22T09:38:13Z</time>
      </trkpt>
      <trkpt lat="42.07164" lon="9.15362">
        <ele>1442.4</ele>
        <time>2015-06-22T09:38:15Z</time>
      </trkpt>
      <trkpt lat="42.07162" lon="9.15359">
        <ele>1443.4</ele>
        <time>2015-06-22T09:38:23Z</time>
      </trkpt>
      <trkpt lat="42.0716" lon="9.15351">
        <ele>1444.6</ele>
        <time>2015-06-22T09:38:31Z</time>
      </trkpt>
      <trkpt lat="42.07159" lon="9.15349">
        <ele>1444.6</ele>
        <time>2015-06-22T09:38:33Z</time>
      </trkpt>
      <trkpt lat="42.07158" lon="9.1534">
        <ele>1446</ele>
        <time>2015-06-22T09:38:43Z</time>
      </trkpt>
      <trkpt lat="42.07157" lon="9.15328">
        <ele>1448</ele>
        <time>2015-06-22T09:39:02Z</time>
      </trkpt>
      <trkpt lat="42.07156" lon="9.15322">
        <ele>1449</ele>
        <time>2015-06-22T09:39:13Z</time>
      </trkpt>
      <trkpt lat="42.07161" lon="9.15312">
        <ele>1451</ele>
        <time>2015-06-22T09:39:26Z</time>
      </trkpt>
      <trkpt lat="42.07161" lon="9.1531">
        <ele>1451.4</ele>
        <time>2015-06-22T09:39:32Z</time>
      </trkpt>
      <trkpt lat="42.07158" lon="9.15307">
        <ele>1453</ele>
        <time>2015-06-22T09:39:40Z</time>
      </trkpt>
      <trkpt lat="42.07155" lon="9.15298">
        <ele>1455</ele>
        <time>2015-06-22T09:39:53Z</time>
      </trkpt>
      <trkpt lat="42.07154" lon="9.15289">
        <ele>1456.6</ele>
        <time>2015-06-22T09:40:09Z</time>
      </trkpt>
      <trkpt lat="42.07154" lon="9.15287">
        <ele>1456.8</ele>
        <time>2015-06-22T09:40:13Z</time>
      </trkpt>
      <trkpt lat="42.07145" lon="9.15266">
        <ele>1459.6</ele>
        <time>2015-06-22T09:40:48Z</time>
      </trkpt>
      <trkpt lat="42.07145" lon="9.15265">
        <ele>1459.6</ele>
        <time>2015-06-22T09:40:49Z</time>
      </trkpt>
      <trkpt lat="42.07144" lon="9.15262">
        <ele>1460.2</ele>
        <time>2015-06-22T09:40:53Z</time>
      </trkpt>
      <trkpt lat="42.07143" lon="9.1526">
        <ele>1460.4</ele>
        <time>2015-06-22T09:40:56Z</time>
      </trkpt>
      <trkpt lat="42.0714" lon="9.15246">
        <ele>1462.6</ele>
        <time>2015-06-22T09:41:15Z</time>
      </trkpt>
      <trkpt lat="42.07138" lon="9.15241">
        <ele>1463.6</ele>
        <time>2015-06-22T09:41:22Z</time>
      </trkpt>
      <trkpt lat="42.07138" lon="9.15232">
        <ele>1464.6</ele>
        <time>2015-06-22T09:41:34Z</time>
      </trkpt>
      <trkpt lat="42.07131" lon="9.15223">
        <ele>1465.4</ele>
        <time>2015-06-22T09:41:47Z</time>
      </trkpt>
      <trkpt lat="42.07131" lon="9.1522">
        <ele>1466.8</ele>
        <time>2015-06-22T09:41:55Z</time>
      </trkpt>
      <trkpt lat="42.07129" lon="9.1521">
        <ele>1467.8</ele>
        <time>2015-06-22T09:42:04Z</time>
      </trkpt>
      <trkpt lat="42.07126" lon="9.15204">
        <ele>1469.4</ele>
        <time>2015-06-22T09:42:15Z</time>
      </trkpt>
      <trkpt lat="42.07124" lon="9.15197">
        <ele>1471</ele>
        <time>2015-06-22T09:42:26Z</time>
      </trkpt>
      <trkpt lat="42.07128" lon="9.15191">
        <ele>1472.2</ele>
        <time>2015-06-22T09:42:37Z</time>
      </trkpt>
      <trkpt lat="42.07133" lon="9.15192">
        <ele>1473</ele>
        <time>2015-06-22T09:42:44Z</time>
      </trkpt>
      <trkpt lat="42.07141" lon="9.1519">
        <ele>1474.6</ele>
        <time>2015-06-22T09:42:53Z</time>
      </trkpt>
      <trkpt lat="42.07133" lon="9.15179">
        <ele>1477</ele>
        <time>2015-06-22T09:43:26Z</time>
      </trkpt>
      <trkpt lat="42.07131" lon="9.15178">
        <ele>1477</ele>
        <time>2015-06-22T09:43:29Z</time>
      </trkpt>
      <trkpt lat="42.07129" lon="9.15179">
        <ele>1477.6</ele>
        <time>2015-06-22T09:43:38Z</time>
      </trkpt>
      <trkpt lat="42.07124" lon="9.15174">
        <ele>1480.4</ele>
        <time>2015-06-22T09:44:26Z</time>
      </trkpt>
      <trkpt lat="42.07119" lon="9.15167">
        <ele>1481.4</ele>
        <time>2015-06-22T09:44:38Z</time>
      </trkpt>
      <trkpt lat="42.07118" lon="9.15164">
        <ele>1481.8</ele>
        <time>2015-06-22T09:44:41Z</time>
      </trkpt>
      <trkpt lat="42.07118" lon="9.15163">
        <ele>1482.2</ele>
        <time>2015-06-22T09:44:43Z</time>
      </trkpt>
      <trkpt lat="42.0712" lon="9.15159">
        <ele>1483.8</ele>
        <time>2015-06-22T09:44:51Z</time>
      </trkpt>
      <trkpt lat="42.07119" lon="9.15155">
        <ele>1485</ele>
        <time>2015-06-22T09:44:58Z</time>
      </trkpt>
      <trkpt lat="42.07122" lon="9.15151">
        <ele>1486.8</ele>
        <time>2015-06-22T09:45:10Z</time>
      </trkpt>
      <trkpt lat="42.07121" lon="9.15149">
        <ele>1487.6</ele>
        <time>2015-06-22T09:45:16Z</time>
      </trkpt>
      <trkpt lat="42.07119" lon="9.15138">
        <ele>1489.4</ele>
        <time>2015-06-22T09:45:35Z</time>
      </trkpt>
      <trkpt lat="42.07117" lon="9.15129">
        <ele>1491.2</ele>
        <time>2015-06-22T09:45:47Z</time>
      </trkpt>
      <trkpt lat="42.07114" lon="9.15125">
        <ele>1491.4</ele>
        <time>2015-06-22T09:45:51Z</time>
      </trkpt>
      <trkpt lat="42.07111" lon="9.15122">
        <ele>1492</ele>
        <time>2015-06-22T09:45:57Z</time>
      </trkpt>
      <trkpt lat="42.0711" lon="9.15119">
        <ele>1493.4</ele>
        <time>2015-06-22T09:46:04Z</time>
      </trkpt>
      <trkpt lat="42.07106" lon="9.15114">
        <ele>1495.2</ele>
        <time>2015-06-22T09:46:20Z</time>
      </trkpt>
      <trkpt lat="42.07106" lon="9.15114">
        <ele>1495.8</ele>
        <time>2015-06-22T09:46:31Z</time>
      </trkpt>
      <trkpt lat="42.07104" lon="9.15101">
        <ele>1496</ele>
        <time>2015-06-22T09:46:52Z</time>
      </trkpt>
      <trkpt lat="42.07107" lon="9.15092">
        <ele>1496.8</ele>
        <time>2015-06-22T09:47:02Z</time>
      </trkpt>
      <trkpt lat="42.07105" lon="9.15088">
        <ele>1498.6</ele>
        <time>2015-06-22T09:47:12Z</time>
      </trkpt>
      <trkpt lat="42.07103" lon="9.15093">
        <ele>1499</ele>
        <time>2015-06-22T09:47:15Z</time>
      </trkpt>
      <trkpt lat="42.07103" lon="9.15092">
        <ele>1500.4</ele>
        <time>2015-06-22T09:47:21Z</time>
      </trkpt>
      <trkpt lat="42.07102" lon="9.1509">
        <ele>1502.4</ele>
        <time>2015-06-22T09:47:32Z</time>
      </trkpt>
      <trkpt lat="42.07103" lon="9.1509">
        <ele>1502.8</ele>
        <time>2015-06-22T09:47:34Z</time>
      </trkpt>
      <trkpt lat="42.07105" lon="9.15089">
        <ele>1503</ele>
        <time>2015-06-22T09:47:37Z</time>
      </trkpt>
      <trkpt lat="42.07105" lon="9.15089">
        <ele>1504</ele>
        <time>2015-06-22T09:47:39Z</time>
      </trkpt>
      <trkpt lat="42.07104" lon="9.15083">
        <ele>1507</ele>
        <time>2015-06-22T09:48:04Z</time>
      </trkpt>
      <trkpt lat="42.07107" lon="9.15079">
        <ele>1508.4</ele>
        <time>2015-06-22T09:48:20Z</time>
      </trkpt>
      <trkpt lat="42.07107" lon="9.15079">
        <ele>1508.8</ele>
        <time>2015-06-22T09:48:24Z</time>
      </trkpt>
      <trkpt lat="42.07109" lon="9.15072">
        <ele>1511.4</ele>
        <time>2015-06-22T09:48:46Z</time>
      </trkpt>
      <trkpt lat="42.07107" lon="9.15063">
        <ele>1512.6</ele>
        <time>2015-06-22T09:48:58Z</time>
      </trkpt>
      <trkpt lat="42.07111" lon="9.15053">
        <ele>1514</ele>
        <time>2015-06-22T09:49:13Z</time>
      </trkpt>
      <trkpt lat="42.07113" lon="9.15052">
        <ele>1514.2</ele>
        <time>2015-06-22T09:49:15Z</time>
      </trkpt>
      <trkpt lat="42.07119" lon="9.1504">
        <ele>1515.8</ele>
        <time>2015-06-22T09:49:38Z</time>
      </trkpt>
      <trkpt lat="42.07123" lon="9.15038">
        <ele>1516.6</ele>
        <time>2015-06-22T09:49:49Z</time>
      </trkpt>
      <trkpt lat="42.07125" lon="9.15039">
        <ele>1517</ele>
        <time>2015-06-22T09:49:53Z</time>
      </trkpt>
      <trkpt lat="42.07129" lon="9.15037">
        <ele>1519</ele>
        <time>2015-06-22T09:50:01Z</time>
      </trkpt>
      <trkpt lat="42.07131" lon="9.15034">
        <ele>1520.8</ele>
        <time>2015-06-22T09:50:14Z</time>
      </trkpt>
      <trkpt lat="42.07132" lon="9.15033">
        <ele>1521</ele>
        <time>2015-06-22T09:50:18Z</time>
      </trkpt>
      <trkpt lat="42.07139" lon="9.15034">
        <ele>1523.4</ele>
        <time>2015-06-22T09:50:33Z</time>
      </trkpt>
      <trkpt lat="42.07143" lon="9.15035">
        <ele>1524.2</ele>
        <time>2015-06-22T09:50:45Z</time>
      </trkpt>
      <trkpt lat="42.07147" lon="9.15035">
        <ele>1525.6</ele>
        <time>2015-06-22T09:50:58Z</time>
      </trkpt>
      <trkpt lat="42.07149" lon="9.15035">
        <ele>1526</ele>
        <time>2015-06-22T09:51:02Z</time>
      </trkpt>
      <trkpt lat="42.07153" lon="9.15033">
        <ele>1527.4</ele>
        <time>2015-06-22T09:51:11Z</time>
      </trkpt>
      <trkpt lat="42.07156" lon="9.15034">
        <ele>1528.4</ele>
        <time>2015-06-22T09:51:19Z</time>
      </trkpt>
      <trkpt lat="42.07159" lon="9.15034">
        <ele>1529.2</ele>
        <time>2015-06-22T09:51:25Z</time>
      </trkpt>
      <trkpt lat="42.07163" lon="9.15037">
        <ele>1530.8</ele>
        <time>2015-06-22T09:51:36Z</time>
      </trkpt>
      <trkpt lat="42.07168" lon="9.15039">
        <ele>1532</ele>
        <time>2015-06-22T09:51:49Z</time>
      </trkpt>
      <trkpt lat="42.07171" lon="9.15038">
        <ele>1533</ele>
        <time>2015-06-22T09:52:02Z</time>
      </trkpt>
      <trkpt lat="42.0718" lon="9.15041">
        <ele>1534.4</ele>
        <time>2015-06-22T09:52:37Z</time>
      </trkpt>
      <trkpt lat="42.07186" lon="9.1505">
        <ele>1535.2</ele>
        <time>2015-06-22T09:52:51Z</time>
      </trkpt>
      <trkpt lat="42.0719" lon="9.15053">
        <ele>1536</ele>
        <time>2015-06-22T09:52:59Z</time>
      </trkpt>
      <trkpt lat="42.07191" lon="9.15054">
        <ele>1536.2</ele>
        <time>2015-06-22T09:53:02Z</time>
      </trkpt>
      <trkpt lat="42.07194" lon="9.15053">
        <ele>1537.6</ele>
        <time>2015-06-22T09:53:07Z</time>
      </trkpt>
      <trkpt lat="42.07202" lon="9.15058">
        <ele>1539.6</ele>
        <time>2015-06-22T09:53:18Z</time>
      </trkpt>
      <trkpt lat="42.07208" lon="9.15062">
        <ele>1540.2</ele>
        <time>2015-06-22T09:53:29Z</time>
      </trkpt>
      <trkpt lat="42.0721" lon="9.1506">
        <ele>1541.4</ele>
        <time>2015-06-22T09:53:40Z</time>
      </trkpt>
      <trkpt lat="42.07212" lon="9.15061">
        <ele>1542</ele>
        <time>2015-06-22T09:53:46Z</time>
      </trkpt>
      <trkpt lat="42.07214" lon="9.15061">
        <ele>1543.2</ele>
        <time>2015-06-22T09:53:52Z</time>
      </trkpt>
      <trkpt lat="42.07218" lon="9.15064">
        <ele>1544.6</ele>
        <time>2015-06-22T09:54:01Z</time>
      </trkpt>
      <trkpt lat="42.07224" lon="9.15075">
        <ele>1545.8</ele>
        <time>2015-06-22T09:54:18Z</time>
      </trkpt>
      <trkpt lat="42.07228" lon="9.15075">
        <ele>1546.4</ele>
        <time>2015-06-22T09:54:24Z</time>
      </trkpt>
      <trkpt lat="42.0723" lon="9.15076">
        <ele>1547.4</ele>
        <time>2015-06-22T09:54:29Z</time>
      </trkpt>
      <trkpt lat="42.07237" lon="9.15081">
        <ele>1549.4</ele>
        <time>2015-06-22T09:54:40Z</time>
      </trkpt>
      <trkpt lat="42.0724" lon="9.15085">
        <ele>1550</ele>
        <time>2015-06-22T09:54:48Z</time>
      </trkpt>
      <trkpt lat="42.07247" lon="9.15089">
        <ele>1551.2</ele>
        <time>2015-06-22T09:54:58Z</time>
      </trkpt>
      <trkpt lat="42.07253" lon="9.15091">
        <ele>1552.4</ele>
        <time>2015-06-22T09:55:09Z</time>
      </trkpt>
      <trkpt lat="42.07254" lon="9.15091">
        <ele>1552.8</ele>
        <time>2015-06-22T09:55:13Z</time>
      </trkpt>
      <trkpt lat="42.07259" lon="9.15094">
        <ele>1554.2</ele>
        <time>2015-06-22T09:55:20Z</time>
      </trkpt>
      <trkpt lat="42.07266" lon="9.15095">
        <ele>1556</ele>
        <time>2015-06-22T09:55:36Z</time>
      </trkpt>
      <trkpt lat="42.0727" lon="9.15098">
        <ele>1556.4</ele>
        <time>2015-06-22T09:55:45Z</time>
      </trkpt>
      <trkpt lat="42.0727" lon="9.15099">
        <ele>1556.6</ele>
        <time>2015-06-22T09:55:47Z</time>
      </trkpt>
      <trkpt lat="42.07273" lon="9.151">
        <ele>1557.2</ele>
        <time>2015-06-22T09:55:50Z</time>
      </trkpt>
      <trkpt lat="42.07274" lon="9.15105">
        <ele>1557.4</ele>
        <time>2015-06-22T09:55:53Z</time>
      </trkpt>
      <trkpt lat="42.07277" lon="9.15107">
        <ele>1559.6</ele>
        <time>2015-06-22T09:55:59Z</time>
      </trkpt>
      <trkpt lat="42.07279" lon="9.1511">
        <ele>1560.6</ele>
        <time>2015-06-22T09:56:05Z</time>
      </trkpt>
      <trkpt lat="42.07281" lon="9.15111">
        <ele>1561.6</ele>
        <time>2015-06-22T09:56:10Z</time>
      </trkpt>
      <trkpt lat="42.07288" lon="9.15112">
        <ele>1563.2</ele>
        <time>2015-06-22T09:56:19Z</time>
      </trkpt>
      <trkpt lat="42.07296" lon="9.15115">
        <ele>1564.6</ele>
        <time>2015-06-22T09:56:32Z</time>
      </trkpt>
      <trkpt lat="42.07298" lon="9.15114">
        <ele>1564.8</ele>
        <time>2015-06-22T09:56:36Z</time>
      </trkpt>
      <trkpt lat="42.073" lon="9.15119">
        <ele>1565.6</ele>
        <time>2015-06-22T09:56:45Z</time>
      </trkpt>
      <trkpt lat="42.07303" lon="9.15129">
        <ele>1566.2</ele>
        <time>2015-06-22T09:56:54Z</time>
      </trkpt>
      <trkpt lat="42.07303" lon="9.1513">
        <ele>1566.4</ele>
        <time>2015-06-22T09:56:56Z</time>
      </trkpt>
      <trkpt lat="42.07303" lon="9.15132">
        <ele>1566.8</ele>
        <time>2015-06-22T09:56:58Z</time>
      </trkpt>
      <trkpt lat="42.07304" lon="9.15133">
        <ele>1567.2</ele>
        <time>2015-06-22T09:57:01Z</time>
      </trkpt>
      <trkpt lat="42.07306" lon="9.15141">
        <ele>1568</ele>
        <time>2015-06-22T09:57:06Z</time>
      </trkpt>
      <trkpt lat="42.07306" lon="9.15142">
        <ele>1568.2</ele>
        <time>2015-06-22T09:57:09Z</time>
      </trkpt>
      <trkpt lat="42.07304" lon="9.15144">
        <ele>1569.2</ele>
        <time>2015-06-22T09:57:16Z</time>
      </trkpt>
      <trkpt lat="42.07302" lon="9.15145">
        <ele>1570.8</ele>
        <time>2015-06-22T09:57:26Z</time>
      </trkpt>
      <trkpt lat="42.07302" lon="9.15149">
        <ele>1571</ele>
        <time>2015-06-22T09:57:31Z</time>
      </trkpt>
      <trkpt lat="42.07304" lon="9.15151">
        <ele>1572.6</ele>
        <time>2015-06-22T09:57:39Z</time>
      </trkpt>
      <trkpt lat="42.07304" lon="9.15154">
        <ele>1573.4</ele>
        <time>2015-06-22T09:57:47Z</time>
      </trkpt>
      <trkpt lat="42.07307" lon="9.15163">
        <ele>1574.6</ele>
        <time>2015-06-22T09:58:08Z</time>
      </trkpt>
      <trkpt lat="42.07304" lon="9.1516">
        <ele>1575.6</ele>
        <time>2015-06-22T09:58:30Z</time>
      </trkpt>
      <trkpt lat="42.07305" lon="9.15161">
        <ele>1574.6</ele>
        <time>2015-06-22T09:58:58Z</time>
      </trkpt>
      <trkpt lat="42.07302" lon="9.15172">
        <ele>1573.2</ele>
        <time>2015-06-22T09:59:36Z</time>
      </trkpt>
      <trkpt lat="42.07302" lon="9.15175">
        <ele>1572.6</ele>
        <time>2015-06-22T09:59:45Z</time>
      </trkpt>
      <trkpt lat="42.07302" lon="9.1518">
        <ele>1572</ele>
        <time>2015-06-22T09:59:50Z</time>
      </trkpt>
      <trkpt lat="42.07308" lon="9.15201">
        <ele>1570.8</ele>
        <time>2015-06-22T10:00:13Z</time>
      </trkpt>
      <trkpt lat="42.07314" lon="9.15201">
        <ele>1571.4</ele>
        <time>2015-06-22T10:00:18Z</time>
      </trkpt>
      <trkpt lat="42.07315" lon="9.15201">
        <ele>1571.4</ele>
        <time>2015-06-22T10:00:19Z</time>
      </trkpt>
      <trkpt lat="42.07318" lon="9.15202">
        <ele>1572.6</ele>
        <time>2015-06-22T10:00:26Z</time>
      </trkpt>
      <trkpt lat="42.07311" lon="9.15198">
        <ele>1573.8</ele>
        <time>2015-06-22T10:00:52Z</time>
      </trkpt>
      <trkpt lat="42.0731" lon="9.15197">
        <ele>1574</ele>
        <time>2015-06-22T10:00:55Z</time>
      </trkpt>
      <trkpt lat="42.07311" lon="9.15195">
        <ele>1574.2</ele>
        <time>2015-06-22T10:00:58Z</time>
      </trkpt>
      <trkpt lat="42.07313" lon="9.15199">
        <ele>1575</ele>
        <time>2015-06-22T10:01:06Z</time>
      </trkpt>
      <trkpt lat="42.07315" lon="9.15203">
        <ele>1575.8</ele>
        <time>2015-06-22T10:01:15Z</time>
      </trkpt>
      <trkpt lat="42.07317" lon="9.15208">
        <ele>1576</ele>
        <time>2015-06-22T10:01:20Z</time>
      </trkpt>
      <trkpt lat="42.07315" lon="9.1522">
        <ele>1577.2</ele>
        <time>2015-06-22T10:01:29Z</time>
      </trkpt>
      <trkpt lat="42.07321" lon="9.15235">
        <ele>1577.6</ele>
        <time>2015-06-22T10:01:41Z</time>
      </trkpt>
      <trkpt lat="42.07321" lon="9.15242">
        <ele>1578.2</ele>
        <time>2015-06-22T10:01:49Z</time>
      </trkpt>
      <trkpt lat="42.07321" lon="9.15247">
        <ele>1579.4</ele>
        <time>2015-06-22T10:01:57Z</time>
      </trkpt>
      <trkpt lat="42.07321" lon="9.15251">
        <ele>1580</ele>
        <time>2015-06-22T10:02:03Z</time>
      </trkpt>
      <trkpt lat="42.07326" lon="9.15269">
        <ele>1580.6</ele>
        <time>2015-06-22T10:02:17Z</time>
      </trkpt>
      <trkpt lat="42.07336" lon="9.15275">
        <ele>1579.8</ele>
        <time>2015-06-22T10:02:32Z</time>
      </trkpt>
      <trkpt lat="42.07339" lon="9.15276">
        <ele>1580</ele>
        <time>2015-06-22T10:02:36Z</time>
      </trkpt>
      <trkpt lat="42.0734" lon="9.15278">
        <ele>1580.4</ele>
        <time>2015-06-22T10:02:41Z</time>
      </trkpt>
      <trkpt lat="42.07342" lon="9.15281">
        <ele>1581.8</ele>
        <time>2015-06-22T10:02:49Z</time>
      </trkpt>
      <trkpt lat="42.07343" lon="9.15286">
        <ele>1582.4</ele>
        <time>2015-06-22T10:02:53Z</time>
      </trkpt>
      <trkpt lat="42.07344" lon="9.15291">
        <ele>1582.8</ele>
        <time>2015-06-22T10:02:57Z</time>
      </trkpt>
      <trkpt lat="42.07346" lon="9.15293">
        <ele>1583.2</ele>
        <time>2015-06-22T10:03:00Z</time>
      </trkpt>
      <trkpt lat="42.0735" lon="9.15301">
        <ele>1583.8</ele>
        <time>2015-06-22T10:03:07Z</time>
      </trkpt>
      <trkpt lat="42.0735" lon="9.15301">
        <ele>1583.8</ele>
        <time>2015-06-22T10:03:08Z</time>
      </trkpt>
      <trkpt lat="42.07352" lon="9.15304">
        <ele>1584.4</ele>
        <time>2015-06-22T10:03:14Z</time>
      </trkpt>
      <trkpt lat="42.07353" lon="9.15304">
        <ele>1584.8</ele>
        <time>2015-06-22T10:03:18Z</time>
      </trkpt>
      <trkpt lat="42.07358" lon="9.15311">
        <ele>1587.2</ele>
        <time>2015-06-22T10:03:31Z</time>
      </trkpt>
      <trkpt lat="42.07374" lon="9.15329">
        <ele>1586.8</ele>
        <time>2015-06-22T10:04:24Z</time>
      </trkpt>
      <trkpt lat="42.07381" lon="9.15318">
        <ele>1585.4</ele>
        <time>2015-06-22T10:04:37Z</time>
      </trkpt>
      <trkpt lat="42.07386" lon="9.15313">
        <ele>1586</ele>
        <time>2015-06-22T10:04:50Z</time>
      </trkpt>
      <trkpt lat="42.07397" lon="9.15309">
        <ele>1587</ele>
        <time>2015-06-22T10:05:03Z</time>
      </trkpt>
      <trkpt lat="42.07398" lon="9.15309">
        <ele>1587.2</ele>
        <time>2015-06-22T10:05:04Z</time>
      </trkpt>
      <trkpt lat="42.07403" lon="9.15306">
        <ele>1587.6</ele>
        <time>2015-06-22T10:05:09Z</time>
      </trkpt>
      <trkpt lat="42.07406" lon="9.15302">
        <ele>1588.2</ele>
        <time>2015-06-22T10:05:14Z</time>
      </trkpt>
      <trkpt lat="42.0741" lon="9.15299">
        <ele>1588.8</ele>
        <time>2015-06-22T10:05:18Z</time>
      </trkpt>
      <trkpt lat="42.07415" lon="9.15295">
        <ele>1589.4</ele>
        <time>2015-06-22T10:05:25Z</time>
      </trkpt>
      <trkpt lat="42.07418" lon="9.15289">
        <ele>1590.4</ele>
        <time>2015-06-22T10:05:33Z</time>
      </trkpt>
      <trkpt lat="42.07422" lon="9.15286">
        <ele>1591.2</ele>
        <time>2015-06-22T10:05:39Z</time>
      </trkpt>
      <trkpt lat="42.07425" lon="9.15283">
        <ele>1592.2</ele>
        <time>2015-06-22T10:05:46Z</time>
      </trkpt>
      <trkpt lat="42.07429" lon="9.15279">
        <ele>1593.4</ele>
        <time>2015-06-22T10:05:53Z</time>
      </trkpt>
      <trkpt lat="42.07433" lon="9.15277">
        <ele>1594</ele>
        <time>2015-06-22T10:05:59Z</time>
      </trkpt>
      <trkpt lat="42.07435" lon="9.15277">
        <ele>1595.2</ele>
        <time>2015-06-22T10:06:06Z</time>
      </trkpt>
      <trkpt lat="42.07437" lon="9.15276">
        <ele>1596.6</ele>
        <time>2015-06-22T10:06:16Z</time>
      </trkpt>
      <trkpt lat="42.07439" lon="9.15272">
        <ele>1597.4</ele>
        <time>2015-06-22T10:06:23Z</time>
      </trkpt>
      <trkpt lat="42.07441" lon="9.15267">
        <ele>1598.4</ele>
        <time>2015-06-22T10:06:32Z</time>
      </trkpt>
      <trkpt lat="42.07442" lon="9.15263">
        <ele>1598.8</ele>
        <time>2015-06-22T10:06:38Z</time>
      </trkpt>
      <trkpt lat="42.07444" lon="9.15261">
        <ele>1599.8</ele>
        <time>2015-06-22T10:06:43Z</time>
      </trkpt>
      <trkpt lat="42.07447" lon="9.15254">
        <ele>1601.2</ele>
        <time>2015-06-22T10:06:53Z</time>
      </trkpt>
      <trkpt lat="42.07458" lon="9.15253">
        <ele>1602.4</ele>
        <time>2015-06-22T10:07:09Z</time>
      </trkpt>
      <trkpt lat="42.07459" lon="9.15253">
        <ele>1602.4</ele>
        <time>2015-06-22T10:07:10Z</time>
      </trkpt>
      <trkpt lat="42.07461" lon="9.15252">
        <ele>1602.4</ele>
        <time>2015-06-22T10:07:12Z</time>
      </trkpt>
      <trkpt lat="42.07467" lon="9.15251">
        <ele>1603</ele>
        <time>2015-06-22T10:07:21Z</time>
      </trkpt>
      <trkpt lat="42.07468" lon="9.15253">
        <ele>1603.4</ele>
        <time>2015-06-22T10:07:27Z</time>
      </trkpt>
      <trkpt lat="42.0747" lon="9.1525">
        <ele>1604.6</ele>
        <time>2015-06-22T10:07:36Z</time>
      </trkpt>
      <trkpt lat="42.07479" lon="9.15251">
        <ele>1605.8</ele>
        <time>2015-06-22T10:07:52Z</time>
      </trkpt>
      <trkpt lat="42.07482" lon="9.15248">
        <ele>1606</ele>
        <time>2015-06-22T10:07:58Z</time>
      </trkpt>
      <trkpt lat="42.07484" lon="9.15245">
        <ele>1606.8</ele>
        <time>2015-06-22T10:08:02Z</time>
      </trkpt>
      <trkpt lat="42.07487" lon="9.15244">
        <ele>1608.2</ele>
        <time>2015-06-22T10:08:09Z</time>
      </trkpt>
      <trkpt lat="42.07501" lon="9.15238">
        <ele>1609.6</ele>
        <time>2015-06-22T10:08:23Z</time>
      </trkpt>
      <trkpt lat="42.07508" lon="9.15229">
        <ele>1609.6</ele>
        <time>2015-06-22T10:08:34Z</time>
      </trkpt>
      <trkpt lat="42.07509" lon="9.15223">
        <ele>1609.4</ele>
        <time>2015-06-22T10:08:40Z</time>
      </trkpt>
      <trkpt lat="42.07511" lon="9.15214">
        <ele>1610</ele>
        <time>2015-06-22T10:08:55Z</time>
      </trkpt>
      <trkpt lat="42.07519" lon="9.15208">
        <ele>1610.2</ele>
        <time>2015-06-22T10:09:05Z</time>
      </trkpt>
      <trkpt lat="42.07522" lon="9.15205">
        <ele>1610.2</ele>
        <time>2015-06-22T10:09:08Z</time>
      </trkpt>
      <trkpt lat="42.07528" lon="9.15192">
        <ele>1609.4</ele>
        <time>2015-06-22T10:09:18Z</time>
      </trkpt>
      <trkpt lat="42.07534" lon="9.15181">
        <ele>1609.2</ele>
        <time>2015-06-22T10:09:29Z</time>
      </trkpt>
      <trkpt lat="42.07536" lon="9.15179">
        <ele>1609</ele>
        <time>2015-06-22T10:09:31Z</time>
      </trkpt>
      <trkpt lat="42.07541" lon="9.15176">
        <ele>1609.4</ele>
        <time>2015-06-22T10:09:38Z</time>
      </trkpt>
      <trkpt lat="42.0755" lon="9.15171">
        <ele>1610</ele>
        <time>2015-06-22T10:09:48Z</time>
      </trkpt>
      <trkpt lat="42.07558" lon="9.15164">
        <ele>1610.4</ele>
        <time>2015-06-22T10:09:57Z</time>
      </trkpt>
      <trkpt lat="42.07561" lon="9.15161">
        <ele>1611</ele>
        <time>2015-06-22T10:10:03Z</time>
      </trkpt>
      <trkpt lat="42.07561" lon="9.15159">
        <ele>1612.2</ele>
        <time>2015-06-22T10:10:10Z</time>
      </trkpt>
      <trkpt lat="42.07565" lon="9.15158">
        <ele>1613.4</ele>
        <time>2015-06-22T10:10:19Z</time>
      </trkpt>
      <trkpt lat="42.07574" lon="9.15163">
        <ele>1613.2</ele>
        <time>2015-06-22T10:11:27Z</time>
      </trkpt>
      <trkpt lat="42.07578" lon="9.15165">
        <ele>1613.2</ele>
        <time>2015-06-22T10:11:43Z</time>
      </trkpt>
      <trkpt lat="42.07578" lon="9.15164">
        <ele>1613</ele>
        <time>2015-06-22T10:11:46Z</time>
      </trkpt>
      <trkpt lat="42.07581" lon="9.15158">
        <ele>1612</ele>
        <time>2015-06-22T10:11:57Z</time>
      </trkpt>
      <trkpt lat="42.07585" lon="9.15155">
        <ele>1610.6</ele>
        <time>2015-06-22T10:12:06Z</time>
      </trkpt>
      <trkpt lat="42.0759" lon="9.15143">
        <ele>1608.6</ele>
        <time>2015-06-22T10:12:23Z</time>
      </trkpt>
      <trkpt lat="42.07596" lon="9.15125">
        <ele>1607</ele>
        <time>2015-06-22T10:12:49Z</time>
      </trkpt>
      <trkpt lat="42.07599" lon="9.15121">
        <ele>1605.8</ele>
        <time>2015-06-22T10:13:07Z</time>
      </trkpt>
      <trkpt lat="42.07605" lon="9.15115">
        <ele>1604.4</ele>
        <time>2015-06-22T10:13:38Z</time>
      </trkpt>
      <trkpt lat="42.07608" lon="9.15114">
        <ele>1603.8</ele>
        <time>2015-06-22T10:13:45Z</time>
      </trkpt>
      <trkpt lat="42.07615" lon="9.15092">
        <ele>1601.8</ele>
        <time>2015-06-22T10:14:19Z</time>
      </trkpt>
      <trkpt lat="42.07617" lon="9.15088">
        <ele>1600.8</ele>
        <time>2015-06-22T10:14:28Z</time>
      </trkpt>
      <trkpt lat="42.07619" lon="9.15087">
        <ele>1600.2</ele>
        <time>2015-06-22T10:14:33Z</time>
      </trkpt>
      <trkpt lat="42.07622" lon="9.15087">
        <ele>1598.4</ele>
        <time>2015-06-22T10:14:40Z</time>
      </trkpt>
      <trkpt lat="42.07626" lon="9.15078">
        <ele>1596.8</ele>
        <time>2015-06-22T10:14:52Z</time>
      </trkpt>
      <trkpt lat="42.0763" lon="9.15068">
        <ele>1595.8</ele>
        <time>2015-06-22T10:15:03Z</time>
      </trkpt>
      <trkpt lat="42.07632" lon="9.15061">
        <ele>1594.6</ele>
        <time>2015-06-22T10:15:13Z</time>
      </trkpt>
      <trkpt lat="42.07636" lon="9.15055">
        <ele>1593.4</ele>
        <time>2015-06-22T10:15:22Z</time>
      </trkpt>
      <trkpt lat="42.07639" lon="9.15052">
        <ele>1592.4</ele>
        <time>2015-06-22T10:15:30Z</time>
      </trkpt>
      <trkpt lat="42.07643" lon="9.15049">
        <ele>1591</ele>
        <time>2015-06-22T10:15:40Z</time>
      </trkpt>
      <trkpt lat="42.07645" lon="9.15042">
        <ele>1589.8</ele>
        <time>2015-06-22T10:15:50Z</time>
      </trkpt>
      <trkpt lat="42.07653" lon="9.15038">
        <ele>1588.4</ele>
        <time>2015-06-22T10:16:02Z</time>
      </trkpt>
      <trkpt lat="42.07659" lon="9.15029">
        <ele>1587</ele>
        <time>2015-06-22T10:16:20Z</time>
      </trkpt>
      <trkpt lat="42.07663" lon="9.15019">
        <ele>1586</ele>
        <time>2015-06-22T10:16:29Z</time>
      </trkpt>
      <trkpt lat="42.07665" lon="9.15013">
        <ele>1585</ele>
        <time>2015-06-22T10:16:36Z</time>
      </trkpt>
      <trkpt lat="42.0767" lon="9.15002">
        <ele>1583.2</ele>
        <time>2015-06-22T10:16:50Z</time>
      </trkpt>
      <trkpt lat="42.07675" lon="9.15001">
        <ele>1582.8</ele>
        <time>2015-06-22T10:16:56Z</time>
      </trkpt>
      <trkpt lat="42.07684" lon="9.15007">
        <ele>1581.2</ele>
        <time>2015-06-22T10:17:07Z</time>
      </trkpt>
      <trkpt lat="42.07698" lon="9.15011">
        <ele>1579.8</ele>
        <time>2015-06-22T10:17:20Z</time>
      </trkpt>
      <trkpt lat="42.07702" lon="9.15016">
        <ele>1579.4</ele>
        <time>2015-06-22T10:17:25Z</time>
      </trkpt>
      <trkpt lat="42.07705" lon="9.1502">
        <ele>1579.4</ele>
        <time>2015-06-22T10:17:29Z</time>
      </trkpt>
      <trkpt lat="42.0771" lon="9.15026">
        <ele>1579.4</ele>
        <time>2015-06-22T10:17:36Z</time>
      </trkpt>
      <trkpt lat="42.07721" lon="9.15024">
        <ele>1579.8</ele>
        <time>2015-06-22T10:17:52Z</time>
      </trkpt>
      <trkpt lat="42.07723" lon="9.15025">
        <ele>1580.8</ele>
        <time>2015-06-22T10:17:57Z</time>
      </trkpt>
      <trkpt lat="42.07726" lon="9.15026">
        <ele>1582</ele>
        <time>2015-06-22T10:18:03Z</time>
      </trkpt>
      <trkpt lat="42.07727" lon="9.15029">
        <ele>1583.2</ele>
        <time>2015-06-22T10:18:11Z</time>
      </trkpt>
      <trkpt lat="42.07728" lon="9.1503">
        <ele>1584.6</ele>
        <time>2015-06-22T10:18:35Z</time>
      </trkpt>
      <trkpt lat="42.07728" lon="9.15024">
        <ele>1585</ele>
        <time>2015-06-22T10:19:08Z</time>
      </trkpt>
      <trkpt lat="42.07726" lon="9.15032">
        <ele>1585.4</ele>
        <time>2015-06-22T10:19:24Z</time>
      </trkpt>
      <trkpt lat="42.07726" lon="9.15036">
        <ele>1585</ele>
        <time>2015-06-22T10:19:30Z</time>
      </trkpt>
      <trkpt lat="42.07727" lon="9.15041">
        <ele>1585</ele>
        <time>2015-06-22T10:19:37Z</time>
      </trkpt>
      <trkpt lat="42.07727" lon="9.15042">
        <ele>1585</ele>
        <time>2015-06-22T10:19:39Z</time>
      </trkpt>
    </trkseg>
  </trk>
  <trk>
    <name><![CDATA[GR20 E Capannelle - Col Vizzavona]]></name>
    <trkseg>
      <trkpt lat="42.07792" lon="9.14977">
        <ele>1591</ele>
        <time>2015-06-23T04:06:44Z</time>
      </trkpt>
      <trkpt lat="42.07791" lon="9.14974">
        <ele>1591</ele>
        <time>2015-06-23T04:06:46Z</time>
      </trkpt>
      <trkpt lat="42.0779" lon="9.14973">
        <ele>1591.2</ele>
        <time>2015-06-23T04:06:48Z</time>
      </trkpt>
      <trkpt lat="42.07792" lon="9.14968">
        <ele>1592.6</ele>
        <time>2015-06-23T04:06:58Z</time>
      </trkpt>
      <trkpt lat="42.07794" lon="9.14965">
        <ele>1592.2</ele>
        <time>2015-06-23T04:07:03Z</time>
      </trkpt>
      <trkpt lat="42.07798" lon="9.14961">
        <ele>1593.4</ele>
        <time>2015-06-23T04:07:11Z</time>
      </trkpt>
      <trkpt lat="42.07797" lon="9.14956">
        <ele>1593.8</ele>
        <time>2015-06-23T04:07:15Z</time>
      </trkpt>
      <trkpt lat="42.07798" lon="9.14952">
        <ele>1594.6</ele>
        <time>2015-06-23T04:07:19Z</time>
      </trkpt>
      <trkpt lat="42.07799" lon="9.1495">
        <ele>1595.4</ele>
        <time>2015-06-23T04:07:22Z</time>
      </trkpt>
      <trkpt lat="42.07803" lon="9.14951">
        <ele>1597.4</ele>
        <time>2015-06-23T04:07:28Z</time>
      </trkpt>
      <trkpt lat="42.07808" lon="9.14954">
        <ele>1598.8</ele>
        <time>2015-06-23T04:07:35Z</time>
      </trkpt>
      <trkpt lat="42.07811" lon="9.14956">
        <ele>1599.6</ele>
        <time>2015-06-23T04:07:40Z</time>
      </trkpt>
      <trkpt lat="42.0781" lon="9.14958">
        <ele>1599.8</ele>
        <time>2015-06-23T04:07:43Z</time>
      </trkpt>
      <trkpt lat="42.07811" lon="9.14961">
        <ele>1600.4</ele>
        <time>2015-06-23T04:07:49Z</time>
      </trkpt>
      <trkpt lat="42.07811" lon="9.14964">
        <ele>1600.6</ele>
        <time>2015-06-23T04:07:53Z</time>
      </trkpt>
      <trkpt lat="42.0781" lon="9.1497">
        <ele>1602</ele>
        <time>2015-06-23T04:08:00Z</time>
      </trkpt>
      <trkpt lat="42.07812" lon="9.14976">
        <ele>1603.2</ele>
        <time>2015-06-23T04:08:09Z</time>
      </trkpt>
      <trkpt lat="42.07792" lon="9.14979">
        <ele>1605</ele>
        <time>2015-06-23T04:26:44Z</time>
      </trkpt>
      <trkpt lat="42.07792" lon="9.14977">
        <ele>1605.2</ele>
        <time>2015-06-23T04:27:04Z</time>
      </trkpt>
      <trkpt lat="42.07792" lon="9.14979">
        <ele>1605.8</ele>
        <time>2015-06-23T04:27:20Z</time>
      </trkpt>
      <trkpt lat="42.07791" lon="9.14979">
        <ele>1606</ele>
        <time>2015-06-23T04:27:23Z</time>
      </trkpt>
      <trkpt lat="42.07792" lon="9.14978">
        <ele>1606</ele>
        <time>2015-06-23T04:27:26Z</time>
      </trkpt>
      <trkpt lat="42.07793" lon="9.14978">
        <ele>1607</ele>
        <time>2015-06-23T04:27:30Z</time>
      </trkpt>
      <trkpt lat="42.07794" lon="9.14981">
        <ele>1606</ele>
        <time>2015-06-23T04:27:53Z</time>
      </trkpt>
      <trkpt lat="42.07794" lon="9.14981">
        <ele>1605.2</ele>
        <time>2015-06-23T04:28:04Z</time>
      </trkpt>
      <trkpt lat="42.07794" lon="9.14981">
        <ele>1604.4</ele>
        <time>2015-06-23T04:28:40Z</time>
      </trkpt>
      <trkpt lat="42.07794" lon="9.14981">
        <ele>1605.4</ele>
        <time>2015-06-23T04:28:49Z</time>
      </trkpt>
      <trkpt lat="42.07791" lon="9.15025">
        <ele>1604.4</ele>
        <time>2015-06-23T04:30:04Z</time>
      </trkpt>
      <trkpt lat="42.07786" lon="9.15032">
        <ele>1603.4</ele>
        <time>2015-06-23T04:30:15Z</time>
      </trkpt>
      <trkpt lat="42.07784" lon="9.1504">
        <ele>1602.6</ele>
        <time>2015-06-23T04:30:26Z</time>
      </trkpt>
      <trkpt lat="42.07781" lon="9.15046">
        <ele>1601.6</ele>
        <time>2015-06-23T04:31:29Z</time>
      </trkpt>
      <trkpt lat="42.0778" lon="9.15052">
        <ele>1600.4</ele>
        <time>2015-06-23T04:31:39Z</time>
      </trkpt>
      <trkpt lat="42.0778" lon="9.15065">
        <ele>1599.4</ele>
        <time>2015-06-23T04:31:50Z</time>
      </trkpt>
      <trkpt lat="42.07782" lon="9.15073">
        <ele>1598</ele>
        <time>2015-06-23T04:32:02Z</time>
      </trkpt>
      <trkpt lat="42.07784" lon="9.15082">
        <ele>1597.4</ele>
        <time>2015-06-23T04:32:11Z</time>
      </trkpt>
      <trkpt lat="42.07785" lon="9.15088">
        <ele>1596.4</ele>
        <time>2015-06-23T04:32:18Z</time>
      </trkpt>
      <trkpt lat="42.07791" lon="9.15103">
        <ele>1595</ele>
        <time>2015-06-23T04:32:41Z</time>
      </trkpt>
      <trkpt lat="42.07796" lon="9.1511">
        <ele>1594</ele>
        <time>2015-06-23T04:33:03Z</time>
      </trkpt>
      <trkpt lat="42.07798" lon="9.15114">
        <ele>1595.4</ele>
        <time>2015-06-23T04:33:24Z</time>
      </trkpt>
      <trkpt lat="42.07801" lon="9.15122">
        <ele>1594.8</ele>
        <time>2015-06-23T04:33:41Z</time>
      </trkpt>
      <trkpt lat="42.07805" lon="9.15126">
        <ele>1594.8</ele>
        <time>2015-06-23T04:33:56Z</time>
      </trkpt>
      <trkpt lat="42.07807" lon="9.15132">
        <ele>1595.2</ele>
        <time>2015-06-23T04:34:09Z</time>
      </trkpt>
      <trkpt lat="42.07808" lon="9.15135">
        <ele>1594.6</ele>
        <time>2015-06-23T04:34:13Z</time>
      </trkpt>
      <trkpt lat="42.07809" lon="9.1514">
        <ele>1593.4</ele>
        <time>2015-06-23T04:34:31Z</time>
      </trkpt>
      <trkpt lat="42.07809" lon="9.15138">
        <ele>1593.8</ele>
        <time>2015-06-23T04:34:37Z</time>
      </trkpt>
      <trkpt lat="42.07815" lon="9.15142">
        <ele>1595.4</ele>
        <time>2015-06-23T04:34:59Z</time>
      </trkpt>
      <trkpt lat="42.0782" lon="9.15147">
        <ele>1596.2</ele>
        <time>2015-06-23T04:35:15Z</time>
      </trkpt>
      <trkpt lat="42.07821" lon="9.15148">
        <ele>1596.6</ele>
        <time>2015-06-23T04:35:19Z</time>
      </trkpt>
      <trkpt lat="42.07822" lon="9.15149">
        <ele>1598</ele>
        <time>2015-06-23T04:35:27Z</time>
      </trkpt>
      <trkpt lat="42.07824" lon="9.1515">
        <ele>1598.6</ele>
        <time>2015-06-23T04:35:33Z</time>
      </trkpt>
      <trkpt lat="42.07834" lon="9.1516">
        <ele>1599.6</ele>
        <time>2015-06-23T04:35:58Z</time>
      </trkpt>
      <trkpt lat="42.07835" lon="9.15162">
        <ele>1599</ele>
        <time>2015-06-23T04:36:02Z</time>
      </trkpt>
      <trkpt lat="42.0784" lon="9.15171">
        <ele>1596.8</ele>
        <time>2015-06-23T04:36:13Z</time>
      </trkpt>
      <trkpt lat="42.0784" lon="9.15176">
        <ele>1596.2</ele>
        <time>2015-06-23T04:36:18Z</time>
      </trkpt>
      <trkpt lat="42.0784" lon="9.15181">
        <ele>1595</ele>
        <time>2015-06-23T04:36:23Z</time>
      </trkpt>
      <trkpt lat="42.07849" lon="9.15196">
        <ele>1594</ele>
        <time>2015-06-23T04:36:43Z</time>
      </trkpt>
      <trkpt lat="42.07852" lon="9.15202">
        <ele>1595</ele>
        <time>2015-06-23T04:36:49Z</time>
      </trkpt>
      <trkpt lat="42.07856" lon="9.15204">
        <ele>1596.2</ele>
        <time>2015-06-23T04:36:56Z</time>
      </trkpt>
      <trkpt lat="42.07851" lon="9.15218">
        <ele>1597</ele>
        <time>2015-06-23T04:37:21Z</time>
      </trkpt>
      <trkpt lat="42.07852" lon="9.15226">
        <ele>1595.4</ele>
        <time>2015-06-23T04:37:29Z</time>
      </trkpt>
      <trkpt lat="42.0785" lon="9.15223">
        <ele>1595</ele>
        <time>2015-06-23T04:37:53Z</time>
      </trkpt>
      <trkpt lat="42.0785" lon="9.15222">
        <ele>1596.4</ele>
        <time>2015-06-23T04:38:08Z</time>
      </trkpt>
      <trkpt lat="42.0785" lon="9.15223">
        <ele>1596</ele>
        <time>2015-06-23T04:38:31Z</time>
      </trkpt>
      <trkpt lat="42.0785" lon="9.15223">
        <ele>1594</ele>
        <time>2015-06-23T04:41:05Z</time>
      </trkpt>
      <trkpt lat="42.0785" lon="9.15223">
        <ele>1594</ele>
        <time>2015-06-23T04:41:13Z</time>
      </trkpt>
      <trkpt lat="42.07849" lon="9.15223">
        <ele>1595.2</ele>
        <time>2015-06-23T04:41:31Z</time>
      </trkpt>
      <trkpt lat="42.07849" lon="9.15223">
        <ele>1596</ele>
        <time>2015-06-23T04:42:04Z</time>
      </trkpt>
      <trkpt lat="42.07853" lon="9.15229">
        <ele>1595.2</ele>
        <time>2015-06-23T04:42:37Z</time>
      </trkpt>
      <trkpt lat="42.07863" lon="9.15241">
        <ele>1594.8</ele>
        <time>2015-06-23T04:42:56Z</time>
      </trkpt>
      <trkpt lat="42.07864" lon="9.15241">
        <ele>1594.8</ele>
        <time>2015-06-23T04:42:57Z</time>
      </trkpt>
      <trkpt lat="42.07867" lon="9.15242">
        <ele>1595.2</ele>
        <time>2015-06-23T04:43:01Z</time>
      </trkpt>
      <trkpt lat="42.07869" lon="9.15244">
        <ele>1596</ele>
        <time>2015-06-23T04:43:04Z</time>
      </trkpt>
      <trkpt lat="42.07876" lon="9.1525">
        <ele>1597.2</ele>
        <time>2015-06-23T04:43:18Z</time>
      </trkpt>
      <trkpt lat="42.0789" lon="9.1526">
        <ele>1597.2</ele>
        <time>2015-06-23T04:43:41Z</time>
      </trkpt>
      <trkpt lat="42.07892" lon="9.1526">
        <ele>1597.6</ele>
        <time>2015-06-23T04:43:46Z</time>
      </trkpt>
      <trkpt lat="42.07897" lon="9.15263">
        <ele>1599.4</ele>
        <time>2015-06-23T04:44:33Z</time>
      </trkpt>
      <trkpt lat="42.07897" lon="9.15269">
        <ele>1600.6</ele>
        <time>2015-06-23T04:45:02Z</time>
      </trkpt>
      <trkpt lat="42.07901" lon="9.15271">
        <ele>1601</ele>
        <time>2015-06-23T04:45:09Z</time>
      </trkpt>
      <trkpt lat="42.07903" lon="9.15271">
        <ele>1601</ele>
        <time>2015-06-23T04:45:12Z</time>
      </trkpt>
      <trkpt lat="42.07904" lon="9.1527">
        <ele>1601.6</ele>
        <time>2015-06-23T04:45:14Z</time>
      </trkpt>
      <trkpt lat="42.07907" lon="9.1527">
        <ele>1602.8</ele>
        <time>2015-06-23T04:45:22Z</time>
      </trkpt>
      <trkpt lat="42.07909" lon="9.1527">
        <ele>1602.6</ele>
        <time>2015-06-23T04:45:25Z</time>
      </trkpt>
      <trkpt lat="42.07911" lon="9.15272">
        <ele>1602.6</ele>
        <time>2015-06-23T04:45:28Z</time>
      </trkpt>
      <trkpt lat="42.07922" lon="9.15282">
        <ele>1600.2</ele>
        <time>2015-06-23T04:45:45Z</time>
      </trkpt>
      <trkpt lat="42.07938" lon="9.1531">
        <ele>1601.4</ele>
        <time>2015-06-23T04:46:31Z</time>
      </trkpt>
      <trkpt lat="42.07943" lon="9.15315">
        <ele>1602</ele>
        <time>2015-06-23T04:46:39Z</time>
      </trkpt>
      <trkpt lat="42.07944" lon="9.15315">
        <ele>1602.2</ele>
        <time>2015-06-23T04:46:40Z</time>
      </trkpt>
      <trkpt lat="42.07947" lon="9.15317">
        <ele>1602.8</ele>
        <time>2015-06-23T04:46:43Z</time>
      </trkpt>
      <trkpt lat="42.07949" lon="9.1532">
        <ele>1603</ele>
        <time>2015-06-23T04:46:46Z</time>
      </trkpt>
      <trkpt lat="42.07957" lon="9.15326">
        <ele>1604.2</ele>
        <time>2015-06-23T04:46:55Z</time>
      </trkpt>
      <trkpt lat="42.07961" lon="9.1533">
        <ele>1605</ele>
        <time>2015-06-23T04:47:02Z</time>
      </trkpt>
      <trkpt lat="42.07976" lon="9.15353">
        <ele>1606.4</ele>
        <time>2015-06-23T04:47:38Z</time>
      </trkpt>
      <trkpt lat="42.07978" lon="9.15354">
        <ele>1606.4</ele>
        <time>2015-06-23T04:47:42Z</time>
      </trkpt>
      <trkpt lat="42.07982" lon="9.1537">
        <ele>1607.8</ele>
        <time>2015-06-23T04:48:04Z</time>
      </trkpt>
      <trkpt lat="42.07983" lon="9.15372">
        <ele>1608</ele>
        <time>2015-06-23T04:48:06Z</time>
      </trkpt>
      <trkpt lat="42.07982" lon="9.15375">
        <ele>1608.6</ele>
        <time>2015-06-23T04:48:09Z</time>
      </trkpt>
      <trkpt lat="42.07985" lon="9.15378">
        <ele>1610.6</ele>
        <time>2015-06-23T04:48:13Z</time>
      </trkpt>
      <trkpt lat="42.07995" lon="9.1539">
        <ele>1612.4</ele>
        <time>2015-06-23T04:48:30Z</time>
      </trkpt>
      <trkpt lat="42.07998" lon="9.15391">
        <ele>1613.4</ele>
        <time>2015-06-23T04:48:35Z</time>
      </trkpt>
      <trkpt lat="42.08002" lon="9.15393">
        <ele>1614.4</ele>
        <time>2015-06-23T04:48:40Z</time>
      </trkpt>
      <trkpt lat="42.08006" lon="9.15391">
        <ele>1616.2</ele>
        <time>2015-06-23T04:48:48Z</time>
      </trkpt>
      <trkpt lat="42.08011" lon="9.15385">
        <ele>1616.8</ele>
        <time>2015-06-23T04:48:59Z</time>
      </trkpt>
      <trkpt lat="42.08011" lon="9.15388">
        <ele>1615</ele>
        <time>2015-06-23T04:49:22Z</time>
      </trkpt>
      <trkpt lat="42.08032" lon="9.15422">
        <ele>1613.8</ele>
        <time>2015-06-23T04:49:57Z</time>
      </trkpt>
      <trkpt lat="42.08039" lon="9.1544">
        <ele>1613</ele>
        <time>2015-06-23T04:50:12Z</time>
      </trkpt>
      <trkpt lat="42.08042" lon="9.15446">
        <ele>1612.6</ele>
        <time>2015-06-23T04:50:17Z</time>
      </trkpt>
      <trkpt lat="42.08081" lon="9.15476">
        <ele>1611.2</ele>
        <time>2015-06-23T04:51:03Z</time>
      </trkpt>
      <trkpt lat="42.08089" lon="9.15511">
        <ele>1610.2</ele>
        <time>2015-06-23T04:51:29Z</time>
      </trkpt>
      <trkpt lat="42.08091" lon="9.15512">
        <ele>1610.2</ele>
        <time>2015-06-23T04:51:31Z</time>
      </trkpt>
      <trkpt lat="42.08094" lon="9.15515">
        <ele>1610.2</ele>
        <time>2015-06-23T04:51:36Z</time>
      </trkpt>
      <trkpt lat="42.08097" lon="9.15518">
        <ele>1608.4</ele>
        <time>2015-06-23T04:51:43Z</time>
      </trkpt>
      <trkpt lat="42.08102" lon="9.15527">
        <ele>1607.2</ele>
        <time>2015-06-23T04:51:56Z</time>
      </trkpt>
      <trkpt lat="42.08104" lon="9.1553">
        <ele>1606.8</ele>
        <time>2015-06-23T04:52:01Z</time>
      </trkpt>
      <trkpt lat="42.08105" lon="9.15531">
        <ele>1606</ele>
        <time>2015-06-23T04:52:03Z</time>
      </trkpt>
      <trkpt lat="42.08107" lon="9.15534">
        <ele>1605</ele>
        <time>2015-06-23T04:52:07Z</time>
      </trkpt>
      <trkpt lat="42.0811" lon="9.15536">
        <ele>1602.8</ele>
        <time>2015-06-23T04:52:16Z</time>
      </trkpt>
      <trkpt lat="42.08118" lon="9.15549">
        <ele>1603.6</ele>
        <time>2015-06-23T04:52:33Z</time>
      </trkpt>
      <trkpt lat="42.08119" lon="9.15551">
        <ele>1603</ele>
        <time>2015-06-23T04:52:36Z</time>
      </trkpt>
      <trkpt lat="42.08121" lon="9.15555">
        <ele>1601.2</ele>
        <time>2015-06-23T04:52:40Z</time>
      </trkpt>
      <trkpt lat="42.08123" lon="9.15559">
        <ele>1600.2</ele>
        <time>2015-06-23T04:52:44Z</time>
      </trkpt>
      <trkpt lat="42.08124" lon="9.15563">
        <ele>1598.8</ele>
        <time>2015-06-23T04:52:48Z</time>
      </trkpt>
      <trkpt lat="42.08125" lon="9.15567">
        <ele>1597.2</ele>
        <time>2015-06-23T04:52:53Z</time>
      </trkpt>
      <trkpt lat="42.08125" lon="9.15573">
        <ele>1596</ele>
        <time>2015-06-23T04:52:58Z</time>
      </trkpt>
      <trkpt lat="42.08125" lon="9.15601">
        <ele>1594</ele>
        <time>2015-06-23T04:53:22Z</time>
      </trkpt>
      <trkpt lat="42.08126" lon="9.15608">
        <ele>1593.2</ele>
        <time>2015-06-23T04:53:27Z</time>
      </trkpt>
      <trkpt lat="42.08126" lon="9.15618">
        <ele>1591.8</ele>
        <time>2015-06-23T04:53:35Z</time>
      </trkpt>
      <trkpt lat="42.08132" lon="9.15628">
        <ele>1590.4</ele>
        <time>2015-06-23T04:53:47Z</time>
      </trkpt>
      <trkpt lat="42.08136" lon="9.15633">
        <ele>1589.8</ele>
        <time>2015-06-23T04:53:53Z</time>
      </trkpt>
      <trkpt lat="42.0814" lon="9.15638">
        <ele>1588.2</ele>
        <time>2015-06-23T04:54:01Z</time>
      </trkpt>
      <trkpt lat="42.08142" lon="9.15642">
        <ele>1587.4</ele>
        <time>2015-06-23T04:54:07Z</time>
      </trkpt>
      <trkpt lat="42.08148" lon="9.1564">
        <ele>1585.8</ele>
        <time>2015-06-23T04:54:17Z</time>
      </trkpt>
      <trkpt lat="42.08151" lon="9.1564">
        <ele>1585.4</ele>
        <time>2015-06-23T04:54:22Z</time>
      </trkpt>
      <trkpt lat="42.08152" lon="9.15639">
        <ele>1585</ele>
        <time>2015-06-23T04:54:25Z</time>
      </trkpt>
      <trkpt lat="42.08154" lon="9.15638">
        <ele>1584.6</ele>
        <time>2015-06-23T04:54:27Z</time>
      </trkpt>
      <trkpt lat="42.08156" lon="9.15636">
        <ele>1583.6</ele>
        <time>2015-06-23T04:54:29Z</time>
      </trkpt>
      <trkpt lat="42.08158" lon="9.15634">
        <ele>1582.4</ele>
        <time>2015-06-23T04:54:32Z</time>
      </trkpt>
      <trkpt lat="42.0816" lon="9.15631">
        <ele>1580.8</ele>
        <time>2015-06-23T04:54:35Z</time>
      </trkpt>
      <trkpt lat="42.08162" lon="9.15629">
        <ele>1579.6</ele>
        <time>2015-06-23T04:54:38Z</time>
      </trkpt>
      <trkpt lat="42.08176" lon="9.15613">
        <ele>1577.8</ele>
        <time>2015-06-23T04:55:05Z</time>
      </trkpt>
      <trkpt lat="42.08181" lon="9.15611">
        <ele>1576.6</ele>
        <time>2015-06-23T04:55:10Z</time>
      </trkpt>
      <trkpt lat="42.08195" lon="9.156">
        <ele>1576</ele>
        <time>2015-06-23T04:55:33Z</time>
      </trkpt>
      <trkpt lat="42.08198" lon="9.156">
        <ele>1576</ele>
        <time>2015-06-23T04:55:35Z</time>
      </trkpt>
      <trkpt lat="42.08199" lon="9.156">
        <ele>1575.8</ele>
        <time>2015-06-23T04:55:36Z</time>
      </trkpt>
      <trkpt lat="42.08201" lon="9.15599">
        <ele>1575</ele>
        <time>2015-06-23T04:55:39Z</time>
      </trkpt>
      <trkpt lat="42.08206" lon="9.15598">
        <ele>1573.6</ele>
        <time>2015-06-23T04:55:44Z</time>
      </trkpt>
      <trkpt lat="42.08211" lon="9.15596">
        <ele>1573</ele>
        <time>2015-06-23T04:55:50Z</time>
      </trkpt>
      <trkpt lat="42.08214" lon="9.15595">
        <ele>1572</ele>
        <time>2015-06-23T04:55:56Z</time>
      </trkpt>
      <trkpt lat="42.08215" lon="9.15594">
        <ele>1571.8</ele>
        <time>2015-06-23T04:55:58Z</time>
      </trkpt>
      <trkpt lat="42.08216" lon="9.15594">
        <ele>1571.4</ele>
        <time>2015-06-23T04:56:01Z</time>
      </trkpt>
      <trkpt lat="42.08218" lon="9.15591">
        <ele>1570</ele>
        <time>2015-06-23T04:56:04Z</time>
      </trkpt>
      <trkpt lat="42.08221" lon="9.15588">
        <ele>1567.8</ele>
        <time>2015-06-23T04:56:10Z</time>
      </trkpt>
      <trkpt lat="42.08222" lon="9.15587">
        <ele>1567.6</ele>
        <time>2015-06-23T04:56:11Z</time>
      </trkpt>
      <trkpt lat="42.08228" lon="9.15582">
        <ele>1567.2</ele>
        <time>2015-06-23T04:56:20Z</time>
      </trkpt>
      <trkpt lat="42.08231" lon="9.1558">
        <ele>1567.2</ele>
        <time>2015-06-23T04:56:30Z</time>
      </trkpt>
      <trkpt lat="42.08238" lon="9.15579">
        <ele>1566.2</ele>
        <time>2015-06-23T04:56:43Z</time>
      </trkpt>
      <trkpt lat="42.08239" lon="9.15578">
        <ele>1566.2</ele>
        <time>2015-06-23T04:56:45Z</time>
      </trkpt>
      <trkpt lat="42.08246" lon="9.15579">
        <ele>1563.8</ele>
        <time>2015-06-23T04:56:58Z</time>
      </trkpt>
      <trkpt lat="42.08247" lon="9.15578">
        <ele>1563.8</ele>
        <time>2015-06-23T04:56:59Z</time>
      </trkpt>
      <trkpt lat="42.08247" lon="9.15577">
        <ele>1563.6</ele>
        <time>2015-06-23T04:57:00Z</time>
      </trkpt>
      <trkpt lat="42.08253" lon="9.15572">
        <ele>1561.2</ele>
        <time>2015-06-23T04:57:15Z</time>
      </trkpt>
      <trkpt lat="42.08255" lon="9.15572">
        <ele>1561.2</ele>
        <time>2015-06-23T04:57:17Z</time>
      </trkpt>
      <trkpt lat="42.08256" lon="9.15572">
        <ele>1560.8</ele>
        <time>2015-06-23T04:57:20Z</time>
      </trkpt>
      <trkpt lat="42.08259" lon="9.15573">
        <ele>1558.8</ele>
        <time>2015-06-23T04:57:24Z</time>
      </trkpt>
      <trkpt lat="42.08262" lon="9.15571">
        <ele>1557.2</ele>
        <time>2015-06-23T04:57:28Z</time>
      </trkpt>
      <trkpt lat="42.08265" lon="9.1557">
        <ele>1557</ele>
        <time>2015-06-23T04:57:30Z</time>
      </trkpt>
      <trkpt lat="42.08268" lon="9.15569">
        <ele>1555.2</ele>
        <time>2015-06-23T04:57:36Z</time>
      </trkpt>
      <trkpt lat="42.08277" lon="9.15566">
        <ele>1553.8</ele>
        <time>2015-06-23T04:57:53Z</time>
      </trkpt>
      <trkpt lat="42.0828" lon="9.15564">
        <ele>1553.6</ele>
        <time>2015-06-23T04:57:56Z</time>
      </trkpt>
      <trkpt lat="42.08282" lon="9.15562">
        <ele>1553.4</ele>
        <time>2015-06-23T04:57:58Z</time>
      </trkpt>
      <trkpt lat="42.08283" lon="9.1556">
        <ele>1553.2</ele>
        <time>2015-06-23T04:58:00Z</time>
      </trkpt>
      <trkpt lat="42.08291" lon="9.15549">
        <ele>1549.2</ele>
        <time>2015-06-23T04:58:15Z</time>
      </trkpt>
      <trkpt lat="42.08293" lon="9.15547">
        <ele>1549</ele>
        <time>2015-06-23T04:58:18Z</time>
      </trkpt>
      <trkpt lat="42.08295" lon="9.15545">
        <ele>1548.8</ele>
        <time>2015-06-23T04:58:21Z</time>
      </trkpt>
      <trkpt lat="42.08298" lon="9.15541">
        <ele>1546.4</ele>
        <time>2015-06-23T04:58:27Z</time>
      </trkpt>
      <trkpt lat="42.083" lon="9.15541">
        <ele>1546.4</ele>
        <time>2015-06-23T04:58:29Z</time>
      </trkpt>
      <trkpt lat="42.08308" lon="9.15531">
        <ele>1546.4</ele>
        <time>2015-06-23T04:58:50Z</time>
      </trkpt>
      <trkpt lat="42.08309" lon="9.15526">
        <ele>1546.8</ele>
        <time>2015-06-23T04:58:55Z</time>
      </trkpt>
      <trkpt lat="42.08311" lon="9.15521">
        <ele>1545.2</ele>
        <time>2015-06-23T04:59:02Z</time>
      </trkpt>
      <trkpt lat="42.08312" lon="9.15521">
        <ele>1544.6</ele>
        <time>2015-06-23T04:59:04Z</time>
      </trkpt>
      <trkpt lat="42.08313" lon="9.15519">
        <ele>1544</ele>
        <time>2015-06-23T04:59:07Z</time>
      </trkpt>
      <trkpt lat="42.08316" lon="9.15515">
        <ele>1541.6</ele>
        <time>2015-06-23T04:59:16Z</time>
      </trkpt>
      <trkpt lat="42.08316" lon="9.15514">
        <ele>1541.6</ele>
        <time>2015-06-23T04:59:18Z</time>
      </trkpt>
      <trkpt lat="42.08317" lon="9.15513">
        <ele>1541.2</ele>
        <time>2015-06-23T04:59:20Z</time>
      </trkpt>
      <trkpt lat="42.0832" lon="9.15497">
        <ele>1537.8</ele>
        <time>2015-06-23T04:59:33Z</time>
      </trkpt>
      <trkpt lat="42.08321" lon="9.15496">
        <ele>1537.6</ele>
        <time>2015-06-23T04:59:35Z</time>
      </trkpt>
      <trkpt lat="42.08322" lon="9.15494">
        <ele>1538.8</ele>
        <time>2015-06-23T04:59:38Z</time>
      </trkpt>
      <trkpt lat="42.08326" lon="9.15492">
        <ele>1539.6</ele>
        <time>2015-06-23T04:59:48Z</time>
      </trkpt>
      <trkpt lat="42.08328" lon="9.15491">
        <ele>1539.4</ele>
        <time>2015-06-23T04:59:52Z</time>
      </trkpt>
      <trkpt lat="42.08331" lon="9.1549">
        <ele>1538.4</ele>
        <time>2015-06-23T04:59:55Z</time>
      </trkpt>
      <trkpt lat="42.08333" lon="9.15489">
        <ele>1537.4</ele>
        <time>2015-06-23T04:59:58Z</time>
      </trkpt>
      <trkpt lat="42.08335" lon="9.15485">
        <ele>1536</ele>
        <time>2015-06-23T05:00:01Z</time>
      </trkpt>
      <trkpt lat="42.0834" lon="9.15472">
        <ele>1533</ele>
        <time>2015-06-23T05:00:19Z</time>
      </trkpt>
      <trkpt lat="42.08342" lon="9.15471">
        <ele>1532.6</ele>
        <time>2015-06-23T05:00:23Z</time>
      </trkpt>
      <trkpt lat="42.08353" lon="9.15458">
        <ele>1530.8</ele>
        <time>2015-06-23T05:00:44Z</time>
      </trkpt>
      <trkpt lat="42.08354" lon="9.15458">
        <ele>1530.6</ele>
        <time>2015-06-23T05:00:45Z</time>
      </trkpt>
      <trkpt lat="42.08358" lon="9.15456">
        <ele>1530</ele>
        <time>2015-06-23T05:00:49Z</time>
      </trkpt>
      <trkpt lat="42.0836" lon="9.15455">
        <ele>1529.6</ele>
        <time>2015-06-23T05:00:51Z</time>
      </trkpt>
      <trkpt lat="42.08361" lon="9.15454">
        <ele>1529.2</ele>
        <time>2015-06-23T05:00:53Z</time>
      </trkpt>
      <trkpt lat="42.08363" lon="9.15449">
        <ele>1527.8</ele>
        <time>2015-06-23T05:00:58Z</time>
      </trkpt>
      <trkpt lat="42.08367" lon="9.15446">
        <ele>1527</ele>
        <time>2015-06-23T05:01:04Z</time>
      </trkpt>
      <trkpt lat="42.0837" lon="9.15444">
        <ele>1526.6</ele>
        <time>2015-06-23T05:01:08Z</time>
      </trkpt>
      <trkpt lat="42.08375" lon="9.15439">
        <ele>1525.6</ele>
        <time>2015-06-23T05:01:16Z</time>
      </trkpt>
      <trkpt lat="42.08377" lon="9.15436">
        <ele>1524.8</ele>
        <time>2015-06-23T05:01:22Z</time>
      </trkpt>
      <trkpt lat="42.08378" lon="9.15433">
        <ele>1524.4</ele>
        <time>2015-06-23T05:01:26Z</time>
      </trkpt>
      <trkpt lat="42.08394" lon="9.15424">
        <ele>1522.2</ele>
        <time>2015-06-23T05:01:49Z</time>
      </trkpt>
      <trkpt lat="42.08396" lon="9.15425">
        <ele>1521.6</ele>
        <time>2015-06-23T05:01:52Z</time>
      </trkpt>
      <trkpt lat="42.08399" lon="9.15424">
        <ele>1520</ele>
        <time>2015-06-23T05:01:57Z</time>
      </trkpt>
      <trkpt lat="42.08402" lon="9.15423">
        <ele>1518.6</ele>
        <time>2015-06-23T05:02:03Z</time>
      </trkpt>
      <trkpt lat="42.08404" lon="9.15422">
        <ele>1518.2</ele>
        <time>2015-06-23T05:02:06Z</time>
      </trkpt>
      <trkpt lat="42.08407" lon="9.15419">
        <ele>1517</ele>
        <time>2015-06-23T05:02:10Z</time>
      </trkpt>
      <trkpt lat="42.08408" lon="9.15418">
        <ele>1516.8</ele>
        <time>2015-06-23T05:02:11Z</time>
      </trkpt>
      <trkpt lat="42.08411" lon="9.15415">
        <ele>1515.4</ele>
        <time>2015-06-23T05:02:16Z</time>
      </trkpt>
      <trkpt lat="42.08413" lon="9.15413">
        <ele>1515</ele>
        <time>2015-06-23T05:02:21Z</time>
      </trkpt>
      <trkpt lat="42.08417" lon="9.15412">
        <ele>1514.2</ele>
        <time>2015-06-23T05:02:26Z</time>
      </trkpt>
      <trkpt lat="42.08419" lon="9.15411">
        <ele>1514</ele>
        <time>2015-06-23T05:02:28Z</time>
      </trkpt>
      <trkpt lat="42.08423" lon="9.1541">
        <ele>1513.6</ele>
        <time>2015-06-23T05:02:31Z</time>
      </trkpt>
      <trkpt lat="42.08424" lon="9.1541">
        <ele>1513.2</ele>
        <time>2015-06-23T05:02:32Z</time>
      </trkpt>
      <trkpt lat="42.08428" lon="9.1541">
        <ele>1512.6</ele>
        <time>2015-06-23T05:02:36Z</time>
      </trkpt>
      <trkpt lat="42.08428" lon="9.1541">
        <ele>1512.2</ele>
        <time>2015-06-23T05:02:37Z</time>
      </trkpt>
      <trkpt lat="42.0843" lon="9.15408">
        <ele>1510.4</ele>
        <time>2015-06-23T05:02:45Z</time>
      </trkpt>
      <trkpt lat="42.08432" lon="9.15405">
        <ele>1509.6</ele>
        <time>2015-06-23T05:02:50Z</time>
      </trkpt>
      <trkpt lat="42.08434" lon="9.15403">
        <ele>1509.2</ele>
        <time>2015-06-23T05:02:53Z</time>
      </trkpt>
      <trkpt lat="42.08433" lon="9.15399">
        <ele>1507.2</ele>
        <time>2015-06-23T05:02:58Z</time>
      </trkpt>
      <trkpt lat="42.08439" lon="9.15396">
        <ele>1505.2</ele>
        <time>2015-06-23T05:03:07Z</time>
      </trkpt>
      <trkpt lat="42.08442" lon="9.15395">
        <ele>1504.8</ele>
        <time>2015-06-23T05:03:11Z</time>
      </trkpt>
      <trkpt lat="42.08446" lon="9.15394">
        <ele>1503.8</ele>
        <time>2015-06-23T05:03:16Z</time>
      </trkpt>
      <trkpt lat="42.08448" lon="9.15389">
        <ele>1502</ele>
        <time>2015-06-23T05:03:26Z</time>
      </trkpt>
      <trkpt lat="42.08452" lon="9.15385">
        <ele>1500.6</ele>
        <time>2015-06-23T05:03:36Z</time>
      </trkpt>
      <trkpt lat="42.08454" lon="9.15382">
        <ele>1500</ele>
        <time>2015-06-23T05:03:41Z</time>
      </trkpt>
      <trkpt lat="42.08462" lon="9.15377">
        <ele>1498.6</ele>
        <time>2015-06-23T05:03:50Z</time>
      </trkpt>
      <trkpt lat="42.08465" lon="9.15374">
        <ele>1497.6</ele>
        <time>2015-06-23T05:03:56Z</time>
      </trkpt>
      <trkpt lat="42.08468" lon="9.15374">
        <ele>1496.2</ele>
        <time>2015-06-23T05:04:03Z</time>
      </trkpt>
      <trkpt lat="42.08471" lon="9.15378">
        <ele>1495.4</ele>
        <time>2015-06-23T05:04:09Z</time>
      </trkpt>
      <trkpt lat="42.08471" lon="9.15379">
        <ele>1495</ele>
        <time>2015-06-23T05:04:12Z</time>
      </trkpt>
      <trkpt lat="42.08473" lon="9.1538">
        <ele>1493.2</ele>
        <time>2015-06-23T05:04:17Z</time>
      </trkpt>
      <trkpt lat="42.08476" lon="9.1538">
        <ele>1492.2</ele>
        <time>2015-06-23T05:04:21Z</time>
      </trkpt>
      <trkpt lat="42.0848" lon="9.15389">
        <ele>1489.6</ele>
        <time>2015-06-23T05:04:39Z</time>
      </trkpt>
      <trkpt lat="42.08481" lon="9.15391">
        <ele>1489.4</ele>
        <time>2015-06-23T05:04:43Z</time>
      </trkpt>
      <trkpt lat="42.08483" lon="9.15391">
        <ele>1489</ele>
        <time>2015-06-23T05:04:46Z</time>
      </trkpt>
      <trkpt lat="42.08485" lon="9.15393">
        <ele>1487.4</ele>
        <time>2015-06-23T05:04:51Z</time>
      </trkpt>
      <trkpt lat="42.08486" lon="9.15395">
        <ele>1485.8</ele>
        <time>2015-06-23T05:04:58Z</time>
      </trkpt>
      <trkpt lat="42.08486" lon="9.15395">
        <ele>1484.8</ele>
        <time>2015-06-23T05:05:04Z</time>
      </trkpt>
      <trkpt lat="42.08488" lon="9.15395">
        <ele>1484.4</ele>
        <time>2015-06-23T05:05:07Z</time>
      </trkpt>
      <trkpt lat="42.08489" lon="9.15397">
        <ele>1483.4</ele>
        <time>2015-06-23T05:05:10Z</time>
      </trkpt>
      <trkpt lat="42.08489" lon="9.154">
        <ele>1481.6</ele>
        <time>2015-06-23T05:05:14Z</time>
      </trkpt>
      <trkpt lat="42.08489" lon="9.15402">
        <ele>1480.4</ele>
        <time>2015-06-23T05:05:19Z</time>
      </trkpt>
      <trkpt lat="42.08489" lon="9.15401">
        <ele>1479</ele>
        <time>2015-06-23T05:05:23Z</time>
      </trkpt>
      <trkpt lat="42.0849" lon="9.15403">
        <ele>1477.6</ele>
        <time>2015-06-23T05:05:28Z</time>
      </trkpt>
      <trkpt lat="42.08491" lon="9.15406">
        <ele>1476.6</ele>
        <time>2015-06-23T05:05:33Z</time>
      </trkpt>
      <trkpt lat="42.08493" lon="9.15408">
        <ele>1475.6</ele>
        <time>2015-06-23T05:05:37Z</time>
      </trkpt>
      <trkpt lat="42.08493" lon="9.1541">
        <ele>1475.2</ele>
        <time>2015-06-23T05:05:40Z</time>
      </trkpt>
      <trkpt lat="42.08495" lon="9.15411">
        <ele>1472.2</ele>
        <time>2015-06-23T05:05:50Z</time>
      </trkpt>
      <trkpt lat="42.08497" lon="9.15411">
        <ele>1471.4</ele>
        <time>2015-06-23T05:05:57Z</time>
      </trkpt>
      <trkpt lat="42.08499" lon="9.15415">
        <ele>1470.8</ele>
        <time>2015-06-23T05:06:02Z</time>
      </trkpt>
      <trkpt lat="42.08504" lon="9.15415">
        <ele>1469.4</ele>
        <time>2015-06-23T05:06:08Z</time>
      </trkpt>
      <trkpt lat="42.08505" lon="9.15416">
        <ele>1469.2</ele>
        <time>2015-06-23T05:06:09Z</time>
      </trkpt>
      <trkpt lat="42.08507" lon="9.15416">
        <ele>1468.8</ele>
        <time>2015-06-23T05:06:11Z</time>
      </trkpt>
      <trkpt lat="42.08508" lon="9.15416">
        <ele>1468.6</ele>
        <time>2015-06-23T05:06:13Z</time>
      </trkpt>
      <trkpt lat="42.08511" lon="9.15413">
        <ele>1467</ele>
        <time>2015-06-23T05:06:19Z</time>
      </trkpt>
      <trkpt lat="42.08513" lon="9.15414">
        <ele>1466.2</ele>
        <time>2015-06-23T05:06:23Z</time>
      </trkpt>
      <trkpt lat="42.08517" lon="9.15413">
        <ele>1464.6</ele>
        <time>2015-06-23T05:06:30Z</time>
      </trkpt>
      <trkpt lat="42.08522" lon="9.15406">
        <ele>1462.8</ele>
        <time>2015-06-23T05:06:46Z</time>
      </trkpt>
      <trkpt lat="42.08528" lon="9.15404">
        <ele>1462</ele>
        <time>2015-06-23T05:06:56Z</time>
      </trkpt>
      <trkpt lat="42.08532" lon="9.15403">
        <ele>1461.4</ele>
        <time>2015-06-23T05:07:01Z</time>
      </trkpt>
      <trkpt lat="42.08536" lon="9.15405">
        <ele>1460.8</ele>
        <time>2015-06-23T05:07:05Z</time>
      </trkpt>
      <trkpt lat="42.08536" lon="9.15409">
        <ele>1460</ele>
        <time>2015-06-23T05:07:08Z</time>
      </trkpt>
      <trkpt lat="42.08537" lon="9.1541">
        <ele>1459.6</ele>
        <time>2015-06-23T05:07:09Z</time>
      </trkpt>
      <trkpt lat="42.08538" lon="9.15419">
        <ele>1457.4</ele>
        <time>2015-06-23T05:07:16Z</time>
      </trkpt>
      <trkpt lat="42.08536" lon="9.15427">
        <ele>1456.6</ele>
        <time>2015-06-23T05:07:24Z</time>
      </trkpt>
      <trkpt lat="42.08536" lon="9.15427">
        <ele>1456</ele>
        <time>2015-06-23T05:07:28Z</time>
      </trkpt>
      <trkpt lat="42.08539" lon="9.15425">
        <ele>1454.6</ele>
        <time>2015-06-23T05:07:33Z</time>
      </trkpt>
      <trkpt lat="42.08541" lon="9.15424">
        <ele>1454</ele>
        <time>2015-06-23T05:07:36Z</time>
      </trkpt>
      <trkpt lat="42.08543" lon="9.15424">
        <ele>1453.6</ele>
        <time>2015-06-23T05:07:38Z</time>
      </trkpt>
      <trkpt lat="42.08545" lon="9.15424">
        <ele>1453</ele>
        <time>2015-06-23T05:07:40Z</time>
      </trkpt>
      <trkpt lat="42.08547" lon="9.15426">
        <ele>1451.2</ele>
        <time>2015-06-23T05:07:43Z</time>
      </trkpt>
      <trkpt lat="42.08552" lon="9.15427">
        <ele>1449.4</ele>
        <time>2015-06-23T05:07:47Z</time>
      </trkpt>
      <trkpt lat="42.08557" lon="9.15428">
        <ele>1447.8</ele>
        <time>2015-06-23T05:07:57Z</time>
      </trkpt>
      <trkpt lat="42.08562" lon="9.15428">
        <ele>1447.4</ele>
        <time>2015-06-23T05:08:02Z</time>
      </trkpt>
      <trkpt lat="42.08562" lon="9.15428">
        <ele>1447.2</ele>
        <time>2015-06-23T05:08:03Z</time>
      </trkpt>
      <trkpt lat="42.0856" lon="9.15438">
        <ele>1445.4</ele>
        <time>2015-06-23T05:08:50Z</time>
      </trkpt>
      <trkpt lat="42.0856" lon="9.15441">
        <ele>1445</ele>
        <time>2015-06-23T05:08:54Z</time>
      </trkpt>
      <trkpt lat="42.08561" lon="9.15441">
        <ele>1444.2</ele>
        <time>2015-06-23T05:08:57Z</time>
      </trkpt>
      <trkpt lat="42.08563" lon="9.15443">
        <ele>1442.4</ele>
        <time>2015-06-23T05:09:03Z</time>
      </trkpt>
      <trkpt lat="42.08565" lon="9.15448">
        <ele>1440.8</ele>
        <time>2015-06-23T05:09:11Z</time>
      </trkpt>
      <trkpt lat="42.08568" lon="9.15449">
        <ele>1439.6</ele>
        <time>2015-06-23T05:09:19Z</time>
      </trkpt>
      <trkpt lat="42.08575" lon="9.15447">
        <ele>1438.8</ele>
        <time>2015-06-23T05:09:26Z</time>
      </trkpt>
      <trkpt lat="42.08578" lon="9.15445">
        <ele>1437.8</ele>
        <time>2015-06-23T05:09:32Z</time>
      </trkpt>
      <trkpt lat="42.08578" lon="9.15442">
        <ele>1436.4</ele>
        <time>2015-06-23T05:09:40Z</time>
      </trkpt>
      <trkpt lat="42.08577" lon="9.15432">
        <ele>1435.4</ele>
        <time>2015-06-23T05:09:48Z</time>
      </trkpt>
      <trkpt lat="42.08584" lon="9.15431">
        <ele>1434.6</ele>
        <time>2015-06-23T05:10:03Z</time>
      </trkpt>
      <trkpt lat="42.08598" lon="9.15435">
        <ele>1435</ele>
        <time>2015-06-23T05:10:13Z</time>
      </trkpt>
      <trkpt lat="42.08601" lon="9.15439">
        <ele>1434.6</ele>
        <time>2015-06-23T05:10:17Z</time>
      </trkpt>
      <trkpt lat="42.08603" lon="9.15442">
        <ele>1433.6</ele>
        <time>2015-06-23T05:10:21Z</time>
      </trkpt>
      <trkpt lat="42.08606" lon="9.15446">
        <ele>1432.6</ele>
        <time>2015-06-23T05:10:26Z</time>
      </trkpt>
      <trkpt lat="42.08614" lon="9.15454">
        <ele>1432.8</ele>
        <time>2015-06-23T05:10:34Z</time>
      </trkpt>
      <trkpt lat="42.08623" lon="9.15467">
        <ele>1434.2</ele>
        <time>2015-06-23T05:10:45Z</time>
      </trkpt>
      <trkpt lat="42.0863" lon="9.15477">
        <ele>1434.8</ele>
        <time>2015-06-23T05:10:55Z</time>
      </trkpt>
      <trkpt lat="42.08646" lon="9.15504">
        <ele>1435.8</ele>
        <time>2015-06-23T05:11:17Z</time>
      </trkpt>
      <trkpt lat="42.0865" lon="9.15508">
        <ele>1434.4</ele>
        <time>2015-06-23T05:11:23Z</time>
      </trkpt>
      <trkpt lat="42.08653" lon="9.15511">
        <ele>1433.4</ele>
        <time>2015-06-23T05:11:28Z</time>
      </trkpt>
      <trkpt lat="42.08657" lon="9.15516">
        <ele>1432.8</ele>
        <time>2015-06-23T05:11:32Z</time>
      </trkpt>
      <trkpt lat="42.08659" lon="9.15522">
        <ele>1432</ele>
        <time>2015-06-23T05:11:37Z</time>
      </trkpt>
      <trkpt lat="42.08667" lon="9.15537">
        <ele>1431.8</ele>
        <time>2015-06-23T05:11:49Z</time>
      </trkpt>
      <trkpt lat="42.08669" lon="9.15544">
        <ele>1432.6</ele>
        <time>2015-06-23T05:11:54Z</time>
      </trkpt>
      <trkpt lat="42.08688" lon="9.15578">
        <ele>1434.6</ele>
        <time>2015-06-23T05:12:21Z</time>
      </trkpt>
      <trkpt lat="42.08691" lon="9.1558">
        <ele>1434.6</ele>
        <time>2015-06-23T05:12:25Z</time>
      </trkpt>
      <trkpt lat="42.08692" lon="9.1558">
        <ele>1434.8</ele>
        <time>2015-06-23T05:12:27Z</time>
      </trkpt>
      <trkpt lat="42.08693" lon="9.1558">
        <ele>1435</ele>
        <time>2015-06-23T05:12:28Z</time>
      </trkpt>
      <trkpt lat="42.08707" lon="9.15566">
        <ele>1435.8</ele>
        <time>2015-06-23T05:12:46Z</time>
      </trkpt>
      <trkpt lat="42.0871" lon="9.1556">
        <ele>1434.6</ele>
        <time>2015-06-23T05:12:51Z</time>
      </trkpt>
      <trkpt lat="42.08712" lon="9.15553">
        <ele>1433.2</ele>
        <time>2015-06-23T05:12:57Z</time>
      </trkpt>
      <trkpt lat="42.0874" lon="9.1552">
        <ele>1432.2</ele>
        <time>2015-06-23T05:13:35Z</time>
      </trkpt>
      <trkpt lat="42.08748" lon="9.15512">
        <ele>1433.6</ele>
        <time>2015-06-23T05:13:44Z</time>
      </trkpt>
      <trkpt lat="42.08759" lon="9.155">
        <ele>1435.2</ele>
        <time>2015-06-23T05:14:01Z</time>
      </trkpt>
      <trkpt lat="42.08775" lon="9.15496">
        <ele>1435.8</ele>
        <time>2015-06-23T05:14:16Z</time>
      </trkpt>
      <trkpt lat="42.08798" lon="9.15483">
        <ele>1435</ele>
        <time>2015-06-23T05:14:41Z</time>
      </trkpt>
      <trkpt lat="42.08818" lon="9.15468">
        <ele>1434.8</ele>
        <time>2015-06-23T05:15:02Z</time>
      </trkpt>
      <trkpt lat="42.08833" lon="9.15445">
        <ele>1435.2</ele>
        <time>2015-06-23T05:15:27Z</time>
      </trkpt>
      <trkpt lat="42.08833" lon="9.15443">
        <ele>1435.4</ele>
        <time>2015-06-23T05:15:29Z</time>
      </trkpt>
      <trkpt lat="42.08861" lon="9.15416">
        <ele>1435.4</ele>
        <time>2015-06-23T05:16:04Z</time>
      </trkpt>
      <trkpt lat="42.08877" lon="9.15406">
        <ele>1434.6</ele>
        <time>2015-06-23T05:16:23Z</time>
      </trkpt>
      <trkpt lat="42.08892" lon="9.15398">
        <ele>1434</ele>
        <time>2015-06-23T05:16:38Z</time>
      </trkpt>
      <trkpt lat="42.08902" lon="9.15392">
        <ele>1433.2</ele>
        <time>2015-06-23T05:16:49Z</time>
      </trkpt>
      <trkpt lat="42.08921" lon="9.15384">
        <ele>1432</ele>
        <time>2015-06-23T05:17:12Z</time>
      </trkpt>
      <trkpt lat="42.08933" lon="9.1538">
        <ele>1431.6</ele>
        <time>2015-06-23T05:17:24Z</time>
      </trkpt>
      <trkpt lat="42.08938" lon="9.15379">
        <ele>1431.2</ele>
        <time>2015-06-23T05:17:30Z</time>
      </trkpt>
      <trkpt lat="42.08956" lon="9.15372">
        <ele>1430.2</ele>
        <time>2015-06-23T05:17:45Z</time>
      </trkpt>
      <trkpt lat="42.08995" lon="9.15352">
        <ele>1430</ele>
        <time>2015-06-23T05:18:48Z</time>
      </trkpt>
      <trkpt lat="42.09002" lon="9.15344">
        <ele>1428.6</ele>
        <time>2015-06-23T05:18:57Z</time>
      </trkpt>
      <trkpt lat="42.09008" lon="9.1534">
        <ele>1427.8</ele>
        <time>2015-06-23T05:19:08Z</time>
      </trkpt>
      <trkpt lat="42.09011" lon="9.15338">
        <ele>1427.2</ele>
        <time>2015-06-23T05:19:18Z</time>
      </trkpt>
      <trkpt lat="42.09016" lon="9.15332">
        <ele>1426.8</ele>
        <time>2015-06-23T05:19:27Z</time>
      </trkpt>
      <trkpt lat="42.0902" lon="9.15327">
        <ele>1426</ele>
        <time>2015-06-23T05:19:34Z</time>
      </trkpt>
      <trkpt lat="42.09024" lon="9.15327">
        <ele>1425.6</ele>
        <time>2015-06-23T05:19:50Z</time>
      </trkpt>
      <trkpt lat="42.09025" lon="9.15327">
        <ele>1426</ele>
        <time>2015-06-23T05:19:54Z</time>
      </trkpt>
      <trkpt lat="42.09026" lon="9.15329">
        <ele>1427.8</ele>
        <time>2015-06-23T05:20:14Z</time>
      </trkpt>
      <trkpt lat="42.09024" lon="9.15331">
        <ele>1428.4</ele>
        <time>2015-06-23T05:20:29Z</time>
      </trkpt>
      <trkpt lat="42.09024" lon="9.15331">
        <ele>1427.8</ele>
        <time>2015-06-23T05:20:34Z</time>
      </trkpt>
      <trkpt lat="42.09024" lon="9.15332">
        <ele>1426</ele>
        <time>2015-06-23T05:21:02Z</time>
      </trkpt>
      <trkpt lat="42.09025" lon="9.15323">
        <ele>1425</ele>
        <time>2015-06-23T05:22:18Z</time>
      </trkpt>
      <trkpt lat="42.09039" lon="9.15359">
        <ele>1424.6</ele>
        <time>2015-06-23T05:22:58Z</time>
      </trkpt>
      <trkpt lat="42.09041" lon="9.15361">
        <ele>1425</ele>
        <time>2015-06-23T05:23:01Z</time>
      </trkpt>
      <trkpt lat="42.09042" lon="9.15362">
        <ele>1426.8</ele>
        <time>2015-06-23T05:23:05Z</time>
      </trkpt>
      <trkpt lat="42.09045" lon="9.15361">
        <ele>1428.8</ele>
        <time>2015-06-23T05:23:10Z</time>
      </trkpt>
      <trkpt lat="42.09046" lon="9.15356">
        <ele>1430</ele>
        <time>2015-06-23T05:23:16Z</time>
      </trkpt>
      <trkpt lat="42.09048" lon="9.15352">
        <ele>1431.2</ele>
        <time>2015-06-23T05:23:21Z</time>
      </trkpt>
      <trkpt lat="42.09051" lon="9.15343">
        <ele>1433</ele>
        <time>2015-06-23T05:23:32Z</time>
      </trkpt>
      <trkpt lat="42.0905" lon="9.15333">
        <ele>1434</ele>
        <time>2015-06-23T05:23:41Z</time>
      </trkpt>
      <trkpt lat="42.0905" lon="9.1533">
        <ele>1434.4</ele>
        <time>2015-06-23T05:23:45Z</time>
      </trkpt>
      <trkpt lat="42.0905" lon="9.15329">
        <ele>1434.6</ele>
        <time>2015-06-23T05:23:46Z</time>
      </trkpt>
      <trkpt lat="42.09054" lon="9.15321">
        <ele>1436.2</ele>
        <time>2015-06-23T05:23:56Z</time>
      </trkpt>
      <trkpt lat="42.09058" lon="9.15312">
        <ele>1437.6</ele>
        <time>2015-06-23T05:24:05Z</time>
      </trkpt>
      <trkpt lat="42.09062" lon="9.15295">
        <ele>1439</ele>
        <time>2015-06-23T05:24:30Z</time>
      </trkpt>
      <trkpt lat="42.09065" lon="9.15295">
        <ele>1439.4</ele>
        <time>2015-06-23T05:24:37Z</time>
      </trkpt>
      <trkpt lat="42.09067" lon="9.15297">
        <ele>1440.6</ele>
        <time>2015-06-23T05:24:45Z</time>
      </trkpt>
      <trkpt lat="42.09071" lon="9.15302">
        <ele>1442</ele>
        <time>2015-06-23T05:24:56Z</time>
      </trkpt>
      <trkpt lat="42.09072" lon="9.15309">
        <ele>1442.6</ele>
        <time>2015-06-23T05:25:02Z</time>
      </trkpt>
      <trkpt lat="42.09076" lon="9.15321">
        <ele>1444</ele>
        <time>2015-06-23T05:25:12Z</time>
      </trkpt>
      <trkpt lat="42.09082" lon="9.15337">
        <ele>1445.6</ele>
        <time>2015-06-23T05:25:23Z</time>
      </trkpt>
      <trkpt lat="42.09086" lon="9.15352">
        <ele>1446.6</ele>
        <time>2015-06-23T05:25:37Z</time>
      </trkpt>
      <trkpt lat="42.09085" lon="9.15366">
        <ele>1447.8</ele>
        <time>2015-06-23T05:25:52Z</time>
      </trkpt>
      <trkpt lat="42.09089" lon="9.15375">
        <ele>1448.8</ele>
        <time>2015-06-23T05:26:04Z</time>
      </trkpt>
      <trkpt lat="42.09091" lon="9.1538">
        <ele>1449</ele>
        <time>2015-06-23T05:26:08Z</time>
      </trkpt>
      <trkpt lat="42.09093" lon="9.15389">
        <ele>1450</ele>
        <time>2015-06-23T05:26:16Z</time>
      </trkpt>
      <trkpt lat="42.09096" lon="9.15431">
        <ele>1451</ele>
        <time>2015-06-23T05:26:59Z</time>
      </trkpt>
      <trkpt lat="42.09097" lon="9.15451">
        <ele>1452.2</ele>
        <time>2015-06-23T05:27:12Z</time>
      </trkpt>
      <trkpt lat="42.09099" lon="9.15466">
        <ele>1453.4</ele>
        <time>2015-06-23T05:27:26Z</time>
      </trkpt>
      <trkpt lat="42.091" lon="9.15475">
        <ele>1454.4</ele>
        <time>2015-06-23T05:27:37Z</time>
      </trkpt>
      <trkpt lat="42.09103" lon="9.15483">
        <ele>1455.2</ele>
        <time>2015-06-23T05:27:47Z</time>
      </trkpt>
      <trkpt lat="42.09103" lon="9.15493">
        <ele>1456.4</ele>
        <time>2015-06-23T05:27:57Z</time>
      </trkpt>
      <trkpt lat="42.09102" lon="9.15499">
        <ele>1456.8</ele>
        <time>2015-06-23T05:28:03Z</time>
      </trkpt>
      <trkpt lat="42.09101" lon="9.15512">
        <ele>1458.6</ele>
        <time>2015-06-23T05:28:16Z</time>
      </trkpt>
      <trkpt lat="42.09102" lon="9.15536">
        <ele>1459.6</ele>
        <time>2015-06-23T05:28:44Z</time>
      </trkpt>
      <trkpt lat="42.091" lon="9.15544">
        <ele>1460.8</ele>
        <time>2015-06-23T05:28:55Z</time>
      </trkpt>
      <trkpt lat="42.0909" lon="9.15563">
        <ele>1461.4</ele>
        <time>2015-06-23T05:29:15Z</time>
      </trkpt>
      <trkpt lat="42.09082" lon="9.15595">
        <ele>1462.8</ele>
        <time>2015-06-23T05:29:40Z</time>
      </trkpt>
      <trkpt lat="42.09083" lon="9.15603">
        <ele>1462.8</ele>
        <time>2015-06-23T05:29:51Z</time>
      </trkpt>
      <trkpt lat="42.09076" lon="9.1564">
        <ele>1462.6</ele>
        <time>2015-06-23T05:30:22Z</time>
      </trkpt>
      <trkpt lat="42.0907" lon="9.15673">
        <ele>1462</ele>
        <time>2015-06-23T05:30:51Z</time>
      </trkpt>
      <trkpt lat="42.09071" lon="9.15683">
        <ele>1462.8</ele>
        <time>2015-06-23T05:30:59Z</time>
      </trkpt>
      <trkpt lat="42.09076" lon="9.1571">
        <ele>1464.2</ele>
        <time>2015-06-23T05:31:22Z</time>
      </trkpt>
      <trkpt lat="42.0908" lon="9.15724">
        <ele>1465</ele>
        <time>2015-06-23T05:31:37Z</time>
      </trkpt>
      <trkpt lat="42.09086" lon="9.1574">
        <ele>1466</ele>
        <time>2015-06-23T05:31:52Z</time>
      </trkpt>
      <trkpt lat="42.09094" lon="9.15762">
        <ele>1466.8</ele>
        <time>2015-06-23T05:32:14Z</time>
      </trkpt>
      <trkpt lat="42.09098" lon="9.15772">
        <ele>1467.6</ele>
        <time>2015-06-23T05:32:26Z</time>
      </trkpt>
      <trkpt lat="42.09099" lon="9.15777">
        <ele>1468</ele>
        <time>2015-06-23T05:32:30Z</time>
      </trkpt>
      <trkpt lat="42.09101" lon="9.1578">
        <ele>1469</ele>
        <time>2015-06-23T05:32:34Z</time>
      </trkpt>
      <trkpt lat="42.09101" lon="9.15781">
        <ele>1469</ele>
        <time>2015-06-23T05:32:35Z</time>
      </trkpt>
      <trkpt lat="42.09108" lon="9.1579">
        <ele>1471.2</ele>
        <time>2015-06-23T05:32:50Z</time>
      </trkpt>
      <trkpt lat="42.09112" lon="9.15794">
        <ele>1471.8</ele>
        <time>2015-06-23T05:32:58Z</time>
      </trkpt>
      <trkpt lat="42.09148" lon="9.15814">
        <ele>1472.4</ele>
        <time>2015-06-23T05:33:53Z</time>
      </trkpt>
      <trkpt lat="42.0918" lon="9.15808">
        <ele>1474</ele>
        <time>2015-06-23T05:34:23Z</time>
      </trkpt>
      <trkpt lat="42.0919" lon="9.15809">
        <ele>1474.4</ele>
        <time>2015-06-23T05:34:35Z</time>
      </trkpt>
      <trkpt lat="42.09194" lon="9.15808">
        <ele>1474.6</ele>
        <time>2015-06-23T05:34:39Z</time>
      </trkpt>
      <trkpt lat="42.09196" lon="9.15808">
        <ele>1474.8</ele>
        <time>2015-06-23T05:34:41Z</time>
      </trkpt>
      <trkpt lat="42.09198" lon="9.15807">
        <ele>1475</ele>
        <time>2015-06-23T05:34:44Z</time>
      </trkpt>
      <trkpt lat="42.09201" lon="9.15804">
        <ele>1477</ele>
        <time>2015-06-23T05:34:48Z</time>
      </trkpt>
      <trkpt lat="42.09204" lon="9.15804">
        <ele>1478.4</ele>
        <time>2015-06-23T05:34:53Z</time>
      </trkpt>
      <trkpt lat="42.09216" lon="9.15803">
        <ele>1480.2</ele>
        <time>2015-06-23T05:35:10Z</time>
      </trkpt>
      <trkpt lat="42.09235" lon="9.1579">
        <ele>1480</ele>
        <time>2015-06-23T05:35:39Z</time>
      </trkpt>
      <trkpt lat="42.09237" lon="9.15788">
        <ele>1480.4</ele>
        <time>2015-06-23T05:35:41Z</time>
      </trkpt>
      <trkpt lat="42.09238" lon="9.15786">
        <ele>1480.6</ele>
        <time>2015-06-23T05:35:43Z</time>
      </trkpt>
      <trkpt lat="42.09245" lon="9.15777">
        <ele>1481.2</ele>
        <time>2015-06-23T05:36:00Z</time>
      </trkpt>
      <trkpt lat="42.09249" lon="9.1577">
        <ele>1482.2</ele>
        <time>2015-06-23T05:36:08Z</time>
      </trkpt>
      <trkpt lat="42.09255" lon="9.15764">
        <ele>1483.2</ele>
        <time>2015-06-23T05:36:17Z</time>
      </trkpt>
      <trkpt lat="42.09257" lon="9.1576">
        <ele>1483.8</ele>
        <time>2015-06-23T05:36:21Z</time>
      </trkpt>
      <trkpt lat="42.09258" lon="9.15759">
        <ele>1483.8</ele>
        <time>2015-06-23T05:36:22Z</time>
      </trkpt>
      <trkpt lat="42.09259" lon="9.15757">
        <ele>1484.4</ele>
        <time>2015-06-23T05:36:24Z</time>
      </trkpt>
      <trkpt lat="42.0927" lon="9.15747">
        <ele>1487</ele>
        <time>2015-06-23T05:36:38Z</time>
      </trkpt>
      <trkpt lat="42.09275" lon="9.15742">
        <ele>1488</ele>
        <time>2015-06-23T05:36:45Z</time>
      </trkpt>
      <trkpt lat="42.09279" lon="9.15736">
        <ele>1489</ele>
        <time>2015-06-23T05:36:53Z</time>
      </trkpt>
      <trkpt lat="42.0928" lon="9.15733">
        <ele>1489.4</ele>
        <time>2015-06-23T05:36:57Z</time>
      </trkpt>
      <trkpt lat="42.09285" lon="9.15726">
        <ele>1491.6</ele>
        <time>2015-06-23T05:37:07Z</time>
      </trkpt>
      <trkpt lat="42.09286" lon="9.15726">
        <ele>1491.6</ele>
        <time>2015-06-23T05:37:08Z</time>
      </trkpt>
      <trkpt lat="42.09294" lon="9.15717">
        <ele>1492.8</ele>
        <time>2015-06-23T05:37:25Z</time>
      </trkpt>
      <trkpt lat="42.09307" lon="9.15708">
        <ele>1493.4</ele>
        <time>2015-06-23T05:37:43Z</time>
      </trkpt>
      <trkpt lat="42.09331" lon="9.15687">
        <ele>1494.4</ele>
        <time>2015-06-23T05:38:33Z</time>
      </trkpt>
      <trkpt lat="42.09335" lon="9.15685">
        <ele>1494.6</ele>
        <time>2015-06-23T05:38:36Z</time>
      </trkpt>
      <trkpt lat="42.09336" lon="9.15684">
        <ele>1494.6</ele>
        <time>2015-06-23T05:38:38Z</time>
      </trkpt>
      <trkpt lat="42.09345" lon="9.1568">
        <ele>1496.2</ele>
        <time>2015-06-23T05:38:51Z</time>
      </trkpt>
      <trkpt lat="42.09349" lon="9.15675">
        <ele>1496.8</ele>
        <time>2015-06-23T05:38:58Z</time>
      </trkpt>
      <trkpt lat="42.09357" lon="9.1567">
        <ele>1498.6</ele>
        <time>2015-06-23T05:39:13Z</time>
      </trkpt>
      <trkpt lat="42.09362" lon="9.15666">
        <ele>1499.4</ele>
        <time>2015-06-23T05:39:20Z</time>
      </trkpt>
      <trkpt lat="42.09367" lon="9.15663">
        <ele>1500.6</ele>
        <time>2015-06-23T05:39:28Z</time>
      </trkpt>
      <trkpt lat="42.0937" lon="9.1566">
        <ele>1501.4</ele>
        <time>2015-06-23T05:39:34Z</time>
      </trkpt>
      <trkpt lat="42.09374" lon="9.15657">
        <ele>1503</ele>
        <time>2015-06-23T05:39:42Z</time>
      </trkpt>
      <trkpt lat="42.09387" lon="9.1565">
        <ele>1504.4</ele>
        <time>2015-06-23T05:40:03Z</time>
      </trkpt>
      <trkpt lat="42.09389" lon="9.15646">
        <ele>1505.2</ele>
        <time>2015-06-23T05:40:09Z</time>
      </trkpt>
      <trkpt lat="42.09397" lon="9.15636">
        <ele>1507</ele>
        <time>2015-06-23T05:40:24Z</time>
      </trkpt>
      <trkpt lat="42.094" lon="9.15632">
        <ele>1507.6</ele>
        <time>2015-06-23T05:40:30Z</time>
      </trkpt>
      <trkpt lat="42.09408" lon="9.15621">
        <ele>1509.2</ele>
        <time>2015-06-23T05:40:45Z</time>
      </trkpt>
      <trkpt lat="42.09412" lon="9.15615">
        <ele>1510</ele>
        <time>2015-06-23T05:40:52Z</time>
      </trkpt>
      <trkpt lat="42.09423" lon="9.15593">
        <ele>1511.2</ele>
        <time>2015-06-23T05:41:19Z</time>
      </trkpt>
      <trkpt lat="42.09424" lon="9.15584">
        <ele>1513</ele>
        <time>2015-06-23T05:41:33Z</time>
      </trkpt>
      <trkpt lat="42.09426" lon="9.15581">
        <ele>1513.4</ele>
        <time>2015-06-23T05:41:37Z</time>
      </trkpt>
      <trkpt lat="42.09432" lon="9.15573">
        <ele>1515</ele>
        <time>2015-06-23T05:41:45Z</time>
      </trkpt>
      <trkpt lat="42.09435" lon="9.1557">
        <ele>1515.2</ele>
        <time>2015-06-23T05:41:49Z</time>
      </trkpt>
      <trkpt lat="42.09436" lon="9.15567">
        <ele>1516</ele>
        <time>2015-06-23T05:41:53Z</time>
      </trkpt>
      <trkpt lat="42.09438" lon="9.15561">
        <ele>1518</ele>
        <time>2015-06-23T05:42:00Z</time>
      </trkpt>
      <trkpt lat="42.09441" lon="9.15557">
        <ele>1519.2</ele>
        <time>2015-06-23T05:42:07Z</time>
      </trkpt>
      <trkpt lat="42.09446" lon="9.15555">
        <ele>1520.4</ele>
        <time>2015-06-23T05:42:13Z</time>
      </trkpt>
      <trkpt lat="42.09448" lon="9.15553">
        <ele>1520.8</ele>
        <time>2015-06-23T05:42:17Z</time>
      </trkpt>
      <trkpt lat="42.09463" lon="9.15526">
        <ele>1523.4</ele>
        <time>2015-06-23T05:42:51Z</time>
      </trkpt>
      <trkpt lat="42.09465" lon="9.15522">
        <ele>1523.8</ele>
        <time>2015-06-23T05:42:56Z</time>
      </trkpt>
      <trkpt lat="42.09466" lon="9.15502">
        <ele>1525.6</ele>
        <time>2015-06-23T05:43:22Z</time>
      </trkpt>
      <trkpt lat="42.09467" lon="9.15498">
        <ele>1526.4</ele>
        <time>2015-06-23T05:43:28Z</time>
      </trkpt>
      <trkpt lat="42.09468" lon="9.15494">
        <ele>1526.8</ele>
        <time>2015-06-23T05:43:32Z</time>
      </trkpt>
      <trkpt lat="42.09473" lon="9.1548">
        <ele>1529.2</ele>
        <time>2015-06-23T05:43:47Z</time>
      </trkpt>
      <trkpt lat="42.09476" lon="9.15474">
        <ele>1530.2</ele>
        <time>2015-06-23T05:43:54Z</time>
      </trkpt>
      <trkpt lat="42.09485" lon="9.1545">
        <ele>1531.8</ele>
        <time>2015-06-23T05:44:25Z</time>
      </trkpt>
      <trkpt lat="42.09487" lon="9.15444">
        <ele>1532.8</ele>
        <time>2015-06-23T05:44:35Z</time>
      </trkpt>
      <trkpt lat="42.09491" lon="9.15441">
        <ele>1533.6</ele>
        <time>2015-06-23T05:44:42Z</time>
      </trkpt>
      <trkpt lat="42.09492" lon="9.15431">
        <ele>1535</ele>
        <time>2015-06-23T05:44:51Z</time>
      </trkpt>
      <trkpt lat="42.09492" lon="9.15428">
        <ele>1535.4</ele>
        <time>2015-06-23T05:44:53Z</time>
      </trkpt>
      <trkpt lat="42.095" lon="9.154">
        <ele>1535</ele>
        <time>2015-06-23T05:45:26Z</time>
      </trkpt>
      <trkpt lat="42.09504" lon="9.1539">
        <ele>1535</ele>
        <time>2015-06-23T05:45:48Z</time>
      </trkpt>
      <trkpt lat="42.09512" lon="9.15375">
        <ele>1535.6</ele>
        <time>2015-06-23T05:46:22Z</time>
      </trkpt>
      <trkpt lat="42.09516" lon="9.15377">
        <ele>1536</ele>
        <time>2015-06-23T05:46:38Z</time>
      </trkpt>
      <trkpt lat="42.09516" lon="9.15377">
        <ele>1535.8</ele>
        <time>2015-06-23T05:46:40Z</time>
      </trkpt>
      <trkpt lat="42.09523" lon="9.15381">
        <ele>1533.6</ele>
        <time>2015-06-23T05:47:06Z</time>
      </trkpt>
      <trkpt lat="42.09556" lon="9.1542">
        <ele>1532.4</ele>
        <time>2015-06-23T05:48:14Z</time>
      </trkpt>
      <trkpt lat="42.09558" lon="9.15422">
        <ele>1532.4</ele>
        <time>2015-06-23T05:48:18Z</time>
      </trkpt>
      <trkpt lat="42.09572" lon="9.15425">
        <ele>1531.8</ele>
        <time>2015-06-23T05:48:33Z</time>
      </trkpt>
      <trkpt lat="42.09574" lon="9.15426">
        <ele>1531.6</ele>
        <time>2015-06-23T05:48:35Z</time>
      </trkpt>
      <trkpt lat="42.09575" lon="9.15426">
        <ele>1531.8</ele>
        <time>2015-06-23T05:48:37Z</time>
      </trkpt>
      <trkpt lat="42.09582" lon="9.15429">
        <ele>1531.8</ele>
        <time>2015-06-23T05:48:44Z</time>
      </trkpt>
      <trkpt lat="42.0959" lon="9.15429">
        <ele>1532</ele>
        <time>2015-06-23T05:48:51Z</time>
      </trkpt>
      <trkpt lat="42.09595" lon="9.15431">
        <ele>1531.6</ele>
        <time>2015-06-23T05:48:56Z</time>
      </trkpt>
      <trkpt lat="42.0963" lon="9.15428">
        <ele>1531.4</ele>
        <time>2015-06-23T05:49:43Z</time>
      </trkpt>
      <trkpt lat="42.09633" lon="9.1543">
        <ele>1531.2</ele>
        <time>2015-06-23T05:49:48Z</time>
      </trkpt>
      <trkpt lat="42.09645" lon="9.15442">
        <ele>1529.4</ele>
        <time>2015-06-23T05:50:05Z</time>
      </trkpt>
      <trkpt lat="42.09652" lon="9.15456">
        <ele>1529.4</ele>
        <time>2015-06-23T05:50:20Z</time>
      </trkpt>
      <trkpt lat="42.09657" lon="9.15502">
        <ele>1530.4</ele>
        <time>2015-06-23T05:50:59Z</time>
      </trkpt>
      <trkpt lat="42.0966" lon="9.15509">
        <ele>1530.4</ele>
        <time>2015-06-23T05:51:10Z</time>
      </trkpt>
      <trkpt lat="42.09675" lon="9.15513">
        <ele>1528.8</ele>
        <time>2015-06-23T05:51:29Z</time>
      </trkpt>
      <trkpt lat="42.09682" lon="9.15513">
        <ele>1528.4</ele>
        <time>2015-06-23T05:51:39Z</time>
      </trkpt>
      <trkpt lat="42.09685" lon="9.15515">
        <ele>1527.8</ele>
        <time>2015-06-23T05:51:44Z</time>
      </trkpt>
      <trkpt lat="42.0969" lon="9.15516">
        <ele>1527.4</ele>
        <time>2015-06-23T05:51:50Z</time>
      </trkpt>
      <trkpt lat="42.09706" lon="9.15522">
        <ele>1528</ele>
        <time>2015-06-23T05:52:14Z</time>
      </trkpt>
      <trkpt lat="42.09712" lon="9.15521">
        <ele>1527.8</ele>
        <time>2015-06-23T05:52:22Z</time>
      </trkpt>
      <trkpt lat="42.09724" lon="9.15518">
        <ele>1526.8</ele>
        <time>2015-06-23T05:52:36Z</time>
      </trkpt>
      <trkpt lat="42.09728" lon="9.15516">
        <ele>1526.2</ele>
        <time>2015-06-23T05:52:42Z</time>
      </trkpt>
      <trkpt lat="42.09738" lon="9.15515">
        <ele>1524.6</ele>
        <time>2015-06-23T05:52:57Z</time>
      </trkpt>
      <trkpt lat="42.09761" lon="9.15551">
        <ele>1523.6</ele>
        <time>2015-06-23T05:53:35Z</time>
      </trkpt>
      <trkpt lat="42.09765" lon="9.15563">
        <ele>1522.6</ele>
        <time>2015-06-23T05:53:45Z</time>
      </trkpt>
      <trkpt lat="42.09766" lon="9.15565">
        <ele>1522.2</ele>
        <time>2015-06-23T05:53:47Z</time>
      </trkpt>
      <trkpt lat="42.09772" lon="9.15572">
        <ele>1521.2</ele>
        <time>2015-06-23T05:53:57Z</time>
      </trkpt>
      <trkpt lat="42.09781" lon="9.15577">
        <ele>1521</ele>
        <time>2015-06-23T05:54:06Z</time>
      </trkpt>
      <trkpt lat="42.09782" lon="9.15578">
        <ele>1521</ele>
        <time>2015-06-23T05:54:07Z</time>
      </trkpt>
      <trkpt lat="42.09797" lon="9.1559">
        <ele>1520</ele>
        <time>2015-06-23T05:54:41Z</time>
      </trkpt>
      <trkpt lat="42.098" lon="9.15591">
        <ele>1519.6</ele>
        <time>2015-06-23T05:54:45Z</time>
      </trkpt>
      <trkpt lat="42.09801" lon="9.15593">
        <ele>1519.4</ele>
        <time>2015-06-23T05:54:47Z</time>
      </trkpt>
      <trkpt lat="42.09803" lon="9.15595">
        <ele>1519</ele>
        <time>2015-06-23T05:54:50Z</time>
      </trkpt>
      <trkpt lat="42.09812" lon="9.15598">
        <ele>1518.8</ele>
        <time>2015-06-23T05:55:01Z</time>
      </trkpt>
      <trkpt lat="42.09813" lon="9.15598">
        <ele>1518.8</ele>
        <time>2015-06-23T05:55:02Z</time>
      </trkpt>
      <trkpt lat="42.09819" lon="9.15609">
        <ele>1519.2</ele>
        <time>2015-06-23T05:55:16Z</time>
      </trkpt>
      <trkpt lat="42.09822" lon="9.15647">
        <ele>1518.6</ele>
        <time>2015-06-23T05:55:41Z</time>
      </trkpt>
      <trkpt lat="42.09823" lon="9.15657">
        <ele>1518.2</ele>
        <time>2015-06-23T05:55:48Z</time>
      </trkpt>
      <trkpt lat="42.09826" lon="9.15663">
        <ele>1518</ele>
        <time>2015-06-23T05:55:53Z</time>
      </trkpt>
      <trkpt lat="42.09829" lon="9.15669">
        <ele>1518</ele>
        <time>2015-06-23T05:55:59Z</time>
      </trkpt>
      <trkpt lat="42.09836" lon="9.15679">
        <ele>1518.2</ele>
        <time>2015-06-23T05:56:10Z</time>
      </trkpt>
      <trkpt lat="42.09843" lon="9.15682">
        <ele>1519.2</ele>
        <time>2015-06-23T05:56:19Z</time>
      </trkpt>
      <trkpt lat="42.09846" lon="9.15683">
        <ele>1519.4</ele>
        <time>2015-06-23T05:56:22Z</time>
      </trkpt>
      <trkpt lat="42.09851" lon="9.15687">
        <ele>1520.2</ele>
        <time>2015-06-23T05:56:28Z</time>
      </trkpt>
      <trkpt lat="42.09855" lon="9.15688">
        <ele>1521.6</ele>
        <time>2015-06-23T05:56:35Z</time>
      </trkpt>
      <trkpt lat="42.09863" lon="9.15695">
        <ele>1522.6</ele>
        <time>2015-06-23T05:56:45Z</time>
      </trkpt>
      <trkpt lat="42.09881" lon="9.1571">
        <ele>1523.6</ele>
        <time>2015-06-23T05:57:08Z</time>
      </trkpt>
      <trkpt lat="42.09911" lon="9.15755">
        <ele>1523.6</ele>
        <time>2015-06-23T05:57:54Z</time>
      </trkpt>
      <trkpt lat="42.09918" lon="9.15762">
        <ele>1522.6</ele>
        <time>2015-06-23T05:58:03Z</time>
      </trkpt>
      <trkpt lat="42.0994" lon="9.15785">
        <ele>1522</ele>
        <time>2015-06-23T05:58:37Z</time>
      </trkpt>
      <trkpt lat="42.09943" lon="9.15797">
        <ele>1520.8</ele>
        <time>2015-06-23T05:58:48Z</time>
      </trkpt>
      <trkpt lat="42.09947" lon="9.15804">
        <ele>1519.6</ele>
        <time>2015-06-23T05:58:57Z</time>
      </trkpt>
      <trkpt lat="42.09949" lon="9.15808">
        <ele>1519.2</ele>
        <time>2015-06-23T05:59:01Z</time>
      </trkpt>
      <trkpt lat="42.09981" lon="9.15824">
        <ele>1518.6</ele>
        <time>2015-06-23T05:59:38Z</time>
      </trkpt>
      <trkpt lat="42.09984" lon="9.15823">
        <ele>1518.2</ele>
        <time>2015-06-23T05:59:42Z</time>
      </trkpt>
      <trkpt lat="42.09988" lon="9.15824">
        <ele>1518</ele>
        <time>2015-06-23T05:59:46Z</time>
      </trkpt>
      <trkpt lat="42.09992" lon="9.15828">
        <ele>1518</ele>
        <time>2015-06-23T05:59:50Z</time>
      </trkpt>
      <trkpt lat="42.10001" lon="9.1584">
        <ele>1517.2</ele>
        <time>2015-06-23T06:00:03Z</time>
      </trkpt>
      <trkpt lat="42.10014" lon="9.15849">
        <ele>1516.8</ele>
        <time>2015-06-23T06:00:20Z</time>
      </trkpt>
      <trkpt lat="42.1002" lon="9.15851">
        <ele>1516.8</ele>
        <time>2015-06-23T06:00:25Z</time>
      </trkpt>
      <trkpt lat="42.10024" lon="9.1585">
        <ele>1516</ele>
        <time>2015-06-23T06:00:29Z</time>
      </trkpt>
      <trkpt lat="42.1003" lon="9.15856">
        <ele>1514.2</ele>
        <time>2015-06-23T06:00:40Z</time>
      </trkpt>
      <trkpt lat="42.10031" lon="9.15858">
        <ele>1514.2</ele>
        <time>2015-06-23T06:00:42Z</time>
      </trkpt>
      <trkpt lat="42.10043" lon="9.1591">
        <ele>1515.4</ele>
        <time>2015-06-23T06:01:29Z</time>
      </trkpt>
      <trkpt lat="42.10054" lon="9.15925">
        <ele>1516.4</ele>
        <time>2015-06-23T06:01:43Z</time>
      </trkpt>
      <trkpt lat="42.1008" lon="9.15943">
        <ele>1516.6</ele>
        <time>2015-06-23T06:02:15Z</time>
      </trkpt>
      <trkpt lat="42.10078" lon="9.15952">
        <ele>1516.6</ele>
        <time>2015-06-23T06:02:21Z</time>
      </trkpt>
      <trkpt lat="42.10076" lon="9.15963">
        <ele>1515.4</ele>
        <time>2015-06-23T06:02:28Z</time>
      </trkpt>
      <trkpt lat="42.10075" lon="9.15967">
        <ele>1515</ele>
        <time>2015-06-23T06:02:32Z</time>
      </trkpt>
      <trkpt lat="42.10073" lon="9.15978">
        <ele>1514</ele>
        <time>2015-06-23T06:02:42Z</time>
      </trkpt>
      <trkpt lat="42.10074" lon="9.15986">
        <ele>1515.4</ele>
        <time>2015-06-23T06:02:51Z</time>
      </trkpt>
      <trkpt lat="42.10075" lon="9.15988">
        <ele>1515.6</ele>
        <time>2015-06-23T06:02:53Z</time>
      </trkpt>
      <trkpt lat="42.10078" lon="9.15998">
        <ele>1515.8</ele>
        <time>2015-06-23T06:03:00Z</time>
      </trkpt>
      <trkpt lat="42.10079" lon="9.16016">
        <ele>1516.2</ele>
        <time>2015-06-23T06:03:14Z</time>
      </trkpt>
      <trkpt lat="42.10079" lon="9.16016">
        <ele>1516.2</ele>
        <time>2015-06-23T06:03:15Z</time>
      </trkpt>
      <trkpt lat="42.10081" lon="9.16042">
        <ele>1517.6</ele>
        <time>2015-06-23T06:03:37Z</time>
      </trkpt>
      <trkpt lat="42.10084" lon="9.16095">
        <ele>1517.4</ele>
        <time>2015-06-23T06:04:16Z</time>
      </trkpt>
      <trkpt lat="42.10085" lon="9.16113">
        <ele>1517</ele>
        <time>2015-06-23T06:04:29Z</time>
      </trkpt>
      <trkpt lat="42.10085" lon="9.16132">
        <ele>1517</ele>
        <time>2015-06-23T06:04:43Z</time>
      </trkpt>
      <trkpt lat="42.10099" lon="9.16162">
        <ele>1515.8</ele>
        <time>2015-06-23T06:05:12Z</time>
      </trkpt>
      <trkpt lat="42.10101" lon="9.16165">
        <ele>1517</ele>
        <time>2015-06-23T06:05:17Z</time>
      </trkpt>
      <trkpt lat="42.10104" lon="9.16166">
        <ele>1517.8</ele>
        <time>2015-06-23T06:05:21Z</time>
      </trkpt>
      <trkpt lat="42.10104" lon="9.1617">
        <ele>1518.4</ele>
        <time>2015-06-23T06:05:26Z</time>
      </trkpt>
      <trkpt lat="42.10126" lon="9.16183">
        <ele>1518.8</ele>
        <time>2015-06-23T06:06:01Z</time>
      </trkpt>
      <trkpt lat="42.10132" lon="9.16181">
        <ele>1518.8</ele>
        <time>2015-06-23T06:06:08Z</time>
      </trkpt>
      <trkpt lat="42.10167" lon="9.16179">
        <ele>1518.8</ele>
        <time>2015-06-23T06:06:49Z</time>
      </trkpt>
      <trkpt lat="42.10178" lon="9.16191">
        <ele>1519.2</ele>
        <time>2015-06-23T06:07:01Z</time>
      </trkpt>
      <trkpt lat="42.10181" lon="9.16197">
        <ele>1519.4</ele>
        <time>2015-06-23T06:07:06Z</time>
      </trkpt>
      <trkpt lat="42.10201" lon="9.16205">
        <ele>1519.6</ele>
        <time>2015-06-23T06:07:40Z</time>
      </trkpt>
      <trkpt lat="42.10215" lon="9.16232">
        <ele>1519.6</ele>
        <time>2015-06-23T06:08:17Z</time>
      </trkpt>
      <trkpt lat="42.10215" lon="9.16234">
        <ele>1519.6</ele>
        <time>2015-06-23T06:08:20Z</time>
      </trkpt>
      <trkpt lat="42.10215" lon="9.16243">
        <ele>1520.6</ele>
        <time>2015-06-23T06:08:30Z</time>
      </trkpt>
      <trkpt lat="42.10214" lon="9.1625">
        <ele>1521.2</ele>
        <time>2015-06-23T06:08:35Z</time>
      </trkpt>
      <trkpt lat="42.10215" lon="9.16272">
        <ele>1521.6</ele>
        <time>2015-06-23T06:08:56Z</time>
      </trkpt>
      <trkpt lat="42.10217" lon="9.16279">
        <ele>1521.4</ele>
        <time>2015-06-23T06:09:03Z</time>
      </trkpt>
      <trkpt lat="42.10218" lon="9.16286">
        <ele>1521.4</ele>
        <time>2015-06-23T06:09:08Z</time>
      </trkpt>
      <trkpt lat="42.1023" lon="9.16329">
        <ele>1522.4</ele>
        <time>2015-06-23T06:09:52Z</time>
      </trkpt>
      <trkpt lat="42.10234" lon="9.16353">
        <ele>1523.6</ele>
        <time>2015-06-23T06:10:09Z</time>
      </trkpt>
      <trkpt lat="42.1023" lon="9.16382">
        <ele>1524.4</ele>
        <time>2015-06-23T06:10:28Z</time>
      </trkpt>
      <trkpt lat="42.10233" lon="9.16395">
        <ele>1525.4</ele>
        <time>2015-06-23T06:10:38Z</time>
      </trkpt>
      <trkpt lat="42.10232" lon="9.16403">
        <ele>1525.8</ele>
        <time>2015-06-23T06:10:46Z</time>
      </trkpt>
      <trkpt lat="42.10234" lon="9.16422">
        <ele>1527.2</ele>
        <time>2015-06-23T06:11:01Z</time>
      </trkpt>
      <trkpt lat="42.10235" lon="9.16428">
        <ele>1527.8</ele>
        <time>2015-06-23T06:11:06Z</time>
      </trkpt>
      <trkpt lat="42.10239" lon="9.1644">
        <ele>1529.4</ele>
        <time>2015-06-23T06:11:18Z</time>
      </trkpt>
      <trkpt lat="42.10246" lon="9.16448">
        <ele>1530.6</ele>
        <time>2015-06-23T06:11:31Z</time>
      </trkpt>
      <trkpt lat="42.10247" lon="9.1645">
        <ele>1530.6</ele>
        <time>2015-06-23T06:11:33Z</time>
      </trkpt>
      <trkpt lat="42.10257" lon="9.16453">
        <ele>1530.4</ele>
        <time>2015-06-23T06:11:47Z</time>
      </trkpt>
      <trkpt lat="42.10259" lon="9.16459">
        <ele>1530.6</ele>
        <time>2015-06-23T06:11:52Z</time>
      </trkpt>
      <trkpt lat="42.10274" lon="9.165">
        <ele>1532.2</ele>
        <time>2015-06-23T06:12:24Z</time>
      </trkpt>
      <trkpt lat="42.10278" lon="9.16525">
        <ele>1530.4</ele>
        <time>2015-06-23T06:12:46Z</time>
      </trkpt>
      <trkpt lat="42.10279" lon="9.16532">
        <ele>1529.8</ele>
        <time>2015-06-23T06:12:50Z</time>
      </trkpt>
      <trkpt lat="42.1028" lon="9.16536">
        <ele>1528.6</ele>
        <time>2015-06-23T06:12:54Z</time>
      </trkpt>
      <trkpt lat="42.10281" lon="9.16539">
        <ele>1527.2</ele>
        <time>2015-06-23T06:12:58Z</time>
      </trkpt>
      <trkpt lat="42.10281" lon="9.16545">
        <ele>1525.4</ele>
        <time>2015-06-23T06:13:04Z</time>
      </trkpt>
      <trkpt lat="42.1028" lon="9.1655">
        <ele>1524.2</ele>
        <time>2015-06-23T06:13:11Z</time>
      </trkpt>
      <trkpt lat="42.10279" lon="9.16558">
        <ele>1523</ele>
        <time>2015-06-23T06:13:18Z</time>
      </trkpt>
      <trkpt lat="42.10285" lon="9.16562">
        <ele>1521.8</ele>
        <time>2015-06-23T06:13:26Z</time>
      </trkpt>
      <trkpt lat="42.1029" lon="9.16561">
        <ele>1521</ele>
        <time>2015-06-23T06:13:31Z</time>
      </trkpt>
      <trkpt lat="42.10292" lon="9.1656">
        <ele>1520.6</ele>
        <time>2015-06-23T06:13:34Z</time>
      </trkpt>
      <trkpt lat="42.10295" lon="9.1656">
        <ele>1520.2</ele>
        <time>2015-06-23T06:13:36Z</time>
      </trkpt>
      <trkpt lat="42.10307" lon="9.16558">
        <ele>1519.6</ele>
        <time>2015-06-23T06:13:48Z</time>
      </trkpt>
      <trkpt lat="42.10308" lon="9.16558">
        <ele>1519.6</ele>
        <time>2015-06-23T06:13:50Z</time>
      </trkpt>
      <trkpt lat="42.10318" lon="9.16559">
        <ele>1519.8</ele>
        <time>2015-06-23T06:13:59Z</time>
      </trkpt>
      <trkpt lat="42.10325" lon="9.1656">
        <ele>1520</ele>
        <time>2015-06-23T06:14:07Z</time>
      </trkpt>
      <trkpt lat="42.10365" lon="9.16577">
        <ele>1520.6</ele>
        <time>2015-06-23T06:15:01Z</time>
      </trkpt>
      <trkpt lat="42.10366" lon="9.16578">
        <ele>1520.6</ele>
        <time>2015-06-23T06:15:02Z</time>
      </trkpt>
      <trkpt lat="42.10373" lon="9.16581">
        <ele>1521</ele>
        <time>2015-06-23T06:15:07Z</time>
      </trkpt>
      <trkpt lat="42.10391" lon="9.16591">
        <ele>1522.6</ele>
        <time>2015-06-23T06:15:24Z</time>
      </trkpt>
      <trkpt lat="42.10398" lon="9.16594">
        <ele>1523.6</ele>
        <time>2015-06-23T06:15:32Z</time>
      </trkpt>
      <trkpt lat="42.10403" lon="9.16596">
        <ele>1524.4</ele>
        <time>2015-06-23T06:15:37Z</time>
      </trkpt>
      <trkpt lat="42.10405" lon="9.16598">
        <ele>1524.8</ele>
        <time>2015-06-23T06:15:40Z</time>
      </trkpt>
      <trkpt lat="42.10417" lon="9.16615">
        <ele>1524.8</ele>
        <time>2015-06-23T06:16:00Z</time>
      </trkpt>
      <trkpt lat="42.1042" lon="9.16626">
        <ele>1524.4</ele>
        <time>2015-06-23T06:16:08Z</time>
      </trkpt>
      <trkpt lat="42.10419" lon="9.16631">
        <ele>1523.6</ele>
        <time>2015-06-23T06:16:13Z</time>
      </trkpt>
      <trkpt lat="42.10423" lon="9.16645">
        <ele>1522.6</ele>
        <time>2015-06-23T06:16:29Z</time>
      </trkpt>
      <trkpt lat="42.10423" lon="9.1665">
        <ele>1523</ele>
        <time>2015-06-23T06:16:33Z</time>
      </trkpt>
      <trkpt lat="42.10419" lon="9.16675">
        <ele>1523.4</ele>
        <time>2015-06-23T06:16:58Z</time>
      </trkpt>
      <trkpt lat="42.10417" lon="9.16682">
        <ele>1523.8</ele>
        <time>2015-06-23T06:17:05Z</time>
      </trkpt>
      <trkpt lat="42.10415" lon="9.16686">
        <ele>1524.4</ele>
        <time>2015-06-23T06:17:09Z</time>
      </trkpt>
      <trkpt lat="42.10412" lon="9.16694">
        <ele>1523.8</ele>
        <time>2015-06-23T06:17:17Z</time>
      </trkpt>
      <trkpt lat="42.10411" lon="9.16699">
        <ele>1522.8</ele>
        <time>2015-06-23T06:17:25Z</time>
      </trkpt>
      <trkpt lat="42.10409" lon="9.16701">
        <ele>1522.6</ele>
        <time>2015-06-23T06:17:28Z</time>
      </trkpt>
      <trkpt lat="42.10408" lon="9.16706">
        <ele>1522</ele>
        <time>2015-06-23T06:17:31Z</time>
      </trkpt>
      <trkpt lat="42.10406" lon="9.16714">
        <ele>1521</ele>
        <time>2015-06-23T06:17:37Z</time>
      </trkpt>
      <trkpt lat="42.10404" lon="9.16726">
        <ele>1520</ele>
        <time>2015-06-23T06:17:43Z</time>
      </trkpt>
      <trkpt lat="42.10402" lon="9.16735">
        <ele>1518.8</ele>
        <time>2015-06-23T06:17:49Z</time>
      </trkpt>
      <trkpt lat="42.10397" lon="9.16744">
        <ele>1517</ele>
        <time>2015-06-23T06:17:59Z</time>
      </trkpt>
      <trkpt lat="42.10391" lon="9.16758">
        <ele>1516.2</ele>
        <time>2015-06-23T06:18:10Z</time>
      </trkpt>
      <trkpt lat="42.10388" lon="9.16769">
        <ele>1516.2</ele>
        <time>2015-06-23T06:18:18Z</time>
      </trkpt>
      <trkpt lat="42.10387" lon="9.16791">
        <ele>1517</ele>
        <time>2015-06-23T06:18:33Z</time>
      </trkpt>
      <trkpt lat="42.10385" lon="9.16797">
        <ele>1517.2</ele>
        <time>2015-06-23T06:18:38Z</time>
      </trkpt>
      <trkpt lat="42.10379" lon="9.16812">
        <ele>1518.6</ele>
        <time>2015-06-23T06:18:54Z</time>
      </trkpt>
      <trkpt lat="42.10376" lon="9.1682">
        <ele>1517.4</ele>
        <time>2015-06-23T06:19:00Z</time>
      </trkpt>
      <trkpt lat="42.10373" lon="9.16824">
        <ele>1516.8</ele>
        <time>2015-06-23T06:19:05Z</time>
      </trkpt>
      <trkpt lat="42.10369" lon="9.16829">
        <ele>1516.6</ele>
        <time>2015-06-23T06:19:11Z</time>
      </trkpt>
      <trkpt lat="42.10366" lon="9.16834">
        <ele>1516.6</ele>
        <time>2015-06-23T06:19:17Z</time>
      </trkpt>
      <trkpt lat="42.10364" lon="9.16841">
        <ele>1516.8</ele>
        <time>2015-06-23T06:19:26Z</time>
      </trkpt>
      <trkpt lat="42.10363" lon="9.16846">
        <ele>1516.4</ele>
        <time>2015-06-23T06:19:31Z</time>
      </trkpt>
      <trkpt lat="42.10362" lon="9.16854">
        <ele>1515.2</ele>
        <time>2015-06-23T06:19:36Z</time>
      </trkpt>
      <trkpt lat="42.10359" lon="9.16876">
        <ele>1514.4</ele>
        <time>2015-06-23T06:19:55Z</time>
      </trkpt>
      <trkpt lat="42.10359" lon="9.16879">
        <ele>1514.6</ele>
        <time>2015-06-23T06:19:58Z</time>
      </trkpt>
      <trkpt lat="42.10356" lon="9.16888">
        <ele>1514.6</ele>
        <time>2015-06-23T06:20:06Z</time>
      </trkpt>
      <trkpt lat="42.10352" lon="9.16892">
        <ele>1514.2</ele>
        <time>2015-06-23T06:20:10Z</time>
      </trkpt>
      <trkpt lat="42.10346" lon="9.16902">
        <ele>1514.2</ele>
        <time>2015-06-23T06:20:16Z</time>
      </trkpt>
      <trkpt lat="42.10338" lon="9.1691">
        <ele>1514.4</ele>
        <time>2015-06-23T06:20:25Z</time>
      </trkpt>
      <trkpt lat="42.10336" lon="9.16913">
        <ele>1514.4</ele>
        <time>2015-06-23T06:20:28Z</time>
      </trkpt>
      <trkpt lat="42.10334" lon="9.16917">
        <ele>1513.4</ele>
        <time>2015-06-23T06:20:32Z</time>
      </trkpt>
      <trkpt lat="42.10304" lon="9.16963">
        <ele>1511.4</ele>
        <time>2015-06-23T06:21:12Z</time>
      </trkpt>
      <trkpt lat="42.10303" lon="9.16967">
        <ele>1511.4</ele>
        <time>2015-06-23T06:21:15Z</time>
      </trkpt>
      <trkpt lat="42.10303" lon="9.1697">
        <ele>1511.2</ele>
        <time>2015-06-23T06:21:17Z</time>
      </trkpt>
      <trkpt lat="42.10295" lon="9.16985">
        <ele>1508.4</ele>
        <time>2015-06-23T06:21:35Z</time>
      </trkpt>
      <trkpt lat="42.10285" lon="9.17006">
        <ele>1508.2</ele>
        <time>2015-06-23T06:21:55Z</time>
      </trkpt>
      <trkpt lat="42.10284" lon="9.17007">
        <ele>1508.2</ele>
        <time>2015-06-23T06:21:57Z</time>
      </trkpt>
      <trkpt lat="42.10282" lon="9.1701">
        <ele>1508.2</ele>
        <time>2015-06-23T06:21:59Z</time>
      </trkpt>
      <trkpt lat="42.10281" lon="9.17013">
        <ele>1508.2</ele>
        <time>2015-06-23T06:22:02Z</time>
      </trkpt>
      <trkpt lat="42.10275" lon="9.17041">
        <ele>1507.2</ele>
        <time>2015-06-23T06:22:25Z</time>
      </trkpt>
      <trkpt lat="42.10273" lon="9.17044">
        <ele>1506.6</ele>
        <time>2015-06-23T06:22:29Z</time>
      </trkpt>
      <trkpt lat="42.1027" lon="9.17048">
        <ele>1505.8</ele>
        <time>2015-06-23T06:22:34Z</time>
      </trkpt>
      <trkpt lat="42.10259" lon="9.17078">
        <ele>1503.6</ele>
        <time>2015-06-23T06:22:54Z</time>
      </trkpt>
      <trkpt lat="42.10261" lon="9.17089">
        <ele>1502</ele>
        <time>2015-06-23T06:23:06Z</time>
      </trkpt>
      <trkpt lat="42.10259" lon="9.17093">
        <ele>1502</ele>
        <time>2015-06-23T06:23:09Z</time>
      </trkpt>
      <trkpt lat="42.10251" lon="9.17154">
        <ele>1501.6</ele>
        <time>2015-06-23T06:23:47Z</time>
      </trkpt>
      <trkpt lat="42.10252" lon="9.17161">
        <ele>1501</ele>
        <time>2015-06-23T06:23:53Z</time>
      </trkpt>
      <trkpt lat="42.10249" lon="9.17205">
        <ele>1499.8</ele>
        <time>2015-06-23T06:24:24Z</time>
      </trkpt>
      <trkpt lat="42.10255" lon="9.17239">
        <ele>1499</ele>
        <time>2015-06-23T06:24:48Z</time>
      </trkpt>
      <trkpt lat="42.10256" lon="9.17242">
        <ele>1498.8</ele>
        <time>2015-06-23T06:24:50Z</time>
      </trkpt>
      <trkpt lat="42.10268" lon="9.17253">
        <ele>1497.8</ele>
        <time>2015-06-23T06:25:04Z</time>
      </trkpt>
      <trkpt lat="42.1027" lon="9.17253">
        <ele>1497.4</ele>
        <time>2015-06-23T06:25:10Z</time>
      </trkpt>
      <trkpt lat="42.10276" lon="9.17264">
        <ele>1496.8</ele>
        <time>2015-06-23T06:25:33Z</time>
      </trkpt>
      <trkpt lat="42.10277" lon="9.17264">
        <ele>1496.8</ele>
        <time>2015-06-23T06:25:35Z</time>
      </trkpt>
      <trkpt lat="42.10285" lon="9.17269">
        <ele>1495.8</ele>
        <time>2015-06-23T06:25:54Z</time>
      </trkpt>
      <trkpt lat="42.10285" lon="9.17269">
        <ele>1495.6</ele>
        <time>2015-06-23T06:25:57Z</time>
      </trkpt>
      <trkpt lat="42.10285" lon="9.1727">
        <ele>1494.6</ele>
        <time>2015-06-23T06:26:04Z</time>
      </trkpt>
      <trkpt lat="42.10286" lon="9.17271">
        <ele>1494.6</ele>
        <time>2015-06-23T06:26:13Z</time>
      </trkpt>
      <trkpt lat="42.10285" lon="9.17271">
        <ele>1495.4</ele>
        <time>2015-06-23T06:26:26Z</time>
      </trkpt>
      <trkpt lat="42.10275" lon="9.17259">
        <ele>1496</ele>
        <time>2015-06-23T06:26:46Z</time>
      </trkpt>
      <trkpt lat="42.10274" lon="9.17256">
        <ele>1496.4</ele>
        <time>2015-06-23T06:26:50Z</time>
      </trkpt>
      <trkpt lat="42.10274" lon="9.17259">
        <ele>1497</ele>
        <time>2015-06-23T06:26:58Z</time>
      </trkpt>
      <trkpt lat="42.10271" lon="9.17248">
        <ele>1497.4</ele>
        <time>2015-06-23T06:27:43Z</time>
      </trkpt>
      <trkpt lat="42.10272" lon="9.17252">
        <ele>1497.2</ele>
        <time>2015-06-23T06:27:47Z</time>
      </trkpt>
      <trkpt lat="42.10274" lon="9.17254">
        <ele>1498.8</ele>
        <time>2015-06-23T06:27:55Z</time>
      </trkpt>
      <trkpt lat="42.10274" lon="9.17254">
        <ele>1498.8</ele>
        <time>2015-06-23T06:27:57Z</time>
      </trkpt>
      <trkpt lat="42.10275" lon="9.17254">
        <ele>1497</ele>
        <time>2015-06-23T06:28:10Z</time>
      </trkpt>
      <trkpt lat="42.10274" lon="9.17255">
        <ele>1496.8</ele>
        <time>2015-06-23T06:28:49Z</time>
      </trkpt>
      <trkpt lat="42.10274" lon="9.17255">
        <ele>1496.2</ele>
        <time>2015-06-23T06:29:08Z</time>
      </trkpt>
      <trkpt lat="42.10273" lon="9.17254">
        <ele>1497.6</ele>
        <time>2015-06-23T06:29:21Z</time>
      </trkpt>
      <trkpt lat="42.10273" lon="9.17254">
        <ele>1498</ele>
        <time>2015-06-23T06:29:30Z</time>
      </trkpt>
      <trkpt lat="42.10272" lon="9.17254">
        <ele>1498</ele>
        <time>2015-06-23T06:29:34Z</time>
      </trkpt>
      <trkpt lat="42.10277" lon="9.1725">
        <ele>1496.6</ele>
        <time>2015-06-23T06:30:30Z</time>
      </trkpt>
      <trkpt lat="42.10274" lon="9.1725">
        <ele>1495.2</ele>
        <time>2015-06-23T06:31:08Z</time>
      </trkpt>
      <trkpt lat="42.10276" lon="9.1725">
        <ele>1496.2</ele>
        <time>2015-06-23T06:31:27Z</time>
      </trkpt>
      <trkpt lat="42.10279" lon="9.17247">
        <ele>1497</ele>
        <time>2015-06-23T06:32:08Z</time>
      </trkpt>
      <trkpt lat="42.10279" lon="9.17248">
        <ele>1498</ele>
        <time>2015-06-23T06:32:25Z</time>
      </trkpt>
      <trkpt lat="42.10279" lon="9.17248">
        <ele>1498</ele>
        <time>2015-06-23T06:32:52Z</time>
      </trkpt>
      <trkpt lat="42.10281" lon="9.17249">
        <ele>1497.6</ele>
        <time>2015-06-23T06:32:56Z</time>
      </trkpt>
      <trkpt lat="42.10291" lon="9.17242">
        <ele>1495.8</ele>
        <time>2015-06-23T06:33:10Z</time>
      </trkpt>
      <trkpt lat="42.10298" lon="9.17235">
        <ele>1496.4</ele>
        <time>2015-06-23T06:33:20Z</time>
      </trkpt>
      <trkpt lat="42.1033" lon="9.17191">
        <ele>1495.6</ele>
        <time>2015-06-23T06:34:04Z</time>
      </trkpt>
      <trkpt lat="42.10361" lon="9.1716">
        <ele>1496</ele>
        <time>2015-06-23T06:34:39Z</time>
      </trkpt>
      <trkpt lat="42.10366" lon="9.17155">
        <ele>1496</ele>
        <time>2015-06-23T06:34:47Z</time>
      </trkpt>
      <trkpt lat="42.10381" lon="9.1714">
        <ele>1496.6</ele>
        <time>2015-06-23T06:35:05Z</time>
      </trkpt>
      <trkpt lat="42.1039" lon="9.17133">
        <ele>1496.2</ele>
        <time>2015-06-23T06:35:17Z</time>
      </trkpt>
      <trkpt lat="42.10393" lon="9.17131">
        <ele>1496.4</ele>
        <time>2015-06-23T06:35:20Z</time>
      </trkpt>
      <trkpt lat="42.10397" lon="9.17128">
        <ele>1497.6</ele>
        <time>2015-06-23T06:35:24Z</time>
      </trkpt>
      <trkpt lat="42.10413" lon="9.17117">
        <ele>1500.4</ele>
        <time>2015-06-23T06:35:41Z</time>
      </trkpt>
      <trkpt lat="42.10419" lon="9.17112">
        <ele>1501</ele>
        <time>2015-06-23T06:35:48Z</time>
      </trkpt>
      <trkpt lat="42.10423" lon="9.17109">
        <ele>1501</ele>
        <time>2015-06-23T06:35:54Z</time>
      </trkpt>
      <trkpt lat="42.1044" lon="9.17095">
        <ele>1500.4</ele>
        <time>2015-06-23T06:36:14Z</time>
      </trkpt>
      <trkpt lat="42.10444" lon="9.17094">
        <ele>1500.6</ele>
        <time>2015-06-23T06:36:16Z</time>
      </trkpt>
      <trkpt lat="42.10448" lon="9.17091">
        <ele>1500.6</ele>
        <time>2015-06-23T06:36:20Z</time>
      </trkpt>
      <trkpt lat="42.10455" lon="9.17077">
        <ele>1500.6</ele>
        <time>2015-06-23T06:36:31Z</time>
      </trkpt>
      <trkpt lat="42.10457" lon="9.17075">
        <ele>1501</ele>
        <time>2015-06-23T06:36:33Z</time>
      </trkpt>
      <trkpt lat="42.10459" lon="9.17069">
        <ele>1501.4</ele>
        <time>2015-06-23T06:36:38Z</time>
      </trkpt>
      <trkpt lat="42.10466" lon="9.17057">
        <ele>1501.4</ele>
        <time>2015-06-23T06:36:49Z</time>
      </trkpt>
      <trkpt lat="42.10469" lon="9.17055">
        <ele>1500.8</ele>
        <time>2015-06-23T06:36:52Z</time>
      </trkpt>
      <trkpt lat="42.10478" lon="9.17046">
        <ele>1499.6</ele>
        <time>2015-06-23T06:37:08Z</time>
      </trkpt>
      <trkpt lat="42.10482" lon="9.17042">
        <ele>1499</ele>
        <time>2015-06-23T06:37:14Z</time>
      </trkpt>
      <trkpt lat="42.10484" lon="9.17041">
        <ele>1498.6</ele>
        <time>2015-06-23T06:37:16Z</time>
      </trkpt>
      <trkpt lat="42.10486" lon="9.17038">
        <ele>1498.2</ele>
        <time>2015-06-23T06:37:19Z</time>
      </trkpt>
      <trkpt lat="42.10502" lon="9.17025">
        <ele>1497.6</ele>
        <time>2015-06-23T06:37:32Z</time>
      </trkpt>
      <trkpt lat="42.10518" lon="9.17002">
        <ele>1498.4</ele>
        <time>2015-06-23T06:37:54Z</time>
      </trkpt>
      <trkpt lat="42.10524" lon="9.16997">
        <ele>1498</ele>
        <time>2015-06-23T06:37:59Z</time>
      </trkpt>
      <trkpt lat="42.10525" lon="9.16996">
        <ele>1497.8</ele>
        <time>2015-06-23T06:38:00Z</time>
      </trkpt>
      <trkpt lat="42.10529" lon="9.16993">
        <ele>1497.2</ele>
        <time>2015-06-23T06:38:04Z</time>
      </trkpt>
      <trkpt lat="42.10531" lon="9.16992">
        <ele>1496.8</ele>
        <time>2015-06-23T06:38:07Z</time>
      </trkpt>
      <trkpt lat="42.10533" lon="9.1699">
        <ele>1496.4</ele>
        <time>2015-06-23T06:38:09Z</time>
      </trkpt>
      <trkpt lat="42.10534" lon="9.16986">
        <ele>1495.2</ele>
        <time>2015-06-23T06:38:13Z</time>
      </trkpt>
      <trkpt lat="42.10539" lon="9.16974">
        <ele>1493.4</ele>
        <time>2015-06-23T06:38:24Z</time>
      </trkpt>
      <trkpt lat="42.1054" lon="9.16972">
        <ele>1493</ele>
        <time>2015-06-23T06:38:26Z</time>
      </trkpt>
      <trkpt lat="42.10542" lon="9.16968">
        <ele>1493</ele>
        <time>2015-06-23T06:38:29Z</time>
      </trkpt>
      <trkpt lat="42.10564" lon="9.16915">
        <ele>1491.6</ele>
        <time>2015-06-23T06:39:14Z</time>
      </trkpt>
      <trkpt lat="42.10566" lon="9.16911">
        <ele>1491.2</ele>
        <time>2015-06-23T06:39:18Z</time>
      </trkpt>
      <trkpt lat="42.10568" lon="9.16908">
        <ele>1490.6</ele>
        <time>2015-06-23T06:39:23Z</time>
      </trkpt>
      <trkpt lat="42.1057" lon="9.16902">
        <ele>1489</ele>
        <time>2015-06-23T06:39:32Z</time>
      </trkpt>
      <trkpt lat="42.10575" lon="9.16899">
        <ele>1489</ele>
        <time>2015-06-23T06:39:36Z</time>
      </trkpt>
      <trkpt lat="42.10582" lon="9.1689">
        <ele>1489.2</ele>
        <time>2015-06-23T06:39:47Z</time>
      </trkpt>
      <trkpt lat="42.10584" lon="9.16884">
        <ele>1490.8</ele>
        <time>2015-06-23T06:39:55Z</time>
      </trkpt>
      <trkpt lat="42.10588" lon="9.16863">
        <ele>1492.4</ele>
        <time>2015-06-23T06:40:20Z</time>
      </trkpt>
      <trkpt lat="42.1059" lon="9.16856">
        <ele>1492.8</ele>
        <time>2015-06-23T06:40:26Z</time>
      </trkpt>
      <trkpt lat="42.1059" lon="9.1685">
        <ele>1493.8</ele>
        <time>2015-06-23T06:40:31Z</time>
      </trkpt>
      <trkpt lat="42.10591" lon="9.16848">
        <ele>1494.2</ele>
        <time>2015-06-23T06:40:33Z</time>
      </trkpt>
      <trkpt lat="42.10591" lon="9.16835">
        <ele>1495.4</ele>
        <time>2015-06-23T06:40:49Z</time>
      </trkpt>
      <trkpt lat="42.10595" lon="9.16833">
        <ele>1496</ele>
        <time>2015-06-23T06:40:54Z</time>
      </trkpt>
      <trkpt lat="42.10597" lon="9.1683">
        <ele>1496.8</ele>
        <time>2015-06-23T06:40:58Z</time>
      </trkpt>
      <trkpt lat="42.10599" lon="9.16826">
        <ele>1498</ele>
        <time>2015-06-23T06:41:03Z</time>
      </trkpt>
      <trkpt lat="42.10605" lon="9.16818">
        <ele>1499</ele>
        <time>2015-06-23T06:41:12Z</time>
      </trkpt>
      <trkpt lat="42.10607" lon="9.16815">
        <ele>1499</ele>
        <time>2015-06-23T06:41:15Z</time>
      </trkpt>
      <trkpt lat="42.10615" lon="9.16805">
        <ele>1498.8</ele>
        <time>2015-06-23T06:41:23Z</time>
      </trkpt>
      <trkpt lat="42.10616" lon="9.16803">
        <ele>1498.8</ele>
        <time>2015-06-23T06:41:25Z</time>
      </trkpt>
      <trkpt lat="42.10616" lon="9.168">
        <ele>1498.8</ele>
        <time>2015-06-23T06:41:29Z</time>
      </trkpt>
      <trkpt lat="42.10618" lon="9.16794">
        <ele>1499.2</ele>
        <time>2015-06-23T06:41:36Z</time>
      </trkpt>
      <trkpt lat="42.1062" lon="9.1679">
        <ele>1499.8</ele>
        <time>2015-06-23T06:41:42Z</time>
      </trkpt>
      <trkpt lat="42.10624" lon="9.16783">
        <ele>1501.4</ele>
        <time>2015-06-23T06:41:49Z</time>
      </trkpt>
      <trkpt lat="42.10627" lon="9.16774">
        <ele>1502.6</ele>
        <time>2015-06-23T06:41:58Z</time>
      </trkpt>
      <trkpt lat="42.10627" lon="9.16773">
        <ele>1502.8</ele>
        <time>2015-06-23T06:41:59Z</time>
      </trkpt>
      <trkpt lat="42.10627" lon="9.16771">
        <ele>1503</ele>
        <time>2015-06-23T06:42:01Z</time>
      </trkpt>
      <trkpt lat="42.1063" lon="9.16764">
        <ele>1503.4</ele>
        <time>2015-06-23T06:42:07Z</time>
      </trkpt>
      <trkpt lat="42.1063" lon="9.16762">
        <ele>1503.4</ele>
        <time>2015-06-23T06:42:09Z</time>
      </trkpt>
      <trkpt lat="42.10633" lon="9.16755">
        <ele>1503.8</ele>
        <time>2015-06-23T06:42:19Z</time>
      </trkpt>
      <trkpt lat="42.10634" lon="9.16751">
        <ele>1504.6</ele>
        <time>2015-06-23T06:42:27Z</time>
      </trkpt>
      <trkpt lat="42.1064" lon="9.16749">
        <ele>1505.4</ele>
        <time>2015-06-23T06:42:35Z</time>
      </trkpt>
      <trkpt lat="42.10642" lon="9.16749">
        <ele>1505.8</ele>
        <time>2015-06-23T06:42:38Z</time>
      </trkpt>
      <trkpt lat="42.10645" lon="9.16749">
        <ele>1506</ele>
        <time>2015-06-23T06:42:40Z</time>
      </trkpt>
      <trkpt lat="42.10652" lon="9.16749">
        <ele>1506.8</ele>
        <time>2015-06-23T06:42:49Z</time>
      </trkpt>
      <trkpt lat="42.10657" lon="9.1675">
        <ele>1507.8</ele>
        <time>2015-06-23T06:42:57Z</time>
      </trkpt>
      <trkpt lat="42.10675" lon="9.16749">
        <ele>1508.8</ele>
        <time>2015-06-23T06:43:33Z</time>
      </trkpt>
      <trkpt lat="42.10678" lon="9.16748">
        <ele>1509.8</ele>
        <time>2015-06-23T06:43:40Z</time>
      </trkpt>
      <trkpt lat="42.10681" lon="9.16749">
        <ele>1510.4</ele>
        <time>2015-06-23T06:43:45Z</time>
      </trkpt>
      <trkpt lat="42.10685" lon="9.16748">
        <ele>1512</ele>
        <time>2015-06-23T06:43:53Z</time>
      </trkpt>
      <trkpt lat="42.10697" lon="9.16748">
        <ele>1513.2</ele>
        <time>2015-06-23T06:44:13Z</time>
      </trkpt>
      <trkpt lat="42.10716" lon="9.16744">
        <ele>1513.2</ele>
        <time>2015-06-23T06:44:43Z</time>
      </trkpt>
      <trkpt lat="42.10717" lon="9.16742">
        <ele>1513.6</ele>
        <time>2015-06-23T06:44:48Z</time>
      </trkpt>
      <trkpt lat="42.10719" lon="9.16739">
        <ele>1515</ele>
        <time>2015-06-23T06:44:55Z</time>
      </trkpt>
      <trkpt lat="42.10721" lon="9.16733">
        <ele>1515.8</ele>
        <time>2015-06-23T06:45:04Z</time>
      </trkpt>
      <trkpt lat="42.10725" lon="9.1673">
        <ele>1517</ele>
        <time>2015-06-23T06:45:12Z</time>
      </trkpt>
      <trkpt lat="42.10742" lon="9.16716">
        <ele>1518</ele>
        <time>2015-06-23T06:45:40Z</time>
      </trkpt>
      <trkpt lat="42.10745" lon="9.16711">
        <ele>1518.8</ele>
        <time>2015-06-23T06:45:48Z</time>
      </trkpt>
      <trkpt lat="42.10754" lon="9.16711">
        <ele>1520</ele>
        <time>2015-06-23T06:46:05Z</time>
      </trkpt>
      <trkpt lat="42.10759" lon="9.16712">
        <ele>1520.2</ele>
        <time>2015-06-23T06:46:09Z</time>
      </trkpt>
      <trkpt lat="42.10777" lon="9.16715">
        <ele>1520.6</ele>
        <time>2015-06-23T06:46:27Z</time>
      </trkpt>
      <trkpt lat="42.10785" lon="9.16717">
        <ele>1521.4</ele>
        <time>2015-06-23T06:46:38Z</time>
      </trkpt>
      <trkpt lat="42.1079" lon="9.16722">
        <ele>1522.4</ele>
        <time>2015-06-23T06:46:47Z</time>
      </trkpt>
      <trkpt lat="42.10802" lon="9.1673">
        <ele>1522.8</ele>
        <time>2015-06-23T06:47:03Z</time>
      </trkpt>
      <trkpt lat="42.10807" lon="9.16733">
        <ele>1522.6</ele>
        <time>2015-06-23T06:47:10Z</time>
      </trkpt>
      <trkpt lat="42.1081" lon="9.16735">
        <ele>1523</ele>
        <time>2015-06-23T06:47:17Z</time>
      </trkpt>
      <trkpt lat="42.10812" lon="9.16739">
        <ele>1524</ele>
        <time>2015-06-23T06:47:24Z</time>
      </trkpt>
      <trkpt lat="42.10817" lon="9.16743">
        <ele>1525.2</ele>
        <time>2015-06-23T06:47:34Z</time>
      </trkpt>
      <trkpt lat="42.1082" lon="9.16745">
        <ele>1525.4</ele>
        <time>2015-06-23T06:47:37Z</time>
      </trkpt>
      <trkpt lat="42.10823" lon="9.16748">
        <ele>1525.8</ele>
        <time>2015-06-23T06:47:41Z</time>
      </trkpt>
      <trkpt lat="42.10832" lon="9.16757">
        <ele>1527.4</ele>
        <time>2015-06-23T06:47:58Z</time>
      </trkpt>
      <trkpt lat="42.10842" lon="9.16761">
        <ele>1527.8</ele>
        <time>2015-06-23T06:48:11Z</time>
      </trkpt>
      <trkpt lat="42.10848" lon="9.16763">
        <ele>1529</ele>
        <time>2015-06-23T06:48:21Z</time>
      </trkpt>
      <trkpt lat="42.10855" lon="9.1677">
        <ele>1529.2</ele>
        <time>2015-06-23T06:48:31Z</time>
      </trkpt>
      <trkpt lat="42.10869" lon="9.16778">
        <ele>1529.4</ele>
        <time>2015-06-23T06:48:51Z</time>
      </trkpt>
      <trkpt lat="42.1087" lon="9.16779">
        <ele>1530.2</ele>
        <time>2015-06-23T06:48:56Z</time>
      </trkpt>
      <trkpt lat="42.10873" lon="9.16783">
        <ele>1531.4</ele>
        <time>2015-06-23T06:49:02Z</time>
      </trkpt>
      <trkpt lat="42.10876" lon="9.16785">
        <ele>1532</ele>
        <time>2015-06-23T06:49:05Z</time>
      </trkpt>
      <trkpt lat="42.10883" lon="9.1679">
        <ele>1532.8</ele>
        <time>2015-06-23T06:49:17Z</time>
      </trkpt>
      <trkpt lat="42.1089" lon="9.16796">
        <ele>1532.6</ele>
        <time>2015-06-23T06:49:37Z</time>
      </trkpt>
      <trkpt lat="42.10891" lon="9.16797">
        <ele>1532.8</ele>
        <time>2015-06-23T06:49:38Z</time>
      </trkpt>
      <trkpt lat="42.10893" lon="9.16805">
        <ele>1531.4</ele>
        <time>2015-06-23T06:49:52Z</time>
      </trkpt>
      <trkpt lat="42.10897" lon="9.16807">
        <ele>1531.2</ele>
        <time>2015-06-23T06:49:56Z</time>
      </trkpt>
      <trkpt lat="42.10926" lon="9.16791">
        <ele>1530.2</ele>
        <time>2015-06-23T06:50:42Z</time>
      </trkpt>
      <trkpt lat="42.10931" lon="9.16731">
        <ele>1529.6</ele>
        <time>2015-06-23T06:51:35Z</time>
      </trkpt>
      <trkpt lat="42.10931" lon="9.16717">
        <ele>1529.6</ele>
        <time>2015-06-23T06:51:47Z</time>
      </trkpt>
      <trkpt lat="42.1093" lon="9.16713">
        <ele>1529.8</ele>
        <time>2015-06-23T06:51:51Z</time>
      </trkpt>
      <trkpt lat="42.10928" lon="9.1668">
        <ele>1530.2</ele>
        <time>2015-06-23T06:52:15Z</time>
      </trkpt>
      <trkpt lat="42.10927" lon="9.16669">
        <ele>1530.4</ele>
        <time>2015-06-23T06:52:31Z</time>
      </trkpt>
      <trkpt lat="42.1092" lon="9.16639">
        <ele>1529.2</ele>
        <time>2015-06-23T06:52:55Z</time>
      </trkpt>
      <trkpt lat="42.10917" lon="9.16624">
        <ele>1528.2</ele>
        <time>2015-06-23T06:53:06Z</time>
      </trkpt>
      <trkpt lat="42.10909" lon="9.16565">
        <ele>1528.4</ele>
        <time>2015-06-23T06:53:54Z</time>
      </trkpt>
      <trkpt lat="42.10903" lon="9.16546">
        <ele>1527.2</ele>
        <time>2015-06-23T06:54:11Z</time>
      </trkpt>
      <trkpt lat="42.10894" lon="9.16496">
        <ele>1527.4</ele>
        <time>2015-06-23T06:54:50Z</time>
      </trkpt>
      <trkpt lat="42.10894" lon="9.16488">
        <ele>1528.2</ele>
        <time>2015-06-23T06:54:58Z</time>
      </trkpt>
      <trkpt lat="42.10894" lon="9.1648">
        <ele>1528.4</ele>
        <time>2015-06-23T06:55:04Z</time>
      </trkpt>
      <trkpt lat="42.10894" lon="9.16476">
        <ele>1528.6</ele>
        <time>2015-06-23T06:55:07Z</time>
      </trkpt>
      <trkpt lat="42.10889" lon="9.16466">
        <ele>1526.4</ele>
        <time>2015-06-23T06:55:18Z</time>
      </trkpt>
      <trkpt lat="42.10885" lon="9.16451">
        <ele>1527.8</ele>
        <time>2015-06-23T06:55:34Z</time>
      </trkpt>
      <trkpt lat="42.10885" lon="9.16447">
        <ele>1528</ele>
        <time>2015-06-23T06:55:38Z</time>
      </trkpt>
      <trkpt lat="42.10884" lon="9.16446">
        <ele>1528.2</ele>
        <time>2015-06-23T06:55:40Z</time>
      </trkpt>
      <trkpt lat="42.10884" lon="9.16445">
        <ele>1528.6</ele>
        <time>2015-06-23T06:55:41Z</time>
      </trkpt>
      <trkpt lat="42.10885" lon="9.16443">
        <ele>1528.8</ele>
        <time>2015-06-23T06:55:43Z</time>
      </trkpt>
      <trkpt lat="42.10888" lon="9.16442">
        <ele>1531.6</ele>
        <time>2015-06-23T06:55:50Z</time>
      </trkpt>
      <trkpt lat="42.10884" lon="9.16433">
        <ele>1533</ele>
        <time>2015-06-23T06:56:00Z</time>
      </trkpt>
      <trkpt lat="42.10878" lon="9.16404">
        <ele>1534</ele>
        <time>2015-06-23T06:56:31Z</time>
      </trkpt>
      <trkpt lat="42.10875" lon="9.16398">
        <ele>1535</ele>
        <time>2015-06-23T06:56:39Z</time>
      </trkpt>
      <trkpt lat="42.10871" lon="9.16386">
        <ele>1536.2</ele>
        <time>2015-06-23T06:56:54Z</time>
      </trkpt>
      <trkpt lat="42.10871" lon="9.16378">
        <ele>1537.6</ele>
        <time>2015-06-23T06:57:04Z</time>
      </trkpt>
      <trkpt lat="42.10869" lon="9.16367">
        <ele>1538.4</ele>
        <time>2015-06-23T06:57:18Z</time>
      </trkpt>
      <trkpt lat="42.10869" lon="9.16353">
        <ele>1539.8</ele>
        <time>2015-06-23T06:57:35Z</time>
      </trkpt>
      <trkpt lat="42.1087" lon="9.16351">
        <ele>1539.8</ele>
        <time>2015-06-23T06:57:37Z</time>
      </trkpt>
      <trkpt lat="42.10871" lon="9.16348">
        <ele>1540</ele>
        <time>2015-06-23T06:57:40Z</time>
      </trkpt>
      <trkpt lat="42.10871" lon="9.16337">
        <ele>1540.4</ele>
        <time>2015-06-23T06:57:50Z</time>
      </trkpt>
      <trkpt lat="42.10864" lon="9.16302">
        <ele>1539.8</ele>
        <time>2015-06-23T06:58:21Z</time>
      </trkpt>
      <trkpt lat="42.10855" lon="9.16283">
        <ele>1540.8</ele>
        <time>2015-06-23T06:58:41Z</time>
      </trkpt>
      <trkpt lat="42.10849" lon="9.1627">
        <ele>1540</ele>
        <time>2015-06-23T06:58:57Z</time>
      </trkpt>
      <trkpt lat="42.10848" lon="9.16265">
        <ele>1541.8</ele>
        <time>2015-06-23T06:59:08Z</time>
      </trkpt>
      <trkpt lat="42.10841" lon="9.16239">
        <ele>1542.2</ele>
        <time>2015-06-23T06:59:30Z</time>
      </trkpt>
      <trkpt lat="42.10843" lon="9.16236">
        <ele>1542</ele>
        <time>2015-06-23T06:59:32Z</time>
      </trkpt>
      <trkpt lat="42.10847" lon="9.16209">
        <ele>1541.2</ele>
        <time>2015-06-23T06:59:57Z</time>
      </trkpt>
      <trkpt lat="42.10847" lon="9.16195">
        <ele>1540.6</ele>
        <time>2015-06-23T07:00:08Z</time>
      </trkpt>
      <trkpt lat="42.10847" lon="9.16194">
        <ele>1540.6</ele>
        <time>2015-06-23T07:00:09Z</time>
      </trkpt>
      <trkpt lat="42.10846" lon="9.16194">
        <ele>1541.4</ele>
        <time>2015-06-23T07:00:16Z</time>
      </trkpt>
      <trkpt lat="42.10845" lon="9.16189">
        <ele>1542.2</ele>
        <time>2015-06-23T07:00:53Z</time>
      </trkpt>
      <trkpt lat="42.10845" lon="9.16189">
        <ele>1542</ele>
        <time>2015-06-23T07:00:56Z</time>
      </trkpt>
      <trkpt lat="42.10845" lon="9.16188">
        <ele>1539</ele>
        <time>2015-06-23T07:01:05Z</time>
      </trkpt>
      <trkpt lat="42.10843" lon="9.16188">
        <ele>1539.2</ele>
        <time>2015-06-23T07:01:27Z</time>
      </trkpt>
      <trkpt lat="42.10843" lon="9.16189">
        <ele>1539.4</ele>
        <time>2015-06-23T07:01:32Z</time>
      </trkpt>
      <trkpt lat="42.10842" lon="9.1619">
        <ele>1540.8</ele>
        <time>2015-06-23T07:01:39Z</time>
      </trkpt>
      <trkpt lat="42.10841" lon="9.1619">
        <ele>1541.6</ele>
        <time>2015-06-23T07:01:45Z</time>
      </trkpt>
      <trkpt lat="42.10841" lon="9.1619">
        <ele>1541.8</ele>
        <time>2015-06-23T07:01:47Z</time>
      </trkpt>
      <trkpt lat="42.1084" lon="9.1619">
        <ele>1543.2</ele>
        <time>2015-06-23T07:02:01Z</time>
      </trkpt>
      <trkpt lat="42.10841" lon="9.16189">
        <ele>1543</ele>
        <time>2015-06-23T07:02:29Z</time>
      </trkpt>
      <trkpt lat="42.10843" lon="9.16188">
        <ele>1543.2</ele>
        <time>2015-06-23T07:02:45Z</time>
      </trkpt>
      <trkpt lat="42.10841" lon="9.16189">
        <ele>1543.4</ele>
        <time>2015-06-23T07:02:51Z</time>
      </trkpt>
      <trkpt lat="42.10843" lon="9.16189">
        <ele>1543.4</ele>
        <time>2015-06-23T07:02:56Z</time>
      </trkpt>
      <trkpt lat="42.10844" lon="9.1618">
        <ele>1542.6</ele>
        <time>2015-06-23T07:03:34Z</time>
      </trkpt>
      <trkpt lat="42.10846" lon="9.16155">
        <ele>1541.8</ele>
        <time>2015-06-23T07:04:07Z</time>
      </trkpt>
      <trkpt lat="42.10842" lon="9.16112">
        <ele>1540.4</ele>
        <time>2015-06-23T07:04:42Z</time>
      </trkpt>
      <trkpt lat="42.10841" lon="9.16111">
        <ele>1540.4</ele>
        <time>2015-06-23T07:04:44Z</time>
      </trkpt>
      <trkpt lat="42.10841" lon="9.16109">
        <ele>1540.4</ele>
        <time>2015-06-23T07:04:46Z</time>
      </trkpt>
      <trkpt lat="42.1084" lon="9.16107">
        <ele>1540.4</ele>
        <time>2015-06-23T07:04:48Z</time>
      </trkpt>
      <trkpt lat="42.1084" lon="9.16105">
        <ele>1540.2</ele>
        <time>2015-06-23T07:04:50Z</time>
      </trkpt>
      <trkpt lat="42.10838" lon="9.16101">
        <ele>1540.4</ele>
        <time>2015-06-23T07:04:53Z</time>
      </trkpt>
      <trkpt lat="42.10838" lon="9.16099">
        <ele>1540.4</ele>
        <time>2015-06-23T07:04:55Z</time>
      </trkpt>
      <trkpt lat="42.10837" lon="9.16091">
        <ele>1540.4</ele>
        <time>2015-06-23T07:05:01Z</time>
      </trkpt>
      <trkpt lat="42.10838" lon="9.16076">
        <ele>1541.2</ele>
        <time>2015-06-23T07:05:15Z</time>
      </trkpt>
      <trkpt lat="42.10839" lon="9.1607">
        <ele>1541.4</ele>
        <time>2015-06-23T07:05:20Z</time>
      </trkpt>
      <trkpt lat="42.1084" lon="9.16067">
        <ele>1541.4</ele>
        <time>2015-06-23T07:05:22Z</time>
      </trkpt>
      <trkpt lat="42.1084" lon="9.16064">
        <ele>1541.6</ele>
        <time>2015-06-23T07:05:25Z</time>
      </trkpt>
      <trkpt lat="42.10845" lon="9.16004">
        <ele>1540.8</ele>
        <time>2015-06-23T07:06:19Z</time>
      </trkpt>
      <trkpt lat="42.10845" lon="9.15994">
        <ele>1540.6</ele>
        <time>2015-06-23T07:06:28Z</time>
      </trkpt>
      <trkpt lat="42.10851" lon="9.15969">
        <ele>1539.4</ele>
        <time>2015-06-23T07:06:52Z</time>
      </trkpt>
      <trkpt lat="42.10855" lon="9.15949">
        <ele>1538.8</ele>
        <time>2015-06-23T07:07:09Z</time>
      </trkpt>
      <trkpt lat="42.10856" lon="9.15921">
        <ele>1539</ele>
        <time>2015-06-23T07:08:12Z</time>
      </trkpt>
      <trkpt lat="42.10855" lon="9.15891">
        <ele>1538.2</ele>
        <time>2015-06-23T07:08:37Z</time>
      </trkpt>
      <trkpt lat="42.10859" lon="9.15888">
        <ele>1538.4</ele>
        <time>2015-06-23T07:08:41Z</time>
      </trkpt>
      <trkpt lat="42.10875" lon="9.15856">
        <ele>1537.2</ele>
        <time>2015-06-23T07:09:13Z</time>
      </trkpt>
      <trkpt lat="42.10869" lon="9.15834">
        <ele>1536</ele>
        <time>2015-06-23T07:09:31Z</time>
      </trkpt>
      <trkpt lat="42.10869" lon="9.15827">
        <ele>1536</ele>
        <time>2015-06-23T07:09:36Z</time>
      </trkpt>
      <trkpt lat="42.10882" lon="9.15801">
        <ele>1536.2</ele>
        <time>2015-06-23T07:10:14Z</time>
      </trkpt>
      <trkpt lat="42.10892" lon="9.158">
        <ele>1537.6</ele>
        <time>2015-06-23T07:10:25Z</time>
      </trkpt>
      <trkpt lat="42.10899" lon="9.15797">
        <ele>1538.4</ele>
        <time>2015-06-23T07:10:36Z</time>
      </trkpt>
      <trkpt lat="42.10903" lon="9.15788">
        <ele>1539.4</ele>
        <time>2015-06-23T07:10:46Z</time>
      </trkpt>
      <trkpt lat="42.10905" lon="9.15778">
        <ele>1540.4</ele>
        <time>2015-06-23T07:10:55Z</time>
      </trkpt>
      <trkpt lat="42.10909" lon="9.15767">
        <ele>1541.8</ele>
        <time>2015-06-23T07:11:05Z</time>
      </trkpt>
      <trkpt lat="42.10914" lon="9.15756">
        <ele>1542.8</ele>
        <time>2015-06-23T07:11:17Z</time>
      </trkpt>
      <trkpt lat="42.10917" lon="9.15748">
        <ele>1543.6</ele>
        <time>2015-06-23T07:11:25Z</time>
      </trkpt>
      <trkpt lat="42.10919" lon="9.1574">
        <ele>1544.8</ele>
        <time>2015-06-23T07:11:33Z</time>
      </trkpt>
      <trkpt lat="42.10924" lon="9.15732">
        <ele>1546</ele>
        <time>2015-06-23T07:11:43Z</time>
      </trkpt>
      <trkpt lat="42.1093" lon="9.15722">
        <ele>1547</ele>
        <time>2015-06-23T07:11:53Z</time>
      </trkpt>
      <trkpt lat="42.10934" lon="9.15714">
        <ele>1548</ele>
        <time>2015-06-23T07:12:02Z</time>
      </trkpt>
      <trkpt lat="42.10955" lon="9.15701">
        <ele>1549.6</ele>
        <time>2015-06-23T07:13:23Z</time>
      </trkpt>
      <trkpt lat="42.10958" lon="9.15684">
        <ele>1550.8</ele>
        <time>2015-06-23T07:14:21Z</time>
      </trkpt>
      <trkpt lat="42.10964" lon="9.15677">
        <ele>1551.6</ele>
        <time>2015-06-23T07:14:33Z</time>
      </trkpt>
      <trkpt lat="42.10977" lon="9.15674">
        <ele>1552.8</ele>
        <time>2015-06-23T07:14:51Z</time>
      </trkpt>
      <trkpt lat="42.10981" lon="9.15675">
        <ele>1553.4</ele>
        <time>2015-06-23T07:14:57Z</time>
      </trkpt>
      <trkpt lat="42.10985" lon="9.15676">
        <ele>1553.8</ele>
        <time>2015-06-23T07:15:01Z</time>
      </trkpt>
      <trkpt lat="42.10987" lon="9.15677">
        <ele>1554</ele>
        <time>2015-06-23T07:15:03Z</time>
      </trkpt>
      <trkpt lat="42.10994" lon="9.15678">
        <ele>1555</ele>
        <time>2015-06-23T07:15:11Z</time>
      </trkpt>
      <trkpt lat="42.11" lon="9.1568">
        <ele>1555.6</ele>
        <time>2015-06-23T07:15:18Z</time>
      </trkpt>
      <trkpt lat="42.11022" lon="9.15692">
        <ele>1557.4</ele>
        <time>2015-06-23T07:15:55Z</time>
      </trkpt>
      <trkpt lat="42.11036" lon="9.15698">
        <ele>1558.6</ele>
        <time>2015-06-23T07:16:12Z</time>
      </trkpt>
      <trkpt lat="42.11036" lon="9.15699">
        <ele>1558.6</ele>
        <time>2015-06-23T07:16:13Z</time>
      </trkpt>
      <trkpt lat="42.11038" lon="9.15698">
        <ele>1558.6</ele>
        <time>2015-06-23T07:16:14Z</time>
      </trkpt>
      <trkpt lat="42.11044" lon="9.157">
        <ele>1558.8</ele>
        <time>2015-06-23T07:16:21Z</time>
      </trkpt>
      <trkpt lat="42.11049" lon="9.15702">
        <ele>1560</ele>
        <time>2015-06-23T07:16:30Z</time>
      </trkpt>
      <trkpt lat="42.11065" lon="9.15708">
        <ele>1561</ele>
        <time>2015-06-23T07:16:51Z</time>
      </trkpt>
      <trkpt lat="42.11089" lon="9.15732">
        <ele>1562</ele>
        <time>2015-06-23T07:17:25Z</time>
      </trkpt>
      <trkpt lat="42.11095" lon="9.15738">
        <ele>1563.2</ele>
        <time>2015-06-23T07:17:36Z</time>
      </trkpt>
      <trkpt lat="42.11099" lon="9.15743">
        <ele>1563.8</ele>
        <time>2015-06-23T07:17:43Z</time>
      </trkpt>
      <trkpt lat="42.11105" lon="9.1575">
        <ele>1565</ele>
        <time>2015-06-23T07:17:52Z</time>
      </trkpt>
      <trkpt lat="42.11111" lon="9.15752">
        <ele>1566</ele>
        <time>2015-06-23T07:18:01Z</time>
      </trkpt>
      <trkpt lat="42.11116" lon="9.15752">
        <ele>1567.2</ele>
        <time>2015-06-23T07:18:10Z</time>
      </trkpt>
      <trkpt lat="42.1112" lon="9.15755">
        <ele>1568.2</ele>
        <time>2015-06-23T07:18:20Z</time>
      </trkpt>
      <trkpt lat="42.11123" lon="9.15759">
        <ele>1569.4</ele>
        <time>2015-06-23T07:18:28Z</time>
      </trkpt>
      <trkpt lat="42.11126" lon="9.15762">
        <ele>1570.2</ele>
        <time>2015-06-23T07:18:35Z</time>
      </trkpt>
      <trkpt lat="42.11129" lon="9.15765">
        <ele>1571.2</ele>
        <time>2015-06-23T07:18:43Z</time>
      </trkpt>
      <trkpt lat="42.11136" lon="9.15772">
        <ele>1573</ele>
        <time>2015-06-23T07:19:00Z</time>
      </trkpt>
      <trkpt lat="42.11141" lon="9.15775">
        <ele>1573.6</ele>
        <time>2015-06-23T07:19:10Z</time>
      </trkpt>
      <trkpt lat="42.1115" lon="9.15784">
        <ele>1574.8</ele>
        <time>2015-06-23T07:19:25Z</time>
      </trkpt>
      <trkpt lat="42.11154" lon="9.15788">
        <ele>1575.4</ele>
        <time>2015-06-23T07:19:35Z</time>
      </trkpt>
      <trkpt lat="42.11157" lon="9.15792">
        <ele>1576.4</ele>
        <time>2015-06-23T07:19:43Z</time>
      </trkpt>
      <trkpt lat="42.1116" lon="9.15795">
        <ele>1577.2</ele>
        <time>2015-06-23T07:19:49Z</time>
      </trkpt>
      <trkpt lat="42.11164" lon="9.15799">
        <ele>1578.4</ele>
        <time>2015-06-23T07:19:56Z</time>
      </trkpt>
      <trkpt lat="42.1117" lon="9.15803">
        <ele>1580</ele>
        <time>2015-06-23T07:20:07Z</time>
      </trkpt>
      <trkpt lat="42.11177" lon="9.15804">
        <ele>1580.8</ele>
        <time>2015-06-23T07:20:19Z</time>
      </trkpt>
      <trkpt lat="42.11184" lon="9.15805">
        <ele>1581.6</ele>
        <time>2015-06-23T07:20:32Z</time>
      </trkpt>
      <trkpt lat="42.11186" lon="9.15805">
        <ele>1582</ele>
        <time>2015-06-23T07:20:37Z</time>
      </trkpt>
      <trkpt lat="42.11188" lon="9.15806">
        <ele>1583</ele>
        <time>2015-06-23T07:20:42Z</time>
      </trkpt>
      <trkpt lat="42.11189" lon="9.15805">
        <ele>1584.2</ele>
        <time>2015-06-23T07:20:47Z</time>
      </trkpt>
      <trkpt lat="42.11191" lon="9.15804">
        <ele>1585.4</ele>
        <time>2015-06-23T07:20:53Z</time>
      </trkpt>
      <trkpt lat="42.11193" lon="9.15806">
        <ele>1585.8</ele>
        <time>2015-06-23T07:20:58Z</time>
      </trkpt>
      <trkpt lat="42.11199" lon="9.15812">
        <ele>1588</ele>
        <time>2015-06-23T07:21:09Z</time>
      </trkpt>
      <trkpt lat="42.11201" lon="9.15812">
        <ele>1588.2</ele>
        <time>2015-06-23T07:21:12Z</time>
      </trkpt>
      <trkpt lat="42.11204" lon="9.15811">
        <ele>1588.4</ele>
        <time>2015-06-23T07:21:18Z</time>
      </trkpt>
      <trkpt lat="42.1121" lon="9.15813">
        <ele>1589.6</ele>
        <time>2015-06-23T07:21:25Z</time>
      </trkpt>
      <trkpt lat="42.11214" lon="9.15814">
        <ele>1590.6</ele>
        <time>2015-06-23T07:21:31Z</time>
      </trkpt>
      <trkpt lat="42.1122" lon="9.15813">
        <ele>1592</ele>
        <time>2015-06-23T07:21:40Z</time>
      </trkpt>
      <trkpt lat="42.1123" lon="9.15808">
        <ele>1593.4</ele>
        <time>2015-06-23T07:21:55Z</time>
      </trkpt>
      <trkpt lat="42.1124" lon="9.1581">
        <ele>1594.4</ele>
        <time>2015-06-23T07:22:08Z</time>
      </trkpt>
      <trkpt lat="42.11256" lon="9.15805">
        <ele>1595.6</ele>
        <time>2015-06-23T07:22:34Z</time>
      </trkpt>
      <trkpt lat="42.11259" lon="9.15804">
        <ele>1596.2</ele>
        <time>2015-06-23T07:22:39Z</time>
      </trkpt>
      <trkpt lat="42.11263" lon="9.15803">
        <ele>1597.6</ele>
        <time>2015-06-23T07:22:46Z</time>
      </trkpt>
      <trkpt lat="42.11275" lon="9.15798">
        <ele>1599.4</ele>
        <time>2015-06-23T07:23:05Z</time>
      </trkpt>
      <trkpt lat="42.11278" lon="9.15798">
        <ele>1599.6</ele>
        <time>2015-06-23T07:23:11Z</time>
      </trkpt>
      <trkpt lat="42.11288" lon="9.15793">
        <ele>1601</ele>
        <time>2015-06-23T07:23:29Z</time>
      </trkpt>
      <trkpt lat="42.11294" lon="9.15792">
        <ele>1602.2</ele>
        <time>2015-06-23T07:23:39Z</time>
      </trkpt>
      <trkpt lat="42.11306" lon="9.15792">
        <ele>1603</ele>
        <time>2015-06-23T07:23:58Z</time>
      </trkpt>
      <trkpt lat="42.11308" lon="9.15791">
        <ele>1604</ele>
        <time>2015-06-23T07:24:06Z</time>
      </trkpt>
      <trkpt lat="42.11312" lon="9.15788">
        <ele>1605</ele>
        <time>2015-06-23T07:24:13Z</time>
      </trkpt>
      <trkpt lat="42.11319" lon="9.15787">
        <ele>1606.4</ele>
        <time>2015-06-23T07:24:22Z</time>
      </trkpt>
      <trkpt lat="42.11334" lon="9.15782">
        <ele>1607.6</ele>
        <time>2015-06-23T07:24:49Z</time>
      </trkpt>
      <trkpt lat="42.11339" lon="9.15781">
        <ele>1608</ele>
        <time>2015-06-23T07:24:56Z</time>
      </trkpt>
      <trkpt lat="42.11356" lon="9.15777">
        <ele>1609.6</ele>
        <time>2015-06-23T07:25:28Z</time>
      </trkpt>
      <trkpt lat="42.1136" lon="9.15778">
        <ele>1610.2</ele>
        <time>2015-06-23T07:25:35Z</time>
      </trkpt>
      <trkpt lat="42.11364" lon="9.15777">
        <ele>1611</ele>
        <time>2015-06-23T07:25:40Z</time>
      </trkpt>
      <trkpt lat="42.11366" lon="9.15776">
        <ele>1611.8</ele>
        <time>2015-06-23T07:25:44Z</time>
      </trkpt>
      <trkpt lat="42.11374" lon="9.15774">
        <ele>1614</ele>
        <time>2015-06-23T07:26:01Z</time>
      </trkpt>
      <trkpt lat="42.11383" lon="9.15771">
        <ele>1614.8</ele>
        <time>2015-06-23T07:26:14Z</time>
      </trkpt>
      <trkpt lat="42.11395" lon="9.1577">
        <ele>1615.8</ele>
        <time>2015-06-23T07:26:32Z</time>
      </trkpt>
      <trkpt lat="42.11398" lon="9.15768">
        <ele>1616.4</ele>
        <time>2015-06-23T07:26:38Z</time>
      </trkpt>
      <trkpt lat="42.11399" lon="9.15767">
        <ele>1616.4</ele>
        <time>2015-06-23T07:26:40Z</time>
      </trkpt>
      <trkpt lat="42.11399" lon="9.15766">
        <ele>1616.6</ele>
        <time>2015-06-23T07:26:41Z</time>
      </trkpt>
      <trkpt lat="42.11401" lon="9.15765">
        <ele>1617.4</ele>
        <time>2015-06-23T07:26:44Z</time>
      </trkpt>
      <trkpt lat="42.11401" lon="9.15757">
        <ele>1620.4</ele>
        <time>2015-06-23T07:26:58Z</time>
      </trkpt>
      <trkpt lat="42.11402" lon="9.15756">
        <ele>1620.4</ele>
        <time>2015-06-23T07:27:00Z</time>
      </trkpt>
      <trkpt lat="42.11405" lon="9.15752">
        <ele>1621</ele>
        <time>2015-06-23T07:27:09Z</time>
      </trkpt>
      <trkpt lat="42.11405" lon="9.15745">
        <ele>1621</ele>
        <time>2015-06-23T07:27:25Z</time>
      </trkpt>
      <trkpt lat="42.11404" lon="9.15744">
        <ele>1622.2</ele>
        <time>2015-06-23T07:27:34Z</time>
      </trkpt>
      <trkpt lat="42.11407" lon="9.15743">
        <ele>1623.2</ele>
        <time>2015-06-23T07:28:38Z</time>
      </trkpt>
      <trkpt lat="42.11407" lon="9.15739">
        <ele>1622.6</ele>
        <time>2015-06-23T07:28:52Z</time>
      </trkpt>
      <trkpt lat="42.11407" lon="9.15734">
        <ele>1623</ele>
        <time>2015-06-23T07:28:56Z</time>
      </trkpt>
      <trkpt lat="42.1141" lon="9.15718">
        <ele>1623.8</ele>
        <time>2015-06-23T07:29:10Z</time>
      </trkpt>
      <trkpt lat="42.11415" lon="9.1571">
        <ele>1623</ele>
        <time>2015-06-23T07:29:19Z</time>
      </trkpt>
      <trkpt lat="42.11418" lon="9.15703">
        <ele>1622.4</ele>
        <time>2015-06-23T07:29:38Z</time>
      </trkpt>
      <trkpt lat="42.11424" lon="9.15698">
        <ele>1622.8</ele>
        <time>2015-06-23T07:29:48Z</time>
      </trkpt>
      <trkpt lat="42.11431" lon="9.15693">
        <ele>1622.4</ele>
        <time>2015-06-23T07:29:56Z</time>
      </trkpt>
      <trkpt lat="42.11436" lon="9.15689">
        <ele>1622.2</ele>
        <time>2015-06-23T07:30:01Z</time>
      </trkpt>
      <trkpt lat="42.11437" lon="9.15688">
        <ele>1621.8</ele>
        <time>2015-06-23T07:30:03Z</time>
      </trkpt>
      <trkpt lat="42.11439" lon="9.15687">
        <ele>1621.2</ele>
        <time>2015-06-23T07:30:05Z</time>
      </trkpt>
      <trkpt lat="42.1144" lon="9.15685">
        <ele>1620.4</ele>
        <time>2015-06-23T07:30:07Z</time>
      </trkpt>
      <trkpt lat="42.11442" lon="9.15681">
        <ele>1618.4</ele>
        <time>2015-06-23T07:30:11Z</time>
      </trkpt>
      <trkpt lat="42.11442" lon="9.15675">
        <ele>1617.8</ele>
        <time>2015-06-23T07:30:16Z</time>
      </trkpt>
      <trkpt lat="42.11444" lon="9.15673">
        <ele>1617.4</ele>
        <time>2015-06-23T07:30:18Z</time>
      </trkpt>
      <trkpt lat="42.11446" lon="9.15673">
        <ele>1617.4</ele>
        <time>2015-06-23T07:30:20Z</time>
      </trkpt>
      <trkpt lat="42.11446" lon="9.15673">
        <ele>1617</ele>
        <time>2015-06-23T07:30:21Z</time>
      </trkpt>
      <trkpt lat="42.11449" lon="9.15671">
        <ele>1616.8</ele>
        <time>2015-06-23T07:30:25Z</time>
      </trkpt>
      <trkpt lat="42.11452" lon="9.15664">
        <ele>1616.2</ele>
        <time>2015-06-23T07:30:35Z</time>
      </trkpt>
      <trkpt lat="42.11453" lon="9.15663">
        <ele>1616</ele>
        <time>2015-06-23T07:30:36Z</time>
      </trkpt>
      <trkpt lat="42.11454" lon="9.1566">
        <ele>1615.8</ele>
        <time>2015-06-23T07:30:39Z</time>
      </trkpt>
      <trkpt lat="42.11457" lon="9.15647">
        <ele>1612.2</ele>
        <time>2015-06-23T07:30:55Z</time>
      </trkpt>
      <trkpt lat="42.11458" lon="9.15644">
        <ele>1612</ele>
        <time>2015-06-23T07:30:59Z</time>
      </trkpt>
      <trkpt lat="42.1146" lon="9.15629">
        <ele>1609.6</ele>
        <time>2015-06-23T07:31:22Z</time>
      </trkpt>
      <trkpt lat="42.11459" lon="9.15625">
        <ele>1609.8</ele>
        <time>2015-06-23T07:31:25Z</time>
      </trkpt>
      <trkpt lat="42.11459" lon="9.15622">
        <ele>1609</ele>
        <time>2015-06-23T07:31:28Z</time>
      </trkpt>
      <trkpt lat="42.11459" lon="9.15618">
        <ele>1608.2</ele>
        <time>2015-06-23T07:31:31Z</time>
      </trkpt>
      <trkpt lat="42.11459" lon="9.15616">
        <ele>1607.8</ele>
        <time>2015-06-23T07:31:33Z</time>
      </trkpt>
      <trkpt lat="42.11461" lon="9.1561">
        <ele>1606.6</ele>
        <time>2015-06-23T07:31:38Z</time>
      </trkpt>
      <trkpt lat="42.11462" lon="9.15609">
        <ele>1605.8</ele>
        <time>2015-06-23T07:31:40Z</time>
      </trkpt>
      <trkpt lat="42.11463" lon="9.15606">
        <ele>1605</ele>
        <time>2015-06-23T07:31:43Z</time>
      </trkpt>
      <trkpt lat="42.11464" lon="9.15603">
        <ele>1603.6</ele>
        <time>2015-06-23T07:31:46Z</time>
      </trkpt>
      <trkpt lat="42.11465" lon="9.15599">
        <ele>1602.4</ele>
        <time>2015-06-23T07:31:50Z</time>
      </trkpt>
      <trkpt lat="42.11466" lon="9.15597">
        <ele>1602.2</ele>
        <time>2015-06-23T07:31:53Z</time>
      </trkpt>
      <trkpt lat="42.11467" lon="9.15592">
        <ele>1602</ele>
        <time>2015-06-23T07:31:57Z</time>
      </trkpt>
      <trkpt lat="42.11466" lon="9.1558">
        <ele>1602</ele>
        <time>2015-06-23T07:32:08Z</time>
      </trkpt>
      <trkpt lat="42.11466" lon="9.15571">
        <ele>1601.2</ele>
        <time>2015-06-23T07:32:19Z</time>
      </trkpt>
      <trkpt lat="42.11466" lon="9.15564">
        <ele>1601.4</ele>
        <time>2015-06-23T07:32:27Z</time>
      </trkpt>
      <trkpt lat="42.11465" lon="9.1556">
        <ele>1601.4</ele>
        <time>2015-06-23T07:32:31Z</time>
      </trkpt>
      <trkpt lat="42.11461" lon="9.1555">
        <ele>1599.6</ele>
        <time>2015-06-23T07:32:41Z</time>
      </trkpt>
      <trkpt lat="42.1146" lon="9.1554">
        <ele>1598.6</ele>
        <time>2015-06-23T07:32:52Z</time>
      </trkpt>
      <trkpt lat="42.11457" lon="9.15533">
        <ele>1597.6</ele>
        <time>2015-06-23T07:32:59Z</time>
      </trkpt>
      <trkpt lat="42.11456" lon="9.15531">
        <ele>1597.6</ele>
        <time>2015-06-23T07:33:01Z</time>
      </trkpt>
      <trkpt lat="42.11456" lon="9.15529">
        <ele>1597.2</ele>
        <time>2015-06-23T07:33:03Z</time>
      </trkpt>
      <trkpt lat="42.11453" lon="9.1552">
        <ele>1595.4</ele>
        <time>2015-06-23T07:33:13Z</time>
      </trkpt>
      <trkpt lat="42.11452" lon="9.15517">
        <ele>1595</ele>
        <time>2015-06-23T07:33:18Z</time>
      </trkpt>
      <trkpt lat="42.11453" lon="9.15514">
        <ele>1593.8</ele>
        <time>2015-06-23T07:33:23Z</time>
      </trkpt>
      <trkpt lat="42.11452" lon="9.15511">
        <ele>1592.2</ele>
        <time>2015-06-23T07:33:31Z</time>
      </trkpt>
      <trkpt lat="42.11445" lon="9.15486">
        <ele>1591</ele>
        <time>2015-06-23T07:34:07Z</time>
      </trkpt>
      <trkpt lat="42.11444" lon="9.15483">
        <ele>1590.4</ele>
        <time>2015-06-23T07:34:12Z</time>
      </trkpt>
      <trkpt lat="42.11443" lon="9.15479">
        <ele>1589.2</ele>
        <time>2015-06-23T07:34:18Z</time>
      </trkpt>
      <trkpt lat="42.11441" lon="9.15477">
        <ele>1588.4</ele>
        <time>2015-06-23T07:34:23Z</time>
      </trkpt>
      <trkpt lat="42.1144" lon="9.15472">
        <ele>1587.2</ele>
        <time>2015-06-23T07:34:30Z</time>
      </trkpt>
      <trkpt lat="42.11439" lon="9.1547">
        <ele>1586.8</ele>
        <time>2015-06-23T07:34:33Z</time>
      </trkpt>
      <trkpt lat="42.11437" lon="9.15467">
        <ele>1585.8</ele>
        <time>2015-06-23T07:34:37Z</time>
      </trkpt>
      <trkpt lat="42.11426" lon="9.1545">
        <ele>1584</ele>
        <time>2015-06-23T07:34:57Z</time>
      </trkpt>
      <trkpt lat="42.11423" lon="9.15446">
        <ele>1584.8</ele>
        <time>2015-06-23T07:35:03Z</time>
      </trkpt>
      <trkpt lat="42.11419" lon="9.15444">
        <ele>1586.2</ele>
        <time>2015-06-23T07:35:10Z</time>
      </trkpt>
      <trkpt lat="42.11415" lon="9.15442">
        <ele>1586.8</ele>
        <time>2015-06-23T07:35:16Z</time>
      </trkpt>
      <trkpt lat="42.11411" lon="9.15434">
        <ele>1587.4</ele>
        <time>2015-06-23T07:35:25Z</time>
      </trkpt>
      <trkpt lat="42.11408" lon="9.15431">
        <ele>1587.2</ele>
        <time>2015-06-23T07:35:30Z</time>
      </trkpt>
      <trkpt lat="42.11405" lon="9.15429">
        <ele>1586.6</ele>
        <time>2015-06-23T07:35:34Z</time>
      </trkpt>
      <trkpt lat="42.11402" lon="9.15426">
        <ele>1585.6</ele>
        <time>2015-06-23T07:35:38Z</time>
      </trkpt>
      <trkpt lat="42.11396" lon="9.15418">
        <ele>1584</ele>
        <time>2015-06-23T07:35:50Z</time>
      </trkpt>
      <trkpt lat="42.1139" lon="9.15409">
        <ele>1585.4</ele>
        <time>2015-06-23T07:36:01Z</time>
      </trkpt>
      <trkpt lat="42.11388" lon="9.15404">
        <ele>1583.8</ele>
        <time>2015-06-23T07:36:07Z</time>
      </trkpt>
      <trkpt lat="42.11385" lon="9.15401">
        <ele>1582.8</ele>
        <time>2015-06-23T07:36:12Z</time>
      </trkpt>
      <trkpt lat="42.11382" lon="9.15398">
        <ele>1581.8</ele>
        <time>2015-06-23T07:36:17Z</time>
      </trkpt>
      <trkpt lat="42.1137" lon="9.15383">
        <ele>1580</ele>
        <time>2015-06-23T07:36:39Z</time>
      </trkpt>
      <trkpt lat="42.11366" lon="9.15381">
        <ele>1579.6</ele>
        <time>2015-06-23T07:36:43Z</time>
      </trkpt>
      <trkpt lat="42.11365" lon="9.15378">
        <ele>1579.2</ele>
        <time>2015-06-23T07:36:46Z</time>
      </trkpt>
      <trkpt lat="42.11367" lon="9.15378">
        <ele>1578.4</ele>
        <time>2015-06-23T07:36:50Z</time>
      </trkpt>
      <trkpt lat="42.11388" lon="9.15381">
        <ele>1577.6</ele>
        <time>2015-06-23T07:37:22Z</time>
      </trkpt>
      <trkpt lat="42.1139" lon="9.15381">
        <ele>1577.4</ele>
        <time>2015-06-23T07:37:24Z</time>
      </trkpt>
      <trkpt lat="42.11393" lon="9.15385">
        <ele>1573.6</ele>
        <time>2015-06-23T07:37:35Z</time>
      </trkpt>
      <trkpt lat="42.11395" lon="9.15385">
        <ele>1573.2</ele>
        <time>2015-06-23T07:37:42Z</time>
      </trkpt>
      <trkpt lat="42.11403" lon="9.15388">
        <ele>1571.8</ele>
        <time>2015-06-23T07:37:53Z</time>
      </trkpt>
      <trkpt lat="42.11414" lon="9.15387">
        <ele>1570.8</ele>
        <time>2015-06-23T07:38:08Z</time>
      </trkpt>
      <trkpt lat="42.11421" lon="9.15388">
        <ele>1570</ele>
        <time>2015-06-23T07:38:16Z</time>
      </trkpt>
      <trkpt lat="42.11424" lon="9.15388">
        <ele>1569</ele>
        <time>2015-06-23T07:38:24Z</time>
      </trkpt>
      <trkpt lat="42.11427" lon="9.15389">
        <ele>1568.6</ele>
        <time>2015-06-23T07:38:28Z</time>
      </trkpt>
      <trkpt lat="42.11429" lon="9.15388">
        <ele>1566.8</ele>
        <time>2015-06-23T07:38:35Z</time>
      </trkpt>
      <trkpt lat="42.1143" lon="9.15382">
        <ele>1565.6</ele>
        <time>2015-06-23T07:38:42Z</time>
      </trkpt>
      <trkpt lat="42.11431" lon="9.1538">
        <ele>1565.2</ele>
        <time>2015-06-23T07:38:46Z</time>
      </trkpt>
      <trkpt lat="42.11434" lon="9.15379">
        <ele>1563.2</ele>
        <time>2015-06-23T07:38:57Z</time>
      </trkpt>
      <trkpt lat="42.11435" lon="9.15379">
        <ele>1563</ele>
        <time>2015-06-23T07:39:00Z</time>
      </trkpt>
      <trkpt lat="42.11436" lon="9.15378">
        <ele>1562.2</ele>
        <time>2015-06-23T07:39:03Z</time>
      </trkpt>
      <trkpt lat="42.1144" lon="9.15377">
        <ele>1559.6</ele>
        <time>2015-06-23T07:39:10Z</time>
      </trkpt>
      <trkpt lat="42.1144" lon="9.15375">
        <ele>1559.4</ele>
        <time>2015-06-23T07:39:13Z</time>
      </trkpt>
      <trkpt lat="42.1143" lon="9.15363">
        <ele>1557.8</ele>
        <time>2015-06-23T07:39:35Z</time>
      </trkpt>
      <trkpt lat="42.11417" lon="9.15344">
        <ele>1557.8</ele>
        <time>2015-06-23T07:40:00Z</time>
      </trkpt>
      <trkpt lat="42.11413" lon="9.15337">
        <ele>1557.2</ele>
        <time>2015-06-23T07:40:08Z</time>
      </trkpt>
      <trkpt lat="42.11412" lon="9.15325">
        <ele>1556</ele>
        <time>2015-06-23T07:40:35Z</time>
      </trkpt>
      <trkpt lat="42.11418" lon="9.15327">
        <ele>1555</ele>
        <time>2015-06-23T07:40:41Z</time>
      </trkpt>
      <trkpt lat="42.11424" lon="9.1533">
        <ele>1553.8</ele>
        <time>2015-06-23T07:40:48Z</time>
      </trkpt>
      <trkpt lat="42.11428" lon="9.15331">
        <ele>1553</ele>
        <time>2015-06-23T07:40:54Z</time>
      </trkpt>
      <trkpt lat="42.11437" lon="9.15334">
        <ele>1551.4</ele>
        <time>2015-06-23T07:41:10Z</time>
      </trkpt>
      <trkpt lat="42.11441" lon="9.15334">
        <ele>1550.4</ele>
        <time>2015-06-23T07:41:18Z</time>
      </trkpt>
      <trkpt lat="42.11443" lon="9.1533">
        <ele>1549.6</ele>
        <time>2015-06-23T07:41:26Z</time>
      </trkpt>
      <trkpt lat="42.11446" lon="9.15326">
        <ele>1548.8</ele>
        <time>2015-06-23T07:41:32Z</time>
      </trkpt>
      <trkpt lat="42.11446" lon="9.15324">
        <ele>1548.4</ele>
        <time>2015-06-23T07:41:35Z</time>
      </trkpt>
      <trkpt lat="42.11444" lon="9.15321">
        <ele>1547.2</ele>
        <time>2015-06-23T07:41:39Z</time>
      </trkpt>
      <trkpt lat="42.11449" lon="9.15318">
        <ele>1545.2</ele>
        <time>2015-06-23T07:41:46Z</time>
      </trkpt>
      <trkpt lat="42.11452" lon="9.15318">
        <ele>1544.6</ele>
        <time>2015-06-23T07:41:50Z</time>
      </trkpt>
      <trkpt lat="42.11457" lon="9.15309">
        <ele>1542.6</ele>
        <time>2015-06-23T07:42:05Z</time>
      </trkpt>
      <trkpt lat="42.11459" lon="9.15308">
        <ele>1542.6</ele>
        <time>2015-06-23T07:42:08Z</time>
      </trkpt>
      <trkpt lat="42.11462" lon="9.15308">
        <ele>1541.8</ele>
        <time>2015-06-23T07:42:12Z</time>
      </trkpt>
      <trkpt lat="42.11466" lon="9.15304">
        <ele>1539.8</ele>
        <time>2015-06-23T07:42:20Z</time>
      </trkpt>
      <trkpt lat="42.1147" lon="9.15303">
        <ele>1539.2</ele>
        <time>2015-06-23T07:42:24Z</time>
      </trkpt>
      <trkpt lat="42.11471" lon="9.15304">
        <ele>1538.8</ele>
        <time>2015-06-23T07:42:26Z</time>
      </trkpt>
      <trkpt lat="42.11473" lon="9.15304">
        <ele>1538.2</ele>
        <time>2015-06-23T07:42:29Z</time>
      </trkpt>
      <trkpt lat="42.11472" lon="9.15297">
        <ele>1534.8</ele>
        <time>2015-06-23T07:42:38Z</time>
      </trkpt>
      <trkpt lat="42.11469" lon="9.15291">
        <ele>1534</ele>
        <time>2015-06-23T07:42:44Z</time>
      </trkpt>
      <trkpt lat="42.11466" lon="9.15282">
        <ele>1532.4</ele>
        <time>2015-06-23T07:42:53Z</time>
      </trkpt>
      <trkpt lat="42.11458" lon="9.15259">
        <ele>1530.8</ele>
        <time>2015-06-23T07:43:21Z</time>
      </trkpt>
      <trkpt lat="42.11458" lon="9.15254">
        <ele>1530.4</ele>
        <time>2015-06-23T07:43:27Z</time>
      </trkpt>
      <trkpt lat="42.11459" lon="9.15251">
        <ele>1529.6</ele>
        <time>2015-06-23T07:43:32Z</time>
      </trkpt>
      <trkpt lat="42.11459" lon="9.15248">
        <ele>1529.2</ele>
        <time>2015-06-23T07:43:35Z</time>
      </trkpt>
      <trkpt lat="42.11461" lon="9.15243">
        <ele>1527.2</ele>
        <time>2015-06-23T07:43:41Z</time>
      </trkpt>
      <trkpt lat="42.11463" lon="9.15239">
        <ele>1526</ele>
        <time>2015-06-23T07:43:48Z</time>
      </trkpt>
      <trkpt lat="42.11465" lon="9.15236">
        <ele>1525.4</ele>
        <time>2015-06-23T07:43:51Z</time>
      </trkpt>
      <trkpt lat="42.11466" lon="9.15233">
        <ele>1525</ele>
        <time>2015-06-23T07:43:55Z</time>
      </trkpt>
      <trkpt lat="42.11474" lon="9.15206">
        <ele>1524</ele>
        <time>2015-06-23T07:44:24Z</time>
      </trkpt>
      <trkpt lat="42.11478" lon="9.15197">
        <ele>1522.6</ele>
        <time>2015-06-23T07:44:33Z</time>
      </trkpt>
      <trkpt lat="42.11481" lon="9.15188">
        <ele>1521.4</ele>
        <time>2015-06-23T07:44:44Z</time>
      </trkpt>
      <trkpt lat="42.11484" lon="9.15182">
        <ele>1521</ele>
        <time>2015-06-23T07:44:51Z</time>
      </trkpt>
      <trkpt lat="42.11485" lon="9.1518">
        <ele>1520.6</ele>
        <time>2015-06-23T07:44:54Z</time>
      </trkpt>
      <trkpt lat="42.11486" lon="9.15177">
        <ele>1520.4</ele>
        <time>2015-06-23T07:44:58Z</time>
      </trkpt>
      <trkpt lat="42.11488" lon="9.15172">
        <ele>1518.2</ele>
        <time>2015-06-23T07:45:08Z</time>
      </trkpt>
      <trkpt lat="42.11489" lon="9.15168">
        <ele>1517.8</ele>
        <time>2015-06-23T07:45:25Z</time>
      </trkpt>
      <trkpt lat="42.11494" lon="9.1516">
        <ele>1518.8</ele>
        <time>2015-06-23T07:45:37Z</time>
      </trkpt>
      <trkpt lat="42.11497" lon="9.15156">
        <ele>1518.2</ele>
        <time>2015-06-23T07:45:42Z</time>
      </trkpt>
      <trkpt lat="42.11501" lon="9.15152">
        <ele>1517</ele>
        <time>2015-06-23T07:45:49Z</time>
      </trkpt>
      <trkpt lat="42.11503" lon="9.15149">
        <ele>1516.4</ele>
        <time>2015-06-23T07:45:54Z</time>
      </trkpt>
      <trkpt lat="42.11509" lon="9.15144">
        <ele>1514.6</ele>
        <time>2015-06-23T07:46:03Z</time>
      </trkpt>
      <trkpt lat="42.11515" lon="9.15137">
        <ele>1513.6</ele>
        <time>2015-06-23T07:46:12Z</time>
      </trkpt>
      <trkpt lat="42.1152" lon="9.1513">
        <ele>1512.8</ele>
        <time>2015-06-23T07:46:21Z</time>
      </trkpt>
      <trkpt lat="42.11526" lon="9.1512">
        <ele>1511.6</ele>
        <time>2015-06-23T07:46:32Z</time>
      </trkpt>
      <trkpt lat="42.11528" lon="9.15115">
        <ele>1510.8</ele>
        <time>2015-06-23T07:46:40Z</time>
      </trkpt>
      <trkpt lat="42.11533" lon="9.15112">
        <ele>1510.2</ele>
        <time>2015-06-23T07:46:45Z</time>
      </trkpt>
      <trkpt lat="42.11537" lon="9.15108">
        <ele>1509.8</ele>
        <time>2015-06-23T07:46:51Z</time>
      </trkpt>
      <trkpt lat="42.11542" lon="9.15102">
        <ele>1508.8</ele>
        <time>2015-06-23T07:46:59Z</time>
      </trkpt>
      <trkpt lat="42.11549" lon="9.15087">
        <ele>1507.6</ele>
        <time>2015-06-23T07:47:19Z</time>
      </trkpt>
      <trkpt lat="42.11551" lon="9.15083">
        <ele>1506.6</ele>
        <time>2015-06-23T07:47:27Z</time>
      </trkpt>
      <trkpt lat="42.11557" lon="9.15073">
        <ele>1505.8</ele>
        <time>2015-06-23T07:47:40Z</time>
      </trkpt>
      <trkpt lat="42.11562" lon="9.15065">
        <ele>1504.8</ele>
        <time>2015-06-23T07:47:47Z</time>
      </trkpt>
      <trkpt lat="42.11566" lon="9.15061">
        <ele>1504</ele>
        <time>2015-06-23T07:47:53Z</time>
      </trkpt>
      <trkpt lat="42.11571" lon="9.15056">
        <ele>1502.8</ele>
        <time>2015-06-23T07:48:00Z</time>
      </trkpt>
      <trkpt lat="42.11575" lon="9.1505">
        <ele>1501.8</ele>
        <time>2015-06-23T07:48:08Z</time>
      </trkpt>
      <trkpt lat="42.11579" lon="9.15048">
        <ele>1501.2</ele>
        <time>2015-06-23T07:48:13Z</time>
      </trkpt>
      <trkpt lat="42.1158" lon="9.15047">
        <ele>1500.8</ele>
        <time>2015-06-23T07:48:15Z</time>
      </trkpt>
      <trkpt lat="42.11582" lon="9.15042">
        <ele>1499.6</ele>
        <time>2015-06-23T07:48:21Z</time>
      </trkpt>
      <trkpt lat="42.11588" lon="9.15034">
        <ele>1498</ele>
        <time>2015-06-23T07:48:36Z</time>
      </trkpt>
      <trkpt lat="42.1159" lon="9.15031">
        <ele>1497.6</ele>
        <time>2015-06-23T07:48:43Z</time>
      </trkpt>
      <trkpt lat="42.11593" lon="9.15029">
        <ele>1496.8</ele>
        <time>2015-06-23T07:48:48Z</time>
      </trkpt>
      <trkpt lat="42.11596" lon="9.15025">
        <ele>1495.4</ele>
        <time>2015-06-23T07:48:54Z</time>
      </trkpt>
      <trkpt lat="42.11601" lon="9.1502">
        <ele>1494</ele>
        <time>2015-06-23T07:49:01Z</time>
      </trkpt>
      <trkpt lat="42.11603" lon="9.15018">
        <ele>1493.8</ele>
        <time>2015-06-23T07:49:03Z</time>
      </trkpt>
      <trkpt lat="42.11606" lon="9.15015">
        <ele>1493</ele>
        <time>2015-06-23T07:49:08Z</time>
      </trkpt>
      <trkpt lat="42.11609" lon="9.15008">
        <ele>1491.8</ele>
        <time>2015-06-23T07:49:16Z</time>
      </trkpt>
      <trkpt lat="42.11613" lon="9.15006">
        <ele>1491.6</ele>
        <time>2015-06-23T07:49:19Z</time>
      </trkpt>
      <trkpt lat="42.11623" lon="9.14994">
        <ele>1491.4</ele>
        <time>2015-06-23T07:49:30Z</time>
      </trkpt>
      <trkpt lat="42.11625" lon="9.1499">
        <ele>1491.2</ele>
        <time>2015-06-23T07:49:34Z</time>
      </trkpt>
      <trkpt lat="42.11627" lon="9.14988">
        <ele>1490.8</ele>
        <time>2015-06-23T07:49:37Z</time>
      </trkpt>
      <trkpt lat="42.11628" lon="9.14987">
        <ele>1490.6</ele>
        <time>2015-06-23T07:49:38Z</time>
      </trkpt>
      <trkpt lat="42.11629" lon="9.14985">
        <ele>1490.4</ele>
        <time>2015-06-23T07:49:40Z</time>
      </trkpt>
      <trkpt lat="42.11632" lon="9.14984">
        <ele>1490</ele>
        <time>2015-06-23T07:49:42Z</time>
      </trkpt>
      <trkpt lat="42.11639" lon="9.14978">
        <ele>1489.2</ele>
        <time>2015-06-23T07:49:49Z</time>
      </trkpt>
      <trkpt lat="42.11643" lon="9.14967">
        <ele>1488.6</ele>
        <time>2015-06-23T07:49:58Z</time>
      </trkpt>
      <trkpt lat="42.11644" lon="9.14962">
        <ele>1488</ele>
        <time>2015-06-23T07:50:04Z</time>
      </trkpt>
      <trkpt lat="42.11648" lon="9.14958">
        <ele>1487.2</ele>
        <time>2015-06-23T07:50:08Z</time>
      </trkpt>
      <trkpt lat="42.11652" lon="9.14954">
        <ele>1486.4</ele>
        <time>2015-06-23T07:50:13Z</time>
      </trkpt>
      <trkpt lat="42.11659" lon="9.1495">
        <ele>1485.6</ele>
        <time>2015-06-23T07:50:19Z</time>
      </trkpt>
      <trkpt lat="42.11663" lon="9.14945">
        <ele>1484.6</ele>
        <time>2015-06-23T07:50:26Z</time>
      </trkpt>
      <trkpt lat="42.11666" lon="9.1494">
        <ele>1483.2</ele>
        <time>2015-06-23T07:50:33Z</time>
      </trkpt>
      <trkpt lat="42.11667" lon="9.14934">
        <ele>1482.2</ele>
        <time>2015-06-23T07:50:40Z</time>
      </trkpt>
      <trkpt lat="42.1167" lon="9.14928">
        <ele>1480.8</ele>
        <time>2015-06-23T07:50:47Z</time>
      </trkpt>
      <trkpt lat="42.11673" lon="9.14926">
        <ele>1480.4</ele>
        <time>2015-06-23T07:50:50Z</time>
      </trkpt>
      <trkpt lat="42.11677" lon="9.1492">
        <ele>1480.2</ele>
        <time>2015-06-23T07:50:56Z</time>
      </trkpt>
      <trkpt lat="42.11679" lon="9.1492">
        <ele>1480</ele>
        <time>2015-06-23T07:50:57Z</time>
      </trkpt>
      <trkpt lat="42.11681" lon="9.14917">
        <ele>1479.6</ele>
        <time>2015-06-23T07:51:00Z</time>
      </trkpt>
      <trkpt lat="42.11686" lon="9.14914">
        <ele>1479</ele>
        <time>2015-06-23T07:51:04Z</time>
      </trkpt>
      <trkpt lat="42.11688" lon="9.14912">
        <ele>1478.6</ele>
        <time>2015-06-23T07:51:07Z</time>
      </trkpt>
      <trkpt lat="42.11693" lon="9.14903">
        <ele>1477.8</ele>
        <time>2015-06-23T07:51:15Z</time>
      </trkpt>
      <trkpt lat="42.11693" lon="9.14903">
        <ele>1477.8</ele>
        <time>2015-06-23T07:51:16Z</time>
      </trkpt>
      <trkpt lat="42.11697" lon="9.14894">
        <ele>1476.8</ele>
        <time>2015-06-23T07:51:25Z</time>
      </trkpt>
      <trkpt lat="42.117" lon="9.14888">
        <ele>1476</ele>
        <time>2015-06-23T07:51:31Z</time>
      </trkpt>
      <trkpt lat="42.11704" lon="9.14881">
        <ele>1475.2</ele>
        <time>2015-06-23T07:51:37Z</time>
      </trkpt>
      <trkpt lat="42.11712" lon="9.14867">
        <ele>1473.2</ele>
        <time>2015-06-23T07:51:55Z</time>
      </trkpt>
      <trkpt lat="42.11714" lon="9.1486">
        <ele>1473.4</ele>
        <time>2015-06-23T07:52:55Z</time>
      </trkpt>
      <trkpt lat="42.11716" lon="9.14862">
        <ele>1473</ele>
        <time>2015-06-23T07:54:19Z</time>
      </trkpt>
      <trkpt lat="42.11726" lon="9.14841">
        <ele>1471.8</ele>
        <time>2015-06-23T07:54:40Z</time>
      </trkpt>
      <trkpt lat="42.11734" lon="9.14825">
        <ele>1471.6</ele>
        <time>2015-06-23T07:54:54Z</time>
      </trkpt>
      <trkpt lat="42.11737" lon="9.14817">
        <ele>1470.6</ele>
        <time>2015-06-23T07:55:01Z</time>
      </trkpt>
      <trkpt lat="42.11739" lon="9.14814">
        <ele>1470</ele>
        <time>2015-06-23T07:55:05Z</time>
      </trkpt>
      <trkpt lat="42.11744" lon="9.148">
        <ele>1468.4</ele>
        <time>2015-06-23T07:55:16Z</time>
      </trkpt>
      <trkpt lat="42.11747" lon="9.1479">
        <ele>1467.6</ele>
        <time>2015-06-23T07:55:24Z</time>
      </trkpt>
      <trkpt lat="42.11749" lon="9.14784">
        <ele>1466.8</ele>
        <time>2015-06-23T07:55:30Z</time>
      </trkpt>
      <trkpt lat="42.11751" lon="9.14775">
        <ele>1465.4</ele>
        <time>2015-06-23T07:55:37Z</time>
      </trkpt>
      <trkpt lat="42.11753" lon="9.14767">
        <ele>1464.8</ele>
        <time>2015-06-23T07:55:43Z</time>
      </trkpt>
      <trkpt lat="42.11754" lon="9.14761">
        <ele>1463.8</ele>
        <time>2015-06-23T07:55:48Z</time>
      </trkpt>
      <trkpt lat="42.11754" lon="9.1476">
        <ele>1464</ele>
        <time>2015-06-23T07:55:49Z</time>
      </trkpt>
      <trkpt lat="42.1175" lon="9.1474">
        <ele>1462.4</ele>
        <time>2015-06-23T07:56:05Z</time>
      </trkpt>
      <trkpt lat="42.11749" lon="9.14734">
        <ele>1462</ele>
        <time>2015-06-23T07:56:10Z</time>
      </trkpt>
      <trkpt lat="42.11748" lon="9.14732">
        <ele>1461.4</ele>
        <time>2015-06-23T07:56:33Z</time>
      </trkpt>
      <trkpt lat="42.1175" lon="9.14736">
        <ele>1461.2</ele>
        <time>2015-06-23T07:56:42Z</time>
      </trkpt>
      <trkpt lat="42.11741" lon="9.14723">
        <ele>1461</ele>
        <time>2015-06-23T07:57:12Z</time>
      </trkpt>
      <trkpt lat="42.11739" lon="9.14719">
        <ele>1460.8</ele>
        <time>2015-06-23T07:57:17Z</time>
      </trkpt>
      <trkpt lat="42.11737" lon="9.14718">
        <ele>1460.4</ele>
        <time>2015-06-23T07:57:21Z</time>
      </trkpt>
      <trkpt lat="42.11734" lon="9.14714">
        <ele>1459.8</ele>
        <time>2015-06-23T07:57:26Z</time>
      </trkpt>
      <trkpt lat="42.11728" lon="9.1471">
        <ele>1457.6</ele>
        <time>2015-06-23T07:57:47Z</time>
      </trkpt>
      <trkpt lat="42.11728" lon="9.14711">
        <ele>1457</ele>
        <time>2015-06-23T07:58:01Z</time>
      </trkpt>
      <trkpt lat="42.1173" lon="9.14711">
        <ele>1457</ele>
        <time>2015-06-23T07:58:22Z</time>
      </trkpt>
      <trkpt lat="42.11729" lon="9.14712">
        <ele>1457.4</ele>
        <time>2015-06-23T07:58:26Z</time>
      </trkpt>
      <trkpt lat="42.11728" lon="9.14711">
        <ele>1458</ele>
        <time>2015-06-23T07:58:35Z</time>
      </trkpt>
      <trkpt lat="42.11726" lon="9.14704">
        <ele>1457</ele>
        <time>2015-06-23T07:59:10Z</time>
      </trkpt>
      <trkpt lat="42.11726" lon="9.14697">
        <ele>1456.6</ele>
        <time>2015-06-23T07:59:17Z</time>
      </trkpt>
      <trkpt lat="42.11724" lon="9.14689">
        <ele>1455.2</ele>
        <time>2015-06-23T07:59:25Z</time>
      </trkpt>
      <trkpt lat="42.11724" lon="9.14688">
        <ele>1455</ele>
        <time>2015-06-23T07:59:26Z</time>
      </trkpt>
      <trkpt lat="42.11721" lon="9.14683">
        <ele>1454.6</ele>
        <time>2015-06-23T07:59:30Z</time>
      </trkpt>
      <trkpt lat="42.11718" lon="9.14678">
        <ele>1454.2</ele>
        <time>2015-06-23T07:59:35Z</time>
      </trkpt>
      <trkpt lat="42.11717" lon="9.14673">
        <ele>1454.2</ele>
        <time>2015-06-23T07:59:38Z</time>
      </trkpt>
      <trkpt lat="42.1171" lon="9.14646">
        <ele>1452.8</ele>
        <time>2015-06-23T07:59:59Z</time>
      </trkpt>
      <trkpt lat="42.11709" lon="9.14645">
        <ele>1452.8</ele>
        <time>2015-06-23T08:00:00Z</time>
      </trkpt>
      <trkpt lat="42.11706" lon="9.14641">
        <ele>1452.6</ele>
        <time>2015-06-23T08:00:05Z</time>
      </trkpt>
      <trkpt lat="42.11706" lon="9.1464">
        <ele>1452.6</ele>
        <time>2015-06-23T08:00:06Z</time>
      </trkpt>
      <trkpt lat="42.11703" lon="9.14638">
        <ele>1451.4</ele>
        <time>2015-06-23T08:00:10Z</time>
      </trkpt>
      <trkpt lat="42.11702" lon="9.14637">
        <ele>1451.4</ele>
        <time>2015-06-23T08:00:11Z</time>
      </trkpt>
      <trkpt lat="42.11694" lon="9.14627">
        <ele>1449.8</ele>
        <time>2015-06-23T08:00:19Z</time>
      </trkpt>
      <trkpt lat="42.11687" lon="9.14608">
        <ele>1448.6</ele>
        <time>2015-06-23T08:00:33Z</time>
      </trkpt>
      <trkpt lat="42.11683" lon="9.14599">
        <ele>1448</ele>
        <time>2015-06-23T08:00:39Z</time>
      </trkpt>
      <trkpt lat="42.1168" lon="9.14588">
        <ele>1446.6</ele>
        <time>2015-06-23T08:00:50Z</time>
      </trkpt>
      <trkpt lat="42.11679" lon="9.1458">
        <ele>1446</ele>
        <time>2015-06-23T08:00:56Z</time>
      </trkpt>
      <trkpt lat="42.11677" lon="9.14574">
        <ele>1444.8</ele>
        <time>2015-06-23T08:01:02Z</time>
      </trkpt>
      <trkpt lat="42.11677" lon="9.14568">
        <ele>1444</ele>
        <time>2015-06-23T08:01:07Z</time>
      </trkpt>
      <trkpt lat="42.11677" lon="9.14566">
        <ele>1443.8</ele>
        <time>2015-06-23T08:01:08Z</time>
      </trkpt>
      <trkpt lat="42.11677" lon="9.14563">
        <ele>1443.4</ele>
        <time>2015-06-23T08:01:10Z</time>
      </trkpt>
      <trkpt lat="42.11677" lon="9.14561">
        <ele>1443</ele>
        <time>2015-06-23T08:01:12Z</time>
      </trkpt>
      <trkpt lat="42.11678" lon="9.14559">
        <ele>1442.8</ele>
        <time>2015-06-23T08:01:13Z</time>
      </trkpt>
      <trkpt lat="42.11677" lon="9.14552">
        <ele>1441.8</ele>
        <time>2015-06-23T08:01:18Z</time>
      </trkpt>
      <trkpt lat="42.11676" lon="9.14544">
        <ele>1440.2</ele>
        <time>2015-06-23T08:01:24Z</time>
      </trkpt>
      <trkpt lat="42.11676" lon="9.14537">
        <ele>1439</ele>
        <time>2015-06-23T08:01:31Z</time>
      </trkpt>
      <trkpt lat="42.11676" lon="9.14534">
        <ele>1438.6</ele>
        <time>2015-06-23T08:01:35Z</time>
      </trkpt>
      <trkpt lat="42.11676" lon="9.14527">
        <ele>1437</ele>
        <time>2015-06-23T08:01:41Z</time>
      </trkpt>
      <trkpt lat="42.11675" lon="9.14522">
        <ele>1436.6</ele>
        <time>2015-06-23T08:01:45Z</time>
      </trkpt>
      <trkpt lat="42.11675" lon="9.1452">
        <ele>1435.8</ele>
        <time>2015-06-23T08:01:47Z</time>
      </trkpt>
      <trkpt lat="42.11675" lon="9.14517">
        <ele>1435.2</ele>
        <time>2015-06-23T08:01:50Z</time>
      </trkpt>
      <trkpt lat="42.11677" lon="9.14514">
        <ele>1434.6</ele>
        <time>2015-06-23T08:01:54Z</time>
      </trkpt>
      <trkpt lat="42.11679" lon="9.14506">
        <ele>1432.4</ele>
        <time>2015-06-23T08:02:02Z</time>
      </trkpt>
      <trkpt lat="42.11678" lon="9.14503">
        <ele>1432.2</ele>
        <time>2015-06-23T08:02:04Z</time>
      </trkpt>
      <trkpt lat="42.11676" lon="9.14499">
        <ele>1432</ele>
        <time>2015-06-23T08:02:07Z</time>
      </trkpt>
      <trkpt lat="42.11676" lon="9.14497">
        <ele>1432</ele>
        <time>2015-06-23T08:02:08Z</time>
      </trkpt>
      <trkpt lat="42.11675" lon="9.14495">
        <ele>1431</ele>
        <time>2015-06-23T08:02:11Z</time>
      </trkpt>
      <trkpt lat="42.11674" lon="9.14493">
        <ele>1430.4</ele>
        <time>2015-06-23T08:02:13Z</time>
      </trkpt>
      <trkpt lat="42.11671" lon="9.14489">
        <ele>1428.6</ele>
        <time>2015-06-23T08:02:21Z</time>
      </trkpt>
      <trkpt lat="42.11668" lon="9.14487">
        <ele>1428.4</ele>
        <time>2015-06-23T08:02:24Z</time>
      </trkpt>
      <trkpt lat="42.11666" lon="9.14488">
        <ele>1428</ele>
        <time>2015-06-23T08:02:27Z</time>
      </trkpt>
      <trkpt lat="42.11662" lon="9.14486">
        <ele>1427.2</ele>
        <time>2015-06-23T08:02:31Z</time>
      </trkpt>
      <trkpt lat="42.11659" lon="9.14485">
        <ele>1427</ele>
        <time>2015-06-23T08:02:34Z</time>
      </trkpt>
      <trkpt lat="42.11658" lon="9.14486">
        <ele>1425.8</ele>
        <time>2015-06-23T08:02:37Z</time>
      </trkpt>
      <trkpt lat="42.11656" lon="9.14486">
        <ele>1424.8</ele>
        <time>2015-06-23T08:02:44Z</time>
      </trkpt>
      <trkpt lat="42.11653" lon="9.14489">
        <ele>1424</ele>
        <time>2015-06-23T08:02:49Z</time>
      </trkpt>
      <trkpt lat="42.11646" lon="9.14492">
        <ele>1422.4</ele>
        <time>2015-06-23T08:02:58Z</time>
      </trkpt>
      <trkpt lat="42.11644" lon="9.14492">
        <ele>1422.4</ele>
        <time>2015-06-23T08:02:59Z</time>
      </trkpt>
      <trkpt lat="42.11643" lon="9.14492">
        <ele>1422.2</ele>
        <time>2015-06-23T08:03:00Z</time>
      </trkpt>
      <trkpt lat="42.11634" lon="9.1449">
        <ele>1421.2</ele>
        <time>2015-06-23T08:03:07Z</time>
      </trkpt>
      <trkpt lat="42.11626" lon="9.14486">
        <ele>1420.2</ele>
        <time>2015-06-23T08:03:17Z</time>
      </trkpt>
      <trkpt lat="42.11619" lon="9.14483">
        <ele>1419</ele>
        <time>2015-06-23T08:03:25Z</time>
      </trkpt>
      <trkpt lat="42.11609" lon="9.1448">
        <ele>1417.8</ele>
        <time>2015-06-23T08:03:35Z</time>
      </trkpt>
      <trkpt lat="42.11606" lon="9.14477">
        <ele>1417.4</ele>
        <time>2015-06-23T08:03:39Z</time>
      </trkpt>
      <trkpt lat="42.11604" lon="9.14476">
        <ele>1417</ele>
        <time>2015-06-23T08:03:41Z</time>
      </trkpt>
      <trkpt lat="42.11603" lon="9.14476">
        <ele>1416.6</ele>
        <time>2015-06-23T08:03:43Z</time>
      </trkpt>
      <trkpt lat="42.11597" lon="9.14478">
        <ele>1414.6</ele>
        <time>2015-06-23T08:03:51Z</time>
      </trkpt>
      <trkpt lat="42.11591" lon="9.1448">
        <ele>1413.4</ele>
        <time>2015-06-23T08:04:00Z</time>
      </trkpt>
      <trkpt lat="42.11589" lon="9.14478">
        <ele>1412.8</ele>
        <time>2015-06-23T08:04:05Z</time>
      </trkpt>
      <trkpt lat="42.11585" lon="9.14477">
        <ele>1412.6</ele>
        <time>2015-06-23T08:04:07Z</time>
      </trkpt>
      <trkpt lat="42.11584" lon="9.14477">
        <ele>1411.8</ele>
        <time>2015-06-23T08:04:09Z</time>
      </trkpt>
      <trkpt lat="42.1158" lon="9.14476">
        <ele>1411.6</ele>
        <time>2015-06-23T08:04:11Z</time>
      </trkpt>
      <trkpt lat="42.11577" lon="9.14474">
        <ele>1411.2</ele>
        <time>2015-06-23T08:04:15Z</time>
      </trkpt>
      <trkpt lat="42.11573" lon="9.14473">
        <ele>1410.8</ele>
        <time>2015-06-23T08:04:18Z</time>
      </trkpt>
      <trkpt lat="42.11571" lon="9.14471">
        <ele>1410.6</ele>
        <time>2015-06-23T08:04:20Z</time>
      </trkpt>
      <trkpt lat="42.11571" lon="9.1447">
        <ele>1410.6</ele>
        <time>2015-06-23T08:04:21Z</time>
      </trkpt>
      <trkpt lat="42.1157" lon="9.14468">
        <ele>1410.6</ele>
        <time>2015-06-23T08:04:22Z</time>
      </trkpt>
      <trkpt lat="42.11571" lon="9.14467">
        <ele>1410.4</ele>
        <time>2015-06-23T08:04:24Z</time>
      </trkpt>
      <trkpt lat="42.11576" lon="9.14463">
        <ele>1409.8</ele>
        <time>2015-06-23T08:04:32Z</time>
      </trkpt>
      <trkpt lat="42.11579" lon="9.1446">
        <ele>1409.2</ele>
        <time>2015-06-23T08:04:37Z</time>
      </trkpt>
      <trkpt lat="42.11581" lon="9.14457">
        <ele>1408.2</ele>
        <time>2015-06-23T08:04:42Z</time>
      </trkpt>
      <trkpt lat="42.11585" lon="9.14454">
        <ele>1406.8</ele>
        <time>2015-06-23T08:04:48Z</time>
      </trkpt>
      <trkpt lat="42.11588" lon="9.14451">
        <ele>1405.6</ele>
        <time>2015-06-23T08:04:54Z</time>
      </trkpt>
      <trkpt lat="42.11593" lon="9.14447">
        <ele>1403.8</ele>
        <time>2015-06-23T08:05:03Z</time>
      </trkpt>
      <trkpt lat="42.11595" lon="9.14441">
        <ele>1403</ele>
        <time>2015-06-23T08:05:11Z</time>
      </trkpt>
      <trkpt lat="42.11596" lon="9.14439">
        <ele>1402.6</ele>
        <time>2015-06-23T08:05:15Z</time>
      </trkpt>
      <trkpt lat="42.116" lon="9.14438">
        <ele>1400.6</ele>
        <time>2015-06-23T08:05:25Z</time>
      </trkpt>
      <trkpt lat="42.11603" lon="9.14436">
        <ele>1400</ele>
        <time>2015-06-23T08:05:30Z</time>
      </trkpt>
      <trkpt lat="42.11607" lon="9.14434">
        <ele>1398.4</ele>
        <time>2015-06-23T08:05:37Z</time>
      </trkpt>
      <trkpt lat="42.11606" lon="9.14429">
        <ele>1397.4</ele>
        <time>2015-06-23T08:05:43Z</time>
      </trkpt>
      <trkpt lat="42.11605" lon="9.14426">
        <ele>1397.2</ele>
        <time>2015-06-23T08:05:45Z</time>
      </trkpt>
      <trkpt lat="42.11606" lon="9.14425">
        <ele>1396.6</ele>
        <time>2015-06-23T08:05:48Z</time>
      </trkpt>
      <trkpt lat="42.11608" lon="9.14425">
        <ele>1394.8</ele>
        <time>2015-06-23T08:05:56Z</time>
      </trkpt>
      <trkpt lat="42.11609" lon="9.14419">
        <ele>1394</ele>
        <time>2015-06-23T08:06:02Z</time>
      </trkpt>
      <trkpt lat="42.11609" lon="9.14418">
        <ele>1393.2</ele>
        <time>2015-06-23T08:06:07Z</time>
      </trkpt>
      <trkpt lat="42.11609" lon="9.14415">
        <ele>1392</ele>
        <time>2015-06-23T08:06:12Z</time>
      </trkpt>
      <trkpt lat="42.11608" lon="9.14415">
        <ele>1390.8</ele>
        <time>2015-06-23T08:06:18Z</time>
      </trkpt>
      <trkpt lat="42.11605" lon="9.14414">
        <ele>1389.4</ele>
        <time>2015-06-23T08:06:26Z</time>
      </trkpt>
      <trkpt lat="42.11599" lon="9.14414">
        <ele>1388</ele>
        <time>2015-06-23T08:06:35Z</time>
      </trkpt>
      <trkpt lat="42.1159" lon="9.14413">
        <ele>1386.6</ele>
        <time>2015-06-23T08:06:48Z</time>
      </trkpt>
      <trkpt lat="42.11585" lon="9.14411">
        <ele>1385.8</ele>
        <time>2015-06-23T08:06:57Z</time>
      </trkpt>
      <trkpt lat="42.11581" lon="9.14411">
        <ele>1384.6</ele>
        <time>2015-06-23T08:07:04Z</time>
      </trkpt>
      <trkpt lat="42.11579" lon="9.1441">
        <ele>1384</ele>
        <time>2015-06-23T08:07:09Z</time>
      </trkpt>
      <trkpt lat="42.11578" lon="9.14406">
        <ele>1382.8</ele>
        <time>2015-06-23T08:07:14Z</time>
      </trkpt>
      <trkpt lat="42.1158" lon="9.14397">
        <ele>1381.2</ele>
        <time>2015-06-23T08:07:22Z</time>
      </trkpt>
      <trkpt lat="42.11586" lon="9.14392">
        <ele>1379.8</ele>
        <time>2015-06-23T08:07:32Z</time>
      </trkpt>
      <trkpt lat="42.11587" lon="9.14389">
        <ele>1379.4</ele>
        <time>2015-06-23T08:07:36Z</time>
      </trkpt>
      <trkpt lat="42.11584" lon="9.14389">
        <ele>1377.6</ele>
        <time>2015-06-23T08:07:43Z</time>
      </trkpt>
      <trkpt lat="42.11581" lon="9.14388">
        <ele>1376.8</ele>
        <time>2015-06-23T08:07:49Z</time>
      </trkpt>
      <trkpt lat="42.11575" lon="9.14389">
        <ele>1375.6</ele>
        <time>2015-06-23T08:07:55Z</time>
      </trkpt>
      <trkpt lat="42.11571" lon="9.14389">
        <ele>1374.8</ele>
        <time>2015-06-23T08:07:59Z</time>
      </trkpt>
      <trkpt lat="42.11568" lon="9.14388">
        <ele>1374</ele>
        <time>2015-06-23T08:08:05Z</time>
      </trkpt>
      <trkpt lat="42.11565" lon="9.14389">
        <ele>1373.4</ele>
        <time>2015-06-23T08:08:11Z</time>
      </trkpt>
      <trkpt lat="42.11561" lon="9.14391">
        <ele>1372.2</ele>
        <time>2015-06-23T08:08:17Z</time>
      </trkpt>
      <trkpt lat="42.11555" lon="9.14392">
        <ele>1371.2</ele>
        <time>2015-06-23T08:08:24Z</time>
      </trkpt>
      <trkpt lat="42.11553" lon="9.1439">
        <ele>1370</ele>
        <time>2015-06-23T08:08:30Z</time>
      </trkpt>
      <trkpt lat="42.11553" lon="9.14387">
        <ele>1369.4</ele>
        <time>2015-06-23T08:08:34Z</time>
      </trkpt>
      <trkpt lat="42.11555" lon="9.14383">
        <ele>1367.8</ele>
        <time>2015-06-23T08:08:40Z</time>
      </trkpt>
      <trkpt lat="42.11557" lon="9.14378">
        <ele>1366.6</ele>
        <time>2015-06-23T08:08:46Z</time>
      </trkpt>
      <trkpt lat="42.11559" lon="9.14373">
        <ele>1365.6</ele>
        <time>2015-06-23T08:08:52Z</time>
      </trkpt>
      <trkpt lat="42.1156" lon="9.14369">
        <ele>1364.6</ele>
        <time>2015-06-23T08:08:58Z</time>
      </trkpt>
      <trkpt lat="42.11562" lon="9.14363">
        <ele>1363</ele>
        <time>2015-06-23T08:09:06Z</time>
      </trkpt>
      <trkpt lat="42.11565" lon="9.14361">
        <ele>1362.4</ele>
        <time>2015-06-23T08:09:11Z</time>
      </trkpt>
      <trkpt lat="42.11567" lon="9.14359">
        <ele>1361.2</ele>
        <time>2015-06-23T08:09:16Z</time>
      </trkpt>
      <trkpt lat="42.11571" lon="9.14355">
        <ele>1359.6</ele>
        <time>2015-06-23T08:09:23Z</time>
      </trkpt>
      <trkpt lat="42.11574" lon="9.14352">
        <ele>1358.8</ele>
        <time>2015-06-23T08:09:29Z</time>
      </trkpt>
      <trkpt lat="42.11577" lon="9.14348">
        <ele>1357.8</ele>
        <time>2015-06-23T08:09:35Z</time>
      </trkpt>
      <trkpt lat="42.11579" lon="9.14344">
        <ele>1356.8</ele>
        <time>2015-06-23T08:09:40Z</time>
      </trkpt>
      <trkpt lat="42.11583" lon="9.1434">
        <ele>1355.4</ele>
        <time>2015-06-23T08:09:46Z</time>
      </trkpt>
      <trkpt lat="42.11587" lon="9.14338">
        <ele>1354.4</ele>
        <time>2015-06-23T08:09:52Z</time>
      </trkpt>
      <trkpt lat="42.11588" lon="9.14333">
        <ele>1352.6</ele>
        <time>2015-06-23T08:10:02Z</time>
      </trkpt>
      <trkpt lat="42.11585" lon="9.14333">
        <ele>1352.4</ele>
        <time>2015-06-23T08:10:07Z</time>
      </trkpt>
      <trkpt lat="42.11582" lon="9.14332">
        <ele>1351.4</ele>
        <time>2015-06-23T08:10:12Z</time>
      </trkpt>
      <trkpt lat="42.11579" lon="9.14329">
        <ele>1349.8</ele>
        <time>2015-06-23T08:10:17Z</time>
      </trkpt>
      <trkpt lat="42.11575" lon="9.14327">
        <ele>1349</ele>
        <time>2015-06-23T08:10:22Z</time>
      </trkpt>
      <trkpt lat="42.1157" lon="9.14326">
        <ele>1347.6</ele>
        <time>2015-06-23T08:10:28Z</time>
      </trkpt>
      <trkpt lat="42.11569" lon="9.14325">
        <ele>1347.2</ele>
        <time>2015-06-23T08:10:30Z</time>
      </trkpt>
      <trkpt lat="42.11566" lon="9.14323">
        <ele>1346.2</ele>
        <time>2015-06-23T08:10:35Z</time>
      </trkpt>
      <trkpt lat="42.11561" lon="9.14321">
        <ele>1345</ele>
        <time>2015-06-23T08:10:42Z</time>
      </trkpt>
      <trkpt lat="42.11558" lon="9.14319">
        <ele>1344.6</ele>
        <time>2015-06-23T08:10:46Z</time>
      </trkpt>
      <trkpt lat="42.11558" lon="9.14319">
        <ele>1344.2</ele>
        <time>2015-06-23T08:10:47Z</time>
      </trkpt>
      <trkpt lat="42.11557" lon="9.14319">
        <ele>1344</ele>
        <time>2015-06-23T08:10:48Z</time>
      </trkpt>
      <trkpt lat="42.11554" lon="9.14319">
        <ele>1343</ele>
        <time>2015-06-23T08:10:52Z</time>
      </trkpt>
      <trkpt lat="42.1155" lon="9.1432">
        <ele>1341.2</ele>
        <time>2015-06-23T08:11:00Z</time>
      </trkpt>
      <trkpt lat="42.11547" lon="9.1432">
        <ele>1340.4</ele>
        <time>2015-06-23T08:11:07Z</time>
      </trkpt>
      <trkpt lat="42.11545" lon="9.14319">
        <ele>1339.6</ele>
        <time>2015-06-23T08:11:12Z</time>
      </trkpt>
      <trkpt lat="42.11543" lon="9.1432">
        <ele>1338.4</ele>
        <time>2015-06-23T08:11:18Z</time>
      </trkpt>
      <trkpt lat="42.11539" lon="9.14321">
        <ele>1337.2</ele>
        <time>2015-06-23T08:11:23Z</time>
      </trkpt>
      <trkpt lat="42.11538" lon="9.14319">
        <ele>1337</ele>
        <time>2015-06-23T08:11:26Z</time>
      </trkpt>
      <trkpt lat="42.11541" lon="9.14313">
        <ele>1336.2</ele>
        <time>2015-06-23T08:11:31Z</time>
      </trkpt>
      <trkpt lat="42.11541" lon="9.14305">
        <ele>1335.4</ele>
        <time>2015-06-23T08:11:37Z</time>
      </trkpt>
      <trkpt lat="42.11542" lon="9.14294">
        <ele>1334.6</ele>
        <time>2015-06-23T08:11:46Z</time>
      </trkpt>
      <trkpt lat="42.11542" lon="9.14293">
        <ele>1334.4</ele>
        <time>2015-06-23T08:11:47Z</time>
      </trkpt>
      <trkpt lat="42.11544" lon="9.14288">
        <ele>1333.8</ele>
        <time>2015-06-23T08:11:51Z</time>
      </trkpt>
      <trkpt lat="42.11546" lon="9.14283">
        <ele>1333</ele>
        <time>2015-06-23T08:11:56Z</time>
      </trkpt>
      <trkpt lat="42.11548" lon="9.1428">
        <ele>1331.4</ele>
        <time>2015-06-23T08:12:03Z</time>
      </trkpt>
      <trkpt lat="42.1155" lon="9.14279">
        <ele>1330.2</ele>
        <time>2015-06-23T08:12:10Z</time>
      </trkpt>
      <trkpt lat="42.11553" lon="9.14278">
        <ele>1329</ele>
        <time>2015-06-23T08:12:17Z</time>
      </trkpt>
      <trkpt lat="42.11558" lon="9.14274">
        <ele>1328.2</ele>
        <time>2015-06-23T08:12:22Z</time>
      </trkpt>
      <trkpt lat="42.11564" lon="9.14267">
        <ele>1326.2</ele>
        <time>2015-06-23T08:12:33Z</time>
      </trkpt>
      <trkpt lat="42.1156" lon="9.14265">
        <ele>1325.4</ele>
        <time>2015-06-23T08:12:42Z</time>
      </trkpt>
      <trkpt lat="42.11557" lon="9.14264">
        <ele>1324.8</ele>
        <time>2015-06-23T08:12:47Z</time>
      </trkpt>
      <trkpt lat="42.11554" lon="9.14264">
        <ele>1323.4</ele>
        <time>2015-06-23T08:12:53Z</time>
      </trkpt>
      <trkpt lat="42.11552" lon="9.14264">
        <ele>1323.2</ele>
        <time>2015-06-23T08:12:55Z</time>
      </trkpt>
      <trkpt lat="42.11547" lon="9.14264">
        <ele>1322.4</ele>
        <time>2015-06-23T08:12:59Z</time>
      </trkpt>
      <trkpt lat="42.11542" lon="9.14263">
        <ele>1320.6</ele>
        <time>2015-06-23T08:13:10Z</time>
      </trkpt>
      <trkpt lat="42.11537" lon="9.14261">
        <ele>1320.2</ele>
        <time>2015-06-23T08:13:16Z</time>
      </trkpt>
      <trkpt lat="42.11533" lon="9.14263">
        <ele>1319</ele>
        <time>2015-06-23T08:13:22Z</time>
      </trkpt>
      <trkpt lat="42.1153" lon="9.14263">
        <ele>1317.6</ele>
        <time>2015-06-23T08:13:28Z</time>
      </trkpt>
      <trkpt lat="42.11526" lon="9.14263">
        <ele>1316.4</ele>
        <time>2015-06-23T08:13:37Z</time>
      </trkpt>
      <trkpt lat="42.11521" lon="9.14268">
        <ele>1315</ele>
        <time>2015-06-23T08:13:45Z</time>
      </trkpt>
      <trkpt lat="42.11518" lon="9.14273">
        <ele>1313.8</ele>
        <time>2015-06-23T08:13:54Z</time>
      </trkpt>
      <trkpt lat="42.11515" lon="9.14278">
        <ele>1312.6</ele>
        <time>2015-06-23T08:14:02Z</time>
      </trkpt>
      <trkpt lat="42.11506" lon="9.14283">
        <ele>1311.4</ele>
        <time>2015-06-23T08:14:11Z</time>
      </trkpt>
      <trkpt lat="42.11504" lon="9.14284">
        <ele>1311.2</ele>
        <time>2015-06-23T08:14:13Z</time>
      </trkpt>
      <trkpt lat="42.11492" lon="9.14291">
        <ele>1310.4</ele>
        <time>2015-06-23T08:14:21Z</time>
      </trkpt>
      <trkpt lat="42.11486" lon="9.14295">
        <ele>1309.4</ele>
        <time>2015-06-23T08:14:28Z</time>
      </trkpt>
      <trkpt lat="42.11484" lon="9.14297">
        <ele>1308.2</ele>
        <time>2015-06-23T08:14:36Z</time>
      </trkpt>
      <trkpt lat="42.11481" lon="9.14293">
        <ele>1307.4</ele>
        <time>2015-06-23T08:14:41Z</time>
      </trkpt>
      <trkpt lat="42.11479" lon="9.14286">
        <ele>1305.8</ele>
        <time>2015-06-23T08:14:50Z</time>
      </trkpt>
      <trkpt lat="42.11478" lon="9.1428">
        <ele>1305</ele>
        <time>2015-06-23T08:14:55Z</time>
      </trkpt>
      <trkpt lat="42.11476" lon="9.1427">
        <ele>1303.4</ele>
        <time>2015-06-23T08:15:04Z</time>
      </trkpt>
      <trkpt lat="42.11476" lon="9.14263">
        <ele>1302.4</ele>
        <time>2015-06-23T08:15:11Z</time>
      </trkpt>
      <trkpt lat="42.11474" lon="9.14258">
        <ele>1301.4</ele>
        <time>2015-06-23T08:15:17Z</time>
      </trkpt>
      <trkpt lat="42.11475" lon="9.14252">
        <ele>1300</ele>
        <time>2015-06-23T08:15:23Z</time>
      </trkpt>
      <trkpt lat="42.11477" lon="9.14248">
        <ele>1299.4</ele>
        <time>2015-06-23T08:15:28Z</time>
      </trkpt>
      <trkpt lat="42.11479" lon="9.14246">
        <ele>1298.8</ele>
        <time>2015-06-23T08:15:29Z</time>
      </trkpt>
      <trkpt lat="42.11484" lon="9.14234">
        <ele>1296.8</ele>
        <time>2015-06-23T08:15:43Z</time>
      </trkpt>
      <trkpt lat="42.11488" lon="9.14228">
        <ele>1296.4</ele>
        <time>2015-06-23T08:15:50Z</time>
      </trkpt>
      <trkpt lat="42.11488" lon="9.14224">
        <ele>1295.6</ele>
        <time>2015-06-23T08:15:55Z</time>
      </trkpt>
      <trkpt lat="42.11491" lon="9.14222">
        <ele>1294.2</ele>
        <time>2015-06-23T08:16:00Z</time>
      </trkpt>
      <trkpt lat="42.11493" lon="9.14218">
        <ele>1293.6</ele>
        <time>2015-06-23T08:16:04Z</time>
      </trkpt>
      <trkpt lat="42.11493" lon="9.14215">
        <ele>1292.8</ele>
        <time>2015-06-23T08:16:06Z</time>
      </trkpt>
      <trkpt lat="42.11493" lon="9.14212">
        <ele>1291.8</ele>
        <time>2015-06-23T08:16:09Z</time>
      </trkpt>
      <trkpt lat="42.11493" lon="9.14211">
        <ele>1291.4</ele>
        <time>2015-06-23T08:16:10Z</time>
      </trkpt>
      <trkpt lat="42.11492" lon="9.14205">
        <ele>1290.4</ele>
        <time>2015-06-23T08:16:15Z</time>
      </trkpt>
      <trkpt lat="42.11493" lon="9.14203">
        <ele>1290.2</ele>
        <time>2015-06-23T08:16:17Z</time>
      </trkpt>
      <trkpt lat="42.11493" lon="9.142">
        <ele>1289.4</ele>
        <time>2015-06-23T08:16:20Z</time>
      </trkpt>
      <trkpt lat="42.11494" lon="9.14197">
        <ele>1289.2</ele>
        <time>2015-06-23T08:16:22Z</time>
      </trkpt>
      <trkpt lat="42.11497" lon="9.14192">
        <ele>1288.8</ele>
        <time>2015-06-23T08:16:28Z</time>
      </trkpt>
      <trkpt lat="42.115" lon="9.14188">
        <ele>1288.2</ele>
        <time>2015-06-23T08:16:33Z</time>
      </trkpt>
      <trkpt lat="42.11502" lon="9.14187">
        <ele>1287.8</ele>
        <time>2015-06-23T08:16:35Z</time>
      </trkpt>
      <trkpt lat="42.11509" lon="9.14179">
        <ele>1286.6</ele>
        <time>2015-06-23T08:16:44Z</time>
      </trkpt>
      <trkpt lat="42.1151" lon="9.14178">
        <ele>1286.6</ele>
        <time>2015-06-23T08:16:45Z</time>
      </trkpt>
      <trkpt lat="42.11516" lon="9.14173">
        <ele>1285.4</ele>
        <time>2015-06-23T08:16:54Z</time>
      </trkpt>
      <trkpt lat="42.11522" lon="9.14169">
        <ele>1284.4</ele>
        <time>2015-06-23T08:17:00Z</time>
      </trkpt>
      <trkpt lat="42.11532" lon="9.14166">
        <ele>1282.8</ele>
        <time>2015-06-23T08:17:12Z</time>
      </trkpt>
      <trkpt lat="42.11535" lon="9.14166">
        <ele>1282.8</ele>
        <time>2015-06-23T08:17:15Z</time>
      </trkpt>
      <trkpt lat="42.11536" lon="9.14166">
        <ele>1282.4</ele>
        <time>2015-06-23T08:17:17Z</time>
      </trkpt>
      <trkpt lat="42.11539" lon="9.14166">
        <ele>1282</ele>
        <time>2015-06-23T08:17:21Z</time>
      </trkpt>
      <trkpt lat="42.11544" lon="9.14166">
        <ele>1281</ele>
        <time>2015-06-23T08:17:28Z</time>
      </trkpt>
      <trkpt lat="42.11548" lon="9.14164">
        <ele>1280.2</ele>
        <time>2015-06-23T08:17:33Z</time>
      </trkpt>
      <trkpt lat="42.11549" lon="9.14165">
        <ele>1280</ele>
        <time>2015-06-23T08:17:34Z</time>
      </trkpt>
      <trkpt lat="42.11552" lon="9.14163">
        <ele>1279</ele>
        <time>2015-06-23T08:17:40Z</time>
      </trkpt>
      <trkpt lat="42.11554" lon="9.14156">
        <ele>1277.2</ele>
        <time>2015-06-23T08:17:51Z</time>
      </trkpt>
      <trkpt lat="42.11554" lon="9.14171">
        <ele>1275.8</ele>
        <time>2015-06-23T08:18:40Z</time>
      </trkpt>
      <trkpt lat="42.11559" lon="9.14165">
        <ele>1276</ele>
        <time>2015-06-23T08:19:41Z</time>
      </trkpt>
      <trkpt lat="42.11554" lon="9.14172">
        <ele>1276</ele>
        <time>2015-06-23T08:20:34Z</time>
      </trkpt>
      <trkpt lat="42.11546" lon="9.1416">
        <ele>1276.4</ele>
        <time>2015-06-23T08:22:03Z</time>
      </trkpt>
      <trkpt lat="42.11544" lon="9.14157">
        <ele>1276.2</ele>
        <time>2015-06-23T08:22:07Z</time>
      </trkpt>
      <trkpt lat="42.11541" lon="9.14155">
        <ele>1274.8</ele>
        <time>2015-06-23T08:22:13Z</time>
      </trkpt>
      <trkpt lat="42.11538" lon="9.1415">
        <ele>1274.2</ele>
        <time>2015-06-23T08:22:21Z</time>
      </trkpt>
      <trkpt lat="42.11533" lon="9.14148">
        <ele>1273.2</ele>
        <time>2015-06-23T08:22:31Z</time>
      </trkpt>
      <trkpt lat="42.11526" lon="9.14146">
        <ele>1272</ele>
        <time>2015-06-23T08:22:44Z</time>
      </trkpt>
      <trkpt lat="42.11521" lon="9.14145">
        <ele>1271.2</ele>
        <time>2015-06-23T08:22:50Z</time>
      </trkpt>
      <trkpt lat="42.1152" lon="9.14145">
        <ele>1271</ele>
        <time>2015-06-23T08:22:51Z</time>
      </trkpt>
      <trkpt lat="42.11514" lon="9.14144">
        <ele>1270.4</ele>
        <time>2015-06-23T08:22:57Z</time>
      </trkpt>
      <trkpt lat="42.11512" lon="9.14144">
        <ele>1267.6</ele>
        <time>2015-06-23T08:23:01Z</time>
      </trkpt>
      <trkpt lat="42.1151" lon="9.14144">
        <ele>1267.2</ele>
        <time>2015-06-23T08:23:05Z</time>
      </trkpt>
      <trkpt lat="42.11506" lon="9.14141">
        <ele>1265.8</ele>
        <time>2015-06-23T08:23:18Z</time>
      </trkpt>
      <trkpt lat="42.11501" lon="9.14145">
        <ele>1265.6</ele>
        <time>2015-06-23T08:23:26Z</time>
      </trkpt>
      <trkpt lat="42.115" lon="9.14145">
        <ele>1265.6</ele>
        <time>2015-06-23T08:23:27Z</time>
      </trkpt>
      <trkpt lat="42.11499" lon="9.14145">
        <ele>1265.2</ele>
        <time>2015-06-23T08:23:29Z</time>
      </trkpt>
      <trkpt lat="42.11499" lon="9.14144">
        <ele>1265</ele>
        <time>2015-06-23T08:23:31Z</time>
      </trkpt>
      <trkpt lat="42.115" lon="9.14142">
        <ele>1263.6</ele>
        <time>2015-06-23T08:23:38Z</time>
      </trkpt>
      <trkpt lat="42.11503" lon="9.14133">
        <ele>1262.2</ele>
        <time>2015-06-23T08:23:46Z</time>
      </trkpt>
      <trkpt lat="42.11506" lon="9.14125">
        <ele>1261</ele>
        <time>2015-06-23T08:23:55Z</time>
      </trkpt>
      <trkpt lat="42.11508" lon="9.14118">
        <ele>1260.6</ele>
        <time>2015-06-23T08:24:00Z</time>
      </trkpt>
      <trkpt lat="42.11511" lon="9.14113">
        <ele>1259.4</ele>
        <time>2015-06-23T08:24:06Z</time>
      </trkpt>
      <trkpt lat="42.11513" lon="9.14108">
        <ele>1258.2</ele>
        <time>2015-06-23T08:24:13Z</time>
      </trkpt>
      <trkpt lat="42.11517" lon="9.14104">
        <ele>1256.8</ele>
        <time>2015-06-23T08:24:21Z</time>
      </trkpt>
      <trkpt lat="42.11511" lon="9.14102">
        <ele>1255.4</ele>
        <time>2015-06-23T08:24:35Z</time>
      </trkpt>
      <trkpt lat="42.11504" lon="9.14108">
        <ele>1254.6</ele>
        <time>2015-06-23T08:24:44Z</time>
      </trkpt>
      <trkpt lat="42.11504" lon="9.14109">
        <ele>1254.6</ele>
        <time>2015-06-23T08:24:45Z</time>
      </trkpt>
      <trkpt lat="42.11501" lon="9.14113">
        <ele>1254</ele>
        <time>2015-06-23T08:24:50Z</time>
      </trkpt>
      <trkpt lat="42.115" lon="9.14115">
        <ele>1253.6</ele>
        <time>2015-06-23T08:24:52Z</time>
      </trkpt>
      <trkpt lat="42.11498" lon="9.14117">
        <ele>1253.2</ele>
        <time>2015-06-23T08:24:55Z</time>
      </trkpt>
      <trkpt lat="42.11496" lon="9.14121">
        <ele>1252.6</ele>
        <time>2015-06-23T08:25:00Z</time>
      </trkpt>
      <trkpt lat="42.11494" lon="9.14122">
        <ele>1252.4</ele>
        <time>2015-06-23T08:25:02Z</time>
      </trkpt>
      <trkpt lat="42.11493" lon="9.14123">
        <ele>1252</ele>
        <time>2015-06-23T08:25:04Z</time>
      </trkpt>
      <trkpt lat="42.11489" lon="9.14123">
        <ele>1251.6</ele>
        <time>2015-06-23T08:25:08Z</time>
      </trkpt>
      <trkpt lat="42.1149" lon="9.14122">
        <ele>1251.4</ele>
        <time>2015-06-23T08:25:10Z</time>
      </trkpt>
      <trkpt lat="42.11488" lon="9.14112">
        <ele>1250.4</ele>
        <time>2015-06-23T08:25:18Z</time>
      </trkpt>
      <trkpt lat="42.11487" lon="9.14109">
        <ele>1249.8</ele>
        <time>2015-06-23T08:25:21Z</time>
      </trkpt>
      <trkpt lat="42.11488" lon="9.14106">
        <ele>1249.6</ele>
        <time>2015-06-23T08:25:24Z</time>
      </trkpt>
      <trkpt lat="42.11488" lon="9.14098">
        <ele>1248.6</ele>
        <time>2015-06-23T08:25:30Z</time>
      </trkpt>
      <trkpt lat="42.1149" lon="9.14092">
        <ele>1247.2</ele>
        <time>2015-06-23T08:25:36Z</time>
      </trkpt>
      <trkpt lat="42.11489" lon="9.14085">
        <ele>1246</ele>
        <time>2015-06-23T08:25:43Z</time>
      </trkpt>
      <trkpt lat="42.11489" lon="9.1408">
        <ele>1245</ele>
        <time>2015-06-23T08:25:49Z</time>
      </trkpt>
      <trkpt lat="42.1149" lon="9.14077">
        <ele>1244</ele>
        <time>2015-06-23T08:25:55Z</time>
      </trkpt>
      <trkpt lat="42.11489" lon="9.14073">
        <ele>1242.6</ele>
        <time>2015-06-23T08:26:01Z</time>
      </trkpt>
      <trkpt lat="42.11488" lon="9.14075">
        <ele>1241.6</ele>
        <time>2015-06-23T08:26:08Z</time>
      </trkpt>
      <trkpt lat="42.11483" lon="9.14078">
        <ele>1240.6</ele>
        <time>2015-06-23T08:26:16Z</time>
      </trkpt>
      <trkpt lat="42.1147" lon="9.1409">
        <ele>1239</ele>
        <time>2015-06-23T08:26:37Z</time>
      </trkpt>
      <trkpt lat="42.11464" lon="9.14096">
        <ele>1238</ele>
        <time>2015-06-23T08:26:48Z</time>
      </trkpt>
      <trkpt lat="42.11463" lon="9.14096">
        <ele>1238</ele>
        <time>2015-06-23T08:26:49Z</time>
      </trkpt>
      <trkpt lat="42.11461" lon="9.14089">
        <ele>1237.2</ele>
        <time>2015-06-23T08:26:58Z</time>
      </trkpt>
      <trkpt lat="42.11461" lon="9.14085">
        <ele>1236.2</ele>
        <time>2015-06-23T08:27:05Z</time>
      </trkpt>
      <trkpt lat="42.11459" lon="9.14084">
        <ele>1234.8</ele>
        <time>2015-06-23T08:27:12Z</time>
      </trkpt>
      <trkpt lat="42.11458" lon="9.14076">
        <ele>1233.4</ele>
        <time>2015-06-23T08:27:48Z</time>
      </trkpt>
      <trkpt lat="42.11459" lon="9.14071">
        <ele>1232.8</ele>
        <time>2015-06-23T08:27:53Z</time>
      </trkpt>
      <trkpt lat="42.11461" lon="9.14066">
        <ele>1231.6</ele>
        <time>2015-06-23T08:27:59Z</time>
      </trkpt>
      <trkpt lat="42.11462" lon="9.14063">
        <ele>1230.2</ele>
        <time>2015-06-23T08:28:08Z</time>
      </trkpt>
      <trkpt lat="42.11464" lon="9.14054">
        <ele>1228.6</ele>
        <time>2015-06-23T08:28:30Z</time>
      </trkpt>
      <trkpt lat="42.11471" lon="9.14037">
        <ele>1228.2</ele>
        <time>2015-06-23T08:28:48Z</time>
      </trkpt>
      <trkpt lat="42.11472" lon="9.14027">
        <ele>1226.8</ele>
        <time>2015-06-23T08:28:56Z</time>
      </trkpt>
      <trkpt lat="42.11475" lon="9.1402">
        <ele>1225.8</ele>
        <time>2015-06-23T08:29:07Z</time>
      </trkpt>
      <trkpt lat="42.11479" lon="9.14014">
        <ele>1224.6</ele>
        <time>2015-06-23T08:29:16Z</time>
      </trkpt>
      <trkpt lat="42.11477" lon="9.14004">
        <ele>1223.2</ele>
        <time>2015-06-23T08:30:02Z</time>
      </trkpt>
      <trkpt lat="42.11485" lon="9.13995">
        <ele>1222.2</ele>
        <time>2015-06-23T08:30:15Z</time>
      </trkpt>
      <trkpt lat="42.11486" lon="9.1399">
        <ele>1221.6</ele>
        <time>2015-06-23T08:30:21Z</time>
      </trkpt>
      <trkpt lat="42.11489" lon="9.13986">
        <ele>1220.4</ele>
        <time>2015-06-23T08:30:27Z</time>
      </trkpt>
      <trkpt lat="42.11492" lon="9.1398">
        <ele>1219.4</ele>
        <time>2015-06-23T08:30:33Z</time>
      </trkpt>
      <trkpt lat="42.11496" lon="9.13977">
        <ele>1218</ele>
        <time>2015-06-23T08:30:39Z</time>
      </trkpt>
      <trkpt lat="42.11499" lon="9.13971">
        <ele>1217</ele>
        <time>2015-06-23T08:30:45Z</time>
      </trkpt>
      <trkpt lat="42.11502" lon="9.13967">
        <ele>1216.2</ele>
        <time>2015-06-23T08:30:49Z</time>
      </trkpt>
      <trkpt lat="42.11508" lon="9.13961">
        <ele>1214.4</ele>
        <time>2015-06-23T08:30:56Z</time>
      </trkpt>
      <trkpt lat="42.11511" lon="9.13955">
        <ele>1213.6</ele>
        <time>2015-06-23T08:31:02Z</time>
      </trkpt>
      <trkpt lat="42.11517" lon="9.13953">
        <ele>1212.2</ele>
        <time>2015-06-23T08:31:09Z</time>
      </trkpt>
      <trkpt lat="42.11526" lon="9.13951">
        <ele>1210.6</ele>
        <time>2015-06-23T08:31:21Z</time>
      </trkpt>
      <trkpt lat="42.11534" lon="9.13949">
        <ele>1209.8</ele>
        <time>2015-06-23T08:31:30Z</time>
      </trkpt>
      <trkpt lat="42.11542" lon="9.13952">
        <ele>1208.6</ele>
        <time>2015-06-23T08:31:38Z</time>
      </trkpt>
      <trkpt lat="42.11551" lon="9.13955">
        <ele>1207.6</ele>
        <time>2015-06-23T08:31:47Z</time>
      </trkpt>
      <trkpt lat="42.11555" lon="9.13958">
        <ele>1206.8</ele>
        <time>2015-06-23T08:31:52Z</time>
      </trkpt>
      <trkpt lat="42.11556" lon="9.13958">
        <ele>1206.6</ele>
        <time>2015-06-23T08:31:54Z</time>
      </trkpt>
      <trkpt lat="42.1156" lon="9.13955">
        <ele>1205.6</ele>
        <time>2015-06-23T08:32:12Z</time>
      </trkpt>
      <trkpt lat="42.11559" lon="9.13952">
        <ele>1205</ele>
        <time>2015-06-23T08:32:17Z</time>
      </trkpt>
      <trkpt lat="42.11553" lon="9.13948">
        <ele>1202.6</ele>
        <time>2015-06-23T08:32:38Z</time>
      </trkpt>
      <trkpt lat="42.1152" lon="9.13935">
        <ele>1201.8</ele>
        <time>2015-06-23T08:33:16Z</time>
      </trkpt>
      <trkpt lat="42.11502" lon="9.13945">
        <ele>1201.6</ele>
        <time>2015-06-23T08:33:38Z</time>
      </trkpt>
      <trkpt lat="42.11498" lon="9.13946">
        <ele>1202</ele>
        <time>2015-06-23T08:33:40Z</time>
      </trkpt>
      <trkpt lat="42.1149" lon="9.13949">
        <ele>1203.4</ele>
        <time>2015-06-23T08:33:49Z</time>
      </trkpt>
      <trkpt lat="42.11487" lon="9.13953">
        <ele>1203.4</ele>
        <time>2015-06-23T08:33:54Z</time>
      </trkpt>
      <trkpt lat="42.11478" lon="9.13956">
        <ele>1203.4</ele>
        <time>2015-06-23T08:34:01Z</time>
      </trkpt>
      <trkpt lat="42.11457" lon="9.13965">
        <ele>1203.2</ele>
        <time>2015-06-23T08:34:20Z</time>
      </trkpt>
      <trkpt lat="42.11418" lon="9.13961">
        <ele>1203</ele>
        <time>2015-06-23T08:34:58Z</time>
      </trkpt>
      <trkpt lat="42.1141" lon="9.13965">
        <ele>1202.6</ele>
        <time>2015-06-23T08:35:09Z</time>
      </trkpt>
      <trkpt lat="42.11404" lon="9.13967">
        <ele>1202.4</ele>
        <time>2015-06-23T08:35:13Z</time>
      </trkpt>
      <trkpt lat="42.114" lon="9.13969">
        <ele>1202.2</ele>
        <time>2015-06-23T08:35:18Z</time>
      </trkpt>
      <trkpt lat="42.11389" lon="9.1397">
        <ele>1202</ele>
        <time>2015-06-23T08:35:34Z</time>
      </trkpt>
      <trkpt lat="42.11385" lon="9.13967">
        <ele>1202.2</ele>
        <time>2015-06-23T08:35:39Z</time>
      </trkpt>
      <trkpt lat="42.11376" lon="9.13966">
        <ele>1202.4</ele>
        <time>2015-06-23T08:35:47Z</time>
      </trkpt>
      <trkpt lat="42.11369" lon="9.13962">
        <ele>1202.2</ele>
        <time>2015-06-23T08:35:52Z</time>
      </trkpt>
      <trkpt lat="42.1136" lon="9.13954">
        <ele>1201.2</ele>
        <time>2015-06-23T08:35:59Z</time>
      </trkpt>
      <trkpt lat="42.11336" lon="9.13926">
        <ele>1200.2</ele>
        <time>2015-06-23T08:36:36Z</time>
      </trkpt>
      <trkpt lat="42.11334" lon="9.13923">
        <ele>1200</ele>
        <time>2015-06-23T08:36:38Z</time>
      </trkpt>
      <trkpt lat="42.1133" lon="9.13915">
        <ele>1199.8</ele>
        <time>2015-06-23T08:36:42Z</time>
      </trkpt>
      <trkpt lat="42.11322" lon="9.13884">
        <ele>1199</ele>
        <time>2015-06-23T08:37:05Z</time>
      </trkpt>
      <trkpt lat="42.11309" lon="9.1387">
        <ele>1198</ele>
        <time>2015-06-23T08:37:22Z</time>
      </trkpt>
      <trkpt lat="42.11281" lon="9.13862">
        <ele>1197.6</ele>
        <time>2015-06-23T08:37:58Z</time>
      </trkpt>
      <trkpt lat="42.11272" lon="9.13862">
        <ele>1196.8</ele>
        <time>2015-06-23T08:38:11Z</time>
      </trkpt>
      <trkpt lat="42.1126" lon="9.13861">
        <ele>1195.8</ele>
        <time>2015-06-23T08:38:25Z</time>
      </trkpt>
      <trkpt lat="42.11252" lon="9.13858">
        <ele>1195</ele>
        <time>2015-06-23T08:38:33Z</time>
      </trkpt>
      <trkpt lat="42.11246" lon="9.13855">
        <ele>1194.8</ele>
        <time>2015-06-23T08:38:37Z</time>
      </trkpt>
      <trkpt lat="42.11243" lon="9.13853">
        <ele>1194.6</ele>
        <time>2015-06-23T08:38:40Z</time>
      </trkpt>
      <trkpt lat="42.11242" lon="9.13851">
        <ele>1194.6</ele>
        <time>2015-06-23T08:38:42Z</time>
      </trkpt>
      <trkpt lat="42.11233" lon="9.13845">
        <ele>1194.2</ele>
        <time>2015-06-23T08:38:53Z</time>
      </trkpt>
      <trkpt lat="42.11211" lon="9.13827">
        <ele>1194</ele>
        <time>2015-06-23T08:39:12Z</time>
      </trkpt>
      <trkpt lat="42.11204" lon="9.13818">
        <ele>1193</ele>
        <time>2015-06-23T08:39:20Z</time>
      </trkpt>
      <trkpt lat="42.11189" lon="9.138">
        <ele>1191.8</ele>
        <time>2015-06-23T08:39:38Z</time>
      </trkpt>
      <trkpt lat="42.11187" lon="9.13796">
        <ele>1191.6</ele>
        <time>2015-06-23T08:39:43Z</time>
      </trkpt>
      <trkpt lat="42.11184" lon="9.13793">
        <ele>1191.2</ele>
        <time>2015-06-23T08:39:48Z</time>
      </trkpt>
      <trkpt lat="42.11183" lon="9.13791">
        <ele>1191</ele>
        <time>2015-06-23T08:39:50Z</time>
      </trkpt>
      <trkpt lat="42.11182" lon="9.13782">
        <ele>1190.4</ele>
        <time>2015-06-23T08:39:58Z</time>
      </trkpt>
      <trkpt lat="42.1118" lon="9.13768">
        <ele>1189.8</ele>
        <time>2015-06-23T08:40:06Z</time>
      </trkpt>
      <trkpt lat="42.11183" lon="9.13752">
        <ele>1189.2</ele>
        <time>2015-06-23T08:40:17Z</time>
      </trkpt>
      <trkpt lat="42.11187" lon="9.13746">
        <ele>1188.2</ele>
        <time>2015-06-23T08:40:24Z</time>
      </trkpt>
      <trkpt lat="42.11191" lon="9.13743">
        <ele>1187</ele>
        <time>2015-06-23T08:40:45Z</time>
      </trkpt>
      <trkpt lat="42.11195" lon="9.13745">
        <ele>1186.4</ele>
        <time>2015-06-23T08:40:52Z</time>
      </trkpt>
      <trkpt lat="42.11195" lon="9.13745">
        <ele>1186.2</ele>
        <time>2015-06-23T08:40:53Z</time>
      </trkpt>
      <trkpt lat="42.11201" lon="9.13747">
        <ele>1185</ele>
        <time>2015-06-23T08:41:02Z</time>
      </trkpt>
      <trkpt lat="42.11206" lon="9.13749">
        <ele>1184</ele>
        <time>2015-06-23T08:41:11Z</time>
      </trkpt>
      <trkpt lat="42.11211" lon="9.1375">
        <ele>1183.2</ele>
        <time>2015-06-23T08:41:18Z</time>
      </trkpt>
      <trkpt lat="42.11216" lon="9.13751">
        <ele>1182.2</ele>
        <time>2015-06-23T08:41:27Z</time>
      </trkpt>
      <trkpt lat="42.1122" lon="9.13752">
        <ele>1181.2</ele>
        <time>2015-06-23T08:41:33Z</time>
      </trkpt>
      <trkpt lat="42.11227" lon="9.13754">
        <ele>1181</ele>
        <time>2015-06-23T08:41:38Z</time>
      </trkpt>
      <trkpt lat="42.11238" lon="9.13752">
        <ele>1180</ele>
        <time>2015-06-23T08:41:49Z</time>
      </trkpt>
      <trkpt lat="42.11247" lon="9.1375">
        <ele>1179</ele>
        <time>2015-06-23T08:41:58Z</time>
      </trkpt>
      <trkpt lat="42.11256" lon="9.13751">
        <ele>1178</ele>
        <time>2015-06-23T08:42:07Z</time>
      </trkpt>
      <trkpt lat="42.1126" lon="9.13749">
        <ele>1176.8</ele>
        <time>2015-06-23T08:42:14Z</time>
      </trkpt>
      <trkpt lat="42.11263" lon="9.13751">
        <ele>1176.4</ele>
        <time>2015-06-23T08:42:18Z</time>
      </trkpt>
      <trkpt lat="42.11265" lon="9.13751">
        <ele>1176</ele>
        <time>2015-06-23T08:42:20Z</time>
      </trkpt>
      <trkpt lat="42.11274" lon="9.13752">
        <ele>1174.8</ele>
        <time>2015-06-23T08:42:27Z</time>
      </trkpt>
      <trkpt lat="42.11284" lon="9.1375">
        <ele>1173.6</ele>
        <time>2015-06-23T08:42:35Z</time>
      </trkpt>
      <trkpt lat="42.11293" lon="9.1375">
        <ele>1173.2</ele>
        <time>2015-06-23T08:42:41Z</time>
      </trkpt>
      <trkpt lat="42.11303" lon="9.13745">
        <ele>1171.4</ele>
        <time>2015-06-23T08:42:52Z</time>
      </trkpt>
      <trkpt lat="42.11311" lon="9.1374">
        <ele>1170.8</ele>
        <time>2015-06-23T08:43:01Z</time>
      </trkpt>
      <trkpt lat="42.11318" lon="9.13732">
        <ele>1169.8</ele>
        <time>2015-06-23T08:43:10Z</time>
      </trkpt>
      <trkpt lat="42.11325" lon="9.13729">
        <ele>1169</ele>
        <time>2015-06-23T08:43:17Z</time>
      </trkpt>
      <trkpt lat="42.11332" lon="9.13728">
        <ele>1167.8</ele>
        <time>2015-06-23T08:43:24Z</time>
      </trkpt>
      <trkpt lat="42.11337" lon="9.13726">
        <ele>1166.8</ele>
        <time>2015-06-23T08:43:31Z</time>
      </trkpt>
      <trkpt lat="42.11343" lon="9.13727">
        <ele>1165.8</ele>
        <time>2015-06-23T08:43:38Z</time>
      </trkpt>
      <trkpt lat="42.11348" lon="9.13726">
        <ele>1164.8</ele>
        <time>2015-06-23T08:43:46Z</time>
      </trkpt>
      <trkpt lat="42.11355" lon="9.13723">
        <ele>1163.8</ele>
        <time>2015-06-23T08:43:55Z</time>
      </trkpt>
      <trkpt lat="42.11361" lon="9.13719">
        <ele>1162.8</ele>
        <time>2015-06-23T08:44:02Z</time>
      </trkpt>
      <trkpt lat="42.11367" lon="9.13715">
        <ele>1161.6</ele>
        <time>2015-06-23T08:44:11Z</time>
      </trkpt>
      <trkpt lat="42.11372" lon="9.13712">
        <ele>1161</ele>
        <time>2015-06-23T08:44:17Z</time>
      </trkpt>
      <trkpt lat="42.11376" lon="9.13709">
        <ele>1160</ele>
        <time>2015-06-23T08:44:24Z</time>
      </trkpt>
      <trkpt lat="42.11377" lon="9.13709">
        <ele>1159.8</ele>
        <time>2015-06-23T08:44:25Z</time>
      </trkpt>
      <trkpt lat="42.11382" lon="9.13705">
        <ele>1158.6</ele>
        <time>2015-06-23T08:44:33Z</time>
      </trkpt>
      <trkpt lat="42.11384" lon="9.13706">
        <ele>1158.8</ele>
        <time>2015-06-23T08:44:34Z</time>
      </trkpt>
      <trkpt lat="42.11391" lon="9.13705">
        <ele>1157.6</ele>
        <time>2015-06-23T08:44:42Z</time>
      </trkpt>
      <trkpt lat="42.11395" lon="9.13704">
        <ele>1157.2</ele>
        <time>2015-06-23T08:44:48Z</time>
      </trkpt>
      <trkpt lat="42.11405" lon="9.13703">
        <ele>1155.8</ele>
        <time>2015-06-23T08:44:57Z</time>
      </trkpt>
      <trkpt lat="42.11409" lon="9.137">
        <ele>1155.2</ele>
        <time>2015-06-23T08:45:04Z</time>
      </trkpt>
      <trkpt lat="42.11416" lon="9.137">
        <ele>1154.4</ele>
        <time>2015-06-23T08:45:10Z</time>
      </trkpt>
      <trkpt lat="42.11422" lon="9.13702">
        <ele>1153.4</ele>
        <time>2015-06-23T08:45:15Z</time>
      </trkpt>
      <trkpt lat="42.11424" lon="9.13699">
        <ele>1152.8</ele>
        <time>2015-06-23T08:45:18Z</time>
      </trkpt>
      <trkpt lat="42.11423" lon="9.13696">
        <ele>1152.4</ele>
        <time>2015-06-23T08:45:20Z</time>
      </trkpt>
      <trkpt lat="42.11422" lon="9.13694">
        <ele>1152</ele>
        <time>2015-06-23T08:45:22Z</time>
      </trkpt>
      <trkpt lat="42.11395" lon="9.13684">
        <ele>1152</ele>
        <time>2015-06-23T08:45:52Z</time>
      </trkpt>
      <trkpt lat="42.11373" lon="9.13683">
        <ele>1153.4</ele>
        <time>2015-06-23T08:46:15Z</time>
      </trkpt>
      <trkpt lat="42.11342" lon="9.13696">
        <ele>1155</ele>
        <time>2015-06-23T08:46:47Z</time>
      </trkpt>
      <trkpt lat="42.11328" lon="9.13703">
        <ele>1155</ele>
        <time>2015-06-23T08:47:04Z</time>
      </trkpt>
      <trkpt lat="42.11314" lon="9.1371">
        <ele>1153.6</ele>
        <time>2015-06-23T08:47:21Z</time>
      </trkpt>
      <trkpt lat="42.11281" lon="9.13709">
        <ele>1153</ele>
        <time>2015-06-23T08:47:50Z</time>
      </trkpt>
      <trkpt lat="42.11271" lon="9.1371">
        <ele>1152.6</ele>
        <time>2015-06-23T08:48:00Z</time>
      </trkpt>
      <trkpt lat="42.1123" lon="9.13685">
        <ele>1151.8</ele>
        <time>2015-06-23T08:48:40Z</time>
      </trkpt>
      <trkpt lat="42.11231" lon="9.13673">
        <ele>1151.6</ele>
        <time>2015-06-23T08:48:53Z</time>
      </trkpt>
      <trkpt lat="42.11245" lon="9.13632">
        <ele>1154</ele>
        <time>2015-06-23T08:49:42Z</time>
      </trkpt>
      <trkpt lat="42.11248" lon="9.1361">
        <ele>1155.2</ele>
        <time>2015-06-23T08:50:01Z</time>
      </trkpt>
      <trkpt lat="42.11267" lon="9.13566">
        <ele>1156.8</ele>
        <time>2015-06-23T08:50:33Z</time>
      </trkpt>
      <trkpt lat="42.11291" lon="9.13533">
        <ele>1158.4</ele>
        <time>2015-06-23T08:51:04Z</time>
      </trkpt>
      <trkpt lat="42.11305" lon="9.13513">
        <ele>1159.4</ele>
        <time>2015-06-23T08:51:28Z</time>
      </trkpt>
      <trkpt lat="42.11315" lon="9.13502">
        <ele>1160.4</ele>
        <time>2015-06-23T08:51:42Z</time>
      </trkpt>
      <trkpt lat="42.11317" lon="9.13493">
        <ele>1161.4</ele>
        <time>2015-06-23T08:51:51Z</time>
      </trkpt>
      <trkpt lat="42.11317" lon="9.1349">
        <ele>1161.8</ele>
        <time>2015-06-23T08:51:54Z</time>
      </trkpt>
      <trkpt lat="42.11316" lon="9.13483">
        <ele>1162.2</ele>
        <time>2015-06-23T08:52:00Z</time>
      </trkpt>
      <trkpt lat="42.11333" lon="9.13453">
        <ele>1163.4</ele>
        <time>2015-06-23T08:52:31Z</time>
      </trkpt>
      <trkpt lat="42.11345" lon="9.13447">
        <ele>1164.4</ele>
        <time>2015-06-23T08:52:43Z</time>
      </trkpt>
      <trkpt lat="42.1136" lon="9.13431">
        <ele>1165.8</ele>
        <time>2015-06-23T08:53:02Z</time>
      </trkpt>
      <trkpt lat="42.11381" lon="9.13413">
        <ele>1167.2</ele>
        <time>2015-06-23T08:53:28Z</time>
      </trkpt>
      <trkpt lat="42.11402" lon="9.13391">
        <ele>1168.2</ele>
        <time>2015-06-23T08:53:56Z</time>
      </trkpt>
      <trkpt lat="42.11407" lon="9.13375">
        <ele>1169.2</ele>
        <time>2015-06-23T08:54:12Z</time>
      </trkpt>
      <trkpt lat="42.11422" lon="9.1334">
        <ele>1170.6</ele>
        <time>2015-06-23T08:54:47Z</time>
      </trkpt>
      <trkpt lat="42.11422" lon="9.13337">
        <ele>1170.6</ele>
        <time>2015-06-23T08:54:49Z</time>
      </trkpt>
      <trkpt lat="42.11423" lon="9.13336">
        <ele>1170.8</ele>
        <time>2015-06-23T08:54:50Z</time>
      </trkpt>
      <trkpt lat="42.11423" lon="9.13332">
        <ele>1171</ele>
        <time>2015-06-23T08:54:53Z</time>
      </trkpt>
      <trkpt lat="42.11422" lon="9.13321">
        <ele>1171.6</ele>
        <time>2015-06-23T08:55:00Z</time>
      </trkpt>
      <trkpt lat="42.11429" lon="9.13288">
        <ele>1172.8</ele>
        <time>2015-06-23T08:55:32Z</time>
      </trkpt>
      <trkpt lat="42.11466" lon="9.13252">
        <ele>1174.2</ele>
        <time>2015-06-23T08:56:20Z</time>
      </trkpt>
      <trkpt lat="42.11487" lon="9.13236">
        <ele>1174.6</ele>
        <time>2015-06-23T08:56:41Z</time>
      </trkpt>
      <trkpt lat="42.11525" lon="9.13204">
        <ele>1175.4</ele>
        <time>2015-06-23T08:57:25Z</time>
      </trkpt>
      <trkpt lat="42.11543" lon="9.13185">
        <ele>1174.6</ele>
        <time>2015-06-23T08:57:51Z</time>
      </trkpt>
      <trkpt lat="42.11543" lon="9.13183">
        <ele>1174.6</ele>
        <time>2015-06-23T08:57:53Z</time>
      </trkpt>
      <trkpt lat="42.11543" lon="9.13167">
        <ele>1173.6</ele>
        <time>2015-06-23T08:58:03Z</time>
      </trkpt>
      <trkpt lat="42.11543" lon="9.13165">
        <ele>1173.6</ele>
        <time>2015-06-23T08:58:04Z</time>
      </trkpt>
      <trkpt lat="42.11564" lon="9.13113">
        <ele>1172.4</ele>
        <time>2015-06-23T08:58:45Z</time>
      </trkpt>
      <trkpt lat="42.11584" lon="9.13102">
        <ele>1172.6</ele>
        <time>2015-06-23T08:59:09Z</time>
      </trkpt>
      <trkpt lat="42.11605" lon="9.13105">
        <ele>1171.4</ele>
        <time>2015-06-23T08:59:29Z</time>
      </trkpt>
      <trkpt lat="42.11618" lon="9.13104">
        <ele>1170.6</ele>
        <time>2015-06-23T08:59:40Z</time>
      </trkpt>
      <trkpt lat="42.11629" lon="9.131">
        <ele>1169.6</ele>
        <time>2015-06-23T08:59:50Z</time>
      </trkpt>
      <trkpt lat="42.11642" lon="9.1309">
        <ele>1168.4</ele>
        <time>2015-06-23T09:00:03Z</time>
      </trkpt>
      <trkpt lat="42.11654" lon="9.13067">
        <ele>1167.2</ele>
        <time>2015-06-23T09:00:23Z</time>
      </trkpt>
      <trkpt lat="42.11667" lon="9.13045">
        <ele>1166.4</ele>
        <time>2015-06-23T09:00:41Z</time>
      </trkpt>
      <trkpt lat="42.11679" lon="9.13033">
        <ele>1165.4</ele>
        <time>2015-06-23T09:00:53Z</time>
      </trkpt>
      <trkpt lat="42.11699" lon="9.13013">
        <ele>1164.4</ele>
        <time>2015-06-23T09:01:15Z</time>
      </trkpt>
      <trkpt lat="42.11717" lon="9.13003">
        <ele>1163.4</ele>
        <time>2015-06-23T09:01:35Z</time>
      </trkpt>
      <trkpt lat="42.11744" lon="9.12985">
        <ele>1162.6</ele>
        <time>2015-06-23T09:02:02Z</time>
      </trkpt>
      <trkpt lat="42.11753" lon="9.12979">
        <ele>1161.8</ele>
        <time>2015-06-23T09:02:12Z</time>
      </trkpt>
      <trkpt lat="42.11763" lon="9.12975">
        <ele>1160.4</ele>
        <time>2015-06-23T09:02:23Z</time>
      </trkpt>
      <trkpt lat="42.11773" lon="9.12969">
        <ele>1159.8</ele>
        <time>2015-06-23T09:02:33Z</time>
      </trkpt>
      <trkpt lat="42.11781" lon="9.12961">
        <ele>1159</ele>
        <time>2015-06-23T09:02:42Z</time>
      </trkpt>
      <trkpt lat="42.1179" lon="9.12962">
        <ele>1157.6</ele>
        <time>2015-06-23T09:02:55Z</time>
      </trkpt>
      <trkpt lat="42.11793" lon="9.12964">
        <ele>1157.4</ele>
        <time>2015-06-23T09:02:58Z</time>
      </trkpt>
      <trkpt lat="42.11794" lon="9.12964">
        <ele>1157.2</ele>
        <time>2015-06-23T09:03:00Z</time>
      </trkpt>
      <trkpt lat="42.11797" lon="9.12964">
        <ele>1156.4</ele>
        <time>2015-06-23T09:03:05Z</time>
      </trkpt>
      <trkpt lat="42.118" lon="9.12962">
        <ele>1155.2</ele>
        <time>2015-06-23T09:03:10Z</time>
      </trkpt>
      <trkpt lat="42.11804" lon="9.12957">
        <ele>1154</ele>
        <time>2015-06-23T09:03:15Z</time>
      </trkpt>
      <trkpt lat="42.11804" lon="9.12958">
        <ele>1153.8</ele>
        <time>2015-06-23T09:03:16Z</time>
      </trkpt>
      <trkpt lat="42.11805" lon="9.1296">
        <ele>1152.8</ele>
        <time>2015-06-23T09:03:20Z</time>
      </trkpt>
      <trkpt lat="42.11805" lon="9.12965">
        <ele>1151.2</ele>
        <time>2015-06-23T09:03:27Z</time>
      </trkpt>
      <trkpt lat="42.11806" lon="9.12969">
        <ele>1150.8</ele>
        <time>2015-06-23T09:03:32Z</time>
      </trkpt>
      <trkpt lat="42.1181" lon="9.12969">
        <ele>1149.6</ele>
        <time>2015-06-23T09:03:37Z</time>
      </trkpt>
      <trkpt lat="42.11811" lon="9.12969">
        <ele>1149.4</ele>
        <time>2015-06-23T09:03:38Z</time>
      </trkpt>
      <trkpt lat="42.11816" lon="9.12967">
        <ele>1148</ele>
        <time>2015-06-23T09:03:45Z</time>
      </trkpt>
      <trkpt lat="42.11819" lon="9.12962">
        <ele>1147.2</ele>
        <time>2015-06-23T09:03:51Z</time>
      </trkpt>
      <trkpt lat="42.1182" lon="9.12956">
        <ele>1146.6</ele>
        <time>2015-06-23T09:03:56Z</time>
      </trkpt>
      <trkpt lat="42.1182" lon="9.1295">
        <ele>1145</ele>
        <time>2015-06-23T09:04:02Z</time>
      </trkpt>
      <trkpt lat="42.1182" lon="9.12942">
        <ele>1143.6</ele>
        <time>2015-06-23T09:04:09Z</time>
      </trkpt>
      <trkpt lat="42.11813" lon="9.12919">
        <ele>1142.6</ele>
        <time>2015-06-23T09:04:43Z</time>
      </trkpt>
      <trkpt lat="42.11811" lon="9.12911">
        <ele>1141.6</ele>
        <time>2015-06-23T09:04:51Z</time>
      </trkpt>
      <trkpt lat="42.1181" lon="9.12905">
        <ele>1141</ele>
        <time>2015-06-23T09:04:57Z</time>
      </trkpt>
      <trkpt lat="42.1181" lon="9.12897">
        <ele>1139.6</ele>
        <time>2015-06-23T09:05:04Z</time>
      </trkpt>
      <trkpt lat="42.11805" lon="9.12883">
        <ele>1138.2</ele>
        <time>2015-06-23T09:05:16Z</time>
      </trkpt>
      <trkpt lat="42.11805" lon="9.12881">
        <ele>1138</ele>
        <time>2015-06-23T09:05:18Z</time>
      </trkpt>
      <trkpt lat="42.11803" lon="9.12871">
        <ele>1137.6</ele>
        <time>2015-06-23T09:05:25Z</time>
      </trkpt>
      <trkpt lat="42.11802" lon="9.12865">
        <ele>1136.8</ele>
        <time>2015-06-23T09:05:31Z</time>
      </trkpt>
      <trkpt lat="42.11801" lon="9.12863">
        <ele>1136.4</ele>
        <time>2015-06-23T09:05:33Z</time>
      </trkpt>
      <trkpt lat="42.11801" lon="9.12861">
        <ele>1136.2</ele>
        <time>2015-06-23T09:05:34Z</time>
      </trkpt>
      <trkpt lat="42.11798" lon="9.12856">
        <ele>1135.6</ele>
        <time>2015-06-23T09:05:40Z</time>
      </trkpt>
      <trkpt lat="42.11798" lon="9.12854">
        <ele>1135.4</ele>
        <time>2015-06-23T09:05:41Z</time>
      </trkpt>
      <trkpt lat="42.11797" lon="9.12847">
        <ele>1134.4</ele>
        <time>2015-06-23T09:05:49Z</time>
      </trkpt>
      <trkpt lat="42.11794" lon="9.12842">
        <ele>1133.2</ele>
        <time>2015-06-23T09:05:56Z</time>
      </trkpt>
      <trkpt lat="42.11795" lon="9.12836">
        <ele>1132.4</ele>
        <time>2015-06-23T09:06:01Z</time>
      </trkpt>
      <trkpt lat="42.11794" lon="9.12832">
        <ele>1132.2</ele>
        <time>2015-06-23T09:06:04Z</time>
      </trkpt>
      <trkpt lat="42.11793" lon="9.12831">
        <ele>1131.8</ele>
        <time>2015-06-23T09:06:06Z</time>
      </trkpt>
      <trkpt lat="42.11789" lon="9.12825">
        <ele>1131.2</ele>
        <time>2015-06-23T09:06:11Z</time>
      </trkpt>
      <trkpt lat="42.11788" lon="9.12824">
        <ele>1130.8</ele>
        <time>2015-06-23T09:06:13Z</time>
      </trkpt>
      <trkpt lat="42.11784" lon="9.12812">
        <ele>1129.8</ele>
        <time>2015-06-23T09:06:20Z</time>
      </trkpt>
      <trkpt lat="42.11781" lon="9.12802">
        <ele>1128.8</ele>
        <time>2015-06-23T09:06:30Z</time>
      </trkpt>
      <trkpt lat="42.11779" lon="9.12799">
        <ele>1128.2</ele>
        <time>2015-06-23T09:06:35Z</time>
      </trkpt>
      <trkpt lat="42.11776" lon="9.12795">
        <ele>1127.8</ele>
        <time>2015-06-23T09:06:38Z</time>
      </trkpt>
      <trkpt lat="42.11773" lon="9.12789">
        <ele>1127</ele>
        <time>2015-06-23T09:06:43Z</time>
      </trkpt>
      <trkpt lat="42.11772" lon="9.12782">
        <ele>1126.6</ele>
        <time>2015-06-23T09:06:49Z</time>
      </trkpt>
      <trkpt lat="42.1177" lon="9.12769">
        <ele>1125.8</ele>
        <time>2015-06-23T09:06:57Z</time>
      </trkpt>
      <trkpt lat="42.11771" lon="9.12754">
        <ele>1124.4</ele>
        <time>2015-06-23T09:07:06Z</time>
      </trkpt>
      <trkpt lat="42.11774" lon="9.12738">
        <ele>1123</ele>
        <time>2015-06-23T09:07:17Z</time>
      </trkpt>
      <trkpt lat="42.11775" lon="9.12727">
        <ele>1122.6</ele>
        <time>2015-06-23T09:07:25Z</time>
      </trkpt>
      <trkpt lat="42.11753" lon="9.12679">
        <ele>1122.2</ele>
        <time>2015-06-23T09:08:11Z</time>
      </trkpt>
      <trkpt lat="42.11752" lon="9.12678">
        <ele>1122.4</ele>
        <time>2015-06-23T09:08:13Z</time>
      </trkpt>
      <trkpt lat="42.1174" lon="9.12667">
        <ele>1124</ele>
        <time>2015-06-23T09:08:29Z</time>
      </trkpt>
      <trkpt lat="42.11728" lon="9.12653">
        <ele>1124.6</ele>
        <time>2015-06-23T09:08:47Z</time>
      </trkpt>
      <trkpt lat="42.11716" lon="9.12645">
        <ele>1126.2</ele>
        <time>2015-06-23T09:09:01Z</time>
      </trkpt>
      <trkpt lat="42.11708" lon="9.12635">
        <ele>1127.4</ele>
        <time>2015-06-23T09:09:14Z</time>
      </trkpt>
      <trkpt lat="42.11699" lon="9.12625">
        <ele>1128.4</ele>
        <time>2015-06-23T09:09:28Z</time>
      </trkpt>
      <trkpt lat="42.11675" lon="9.12608">
        <ele>1130</ele>
        <time>2015-06-23T09:09:54Z</time>
      </trkpt>
      <trkpt lat="42.11665" lon="9.12603">
        <ele>1130.6</ele>
        <time>2015-06-23T09:10:06Z</time>
      </trkpt>
      <trkpt lat="42.11655" lon="9.12601">
        <ele>1132</ele>
        <time>2015-06-23T09:10:17Z</time>
      </trkpt>
      <trkpt lat="42.11639" lon="9.12596">
        <ele>1133.8</ele>
        <time>2015-06-23T09:10:39Z</time>
      </trkpt>
      <trkpt lat="42.11634" lon="9.12593">
        <ele>1134.2</ele>
        <time>2015-06-23T09:10:47Z</time>
      </trkpt>
      <trkpt lat="42.11633" lon="9.12591">
        <ele>1134.6</ele>
        <time>2015-06-23T09:10:49Z</time>
      </trkpt>
      <trkpt lat="42.11626" lon="9.12584">
        <ele>1135.6</ele>
        <time>2015-06-23T09:10:59Z</time>
      </trkpt>
      <trkpt lat="42.11624" lon="9.12582">
        <ele>1136</ele>
        <time>2015-06-23T09:11:02Z</time>
      </trkpt>
      <trkpt lat="42.11613" lon="9.12564">
        <ele>1137.6</ele>
        <time>2015-06-23T09:11:20Z</time>
      </trkpt>
      <trkpt lat="42.11592" lon="9.12511">
        <ele>1138.4</ele>
        <time>2015-06-23T09:12:00Z</time>
      </trkpt>
      <trkpt lat="42.11574" lon="9.12476">
        <ele>1139</ele>
        <time>2015-06-23T09:12:37Z</time>
      </trkpt>
      <trkpt lat="42.11564" lon="9.12466">
        <ele>1139.6</ele>
        <time>2015-06-23T09:12:49Z</time>
      </trkpt>
      <trkpt lat="42.11531" lon="9.12424">
        <ele>1140</ele>
        <time>2015-06-23T09:13:27Z</time>
      </trkpt>
      <trkpt lat="42.115" lon="9.12381">
        <ele>1141.2</ele>
        <time>2015-06-23T09:14:13Z</time>
      </trkpt>
      <trkpt lat="42.11485" lon="9.12366">
        <ele>1140.2</ele>
        <time>2015-06-23T09:14:33Z</time>
      </trkpt>
      <trkpt lat="42.1147" lon="9.12353">
        <ele>1139.4</ele>
        <time>2015-06-23T09:14:49Z</time>
      </trkpt>
      <trkpt lat="42.11465" lon="9.12347">
        <ele>1139.2</ele>
        <time>2015-06-23T09:14:56Z</time>
      </trkpt>
      <trkpt lat="42.1146" lon="9.12339">
        <ele>1138.4</ele>
        <time>2015-06-23T09:15:04Z</time>
      </trkpt>
      <trkpt lat="42.11456" lon="9.12333">
        <ele>1138</ele>
        <time>2015-06-23T09:15:09Z</time>
      </trkpt>
      <trkpt lat="42.11451" lon="9.12324">
        <ele>1137.8</ele>
        <time>2015-06-23T09:15:14Z</time>
      </trkpt>
      <trkpt lat="42.11445" lon="9.12305">
        <ele>1136.4</ele>
        <time>2015-06-23T09:15:30Z</time>
      </trkpt>
      <trkpt lat="42.11451" lon="9.12283">
        <ele>1135.6</ele>
        <time>2015-06-23T09:15:45Z</time>
      </trkpt>
      <trkpt lat="42.1146" lon="9.12262">
        <ele>1134.4</ele>
        <time>2015-06-23T09:15:59Z</time>
      </trkpt>
      <trkpt lat="42.11463" lon="9.12246">
        <ele>1134</ele>
        <time>2015-06-23T09:16:12Z</time>
      </trkpt>
      <trkpt lat="42.11463" lon="9.12243">
        <ele>1134</ele>
        <time>2015-06-23T09:16:15Z</time>
      </trkpt>
      <trkpt lat="42.11462" lon="9.12239">
        <ele>1134.2</ele>
        <time>2015-06-23T09:16:18Z</time>
      </trkpt>
      <trkpt lat="42.11458" lon="9.12231">
        <ele>1133.8</ele>
        <time>2015-06-23T09:16:26Z</time>
      </trkpt>
      <trkpt lat="42.11456" lon="9.12229">
        <ele>1133.6</ele>
        <time>2015-06-23T09:16:28Z</time>
      </trkpt>
      <trkpt lat="42.11455" lon="9.12227">
        <ele>1133.6</ele>
        <time>2015-06-23T09:16:30Z</time>
      </trkpt>
      <trkpt lat="42.11453" lon="9.12216">
        <ele>1132.8</ele>
        <time>2015-06-23T09:16:38Z</time>
      </trkpt>
      <trkpt lat="42.11456" lon="9.12196">
        <ele>1131</ele>
        <time>2015-06-23T09:16:56Z</time>
      </trkpt>
      <trkpt lat="42.11454" lon="9.12186">
        <ele>1130</ele>
        <time>2015-06-23T09:17:10Z</time>
      </trkpt>
      <trkpt lat="42.11453" lon="9.12176">
        <ele>1129.6</ele>
        <time>2015-06-23T09:17:20Z</time>
      </trkpt>
      <trkpt lat="42.11438" lon="9.12154">
        <ele>1129.2</ele>
        <time>2015-06-23T09:17:40Z</time>
      </trkpt>
      <trkpt lat="42.11437" lon="9.12154">
        <ele>1129.2</ele>
        <time>2015-06-23T09:17:42Z</time>
      </trkpt>
      <trkpt lat="42.11439" lon="9.12142">
        <ele>1129.6</ele>
        <time>2015-06-23T09:17:57Z</time>
      </trkpt>
      <trkpt lat="42.11435" lon="9.12147">
        <ele>1129.8</ele>
        <time>2015-06-23T09:18:03Z</time>
      </trkpt>
      <trkpt lat="42.11438" lon="9.12149">
        <ele>1129.4</ele>
        <time>2015-06-23T09:18:45Z</time>
      </trkpt>
    </trkseg>
  </trk>
  <trk>
    <name><![CDATA[GR20 Vizzavona - L'Onda]]></name>
    <trkseg>
      <trkpt lat="42.11491" lon="9.12167">
        <ele>1041</ele>
        <time>2015-06-24T04:17:27Z</time>
      </trkpt>
      <trkpt lat="42.11536" lon="9.12158">
        <ele>1036.2</ele>
        <time>2015-06-24T04:18:16Z</time>
      </trkpt>
      <trkpt lat="42.11579" lon="9.12144">
        <ele>1030.8</ele>
        <time>2015-06-24T04:19:01Z</time>
      </trkpt>
      <trkpt lat="42.11594" lon="9.12098">
        <ele>1026</ele>
        <time>2015-06-24T04:19:40Z</time>
      </trkpt>
      <trkpt lat="42.11606" lon="9.12038">
        <ele>1022</ele>
        <time>2015-06-24T04:20:23Z</time>
      </trkpt>
      <trkpt lat="42.1161" lon="9.1199">
        <ele>1018.4</ele>
        <time>2015-06-24T04:20:59Z</time>
      </trkpt>
      <trkpt lat="42.11623" lon="9.11958">
        <ele>1015.8</ele>
        <time>2015-06-24T04:21:27Z</time>
      </trkpt>
      <trkpt lat="42.11615" lon="9.11935">
        <ele>1014.4</ele>
        <time>2015-06-24T04:21:44Z</time>
      </trkpt>
      <trkpt lat="42.11614" lon="9.11932">
        <ele>1014.2</ele>
        <time>2015-06-24T04:21:46Z</time>
      </trkpt>
      <trkpt lat="42.11607" lon="9.11914">
        <ele>1014</ele>
        <time>2015-06-24T04:21:59Z</time>
      </trkpt>
      <trkpt lat="42.11605" lon="9.11906">
        <ele>1013.2</ele>
        <time>2015-06-24T04:22:05Z</time>
      </trkpt>
      <trkpt lat="42.11601" lon="9.11893">
        <ele>1012.4</ele>
        <time>2015-06-24T04:22:15Z</time>
      </trkpt>
      <trkpt lat="42.11587" lon="9.11847">
        <ele>1009.4</ele>
        <time>2015-06-24T04:22:49Z</time>
      </trkpt>
      <trkpt lat="42.11583" lon="9.1183">
        <ele>1008.2</ele>
        <time>2015-06-24T04:23:01Z</time>
      </trkpt>
      <trkpt lat="42.11578" lon="9.11812">
        <ele>1008</ele>
        <time>2015-06-24T04:23:14Z</time>
      </trkpt>
      <trkpt lat="42.11577" lon="9.118">
        <ele>1008</ele>
        <time>2015-06-24T04:23:23Z</time>
      </trkpt>
      <trkpt lat="42.11576" lon="9.11788">
        <ele>1008.2</ele>
        <time>2015-06-24T04:23:33Z</time>
      </trkpt>
      <trkpt lat="42.11575" lon="9.11775">
        <ele>1008.8</ele>
        <time>2015-06-24T04:23:41Z</time>
      </trkpt>
      <trkpt lat="42.11574" lon="9.11756">
        <ele>1008.8</ele>
        <time>2015-06-24T04:23:53Z</time>
      </trkpt>
      <trkpt lat="42.11577" lon="9.11736">
        <ele>1008.8</ele>
        <time>2015-06-24T04:24:06Z</time>
      </trkpt>
      <trkpt lat="42.11577" lon="9.11706">
        <ele>1008</ele>
        <time>2015-06-24T04:24:27Z</time>
      </trkpt>
      <trkpt lat="42.11573" lon="9.1168">
        <ele>1007.6</ele>
        <time>2015-06-24T04:24:45Z</time>
      </trkpt>
      <trkpt lat="42.11572" lon="9.11661">
        <ele>1007.4</ele>
        <time>2015-06-24T04:24:58Z</time>
      </trkpt>
      <trkpt lat="42.11574" lon="9.11637">
        <ele>1007</ele>
        <time>2015-06-24T04:25:18Z</time>
      </trkpt>
      <trkpt lat="42.11578" lon="9.11617">
        <ele>1006.4</ele>
        <time>2015-06-24T04:25:35Z</time>
      </trkpt>
      <trkpt lat="42.11582" lon="9.11576">
        <ele>1005</ele>
        <time>2015-06-24T04:26:07Z</time>
      </trkpt>
      <trkpt lat="42.11588" lon="9.11514">
        <ele>1002.6</ele>
        <time>2015-06-24T04:26:46Z</time>
      </trkpt>
      <trkpt lat="42.11589" lon="9.11486">
        <ele>1001.4</ele>
        <time>2015-06-24T04:27:06Z</time>
      </trkpt>
      <trkpt lat="42.11589" lon="9.11477">
        <ele>1001</ele>
        <time>2015-06-24T04:27:13Z</time>
      </trkpt>
      <trkpt lat="42.1159" lon="9.11457">
        <ele>1000.6</ele>
        <time>2015-06-24T04:27:27Z</time>
      </trkpt>
      <trkpt lat="42.11597" lon="9.11429">
        <ele>1000.2</ele>
        <time>2015-06-24T04:27:45Z</time>
      </trkpt>
      <trkpt lat="42.11603" lon="9.11365">
        <ele>998</ele>
        <time>2015-06-24T04:28:28Z</time>
      </trkpt>
      <trkpt lat="42.11607" lon="9.11338">
        <ele>997.2</ele>
        <time>2015-06-24T04:28:48Z</time>
      </trkpt>
      <trkpt lat="42.11613" lon="9.11325">
        <ele>997.2</ele>
        <time>2015-06-24T04:29:01Z</time>
      </trkpt>
      <trkpt lat="42.11621" lon="9.11298">
        <ele>997</ele>
        <time>2015-06-24T04:29:17Z</time>
      </trkpt>
      <trkpt lat="42.11628" lon="9.1127">
        <ele>996.8</ele>
        <time>2015-06-24T04:29:36Z</time>
      </trkpt>
      <trkpt lat="42.11632" lon="9.1125">
        <ele>996.6</ele>
        <time>2015-06-24T04:29:50Z</time>
      </trkpt>
      <trkpt lat="42.11637" lon="9.11234">
        <ele>996</ele>
        <time>2015-06-24T04:30:13Z</time>
      </trkpt>
      <trkpt lat="42.11635" lon="9.11233">
        <ele>996</ele>
        <time>2015-06-24T04:30:27Z</time>
      </trkpt>
      <trkpt lat="42.11638" lon="9.11233">
        <ele>996</ele>
        <time>2015-06-24T04:30:46Z</time>
      </trkpt>
      <trkpt lat="42.11632" lon="9.11236">
        <ele>995.8</ele>
        <time>2015-06-24T04:30:55Z</time>
      </trkpt>
      <trkpt lat="42.11628" lon="9.11229">
        <ele>996.2</ele>
        <time>2015-06-24T04:31:06Z</time>
      </trkpt>
      <trkpt lat="42.11627" lon="9.11218">
        <ele>996.4</ele>
        <time>2015-06-24T04:31:18Z</time>
      </trkpt>
      <trkpt lat="42.11625" lon="9.11217">
        <ele>996.4</ele>
        <time>2015-06-24T04:31:19Z</time>
      </trkpt>
      <trkpt lat="42.11622" lon="9.11211">
        <ele>996.6</ele>
        <time>2015-06-24T04:31:25Z</time>
      </trkpt>
      <trkpt lat="42.1162" lon="9.11205">
        <ele>997</ele>
        <time>2015-06-24T04:31:33Z</time>
      </trkpt>
      <trkpt lat="42.11617" lon="9.11193">
        <ele>997.4</ele>
        <time>2015-06-24T04:31:47Z</time>
      </trkpt>
      <trkpt lat="42.11615" lon="9.11191">
        <ele>997.4</ele>
        <time>2015-06-24T04:31:53Z</time>
      </trkpt>
      <trkpt lat="42.11612" lon="9.1119">
        <ele>997.8</ele>
        <time>2015-06-24T04:31:58Z</time>
      </trkpt>
      <trkpt lat="42.11611" lon="9.11185">
        <ele>998.8</ele>
        <time>2015-06-24T04:32:04Z</time>
      </trkpt>
      <trkpt lat="42.11609" lon="9.11178">
        <ele>999.2</ele>
        <time>2015-06-24T04:32:11Z</time>
      </trkpt>
      <trkpt lat="42.1161" lon="9.11174">
        <ele>999.6</ele>
        <time>2015-06-24T04:32:14Z</time>
      </trkpt>
      <trkpt lat="42.11608" lon="9.11168">
        <ele>1000</ele>
        <time>2015-06-24T04:32:22Z</time>
      </trkpt>
      <trkpt lat="42.11609" lon="9.11163">
        <ele>1000.2</ele>
        <time>2015-06-24T04:32:28Z</time>
      </trkpt>
      <trkpt lat="42.11606" lon="9.11159">
        <ele>1000.8</ele>
        <time>2015-06-24T04:32:33Z</time>
      </trkpt>
      <trkpt lat="42.11605" lon="9.11151">
        <ele>1001.6</ele>
        <time>2015-06-24T04:32:39Z</time>
      </trkpt>
      <trkpt lat="42.11603" lon="9.11145">
        <ele>1002.2</ele>
        <time>2015-06-24T04:32:45Z</time>
      </trkpt>
      <trkpt lat="42.11604" lon="9.11139">
        <ele>1003</ele>
        <time>2015-06-24T04:32:52Z</time>
      </trkpt>
      <trkpt lat="42.11603" lon="9.11135">
        <ele>1003.4</ele>
        <time>2015-06-24T04:32:56Z</time>
      </trkpt>
      <trkpt lat="42.11604" lon="9.11134">
        <ele>1003.6</ele>
        <time>2015-06-24T04:32:58Z</time>
      </trkpt>
      <trkpt lat="42.11603" lon="9.11128">
        <ele>1004.2</ele>
        <time>2015-06-24T04:33:04Z</time>
      </trkpt>
      <trkpt lat="42.11607" lon="9.11123">
        <ele>1004.6</ele>
        <time>2015-06-24T04:33:09Z</time>
      </trkpt>
      <trkpt lat="42.11609" lon="9.1112">
        <ele>1004.8</ele>
        <time>2015-06-24T04:33:13Z</time>
      </trkpt>
      <trkpt lat="42.1161" lon="9.11118">
        <ele>1004.8</ele>
        <time>2015-06-24T04:33:15Z</time>
      </trkpt>
      <trkpt lat="42.11611" lon="9.11118">
        <ele>1005</ele>
        <time>2015-06-24T04:33:16Z</time>
      </trkpt>
      <trkpt lat="42.11612" lon="9.11116">
        <ele>1005.2</ele>
        <time>2015-06-24T04:33:18Z</time>
      </trkpt>
      <trkpt lat="42.11615" lon="9.11111">
        <ele>1005.2</ele>
        <time>2015-06-24T04:33:23Z</time>
      </trkpt>
      <trkpt lat="42.11616" lon="9.11105">
        <ele>1005.8</ele>
        <time>2015-06-24T04:33:31Z</time>
      </trkpt>
      <trkpt lat="42.11614" lon="9.11098">
        <ele>1006.2</ele>
        <time>2015-06-24T04:33:39Z</time>
      </trkpt>
      <trkpt lat="42.11614" lon="9.11094">
        <ele>1006.4</ele>
        <time>2015-06-24T04:33:43Z</time>
      </trkpt>
      <trkpt lat="42.11615" lon="9.11088">
        <ele>1007.8</ele>
        <time>2015-06-24T04:33:54Z</time>
      </trkpt>
      <trkpt lat="42.11627" lon="9.11083">
        <ele>1008</ele>
        <time>2015-06-24T04:34:12Z</time>
      </trkpt>
      <trkpt lat="42.11628" lon="9.11081">
        <ele>1008</ele>
        <time>2015-06-24T04:34:16Z</time>
      </trkpt>
      <trkpt lat="42.11632" lon="9.11075">
        <ele>1009</ele>
        <time>2015-06-24T04:34:31Z</time>
      </trkpt>
      <trkpt lat="42.11636" lon="9.11068">
        <ele>1009</ele>
        <time>2015-06-24T04:34:41Z</time>
      </trkpt>
      <trkpt lat="42.11638" lon="9.11062">
        <ele>1009.8</ele>
        <time>2015-06-24T04:34:49Z</time>
      </trkpt>
      <trkpt lat="42.11641" lon="9.1106">
        <ele>1010</ele>
        <time>2015-06-24T04:34:55Z</time>
      </trkpt>
      <trkpt lat="42.11644" lon="9.11056">
        <ele>1011</ele>
        <time>2015-06-24T04:35:03Z</time>
      </trkpt>
      <trkpt lat="42.11651" lon="9.11053">
        <ele>1011.4</ele>
        <time>2015-06-24T04:35:19Z</time>
      </trkpt>
      <trkpt lat="42.11653" lon="9.1105">
        <ele>1011.6</ele>
        <time>2015-06-24T04:35:26Z</time>
      </trkpt>
      <trkpt lat="42.11655" lon="9.11045">
        <ele>1012.2</ele>
        <time>2015-06-24T04:35:34Z</time>
      </trkpt>
      <trkpt lat="42.11656" lon="9.11044">
        <ele>1012.6</ele>
        <time>2015-06-24T04:35:39Z</time>
      </trkpt>
      <trkpt lat="42.1166" lon="9.11043">
        <ele>1013.6</ele>
        <time>2015-06-24T04:35:45Z</time>
      </trkpt>
      <trkpt lat="42.11662" lon="9.11042">
        <ele>1014.4</ele>
        <time>2015-06-24T04:35:52Z</time>
      </trkpt>
      <trkpt lat="42.11662" lon="9.11039">
        <ele>1015</ele>
        <time>2015-06-24T04:35:59Z</time>
      </trkpt>
      <trkpt lat="42.11664" lon="9.11037">
        <ele>1015.6</ele>
        <time>2015-06-24T04:36:04Z</time>
      </trkpt>
      <trkpt lat="42.11666" lon="9.11037">
        <ele>1016.2</ele>
        <time>2015-06-24T04:36:09Z</time>
      </trkpt>
      <trkpt lat="42.11665" lon="9.11035">
        <ele>1017.2</ele>
        <time>2015-06-24T04:36:16Z</time>
      </trkpt>
      <trkpt lat="42.11666" lon="9.11033">
        <ele>1017.8</ele>
        <time>2015-06-24T04:36:22Z</time>
      </trkpt>
      <trkpt lat="42.11664" lon="9.11028">
        <ele>1019</ele>
        <time>2015-06-24T04:36:30Z</time>
      </trkpt>
      <trkpt lat="42.11667" lon="9.11026">
        <ele>1019.4</ele>
        <time>2015-06-24T04:36:38Z</time>
      </trkpt>
      <trkpt lat="42.1167" lon="9.11021">
        <ele>1020</ele>
        <time>2015-06-24T04:36:48Z</time>
      </trkpt>
      <trkpt lat="42.11673" lon="9.11018">
        <ele>1020.4</ele>
        <time>2015-06-24T04:36:55Z</time>
      </trkpt>
      <trkpt lat="42.11674" lon="9.11014">
        <ele>1021</ele>
        <time>2015-06-24T04:37:01Z</time>
      </trkpt>
      <trkpt lat="42.11676" lon="9.1101">
        <ele>1021.4</ele>
        <time>2015-06-24T04:37:06Z</time>
      </trkpt>
      <trkpt lat="42.11679" lon="9.11009">
        <ele>1022.6</ele>
        <time>2015-06-24T04:37:14Z</time>
      </trkpt>
      <trkpt lat="42.11686" lon="9.11009">
        <ele>1023</ele>
        <time>2015-06-24T04:37:22Z</time>
      </trkpt>
      <trkpt lat="42.11692" lon="9.11008">
        <ele>1023</ele>
        <time>2015-06-24T04:37:34Z</time>
      </trkpt>
      <trkpt lat="42.11698" lon="9.11001">
        <ele>1023</ele>
        <time>2015-06-24T04:37:44Z</time>
      </trkpt>
      <trkpt lat="42.117" lon="9.10995">
        <ele>1023.6</ele>
        <time>2015-06-24T04:37:51Z</time>
      </trkpt>
      <trkpt lat="42.117" lon="9.10992">
        <ele>1024.2</ele>
        <time>2015-06-24T04:37:58Z</time>
      </trkpt>
      <trkpt lat="42.11705" lon="9.10986">
        <ele>1025</ele>
        <time>2015-06-24T04:38:06Z</time>
      </trkpt>
      <trkpt lat="42.11707" lon="9.10983">
        <ele>1025.2</ele>
        <time>2015-06-24T04:38:12Z</time>
      </trkpt>
      <trkpt lat="42.1171" lon="9.10983">
        <ele>1026</ele>
        <time>2015-06-24T04:38:18Z</time>
      </trkpt>
      <trkpt lat="42.11713" lon="9.1098">
        <ele>1026.8</ele>
        <time>2015-06-24T04:38:24Z</time>
      </trkpt>
      <trkpt lat="42.11716" lon="9.10975">
        <ele>1027.6</ele>
        <time>2015-06-24T04:38:31Z</time>
      </trkpt>
      <trkpt lat="42.11713" lon="9.10972">
        <ele>1028.2</ele>
        <time>2015-06-24T04:38:35Z</time>
      </trkpt>
      <trkpt lat="42.1171" lon="9.10969">
        <ele>1028.6</ele>
        <time>2015-06-24T04:38:42Z</time>
      </trkpt>
      <trkpt lat="42.11711" lon="9.10968">
        <ele>1028.8</ele>
        <time>2015-06-24T04:38:48Z</time>
      </trkpt>
      <trkpt lat="42.11716" lon="9.1097">
        <ele>1029.6</ele>
        <time>2015-06-24T04:38:58Z</time>
      </trkpt>
      <trkpt lat="42.11721" lon="9.10969">
        <ele>1030</ele>
        <time>2015-06-24T04:39:03Z</time>
      </trkpt>
      <trkpt lat="42.11725" lon="9.10967">
        <ele>1029.8</ele>
        <time>2015-06-24T04:39:07Z</time>
      </trkpt>
      <trkpt lat="42.11725" lon="9.10965">
        <ele>1030</ele>
        <time>2015-06-24T04:39:09Z</time>
      </trkpt>
      <trkpt lat="42.11725" lon="9.1096">
        <ele>1030.6</ele>
        <time>2015-06-24T04:39:14Z</time>
      </trkpt>
      <trkpt lat="42.11725" lon="9.10956">
        <ele>1031.4</ele>
        <time>2015-06-24T04:39:20Z</time>
      </trkpt>
      <trkpt lat="42.11725" lon="9.10955">
        <ele>1032.2</ele>
        <time>2015-06-24T04:39:26Z</time>
      </trkpt>
      <trkpt lat="42.11722" lon="9.10953">
        <ele>1033.2</ele>
        <time>2015-06-24T04:39:33Z</time>
      </trkpt>
      <trkpt lat="42.11721" lon="9.1095">
        <ele>1033.8</ele>
        <time>2015-06-24T04:39:40Z</time>
      </trkpt>
      <trkpt lat="42.11722" lon="9.10947">
        <ele>1034.6</ele>
        <time>2015-06-24T04:39:46Z</time>
      </trkpt>
      <trkpt lat="42.11727" lon="9.10941">
        <ele>1035.6</ele>
        <time>2015-06-24T04:39:57Z</time>
      </trkpt>
      <trkpt lat="42.1173" lon="9.10935">
        <ele>1035.8</ele>
        <time>2015-06-24T04:40:04Z</time>
      </trkpt>
      <trkpt lat="42.11731" lon="9.10933">
        <ele>1036.6</ele>
        <time>2015-06-24T04:40:11Z</time>
      </trkpt>
      <trkpt lat="42.11735" lon="9.10931">
        <ele>1037.2</ele>
        <time>2015-06-24T04:40:17Z</time>
      </trkpt>
      <trkpt lat="42.11737" lon="9.10927">
        <ele>1038.2</ele>
        <time>2015-06-24T04:40:25Z</time>
      </trkpt>
      <trkpt lat="42.11739" lon="9.10924">
        <ele>1039</ele>
        <time>2015-06-24T04:40:32Z</time>
      </trkpt>
      <trkpt lat="42.11741" lon="9.1092">
        <ele>1039.8</ele>
        <time>2015-06-24T04:40:41Z</time>
      </trkpt>
      <trkpt lat="42.11742" lon="9.10917">
        <ele>1040.2</ele>
        <time>2015-06-24T04:40:47Z</time>
      </trkpt>
      <trkpt lat="42.11742" lon="9.10913">
        <ele>1041</ele>
        <time>2015-06-24T04:40:54Z</time>
      </trkpt>
      <trkpt lat="42.11745" lon="9.10912">
        <ele>1041.8</ele>
        <time>2015-06-24T04:41:00Z</time>
      </trkpt>
      <trkpt lat="42.11752" lon="9.10908">
        <ele>1042.4</ele>
        <time>2015-06-24T04:41:14Z</time>
      </trkpt>
      <trkpt lat="42.11755" lon="9.10902">
        <ele>1043</ele>
        <time>2015-06-24T04:41:21Z</time>
      </trkpt>
      <trkpt lat="42.11756" lon="9.10902">
        <ele>1043</ele>
        <time>2015-06-24T04:41:22Z</time>
      </trkpt>
      <trkpt lat="42.11755" lon="9.10899">
        <ele>1043.8</ele>
        <time>2015-06-24T04:41:28Z</time>
      </trkpt>
      <trkpt lat="42.11756" lon="9.10894">
        <ele>1044.6</ele>
        <time>2015-06-24T04:41:38Z</time>
      </trkpt>
      <trkpt lat="42.11754" lon="9.10892">
        <ele>1045.2</ele>
        <time>2015-06-24T04:41:45Z</time>
      </trkpt>
      <trkpt lat="42.11753" lon="9.10893">
        <ele>1045.8</ele>
        <time>2015-06-24T04:41:51Z</time>
      </trkpt>
      <trkpt lat="42.11755" lon="9.10889">
        <ele>1046.4</ele>
        <time>2015-06-24T04:41:57Z</time>
      </trkpt>
      <trkpt lat="42.11757" lon="9.10886">
        <ele>1047.2</ele>
        <time>2015-06-24T04:42:02Z</time>
      </trkpt>
      <trkpt lat="42.11757" lon="9.10881">
        <ele>1048.4</ele>
        <time>2015-06-24T04:42:08Z</time>
      </trkpt>
      <trkpt lat="42.1176" lon="9.10879">
        <ele>1048.8</ele>
        <time>2015-06-24T04:42:13Z</time>
      </trkpt>
      <trkpt lat="42.11767" lon="9.10879">
        <ele>1050</ele>
        <time>2015-06-24T04:42:24Z</time>
      </trkpt>
      <trkpt lat="42.11771" lon="9.10877">
        <ele>1050.4</ele>
        <time>2015-06-24T04:42:30Z</time>
      </trkpt>
      <trkpt lat="42.11773" lon="9.10874">
        <ele>1051.4</ele>
        <time>2015-06-24T04:42:36Z</time>
      </trkpt>
      <trkpt lat="42.11775" lon="9.10873">
        <ele>1051.6</ele>
        <time>2015-06-24T04:42:38Z</time>
      </trkpt>
      <trkpt lat="42.11773" lon="9.10866">
        <ele>1052.4</ele>
        <time>2015-06-24T04:42:43Z</time>
      </trkpt>
      <trkpt lat="42.11778" lon="9.10861">
        <ele>1053.4</ele>
        <time>2015-06-24T04:42:51Z</time>
      </trkpt>
      <trkpt lat="42.11778" lon="9.10858">
        <ele>1053.8</ele>
        <time>2015-06-24T04:42:58Z</time>
      </trkpt>
      <trkpt lat="42.11779" lon="9.10856">
        <ele>1054.4</ele>
        <time>2015-06-24T04:43:03Z</time>
      </trkpt>
      <trkpt lat="42.11777" lon="9.10855">
        <ele>1055.4</ele>
        <time>2015-06-24T04:43:10Z</time>
      </trkpt>
      <trkpt lat="42.11774" lon="9.10854">
        <ele>1056</ele>
        <time>2015-06-24T04:43:15Z</time>
      </trkpt>
      <trkpt lat="42.11773" lon="9.1085">
        <ele>1057.2</ele>
        <time>2015-06-24T04:43:22Z</time>
      </trkpt>
      <trkpt lat="42.11773" lon="9.10847">
        <ele>1058.2</ele>
        <time>2015-06-24T04:43:29Z</time>
      </trkpt>
      <trkpt lat="42.11773" lon="9.10844">
        <ele>1058.8</ele>
        <time>2015-06-24T04:43:35Z</time>
      </trkpt>
      <trkpt lat="42.1177" lon="9.10841">
        <ele>1060</ele>
        <time>2015-06-24T04:43:43Z</time>
      </trkpt>
      <trkpt lat="42.1177" lon="9.10839">
        <ele>1060.6</ele>
        <time>2015-06-24T04:43:50Z</time>
      </trkpt>
      <trkpt lat="42.11775" lon="9.1084">
        <ele>1061.2</ele>
        <time>2015-06-24T04:43:58Z</time>
      </trkpt>
      <trkpt lat="42.11778" lon="9.1084">
        <ele>1061.8</ele>
        <time>2015-06-24T04:44:03Z</time>
      </trkpt>
      <trkpt lat="42.1178" lon="9.10839">
        <ele>1062.8</ele>
        <time>2015-06-24T04:44:09Z</time>
      </trkpt>
      <trkpt lat="42.11783" lon="9.10838">
        <ele>1063.8</ele>
        <time>2015-06-24T04:44:16Z</time>
      </trkpt>
      <trkpt lat="42.11788" lon="9.10835">
        <ele>1064.6</ele>
        <time>2015-06-24T04:44:22Z</time>
      </trkpt>
      <trkpt lat="42.11789" lon="9.10832">
        <ele>1065.4</ele>
        <time>2015-06-24T04:44:28Z</time>
      </trkpt>
      <trkpt lat="42.11787" lon="9.10828">
        <ele>1066.4</ele>
        <time>2015-06-24T04:44:35Z</time>
      </trkpt>
      <trkpt lat="42.11788" lon="9.10825">
        <ele>1067</ele>
        <time>2015-06-24T04:44:41Z</time>
      </trkpt>
      <trkpt lat="42.11788" lon="9.10824">
        <ele>1067.8</ele>
        <time>2015-06-24T04:44:47Z</time>
      </trkpt>
      <trkpt lat="42.11786" lon="9.10822">
        <ele>1068.6</ele>
        <time>2015-06-24T04:44:52Z</time>
      </trkpt>
      <trkpt lat="42.11786" lon="9.10819">
        <ele>1069.8</ele>
        <time>2015-06-24T04:44:59Z</time>
      </trkpt>
      <trkpt lat="42.11789" lon="9.10822">
        <ele>1070.6</ele>
        <time>2015-06-24T04:45:06Z</time>
      </trkpt>
      <trkpt lat="42.1179" lon="9.10818">
        <ele>1071.6</ele>
        <time>2015-06-24T04:45:13Z</time>
      </trkpt>
      <trkpt lat="42.11789" lon="9.10815">
        <ele>1072.4</ele>
        <time>2015-06-24T04:45:21Z</time>
      </trkpt>
      <trkpt lat="42.1179" lon="9.10813">
        <ele>1073</ele>
        <time>2015-06-24T04:45:27Z</time>
      </trkpt>
      <trkpt lat="42.11791" lon="9.1081">
        <ele>1074</ele>
        <time>2015-06-24T04:45:35Z</time>
      </trkpt>
      <trkpt lat="42.11792" lon="9.10808">
        <ele>1074.6</ele>
        <time>2015-06-24T04:45:41Z</time>
      </trkpt>
      <trkpt lat="42.11794" lon="9.10808">
        <ele>1075.4</ele>
        <time>2015-06-24T04:45:47Z</time>
      </trkpt>
      <trkpt lat="42.11796" lon="9.10807">
        <ele>1076.6</ele>
        <time>2015-06-24T04:45:54Z</time>
      </trkpt>
      <trkpt lat="42.11797" lon="9.10807">
        <ele>1077.2</ele>
        <time>2015-06-24T04:46:03Z</time>
      </trkpt>
      <trkpt lat="42.11798" lon="9.10805">
        <ele>1078</ele>
        <time>2015-06-24T04:46:10Z</time>
      </trkpt>
      <trkpt lat="42.118" lon="9.10803">
        <ele>1079</ele>
        <time>2015-06-24T04:46:17Z</time>
      </trkpt>
      <trkpt lat="42.118" lon="9.10801">
        <ele>1079.6</ele>
        <time>2015-06-24T04:46:23Z</time>
      </trkpt>
      <trkpt lat="42.118" lon="9.10799">
        <ele>1080.6</ele>
        <time>2015-06-24T04:46:30Z</time>
      </trkpt>
      <trkpt lat="42.118" lon="9.10798">
        <ele>1081.4</ele>
        <time>2015-06-24T04:46:36Z</time>
      </trkpt>
      <trkpt lat="42.118" lon="9.10797">
        <ele>1082.4</ele>
        <time>2015-06-24T04:46:43Z</time>
      </trkpt>
      <trkpt lat="42.118" lon="9.10794">
        <ele>1083.4</ele>
        <time>2015-06-24T04:47:00Z</time>
      </trkpt>
      <trkpt lat="42.11799" lon="9.10792">
        <ele>1083.6</ele>
        <time>2015-06-24T04:47:21Z</time>
      </trkpt>
      <trkpt lat="42.11797" lon="9.10789">
        <ele>1084.2</ele>
        <time>2015-06-24T04:47:29Z</time>
      </trkpt>
      <trkpt lat="42.11795" lon="9.10787">
        <ele>1084.8</ele>
        <time>2015-06-24T04:47:35Z</time>
      </trkpt>
      <trkpt lat="42.11795" lon="9.10786">
        <ele>1085.8</ele>
        <time>2015-06-24T04:47:54Z</time>
      </trkpt>
      <trkpt lat="42.11794" lon="9.10784">
        <ele>1085.6</ele>
        <time>2015-06-24T04:48:38Z</time>
      </trkpt>
      <trkpt lat="42.11796" lon="9.10786">
        <ele>1085.6</ele>
        <time>2015-06-24T04:49:14Z</time>
      </trkpt>
      <trkpt lat="42.11797" lon="9.10788">
        <ele>1085.8</ele>
        <time>2015-06-24T04:49:39Z</time>
      </trkpt>
      <trkpt lat="42.11797" lon="9.10788">
        <ele>1085.8</ele>
        <time>2015-06-24T04:50:14Z</time>
      </trkpt>
      <trkpt lat="42.11796" lon="9.10788">
        <ele>1086.4</ele>
        <time>2015-06-24T04:50:32Z</time>
      </trkpt>
      <trkpt lat="42.11795" lon="9.10785">
        <ele>1086</ele>
        <time>2015-06-24T04:51:16Z</time>
      </trkpt>
      <trkpt lat="42.11796" lon="9.10787">
        <ele>1086</ele>
        <time>2015-06-24T04:51:51Z</time>
      </trkpt>
      <trkpt lat="42.11794" lon="9.10786">
        <ele>1086.4</ele>
        <time>2015-06-24T04:52:10Z</time>
      </trkpt>
      <trkpt lat="42.11792" lon="9.10784">
        <ele>1086.4</ele>
        <time>2015-06-24T04:52:35Z</time>
      </trkpt>
      <trkpt lat="42.11791" lon="9.10779">
        <ele>1087.2</ele>
        <time>2015-06-24T04:52:44Z</time>
      </trkpt>
      <trkpt lat="42.11791" lon="9.10777">
        <ele>1088</ele>
        <time>2015-06-24T04:52:52Z</time>
      </trkpt>
      <trkpt lat="42.11798" lon="9.10777">
        <ele>1088.8</ele>
        <time>2015-06-24T04:52:59Z</time>
      </trkpt>
      <trkpt lat="42.11801" lon="9.10778">
        <ele>1090</ele>
        <time>2015-06-24T04:53:07Z</time>
      </trkpt>
      <trkpt lat="42.11809" lon="9.10776">
        <ele>1090.8</ele>
        <time>2015-06-24T04:53:29Z</time>
      </trkpt>
      <trkpt lat="42.11809" lon="9.10777">
        <ele>1091</ele>
        <time>2015-06-24T04:53:35Z</time>
      </trkpt>
      <trkpt lat="42.11808" lon="9.10776">
        <ele>1092.2</ele>
        <time>2015-06-24T04:53:44Z</time>
      </trkpt>
      <trkpt lat="42.1181" lon="9.10774">
        <ele>1092.8</ele>
        <time>2015-06-24T04:53:52Z</time>
      </trkpt>
      <trkpt lat="42.11811" lon="9.1077">
        <ele>1093.4</ele>
        <time>2015-06-24T04:53:57Z</time>
      </trkpt>
      <trkpt lat="42.1181" lon="9.10767">
        <ele>1094.4</ele>
        <time>2015-06-24T04:54:03Z</time>
      </trkpt>
      <trkpt lat="42.11807" lon="9.10765">
        <ele>1095.4</ele>
        <time>2015-06-24T04:54:08Z</time>
      </trkpt>
      <trkpt lat="42.11804" lon="9.10764">
        <ele>1096.4</ele>
        <time>2015-06-24T04:54:14Z</time>
      </trkpt>
      <trkpt lat="42.11805" lon="9.10762">
        <ele>1097.4</ele>
        <time>2015-06-24T04:54:21Z</time>
      </trkpt>
      <trkpt lat="42.11808" lon="9.10763">
        <ele>1098.4</ele>
        <time>2015-06-24T04:54:30Z</time>
      </trkpt>
      <trkpt lat="42.11811" lon="9.10761">
        <ele>1099.4</ele>
        <time>2015-06-24T04:54:37Z</time>
      </trkpt>
      <trkpt lat="42.11814" lon="9.1076">
        <ele>1100.4</ele>
        <time>2015-06-24T04:54:45Z</time>
      </trkpt>
      <trkpt lat="42.11816" lon="9.10758">
        <ele>1101.2</ele>
        <time>2015-06-24T04:54:52Z</time>
      </trkpt>
      <trkpt lat="42.11816" lon="9.10755">
        <ele>1101.8</ele>
        <time>2015-06-24T04:54:58Z</time>
      </trkpt>
      <trkpt lat="42.11818" lon="9.10747">
        <ele>1103</ele>
        <time>2015-06-24T04:55:05Z</time>
      </trkpt>
      <trkpt lat="42.11821" lon="9.10744">
        <ele>1104.2</ele>
        <time>2015-06-24T04:55:13Z</time>
      </trkpt>
      <trkpt lat="42.11824" lon="9.1074">
        <ele>1105</ele>
        <time>2015-06-24T04:55:25Z</time>
      </trkpt>
      <trkpt lat="42.11825" lon="9.10735">
        <ele>1105.6</ele>
        <time>2015-06-24T04:55:32Z</time>
      </trkpt>
      <trkpt lat="42.11828" lon="9.10732">
        <ele>1106.4</ele>
        <time>2015-06-24T04:55:42Z</time>
      </trkpt>
      <trkpt lat="42.11838" lon="9.10733">
        <ele>1107.2</ele>
        <time>2015-06-24T04:56:02Z</time>
      </trkpt>
      <trkpt lat="42.11846" lon="9.10731">
        <ele>1107.8</ele>
        <time>2015-06-24T04:56:13Z</time>
      </trkpt>
      <trkpt lat="42.11847" lon="9.10726">
        <ele>1108.4</ele>
        <time>2015-06-24T04:56:20Z</time>
      </trkpt>
      <trkpt lat="42.11849" lon="9.10725">
        <ele>1109.2</ele>
        <time>2015-06-24T04:56:26Z</time>
      </trkpt>
      <trkpt lat="42.11849" lon="9.1072">
        <ele>1110.2</ele>
        <time>2015-06-24T04:56:34Z</time>
      </trkpt>
      <trkpt lat="42.1185" lon="9.10718">
        <ele>1110.6</ele>
        <time>2015-06-24T04:56:39Z</time>
      </trkpt>
      <trkpt lat="42.11849" lon="9.10714">
        <ele>1111.8</ele>
        <time>2015-06-24T04:56:46Z</time>
      </trkpt>
      <trkpt lat="42.1185" lon="9.1071">
        <ele>1112.4</ele>
        <time>2015-06-24T04:56:52Z</time>
      </trkpt>
      <trkpt lat="42.11852" lon="9.10708">
        <ele>1113.4</ele>
        <time>2015-06-24T04:56:59Z</time>
      </trkpt>
      <trkpt lat="42.11852" lon="9.10705">
        <ele>1114.4</ele>
        <time>2015-06-24T04:57:05Z</time>
      </trkpt>
      <trkpt lat="42.11854" lon="9.10703">
        <ele>1115.4</ele>
        <time>2015-06-24T04:57:15Z</time>
      </trkpt>
      <trkpt lat="42.11856" lon="9.10702">
        <ele>1116</ele>
        <time>2015-06-24T04:57:21Z</time>
      </trkpt>
      <trkpt lat="42.11858" lon="9.10701">
        <ele>1117</ele>
        <time>2015-06-24T04:57:28Z</time>
      </trkpt>
      <trkpt lat="42.1186" lon="9.10701">
        <ele>1117.8</ele>
        <time>2015-06-24T04:57:34Z</time>
      </trkpt>
      <trkpt lat="42.11862" lon="9.10699">
        <ele>1118.8</ele>
        <time>2015-06-24T04:57:41Z</time>
      </trkpt>
      <trkpt lat="42.11865" lon="9.10697">
        <ele>1119.8</ele>
        <time>2015-06-24T04:57:49Z</time>
      </trkpt>
      <trkpt lat="42.11869" lon="9.10699">
        <ele>1120.2</ele>
        <time>2015-06-24T04:57:57Z</time>
      </trkpt>
      <trkpt lat="42.11874" lon="9.10703">
        <ele>1121</ele>
        <time>2015-06-24T04:58:04Z</time>
      </trkpt>
      <trkpt lat="42.11876" lon="9.10699">
        <ele>1121.8</ele>
        <time>2015-06-24T04:58:11Z</time>
      </trkpt>
      <trkpt lat="42.11876" lon="9.10694">
        <ele>1122.8</ele>
        <time>2015-06-24T04:58:19Z</time>
      </trkpt>
      <trkpt lat="42.11875" lon="9.10691">
        <ele>1123.4</ele>
        <time>2015-06-24T04:58:25Z</time>
      </trkpt>
      <trkpt lat="42.11876" lon="9.10687">
        <ele>1124.2</ele>
        <time>2015-06-24T04:58:32Z</time>
      </trkpt>
      <trkpt lat="42.11878" lon="9.10686">
        <ele>1125.2</ele>
        <time>2015-06-24T04:58:39Z</time>
      </trkpt>
      <trkpt lat="42.11882" lon="9.10678">
        <ele>1126.4</ele>
        <time>2015-06-24T04:58:52Z</time>
      </trkpt>
      <trkpt lat="42.11886" lon="9.10673">
        <ele>1127</ele>
        <time>2015-06-24T04:59:01Z</time>
      </trkpt>
      <trkpt lat="42.11891" lon="9.10669">
        <ele>1127.8</ele>
        <time>2015-06-24T04:59:10Z</time>
      </trkpt>
      <trkpt lat="42.11896" lon="9.10663">
        <ele>1128.2</ele>
        <time>2015-06-24T04:59:19Z</time>
      </trkpt>
      <trkpt lat="42.11897" lon="9.10662">
        <ele>1128.4</ele>
        <time>2015-06-24T04:59:21Z</time>
      </trkpt>
      <trkpt lat="42.11902" lon="9.10653">
        <ele>1129.2</ele>
        <time>2015-06-24T04:59:33Z</time>
      </trkpt>
      <trkpt lat="42.11914" lon="9.10617">
        <ele>1128.4</ele>
        <time>2015-06-24T05:00:14Z</time>
      </trkpt>
      <trkpt lat="42.11914" lon="9.10612">
        <ele>1129.4</ele>
        <time>2015-06-24T05:00:22Z</time>
      </trkpt>
      <trkpt lat="42.11912" lon="9.10609">
        <ele>1130</ele>
        <time>2015-06-24T05:00:27Z</time>
      </trkpt>
      <trkpt lat="42.1191" lon="9.10607">
        <ele>1130.8</ele>
        <time>2015-06-24T05:00:33Z</time>
      </trkpt>
      <trkpt lat="42.11909" lon="9.10606">
        <ele>1131.8</ele>
        <time>2015-06-24T05:00:39Z</time>
      </trkpt>
      <trkpt lat="42.11908" lon="9.10608">
        <ele>1133</ele>
        <time>2015-06-24T05:00:45Z</time>
      </trkpt>
      <trkpt lat="42.11907" lon="9.10609">
        <ele>1133.8</ele>
        <time>2015-06-24T05:00:52Z</time>
      </trkpt>
      <trkpt lat="42.11905" lon="9.10608">
        <ele>1134.8</ele>
        <time>2015-06-24T05:01:00Z</time>
      </trkpt>
      <trkpt lat="42.11905" lon="9.10606">
        <ele>1135.4</ele>
        <time>2015-06-24T05:01:06Z</time>
      </trkpt>
      <trkpt lat="42.11905" lon="9.10604">
        <ele>1136.4</ele>
        <time>2015-06-24T05:01:13Z</time>
      </trkpt>
      <trkpt lat="42.11906" lon="9.10601">
        <ele>1137.4</ele>
        <time>2015-06-24T05:01:21Z</time>
      </trkpt>
      <trkpt lat="42.11907" lon="9.106">
        <ele>1137.8</ele>
        <time>2015-06-24T05:01:26Z</time>
      </trkpt>
      <trkpt lat="42.11905" lon="9.10598">
        <ele>1139.4</ele>
        <time>2015-06-24T05:01:37Z</time>
      </trkpt>
      <trkpt lat="42.11904" lon="9.10598">
        <ele>1140</ele>
        <time>2015-06-24T05:01:45Z</time>
      </trkpt>
      <trkpt lat="42.11903" lon="9.10597">
        <ele>1140.6</ele>
        <time>2015-06-24T05:01:53Z</time>
      </trkpt>
      <trkpt lat="42.11901" lon="9.10595">
        <ele>1141.4</ele>
        <time>2015-06-24T05:02:00Z</time>
      </trkpt>
      <trkpt lat="42.11902" lon="9.10596">
        <ele>1142.6</ele>
        <time>2015-06-24T05:02:10Z</time>
      </trkpt>
      <trkpt lat="42.11902" lon="9.10596">
        <ele>1143</ele>
        <time>2015-06-24T05:02:16Z</time>
      </trkpt>
      <trkpt lat="42.11904" lon="9.10596">
        <ele>1144</ele>
        <time>2015-06-24T05:02:22Z</time>
      </trkpt>
      <trkpt lat="42.11905" lon="9.10594">
        <ele>1144.6</ele>
        <time>2015-06-24T05:02:26Z</time>
      </trkpt>
      <trkpt lat="42.11905" lon="9.10589">
        <ele>1146.4</ele>
        <time>2015-06-24T05:02:37Z</time>
      </trkpt>
      <trkpt lat="42.11904" lon="9.10585">
        <ele>1146.8</ele>
        <time>2015-06-24T05:02:44Z</time>
      </trkpt>
      <trkpt lat="42.11905" lon="9.1058">
        <ele>1147.6</ele>
        <time>2015-06-24T05:02:51Z</time>
      </trkpt>
      <trkpt lat="42.11904" lon="9.10574">
        <ele>1148.8</ele>
        <time>2015-06-24T05:02:59Z</time>
      </trkpt>
      <trkpt lat="42.11909" lon="9.10565">
        <ele>1149.8</ele>
        <time>2015-06-24T05:03:17Z</time>
      </trkpt>
      <trkpt lat="42.11914" lon="9.10554">
        <ele>1150.4</ele>
        <time>2015-06-24T05:03:31Z</time>
      </trkpt>
      <trkpt lat="42.11916" lon="9.10551">
        <ele>1150.4</ele>
        <time>2015-06-24T05:03:34Z</time>
      </trkpt>
      <trkpt lat="42.11918" lon="9.10546">
        <ele>1151</ele>
        <time>2015-06-24T05:03:41Z</time>
      </trkpt>
      <trkpt lat="42.1192" lon="9.10535">
        <ele>1151.8</ele>
        <time>2015-06-24T05:03:51Z</time>
      </trkpt>
      <trkpt lat="42.11923" lon="9.10528">
        <ele>1152.4</ele>
        <time>2015-06-24T05:04:00Z</time>
      </trkpt>
      <trkpt lat="42.11926" lon="9.10515">
        <ele>1153.6</ele>
        <time>2015-06-24T05:04:13Z</time>
      </trkpt>
      <trkpt lat="42.11926" lon="9.10513">
        <ele>1153.6</ele>
        <time>2015-06-24T05:04:15Z</time>
      </trkpt>
      <trkpt lat="42.11928" lon="9.10499">
        <ele>1153.6</ele>
        <time>2015-06-24T05:04:37Z</time>
      </trkpt>
      <trkpt lat="42.11926" lon="9.10495">
        <ele>1154</ele>
        <time>2015-06-24T05:04:42Z</time>
      </trkpt>
      <trkpt lat="42.11926" lon="9.10491">
        <ele>1154.4</ele>
        <time>2015-06-24T05:04:49Z</time>
      </trkpt>
      <trkpt lat="42.11927" lon="9.10487">
        <ele>1155.2</ele>
        <time>2015-06-24T05:04:55Z</time>
      </trkpt>
      <trkpt lat="42.11925" lon="9.10483">
        <ele>1155.6</ele>
        <time>2015-06-24T05:04:58Z</time>
      </trkpt>
      <trkpt lat="42.11924" lon="9.10476">
        <ele>1156.6</ele>
        <time>2015-06-24T05:05:06Z</time>
      </trkpt>
      <trkpt lat="42.11926" lon="9.10462">
        <ele>1156</ele>
        <time>2015-06-24T05:05:35Z</time>
      </trkpt>
      <trkpt lat="42.11927" lon="9.10457">
        <ele>1155</ele>
        <time>2015-06-24T05:05:43Z</time>
      </trkpt>
      <trkpt lat="42.11929" lon="9.10454">
        <ele>1153.8</ele>
        <time>2015-06-24T05:05:52Z</time>
      </trkpt>
      <trkpt lat="42.11939" lon="9.10444">
        <ele>1152</ele>
        <time>2015-06-24T05:06:13Z</time>
      </trkpt>
      <trkpt lat="42.11937" lon="9.10431">
        <ele>1150.8</ele>
        <time>2015-06-24T05:06:36Z</time>
      </trkpt>
      <trkpt lat="42.11936" lon="9.10424">
        <ele>1151.6</ele>
        <time>2015-06-24T05:06:55Z</time>
      </trkpt>
      <trkpt lat="42.11939" lon="9.1041">
        <ele>1151.2</ele>
        <time>2015-06-24T05:07:18Z</time>
      </trkpt>
      <trkpt lat="42.11939" lon="9.10391">
        <ele>1150.4</ele>
        <time>2015-06-24T05:07:44Z</time>
      </trkpt>
      <trkpt lat="42.11934" lon="9.10375">
        <ele>1150.6</ele>
        <time>2015-06-24T05:08:05Z</time>
      </trkpt>
      <trkpt lat="42.11931" lon="9.10369">
        <ele>1151.2</ele>
        <time>2015-06-24T05:08:13Z</time>
      </trkpt>
      <trkpt lat="42.11932" lon="9.1036">
        <ele>1151.6</ele>
        <time>2015-06-24T05:08:23Z</time>
      </trkpt>
      <trkpt lat="42.11932" lon="9.10337">
        <ele>1151.6</ele>
        <time>2015-06-24T05:08:51Z</time>
      </trkpt>
      <trkpt lat="42.11933" lon="9.10329">
        <ele>1151.8</ele>
        <time>2015-06-24T05:08:57Z</time>
      </trkpt>
      <trkpt lat="42.11933" lon="9.10327">
        <ele>1152</ele>
        <time>2015-06-24T05:09:00Z</time>
      </trkpt>
      <trkpt lat="42.11934" lon="9.10327">
        <ele>1152</ele>
        <time>2015-06-24T05:09:01Z</time>
      </trkpt>
      <trkpt lat="42.11933" lon="9.10317">
        <ele>1153</ele>
        <time>2015-06-24T05:09:12Z</time>
      </trkpt>
      <trkpt lat="42.1193" lon="9.10304">
        <ele>1153.4</ele>
        <time>2015-06-24T05:09:24Z</time>
      </trkpt>
      <trkpt lat="42.11928" lon="9.10283">
        <ele>1154.6</ele>
        <time>2015-06-24T05:09:43Z</time>
      </trkpt>
      <trkpt lat="42.11931" lon="9.10276">
        <ele>1154.6</ele>
        <time>2015-06-24T05:09:50Z</time>
      </trkpt>
      <trkpt lat="42.11938" lon="9.10252">
        <ele>1154.4</ele>
        <time>2015-06-24T05:10:18Z</time>
      </trkpt>
      <trkpt lat="42.11938" lon="9.10248">
        <ele>1154.4</ele>
        <time>2015-06-24T05:10:21Z</time>
      </trkpt>
      <trkpt lat="42.11936" lon="9.10242">
        <ele>1155</ele>
        <time>2015-06-24T05:10:27Z</time>
      </trkpt>
      <trkpt lat="42.11941" lon="9.10232">
        <ele>1155.4</ele>
        <time>2015-06-24T05:10:39Z</time>
      </trkpt>
      <trkpt lat="42.11945" lon="9.10218">
        <ele>1155.4</ele>
        <time>2015-06-24T05:10:51Z</time>
      </trkpt>
      <trkpt lat="42.11945" lon="9.10214">
        <ele>1155.4</ele>
        <time>2015-06-24T05:10:56Z</time>
      </trkpt>
      <trkpt lat="42.11945" lon="9.10209">
        <ele>1155.8</ele>
        <time>2015-06-24T05:11:01Z</time>
      </trkpt>
      <trkpt lat="42.11945" lon="9.10207">
        <ele>1156</ele>
        <time>2015-06-24T05:11:03Z</time>
      </trkpt>
      <trkpt lat="42.11946" lon="9.10202">
        <ele>1157</ele>
        <time>2015-06-24T05:11:10Z</time>
      </trkpt>
      <trkpt lat="42.11947" lon="9.10197">
        <ele>1158</ele>
        <time>2015-06-24T05:11:20Z</time>
      </trkpt>
      <trkpt lat="42.11946" lon="9.10188">
        <ele>1158.8</ele>
        <time>2015-06-24T05:11:27Z</time>
      </trkpt>
      <trkpt lat="42.11936" lon="9.10164">
        <ele>1159.4</ele>
        <time>2015-06-24T05:11:56Z</time>
      </trkpt>
      <trkpt lat="42.11928" lon="9.10154">
        <ele>1159.8</ele>
        <time>2015-06-24T05:12:11Z</time>
      </trkpt>
      <trkpt lat="42.11924" lon="9.10154">
        <ele>1160.6</ele>
        <time>2015-06-24T05:12:19Z</time>
      </trkpt>
      <trkpt lat="42.11923" lon="9.10154">
        <ele>1161.2</ele>
        <time>2015-06-24T05:12:24Z</time>
      </trkpt>
      <trkpt lat="42.11921" lon="9.10148">
        <ele>1161.8</ele>
        <time>2015-06-24T05:12:31Z</time>
      </trkpt>
      <trkpt lat="42.11913" lon="9.10144">
        <ele>1162.2</ele>
        <time>2015-06-24T05:12:44Z</time>
      </trkpt>
      <trkpt lat="42.11909" lon="9.10137">
        <ele>1163.2</ele>
        <time>2015-06-24T05:12:56Z</time>
      </trkpt>
      <trkpt lat="42.11904" lon="9.10128">
        <ele>1163.8</ele>
        <time>2015-06-24T05:13:11Z</time>
      </trkpt>
      <trkpt lat="42.119" lon="9.1012">
        <ele>1164.2</ele>
        <time>2015-06-24T05:13:19Z</time>
      </trkpt>
      <trkpt lat="42.11897" lon="9.10111">
        <ele>1164.6</ele>
        <time>2015-06-24T05:13:29Z</time>
      </trkpt>
      <trkpt lat="42.11896" lon="9.10107">
        <ele>1164.6</ele>
        <time>2015-06-24T05:13:31Z</time>
      </trkpt>
      <trkpt lat="42.11893" lon="9.10097">
        <ele>1165.4</ele>
        <time>2015-06-24T05:13:43Z</time>
      </trkpt>
      <trkpt lat="42.11887" lon="9.10094">
        <ele>1165.8</ele>
        <time>2015-06-24T05:13:50Z</time>
      </trkpt>
      <trkpt lat="42.11882" lon="9.10091">
        <ele>1166.4</ele>
        <time>2015-06-24T05:13:56Z</time>
      </trkpt>
      <trkpt lat="42.1188" lon="9.10088">
        <ele>1167.2</ele>
        <time>2015-06-24T05:14:02Z</time>
      </trkpt>
      <trkpt lat="42.11878" lon="9.1008">
        <ele>1168.2</ele>
        <time>2015-06-24T05:14:09Z</time>
      </trkpt>
      <trkpt lat="42.11875" lon="9.10066">
        <ele>1169.2</ele>
        <time>2015-06-24T05:14:26Z</time>
      </trkpt>
      <trkpt lat="42.11876" lon="9.10048">
        <ele>1169.8</ele>
        <time>2015-06-24T05:14:41Z</time>
      </trkpt>
      <trkpt lat="42.11876" lon="9.10045">
        <ele>1169.4</ele>
        <time>2015-06-24T05:14:44Z</time>
      </trkpt>
      <trkpt lat="42.11876" lon="9.10044">
        <ele>1169.2</ele>
        <time>2015-06-24T05:14:45Z</time>
      </trkpt>
      <trkpt lat="42.11878" lon="9.10042">
        <ele>1169.2</ele>
        <time>2015-06-24T05:14:47Z</time>
      </trkpt>
      <trkpt lat="42.11881" lon="9.10036">
        <ele>1168.2</ele>
        <time>2015-06-24T05:15:01Z</time>
      </trkpt>
      <trkpt lat="42.11882" lon="9.10034">
        <ele>1168.8</ele>
        <time>2015-06-24T05:15:06Z</time>
      </trkpt>
      <trkpt lat="42.11885" lon="9.10031">
        <ele>1170.4</ele>
        <time>2015-06-24T05:15:13Z</time>
      </trkpt>
      <trkpt lat="42.11888" lon="9.10028">
        <ele>1171</ele>
        <time>2015-06-24T05:15:18Z</time>
      </trkpt>
      <trkpt lat="42.1189" lon="9.10027">
        <ele>1172.2</ele>
        <time>2015-06-24T05:15:25Z</time>
      </trkpt>
      <trkpt lat="42.1189" lon="9.10026">
        <ele>1173.2</ele>
        <time>2015-06-24T05:15:33Z</time>
      </trkpt>
      <trkpt lat="42.11888" lon="9.10023">
        <ele>1174.4</ele>
        <time>2015-06-24T05:15:45Z</time>
      </trkpt>
      <trkpt lat="42.1189" lon="9.10021">
        <ele>1174.8</ele>
        <time>2015-06-24T05:15:51Z</time>
      </trkpt>
      <trkpt lat="42.1189" lon="9.1002">
        <ele>1176.2</ele>
        <time>2015-06-24T05:16:00Z</time>
      </trkpt>
      <trkpt lat="42.1189" lon="9.10019">
        <ele>1177.2</ele>
        <time>2015-06-24T05:16:10Z</time>
      </trkpt>
      <trkpt lat="42.11889" lon="9.10018">
        <ele>1177.8</ele>
        <time>2015-06-24T05:16:15Z</time>
      </trkpt>
      <trkpt lat="42.1189" lon="9.10016">
        <ele>1179</ele>
        <time>2015-06-24T05:16:25Z</time>
      </trkpt>
      <trkpt lat="42.1189" lon="9.10015">
        <ele>1179</ele>
        <time>2015-06-24T05:16:59Z</time>
      </trkpt>
      <trkpt lat="42.11892" lon="9.10012">
        <ele>1179</ele>
        <time>2015-06-24T05:17:03Z</time>
      </trkpt>
      <trkpt lat="42.11893" lon="9.10011">
        <ele>1179</ele>
        <time>2015-06-24T05:17:05Z</time>
      </trkpt>
      <trkpt lat="42.11895" lon="9.10005">
        <ele>1179.4</ele>
        <time>2015-06-24T05:17:13Z</time>
      </trkpt>
      <trkpt lat="42.11895" lon="9.10002">
        <ele>1180</ele>
        <time>2015-06-24T05:17:17Z</time>
      </trkpt>
      <trkpt lat="42.11895" lon="9.09997">
        <ele>1181.2</ele>
        <time>2015-06-24T05:17:25Z</time>
      </trkpt>
      <trkpt lat="42.11897" lon="9.09993">
        <ele>1182.2</ele>
        <time>2015-06-24T05:17:32Z</time>
      </trkpt>
      <trkpt lat="42.11898" lon="9.09986">
        <ele>1183.2</ele>
        <time>2015-06-24T05:17:41Z</time>
      </trkpt>
      <trkpt lat="42.11897" lon="9.09982">
        <ele>1183.8</ele>
        <time>2015-06-24T05:17:46Z</time>
      </trkpt>
      <trkpt lat="42.11898" lon="9.09979">
        <ele>1184.8</ele>
        <time>2015-06-24T05:17:51Z</time>
      </trkpt>
      <trkpt lat="42.11914" lon="9.09973">
        <ele>1185</ele>
        <time>2015-06-24T05:18:42Z</time>
      </trkpt>
      <trkpt lat="42.11915" lon="9.09964">
        <ele>1186.2</ele>
        <time>2015-06-24T05:18:54Z</time>
      </trkpt>
      <trkpt lat="42.11913" lon="9.09957">
        <ele>1186.8</ele>
        <time>2015-06-24T05:19:01Z</time>
      </trkpt>
      <trkpt lat="42.11916" lon="9.09948">
        <ele>1187.2</ele>
        <time>2015-06-24T05:19:14Z</time>
      </trkpt>
      <trkpt lat="42.11917" lon="9.09937">
        <ele>1187.8</ele>
        <time>2015-06-24T05:19:30Z</time>
      </trkpt>
      <trkpt lat="42.11919" lon="9.09929">
        <ele>1188.2</ele>
        <time>2015-06-24T05:19:41Z</time>
      </trkpt>
      <trkpt lat="42.11921" lon="9.09925">
        <ele>1189.4</ele>
        <time>2015-06-24T05:19:50Z</time>
      </trkpt>
      <trkpt lat="42.11921" lon="9.09919">
        <ele>1189.8</ele>
        <time>2015-06-24T05:19:58Z</time>
      </trkpt>
      <trkpt lat="42.11921" lon="9.09913">
        <ele>1191</ele>
        <time>2015-06-24T05:20:08Z</time>
      </trkpt>
      <trkpt lat="42.1192" lon="9.09907">
        <ele>1191.6</ele>
        <time>2015-06-24T05:20:17Z</time>
      </trkpt>
      <trkpt lat="42.11919" lon="9.09904">
        <ele>1192.4</ele>
        <time>2015-06-24T05:20:25Z</time>
      </trkpt>
      <trkpt lat="42.11921" lon="9.09898">
        <ele>1193.8</ele>
        <time>2015-06-24T05:20:38Z</time>
      </trkpt>
      <trkpt lat="42.11923" lon="9.09896">
        <ele>1194</ele>
        <time>2015-06-24T05:20:46Z</time>
      </trkpt>
      <trkpt lat="42.11925" lon="9.09893">
        <ele>1195.2</ele>
        <time>2015-06-24T05:20:55Z</time>
      </trkpt>
      <trkpt lat="42.11933" lon="9.09884">
        <ele>1196</ele>
        <time>2015-06-24T05:21:13Z</time>
      </trkpt>
      <trkpt lat="42.11938" lon="9.09878">
        <ele>1196.8</ele>
        <time>2015-06-24T05:21:22Z</time>
      </trkpt>
      <trkpt lat="42.11936" lon="9.09872">
        <ele>1198</ele>
        <time>2015-06-24T05:21:30Z</time>
      </trkpt>
      <trkpt lat="42.11936" lon="9.09869">
        <ele>1198.6</ele>
        <time>2015-06-24T05:21:37Z</time>
      </trkpt>
      <trkpt lat="42.11937" lon="9.09862">
        <ele>1199.8</ele>
        <time>2015-06-24T05:21:46Z</time>
      </trkpt>
      <trkpt lat="42.11939" lon="9.09859">
        <ele>1200.6</ele>
        <time>2015-06-24T05:21:53Z</time>
      </trkpt>
      <trkpt lat="42.11939" lon="9.09855">
        <ele>1201.6</ele>
        <time>2015-06-24T05:22:00Z</time>
      </trkpt>
      <trkpt lat="42.1194" lon="9.09853">
        <ele>1202.4</ele>
        <time>2015-06-24T05:22:06Z</time>
      </trkpt>
      <trkpt lat="42.11942" lon="9.09853">
        <ele>1203.8</ele>
        <time>2015-06-24T05:22:14Z</time>
      </trkpt>
      <trkpt lat="42.11943" lon="9.09849">
        <ele>1204.6</ele>
        <time>2015-06-24T05:22:24Z</time>
      </trkpt>
      <trkpt lat="42.11943" lon="9.09844">
        <ele>1205.4</ele>
        <time>2015-06-24T05:22:31Z</time>
      </trkpt>
      <trkpt lat="42.11943" lon="9.09841">
        <ele>1206.6</ele>
        <time>2015-06-24T05:22:41Z</time>
      </trkpt>
      <trkpt lat="42.11941" lon="9.09838">
        <ele>1207.4</ele>
        <time>2015-06-24T05:22:52Z</time>
      </trkpt>
      <trkpt lat="42.11941" lon="9.09836">
        <ele>1208.6</ele>
        <time>2015-06-24T05:23:01Z</time>
      </trkpt>
      <trkpt lat="42.11941" lon="9.09831">
        <ele>1209.4</ele>
        <time>2015-06-24T05:23:09Z</time>
      </trkpt>
      <trkpt lat="42.11943" lon="9.09827">
        <ele>1210.4</ele>
        <time>2015-06-24T05:23:25Z</time>
      </trkpt>
      <trkpt lat="42.11944" lon="9.09824">
        <ele>1211.2</ele>
        <time>2015-06-24T05:23:32Z</time>
      </trkpt>
      <trkpt lat="42.11945" lon="9.09822">
        <ele>1212.2</ele>
        <time>2015-06-24T05:23:38Z</time>
      </trkpt>
      <trkpt lat="42.11945" lon="9.09819">
        <ele>1213.4</ele>
        <time>2015-06-24T05:23:48Z</time>
      </trkpt>
      <trkpt lat="42.11946" lon="9.09817">
        <ele>1213.8</ele>
        <time>2015-06-24T05:23:53Z</time>
      </trkpt>
      <trkpt lat="42.11949" lon="9.09817">
        <ele>1215.8</ele>
        <time>2015-06-24T05:24:04Z</time>
      </trkpt>
      <trkpt lat="42.1195" lon="9.09812">
        <ele>1216.2</ele>
        <time>2015-06-24T05:24:12Z</time>
      </trkpt>
      <trkpt lat="42.11953" lon="9.0981">
        <ele>1217.8</ele>
        <time>2015-06-24T05:24:43Z</time>
      </trkpt>
      <trkpt lat="42.11954" lon="9.09807">
        <ele>1217.8</ele>
        <time>2015-06-24T05:24:49Z</time>
      </trkpt>
      <trkpt lat="42.11956" lon="9.09804">
        <ele>1218.8</ele>
        <time>2015-06-24T05:24:55Z</time>
      </trkpt>
      <trkpt lat="42.11957" lon="9.09801">
        <ele>1219.6</ele>
        <time>2015-06-24T05:25:00Z</time>
      </trkpt>
      <trkpt lat="42.11959" lon="9.09798">
        <ele>1221</ele>
        <time>2015-06-24T05:25:06Z</time>
      </trkpt>
      <trkpt lat="42.11961" lon="9.09796">
        <ele>1221.8</ele>
        <time>2015-06-24T05:25:11Z</time>
      </trkpt>
      <trkpt lat="42.11963" lon="9.09796">
        <ele>1222.8</ele>
        <time>2015-06-24T05:25:16Z</time>
      </trkpt>
      <trkpt lat="42.11966" lon="9.09794">
        <ele>1223.8</ele>
        <time>2015-06-24T05:25:21Z</time>
      </trkpt>
      <trkpt lat="42.1197" lon="9.09786">
        <ele>1225.8</ele>
        <time>2015-06-24T05:25:31Z</time>
      </trkpt>
      <trkpt lat="42.11971" lon="9.09782">
        <ele>1226.2</ele>
        <time>2015-06-24T05:25:37Z</time>
      </trkpt>
      <trkpt lat="42.11971" lon="9.09778">
        <ele>1227</ele>
        <time>2015-06-24T05:25:42Z</time>
      </trkpt>
      <trkpt lat="42.11974" lon="9.09772">
        <ele>1228.4</ele>
        <time>2015-06-24T05:25:51Z</time>
      </trkpt>
      <trkpt lat="42.11975" lon="9.09764">
        <ele>1229.6</ele>
        <time>2015-06-24T05:26:02Z</time>
      </trkpt>
      <trkpt lat="42.11977" lon="9.09756">
        <ele>1230.6</ele>
        <time>2015-06-24T05:26:12Z</time>
      </trkpt>
      <trkpt lat="42.11976" lon="9.09748">
        <ele>1231.8</ele>
        <time>2015-06-24T05:26:21Z</time>
      </trkpt>
      <trkpt lat="42.11973" lon="9.0974">
        <ele>1232.4</ele>
        <time>2015-06-24T05:26:30Z</time>
      </trkpt>
      <trkpt lat="42.11972" lon="9.09738">
        <ele>1232.4</ele>
        <time>2015-06-24T05:26:32Z</time>
      </trkpt>
      <trkpt lat="42.11972" lon="9.09737">
        <ele>1232.6</ele>
        <time>2015-06-24T05:26:33Z</time>
      </trkpt>
      <trkpt lat="42.12" lon="9.09707">
        <ele>1232.2</ele>
        <time>2015-06-24T05:28:26Z</time>
      </trkpt>
      <trkpt lat="42.11998" lon="9.09704">
        <ele>1232.2</ele>
        <time>2015-06-24T05:28:37Z</time>
      </trkpt>
      <trkpt lat="42.11998" lon="9.09702">
        <ele>1232.2</ele>
        <time>2015-06-24T05:28:42Z</time>
      </trkpt>
      <trkpt lat="42.11991" lon="9.09715">
        <ele>1232.4</ele>
        <time>2015-06-24T05:29:36Z</time>
      </trkpt>
      <trkpt lat="42.11992" lon="9.09714">
        <ele>1232</ele>
        <time>2015-06-24T05:30:54Z</time>
      </trkpt>
      <trkpt lat="42.11992" lon="9.09714">
        <ele>1232.2</ele>
        <time>2015-06-24T05:30:57Z</time>
      </trkpt>
      <trkpt lat="42.11992" lon="9.09714">
        <ele>1232.6</ele>
        <time>2015-06-24T05:31:40Z</time>
      </trkpt>
      <trkpt lat="42.1199" lon="9.09713">
        <ele>1232.2</ele>
        <time>2015-06-24T05:32:58Z</time>
      </trkpt>
      <trkpt lat="42.12003" lon="9.09688">
        <ele>1231.8</ele>
        <time>2015-06-24T05:34:08Z</time>
      </trkpt>
      <trkpt lat="42.12006" lon="9.09674">
        <ele>1233</ele>
        <time>2015-06-24T05:34:23Z</time>
      </trkpt>
      <trkpt lat="42.12008" lon="9.09664">
        <ele>1233.4</ele>
        <time>2015-06-24T05:34:32Z</time>
      </trkpt>
      <trkpt lat="42.12008" lon="9.09663">
        <ele>1233.4</ele>
        <time>2015-06-24T05:34:33Z</time>
      </trkpt>
      <trkpt lat="42.12008" lon="9.09648">
        <ele>1234.6</ele>
        <time>2015-06-24T05:34:45Z</time>
      </trkpt>
      <trkpt lat="42.1201" lon="9.09637">
        <ele>1235.2</ele>
        <time>2015-06-24T05:34:54Z</time>
      </trkpt>
      <trkpt lat="42.12011" lon="9.09633">
        <ele>1235.2</ele>
        <time>2015-06-24T05:34:58Z</time>
      </trkpt>
      <trkpt lat="42.12019" lon="9.09615">
        <ele>1236.2</ele>
        <time>2015-06-24T05:35:13Z</time>
      </trkpt>
      <trkpt lat="42.12022" lon="9.09593">
        <ele>1237</ele>
        <time>2015-06-24T05:35:34Z</time>
      </trkpt>
      <trkpt lat="42.12029" lon="9.09586">
        <ele>1237.8</ele>
        <time>2015-06-24T05:35:45Z</time>
      </trkpt>
      <trkpt lat="42.12032" lon="9.0958">
        <ele>1238.6</ele>
        <time>2015-06-24T05:35:54Z</time>
      </trkpt>
      <trkpt lat="42.12034" lon="9.09576">
        <ele>1239.2</ele>
        <time>2015-06-24T05:36:01Z</time>
      </trkpt>
      <trkpt lat="42.12035" lon="9.09572">
        <ele>1239.8</ele>
        <time>2015-06-24T05:36:06Z</time>
      </trkpt>
      <trkpt lat="42.12035" lon="9.0957">
        <ele>1240.6</ele>
        <time>2015-06-24T05:36:10Z</time>
      </trkpt>
      <trkpt lat="42.12037" lon="9.0957">
        <ele>1242.4</ele>
        <time>2015-06-24T05:36:18Z</time>
      </trkpt>
      <trkpt lat="42.12039" lon="9.09569">
        <ele>1243.2</ele>
        <time>2015-06-24T05:36:25Z</time>
      </trkpt>
      <trkpt lat="42.12046" lon="9.09571">
        <ele>1244.6</ele>
        <time>2015-06-24T05:36:40Z</time>
      </trkpt>
      <trkpt lat="42.12049" lon="9.0957">
        <ele>1245</ele>
        <time>2015-06-24T05:36:46Z</time>
      </trkpt>
      <trkpt lat="42.12051" lon="9.09567">
        <ele>1245.8</ele>
        <time>2015-06-24T05:36:51Z</time>
      </trkpt>
      <trkpt lat="42.12052" lon="9.09562">
        <ele>1246.8</ele>
        <time>2015-06-24T05:36:56Z</time>
      </trkpt>
      <trkpt lat="42.12054" lon="9.09557">
        <ele>1248.2</ele>
        <time>2015-06-24T05:37:03Z</time>
      </trkpt>
      <trkpt lat="42.12055" lon="9.09552">
        <ele>1249.2</ele>
        <time>2015-06-24T05:37:09Z</time>
      </trkpt>
      <trkpt lat="42.12058" lon="9.09547">
        <ele>1250.4</ele>
        <time>2015-06-24T05:37:17Z</time>
      </trkpt>
      <trkpt lat="42.1206" lon="9.09543">
        <ele>1251.2</ele>
        <time>2015-06-24T05:37:24Z</time>
      </trkpt>
      <trkpt lat="42.12065" lon="9.09544">
        <ele>1252.2</ele>
        <time>2015-06-24T05:37:31Z</time>
      </trkpt>
      <trkpt lat="42.12067" lon="9.09541">
        <ele>1253</ele>
        <time>2015-06-24T05:37:36Z</time>
      </trkpt>
      <trkpt lat="42.12069" lon="9.09535">
        <ele>1254.4</ele>
        <time>2015-06-24T05:37:44Z</time>
      </trkpt>
      <trkpt lat="42.12078" lon="9.0953">
        <ele>1255.4</ele>
        <time>2015-06-24T05:38:08Z</time>
      </trkpt>
      <trkpt lat="42.12083" lon="9.09523">
        <ele>1255.8</ele>
        <time>2015-06-24T05:38:27Z</time>
      </trkpt>
      <trkpt lat="42.12085" lon="9.09509">
        <ele>1256.8</ele>
        <time>2015-06-24T05:38:42Z</time>
      </trkpt>
      <trkpt lat="42.12091" lon="9.09499">
        <ele>1257.8</ele>
        <time>2015-06-24T05:38:56Z</time>
      </trkpt>
      <trkpt lat="42.12096" lon="9.09493">
        <ele>1258.6</ele>
        <time>2015-06-24T05:39:10Z</time>
      </trkpt>
      <trkpt lat="42.12097" lon="9.09485">
        <ele>1259</ele>
        <time>2015-06-24T05:39:22Z</time>
      </trkpt>
      <trkpt lat="42.12098" lon="9.0948">
        <ele>1259.8</ele>
        <time>2015-06-24T05:39:31Z</time>
      </trkpt>
      <trkpt lat="42.121" lon="9.09479">
        <ele>1261</ele>
        <time>2015-06-24T05:39:43Z</time>
      </trkpt>
      <trkpt lat="42.12106" lon="9.09475">
        <ele>1261.6</ele>
        <time>2015-06-24T05:39:58Z</time>
      </trkpt>
      <trkpt lat="42.12109" lon="9.09471">
        <ele>1262.2</ele>
        <time>2015-06-24T05:40:06Z</time>
      </trkpt>
      <trkpt lat="42.12107" lon="9.09469">
        <ele>1263.4</ele>
        <time>2015-06-24T05:40:16Z</time>
      </trkpt>
      <trkpt lat="42.12105" lon="9.0947">
        <ele>1264</ele>
        <time>2015-06-24T05:40:23Z</time>
      </trkpt>
      <trkpt lat="42.12104" lon="9.09464">
        <ele>1265.2</ele>
        <time>2015-06-24T05:40:34Z</time>
      </trkpt>
      <trkpt lat="42.12105" lon="9.09459">
        <ele>1266.4</ele>
        <time>2015-06-24T05:40:42Z</time>
      </trkpt>
      <trkpt lat="42.12108" lon="9.09454">
        <ele>1267.2</ele>
        <time>2015-06-24T05:40:51Z</time>
      </trkpt>
      <trkpt lat="42.12109" lon="9.09453">
        <ele>1268.2</ele>
        <time>2015-06-24T05:41:00Z</time>
      </trkpt>
      <trkpt lat="42.1211" lon="9.09451">
        <ele>1269.2</ele>
        <time>2015-06-24T05:41:07Z</time>
      </trkpt>
      <trkpt lat="42.12109" lon="9.09446">
        <ele>1270.4</ele>
        <time>2015-06-24T05:41:20Z</time>
      </trkpt>
      <trkpt lat="42.12108" lon="9.09444">
        <ele>1270.8</ele>
        <time>2015-06-24T05:41:26Z</time>
      </trkpt>
      <trkpt lat="42.1211" lon="9.09445">
        <ele>1271.8</ele>
        <time>2015-06-24T05:41:35Z</time>
      </trkpt>
      <trkpt lat="42.12111" lon="9.09441">
        <ele>1272.8</ele>
        <time>2015-06-24T05:41:41Z</time>
      </trkpt>
      <trkpt lat="42.12112" lon="9.09434">
        <ele>1273.8</ele>
        <time>2015-06-24T05:41:49Z</time>
      </trkpt>
      <trkpt lat="42.12112" lon="9.09431">
        <ele>1274.4</ele>
        <time>2015-06-24T05:41:54Z</time>
      </trkpt>
      <trkpt lat="42.12114" lon="9.09428">
        <ele>1275.6</ele>
        <time>2015-06-24T05:42:00Z</time>
      </trkpt>
      <trkpt lat="42.12113" lon="9.09414">
        <ele>1277.2</ele>
        <time>2015-06-24T05:42:14Z</time>
      </trkpt>
      <trkpt lat="42.12109" lon="9.09398">
        <ele>1278</ele>
        <time>2015-06-24T05:42:36Z</time>
      </trkpt>
      <trkpt lat="42.12106" lon="9.0939">
        <ele>1278.4</ele>
        <time>2015-06-24T05:42:46Z</time>
      </trkpt>
      <trkpt lat="42.12105" lon="9.09383">
        <ele>1279.6</ele>
        <time>2015-06-24T05:42:57Z</time>
      </trkpt>
      <trkpt lat="42.12105" lon="9.0938">
        <ele>1280</ele>
        <time>2015-06-24T05:43:02Z</time>
      </trkpt>
      <trkpt lat="42.12104" lon="9.09374">
        <ele>1281.6</ele>
        <time>2015-06-24T05:43:11Z</time>
      </trkpt>
      <trkpt lat="42.12105" lon="9.09366">
        <ele>1282.4</ele>
        <time>2015-06-24T05:43:19Z</time>
      </trkpt>
      <trkpt lat="42.12107" lon="9.09357">
        <ele>1283.4</ele>
        <time>2015-06-24T05:43:31Z</time>
      </trkpt>
      <trkpt lat="42.12107" lon="9.09352">
        <ele>1284.2</ele>
        <time>2015-06-24T05:43:37Z</time>
      </trkpt>
      <trkpt lat="42.12103" lon="9.09349">
        <ele>1285.2</ele>
        <time>2015-06-24T05:43:44Z</time>
      </trkpt>
      <trkpt lat="42.12103" lon="9.09325">
        <ele>1286.4</ele>
        <time>2015-06-24T05:44:12Z</time>
      </trkpt>
      <trkpt lat="42.12103" lon="9.09319">
        <ele>1286.8</ele>
        <time>2015-06-24T05:44:20Z</time>
      </trkpt>
      <trkpt lat="42.12103" lon="9.09313">
        <ele>1287.6</ele>
        <time>2015-06-24T05:44:28Z</time>
      </trkpt>
      <trkpt lat="42.12105" lon="9.09308">
        <ele>1288.8</ele>
        <time>2015-06-24T05:44:35Z</time>
      </trkpt>
      <trkpt lat="42.12107" lon="9.09301">
        <ele>1290</ele>
        <time>2015-06-24T05:44:44Z</time>
      </trkpt>
      <trkpt lat="42.1211" lon="9.09298">
        <ele>1290.8</ele>
        <time>2015-06-24T05:44:52Z</time>
      </trkpt>
      <trkpt lat="42.12113" lon="9.09293">
        <ele>1292.2</ele>
        <time>2015-06-24T05:45:01Z</time>
      </trkpt>
      <trkpt lat="42.12115" lon="9.09285">
        <ele>1293</ele>
        <time>2015-06-24T05:45:11Z</time>
      </trkpt>
      <trkpt lat="42.12114" lon="9.0928">
        <ele>1293.4</ele>
        <time>2015-06-24T05:45:17Z</time>
      </trkpt>
      <trkpt lat="42.12115" lon="9.09275">
        <ele>1294.6</ele>
        <time>2015-06-24T05:45:23Z</time>
      </trkpt>
      <trkpt lat="42.12116" lon="9.09271">
        <ele>1295.6</ele>
        <time>2015-06-24T05:45:30Z</time>
      </trkpt>
      <trkpt lat="42.12117" lon="9.09265">
        <ele>1296.6</ele>
        <time>2015-06-24T05:45:39Z</time>
      </trkpt>
      <trkpt lat="42.12121" lon="9.09259">
        <ele>1297.6</ele>
        <time>2015-06-24T05:45:46Z</time>
      </trkpt>
      <trkpt lat="42.12122" lon="9.09259">
        <ele>1297.8</ele>
        <time>2015-06-24T05:45:48Z</time>
      </trkpt>
      <trkpt lat="42.12122" lon="9.09255">
        <ele>1298.4</ele>
        <time>2015-06-24T05:45:59Z</time>
      </trkpt>
      <trkpt lat="42.12122" lon="9.09254">
        <ele>1299.4</ele>
        <time>2015-06-24T05:46:06Z</time>
      </trkpt>
      <trkpt lat="42.12123" lon="9.09252">
        <ele>1300.4</ele>
        <time>2015-06-24T05:46:13Z</time>
      </trkpt>
      <trkpt lat="42.12123" lon="9.09249">
        <ele>1301.2</ele>
        <time>2015-06-24T05:46:20Z</time>
      </trkpt>
      <trkpt lat="42.12124" lon="9.09242">
        <ele>1302.6</ele>
        <time>2015-06-24T05:46:31Z</time>
      </trkpt>
      <trkpt lat="42.12124" lon="9.09231">
        <ele>1303.6</ele>
        <time>2015-06-24T05:46:47Z</time>
      </trkpt>
      <trkpt lat="42.12124" lon="9.09223">
        <ele>1304.4</ele>
        <time>2015-06-24T05:46:56Z</time>
      </trkpt>
      <trkpt lat="42.12125" lon="9.09219">
        <ele>1305.2</ele>
        <time>2015-06-24T05:47:02Z</time>
      </trkpt>
      <trkpt lat="42.12127" lon="9.09213">
        <ele>1306.4</ele>
        <time>2015-06-24T05:47:09Z</time>
      </trkpt>
      <trkpt lat="42.12124" lon="9.09207">
        <ele>1307.4</ele>
        <time>2015-06-24T05:47:16Z</time>
      </trkpt>
      <trkpt lat="42.12122" lon="9.09206">
        <ele>1307.8</ele>
        <time>2015-06-24T05:47:20Z</time>
      </trkpt>
      <trkpt lat="42.12124" lon="9.09202">
        <ele>1308.2</ele>
        <time>2015-06-24T05:47:26Z</time>
      </trkpt>
      <trkpt lat="42.12139" lon="9.09172">
        <ele>1309.4</ele>
        <time>2015-06-24T05:48:03Z</time>
      </trkpt>
      <trkpt lat="42.1216" lon="9.0916">
        <ele>1309.8</ele>
        <time>2015-06-24T05:48:53Z</time>
      </trkpt>
      <trkpt lat="42.12166" lon="9.09161">
        <ele>1309.6</ele>
        <time>2015-06-24T05:48:59Z</time>
      </trkpt>
      <trkpt lat="42.12169" lon="9.09163">
        <ele>1309.4</ele>
        <time>2015-06-24T05:49:13Z</time>
      </trkpt>
      <trkpt lat="42.12177" lon="9.09162">
        <ele>1309.8</ele>
        <time>2015-06-24T05:49:49Z</time>
      </trkpt>
      <trkpt lat="42.12185" lon="9.09162">
        <ele>1311.2</ele>
        <time>2015-06-24T05:50:02Z</time>
      </trkpt>
      <trkpt lat="42.12193" lon="9.09158">
        <ele>1311.8</ele>
        <time>2015-06-24T05:50:16Z</time>
      </trkpt>
      <trkpt lat="42.12197" lon="9.09156">
        <ele>1312.6</ele>
        <time>2015-06-24T05:50:24Z</time>
      </trkpt>
      <trkpt lat="42.12206" lon="9.09146">
        <ele>1314</ele>
        <time>2015-06-24T05:50:42Z</time>
      </trkpt>
      <trkpt lat="42.12213" lon="9.09137">
        <ele>1315.2</ele>
        <time>2015-06-24T05:50:57Z</time>
      </trkpt>
      <trkpt lat="42.12219" lon="9.09127">
        <ele>1315.6</ele>
        <time>2015-06-24T05:51:14Z</time>
      </trkpt>
      <trkpt lat="42.12224" lon="9.09124">
        <ele>1315.6</ele>
        <time>2015-06-24T05:51:19Z</time>
      </trkpt>
      <trkpt lat="42.12228" lon="9.09109">
        <ele>1315.6</ele>
        <time>2015-06-24T05:51:40Z</time>
      </trkpt>
      <trkpt lat="42.1223" lon="9.09102">
        <ele>1316.6</ele>
        <time>2015-06-24T05:51:55Z</time>
      </trkpt>
      <trkpt lat="42.1223" lon="9.09094">
        <ele>1317.6</ele>
        <time>2015-06-24T05:52:22Z</time>
      </trkpt>
      <trkpt lat="42.12232" lon="9.09091">
        <ele>1318</ele>
        <time>2015-06-24T05:52:28Z</time>
      </trkpt>
      <trkpt lat="42.12238" lon="9.09087">
        <ele>1319.6</ele>
        <time>2015-06-24T05:52:38Z</time>
      </trkpt>
      <trkpt lat="42.12242" lon="9.09085">
        <ele>1320.4</ele>
        <time>2015-06-24T05:52:46Z</time>
      </trkpt>
      <trkpt lat="42.12243" lon="9.09081">
        <ele>1321</ele>
        <time>2015-06-24T05:52:51Z</time>
      </trkpt>
      <trkpt lat="42.12244" lon="9.09078">
        <ele>1321.2</ele>
        <time>2015-06-24T05:52:54Z</time>
      </trkpt>
      <trkpt lat="42.12246" lon="9.09077">
        <ele>1321.8</ele>
        <time>2015-06-24T05:53:02Z</time>
      </trkpt>
      <trkpt lat="42.1225" lon="9.09075">
        <ele>1322</ele>
        <time>2015-06-24T05:53:09Z</time>
      </trkpt>
      <trkpt lat="42.12255" lon="9.09071">
        <ele>1323.2</ele>
        <time>2015-06-24T05:53:19Z</time>
      </trkpt>
      <trkpt lat="42.1226" lon="9.09064">
        <ele>1324</ele>
        <time>2015-06-24T05:53:30Z</time>
      </trkpt>
      <trkpt lat="42.12264" lon="9.0906">
        <ele>1325.2</ele>
        <time>2015-06-24T05:53:42Z</time>
      </trkpt>
      <trkpt lat="42.12268" lon="9.09056">
        <ele>1325.8</ele>
        <time>2015-06-24T05:53:50Z</time>
      </trkpt>
      <trkpt lat="42.12271" lon="9.09053">
        <ele>1326.8</ele>
        <time>2015-06-24T05:53:59Z</time>
      </trkpt>
      <trkpt lat="42.12272" lon="9.09051">
        <ele>1327.8</ele>
        <time>2015-06-24T05:54:06Z</time>
      </trkpt>
      <trkpt lat="42.12273" lon="9.09047">
        <ele>1328.8</ele>
        <time>2015-06-24T05:54:15Z</time>
      </trkpt>
      <trkpt lat="42.12277" lon="9.09039">
        <ele>1330</ele>
        <time>2015-06-24T05:54:23Z</time>
      </trkpt>
      <trkpt lat="42.12284" lon="9.09043">
        <ele>1331.2</ele>
        <time>2015-06-24T05:54:40Z</time>
      </trkpt>
      <trkpt lat="42.12289" lon="9.09044">
        <ele>1332</ele>
        <time>2015-06-24T05:54:51Z</time>
      </trkpt>
      <trkpt lat="42.12297" lon="9.09044">
        <ele>1333</ele>
        <time>2015-06-24T05:55:01Z</time>
      </trkpt>
      <trkpt lat="42.12302" lon="9.0904">
        <ele>1333.8</ele>
        <time>2015-06-24T05:55:10Z</time>
      </trkpt>
      <trkpt lat="42.12307" lon="9.09038">
        <ele>1334.6</ele>
        <time>2015-06-24T05:55:17Z</time>
      </trkpt>
      <trkpt lat="42.12312" lon="9.09035">
        <ele>1335.8</ele>
        <time>2015-06-24T05:55:27Z</time>
      </trkpt>
      <trkpt lat="42.12314" lon="9.09031">
        <ele>1336.6</ele>
        <time>2015-06-24T05:55:34Z</time>
      </trkpt>
      <trkpt lat="42.12319" lon="9.09032">
        <ele>1337.8</ele>
        <time>2015-06-24T05:55:43Z</time>
      </trkpt>
      <trkpt lat="42.12328" lon="9.09027">
        <ele>1338.8</ele>
        <time>2015-06-24T05:55:58Z</time>
      </trkpt>
      <trkpt lat="42.12334" lon="9.09025">
        <ele>1339.4</ele>
        <time>2015-06-24T05:56:08Z</time>
      </trkpt>
      <trkpt lat="42.12339" lon="9.09023">
        <ele>1340.4</ele>
        <time>2015-06-24T05:56:18Z</time>
      </trkpt>
      <trkpt lat="42.12344" lon="9.09024">
        <ele>1341.4</ele>
        <time>2015-06-24T05:56:26Z</time>
      </trkpt>
      <trkpt lat="42.12349" lon="9.09016">
        <ele>1342.6</ele>
        <time>2015-06-24T05:56:37Z</time>
      </trkpt>
      <trkpt lat="42.12355" lon="9.0901">
        <ele>1343.2</ele>
        <time>2015-06-24T05:56:50Z</time>
      </trkpt>
      <trkpt lat="42.12358" lon="9.09009">
        <ele>1344</ele>
        <time>2015-06-24T05:56:58Z</time>
      </trkpt>
      <trkpt lat="42.12361" lon="9.09">
        <ele>1345</ele>
        <time>2015-06-24T05:57:08Z</time>
      </trkpt>
      <trkpt lat="42.12365" lon="9.08996">
        <ele>1346</ele>
        <time>2015-06-24T05:57:16Z</time>
      </trkpt>
      <trkpt lat="42.12368" lon="9.0899">
        <ele>1347.4</ele>
        <time>2015-06-24T05:57:26Z</time>
      </trkpt>
      <trkpt lat="42.12374" lon="9.08989">
        <ele>1348</ele>
        <time>2015-06-24T05:57:36Z</time>
      </trkpt>
      <trkpt lat="42.12381" lon="9.08993">
        <ele>1348.8</ele>
        <time>2015-06-24T05:57:47Z</time>
      </trkpt>
      <trkpt lat="42.12385" lon="9.08996">
        <ele>1349.8</ele>
        <time>2015-06-24T05:57:56Z</time>
      </trkpt>
      <trkpt lat="42.12393" lon="9.08992">
        <ele>1351.2</ele>
        <time>2015-06-24T05:58:09Z</time>
      </trkpt>
      <trkpt lat="42.12397" lon="9.08985">
        <ele>1351.8</ele>
        <time>2015-06-24T05:58:20Z</time>
      </trkpt>
      <trkpt lat="42.12401" lon="9.08983">
        <ele>1352.6</ele>
        <time>2015-06-24T05:58:28Z</time>
      </trkpt>
      <trkpt lat="42.12405" lon="9.08983">
        <ele>1353.4</ele>
        <time>2015-06-24T05:58:35Z</time>
      </trkpt>
      <trkpt lat="42.12409" lon="9.08981">
        <ele>1354.4</ele>
        <time>2015-06-24T05:58:42Z</time>
      </trkpt>
      <trkpt lat="42.12411" lon="9.08975">
        <ele>1355.6</ele>
        <time>2015-06-24T05:58:51Z</time>
      </trkpt>
      <trkpt lat="42.12417" lon="9.08973">
        <ele>1356.8</ele>
        <time>2015-06-24T05:59:05Z</time>
      </trkpt>
      <trkpt lat="42.12421" lon="9.0897">
        <ele>1357.4</ele>
        <time>2015-06-24T05:59:15Z</time>
      </trkpt>
      <trkpt lat="42.12424" lon="9.08968">
        <ele>1358.4</ele>
        <time>2015-06-24T05:59:23Z</time>
      </trkpt>
      <trkpt lat="42.12428" lon="9.08966">
        <ele>1359.4</ele>
        <time>2015-06-24T05:59:33Z</time>
      </trkpt>
      <trkpt lat="42.12432" lon="9.08968">
        <ele>1360.2</ele>
        <time>2015-06-24T05:59:40Z</time>
      </trkpt>
      <trkpt lat="42.12435" lon="9.08962">
        <ele>1361.2</ele>
        <time>2015-06-24T05:59:51Z</time>
      </trkpt>
      <trkpt lat="42.12439" lon="9.0896">
        <ele>1362.2</ele>
        <time>2015-06-24T05:59:59Z</time>
      </trkpt>
      <trkpt lat="42.12443" lon="9.08955">
        <ele>1363</ele>
        <time>2015-06-24T06:00:08Z</time>
      </trkpt>
      <trkpt lat="42.12447" lon="9.08952">
        <ele>1364.4</ele>
        <time>2015-06-24T06:00:19Z</time>
      </trkpt>
      <trkpt lat="42.12451" lon="9.08952">
        <ele>1364.8</ele>
        <time>2015-06-24T06:00:26Z</time>
      </trkpt>
      <trkpt lat="42.12455" lon="9.08951">
        <ele>1365.4</ele>
        <time>2015-06-24T06:00:32Z</time>
      </trkpt>
      <trkpt lat="42.12458" lon="9.08949">
        <ele>1365.8</ele>
        <time>2015-06-24T06:00:36Z</time>
      </trkpt>
      <trkpt lat="42.1247" lon="9.08949">
        <ele>1366.6</ele>
        <time>2015-06-24T06:00:55Z</time>
      </trkpt>
      <trkpt lat="42.12475" lon="9.08947">
        <ele>1367.4</ele>
        <time>2015-06-24T06:01:03Z</time>
      </trkpt>
      <trkpt lat="42.12478" lon="9.08944">
        <ele>1368.2</ele>
        <time>2015-06-24T06:01:10Z</time>
      </trkpt>
      <trkpt lat="42.12487" lon="9.08936">
        <ele>1369.4</ele>
        <time>2015-06-24T06:01:27Z</time>
      </trkpt>
      <trkpt lat="42.12496" lon="9.08932">
        <ele>1370.2</ele>
        <time>2015-06-24T06:01:45Z</time>
      </trkpt>
      <trkpt lat="42.12501" lon="9.08936">
        <ele>1371.2</ele>
        <time>2015-06-24T06:01:55Z</time>
      </trkpt>
      <trkpt lat="42.12504" lon="9.08937">
        <ele>1371.2</ele>
        <time>2015-06-24T06:01:58Z</time>
      </trkpt>
      <trkpt lat="42.12508" lon="9.08938">
        <ele>1371.8</ele>
        <time>2015-06-24T06:02:04Z</time>
      </trkpt>
      <trkpt lat="42.12511" lon="9.08936">
        <ele>1372.6</ele>
        <time>2015-06-24T06:02:11Z</time>
      </trkpt>
      <trkpt lat="42.12512" lon="9.0893">
        <ele>1374</ele>
        <time>2015-06-24T06:02:18Z</time>
      </trkpt>
      <trkpt lat="42.12513" lon="9.08912">
        <ele>1375.2</ele>
        <time>2015-06-24T06:02:38Z</time>
      </trkpt>
      <trkpt lat="42.12513" lon="9.08907">
        <ele>1375.6</ele>
        <time>2015-06-24T06:02:46Z</time>
      </trkpt>
      <trkpt lat="42.12516" lon="9.08905">
        <ele>1376.8</ele>
        <time>2015-06-24T06:02:56Z</time>
      </trkpt>
      <trkpt lat="42.12519" lon="9.08906">
        <ele>1377.2</ele>
        <time>2015-06-24T06:03:03Z</time>
      </trkpt>
      <trkpt lat="42.12522" lon="9.08902">
        <ele>1378.4</ele>
        <time>2015-06-24T06:03:12Z</time>
      </trkpt>
      <trkpt lat="42.12524" lon="9.08901">
        <ele>1379.4</ele>
        <time>2015-06-24T06:03:20Z</time>
      </trkpt>
      <trkpt lat="42.12526" lon="9.089">
        <ele>1380</ele>
        <time>2015-06-24T06:03:27Z</time>
      </trkpt>
      <trkpt lat="42.12528" lon="9.08896">
        <ele>1381.2</ele>
        <time>2015-06-24T06:03:36Z</time>
      </trkpt>
      <trkpt lat="42.12528" lon="9.08893">
        <ele>1382</ele>
        <time>2015-06-24T06:03:43Z</time>
      </trkpt>
      <trkpt lat="42.12528" lon="9.0889">
        <ele>1383</ele>
        <time>2015-06-24T06:03:50Z</time>
      </trkpt>
      <trkpt lat="42.12527" lon="9.08887">
        <ele>1383.8</ele>
        <time>2015-06-24T06:03:56Z</time>
      </trkpt>
      <trkpt lat="42.12524" lon="9.08878">
        <ele>1385</ele>
        <time>2015-06-24T06:04:18Z</time>
      </trkpt>
      <trkpt lat="42.12524" lon="9.08876">
        <ele>1385.4</ele>
        <time>2015-06-24T06:04:24Z</time>
      </trkpt>
      <trkpt lat="42.12527" lon="9.08874">
        <ele>1386.8</ele>
        <time>2015-06-24T06:04:39Z</time>
      </trkpt>
      <trkpt lat="42.1253" lon="9.08872">
        <ele>1387.4</ele>
        <time>2015-06-24T06:04:45Z</time>
      </trkpt>
      <trkpt lat="42.12533" lon="9.08869">
        <ele>1388.4</ele>
        <time>2015-06-24T06:04:52Z</time>
      </trkpt>
      <trkpt lat="42.12533" lon="9.08852">
        <ele>1390.2</ele>
        <time>2015-06-24T06:05:13Z</time>
      </trkpt>
      <trkpt lat="42.12536" lon="9.08852">
        <ele>1390.2</ele>
        <time>2015-06-24T06:05:22Z</time>
      </trkpt>
      <trkpt lat="42.12542" lon="9.08848">
        <ele>1391.6</ele>
        <time>2015-06-24T06:05:35Z</time>
      </trkpt>
      <trkpt lat="42.12545" lon="9.0885">
        <ele>1392.6</ele>
        <time>2015-06-24T06:05:52Z</time>
      </trkpt>
      <trkpt lat="42.12546" lon="9.08851">
        <ele>1393.2</ele>
        <time>2015-06-24T06:06:00Z</time>
      </trkpt>
      <trkpt lat="42.1255" lon="9.08847">
        <ele>1394</ele>
        <time>2015-06-24T06:06:08Z</time>
      </trkpt>
      <trkpt lat="42.12552" lon="9.0884">
        <ele>1395</ele>
        <time>2015-06-24T06:06:17Z</time>
      </trkpt>
      <trkpt lat="42.12556" lon="9.08832">
        <ele>1396</ele>
        <time>2015-06-24T06:06:29Z</time>
      </trkpt>
      <trkpt lat="42.1256" lon="9.08829">
        <ele>1396.8</ele>
        <time>2015-06-24T06:06:36Z</time>
      </trkpt>
      <trkpt lat="42.12563" lon="9.08824">
        <ele>1398.2</ele>
        <time>2015-06-24T06:06:46Z</time>
      </trkpt>
      <trkpt lat="42.12567" lon="9.08817">
        <ele>1399.2</ele>
        <time>2015-06-24T06:06:58Z</time>
      </trkpt>
      <trkpt lat="42.12581" lon="9.08803">
        <ele>1400</ele>
        <time>2015-06-24T06:07:22Z</time>
      </trkpt>
      <trkpt lat="42.12587" lon="9.08801">
        <ele>1400.8</ele>
        <time>2015-06-24T06:07:32Z</time>
      </trkpt>
      <trkpt lat="42.12589" lon="9.08803">
        <ele>1401</ele>
        <time>2015-06-24T06:07:36Z</time>
      </trkpt>
      <trkpt lat="42.12593" lon="9.08803">
        <ele>1401.8</ele>
        <time>2015-06-24T06:07:43Z</time>
      </trkpt>
      <trkpt lat="42.12608" lon="9.08782">
        <ele>1402.6</ele>
        <time>2015-06-24T06:08:15Z</time>
      </trkpt>
      <trkpt lat="42.12609" lon="9.08778">
        <ele>1402.8</ele>
        <time>2015-06-24T06:08:18Z</time>
      </trkpt>
      <trkpt lat="42.12614" lon="9.08768">
        <ele>1403</ele>
        <time>2015-06-24T06:08:32Z</time>
      </trkpt>
      <trkpt lat="42.1262" lon="9.08755">
        <ele>1403.4</ele>
        <time>2015-06-24T06:08:46Z</time>
      </trkpt>
      <trkpt lat="42.12633" lon="9.0874">
        <ele>1404.4</ele>
        <time>2015-06-24T06:09:08Z</time>
      </trkpt>
      <trkpt lat="42.12636" lon="9.08743">
        <ele>1404</ele>
        <time>2015-06-24T06:09:13Z</time>
      </trkpt>
      <trkpt lat="42.12638" lon="9.08746">
        <ele>1404.6</ele>
        <time>2015-06-24T06:09:18Z</time>
      </trkpt>
      <trkpt lat="42.12643" lon="9.08747">
        <ele>1406.2</ele>
        <time>2015-06-24T06:09:27Z</time>
      </trkpt>
      <trkpt lat="42.12646" lon="9.0875">
        <ele>1406.8</ele>
        <time>2015-06-24T06:09:35Z</time>
      </trkpt>
      <trkpt lat="42.12653" lon="9.08753">
        <ele>1408</ele>
        <time>2015-06-24T06:09:46Z</time>
      </trkpt>
      <trkpt lat="42.12655" lon="9.08753">
        <ele>1408.4</ele>
        <time>2015-06-24T06:09:51Z</time>
      </trkpt>
      <trkpt lat="42.12661" lon="9.08751">
        <ele>1409</ele>
        <time>2015-06-24T06:09:59Z</time>
      </trkpt>
      <trkpt lat="42.12667" lon="9.0875">
        <ele>1410</ele>
        <time>2015-06-24T06:10:13Z</time>
      </trkpt>
      <trkpt lat="42.1267" lon="9.08751">
        <ele>1410</ele>
        <time>2015-06-24T06:10:18Z</time>
      </trkpt>
      <trkpt lat="42.12675" lon="9.08748">
        <ele>1411.8</ele>
        <time>2015-06-24T06:10:27Z</time>
      </trkpt>
      <trkpt lat="42.12678" lon="9.08749">
        <ele>1412.6</ele>
        <time>2015-06-24T06:10:36Z</time>
      </trkpt>
      <trkpt lat="42.12681" lon="9.0875">
        <ele>1413.4</ele>
        <time>2015-06-24T06:10:44Z</time>
      </trkpt>
      <trkpt lat="42.12688" lon="9.0875">
        <ele>1414.6</ele>
        <time>2015-06-24T06:10:54Z</time>
      </trkpt>
      <trkpt lat="42.12693" lon="9.08748">
        <ele>1415.8</ele>
        <time>2015-06-24T06:11:02Z</time>
      </trkpt>
      <trkpt lat="42.12697" lon="9.0875">
        <ele>1416.8</ele>
        <time>2015-06-24T06:11:15Z</time>
      </trkpt>
      <trkpt lat="42.127" lon="9.0875">
        <ele>1417.2</ele>
        <time>2015-06-24T06:11:22Z</time>
      </trkpt>
      <trkpt lat="42.12704" lon="9.08753">
        <ele>1418.4</ele>
        <time>2015-06-24T06:11:31Z</time>
      </trkpt>
      <trkpt lat="42.12704" lon="9.08756">
        <ele>1419.2</ele>
        <time>2015-06-24T06:11:37Z</time>
      </trkpt>
      <trkpt lat="42.12705" lon="9.08756">
        <ele>1420.6</ele>
        <time>2015-06-24T06:11:44Z</time>
      </trkpt>
      <trkpt lat="42.12709" lon="9.08757">
        <ele>1421.6</ele>
        <time>2015-06-24T06:11:52Z</time>
      </trkpt>
      <trkpt lat="42.12712" lon="9.08758">
        <ele>1422.2</ele>
        <time>2015-06-24T06:11:59Z</time>
      </trkpt>
      <trkpt lat="42.12721" lon="9.08758">
        <ele>1423.6</ele>
        <time>2015-06-24T06:12:11Z</time>
      </trkpt>
      <trkpt lat="42.12724" lon="9.08753">
        <ele>1424.6</ele>
        <time>2015-06-24T06:12:20Z</time>
      </trkpt>
      <trkpt lat="42.12731" lon="9.08754">
        <ele>1425.6</ele>
        <time>2015-06-24T06:12:33Z</time>
      </trkpt>
      <trkpt lat="42.12736" lon="9.08759">
        <ele>1426.6</ele>
        <time>2015-06-24T06:12:42Z</time>
      </trkpt>
      <trkpt lat="42.12738" lon="9.08761">
        <ele>1427.2</ele>
        <time>2015-06-24T06:12:50Z</time>
      </trkpt>
      <trkpt lat="42.1274" lon="9.08762">
        <ele>1428</ele>
        <time>2015-06-24T06:12:56Z</time>
      </trkpt>
      <trkpt lat="42.12742" lon="9.08766">
        <ele>1429.4</ele>
        <time>2015-06-24T06:13:05Z</time>
      </trkpt>
      <trkpt lat="42.12741" lon="9.0877">
        <ele>1430.4</ele>
        <time>2015-06-24T06:13:13Z</time>
      </trkpt>
      <trkpt lat="42.12743" lon="9.08771">
        <ele>1431.2</ele>
        <time>2015-06-24T06:13:20Z</time>
      </trkpt>
      <trkpt lat="42.12742" lon="9.08773">
        <ele>1432.6</ele>
        <time>2015-06-24T06:13:31Z</time>
      </trkpt>
      <trkpt lat="42.12745" lon="9.08775">
        <ele>1433.4</ele>
        <time>2015-06-24T06:13:40Z</time>
      </trkpt>
      <trkpt lat="42.12748" lon="9.08775">
        <ele>1434.8</ele>
        <time>2015-06-24T06:13:51Z</time>
      </trkpt>
      <trkpt lat="42.12761" lon="9.08769">
        <ele>1436</ele>
        <time>2015-06-24T06:14:18Z</time>
      </trkpt>
      <trkpt lat="42.12765" lon="9.0877">
        <ele>1436.4</ele>
        <time>2015-06-24T06:14:26Z</time>
      </trkpt>
      <trkpt lat="42.12773" lon="9.0877">
        <ele>1437.6</ele>
        <time>2015-06-24T06:14:40Z</time>
      </trkpt>
      <trkpt lat="42.12774" lon="9.08772">
        <ele>1437.8</ele>
        <time>2015-06-24T06:14:43Z</time>
      </trkpt>
      <trkpt lat="42.12776" lon="9.08771">
        <ele>1437.8</ele>
        <time>2015-06-24T06:14:46Z</time>
      </trkpt>
      <trkpt lat="42.12787" lon="9.08772">
        <ele>1438.4</ele>
        <time>2015-06-24T06:15:19Z</time>
      </trkpt>
      <trkpt lat="42.12793" lon="9.08763">
        <ele>1439.4</ele>
        <time>2015-06-24T06:15:36Z</time>
      </trkpt>
      <trkpt lat="42.12801" lon="9.08765">
        <ele>1440.2</ele>
        <time>2015-06-24T06:15:51Z</time>
      </trkpt>
      <trkpt lat="42.12802" lon="9.08767">
        <ele>1440.4</ele>
        <time>2015-06-24T06:15:55Z</time>
      </trkpt>
      <trkpt lat="42.12806" lon="9.0877">
        <ele>1441</ele>
        <time>2015-06-24T06:16:02Z</time>
      </trkpt>
      <trkpt lat="42.12811" lon="9.08773">
        <ele>1442.2</ele>
        <time>2015-06-24T06:16:12Z</time>
      </trkpt>
      <trkpt lat="42.12813" lon="9.08774">
        <ele>1443.4</ele>
        <time>2015-06-24T06:16:22Z</time>
      </trkpt>
      <trkpt lat="42.12817" lon="9.08776">
        <ele>1444.4</ele>
        <time>2015-06-24T06:16:37Z</time>
      </trkpt>
      <trkpt lat="42.12821" lon="9.08782">
        <ele>1445.2</ele>
        <time>2015-06-24T06:16:48Z</time>
      </trkpt>
      <trkpt lat="42.12829" lon="9.08783">
        <ele>1446.4</ele>
        <time>2015-06-24T06:17:01Z</time>
      </trkpt>
      <trkpt lat="42.12832" lon="9.08785">
        <ele>1447.2</ele>
        <time>2015-06-24T06:17:10Z</time>
      </trkpt>
      <trkpt lat="42.12835" lon="9.08786">
        <ele>1448.6</ele>
        <time>2015-06-24T06:17:20Z</time>
      </trkpt>
      <trkpt lat="42.12837" lon="9.08787">
        <ele>1449.2</ele>
        <time>2015-06-24T06:17:29Z</time>
      </trkpt>
      <trkpt lat="42.12841" lon="9.08788">
        <ele>1450.6</ele>
        <time>2015-06-24T06:17:38Z</time>
      </trkpt>
      <trkpt lat="42.12843" lon="9.08787">
        <ele>1451.4</ele>
        <time>2015-06-24T06:17:45Z</time>
      </trkpt>
      <trkpt lat="42.12844" lon="9.08787">
        <ele>1452.6</ele>
        <time>2015-06-24T06:17:55Z</time>
      </trkpt>
      <trkpt lat="42.12847" lon="9.08782">
        <ele>1453.6</ele>
        <time>2015-06-24T06:18:05Z</time>
      </trkpt>
      <trkpt lat="42.12851" lon="9.08773">
        <ele>1454.4</ele>
        <time>2015-06-24T06:18:21Z</time>
      </trkpt>
      <trkpt lat="42.12856" lon="9.08768">
        <ele>1455.6</ele>
        <time>2015-06-24T06:18:32Z</time>
      </trkpt>
      <trkpt lat="42.12861" lon="9.08766">
        <ele>1456.4</ele>
        <time>2015-06-24T06:18:40Z</time>
      </trkpt>
      <trkpt lat="42.12866" lon="9.08763">
        <ele>1457.4</ele>
        <time>2015-06-24T06:18:50Z</time>
      </trkpt>
      <trkpt lat="42.12868" lon="9.08762">
        <ele>1458.4</ele>
        <time>2015-06-24T06:18:57Z</time>
      </trkpt>
      <trkpt lat="42.12872" lon="9.08762">
        <ele>1459.6</ele>
        <time>2015-06-24T06:19:07Z</time>
      </trkpt>
      <trkpt lat="42.12877" lon="9.08758">
        <ele>1460.8</ele>
        <time>2015-06-24T06:19:23Z</time>
      </trkpt>
      <trkpt lat="42.1289" lon="9.08752">
        <ele>1462</ele>
        <time>2015-06-24T06:19:47Z</time>
      </trkpt>
      <trkpt lat="42.12895" lon="9.08744">
        <ele>1462.6</ele>
        <time>2015-06-24T06:20:02Z</time>
      </trkpt>
      <trkpt lat="42.12902" lon="9.08739">
        <ele>1463.2</ele>
        <time>2015-06-24T06:20:15Z</time>
      </trkpt>
      <trkpt lat="42.12909" lon="9.08726">
        <ele>1464</ele>
        <time>2015-06-24T06:20:59Z</time>
      </trkpt>
      <trkpt lat="42.1291" lon="9.08724">
        <ele>1465.2</ele>
        <time>2015-06-24T06:21:16Z</time>
      </trkpt>
      <trkpt lat="42.1291" lon="9.08723">
        <ele>1466.2</ele>
        <time>2015-06-24T06:21:26Z</time>
      </trkpt>
      <trkpt lat="42.12911" lon="9.0872">
        <ele>1467.2</ele>
        <time>2015-06-24T06:21:38Z</time>
      </trkpt>
      <trkpt lat="42.12913" lon="9.08719">
        <ele>1468.2</ele>
        <time>2015-06-24T06:21:52Z</time>
      </trkpt>
      <trkpt lat="42.12915" lon="9.08717">
        <ele>1468.8</ele>
        <time>2015-06-24T06:22:01Z</time>
      </trkpt>
      <trkpt lat="42.12917" lon="9.08716">
        <ele>1469.6</ele>
        <time>2015-06-24T06:22:07Z</time>
      </trkpt>
      <trkpt lat="42.12919" lon="9.08715">
        <ele>1471.2</ele>
        <time>2015-06-24T06:22:16Z</time>
      </trkpt>
      <trkpt lat="42.12921" lon="9.08713">
        <ele>1472.4</ele>
        <time>2015-06-24T06:22:28Z</time>
      </trkpt>
      <trkpt lat="42.12922" lon="9.0871">
        <ele>1473.2</ele>
        <time>2015-06-24T06:22:36Z</time>
      </trkpt>
      <trkpt lat="42.12922" lon="9.08706">
        <ele>1474.2</ele>
        <time>2015-06-24T06:22:44Z</time>
      </trkpt>
      <trkpt lat="42.12924" lon="9.08703">
        <ele>1475.4</ele>
        <time>2015-06-24T06:22:53Z</time>
      </trkpt>
      <trkpt lat="42.12923" lon="9.08704">
        <ele>1476.2</ele>
        <time>2015-06-24T06:23:04Z</time>
      </trkpt>
      <trkpt lat="42.12926" lon="9.08704">
        <ele>1477.2</ele>
        <time>2015-06-24T06:23:15Z</time>
      </trkpt>
      <trkpt lat="42.12928" lon="9.08706">
        <ele>1478.6</ele>
        <time>2015-06-24T06:23:31Z</time>
      </trkpt>
      <trkpt lat="42.12932" lon="9.08707">
        <ele>1479.2</ele>
        <time>2015-06-24T06:23:41Z</time>
      </trkpt>
      <trkpt lat="42.12933" lon="9.08706">
        <ele>1480.4</ele>
        <time>2015-06-24T06:23:49Z</time>
      </trkpt>
      <trkpt lat="42.12934" lon="9.08705">
        <ele>1481.4</ele>
        <time>2015-06-24T06:24:04Z</time>
      </trkpt>
      <trkpt lat="42.12934" lon="9.08703">
        <ele>1482.6</ele>
        <time>2015-06-24T06:24:15Z</time>
      </trkpt>
      <trkpt lat="42.12932" lon="9.087">
        <ele>1483.8</ele>
        <time>2015-06-24T06:24:32Z</time>
      </trkpt>
      <trkpt lat="42.12931" lon="9.08698">
        <ele>1484</ele>
        <time>2015-06-24T06:24:37Z</time>
      </trkpt>
      <trkpt lat="42.12932" lon="9.08695">
        <ele>1484.2</ele>
        <time>2015-06-24T06:24:42Z</time>
      </trkpt>
      <trkpt lat="42.12932" lon="9.0869">
        <ele>1485.8</ele>
        <time>2015-06-24T06:24:51Z</time>
      </trkpt>
      <trkpt lat="42.12931" lon="9.08684">
        <ele>1486.6</ele>
        <time>2015-06-24T06:24:58Z</time>
      </trkpt>
      <trkpt lat="42.12932" lon="9.0868">
        <ele>1487.8</ele>
        <time>2015-06-24T06:25:06Z</time>
      </trkpt>
      <trkpt lat="42.12933" lon="9.08677">
        <ele>1489</ele>
        <time>2015-06-24T06:25:14Z</time>
      </trkpt>
      <trkpt lat="42.12933" lon="9.08672">
        <ele>1490</ele>
        <time>2015-06-24T06:25:21Z</time>
      </trkpt>
      <trkpt lat="42.12932" lon="9.08665">
        <ele>1491.2</ele>
        <time>2015-06-24T06:25:31Z</time>
      </trkpt>
      <trkpt lat="42.12934" lon="9.08658">
        <ele>1492.2</ele>
        <time>2015-06-24T06:25:38Z</time>
      </trkpt>
      <trkpt lat="42.12933" lon="9.08651">
        <ele>1493.6</ele>
        <time>2015-06-24T06:25:47Z</time>
      </trkpt>
      <trkpt lat="42.12935" lon="9.08641">
        <ele>1494.6</ele>
        <time>2015-06-24T06:26:03Z</time>
      </trkpt>
      <trkpt lat="42.12937" lon="9.08639">
        <ele>1495.4</ele>
        <time>2015-06-24T06:26:12Z</time>
      </trkpt>
      <trkpt lat="42.12937" lon="9.08634">
        <ele>1496.8</ele>
        <time>2015-06-24T06:26:20Z</time>
      </trkpt>
      <trkpt lat="42.12937" lon="9.08635">
        <ele>1497.6</ele>
        <time>2015-06-24T06:26:30Z</time>
      </trkpt>
      <trkpt lat="42.12961" lon="9.08615">
        <ele>1499</ele>
        <time>2015-06-24T06:27:34Z</time>
      </trkpt>
      <trkpt lat="42.12967" lon="9.08614">
        <ele>1499.8</ele>
        <time>2015-06-24T06:27:44Z</time>
      </trkpt>
      <trkpt lat="42.12969" lon="9.08613">
        <ele>1500</ele>
        <time>2015-06-24T06:27:47Z</time>
      </trkpt>
      <trkpt lat="42.12971" lon="9.0861">
        <ele>1500.6</ele>
        <time>2015-06-24T06:27:53Z</time>
      </trkpt>
      <trkpt lat="42.12979" lon="9.08607">
        <ele>1502</ele>
        <time>2015-06-24T06:28:05Z</time>
      </trkpt>
      <trkpt lat="42.12985" lon="9.08604">
        <ele>1503.2</ele>
        <time>2015-06-24T06:28:19Z</time>
      </trkpt>
      <trkpt lat="42.12992" lon="9.08603">
        <ele>1503.8</ele>
        <time>2015-06-24T06:28:32Z</time>
      </trkpt>
      <trkpt lat="42.12998" lon="9.08598">
        <ele>1505</ele>
        <time>2015-06-24T06:28:47Z</time>
      </trkpt>
      <trkpt lat="42.13003" lon="9.08594">
        <ele>1505.8</ele>
        <time>2015-06-24T06:28:54Z</time>
      </trkpt>
      <trkpt lat="42.13005" lon="9.08591">
        <ele>1506</ele>
        <time>2015-06-24T06:28:58Z</time>
      </trkpt>
      <trkpt lat="42.13005" lon="9.08591">
        <ele>1506</ele>
        <time>2015-06-24T06:28:59Z</time>
      </trkpt>
      <trkpt lat="42.1301" lon="9.08586">
        <ele>1507</ele>
        <time>2015-06-24T06:29:14Z</time>
      </trkpt>
      <trkpt lat="42.13013" lon="9.08585">
        <ele>1507.6</ele>
        <time>2015-06-24T06:29:22Z</time>
      </trkpt>
      <trkpt lat="42.13019" lon="9.08585">
        <ele>1508.6</ele>
        <time>2015-06-24T06:29:34Z</time>
      </trkpt>
      <trkpt lat="42.1303" lon="9.08582">
        <ele>1509.8</ele>
        <time>2015-06-24T06:29:48Z</time>
      </trkpt>
      <trkpt lat="42.13031" lon="9.08582">
        <ele>1509.8</ele>
        <time>2015-06-24T06:29:49Z</time>
      </trkpt>
      <trkpt lat="42.13032" lon="9.08582">
        <ele>1509.8</ele>
        <time>2015-06-24T06:29:50Z</time>
      </trkpt>
      <trkpt lat="42.13034" lon="9.08582">
        <ele>1510</ele>
        <time>2015-06-24T06:29:52Z</time>
      </trkpt>
      <trkpt lat="42.13038" lon="9.08584">
        <ele>1510.2</ele>
        <time>2015-06-24T06:29:57Z</time>
      </trkpt>
      <trkpt lat="42.13041" lon="9.08586">
        <ele>1510.2</ele>
        <time>2015-06-24T06:30:02Z</time>
      </trkpt>
      <trkpt lat="42.13046" lon="9.08584">
        <ele>1511.6</ele>
        <time>2015-06-24T06:30:14Z</time>
      </trkpt>
      <trkpt lat="42.13051" lon="9.08582">
        <ele>1512.6</ele>
        <time>2015-06-24T06:30:23Z</time>
      </trkpt>
      <trkpt lat="42.13052" lon="9.08578">
        <ele>1513.4</ele>
        <time>2015-06-24T06:30:31Z</time>
      </trkpt>
      <trkpt lat="42.13058" lon="9.08577">
        <ele>1514.4</ele>
        <time>2015-06-24T06:30:44Z</time>
      </trkpt>
      <trkpt lat="42.13063" lon="9.08577">
        <ele>1515.2</ele>
        <time>2015-06-24T06:30:53Z</time>
      </trkpt>
      <trkpt lat="42.13069" lon="9.0858">
        <ele>1516.6</ele>
        <time>2015-06-24T06:31:03Z</time>
      </trkpt>
      <trkpt lat="42.13076" lon="9.08578">
        <ele>1517.4</ele>
        <time>2015-06-24T06:31:14Z</time>
      </trkpt>
      <trkpt lat="42.13081" lon="9.08578">
        <ele>1518.6</ele>
        <time>2015-06-24T06:31:25Z</time>
      </trkpt>
      <trkpt lat="42.13085" lon="9.08578">
        <ele>1519.6</ele>
        <time>2015-06-24T06:31:35Z</time>
      </trkpt>
      <trkpt lat="42.13086" lon="9.08578">
        <ele>1520.6</ele>
        <time>2015-06-24T06:31:46Z</time>
      </trkpt>
      <trkpt lat="42.13094" lon="9.08583">
        <ele>1521.6</ele>
        <time>2015-06-24T06:32:06Z</time>
      </trkpt>
      <trkpt lat="42.13099" lon="9.08588">
        <ele>1522.4</ele>
        <time>2015-06-24T06:32:14Z</time>
      </trkpt>
      <trkpt lat="42.13104" lon="9.08595">
        <ele>1523.6</ele>
        <time>2015-06-24T06:32:25Z</time>
      </trkpt>
      <trkpt lat="42.13104" lon="9.08596">
        <ele>1523.6</ele>
        <time>2015-06-24T06:32:27Z</time>
      </trkpt>
      <trkpt lat="42.13106" lon="9.086">
        <ele>1524.2</ele>
        <time>2015-06-24T06:32:33Z</time>
      </trkpt>
      <trkpt lat="42.13108" lon="9.08605">
        <ele>1525.6</ele>
        <time>2015-06-24T06:32:46Z</time>
      </trkpt>
      <trkpt lat="42.13111" lon="9.08607">
        <ele>1526.4</ele>
        <time>2015-06-24T06:32:55Z</time>
      </trkpt>
      <trkpt lat="42.13111" lon="9.08606">
        <ele>1526.4</ele>
        <time>2015-06-24T06:32:56Z</time>
      </trkpt>
      <trkpt lat="42.13113" lon="9.08606">
        <ele>1527.8</ele>
        <time>2015-06-24T06:33:12Z</time>
      </trkpt>
      <trkpt lat="42.13119" lon="9.08607">
        <ele>1528.2</ele>
        <time>2015-06-24T06:33:23Z</time>
      </trkpt>
      <trkpt lat="42.13124" lon="9.08605">
        <ele>1529.4</ele>
        <time>2015-06-24T06:33:33Z</time>
      </trkpt>
      <trkpt lat="42.13128" lon="9.08605">
        <ele>1530.4</ele>
        <time>2015-06-24T06:33:41Z</time>
      </trkpt>
      <trkpt lat="42.13131" lon="9.08606">
        <ele>1531.4</ele>
        <time>2015-06-24T06:33:49Z</time>
      </trkpt>
      <trkpt lat="42.13133" lon="9.08603">
        <ele>1532.4</ele>
        <time>2015-06-24T06:33:57Z</time>
      </trkpt>
      <trkpt lat="42.13137" lon="9.08605">
        <ele>1533.6</ele>
        <time>2015-06-24T06:34:06Z</time>
      </trkpt>
      <trkpt lat="42.13142" lon="9.08607">
        <ele>1534.4</ele>
        <time>2015-06-24T06:34:16Z</time>
      </trkpt>
      <trkpt lat="42.13145" lon="9.08603">
        <ele>1535.6</ele>
        <time>2015-06-24T06:34:26Z</time>
      </trkpt>
      <trkpt lat="42.13149" lon="9.08605">
        <ele>1536.4</ele>
        <time>2015-06-24T06:34:33Z</time>
      </trkpt>
      <trkpt lat="42.13149" lon="9.08605">
        <ele>1536.6</ele>
        <time>2015-06-24T06:34:34Z</time>
      </trkpt>
      <trkpt lat="42.13152" lon="9.08607">
        <ele>1537.6</ele>
        <time>2015-06-24T06:34:44Z</time>
      </trkpt>
      <trkpt lat="42.13154" lon="9.08607">
        <ele>1538.6</ele>
        <time>2015-06-24T06:34:57Z</time>
      </trkpt>
      <trkpt lat="42.13155" lon="9.08605">
        <ele>1539.6</ele>
        <time>2015-06-24T06:35:05Z</time>
      </trkpt>
      <trkpt lat="42.13156" lon="9.08604">
        <ele>1540.4</ele>
        <time>2015-06-24T06:35:17Z</time>
      </trkpt>
      <trkpt lat="42.13158" lon="9.08603">
        <ele>1541.2</ele>
        <time>2015-06-24T06:35:22Z</time>
      </trkpt>
      <trkpt lat="42.13158" lon="9.08599">
        <ele>1542.6</ele>
        <time>2015-06-24T06:35:30Z</time>
      </trkpt>
      <trkpt lat="42.13158" lon="9.08595">
        <ele>1543.6</ele>
        <time>2015-06-24T06:35:40Z</time>
      </trkpt>
      <trkpt lat="42.13157" lon="9.08589">
        <ele>1545</ele>
        <time>2015-06-24T06:35:50Z</time>
      </trkpt>
      <trkpt lat="42.13156" lon="9.08585">
        <ele>1545.8</ele>
        <time>2015-06-24T06:35:59Z</time>
      </trkpt>
      <trkpt lat="42.13156" lon="9.0858">
        <ele>1547</ele>
        <time>2015-06-24T06:36:08Z</time>
      </trkpt>
      <trkpt lat="42.13157" lon="9.08579">
        <ele>1547.8</ele>
        <time>2015-06-24T06:36:18Z</time>
      </trkpt>
      <trkpt lat="42.13158" lon="9.08577">
        <ele>1549</ele>
        <time>2015-06-24T06:36:29Z</time>
      </trkpt>
      <trkpt lat="42.13158" lon="9.08573">
        <ele>1549.8</ele>
        <time>2015-06-24T06:36:36Z</time>
      </trkpt>
      <trkpt lat="42.13157" lon="9.08568">
        <ele>1551.2</ele>
        <time>2015-06-24T06:36:46Z</time>
      </trkpt>
      <trkpt lat="42.13156" lon="9.08563">
        <ele>1552.6</ele>
        <time>2015-06-24T06:36:57Z</time>
      </trkpt>
      <trkpt lat="42.13154" lon="9.08559">
        <ele>1553.2</ele>
        <time>2015-06-24T06:37:06Z</time>
      </trkpt>
      <trkpt lat="42.13156" lon="9.08555">
        <ele>1554.2</ele>
        <time>2015-06-24T06:37:16Z</time>
      </trkpt>
      <trkpt lat="42.13151" lon="9.08552">
        <ele>1555.8</ele>
        <time>2015-06-24T06:37:32Z</time>
      </trkpt>
      <trkpt lat="42.13148" lon="9.0855">
        <ele>1556.4</ele>
        <time>2015-06-24T06:37:43Z</time>
      </trkpt>
      <trkpt lat="42.13144" lon="9.08546">
        <ele>1557.4</ele>
        <time>2015-06-24T06:37:51Z</time>
      </trkpt>
      <trkpt lat="42.13142" lon="9.08543">
        <ele>1557.8</ele>
        <time>2015-06-24T06:37:57Z</time>
      </trkpt>
      <trkpt lat="42.13141" lon="9.08541">
        <ele>1558.2</ele>
        <time>2015-06-24T06:38:02Z</time>
      </trkpt>
      <trkpt lat="42.13141" lon="9.08539">
        <ele>1559.6</ele>
        <time>2015-06-24T06:38:11Z</time>
      </trkpt>
      <trkpt lat="42.13141" lon="9.08535">
        <ele>1560.4</ele>
        <time>2015-06-24T06:38:26Z</time>
      </trkpt>
      <trkpt lat="42.1314" lon="9.08528">
        <ele>1562</ele>
        <time>2015-06-24T06:38:39Z</time>
      </trkpt>
      <trkpt lat="42.13143" lon="9.08526">
        <ele>1563</ele>
        <time>2015-06-24T06:38:52Z</time>
      </trkpt>
      <trkpt lat="42.13145" lon="9.08523">
        <ele>1563.6</ele>
        <time>2015-06-24T06:38:59Z</time>
      </trkpt>
      <trkpt lat="42.13148" lon="9.0852">
        <ele>1564.8</ele>
        <time>2015-06-24T06:39:06Z</time>
      </trkpt>
      <trkpt lat="42.13148" lon="9.08515">
        <ele>1565.8</ele>
        <time>2015-06-24T06:39:13Z</time>
      </trkpt>
      <trkpt lat="42.13147" lon="9.08506">
        <ele>1567</ele>
        <time>2015-06-24T06:39:26Z</time>
      </trkpt>
      <trkpt lat="42.13147" lon="9.08497">
        <ele>1568.6</ele>
        <time>2015-06-24T06:40:11Z</time>
      </trkpt>
      <trkpt lat="42.13147" lon="9.08495">
        <ele>1569</ele>
        <time>2015-06-24T06:40:18Z</time>
      </trkpt>
      <trkpt lat="42.13147" lon="9.08494">
        <ele>1569.8</ele>
        <time>2015-06-24T06:40:23Z</time>
      </trkpt>
      <trkpt lat="42.13145" lon="9.08492">
        <ele>1570.4</ele>
        <time>2015-06-24T06:40:31Z</time>
      </trkpt>
      <trkpt lat="42.13144" lon="9.08491">
        <ele>1570.8</ele>
        <time>2015-06-24T06:40:37Z</time>
      </trkpt>
      <trkpt lat="42.13145" lon="9.08488">
        <ele>1572.2</ele>
        <time>2015-06-24T06:40:44Z</time>
      </trkpt>
      <trkpt lat="42.13144" lon="9.08486">
        <ele>1573.2</ele>
        <time>2015-06-24T06:40:51Z</time>
      </trkpt>
      <trkpt lat="42.13144" lon="9.08483">
        <ele>1574.2</ele>
        <time>2015-06-24T06:40:58Z</time>
      </trkpt>
      <trkpt lat="42.13143" lon="9.0848">
        <ele>1575.8</ele>
        <time>2015-06-24T06:41:08Z</time>
      </trkpt>
      <trkpt lat="42.13144" lon="9.08479">
        <ele>1576.8</ele>
        <time>2015-06-24T06:41:49Z</time>
      </trkpt>
      <trkpt lat="42.13143" lon="9.08478">
        <ele>1577</ele>
        <time>2015-06-24T06:41:53Z</time>
      </trkpt>
      <trkpt lat="42.1314" lon="9.08474">
        <ele>1577</ele>
        <time>2015-06-24T06:43:07Z</time>
      </trkpt>
      <trkpt lat="42.13144" lon="9.0848">
        <ele>1577</ele>
        <time>2015-06-24T06:44:44Z</time>
      </trkpt>
      <trkpt lat="42.13144" lon="9.08478">
        <ele>1577.2</ele>
        <time>2015-06-24T06:45:50Z</time>
      </trkpt>
      <trkpt lat="42.13145" lon="9.08482">
        <ele>1576.4</ele>
        <time>2015-06-24T06:47:38Z</time>
      </trkpt>
      <trkpt lat="42.13152" lon="9.08471">
        <ele>1577</ele>
        <time>2015-06-24T06:48:09Z</time>
      </trkpt>
      <trkpt lat="42.13153" lon="9.0847">
        <ele>1578</ele>
        <time>2015-06-24T06:48:17Z</time>
      </trkpt>
      <trkpt lat="42.13153" lon="9.08466">
        <ele>1579</ele>
        <time>2015-06-24T06:48:28Z</time>
      </trkpt>
      <trkpt lat="42.13156" lon="9.0846">
        <ele>1580</ele>
        <time>2015-06-24T06:48:43Z</time>
      </trkpt>
      <trkpt lat="42.13159" lon="9.08458">
        <ele>1581.4</ele>
        <time>2015-06-24T06:48:57Z</time>
      </trkpt>
      <trkpt lat="42.13161" lon="9.0846">
        <ele>1582.6</ele>
        <time>2015-06-24T06:49:10Z</time>
      </trkpt>
      <trkpt lat="42.13166" lon="9.08467">
        <ele>1583.8</ele>
        <time>2015-06-24T06:49:30Z</time>
      </trkpt>
      <trkpt lat="42.13168" lon="9.08468">
        <ele>1584.2</ele>
        <time>2015-06-24T06:49:39Z</time>
      </trkpt>
      <trkpt lat="42.13171" lon="9.08469">
        <ele>1585.6</ele>
        <time>2015-06-24T06:49:48Z</time>
      </trkpt>
      <trkpt lat="42.13173" lon="9.08466">
        <ele>1586.2</ele>
        <time>2015-06-24T06:49:55Z</time>
      </trkpt>
      <trkpt lat="42.13178" lon="9.0847">
        <ele>1587.8</ele>
        <time>2015-06-24T06:50:07Z</time>
      </trkpt>
      <trkpt lat="42.13181" lon="9.08467">
        <ele>1589</ele>
        <time>2015-06-24T06:50:18Z</time>
      </trkpt>
      <trkpt lat="42.13184" lon="9.08467">
        <ele>1590</ele>
        <time>2015-06-24T06:50:29Z</time>
      </trkpt>
      <trkpt lat="42.13187" lon="9.08468">
        <ele>1590.8</ele>
        <time>2015-06-24T06:50:41Z</time>
      </trkpt>
      <trkpt lat="42.13189" lon="9.08469">
        <ele>1592.2</ele>
        <time>2015-06-24T06:51:02Z</time>
      </trkpt>
      <trkpt lat="42.1319" lon="9.08469">
        <ele>1592.8</ele>
        <time>2015-06-24T06:51:10Z</time>
      </trkpt>
      <trkpt lat="42.13192" lon="9.08467">
        <ele>1594</ele>
        <time>2015-06-24T06:51:18Z</time>
      </trkpt>
      <trkpt lat="42.13196" lon="9.08485">
        <ele>1595.4</ele>
        <time>2015-06-24T06:51:46Z</time>
      </trkpt>
      <trkpt lat="42.13205" lon="9.0849">
        <ele>1596.2</ele>
        <time>2015-06-24T06:52:05Z</time>
      </trkpt>
      <trkpt lat="42.13207" lon="9.0849">
        <ele>1597.2</ele>
        <time>2015-06-24T06:52:13Z</time>
      </trkpt>
      <trkpt lat="42.13209" lon="9.08486">
        <ele>1598.2</ele>
        <time>2015-06-24T06:52:21Z</time>
      </trkpt>
      <trkpt lat="42.13214" lon="9.08481">
        <ele>1599.4</ele>
        <time>2015-06-24T06:52:32Z</time>
      </trkpt>
      <trkpt lat="42.13215" lon="9.08487">
        <ele>1600.4</ele>
        <time>2015-06-24T06:52:41Z</time>
      </trkpt>
      <trkpt lat="42.13219" lon="9.08491">
        <ele>1601.6</ele>
        <time>2015-06-24T06:52:51Z</time>
      </trkpt>
      <trkpt lat="42.13221" lon="9.08494">
        <ele>1602.8</ele>
        <time>2015-06-24T06:53:04Z</time>
      </trkpt>
      <trkpt lat="42.13225" lon="9.08496">
        <ele>1603.6</ele>
        <time>2015-06-24T06:53:13Z</time>
      </trkpt>
      <trkpt lat="42.13235" lon="9.08509">
        <ele>1604.6</ele>
        <time>2015-06-24T06:53:48Z</time>
      </trkpt>
      <trkpt lat="42.13238" lon="9.0851">
        <ele>1605.4</ele>
        <time>2015-06-24T06:53:55Z</time>
      </trkpt>
      <trkpt lat="42.13241" lon="9.08511">
        <ele>1606.4</ele>
        <time>2015-06-24T06:54:03Z</time>
      </trkpt>
      <trkpt lat="42.13245" lon="9.08508">
        <ele>1607.6</ele>
        <time>2015-06-24T06:54:12Z</time>
      </trkpt>
      <trkpt lat="42.13248" lon="9.08507">
        <ele>1608.6</ele>
        <time>2015-06-24T06:54:20Z</time>
      </trkpt>
      <trkpt lat="42.13252" lon="9.08511">
        <ele>1609.6</ele>
        <time>2015-06-24T06:54:29Z</time>
      </trkpt>
      <trkpt lat="42.13266" lon="9.08517">
        <ele>1611.4</ele>
        <time>2015-06-24T06:54:52Z</time>
      </trkpt>
      <trkpt lat="42.13274" lon="9.0852">
        <ele>1612</ele>
        <time>2015-06-24T06:55:10Z</time>
      </trkpt>
      <trkpt lat="42.13276" lon="9.08514">
        <ele>1612.8</ele>
        <time>2015-06-24T06:55:21Z</time>
      </trkpt>
      <trkpt lat="42.13275" lon="9.08509">
        <ele>1613.8</ele>
        <time>2015-06-24T06:55:30Z</time>
      </trkpt>
      <trkpt lat="42.13275" lon="9.08506">
        <ele>1615</ele>
        <time>2015-06-24T06:55:40Z</time>
      </trkpt>
      <trkpt lat="42.13276" lon="9.08496">
        <ele>1616.2</ele>
        <time>2015-06-24T06:55:54Z</time>
      </trkpt>
      <trkpt lat="42.13278" lon="9.0849">
        <ele>1617.6</ele>
        <time>2015-06-24T06:56:07Z</time>
      </trkpt>
      <trkpt lat="42.13279" lon="9.08489">
        <ele>1618</ele>
        <time>2015-06-24T06:56:15Z</time>
      </trkpt>
      <trkpt lat="42.13288" lon="9.08488">
        <ele>1619.6</ele>
        <time>2015-06-24T06:56:38Z</time>
      </trkpt>
      <trkpt lat="42.13291" lon="9.08489">
        <ele>1620.2</ele>
        <time>2015-06-24T06:56:49Z</time>
      </trkpt>
      <trkpt lat="42.13293" lon="9.08487">
        <ele>1621</ele>
        <time>2015-06-24T06:56:56Z</time>
      </trkpt>
      <trkpt lat="42.13293" lon="9.08479">
        <ele>1622.4</ele>
        <time>2015-06-24T06:57:07Z</time>
      </trkpt>
      <trkpt lat="42.13295" lon="9.08476">
        <ele>1623.2</ele>
        <time>2015-06-24T06:57:15Z</time>
      </trkpt>
      <trkpt lat="42.13298" lon="9.08476">
        <ele>1624.2</ele>
        <time>2015-06-24T06:57:24Z</time>
      </trkpt>
      <trkpt lat="42.13299" lon="9.08472">
        <ele>1625.4</ele>
        <time>2015-06-24T06:57:32Z</time>
      </trkpt>
      <trkpt lat="42.13302" lon="9.0847">
        <ele>1626.4</ele>
        <time>2015-06-24T06:57:46Z</time>
      </trkpt>
      <trkpt lat="42.13303" lon="9.08468">
        <ele>1627.4</ele>
        <time>2015-06-24T06:57:54Z</time>
      </trkpt>
      <trkpt lat="42.13306" lon="9.08467">
        <ele>1628.4</ele>
        <time>2015-06-24T06:58:01Z</time>
      </trkpt>
      <trkpt lat="42.13308" lon="9.08463">
        <ele>1629.8</ele>
        <time>2015-06-24T06:58:10Z</time>
      </trkpt>
      <trkpt lat="42.13311" lon="9.0846">
        <ele>1630.8</ele>
        <time>2015-06-24T06:58:22Z</time>
      </trkpt>
      <trkpt lat="42.13314" lon="9.08459">
        <ele>1631.8</ele>
        <time>2015-06-24T06:58:33Z</time>
      </trkpt>
      <trkpt lat="42.13316" lon="9.08454">
        <ele>1632.8</ele>
        <time>2015-06-24T06:58:46Z</time>
      </trkpt>
      <trkpt lat="42.13319" lon="9.08453">
        <ele>1634</ele>
        <time>2015-06-24T06:58:56Z</time>
      </trkpt>
      <trkpt lat="42.13321" lon="9.08451">
        <ele>1634.8</ele>
        <time>2015-06-24T06:59:03Z</time>
      </trkpt>
      <trkpt lat="42.13324" lon="9.08452">
        <ele>1635.8</ele>
        <time>2015-06-24T06:59:11Z</time>
      </trkpt>
      <trkpt lat="42.13326" lon="9.08456">
        <ele>1637.2</ele>
        <time>2015-06-24T06:59:26Z</time>
      </trkpt>
      <trkpt lat="42.13327" lon="9.08455">
        <ele>1637.8</ele>
        <time>2015-06-24T06:59:34Z</time>
      </trkpt>
      <trkpt lat="42.13329" lon="9.08457">
        <ele>1639</ele>
        <time>2015-06-24T06:59:44Z</time>
      </trkpt>
      <trkpt lat="42.13331" lon="9.08459">
        <ele>1640.4</ele>
        <time>2015-06-24T06:59:57Z</time>
      </trkpt>
      <trkpt lat="42.13334" lon="9.08458">
        <ele>1641</ele>
        <time>2015-06-24T07:00:06Z</time>
      </trkpt>
      <trkpt lat="42.13336" lon="9.0846">
        <ele>1642.2</ele>
        <time>2015-06-24T07:00:16Z</time>
      </trkpt>
      <trkpt lat="42.13336" lon="9.08466">
        <ele>1643.6</ele>
        <time>2015-06-24T07:00:33Z</time>
      </trkpt>
      <trkpt lat="42.13334" lon="9.08476">
        <ele>1644.6</ele>
        <time>2015-06-24T07:00:49Z</time>
      </trkpt>
      <trkpt lat="42.13335" lon="9.08483">
        <ele>1645.4</ele>
        <time>2015-06-24T07:00:58Z</time>
      </trkpt>
      <trkpt lat="42.13338" lon="9.08489">
        <ele>1646.4</ele>
        <time>2015-06-24T07:01:09Z</time>
      </trkpt>
      <trkpt lat="42.13339" lon="9.0849">
        <ele>1647</ele>
        <time>2015-06-24T07:01:15Z</time>
      </trkpt>
      <trkpt lat="42.1334" lon="9.08494">
        <ele>1648.4</ele>
        <time>2015-06-24T07:01:23Z</time>
      </trkpt>
      <trkpt lat="42.1334" lon="9.08494">
        <ele>1648.4</ele>
        <time>2015-06-24T07:01:25Z</time>
      </trkpt>
      <trkpt lat="42.13343" lon="9.08497">
        <ele>1649.6</ele>
        <time>2015-06-24T07:01:32Z</time>
      </trkpt>
      <trkpt lat="42.13345" lon="9.08499">
        <ele>1650.4</ele>
        <time>2015-06-24T07:01:40Z</time>
      </trkpt>
      <trkpt lat="42.13347" lon="9.08495">
        <ele>1652</ele>
        <time>2015-06-24T07:01:57Z</time>
      </trkpt>
      <trkpt lat="42.13349" lon="9.08499">
        <ele>1652.8</ele>
        <time>2015-06-24T07:02:24Z</time>
      </trkpt>
      <trkpt lat="42.13359" lon="9.0852">
        <ele>1654</ele>
        <time>2015-06-24T07:04:14Z</time>
      </trkpt>
      <trkpt lat="42.1336" lon="9.08523">
        <ele>1654.8</ele>
        <time>2015-06-24T07:04:23Z</time>
      </trkpt>
      <trkpt lat="42.13359" lon="9.08534">
        <ele>1656.2</ele>
        <time>2015-06-24T07:04:54Z</time>
      </trkpt>
      <trkpt lat="42.13361" lon="9.08533">
        <ele>1657.2</ele>
        <time>2015-06-24T07:05:01Z</time>
      </trkpt>
      <trkpt lat="42.13362" lon="9.08531">
        <ele>1658.2</ele>
        <time>2015-06-24T07:05:08Z</time>
      </trkpt>
      <trkpt lat="42.13365" lon="9.08533">
        <ele>1659.6</ele>
        <time>2015-06-24T07:05:30Z</time>
      </trkpt>
      <trkpt lat="42.13367" lon="9.08536">
        <ele>1660.6</ele>
        <time>2015-06-24T07:05:38Z</time>
      </trkpt>
      <trkpt lat="42.13367" lon="9.08538">
        <ele>1661.8</ele>
        <time>2015-06-24T07:05:48Z</time>
      </trkpt>
      <trkpt lat="42.13368" lon="9.0854">
        <ele>1663</ele>
        <time>2015-06-24T07:06:00Z</time>
      </trkpt>
      <trkpt lat="42.1337" lon="9.08543">
        <ele>1664.4</ele>
        <time>2015-06-24T07:06:10Z</time>
      </trkpt>
      <trkpt lat="42.13376" lon="9.08548">
        <ele>1665.4</ele>
        <time>2015-06-24T07:06:27Z</time>
      </trkpt>
      <trkpt lat="42.13379" lon="9.0855">
        <ele>1666.2</ele>
        <time>2015-06-24T07:06:36Z</time>
      </trkpt>
      <trkpt lat="42.13381" lon="9.08554">
        <ele>1667.2</ele>
        <time>2015-06-24T07:06:45Z</time>
      </trkpt>
      <trkpt lat="42.13385" lon="9.08555">
        <ele>1668.6</ele>
        <time>2015-06-24T07:06:55Z</time>
      </trkpt>
      <trkpt lat="42.13387" lon="9.08557">
        <ele>1669.6</ele>
        <time>2015-06-24T07:07:06Z</time>
      </trkpt>
      <trkpt lat="42.1339" lon="9.08558">
        <ele>1671</ele>
        <time>2015-06-24T07:07:19Z</time>
      </trkpt>
      <trkpt lat="42.13395" lon="9.08559">
        <ele>1671.8</ele>
        <time>2015-06-24T07:07:37Z</time>
      </trkpt>
      <trkpt lat="42.13398" lon="9.0856">
        <ele>1673</ele>
        <time>2015-06-24T07:07:47Z</time>
      </trkpt>
      <trkpt lat="42.13399" lon="9.08559">
        <ele>1674</ele>
        <time>2015-06-24T07:07:58Z</time>
      </trkpt>
      <trkpt lat="42.13398" lon="9.08552">
        <ele>1675.4</ele>
        <time>2015-06-24T07:08:14Z</time>
      </trkpt>
      <trkpt lat="42.13399" lon="9.08549">
        <ele>1676.4</ele>
        <time>2015-06-24T07:08:24Z</time>
      </trkpt>
      <trkpt lat="42.13402" lon="9.08548">
        <ele>1677.8</ele>
        <time>2015-06-24T07:08:38Z</time>
      </trkpt>
      <trkpt lat="42.13402" lon="9.08547">
        <ele>1678.8</ele>
        <time>2015-06-24T07:08:46Z</time>
      </trkpt>
      <trkpt lat="42.13402" lon="9.08545">
        <ele>1680</ele>
        <time>2015-06-24T07:08:57Z</time>
      </trkpt>
      <trkpt lat="42.13405" lon="9.08546">
        <ele>1681.2</ele>
        <time>2015-06-24T07:09:08Z</time>
      </trkpt>
      <trkpt lat="42.13406" lon="9.08541">
        <ele>1682</ele>
        <time>2015-06-24T07:09:19Z</time>
      </trkpt>
      <trkpt lat="42.13406" lon="9.08535">
        <ele>1683.4</ele>
        <time>2015-06-24T07:09:36Z</time>
      </trkpt>
      <trkpt lat="42.13405" lon="9.08526">
        <ele>1684.6</ele>
        <time>2015-06-24T07:09:48Z</time>
      </trkpt>
      <trkpt lat="42.13408" lon="9.08519">
        <ele>1685.4</ele>
        <time>2015-06-24T07:10:17Z</time>
      </trkpt>
      <trkpt lat="42.13409" lon="9.08518">
        <ele>1687</ele>
        <time>2015-06-24T07:10:30Z</time>
      </trkpt>
      <trkpt lat="42.13408" lon="9.08513">
        <ele>1687.8</ele>
        <time>2015-06-24T07:10:40Z</time>
      </trkpt>
      <trkpt lat="42.13411" lon="9.08513">
        <ele>1688.8</ele>
        <time>2015-06-24T07:10:50Z</time>
      </trkpt>
      <trkpt lat="42.13414" lon="9.08512">
        <ele>1690.2</ele>
        <time>2015-06-24T07:11:02Z</time>
      </trkpt>
      <trkpt lat="42.13414" lon="9.08506">
        <ele>1691.2</ele>
        <time>2015-06-24T07:11:11Z</time>
      </trkpt>
      <trkpt lat="42.13413" lon="9.08499">
        <ele>1692</ele>
        <time>2015-06-24T07:11:18Z</time>
      </trkpt>
      <trkpt lat="42.13417" lon="9.08494">
        <ele>1693.6</ele>
        <time>2015-06-24T07:11:35Z</time>
      </trkpt>
      <trkpt lat="42.13419" lon="9.08494">
        <ele>1694.8</ele>
        <time>2015-06-24T07:11:45Z</time>
      </trkpt>
      <trkpt lat="42.13421" lon="9.08495">
        <ele>1696</ele>
        <time>2015-06-24T07:11:54Z</time>
      </trkpt>
      <trkpt lat="42.13423" lon="9.08493">
        <ele>1697.2</ele>
        <time>2015-06-24T07:12:05Z</time>
      </trkpt>
      <trkpt lat="42.13425" lon="9.08491">
        <ele>1698</ele>
        <time>2015-06-24T07:12:14Z</time>
      </trkpt>
      <trkpt lat="42.13427" lon="9.08491">
        <ele>1699.2</ele>
        <time>2015-06-24T07:12:24Z</time>
      </trkpt>
      <trkpt lat="42.13428" lon="9.08488">
        <ele>1700.4</ele>
        <time>2015-06-24T07:12:37Z</time>
      </trkpt>
      <trkpt lat="42.13428" lon="9.08484">
        <ele>1701.2</ele>
        <time>2015-06-24T07:12:49Z</time>
      </trkpt>
      <trkpt lat="42.13429" lon="9.08484">
        <ele>1702.4</ele>
        <time>2015-06-24T07:12:58Z</time>
      </trkpt>
      <trkpt lat="42.1343" lon="9.08483">
        <ele>1703.4</ele>
        <time>2015-06-24T07:13:10Z</time>
      </trkpt>
      <trkpt lat="42.13432" lon="9.0848">
        <ele>1704.4</ele>
        <time>2015-06-24T07:13:19Z</time>
      </trkpt>
      <trkpt lat="42.13434" lon="9.08477">
        <ele>1705.6</ele>
        <time>2015-06-24T07:13:30Z</time>
      </trkpt>
      <trkpt lat="42.13435" lon="9.08472">
        <ele>1706.4</ele>
        <time>2015-06-24T07:13:38Z</time>
      </trkpt>
      <trkpt lat="42.13437" lon="9.08465">
        <ele>1707.6</ele>
        <time>2015-06-24T07:13:49Z</time>
      </trkpt>
      <trkpt lat="42.1344" lon="9.08464">
        <ele>1708.8</ele>
        <time>2015-06-24T07:13:59Z</time>
      </trkpt>
      <trkpt lat="42.13443" lon="9.08463">
        <ele>1709.8</ele>
        <time>2015-06-24T07:14:08Z</time>
      </trkpt>
      <trkpt lat="42.13445" lon="9.08461">
        <ele>1711.2</ele>
        <time>2015-06-24T07:14:20Z</time>
      </trkpt>
      <trkpt lat="42.13448" lon="9.08461">
        <ele>1712.2</ele>
        <time>2015-06-24T07:14:38Z</time>
      </trkpt>
      <trkpt lat="42.13451" lon="9.08458">
        <ele>1713.4</ele>
        <time>2015-06-24T07:14:51Z</time>
      </trkpt>
      <trkpt lat="42.13454" lon="9.08453">
        <ele>1714.4</ele>
        <time>2015-06-24T07:15:01Z</time>
      </trkpt>
      <trkpt lat="42.13456" lon="9.08452">
        <ele>1715.2</ele>
        <time>2015-06-24T07:15:09Z</time>
      </trkpt>
      <trkpt lat="42.13457" lon="9.08448">
        <ele>1716.4</ele>
        <time>2015-06-24T07:15:19Z</time>
      </trkpt>
      <trkpt lat="42.13459" lon="9.08443">
        <ele>1717.8</ele>
        <time>2015-06-24T07:15:29Z</time>
      </trkpt>
      <trkpt lat="42.1346" lon="9.08434">
        <ele>1718.6</ele>
        <time>2015-06-24T07:15:41Z</time>
      </trkpt>
      <trkpt lat="42.13464" lon="9.08434">
        <ele>1719.6</ele>
        <time>2015-06-24T07:15:50Z</time>
      </trkpt>
      <trkpt lat="42.13468" lon="9.08439">
        <ele>1721.2</ele>
        <time>2015-06-24T07:16:05Z</time>
      </trkpt>
      <trkpt lat="42.13469" lon="9.08465">
        <ele>1722</ele>
        <time>2015-06-24T07:16:46Z</time>
      </trkpt>
      <trkpt lat="42.1347" lon="9.08464">
        <ele>1722.6</ele>
        <time>2015-06-24T07:16:53Z</time>
      </trkpt>
      <trkpt lat="42.13472" lon="9.08463">
        <ele>1723.4</ele>
        <time>2015-06-24T07:17:01Z</time>
      </trkpt>
      <trkpt lat="42.13473" lon="9.08462">
        <ele>1724.8</ele>
        <time>2015-06-24T07:17:10Z</time>
      </trkpt>
      <trkpt lat="42.13476" lon="9.08462">
        <ele>1725.6</ele>
        <time>2015-06-24T07:17:19Z</time>
      </trkpt>
      <trkpt lat="42.13478" lon="9.08465">
        <ele>1727</ele>
        <time>2015-06-24T07:17:32Z</time>
      </trkpt>
      <trkpt lat="42.13479" lon="9.08463">
        <ele>1727.6</ele>
        <time>2015-06-24T07:17:40Z</time>
      </trkpt>
      <trkpt lat="42.13483" lon="9.08461">
        <ele>1729</ele>
        <time>2015-06-24T07:17:53Z</time>
      </trkpt>
      <trkpt lat="42.13485" lon="9.08461">
        <ele>1730.2</ele>
        <time>2015-06-24T07:18:10Z</time>
      </trkpt>
      <trkpt lat="42.13487" lon="9.08462">
        <ele>1731.2</ele>
        <time>2015-06-24T07:18:29Z</time>
      </trkpt>
      <trkpt lat="42.13488" lon="9.08463">
        <ele>1732.2</ele>
        <time>2015-06-24T07:18:41Z</time>
      </trkpt>
      <trkpt lat="42.1349" lon="9.08464">
        <ele>1733.4</ele>
        <time>2015-06-24T07:18:59Z</time>
      </trkpt>
      <trkpt lat="42.13492" lon="9.08466">
        <ele>1733.6</ele>
        <time>2015-06-24T07:19:05Z</time>
      </trkpt>
      <trkpt lat="42.13495" lon="9.08468">
        <ele>1735</ele>
        <time>2015-06-24T07:19:15Z</time>
      </trkpt>
      <trkpt lat="42.13497" lon="9.08472">
        <ele>1736.2</ele>
        <time>2015-06-24T07:19:26Z</time>
      </trkpt>
      <trkpt lat="42.13498" lon="9.08473">
        <ele>1737</ele>
        <time>2015-06-24T07:19:32Z</time>
      </trkpt>
      <trkpt lat="42.13504" lon="9.08471">
        <ele>1738.8</ele>
        <time>2015-06-24T07:19:46Z</time>
      </trkpt>
      <trkpt lat="42.13504" lon="9.08469">
        <ele>1739.2</ele>
        <time>2015-06-24T07:19:52Z</time>
      </trkpt>
      <trkpt lat="42.13503" lon="9.08463">
        <ele>1740.4</ele>
        <time>2015-06-24T07:20:00Z</time>
      </trkpt>
      <trkpt lat="42.13503" lon="9.08459">
        <ele>1741.4</ele>
        <time>2015-06-24T07:20:08Z</time>
      </trkpt>
      <trkpt lat="42.13503" lon="9.08457">
        <ele>1743</ele>
        <time>2015-06-24T07:20:21Z</time>
      </trkpt>
      <trkpt lat="42.13503" lon="9.08455">
        <ele>1743.6</ele>
        <time>2015-06-24T07:20:31Z</time>
      </trkpt>
      <trkpt lat="42.13505" lon="9.08451">
        <ele>1745</ele>
        <time>2015-06-24T07:20:47Z</time>
      </trkpt>
      <trkpt lat="42.13506" lon="9.08448">
        <ele>1745.6</ele>
        <time>2015-06-24T07:20:57Z</time>
      </trkpt>
      <trkpt lat="42.13507" lon="9.08446">
        <ele>1746.6</ele>
        <time>2015-06-24T07:21:05Z</time>
      </trkpt>
      <trkpt lat="42.1351" lon="9.08445">
        <ele>1747.6</ele>
        <time>2015-06-24T07:21:16Z</time>
      </trkpt>
      <trkpt lat="42.13512" lon="9.08449">
        <ele>1748.6</ele>
        <time>2015-06-24T07:21:25Z</time>
      </trkpt>
      <trkpt lat="42.13512" lon="9.08445">
        <ele>1749.6</ele>
        <time>2015-06-24T07:21:37Z</time>
      </trkpt>
      <trkpt lat="42.13512" lon="9.08435">
        <ele>1750.8</ele>
        <time>2015-06-24T07:21:55Z</time>
      </trkpt>
      <trkpt lat="42.13512" lon="9.08426">
        <ele>1751.6</ele>
        <time>2015-06-24T07:22:08Z</time>
      </trkpt>
      <trkpt lat="42.13516" lon="9.08418">
        <ele>1752.6</ele>
        <time>2015-06-24T07:22:30Z</time>
      </trkpt>
      <trkpt lat="42.13519" lon="9.08421">
        <ele>1753.6</ele>
        <time>2015-06-24T07:22:42Z</time>
      </trkpt>
      <trkpt lat="42.13522" lon="9.0842">
        <ele>1754.8</ele>
        <time>2015-06-24T07:22:56Z</time>
      </trkpt>
      <trkpt lat="42.13524" lon="9.08418">
        <ele>1755.6</ele>
        <time>2015-06-24T07:23:05Z</time>
      </trkpt>
      <trkpt lat="42.13527" lon="9.08422">
        <ele>1756.6</ele>
        <time>2015-06-24T07:23:16Z</time>
      </trkpt>
      <trkpt lat="42.13529" lon="9.08427">
        <ele>1757.8</ele>
        <time>2015-06-24T07:23:30Z</time>
      </trkpt>
      <trkpt lat="42.13532" lon="9.08426">
        <ele>1758.8</ele>
        <time>2015-06-24T07:23:47Z</time>
      </trkpt>
      <trkpt lat="42.13532" lon="9.0843">
        <ele>1759.8</ele>
        <time>2015-06-24T07:24:25Z</time>
      </trkpt>
      <trkpt lat="42.13535" lon="9.08425">
        <ele>1760.2</ele>
        <time>2015-06-24T07:24:55Z</time>
      </trkpt>
      <trkpt lat="42.13537" lon="9.08425">
        <ele>1761.8</ele>
        <time>2015-06-24T07:25:07Z</time>
      </trkpt>
      <trkpt lat="42.13538" lon="9.08425">
        <ele>1762.6</ele>
        <time>2015-06-24T07:25:15Z</time>
      </trkpt>
      <trkpt lat="42.1354" lon="9.08424">
        <ele>1763</ele>
        <time>2015-06-24T07:25:20Z</time>
      </trkpt>
      <trkpt lat="42.13541" lon="9.08425">
        <ele>1764.6</ele>
        <time>2015-06-24T07:25:35Z</time>
      </trkpt>
      <trkpt lat="42.13541" lon="9.08425">
        <ele>1765</ele>
        <time>2015-06-24T07:25:40Z</time>
      </trkpt>
      <trkpt lat="42.13544" lon="9.08427">
        <ele>1766.6</ele>
        <time>2015-06-24T07:25:54Z</time>
      </trkpt>
      <trkpt lat="42.13544" lon="9.08428">
        <ele>1767</ele>
        <time>2015-06-24T07:26:00Z</time>
      </trkpt>
      <trkpt lat="42.13545" lon="9.08432">
        <ele>1769.2</ele>
        <time>2015-06-24T07:26:24Z</time>
      </trkpt>
      <trkpt lat="42.13548" lon="9.08434">
        <ele>1769.8</ele>
        <time>2015-06-24T07:26:36Z</time>
      </trkpt>
      <trkpt lat="42.13551" lon="9.08442">
        <ele>1771</ele>
        <time>2015-06-24T07:26:53Z</time>
      </trkpt>
      <trkpt lat="42.13554" lon="9.08441">
        <ele>1771.6</ele>
        <time>2015-06-24T07:27:04Z</time>
      </trkpt>
      <trkpt lat="42.13556" lon="9.08439">
        <ele>1772.8</ele>
        <time>2015-06-24T07:27:33Z</time>
      </trkpt>
      <trkpt lat="42.1356" lon="9.08429">
        <ele>1773.4</ele>
        <time>2015-06-24T07:28:58Z</time>
      </trkpt>
      <trkpt lat="42.13562" lon="9.0843">
        <ele>1774.4</ele>
        <time>2015-06-24T07:29:11Z</time>
      </trkpt>
      <trkpt lat="42.13565" lon="9.08431">
        <ele>1775.6</ele>
        <time>2015-06-24T07:29:22Z</time>
      </trkpt>
      <trkpt lat="42.13566" lon="9.08432">
        <ele>1775.8</ele>
        <time>2015-06-24T07:29:27Z</time>
      </trkpt>
      <trkpt lat="42.13568" lon="9.08434">
        <ele>1776.8</ele>
        <time>2015-06-24T07:29:31Z</time>
      </trkpt>
      <trkpt lat="42.13569" lon="9.08433">
        <ele>1778.2</ele>
        <time>2015-06-24T07:29:38Z</time>
      </trkpt>
      <trkpt lat="42.1357" lon="9.08433">
        <ele>1779.2</ele>
        <time>2015-06-24T07:29:46Z</time>
      </trkpt>
      <trkpt lat="42.13571" lon="9.08434">
        <ele>1780.2</ele>
        <time>2015-06-24T07:29:52Z</time>
      </trkpt>
      <trkpt lat="42.13574" lon="9.08436">
        <ele>1781.6</ele>
        <time>2015-06-24T07:30:01Z</time>
      </trkpt>
      <trkpt lat="42.13574" lon="9.08437">
        <ele>1782.2</ele>
        <time>2015-06-24T07:30:08Z</time>
      </trkpt>
      <trkpt lat="42.13577" lon="9.08437">
        <ele>1783.6</ele>
        <time>2015-06-24T07:30:18Z</time>
      </trkpt>
      <trkpt lat="42.13579" lon="9.08438">
        <ele>1784.8</ele>
        <time>2015-06-24T07:30:27Z</time>
      </trkpt>
      <trkpt lat="42.1358" lon="9.08444">
        <ele>1785.8</ele>
        <time>2015-06-24T07:30:39Z</time>
      </trkpt>
      <trkpt lat="42.13584" lon="9.08449">
        <ele>1786.6</ele>
        <time>2015-06-24T07:30:48Z</time>
      </trkpt>
      <trkpt lat="42.13586" lon="9.08452">
        <ele>1787.4</ele>
        <time>2015-06-24T07:30:58Z</time>
      </trkpt>
      <trkpt lat="42.13589" lon="9.08455">
        <ele>1788.2</ele>
        <time>2015-06-24T07:31:04Z</time>
      </trkpt>
      <trkpt lat="42.13593" lon="9.08459">
        <ele>1789.6</ele>
        <time>2015-06-24T07:31:14Z</time>
      </trkpt>
      <trkpt lat="42.13596" lon="9.0846">
        <ele>1790.6</ele>
        <time>2015-06-24T07:31:22Z</time>
      </trkpt>
      <trkpt lat="42.13597" lon="9.08463">
        <ele>1791.6</ele>
        <time>2015-06-24T07:31:30Z</time>
      </trkpt>
      <trkpt lat="42.13599" lon="9.08468">
        <ele>1792.8</ele>
        <time>2015-06-24T07:31:41Z</time>
      </trkpt>
      <trkpt lat="42.13602" lon="9.08475">
        <ele>1793.6</ele>
        <time>2015-06-24T07:31:54Z</time>
      </trkpt>
      <trkpt lat="42.13606" lon="9.08492">
        <ele>1794.2</ele>
        <time>2015-06-24T07:32:29Z</time>
      </trkpt>
      <trkpt lat="42.13608" lon="9.08493">
        <ele>1795.4</ele>
        <time>2015-06-24T07:32:39Z</time>
      </trkpt>
      <trkpt lat="42.13612" lon="9.08495">
        <ele>1796</ele>
        <time>2015-06-24T07:32:48Z</time>
      </trkpt>
      <trkpt lat="42.13614" lon="9.08505">
        <ele>1797.2</ele>
        <time>2015-06-24T07:33:07Z</time>
      </trkpt>
      <trkpt lat="42.13615" lon="9.08511">
        <ele>1798.2</ele>
        <time>2015-06-24T07:33:19Z</time>
      </trkpt>
      <trkpt lat="42.13617" lon="9.08518">
        <ele>1799.2</ele>
        <time>2015-06-24T07:33:38Z</time>
      </trkpt>
      <trkpt lat="42.13619" lon="9.08521">
        <ele>1799.2</ele>
        <time>2015-06-24T07:33:44Z</time>
      </trkpt>
      <trkpt lat="42.1362" lon="9.08529">
        <ele>1800.8</ele>
        <time>2015-06-24T07:33:55Z</time>
      </trkpt>
      <trkpt lat="42.1362" lon="9.08536">
        <ele>1801.8</ele>
        <time>2015-06-24T07:34:08Z</time>
      </trkpt>
      <trkpt lat="42.13622" lon="9.0854">
        <ele>1802.8</ele>
        <time>2015-06-24T07:34:16Z</time>
      </trkpt>
      <trkpt lat="42.13623" lon="9.08542">
        <ele>1803.2</ele>
        <time>2015-06-24T07:34:21Z</time>
      </trkpt>
      <trkpt lat="42.13626" lon="9.08546">
        <ele>1804.6</ele>
        <time>2015-06-24T07:34:28Z</time>
      </trkpt>
      <trkpt lat="42.13627" lon="9.08549">
        <ele>1805.8</ele>
        <time>2015-06-24T07:34:37Z</time>
      </trkpt>
      <trkpt lat="42.13631" lon="9.08548">
        <ele>1806.8</ele>
        <time>2015-06-24T07:34:51Z</time>
      </trkpt>
      <trkpt lat="42.13632" lon="9.08547">
        <ele>1807.8</ele>
        <time>2015-06-24T07:35:01Z</time>
      </trkpt>
      <trkpt lat="42.13635" lon="9.0855">
        <ele>1808.8</ele>
        <time>2015-06-24T07:35:10Z</time>
      </trkpt>
      <trkpt lat="42.13637" lon="9.08545">
        <ele>1810</ele>
        <time>2015-06-24T07:35:22Z</time>
      </trkpt>
      <trkpt lat="42.13638" lon="9.08541">
        <ele>1810.2</ele>
        <time>2015-06-24T07:35:28Z</time>
      </trkpt>
      <trkpt lat="42.13639" lon="9.08536">
        <ele>1811.8</ele>
        <time>2015-06-24T07:35:38Z</time>
      </trkpt>
      <trkpt lat="42.13643" lon="9.08535">
        <ele>1812.6</ele>
        <time>2015-06-24T07:35:48Z</time>
      </trkpt>
      <trkpt lat="42.13645" lon="9.08538">
        <ele>1813.8</ele>
        <time>2015-06-24T07:35:59Z</time>
      </trkpt>
      <trkpt lat="42.13648" lon="9.08538">
        <ele>1814.6</ele>
        <time>2015-06-24T07:36:10Z</time>
      </trkpt>
      <trkpt lat="42.1365" lon="9.08536">
        <ele>1815.6</ele>
        <time>2015-06-24T07:36:23Z</time>
      </trkpt>
      <trkpt lat="42.13651" lon="9.08539">
        <ele>1816.2</ele>
        <time>2015-06-24T07:36:30Z</time>
      </trkpt>
      <trkpt lat="42.13652" lon="9.0854">
        <ele>1817.4</ele>
        <time>2015-06-24T07:36:38Z</time>
      </trkpt>
      <trkpt lat="42.13655" lon="9.08542">
        <ele>1818.2</ele>
        <time>2015-06-24T07:36:45Z</time>
      </trkpt>
      <trkpt lat="42.13657" lon="9.08542">
        <ele>1819.6</ele>
        <time>2015-06-24T07:36:54Z</time>
      </trkpt>
      <trkpt lat="42.13657" lon="9.08536">
        <ele>1820.8</ele>
        <time>2015-06-24T07:37:18Z</time>
      </trkpt>
      <trkpt lat="42.1366" lon="9.08535">
        <ele>1821.4</ele>
        <time>2015-06-24T07:37:26Z</time>
      </trkpt>
      <trkpt lat="42.13662" lon="9.08532">
        <ele>1822.2</ele>
        <time>2015-06-24T07:37:33Z</time>
      </trkpt>
      <trkpt lat="42.13662" lon="9.08527">
        <ele>1823.6</ele>
        <time>2015-06-24T07:37:42Z</time>
      </trkpt>
      <trkpt lat="42.13663" lon="9.08524">
        <ele>1824.2</ele>
        <time>2015-06-24T07:37:48Z</time>
      </trkpt>
      <trkpt lat="42.13666" lon="9.08524">
        <ele>1825.2</ele>
        <time>2015-06-24T07:37:55Z</time>
      </trkpt>
      <trkpt lat="42.13668" lon="9.08525">
        <ele>1826.2</ele>
        <time>2015-06-24T07:38:03Z</time>
      </trkpt>
      <trkpt lat="42.13668" lon="9.0852">
        <ele>1827.4</ele>
        <time>2015-06-24T07:38:11Z</time>
      </trkpt>
      <trkpt lat="42.13668" lon="9.08516">
        <ele>1828.4</ele>
        <time>2015-06-24T07:38:19Z</time>
      </trkpt>
      <trkpt lat="42.13671" lon="9.08514">
        <ele>1829.2</ele>
        <time>2015-06-24T07:38:31Z</time>
      </trkpt>
      <trkpt lat="42.13672" lon="9.08513">
        <ele>1830</ele>
        <time>2015-06-24T07:38:37Z</time>
      </trkpt>
      <trkpt lat="42.13675" lon="9.08517">
        <ele>1831.2</ele>
        <time>2015-06-24T07:38:48Z</time>
      </trkpt>
      <trkpt lat="42.13676" lon="9.08518">
        <ele>1832.6</ele>
        <time>2015-06-24T07:38:57Z</time>
      </trkpt>
      <trkpt lat="42.13678" lon="9.08515">
        <ele>1833.2</ele>
        <time>2015-06-24T07:39:05Z</time>
      </trkpt>
      <trkpt lat="42.13679" lon="9.08514">
        <ele>1834.4</ele>
        <time>2015-06-24T07:39:16Z</time>
      </trkpt>
      <trkpt lat="42.13681" lon="9.08514">
        <ele>1835.8</ele>
        <time>2015-06-24T07:39:27Z</time>
      </trkpt>
      <trkpt lat="42.13683" lon="9.08513">
        <ele>1836.4</ele>
        <time>2015-06-24T07:39:37Z</time>
      </trkpt>
      <trkpt lat="42.13684" lon="9.08513">
        <ele>1837.2</ele>
        <time>2015-06-24T07:39:43Z</time>
      </trkpt>
      <trkpt lat="42.13687" lon="9.08513">
        <ele>1838.6</ele>
        <time>2015-06-24T07:39:53Z</time>
      </trkpt>
      <trkpt lat="42.13688" lon="9.08513">
        <ele>1839.4</ele>
        <time>2015-06-24T07:40:02Z</time>
      </trkpt>
      <trkpt lat="42.1369" lon="9.08514">
        <ele>1840</ele>
        <time>2015-06-24T07:40:08Z</time>
      </trkpt>
      <trkpt lat="42.13691" lon="9.08512">
        <ele>1841.4</ele>
        <time>2015-06-24T07:40:17Z</time>
      </trkpt>
      <trkpt lat="42.13695" lon="9.08509">
        <ele>1842.6</ele>
        <time>2015-06-24T07:40:59Z</time>
      </trkpt>
      <trkpt lat="42.13696" lon="9.08507">
        <ele>1843.2</ele>
        <time>2015-06-24T07:41:07Z</time>
      </trkpt>
      <trkpt lat="42.13699" lon="9.08507">
        <ele>1844.2</ele>
        <time>2015-06-24T07:41:17Z</time>
      </trkpt>
      <trkpt lat="42.137" lon="9.08505">
        <ele>1844.8</ele>
        <time>2015-06-24T07:41:22Z</time>
      </trkpt>
      <trkpt lat="42.13701" lon="9.085">
        <ele>1846.4</ele>
        <time>2015-06-24T07:41:33Z</time>
      </trkpt>
      <trkpt lat="42.13701" lon="9.08501">
        <ele>1847.8</ele>
        <time>2015-06-24T07:42:01Z</time>
      </trkpt>
      <trkpt lat="42.13704" lon="9.08497">
        <ele>1848.6</ele>
        <time>2015-06-24T07:42:29Z</time>
      </trkpt>
      <trkpt lat="42.13706" lon="9.08497">
        <ele>1849.2</ele>
        <time>2015-06-24T07:42:36Z</time>
      </trkpt>
      <trkpt lat="42.13708" lon="9.08497">
        <ele>1850.2</ele>
        <time>2015-06-24T07:42:43Z</time>
      </trkpt>
      <trkpt lat="42.13709" lon="9.08495">
        <ele>1851.4</ele>
        <time>2015-06-24T07:42:52Z</time>
      </trkpt>
      <trkpt lat="42.13709" lon="9.08492">
        <ele>1852.2</ele>
        <time>2015-06-24T07:42:59Z</time>
      </trkpt>
      <trkpt lat="42.13709" lon="9.0849">
        <ele>1853.6</ele>
        <time>2015-06-24T07:43:10Z</time>
      </trkpt>
      <trkpt lat="42.1371" lon="9.08487">
        <ele>1854.4</ele>
        <time>2015-06-24T07:43:20Z</time>
      </trkpt>
      <trkpt lat="42.13712" lon="9.08486">
        <ele>1855.4</ele>
        <time>2015-06-24T07:43:28Z</time>
      </trkpt>
      <trkpt lat="42.13714" lon="9.08485">
        <ele>1856.4</ele>
        <time>2015-06-24T07:43:37Z</time>
      </trkpt>
      <trkpt lat="42.13715" lon="9.08482">
        <ele>1857.6</ele>
        <time>2015-06-24T07:43:47Z</time>
      </trkpt>
      <trkpt lat="42.13716" lon="9.0848">
        <ele>1858.2</ele>
        <time>2015-06-24T07:43:54Z</time>
      </trkpt>
      <trkpt lat="42.13717" lon="9.08477">
        <ele>1859.6</ele>
        <time>2015-06-24T07:44:05Z</time>
      </trkpt>
      <trkpt lat="42.13718" lon="9.08475">
        <ele>1860.6</ele>
        <time>2015-06-24T07:44:13Z</time>
      </trkpt>
      <trkpt lat="42.13721" lon="9.08473">
        <ele>1861.8</ele>
        <time>2015-06-24T07:44:25Z</time>
      </trkpt>
      <trkpt lat="42.13722" lon="9.0847">
        <ele>1862.6</ele>
        <time>2015-06-24T07:44:33Z</time>
      </trkpt>
      <trkpt lat="42.13723" lon="9.08468">
        <ele>1863.6</ele>
        <time>2015-06-24T07:44:44Z</time>
      </trkpt>
      <trkpt lat="42.13724" lon="9.08465">
        <ele>1864.8</ele>
        <time>2015-06-24T07:44:53Z</time>
      </trkpt>
      <trkpt lat="42.13723" lon="9.08462">
        <ele>1865.6</ele>
        <time>2015-06-24T07:45:04Z</time>
      </trkpt>
      <trkpt lat="42.13722" lon="9.08458">
        <ele>1866.8</ele>
        <time>2015-06-24T07:45:13Z</time>
      </trkpt>
      <trkpt lat="42.13723" lon="9.08455">
        <ele>1867.8</ele>
        <time>2015-06-24T07:45:20Z</time>
      </trkpt>
      <trkpt lat="42.13721" lon="9.0845">
        <ele>1868.8</ele>
        <time>2015-06-24T07:45:29Z</time>
      </trkpt>
      <trkpt lat="42.1372" lon="9.08444">
        <ele>1870</ele>
        <time>2015-06-24T07:45:41Z</time>
      </trkpt>
      <trkpt lat="42.1372" lon="9.08441">
        <ele>1870.6</ele>
        <time>2015-06-24T07:45:48Z</time>
      </trkpt>
      <trkpt lat="42.1372" lon="9.08437">
        <ele>1872</ele>
        <time>2015-06-24T07:45:57Z</time>
      </trkpt>
      <trkpt lat="42.13721" lon="9.08432">
        <ele>1872.8</ele>
        <time>2015-06-24T07:46:06Z</time>
      </trkpt>
      <trkpt lat="42.13721" lon="9.0843">
        <ele>1873.6</ele>
        <time>2015-06-24T07:46:13Z</time>
      </trkpt>
      <trkpt lat="42.13722" lon="9.0843">
        <ele>1875.2</ele>
        <time>2015-06-24T07:46:25Z</time>
      </trkpt>
      <trkpt lat="42.13722" lon="9.08428">
        <ele>1875.8</ele>
        <time>2015-06-24T07:46:33Z</time>
      </trkpt>
      <trkpt lat="42.13723" lon="9.08425">
        <ele>1876.8</ele>
        <time>2015-06-24T07:46:43Z</time>
      </trkpt>
      <trkpt lat="42.13725" lon="9.08425">
        <ele>1877.8</ele>
        <time>2015-06-24T07:46:51Z</time>
      </trkpt>
      <trkpt lat="42.13726" lon="9.08423">
        <ele>1879</ele>
        <time>2015-06-24T07:47:03Z</time>
      </trkpt>
      <trkpt lat="42.13727" lon="9.08423">
        <ele>1880</ele>
        <time>2015-06-24T07:47:17Z</time>
      </trkpt>
      <trkpt lat="42.13728" lon="9.08422">
        <ele>1880.8</ele>
        <time>2015-06-24T07:47:26Z</time>
      </trkpt>
      <trkpt lat="42.13726" lon="9.08418">
        <ele>1882</ele>
        <time>2015-06-24T07:47:40Z</time>
      </trkpt>
      <trkpt lat="42.13727" lon="9.08414">
        <ele>1883</ele>
        <time>2015-06-24T07:48:07Z</time>
      </trkpt>
      <trkpt lat="42.13724" lon="9.0841">
        <ele>1882.4</ele>
        <time>2015-06-24T07:48:34Z</time>
      </trkpt>
      <trkpt lat="42.13723" lon="9.08408">
        <ele>1881.8</ele>
        <time>2015-06-24T07:48:45Z</time>
      </trkpt>
      <trkpt lat="42.13722" lon="9.08405">
        <ele>1880.2</ele>
        <time>2015-06-24T07:48:55Z</time>
      </trkpt>
      <trkpt lat="42.13722" lon="9.084">
        <ele>1879.6</ele>
        <time>2015-06-24T07:49:01Z</time>
      </trkpt>
      <trkpt lat="42.13717" lon="9.08372">
        <ele>1877.4</ele>
        <time>2015-06-24T07:49:43Z</time>
      </trkpt>
      <trkpt lat="42.13716" lon="9.08369">
        <ele>1877.2</ele>
        <time>2015-06-24T07:49:47Z</time>
      </trkpt>
      <trkpt lat="42.13712" lon="9.08336">
        <ele>1875.4</ele>
        <time>2015-06-24T07:50:25Z</time>
      </trkpt>
      <trkpt lat="42.13712" lon="9.08333">
        <ele>1875.4</ele>
        <time>2015-06-24T07:50:27Z</time>
      </trkpt>
      <trkpt lat="42.13716" lon="9.08302">
        <ele>1875.8</ele>
        <time>2015-06-24T07:51:05Z</time>
      </trkpt>
      <trkpt lat="42.13717" lon="9.08296">
        <ele>1876.4</ele>
        <time>2015-06-24T07:51:13Z</time>
      </trkpt>
      <trkpt lat="42.13718" lon="9.08292">
        <ele>1877.4</ele>
        <time>2015-06-24T07:51:19Z</time>
      </trkpt>
      <trkpt lat="42.13718" lon="9.08287">
        <ele>1878.2</ele>
        <time>2015-06-24T07:51:26Z</time>
      </trkpt>
      <trkpt lat="42.13717" lon="9.08284">
        <ele>1879</ele>
        <time>2015-06-24T07:51:31Z</time>
      </trkpt>
      <trkpt lat="42.1372" lon="9.08279">
        <ele>1880.6</ele>
        <time>2015-06-24T07:51:42Z</time>
      </trkpt>
      <trkpt lat="42.13722" lon="9.08273">
        <ele>1881.6</ele>
        <time>2015-06-24T07:51:51Z</time>
      </trkpt>
      <trkpt lat="42.13725" lon="9.08259">
        <ele>1883</ele>
        <time>2015-06-24T07:52:13Z</time>
      </trkpt>
      <trkpt lat="42.13726" lon="9.08257">
        <ele>1883.4</ele>
        <time>2015-06-24T07:52:20Z</time>
      </trkpt>
      <trkpt lat="42.13727" lon="9.08252">
        <ele>1884.4</ele>
        <time>2015-06-24T07:52:27Z</time>
      </trkpt>
      <trkpt lat="42.13716" lon="9.08216">
        <ele>1885.6</ele>
        <time>2015-06-24T07:53:17Z</time>
      </trkpt>
      <trkpt lat="42.13715" lon="9.08206">
        <ele>1886.4</ele>
        <time>2015-06-24T07:53:30Z</time>
      </trkpt>
      <trkpt lat="42.13707" lon="9.08185">
        <ele>1887.4</ele>
        <time>2015-06-24T07:53:51Z</time>
      </trkpt>
      <trkpt lat="42.13703" lon="9.0817">
        <ele>1888</ele>
        <time>2015-06-24T07:54:11Z</time>
      </trkpt>
      <trkpt lat="42.13702" lon="9.08168">
        <ele>1888.6</ele>
        <time>2015-06-24T07:54:17Z</time>
      </trkpt>
      <trkpt lat="42.137" lon="9.0816">
        <ele>1890</ele>
        <time>2015-06-24T07:54:31Z</time>
      </trkpt>
      <trkpt lat="42.13698" lon="9.08157">
        <ele>1890.8</ele>
        <time>2015-06-24T07:54:39Z</time>
      </trkpt>
      <trkpt lat="42.13696" lon="9.08147">
        <ele>1892.4</ele>
        <time>2015-06-24T07:54:59Z</time>
      </trkpt>
      <trkpt lat="42.13698" lon="9.08147">
        <ele>1892.4</ele>
        <time>2015-06-24T07:55:07Z</time>
      </trkpt>
      <trkpt lat="42.13699" lon="9.08144">
        <ele>1893.8</ele>
        <time>2015-06-24T07:55:17Z</time>
      </trkpt>
      <trkpt lat="42.137" lon="9.0814">
        <ele>1894.4</ele>
        <time>2015-06-24T07:55:27Z</time>
      </trkpt>
      <trkpt lat="42.13698" lon="9.08134">
        <ele>1896</ele>
        <time>2015-06-24T07:55:43Z</time>
      </trkpt>
      <trkpt lat="42.13697" lon="9.08129">
        <ele>1896.8</ele>
        <time>2015-06-24T07:55:53Z</time>
      </trkpt>
      <trkpt lat="42.13697" lon="9.08128">
        <ele>1897.4</ele>
        <time>2015-06-24T07:56:05Z</time>
      </trkpt>
      <trkpt lat="42.13698" lon="9.08123">
        <ele>1898.6</ele>
        <time>2015-06-24T07:56:25Z</time>
      </trkpt>
      <trkpt lat="42.13699" lon="9.08122">
        <ele>1899.2</ele>
        <time>2015-06-24T07:56:33Z</time>
      </trkpt>
      <trkpt lat="42.13701" lon="9.0812">
        <ele>1900.6</ele>
        <time>2015-06-24T07:56:46Z</time>
      </trkpt>
      <trkpt lat="42.13702" lon="9.08117">
        <ele>1901</ele>
        <time>2015-06-24T07:56:52Z</time>
      </trkpt>
      <trkpt lat="42.13703" lon="9.08115">
        <ele>1902.4</ele>
        <time>2015-06-24T07:57:01Z</time>
      </trkpt>
      <trkpt lat="42.137" lon="9.08107">
        <ele>1903.6</ele>
        <time>2015-06-24T07:57:22Z</time>
      </trkpt>
      <trkpt lat="42.13699" lon="9.08104">
        <ele>1904</ele>
        <time>2015-06-24T07:57:28Z</time>
      </trkpt>
      <trkpt lat="42.13701" lon="9.08106">
        <ele>1905.4</ele>
        <time>2015-06-24T07:57:56Z</time>
      </trkpt>
      <trkpt lat="42.13702" lon="9.08104">
        <ele>1905.8</ele>
        <time>2015-06-24T07:58:01Z</time>
      </trkpt>
      <trkpt lat="42.13701" lon="9.08098">
        <ele>1907.6</ele>
        <time>2015-06-24T07:58:14Z</time>
      </trkpt>
      <trkpt lat="42.137" lon="9.08095">
        <ele>1908.2</ele>
        <time>2015-06-24T07:58:21Z</time>
      </trkpt>
      <trkpt lat="42.13701" lon="9.08092">
        <ele>1909.2</ele>
        <time>2015-06-24T07:58:31Z</time>
      </trkpt>
      <trkpt lat="42.13699" lon="9.08087">
        <ele>1910.4</ele>
        <time>2015-06-24T07:58:51Z</time>
      </trkpt>
      <trkpt lat="42.13699" lon="9.08085">
        <ele>1911.2</ele>
        <time>2015-06-24T07:58:58Z</time>
      </trkpt>
      <trkpt lat="42.13692" lon="9.0807">
        <ele>1911</ele>
        <time>2015-06-24T07:59:34Z</time>
      </trkpt>
      <trkpt lat="42.13682" lon="9.08029">
        <ele>1911.2</ele>
        <time>2015-06-24T08:00:45Z</time>
      </trkpt>
      <trkpt lat="42.13682" lon="9.08025">
        <ele>1911.8</ele>
        <time>2015-06-24T08:00:54Z</time>
      </trkpt>
      <trkpt lat="42.13679" lon="9.0799">
        <ele>1912.6</ele>
        <time>2015-06-24T08:01:48Z</time>
      </trkpt>
      <trkpt lat="42.13678" lon="9.07973">
        <ele>1913.8</ele>
        <time>2015-06-24T08:02:17Z</time>
      </trkpt>
      <trkpt lat="42.13677" lon="9.07955">
        <ele>1914.8</ele>
        <time>2015-06-24T08:02:42Z</time>
      </trkpt>
      <trkpt lat="42.13674" lon="9.07945">
        <ele>1915.2</ele>
        <time>2015-06-24T08:02:56Z</time>
      </trkpt>
      <trkpt lat="42.13673" lon="9.07939">
        <ele>1915.6</ele>
        <time>2015-06-24T08:03:04Z</time>
      </trkpt>
      <trkpt lat="42.13672" lon="9.07923">
        <ele>1915</ele>
        <time>2015-06-24T08:03:32Z</time>
      </trkpt>
      <trkpt lat="42.13662" lon="9.07884">
        <ele>1914.4</ele>
        <time>2015-06-24T08:04:25Z</time>
      </trkpt>
      <trkpt lat="42.13665" lon="9.07881">
        <ele>1915</ele>
        <time>2015-06-24T08:04:32Z</time>
      </trkpt>
      <trkpt lat="42.13667" lon="9.0788">
        <ele>1916</ele>
        <time>2015-06-24T08:04:38Z</time>
      </trkpt>
      <trkpt lat="42.1366" lon="9.07871">
        <ele>1917.6</ele>
        <time>2015-06-24T08:04:53Z</time>
      </trkpt>
      <trkpt lat="42.1366" lon="9.07865">
        <ele>1918</ele>
        <time>2015-06-24T08:05:02Z</time>
      </trkpt>
      <trkpt lat="42.13662" lon="9.07864">
        <ele>1918.8</ele>
        <time>2015-06-24T08:05:09Z</time>
      </trkpt>
      <trkpt lat="42.13664" lon="9.07866">
        <ele>1920.2</ele>
        <time>2015-06-24T08:05:18Z</time>
      </trkpt>
      <trkpt lat="42.13668" lon="9.07867">
        <ele>1921</ele>
        <time>2015-06-24T08:05:45Z</time>
      </trkpt>
      <trkpt lat="42.13671" lon="9.07866">
        <ele>1922.2</ele>
        <time>2015-06-24T08:05:58Z</time>
      </trkpt>
      <trkpt lat="42.13674" lon="9.07866">
        <ele>1923</ele>
        <time>2015-06-24T08:06:06Z</time>
      </trkpt>
      <trkpt lat="42.13675" lon="9.07865">
        <ele>1924</ele>
        <time>2015-06-24T08:06:15Z</time>
      </trkpt>
      <trkpt lat="42.13674" lon="9.07861">
        <ele>1924.6</ele>
        <time>2015-06-24T08:06:21Z</time>
      </trkpt>
      <trkpt lat="42.13675" lon="9.0786">
        <ele>1925.4</ele>
        <time>2015-06-24T08:06:25Z</time>
      </trkpt>
      <trkpt lat="42.13674" lon="9.07857">
        <ele>1926</ele>
        <time>2015-06-24T08:06:28Z</time>
      </trkpt>
      <trkpt lat="42.13675" lon="9.07854">
        <ele>1927</ele>
        <time>2015-06-24T08:06:40Z</time>
      </trkpt>
      <trkpt lat="42.13677" lon="9.07854">
        <ele>1928</ele>
        <time>2015-06-24T08:06:48Z</time>
      </trkpt>
      <trkpt lat="42.13678" lon="9.07853">
        <ele>1929.2</ele>
        <time>2015-06-24T08:07:01Z</time>
      </trkpt>
      <trkpt lat="42.13677" lon="9.0785">
        <ele>1929.8</ele>
        <time>2015-06-24T08:07:07Z</time>
      </trkpt>
      <trkpt lat="42.13675" lon="9.07845">
        <ele>1931.4</ele>
        <time>2015-06-24T08:07:16Z</time>
      </trkpt>
      <trkpt lat="42.13673" lon="9.07841">
        <ele>1932.4</ele>
        <time>2015-06-24T08:07:26Z</time>
      </trkpt>
      <trkpt lat="42.13676" lon="9.07835">
        <ele>1932.8</ele>
        <time>2015-06-24T08:08:25Z</time>
      </trkpt>
      <trkpt lat="42.1368" lon="9.07837">
        <ele>1933.8</ele>
        <time>2015-06-24T08:08:42Z</time>
      </trkpt>
      <trkpt lat="42.13682" lon="9.07838">
        <ele>1935.2</ele>
        <time>2015-06-24T08:08:53Z</time>
      </trkpt>
      <trkpt lat="42.13683" lon="9.07837">
        <ele>1935.6</ele>
        <time>2015-06-24T08:08:58Z</time>
      </trkpt>
      <trkpt lat="42.13682" lon="9.07833">
        <ele>1937.4</ele>
        <time>2015-06-24T08:09:09Z</time>
      </trkpt>
      <trkpt lat="42.13682" lon="9.07833">
        <ele>1938</ele>
        <time>2015-06-24T08:09:16Z</time>
      </trkpt>
      <trkpt lat="42.13683" lon="9.0783">
        <ele>1939</ele>
        <time>2015-06-24T08:09:36Z</time>
      </trkpt>
      <trkpt lat="42.13685" lon="9.0783">
        <ele>1940.4</ele>
        <time>2015-06-24T08:09:46Z</time>
      </trkpt>
      <trkpt lat="42.13686" lon="9.07828">
        <ele>1941.2</ele>
        <time>2015-06-24T08:09:53Z</time>
      </trkpt>
      <trkpt lat="42.13687" lon="9.07827">
        <ele>1942.4</ele>
        <time>2015-06-24T08:10:03Z</time>
      </trkpt>
      <trkpt lat="42.13689" lon="9.07825">
        <ele>1943.8</ele>
        <time>2015-06-24T08:10:13Z</time>
      </trkpt>
      <trkpt lat="42.1369" lon="9.07822">
        <ele>1944.4</ele>
        <time>2015-06-24T08:10:21Z</time>
      </trkpt>
      <trkpt lat="42.13691" lon="9.07822">
        <ele>1945.6</ele>
        <time>2015-06-24T08:10:30Z</time>
      </trkpt>
      <trkpt lat="42.13691" lon="9.07818">
        <ele>1946.6</ele>
        <time>2015-06-24T08:10:39Z</time>
      </trkpt>
      <trkpt lat="42.13689" lon="9.07815">
        <ele>1947.6</ele>
        <time>2015-06-24T08:10:45Z</time>
      </trkpt>
      <trkpt lat="42.13683" lon="9.07808">
        <ele>1949.2</ele>
        <time>2015-06-24T08:11:03Z</time>
      </trkpt>
      <trkpt lat="42.13685" lon="9.07806">
        <ele>1950.2</ele>
        <time>2015-06-24T08:11:24Z</time>
      </trkpt>
      <trkpt lat="42.13685" lon="9.07802">
        <ele>1951.4</ele>
        <time>2015-06-24T08:11:38Z</time>
      </trkpt>
      <trkpt lat="42.13683" lon="9.078">
        <ele>1951.6</ele>
        <time>2015-06-24T08:11:45Z</time>
      </trkpt>
      <trkpt lat="42.13683" lon="9.07795">
        <ele>1953</ele>
        <time>2015-06-24T08:12:06Z</time>
      </trkpt>
      <trkpt lat="42.13682" lon="9.07793">
        <ele>1953.6</ele>
        <time>2015-06-24T08:12:10Z</time>
      </trkpt>
      <trkpt lat="42.13681" lon="9.0779">
        <ele>1954.2</ele>
        <time>2015-06-24T08:12:15Z</time>
      </trkpt>
      <trkpt lat="42.13678" lon="9.07788">
        <ele>1955.4</ele>
        <time>2015-06-24T08:12:33Z</time>
      </trkpt>
      <trkpt lat="42.13677" lon="9.07786">
        <ele>1955.8</ele>
        <time>2015-06-24T08:12:39Z</time>
      </trkpt>
      <trkpt lat="42.13677" lon="9.07782">
        <ele>1957.4</ele>
        <time>2015-06-24T08:12:52Z</time>
      </trkpt>
      <trkpt lat="42.13677" lon="9.07778">
        <ele>1958.8</ele>
        <time>2015-06-24T08:13:03Z</time>
      </trkpt>
      <trkpt lat="42.13677" lon="9.07777">
        <ele>1959.2</ele>
        <time>2015-06-24T08:13:11Z</time>
      </trkpt>
      <trkpt lat="42.13677" lon="9.07775">
        <ele>1960.6</ele>
        <time>2015-06-24T08:13:21Z</time>
      </trkpt>
      <trkpt lat="42.13677" lon="9.07768">
        <ele>1961.8</ele>
        <time>2015-06-24T08:13:43Z</time>
      </trkpt>
      <trkpt lat="42.13676" lon="9.07765">
        <ele>1962.8</ele>
        <time>2015-06-24T08:13:50Z</time>
      </trkpt>
      <trkpt lat="42.13675" lon="9.07757">
        <ele>1963.8</ele>
        <time>2015-06-24T08:14:06Z</time>
      </trkpt>
      <trkpt lat="42.13674" lon="9.07754">
        <ele>1964.6</ele>
        <time>2015-06-24T08:14:14Z</time>
      </trkpt>
      <trkpt lat="42.1367" lon="9.07748">
        <ele>1966</ele>
        <time>2015-06-24T08:14:29Z</time>
      </trkpt>
      <trkpt lat="42.1367" lon="9.07744">
        <ele>1967</ele>
        <time>2015-06-24T08:14:39Z</time>
      </trkpt>
      <trkpt lat="42.13669" lon="9.07741">
        <ele>1968.2</ele>
        <time>2015-06-24T08:14:48Z</time>
      </trkpt>
      <trkpt lat="42.13669" lon="9.0774">
        <ele>1969.4</ele>
        <time>2015-06-24T08:14:58Z</time>
      </trkpt>
      <trkpt lat="42.13671" lon="9.07738">
        <ele>1970.4</ele>
        <time>2015-06-24T08:15:09Z</time>
      </trkpt>
      <trkpt lat="42.13673" lon="9.07736">
        <ele>1971.4</ele>
        <time>2015-06-24T08:15:18Z</time>
      </trkpt>
      <trkpt lat="42.13671" lon="9.0773">
        <ele>1972.8</ele>
        <time>2015-06-24T08:15:31Z</time>
      </trkpt>
      <trkpt lat="42.13669" lon="9.07725">
        <ele>1973.6</ele>
        <time>2015-06-24T08:15:41Z</time>
      </trkpt>
      <trkpt lat="42.13669" lon="9.07726">
        <ele>1974.2</ele>
        <time>2015-06-24T08:15:46Z</time>
      </trkpt>
      <trkpt lat="42.13672" lon="9.07729">
        <ele>1975.8</ele>
        <time>2015-06-24T08:16:00Z</time>
      </trkpt>
      <trkpt lat="42.13674" lon="9.07728">
        <ele>1977.2</ele>
        <time>2015-06-24T08:16:11Z</time>
      </trkpt>
      <trkpt lat="42.13677" lon="9.0773">
        <ele>1978.4</ele>
        <time>2015-06-24T08:16:25Z</time>
      </trkpt>
      <trkpt lat="42.13679" lon="9.07728">
        <ele>1979.8</ele>
        <time>2015-06-24T08:16:40Z</time>
      </trkpt>
      <trkpt lat="42.13679" lon="9.07726">
        <ele>1980.8</ele>
        <time>2015-06-24T08:16:51Z</time>
      </trkpt>
      <trkpt lat="42.13674" lon="9.0772">
        <ele>1981.6</ele>
        <time>2015-06-24T08:19:57Z</time>
      </trkpt>
      <trkpt lat="42.13673" lon="9.07717">
        <ele>1981.4</ele>
        <time>2015-06-24T08:22:30Z</time>
      </trkpt>
      <trkpt lat="42.13677" lon="9.07724">
        <ele>1980.2</ele>
        <time>2015-06-24T08:26:16Z</time>
      </trkpt>
      <trkpt lat="42.13676" lon="9.07722">
        <ele>1980.2</ele>
        <time>2015-06-24T08:27:22Z</time>
      </trkpt>
      <trkpt lat="42.13676" lon="9.0772">
        <ele>1980.6</ele>
        <time>2015-06-24T08:27:51Z</time>
      </trkpt>
      <trkpt lat="42.13677" lon="9.07719">
        <ele>1980.2</ele>
        <time>2015-06-24T08:32:10Z</time>
      </trkpt>
      <trkpt lat="42.13679" lon="9.07717">
        <ele>1980</ele>
        <time>2015-06-24T08:33:03Z</time>
      </trkpt>
      <trkpt lat="42.13681" lon="9.07712">
        <ele>1979.2</ele>
        <time>2015-06-24T08:33:10Z</time>
      </trkpt>
      <trkpt lat="42.13686" lon="9.07704">
        <ele>1977.6</ele>
        <time>2015-06-24T08:33:23Z</time>
      </trkpt>
      <trkpt lat="42.13687" lon="9.07695">
        <ele>1976</ele>
        <time>2015-06-24T08:34:40Z</time>
      </trkpt>
      <trkpt lat="42.13687" lon="9.07691">
        <ele>1975.2</ele>
        <time>2015-06-24T08:34:50Z</time>
      </trkpt>
      <trkpt lat="42.13688" lon="9.07686">
        <ele>1973.8</ele>
        <time>2015-06-24T08:35:10Z</time>
      </trkpt>
      <trkpt lat="42.13688" lon="9.07684">
        <ele>1973</ele>
        <time>2015-06-24T08:35:18Z</time>
      </trkpt>
      <trkpt lat="42.1369" lon="9.07681">
        <ele>1972</ele>
        <time>2015-06-24T08:35:26Z</time>
      </trkpt>
      <trkpt lat="42.13689" lon="9.07677">
        <ele>1970.6</ele>
        <time>2015-06-24T08:35:36Z</time>
      </trkpt>
      <trkpt lat="42.13691" lon="9.07675">
        <ele>1969.6</ele>
        <time>2015-06-24T08:35:45Z</time>
      </trkpt>
      <trkpt lat="42.13691" lon="9.07668">
        <ele>1968</ele>
        <time>2015-06-24T08:36:31Z</time>
      </trkpt>
      <trkpt lat="42.1369" lon="9.07665">
        <ele>1967.6</ele>
        <time>2015-06-24T08:36:36Z</time>
      </trkpt>
      <trkpt lat="42.1369" lon="9.07663">
        <ele>1966.4</ele>
        <time>2015-06-24T08:36:42Z</time>
      </trkpt>
      <trkpt lat="42.13692" lon="9.07662">
        <ele>1964.8</ele>
        <time>2015-06-24T08:36:52Z</time>
      </trkpt>
      <trkpt lat="42.13695" lon="9.07662">
        <ele>1964</ele>
        <time>2015-06-24T08:36:58Z</time>
      </trkpt>
      <trkpt lat="42.13698" lon="9.07662">
        <ele>1962.8</ele>
        <time>2015-06-24T08:37:05Z</time>
      </trkpt>
      <trkpt lat="42.13698" lon="9.07661">
        <ele>1961.6</ele>
        <time>2015-06-24T08:37:12Z</time>
      </trkpt>
      <trkpt lat="42.13696" lon="9.07656">
        <ele>1960.2</ele>
        <time>2015-06-24T08:37:20Z</time>
      </trkpt>
      <trkpt lat="42.13698" lon="9.07656">
        <ele>1958.8</ele>
        <time>2015-06-24T08:37:30Z</time>
      </trkpt>
      <trkpt lat="42.137" lon="9.07655">
        <ele>1958.2</ele>
        <time>2015-06-24T08:37:38Z</time>
      </trkpt>
      <trkpt lat="42.13702" lon="9.07655">
        <ele>1957.8</ele>
        <time>2015-06-24T08:37:43Z</time>
      </trkpt>
      <trkpt lat="42.137" lon="9.07653">
        <ele>1956.6</ele>
        <time>2015-06-24T08:37:52Z</time>
      </trkpt>
      <trkpt lat="42.13702" lon="9.07653">
        <ele>1955.6</ele>
        <time>2015-06-24T08:38:02Z</time>
      </trkpt>
      <trkpt lat="42.13704" lon="9.07653">
        <ele>1954.4</ele>
        <time>2015-06-24T08:38:12Z</time>
      </trkpt>
      <trkpt lat="42.13707" lon="9.07651">
        <ele>1953</ele>
        <time>2015-06-24T08:38:24Z</time>
      </trkpt>
      <trkpt lat="42.13709" lon="9.07651">
        <ele>1952.8</ele>
        <time>2015-06-24T08:38:30Z</time>
      </trkpt>
      <trkpt lat="42.13711" lon="9.07649">
        <ele>1951.6</ele>
        <time>2015-06-24T08:38:36Z</time>
      </trkpt>
      <trkpt lat="42.13708" lon="9.07644">
        <ele>1950</ele>
        <time>2015-06-24T08:38:46Z</time>
      </trkpt>
      <trkpt lat="42.13704" lon="9.07641">
        <ele>1948.8</ele>
        <time>2015-06-24T08:38:57Z</time>
      </trkpt>
      <trkpt lat="42.13705" lon="9.07638">
        <ele>1947.6</ele>
        <time>2015-06-24T08:39:08Z</time>
      </trkpt>
      <trkpt lat="42.13706" lon="9.07636">
        <ele>1947</ele>
        <time>2015-06-24T08:39:15Z</time>
      </trkpt>
      <trkpt lat="42.13705" lon="9.07635">
        <ele>1945.2</ele>
        <time>2015-06-24T08:39:44Z</time>
      </trkpt>
      <trkpt lat="42.13705" lon="9.07631">
        <ele>1944.2</ele>
        <time>2015-06-24T08:39:56Z</time>
      </trkpt>
      <trkpt lat="42.13708" lon="9.07631">
        <ele>1943.2</ele>
        <time>2015-06-24T08:40:06Z</time>
      </trkpt>
      <trkpt lat="42.1371" lon="9.07632">
        <ele>1942.6</ele>
        <time>2015-06-24T08:40:11Z</time>
      </trkpt>
      <trkpt lat="42.13712" lon="9.07631">
        <ele>1940.8</ele>
        <time>2015-06-24T08:40:24Z</time>
      </trkpt>
      <trkpt lat="42.13712" lon="9.0763">
        <ele>1940</ele>
        <time>2015-06-24T08:40:31Z</time>
      </trkpt>
      <trkpt lat="42.13713" lon="9.07628">
        <ele>1938.8</ele>
        <time>2015-06-24T08:40:42Z</time>
      </trkpt>
      <trkpt lat="42.13712" lon="9.07626">
        <ele>1937.8</ele>
        <time>2015-06-24T08:40:49Z</time>
      </trkpt>
      <trkpt lat="42.13712" lon="9.07624">
        <ele>1936.6</ele>
        <time>2015-06-24T08:40:58Z</time>
      </trkpt>
      <trkpt lat="42.1371" lon="9.07621">
        <ele>1935</ele>
        <time>2015-06-24T08:41:11Z</time>
      </trkpt>
      <trkpt lat="42.13709" lon="9.07617">
        <ele>1934</ele>
        <time>2015-06-24T08:41:23Z</time>
      </trkpt>
      <trkpt lat="42.13711" lon="9.07614">
        <ele>1933</ele>
        <time>2015-06-24T08:41:42Z</time>
      </trkpt>
      <trkpt lat="42.13714" lon="9.07613">
        <ele>1931.6</ele>
        <time>2015-06-24T08:41:56Z</time>
      </trkpt>
      <trkpt lat="42.13713" lon="9.07612">
        <ele>1931</ele>
        <time>2015-06-24T08:42:03Z</time>
      </trkpt>
      <trkpt lat="42.13716" lon="9.07612">
        <ele>1929.8</ele>
        <time>2015-06-24T08:42:10Z</time>
      </trkpt>
      <trkpt lat="42.13718" lon="9.07612">
        <ele>1928.6</ele>
        <time>2015-06-24T08:42:19Z</time>
      </trkpt>
      <trkpt lat="42.1372" lon="9.0761">
        <ele>1927</ele>
        <time>2015-06-24T08:42:28Z</time>
      </trkpt>
      <trkpt lat="42.13721" lon="9.07607">
        <ele>1925.4</ele>
        <time>2015-06-24T08:42:51Z</time>
      </trkpt>
      <trkpt lat="42.13722" lon="9.07605">
        <ele>1925</ele>
        <time>2015-06-24T08:42:58Z</time>
      </trkpt>
      <trkpt lat="42.13725" lon="9.07605">
        <ele>1924</ele>
        <time>2015-06-24T08:43:04Z</time>
      </trkpt>
      <trkpt lat="42.13727" lon="9.07603">
        <ele>1922.8</ele>
        <time>2015-06-24T08:43:10Z</time>
      </trkpt>
      <trkpt lat="42.1373" lon="9.07603">
        <ele>1921.2</ele>
        <time>2015-06-24T08:43:20Z</time>
      </trkpt>
      <trkpt lat="42.13731" lon="9.076">
        <ele>1920.6</ele>
        <time>2015-06-24T08:43:26Z</time>
      </trkpt>
      <trkpt lat="42.13734" lon="9.07597">
        <ele>1919</ele>
        <time>2015-06-24T08:43:34Z</time>
      </trkpt>
      <trkpt lat="42.13738" lon="9.07596">
        <ele>1918</ele>
        <time>2015-06-24T08:43:44Z</time>
      </trkpt>
      <trkpt lat="42.13741" lon="9.07595">
        <ele>1917</ele>
        <time>2015-06-24T08:43:51Z</time>
      </trkpt>
      <trkpt lat="42.13745" lon="9.07594">
        <ele>1916</ele>
        <time>2015-06-24T08:43:57Z</time>
      </trkpt>
      <trkpt lat="42.13748" lon="9.07595">
        <ele>1915</ele>
        <time>2015-06-24T08:44:02Z</time>
      </trkpt>
      <trkpt lat="42.13751" lon="9.07595">
        <ele>1913</ele>
        <time>2015-06-24T08:44:18Z</time>
      </trkpt>
      <trkpt lat="42.13752" lon="9.07593">
        <ele>1912.4</ele>
        <time>2015-06-24T08:44:29Z</time>
      </trkpt>
      <trkpt lat="42.13753" lon="9.07592">
        <ele>1910.8</ele>
        <time>2015-06-24T08:44:43Z</time>
      </trkpt>
      <trkpt lat="42.13751" lon="9.07591">
        <ele>1909.8</ele>
        <time>2015-06-24T08:44:51Z</time>
      </trkpt>
      <trkpt lat="42.1375" lon="9.07587">
        <ele>1909</ele>
        <time>2015-06-24T08:44:58Z</time>
      </trkpt>
      <trkpt lat="42.13749" lon="9.07586">
        <ele>1908</ele>
        <time>2015-06-24T08:45:04Z</time>
      </trkpt>
      <trkpt lat="42.13748" lon="9.07584">
        <ele>1906.6</ele>
        <time>2015-06-24T08:45:13Z</time>
      </trkpt>
      <trkpt lat="42.1375" lon="9.07581">
        <ele>1905.8</ele>
        <time>2015-06-24T08:45:19Z</time>
      </trkpt>
      <trkpt lat="42.13753" lon="9.07583">
        <ele>1904.6</ele>
        <time>2015-06-24T08:45:26Z</time>
      </trkpt>
      <trkpt lat="42.13754" lon="9.0758">
        <ele>1903.4</ele>
        <time>2015-06-24T08:45:33Z</time>
      </trkpt>
      <trkpt lat="42.13755" lon="9.0758">
        <ele>1902.4</ele>
        <time>2015-06-24T08:45:39Z</time>
      </trkpt>
      <trkpt lat="42.13754" lon="9.07576">
        <ele>1900.6</ele>
        <time>2015-06-24T08:45:55Z</time>
      </trkpt>
      <trkpt lat="42.13756" lon="9.07575">
        <ele>1900</ele>
        <time>2015-06-24T08:46:01Z</time>
      </trkpt>
      <trkpt lat="42.13757" lon="9.07574">
        <ele>1898.8</ele>
        <time>2015-06-24T08:46:07Z</time>
      </trkpt>
      <trkpt lat="42.13758" lon="9.07573">
        <ele>1898.2</ele>
        <time>2015-06-24T08:46:10Z</time>
      </trkpt>
      <trkpt lat="42.1376" lon="9.07571">
        <ele>1897.8</ele>
        <time>2015-06-24T08:46:15Z</time>
      </trkpt>
      <trkpt lat="42.1377" lon="9.07568">
        <ele>1895.8</ele>
        <time>2015-06-24T08:46:36Z</time>
      </trkpt>
      <trkpt lat="42.13772" lon="9.07567">
        <ele>1895.6</ele>
        <time>2015-06-24T08:46:40Z</time>
      </trkpt>
      <trkpt lat="42.13774" lon="9.07563">
        <ele>1894.2</ele>
        <time>2015-06-24T08:46:53Z</time>
      </trkpt>
      <trkpt lat="42.13784" lon="9.07567">
        <ele>1894.2</ele>
        <time>2015-06-24T08:47:39Z</time>
      </trkpt>
      <trkpt lat="42.13783" lon="9.07567">
        <ele>1893.6</ele>
        <time>2015-06-24T08:48:05Z</time>
      </trkpt>
      <trkpt lat="42.13785" lon="9.07571">
        <ele>1893</ele>
        <time>2015-06-24T08:48:25Z</time>
      </trkpt>
      <trkpt lat="42.13786" lon="9.07571">
        <ele>1891.6</ele>
        <time>2015-06-24T08:48:41Z</time>
      </trkpt>
      <trkpt lat="42.13787" lon="9.07571">
        <ele>1891</ele>
        <time>2015-06-24T08:48:49Z</time>
      </trkpt>
      <trkpt lat="42.13789" lon="9.07568">
        <ele>1889.8</ele>
        <time>2015-06-24T08:48:56Z</time>
      </trkpt>
      <trkpt lat="42.13793" lon="9.07569">
        <ele>1889</ele>
        <time>2015-06-24T08:49:01Z</time>
      </trkpt>
      <trkpt lat="42.13806" lon="9.07579">
        <ele>1887.2</ele>
        <time>2015-06-24T08:49:50Z</time>
      </trkpt>
      <trkpt lat="42.1381" lon="9.07579">
        <ele>1886</ele>
        <time>2015-06-24T08:49:58Z</time>
      </trkpt>
      <trkpt lat="42.13814" lon="9.07581">
        <ele>1884.8</ele>
        <time>2015-06-24T08:50:04Z</time>
      </trkpt>
      <trkpt lat="42.1382" lon="9.07586">
        <ele>1883.4</ele>
        <time>2015-06-24T08:50:16Z</time>
      </trkpt>
      <trkpt lat="42.1382" lon="9.07582">
        <ele>1882.6</ele>
        <time>2015-06-24T08:50:24Z</time>
      </trkpt>
      <trkpt lat="42.13821" lon="9.07579">
        <ele>1881.4</ele>
        <time>2015-06-24T08:50:31Z</time>
      </trkpt>
      <trkpt lat="42.13822" lon="9.07577">
        <ele>1880.6</ele>
        <time>2015-06-24T08:50:37Z</time>
      </trkpt>
      <trkpt lat="42.13823" lon="9.07577">
        <ele>1880.4</ele>
        <time>2015-06-24T08:50:39Z</time>
      </trkpt>
      <trkpt lat="42.13825" lon="9.07578">
        <ele>1878.8</ele>
        <time>2015-06-24T08:50:48Z</time>
      </trkpt>
      <trkpt lat="42.13827" lon="9.07574">
        <ele>1878.2</ele>
        <time>2015-06-24T08:50:55Z</time>
      </trkpt>
      <trkpt lat="42.13829" lon="9.07573">
        <ele>1877.6</ele>
        <time>2015-06-24T08:51:00Z</time>
      </trkpt>
      <trkpt lat="42.13833" lon="9.07574">
        <ele>1876</ele>
        <time>2015-06-24T08:51:05Z</time>
      </trkpt>
      <trkpt lat="42.13837" lon="9.07576">
        <ele>1874.8</ele>
        <time>2015-06-24T08:51:11Z</time>
      </trkpt>
      <trkpt lat="42.13841" lon="9.07579">
        <ele>1874</ele>
        <time>2015-06-24T08:51:17Z</time>
      </trkpt>
      <trkpt lat="42.13846" lon="9.07581">
        <ele>1872.2</ele>
        <time>2015-06-24T08:51:25Z</time>
      </trkpt>
      <trkpt lat="42.13848" lon="9.07583">
        <ele>1870.6</ele>
        <time>2015-06-24T08:51:34Z</time>
      </trkpt>
      <trkpt lat="42.1385" lon="9.07579">
        <ele>1869.8</ele>
        <time>2015-06-24T08:51:49Z</time>
      </trkpt>
      <trkpt lat="42.13852" lon="9.07578">
        <ele>1869.4</ele>
        <time>2015-06-24T08:51:52Z</time>
      </trkpt>
      <trkpt lat="42.13854" lon="9.07579">
        <ele>1869</ele>
        <time>2015-06-24T08:51:56Z</time>
      </trkpt>
      <trkpt lat="42.13857" lon="9.0758">
        <ele>1867.6</ele>
        <time>2015-06-24T08:52:00Z</time>
      </trkpt>
      <trkpt lat="42.13857" lon="9.07574">
        <ele>1865</ele>
        <time>2015-06-24T08:52:09Z</time>
      </trkpt>
      <trkpt lat="42.13858" lon="9.07571">
        <ele>1864.4</ele>
        <time>2015-06-24T08:52:15Z</time>
      </trkpt>
      <trkpt lat="42.1386" lon="9.07566">
        <ele>1863</ele>
        <time>2015-06-24T08:52:23Z</time>
      </trkpt>
      <trkpt lat="42.13864" lon="9.07567">
        <ele>1862</ele>
        <time>2015-06-24T08:52:30Z</time>
      </trkpt>
      <trkpt lat="42.13866" lon="9.07567">
        <ele>1860.6</ele>
        <time>2015-06-24T08:52:36Z</time>
      </trkpt>
      <trkpt lat="42.13868" lon="9.07563">
        <ele>1859.2</ele>
        <time>2015-06-24T08:52:44Z</time>
      </trkpt>
      <trkpt lat="42.1387" lon="9.07565">
        <ele>1858.6</ele>
        <time>2015-06-24T08:52:49Z</time>
      </trkpt>
      <trkpt lat="42.13873" lon="9.07565">
        <ele>1857</ele>
        <time>2015-06-24T08:52:58Z</time>
      </trkpt>
      <trkpt lat="42.13876" lon="9.07564">
        <ele>1856</ele>
        <time>2015-06-24T08:53:06Z</time>
      </trkpt>
      <trkpt lat="42.13881" lon="9.07562">
        <ele>1855.2</ele>
        <time>2015-06-24T08:53:13Z</time>
      </trkpt>
      <trkpt lat="42.13885" lon="9.07566">
        <ele>1854.2</ele>
        <time>2015-06-24T08:53:18Z</time>
      </trkpt>
      <trkpt lat="42.13887" lon="9.07567">
        <ele>1853.8</ele>
        <time>2015-06-24T08:53:20Z</time>
      </trkpt>
      <trkpt lat="42.13894" lon="9.07577">
        <ele>1853.6</ele>
        <time>2015-06-24T08:53:31Z</time>
      </trkpt>
      <trkpt lat="42.13895" lon="9.07577">
        <ele>1853.6</ele>
        <time>2015-06-24T08:53:33Z</time>
      </trkpt>
      <trkpt lat="42.13901" lon="9.07575">
        <ele>1853.6</ele>
        <time>2015-06-24T08:53:42Z</time>
      </trkpt>
      <trkpt lat="42.13904" lon="9.07573">
        <ele>1853.2</ele>
        <time>2015-06-24T08:53:48Z</time>
      </trkpt>
      <trkpt lat="42.13907" lon="9.07573">
        <ele>1852.6</ele>
        <time>2015-06-24T08:53:56Z</time>
      </trkpt>
      <trkpt lat="42.13909" lon="9.07573">
        <ele>1852.2</ele>
        <time>2015-06-24T08:54:00Z</time>
      </trkpt>
      <trkpt lat="42.1391" lon="9.07569">
        <ele>1850.2</ele>
        <time>2015-06-24T08:54:08Z</time>
      </trkpt>
      <trkpt lat="42.13911" lon="9.07567">
        <ele>1849.8</ele>
        <time>2015-06-24T08:54:13Z</time>
      </trkpt>
      <trkpt lat="42.13913" lon="9.07564">
        <ele>1848.4</ele>
        <time>2015-06-24T08:54:20Z</time>
      </trkpt>
      <trkpt lat="42.13915" lon="9.07562">
        <ele>1847</ele>
        <time>2015-06-24T08:54:27Z</time>
      </trkpt>
      <trkpt lat="42.13919" lon="9.0756">
        <ele>1846</ele>
        <time>2015-06-24T08:54:35Z</time>
      </trkpt>
      <trkpt lat="42.13922" lon="9.07558">
        <ele>1844.4</ele>
        <time>2015-06-24T08:54:55Z</time>
      </trkpt>
      <trkpt lat="42.13925" lon="9.07556">
        <ele>1843.6</ele>
        <time>2015-06-24T08:55:23Z</time>
      </trkpt>
      <trkpt lat="42.13927" lon="9.07558">
        <ele>1843.4</ele>
        <time>2015-06-24T08:55:26Z</time>
      </trkpt>
      <trkpt lat="42.13932" lon="9.07557">
        <ele>1841</ele>
        <time>2015-06-24T08:55:42Z</time>
      </trkpt>
      <trkpt lat="42.13935" lon="9.07559">
        <ele>1840.4</ele>
        <time>2015-06-24T08:55:48Z</time>
      </trkpt>
      <trkpt lat="42.13937" lon="9.07558">
        <ele>1840</ele>
        <time>2015-06-24T08:55:52Z</time>
      </trkpt>
      <trkpt lat="42.13941" lon="9.07555">
        <ele>1838.2</ele>
        <time>2015-06-24T08:55:57Z</time>
      </trkpt>
      <trkpt lat="42.13948" lon="9.0755">
        <ele>1837</ele>
        <time>2015-06-24T08:56:06Z</time>
      </trkpt>
      <trkpt lat="42.1395" lon="9.0755">
        <ele>1836.8</ele>
        <time>2015-06-24T08:56:08Z</time>
      </trkpt>
      <trkpt lat="42.13953" lon="9.07551">
        <ele>1836.2</ele>
        <time>2015-06-24T08:56:11Z</time>
      </trkpt>
      <trkpt lat="42.13958" lon="9.07549">
        <ele>1834.2</ele>
        <time>2015-06-24T08:56:19Z</time>
      </trkpt>
      <trkpt lat="42.1396" lon="9.07547">
        <ele>1833.6</ele>
        <time>2015-06-24T08:56:25Z</time>
      </trkpt>
      <trkpt lat="42.13965" lon="9.07546">
        <ele>1832.4</ele>
        <time>2015-06-24T08:56:31Z</time>
      </trkpt>
      <trkpt lat="42.13967" lon="9.07545">
        <ele>1831.4</ele>
        <time>2015-06-24T08:56:36Z</time>
      </trkpt>
      <trkpt lat="42.13971" lon="9.07547">
        <ele>1830.2</ele>
        <time>2015-06-24T08:56:42Z</time>
      </trkpt>
      <trkpt lat="42.13977" lon="9.07546">
        <ele>1828.2</ele>
        <time>2015-06-24T08:56:55Z</time>
      </trkpt>
      <trkpt lat="42.13981" lon="9.07546">
        <ele>1827.8</ele>
        <time>2015-06-24T08:57:04Z</time>
      </trkpt>
      <trkpt lat="42.13988" lon="9.07546">
        <ele>1826.6</ele>
        <time>2015-06-24T08:57:18Z</time>
      </trkpt>
      <trkpt lat="42.13991" lon="9.07545">
        <ele>1826</ele>
        <time>2015-06-24T08:57:23Z</time>
      </trkpt>
      <trkpt lat="42.13995" lon="9.07543">
        <ele>1824.6</ele>
        <time>2015-06-24T08:57:31Z</time>
      </trkpt>
      <trkpt lat="42.13999" lon="9.07543">
        <ele>1823.8</ele>
        <time>2015-06-24T08:57:38Z</time>
      </trkpt>
      <trkpt lat="42.14004" lon="9.07538">
        <ele>1822.4</ele>
        <time>2015-06-24T08:57:56Z</time>
      </trkpt>
      <trkpt lat="42.14006" lon="9.07538">
        <ele>1821.4</ele>
        <time>2015-06-24T08:58:02Z</time>
      </trkpt>
      <trkpt lat="42.14008" lon="9.07535">
        <ele>1820</ele>
        <time>2015-06-24T08:58:12Z</time>
      </trkpt>
      <trkpt lat="42.1401" lon="9.07532">
        <ele>1818.6</ele>
        <time>2015-06-24T08:58:25Z</time>
      </trkpt>
      <trkpt lat="42.14012" lon="9.07532">
        <ele>1818</ele>
        <time>2015-06-24T08:58:31Z</time>
      </trkpt>
      <trkpt lat="42.14014" lon="9.07529">
        <ele>1816.2</ele>
        <time>2015-06-24T08:58:43Z</time>
      </trkpt>
      <trkpt lat="42.14017" lon="9.07527">
        <ele>1815.6</ele>
        <time>2015-06-24T08:58:53Z</time>
      </trkpt>
      <trkpt lat="42.14019" lon="9.07524">
        <ele>1813.8</ele>
        <time>2015-06-24T08:59:02Z</time>
      </trkpt>
      <trkpt lat="42.14022" lon="9.0752">
        <ele>1813.4</ele>
        <time>2015-06-24T08:59:10Z</time>
      </trkpt>
      <trkpt lat="42.14025" lon="9.07516">
        <ele>1812.4</ele>
        <time>2015-06-24T08:59:16Z</time>
      </trkpt>
      <trkpt lat="42.14027" lon="9.07515">
        <ele>1811.2</ele>
        <time>2015-06-24T08:59:23Z</time>
      </trkpt>
      <trkpt lat="42.14029" lon="9.07514">
        <ele>1810.6</ele>
        <time>2015-06-24T08:59:27Z</time>
      </trkpt>
      <trkpt lat="42.14031" lon="9.07511">
        <ele>1809.4</ele>
        <time>2015-06-24T08:59:32Z</time>
      </trkpt>
      <trkpt lat="42.14033" lon="9.0751">
        <ele>1808.4</ele>
        <time>2015-06-24T08:59:37Z</time>
      </trkpt>
      <trkpt lat="42.14035" lon="9.07507">
        <ele>1807</ele>
        <time>2015-06-24T08:59:43Z</time>
      </trkpt>
      <trkpt lat="42.14035" lon="9.07504">
        <ele>1806</ele>
        <time>2015-06-24T08:59:48Z</time>
      </trkpt>
      <trkpt lat="42.14039" lon="9.07501">
        <ele>1804.2</ele>
        <time>2015-06-24T08:59:55Z</time>
      </trkpt>
      <trkpt lat="42.14041" lon="9.07501">
        <ele>1803.6</ele>
        <time>2015-06-24T08:59:59Z</time>
      </trkpt>
      <trkpt lat="42.14043" lon="9.07499">
        <ele>1802.8</ele>
        <time>2015-06-24T09:00:03Z</time>
      </trkpt>
      <trkpt lat="42.14048" lon="9.07496">
        <ele>1800.2</ele>
        <time>2015-06-24T09:00:11Z</time>
      </trkpt>
      <trkpt lat="42.14054" lon="9.07494">
        <ele>1799</ele>
        <time>2015-06-24T09:00:19Z</time>
      </trkpt>
      <trkpt lat="42.14057" lon="9.07493">
        <ele>1798.8</ele>
        <time>2015-06-24T09:00:23Z</time>
      </trkpt>
      <trkpt lat="42.14059" lon="9.07492">
        <ele>1797.8</ele>
        <time>2015-06-24T09:00:26Z</time>
      </trkpt>
      <trkpt lat="42.14062" lon="9.0749">
        <ele>1797.2</ele>
        <time>2015-06-24T09:00:29Z</time>
      </trkpt>
      <trkpt lat="42.14064" lon="9.07489">
        <ele>1796</ele>
        <time>2015-06-24T09:00:32Z</time>
      </trkpt>
      <trkpt lat="42.1407" lon="9.07488">
        <ele>1793.8</ele>
        <time>2015-06-24T09:00:38Z</time>
      </trkpt>
      <trkpt lat="42.14071" lon="9.07487">
        <ele>1793.6</ele>
        <time>2015-06-24T09:00:39Z</time>
      </trkpt>
      <trkpt lat="42.14078" lon="9.07485">
        <ele>1792</ele>
        <time>2015-06-24T09:00:48Z</time>
      </trkpt>
      <trkpt lat="42.14084" lon="9.07481">
        <ele>1791.2</ele>
        <time>2015-06-24T09:01:00Z</time>
      </trkpt>
      <trkpt lat="42.14087" lon="9.07478">
        <ele>1790.4</ele>
        <time>2015-06-24T09:01:06Z</time>
      </trkpt>
      <trkpt lat="42.1409" lon="9.07476">
        <ele>1789.6</ele>
        <time>2015-06-24T09:01:11Z</time>
      </trkpt>
      <trkpt lat="42.14093" lon="9.07473">
        <ele>1788</ele>
        <time>2015-06-24T09:01:20Z</time>
      </trkpt>
      <trkpt lat="42.14097" lon="9.07471">
        <ele>1787.2</ele>
        <time>2015-06-24T09:01:27Z</time>
      </trkpt>
      <trkpt lat="42.14098" lon="9.07468">
        <ele>1785.6</ele>
        <time>2015-06-24T09:01:34Z</time>
      </trkpt>
      <trkpt lat="42.14101" lon="9.07468">
        <ele>1784.4</ele>
        <time>2015-06-24T09:01:42Z</time>
      </trkpt>
      <trkpt lat="42.14105" lon="9.07467">
        <ele>1783.8</ele>
        <time>2015-06-24T09:01:48Z</time>
      </trkpt>
      <trkpt lat="42.14109" lon="9.07464">
        <ele>1782.4</ele>
        <time>2015-06-24T09:01:55Z</time>
      </trkpt>
      <trkpt lat="42.14112" lon="9.07461">
        <ele>1781.6</ele>
        <time>2015-06-24T09:02:01Z</time>
      </trkpt>
      <trkpt lat="42.14115" lon="9.07459">
        <ele>1780.6</ele>
        <time>2015-06-24T09:02:07Z</time>
      </trkpt>
      <trkpt lat="42.14121" lon="9.07462">
        <ele>1778.6</ele>
        <time>2015-06-24T09:02:21Z</time>
      </trkpt>
      <trkpt lat="42.14124" lon="9.0746">
        <ele>1778.4</ele>
        <time>2015-06-24T09:02:26Z</time>
      </trkpt>
      <trkpt lat="42.14126" lon="9.07459">
        <ele>1777.4</ele>
        <time>2015-06-24T09:02:31Z</time>
      </trkpt>
      <trkpt lat="42.14125" lon="9.07455">
        <ele>1775.8</ele>
        <time>2015-06-24T09:02:39Z</time>
      </trkpt>
      <trkpt lat="42.14122" lon="9.07451">
        <ele>1774.8</ele>
        <time>2015-06-24T09:02:47Z</time>
      </trkpt>
      <trkpt lat="42.14124" lon="9.07448">
        <ele>1774</ele>
        <time>2015-06-24T09:02:53Z</time>
      </trkpt>
      <trkpt lat="42.14128" lon="9.07448">
        <ele>1773</ele>
        <time>2015-06-24T09:02:59Z</time>
      </trkpt>
      <trkpt lat="42.14128" lon="9.07447">
        <ele>1771.4</ele>
        <time>2015-06-24T09:03:09Z</time>
      </trkpt>
      <trkpt lat="42.14129" lon="9.07444">
        <ele>1770.4</ele>
        <time>2015-06-24T09:03:20Z</time>
      </trkpt>
      <trkpt lat="42.14133" lon="9.07442">
        <ele>1769.2</ele>
        <time>2015-06-24T09:03:27Z</time>
      </trkpt>
      <trkpt lat="42.14137" lon="9.07442">
        <ele>1767.6</ele>
        <time>2015-06-24T09:03:39Z</time>
      </trkpt>
      <trkpt lat="42.14147" lon="9.07445">
        <ele>1766.4</ele>
        <time>2015-06-24T09:04:01Z</time>
      </trkpt>
      <trkpt lat="42.14155" lon="9.07444">
        <ele>1766</ele>
        <time>2015-06-24T09:04:23Z</time>
      </trkpt>
      <trkpt lat="42.14157" lon="9.07444">
        <ele>1766</ele>
        <time>2015-06-24T09:04:25Z</time>
      </trkpt>
      <trkpt lat="42.14162" lon="9.07444">
        <ele>1764.4</ele>
        <time>2015-06-24T09:04:31Z</time>
      </trkpt>
      <trkpt lat="42.14167" lon="9.07445">
        <ele>1763.6</ele>
        <time>2015-06-24T09:04:38Z</time>
      </trkpt>
      <trkpt lat="42.14169" lon="9.07446">
        <ele>1763.2</ele>
        <time>2015-06-24T09:04:40Z</time>
      </trkpt>
      <trkpt lat="42.14172" lon="9.07447">
        <ele>1762.8</ele>
        <time>2015-06-24T09:04:43Z</time>
      </trkpt>
      <trkpt lat="42.14173" lon="9.07447">
        <ele>1762.6</ele>
        <time>2015-06-24T09:04:45Z</time>
      </trkpt>
      <trkpt lat="42.14177" lon="9.07448">
        <ele>1761.6</ele>
        <time>2015-06-24T09:04:55Z</time>
      </trkpt>
      <trkpt lat="42.14178" lon="9.07449">
        <ele>1761</ele>
        <time>2015-06-24T09:04:59Z</time>
      </trkpt>
      <trkpt lat="42.1418" lon="9.07449">
        <ele>1759.4</ele>
        <time>2015-06-24T09:05:05Z</time>
      </trkpt>
      <trkpt lat="42.14183" lon="9.0745">
        <ele>1758.4</ele>
        <time>2015-06-24T09:05:10Z</time>
      </trkpt>
      <trkpt lat="42.14185" lon="9.07452">
        <ele>1757.6</ele>
        <time>2015-06-24T09:05:15Z</time>
      </trkpt>
      <trkpt lat="42.14188" lon="9.07453">
        <ele>1756.6</ele>
        <time>2015-06-24T09:05:20Z</time>
      </trkpt>
      <trkpt lat="42.1419" lon="9.07454">
        <ele>1755.8</ele>
        <time>2015-06-24T09:05:23Z</time>
      </trkpt>
      <trkpt lat="42.14194" lon="9.07456">
        <ele>1754.8</ele>
        <time>2015-06-24T09:05:28Z</time>
      </trkpt>
      <trkpt lat="42.14197" lon="9.07455">
        <ele>1754.2</ele>
        <time>2015-06-24T09:05:31Z</time>
      </trkpt>
      <trkpt lat="42.14201" lon="9.07448">
        <ele>1753.2</ele>
        <time>2015-06-24T09:05:37Z</time>
      </trkpt>
      <trkpt lat="42.14203" lon="9.07443">
        <ele>1752.4</ele>
        <time>2015-06-24T09:05:44Z</time>
      </trkpt>
      <trkpt lat="42.14203" lon="9.07441">
        <ele>1752</ele>
        <time>2015-06-24T09:05:47Z</time>
      </trkpt>
      <trkpt lat="42.14204" lon="9.07438">
        <ele>1751.4</ele>
        <time>2015-06-24T09:05:50Z</time>
      </trkpt>
      <trkpt lat="42.14205" lon="9.07436">
        <ele>1749.8</ele>
        <time>2015-06-24T09:05:54Z</time>
      </trkpt>
      <trkpt lat="42.14205" lon="9.07432">
        <ele>1748.2</ele>
        <time>2015-06-24T09:05:59Z</time>
      </trkpt>
      <trkpt lat="42.14204" lon="9.07428">
        <ele>1747.8</ele>
        <time>2015-06-24T09:06:02Z</time>
      </trkpt>
      <trkpt lat="42.14204" lon="9.07427">
        <ele>1747.6</ele>
        <time>2015-06-24T09:06:03Z</time>
      </trkpt>
      <trkpt lat="42.14205" lon="9.07423">
        <ele>1745.8</ele>
        <time>2015-06-24T09:06:09Z</time>
      </trkpt>
      <trkpt lat="42.14209" lon="9.0742">
        <ele>1744.6</ele>
        <time>2015-06-24T09:06:15Z</time>
      </trkpt>
      <trkpt lat="42.14213" lon="9.07419">
        <ele>1743.8</ele>
        <time>2015-06-24T09:06:20Z</time>
      </trkpt>
      <trkpt lat="42.14216" lon="9.07418">
        <ele>1742</ele>
        <time>2015-06-24T09:06:26Z</time>
      </trkpt>
      <trkpt lat="42.14218" lon="9.07416">
        <ele>1741.2</ele>
        <time>2015-06-24T09:06:31Z</time>
      </trkpt>
      <trkpt lat="42.1422" lon="9.07416">
        <ele>1740.2</ele>
        <time>2015-06-24T09:06:36Z</time>
      </trkpt>
      <trkpt lat="42.14224" lon="9.07414">
        <ele>1738.6</ele>
        <time>2015-06-24T09:06:48Z</time>
      </trkpt>
      <trkpt lat="42.14232" lon="9.07411">
        <ele>1737.2</ele>
        <time>2015-06-24T09:06:58Z</time>
      </trkpt>
      <trkpt lat="42.14238" lon="9.07408">
        <ele>1736.4</ele>
        <time>2015-06-24T09:07:06Z</time>
      </trkpt>
      <trkpt lat="42.1424" lon="9.07405">
        <ele>1735.6</ele>
        <time>2015-06-24T09:07:11Z</time>
      </trkpt>
      <trkpt lat="42.14248" lon="9.07389">
        <ele>1733.8</ele>
        <time>2015-06-24T09:07:39Z</time>
      </trkpt>
      <trkpt lat="42.1425" lon="9.07386">
        <ele>1733.6</ele>
        <time>2015-06-24T09:07:43Z</time>
      </trkpt>
      <trkpt lat="42.1425" lon="9.07383">
        <ele>1733</ele>
        <time>2015-06-24T09:07:46Z</time>
      </trkpt>
      <trkpt lat="42.1425" lon="9.07379">
        <ele>1731.8</ele>
        <time>2015-06-24T09:07:50Z</time>
      </trkpt>
      <trkpt lat="42.14252" lon="9.07374">
        <ele>1730</ele>
        <time>2015-06-24T09:07:56Z</time>
      </trkpt>
      <trkpt lat="42.14257" lon="9.0737">
        <ele>1728.8</ele>
        <time>2015-06-24T09:08:04Z</time>
      </trkpt>
      <trkpt lat="42.14261" lon="9.07365">
        <ele>1727.6</ele>
        <time>2015-06-24T09:08:11Z</time>
      </trkpt>
      <trkpt lat="42.14262" lon="9.07365">
        <ele>1727</ele>
        <time>2015-06-24T09:08:16Z</time>
      </trkpt>
      <trkpt lat="42.14272" lon="9.0736">
        <ele>1725</ele>
        <time>2015-06-24T09:11:03Z</time>
      </trkpt>
      <trkpt lat="42.14273" lon="9.0736">
        <ele>1724.8</ele>
        <time>2015-06-24T09:11:05Z</time>
      </trkpt>
      <trkpt lat="42.14274" lon="9.07359">
        <ele>1724.6</ele>
        <time>2015-06-24T09:11:06Z</time>
      </trkpt>
      <trkpt lat="42.14277" lon="9.07358">
        <ele>1724.6</ele>
        <time>2015-06-24T09:11:09Z</time>
      </trkpt>
      <trkpt lat="42.14282" lon="9.07359">
        <ele>1723.8</ele>
        <time>2015-06-24T09:11:13Z</time>
      </trkpt>
      <trkpt lat="42.14286" lon="9.0736">
        <ele>1722.8</ele>
        <time>2015-06-24T09:11:17Z</time>
      </trkpt>
      <trkpt lat="42.1429" lon="9.07362">
        <ele>1721.8</ele>
        <time>2015-06-24T09:11:21Z</time>
      </trkpt>
      <trkpt lat="42.14294" lon="9.07364">
        <ele>1720.2</ele>
        <time>2015-06-24T09:11:27Z</time>
      </trkpt>
      <trkpt lat="42.14299" lon="9.07363">
        <ele>1719.2</ele>
        <time>2015-06-24T09:11:32Z</time>
      </trkpt>
      <trkpt lat="42.14303" lon="9.07365">
        <ele>1718.6</ele>
        <time>2015-06-24T09:11:36Z</time>
      </trkpt>
      <trkpt lat="42.14307" lon="9.07367">
        <ele>1718.2</ele>
        <time>2015-06-24T09:11:40Z</time>
      </trkpt>
      <trkpt lat="42.1431" lon="9.07368">
        <ele>1717.2</ele>
        <time>2015-06-24T09:11:44Z</time>
      </trkpt>
      <trkpt lat="42.14317" lon="9.07369">
        <ele>1715.8</ele>
        <time>2015-06-24T09:11:51Z</time>
      </trkpt>
      <trkpt lat="42.14321" lon="9.07366">
        <ele>1715.4</ele>
        <time>2015-06-24T09:11:55Z</time>
      </trkpt>
      <trkpt lat="42.14326" lon="9.07365">
        <ele>1714.4</ele>
        <time>2015-06-24T09:12:01Z</time>
      </trkpt>
      <trkpt lat="42.14332" lon="9.07363">
        <ele>1713</ele>
        <time>2015-06-24T09:12:09Z</time>
      </trkpt>
      <trkpt lat="42.1434" lon="9.07362">
        <ele>1712</ele>
        <time>2015-06-24T09:12:17Z</time>
      </trkpt>
      <trkpt lat="42.14345" lon="9.07359">
        <ele>1711.4</ele>
        <time>2015-06-24T09:12:22Z</time>
      </trkpt>
      <trkpt lat="42.1435" lon="9.07356">
        <ele>1710.4</ele>
        <time>2015-06-24T09:12:27Z</time>
      </trkpt>
      <trkpt lat="42.14385" lon="9.07343">
        <ele>1710.8</ele>
        <time>2015-06-24T09:13:02Z</time>
      </trkpt>
      <trkpt lat="42.14389" lon="9.0734">
        <ele>1711.2</ele>
        <time>2015-06-24T09:13:07Z</time>
      </trkpt>
      <trkpt lat="42.14397" lon="9.07335">
        <ele>1711.8</ele>
        <time>2015-06-24T09:13:19Z</time>
      </trkpt>
      <trkpt lat="42.14409" lon="9.07334">
        <ele>1712.4</ele>
        <time>2015-06-24T09:13:32Z</time>
      </trkpt>
      <trkpt lat="42.14414" lon="9.07334">
        <ele>1712.2</ele>
        <time>2015-06-24T09:13:37Z</time>
      </trkpt>
      <trkpt lat="42.14414" lon="9.07333">
        <ele>1712.4</ele>
        <time>2015-06-24T09:13:38Z</time>
      </trkpt>
      <trkpt lat="42.14416" lon="9.07333">
        <ele>1712.2</ele>
        <time>2015-06-24T09:13:40Z</time>
      </trkpt>
      <trkpt lat="42.14419" lon="9.07335">
        <ele>1711.4</ele>
        <time>2015-06-24T09:13:43Z</time>
      </trkpt>
      <trkpt lat="42.14421" lon="9.07336">
        <ele>1710.8</ele>
        <time>2015-06-24T09:13:45Z</time>
      </trkpt>
      <trkpt lat="42.14423" lon="9.07334">
        <ele>1710.2</ele>
        <time>2015-06-24T09:13:49Z</time>
      </trkpt>
      <trkpt lat="42.14426" lon="9.07332">
        <ele>1709.2</ele>
        <time>2015-06-24T09:13:53Z</time>
      </trkpt>
      <trkpt lat="42.1443" lon="9.07327">
        <ele>1708.4</ele>
        <time>2015-06-24T09:13:59Z</time>
      </trkpt>
      <trkpt lat="42.14432" lon="9.07326">
        <ele>1707.8</ele>
        <time>2015-06-24T09:14:03Z</time>
      </trkpt>
      <trkpt lat="42.14439" lon="9.07323">
        <ele>1706</ele>
        <time>2015-06-24T09:14:11Z</time>
      </trkpt>
      <trkpt lat="42.14441" lon="9.07321">
        <ele>1705.6</ele>
        <time>2015-06-24T09:14:14Z</time>
      </trkpt>
      <trkpt lat="42.14442" lon="9.07318">
        <ele>1705.2</ele>
        <time>2015-06-24T09:14:17Z</time>
      </trkpt>
      <trkpt lat="42.14444" lon="9.07317">
        <ele>1704</ele>
        <time>2015-06-24T09:14:20Z</time>
      </trkpt>
      <trkpt lat="42.14446" lon="9.07316">
        <ele>1703</ele>
        <time>2015-06-24T09:14:22Z</time>
      </trkpt>
      <trkpt lat="42.14447" lon="9.07316">
        <ele>1702.4</ele>
        <time>2015-06-24T09:14:24Z</time>
      </trkpt>
      <trkpt lat="42.14447" lon="9.07316">
        <ele>1702</ele>
        <time>2015-06-24T09:14:25Z</time>
      </trkpt>
      <trkpt lat="42.14451" lon="9.07314">
        <ele>1700.4</ele>
        <time>2015-06-24T09:14:32Z</time>
      </trkpt>
      <trkpt lat="42.14454" lon="9.07312">
        <ele>1699.4</ele>
        <time>2015-06-24T09:14:39Z</time>
      </trkpt>
      <trkpt lat="42.14457" lon="9.07313">
        <ele>1698.2</ele>
        <time>2015-06-24T09:14:45Z</time>
      </trkpt>
      <trkpt lat="42.1446" lon="9.07313">
        <ele>1697.4</ele>
        <time>2015-06-24T09:14:50Z</time>
      </trkpt>
      <trkpt lat="42.14464" lon="9.07314">
        <ele>1695.8</ele>
        <time>2015-06-24T09:14:58Z</time>
      </trkpt>
      <trkpt lat="42.14468" lon="9.07315">
        <ele>1695</ele>
        <time>2015-06-24T09:15:05Z</time>
      </trkpt>
      <trkpt lat="42.14475" lon="9.07315">
        <ele>1693.8</ele>
        <time>2015-06-24T09:15:20Z</time>
      </trkpt>
      <trkpt lat="42.14478" lon="9.07314">
        <ele>1692.8</ele>
        <time>2015-06-24T09:15:28Z</time>
      </trkpt>
      <trkpt lat="42.14482" lon="9.07316">
        <ele>1692</ele>
        <time>2015-06-24T09:15:34Z</time>
      </trkpt>
      <trkpt lat="42.14487" lon="9.07314">
        <ele>1690.4</ele>
        <time>2015-06-24T09:15:41Z</time>
      </trkpt>
      <trkpt lat="42.1449" lon="9.07314">
        <ele>1690</ele>
        <time>2015-06-24T09:15:45Z</time>
      </trkpt>
      <trkpt lat="42.14493" lon="9.07314">
        <ele>1689.2</ele>
        <time>2015-06-24T09:15:49Z</time>
      </trkpt>
      <trkpt lat="42.14496" lon="9.0731">
        <ele>1687</ele>
        <time>2015-06-24T09:15:56Z</time>
      </trkpt>
      <trkpt lat="42.14498" lon="9.0731">
        <ele>1686.4</ele>
        <time>2015-06-24T09:16:00Z</time>
      </trkpt>
      <trkpt lat="42.145" lon="9.07312">
        <ele>1686.2</ele>
        <time>2015-06-24T09:16:03Z</time>
      </trkpt>
      <trkpt lat="42.14507" lon="9.07312">
        <ele>1683.6</ele>
        <time>2015-06-24T09:16:17Z</time>
      </trkpt>
      <trkpt lat="42.14508" lon="9.07309">
        <ele>1682.8</ele>
        <time>2015-06-24T09:16:24Z</time>
      </trkpt>
      <trkpt lat="42.14511" lon="9.07311">
        <ele>1682</ele>
        <time>2015-06-24T09:16:30Z</time>
      </trkpt>
      <trkpt lat="42.14512" lon="9.07308">
        <ele>1681</ele>
        <time>2015-06-24T09:16:36Z</time>
      </trkpt>
      <trkpt lat="42.14515" lon="9.07309">
        <ele>1679.6</ele>
        <time>2015-06-24T09:16:43Z</time>
      </trkpt>
      <trkpt lat="42.14516" lon="9.07305">
        <ele>1679</ele>
        <time>2015-06-24T09:16:48Z</time>
      </trkpt>
      <trkpt lat="42.14519" lon="9.07302">
        <ele>1677.6</ele>
        <time>2015-06-24T09:16:54Z</time>
      </trkpt>
      <trkpt lat="42.14521" lon="9.073">
        <ele>1676.6</ele>
        <time>2015-06-24T09:16:59Z</time>
      </trkpt>
      <trkpt lat="42.14522" lon="9.07297">
        <ele>1676.2</ele>
        <time>2015-06-24T09:17:03Z</time>
      </trkpt>
      <trkpt lat="42.14525" lon="9.07297">
        <ele>1674.4</ele>
        <time>2015-06-24T09:17:09Z</time>
      </trkpt>
      <trkpt lat="42.14527" lon="9.07298">
        <ele>1673.6</ele>
        <time>2015-06-24T09:17:13Z</time>
      </trkpt>
      <trkpt lat="42.14528" lon="9.07298">
        <ele>1672</ele>
        <time>2015-06-24T09:17:19Z</time>
      </trkpt>
      <trkpt lat="42.14532" lon="9.07301">
        <ele>1671</ele>
        <time>2015-06-24T09:17:26Z</time>
      </trkpt>
      <trkpt lat="42.14536" lon="9.07304">
        <ele>1669.6</ele>
        <time>2015-06-24T09:17:36Z</time>
      </trkpt>
      <trkpt lat="42.14539" lon="9.07303">
        <ele>1668.8</ele>
        <time>2015-06-24T09:17:44Z</time>
      </trkpt>
      <trkpt lat="42.14543" lon="9.07303">
        <ele>1667.8</ele>
        <time>2015-06-24T09:17:50Z</time>
      </trkpt>
      <trkpt lat="42.14545" lon="9.07302">
        <ele>1667</ele>
        <time>2015-06-24T09:17:54Z</time>
      </trkpt>
      <trkpt lat="42.14549" lon="9.07305">
        <ele>1665.2</ele>
        <time>2015-06-24T09:18:07Z</time>
      </trkpt>
      <trkpt lat="42.14551" lon="9.07308">
        <ele>1664.4</ele>
        <time>2015-06-24T09:18:14Z</time>
      </trkpt>
      <trkpt lat="42.14552" lon="9.07309">
        <ele>1663.6</ele>
        <time>2015-06-24T09:18:19Z</time>
      </trkpt>
      <trkpt lat="42.14554" lon="9.07308">
        <ele>1662.4</ele>
        <time>2015-06-24T09:18:24Z</time>
      </trkpt>
      <trkpt lat="42.14558" lon="9.07308">
        <ele>1660.8</ele>
        <time>2015-06-24T09:18:32Z</time>
      </trkpt>
      <trkpt lat="42.1456" lon="9.07307">
        <ele>1660.2</ele>
        <time>2015-06-24T09:18:36Z</time>
      </trkpt>
      <trkpt lat="42.14562" lon="9.07307">
        <ele>1659.2</ele>
        <time>2015-06-24T09:18:41Z</time>
      </trkpt>
      <trkpt lat="42.14564" lon="9.07306">
        <ele>1658</ele>
        <time>2015-06-24T09:18:46Z</time>
      </trkpt>
      <trkpt lat="42.14567" lon="9.07303">
        <ele>1656.8</ele>
        <time>2015-06-24T09:18:52Z</time>
      </trkpt>
      <trkpt lat="42.14569" lon="9.07304">
        <ele>1655.4</ele>
        <time>2015-06-24T09:18:58Z</time>
      </trkpt>
      <trkpt lat="42.1457" lon="9.07304">
        <ele>1654.8</ele>
        <time>2015-06-24T09:19:02Z</time>
      </trkpt>
      <trkpt lat="42.14573" lon="9.07305">
        <ele>1653.4</ele>
        <time>2015-06-24T09:19:08Z</time>
      </trkpt>
      <trkpt lat="42.14575" lon="9.07305">
        <ele>1652.2</ele>
        <time>2015-06-24T09:19:15Z</time>
      </trkpt>
      <trkpt lat="42.14577" lon="9.07308">
        <ele>1651.2</ele>
        <time>2015-06-24T09:19:21Z</time>
      </trkpt>
      <trkpt lat="42.14579" lon="9.07312">
        <ele>1649.6</ele>
        <time>2015-06-24T09:19:29Z</time>
      </trkpt>
      <trkpt lat="42.14583" lon="9.07312">
        <ele>1648.6</ele>
        <time>2015-06-24T09:19:36Z</time>
      </trkpt>
      <trkpt lat="42.14586" lon="9.07308">
        <ele>1647.4</ele>
        <time>2015-06-24T09:20:12Z</time>
      </trkpt>
      <trkpt lat="42.1459" lon="9.07308">
        <ele>1647.2</ele>
        <time>2015-06-24T09:20:17Z</time>
      </trkpt>
      <trkpt lat="42.14595" lon="9.07309">
        <ele>1645</ele>
        <time>2015-06-24T09:20:29Z</time>
      </trkpt>
      <trkpt lat="42.14598" lon="9.07311">
        <ele>1644.4</ele>
        <time>2015-06-24T09:20:35Z</time>
      </trkpt>
      <trkpt lat="42.146" lon="9.07311">
        <ele>1643.2</ele>
        <time>2015-06-24T09:20:41Z</time>
      </trkpt>
      <trkpt lat="42.14601" lon="9.07305">
        <ele>1642</ele>
        <time>2015-06-24T09:20:49Z</time>
      </trkpt>
      <trkpt lat="42.14601" lon="9.07301">
        <ele>1640.6</ele>
        <time>2015-06-24T09:20:58Z</time>
      </trkpt>
      <trkpt lat="42.14603" lon="9.07299">
        <ele>1640.4</ele>
        <time>2015-06-24T09:21:02Z</time>
      </trkpt>
      <trkpt lat="42.14606" lon="9.073">
        <ele>1639.2</ele>
        <time>2015-06-24T09:21:06Z</time>
      </trkpt>
      <trkpt lat="42.14608" lon="9.07298">
        <ele>1637.2</ele>
        <time>2015-06-24T09:21:16Z</time>
      </trkpt>
      <trkpt lat="42.14609" lon="9.07295">
        <ele>1636.6</ele>
        <time>2015-06-24T09:21:21Z</time>
      </trkpt>
      <trkpt lat="42.1461" lon="9.07293">
        <ele>1634.8</ele>
        <time>2015-06-24T09:21:30Z</time>
      </trkpt>
      <trkpt lat="42.14611" lon="9.0729">
        <ele>1633.8</ele>
        <time>2015-06-24T09:21:40Z</time>
      </trkpt>
      <trkpt lat="42.14613" lon="9.07287">
        <ele>1633</ele>
        <time>2015-06-24T09:21:46Z</time>
      </trkpt>
      <trkpt lat="42.14614" lon="9.07285">
        <ele>1632</ele>
        <time>2015-06-24T09:21:52Z</time>
      </trkpt>
      <trkpt lat="42.14617" lon="9.07286">
        <ele>1631.2</ele>
        <time>2015-06-24T09:21:57Z</time>
      </trkpt>
      <trkpt lat="42.14617" lon="9.07283">
        <ele>1629.6</ele>
        <time>2015-06-24T09:22:03Z</time>
      </trkpt>
      <trkpt lat="42.14618" lon="9.07278">
        <ele>1628.6</ele>
        <time>2015-06-24T09:22:09Z</time>
      </trkpt>
      <trkpt lat="42.14622" lon="9.0728">
        <ele>1627.6</ele>
        <time>2015-06-24T09:22:15Z</time>
      </trkpt>
      <trkpt lat="42.14628" lon="9.07283">
        <ele>1625.6</ele>
        <time>2015-06-24T09:22:28Z</time>
      </trkpt>
      <trkpt lat="42.14627" lon="9.0728">
        <ele>1625.6</ele>
        <time>2015-06-24T09:22:33Z</time>
      </trkpt>
      <trkpt lat="42.14624" lon="9.07273">
        <ele>1623.8</ele>
        <time>2015-06-24T09:22:40Z</time>
      </trkpt>
      <trkpt lat="42.14621" lon="9.07271">
        <ele>1623</ele>
        <time>2015-06-24T09:22:46Z</time>
      </trkpt>
      <trkpt lat="42.14623" lon="9.07266">
        <ele>1622</ele>
        <time>2015-06-24T09:22:53Z</time>
      </trkpt>
      <trkpt lat="42.14624" lon="9.07267">
        <ele>1621.2</ele>
        <time>2015-06-24T09:22:58Z</time>
      </trkpt>
      <trkpt lat="42.14628" lon="9.07265">
        <ele>1619.6</ele>
        <time>2015-06-24T09:23:05Z</time>
      </trkpt>
      <trkpt lat="42.14632" lon="9.07267">
        <ele>1618.2</ele>
        <time>2015-06-24T09:23:13Z</time>
      </trkpt>
      <trkpt lat="42.14637" lon="9.07266">
        <ele>1617.2</ele>
        <time>2015-06-24T09:23:22Z</time>
      </trkpt>
      <trkpt lat="42.14639" lon="9.07265">
        <ele>1616.6</ele>
        <time>2015-06-24T09:23:26Z</time>
      </trkpt>
      <trkpt lat="42.14642" lon="9.07263">
        <ele>1615.2</ele>
        <time>2015-06-24T09:23:31Z</time>
      </trkpt>
      <trkpt lat="42.14642" lon="9.07262">
        <ele>1614.4</ele>
        <time>2015-06-24T09:23:34Z</time>
      </trkpt>
      <trkpt lat="42.14644" lon="9.07261">
        <ele>1613.2</ele>
        <time>2015-06-24T09:23:39Z</time>
      </trkpt>
      <trkpt lat="42.14647" lon="9.07258">
        <ele>1612</ele>
        <time>2015-06-24T09:23:44Z</time>
      </trkpt>
      <trkpt lat="42.14648" lon="9.07257">
        <ele>1611</ele>
        <time>2015-06-24T09:23:47Z</time>
      </trkpt>
      <trkpt lat="42.14651" lon="9.07257">
        <ele>1609.8</ele>
        <time>2015-06-24T09:23:51Z</time>
      </trkpt>
      <trkpt lat="42.14653" lon="9.07256">
        <ele>1609</ele>
        <time>2015-06-24T09:23:55Z</time>
      </trkpt>
      <trkpt lat="42.14655" lon="9.07254">
        <ele>1607.8</ele>
        <time>2015-06-24T09:23:59Z</time>
      </trkpt>
      <trkpt lat="42.14658" lon="9.07253">
        <ele>1606.8</ele>
        <time>2015-06-24T09:24:03Z</time>
      </trkpt>
      <trkpt lat="42.1466" lon="9.07251">
        <ele>1605.2</ele>
        <time>2015-06-24T09:24:08Z</time>
      </trkpt>
      <trkpt lat="42.14662" lon="9.07249">
        <ele>1604</ele>
        <time>2015-06-24T09:24:13Z</time>
      </trkpt>
      <trkpt lat="42.14664" lon="9.07248">
        <ele>1602.8</ele>
        <time>2015-06-24T09:24:18Z</time>
      </trkpt>
      <trkpt lat="42.14667" lon="9.07248">
        <ele>1602</ele>
        <time>2015-06-24T09:24:23Z</time>
      </trkpt>
      <trkpt lat="42.1467" lon="9.07247">
        <ele>1600.8</ele>
        <time>2015-06-24T09:24:28Z</time>
      </trkpt>
      <trkpt lat="42.14672" lon="9.07245">
        <ele>1598.8</ele>
        <time>2015-06-24T09:24:35Z</time>
      </trkpt>
      <trkpt lat="42.14676" lon="9.07244">
        <ele>1598.2</ele>
        <time>2015-06-24T09:24:40Z</time>
      </trkpt>
      <trkpt lat="42.14678" lon="9.07244">
        <ele>1597.4</ele>
        <time>2015-06-24T09:24:44Z</time>
      </trkpt>
      <trkpt lat="42.14681" lon="9.07244">
        <ele>1595.2</ele>
        <time>2015-06-24T09:24:52Z</time>
      </trkpt>
      <trkpt lat="42.14681" lon="9.07237">
        <ele>1594.2</ele>
        <time>2015-06-24T09:25:05Z</time>
      </trkpt>
      <trkpt lat="42.14681" lon="9.07234">
        <ele>1593.8</ele>
        <time>2015-06-24T09:25:10Z</time>
      </trkpt>
      <trkpt lat="42.1468" lon="9.07231">
        <ele>1592.8</ele>
        <time>2015-06-24T09:25:15Z</time>
      </trkpt>
      <trkpt lat="42.14679" lon="9.07227">
        <ele>1591.2</ele>
        <time>2015-06-24T09:25:21Z</time>
      </trkpt>
      <trkpt lat="42.14678" lon="9.07224">
        <ele>1590.6</ele>
        <time>2015-06-24T09:25:25Z</time>
      </trkpt>
      <trkpt lat="42.14677" lon="9.0722">
        <ele>1589.8</ele>
        <time>2015-06-24T09:25:29Z</time>
      </trkpt>
      <trkpt lat="42.14681" lon="9.07218">
        <ele>1588.2</ele>
        <time>2015-06-24T09:25:34Z</time>
      </trkpt>
      <trkpt lat="42.14683" lon="9.07216">
        <ele>1588</ele>
        <time>2015-06-24T09:25:37Z</time>
      </trkpt>
      <trkpt lat="42.14685" lon="9.07215">
        <ele>1586.8</ele>
        <time>2015-06-24T09:25:40Z</time>
      </trkpt>
      <trkpt lat="42.14688" lon="9.07214">
        <ele>1584.4</ele>
        <time>2015-06-24T09:25:46Z</time>
      </trkpt>
      <trkpt lat="42.14689" lon="9.07212">
        <ele>1583.6</ele>
        <time>2015-06-24T09:25:52Z</time>
      </trkpt>
      <trkpt lat="42.14692" lon="9.0721">
        <ele>1582.2</ele>
        <time>2015-06-24T09:26:04Z</time>
      </trkpt>
      <trkpt lat="42.14695" lon="9.07208">
        <ele>1580.8</ele>
        <time>2015-06-24T09:26:12Z</time>
      </trkpt>
      <trkpt lat="42.14698" lon="9.07206">
        <ele>1580.2</ele>
        <time>2015-06-24T09:26:18Z</time>
      </trkpt>
      <trkpt lat="42.14701" lon="9.07205">
        <ele>1579.4</ele>
        <time>2015-06-24T09:26:22Z</time>
      </trkpt>
      <trkpt lat="42.14704" lon="9.07204">
        <ele>1578</ele>
        <time>2015-06-24T09:26:28Z</time>
      </trkpt>
      <trkpt lat="42.14706" lon="9.07204">
        <ele>1577</ele>
        <time>2015-06-24T09:26:33Z</time>
      </trkpt>
      <trkpt lat="42.14708" lon="9.072">
        <ele>1576</ele>
        <time>2015-06-24T09:26:38Z</time>
      </trkpt>
      <trkpt lat="42.1471" lon="9.07199">
        <ele>1575</ele>
        <time>2015-06-24T09:26:43Z</time>
      </trkpt>
      <trkpt lat="42.14713" lon="9.07198">
        <ele>1574</ele>
        <time>2015-06-24T09:26:48Z</time>
      </trkpt>
      <trkpt lat="42.14715" lon="9.07197">
        <ele>1573</ele>
        <time>2015-06-24T09:26:52Z</time>
      </trkpt>
      <trkpt lat="42.14717" lon="9.07191">
        <ele>1571</ele>
        <time>2015-06-24T09:27:20Z</time>
      </trkpt>
      <trkpt lat="42.14718" lon="9.0719">
        <ele>1571</ele>
        <time>2015-06-24T09:27:23Z</time>
      </trkpt>
      <trkpt lat="42.1472" lon="9.07186">
        <ele>1569.4</ele>
        <time>2015-06-24T09:27:28Z</time>
      </trkpt>
      <trkpt lat="42.14722" lon="9.07184">
        <ele>1567.6</ele>
        <time>2015-06-24T09:27:34Z</time>
      </trkpt>
      <trkpt lat="42.14724" lon="9.07181">
        <ele>1566.4</ele>
        <time>2015-06-24T09:27:39Z</time>
      </trkpt>
      <trkpt lat="42.14726" lon="9.07181">
        <ele>1565.6</ele>
        <time>2015-06-24T09:27:42Z</time>
      </trkpt>
      <trkpt lat="42.14729" lon="9.07181">
        <ele>1564.8</ele>
        <time>2015-06-24T09:27:46Z</time>
      </trkpt>
      <trkpt lat="42.14729" lon="9.07178">
        <ele>1562.2</ele>
        <time>2015-06-24T09:27:59Z</time>
      </trkpt>
      <trkpt lat="42.14729" lon="9.07174">
        <ele>1562</ele>
        <time>2015-06-24T09:28:04Z</time>
      </trkpt>
      <trkpt lat="42.14729" lon="9.07174">
        <ele>1562</ele>
        <time>2015-06-24T09:28:05Z</time>
      </trkpt>
      <trkpt lat="42.14731" lon="9.07173">
        <ele>1561.4</ele>
        <time>2015-06-24T09:28:08Z</time>
      </trkpt>
      <trkpt lat="42.14735" lon="9.07172">
        <ele>1559.8</ele>
        <time>2015-06-24T09:28:13Z</time>
      </trkpt>
      <trkpt lat="42.14738" lon="9.07172">
        <ele>1558.4</ele>
        <time>2015-06-24T09:28:19Z</time>
      </trkpt>
      <trkpt lat="42.1474" lon="9.0717">
        <ele>1557</ele>
        <time>2015-06-24T09:28:27Z</time>
      </trkpt>
      <trkpt lat="42.14742" lon="9.0717">
        <ele>1556.4</ele>
        <time>2015-06-24T09:28:31Z</time>
      </trkpt>
      <trkpt lat="42.14745" lon="9.0717">
        <ele>1555.4</ele>
        <time>2015-06-24T09:28:36Z</time>
      </trkpt>
      <trkpt lat="42.14743" lon="9.07166">
        <ele>1553.6</ele>
        <time>2015-06-24T09:28:47Z</time>
      </trkpt>
      <trkpt lat="42.14743" lon="9.07165">
        <ele>1553</ele>
        <time>2015-06-24T09:28:51Z</time>
      </trkpt>
      <trkpt lat="42.14743" lon="9.07162">
        <ele>1551.6</ele>
        <time>2015-06-24T09:28:58Z</time>
      </trkpt>
      <trkpt lat="42.14744" lon="9.07159">
        <ele>1550.8</ele>
        <time>2015-06-24T09:29:03Z</time>
      </trkpt>
      <trkpt lat="42.14747" lon="9.07158">
        <ele>1550</ele>
        <time>2015-06-24T09:29:07Z</time>
      </trkpt>
      <trkpt lat="42.1475" lon="9.07163">
        <ele>1547.8</ele>
        <time>2015-06-24T09:29:18Z</time>
      </trkpt>
      <trkpt lat="42.14751" lon="9.0716">
        <ele>1547.2</ele>
        <time>2015-06-24T09:29:26Z</time>
      </trkpt>
      <trkpt lat="42.14751" lon="9.07158">
        <ele>1546.4</ele>
        <time>2015-06-24T09:29:31Z</time>
      </trkpt>
      <trkpt lat="42.14749" lon="9.07154">
        <ele>1544.8</ele>
        <time>2015-06-24T09:29:38Z</time>
      </trkpt>
      <trkpt lat="42.14751" lon="9.07152">
        <ele>1543.6</ele>
        <time>2015-06-24T09:29:47Z</time>
      </trkpt>
      <trkpt lat="42.14752" lon="9.07152">
        <ele>1543.4</ele>
        <time>2015-06-24T09:29:49Z</time>
      </trkpt>
      <trkpt lat="42.14754" lon="9.0715">
        <ele>1543</ele>
        <time>2015-06-24T09:29:53Z</time>
      </trkpt>
      <trkpt lat="42.14754" lon="9.07147">
        <ele>1542</ele>
        <time>2015-06-24T09:29:58Z</time>
      </trkpt>
      <trkpt lat="42.14752" lon="9.07144">
        <ele>1540.8</ele>
        <time>2015-06-24T09:30:04Z</time>
      </trkpt>
      <trkpt lat="42.14753" lon="9.07142">
        <ele>1539.6</ele>
        <time>2015-06-24T09:30:11Z</time>
      </trkpt>
      <trkpt lat="42.14752" lon="9.0714">
        <ele>1538.4</ele>
        <time>2015-06-24T09:30:17Z</time>
      </trkpt>
      <trkpt lat="42.14756" lon="9.07139">
        <ele>1537.4</ele>
        <time>2015-06-24T09:30:25Z</time>
      </trkpt>
      <trkpt lat="42.14759" lon="9.07139">
        <ele>1536.4</ele>
        <time>2015-06-24T09:30:31Z</time>
      </trkpt>
      <trkpt lat="42.14762" lon="9.07135">
        <ele>1535.2</ele>
        <time>2015-06-24T09:31:01Z</time>
      </trkpt>
      <trkpt lat="42.14769" lon="9.07133">
        <ele>1533.6</ele>
        <time>2015-06-24T09:31:11Z</time>
      </trkpt>
      <trkpt lat="42.14772" lon="9.07134">
        <ele>1533.2</ele>
        <time>2015-06-24T09:31:16Z</time>
      </trkpt>
      <trkpt lat="42.14776" lon="9.07133">
        <ele>1531.6</ele>
        <time>2015-06-24T09:31:24Z</time>
      </trkpt>
      <trkpt lat="42.1478" lon="9.07133">
        <ele>1531</ele>
        <time>2015-06-24T09:31:29Z</time>
      </trkpt>
      <trkpt lat="42.14783" lon="9.07131">
        <ele>1529.6</ele>
        <time>2015-06-24T09:31:34Z</time>
      </trkpt>
      <trkpt lat="42.14787" lon="9.07131">
        <ele>1528.6</ele>
        <time>2015-06-24T09:31:39Z</time>
      </trkpt>
      <trkpt lat="42.14792" lon="9.07131">
        <ele>1527</ele>
        <time>2015-06-24T09:31:46Z</time>
      </trkpt>
      <trkpt lat="42.14796" lon="9.07132">
        <ele>1526.2</ele>
        <time>2015-06-24T09:31:52Z</time>
      </trkpt>
      <trkpt lat="42.14806" lon="9.07129">
        <ele>1524.6</ele>
        <time>2015-06-24T09:32:02Z</time>
      </trkpt>
      <trkpt lat="42.14807" lon="9.07128">
        <ele>1524.4</ele>
        <time>2015-06-24T09:32:03Z</time>
      </trkpt>
      <trkpt lat="42.14812" lon="9.07125">
        <ele>1523.6</ele>
        <time>2015-06-24T09:32:09Z</time>
      </trkpt>
      <trkpt lat="42.14814" lon="9.07123">
        <ele>1523.6</ele>
        <time>2015-06-24T09:32:11Z</time>
      </trkpt>
      <trkpt lat="42.14815" lon="9.07123">
        <ele>1523.4</ele>
        <time>2015-06-24T09:32:12Z</time>
      </trkpt>
      <trkpt lat="42.1482" lon="9.07121">
        <ele>1522.4</ele>
        <time>2015-06-24T09:32:21Z</time>
      </trkpt>
      <trkpt lat="42.14822" lon="9.07119">
        <ele>1521.8</ele>
        <time>2015-06-24T09:32:28Z</time>
      </trkpt>
      <trkpt lat="42.14822" lon="9.07115">
        <ele>1520.8</ele>
        <time>2015-06-24T09:32:34Z</time>
      </trkpt>
      <trkpt lat="42.14825" lon="9.07114">
        <ele>1519.4</ele>
        <time>2015-06-24T09:32:42Z</time>
      </trkpt>
      <trkpt lat="42.14827" lon="9.07113">
        <ele>1518.6</ele>
        <time>2015-06-24T09:32:48Z</time>
      </trkpt>
      <trkpt lat="42.14829" lon="9.0711">
        <ele>1517.4</ele>
        <time>2015-06-24T09:32:55Z</time>
      </trkpt>
      <trkpt lat="42.14832" lon="9.07111">
        <ele>1516.8</ele>
        <time>2015-06-24T09:33:00Z</time>
      </trkpt>
      <trkpt lat="42.14836" lon="9.07115">
        <ele>1515.2</ele>
        <time>2015-06-24T09:33:08Z</time>
      </trkpt>
      <trkpt lat="42.14841" lon="9.07114">
        <ele>1514</ele>
        <time>2015-06-24T09:33:18Z</time>
      </trkpt>
      <trkpt lat="42.14841" lon="9.07112">
        <ele>1513.4</ele>
        <time>2015-06-24T09:33:24Z</time>
      </trkpt>
      <trkpt lat="42.14842" lon="9.07112">
        <ele>1512.2</ele>
        <time>2015-06-24T09:33:31Z</time>
      </trkpt>
      <trkpt lat="42.14841" lon="9.0711">
        <ele>1511.2</ele>
        <time>2015-06-24T09:33:37Z</time>
      </trkpt>
      <trkpt lat="42.14843" lon="9.07107">
        <ele>1510</ele>
        <time>2015-06-24T09:33:45Z</time>
      </trkpt>
      <trkpt lat="42.14847" lon="9.07108">
        <ele>1508.8</ele>
        <time>2015-06-24T09:33:53Z</time>
      </trkpt>
      <trkpt lat="42.14855" lon="9.07109">
        <ele>1507.4</ele>
        <time>2015-06-24T09:34:13Z</time>
      </trkpt>
      <trkpt lat="42.14857" lon="9.07108">
        <ele>1506.8</ele>
        <time>2015-06-24T09:34:26Z</time>
      </trkpt>
      <trkpt lat="42.14859" lon="9.07107">
        <ele>1506.8</ele>
        <time>2015-06-24T09:34:30Z</time>
      </trkpt>
      <trkpt lat="42.1486" lon="9.07105">
        <ele>1504.8</ele>
        <time>2015-06-24T09:34:58Z</time>
      </trkpt>
      <trkpt lat="42.14864" lon="9.07103">
        <ele>1504.4</ele>
        <time>2015-06-24T09:35:05Z</time>
      </trkpt>
      <trkpt lat="42.14866" lon="9.07101">
        <ele>1503.2</ele>
        <time>2015-06-24T09:35:14Z</time>
      </trkpt>
      <trkpt lat="42.14864" lon="9.07097">
        <ele>1501.8</ele>
        <time>2015-06-24T09:35:26Z</time>
      </trkpt>
      <trkpt lat="42.14864" lon="9.07095">
        <ele>1501.6</ele>
        <time>2015-06-24T09:35:31Z</time>
      </trkpt>
      <trkpt lat="42.14866" lon="9.07094">
        <ele>1499.8</ele>
        <time>2015-06-24T09:35:40Z</time>
      </trkpt>
      <trkpt lat="42.14867" lon="9.07091">
        <ele>1498.8</ele>
        <time>2015-06-24T09:35:47Z</time>
      </trkpt>
      <trkpt lat="42.14869" lon="9.07091">
        <ele>1498</ele>
        <time>2015-06-24T09:35:56Z</time>
      </trkpt>
      <trkpt lat="42.14873" lon="9.07091">
        <ele>1496</ele>
        <time>2015-06-24T09:36:10Z</time>
      </trkpt>
      <trkpt lat="42.14876" lon="9.07091">
        <ele>1495.6</ele>
        <time>2015-06-24T09:36:18Z</time>
      </trkpt>
      <trkpt lat="42.14881" lon="9.0709">
        <ele>1494.4</ele>
        <time>2015-06-24T09:36:29Z</time>
      </trkpt>
      <trkpt lat="42.14884" lon="9.0709">
        <ele>1493</ele>
        <time>2015-06-24T09:36:38Z</time>
      </trkpt>
      <trkpt lat="42.14885" lon="9.07088">
        <ele>1492.4</ele>
        <time>2015-06-24T09:36:44Z</time>
      </trkpt>
      <trkpt lat="42.14888" lon="9.07087">
        <ele>1491.8</ele>
        <time>2015-06-24T09:36:48Z</time>
      </trkpt>
      <trkpt lat="42.14891" lon="9.07087">
        <ele>1490.6</ele>
        <time>2015-06-24T09:36:53Z</time>
      </trkpt>
      <trkpt lat="42.14896" lon="9.07086">
        <ele>1489</ele>
        <time>2015-06-24T09:37:01Z</time>
      </trkpt>
      <trkpt lat="42.14898" lon="9.07083">
        <ele>1487.8</ele>
        <time>2015-06-24T09:37:11Z</time>
      </trkpt>
      <trkpt lat="42.14898" lon="9.07077">
        <ele>1487</ele>
        <time>2015-06-24T09:37:19Z</time>
      </trkpt>
      <trkpt lat="42.14902" lon="9.07076">
        <ele>1486</ele>
        <time>2015-06-24T09:37:25Z</time>
      </trkpt>
      <trkpt lat="42.14904" lon="9.07073">
        <ele>1484.8</ele>
        <time>2015-06-24T09:37:33Z</time>
      </trkpt>
      <trkpt lat="42.14906" lon="9.07071">
        <ele>1483.8</ele>
        <time>2015-06-24T09:37:39Z</time>
      </trkpt>
      <trkpt lat="42.14909" lon="9.07069">
        <ele>1482</ele>
        <time>2015-06-24T09:37:47Z</time>
      </trkpt>
      <trkpt lat="42.14914" lon="9.07067">
        <ele>1481.6</ele>
        <time>2015-06-24T09:37:52Z</time>
      </trkpt>
      <trkpt lat="42.14918" lon="9.07066">
        <ele>1480.6</ele>
        <time>2015-06-24T09:37:57Z</time>
      </trkpt>
      <trkpt lat="42.14923" lon="9.07067">
        <ele>1479.2</ele>
        <time>2015-06-24T09:38:03Z</time>
      </trkpt>
      <trkpt lat="42.14925" lon="9.07067">
        <ele>1479</ele>
        <time>2015-06-24T09:38:05Z</time>
      </trkpt>
      <trkpt lat="42.14929" lon="9.07069">
        <ele>1478.6</ele>
        <time>2015-06-24T09:38:14Z</time>
      </trkpt>
      <trkpt lat="42.14934" lon="9.07066">
        <ele>1478</ele>
        <time>2015-06-24T09:38:28Z</time>
      </trkpt>
      <trkpt lat="42.14945" lon="9.07062">
        <ele>1476.8</ele>
        <time>2015-06-24T09:38:47Z</time>
      </trkpt>
      <trkpt lat="42.14952" lon="9.0706">
        <ele>1475.4</ele>
        <time>2015-06-24T09:38:56Z</time>
      </trkpt>
      <trkpt lat="42.14953" lon="9.0706">
        <ele>1475.4</ele>
        <time>2015-06-24T09:38:57Z</time>
      </trkpt>
      <trkpt lat="42.14955" lon="9.07058">
        <ele>1475.2</ele>
        <time>2015-06-24T09:39:01Z</time>
      </trkpt>
      <trkpt lat="42.14957" lon="9.07056">
        <ele>1475</ele>
        <time>2015-06-24T09:39:04Z</time>
      </trkpt>
      <trkpt lat="42.1496" lon="9.07054">
        <ele>1474.6</ele>
        <time>2015-06-24T09:39:07Z</time>
      </trkpt>
      <trkpt lat="42.14967" lon="9.07052">
        <ele>1474</ele>
        <time>2015-06-24T09:39:16Z</time>
      </trkpt>
      <trkpt lat="42.14972" lon="9.0705">
        <ele>1473.2</ele>
        <time>2015-06-24T09:39:23Z</time>
      </trkpt>
      <trkpt lat="42.14975" lon="9.07048">
        <ele>1472.2</ele>
        <time>2015-06-24T09:39:29Z</time>
      </trkpt>
      <trkpt lat="42.14977" lon="9.07046">
        <ele>1471</ele>
        <time>2015-06-24T09:39:34Z</time>
      </trkpt>
      <trkpt lat="42.1498" lon="9.07042">
        <ele>1469.8</ele>
        <time>2015-06-24T09:39:40Z</time>
      </trkpt>
      <trkpt lat="42.14981" lon="9.07039">
        <ele>1469.2</ele>
        <time>2015-06-24T09:39:44Z</time>
      </trkpt>
      <trkpt lat="42.14985" lon="9.07037">
        <ele>1468.2</ele>
        <time>2015-06-24T09:39:49Z</time>
      </trkpt>
      <trkpt lat="42.14988" lon="9.07034">
        <ele>1466.6</ele>
        <time>2015-06-24T09:39:55Z</time>
      </trkpt>
      <trkpt lat="42.14993" lon="9.07031">
        <ele>1465.2</ele>
        <time>2015-06-24T09:40:04Z</time>
      </trkpt>
      <trkpt lat="42.14995" lon="9.07031">
        <ele>1464.4</ele>
        <time>2015-06-24T09:40:10Z</time>
      </trkpt>
      <trkpt lat="42.14996" lon="9.07029">
        <ele>1463.4</ele>
        <time>2015-06-24T09:40:15Z</time>
      </trkpt>
      <trkpt lat="42.14999" lon="9.07027">
        <ele>1462.2</ele>
        <time>2015-06-24T09:40:23Z</time>
      </trkpt>
      <trkpt lat="42.15" lon="9.07026">
        <ele>1461</ele>
        <time>2015-06-24T09:40:33Z</time>
      </trkpt>
      <trkpt lat="42.15006" lon="9.07026">
        <ele>1459.6</ele>
        <time>2015-06-24T09:40:43Z</time>
      </trkpt>
      <trkpt lat="42.15008" lon="9.07027">
        <ele>1459.2</ele>
        <time>2015-06-24T09:40:47Z</time>
      </trkpt>
      <trkpt lat="42.1501" lon="9.07031">
        <ele>1458.2</ele>
        <time>2015-06-24T09:40:51Z</time>
      </trkpt>
      <trkpt lat="42.1501" lon="9.07036">
        <ele>1457</ele>
        <time>2015-06-24T09:40:56Z</time>
      </trkpt>
      <trkpt lat="42.15017" lon="9.07043">
        <ele>1455.2</ele>
        <time>2015-06-24T09:41:10Z</time>
      </trkpt>
      <trkpt lat="42.15018" lon="9.07047">
        <ele>1454.8</ele>
        <time>2015-06-24T09:41:14Z</time>
      </trkpt>
      <trkpt lat="42.15022" lon="9.07055">
        <ele>1452.4</ele>
        <time>2015-06-24T09:41:29Z</time>
      </trkpt>
      <trkpt lat="42.15026" lon="9.07054">
        <ele>1451.8</ele>
        <time>2015-06-24T09:41:39Z</time>
      </trkpt>
      <trkpt lat="42.15029" lon="9.07056">
        <ele>1450.6</ele>
        <time>2015-06-24T09:41:48Z</time>
      </trkpt>
      <trkpt lat="42.15033" lon="9.07057">
        <ele>1449.4</ele>
        <time>2015-06-24T09:42:01Z</time>
      </trkpt>
      <trkpt lat="42.15035" lon="9.07056">
        <ele>1448.4</ele>
        <time>2015-06-24T09:42:08Z</time>
      </trkpt>
      <trkpt lat="42.15037" lon="9.07055">
        <ele>1447.6</ele>
        <time>2015-06-24T09:42:16Z</time>
      </trkpt>
      <trkpt lat="42.15039" lon="9.07052">
        <ele>1446.6</ele>
        <time>2015-06-24T09:42:23Z</time>
      </trkpt>
      <trkpt lat="42.15042" lon="9.07054">
        <ele>1446</ele>
        <time>2015-06-24T09:42:27Z</time>
      </trkpt>
      <trkpt lat="42.15045" lon="9.07053">
        <ele>1444.4</ele>
        <time>2015-06-24T09:42:33Z</time>
      </trkpt>
      <trkpt lat="42.15047" lon="9.07055">
        <ele>1443.2</ele>
        <time>2015-06-24T09:42:39Z</time>
      </trkpt>
      <trkpt lat="42.1505" lon="9.07057">
        <ele>1442</ele>
        <time>2015-06-24T09:42:45Z</time>
      </trkpt>
      <trkpt lat="42.15054" lon="9.07058">
        <ele>1441</ele>
        <time>2015-06-24T09:42:51Z</time>
      </trkpt>
      <trkpt lat="42.15057" lon="9.07057">
        <ele>1439.8</ele>
        <time>2015-06-24T09:42:57Z</time>
      </trkpt>
      <trkpt lat="42.15058" lon="9.07046">
        <ele>1438</ele>
        <time>2015-06-24T09:43:09Z</time>
      </trkpt>
      <trkpt lat="42.15059" lon="9.07046">
        <ele>1438.2</ele>
        <time>2015-06-24T09:43:10Z</time>
      </trkpt>
      <trkpt lat="42.15061" lon="9.07047">
        <ele>1438</ele>
        <time>2015-06-24T09:43:13Z</time>
      </trkpt>
      <trkpt lat="42.15064" lon="9.07047">
        <ele>1436.8</ele>
        <time>2015-06-24T09:43:18Z</time>
      </trkpt>
      <trkpt lat="42.15068" lon="9.0705">
        <ele>1435.2</ele>
        <time>2015-06-24T09:43:25Z</time>
      </trkpt>
      <trkpt lat="42.15071" lon="9.0705">
        <ele>1434.4</ele>
        <time>2015-06-24T09:43:33Z</time>
      </trkpt>
      <trkpt lat="42.15073" lon="9.07049">
        <ele>1433.8</ele>
        <time>2015-06-24T09:43:37Z</time>
      </trkpt>
      <trkpt lat="42.15075" lon="9.07048">
        <ele>1432.8</ele>
        <time>2015-06-24T09:43:41Z</time>
      </trkpt>
      <trkpt lat="42.15078" lon="9.07047">
        <ele>1431.4</ele>
        <time>2015-06-24T09:43:46Z</time>
      </trkpt>
      <trkpt lat="42.1508" lon="9.07045">
        <ele>1430</ele>
        <time>2015-06-24T09:43:52Z</time>
      </trkpt>
      <trkpt lat="42.15085" lon="9.07046">
        <ele>1429</ele>
        <time>2015-06-24T09:43:59Z</time>
      </trkpt>
      <trkpt lat="42.1509" lon="9.07052">
        <ele>1427.4</ele>
        <time>2015-06-24T09:44:08Z</time>
      </trkpt>
      <trkpt lat="42.15091" lon="9.07057">
        <ele>1426.8</ele>
        <time>2015-06-24T09:44:13Z</time>
      </trkpt>
      <trkpt lat="42.15096" lon="9.07056">
        <ele>1425.6</ele>
        <time>2015-06-24T09:44:21Z</time>
      </trkpt>
      <trkpt lat="42.15097" lon="9.07058">
        <ele>1425</ele>
        <time>2015-06-24T09:44:24Z</time>
      </trkpt>
      <trkpt lat="42.15101" lon="9.0706">
        <ele>1423.4</ele>
        <time>2015-06-24T09:44:32Z</time>
      </trkpt>
      <trkpt lat="42.15105" lon="9.07061">
        <ele>1422.2</ele>
        <time>2015-06-24T09:44:40Z</time>
      </trkpt>
      <trkpt lat="42.15106" lon="9.07062">
        <ele>1421.6</ele>
        <time>2015-06-24T09:44:45Z</time>
      </trkpt>
      <trkpt lat="42.15109" lon="9.07062">
        <ele>1420.2</ele>
        <time>2015-06-24T09:44:52Z</time>
      </trkpt>
      <trkpt lat="42.15112" lon="9.07062">
        <ele>1419.4</ele>
        <time>2015-06-24T09:44:58Z</time>
      </trkpt>
      <trkpt lat="42.15115" lon="9.07064">
        <ele>1418.2</ele>
        <time>2015-06-24T09:45:05Z</time>
      </trkpt>
      <trkpt lat="42.15117" lon="9.07066">
        <ele>1417.6</ele>
        <time>2015-06-24T09:45:10Z</time>
      </trkpt>
      <trkpt lat="42.15121" lon="9.07062">
        <ele>1416.2</ele>
        <time>2015-06-24T09:45:17Z</time>
      </trkpt>
      <trkpt lat="42.15124" lon="9.07062">
        <ele>1415.2</ele>
        <time>2015-06-24T09:45:23Z</time>
      </trkpt>
      <trkpt lat="42.15128" lon="9.07063">
        <ele>1414.2</ele>
        <time>2015-06-24T09:45:30Z</time>
      </trkpt>
      <trkpt lat="42.15131" lon="9.07064">
        <ele>1413</ele>
        <time>2015-06-24T09:45:38Z</time>
      </trkpt>
      <trkpt lat="42.15132" lon="9.07064">
        <ele>1412</ele>
        <time>2015-06-24T09:45:44Z</time>
      </trkpt>
      <trkpt lat="42.15136" lon="9.07067">
        <ele>1411</ele>
        <time>2015-06-24T09:45:59Z</time>
      </trkpt>
      <trkpt lat="42.15139" lon="9.07065">
        <ele>1410</ele>
        <time>2015-06-24T09:46:05Z</time>
      </trkpt>
      <trkpt lat="42.15143" lon="9.07065">
        <ele>1409</ele>
        <time>2015-06-24T09:46:12Z</time>
      </trkpt>
      <trkpt lat="42.15147" lon="9.07062">
        <ele>1407.8</ele>
        <time>2015-06-24T09:46:19Z</time>
      </trkpt>
      <trkpt lat="42.1515" lon="9.0706">
        <ele>1406</ele>
        <time>2015-06-24T09:46:33Z</time>
      </trkpt>
      <trkpt lat="42.15152" lon="9.07059">
        <ele>1405.2</ele>
        <time>2015-06-24T09:46:42Z</time>
      </trkpt>
      <trkpt lat="42.15154" lon="9.07056">
        <ele>1404.4</ele>
        <time>2015-06-24T09:46:51Z</time>
      </trkpt>
      <trkpt lat="42.15156" lon="9.07059">
        <ele>1403.6</ele>
        <time>2015-06-24T09:46:57Z</time>
      </trkpt>
      <trkpt lat="42.15158" lon="9.07064">
        <ele>1402.4</ele>
        <time>2015-06-24T09:47:04Z</time>
      </trkpt>
      <trkpt lat="42.15163" lon="9.0707">
        <ele>1400.8</ele>
        <time>2015-06-24T09:47:13Z</time>
      </trkpt>
      <trkpt lat="42.15162" lon="9.07074">
        <ele>1399.8</ele>
        <time>2015-06-24T09:47:26Z</time>
      </trkpt>
      <trkpt lat="42.15162" lon="9.07074">
        <ele>1399.6</ele>
        <time>2015-06-24T09:47:27Z</time>
      </trkpt>
      <trkpt lat="42.15165" lon="9.07078">
        <ele>1399</ele>
        <time>2015-06-24T09:47:34Z</time>
      </trkpt>
      <trkpt lat="42.15166" lon="9.07082">
        <ele>1397.8</ele>
        <time>2015-06-24T09:47:41Z</time>
      </trkpt>
      <trkpt lat="42.1517" lon="9.07084">
        <ele>1397</ele>
        <time>2015-06-24T09:47:48Z</time>
      </trkpt>
      <trkpt lat="42.15173" lon="9.07085">
        <ele>1396.4</ele>
        <time>2015-06-24T09:47:52Z</time>
      </trkpt>
      <trkpt lat="42.15175" lon="9.07085">
        <ele>1394.8</ele>
        <time>2015-06-24T09:47:58Z</time>
      </trkpt>
      <trkpt lat="42.15178" lon="9.07089">
        <ele>1393.8</ele>
        <time>2015-06-24T09:48:04Z</time>
      </trkpt>
      <trkpt lat="42.15183" lon="9.0709">
        <ele>1392.6</ele>
        <time>2015-06-24T09:48:11Z</time>
      </trkpt>
      <trkpt lat="42.15185" lon="9.07091">
        <ele>1391.8</ele>
        <time>2015-06-24T09:48:16Z</time>
      </trkpt>
      <trkpt lat="42.1519" lon="9.07093">
        <ele>1389.8</ele>
        <time>2015-06-24T09:48:36Z</time>
      </trkpt>
      <trkpt lat="42.15196" lon="9.07094">
        <ele>1389.2</ele>
        <time>2015-06-24T09:48:43Z</time>
      </trkpt>
      <trkpt lat="42.15198" lon="9.07095">
        <ele>1388.8</ele>
        <time>2015-06-24T09:48:46Z</time>
      </trkpt>
      <trkpt lat="42.152" lon="9.07098">
        <ele>1388</ele>
        <time>2015-06-24T09:48:49Z</time>
      </trkpt>
      <trkpt lat="42.152" lon="9.07099">
        <ele>1387.4</ele>
        <time>2015-06-24T09:48:51Z</time>
      </trkpt>
      <trkpt lat="42.15203" lon="9.07102">
        <ele>1385.2</ele>
        <time>2015-06-24T09:48:56Z</time>
      </trkpt>
      <trkpt lat="42.15205" lon="9.07103">
        <ele>1384.2</ele>
        <time>2015-06-24T09:48:59Z</time>
      </trkpt>
      <trkpt lat="42.15208" lon="9.07104">
        <ele>1382.8</ele>
        <time>2015-06-24T09:49:04Z</time>
      </trkpt>
      <trkpt lat="42.15211" lon="9.07108">
        <ele>1381.4</ele>
        <time>2015-06-24T09:49:10Z</time>
      </trkpt>
      <trkpt lat="42.15214" lon="9.07109">
        <ele>1380.4</ele>
        <time>2015-06-24T09:49:14Z</time>
      </trkpt>
      <trkpt lat="42.15218" lon="9.07111">
        <ele>1379.2</ele>
        <time>2015-06-24T09:49:19Z</time>
      </trkpt>
      <trkpt lat="42.15221" lon="9.07112">
        <ele>1378</ele>
        <time>2015-06-24T09:49:24Z</time>
      </trkpt>
      <trkpt lat="42.15225" lon="9.07115">
        <ele>1376.4</ele>
        <time>2015-06-24T09:49:31Z</time>
      </trkpt>
      <trkpt lat="42.15228" lon="9.07116">
        <ele>1375.8</ele>
        <time>2015-06-24T09:49:35Z</time>
      </trkpt>
      <trkpt lat="42.15231" lon="9.07119">
        <ele>1374.8</ele>
        <time>2015-06-24T09:49:40Z</time>
      </trkpt>
      <trkpt lat="42.15235" lon="9.07121">
        <ele>1373.6</ele>
        <time>2015-06-24T09:49:45Z</time>
      </trkpt>
      <trkpt lat="42.15238" lon="9.07122">
        <ele>1372.4</ele>
        <time>2015-06-24T09:49:50Z</time>
      </trkpt>
      <trkpt lat="42.1524" lon="9.07126">
        <ele>1371.6</ele>
        <time>2015-06-24T09:49:54Z</time>
      </trkpt>
      <trkpt lat="42.15243" lon="9.07128">
        <ele>1370.4</ele>
        <time>2015-06-24T09:49:59Z</time>
      </trkpt>
      <trkpt lat="42.15246" lon="9.0713">
        <ele>1369.2</ele>
        <time>2015-06-24T09:50:03Z</time>
      </trkpt>
      <trkpt lat="42.15249" lon="9.07131">
        <ele>1368.2</ele>
        <time>2015-06-24T09:50:08Z</time>
      </trkpt>
      <trkpt lat="42.15253" lon="9.07133">
        <ele>1366.8</ele>
        <time>2015-06-24T09:50:14Z</time>
      </trkpt>
      <trkpt lat="42.15255" lon="9.07138">
        <ele>1366</ele>
        <time>2015-06-24T09:50:19Z</time>
      </trkpt>
      <trkpt lat="42.15257" lon="9.07143">
        <ele>1364.6</ele>
        <time>2015-06-24T09:50:25Z</time>
      </trkpt>
      <trkpt lat="42.15262" lon="9.07142">
        <ele>1363.4</ele>
        <time>2015-06-24T09:50:31Z</time>
      </trkpt>
      <trkpt lat="42.15267" lon="9.07145">
        <ele>1362.2</ele>
        <time>2015-06-24T09:50:38Z</time>
      </trkpt>
      <trkpt lat="42.15283" lon="9.07147">
        <ele>1360.4</ele>
        <time>2015-06-24T09:50:55Z</time>
      </trkpt>
      <trkpt lat="42.15294" lon="9.07142">
        <ele>1359</ele>
        <time>2015-06-24T09:51:07Z</time>
      </trkpt>
      <trkpt lat="42.15295" lon="9.07141">
        <ele>1359.2</ele>
        <time>2015-06-24T09:51:08Z</time>
      </trkpt>
      <trkpt lat="42.15299" lon="9.07138">
        <ele>1358.6</ele>
        <time>2015-06-24T09:51:13Z</time>
      </trkpt>
      <trkpt lat="42.15302" lon="9.07138">
        <ele>1358.6</ele>
        <time>2015-06-24T09:51:16Z</time>
      </trkpt>
      <trkpt lat="42.15303" lon="9.07136">
        <ele>1358.4</ele>
        <time>2015-06-24T09:51:18Z</time>
      </trkpt>
      <trkpt lat="42.15304" lon="9.07136">
        <ele>1358.2</ele>
        <time>2015-06-24T09:51:19Z</time>
      </trkpt>
      <trkpt lat="42.15312" lon="9.07139">
        <ele>1357.4</ele>
        <time>2015-06-24T09:51:27Z</time>
      </trkpt>
      <trkpt lat="42.1532" lon="9.07144">
        <ele>1357</ele>
        <time>2015-06-24T09:51:37Z</time>
      </trkpt>
      <trkpt lat="42.15321" lon="9.07144">
        <ele>1357</ele>
        <time>2015-06-24T09:51:38Z</time>
      </trkpt>
      <trkpt lat="42.15326" lon="9.07149">
        <ele>1356.8</ele>
        <time>2015-06-24T09:51:44Z</time>
      </trkpt>
      <trkpt lat="42.1533" lon="9.0715">
        <ele>1356.4</ele>
        <time>2015-06-24T09:51:48Z</time>
      </trkpt>
      <trkpt lat="42.15335" lon="9.07155">
        <ele>1356</ele>
        <time>2015-06-24T09:51:56Z</time>
      </trkpt>
      <trkpt lat="42.1534" lon="9.07163">
        <ele>1355.4</ele>
        <time>2015-06-24T09:52:04Z</time>
      </trkpt>
      <trkpt lat="42.15343" lon="9.07167">
        <ele>1355.2</ele>
        <time>2015-06-24T09:52:10Z</time>
      </trkpt>
      <trkpt lat="42.15344" lon="9.07168">
        <ele>1355.2</ele>
        <time>2015-06-24T09:52:12Z</time>
      </trkpt>
      <trkpt lat="42.15346" lon="9.07167">
        <ele>1355.4</ele>
        <time>2015-06-24T09:52:15Z</time>
      </trkpt>
      <trkpt lat="42.15352" lon="9.07166">
        <ele>1355.6</ele>
        <time>2015-06-24T09:52:21Z</time>
      </trkpt>
      <trkpt lat="42.15353" lon="9.07168">
        <ele>1355.6</ele>
        <time>2015-06-24T09:52:23Z</time>
      </trkpt>
      <trkpt lat="42.15355" lon="9.0717">
        <ele>1355.4</ele>
        <time>2015-06-24T09:52:26Z</time>
      </trkpt>
      <trkpt lat="42.1536" lon="9.07174">
        <ele>1353.4</ele>
        <time>2015-06-24T09:52:35Z</time>
      </trkpt>
      <trkpt lat="42.15362" lon="9.07176">
        <ele>1352</ele>
        <time>2015-06-24T09:52:39Z</time>
      </trkpt>
      <trkpt lat="42.15364" lon="9.07176">
        <ele>1351.4</ele>
        <time>2015-06-24T09:52:42Z</time>
      </trkpt>
      <trkpt lat="42.15369" lon="9.07176">
        <ele>1351.2</ele>
        <time>2015-06-24T09:52:52Z</time>
      </trkpt>
      <trkpt lat="42.15357" lon="9.07177">
        <ele>1348.6</ele>
        <time>2015-06-24T09:53:09Z</time>
      </trkpt>
      <trkpt lat="42.15355" lon="9.07179">
        <ele>1348.4</ele>
        <time>2015-06-24T09:53:13Z</time>
      </trkpt>
      <trkpt lat="42.15353" lon="9.07183">
        <ele>1347.6</ele>
        <time>2015-06-24T09:53:17Z</time>
      </trkpt>
      <trkpt lat="42.15351" lon="9.07186">
        <ele>1345.8</ele>
        <time>2015-06-24T09:53:24Z</time>
      </trkpt>
      <trkpt lat="42.15346" lon="9.07188">
        <ele>1344.8</ele>
        <time>2015-06-24T09:53:30Z</time>
      </trkpt>
      <trkpt lat="42.15335" lon="9.07195">
        <ele>1343</ele>
        <time>2015-06-24T09:53:44Z</time>
      </trkpt>
      <trkpt lat="42.15333" lon="9.07197">
        <ele>1342.8</ele>
        <time>2015-06-24T09:53:48Z</time>
      </trkpt>
      <trkpt lat="42.15331" lon="9.07199">
        <ele>1342.2</ele>
        <time>2015-06-24T09:53:52Z</time>
      </trkpt>
      <trkpt lat="42.15328" lon="9.07202">
        <ele>1340.2</ele>
        <time>2015-06-24T09:54:00Z</time>
      </trkpt>
      <trkpt lat="42.15326" lon="9.07205">
        <ele>1339.8</ele>
        <time>2015-06-24T09:54:04Z</time>
      </trkpt>
      <trkpt lat="42.15318" lon="9.07205">
        <ele>1337.8</ele>
        <time>2015-06-24T09:54:25Z</time>
      </trkpt>
      <trkpt lat="42.15307" lon="9.07208">
        <ele>1337</ele>
        <time>2015-06-24T09:54:51Z</time>
      </trkpt>
      <trkpt lat="42.15303" lon="9.07211">
        <ele>1336.4</ele>
        <time>2015-06-24T09:54:56Z</time>
      </trkpt>
      <trkpt lat="42.15299" lon="9.07218">
        <ele>1335.2</ele>
        <time>2015-06-24T09:55:03Z</time>
      </trkpt>
      <trkpt lat="42.15297" lon="9.07222">
        <ele>1334.6</ele>
        <time>2015-06-24T09:55:08Z</time>
      </trkpt>
      <trkpt lat="42.15294" lon="9.07221">
        <ele>1332.4</ele>
        <time>2015-06-24T09:55:49Z</time>
      </trkpt>
      <trkpt lat="42.15289" lon="9.07228">
        <ele>1331.6</ele>
        <time>2015-06-24T09:55:56Z</time>
      </trkpt>
      <trkpt lat="42.15287" lon="9.07231">
        <ele>1330.8</ele>
        <time>2015-06-24T09:56:00Z</time>
      </trkpt>
      <trkpt lat="42.15284" lon="9.07234">
        <ele>1329.6</ele>
        <time>2015-06-24T09:56:05Z</time>
      </trkpt>
      <trkpt lat="42.1528" lon="9.07238">
        <ele>1328.2</ele>
        <time>2015-06-24T09:56:12Z</time>
      </trkpt>
      <trkpt lat="42.15275" lon="9.07241">
        <ele>1327.2</ele>
        <time>2015-06-24T09:56:17Z</time>
      </trkpt>
      <trkpt lat="42.15269" lon="9.07243">
        <ele>1325.6</ele>
        <time>2015-06-24T09:56:28Z</time>
      </trkpt>
      <trkpt lat="42.15266" lon="9.07244">
        <ele>1324.8</ele>
        <time>2015-06-24T09:56:34Z</time>
      </trkpt>
      <trkpt lat="42.15264" lon="9.07248">
        <ele>1323.6</ele>
        <time>2015-06-24T09:56:41Z</time>
      </trkpt>
      <trkpt lat="42.15262" lon="9.07252">
        <ele>1322.6</ele>
        <time>2015-06-24T09:56:47Z</time>
      </trkpt>
      <trkpt lat="42.15261" lon="9.07252">
        <ele>1321.8</ele>
        <time>2015-06-24T09:56:52Z</time>
      </trkpt>
      <trkpt lat="42.1526" lon="9.07252">
        <ele>1321.2</ele>
        <time>2015-06-24T09:56:54Z</time>
      </trkpt>
      <trkpt lat="42.15248" lon="9.0725">
        <ele>1319.8</ele>
        <time>2015-06-24T09:57:22Z</time>
      </trkpt>
      <trkpt lat="42.15243" lon="9.07252">
        <ele>1318.8</ele>
        <time>2015-06-24T09:57:32Z</time>
      </trkpt>
      <trkpt lat="42.15238" lon="9.07258">
        <ele>1318.2</ele>
        <time>2015-06-24T09:57:39Z</time>
      </trkpt>
      <trkpt lat="42.15235" lon="9.07259">
        <ele>1317.6</ele>
        <time>2015-06-24T09:57:48Z</time>
      </trkpt>
      <trkpt lat="42.15232" lon="9.07263">
        <ele>1316.6</ele>
        <time>2015-06-24T09:57:56Z</time>
      </trkpt>
      <trkpt lat="42.15229" lon="9.07265">
        <ele>1315.8</ele>
        <time>2015-06-24T09:58:03Z</time>
      </trkpt>
      <trkpt lat="42.15223" lon="9.0727">
        <ele>1314.4</ele>
        <time>2015-06-24T09:58:42Z</time>
      </trkpt>
      <trkpt lat="42.15225" lon="9.0727">
        <ele>1313.4</ele>
        <time>2015-06-24T09:58:49Z</time>
      </trkpt>
      <trkpt lat="42.15231" lon="9.0727">
        <ele>1312.2</ele>
        <time>2015-06-24T09:58:59Z</time>
      </trkpt>
      <trkpt lat="42.15234" lon="9.07269">
        <ele>1311</ele>
        <time>2015-06-24T09:59:08Z</time>
      </trkpt>
      <trkpt lat="42.15238" lon="9.07271">
        <ele>1310.6</ele>
        <time>2015-06-24T09:59:13Z</time>
      </trkpt>
      <trkpt lat="42.15238" lon="9.07274">
        <ele>1310.2</ele>
        <time>2015-06-24T09:59:19Z</time>
      </trkpt>
      <trkpt lat="42.15233" lon="9.07282">
        <ele>1308</ele>
        <time>2015-06-24T09:59:46Z</time>
      </trkpt>
      <trkpt lat="42.15232" lon="9.07282">
        <ele>1308</ele>
        <time>2015-06-24T09:59:47Z</time>
      </trkpt>
      <trkpt lat="42.15229" lon="9.07284">
        <ele>1308.2</ele>
        <time>2015-06-24T09:59:50Z</time>
      </trkpt>
      <trkpt lat="42.15226" lon="9.07286">
        <ele>1308.4</ele>
        <time>2015-06-24T09:59:58Z</time>
      </trkpt>
      <trkpt lat="42.15224" lon="9.07287">
        <ele>1308.6</ele>
        <time>2015-06-24T10:00:00Z</time>
      </trkpt>
      <trkpt lat="42.15222" lon="9.07288">
        <ele>1308.8</ele>
        <time>2015-06-24T10:00:02Z</time>
      </trkpt>
      <trkpt lat="42.15215" lon="9.07292">
        <ele>1309.8</ele>
        <time>2015-06-24T10:00:14Z</time>
      </trkpt>
      <trkpt lat="42.15214" lon="9.07297">
        <ele>1310.4</ele>
        <time>2015-06-24T10:00:44Z</time>
      </trkpt>
      <trkpt lat="42.15222" lon="9.07296">
        <ele>1308.8</ele>
        <time>2015-06-24T10:01:01Z</time>
      </trkpt>
      <trkpt lat="42.15222" lon="9.07298">
        <ele>1308.4</ele>
        <time>2015-06-24T10:01:05Z</time>
      </trkpt>
      <trkpt lat="42.15222" lon="9.07302">
        <ele>1306.6</ele>
        <time>2015-06-24T10:01:10Z</time>
      </trkpt>
      <trkpt lat="42.15224" lon="9.07305">
        <ele>1304.6</ele>
        <time>2015-06-24T10:01:29Z</time>
      </trkpt>
      <trkpt lat="42.15227" lon="9.07308">
        <ele>1304.4</ele>
        <time>2015-06-24T10:01:34Z</time>
      </trkpt>
      <trkpt lat="42.15228" lon="9.0731">
        <ele>1303.4</ele>
        <time>2015-06-24T10:01:38Z</time>
      </trkpt>
      <trkpt lat="42.15236" lon="9.07312">
        <ele>1300.8</ele>
        <time>2015-06-24T10:02:12Z</time>
      </trkpt>
      <trkpt lat="42.15238" lon="9.0731">
        <ele>1300.4</ele>
        <time>2015-06-24T10:02:20Z</time>
      </trkpt>
      <trkpt lat="42.15239" lon="9.073">
        <ele>1299.8</ele>
        <time>2015-06-24T10:02:39Z</time>
      </trkpt>
      <trkpt lat="42.15247" lon="9.07295">
        <ele>1300.6</ele>
        <time>2015-06-24T10:03:02Z</time>
      </trkpt>
      <trkpt lat="42.15251" lon="9.07293">
        <ele>1299</ele>
        <time>2015-06-24T10:03:09Z</time>
      </trkpt>
      <trkpt lat="42.15255" lon="9.07294">
        <ele>1298</ele>
        <time>2015-06-24T10:03:15Z</time>
      </trkpt>
      <trkpt lat="42.15272" lon="9.07296">
        <ele>1296.6</ele>
        <time>2015-06-24T10:03:39Z</time>
      </trkpt>
      <trkpt lat="42.15275" lon="9.07299">
        <ele>1296</ele>
        <time>2015-06-24T10:03:46Z</time>
      </trkpt>
      <trkpt lat="42.15279" lon="9.07302">
        <ele>1294.4</ele>
        <time>2015-06-24T10:03:57Z</time>
      </trkpt>
      <trkpt lat="42.15281" lon="9.07303">
        <ele>1293.8</ele>
        <time>2015-06-24T10:04:03Z</time>
      </trkpt>
      <trkpt lat="42.15288" lon="9.07305">
        <ele>1292</ele>
        <time>2015-06-24T10:04:13Z</time>
      </trkpt>
      <trkpt lat="42.15291" lon="9.07308">
        <ele>1291.4</ele>
        <time>2015-06-24T10:04:20Z</time>
      </trkpt>
      <trkpt lat="42.15291" lon="9.07311">
        <ele>1290.6</ele>
        <time>2015-06-24T10:04:26Z</time>
      </trkpt>
      <trkpt lat="42.15293" lon="9.07312">
        <ele>1289.8</ele>
        <time>2015-06-24T10:04:30Z</time>
      </trkpt>
      <trkpt lat="42.15294" lon="9.07315">
        <ele>1288.4</ele>
        <time>2015-06-24T10:04:36Z</time>
      </trkpt>
      <trkpt lat="42.15297" lon="9.07316">
        <ele>1287.2</ele>
        <time>2015-06-24T10:04:41Z</time>
      </trkpt>
      <trkpt lat="42.15301" lon="9.0732">
        <ele>1286</ele>
        <time>2015-06-24T10:04:48Z</time>
      </trkpt>
      <trkpt lat="42.15305" lon="9.07322">
        <ele>1285</ele>
        <time>2015-06-24T10:04:54Z</time>
      </trkpt>
      <trkpt lat="42.15307" lon="9.07323">
        <ele>1284.2</ele>
        <time>2015-06-24T10:04:59Z</time>
      </trkpt>
      <trkpt lat="42.15312" lon="9.07327">
        <ele>1282.2</ele>
        <time>2015-06-24T10:05:08Z</time>
      </trkpt>
      <trkpt lat="42.15315" lon="9.07328">
        <ele>1281.8</ele>
        <time>2015-06-24T10:05:14Z</time>
      </trkpt>
      <trkpt lat="42.15312" lon="9.0733">
        <ele>1280</ele>
        <time>2015-06-24T10:05:26Z</time>
      </trkpt>
      <trkpt lat="42.15305" lon="9.07336">
        <ele>1279</ele>
        <time>2015-06-24T10:05:35Z</time>
      </trkpt>
      <trkpt lat="42.15301" lon="9.0734">
        <ele>1278.4</ele>
        <time>2015-06-24T10:05:40Z</time>
      </trkpt>
      <trkpt lat="42.15299" lon="9.07346">
        <ele>1277</ele>
        <time>2015-06-24T10:05:47Z</time>
      </trkpt>
      <trkpt lat="42.15297" lon="9.0735">
        <ele>1276</ele>
        <time>2015-06-24T10:05:53Z</time>
      </trkpt>
      <trkpt lat="42.15297" lon="9.07354">
        <ele>1274.8</ele>
        <time>2015-06-24T10:06:00Z</time>
      </trkpt>
      <trkpt lat="42.15296" lon="9.07357">
        <ele>1274</ele>
        <time>2015-06-24T10:06:06Z</time>
      </trkpt>
      <trkpt lat="42.15299" lon="9.07361">
        <ele>1271.8</ele>
        <time>2015-06-24T10:06:23Z</time>
      </trkpt>
      <trkpt lat="42.15306" lon="9.0736">
        <ele>1271.4</ele>
        <time>2015-06-24T10:06:32Z</time>
      </trkpt>
      <trkpt lat="42.15312" lon="9.07362">
        <ele>1270.4</ele>
        <time>2015-06-24T10:06:40Z</time>
      </trkpt>
      <trkpt lat="42.15315" lon="9.0737">
        <ele>1269.4</ele>
        <time>2015-06-24T10:06:50Z</time>
      </trkpt>
      <trkpt lat="42.15316" lon="9.07374">
        <ele>1268.6</ele>
        <time>2015-06-24T10:06:56Z</time>
      </trkpt>
      <trkpt lat="42.15315" lon="9.07377">
        <ele>1267.2</ele>
        <time>2015-06-24T10:07:03Z</time>
      </trkpt>
      <trkpt lat="42.15315" lon="9.07378">
        <ele>1266.2</ele>
        <time>2015-06-24T10:07:11Z</time>
      </trkpt>
      <trkpt lat="42.15314" lon="9.07385">
        <ele>1266</ele>
        <time>2015-06-24T10:07:25Z</time>
      </trkpt>
      <trkpt lat="42.15318" lon="9.07386">
        <ele>1265.8</ele>
        <time>2015-06-24T10:07:31Z</time>
      </trkpt>
      <trkpt lat="42.15323" lon="9.07385">
        <ele>1264.4</ele>
        <time>2015-06-24T10:07:44Z</time>
      </trkpt>
    </trkseg>
  </trk>
  <trk>
    <name><![CDATA[GR20 L'Onda - Petra Piana]]></name>
    <trkseg>
      <trkpt lat="42.1535" lon="9.07442">
        <ele>1384</ele>
        <time>2015-06-25T04:11:01Z</time>
      </trkpt>
      <trkpt lat="42.15349" lon="9.07439">
        <ele>1384.4</ele>
        <time>2015-06-25T04:11:04Z</time>
      </trkpt>
      <trkpt lat="42.15344" lon="9.07425">
        <ele>1384.8</ele>
        <time>2015-06-25T04:11:35Z</time>
      </trkpt>
      <trkpt lat="42.15345" lon="9.07424">
        <ele>1385</ele>
        <time>2015-06-25T04:11:39Z</time>
      </trkpt>
      <trkpt lat="42.15336" lon="9.07414">
        <ele>1385.4</ele>
        <time>2015-06-25T04:12:02Z</time>
      </trkpt>
      <trkpt lat="42.15342" lon="9.07406">
        <ele>1386.6</ele>
        <time>2015-06-25T04:12:22Z</time>
      </trkpt>
      <trkpt lat="42.15357" lon="9.07397">
        <ele>1387.8</ele>
        <time>2015-06-25T04:13:05Z</time>
      </trkpt>
      <trkpt lat="42.15375" lon="9.074">
        <ele>1387.2</ele>
        <time>2015-06-25T04:13:46Z</time>
      </trkpt>
      <trkpt lat="42.15383" lon="9.07402">
        <ele>1386.6</ele>
        <time>2015-06-25T04:13:58Z</time>
      </trkpt>
      <trkpt lat="42.15398" lon="9.07407">
        <ele>1385.4</ele>
        <time>2015-06-25T04:14:21Z</time>
      </trkpt>
      <trkpt lat="42.154" lon="9.07412">
        <ele>1384.4</ele>
        <time>2015-06-25T04:14:29Z</time>
      </trkpt>
      <trkpt lat="42.15405" lon="9.07416">
        <ele>1383</ele>
        <time>2015-06-25T04:14:45Z</time>
      </trkpt>
      <trkpt lat="42.15407" lon="9.07418">
        <ele>1382.4</ele>
        <time>2015-06-25T04:14:52Z</time>
      </trkpt>
      <trkpt lat="42.15413" lon="9.07419">
        <ele>1381.2</ele>
        <time>2015-06-25T04:15:00Z</time>
      </trkpt>
      <trkpt lat="42.1542" lon="9.07418">
        <ele>1380</ele>
        <time>2015-06-25T04:15:09Z</time>
      </trkpt>
      <trkpt lat="42.15421" lon="9.07419">
        <ele>1380</ele>
        <time>2015-06-25T04:15:11Z</time>
      </trkpt>
      <trkpt lat="42.15431" lon="9.0742">
        <ele>1378.4</ele>
        <time>2015-06-25T04:15:24Z</time>
      </trkpt>
      <trkpt lat="42.15439" lon="9.07418">
        <ele>1377.4</ele>
        <time>2015-06-25T04:15:35Z</time>
      </trkpt>
      <trkpt lat="42.15445" lon="9.07416">
        <ele>1376.6</ele>
        <time>2015-06-25T04:15:42Z</time>
      </trkpt>
      <trkpt lat="42.15472" lon="9.07417">
        <ele>1376</ele>
        <time>2015-06-25T04:16:15Z</time>
      </trkpt>
      <trkpt lat="42.15474" lon="9.07416">
        <ele>1376.2</ele>
        <time>2015-06-25T04:16:19Z</time>
      </trkpt>
      <trkpt lat="42.15491" lon="9.07416">
        <ele>1374.6</ele>
        <time>2015-06-25T04:16:43Z</time>
      </trkpt>
      <trkpt lat="42.15501" lon="9.0742">
        <ele>1373.8</ele>
        <time>2015-06-25T04:17:00Z</time>
      </trkpt>
      <trkpt lat="42.15508" lon="9.07425">
        <ele>1372.6</ele>
        <time>2015-06-25T04:17:19Z</time>
      </trkpt>
      <trkpt lat="42.15511" lon="9.07425">
        <ele>1371.8</ele>
        <time>2015-06-25T04:17:27Z</time>
      </trkpt>
      <trkpt lat="42.1552" lon="9.07425">
        <ele>1370.6</ele>
        <time>2015-06-25T04:17:38Z</time>
      </trkpt>
      <trkpt lat="42.15527" lon="9.07427">
        <ele>1369.4</ele>
        <time>2015-06-25T04:17:55Z</time>
      </trkpt>
      <trkpt lat="42.15533" lon="9.07427">
        <ele>1368.6</ele>
        <time>2015-06-25T04:18:03Z</time>
      </trkpt>
      <trkpt lat="42.15555" lon="9.07443">
        <ele>1366.8</ele>
        <time>2015-06-25T04:18:53Z</time>
      </trkpt>
      <trkpt lat="42.15553" lon="9.07446">
        <ele>1366.8</ele>
        <time>2015-06-25T04:18:58Z</time>
      </trkpt>
      <trkpt lat="42.15549" lon="9.07448">
        <ele>1365.4</ele>
        <time>2015-06-25T04:19:04Z</time>
      </trkpt>
      <trkpt lat="42.15548" lon="9.07451">
        <ele>1364.6</ele>
        <time>2015-06-25T04:19:09Z</time>
      </trkpt>
      <trkpt lat="42.15549" lon="9.07454">
        <ele>1363</ele>
        <time>2015-06-25T04:19:16Z</time>
      </trkpt>
      <trkpt lat="42.15551" lon="9.07456">
        <ele>1361.6</ele>
        <time>2015-06-25T04:19:25Z</time>
      </trkpt>
      <trkpt lat="42.15554" lon="9.07459">
        <ele>1360.8</ele>
        <time>2015-06-25T04:19:32Z</time>
      </trkpt>
      <trkpt lat="42.15557" lon="9.07464">
        <ele>1359.4</ele>
        <time>2015-06-25T04:19:42Z</time>
      </trkpt>
      <trkpt lat="42.15558" lon="9.07466">
        <ele>1358.6</ele>
        <time>2015-06-25T04:19:48Z</time>
      </trkpt>
      <trkpt lat="42.15557" lon="9.07471">
        <ele>1356.4</ele>
        <time>2015-06-25T04:20:06Z</time>
      </trkpt>
      <trkpt lat="42.15558" lon="9.07474">
        <ele>1356</ele>
        <time>2015-06-25T04:20:12Z</time>
      </trkpt>
      <trkpt lat="42.1556" lon="9.07475">
        <ele>1355</ele>
        <time>2015-06-25T04:20:17Z</time>
      </trkpt>
      <trkpt lat="42.15565" lon="9.0748">
        <ele>1353.4</ele>
        <time>2015-06-25T04:20:26Z</time>
      </trkpt>
      <trkpt lat="42.15569" lon="9.07483">
        <ele>1352.4</ele>
        <time>2015-06-25T04:20:32Z</time>
      </trkpt>
      <trkpt lat="42.15563" lon="9.07486">
        <ele>1351.2</ele>
        <time>2015-06-25T04:20:41Z</time>
      </trkpt>
      <trkpt lat="42.15562" lon="9.07489">
        <ele>1351.2</ele>
        <time>2015-06-25T04:20:45Z</time>
      </trkpt>
      <trkpt lat="42.15562" lon="9.07488">
        <ele>1350.4</ele>
        <time>2015-06-25T04:20:51Z</time>
      </trkpt>
      <trkpt lat="42.15561" lon="9.0749">
        <ele>1349</ele>
        <time>2015-06-25T04:20:58Z</time>
      </trkpt>
      <trkpt lat="42.15563" lon="9.07491">
        <ele>1348</ele>
        <time>2015-06-25T04:21:04Z</time>
      </trkpt>
      <trkpt lat="42.15568" lon="9.07498">
        <ele>1346.6</ele>
        <time>2015-06-25T04:21:12Z</time>
      </trkpt>
      <trkpt lat="42.15573" lon="9.07503">
        <ele>1345.6</ele>
        <time>2015-06-25T04:21:18Z</time>
      </trkpt>
      <trkpt lat="42.15576" lon="9.07506">
        <ele>1344.8</ele>
        <time>2015-06-25T04:21:22Z</time>
      </trkpt>
      <trkpt lat="42.15577" lon="9.07507">
        <ele>1344.8</ele>
        <time>2015-06-25T04:21:23Z</time>
      </trkpt>
      <trkpt lat="42.15579" lon="9.07511">
        <ele>1343.4</ele>
        <time>2015-06-25T04:21:29Z</time>
      </trkpt>
      <trkpt lat="42.1558" lon="9.07515">
        <ele>1342</ele>
        <time>2015-06-25T04:21:36Z</time>
      </trkpt>
      <trkpt lat="42.15584" lon="9.07519">
        <ele>1340.6</ele>
        <time>2015-06-25T04:21:44Z</time>
      </trkpt>
      <trkpt lat="42.15591" lon="9.07524">
        <ele>1339.4</ele>
        <time>2015-06-25T04:21:51Z</time>
      </trkpt>
      <trkpt lat="42.15593" lon="9.07528">
        <ele>1339</ele>
        <time>2015-06-25T04:21:55Z</time>
      </trkpt>
      <trkpt lat="42.15596" lon="9.07529">
        <ele>1338.4</ele>
        <time>2015-06-25T04:21:57Z</time>
      </trkpt>
      <trkpt lat="42.156" lon="9.07532">
        <ele>1337.2</ele>
        <time>2015-06-25T04:22:03Z</time>
      </trkpt>
      <trkpt lat="42.15604" lon="9.07538">
        <ele>1335.2</ele>
        <time>2015-06-25T04:22:14Z</time>
      </trkpt>
      <trkpt lat="42.15609" lon="9.07545">
        <ele>1333.6</ele>
        <time>2015-06-25T04:22:37Z</time>
      </trkpt>
      <trkpt lat="42.15609" lon="9.07545">
        <ele>1333</ele>
        <time>2015-06-25T04:22:59Z</time>
      </trkpt>
      <trkpt lat="42.15618" lon="9.07549">
        <ele>1330.8</ele>
        <time>2015-06-25T04:23:23Z</time>
      </trkpt>
      <trkpt lat="42.1562" lon="9.07553">
        <ele>1330.2</ele>
        <time>2015-06-25T04:23:32Z</time>
      </trkpt>
      <trkpt lat="42.15623" lon="9.07555">
        <ele>1329</ele>
        <time>2015-06-25T04:23:40Z</time>
      </trkpt>
      <trkpt lat="42.15644" lon="9.07556">
        <ele>1328.2</ele>
        <time>2015-06-25T04:24:15Z</time>
      </trkpt>
      <trkpt lat="42.15649" lon="9.07562">
        <ele>1328.6</ele>
        <time>2015-06-25T04:24:34Z</time>
      </trkpt>
      <trkpt lat="42.1565" lon="9.07565">
        <ele>1328</ele>
        <time>2015-06-25T04:24:37Z</time>
      </trkpt>
      <trkpt lat="42.15653" lon="9.07567">
        <ele>1327.4</ele>
        <time>2015-06-25T04:24:41Z</time>
      </trkpt>
      <trkpt lat="42.15659" lon="9.07576">
        <ele>1325.8</ele>
        <time>2015-06-25T04:24:52Z</time>
      </trkpt>
      <trkpt lat="42.15662" lon="9.07578">
        <ele>1325</ele>
        <time>2015-06-25T04:24:59Z</time>
      </trkpt>
      <trkpt lat="42.15665" lon="9.07584">
        <ele>1323.8</ele>
        <time>2015-06-25T04:25:07Z</time>
      </trkpt>
      <trkpt lat="42.15668" lon="9.07589">
        <ele>1323</ele>
        <time>2015-06-25T04:25:13Z</time>
      </trkpt>
      <trkpt lat="42.1567" lon="9.0759">
        <ele>1322.6</ele>
        <time>2015-06-25T04:25:16Z</time>
      </trkpt>
      <trkpt lat="42.15672" lon="9.07593">
        <ele>1322.4</ele>
        <time>2015-06-25T04:25:18Z</time>
      </trkpt>
      <trkpt lat="42.15672" lon="9.07594">
        <ele>1322.2</ele>
        <time>2015-06-25T04:25:19Z</time>
      </trkpt>
      <trkpt lat="42.15675" lon="9.07596">
        <ele>1322</ele>
        <time>2015-06-25T04:25:23Z</time>
      </trkpt>
      <trkpt lat="42.15677" lon="9.07599">
        <ele>1321.4</ele>
        <time>2015-06-25T04:25:28Z</time>
      </trkpt>
      <trkpt lat="42.15679" lon="9.07603">
        <ele>1320.8</ele>
        <time>2015-06-25T04:25:33Z</time>
      </trkpt>
      <trkpt lat="42.15682" lon="9.0761">
        <ele>1319.2</ele>
        <time>2015-06-25T04:25:42Z</time>
      </trkpt>
      <trkpt lat="42.15686" lon="9.07617">
        <ele>1317.8</ele>
        <time>2015-06-25T04:25:50Z</time>
      </trkpt>
      <trkpt lat="42.15689" lon="9.07619">
        <ele>1317.2</ele>
        <time>2015-06-25T04:25:54Z</time>
      </trkpt>
      <trkpt lat="42.15697" lon="9.07626">
        <ele>1315.2</ele>
        <time>2015-06-25T04:26:13Z</time>
      </trkpt>
      <trkpt lat="42.15698" lon="9.07631">
        <ele>1314.4</ele>
        <time>2015-06-25T04:26:19Z</time>
      </trkpt>
      <trkpt lat="42.15702" lon="9.07638">
        <ele>1312.6</ele>
        <time>2015-06-25T04:26:31Z</time>
      </trkpt>
      <trkpt lat="42.15703" lon="9.07642">
        <ele>1311.6</ele>
        <time>2015-06-25T04:26:38Z</time>
      </trkpt>
      <trkpt lat="42.15706" lon="9.07647">
        <ele>1310.2</ele>
        <time>2015-06-25T04:26:46Z</time>
      </trkpt>
      <trkpt lat="42.15708" lon="9.07652">
        <ele>1309</ele>
        <time>2015-06-25T04:26:54Z</time>
      </trkpt>
      <trkpt lat="42.1571" lon="9.07657">
        <ele>1308.2</ele>
        <time>2015-06-25T04:27:00Z</time>
      </trkpt>
      <trkpt lat="42.15713" lon="9.07661">
        <ele>1307.6</ele>
        <time>2015-06-25T04:27:04Z</time>
      </trkpt>
      <trkpt lat="42.15715" lon="9.07663">
        <ele>1307.2</ele>
        <time>2015-06-25T04:27:06Z</time>
      </trkpt>
      <trkpt lat="42.15719" lon="9.07671">
        <ele>1305.8</ele>
        <time>2015-06-25T04:27:17Z</time>
      </trkpt>
      <trkpt lat="42.15727" lon="9.07678">
        <ele>1304.2</ele>
        <time>2015-06-25T04:27:42Z</time>
      </trkpt>
      <trkpt lat="42.15732" lon="9.07683">
        <ele>1303</ele>
        <time>2015-06-25T04:27:52Z</time>
      </trkpt>
      <trkpt lat="42.15732" lon="9.07691">
        <ele>1301.8</ele>
        <time>2015-06-25T04:28:03Z</time>
      </trkpt>
      <trkpt lat="42.15735" lon="9.07695">
        <ele>1301.2</ele>
        <time>2015-06-25T04:28:09Z</time>
      </trkpt>
      <trkpt lat="42.15741" lon="9.07702">
        <ele>1299.2</ele>
        <time>2015-06-25T04:28:30Z</time>
      </trkpt>
      <trkpt lat="42.15746" lon="9.07706">
        <ele>1298.2</ele>
        <time>2015-06-25T04:28:41Z</time>
      </trkpt>
      <trkpt lat="42.15753" lon="9.07714">
        <ele>1296.8</ele>
        <time>2015-06-25T04:29:10Z</time>
      </trkpt>
      <trkpt lat="42.15758" lon="9.07721">
        <ele>1296</ele>
        <time>2015-06-25T04:29:21Z</time>
      </trkpt>
      <trkpt lat="42.15765" lon="9.07727">
        <ele>1294.6</ele>
        <time>2015-06-25T04:29:31Z</time>
      </trkpt>
      <trkpt lat="42.15771" lon="9.07733">
        <ele>1293.2</ele>
        <time>2015-06-25T04:29:41Z</time>
      </trkpt>
      <trkpt lat="42.15795" lon="9.07745">
        <ele>1291.6</ele>
        <time>2015-06-25T04:30:24Z</time>
      </trkpt>
      <trkpt lat="42.15799" lon="9.07748">
        <ele>1291.2</ele>
        <time>2015-06-25T04:30:32Z</time>
      </trkpt>
      <trkpt lat="42.15801" lon="9.07754">
        <ele>1290</ele>
        <time>2015-06-25T04:30:41Z</time>
      </trkpt>
      <trkpt lat="42.15806" lon="9.07761">
        <ele>1288.4</ele>
        <time>2015-06-25T04:30:52Z</time>
      </trkpt>
      <trkpt lat="42.15815" lon="9.07768">
        <ele>1287.2</ele>
        <time>2015-06-25T04:31:07Z</time>
      </trkpt>
      <trkpt lat="42.15843" lon="9.07778">
        <ele>1287</ele>
        <time>2015-06-25T04:31:51Z</time>
      </trkpt>
      <trkpt lat="42.15845" lon="9.07781">
        <ele>1286.6</ele>
        <time>2015-06-25T04:31:57Z</time>
      </trkpt>
      <trkpt lat="42.15858" lon="9.07791">
        <ele>1284.8</ele>
        <time>2015-06-25T04:32:22Z</time>
      </trkpt>
      <trkpt lat="42.15863" lon="9.07793">
        <ele>1284.6</ele>
        <time>2015-06-25T04:32:27Z</time>
      </trkpt>
      <trkpt lat="42.1587" lon="9.07797">
        <ele>1284</ele>
        <time>2015-06-25T04:32:37Z</time>
      </trkpt>
      <trkpt lat="42.15879" lon="9.07804">
        <ele>1283.8</ele>
        <time>2015-06-25T04:32:49Z</time>
      </trkpt>
      <trkpt lat="42.15884" lon="9.07805">
        <ele>1283.6</ele>
        <time>2015-06-25T04:32:53Z</time>
      </trkpt>
      <trkpt lat="42.15887" lon="9.07805">
        <ele>1283.4</ele>
        <time>2015-06-25T04:32:59Z</time>
      </trkpt>
      <trkpt lat="42.15893" lon="9.07808">
        <ele>1282.2</ele>
        <time>2015-06-25T04:33:06Z</time>
      </trkpt>
      <trkpt lat="42.15906" lon="9.07808">
        <ele>1281.8</ele>
        <time>2015-06-25T04:33:25Z</time>
      </trkpt>
      <trkpt lat="42.15909" lon="9.0781">
        <ele>1281.4</ele>
        <time>2015-06-25T04:33:29Z</time>
      </trkpt>
      <trkpt lat="42.15911" lon="9.07811">
        <ele>1281</ele>
        <time>2015-06-25T04:33:33Z</time>
      </trkpt>
      <trkpt lat="42.15912" lon="9.07812">
        <ele>1280.8</ele>
        <time>2015-06-25T04:33:35Z</time>
      </trkpt>
      <trkpt lat="42.15915" lon="9.07814">
        <ele>1280</ele>
        <time>2015-06-25T04:33:42Z</time>
      </trkpt>
      <trkpt lat="42.15935" lon="9.07827">
        <ele>1278.8</ele>
        <time>2015-06-25T04:34:19Z</time>
      </trkpt>
      <trkpt lat="42.15938" lon="9.0783">
        <ele>1278</ele>
        <time>2015-06-25T04:34:25Z</time>
      </trkpt>
      <trkpt lat="42.15942" lon="9.07832">
        <ele>1276.6</ele>
        <time>2015-06-25T04:34:32Z</time>
      </trkpt>
      <trkpt lat="42.15947" lon="9.07835">
        <ele>1275</ele>
        <time>2015-06-25T04:34:43Z</time>
      </trkpt>
      <trkpt lat="42.15951" lon="9.0784">
        <ele>1274</ele>
        <time>2015-06-25T04:34:52Z</time>
      </trkpt>
      <trkpt lat="42.15954" lon="9.07844">
        <ele>1273</ele>
        <time>2015-06-25T04:35:00Z</time>
      </trkpt>
      <trkpt lat="42.15958" lon="9.0785">
        <ele>1272.2</ele>
        <time>2015-06-25T04:35:09Z</time>
      </trkpt>
      <trkpt lat="42.15961" lon="9.07857">
        <ele>1270.8</ele>
        <time>2015-06-25T04:35:18Z</time>
      </trkpt>
      <trkpt lat="42.15966" lon="9.07863">
        <ele>1269.6</ele>
        <time>2015-06-25T04:35:26Z</time>
      </trkpt>
      <trkpt lat="42.15968" lon="9.07864">
        <ele>1269.4</ele>
        <time>2015-06-25T04:35:28Z</time>
      </trkpt>
      <trkpt lat="42.15969" lon="9.07865">
        <ele>1269.2</ele>
        <time>2015-06-25T04:35:30Z</time>
      </trkpt>
      <trkpt lat="42.15972" lon="9.07866">
        <ele>1269.2</ele>
        <time>2015-06-25T04:35:34Z</time>
      </trkpt>
      <trkpt lat="42.15977" lon="9.0787">
        <ele>1269.2</ele>
        <time>2015-06-25T04:35:42Z</time>
      </trkpt>
      <trkpt lat="42.15977" lon="9.07872">
        <ele>1269.2</ele>
        <time>2015-06-25T04:35:44Z</time>
      </trkpt>
      <trkpt lat="42.15978" lon="9.07874">
        <ele>1268.8</ele>
        <time>2015-06-25T04:35:46Z</time>
      </trkpt>
      <trkpt lat="42.15979" lon="9.07876">
        <ele>1268.6</ele>
        <time>2015-06-25T04:35:48Z</time>
      </trkpt>
      <trkpt lat="42.15979" lon="9.07877">
        <ele>1268.6</ele>
        <time>2015-06-25T04:35:49Z</time>
      </trkpt>
      <trkpt lat="42.15983" lon="9.07878">
        <ele>1267.4</ele>
        <time>2015-06-25T04:35:55Z</time>
      </trkpt>
      <trkpt lat="42.15986" lon="9.07881">
        <ele>1266.2</ele>
        <time>2015-06-25T04:36:03Z</time>
      </trkpt>
      <trkpt lat="42.15987" lon="9.07883">
        <ele>1265.6</ele>
        <time>2015-06-25T04:36:08Z</time>
      </trkpt>
      <trkpt lat="42.15989" lon="9.07886">
        <ele>1264.8</ele>
        <time>2015-06-25T04:36:12Z</time>
      </trkpt>
      <trkpt lat="42.15991" lon="9.0789">
        <ele>1263.8</ele>
        <time>2015-06-25T04:36:16Z</time>
      </trkpt>
      <trkpt lat="42.16" lon="9.07898">
        <ele>1261.4</ele>
        <time>2015-06-25T04:36:33Z</time>
      </trkpt>
      <trkpt lat="42.16006" lon="9.07904">
        <ele>1260.6</ele>
        <time>2015-06-25T04:36:42Z</time>
      </trkpt>
      <trkpt lat="42.16007" lon="9.07909">
        <ele>1259.8</ele>
        <time>2015-06-25T04:36:49Z</time>
      </trkpt>
      <trkpt lat="42.1601" lon="9.07915">
        <ele>1258.4</ele>
        <time>2015-06-25T04:36:56Z</time>
      </trkpt>
      <trkpt lat="42.16015" lon="9.07924">
        <ele>1257</ele>
        <time>2015-06-25T04:37:07Z</time>
      </trkpt>
      <trkpt lat="42.16016" lon="9.07927">
        <ele>1256.2</ele>
        <time>2015-06-25T04:37:20Z</time>
      </trkpt>
      <trkpt lat="42.16019" lon="9.07936">
        <ele>1255.2</ele>
        <time>2015-06-25T04:37:30Z</time>
      </trkpt>
      <trkpt lat="42.16018" lon="9.07941">
        <ele>1254.2</ele>
        <time>2015-06-25T04:37:37Z</time>
      </trkpt>
      <trkpt lat="42.16021" lon="9.07949">
        <ele>1252.6</ele>
        <time>2015-06-25T04:37:45Z</time>
      </trkpt>
      <trkpt lat="42.16021" lon="9.0795">
        <ele>1252.6</ele>
        <time>2015-06-25T04:37:46Z</time>
      </trkpt>
      <trkpt lat="42.16024" lon="9.07953">
        <ele>1252.2</ele>
        <time>2015-06-25T04:37:51Z</time>
      </trkpt>
      <trkpt lat="42.16026" lon="9.07957">
        <ele>1251.6</ele>
        <time>2015-06-25T04:37:54Z</time>
      </trkpt>
      <trkpt lat="42.16029" lon="9.07963">
        <ele>1251</ele>
        <time>2015-06-25T04:38:01Z</time>
      </trkpt>
      <trkpt lat="42.16034" lon="9.0797">
        <ele>1249.4</ele>
        <time>2015-06-25T04:38:11Z</time>
      </trkpt>
      <trkpt lat="42.16036" lon="9.07978">
        <ele>1248.4</ele>
        <time>2015-06-25T04:38:25Z</time>
      </trkpt>
      <trkpt lat="42.1604" lon="9.07983">
        <ele>1247.6</ele>
        <time>2015-06-25T04:38:32Z</time>
      </trkpt>
      <trkpt lat="42.16046" lon="9.0799">
        <ele>1246.4</ele>
        <time>2015-06-25T04:38:44Z</time>
      </trkpt>
      <trkpt lat="42.1605" lon="9.07998">
        <ele>1245.2</ele>
        <time>2015-06-25T04:38:54Z</time>
      </trkpt>
      <trkpt lat="42.16053" lon="9.08003">
        <ele>1244.2</ele>
        <time>2015-06-25T04:39:02Z</time>
      </trkpt>
      <trkpt lat="42.16052" lon="9.08009">
        <ele>1243</ele>
        <time>2015-06-25T04:39:12Z</time>
      </trkpt>
      <trkpt lat="42.16051" lon="9.08013">
        <ele>1241.8</ele>
        <time>2015-06-25T04:39:19Z</time>
      </trkpt>
      <trkpt lat="42.16051" lon="9.08019">
        <ele>1241</ele>
        <time>2015-06-25T04:39:25Z</time>
      </trkpt>
      <trkpt lat="42.16054" lon="9.08024">
        <ele>1239.6</ele>
        <time>2015-06-25T04:39:32Z</time>
      </trkpt>
      <trkpt lat="42.16056" lon="9.08028">
        <ele>1238.8</ele>
        <time>2015-06-25T04:39:37Z</time>
      </trkpt>
      <trkpt lat="42.16061" lon="9.08034">
        <ele>1237.2</ele>
        <time>2015-06-25T04:39:47Z</time>
      </trkpt>
      <trkpt lat="42.16061" lon="9.08038">
        <ele>1236.2</ele>
        <time>2015-06-25T04:39:54Z</time>
      </trkpt>
      <trkpt lat="42.16063" lon="9.08042">
        <ele>1235.2</ele>
        <time>2015-06-25T04:40:01Z</time>
      </trkpt>
      <trkpt lat="42.16068" lon="9.0805">
        <ele>1233.8</ele>
        <time>2015-06-25T04:40:11Z</time>
      </trkpt>
      <trkpt lat="42.16069" lon="9.0805">
        <ele>1233.6</ele>
        <time>2015-06-25T04:40:13Z</time>
      </trkpt>
      <trkpt lat="42.16074" lon="9.08057">
        <ele>1232.6</ele>
        <time>2015-06-25T04:40:24Z</time>
      </trkpt>
      <trkpt lat="42.16079" lon="9.08063">
        <ele>1231.6</ele>
        <time>2015-06-25T04:40:32Z</time>
      </trkpt>
      <trkpt lat="42.16085" lon="9.08069">
        <ele>1230</ele>
        <time>2015-06-25T04:40:42Z</time>
      </trkpt>
      <trkpt lat="42.16088" lon="9.08074">
        <ele>1229.4</ele>
        <time>2015-06-25T04:40:48Z</time>
      </trkpt>
      <trkpt lat="42.1609" lon="9.08077">
        <ele>1229</ele>
        <time>2015-06-25T04:40:51Z</time>
      </trkpt>
      <trkpt lat="42.16092" lon="9.08079">
        <ele>1228.2</ele>
        <time>2015-06-25T04:40:54Z</time>
      </trkpt>
      <trkpt lat="42.16092" lon="9.08083">
        <ele>1227.4</ele>
        <time>2015-06-25T04:40:59Z</time>
      </trkpt>
      <trkpt lat="42.16095" lon="9.08088">
        <ele>1226</ele>
        <time>2015-06-25T04:41:06Z</time>
      </trkpt>
      <trkpt lat="42.16098" lon="9.08094">
        <ele>1224.8</ele>
        <time>2015-06-25T04:41:14Z</time>
      </trkpt>
      <trkpt lat="42.16101" lon="9.08099">
        <ele>1223.4</ele>
        <time>2015-06-25T04:41:23Z</time>
      </trkpt>
      <trkpt lat="42.16101" lon="9.08101">
        <ele>1223</ele>
        <time>2015-06-25T04:41:28Z</time>
      </trkpt>
      <trkpt lat="42.16096" lon="9.08106">
        <ele>1221.4</ele>
        <time>2015-06-25T04:41:36Z</time>
      </trkpt>
      <trkpt lat="42.16094" lon="9.08109">
        <ele>1220.6</ele>
        <time>2015-06-25T04:41:41Z</time>
      </trkpt>
      <trkpt lat="42.16094" lon="9.08113">
        <ele>1219.6</ele>
        <time>2015-06-25T04:41:46Z</time>
      </trkpt>
      <trkpt lat="42.16097" lon="9.08118">
        <ele>1218.2</ele>
        <time>2015-06-25T04:41:52Z</time>
      </trkpt>
      <trkpt lat="42.161" lon="9.08122">
        <ele>1217</ele>
        <time>2015-06-25T04:41:58Z</time>
      </trkpt>
      <trkpt lat="42.16103" lon="9.08125">
        <ele>1216</ele>
        <time>2015-06-25T04:42:03Z</time>
      </trkpt>
      <trkpt lat="42.16104" lon="9.08128">
        <ele>1214.4</ele>
        <time>2015-06-25T04:42:09Z</time>
      </trkpt>
      <trkpt lat="42.16106" lon="9.0813">
        <ele>1213.6</ele>
        <time>2015-06-25T04:42:14Z</time>
      </trkpt>
      <trkpt lat="42.16108" lon="9.08134">
        <ele>1212.6</ele>
        <time>2015-06-25T04:42:19Z</time>
      </trkpt>
      <trkpt lat="42.16111" lon="9.08136">
        <ele>1211</ele>
        <time>2015-06-25T04:42:25Z</time>
      </trkpt>
      <trkpt lat="42.16112" lon="9.08137">
        <ele>1210.8</ele>
        <time>2015-06-25T04:42:26Z</time>
      </trkpt>
      <trkpt lat="42.16115" lon="9.08139">
        <ele>1210</ele>
        <time>2015-06-25T04:42:31Z</time>
      </trkpt>
      <trkpt lat="42.16117" lon="9.08142">
        <ele>1209.4</ele>
        <time>2015-06-25T04:42:35Z</time>
      </trkpt>
      <trkpt lat="42.1612" lon="9.08146">
        <ele>1208.8</ele>
        <time>2015-06-25T04:42:41Z</time>
      </trkpt>
      <trkpt lat="42.16118" lon="9.08154">
        <ele>1207.6</ele>
        <time>2015-06-25T04:42:48Z</time>
      </trkpt>
      <trkpt lat="42.16117" lon="9.08156">
        <ele>1206.8</ele>
        <time>2015-06-25T04:42:51Z</time>
      </trkpt>
      <trkpt lat="42.16116" lon="9.08158">
        <ele>1206.4</ele>
        <time>2015-06-25T04:42:55Z</time>
      </trkpt>
      <trkpt lat="42.16114" lon="9.08162">
        <ele>1205.4</ele>
        <time>2015-06-25T04:43:01Z</time>
      </trkpt>
      <trkpt lat="42.16111" lon="9.08163">
        <ele>1204.2</ele>
        <time>2015-06-25T04:43:07Z</time>
      </trkpt>
      <trkpt lat="42.16108" lon="9.08164">
        <ele>1203.2</ele>
        <time>2015-06-25T04:43:13Z</time>
      </trkpt>
      <trkpt lat="42.16103" lon="9.08165">
        <ele>1202</ele>
        <time>2015-06-25T04:43:19Z</time>
      </trkpt>
      <trkpt lat="42.16095" lon="9.08164">
        <ele>1200</ele>
        <time>2015-06-25T04:43:29Z</time>
      </trkpt>
      <trkpt lat="42.1609" lon="9.08162">
        <ele>1199.6</ele>
        <time>2015-06-25T04:43:34Z</time>
      </trkpt>
      <trkpt lat="42.16085" lon="9.08163">
        <ele>1198.2</ele>
        <time>2015-06-25T04:43:48Z</time>
      </trkpt>
      <trkpt lat="42.16083" lon="9.08163">
        <ele>1197.4</ele>
        <time>2015-06-25T04:43:55Z</time>
      </trkpt>
      <trkpt lat="42.16079" lon="9.08159">
        <ele>1195.8</ele>
        <time>2015-06-25T04:44:03Z</time>
      </trkpt>
      <trkpt lat="42.16074" lon="9.08153">
        <ele>1195.4</ele>
        <time>2015-06-25T04:44:10Z</time>
      </trkpt>
      <trkpt lat="42.16069" lon="9.08146">
        <ele>1195.2</ele>
        <time>2015-06-25T04:44:19Z</time>
      </trkpt>
      <trkpt lat="42.16067" lon="9.08138">
        <ele>1195.2</ele>
        <time>2015-06-25T04:44:49Z</time>
      </trkpt>
      <trkpt lat="42.16064" lon="9.08131">
        <ele>1195.4</ele>
        <time>2015-06-25T04:45:00Z</time>
      </trkpt>
      <trkpt lat="42.16058" lon="9.08132">
        <ele>1196.8</ele>
        <time>2015-06-25T04:45:28Z</time>
      </trkpt>
      <trkpt lat="42.1606" lon="9.08134">
        <ele>1197.8</ele>
        <time>2015-06-25T04:46:28Z</time>
      </trkpt>
      <trkpt lat="42.16069" lon="9.08132">
        <ele>1197.8</ele>
        <time>2015-06-25T04:46:47Z</time>
      </trkpt>
      <trkpt lat="42.16068" lon="9.08137">
        <ele>1198.4</ele>
        <time>2015-06-25T04:47:10Z</time>
      </trkpt>
      <trkpt lat="42.16078" lon="9.08142">
        <ele>1197.2</ele>
        <time>2015-06-25T04:47:41Z</time>
      </trkpt>
      <trkpt lat="42.16082" lon="9.08141">
        <ele>1197.2</ele>
        <time>2015-06-25T04:47:44Z</time>
      </trkpt>
      <trkpt lat="42.16083" lon="9.0814">
        <ele>1196.8</ele>
        <time>2015-06-25T04:47:46Z</time>
      </trkpt>
      <trkpt lat="42.16084" lon="9.08139">
        <ele>1196</ele>
        <time>2015-06-25T04:47:54Z</time>
      </trkpt>
      <trkpt lat="42.16068" lon="9.08153">
        <ele>1195.4</ele>
        <time>2015-06-25T04:48:48Z</time>
      </trkpt>
      <trkpt lat="42.16076" lon="9.08161">
        <ele>1197</ele>
        <time>2015-06-25T04:49:00Z</time>
      </trkpt>
      <trkpt lat="42.16077" lon="9.08161">
        <ele>1197.2</ele>
        <time>2015-06-25T04:49:02Z</time>
      </trkpt>
      <trkpt lat="42.16076" lon="9.08163">
        <ele>1198</ele>
        <time>2015-06-25T04:49:09Z</time>
      </trkpt>
      <trkpt lat="42.16074" lon="9.08168">
        <ele>1198.8</ele>
        <time>2015-06-25T04:49:17Z</time>
      </trkpt>
      <trkpt lat="42.16078" lon="9.08172">
        <ele>1199.8</ele>
        <time>2015-06-25T04:49:25Z</time>
      </trkpt>
      <trkpt lat="42.16085" lon="9.08191">
        <ele>1199</ele>
        <time>2015-06-25T04:49:46Z</time>
      </trkpt>
      <trkpt lat="42.16083" lon="9.08202">
        <ele>1198.2</ele>
        <time>2015-06-25T04:49:54Z</time>
      </trkpt>
      <trkpt lat="42.16073" lon="9.08217">
        <ele>1196.8</ele>
        <time>2015-06-25T04:50:06Z</time>
      </trkpt>
      <trkpt lat="42.16058" lon="9.08238">
        <ele>1195.6</ele>
        <time>2015-06-25T04:50:25Z</time>
      </trkpt>
      <trkpt lat="42.16058" lon="9.08243">
        <ele>1195.4</ele>
        <time>2015-06-25T04:50:29Z</time>
      </trkpt>
      <trkpt lat="42.16057" lon="9.0825">
        <ele>1195</ele>
        <time>2015-06-25T04:50:35Z</time>
      </trkpt>
      <trkpt lat="42.16056" lon="9.08254">
        <ele>1193.6</ele>
        <time>2015-06-25T04:50:42Z</time>
      </trkpt>
      <trkpt lat="42.16054" lon="9.08257">
        <ele>1193</ele>
        <time>2015-06-25T04:50:47Z</time>
      </trkpt>
      <trkpt lat="42.16053" lon="9.08262">
        <ele>1191.6</ele>
        <time>2015-06-25T04:50:54Z</time>
      </trkpt>
      <trkpt lat="42.16052" lon="9.08266">
        <ele>1191.2</ele>
        <time>2015-06-25T04:50:57Z</time>
      </trkpt>
      <trkpt lat="42.16052" lon="9.08267">
        <ele>1191</ele>
        <time>2015-06-25T04:50:59Z</time>
      </trkpt>
      <trkpt lat="42.16052" lon="9.08272">
        <ele>1190.4</ele>
        <time>2015-06-25T04:51:03Z</time>
      </trkpt>
      <trkpt lat="42.16052" lon="9.08276">
        <ele>1189.8</ele>
        <time>2015-06-25T04:51:06Z</time>
      </trkpt>
      <trkpt lat="42.16051" lon="9.08282">
        <ele>1189.2</ele>
        <time>2015-06-25T04:51:11Z</time>
      </trkpt>
      <trkpt lat="42.16051" lon="9.08283">
        <ele>1189.2</ele>
        <time>2015-06-25T04:51:12Z</time>
      </trkpt>
      <trkpt lat="42.1605" lon="9.08285">
        <ele>1188.8</ele>
        <time>2015-06-25T04:51:15Z</time>
      </trkpt>
      <trkpt lat="42.1605" lon="9.08294">
        <ele>1188</ele>
        <time>2015-06-25T04:51:24Z</time>
      </trkpt>
      <trkpt lat="42.16049" lon="9.083">
        <ele>1187.2</ele>
        <time>2015-06-25T04:51:31Z</time>
      </trkpt>
      <trkpt lat="42.16046" lon="9.08307">
        <ele>1185.8</ele>
        <time>2015-06-25T04:51:39Z</time>
      </trkpt>
      <trkpt lat="42.16045" lon="9.08311">
        <ele>1185.4</ele>
        <time>2015-06-25T04:51:42Z</time>
      </trkpt>
      <trkpt lat="42.16044" lon="9.08316">
        <ele>1185</ele>
        <time>2015-06-25T04:51:46Z</time>
      </trkpt>
      <trkpt lat="42.16045" lon="9.0832">
        <ele>1184.6</ele>
        <time>2015-06-25T04:51:49Z</time>
      </trkpt>
      <trkpt lat="42.16046" lon="9.08324">
        <ele>1184</ele>
        <time>2015-06-25T04:51:53Z</time>
      </trkpt>
      <trkpt lat="42.16044" lon="9.08336">
        <ele>1183.4</ele>
        <time>2015-06-25T04:52:05Z</time>
      </trkpt>
      <trkpt lat="42.16046" lon="9.08345">
        <ele>1182</ele>
        <time>2015-06-25T04:52:17Z</time>
      </trkpt>
      <trkpt lat="42.1605" lon="9.08349">
        <ele>1181.4</ele>
        <time>2015-06-25T04:52:25Z</time>
      </trkpt>
      <trkpt lat="42.16052" lon="9.08352">
        <ele>1180.4</ele>
        <time>2015-06-25T04:52:31Z</time>
      </trkpt>
      <trkpt lat="42.16052" lon="9.08354">
        <ele>1180</ele>
        <time>2015-06-25T04:52:34Z</time>
      </trkpt>
      <trkpt lat="42.16053" lon="9.08355">
        <ele>1179.6</ele>
        <time>2015-06-25T04:52:36Z</time>
      </trkpt>
      <trkpt lat="42.16055" lon="9.08362">
        <ele>1177.6</ele>
        <time>2015-06-25T04:52:45Z</time>
      </trkpt>
      <trkpt lat="42.16056" lon="9.08372">
        <ele>1176.6</ele>
        <time>2015-06-25T04:52:56Z</time>
      </trkpt>
      <trkpt lat="42.16055" lon="9.0838">
        <ele>1175.6</ele>
        <time>2015-06-25T04:53:05Z</time>
      </trkpt>
      <trkpt lat="42.16056" lon="9.08386">
        <ele>1175</ele>
        <time>2015-06-25T04:53:10Z</time>
      </trkpt>
      <trkpt lat="42.16057" lon="9.08397">
        <ele>1173.6</ele>
        <time>2015-06-25T04:53:19Z</time>
      </trkpt>
      <trkpt lat="42.16056" lon="9.08402">
        <ele>1172.6</ele>
        <time>2015-06-25T04:53:25Z</time>
      </trkpt>
      <trkpt lat="42.16058" lon="9.08406">
        <ele>1171.4</ele>
        <time>2015-06-25T04:53:31Z</time>
      </trkpt>
      <trkpt lat="42.16062" lon="9.0841">
        <ele>1170</ele>
        <time>2015-06-25T04:53:40Z</time>
      </trkpt>
      <trkpt lat="42.16066" lon="9.08416">
        <ele>1169.2</ele>
        <time>2015-06-25T04:53:46Z</time>
      </trkpt>
      <trkpt lat="42.16069" lon="9.08418">
        <ele>1168.2</ele>
        <time>2015-06-25T04:53:51Z</time>
      </trkpt>
      <trkpt lat="42.16072" lon="9.08419">
        <ele>1166.8</ele>
        <time>2015-06-25T04:53:58Z</time>
      </trkpt>
      <trkpt lat="42.16077" lon="9.08422">
        <ele>1165.4</ele>
        <time>2015-06-25T04:54:06Z</time>
      </trkpt>
      <trkpt lat="42.16078" lon="9.08426">
        <ele>1164.6</ele>
        <time>2015-06-25T04:54:12Z</time>
      </trkpt>
      <trkpt lat="42.16081" lon="9.08443">
        <ele>1162.8</ele>
        <time>2015-06-25T04:54:28Z</time>
      </trkpt>
      <trkpt lat="42.16084" lon="9.08449">
        <ele>1162.6</ele>
        <time>2015-06-25T04:54:34Z</time>
      </trkpt>
      <trkpt lat="42.16084" lon="9.0845">
        <ele>1162.2</ele>
        <time>2015-06-25T04:54:35Z</time>
      </trkpt>
      <trkpt lat="42.16085" lon="9.08455">
        <ele>1161</ele>
        <time>2015-06-25T04:54:41Z</time>
      </trkpt>
      <trkpt lat="42.16086" lon="9.08459">
        <ele>1160</ele>
        <time>2015-06-25T04:54:49Z</time>
      </trkpt>
      <trkpt lat="42.16087" lon="9.08465">
        <ele>1159.4</ele>
        <time>2015-06-25T04:54:53Z</time>
      </trkpt>
      <trkpt lat="42.16087" lon="9.08471">
        <ele>1158.4</ele>
        <time>2015-06-25T04:55:00Z</time>
      </trkpt>
      <trkpt lat="42.16087" lon="9.0848">
        <ele>1157.4</ele>
        <time>2015-06-25T04:55:08Z</time>
      </trkpt>
      <trkpt lat="42.16089" lon="9.08489">
        <ele>1156.2</ele>
        <time>2015-06-25T04:55:17Z</time>
      </trkpt>
      <trkpt lat="42.1609" lon="9.08497">
        <ele>1155.2</ele>
        <time>2015-06-25T04:55:24Z</time>
      </trkpt>
      <trkpt lat="42.16089" lon="9.08508">
        <ele>1154</ele>
        <time>2015-06-25T04:55:33Z</time>
      </trkpt>
      <trkpt lat="42.16089" lon="9.08514">
        <ele>1153.4</ele>
        <time>2015-06-25T04:55:38Z</time>
      </trkpt>
      <trkpt lat="42.1609" lon="9.08519">
        <ele>1153</ele>
        <time>2015-06-25T04:55:42Z</time>
      </trkpt>
      <trkpt lat="42.1609" lon="9.08523">
        <ele>1152.8</ele>
        <time>2015-06-25T04:55:46Z</time>
      </trkpt>
      <trkpt lat="42.1609" lon="9.08526">
        <ele>1152.8</ele>
        <time>2015-06-25T04:55:49Z</time>
      </trkpt>
      <trkpt lat="42.16091" lon="9.0853">
        <ele>1152</ele>
        <time>2015-06-25T04:55:53Z</time>
      </trkpt>
      <trkpt lat="42.16092" lon="9.08531">
        <ele>1151.8</ele>
        <time>2015-06-25T04:55:55Z</time>
      </trkpt>
      <trkpt lat="42.16093" lon="9.08532">
        <ele>1151.6</ele>
        <time>2015-06-25T04:55:56Z</time>
      </trkpt>
      <trkpt lat="42.16093" lon="9.08534">
        <ele>1151.6</ele>
        <time>2015-06-25T04:55:57Z</time>
      </trkpt>
      <trkpt lat="42.16099" lon="9.08549">
        <ele>1150.2</ele>
        <time>2015-06-25T04:56:08Z</time>
      </trkpt>
      <trkpt lat="42.16103" lon="9.08562">
        <ele>1149.4</ele>
        <time>2015-06-25T04:56:21Z</time>
      </trkpt>
      <trkpt lat="42.16104" lon="9.08572">
        <ele>1148.4</ele>
        <time>2015-06-25T04:56:30Z</time>
      </trkpt>
      <trkpt lat="42.16105" lon="9.0858">
        <ele>1147.6</ele>
        <time>2015-06-25T04:56:37Z</time>
      </trkpt>
      <trkpt lat="42.16105" lon="9.08589">
        <ele>1146.2</ele>
        <time>2015-06-25T04:56:45Z</time>
      </trkpt>
      <trkpt lat="42.16107" lon="9.08594">
        <ele>1145.2</ele>
        <time>2015-06-25T04:56:53Z</time>
      </trkpt>
      <trkpt lat="42.1611" lon="9.08599">
        <ele>1144</ele>
        <time>2015-06-25T04:57:03Z</time>
      </trkpt>
      <trkpt lat="42.16112" lon="9.08607">
        <ele>1143</ele>
        <time>2015-06-25T04:57:12Z</time>
      </trkpt>
      <trkpt lat="42.16115" lon="9.08612">
        <ele>1142.8</ele>
        <time>2015-06-25T04:57:17Z</time>
      </trkpt>
      <trkpt lat="42.16116" lon="9.08617">
        <ele>1142.4</ele>
        <time>2015-06-25T04:57:20Z</time>
      </trkpt>
      <trkpt lat="42.16117" lon="9.08621">
        <ele>1142.2</ele>
        <time>2015-06-25T04:57:23Z</time>
      </trkpt>
      <trkpt lat="42.16117" lon="9.08623">
        <ele>1141.8</ele>
        <time>2015-06-25T04:57:25Z</time>
      </trkpt>
      <trkpt lat="42.16122" lon="9.08652">
        <ele>1140.4</ele>
        <time>2015-06-25T04:57:44Z</time>
      </trkpt>
      <trkpt lat="42.16123" lon="9.08667">
        <ele>1139.6</ele>
        <time>2015-06-25T04:57:55Z</time>
      </trkpt>
      <trkpt lat="42.1613" lon="9.0868">
        <ele>1138.2</ele>
        <time>2015-06-25T04:58:05Z</time>
      </trkpt>
      <trkpt lat="42.16133" lon="9.0869">
        <ele>1137.4</ele>
        <time>2015-06-25T04:58:13Z</time>
      </trkpt>
      <trkpt lat="42.16133" lon="9.08708">
        <ele>1136</ele>
        <time>2015-06-25T04:58:24Z</time>
      </trkpt>
      <trkpt lat="42.16138" lon="9.08719">
        <ele>1135</ele>
        <time>2015-06-25T04:58:33Z</time>
      </trkpt>
      <trkpt lat="42.16144" lon="9.08729">
        <ele>1133.8</ele>
        <time>2015-06-25T04:58:41Z</time>
      </trkpt>
      <trkpt lat="42.16143" lon="9.08743">
        <ele>1132.6</ele>
        <time>2015-06-25T04:58:52Z</time>
      </trkpt>
      <trkpt lat="42.1614" lon="9.08756">
        <ele>1131.6</ele>
        <time>2015-06-25T04:59:03Z</time>
      </trkpt>
      <trkpt lat="42.16138" lon="9.08769">
        <ele>1130.2</ele>
        <time>2015-06-25T04:59:13Z</time>
      </trkpt>
      <trkpt lat="42.16133" lon="9.08784">
        <ele>1129.4</ele>
        <time>2015-06-25T04:59:26Z</time>
      </trkpt>
      <trkpt lat="42.1613" lon="9.08796">
        <ele>1128.6</ele>
        <time>2015-06-25T04:59:34Z</time>
      </trkpt>
      <trkpt lat="42.16131" lon="9.08807">
        <ele>1127.4</ele>
        <time>2015-06-25T04:59:42Z</time>
      </trkpt>
      <trkpt lat="42.16129" lon="9.08813">
        <ele>1126.6</ele>
        <time>2015-06-25T04:59:48Z</time>
      </trkpt>
      <trkpt lat="42.16128" lon="9.08818">
        <ele>1125.4</ele>
        <time>2015-06-25T04:59:54Z</time>
      </trkpt>
      <trkpt lat="42.16124" lon="9.08821">
        <ele>1124.2</ele>
        <time>2015-06-25T05:00:02Z</time>
      </trkpt>
      <trkpt lat="42.16123" lon="9.08833">
        <ele>1123.2</ele>
        <time>2015-06-25T05:00:12Z</time>
      </trkpt>
      <trkpt lat="42.16127" lon="9.08848">
        <ele>1122.4</ele>
        <time>2015-06-25T05:00:23Z</time>
      </trkpt>
      <trkpt lat="42.1613" lon="9.08861">
        <ele>1122.2</ele>
        <time>2015-06-25T05:00:30Z</time>
      </trkpt>
      <trkpt lat="42.16132" lon="9.0887">
        <ele>1121.4</ele>
        <time>2015-06-25T05:00:36Z</time>
      </trkpt>
      <trkpt lat="42.16134" lon="9.08882">
        <ele>1119.8</ele>
        <time>2015-06-25T05:00:45Z</time>
      </trkpt>
      <trkpt lat="42.16136" lon="9.08887">
        <ele>1119</ele>
        <time>2015-06-25T05:00:51Z</time>
      </trkpt>
      <trkpt lat="42.16139" lon="9.08891">
        <ele>1118.2</ele>
        <time>2015-06-25T05:00:55Z</time>
      </trkpt>
      <trkpt lat="42.16141" lon="9.08894">
        <ele>1117.8</ele>
        <time>2015-06-25T05:00:59Z</time>
      </trkpt>
      <trkpt lat="42.16145" lon="9.089">
        <ele>1116.6</ele>
        <time>2015-06-25T05:01:05Z</time>
      </trkpt>
      <trkpt lat="42.16148" lon="9.08908">
        <ele>1115.8</ele>
        <time>2015-06-25T05:01:11Z</time>
      </trkpt>
      <trkpt lat="42.16152" lon="9.08915">
        <ele>1114.4</ele>
        <time>2015-06-25T05:01:18Z</time>
      </trkpt>
      <trkpt lat="42.16156" lon="9.08922">
        <ele>1113.4</ele>
        <time>2015-06-25T05:01:24Z</time>
      </trkpt>
      <trkpt lat="42.16155" lon="9.08929">
        <ele>1112</ele>
        <time>2015-06-25T05:01:32Z</time>
      </trkpt>
      <trkpt lat="42.16156" lon="9.08934">
        <ele>1110.8</ele>
        <time>2015-06-25T05:01:39Z</time>
      </trkpt>
      <trkpt lat="42.16151" lon="9.08948">
        <ele>1109.2</ele>
        <time>2015-06-25T05:02:38Z</time>
      </trkpt>
      <trkpt lat="42.16159" lon="9.08959">
        <ele>1108</ele>
        <time>2015-06-25T05:02:52Z</time>
      </trkpt>
      <trkpt lat="42.16168" lon="9.08969">
        <ele>1107.4</ele>
        <time>2015-06-25T05:03:02Z</time>
      </trkpt>
      <trkpt lat="42.16171" lon="9.08977">
        <ele>1106.4</ele>
        <time>2015-06-25T05:03:10Z</time>
      </trkpt>
      <trkpt lat="42.16177" lon="9.08987">
        <ele>1105.2</ele>
        <time>2015-06-25T05:03:19Z</time>
      </trkpt>
      <trkpt lat="42.16179" lon="9.08989">
        <ele>1104.8</ele>
        <time>2015-06-25T05:03:21Z</time>
      </trkpt>
      <trkpt lat="42.16184" lon="9.08996">
        <ele>1104.4</ele>
        <time>2015-06-25T05:03:26Z</time>
      </trkpt>
      <trkpt lat="42.16187" lon="9.08999">
        <ele>1104.2</ele>
        <time>2015-06-25T05:03:29Z</time>
      </trkpt>
      <trkpt lat="42.16188" lon="9.09003">
        <ele>1104.2</ele>
        <time>2015-06-25T05:03:32Z</time>
      </trkpt>
      <trkpt lat="42.16188" lon="9.09004">
        <ele>1104</ele>
        <time>2015-06-25T05:03:33Z</time>
      </trkpt>
      <trkpt lat="42.16188" lon="9.09009">
        <ele>1103.6</ele>
        <time>2015-06-25T05:03:36Z</time>
      </trkpt>
      <trkpt lat="42.1619" lon="9.09017">
        <ele>1103.2</ele>
        <time>2015-06-25T05:03:41Z</time>
      </trkpt>
      <trkpt lat="42.16191" lon="9.09022">
        <ele>1103</ele>
        <time>2015-06-25T05:03:44Z</time>
      </trkpt>
      <trkpt lat="42.16194" lon="9.09033">
        <ele>1102.4</ele>
        <time>2015-06-25T05:03:53Z</time>
      </trkpt>
      <trkpt lat="42.16198" lon="9.09039">
        <ele>1102.2</ele>
        <time>2015-06-25T05:03:58Z</time>
      </trkpt>
      <trkpt lat="42.16203" lon="9.09053">
        <ele>1101</ele>
        <time>2015-06-25T05:04:08Z</time>
      </trkpt>
      <trkpt lat="42.16205" lon="9.09061">
        <ele>1100.2</ele>
        <time>2015-06-25T05:04:15Z</time>
      </trkpt>
      <trkpt lat="42.16208" lon="9.09069">
        <ele>1099.2</ele>
        <time>2015-06-25T05:04:22Z</time>
      </trkpt>
      <trkpt lat="42.1621" lon="9.09072">
        <ele>1098.6</ele>
        <time>2015-06-25T05:04:26Z</time>
      </trkpt>
      <trkpt lat="42.16211" lon="9.09073">
        <ele>1098</ele>
        <time>2015-06-25T05:04:29Z</time>
      </trkpt>
      <trkpt lat="42.16213" lon="9.09076">
        <ele>1096.8</ele>
        <time>2015-06-25T05:04:37Z</time>
      </trkpt>
      <trkpt lat="42.16215" lon="9.0908">
        <ele>1095.8</ele>
        <time>2015-06-25T05:04:43Z</time>
      </trkpt>
      <trkpt lat="42.16217" lon="9.09087">
        <ele>1095</ele>
        <time>2015-06-25T05:04:48Z</time>
      </trkpt>
      <trkpt lat="42.16218" lon="9.09088">
        <ele>1095</ele>
        <time>2015-06-25T05:04:49Z</time>
      </trkpt>
      <trkpt lat="42.16218" lon="9.09091">
        <ele>1094.4</ele>
        <time>2015-06-25T05:04:52Z</time>
      </trkpt>
      <trkpt lat="42.16221" lon="9.09093">
        <ele>1094</ele>
        <time>2015-06-25T05:04:55Z</time>
      </trkpt>
      <trkpt lat="42.16221" lon="9.09093">
        <ele>1093.8</ele>
        <time>2015-06-25T05:04:56Z</time>
      </trkpt>
      <trkpt lat="42.16222" lon="9.09095">
        <ele>1093.4</ele>
        <time>2015-06-25T05:04:58Z</time>
      </trkpt>
      <trkpt lat="42.16224" lon="9.09102">
        <ele>1093</ele>
        <time>2015-06-25T05:05:02Z</time>
      </trkpt>
      <trkpt lat="42.16228" lon="9.09106">
        <ele>1092.4</ele>
        <time>2015-06-25T05:05:06Z</time>
      </trkpt>
      <trkpt lat="42.16228" lon="9.09107">
        <ele>1092.4</ele>
        <time>2015-06-25T05:05:07Z</time>
      </trkpt>
      <trkpt lat="42.16229" lon="9.09108">
        <ele>1092.4</ele>
        <time>2015-06-25T05:05:09Z</time>
      </trkpt>
      <trkpt lat="42.16231" lon="9.09111">
        <ele>1091.8</ele>
        <time>2015-06-25T05:05:14Z</time>
      </trkpt>
      <trkpt lat="42.16233" lon="9.09123">
        <ele>1090.8</ele>
        <time>2015-06-25T05:05:22Z</time>
      </trkpt>
      <trkpt lat="42.16235" lon="9.09131">
        <ele>1089.8</ele>
        <time>2015-06-25T05:05:29Z</time>
      </trkpt>
      <trkpt lat="42.16238" lon="9.09137">
        <ele>1089</ele>
        <time>2015-06-25T05:05:35Z</time>
      </trkpt>
      <trkpt lat="42.16239" lon="9.09139">
        <ele>1088.6</ele>
        <time>2015-06-25T05:05:37Z</time>
      </trkpt>
      <trkpt lat="42.16241" lon="9.09146">
        <ele>1087.8</ele>
        <time>2015-06-25T05:05:41Z</time>
      </trkpt>
      <trkpt lat="42.16242" lon="9.09147">
        <ele>1087.6</ele>
        <time>2015-06-25T05:05:42Z</time>
      </trkpt>
      <trkpt lat="42.16244" lon="9.09152">
        <ele>1087</ele>
        <time>2015-06-25T05:05:47Z</time>
      </trkpt>
      <trkpt lat="42.16246" lon="9.09157">
        <ele>1086</ele>
        <time>2015-06-25T05:05:51Z</time>
      </trkpt>
      <trkpt lat="42.16246" lon="9.09159">
        <ele>1085.6</ele>
        <time>2015-06-25T05:05:53Z</time>
      </trkpt>
      <trkpt lat="42.16247" lon="9.0916">
        <ele>1085.6</ele>
        <time>2015-06-25T05:05:54Z</time>
      </trkpt>
      <trkpt lat="42.16248" lon="9.09162">
        <ele>1084.8</ele>
        <time>2015-06-25T05:05:58Z</time>
      </trkpt>
      <trkpt lat="42.1625" lon="9.09169">
        <ele>1083.4</ele>
        <time>2015-06-25T05:06:05Z</time>
      </trkpt>
      <trkpt lat="42.16255" lon="9.09176">
        <ele>1082.4</ele>
        <time>2015-06-25T05:06:12Z</time>
      </trkpt>
      <trkpt lat="42.16261" lon="9.09186">
        <ele>1081.2</ele>
        <time>2015-06-25T05:06:21Z</time>
      </trkpt>
      <trkpt lat="42.16267" lon="9.09192">
        <ele>1080</ele>
        <time>2015-06-25T05:06:29Z</time>
      </trkpt>
      <trkpt lat="42.16267" lon="9.09193">
        <ele>1080</ele>
        <time>2015-06-25T05:06:30Z</time>
      </trkpt>
      <trkpt lat="42.1627" lon="9.09202">
        <ele>1079</ele>
        <time>2015-06-25T05:06:39Z</time>
      </trkpt>
      <trkpt lat="42.16273" lon="9.09208">
        <ele>1078.2</ele>
        <time>2015-06-25T05:06:47Z</time>
      </trkpt>
      <trkpt lat="42.16274" lon="9.09214">
        <ele>1077.2</ele>
        <time>2015-06-25T05:06:55Z</time>
      </trkpt>
      <trkpt lat="42.16275" lon="9.09216">
        <ele>1077</ele>
        <time>2015-06-25T05:06:56Z</time>
      </trkpt>
      <trkpt lat="42.16277" lon="9.09224">
        <ele>1076.2</ele>
        <time>2015-06-25T05:07:04Z</time>
      </trkpt>
      <trkpt lat="42.16281" lon="9.09229">
        <ele>1075.2</ele>
        <time>2015-06-25T05:07:11Z</time>
      </trkpt>
      <trkpt lat="42.16287" lon="9.09237">
        <ele>1074.2</ele>
        <time>2015-06-25T05:07:19Z</time>
      </trkpt>
      <trkpt lat="42.16289" lon="9.09245">
        <ele>1073</ele>
        <time>2015-06-25T05:07:28Z</time>
      </trkpt>
      <trkpt lat="42.16292" lon="9.09253">
        <ele>1072</ele>
        <time>2015-06-25T05:07:41Z</time>
      </trkpt>
      <trkpt lat="42.16293" lon="9.09262">
        <ele>1071</ele>
        <time>2015-06-25T05:07:50Z</time>
      </trkpt>
      <trkpt lat="42.16298" lon="9.0927">
        <ele>1070</ele>
        <time>2015-06-25T05:07:59Z</time>
      </trkpt>
      <trkpt lat="42.16301" lon="9.09274">
        <ele>1069.6</ele>
        <time>2015-06-25T05:08:04Z</time>
      </trkpt>
      <trkpt lat="42.16303" lon="9.09277">
        <ele>1069.4</ele>
        <time>2015-06-25T05:08:07Z</time>
      </trkpt>
      <trkpt lat="42.16305" lon="9.09279">
        <ele>1069</ele>
        <time>2015-06-25T05:08:09Z</time>
      </trkpt>
      <trkpt lat="42.16311" lon="9.09289">
        <ele>1068</ele>
        <time>2015-06-25T05:08:19Z</time>
      </trkpt>
      <trkpt lat="42.16315" lon="9.09297">
        <ele>1066.8</ele>
        <time>2015-06-25T05:08:29Z</time>
      </trkpt>
      <trkpt lat="42.16315" lon="9.09297">
        <ele>1065.6</ele>
        <time>2015-06-25T05:08:48Z</time>
      </trkpt>
      <trkpt lat="42.16313" lon="9.09302">
        <ele>1065.8</ele>
        <time>2015-06-25T05:10:50Z</time>
      </trkpt>
      <trkpt lat="42.16321" lon="9.09312">
        <ele>1065.8</ele>
        <time>2015-06-25T05:12:32Z</time>
      </trkpt>
      <trkpt lat="42.16328" lon="9.09323">
        <ele>1064.8</ele>
        <time>2015-06-25T05:12:45Z</time>
      </trkpt>
      <trkpt lat="42.16333" lon="9.09331">
        <ele>1063.8</ele>
        <time>2015-06-25T05:12:54Z</time>
      </trkpt>
      <trkpt lat="42.16338" lon="9.09337">
        <ele>1063.2</ele>
        <time>2015-06-25T05:13:02Z</time>
      </trkpt>
      <trkpt lat="42.16342" lon="9.09346">
        <ele>1062</ele>
        <time>2015-06-25T05:13:11Z</time>
      </trkpt>
      <trkpt lat="42.16348" lon="9.09355">
        <ele>1060.8</ele>
        <time>2015-06-25T05:13:21Z</time>
      </trkpt>
      <trkpt lat="42.16352" lon="9.09362">
        <ele>1060</ele>
        <time>2015-06-25T05:13:30Z</time>
      </trkpt>
      <trkpt lat="42.16358" lon="9.09371">
        <ele>1058.8</ele>
        <time>2015-06-25T05:13:42Z</time>
      </trkpt>
      <trkpt lat="42.16363" lon="9.09373">
        <ele>1057.8</ele>
        <time>2015-06-25T05:13:52Z</time>
      </trkpt>
      <trkpt lat="42.16365" lon="9.09375">
        <ele>1057.8</ele>
        <time>2015-06-25T05:13:54Z</time>
      </trkpt>
      <trkpt lat="42.16377" lon="9.09384">
        <ele>1056.6</ele>
        <time>2015-06-25T05:14:05Z</time>
      </trkpt>
      <trkpt lat="42.16392" lon="9.09398">
        <ele>1055.6</ele>
        <time>2015-06-25T05:14:21Z</time>
      </trkpt>
      <trkpt lat="42.16406" lon="9.09414">
        <ele>1054.6</ele>
        <time>2015-06-25T05:14:34Z</time>
      </trkpt>
      <trkpt lat="42.16411" lon="9.09427">
        <ele>1053.6</ele>
        <time>2015-06-25T05:14:44Z</time>
      </trkpt>
      <trkpt lat="42.16415" lon="9.09436">
        <ele>1052.8</ele>
        <time>2015-06-25T05:14:52Z</time>
      </trkpt>
      <trkpt lat="42.16419" lon="9.09444">
        <ele>1051.6</ele>
        <time>2015-06-25T05:15:00Z</time>
      </trkpt>
      <trkpt lat="42.16423" lon="9.09453">
        <ele>1050.8</ele>
        <time>2015-06-25T05:15:08Z</time>
      </trkpt>
      <trkpt lat="42.16428" lon="9.09463">
        <ele>1049.4</ele>
        <time>2015-06-25T05:15:17Z</time>
      </trkpt>
      <trkpt lat="42.16431" lon="9.09472">
        <ele>1048.2</ele>
        <time>2015-06-25T05:15:27Z</time>
      </trkpt>
      <trkpt lat="42.16436" lon="9.09488">
        <ele>1047.2</ele>
        <time>2015-06-25T05:15:39Z</time>
      </trkpt>
      <trkpt lat="42.16441" lon="9.09496">
        <ele>1046.4</ele>
        <time>2015-06-25T05:15:47Z</time>
      </trkpt>
      <trkpt lat="42.16445" lon="9.09505">
        <ele>1045.6</ele>
        <time>2015-06-25T05:15:55Z</time>
      </trkpt>
      <trkpt lat="42.1645" lon="9.09516">
        <ele>1044.2</ele>
        <time>2015-06-25T05:16:04Z</time>
      </trkpt>
      <trkpt lat="42.16458" lon="9.09524">
        <ele>1043</ele>
        <time>2015-06-25T05:16:14Z</time>
      </trkpt>
      <trkpt lat="42.16468" lon="9.09536">
        <ele>1042</ele>
        <time>2015-06-25T05:16:27Z</time>
      </trkpt>
      <trkpt lat="42.16477" lon="9.09553">
        <ele>1040.6</ele>
        <time>2015-06-25T05:16:41Z</time>
      </trkpt>
      <trkpt lat="42.16478" lon="9.0956">
        <ele>1040.4</ele>
        <time>2015-06-25T05:16:47Z</time>
      </trkpt>
      <trkpt lat="42.1648" lon="9.09563">
        <ele>1039.8</ele>
        <time>2015-06-25T05:16:51Z</time>
      </trkpt>
      <trkpt lat="42.16482" lon="9.09574">
        <ele>1038.6</ele>
        <time>2015-06-25T05:17:03Z</time>
      </trkpt>
      <trkpt lat="42.16486" lon="9.09582">
        <ele>1037.4</ele>
        <time>2015-06-25T05:17:15Z</time>
      </trkpt>
      <trkpt lat="42.16489" lon="9.09594">
        <ele>1036.4</ele>
        <time>2015-06-25T05:17:28Z</time>
      </trkpt>
      <trkpt lat="42.16491" lon="9.09607">
        <ele>1035.4</ele>
        <time>2015-06-25T05:17:39Z</time>
      </trkpt>
      <trkpt lat="42.16496" lon="9.09622">
        <ele>1034.4</ele>
        <time>2015-06-25T05:17:52Z</time>
      </trkpt>
      <trkpt lat="42.16499" lon="9.09641">
        <ele>1033</ele>
        <time>2015-06-25T05:18:06Z</time>
      </trkpt>
      <trkpt lat="42.16502" lon="9.09667">
        <ele>1032</ele>
        <time>2015-06-25T05:18:24Z</time>
      </trkpt>
      <trkpt lat="42.16501" lon="9.09686">
        <ele>1031</ele>
        <time>2015-06-25T05:18:36Z</time>
      </trkpt>
      <trkpt lat="42.16501" lon="9.09695">
        <ele>1030.2</ele>
        <time>2015-06-25T05:18:43Z</time>
      </trkpt>
      <trkpt lat="42.16505" lon="9.09709">
        <ele>1028.8</ele>
        <time>2015-06-25T05:18:52Z</time>
      </trkpt>
      <trkpt lat="42.16509" lon="9.0972">
        <ele>1028</ele>
        <time>2015-06-25T05:19:01Z</time>
      </trkpt>
      <trkpt lat="42.16523" lon="9.09735">
        <ele>1026.2</ele>
        <time>2015-06-25T05:19:22Z</time>
      </trkpt>
      <trkpt lat="42.16527" lon="9.09741">
        <ele>1026</ele>
        <time>2015-06-25T05:19:29Z</time>
      </trkpt>
      <trkpt lat="42.16532" lon="9.09752">
        <ele>1024.6</ele>
        <time>2015-06-25T05:19:37Z</time>
      </trkpt>
      <trkpt lat="42.16536" lon="9.09758">
        <ele>1023.4</ele>
        <time>2015-06-25T05:19:45Z</time>
      </trkpt>
      <trkpt lat="42.16544" lon="9.09771">
        <ele>1022.4</ele>
        <time>2015-06-25T05:19:56Z</time>
      </trkpt>
      <trkpt lat="42.16555" lon="9.09786">
        <ele>1021.4</ele>
        <time>2015-06-25T05:20:06Z</time>
      </trkpt>
      <trkpt lat="42.16559" lon="9.09793">
        <ele>1020.2</ele>
        <time>2015-06-25T05:20:14Z</time>
      </trkpt>
      <trkpt lat="42.16562" lon="9.09799">
        <ele>1019.4</ele>
        <time>2015-06-25T05:20:21Z</time>
      </trkpt>
      <trkpt lat="42.16568" lon="9.0981">
        <ele>1018</ele>
        <time>2015-06-25T05:20:32Z</time>
      </trkpt>
      <trkpt lat="42.1657" lon="9.09818">
        <ele>1017</ele>
        <time>2015-06-25T05:20:40Z</time>
      </trkpt>
      <trkpt lat="42.16573" lon="9.09822">
        <ele>1015.8</ele>
        <time>2015-06-25T05:20:48Z</time>
      </trkpt>
      <trkpt lat="42.16579" lon="9.09829">
        <ele>1015</ele>
        <time>2015-06-25T05:20:57Z</time>
      </trkpt>
      <trkpt lat="42.16579" lon="9.0983">
        <ele>1014.8</ele>
        <time>2015-06-25T05:20:59Z</time>
      </trkpt>
      <trkpt lat="42.16579" lon="9.09837">
        <ele>1013.8</ele>
        <time>2015-06-25T05:21:06Z</time>
      </trkpt>
      <trkpt lat="42.16581" lon="9.09854">
        <ele>1012.4</ele>
        <time>2015-06-25T05:21:19Z</time>
      </trkpt>
      <trkpt lat="42.16586" lon="9.09864">
        <ele>1011.8</ele>
        <time>2015-06-25T05:21:26Z</time>
      </trkpt>
      <trkpt lat="42.16591" lon="9.09874">
        <ele>1010.8</ele>
        <time>2015-06-25T05:21:34Z</time>
      </trkpt>
      <trkpt lat="42.16594" lon="9.09886">
        <ele>1009.8</ele>
        <time>2015-06-25T05:21:43Z</time>
      </trkpt>
      <trkpt lat="42.16595" lon="9.09896">
        <ele>1008.8</ele>
        <time>2015-06-25T05:21:52Z</time>
      </trkpt>
      <trkpt lat="42.16595" lon="9.09904">
        <ele>1007.8</ele>
        <time>2015-06-25T05:21:59Z</time>
      </trkpt>
      <trkpt lat="42.16594" lon="9.09913">
        <ele>1006.8</ele>
        <time>2015-06-25T05:22:06Z</time>
      </trkpt>
      <trkpt lat="42.16596" lon="9.09925">
        <ele>1005.8</ele>
        <time>2015-06-25T05:22:13Z</time>
      </trkpt>
      <trkpt lat="42.166" lon="9.09934">
        <ele>1005</ele>
        <time>2015-06-25T05:22:19Z</time>
      </trkpt>
      <trkpt lat="42.16604" lon="9.09942">
        <ele>1003.6</ele>
        <time>2015-06-25T05:22:26Z</time>
      </trkpt>
      <trkpt lat="42.16607" lon="9.09947">
        <ele>1002.8</ele>
        <time>2015-06-25T05:22:32Z</time>
      </trkpt>
      <trkpt lat="42.1661" lon="9.09952">
        <ele>1001</ele>
        <time>2015-06-25T05:22:46Z</time>
      </trkpt>
      <trkpt lat="42.16613" lon="9.09961">
        <ele>1000.4</ele>
        <time>2015-06-25T05:22:58Z</time>
      </trkpt>
      <trkpt lat="42.16614" lon="9.09975">
        <ele>998.8</ele>
        <time>2015-06-25T05:23:09Z</time>
      </trkpt>
      <trkpt lat="42.16619" lon="9.09992">
        <ele>998.4</ele>
        <time>2015-06-25T05:23:23Z</time>
      </trkpt>
      <trkpt lat="42.1662" lon="9.09994">
        <ele>998.2</ele>
        <time>2015-06-25T05:23:25Z</time>
      </trkpt>
      <trkpt lat="42.1662" lon="9.09996">
        <ele>998</ele>
        <time>2015-06-25T05:23:27Z</time>
      </trkpt>
      <trkpt lat="42.16621" lon="9.09997">
        <ele>997.8</ele>
        <time>2015-06-25T05:23:28Z</time>
      </trkpt>
      <trkpt lat="42.16621" lon="9.10002">
        <ele>996.6</ele>
        <time>2015-06-25T05:23:34Z</time>
      </trkpt>
      <trkpt lat="42.16624" lon="9.10004">
        <ele>995.4</ele>
        <time>2015-06-25T05:23:40Z</time>
      </trkpt>
      <trkpt lat="42.16627" lon="9.10005">
        <ele>994</ele>
        <time>2015-06-25T05:23:47Z</time>
      </trkpt>
      <trkpt lat="42.16633" lon="9.10008">
        <ele>992.8</ele>
        <time>2015-06-25T05:23:55Z</time>
      </trkpt>
      <trkpt lat="42.16633" lon="9.10009">
        <ele>992.8</ele>
        <time>2015-06-25T05:23:56Z</time>
      </trkpt>
      <trkpt lat="42.16636" lon="9.10011">
        <ele>992.4</ele>
        <time>2015-06-25T05:23:58Z</time>
      </trkpt>
      <trkpt lat="42.16641" lon="9.10015">
        <ele>992</ele>
        <time>2015-06-25T05:24:02Z</time>
      </trkpt>
      <trkpt lat="42.16648" lon="9.10021">
        <ele>991</ele>
        <time>2015-06-25T05:24:10Z</time>
      </trkpt>
      <trkpt lat="42.16652" lon="9.10021">
        <ele>990.6</ele>
        <time>2015-06-25T05:24:15Z</time>
      </trkpt>
      <trkpt lat="42.16656" lon="9.10021">
        <ele>990.2</ele>
        <time>2015-06-25T05:24:20Z</time>
      </trkpt>
      <trkpt lat="42.16658" lon="9.10022">
        <ele>990</ele>
        <time>2015-06-25T05:24:22Z</time>
      </trkpt>
      <trkpt lat="42.16662" lon="9.10022">
        <ele>989.6</ele>
        <time>2015-06-25T05:24:27Z</time>
      </trkpt>
      <trkpt lat="42.16664" lon="9.10023">
        <ele>989</ele>
        <time>2015-06-25T05:24:30Z</time>
      </trkpt>
      <trkpt lat="42.1667" lon="9.10025">
        <ele>987.4</ele>
        <time>2015-06-25T05:24:51Z</time>
      </trkpt>
      <trkpt lat="42.16677" lon="9.10024">
        <ele>986.6</ele>
        <time>2015-06-25T05:25:06Z</time>
      </trkpt>
      <trkpt lat="42.1668" lon="9.10025">
        <ele>985.8</ele>
        <time>2015-06-25T05:25:13Z</time>
      </trkpt>
      <trkpt lat="42.16685" lon="9.10029">
        <ele>984.8</ele>
        <time>2015-06-25T05:25:20Z</time>
      </trkpt>
      <trkpt lat="42.16686" lon="9.10029">
        <ele>984.8</ele>
        <time>2015-06-25T05:25:21Z</time>
      </trkpt>
      <trkpt lat="42.16692" lon="9.10032">
        <ele>983</ele>
        <time>2015-06-25T05:25:39Z</time>
      </trkpt>
      <trkpt lat="42.16696" lon="9.10033">
        <ele>982.4</ele>
        <time>2015-06-25T05:25:46Z</time>
      </trkpt>
      <trkpt lat="42.16702" lon="9.10033">
        <ele>981.2</ele>
        <time>2015-06-25T05:25:54Z</time>
      </trkpt>
      <trkpt lat="42.16707" lon="9.10035">
        <ele>980.2</ele>
        <time>2015-06-25T05:26:01Z</time>
      </trkpt>
      <trkpt lat="42.16713" lon="9.10038">
        <ele>979</ele>
        <time>2015-06-25T05:26:09Z</time>
      </trkpt>
      <trkpt lat="42.16718" lon="9.10041">
        <ele>978</ele>
        <time>2015-06-25T05:26:16Z</time>
      </trkpt>
      <trkpt lat="42.16723" lon="9.10042">
        <ele>976.8</ele>
        <time>2015-06-25T05:26:23Z</time>
      </trkpt>
      <trkpt lat="42.16727" lon="9.10045">
        <ele>975.6</ele>
        <time>2015-06-25T05:26:30Z</time>
      </trkpt>
      <trkpt lat="42.16731" lon="9.10049">
        <ele>974.4</ele>
        <time>2015-06-25T05:26:39Z</time>
      </trkpt>
      <trkpt lat="42.16736" lon="9.10051">
        <ele>973.4</ele>
        <time>2015-06-25T05:26:46Z</time>
      </trkpt>
      <trkpt lat="42.16739" lon="9.10053">
        <ele>972.2</ele>
        <time>2015-06-25T05:26:53Z</time>
      </trkpt>
      <trkpt lat="42.16743" lon="9.10055">
        <ele>971.4</ele>
        <time>2015-06-25T05:26:59Z</time>
      </trkpt>
      <trkpt lat="42.16747" lon="9.10058">
        <ele>970.2</ele>
        <time>2015-06-25T05:27:05Z</time>
      </trkpt>
      <trkpt lat="42.16753" lon="9.10062">
        <ele>968.8</ele>
        <time>2015-06-25T05:27:13Z</time>
      </trkpt>
      <trkpt lat="42.16754" lon="9.10063">
        <ele>968.6</ele>
        <time>2015-06-25T05:27:14Z</time>
      </trkpt>
      <trkpt lat="42.16758" lon="9.10067">
        <ele>967.8</ele>
        <time>2015-06-25T05:27:19Z</time>
      </trkpt>
      <trkpt lat="42.16762" lon="9.1007">
        <ele>966.4</ele>
        <time>2015-06-25T05:27:27Z</time>
      </trkpt>
      <trkpt lat="42.16767" lon="9.10075">
        <ele>965.6</ele>
        <time>2015-06-25T05:27:34Z</time>
      </trkpt>
      <trkpt lat="42.16774" lon="9.10082">
        <ele>964.2</ele>
        <time>2015-06-25T05:27:43Z</time>
      </trkpt>
      <trkpt lat="42.16783" lon="9.1009">
        <ele>962.8</ele>
        <time>2015-06-25T05:27:55Z</time>
      </trkpt>
      <trkpt lat="42.16787" lon="9.10098">
        <ele>962.2</ele>
        <time>2015-06-25T05:28:04Z</time>
      </trkpt>
      <trkpt lat="42.16788" lon="9.10107">
        <ele>961</ele>
        <time>2015-06-25T05:28:13Z</time>
      </trkpt>
      <trkpt lat="42.16792" lon="9.10117">
        <ele>960</ele>
        <time>2015-06-25T05:28:20Z</time>
      </trkpt>
      <trkpt lat="42.16796" lon="9.10127">
        <ele>958.6</ele>
        <time>2015-06-25T05:28:28Z</time>
      </trkpt>
      <trkpt lat="42.168" lon="9.10127">
        <ele>957.4</ele>
        <time>2015-06-25T05:28:38Z</time>
      </trkpt>
      <trkpt lat="42.16803" lon="9.10124">
        <ele>956.6</ele>
        <time>2015-06-25T05:28:44Z</time>
      </trkpt>
      <trkpt lat="42.16805" lon="9.10118">
        <ele>955.2</ele>
        <time>2015-06-25T05:28:54Z</time>
      </trkpt>
      <trkpt lat="42.16806" lon="9.10115">
        <ele>954.4</ele>
        <time>2015-06-25T05:29:01Z</time>
      </trkpt>
      <trkpt lat="42.1681" lon="9.10112">
        <ele>953.6</ele>
        <time>2015-06-25T05:29:06Z</time>
      </trkpt>
      <trkpt lat="42.1681" lon="9.10111">
        <ele>953.4</ele>
        <time>2015-06-25T05:29:07Z</time>
      </trkpt>
      <trkpt lat="42.16812" lon="9.10108">
        <ele>952.6</ele>
        <time>2015-06-25T05:29:12Z</time>
      </trkpt>
      <trkpt lat="42.16813" lon="9.10108">
        <ele>952</ele>
        <time>2015-06-25T05:29:14Z</time>
      </trkpt>
      <trkpt lat="42.16822" lon="9.101">
        <ele>950.6</ele>
        <time>2015-06-25T05:29:38Z</time>
      </trkpt>
      <trkpt lat="42.16837" lon="9.10078">
        <ele>951.6</ele>
        <time>2015-06-25T05:31:09Z</time>
      </trkpt>
      <trkpt lat="42.16839" lon="9.10077">
        <ele>952.8</ele>
        <time>2015-06-25T05:31:27Z</time>
      </trkpt>
      <trkpt lat="42.16841" lon="9.10075">
        <ele>953.4</ele>
        <time>2015-06-25T05:31:36Z</time>
      </trkpt>
      <trkpt lat="42.16844" lon="9.10078">
        <ele>954.4</ele>
        <time>2015-06-25T05:31:52Z</time>
      </trkpt>
      <trkpt lat="42.16852" lon="9.1008">
        <ele>955.6</ele>
        <time>2015-06-25T05:32:05Z</time>
      </trkpt>
      <trkpt lat="42.1686" lon="9.10077">
        <ele>956.8</ele>
        <time>2015-06-25T05:32:22Z</time>
      </trkpt>
      <trkpt lat="42.16862" lon="9.10069">
        <ele>957.8</ele>
        <time>2015-06-25T05:32:35Z</time>
      </trkpt>
      <trkpt lat="42.16866" lon="9.10064">
        <ele>959</ele>
        <time>2015-06-25T05:32:49Z</time>
      </trkpt>
      <trkpt lat="42.16875" lon="9.10048">
        <ele>959.6</ele>
        <time>2015-06-25T05:33:13Z</time>
      </trkpt>
      <trkpt lat="42.16884" lon="9.10039">
        <ele>961.6</ele>
        <time>2015-06-25T05:33:28Z</time>
      </trkpt>
      <trkpt lat="42.16889" lon="9.10028">
        <ele>962.2</ele>
        <time>2015-06-25T05:33:45Z</time>
      </trkpt>
      <trkpt lat="42.16888" lon="9.10023">
        <ele>963.2</ele>
        <time>2015-06-25T05:33:55Z</time>
      </trkpt>
      <trkpt lat="42.16885" lon="9.10017">
        <ele>964.2</ele>
        <time>2015-06-25T05:34:05Z</time>
      </trkpt>
      <trkpt lat="42.16885" lon="9.10009">
        <ele>965.6</ele>
        <time>2015-06-25T05:34:16Z</time>
      </trkpt>
      <trkpt lat="42.16888" lon="9.10004">
        <ele>966.6</ele>
        <time>2015-06-25T05:34:27Z</time>
      </trkpt>
      <trkpt lat="42.16893" lon="9.10003">
        <ele>967.6</ele>
        <time>2015-06-25T05:34:37Z</time>
      </trkpt>
      <trkpt lat="42.16896" lon="9.10001">
        <ele>968.2</ele>
        <time>2015-06-25T05:34:41Z</time>
      </trkpt>
      <trkpt lat="42.16899" lon="9.09997">
        <ele>969</ele>
        <time>2015-06-25T05:34:47Z</time>
      </trkpt>
      <trkpt lat="42.16901" lon="9.09993">
        <ele>970.2</ele>
        <time>2015-06-25T05:34:58Z</time>
      </trkpt>
      <trkpt lat="42.16902" lon="9.09993">
        <ele>970.6</ele>
        <time>2015-06-25T05:35:04Z</time>
      </trkpt>
      <trkpt lat="42.16907" lon="9.09993">
        <ele>971.4</ele>
        <time>2015-06-25T05:35:08Z</time>
      </trkpt>
      <trkpt lat="42.16909" lon="9.09986">
        <ele>972.6</ele>
        <time>2015-06-25T05:35:16Z</time>
      </trkpt>
      <trkpt lat="42.16916" lon="9.09983">
        <ele>973.6</ele>
        <time>2015-06-25T05:35:29Z</time>
      </trkpt>
      <trkpt lat="42.16921" lon="9.09981">
        <ele>974.8</ele>
        <time>2015-06-25T05:35:39Z</time>
      </trkpt>
      <trkpt lat="42.16924" lon="9.09979">
        <ele>975.8</ele>
        <time>2015-06-25T05:35:48Z</time>
      </trkpt>
      <trkpt lat="42.16933" lon="9.09978">
        <ele>977.2</ele>
        <time>2015-06-25T05:36:00Z</time>
      </trkpt>
      <trkpt lat="42.1694" lon="9.09977">
        <ele>978.4</ele>
        <time>2015-06-25T05:36:12Z</time>
      </trkpt>
      <trkpt lat="42.16943" lon="9.0997">
        <ele>979.6</ele>
        <time>2015-06-25T05:36:24Z</time>
      </trkpt>
      <trkpt lat="42.16945" lon="9.09966">
        <ele>980.4</ele>
        <time>2015-06-25T05:36:30Z</time>
      </trkpt>
      <trkpt lat="42.16946" lon="9.09965">
        <ele>980.6</ele>
        <time>2015-06-25T05:36:32Z</time>
      </trkpt>
      <trkpt lat="42.16947" lon="9.0996">
        <ele>982.2</ele>
        <time>2015-06-25T05:36:44Z</time>
      </trkpt>
      <trkpt lat="42.16951" lon="9.09958">
        <ele>983.2</ele>
        <time>2015-06-25T05:36:54Z</time>
      </trkpt>
      <trkpt lat="42.16956" lon="9.09958">
        <ele>984.4</ele>
        <time>2015-06-25T05:37:04Z</time>
      </trkpt>
      <trkpt lat="42.16962" lon="9.09957">
        <ele>985.4</ele>
        <time>2015-06-25T05:37:13Z</time>
      </trkpt>
      <trkpt lat="42.16964" lon="9.09957">
        <ele>985.6</ele>
        <time>2015-06-25T05:37:14Z</time>
      </trkpt>
      <trkpt lat="42.16971" lon="9.09955">
        <ele>987</ele>
        <time>2015-06-25T05:37:24Z</time>
      </trkpt>
      <trkpt lat="42.16972" lon="9.09954">
        <ele>987</ele>
        <time>2015-06-25T05:37:25Z</time>
      </trkpt>
      <trkpt lat="42.16976" lon="9.09954">
        <ele>988</ele>
        <time>2015-06-25T05:37:34Z</time>
      </trkpt>
      <trkpt lat="42.1698" lon="9.09956">
        <ele>989.2</ele>
        <time>2015-06-25T05:37:43Z</time>
      </trkpt>
      <trkpt lat="42.16984" lon="9.09955">
        <ele>990.2</ele>
        <time>2015-06-25T05:37:52Z</time>
      </trkpt>
      <trkpt lat="42.16988" lon="9.09953">
        <ele>991</ele>
        <time>2015-06-25T05:37:59Z</time>
      </trkpt>
      <trkpt lat="42.16992" lon="9.09951">
        <ele>992.4</ele>
        <time>2015-06-25T05:38:07Z</time>
      </trkpt>
      <trkpt lat="42.16994" lon="9.09948">
        <ele>993.8</ele>
        <time>2015-06-25T05:38:17Z</time>
      </trkpt>
      <trkpt lat="42.16996" lon="9.09947">
        <ele>994.6</ele>
        <time>2015-06-25T05:38:24Z</time>
      </trkpt>
      <trkpt lat="42.17001" lon="9.09945">
        <ele>996</ele>
        <time>2015-06-25T05:38:33Z</time>
      </trkpt>
      <trkpt lat="42.17006" lon="9.09942">
        <ele>997.2</ele>
        <time>2015-06-25T05:38:42Z</time>
      </trkpt>
      <trkpt lat="42.17009" lon="9.09939">
        <ele>998.2</ele>
        <time>2015-06-25T05:38:51Z</time>
      </trkpt>
      <trkpt lat="42.17011" lon="9.09937">
        <ele>999</ele>
        <time>2015-06-25T05:38:57Z</time>
      </trkpt>
      <trkpt lat="42.17015" lon="9.09936">
        <ele>1000.8</ele>
        <time>2015-06-25T05:39:07Z</time>
      </trkpt>
      <trkpt lat="42.17019" lon="9.09936">
        <ele>1001.6</ele>
        <time>2015-06-25T05:39:16Z</time>
      </trkpt>
      <trkpt lat="42.17025" lon="9.09937">
        <ele>1003.2</ele>
        <time>2015-06-25T05:39:26Z</time>
      </trkpt>
      <trkpt lat="42.17028" lon="9.09936">
        <ele>1004</ele>
        <time>2015-06-25T05:39:35Z</time>
      </trkpt>
      <trkpt lat="42.1703" lon="9.09931">
        <ele>1005</ele>
        <time>2015-06-25T05:39:43Z</time>
      </trkpt>
      <trkpt lat="42.17032" lon="9.09932">
        <ele>1005.2</ele>
        <time>2015-06-25T05:39:46Z</time>
      </trkpt>
      <trkpt lat="42.17037" lon="9.09932">
        <ele>1006.2</ele>
        <time>2015-06-25T05:39:54Z</time>
      </trkpt>
      <trkpt lat="42.17039" lon="9.09926">
        <ele>1007.4</ele>
        <time>2015-06-25T05:40:02Z</time>
      </trkpt>
      <trkpt lat="42.1704" lon="9.09924">
        <ele>1007.6</ele>
        <time>2015-06-25T05:40:06Z</time>
      </trkpt>
      <trkpt lat="42.17045" lon="9.09921">
        <ele>1009</ele>
        <time>2015-06-25T05:40:17Z</time>
      </trkpt>
      <trkpt lat="42.17052" lon="9.09919">
        <ele>1010.2</ele>
        <time>2015-06-25T05:40:28Z</time>
      </trkpt>
      <trkpt lat="42.1706" lon="9.09918">
        <ele>1011.4</ele>
        <time>2015-06-25T05:40:44Z</time>
      </trkpt>
      <trkpt lat="42.17062" lon="9.09915">
        <ele>1012.4</ele>
        <time>2015-06-25T05:40:53Z</time>
      </trkpt>
      <trkpt lat="42.17065" lon="9.09913">
        <ele>1013.2</ele>
        <time>2015-06-25T05:41:02Z</time>
      </trkpt>
      <trkpt lat="42.17075" lon="9.09903">
        <ele>1014.8</ele>
        <time>2015-06-25T05:41:19Z</time>
      </trkpt>
      <trkpt lat="42.17106" lon="9.09864">
        <ele>1015.8</ele>
        <time>2015-06-25T05:42:16Z</time>
      </trkpt>
      <trkpt lat="42.1711" lon="9.09853">
        <ele>1016</ele>
        <time>2015-06-25T05:42:26Z</time>
      </trkpt>
      <trkpt lat="42.17128" lon="9.09831">
        <ele>1017</ele>
        <time>2015-06-25T05:43:07Z</time>
      </trkpt>
      <trkpt lat="42.1715" lon="9.09818">
        <ele>1017.8</ele>
        <time>2015-06-25T05:43:40Z</time>
      </trkpt>
      <trkpt lat="42.1715" lon="9.09818">
        <ele>1018</ele>
        <time>2015-06-25T05:43:42Z</time>
      </trkpt>
      <trkpt lat="42.17165" lon="9.09817">
        <ele>1019</ele>
        <time>2015-06-25T05:44:19Z</time>
      </trkpt>
      <trkpt lat="42.17169" lon="9.09813">
        <ele>1019.8</ele>
        <time>2015-06-25T05:44:29Z</time>
      </trkpt>
      <trkpt lat="42.17172" lon="9.09796">
        <ele>1021.2</ele>
        <time>2015-06-25T05:44:46Z</time>
      </trkpt>
      <trkpt lat="42.17183" lon="9.09762">
        <ele>1022.2</ele>
        <time>2015-06-25T05:45:19Z</time>
      </trkpt>
      <trkpt lat="42.17192" lon="9.0975">
        <ele>1023.4</ele>
        <time>2015-06-25T05:45:35Z</time>
      </trkpt>
      <trkpt lat="42.17201" lon="9.09754">
        <ele>1024.4</ele>
        <time>2015-06-25T05:45:50Z</time>
      </trkpt>
      <trkpt lat="42.17212" lon="9.09747">
        <ele>1025.6</ele>
        <time>2015-06-25T05:46:07Z</time>
      </trkpt>
      <trkpt lat="42.17224" lon="9.0974">
        <ele>1026.8</ele>
        <time>2015-06-25T05:46:24Z</time>
      </trkpt>
      <trkpt lat="42.1723" lon="9.09737">
        <ele>1027</ele>
        <time>2015-06-25T05:46:33Z</time>
      </trkpt>
      <trkpt lat="42.17242" lon="9.09723">
        <ele>1028.8</ele>
        <time>2015-06-25T05:46:54Z</time>
      </trkpt>
      <trkpt lat="42.17251" lon="9.09714">
        <ele>1029.4</ele>
        <time>2015-06-25T05:47:07Z</time>
      </trkpt>
      <trkpt lat="42.17256" lon="9.09715">
        <ele>1030</ele>
        <time>2015-06-25T05:47:13Z</time>
      </trkpt>
      <trkpt lat="42.1726" lon="9.09714">
        <ele>1030.6</ele>
        <time>2015-06-25T05:47:18Z</time>
      </trkpt>
      <trkpt lat="42.17264" lon="9.09711">
        <ele>1030.8</ele>
        <time>2015-06-25T05:47:22Z</time>
      </trkpt>
      <trkpt lat="42.17266" lon="9.09709">
        <ele>1031</ele>
        <time>2015-06-25T05:47:25Z</time>
      </trkpt>
      <trkpt lat="42.17287" lon="9.09689">
        <ele>1031.2</ele>
        <time>2015-06-25T05:47:57Z</time>
      </trkpt>
      <trkpt lat="42.17325" lon="9.09656">
        <ele>1030.6</ele>
        <time>2015-06-25T05:48:39Z</time>
      </trkpt>
      <trkpt lat="42.17352" lon="9.0961">
        <ele>1029.6</ele>
        <time>2015-06-25T05:49:23Z</time>
      </trkpt>
      <trkpt lat="42.17368" lon="9.09552">
        <ele>1029.8</ele>
        <time>2015-06-25T05:50:10Z</time>
      </trkpt>
      <trkpt lat="42.17375" lon="9.09536">
        <ele>1029</ele>
        <time>2015-06-25T05:50:26Z</time>
      </trkpt>
      <trkpt lat="42.17376" lon="9.09533">
        <ele>1028.8</ele>
        <time>2015-06-25T05:50:28Z</time>
      </trkpt>
      <trkpt lat="42.1739" lon="9.09512">
        <ele>1028.4</ele>
        <time>2015-06-25T05:50:48Z</time>
      </trkpt>
      <trkpt lat="42.17402" lon="9.09497">
        <ele>1030.2</ele>
        <time>2015-06-25T05:51:04Z</time>
      </trkpt>
      <trkpt lat="42.1741" lon="9.09484">
        <ele>1030.8</ele>
        <time>2015-06-25T05:51:22Z</time>
      </trkpt>
      <trkpt lat="42.17412" lon="9.09475">
        <ele>1031.4</ele>
        <time>2015-06-25T05:51:31Z</time>
      </trkpt>
      <trkpt lat="42.17414" lon="9.09473">
        <ele>1031.8</ele>
        <time>2015-06-25T05:51:35Z</time>
      </trkpt>
      <trkpt lat="42.17416" lon="9.0947">
        <ele>1032</ele>
        <time>2015-06-25T05:51:38Z</time>
      </trkpt>
      <trkpt lat="42.17418" lon="9.09469">
        <ele>1032.4</ele>
        <time>2015-06-25T05:51:40Z</time>
      </trkpt>
      <trkpt lat="42.1742" lon="9.09465">
        <ele>1033.4</ele>
        <time>2015-06-25T05:51:48Z</time>
      </trkpt>
      <trkpt lat="42.17421" lon="9.09458">
        <ele>1034.4</ele>
        <time>2015-06-25T05:51:59Z</time>
      </trkpt>
      <trkpt lat="42.17428" lon="9.0945">
        <ele>1035.2</ele>
        <time>2015-06-25T05:52:09Z</time>
      </trkpt>
      <trkpt lat="42.17433" lon="9.09445">
        <ele>1035.8</ele>
        <time>2015-06-25T05:52:16Z</time>
      </trkpt>
      <trkpt lat="42.17437" lon="9.09439">
        <ele>1037.2</ele>
        <time>2015-06-25T05:52:26Z</time>
      </trkpt>
      <trkpt lat="42.17432" lon="9.09385">
        <ele>1037.2</ele>
        <time>2015-06-25T05:53:32Z</time>
      </trkpt>
      <trkpt lat="42.17431" lon="9.09383">
        <ele>1037.4</ele>
        <time>2015-06-25T05:53:37Z</time>
      </trkpt>
      <trkpt lat="42.17432" lon="9.09373">
        <ele>1038.6</ele>
        <time>2015-06-25T05:53:49Z</time>
      </trkpt>
      <trkpt lat="42.17431" lon="9.09314">
        <ele>1039.2</ele>
        <time>2015-06-25T05:54:36Z</time>
      </trkpt>
      <trkpt lat="42.17432" lon="9.09308">
        <ele>1038.8</ele>
        <time>2015-06-25T05:54:43Z</time>
      </trkpt>
      <trkpt lat="42.17432" lon="9.09303">
        <ele>1038</ele>
        <time>2015-06-25T05:54:47Z</time>
      </trkpt>
      <trkpt lat="42.17431" lon="9.09296">
        <ele>1037.4</ele>
        <time>2015-06-25T05:54:53Z</time>
      </trkpt>
      <trkpt lat="42.1743" lon="9.09291">
        <ele>1037.2</ele>
        <time>2015-06-25T05:54:56Z</time>
      </trkpt>
      <trkpt lat="42.17431" lon="9.09286">
        <ele>1037</ele>
        <time>2015-06-25T05:55:01Z</time>
      </trkpt>
      <trkpt lat="42.17431" lon="9.09277">
        <ele>1036.6</ele>
        <time>2015-06-25T05:55:08Z</time>
      </trkpt>
      <trkpt lat="42.17431" lon="9.0927">
        <ele>1036.4</ele>
        <time>2015-06-25T05:55:12Z</time>
      </trkpt>
      <trkpt lat="42.17435" lon="9.09246">
        <ele>1034.4</ele>
        <time>2015-06-25T05:55:29Z</time>
      </trkpt>
      <trkpt lat="42.17444" lon="9.09225">
        <ele>1033.4</ele>
        <time>2015-06-25T05:55:45Z</time>
      </trkpt>
      <trkpt lat="42.17455" lon="9.09214">
        <ele>1032.4</ele>
        <time>2015-06-25T05:55:57Z</time>
      </trkpt>
      <trkpt lat="42.17466" lon="9.09202">
        <ele>1031</ele>
        <time>2015-06-25T05:56:10Z</time>
      </trkpt>
      <trkpt lat="42.17477" lon="9.0919">
        <ele>1029.8</ele>
        <time>2015-06-25T05:56:22Z</time>
      </trkpt>
      <trkpt lat="42.17497" lon="9.09166">
        <ele>1027.6</ele>
        <time>2015-06-25T05:56:55Z</time>
      </trkpt>
      <trkpt lat="42.17502" lon="9.09152">
        <ele>1027.2</ele>
        <time>2015-06-25T05:57:15Z</time>
      </trkpt>
      <trkpt lat="42.17512" lon="9.0914">
        <ele>1027.6</ele>
        <time>2015-06-25T05:57:25Z</time>
      </trkpt>
      <trkpt lat="42.17514" lon="9.09138">
        <ele>1027.8</ele>
        <time>2015-06-25T05:57:29Z</time>
      </trkpt>
      <trkpt lat="42.17519" lon="9.09132">
        <ele>1028.4</ele>
        <time>2015-06-25T05:57:38Z</time>
      </trkpt>
      <trkpt lat="42.17528" lon="9.09123">
        <ele>1028.8</ele>
        <time>2015-06-25T05:57:49Z</time>
      </trkpt>
      <trkpt lat="42.1754" lon="9.09111">
        <ele>1029.2</ele>
        <time>2015-06-25T05:58:03Z</time>
      </trkpt>
      <trkpt lat="42.17554" lon="9.09095">
        <ele>1029.8</ele>
        <time>2015-06-25T05:58:22Z</time>
      </trkpt>
      <trkpt lat="42.17581" lon="9.0906">
        <ele>1030.4</ele>
        <time>2015-06-25T05:58:59Z</time>
      </trkpt>
      <trkpt lat="42.17613" lon="9.09016">
        <ele>1030.6</ele>
        <time>2015-06-25T05:59:36Z</time>
      </trkpt>
      <trkpt lat="42.17614" lon="9.09014">
        <ele>1030.6</ele>
        <time>2015-06-25T05:59:37Z</time>
      </trkpt>
      <trkpt lat="42.17626" lon="9.08985">
        <ele>1031</ele>
        <time>2015-06-25T05:59:59Z</time>
      </trkpt>
      <trkpt lat="42.17628" lon="9.0898">
        <ele>1031.2</ele>
        <time>2015-06-25T06:00:03Z</time>
      </trkpt>
      <trkpt lat="42.17638" lon="9.08963">
        <ele>1032</ele>
        <time>2015-06-25T06:00:24Z</time>
      </trkpt>
      <trkpt lat="42.17641" lon="9.08948">
        <ele>1032.8</ele>
        <time>2015-06-25T06:00:39Z</time>
      </trkpt>
      <trkpt lat="42.17645" lon="9.08937">
        <ele>1033.4</ele>
        <time>2015-06-25T06:00:51Z</time>
      </trkpt>
      <trkpt lat="42.17655" lon="9.08909">
        <ele>1034.6</ele>
        <time>2015-06-25T06:01:15Z</time>
      </trkpt>
      <trkpt lat="42.17655" lon="9.08907">
        <ele>1034.6</ele>
        <time>2015-06-25T06:01:17Z</time>
      </trkpt>
      <trkpt lat="42.1766" lon="9.08882">
        <ele>1035.2</ele>
        <time>2015-06-25T06:01:38Z</time>
      </trkpt>
      <trkpt lat="42.17667" lon="9.0886">
        <ele>1035.8</ele>
        <time>2015-06-25T06:01:58Z</time>
      </trkpt>
      <trkpt lat="42.17669" lon="9.08853">
        <ele>1036.2</ele>
        <time>2015-06-25T06:02:04Z</time>
      </trkpt>
      <trkpt lat="42.17669" lon="9.08845">
        <ele>1036.8</ele>
        <time>2015-06-25T06:02:15Z</time>
      </trkpt>
      <trkpt lat="42.17672" lon="9.08829">
        <ele>1037.6</ele>
        <time>2015-06-25T06:02:27Z</time>
      </trkpt>
      <trkpt lat="42.17675" lon="9.08819">
        <ele>1037.8</ele>
        <time>2015-06-25T06:02:33Z</time>
      </trkpt>
      <trkpt lat="42.17682" lon="9.08805">
        <ele>1038.6</ele>
        <time>2015-06-25T06:02:48Z</time>
      </trkpt>
      <trkpt lat="42.17686" lon="9.088">
        <ele>1039.4</ele>
        <time>2015-06-25T06:02:55Z</time>
      </trkpt>
      <trkpt lat="42.17687" lon="9.08798">
        <ele>1039.6</ele>
        <time>2015-06-25T06:02:57Z</time>
      </trkpt>
      <trkpt lat="42.17693" lon="9.08786">
        <ele>1040.8</ele>
        <time>2015-06-25T06:03:09Z</time>
      </trkpt>
      <trkpt lat="42.17694" lon="9.08783">
        <ele>1041</ele>
        <time>2015-06-25T06:03:11Z</time>
      </trkpt>
      <trkpt lat="42.17696" lon="9.08781">
        <ele>1041.2</ele>
        <time>2015-06-25T06:03:14Z</time>
      </trkpt>
      <trkpt lat="42.17698" lon="9.08776">
        <ele>1041.4</ele>
        <time>2015-06-25T06:03:18Z</time>
      </trkpt>
      <trkpt lat="42.17704" lon="9.08763">
        <ele>1042.6</ele>
        <time>2015-06-25T06:03:32Z</time>
      </trkpt>
      <trkpt lat="42.17713" lon="9.08752">
        <ele>1043.6</ele>
        <time>2015-06-25T06:03:44Z</time>
      </trkpt>
      <trkpt lat="42.17715" lon="9.08752">
        <ele>1043.6</ele>
        <time>2015-06-25T06:03:46Z</time>
      </trkpt>
      <trkpt lat="42.17723" lon="9.08745">
        <ele>1044.8</ele>
        <time>2015-06-25T06:03:57Z</time>
      </trkpt>
      <trkpt lat="42.17734" lon="9.08741">
        <ele>1045.8</ele>
        <time>2015-06-25T06:04:11Z</time>
      </trkpt>
      <trkpt lat="42.17741" lon="9.08732">
        <ele>1047</ele>
        <time>2015-06-25T06:04:24Z</time>
      </trkpt>
      <trkpt lat="42.1775" lon="9.08714">
        <ele>1048.2</ele>
        <time>2015-06-25T06:04:47Z</time>
      </trkpt>
      <trkpt lat="42.17753" lon="9.0871">
        <ele>1048.2</ele>
        <time>2015-06-25T06:04:50Z</time>
      </trkpt>
      <trkpt lat="42.17757" lon="9.08706">
        <ele>1048</ele>
        <time>2015-06-25T06:04:54Z</time>
      </trkpt>
      <trkpt lat="42.17758" lon="9.08704">
        <ele>1048.2</ele>
        <time>2015-06-25T06:04:57Z</time>
      </trkpt>
      <trkpt lat="42.17768" lon="9.08687">
        <ele>1049</ele>
        <time>2015-06-25T06:05:16Z</time>
      </trkpt>
      <trkpt lat="42.1777" lon="9.08686">
        <ele>1049</ele>
        <time>2015-06-25T06:05:18Z</time>
      </trkpt>
      <trkpt lat="42.17773" lon="9.08684">
        <ele>1049</ele>
        <time>2015-06-25T06:05:21Z</time>
      </trkpt>
      <trkpt lat="42.17775" lon="9.08682">
        <ele>1049.2</ele>
        <time>2015-06-25T06:05:23Z</time>
      </trkpt>
      <trkpt lat="42.17799" lon="9.08632">
        <ele>1050</ele>
        <time>2015-06-25T06:06:07Z</time>
      </trkpt>
      <trkpt lat="42.17802" lon="9.08612">
        <ele>1051</ele>
        <time>2015-06-25T06:06:26Z</time>
      </trkpt>
      <trkpt lat="42.17804" lon="9.08604">
        <ele>1051.2</ele>
        <time>2015-06-25T06:06:31Z</time>
      </trkpt>
      <trkpt lat="42.17807" lon="9.08593">
        <ele>1051.8</ele>
        <time>2015-06-25T06:06:43Z</time>
      </trkpt>
      <trkpt lat="42.17808" lon="9.08576">
        <ele>1052.4</ele>
        <time>2015-06-25T06:06:58Z</time>
      </trkpt>
      <trkpt lat="42.17812" lon="9.08567">
        <ele>1053.2</ele>
        <time>2015-06-25T06:07:11Z</time>
      </trkpt>
      <trkpt lat="42.17813" lon="9.08566">
        <ele>1053.2</ele>
        <time>2015-06-25T06:07:12Z</time>
      </trkpt>
      <trkpt lat="42.17814" lon="9.08565">
        <ele>1053.4</ele>
        <time>2015-06-25T06:07:13Z</time>
      </trkpt>
      <trkpt lat="42.17816" lon="9.08551">
        <ele>1054.4</ele>
        <time>2015-06-25T06:07:28Z</time>
      </trkpt>
      <trkpt lat="42.17814" lon="9.08546">
        <ele>1054.6</ele>
        <time>2015-06-25T06:07:32Z</time>
      </trkpt>
      <trkpt lat="42.17815" lon="9.08544">
        <ele>1054.6</ele>
        <time>2015-06-25T06:07:34Z</time>
      </trkpt>
      <trkpt lat="42.17817" lon="9.08538">
        <ele>1055</ele>
        <time>2015-06-25T06:07:38Z</time>
      </trkpt>
      <trkpt lat="42.17829" lon="9.08509">
        <ele>1055.6</ele>
        <time>2015-06-25T06:07:57Z</time>
      </trkpt>
      <trkpt lat="42.17838" lon="9.08485">
        <ele>1056.8</ele>
        <time>2015-06-25T06:08:21Z</time>
      </trkpt>
      <trkpt lat="42.17849" lon="9.08465">
        <ele>1058</ele>
        <time>2015-06-25T06:08:42Z</time>
      </trkpt>
      <trkpt lat="42.17868" lon="9.08416">
        <ele>1059</ele>
        <time>2015-06-25T06:09:23Z</time>
      </trkpt>
      <trkpt lat="42.17868" lon="9.0841">
        <ele>1059.4</ele>
        <time>2015-06-25T06:09:29Z</time>
      </trkpt>
      <trkpt lat="42.17877" lon="9.08391">
        <ele>1060.2</ele>
        <time>2015-06-25T06:09:50Z</time>
      </trkpt>
      <trkpt lat="42.17882" lon="9.08377">
        <ele>1060.8</ele>
        <time>2015-06-25T06:10:02Z</time>
      </trkpt>
      <trkpt lat="42.17893" lon="9.08343">
        <ele>1061.8</ele>
        <time>2015-06-25T06:10:27Z</time>
      </trkpt>
      <trkpt lat="42.17903" lon="9.08303">
        <ele>1063.2</ele>
        <time>2015-06-25T06:11:00Z</time>
      </trkpt>
      <trkpt lat="42.17906" lon="9.08292">
        <ele>1063.4</ele>
        <time>2015-06-25T06:11:08Z</time>
      </trkpt>
      <trkpt lat="42.1791" lon="9.08282">
        <ele>1063.6</ele>
        <time>2015-06-25T06:11:20Z</time>
      </trkpt>
      <trkpt lat="42.17911" lon="9.08277">
        <ele>1064.6</ele>
        <time>2015-06-25T06:11:27Z</time>
      </trkpt>
      <trkpt lat="42.17911" lon="9.08272">
        <ele>1065</ele>
        <time>2015-06-25T06:11:30Z</time>
      </trkpt>
      <trkpt lat="42.17918" lon="9.08259">
        <ele>1066.4</ele>
        <time>2015-06-25T06:11:42Z</time>
      </trkpt>
      <trkpt lat="42.1792" lon="9.08237">
        <ele>1067.2</ele>
        <time>2015-06-25T06:12:01Z</time>
      </trkpt>
      <trkpt lat="42.17921" lon="9.08229">
        <ele>1068.4</ele>
        <time>2015-06-25T06:12:08Z</time>
      </trkpt>
      <trkpt lat="42.17921" lon="9.08226">
        <ele>1068.6</ele>
        <time>2015-06-25T06:12:11Z</time>
      </trkpt>
      <trkpt lat="42.17926" lon="9.08217">
        <ele>1069.2</ele>
        <time>2015-06-25T06:12:23Z</time>
      </trkpt>
      <trkpt lat="42.17935" lon="9.08199">
        <ele>1070</ele>
        <time>2015-06-25T06:12:41Z</time>
      </trkpt>
      <trkpt lat="42.17938" lon="9.08183">
        <ele>1071.4</ele>
        <time>2015-06-25T06:12:53Z</time>
      </trkpt>
      <trkpt lat="42.1794" lon="9.08164">
        <ele>1072.6</ele>
        <time>2015-06-25T06:13:12Z</time>
      </trkpt>
      <trkpt lat="42.1794" lon="9.0815">
        <ele>1073.8</ele>
        <time>2015-06-25T06:13:27Z</time>
      </trkpt>
      <trkpt lat="42.17941" lon="9.08148">
        <ele>1073.8</ele>
        <time>2015-06-25T06:13:28Z</time>
      </trkpt>
      <trkpt lat="42.17953" lon="9.08123">
        <ele>1075.2</ele>
        <time>2015-06-25T06:13:54Z</time>
      </trkpt>
      <trkpt lat="42.17968" lon="9.08115">
        <ele>1076.4</ele>
        <time>2015-06-25T06:14:09Z</time>
      </trkpt>
      <trkpt lat="42.17979" lon="9.08102">
        <ele>1077.6</ele>
        <time>2015-06-25T06:14:29Z</time>
      </trkpt>
      <trkpt lat="42.17987" lon="9.08098">
        <ele>1078.6</ele>
        <time>2015-06-25T06:14:38Z</time>
      </trkpt>
      <trkpt lat="42.18005" lon="9.08089">
        <ele>1080.2</ele>
        <time>2015-06-25T06:15:02Z</time>
      </trkpt>
      <trkpt lat="42.18015" lon="9.08081">
        <ele>1081</ele>
        <time>2015-06-25T06:15:16Z</time>
      </trkpt>
      <trkpt lat="42.1802" lon="9.08078">
        <ele>1081.4</ele>
        <time>2015-06-25T06:15:21Z</time>
      </trkpt>
      <trkpt lat="42.18037" lon="9.08067">
        <ele>1082.6</ele>
        <time>2015-06-25T06:15:43Z</time>
      </trkpt>
      <trkpt lat="42.18053" lon="9.08055">
        <ele>1084</ele>
        <time>2015-06-25T06:16:04Z</time>
      </trkpt>
      <trkpt lat="42.18062" lon="9.08051">
        <ele>1085</ele>
        <time>2015-06-25T06:16:21Z</time>
      </trkpt>
      <trkpt lat="42.1807" lon="9.08044">
        <ele>1086</ele>
        <time>2015-06-25T06:16:35Z</time>
      </trkpt>
      <trkpt lat="42.18076" lon="9.08042">
        <ele>1086.8</ele>
        <time>2015-06-25T06:16:43Z</time>
      </trkpt>
      <trkpt lat="42.1808" lon="9.08039">
        <ele>1087.4</ele>
        <time>2015-06-25T06:16:48Z</time>
      </trkpt>
      <trkpt lat="42.18086" lon="9.08031">
        <ele>1088.6</ele>
        <time>2015-06-25T06:17:01Z</time>
      </trkpt>
      <trkpt lat="42.18087" lon="9.08027">
        <ele>1088.6</ele>
        <time>2015-06-25T06:17:05Z</time>
      </trkpt>
      <trkpt lat="42.1809" lon="9.0802">
        <ele>1089.4</ele>
        <time>2015-06-25T06:17:13Z</time>
      </trkpt>
      <trkpt lat="42.18093" lon="9.08011">
        <ele>1090.6</ele>
        <time>2015-06-25T06:17:23Z</time>
      </trkpt>
      <trkpt lat="42.18101" lon="9.08">
        <ele>1090.6</ele>
        <time>2015-06-25T06:17:37Z</time>
      </trkpt>
      <trkpt lat="42.18104" lon="9.07997">
        <ele>1090.8</ele>
        <time>2015-06-25T06:17:41Z</time>
      </trkpt>
      <trkpt lat="42.18115" lon="9.07986">
        <ele>1091.6</ele>
        <time>2015-06-25T06:17:55Z</time>
      </trkpt>
      <trkpt lat="42.18121" lon="9.07975">
        <ele>1092.6</ele>
        <time>2015-06-25T06:18:11Z</time>
      </trkpt>
      <trkpt lat="42.18128" lon="9.07964">
        <ele>1093.4</ele>
        <time>2015-06-25T06:18:24Z</time>
      </trkpt>
      <trkpt lat="42.1813" lon="9.07962">
        <ele>1093.6</ele>
        <time>2015-06-25T06:18:26Z</time>
      </trkpt>
      <trkpt lat="42.18134" lon="9.07953">
        <ele>1094.6</ele>
        <time>2015-06-25T06:18:34Z</time>
      </trkpt>
      <trkpt lat="42.18138" lon="9.07942">
        <ele>1096</ele>
        <time>2015-06-25T06:18:45Z</time>
      </trkpt>
      <trkpt lat="42.18141" lon="9.07939">
        <ele>1097</ele>
        <time>2015-06-25T06:18:55Z</time>
      </trkpt>
      <trkpt lat="42.18141" lon="9.07931">
        <ele>1098</ele>
        <time>2015-06-25T06:19:06Z</time>
      </trkpt>
      <trkpt lat="42.18141" lon="9.07922">
        <ele>1099.4</ele>
        <time>2015-06-25T06:19:18Z</time>
      </trkpt>
      <trkpt lat="42.18142" lon="9.07916">
        <ele>1100.2</ele>
        <time>2015-06-25T06:19:29Z</time>
      </trkpt>
      <trkpt lat="42.18144" lon="9.07908">
        <ele>1101.6</ele>
        <time>2015-06-25T06:19:41Z</time>
      </trkpt>
      <trkpt lat="42.18146" lon="9.079">
        <ele>1102.6</ele>
        <time>2015-06-25T06:19:51Z</time>
      </trkpt>
      <trkpt lat="42.1815" lon="9.07895">
        <ele>1103.8</ele>
        <time>2015-06-25T06:20:03Z</time>
      </trkpt>
      <trkpt lat="42.18151" lon="9.07891">
        <ele>1105</ele>
        <time>2015-06-25T06:20:13Z</time>
      </trkpt>
      <trkpt lat="42.18153" lon="9.07885">
        <ele>1106</ele>
        <time>2015-06-25T06:20:24Z</time>
      </trkpt>
      <trkpt lat="42.18153" lon="9.0788">
        <ele>1106.8</ele>
        <time>2015-06-25T06:20:30Z</time>
      </trkpt>
      <trkpt lat="42.18156" lon="9.07874">
        <ele>1107</ele>
        <time>2015-06-25T06:20:37Z</time>
      </trkpt>
      <trkpt lat="42.1816" lon="9.07867">
        <ele>1108.4</ele>
        <time>2015-06-25T06:20:49Z</time>
      </trkpt>
      <trkpt lat="42.1816" lon="9.07865">
        <ele>1108.6</ele>
        <time>2015-06-25T06:20:52Z</time>
      </trkpt>
      <trkpt lat="42.18164" lon="9.07853">
        <ele>1109.6</ele>
        <time>2015-06-25T06:21:06Z</time>
      </trkpt>
      <trkpt lat="42.18167" lon="9.07846">
        <ele>1110.6</ele>
        <time>2015-06-25T06:21:17Z</time>
      </trkpt>
      <trkpt lat="42.18171" lon="9.07838">
        <ele>1112</ele>
        <time>2015-06-25T06:21:32Z</time>
      </trkpt>
      <trkpt lat="42.18174" lon="9.07831">
        <ele>1112.8</ele>
        <time>2015-06-25T06:21:42Z</time>
      </trkpt>
      <trkpt lat="42.18178" lon="9.07817">
        <ele>1114.4</ele>
        <time>2015-06-25T06:21:56Z</time>
      </trkpt>
      <trkpt lat="42.18183" lon="9.0781">
        <ele>1115</ele>
        <time>2015-06-25T06:22:08Z</time>
      </trkpt>
      <trkpt lat="42.18189" lon="9.07805">
        <ele>1116</ele>
        <time>2015-06-25T06:22:19Z</time>
      </trkpt>
      <trkpt lat="42.18195" lon="9.07797">
        <ele>1117.6</ele>
        <time>2015-06-25T06:22:31Z</time>
      </trkpt>
      <trkpt lat="42.18199" lon="9.07795">
        <ele>1118.8</ele>
        <time>2015-06-25T06:22:44Z</time>
      </trkpt>
      <trkpt lat="42.18202" lon="9.07789">
        <ele>1119.8</ele>
        <time>2015-06-25T06:22:55Z</time>
      </trkpt>
      <trkpt lat="42.18209" lon="9.07783">
        <ele>1120.8</ele>
        <time>2015-06-25T06:23:07Z</time>
      </trkpt>
      <trkpt lat="42.18215" lon="9.07773">
        <ele>1122</ele>
        <time>2015-06-25T06:23:20Z</time>
      </trkpt>
      <trkpt lat="42.18221" lon="9.07769">
        <ele>1123</ele>
        <time>2015-06-25T06:23:29Z</time>
      </trkpt>
      <trkpt lat="42.18227" lon="9.07762">
        <ele>1124.6</ele>
        <time>2015-06-25T06:23:41Z</time>
      </trkpt>
      <trkpt lat="42.18233" lon="9.07758">
        <ele>1125.6</ele>
        <time>2015-06-25T06:23:52Z</time>
      </trkpt>
      <trkpt lat="42.18239" lon="9.07756">
        <ele>1126.6</ele>
        <time>2015-06-25T06:24:05Z</time>
      </trkpt>
      <trkpt lat="42.18244" lon="9.07754">
        <ele>1127.6</ele>
        <time>2015-06-25T06:24:13Z</time>
      </trkpt>
      <trkpt lat="42.18259" lon="9.07739">
        <ele>1129.2</ele>
        <time>2015-06-25T06:24:37Z</time>
      </trkpt>
      <trkpt lat="42.18262" lon="9.07735">
        <ele>1129.8</ele>
        <time>2015-06-25T06:24:46Z</time>
      </trkpt>
      <trkpt lat="42.18267" lon="9.07732">
        <ele>1130.8</ele>
        <time>2015-06-25T06:24:55Z</time>
      </trkpt>
      <trkpt lat="42.18273" lon="9.07729">
        <ele>1132.6</ele>
        <time>2015-06-25T06:25:06Z</time>
      </trkpt>
      <trkpt lat="42.18277" lon="9.07726">
        <ele>1133.2</ele>
        <time>2015-06-25T06:25:15Z</time>
      </trkpt>
      <trkpt lat="42.18282" lon="9.07721">
        <ele>1134.4</ele>
        <time>2015-06-25T06:25:25Z</time>
      </trkpt>
      <trkpt lat="42.18291" lon="9.07716">
        <ele>1135.6</ele>
        <time>2015-06-25T06:25:41Z</time>
      </trkpt>
      <trkpt lat="42.18292" lon="9.07716">
        <ele>1135.8</ele>
        <time>2015-06-25T06:25:43Z</time>
      </trkpt>
      <trkpt lat="42.18296" lon="9.07706">
        <ele>1136.4</ele>
        <time>2015-06-25T06:25:54Z</time>
      </trkpt>
      <trkpt lat="42.18298" lon="9.07699">
        <ele>1137.2</ele>
        <time>2015-06-25T06:26:00Z</time>
      </trkpt>
      <trkpt lat="42.183" lon="9.07696">
        <ele>1137.8</ele>
        <time>2015-06-25T06:26:04Z</time>
      </trkpt>
      <trkpt lat="42.18305" lon="9.07689">
        <ele>1138.6</ele>
        <time>2015-06-25T06:26:14Z</time>
      </trkpt>
      <trkpt lat="42.18309" lon="9.07686">
        <ele>1139</ele>
        <time>2015-06-25T06:26:20Z</time>
      </trkpt>
      <trkpt lat="42.18315" lon="9.07683">
        <ele>1139.8</ele>
        <time>2015-06-25T06:26:28Z</time>
      </trkpt>
      <trkpt lat="42.18322" lon="9.0768">
        <ele>1141.2</ele>
        <time>2015-06-25T06:26:41Z</time>
      </trkpt>
      <trkpt lat="42.1833" lon="9.07671">
        <ele>1142.6</ele>
        <time>2015-06-25T06:26:56Z</time>
      </trkpt>
      <trkpt lat="42.18336" lon="9.07664">
        <ele>1143.2</ele>
        <time>2015-06-25T06:27:09Z</time>
      </trkpt>
      <trkpt lat="42.18339" lon="9.07659">
        <ele>1143.8</ele>
        <time>2015-06-25T06:27:15Z</time>
      </trkpt>
      <trkpt lat="42.18342" lon="9.07655">
        <ele>1144.4</ele>
        <time>2015-06-25T06:27:20Z</time>
      </trkpt>
      <trkpt lat="42.18352" lon="9.07648">
        <ele>1145.6</ele>
        <time>2015-06-25T06:27:35Z</time>
      </trkpt>
      <trkpt lat="42.18358" lon="9.07641">
        <ele>1146.6</ele>
        <time>2015-06-25T06:27:46Z</time>
      </trkpt>
      <trkpt lat="42.18365" lon="9.07639">
        <ele>1147.6</ele>
        <time>2015-06-25T06:27:58Z</time>
      </trkpt>
      <trkpt lat="42.18369" lon="9.07638">
        <ele>1148.6</ele>
        <time>2015-06-25T06:28:08Z</time>
      </trkpt>
      <trkpt lat="42.18381" lon="9.07615">
        <ele>1149.8</ele>
        <time>2015-06-25T06:28:33Z</time>
      </trkpt>
      <trkpt lat="42.18385" lon="9.07615">
        <ele>1149</ele>
        <time>2015-06-25T06:32:07Z</time>
      </trkpt>
      <trkpt lat="42.18384" lon="9.07613">
        <ele>1149.6</ele>
        <time>2015-06-25T06:33:29Z</time>
      </trkpt>
      <trkpt lat="42.18383" lon="9.07599">
        <ele>1149</ele>
        <time>2015-06-25T06:37:32Z</time>
      </trkpt>
      <trkpt lat="42.18393" lon="9.07608">
        <ele>1149.8</ele>
        <time>2015-06-25T06:37:54Z</time>
      </trkpt>
      <trkpt lat="42.18397" lon="9.07609">
        <ele>1150.2</ele>
        <time>2015-06-25T06:37:58Z</time>
      </trkpt>
      <trkpt lat="42.184" lon="9.0761">
        <ele>1150.8</ele>
        <time>2015-06-25T06:38:01Z</time>
      </trkpt>
      <trkpt lat="42.18402" lon="9.0761">
        <ele>1151.4</ele>
        <time>2015-06-25T06:38:04Z</time>
      </trkpt>
      <trkpt lat="42.18404" lon="9.07609">
        <ele>1151.6</ele>
        <time>2015-06-25T06:38:06Z</time>
      </trkpt>
      <trkpt lat="42.18407" lon="9.07608">
        <ele>1152.6</ele>
        <time>2015-06-25T06:38:10Z</time>
      </trkpt>
      <trkpt lat="42.18407" lon="9.07607">
        <ele>1152.8</ele>
        <time>2015-06-25T06:38:11Z</time>
      </trkpt>
      <trkpt lat="42.18405" lon="9.07597">
        <ele>1154</ele>
        <time>2015-06-25T06:38:25Z</time>
      </trkpt>
      <trkpt lat="42.18406" lon="9.07583">
        <ele>1154.2</ele>
        <time>2015-06-25T06:38:38Z</time>
      </trkpt>
      <trkpt lat="42.1841" lon="9.07612">
        <ele>1154.6</ele>
        <time>2015-06-25T06:40:52Z</time>
      </trkpt>
      <trkpt lat="42.1841" lon="9.07612">
        <ele>1154.6</ele>
        <time>2015-06-25T06:40:53Z</time>
      </trkpt>
      <trkpt lat="42.18406" lon="9.07627">
        <ele>1154.4</ele>
        <time>2015-06-25T06:41:08Z</time>
      </trkpt>
      <trkpt lat="42.18399" lon="9.07626">
        <ele>1153.4</ele>
        <time>2015-06-25T06:41:16Z</time>
      </trkpt>
      <trkpt lat="42.18397" lon="9.07623">
        <ele>1153.2</ele>
        <time>2015-06-25T06:41:18Z</time>
      </trkpt>
      <trkpt lat="42.18391" lon="9.07617">
        <ele>1152.6</ele>
        <time>2015-06-25T06:41:25Z</time>
      </trkpt>
      <trkpt lat="42.18387" lon="9.07617">
        <ele>1152</ele>
        <time>2015-06-25T06:41:29Z</time>
      </trkpt>
      <trkpt lat="42.18384" lon="9.07617">
        <ele>1151.4</ele>
        <time>2015-06-25T06:41:32Z</time>
      </trkpt>
      <trkpt lat="42.18381" lon="9.07617">
        <ele>1151.2</ele>
        <time>2015-06-25T06:41:36Z</time>
      </trkpt>
      <trkpt lat="42.18379" lon="9.07616">
        <ele>1149.6</ele>
        <time>2015-06-25T06:41:49Z</time>
      </trkpt>
      <trkpt lat="42.18368" lon="9.07631">
        <ele>1148.8</ele>
        <time>2015-06-25T06:43:02Z</time>
      </trkpt>
      <trkpt lat="42.18368" lon="9.07632">
        <ele>1148.8</ele>
        <time>2015-06-25T06:43:04Z</time>
      </trkpt>
      <trkpt lat="42.18374" lon="9.07624">
        <ele>1148.8</ele>
        <time>2015-06-25T06:43:12Z</time>
      </trkpt>
      <trkpt lat="42.18378" lon="9.07616">
        <ele>1148.8</ele>
        <time>2015-06-25T06:43:18Z</time>
      </trkpt>
      <trkpt lat="42.18385" lon="9.0762">
        <ele>1148.6</ele>
        <time>2015-06-25T06:46:46Z</time>
      </trkpt>
      <trkpt lat="42.18389" lon="9.07629">
        <ele>1149</ele>
        <time>2015-06-25T06:46:56Z</time>
      </trkpt>
      <trkpt lat="42.18391" lon="9.07634">
        <ele>1150</ele>
        <time>2015-06-25T06:47:04Z</time>
      </trkpt>
      <trkpt lat="42.18396" lon="9.07634">
        <ele>1151.6</ele>
        <time>2015-06-25T06:47:13Z</time>
      </trkpt>
      <trkpt lat="42.18404" lon="9.07631">
        <ele>1152.8</ele>
        <time>2015-06-25T06:47:25Z</time>
      </trkpt>
      <trkpt lat="42.18409" lon="9.0763">
        <ele>1153.6</ele>
        <time>2015-06-25T06:47:34Z</time>
      </trkpt>
      <trkpt lat="42.18417" lon="9.07627">
        <ele>1154.6</ele>
        <time>2015-06-25T06:47:50Z</time>
      </trkpt>
      <trkpt lat="42.18425" lon="9.0763">
        <ele>1155.8</ele>
        <time>2015-06-25T06:48:00Z</time>
      </trkpt>
      <trkpt lat="42.18434" lon="9.07629">
        <ele>1157.2</ele>
        <time>2015-06-25T06:48:11Z</time>
      </trkpt>
      <trkpt lat="42.18441" lon="9.07627">
        <ele>1158</ele>
        <time>2015-06-25T06:48:26Z</time>
      </trkpt>
      <trkpt lat="42.18448" lon="9.07627">
        <ele>1159.2</ele>
        <time>2015-06-25T06:48:34Z</time>
      </trkpt>
      <trkpt lat="42.18455" lon="9.07624">
        <ele>1160.4</ele>
        <time>2015-06-25T06:48:44Z</time>
      </trkpt>
      <trkpt lat="42.18459" lon="9.07623">
        <ele>1161</ele>
        <time>2015-06-25T06:48:52Z</time>
      </trkpt>
      <trkpt lat="42.18466" lon="9.07621">
        <ele>1162.8</ele>
        <time>2015-06-25T06:49:10Z</time>
      </trkpt>
      <trkpt lat="42.18487" lon="9.07614">
        <ele>1164</ele>
        <time>2015-06-25T06:49:38Z</time>
      </trkpt>
      <trkpt lat="42.18501" lon="9.07608">
        <ele>1164.8</ele>
        <time>2015-06-25T06:49:57Z</time>
      </trkpt>
      <trkpt lat="42.18514" lon="9.07601">
        <ele>1166.2</ele>
        <time>2015-06-25T06:50:14Z</time>
      </trkpt>
      <trkpt lat="42.18524" lon="9.07598">
        <ele>1167</ele>
        <time>2015-06-25T06:50:25Z</time>
      </trkpt>
      <trkpt lat="42.18524" lon="9.07596">
        <ele>1167.2</ele>
        <time>2015-06-25T06:50:26Z</time>
      </trkpt>
      <trkpt lat="42.18535" lon="9.07583">
        <ele>1168.6</ele>
        <time>2015-06-25T06:50:44Z</time>
      </trkpt>
      <trkpt lat="42.18544" lon="9.07578">
        <ele>1169.4</ele>
        <time>2015-06-25T06:50:56Z</time>
      </trkpt>
      <trkpt lat="42.18552" lon="9.0758">
        <ele>1170.4</ele>
        <time>2015-06-25T06:51:11Z</time>
      </trkpt>
      <trkpt lat="42.18558" lon="9.07579">
        <ele>1171.4</ele>
        <time>2015-06-25T06:51:21Z</time>
      </trkpt>
      <trkpt lat="42.18563" lon="9.07577">
        <ele>1172</ele>
        <time>2015-06-25T06:51:26Z</time>
      </trkpt>
      <trkpt lat="42.18568" lon="9.07575">
        <ele>1172.8</ele>
        <time>2015-06-25T06:51:34Z</time>
      </trkpt>
      <trkpt lat="42.18575" lon="9.07564">
        <ele>1173.8</ele>
        <time>2015-06-25T06:51:51Z</time>
      </trkpt>
      <trkpt lat="42.1858" lon="9.07562">
        <ele>1174.4</ele>
        <time>2015-06-25T06:52:00Z</time>
      </trkpt>
      <trkpt lat="42.18585" lon="9.0756">
        <ele>1175.6</ele>
        <time>2015-06-25T06:52:10Z</time>
      </trkpt>
      <trkpt lat="42.1859" lon="9.0756">
        <ele>1176.6</ele>
        <time>2015-06-25T06:52:19Z</time>
      </trkpt>
      <trkpt lat="42.18593" lon="9.07561">
        <ele>1177</ele>
        <time>2015-06-25T06:52:23Z</time>
      </trkpt>
      <trkpt lat="42.18597" lon="9.07562">
        <ele>1177.6</ele>
        <time>2015-06-25T06:52:28Z</time>
      </trkpt>
      <trkpt lat="42.18602" lon="9.07562">
        <ele>1178.8</ele>
        <time>2015-06-25T06:52:36Z</time>
      </trkpt>
      <trkpt lat="42.18607" lon="9.07564">
        <ele>1179.8</ele>
        <time>2015-06-25T06:52:46Z</time>
      </trkpt>
      <trkpt lat="42.18612" lon="9.07563">
        <ele>1181.2</ele>
        <time>2015-06-25T06:52:56Z</time>
      </trkpt>
      <trkpt lat="42.18615" lon="9.07563">
        <ele>1182.2</ele>
        <time>2015-06-25T06:53:05Z</time>
      </trkpt>
      <trkpt lat="42.18622" lon="9.07563">
        <ele>1183.2</ele>
        <time>2015-06-25T06:53:16Z</time>
      </trkpt>
      <trkpt lat="42.18627" lon="9.07563">
        <ele>1183.6</ele>
        <time>2015-06-25T06:53:20Z</time>
      </trkpt>
      <trkpt lat="42.1863" lon="9.07563">
        <ele>1184</ele>
        <time>2015-06-25T06:53:24Z</time>
      </trkpt>
      <trkpt lat="42.18633" lon="9.07564">
        <ele>1184</ele>
        <time>2015-06-25T06:53:27Z</time>
      </trkpt>
      <trkpt lat="42.18634" lon="9.07564">
        <ele>1184.2</ele>
        <time>2015-06-25T06:53:29Z</time>
      </trkpt>
      <trkpt lat="42.18638" lon="9.07567">
        <ele>1184.4</ele>
        <time>2015-06-25T06:53:36Z</time>
      </trkpt>
      <trkpt lat="42.18646" lon="9.07568">
        <ele>1185.2</ele>
        <time>2015-06-25T06:53:48Z</time>
      </trkpt>
      <trkpt lat="42.18647" lon="9.07568">
        <ele>1185.2</ele>
        <time>2015-06-25T06:53:49Z</time>
      </trkpt>
      <trkpt lat="42.18655" lon="9.07563">
        <ele>1186.4</ele>
        <time>2015-06-25T06:54:00Z</time>
      </trkpt>
      <trkpt lat="42.18657" lon="9.07563">
        <ele>1186.6</ele>
        <time>2015-06-25T06:54:02Z</time>
      </trkpt>
      <trkpt lat="42.18666" lon="9.07564">
        <ele>1187.2</ele>
        <time>2015-06-25T06:54:12Z</time>
      </trkpt>
      <trkpt lat="42.18672" lon="9.07562">
        <ele>1188.4</ele>
        <time>2015-06-25T06:54:22Z</time>
      </trkpt>
      <trkpt lat="42.18676" lon="9.07562">
        <ele>1189.4</ele>
        <time>2015-06-25T06:54:30Z</time>
      </trkpt>
      <trkpt lat="42.18681" lon="9.07564">
        <ele>1190.2</ele>
        <time>2015-06-25T06:54:38Z</time>
      </trkpt>
      <trkpt lat="42.18688" lon="9.07566">
        <ele>1191.4</ele>
        <time>2015-06-25T06:54:48Z</time>
      </trkpt>
      <trkpt lat="42.18695" lon="9.07568">
        <ele>1192.6</ele>
        <time>2015-06-25T06:54:57Z</time>
      </trkpt>
      <trkpt lat="42.187" lon="9.07571">
        <ele>1193.6</ele>
        <time>2015-06-25T06:55:07Z</time>
      </trkpt>
      <trkpt lat="42.18702" lon="9.07569">
        <ele>1194.2</ele>
        <time>2015-06-25T06:55:12Z</time>
      </trkpt>
      <trkpt lat="42.18707" lon="9.07568">
        <ele>1195.8</ele>
        <time>2015-06-25T06:55:22Z</time>
      </trkpt>
      <trkpt lat="42.18713" lon="9.07566">
        <ele>1197</ele>
        <time>2015-06-25T06:55:31Z</time>
      </trkpt>
      <trkpt lat="42.18715" lon="9.07566">
        <ele>1197.2</ele>
        <time>2015-06-25T06:55:33Z</time>
      </trkpt>
      <trkpt lat="42.18722" lon="9.07567">
        <ele>1198</ele>
        <time>2015-06-25T06:55:44Z</time>
      </trkpt>
      <trkpt lat="42.18725" lon="9.07567">
        <ele>1198.6</ele>
        <time>2015-06-25T06:55:52Z</time>
      </trkpt>
      <trkpt lat="42.18728" lon="9.07566">
        <ele>1200</ele>
        <time>2015-06-25T06:56:00Z</time>
      </trkpt>
      <trkpt lat="42.18729" lon="9.07561">
        <ele>1200.4</ele>
        <time>2015-06-25T06:56:04Z</time>
      </trkpt>
      <trkpt lat="42.18733" lon="9.07559">
        <ele>1201.2</ele>
        <time>2015-06-25T06:56:12Z</time>
      </trkpt>
      <trkpt lat="42.18741" lon="9.07557">
        <ele>1202</ele>
        <time>2015-06-25T06:56:22Z</time>
      </trkpt>
      <trkpt lat="42.18742" lon="9.07557">
        <ele>1202</ele>
        <time>2015-06-25T06:56:23Z</time>
      </trkpt>
      <trkpt lat="42.18745" lon="9.07556">
        <ele>1202.4</ele>
        <time>2015-06-25T06:56:27Z</time>
      </trkpt>
      <trkpt lat="42.1875" lon="9.07556">
        <ele>1203.2</ele>
        <time>2015-06-25T06:56:36Z</time>
      </trkpt>
      <trkpt lat="42.18757" lon="9.07553">
        <ele>1203.8</ele>
        <time>2015-06-25T06:56:43Z</time>
      </trkpt>
      <trkpt lat="42.1876" lon="9.07551">
        <ele>1204</ele>
        <time>2015-06-25T06:56:48Z</time>
      </trkpt>
      <trkpt lat="42.18761" lon="9.0755">
        <ele>1204.2</ele>
        <time>2015-06-25T06:56:51Z</time>
      </trkpt>
      <trkpt lat="42.18764" lon="9.07547">
        <ele>1204.6</ele>
        <time>2015-06-25T06:56:55Z</time>
      </trkpt>
      <trkpt lat="42.18765" lon="9.07547">
        <ele>1205</ele>
        <time>2015-06-25T06:56:58Z</time>
      </trkpt>
      <trkpt lat="42.18771" lon="9.07548">
        <ele>1206</ele>
        <time>2015-06-25T06:57:07Z</time>
      </trkpt>
      <trkpt lat="42.18774" lon="9.07549">
        <ele>1207</ele>
        <time>2015-06-25T06:57:15Z</time>
      </trkpt>
      <trkpt lat="42.1878" lon="9.07546">
        <ele>1207.6</ele>
        <time>2015-06-25T06:57:24Z</time>
      </trkpt>
      <trkpt lat="42.18786" lon="9.07544">
        <ele>1208.4</ele>
        <time>2015-06-25T06:57:47Z</time>
      </trkpt>
      <trkpt lat="42.18786" lon="9.07544">
        <ele>1208.4</ele>
        <time>2015-06-25T06:57:48Z</time>
      </trkpt>
      <trkpt lat="42.18792" lon="9.07538">
        <ele>1209.2</ele>
        <time>2015-06-25T06:58:00Z</time>
      </trkpt>
      <trkpt lat="42.188" lon="9.07535">
        <ele>1210.6</ele>
        <time>2015-06-25T06:58:13Z</time>
      </trkpt>
      <trkpt lat="42.18805" lon="9.07536">
        <ele>1211.6</ele>
        <time>2015-06-25T06:58:23Z</time>
      </trkpt>
      <trkpt lat="42.18811" lon="9.07535">
        <ele>1212.2</ele>
        <time>2015-06-25T06:58:32Z</time>
      </trkpt>
      <trkpt lat="42.18815" lon="9.07532">
        <ele>1213.4</ele>
        <time>2015-06-25T06:58:40Z</time>
      </trkpt>
      <trkpt lat="42.1882" lon="9.07534">
        <ele>1215</ele>
        <time>2015-06-25T06:58:54Z</time>
      </trkpt>
      <trkpt lat="42.18825" lon="9.07538">
        <ele>1215.6</ele>
        <time>2015-06-25T06:59:03Z</time>
      </trkpt>
      <trkpt lat="42.18828" lon="9.07539">
        <ele>1216.6</ele>
        <time>2015-06-25T06:59:13Z</time>
      </trkpt>
      <trkpt lat="42.18828" lon="9.07538">
        <ele>1217.6</ele>
        <time>2015-06-25T06:59:20Z</time>
      </trkpt>
      <trkpt lat="42.18834" lon="9.0753">
        <ele>1218.8</ele>
        <time>2015-06-25T06:59:31Z</time>
      </trkpt>
      <trkpt lat="42.18844" lon="9.07515">
        <ele>1219.2</ele>
        <time>2015-06-25T06:59:50Z</time>
      </trkpt>
      <trkpt lat="42.18853" lon="9.07505">
        <ele>1220.2</ele>
        <time>2015-06-25T07:00:00Z</time>
      </trkpt>
      <trkpt lat="42.1886" lon="9.07495">
        <ele>1221.2</ele>
        <time>2015-06-25T07:00:18Z</time>
      </trkpt>
      <trkpt lat="42.18863" lon="9.07486">
        <ele>1222</ele>
        <time>2015-06-25T07:00:30Z</time>
      </trkpt>
      <trkpt lat="42.18864" lon="9.07481">
        <ele>1222.4</ele>
        <time>2015-06-25T07:00:34Z</time>
      </trkpt>
      <trkpt lat="42.18868" lon="9.07474">
        <ele>1223.4</ele>
        <time>2015-06-25T07:00:43Z</time>
      </trkpt>
      <trkpt lat="42.18872" lon="9.07463">
        <ele>1224.2</ele>
        <time>2015-06-25T07:00:54Z</time>
      </trkpt>
      <trkpt lat="42.18879" lon="9.07455">
        <ele>1225.4</ele>
        <time>2015-06-25T07:01:05Z</time>
      </trkpt>
      <trkpt lat="42.18881" lon="9.07447">
        <ele>1226.2</ele>
        <time>2015-06-25T07:01:14Z</time>
      </trkpt>
      <trkpt lat="42.18885" lon="9.07439">
        <ele>1227.4</ele>
        <time>2015-06-25T07:01:25Z</time>
      </trkpt>
      <trkpt lat="42.18888" lon="9.07433">
        <ele>1228.6</ele>
        <time>2015-06-25T07:01:35Z</time>
      </trkpt>
      <trkpt lat="42.18893" lon="9.07425">
        <ele>1229.8</ele>
        <time>2015-06-25T07:01:49Z</time>
      </trkpt>
      <trkpt lat="42.18896" lon="9.07415">
        <ele>1231</ele>
        <time>2015-06-25T07:02:03Z</time>
      </trkpt>
      <trkpt lat="42.18899" lon="9.07409">
        <ele>1231.8</ele>
        <time>2015-06-25T07:02:14Z</time>
      </trkpt>
      <trkpt lat="42.18901" lon="9.07399">
        <ele>1232.6</ele>
        <time>2015-06-25T07:02:31Z</time>
      </trkpt>
      <trkpt lat="42.18903" lon="9.07391">
        <ele>1234</ele>
        <time>2015-06-25T07:02:43Z</time>
      </trkpt>
      <trkpt lat="42.18902" lon="9.07384">
        <ele>1235.4</ele>
        <time>2015-06-25T07:03:12Z</time>
      </trkpt>
      <trkpt lat="42.18907" lon="9.0737">
        <ele>1236.2</ele>
        <time>2015-06-25T07:03:27Z</time>
      </trkpt>
      <trkpt lat="42.18911" lon="9.07361">
        <ele>1237</ele>
        <time>2015-06-25T07:03:41Z</time>
      </trkpt>
      <trkpt lat="42.18915" lon="9.07353">
        <ele>1238</ele>
        <time>2015-06-25T07:03:57Z</time>
      </trkpt>
      <trkpt lat="42.18915" lon="9.0735">
        <ele>1238.2</ele>
        <time>2015-06-25T07:04:00Z</time>
      </trkpt>
      <trkpt lat="42.18917" lon="9.07346">
        <ele>1238.8</ele>
        <time>2015-06-25T07:04:04Z</time>
      </trkpt>
      <trkpt lat="42.18921" lon="9.07338">
        <ele>1239.2</ele>
        <time>2015-06-25T07:04:12Z</time>
      </trkpt>
      <trkpt lat="42.18922" lon="9.07329">
        <ele>1239.8</ele>
        <time>2015-06-25T07:04:20Z</time>
      </trkpt>
      <trkpt lat="42.18923" lon="9.07315">
        <ele>1240.4</ele>
        <time>2015-06-25T07:04:31Z</time>
      </trkpt>
      <trkpt lat="42.18926" lon="9.07307">
        <ele>1241.2</ele>
        <time>2015-06-25T07:04:43Z</time>
      </trkpt>
      <trkpt lat="42.18927" lon="9.07298">
        <ele>1242.2</ele>
        <time>2015-06-25T07:04:52Z</time>
      </trkpt>
      <trkpt lat="42.1893" lon="9.07279">
        <ele>1243.2</ele>
        <time>2015-06-25T07:05:08Z</time>
      </trkpt>
      <trkpt lat="42.18929" lon="9.07267">
        <ele>1244.4</ele>
        <time>2015-06-25T07:05:20Z</time>
      </trkpt>
      <trkpt lat="42.18932" lon="9.07259">
        <ele>1245.2</ele>
        <time>2015-06-25T07:05:29Z</time>
      </trkpt>
      <trkpt lat="42.18935" lon="9.07253">
        <ele>1245.8</ele>
        <time>2015-06-25T07:05:33Z</time>
      </trkpt>
      <trkpt lat="42.18934" lon="9.07249">
        <ele>1246.4</ele>
        <time>2015-06-25T07:05:39Z</time>
      </trkpt>
      <trkpt lat="42.18931" lon="9.0724">
        <ele>1247.6</ele>
        <time>2015-06-25T07:05:52Z</time>
      </trkpt>
      <trkpt lat="42.18928" lon="9.07234">
        <ele>1247.8</ele>
        <time>2015-06-25T07:05:58Z</time>
      </trkpt>
      <trkpt lat="42.18928" lon="9.07232">
        <ele>1248.2</ele>
        <time>2015-06-25T07:06:00Z</time>
      </trkpt>
      <trkpt lat="42.1893" lon="9.07227">
        <ele>1248.4</ele>
        <time>2015-06-25T07:06:03Z</time>
      </trkpt>
      <trkpt lat="42.18947" lon="9.07208">
        <ele>1249.4</ele>
        <time>2015-06-25T07:06:18Z</time>
      </trkpt>
      <trkpt lat="42.18956" lon="9.07197">
        <ele>1250.6</ele>
        <time>2015-06-25T07:06:33Z</time>
      </trkpt>
      <trkpt lat="42.1896" lon="9.07189">
        <ele>1251.2</ele>
        <time>2015-06-25T07:06:44Z</time>
      </trkpt>
      <trkpt lat="42.18964" lon="9.07182">
        <ele>1252</ele>
        <time>2015-06-25T07:06:52Z</time>
      </trkpt>
      <trkpt lat="42.18967" lon="9.0718">
        <ele>1252.2</ele>
        <time>2015-06-25T07:06:55Z</time>
      </trkpt>
      <trkpt lat="42.1897" lon="9.07172">
        <ele>1253.2</ele>
        <time>2015-06-25T07:07:06Z</time>
      </trkpt>
      <trkpt lat="42.18974" lon="9.07159">
        <ele>1254</ele>
        <time>2015-06-25T07:07:19Z</time>
      </trkpt>
      <trkpt lat="42.18979" lon="9.07149">
        <ele>1255.2</ele>
        <time>2015-06-25T07:07:30Z</time>
      </trkpt>
      <trkpt lat="42.18983" lon="9.07143">
        <ele>1255.8</ele>
        <time>2015-06-25T07:07:39Z</time>
      </trkpt>
      <trkpt lat="42.18987" lon="9.07135">
        <ele>1256.8</ele>
        <time>2015-06-25T07:07:49Z</time>
      </trkpt>
      <trkpt lat="42.18989" lon="9.07129">
        <ele>1257.8</ele>
        <time>2015-06-25T07:07:59Z</time>
      </trkpt>
      <trkpt lat="42.18991" lon="9.07125">
        <ele>1258.6</ele>
        <time>2015-06-25T07:08:09Z</time>
      </trkpt>
      <trkpt lat="42.18994" lon="9.07118">
        <ele>1259.2</ele>
        <time>2015-06-25T07:08:16Z</time>
      </trkpt>
      <trkpt lat="42.18994" lon="9.07116">
        <ele>1259.4</ele>
        <time>2015-06-25T07:08:18Z</time>
      </trkpt>
      <trkpt lat="42.18994" lon="9.07111">
        <ele>1260</ele>
        <time>2015-06-25T07:08:23Z</time>
      </trkpt>
      <trkpt lat="42.18997" lon="9.07107">
        <ele>1260.4</ele>
        <time>2015-06-25T07:08:28Z</time>
      </trkpt>
      <trkpt lat="42.19001" lon="9.07098">
        <ele>1261.6</ele>
        <time>2015-06-25T07:08:40Z</time>
      </trkpt>
      <trkpt lat="42.19007" lon="9.07089">
        <ele>1262.4</ele>
        <time>2015-06-25T07:08:53Z</time>
      </trkpt>
      <trkpt lat="42.19018" lon="9.07088">
        <ele>1263.6</ele>
        <time>2015-06-25T07:09:10Z</time>
      </trkpt>
      <trkpt lat="42.19023" lon="9.07079">
        <ele>1264.2</ele>
        <time>2015-06-25T07:09:27Z</time>
      </trkpt>
      <trkpt lat="42.19026" lon="9.07073">
        <ele>1264.8</ele>
        <time>2015-06-25T07:09:36Z</time>
      </trkpt>
      <trkpt lat="42.19037" lon="9.07059">
        <ele>1266.2</ele>
        <time>2015-06-25T07:09:54Z</time>
      </trkpt>
      <trkpt lat="42.19044" lon="9.07049">
        <ele>1267</ele>
        <time>2015-06-25T07:10:10Z</time>
      </trkpt>
      <trkpt lat="42.1905" lon="9.07028">
        <ele>1267.6</ele>
        <time>2015-06-25T07:10:37Z</time>
      </trkpt>
      <trkpt lat="42.19054" lon="9.0701">
        <ele>1268.2</ele>
        <time>2015-06-25T07:10:55Z</time>
      </trkpt>
      <trkpt lat="42.19054" lon="9.07008">
        <ele>1268.4</ele>
        <time>2015-06-25T07:10:57Z</time>
      </trkpt>
      <trkpt lat="42.19054" lon="9.06995">
        <ele>1269.2</ele>
        <time>2015-06-25T07:11:08Z</time>
      </trkpt>
      <trkpt lat="42.19047" lon="9.0697">
        <ele>1270</ele>
        <time>2015-06-25T07:11:33Z</time>
      </trkpt>
      <trkpt lat="42.19051" lon="9.06955">
        <ele>1270.8</ele>
        <time>2015-06-25T07:11:47Z</time>
      </trkpt>
      <trkpt lat="42.19056" lon="9.06945">
        <ele>1271.6</ele>
        <time>2015-06-25T07:11:58Z</time>
      </trkpt>
      <trkpt lat="42.19059" lon="9.06933">
        <ele>1272.6</ele>
        <time>2015-06-25T07:12:10Z</time>
      </trkpt>
      <trkpt lat="42.19061" lon="9.06921">
        <ele>1273.4</ele>
        <time>2015-06-25T07:12:23Z</time>
      </trkpt>
      <trkpt lat="42.19062" lon="9.06913">
        <ele>1274.4</ele>
        <time>2015-06-25T07:12:32Z</time>
      </trkpt>
      <trkpt lat="42.19062" lon="9.06912">
        <ele>1274.4</ele>
        <time>2015-06-25T07:12:34Z</time>
      </trkpt>
      <trkpt lat="42.19063" lon="9.06906">
        <ele>1275.2</ele>
        <time>2015-06-25T07:12:41Z</time>
      </trkpt>
      <trkpt lat="42.19065" lon="9.06897">
        <ele>1276.4</ele>
        <time>2015-06-25T07:12:52Z</time>
      </trkpt>
      <trkpt lat="42.19065" lon="9.06888">
        <ele>1277.4</ele>
        <time>2015-06-25T07:13:03Z</time>
      </trkpt>
      <trkpt lat="42.19069" lon="9.06878">
        <ele>1278.2</ele>
        <time>2015-06-25T07:13:14Z</time>
      </trkpt>
      <trkpt lat="42.19071" lon="9.06867">
        <ele>1279.2</ele>
        <time>2015-06-25T07:13:28Z</time>
      </trkpt>
      <trkpt lat="42.19073" lon="9.06859">
        <ele>1280.2</ele>
        <time>2015-06-25T07:13:38Z</time>
      </trkpt>
      <trkpt lat="42.19078" lon="9.0685">
        <ele>1281.2</ele>
        <time>2015-06-25T07:13:48Z</time>
      </trkpt>
      <trkpt lat="42.19076" lon="9.06839">
        <ele>1282.2</ele>
        <time>2015-06-25T07:13:59Z</time>
      </trkpt>
      <trkpt lat="42.19077" lon="9.06838">
        <ele>1282.2</ele>
        <time>2015-06-25T07:14:00Z</time>
      </trkpt>
      <trkpt lat="42.19081" lon="9.06836">
        <ele>1283</ele>
        <time>2015-06-25T07:14:08Z</time>
      </trkpt>
      <trkpt lat="42.19089" lon="9.06832">
        <ele>1284</ele>
        <time>2015-06-25T07:14:18Z</time>
      </trkpt>
      <trkpt lat="42.19092" lon="9.06829">
        <ele>1284.8</ele>
        <time>2015-06-25T07:14:26Z</time>
      </trkpt>
      <trkpt lat="42.19097" lon="9.06823">
        <ele>1286</ele>
        <time>2015-06-25T07:14:34Z</time>
      </trkpt>
      <trkpt lat="42.19101" lon="9.06816">
        <ele>1287.2</ele>
        <time>2015-06-25T07:14:44Z</time>
      </trkpt>
      <trkpt lat="42.19102" lon="9.06811">
        <ele>1287.8</ele>
        <time>2015-06-25T07:14:53Z</time>
      </trkpt>
      <trkpt lat="42.19103" lon="9.0681">
        <ele>1288</ele>
        <time>2015-06-25T07:14:54Z</time>
      </trkpt>
      <trkpt lat="42.19106" lon="9.06804">
        <ele>1289.2</ele>
        <time>2015-06-25T07:15:05Z</time>
      </trkpt>
      <trkpt lat="42.19107" lon="9.06798">
        <ele>1289.8</ele>
        <time>2015-06-25T07:15:14Z</time>
      </trkpt>
      <trkpt lat="42.19112" lon="9.06791">
        <ele>1291</ele>
        <time>2015-06-25T07:15:26Z</time>
      </trkpt>
      <trkpt lat="42.19117" lon="9.06784">
        <ele>1292</ele>
        <time>2015-06-25T07:15:35Z</time>
      </trkpt>
      <trkpt lat="42.1912" lon="9.0678">
        <ele>1292.8</ele>
        <time>2015-06-25T07:15:43Z</time>
      </trkpt>
      <trkpt lat="42.19125" lon="9.06775">
        <ele>1294</ele>
        <time>2015-06-25T07:15:54Z</time>
      </trkpt>
      <trkpt lat="42.19127" lon="9.0677">
        <ele>1294.8</ele>
        <time>2015-06-25T07:16:04Z</time>
      </trkpt>
      <trkpt lat="42.19128" lon="9.06769">
        <ele>1294.8</ele>
        <time>2015-06-25T07:16:05Z</time>
      </trkpt>
      <trkpt lat="42.1913" lon="9.06765">
        <ele>1295.6</ele>
        <time>2015-06-25T07:16:11Z</time>
      </trkpt>
      <trkpt lat="42.19133" lon="9.06762">
        <ele>1296.8</ele>
        <time>2015-06-25T07:16:20Z</time>
      </trkpt>
      <trkpt lat="42.19136" lon="9.06756">
        <ele>1298.2</ele>
        <time>2015-06-25T07:16:31Z</time>
      </trkpt>
      <trkpt lat="42.19138" lon="9.06751">
        <ele>1298.6</ele>
        <time>2015-06-25T07:16:38Z</time>
      </trkpt>
      <trkpt lat="42.19141" lon="9.0675">
        <ele>1299.8</ele>
        <time>2015-06-25T07:16:48Z</time>
      </trkpt>
      <trkpt lat="42.19144" lon="9.06746">
        <ele>1300.8</ele>
        <time>2015-06-25T07:16:56Z</time>
      </trkpt>
      <trkpt lat="42.19147" lon="9.06741">
        <ele>1301.8</ele>
        <time>2015-06-25T07:17:05Z</time>
      </trkpt>
      <trkpt lat="42.19151" lon="9.06739">
        <ele>1303.2</ele>
        <time>2015-06-25T07:17:16Z</time>
      </trkpt>
      <trkpt lat="42.19153" lon="9.06737">
        <ele>1303.8</ele>
        <time>2015-06-25T07:17:24Z</time>
      </trkpt>
      <trkpt lat="42.19157" lon="9.06733">
        <ele>1305</ele>
        <time>2015-06-25T07:17:33Z</time>
      </trkpt>
      <trkpt lat="42.19162" lon="9.0673">
        <ele>1306</ele>
        <time>2015-06-25T07:17:43Z</time>
      </trkpt>
      <trkpt lat="42.19164" lon="9.06725">
        <ele>1307</ele>
        <time>2015-06-25T07:17:53Z</time>
      </trkpt>
      <trkpt lat="42.19166" lon="9.06719">
        <ele>1308.2</ele>
        <time>2015-06-25T07:18:05Z</time>
      </trkpt>
      <trkpt lat="42.1917" lon="9.06714">
        <ele>1309</ele>
        <time>2015-06-25T07:18:14Z</time>
      </trkpt>
      <trkpt lat="42.19173" lon="9.06712">
        <ele>1310</ele>
        <time>2015-06-25T07:18:24Z</time>
      </trkpt>
      <trkpt lat="42.19175" lon="9.06707">
        <ele>1310.8</ele>
        <time>2015-06-25T07:18:32Z</time>
      </trkpt>
      <trkpt lat="42.19179" lon="9.06701">
        <ele>1312.2</ele>
        <time>2015-06-25T07:18:42Z</time>
      </trkpt>
      <trkpt lat="42.19184" lon="9.06699">
        <ele>1312.8</ele>
        <time>2015-06-25T07:18:51Z</time>
      </trkpt>
      <trkpt lat="42.19186" lon="9.06694">
        <ele>1314.2</ele>
        <time>2015-06-25T07:18:59Z</time>
      </trkpt>
      <trkpt lat="42.19188" lon="9.0669">
        <ele>1315</ele>
        <time>2015-06-25T07:19:09Z</time>
      </trkpt>
      <trkpt lat="42.19192" lon="9.06686">
        <ele>1316</ele>
        <time>2015-06-25T07:19:17Z</time>
      </trkpt>
      <trkpt lat="42.19197" lon="9.06682">
        <ele>1317</ele>
        <time>2015-06-25T07:19:26Z</time>
      </trkpt>
      <trkpt lat="42.19201" lon="9.06678">
        <ele>1318</ele>
        <time>2015-06-25T07:19:36Z</time>
      </trkpt>
      <trkpt lat="42.19203" lon="9.06676">
        <ele>1319</ele>
        <time>2015-06-25T07:19:44Z</time>
      </trkpt>
      <trkpt lat="42.19204" lon="9.06675">
        <ele>1319.8</ele>
        <time>2015-06-25T07:19:50Z</time>
      </trkpt>
      <trkpt lat="42.19204" lon="9.06674">
        <ele>1320</ele>
        <time>2015-06-25T07:19:54Z</time>
      </trkpt>
      <trkpt lat="42.19206" lon="9.0667">
        <ele>1321.2</ele>
        <time>2015-06-25T07:20:04Z</time>
      </trkpt>
      <trkpt lat="42.19207" lon="9.06666">
        <ele>1321.8</ele>
        <time>2015-06-25T07:20:11Z</time>
      </trkpt>
      <trkpt lat="42.1921" lon="9.06663">
        <ele>1323</ele>
        <time>2015-06-25T07:20:19Z</time>
      </trkpt>
      <trkpt lat="42.19214" lon="9.06661">
        <ele>1324</ele>
        <time>2015-06-25T07:20:28Z</time>
      </trkpt>
      <trkpt lat="42.19218" lon="9.06657">
        <ele>1324.8</ele>
        <time>2015-06-25T07:20:38Z</time>
      </trkpt>
      <trkpt lat="42.1922" lon="9.06653">
        <ele>1326</ele>
        <time>2015-06-25T07:20:47Z</time>
      </trkpt>
      <trkpt lat="42.19225" lon="9.06648">
        <ele>1327.2</ele>
        <time>2015-06-25T07:20:57Z</time>
      </trkpt>
      <trkpt lat="42.19227" lon="9.06643">
        <ele>1328</ele>
        <time>2015-06-25T07:21:07Z</time>
      </trkpt>
      <trkpt lat="42.19232" lon="9.06639">
        <ele>1329</ele>
        <time>2015-06-25T07:21:17Z</time>
      </trkpt>
      <trkpt lat="42.19236" lon="9.06638">
        <ele>1329.8</ele>
        <time>2015-06-25T07:21:24Z</time>
      </trkpt>
      <trkpt lat="42.19243" lon="9.06628">
        <ele>1331.6</ele>
        <time>2015-06-25T07:21:42Z</time>
      </trkpt>
      <trkpt lat="42.19246" lon="9.06626">
        <ele>1332</ele>
        <time>2015-06-25T07:21:52Z</time>
      </trkpt>
      <trkpt lat="42.19248" lon="9.06622">
        <ele>1332.8</ele>
        <time>2015-06-25T07:21:59Z</time>
      </trkpt>
      <trkpt lat="42.1925" lon="9.06618">
        <ele>1334</ele>
        <time>2015-06-25T07:22:07Z</time>
      </trkpt>
      <trkpt lat="42.19253" lon="9.06606">
        <ele>1335</ele>
        <time>2015-06-25T07:22:22Z</time>
      </trkpt>
      <trkpt lat="42.19257" lon="9.06597">
        <ele>1336.2</ele>
        <time>2015-06-25T07:22:36Z</time>
      </trkpt>
      <trkpt lat="42.19261" lon="9.06589">
        <ele>1337.2</ele>
        <time>2015-06-25T07:22:46Z</time>
      </trkpt>
      <trkpt lat="42.19264" lon="9.06584">
        <ele>1338</ele>
        <time>2015-06-25T07:22:55Z</time>
      </trkpt>
      <trkpt lat="42.19268" lon="9.06581">
        <ele>1339</ele>
        <time>2015-06-25T07:23:05Z</time>
      </trkpt>
      <trkpt lat="42.1927" lon="9.06572">
        <ele>1340.2</ele>
        <time>2015-06-25T07:23:18Z</time>
      </trkpt>
      <trkpt lat="42.19273" lon="9.06566">
        <ele>1341</ele>
        <time>2015-06-25T07:23:29Z</time>
      </trkpt>
      <trkpt lat="42.19276" lon="9.06562">
        <ele>1341.8</ele>
        <time>2015-06-25T07:23:37Z</time>
      </trkpt>
      <trkpt lat="42.19279" lon="9.06557">
        <ele>1343</ele>
        <time>2015-06-25T07:23:47Z</time>
      </trkpt>
      <trkpt lat="42.19285" lon="9.06551">
        <ele>1344</ele>
        <time>2015-06-25T07:23:59Z</time>
      </trkpt>
      <trkpt lat="42.19288" lon="9.06547">
        <ele>1345.2</ele>
        <time>2015-06-25T07:24:11Z</time>
      </trkpt>
      <trkpt lat="42.1929" lon="9.06544">
        <ele>1345.8</ele>
        <time>2015-06-25T07:24:18Z</time>
      </trkpt>
      <trkpt lat="42.19294" lon="9.06543">
        <ele>1347</ele>
        <time>2015-06-25T07:24:27Z</time>
      </trkpt>
      <trkpt lat="42.19303" lon="9.06494">
        <ele>1347.8</ele>
        <time>2015-06-25T07:25:31Z</time>
      </trkpt>
      <trkpt lat="42.19307" lon="9.06484">
        <ele>1348.8</ele>
        <time>2015-06-25T07:25:44Z</time>
      </trkpt>
      <trkpt lat="42.1931" lon="9.06473">
        <ele>1349.8</ele>
        <time>2015-06-25T07:26:01Z</time>
      </trkpt>
      <trkpt lat="42.19313" lon="9.06459">
        <ele>1350.2</ele>
        <time>2015-06-25T07:26:23Z</time>
      </trkpt>
      <trkpt lat="42.19318" lon="9.06451">
        <ele>1351.4</ele>
        <time>2015-06-25T07:26:35Z</time>
      </trkpt>
      <trkpt lat="42.1933" lon="9.06427">
        <ele>1352.2</ele>
        <time>2015-06-25T07:27:11Z</time>
      </trkpt>
      <trkpt lat="42.19334" lon="9.06421">
        <ele>1353</ele>
        <time>2015-06-25T07:27:20Z</time>
      </trkpt>
      <trkpt lat="42.19338" lon="9.06412">
        <ele>1354</ele>
        <time>2015-06-25T07:27:35Z</time>
      </trkpt>
      <trkpt lat="42.19339" lon="9.06403">
        <ele>1355</ele>
        <time>2015-06-25T07:27:55Z</time>
      </trkpt>
      <trkpt lat="42.19342" lon="9.06396">
        <ele>1355.6</ele>
        <time>2015-06-25T07:28:16Z</time>
      </trkpt>
      <trkpt lat="42.19344" lon="9.06394">
        <ele>1356.6</ele>
        <time>2015-06-25T07:28:33Z</time>
      </trkpt>
      <trkpt lat="42.19349" lon="9.06374">
        <ele>1357.8</ele>
        <time>2015-06-25T07:29:00Z</time>
      </trkpt>
      <trkpt lat="42.19353" lon="9.0637">
        <ele>1358.6</ele>
        <time>2015-06-25T07:29:17Z</time>
      </trkpt>
      <trkpt lat="42.19355" lon="9.06366">
        <ele>1359.2</ele>
        <time>2015-06-25T07:29:26Z</time>
      </trkpt>
      <trkpt lat="42.19353" lon="9.06369">
        <ele>1360.2</ele>
        <time>2015-06-25T07:30:25Z</time>
      </trkpt>
      <trkpt lat="42.19359" lon="9.06372">
        <ele>1360</ele>
        <time>2015-06-25T07:30:39Z</time>
      </trkpt>
      <trkpt lat="42.19361" lon="9.06372">
        <ele>1360</ele>
        <time>2015-06-25T07:30:43Z</time>
      </trkpt>
      <trkpt lat="42.19362" lon="9.06371">
        <ele>1360</ele>
        <time>2015-06-25T07:30:45Z</time>
      </trkpt>
      <trkpt lat="42.19366" lon="9.0637">
        <ele>1361</ele>
        <time>2015-06-25T07:30:54Z</time>
      </trkpt>
      <trkpt lat="42.1937" lon="9.06369">
        <ele>1361.8</ele>
        <time>2015-06-25T07:31:00Z</time>
      </trkpt>
      <trkpt lat="42.19372" lon="9.06368">
        <ele>1363</ele>
        <time>2015-06-25T07:31:07Z</time>
      </trkpt>
      <trkpt lat="42.19377" lon="9.06366">
        <ele>1364.4</ele>
        <time>2015-06-25T07:31:17Z</time>
      </trkpt>
      <trkpt lat="42.19379" lon="9.06366">
        <ele>1365.2</ele>
        <time>2015-06-25T07:31:24Z</time>
      </trkpt>
      <trkpt lat="42.19382" lon="9.06364">
        <ele>1366.4</ele>
        <time>2015-06-25T07:31:33Z</time>
      </trkpt>
      <trkpt lat="42.19388" lon="9.0636">
        <ele>1367.4</ele>
        <time>2015-06-25T07:31:46Z</time>
      </trkpt>
      <trkpt lat="42.19393" lon="9.0636">
        <ele>1368.2</ele>
        <time>2015-06-25T07:31:55Z</time>
      </trkpt>
      <trkpt lat="42.19396" lon="9.06358">
        <ele>1369.6</ele>
        <time>2015-06-25T07:32:04Z</time>
      </trkpt>
      <trkpt lat="42.194" lon="9.06361">
        <ele>1370.8</ele>
        <time>2015-06-25T07:32:16Z</time>
      </trkpt>
      <trkpt lat="42.19402" lon="9.06363">
        <ele>1371.4</ele>
        <time>2015-06-25T07:32:23Z</time>
      </trkpt>
      <trkpt lat="42.19404" lon="9.06366">
        <ele>1372.6</ele>
        <time>2015-06-25T07:32:30Z</time>
      </trkpt>
      <trkpt lat="42.19407" lon="9.06368">
        <ele>1373.8</ele>
        <time>2015-06-25T07:32:39Z</time>
      </trkpt>
      <trkpt lat="42.19404" lon="9.06369">
        <ele>1375</ele>
        <time>2015-06-25T07:35:09Z</time>
      </trkpt>
      <trkpt lat="42.19405" lon="9.06369">
        <ele>1375.2</ele>
        <time>2015-06-25T07:37:40Z</time>
      </trkpt>
      <trkpt lat="42.19405" lon="9.06368">
        <ele>1375</ele>
        <time>2015-06-25T07:38:52Z</time>
      </trkpt>
      <trkpt lat="42.19405" lon="9.06368">
        <ele>1375</ele>
        <time>2015-06-25T07:39:54Z</time>
      </trkpt>
      <trkpt lat="42.19403" lon="9.06368">
        <ele>1375.2</ele>
        <time>2015-06-25T07:40:53Z</time>
      </trkpt>
      <trkpt lat="42.19413" lon="9.06359">
        <ele>1376.4</ele>
        <time>2015-06-25T07:41:49Z</time>
      </trkpt>
      <trkpt lat="42.19418" lon="9.0636">
        <ele>1377.4</ele>
        <time>2015-06-25T07:41:58Z</time>
      </trkpt>
      <trkpt lat="42.19422" lon="9.06361">
        <ele>1378.4</ele>
        <time>2015-06-25T07:42:06Z</time>
      </trkpt>
      <trkpt lat="42.19426" lon="9.06356">
        <ele>1379.6</ele>
        <time>2015-06-25T07:42:14Z</time>
      </trkpt>
      <trkpt lat="42.19431" lon="9.06353">
        <ele>1380.6</ele>
        <time>2015-06-25T07:42:24Z</time>
      </trkpt>
      <trkpt lat="42.19438" lon="9.06348">
        <ele>1382</ele>
        <time>2015-06-25T07:42:36Z</time>
      </trkpt>
      <trkpt lat="42.19445" lon="9.06345">
        <ele>1383</ele>
        <time>2015-06-25T07:42:49Z</time>
      </trkpt>
      <trkpt lat="42.19446" lon="9.06348">
        <ele>1384.2</ele>
        <time>2015-06-25T07:43:03Z</time>
      </trkpt>
      <trkpt lat="42.19446" lon="9.0635">
        <ele>1385.4</ele>
        <time>2015-06-25T07:43:29Z</time>
      </trkpt>
      <trkpt lat="42.19449" lon="9.06351">
        <ele>1386</ele>
        <time>2015-06-25T07:43:41Z</time>
      </trkpt>
      <trkpt lat="42.19453" lon="9.06351">
        <ele>1387.2</ele>
        <time>2015-06-25T07:43:49Z</time>
      </trkpt>
      <trkpt lat="42.19456" lon="9.0635">
        <ele>1388.2</ele>
        <time>2015-06-25T07:43:59Z</time>
      </trkpt>
      <trkpt lat="42.1946" lon="9.0635">
        <ele>1389.4</ele>
        <time>2015-06-25T07:44:09Z</time>
      </trkpt>
      <trkpt lat="42.19461" lon="9.06351">
        <ele>1390.2</ele>
        <time>2015-06-25T07:44:17Z</time>
      </trkpt>
      <trkpt lat="42.19464" lon="9.06351">
        <ele>1391.6</ele>
        <time>2015-06-25T07:44:30Z</time>
      </trkpt>
      <trkpt lat="42.19466" lon="9.06352">
        <ele>1392.4</ele>
        <time>2015-06-25T07:44:37Z</time>
      </trkpt>
      <trkpt lat="42.19467" lon="9.06351">
        <ele>1393.4</ele>
        <time>2015-06-25T07:44:45Z</time>
      </trkpt>
      <trkpt lat="42.1947" lon="9.06349">
        <ele>1394.6</ele>
        <time>2015-06-25T07:44:54Z</time>
      </trkpt>
      <trkpt lat="42.19472" lon="9.06351">
        <ele>1395.6</ele>
        <time>2015-06-25T07:45:04Z</time>
      </trkpt>
      <trkpt lat="42.19475" lon="9.06352">
        <ele>1396.6</ele>
        <time>2015-06-25T07:45:13Z</time>
      </trkpt>
      <trkpt lat="42.19478" lon="9.06354">
        <ele>1398.2</ele>
        <time>2015-06-25T07:45:25Z</time>
      </trkpt>
      <trkpt lat="42.19483" lon="9.06352">
        <ele>1399</ele>
        <time>2015-06-25T07:45:34Z</time>
      </trkpt>
      <trkpt lat="42.19485" lon="9.0635">
        <ele>1399.8</ele>
        <time>2015-06-25T07:45:43Z</time>
      </trkpt>
      <trkpt lat="42.19489" lon="9.06351">
        <ele>1400.8</ele>
        <time>2015-06-25T07:45:52Z</time>
      </trkpt>
      <trkpt lat="42.19492" lon="9.06353">
        <ele>1402.4</ele>
        <time>2015-06-25T07:46:05Z</time>
      </trkpt>
      <trkpt lat="42.19494" lon="9.06351">
        <ele>1403.4</ele>
        <time>2015-06-25T07:46:14Z</time>
      </trkpt>
      <trkpt lat="42.19497" lon="9.0635">
        <ele>1404.6</ele>
        <time>2015-06-25T07:46:23Z</time>
      </trkpt>
      <trkpt lat="42.19499" lon="9.06349">
        <ele>1405.4</ele>
        <time>2015-06-25T07:46:31Z</time>
      </trkpt>
      <trkpt lat="42.19501" lon="9.06347">
        <ele>1406.8</ele>
        <time>2015-06-25T07:46:41Z</time>
      </trkpt>
      <trkpt lat="42.19503" lon="9.06344">
        <ele>1408</ele>
        <time>2015-06-25T07:46:51Z</time>
      </trkpt>
      <trkpt lat="42.19506" lon="9.06341">
        <ele>1409</ele>
        <time>2015-06-25T07:47:02Z</time>
      </trkpt>
      <trkpt lat="42.19508" lon="9.0634">
        <ele>1409.4</ele>
        <time>2015-06-25T07:47:07Z</time>
      </trkpt>
      <trkpt lat="42.19508" lon="9.06339">
        <ele>1409.8</ele>
        <time>2015-06-25T07:47:10Z</time>
      </trkpt>
      <trkpt lat="42.1951" lon="9.06338">
        <ele>1411</ele>
        <time>2015-06-25T07:47:19Z</time>
      </trkpt>
      <trkpt lat="42.19513" lon="9.06339">
        <ele>1412</ele>
        <time>2015-06-25T07:47:31Z</time>
      </trkpt>
      <trkpt lat="42.19516" lon="9.0634">
        <ele>1413</ele>
        <time>2015-06-25T07:47:39Z</time>
      </trkpt>
      <trkpt lat="42.19519" lon="9.0634">
        <ele>1414.4</ele>
        <time>2015-06-25T07:47:48Z</time>
      </trkpt>
      <trkpt lat="42.19521" lon="9.06339">
        <ele>1415.2</ele>
        <time>2015-06-25T07:47:57Z</time>
      </trkpt>
      <trkpt lat="42.19525" lon="9.06338">
        <ele>1416.6</ele>
        <time>2015-06-25T07:48:08Z</time>
      </trkpt>
      <trkpt lat="42.19527" lon="9.0634">
        <ele>1417.2</ele>
        <time>2015-06-25T07:48:17Z</time>
      </trkpt>
      <trkpt lat="42.19529" lon="9.06342">
        <ele>1418.4</ele>
        <time>2015-06-25T07:48:25Z</time>
      </trkpt>
      <trkpt lat="42.19531" lon="9.06346">
        <ele>1419.6</ele>
        <time>2015-06-25T07:48:41Z</time>
      </trkpt>
      <trkpt lat="42.19533" lon="9.06345">
        <ele>1420.6</ele>
        <time>2015-06-25T07:48:49Z</time>
      </trkpt>
      <trkpt lat="42.19537" lon="9.06347">
        <ele>1422</ele>
        <time>2015-06-25T07:48:59Z</time>
      </trkpt>
      <trkpt lat="42.19539" lon="9.06346">
        <ele>1422.8</ele>
        <time>2015-06-25T07:49:06Z</time>
      </trkpt>
      <trkpt lat="42.1954" lon="9.06349">
        <ele>1423.8</ele>
        <time>2015-06-25T07:49:14Z</time>
      </trkpt>
      <trkpt lat="42.19543" lon="9.06349">
        <ele>1424.8</ele>
        <time>2015-06-25T07:49:21Z</time>
      </trkpt>
      <trkpt lat="42.19548" lon="9.06346">
        <ele>1426.4</ele>
        <time>2015-06-25T07:49:32Z</time>
      </trkpt>
      <trkpt lat="42.19552" lon="9.06345">
        <ele>1427.4</ele>
        <time>2015-06-25T07:49:42Z</time>
      </trkpt>
      <trkpt lat="42.19555" lon="9.06343">
        <ele>1428.4</ele>
        <time>2015-06-25T07:49:52Z</time>
      </trkpt>
      <trkpt lat="42.19556" lon="9.06344">
        <ele>1429</ele>
        <time>2015-06-25T07:49:55Z</time>
      </trkpt>
      <trkpt lat="42.19557" lon="9.06343">
        <ele>1429.4</ele>
        <time>2015-06-25T07:49:59Z</time>
      </trkpt>
      <trkpt lat="42.19561" lon="9.06341">
        <ele>1430.4</ele>
        <time>2015-06-25T07:50:07Z</time>
      </trkpt>
      <trkpt lat="42.19566" lon="9.06338">
        <ele>1431.6</ele>
        <time>2015-06-25T07:50:17Z</time>
      </trkpt>
      <trkpt lat="42.19568" lon="9.06338">
        <ele>1432.8</ele>
        <time>2015-06-25T07:50:28Z</time>
      </trkpt>
      <trkpt lat="42.1957" lon="9.06338">
        <ele>1433.8</ele>
        <time>2015-06-25T07:50:38Z</time>
      </trkpt>
      <trkpt lat="42.19574" lon="9.06339">
        <ele>1434.8</ele>
        <time>2015-06-25T07:50:47Z</time>
      </trkpt>
      <trkpt lat="42.19576" lon="9.06339">
        <ele>1435.8</ele>
        <time>2015-06-25T07:50:57Z</time>
      </trkpt>
      <trkpt lat="42.19579" lon="9.06338">
        <ele>1437</ele>
        <time>2015-06-25T07:51:07Z</time>
      </trkpt>
      <trkpt lat="42.19582" lon="9.06337">
        <ele>1438</ele>
        <time>2015-06-25T07:51:16Z</time>
      </trkpt>
      <trkpt lat="42.19587" lon="9.06333">
        <ele>1439</ele>
        <time>2015-06-25T07:51:32Z</time>
      </trkpt>
      <trkpt lat="42.19591" lon="9.06337">
        <ele>1440</ele>
        <time>2015-06-25T07:51:47Z</time>
      </trkpt>
      <trkpt lat="42.19593" lon="9.06335">
        <ele>1440.8</ele>
        <time>2015-06-25T07:51:54Z</time>
      </trkpt>
      <trkpt lat="42.19597" lon="9.06331">
        <ele>1442.6</ele>
        <time>2015-06-25T07:52:15Z</time>
      </trkpt>
      <trkpt lat="42.19601" lon="9.06333">
        <ele>1443</ele>
        <time>2015-06-25T07:52:22Z</time>
      </trkpt>
      <trkpt lat="42.19603" lon="9.06332">
        <ele>1443</ele>
        <time>2015-06-25T07:52:27Z</time>
      </trkpt>
      <trkpt lat="42.19604" lon="9.06333">
        <ele>1444.2</ele>
        <time>2015-06-25T07:52:35Z</time>
      </trkpt>
      <trkpt lat="42.19607" lon="9.06331">
        <ele>1445.4</ele>
        <time>2015-06-25T07:52:45Z</time>
      </trkpt>
      <trkpt lat="42.1961" lon="9.06331">
        <ele>1446.2</ele>
        <time>2015-06-25T07:52:53Z</time>
      </trkpt>
      <trkpt lat="42.19616" lon="9.06323">
        <ele>1447.8</ele>
        <time>2015-06-25T07:53:09Z</time>
      </trkpt>
      <trkpt lat="42.19618" lon="9.06312">
        <ele>1449</ele>
        <time>2015-06-25T07:54:03Z</time>
      </trkpt>
      <trkpt lat="42.19623" lon="9.0631">
        <ele>1450</ele>
        <time>2015-06-25T07:54:36Z</time>
      </trkpt>
      <trkpt lat="42.19624" lon="9.06305">
        <ele>1451</ele>
        <time>2015-06-25T07:55:10Z</time>
      </trkpt>
      <trkpt lat="42.19614" lon="9.06282">
        <ele>1451.6</ele>
        <time>2015-06-25T07:55:47Z</time>
      </trkpt>
      <trkpt lat="42.19615" lon="9.06276">
        <ele>1450.8</ele>
        <time>2015-06-25T07:55:52Z</time>
      </trkpt>
      <trkpt lat="42.19621" lon="9.06219">
        <ele>1451.4</ele>
        <time>2015-06-25T07:56:50Z</time>
      </trkpt>
      <trkpt lat="42.19626" lon="9.06205">
        <ele>1451.6</ele>
        <time>2015-06-25T07:57:10Z</time>
      </trkpt>
      <trkpt lat="42.19626" lon="9.06201">
        <ele>1452</ele>
        <time>2015-06-25T07:57:16Z</time>
      </trkpt>
      <trkpt lat="42.19617" lon="9.06187">
        <ele>1453</ele>
        <time>2015-06-25T07:57:44Z</time>
      </trkpt>
      <trkpt lat="42.19611" lon="9.06178">
        <ele>1453.6</ele>
        <time>2015-06-25T07:57:58Z</time>
      </trkpt>
      <trkpt lat="42.19601" lon="9.06153">
        <ele>1455</ele>
        <time>2015-06-25T07:58:43Z</time>
      </trkpt>
      <trkpt lat="42.19599" lon="9.06148">
        <ele>1455.6</ele>
        <time>2015-06-25T07:58:54Z</time>
      </trkpt>
      <trkpt lat="42.19592" lon="9.0614">
        <ele>1456.8</ele>
        <time>2015-06-25T07:59:10Z</time>
      </trkpt>
      <trkpt lat="42.19584" lon="9.06134">
        <ele>1457.6</ele>
        <time>2015-06-25T07:59:21Z</time>
      </trkpt>
      <trkpt lat="42.19575" lon="9.06124">
        <ele>1458</ele>
        <time>2015-06-25T07:59:37Z</time>
      </trkpt>
      <trkpt lat="42.19574" lon="9.06123">
        <ele>1458</ele>
        <time>2015-06-25T07:59:39Z</time>
      </trkpt>
      <trkpt lat="42.19566" lon="9.06109">
        <ele>1458.8</ele>
        <time>2015-06-25T07:59:57Z</time>
      </trkpt>
      <trkpt lat="42.19565" lon="9.06098">
        <ele>1459.6</ele>
        <time>2015-06-25T08:00:12Z</time>
      </trkpt>
      <trkpt lat="42.19564" lon="9.06089">
        <ele>1461</ele>
        <time>2015-06-25T08:00:24Z</time>
      </trkpt>
      <trkpt lat="42.19562" lon="9.06079">
        <ele>1462</ele>
        <time>2015-06-25T08:00:37Z</time>
      </trkpt>
      <trkpt lat="42.19562" lon="9.06074">
        <ele>1462.6</ele>
        <time>2015-06-25T08:00:45Z</time>
      </trkpt>
      <trkpt lat="42.1956" lon="9.06062">
        <ele>1464.2</ele>
        <time>2015-06-25T08:01:01Z</time>
      </trkpt>
      <trkpt lat="42.19558" lon="9.06045">
        <ele>1465.2</ele>
        <time>2015-06-25T08:01:18Z</time>
      </trkpt>
      <trkpt lat="42.19558" lon="9.06031">
        <ele>1466</ele>
        <time>2015-06-25T08:01:35Z</time>
      </trkpt>
      <trkpt lat="42.19557" lon="9.06022">
        <ele>1467</ele>
        <time>2015-06-25T08:01:48Z</time>
      </trkpt>
      <trkpt lat="42.19555" lon="9.06011">
        <ele>1468.4</ele>
        <time>2015-06-25T08:02:19Z</time>
      </trkpt>
      <trkpt lat="42.19554" lon="9.06003">
        <ele>1469.2</ele>
        <time>2015-06-25T08:02:30Z</time>
      </trkpt>
      <trkpt lat="42.19554" lon="9.05991">
        <ele>1470.2</ele>
        <time>2015-06-25T08:02:43Z</time>
      </trkpt>
      <trkpt lat="42.19555" lon="9.05956">
        <ele>1470.2</ele>
        <time>2015-06-25T08:03:27Z</time>
      </trkpt>
      <trkpt lat="42.1954" lon="9.05946">
        <ele>1470</ele>
        <time>2015-06-25T08:04:09Z</time>
      </trkpt>
      <trkpt lat="42.19538" lon="9.05948">
        <ele>1471</ele>
        <time>2015-06-25T08:04:16Z</time>
      </trkpt>
      <trkpt lat="42.19534" lon="9.05947">
        <ele>1472.2</ele>
        <time>2015-06-25T08:04:25Z</time>
      </trkpt>
      <trkpt lat="42.1953" lon="9.05949">
        <ele>1472.8</ele>
        <time>2015-06-25T08:04:33Z</time>
      </trkpt>
      <trkpt lat="42.19524" lon="9.05953">
        <ele>1474.4</ele>
        <time>2015-06-25T08:04:45Z</time>
      </trkpt>
      <trkpt lat="42.19524" lon="9.0595">
        <ele>1475.4</ele>
        <time>2015-06-25T08:04:54Z</time>
      </trkpt>
      <trkpt lat="42.19525" lon="9.05947">
        <ele>1476.4</ele>
        <time>2015-06-25T08:05:02Z</time>
      </trkpt>
      <trkpt lat="42.19527" lon="9.05943">
        <ele>1477.4</ele>
        <time>2015-06-25T08:05:10Z</time>
      </trkpt>
      <trkpt lat="42.19529" lon="9.05935">
        <ele>1478.8</ele>
        <time>2015-06-25T08:05:27Z</time>
      </trkpt>
      <trkpt lat="42.19528" lon="9.05934">
        <ele>1479.2</ele>
        <time>2015-06-25T08:05:32Z</time>
      </trkpt>
      <trkpt lat="42.19527" lon="9.05932">
        <ele>1479.6</ele>
        <time>2015-06-25T08:05:35Z</time>
      </trkpt>
      <trkpt lat="42.19523" lon="9.05931">
        <ele>1480.6</ele>
        <time>2015-06-25T08:05:44Z</time>
      </trkpt>
      <trkpt lat="42.19519" lon="9.05929">
        <ele>1481.6</ele>
        <time>2015-06-25T08:05:52Z</time>
      </trkpt>
      <trkpt lat="42.1952" lon="9.05925">
        <ele>1483.2</ele>
        <time>2015-06-25T08:06:02Z</time>
      </trkpt>
      <trkpt lat="42.1952" lon="9.0592">
        <ele>1484</ele>
        <time>2015-06-25T08:06:10Z</time>
      </trkpt>
      <trkpt lat="42.19522" lon="9.05914">
        <ele>1485.2</ele>
        <time>2015-06-25T08:06:19Z</time>
      </trkpt>
      <trkpt lat="42.1952" lon="9.05907">
        <ele>1486.2</ele>
        <time>2015-06-25T08:06:31Z</time>
      </trkpt>
      <trkpt lat="42.19521" lon="9.05901">
        <ele>1487.2</ele>
        <time>2015-06-25T08:06:40Z</time>
      </trkpt>
      <trkpt lat="42.19524" lon="9.05897">
        <ele>1488</ele>
        <time>2015-06-25T08:06:49Z</time>
      </trkpt>
      <trkpt lat="42.19527" lon="9.05888">
        <ele>1489.6</ele>
        <time>2015-06-25T08:07:02Z</time>
      </trkpt>
      <trkpt lat="42.19531" lon="9.05885">
        <ele>1490.4</ele>
        <time>2015-06-25T08:07:12Z</time>
      </trkpt>
      <trkpt lat="42.19535" lon="9.05881">
        <ele>1491.2</ele>
        <time>2015-06-25T08:07:22Z</time>
      </trkpt>
      <trkpt lat="42.19533" lon="9.05877">
        <ele>1492.4</ele>
        <time>2015-06-25T08:07:32Z</time>
      </trkpt>
      <trkpt lat="42.1953" lon="9.05874">
        <ele>1493.4</ele>
        <time>2015-06-25T08:07:41Z</time>
      </trkpt>
      <trkpt lat="42.19525" lon="9.05871">
        <ele>1494.6</ele>
        <time>2015-06-25T08:07:50Z</time>
      </trkpt>
      <trkpt lat="42.19523" lon="9.05866">
        <ele>1495.6</ele>
        <time>2015-06-25T08:07:59Z</time>
      </trkpt>
      <trkpt lat="42.19525" lon="9.05863">
        <ele>1496.4</ele>
        <time>2015-06-25T08:08:07Z</time>
      </trkpt>
      <trkpt lat="42.19526" lon="9.05857">
        <ele>1497.4</ele>
        <time>2015-06-25T08:08:16Z</time>
      </trkpt>
      <trkpt lat="42.19526" lon="9.05851">
        <ele>1498.8</ele>
        <time>2015-06-25T08:08:26Z</time>
      </trkpt>
      <trkpt lat="42.19529" lon="9.05845">
        <ele>1499.6</ele>
        <time>2015-06-25T08:08:34Z</time>
      </trkpt>
      <trkpt lat="42.1953" lon="9.0584">
        <ele>1501.2</ele>
        <time>2015-06-25T08:08:44Z</time>
      </trkpt>
      <trkpt lat="42.19531" lon="9.05836">
        <ele>1502.2</ele>
        <time>2015-06-25T08:08:53Z</time>
      </trkpt>
      <trkpt lat="42.19531" lon="9.0583">
        <ele>1503.4</ele>
        <time>2015-06-25T08:09:03Z</time>
      </trkpt>
      <trkpt lat="42.19532" lon="9.05828">
        <ele>1504.2</ele>
        <time>2015-06-25T08:09:11Z</time>
      </trkpt>
      <trkpt lat="42.19532" lon="9.05825">
        <ele>1505.8</ele>
        <time>2015-06-25T08:09:24Z</time>
      </trkpt>
      <trkpt lat="42.19529" lon="9.05817">
        <ele>1506.6</ele>
        <time>2015-06-25T08:09:38Z</time>
      </trkpt>
      <trkpt lat="42.19526" lon="9.05811">
        <ele>1507.4</ele>
        <time>2015-06-25T08:09:47Z</time>
      </trkpt>
      <trkpt lat="42.19521" lon="9.05801">
        <ele>1508.8</ele>
        <time>2015-06-25T08:10:01Z</time>
      </trkpt>
      <trkpt lat="42.19519" lon="9.05796">
        <ele>1509.6</ele>
        <time>2015-06-25T08:10:09Z</time>
      </trkpt>
      <trkpt lat="42.19519" lon="9.05794">
        <ele>1510.8</ele>
        <time>2015-06-25T08:10:18Z</time>
      </trkpt>
      <trkpt lat="42.19517" lon="9.05791">
        <ele>1512</ele>
        <time>2015-06-25T08:10:27Z</time>
      </trkpt>
      <trkpt lat="42.19515" lon="9.05788">
        <ele>1513</ele>
        <time>2015-06-25T08:10:36Z</time>
      </trkpt>
      <trkpt lat="42.19515" lon="9.05785">
        <ele>1513.8</ele>
        <time>2015-06-25T08:10:43Z</time>
      </trkpt>
      <trkpt lat="42.19515" lon="9.05781">
        <ele>1515.2</ele>
        <time>2015-06-25T08:10:51Z</time>
      </trkpt>
      <trkpt lat="42.19513" lon="9.05775">
        <ele>1516.2</ele>
        <time>2015-06-25T08:11:01Z</time>
      </trkpt>
      <trkpt lat="42.19511" lon="9.05772">
        <ele>1517</ele>
        <time>2015-06-25T08:11:07Z</time>
      </trkpt>
      <trkpt lat="42.19511" lon="9.05771">
        <ele>1517.6</ele>
        <time>2015-06-25T08:11:10Z</time>
      </trkpt>
      <trkpt lat="42.19511" lon="9.05766">
        <ele>1518.4</ele>
        <time>2015-06-25T08:11:18Z</time>
      </trkpt>
      <trkpt lat="42.19513" lon="9.05762">
        <ele>1519.6</ele>
        <time>2015-06-25T08:11:27Z</time>
      </trkpt>
      <trkpt lat="42.19513" lon="9.0576">
        <ele>1520.6</ele>
        <time>2015-06-25T08:11:35Z</time>
      </trkpt>
      <trkpt lat="42.19514" lon="9.05758">
        <ele>1522.2</ele>
        <time>2015-06-25T08:11:45Z</time>
      </trkpt>
      <trkpt lat="42.19519" lon="9.05758">
        <ele>1523.6</ele>
        <time>2015-06-25T08:11:56Z</time>
      </trkpt>
      <trkpt lat="42.19517" lon="9.05757">
        <ele>1524.2</ele>
        <time>2015-06-25T08:12:04Z</time>
      </trkpt>
      <trkpt lat="42.19517" lon="9.05757">
        <ele>1525.8</ele>
        <time>2015-06-25T08:12:33Z</time>
      </trkpt>
      <trkpt lat="42.1952" lon="9.05755">
        <ele>1526.2</ele>
        <time>2015-06-25T08:12:39Z</time>
      </trkpt>
      <trkpt lat="42.19521" lon="9.05752">
        <ele>1527.6</ele>
        <time>2015-06-25T08:12:48Z</time>
      </trkpt>
      <trkpt lat="42.19524" lon="9.05753">
        <ele>1528.6</ele>
        <time>2015-06-25T08:12:55Z</time>
      </trkpt>
      <trkpt lat="42.19526" lon="9.05755">
        <ele>1530.4</ele>
        <time>2015-06-25T08:13:07Z</time>
      </trkpt>
      <trkpt lat="42.19532" lon="9.05756">
        <ele>1531.2</ele>
        <time>2015-06-25T08:14:25Z</time>
      </trkpt>
      <trkpt lat="42.19533" lon="9.05753">
        <ele>1532.6</ele>
        <time>2015-06-25T08:14:34Z</time>
      </trkpt>
      <trkpt lat="42.19534" lon="9.05751">
        <ele>1533.6</ele>
        <time>2015-06-25T08:14:42Z</time>
      </trkpt>
      <trkpt lat="42.19534" lon="9.05747">
        <ele>1534.4</ele>
        <time>2015-06-25T08:14:49Z</time>
      </trkpt>
      <trkpt lat="42.19534" lon="9.05747">
        <ele>1534.8</ele>
        <time>2015-06-25T08:14:50Z</time>
      </trkpt>
      <trkpt lat="42.19534" lon="9.05743">
        <ele>1535.8</ele>
        <time>2015-06-25T08:14:58Z</time>
      </trkpt>
      <trkpt lat="42.19536" lon="9.05744">
        <ele>1537</ele>
        <time>2015-06-25T08:15:06Z</time>
      </trkpt>
      <trkpt lat="42.19539" lon="9.05746">
        <ele>1538</ele>
        <time>2015-06-25T08:15:14Z</time>
      </trkpt>
      <trkpt lat="42.19543" lon="9.05745">
        <ele>1539.4</ele>
        <time>2015-06-25T08:15:23Z</time>
      </trkpt>
      <trkpt lat="42.19543" lon="9.05743">
        <ele>1540.4</ele>
        <time>2015-06-25T08:15:32Z</time>
      </trkpt>
      <trkpt lat="42.19546" lon="9.05742">
        <ele>1541.4</ele>
        <time>2015-06-25T08:15:39Z</time>
      </trkpt>
      <trkpt lat="42.19542" lon="9.05737">
        <ele>1542.4</ele>
        <time>2015-06-25T08:15:47Z</time>
      </trkpt>
      <trkpt lat="42.19539" lon="9.05733">
        <ele>1543.6</ele>
        <time>2015-06-25T08:15:56Z</time>
      </trkpt>
      <trkpt lat="42.19537" lon="9.05734">
        <ele>1545</ele>
        <time>2015-06-25T08:16:07Z</time>
      </trkpt>
      <trkpt lat="42.1954" lon="9.0573">
        <ele>1546.4</ele>
        <time>2015-06-25T08:16:16Z</time>
      </trkpt>
      <trkpt lat="42.19541" lon="9.05733">
        <ele>1547.2</ele>
        <time>2015-06-25T08:16:27Z</time>
      </trkpt>
      <trkpt lat="42.19545" lon="9.05726">
        <ele>1548.6</ele>
        <time>2015-06-25T08:17:31Z</time>
      </trkpt>
      <trkpt lat="42.19544" lon="9.05725">
        <ele>1549.6</ele>
        <time>2015-06-25T08:17:37Z</time>
      </trkpt>
      <trkpt lat="42.19545" lon="9.05723">
        <ele>1550.8</ele>
        <time>2015-06-25T08:17:43Z</time>
      </trkpt>
      <trkpt lat="42.1954" lon="9.05719">
        <ele>1552.4</ele>
        <time>2015-06-25T08:17:55Z</time>
      </trkpt>
      <trkpt lat="42.19539" lon="9.05718">
        <ele>1553.4</ele>
        <time>2015-06-25T08:18:01Z</time>
      </trkpt>
      <trkpt lat="42.19537" lon="9.05715">
        <ele>1555</ele>
        <time>2015-06-25T08:18:11Z</time>
      </trkpt>
      <trkpt lat="42.19541" lon="9.05715">
        <ele>1555.8</ele>
        <time>2015-06-25T08:18:20Z</time>
      </trkpt>
      <trkpt lat="42.19544" lon="9.05714">
        <ele>1557.6</ele>
        <time>2015-06-25T08:18:39Z</time>
      </trkpt>
      <trkpt lat="42.19541" lon="9.05713">
        <ele>1558.6</ele>
        <time>2015-06-25T08:18:52Z</time>
      </trkpt>
      <trkpt lat="42.1954" lon="9.05713">
        <ele>1559.6</ele>
        <time>2015-06-25T08:19:01Z</time>
      </trkpt>
      <trkpt lat="42.19543" lon="9.05713">
        <ele>1560.6</ele>
        <time>2015-06-25T08:19:10Z</time>
      </trkpt>
      <trkpt lat="42.19547" lon="9.05709">
        <ele>1562.4</ele>
        <time>2015-06-25T08:19:24Z</time>
      </trkpt>
      <trkpt lat="42.19541" lon="9.05706">
        <ele>1563.2</ele>
        <time>2015-06-25T08:19:36Z</time>
      </trkpt>
      <trkpt lat="42.1954" lon="9.05689">
        <ele>1565</ele>
        <time>2015-06-25T08:20:04Z</time>
      </trkpt>
      <trkpt lat="42.1954" lon="9.0568">
        <ele>1565.8</ele>
        <time>2015-06-25T08:20:19Z</time>
      </trkpt>
      <trkpt lat="42.19537" lon="9.05673">
        <ele>1567.4</ele>
        <time>2015-06-25T08:20:36Z</time>
      </trkpt>
      <trkpt lat="42.19537" lon="9.05668">
        <ele>1568.6</ele>
        <time>2015-06-25T08:20:47Z</time>
      </trkpt>
      <trkpt lat="42.19537" lon="9.05669">
        <ele>1569.4</ele>
        <time>2015-06-25T08:20:58Z</time>
      </trkpt>
      <trkpt lat="42.19539" lon="9.0567">
        <ele>1570.2</ele>
        <time>2015-06-25T08:21:11Z</time>
      </trkpt>
      <trkpt lat="42.19538" lon="9.05664">
        <ele>1571.6</ele>
        <time>2015-06-25T08:21:21Z</time>
      </trkpt>
      <trkpt lat="42.19536" lon="9.05654">
        <ele>1573</ele>
        <time>2015-06-25T08:21:38Z</time>
      </trkpt>
      <trkpt lat="42.19537" lon="9.05648">
        <ele>1574</ele>
        <time>2015-06-25T08:21:49Z</time>
      </trkpt>
      <trkpt lat="42.19535" lon="9.05641">
        <ele>1575.2</ele>
        <time>2015-06-25T08:22:01Z</time>
      </trkpt>
      <trkpt lat="42.19535" lon="9.05632">
        <ele>1576.4</ele>
        <time>2015-06-25T08:22:14Z</time>
      </trkpt>
      <trkpt lat="42.19537" lon="9.05626">
        <ele>1577.4</ele>
        <time>2015-06-25T08:22:24Z</time>
      </trkpt>
      <trkpt lat="42.19537" lon="9.05621">
        <ele>1578.6</ele>
        <time>2015-06-25T08:22:32Z</time>
      </trkpt>
      <trkpt lat="42.19537" lon="9.0562">
        <ele>1578.8</ele>
        <time>2015-06-25T08:22:33Z</time>
      </trkpt>
      <trkpt lat="42.19538" lon="9.05616">
        <ele>1579.8</ele>
        <time>2015-06-25T08:22:42Z</time>
      </trkpt>
      <trkpt lat="42.1954" lon="9.05614">
        <ele>1581</ele>
        <time>2015-06-25T08:22:54Z</time>
      </trkpt>
      <trkpt lat="42.19543" lon="9.05612">
        <ele>1582</ele>
        <time>2015-06-25T08:23:04Z</time>
      </trkpt>
      <trkpt lat="42.19545" lon="9.05601">
        <ele>1583.6</ele>
        <time>2015-06-25T08:23:22Z</time>
      </trkpt>
      <trkpt lat="42.19546" lon="9.05588">
        <ele>1585</ele>
        <time>2015-06-25T08:23:41Z</time>
      </trkpt>
      <trkpt lat="42.19544" lon="9.05581">
        <ele>1585.6</ele>
        <time>2015-06-25T08:23:54Z</time>
      </trkpt>
      <trkpt lat="42.19544" lon="9.05579">
        <ele>1586</ele>
        <time>2015-06-25T08:23:56Z</time>
      </trkpt>
      <trkpt lat="42.19544" lon="9.05576">
        <ele>1586.8</ele>
        <time>2015-06-25T08:24:02Z</time>
      </trkpt>
      <trkpt lat="42.19544" lon="9.05572">
        <ele>1587.8</ele>
        <time>2015-06-25T08:24:12Z</time>
      </trkpt>
      <trkpt lat="42.19543" lon="9.05568">
        <ele>1589</ele>
        <time>2015-06-25T08:24:21Z</time>
      </trkpt>
      <trkpt lat="42.19542" lon="9.05563">
        <ele>1590.8</ele>
        <time>2015-06-25T08:24:31Z</time>
      </trkpt>
      <trkpt lat="42.19539" lon="9.05551">
        <ele>1591.6</ele>
        <time>2015-06-25T08:24:44Z</time>
      </trkpt>
      <trkpt lat="42.19502" lon="9.05538">
        <ele>1592.6</ele>
        <time>2015-06-25T08:26:06Z</time>
      </trkpt>
      <trkpt lat="42.19497" lon="9.05536">
        <ele>1593.2</ele>
        <time>2015-06-25T08:26:13Z</time>
      </trkpt>
      <trkpt lat="42.19497" lon="9.05535">
        <ele>1593.2</ele>
        <time>2015-06-25T08:26:14Z</time>
      </trkpt>
      <trkpt lat="42.19494" lon="9.05529">
        <ele>1594</ele>
        <time>2015-06-25T08:26:24Z</time>
      </trkpt>
      <trkpt lat="42.19492" lon="9.05522">
        <ele>1595.2</ele>
        <time>2015-06-25T08:26:33Z</time>
      </trkpt>
      <trkpt lat="42.19486" lon="9.05513">
        <ele>1596.4</ele>
        <time>2015-06-25T08:26:47Z</time>
      </trkpt>
      <trkpt lat="42.19488" lon="9.05507">
        <ele>1597.2</ele>
        <time>2015-06-25T08:26:56Z</time>
      </trkpt>
      <trkpt lat="42.1949" lon="9.05503">
        <ele>1598.2</ele>
        <time>2015-06-25T08:27:03Z</time>
      </trkpt>
      <trkpt lat="42.19489" lon="9.05495">
        <ele>1599.8</ele>
        <time>2015-06-25T08:27:21Z</time>
      </trkpt>
      <trkpt lat="42.19487" lon="9.05499">
        <ele>1601.6</ele>
        <time>2015-06-25T08:30:23Z</time>
      </trkpt>
      <trkpt lat="42.19489" lon="9.05501">
        <ele>1600.6</ele>
        <time>2015-06-25T08:31:21Z</time>
      </trkpt>
      <trkpt lat="42.1949" lon="9.05498">
        <ele>1600.8</ele>
        <time>2015-06-25T08:34:31Z</time>
      </trkpt>
      <trkpt lat="42.19494" lon="9.05495">
        <ele>1601.4</ele>
        <time>2015-06-25T08:35:32Z</time>
      </trkpt>
      <trkpt lat="42.19495" lon="9.05467">
        <ele>1602</ele>
        <time>2015-06-25T08:36:44Z</time>
      </trkpt>
      <trkpt lat="42.19494" lon="9.05463">
        <ele>1603</ele>
        <time>2015-06-25T08:36:50Z</time>
      </trkpt>
      <trkpt lat="42.19492" lon="9.05455">
        <ele>1604.6</ele>
        <time>2015-06-25T08:37:05Z</time>
      </trkpt>
      <trkpt lat="42.19494" lon="9.05453">
        <ele>1605</ele>
        <time>2015-06-25T08:37:11Z</time>
      </trkpt>
      <trkpt lat="42.19497" lon="9.05451">
        <ele>1606.4</ele>
        <time>2015-06-25T08:37:22Z</time>
      </trkpt>
      <trkpt lat="42.19501" lon="9.05451">
        <ele>1607.4</ele>
        <time>2015-06-25T08:37:31Z</time>
      </trkpt>
      <trkpt lat="42.19503" lon="9.05447">
        <ele>1608.6</ele>
        <time>2015-06-25T08:37:41Z</time>
      </trkpt>
      <trkpt lat="42.19505" lon="9.05445">
        <ele>1609.8</ele>
        <time>2015-06-25T08:37:54Z</time>
      </trkpt>
      <trkpt lat="42.19502" lon="9.05439">
        <ele>1611</ele>
        <time>2015-06-25T08:38:06Z</time>
      </trkpt>
      <trkpt lat="42.19504" lon="9.05436">
        <ele>1612</ele>
        <time>2015-06-25T08:38:17Z</time>
      </trkpt>
      <trkpt lat="42.19504" lon="9.05433">
        <ele>1613</ele>
        <time>2015-06-25T08:38:26Z</time>
      </trkpt>
      <trkpt lat="42.19504" lon="9.05429">
        <ele>1614.2</ele>
        <time>2015-06-25T08:38:39Z</time>
      </trkpt>
      <trkpt lat="42.19502" lon="9.05425">
        <ele>1615.4</ele>
        <time>2015-06-25T08:38:48Z</time>
      </trkpt>
      <trkpt lat="42.19504" lon="9.05423">
        <ele>1616.4</ele>
        <time>2015-06-25T08:38:57Z</time>
      </trkpt>
      <trkpt lat="42.19506" lon="9.05423">
        <ele>1617.6</ele>
        <time>2015-06-25T08:39:07Z</time>
      </trkpt>
      <trkpt lat="42.19507" lon="9.05419">
        <ele>1618.8</ele>
        <time>2015-06-25T08:39:17Z</time>
      </trkpt>
      <trkpt lat="42.19508" lon="9.05415">
        <ele>1619.8</ele>
        <time>2015-06-25T08:39:27Z</time>
      </trkpt>
      <trkpt lat="42.19506" lon="9.05412">
        <ele>1620.8</ele>
        <time>2015-06-25T08:39:37Z</time>
      </trkpt>
      <trkpt lat="42.19505" lon="9.05407">
        <ele>1622.2</ele>
        <time>2015-06-25T08:39:47Z</time>
      </trkpt>
      <trkpt lat="42.19507" lon="9.05408">
        <ele>1623.2</ele>
        <time>2015-06-25T08:39:57Z</time>
      </trkpt>
      <trkpt lat="42.19509" lon="9.05406">
        <ele>1624.2</ele>
        <time>2015-06-25T08:40:04Z</time>
      </trkpt>
      <trkpt lat="42.19511" lon="9.05404">
        <ele>1625.4</ele>
        <time>2015-06-25T08:40:16Z</time>
      </trkpt>
      <trkpt lat="42.19509" lon="9.054">
        <ele>1627</ele>
        <time>2015-06-25T08:40:36Z</time>
      </trkpt>
      <trkpt lat="42.19508" lon="9.05397">
        <ele>1627.4</ele>
        <time>2015-06-25T08:40:42Z</time>
      </trkpt>
      <trkpt lat="42.19508" lon="9.05395">
        <ele>1628.8</ele>
        <time>2015-06-25T08:40:52Z</time>
      </trkpt>
      <trkpt lat="42.19508" lon="9.05393">
        <ele>1629.8</ele>
        <time>2015-06-25T08:41:03Z</time>
      </trkpt>
      <trkpt lat="42.19508" lon="9.0539">
        <ele>1631.2</ele>
        <time>2015-06-25T08:41:14Z</time>
      </trkpt>
      <trkpt lat="42.19509" lon="9.05385">
        <ele>1632.4</ele>
        <time>2015-06-25T08:41:24Z</time>
      </trkpt>
      <trkpt lat="42.1951" lon="9.05383">
        <ele>1633</ele>
        <time>2015-06-25T08:41:33Z</time>
      </trkpt>
      <trkpt lat="42.19509" lon="9.05379">
        <ele>1634.4</ele>
        <time>2015-06-25T08:41:45Z</time>
      </trkpt>
      <trkpt lat="42.19508" lon="9.05372">
        <ele>1635.6</ele>
        <time>2015-06-25T08:42:01Z</time>
      </trkpt>
      <trkpt lat="42.19511" lon="9.05373">
        <ele>1636.8</ele>
        <time>2015-06-25T08:42:10Z</time>
      </trkpt>
      <trkpt lat="42.19512" lon="9.05367">
        <ele>1638.4</ele>
        <time>2015-06-25T08:42:23Z</time>
      </trkpt>
      <trkpt lat="42.19513" lon="9.05366">
        <ele>1639.2</ele>
        <time>2015-06-25T08:42:32Z</time>
      </trkpt>
      <trkpt lat="42.19512" lon="9.05363">
        <ele>1641</ele>
        <time>2015-06-25T08:42:58Z</time>
      </trkpt>
      <trkpt lat="42.19512" lon="9.05359">
        <ele>1641.6</ele>
        <time>2015-06-25T08:43:09Z</time>
      </trkpt>
      <trkpt lat="42.19512" lon="9.05356">
        <ele>1642.6</ele>
        <time>2015-06-25T08:43:17Z</time>
      </trkpt>
      <trkpt lat="42.19514" lon="9.05355">
        <ele>1643.4</ele>
        <time>2015-06-25T08:43:22Z</time>
      </trkpt>
      <trkpt lat="42.19514" lon="9.05352">
        <ele>1645.2</ele>
        <time>2015-06-25T08:43:31Z</time>
      </trkpt>
      <trkpt lat="42.19513" lon="9.05345">
        <ele>1646.2</ele>
        <time>2015-06-25T08:43:43Z</time>
      </trkpt>
      <trkpt lat="42.19514" lon="9.05343">
        <ele>1647.2</ele>
        <time>2015-06-25T08:43:52Z</time>
      </trkpt>
      <trkpt lat="42.19518" lon="9.05344">
        <ele>1648.4</ele>
        <time>2015-06-25T08:44:24Z</time>
      </trkpt>
      <trkpt lat="42.19517" lon="9.05338">
        <ele>1649.8</ele>
        <time>2015-06-25T08:44:35Z</time>
      </trkpt>
      <trkpt lat="42.19519" lon="9.05338">
        <ele>1651.4</ele>
        <time>2015-06-25T08:44:45Z</time>
      </trkpt>
      <trkpt lat="42.19522" lon="9.05337">
        <ele>1652.4</ele>
        <time>2015-06-25T08:44:58Z</time>
      </trkpt>
      <trkpt lat="42.19518" lon="9.0533">
        <ele>1653.6</ele>
        <time>2015-06-25T08:45:11Z</time>
      </trkpt>
      <trkpt lat="42.19518" lon="9.05329">
        <ele>1653.6</ele>
        <time>2015-06-25T08:45:13Z</time>
      </trkpt>
      <trkpt lat="42.19519" lon="9.05328">
        <ele>1654.4</ele>
        <time>2015-06-25T08:45:19Z</time>
      </trkpt>
      <trkpt lat="42.19522" lon="9.05328">
        <ele>1656</ele>
        <time>2015-06-25T08:45:28Z</time>
      </trkpt>
      <trkpt lat="42.19524" lon="9.05324">
        <ele>1657.2</ele>
        <time>2015-06-25T08:45:42Z</time>
      </trkpt>
      <trkpt lat="42.19526" lon="9.05321">
        <ele>1658.2</ele>
        <time>2015-06-25T08:45:50Z</time>
      </trkpt>
      <trkpt lat="42.19527" lon="9.05318">
        <ele>1659.4</ele>
        <time>2015-06-25T08:45:57Z</time>
      </trkpt>
      <trkpt lat="42.19529" lon="9.05318">
        <ele>1661</ele>
        <time>2015-06-25T08:46:08Z</time>
      </trkpt>
      <trkpt lat="42.19531" lon="9.05319">
        <ele>1662.2</ele>
        <time>2015-06-25T08:46:22Z</time>
      </trkpt>
      <trkpt lat="42.19533" lon="9.05318">
        <ele>1663.4</ele>
        <time>2015-06-25T08:46:32Z</time>
      </trkpt>
      <trkpt lat="42.19532" lon="9.05311">
        <ele>1664.8</ele>
        <time>2015-06-25T08:46:43Z</time>
      </trkpt>
      <trkpt lat="42.19535" lon="9.05308">
        <ele>1666</ele>
        <time>2015-06-25T08:46:53Z</time>
      </trkpt>
      <trkpt lat="42.19537" lon="9.05308">
        <ele>1666.8</ele>
        <time>2015-06-25T08:47:01Z</time>
      </trkpt>
      <trkpt lat="42.19539" lon="9.05305">
        <ele>1668.8</ele>
        <time>2015-06-25T08:47:16Z</time>
      </trkpt>
      <trkpt lat="42.1954" lon="9.053">
        <ele>1669.8</ele>
        <time>2015-06-25T08:47:27Z</time>
      </trkpt>
      <trkpt lat="42.1954" lon="9.05296">
        <ele>1670.4</ele>
        <time>2015-06-25T08:47:35Z</time>
      </trkpt>
      <trkpt lat="42.19542" lon="9.05294">
        <ele>1671.6</ele>
        <time>2015-06-25T08:47:45Z</time>
      </trkpt>
      <trkpt lat="42.19546" lon="9.05294">
        <ele>1672.8</ele>
        <time>2015-06-25T08:47:57Z</time>
      </trkpt>
      <trkpt lat="42.19548" lon="9.05294">
        <ele>1674</ele>
        <time>2015-06-25T08:48:05Z</time>
      </trkpt>
      <trkpt lat="42.19552" lon="9.05295">
        <ele>1674.8</ele>
        <time>2015-06-25T08:48:12Z</time>
      </trkpt>
      <trkpt lat="42.19556" lon="9.05298">
        <ele>1676.4</ele>
        <time>2015-06-25T08:48:23Z</time>
      </trkpt>
      <trkpt lat="42.19563" lon="9.05301">
        <ele>1677.8</ele>
        <time>2015-06-25T08:48:35Z</time>
      </trkpt>
      <trkpt lat="42.19561" lon="9.05293">
        <ele>1679.2</ele>
        <time>2015-06-25T08:48:48Z</time>
      </trkpt>
      <trkpt lat="42.19567" lon="9.05293">
        <ele>1680.2</ele>
        <time>2015-06-25T08:48:59Z</time>
      </trkpt>
      <trkpt lat="42.19571" lon="9.05294">
        <ele>1681.2</ele>
        <time>2015-06-25T08:49:07Z</time>
      </trkpt>
      <trkpt lat="42.19574" lon="9.0529">
        <ele>1682.4</ele>
        <time>2015-06-25T08:49:17Z</time>
      </trkpt>
      <trkpt lat="42.19571" lon="9.05284">
        <ele>1683.4</ele>
        <time>2015-06-25T08:49:27Z</time>
      </trkpt>
      <trkpt lat="42.1957" lon="9.05278">
        <ele>1684.8</ele>
        <time>2015-06-25T08:49:42Z</time>
      </trkpt>
      <trkpt lat="42.1957" lon="9.05275">
        <ele>1686</ele>
        <time>2015-06-25T08:49:52Z</time>
      </trkpt>
      <trkpt lat="42.19566" lon="9.05268">
        <ele>1687.4</ele>
        <time>2015-06-25T08:50:05Z</time>
      </trkpt>
      <trkpt lat="42.19566" lon="9.05263">
        <ele>1688.2</ele>
        <time>2015-06-25T08:50:14Z</time>
      </trkpt>
      <trkpt lat="42.19566" lon="9.05254">
        <ele>1689.8</ele>
        <time>2015-06-25T08:50:28Z</time>
      </trkpt>
      <trkpt lat="42.19567" lon="9.05255">
        <ele>1690.2</ele>
        <time>2015-06-25T08:50:35Z</time>
      </trkpt>
      <trkpt lat="42.1957" lon="9.05258">
        <ele>1691.4</ele>
        <time>2015-06-25T08:50:42Z</time>
      </trkpt>
      <trkpt lat="42.19574" lon="9.05259">
        <ele>1693</ele>
        <time>2015-06-25T08:50:51Z</time>
      </trkpt>
      <trkpt lat="42.19579" lon="9.05257">
        <ele>1694</ele>
        <time>2015-06-25T08:51:02Z</time>
      </trkpt>
      <trkpt lat="42.1958" lon="9.0525">
        <ele>1695.4</ele>
        <time>2015-06-25T08:51:13Z</time>
      </trkpt>
      <trkpt lat="42.1958" lon="9.05249">
        <ele>1695.6</ele>
        <time>2015-06-25T08:51:16Z</time>
      </trkpt>
      <trkpt lat="42.19582" lon="9.05249">
        <ele>1696.2</ele>
        <time>2015-06-25T08:51:23Z</time>
      </trkpt>
      <trkpt lat="42.19584" lon="9.05246">
        <ele>1697.6</ele>
        <time>2015-06-25T08:51:33Z</time>
      </trkpt>
      <trkpt lat="42.19585" lon="9.05242">
        <ele>1698.6</ele>
        <time>2015-06-25T08:51:42Z</time>
      </trkpt>
      <trkpt lat="42.19582" lon="9.05234">
        <ele>1700</ele>
        <time>2015-06-25T08:51:58Z</time>
      </trkpt>
      <trkpt lat="42.19582" lon="9.05233">
        <ele>1700.4</ele>
        <time>2015-06-25T08:52:03Z</time>
      </trkpt>
      <trkpt lat="42.19586" lon="9.05234">
        <ele>1702.6</ele>
        <time>2015-06-25T08:52:31Z</time>
      </trkpt>
      <trkpt lat="42.19588" lon="9.05233">
        <ele>1703.4</ele>
        <time>2015-06-25T08:52:38Z</time>
      </trkpt>
      <trkpt lat="42.19589" lon="9.05227">
        <ele>1704.6</ele>
        <time>2015-06-25T08:52:49Z</time>
      </trkpt>
      <trkpt lat="42.19589" lon="9.05222">
        <ele>1705.6</ele>
        <time>2015-06-25T08:52:57Z</time>
      </trkpt>
      <trkpt lat="42.19592" lon="9.05222">
        <ele>1707</ele>
        <time>2015-06-25T08:53:06Z</time>
      </trkpt>
      <trkpt lat="42.19596" lon="9.05221">
        <ele>1708.2</ele>
        <time>2015-06-25T08:53:16Z</time>
      </trkpt>
      <trkpt lat="42.19598" lon="9.05218">
        <ele>1709.2</ele>
        <time>2015-06-25T08:53:26Z</time>
      </trkpt>
      <trkpt lat="42.196" lon="9.05216">
        <ele>1710.2</ele>
        <time>2015-06-25T08:53:34Z</time>
      </trkpt>
      <trkpt lat="42.19599" lon="9.05211">
        <ele>1711.4</ele>
        <time>2015-06-25T08:53:43Z</time>
      </trkpt>
      <trkpt lat="42.19601" lon="9.05208">
        <ele>1712.6</ele>
        <time>2015-06-25T08:53:54Z</time>
      </trkpt>
      <trkpt lat="42.19603" lon="9.05208">
        <ele>1714</ele>
        <time>2015-06-25T08:54:04Z</time>
      </trkpt>
      <trkpt lat="42.19602" lon="9.05203">
        <ele>1714.6</ele>
        <time>2015-06-25T08:54:12Z</time>
      </trkpt>
      <trkpt lat="42.19603" lon="9.05202">
        <ele>1714.8</ele>
        <time>2015-06-25T08:54:15Z</time>
      </trkpt>
      <trkpt lat="42.19603" lon="9.05197">
        <ele>1716</ele>
        <time>2015-06-25T08:54:24Z</time>
      </trkpt>
      <trkpt lat="42.19603" lon="9.05196">
        <ele>1717.2</ele>
        <time>2015-06-25T08:54:34Z</time>
      </trkpt>
      <trkpt lat="42.19606" lon="9.05195">
        <ele>1718.8</ele>
        <time>2015-06-25T08:54:46Z</time>
      </trkpt>
      <trkpt lat="42.1961" lon="9.05193">
        <ele>1719.8</ele>
        <time>2015-06-25T08:55:00Z</time>
      </trkpt>
      <trkpt lat="42.19612" lon="9.05191">
        <ele>1720.8</ele>
        <time>2015-06-25T08:55:10Z</time>
      </trkpt>
      <trkpt lat="42.19614" lon="9.05189">
        <ele>1722</ele>
        <time>2015-06-25T08:55:20Z</time>
      </trkpt>
      <trkpt lat="42.19616" lon="9.05187">
        <ele>1723</ele>
        <time>2015-06-25T08:55:29Z</time>
      </trkpt>
      <trkpt lat="42.19618" lon="9.05183">
        <ele>1724.2</ele>
        <time>2015-06-25T08:55:39Z</time>
      </trkpt>
      <trkpt lat="42.19619" lon="9.05179">
        <ele>1725.6</ele>
        <time>2015-06-25T08:55:51Z</time>
      </trkpt>
      <trkpt lat="42.19621" lon="9.05177">
        <ele>1726.6</ele>
        <time>2015-06-25T08:56:00Z</time>
      </trkpt>
      <trkpt lat="42.1962" lon="9.05173">
        <ele>1727.6</ele>
        <time>2015-06-25T08:56:08Z</time>
      </trkpt>
      <trkpt lat="42.19621" lon="9.05167">
        <ele>1729.2</ele>
        <time>2015-06-25T08:56:21Z</time>
      </trkpt>
      <trkpt lat="42.19623" lon="9.05166">
        <ele>1729.8</ele>
        <time>2015-06-25T08:56:28Z</time>
      </trkpt>
      <trkpt lat="42.19625" lon="9.05161">
        <ele>1731.2</ele>
        <time>2015-06-25T08:56:38Z</time>
      </trkpt>
      <trkpt lat="42.19627" lon="9.05157">
        <ele>1732.4</ele>
        <time>2015-06-25T08:56:48Z</time>
      </trkpt>
      <trkpt lat="42.19627" lon="9.05149">
        <ele>1733.8</ele>
        <time>2015-06-25T08:56:59Z</time>
      </trkpt>
      <trkpt lat="42.19627" lon="9.05138">
        <ele>1735.4</ele>
        <time>2015-06-25T08:57:18Z</time>
      </trkpt>
      <trkpt lat="42.19628" lon="9.05138">
        <ele>1735.4</ele>
        <time>2015-06-25T08:57:19Z</time>
      </trkpt>
      <trkpt lat="42.19629" lon="9.05139">
        <ele>1736</ele>
        <time>2015-06-25T08:57:24Z</time>
      </trkpt>
      <trkpt lat="42.19629" lon="9.05137">
        <ele>1737.6</ele>
        <time>2015-06-25T08:57:35Z</time>
      </trkpt>
      <trkpt lat="42.19633" lon="9.05134">
        <ele>1738.6</ele>
        <time>2015-06-25T08:57:48Z</time>
      </trkpt>
      <trkpt lat="42.19635" lon="9.05132">
        <ele>1739.8</ele>
        <time>2015-06-25T08:57:58Z</time>
      </trkpt>
      <trkpt lat="42.19636" lon="9.05125">
        <ele>1741</ele>
        <time>2015-06-25T08:58:11Z</time>
      </trkpt>
      <trkpt lat="42.19638" lon="9.05123">
        <ele>1741.8</ele>
        <time>2015-06-25T08:58:18Z</time>
      </trkpt>
      <trkpt lat="42.19641" lon="9.05125">
        <ele>1743.4</ele>
        <time>2015-06-25T08:58:27Z</time>
      </trkpt>
      <trkpt lat="42.19642" lon="9.0512">
        <ele>1744.6</ele>
        <time>2015-06-25T08:58:43Z</time>
      </trkpt>
      <trkpt lat="42.19643" lon="9.05121">
        <ele>1745.8</ele>
        <time>2015-06-25T08:58:52Z</time>
      </trkpt>
      <trkpt lat="42.19644" lon="9.0512">
        <ele>1746.4</ele>
        <time>2015-06-25T08:59:00Z</time>
      </trkpt>
      <trkpt lat="42.19647" lon="9.05119">
        <ele>1747.6</ele>
        <time>2015-06-25T08:59:13Z</time>
      </trkpt>
      <trkpt lat="42.19653" lon="9.05123">
        <ele>1749.2</ele>
        <time>2015-06-25T08:59:54Z</time>
      </trkpt>
      <trkpt lat="42.19654" lon="9.05123">
        <ele>1750.6</ele>
        <time>2015-06-25T09:00:13Z</time>
      </trkpt>
      <trkpt lat="42.19655" lon="9.05119">
        <ele>1752</ele>
        <time>2015-06-25T09:00:30Z</time>
      </trkpt>
      <trkpt lat="42.19656" lon="9.05113">
        <ele>1753.2</ele>
        <time>2015-06-25T09:00:44Z</time>
      </trkpt>
      <trkpt lat="42.19657" lon="9.05111">
        <ele>1754</ele>
        <time>2015-06-25T09:00:53Z</time>
      </trkpt>
      <trkpt lat="42.19658" lon="9.0511">
        <ele>1755.2</ele>
        <time>2015-06-25T09:01:02Z</time>
      </trkpt>
      <trkpt lat="42.19659" lon="9.0511">
        <ele>1755.8</ele>
        <time>2015-06-25T09:01:06Z</time>
      </trkpt>
      <trkpt lat="42.19659" lon="9.05107">
        <ele>1756.6</ele>
        <time>2015-06-25T09:01:16Z</time>
      </trkpt>
      <trkpt lat="42.19662" lon="9.05105">
        <ele>1757.6</ele>
        <time>2015-06-25T09:01:24Z</time>
      </trkpt>
      <trkpt lat="42.19665" lon="9.05102">
        <ele>1759.4</ele>
        <time>2015-06-25T09:01:39Z</time>
      </trkpt>
      <trkpt lat="42.19665" lon="9.05102">
        <ele>1760.2</ele>
        <time>2015-06-25T09:02:03Z</time>
      </trkpt>
      <trkpt lat="42.19666" lon="9.051">
        <ele>1761.8</ele>
        <time>2015-06-25T09:02:19Z</time>
      </trkpt>
      <trkpt lat="42.19666" lon="9.05092">
        <ele>1763</ele>
        <time>2015-06-25T09:02:31Z</time>
      </trkpt>
      <trkpt lat="42.19666" lon="9.05088">
        <ele>1763.8</ele>
        <time>2015-06-25T09:02:38Z</time>
      </trkpt>
      <trkpt lat="42.19667" lon="9.05083">
        <ele>1765.2</ele>
        <time>2015-06-25T09:02:48Z</time>
      </trkpt>
      <trkpt lat="42.19667" lon="9.05081">
        <ele>1766.6</ele>
        <time>2015-06-25T09:02:59Z</time>
      </trkpt>
      <trkpt lat="42.19669" lon="9.05076">
        <ele>1767.4</ele>
        <time>2015-06-25T09:03:12Z</time>
      </trkpt>
      <trkpt lat="42.19671" lon="9.05074">
        <ele>1768.6</ele>
        <time>2015-06-25T09:03:21Z</time>
      </trkpt>
      <trkpt lat="42.19672" lon="9.05074">
        <ele>1769.8</ele>
        <time>2015-06-25T09:03:28Z</time>
      </trkpt>
      <trkpt lat="42.19674" lon="9.05069">
        <ele>1771.2</ele>
        <time>2015-06-25T09:03:39Z</time>
      </trkpt>
      <trkpt lat="42.19677" lon="9.05066">
        <ele>1773</ele>
        <time>2015-06-25T09:03:58Z</time>
      </trkpt>
      <trkpt lat="42.1968" lon="9.05066">
        <ele>1773.4</ele>
        <time>2015-06-25T09:04:04Z</time>
      </trkpt>
      <trkpt lat="42.19685" lon="9.0507">
        <ele>1775</ele>
        <time>2015-06-25T09:04:13Z</time>
      </trkpt>
      <trkpt lat="42.19688" lon="9.0507">
        <ele>1775.6</ele>
        <time>2015-06-25T09:04:20Z</time>
      </trkpt>
      <trkpt lat="42.1969" lon="9.05068">
        <ele>1777.2</ele>
        <time>2015-06-25T09:04:29Z</time>
      </trkpt>
      <trkpt lat="42.19693" lon="9.05068">
        <ele>1778.4</ele>
        <time>2015-06-25T09:04:37Z</time>
      </trkpt>
      <trkpt lat="42.19697" lon="9.0507">
        <ele>1779.8</ele>
        <time>2015-06-25T09:04:49Z</time>
      </trkpt>
      <trkpt lat="42.19699" lon="9.05071">
        <ele>1780.4</ele>
        <time>2015-06-25T09:04:57Z</time>
      </trkpt>
      <trkpt lat="42.19702" lon="9.05077">
        <ele>1782</ele>
        <time>2015-06-25T09:05:12Z</time>
      </trkpt>
      <trkpt lat="42.19706" lon="9.05078">
        <ele>1783.2</ele>
        <time>2015-06-25T09:05:20Z</time>
      </trkpt>
      <trkpt lat="42.19709" lon="9.05076">
        <ele>1785</ele>
        <time>2015-06-25T09:05:35Z</time>
      </trkpt>
      <trkpt lat="42.19711" lon="9.05076">
        <ele>1785.8</ele>
        <time>2015-06-25T09:05:44Z</time>
      </trkpt>
      <trkpt lat="42.19713" lon="9.05074">
        <ele>1787</ele>
        <time>2015-06-25T09:05:56Z</time>
      </trkpt>
      <trkpt lat="42.19717" lon="9.05072">
        <ele>1788.4</ele>
        <time>2015-06-25T09:06:10Z</time>
      </trkpt>
      <trkpt lat="42.19719" lon="9.05071">
        <ele>1789.8</ele>
        <time>2015-06-25T09:06:23Z</time>
      </trkpt>
      <trkpt lat="42.19722" lon="9.05068">
        <ele>1791.2</ele>
        <time>2015-06-25T09:06:39Z</time>
      </trkpt>
      <trkpt lat="42.19722" lon="9.05065">
        <ele>1792.4</ele>
        <time>2015-06-25T09:07:00Z</time>
      </trkpt>
      <trkpt lat="42.19722" lon="9.05064">
        <ele>1794</ele>
        <time>2015-06-25T09:07:17Z</time>
      </trkpt>
      <trkpt lat="42.19723" lon="9.05064">
        <ele>1795</ele>
        <time>2015-06-25T09:07:26Z</time>
      </trkpt>
      <trkpt lat="42.19725" lon="9.05061">
        <ele>1796.8</ele>
        <time>2015-06-25T09:07:47Z</time>
      </trkpt>
      <trkpt lat="42.19725" lon="9.05053">
        <ele>1797.8</ele>
        <time>2015-06-25T09:08:09Z</time>
      </trkpt>
      <trkpt lat="42.19727" lon="9.05054">
        <ele>1798.4</ele>
        <time>2015-06-25T09:08:18Z</time>
      </trkpt>
      <trkpt lat="42.19729" lon="9.05055">
        <ele>1799</ele>
        <time>2015-06-25T09:08:25Z</time>
      </trkpt>
      <trkpt lat="42.1973" lon="9.05049">
        <ele>1800.6</ele>
        <time>2015-06-25T09:08:33Z</time>
      </trkpt>
      <trkpt lat="42.19732" lon="9.05049">
        <ele>1802</ele>
        <time>2015-06-25T09:08:53Z</time>
      </trkpt>
      <trkpt lat="42.19735" lon="9.05053">
        <ele>1803.4</ele>
        <time>2015-06-25T09:09:05Z</time>
      </trkpt>
      <trkpt lat="42.19737" lon="9.05043">
        <ele>1804.6</ele>
        <time>2015-06-25T09:09:20Z</time>
      </trkpt>
      <trkpt lat="42.19741" lon="9.0504">
        <ele>1806</ele>
        <time>2015-06-25T09:09:33Z</time>
      </trkpt>
      <trkpt lat="42.1974" lon="9.05036">
        <ele>1807.4</ele>
        <time>2015-06-25T09:09:46Z</time>
      </trkpt>
      <trkpt lat="42.19737" lon="9.0503">
        <ele>1808.8</ele>
        <time>2015-06-25T09:09:59Z</time>
      </trkpt>
      <trkpt lat="42.19741" lon="9.05031">
        <ele>1809.6</ele>
        <time>2015-06-25T09:10:10Z</time>
      </trkpt>
      <trkpt lat="42.19745" lon="9.05032">
        <ele>1811.4</ele>
        <time>2015-06-25T09:10:25Z</time>
      </trkpt>
      <trkpt lat="42.19743" lon="9.05026">
        <ele>1812</ele>
        <time>2015-06-25T09:10:33Z</time>
      </trkpt>
      <trkpt lat="42.19742" lon="9.0502">
        <ele>1813.6</ele>
        <time>2015-06-25T09:10:42Z</time>
      </trkpt>
      <trkpt lat="42.1974" lon="9.05013">
        <ele>1814.6</ele>
        <time>2015-06-25T09:10:53Z</time>
      </trkpt>
      <trkpt lat="42.1974" lon="9.0501">
        <ele>1815.8</ele>
        <time>2015-06-25T09:11:02Z</time>
      </trkpt>
      <trkpt lat="42.19741" lon="9.05005">
        <ele>1817.4</ele>
        <time>2015-06-25T09:11:15Z</time>
      </trkpt>
      <trkpt lat="42.1974" lon="9.05001">
        <ele>1817.8</ele>
        <time>2015-06-25T09:11:19Z</time>
      </trkpt>
      <trkpt lat="42.19739" lon="9.04994">
        <ele>1818.6</ele>
        <time>2015-06-25T09:11:31Z</time>
      </trkpt>
      <trkpt lat="42.19741" lon="9.04995">
        <ele>1819.6</ele>
        <time>2015-06-25T09:11:40Z</time>
      </trkpt>
      <trkpt lat="42.19742" lon="9.04993">
        <ele>1821.2</ele>
        <time>2015-06-25T09:11:49Z</time>
      </trkpt>
      <trkpt lat="42.19742" lon="9.04989">
        <ele>1821.6</ele>
        <time>2015-06-25T09:11:55Z</time>
      </trkpt>
      <trkpt lat="42.19744" lon="9.04985">
        <ele>1823.4</ele>
        <time>2015-06-25T09:12:05Z</time>
      </trkpt>
      <trkpt lat="42.19747" lon="9.04987">
        <ele>1824</ele>
        <time>2015-06-25T09:12:13Z</time>
      </trkpt>
      <trkpt lat="42.1975" lon="9.04991">
        <ele>1825.4</ele>
        <time>2015-06-25T09:12:20Z</time>
      </trkpt>
      <trkpt lat="42.19752" lon="9.04991">
        <ele>1826.6</ele>
        <time>2015-06-25T09:12:30Z</time>
      </trkpt>
      <trkpt lat="42.19753" lon="9.04991">
        <ele>1827.8</ele>
        <time>2015-06-25T09:12:40Z</time>
      </trkpt>
      <trkpt lat="42.19753" lon="9.04997">
        <ele>1829</ele>
        <time>2015-06-25T09:12:54Z</time>
      </trkpt>
      <trkpt lat="42.19753" lon="9.05004">
        <ele>1829.2</ele>
        <time>2015-06-25T09:13:30Z</time>
      </trkpt>
      <trkpt lat="42.19753" lon="9.05014">
        <ele>1828.4</ele>
        <time>2015-06-25T09:14:05Z</time>
      </trkpt>
      <trkpt lat="42.19773" lon="9.05047">
        <ele>1827.4</ele>
        <time>2015-06-25T09:15:06Z</time>
      </trkpt>
      <trkpt lat="42.19786" lon="9.05101">
        <ele>1826.8</ele>
        <time>2015-06-25T09:16:02Z</time>
      </trkpt>
      <trkpt lat="42.19789" lon="9.05109">
        <ele>1826.6</ele>
        <time>2015-06-25T09:17:22Z</time>
      </trkpt>
      <trkpt lat="42.19789" lon="9.05111">
        <ele>1826.4</ele>
        <time>2015-06-25T09:18:15Z</time>
      </trkpt>
      <trkpt lat="42.19796" lon="9.05117">
        <ele>1827</ele>
        <time>2015-06-25T09:19:52Z</time>
      </trkpt>
      <trkpt lat="42.19813" lon="9.05147">
        <ele>1826.8</ele>
        <time>2015-06-25T09:20:24Z</time>
      </trkpt>
      <trkpt lat="42.1982" lon="9.05157">
        <ele>1825.6</ele>
        <time>2015-06-25T09:20:48Z</time>
      </trkpt>
      <trkpt lat="42.19815" lon="9.05177">
        <ele>1824.8</ele>
        <time>2015-06-25T09:21:04Z</time>
      </trkpt>
      <trkpt lat="42.1983" lon="9.05227">
        <ele>1824.2</ele>
        <time>2015-06-25T09:22:13Z</time>
      </trkpt>
      <trkpt lat="42.19837" lon="9.05235">
        <ele>1824.6</ele>
        <time>2015-06-25T09:22:39Z</time>
      </trkpt>
      <trkpt lat="42.19837" lon="9.05233">
        <ele>1824.6</ele>
        <time>2015-06-25T09:22:47Z</time>
      </trkpt>
      <trkpt lat="42.19817" lon="9.05226">
        <ele>1824.4</ele>
        <time>2015-06-25T09:23:36Z</time>
      </trkpt>
      <trkpt lat="42.19822" lon="9.0523">
        <ele>1824.2</ele>
        <time>2015-06-25T09:23:40Z</time>
      </trkpt>
      <trkpt lat="42.19822" lon="9.05235">
        <ele>1824.6</ele>
        <time>2015-06-25T09:23:53Z</time>
      </trkpt>
      <trkpt lat="42.19821" lon="9.05247">
        <ele>1824.4</ele>
        <time>2015-06-25T09:24:00Z</time>
      </trkpt>
      <trkpt lat="42.19821" lon="9.0525">
        <ele>1824.2</ele>
        <time>2015-06-25T09:24:03Z</time>
      </trkpt>
      <trkpt lat="42.19818" lon="9.05241">
        <ele>1824.2</ele>
        <time>2015-06-25T09:24:34Z</time>
      </trkpt>
      <trkpt lat="42.1981" lon="9.05245">
        <ele>1822.6</ele>
        <time>2015-06-25T09:25:37Z</time>
      </trkpt>
      <trkpt lat="42.19808" lon="9.05245">
        <ele>1822.4</ele>
        <time>2015-06-25T09:26:25Z</time>
      </trkpt>
      <trkpt lat="42.19807" lon="9.05245">
        <ele>1822.4</ele>
        <time>2015-06-25T09:27:02Z</time>
      </trkpt>
      <trkpt lat="42.19806" lon="9.05247">
        <ele>1822.4</ele>
        <time>2015-06-25T09:27:12Z</time>
      </trkpt>
    </trkseg>
  </trk>
  <trk>
    <name><![CDATA[GR20 Petra Piana - Manganu]]></name>
    <trkseg>
      <trkpt lat="42.19623" lon="9.05221">
        <ele>1932.2</ele>
        <time>2015-06-26T03:53:04Z</time>
      </trkpt>
      <trkpt lat="42.19632" lon="9.05223">
        <ele>1932.2</ele>
        <time>2015-06-26T03:53:06Z</time>
      </trkpt>
      <trkpt lat="42.19655" lon="9.05224">
        <ele>1932.2</ele>
        <time>2015-06-26T03:53:12Z</time>
      </trkpt>
      <trkpt lat="42.19661" lon="9.05222">
        <ele>1932</ele>
        <time>2015-06-26T03:53:14Z</time>
      </trkpt>
      <trkpt lat="42.19667" lon="9.05221">
        <ele>1932.4</ele>
        <time>2015-06-26T03:53:16Z</time>
      </trkpt>
      <trkpt lat="42.197" lon="9.05224">
        <ele>1932.4</ele>
        <time>2015-06-26T03:53:22Z</time>
      </trkpt>
      <trkpt lat="42.19725" lon="9.05224">
        <ele>1932.2</ele>
        <time>2015-06-26T03:53:26Z</time>
      </trkpt>
      <trkpt lat="42.19735" lon="9.05223">
        <ele>1932.4</ele>
        <time>2015-06-26T03:53:28Z</time>
      </trkpt>
      <trkpt lat="42.19744" lon="9.0522">
        <ele>1932.2</ele>
        <time>2015-06-26T03:53:31Z</time>
      </trkpt>
      <trkpt lat="42.19805" lon="9.05203">
        <ele>1932.4</ele>
        <time>2015-06-26T03:53:34Z</time>
      </trkpt>
      <trkpt lat="42.19822" lon="9.05182">
        <ele>1933.6</ele>
        <time>2015-06-26T03:53:52Z</time>
      </trkpt>
      <trkpt lat="42.19822" lon="9.0517">
        <ele>1934.2</ele>
        <time>2015-06-26T03:54:05Z</time>
      </trkpt>
      <trkpt lat="42.19822" lon="9.05165">
        <ele>1934.6</ele>
        <time>2015-06-26T03:54:16Z</time>
      </trkpt>
      <trkpt lat="42.19825" lon="9.05163">
        <ele>1934.6</ele>
        <time>2015-06-26T03:54:24Z</time>
      </trkpt>
      <trkpt lat="42.19836" lon="9.05156">
        <ele>1940.4</ele>
        <time>2015-06-26T03:55:22Z</time>
      </trkpt>
      <trkpt lat="42.19839" lon="9.0515">
        <ele>1942.6</ele>
        <time>2015-06-26T03:55:47Z</time>
      </trkpt>
      <trkpt lat="42.19843" lon="9.05145">
        <ele>1945</ele>
        <time>2015-06-26T03:56:16Z</time>
      </trkpt>
      <trkpt lat="42.19843" lon="9.05145">
        <ele>1945.4</ele>
        <time>2015-06-26T03:56:24Z</time>
      </trkpt>
      <trkpt lat="42.19843" lon="9.05145">
        <ele>1945.6</ele>
        <time>2015-06-26T03:56:33Z</time>
      </trkpt>
      <trkpt lat="42.19845" lon="9.05144">
        <ele>1945.4</ele>
        <time>2015-06-26T03:56:39Z</time>
      </trkpt>
      <trkpt lat="42.19845" lon="9.05144">
        <ele>1945.4</ele>
        <time>2015-06-26T03:56:40Z</time>
      </trkpt>
      <trkpt lat="42.19852" lon="9.05137">
        <ele>1947.6</ele>
        <time>2015-06-26T03:57:10Z</time>
      </trkpt>
      <trkpt lat="42.19853" lon="9.05123">
        <ele>1951.4</ele>
        <time>2015-06-26T03:57:42Z</time>
      </trkpt>
      <trkpt lat="42.19853" lon="9.0512">
        <ele>1951.6</ele>
        <time>2015-06-26T03:57:45Z</time>
      </trkpt>
      <trkpt lat="42.19867" lon="9.051">
        <ele>1958.2</ele>
        <time>2015-06-26T03:58:41Z</time>
      </trkpt>
      <trkpt lat="42.1988" lon="9.05051">
        <ele>1968.2</ele>
        <time>2015-06-26T04:00:16Z</time>
      </trkpt>
      <trkpt lat="42.19874" lon="9.05034">
        <ele>1971.6</ele>
        <time>2015-06-26T04:00:50Z</time>
      </trkpt>
      <trkpt lat="42.19872" lon="9.05032">
        <ele>1971.6</ele>
        <time>2015-06-26T04:00:55Z</time>
      </trkpt>
      <trkpt lat="42.19871" lon="9.05031">
        <ele>1971.2</ele>
        <time>2015-06-26T04:01:02Z</time>
      </trkpt>
      <trkpt lat="42.1987" lon="9.05023">
        <ele>1971.8</ele>
        <time>2015-06-26T04:01:19Z</time>
      </trkpt>
      <trkpt lat="42.19894" lon="9.04993">
        <ele>1987.4</ele>
        <time>2015-06-26T04:03:55Z</time>
      </trkpt>
      <trkpt lat="42.19907" lon="9.04963">
        <ele>1996.8</ele>
        <time>2015-06-26T04:05:23Z</time>
      </trkpt>
      <trkpt lat="42.19895" lon="9.04953">
        <ele>2001</ele>
        <time>2015-06-26T04:06:08Z</time>
      </trkpt>
      <trkpt lat="42.19907" lon="9.04938">
        <ele>2006.6</ele>
        <time>2015-06-26T04:07:09Z</time>
      </trkpt>
      <trkpt lat="42.19905" lon="9.04917">
        <ele>2013.8</ele>
        <time>2015-06-26T04:08:25Z</time>
      </trkpt>
      <trkpt lat="42.19907" lon="9.04913">
        <ele>2015.6</ele>
        <time>2015-06-26T04:08:40Z</time>
      </trkpt>
      <trkpt lat="42.19911" lon="9.04911">
        <ele>2017.6</ele>
        <time>2015-06-26T04:08:56Z</time>
      </trkpt>
      <trkpt lat="42.19905" lon="9.04894">
        <ele>2021.4</ele>
        <time>2015-06-26T04:09:28Z</time>
      </trkpt>
      <trkpt lat="42.19911" lon="9.04873">
        <ele>2027</ele>
        <time>2015-06-26T04:10:28Z</time>
      </trkpt>
      <trkpt lat="42.19908" lon="9.04852">
        <ele>2033</ele>
        <time>2015-06-26T04:11:50Z</time>
      </trkpt>
      <trkpt lat="42.19907" lon="9.0483">
        <ele>2036.4</ele>
        <time>2015-06-26T04:12:34Z</time>
      </trkpt>
      <trkpt lat="42.19911" lon="9.04821">
        <ele>2040.6</ele>
        <time>2015-06-26T04:13:16Z</time>
      </trkpt>
      <trkpt lat="42.19916" lon="9.04822">
        <ele>2042.8</ele>
        <time>2015-06-26T04:13:33Z</time>
      </trkpt>
      <trkpt lat="42.19917" lon="9.04823">
        <ele>2043.2</ele>
        <time>2015-06-26T04:13:36Z</time>
      </trkpt>
      <trkpt lat="42.19926" lon="9.04823">
        <ele>2046</ele>
        <time>2015-06-26T04:14:01Z</time>
      </trkpt>
      <trkpt lat="42.19928" lon="9.04817">
        <ele>2048.2</ele>
        <time>2015-06-26T04:14:17Z</time>
      </trkpt>
      <trkpt lat="42.19926" lon="9.04808">
        <ele>2050.6</ele>
        <time>2015-06-26T04:14:40Z</time>
      </trkpt>
      <trkpt lat="42.19926" lon="9.04799">
        <ele>2052.4</ele>
        <time>2015-06-26T04:14:54Z</time>
      </trkpt>
      <trkpt lat="42.19925" lon="9.04786">
        <ele>2055</ele>
        <time>2015-06-26T04:15:19Z</time>
      </trkpt>
      <trkpt lat="42.19923" lon="9.04778">
        <ele>2057</ele>
        <time>2015-06-26T04:15:33Z</time>
      </trkpt>
      <trkpt lat="42.19928" lon="9.0477">
        <ele>2060.2</ele>
        <time>2015-06-26T04:16:10Z</time>
      </trkpt>
      <trkpt lat="42.19934" lon="9.04768">
        <ele>2062.6</ele>
        <time>2015-06-26T04:16:28Z</time>
      </trkpt>
      <trkpt lat="42.19934" lon="9.04762">
        <ele>2064.6</ele>
        <time>2015-06-26T04:16:41Z</time>
      </trkpt>
      <trkpt lat="42.19931" lon="9.04752">
        <ele>2066.8</ele>
        <time>2015-06-26T04:16:59Z</time>
      </trkpt>
      <trkpt lat="42.19928" lon="9.04744">
        <ele>2068.6</ele>
        <time>2015-06-26T04:17:14Z</time>
      </trkpt>
      <trkpt lat="42.19927" lon="9.04731">
        <ele>2072</ele>
        <time>2015-06-26T04:17:50Z</time>
      </trkpt>
      <trkpt lat="42.19933" lon="9.04727">
        <ele>2074.8</ele>
        <time>2015-06-26T04:18:20Z</time>
      </trkpt>
      <trkpt lat="42.19937" lon="9.04727">
        <ele>2077.4</ele>
        <time>2015-06-26T04:18:41Z</time>
      </trkpt>
      <trkpt lat="42.19943" lon="9.04726">
        <ele>2079.6</ele>
        <time>2015-06-26T04:19:04Z</time>
      </trkpt>
      <trkpt lat="42.19951" lon="9.04728">
        <ele>2081.2</ele>
        <time>2015-06-26T04:19:19Z</time>
      </trkpt>
      <trkpt lat="42.19958" lon="9.04728">
        <ele>2083.4</ele>
        <time>2015-06-26T04:19:33Z</time>
      </trkpt>
      <trkpt lat="42.19962" lon="9.04725">
        <ele>2085.4</ele>
        <time>2015-06-26T04:19:50Z</time>
      </trkpt>
      <trkpt lat="42.19965" lon="9.04725">
        <ele>2087.2</ele>
        <time>2015-06-26T04:20:03Z</time>
      </trkpt>
      <trkpt lat="42.19963" lon="9.04719">
        <ele>2089.2</ele>
        <time>2015-06-26T04:20:19Z</time>
      </trkpt>
      <trkpt lat="42.19969" lon="9.04717">
        <ele>2091.2</ele>
        <time>2015-06-26T04:20:39Z</time>
      </trkpt>
      <trkpt lat="42.19974" lon="9.04715">
        <ele>2093.2</ele>
        <time>2015-06-26T04:20:55Z</time>
      </trkpt>
      <trkpt lat="42.19978" lon="9.04714">
        <ele>2095.4</ele>
        <time>2015-06-26T04:21:11Z</time>
      </trkpt>
      <trkpt lat="42.1998" lon="9.04711">
        <ele>2097.2</ele>
        <time>2015-06-26T04:21:26Z</time>
      </trkpt>
      <trkpt lat="42.20003" lon="9.0472">
        <ele>2103.4</ele>
        <time>2015-06-26T04:23:05Z</time>
      </trkpt>
      <trkpt lat="42.19999" lon="9.04712">
        <ele>2105.2</ele>
        <time>2015-06-26T04:23:24Z</time>
      </trkpt>
      <trkpt lat="42.19998" lon="9.04704">
        <ele>2107.4</ele>
        <time>2015-06-26T04:23:41Z</time>
      </trkpt>
      <trkpt lat="42.20001" lon="9.04705">
        <ele>2108.2</ele>
        <time>2015-06-26T04:23:50Z</time>
      </trkpt>
      <trkpt lat="42.20007" lon="9.04705">
        <ele>2110</ele>
        <time>2015-06-26T04:24:01Z</time>
      </trkpt>
      <trkpt lat="42.2001" lon="9.04702">
        <ele>2112</ele>
        <time>2015-06-26T04:24:15Z</time>
      </trkpt>
      <trkpt lat="42.20011" lon="9.047">
        <ele>2113.6</ele>
        <time>2015-06-26T04:24:28Z</time>
      </trkpt>
      <trkpt lat="42.20014" lon="9.04699">
        <ele>2115.8</ele>
        <time>2015-06-26T04:24:46Z</time>
      </trkpt>
      <trkpt lat="42.20013" lon="9.04696">
        <ele>2117.2</ele>
        <time>2015-06-26T04:25:00Z</time>
      </trkpt>
      <trkpt lat="42.20013" lon="9.04689">
        <ele>2119.2</ele>
        <time>2015-06-26T04:25:22Z</time>
      </trkpt>
      <trkpt lat="42.20009" lon="9.04682">
        <ele>2121.4</ele>
        <time>2015-06-26T04:25:41Z</time>
      </trkpt>
      <trkpt lat="42.20006" lon="9.04677">
        <ele>2123.6</ele>
        <time>2015-06-26T04:26:07Z</time>
      </trkpt>
      <trkpt lat="42.20004" lon="9.04676">
        <ele>2125.2</ele>
        <time>2015-06-26T04:26:19Z</time>
      </trkpt>
      <trkpt lat="42.20005" lon="9.04672">
        <ele>2126.6</ele>
        <time>2015-06-26T04:26:30Z</time>
      </trkpt>
      <trkpt lat="42.20001" lon="9.04668">
        <ele>2128.2</ele>
        <time>2015-06-26T04:26:40Z</time>
      </trkpt>
      <trkpt lat="42.2" lon="9.04662">
        <ele>2130</ele>
        <time>2015-06-26T04:27:26Z</time>
      </trkpt>
      <trkpt lat="42.20001" lon="9.04663">
        <ele>2130.2</ele>
        <time>2015-06-26T04:27:58Z</time>
      </trkpt>
      <trkpt lat="42.19999" lon="9.04664">
        <ele>2130.4</ele>
        <time>2015-06-26T04:28:18Z</time>
      </trkpt>
      <trkpt lat="42.19999" lon="9.04662">
        <ele>2130</ele>
        <time>2015-06-26T04:28:31Z</time>
      </trkpt>
      <trkpt lat="42.19998" lon="9.04661">
        <ele>2129.8</ele>
        <time>2015-06-26T04:28:54Z</time>
      </trkpt>
      <trkpt lat="42.19999" lon="9.04661">
        <ele>2129.8</ele>
        <time>2015-06-26T04:29:22Z</time>
      </trkpt>
      <trkpt lat="42.19999" lon="9.04662">
        <ele>2129.8</ele>
        <time>2015-06-26T04:29:39Z</time>
      </trkpt>
      <trkpt lat="42.19999" lon="9.04661">
        <ele>2129.4</ele>
        <time>2015-06-26T04:30:03Z</time>
      </trkpt>
      <trkpt lat="42.19999" lon="9.04662">
        <ele>2129.4</ele>
        <time>2015-06-26T04:30:25Z</time>
      </trkpt>
      <trkpt lat="42.19999" lon="9.04662">
        <ele>2129.2</ele>
        <time>2015-06-26T04:30:53Z</time>
      </trkpt>
      <trkpt lat="42.19999" lon="9.04662">
        <ele>2130</ele>
        <time>2015-06-26T04:31:32Z</time>
      </trkpt>
      <trkpt lat="42.19999" lon="9.04663">
        <ele>2129.8</ele>
        <time>2015-06-26T04:32:02Z</time>
      </trkpt>
      <trkpt lat="42.19998" lon="9.04663">
        <ele>2129.4</ele>
        <time>2015-06-26T04:32:23Z</time>
      </trkpt>
      <trkpt lat="42.19999" lon="9.04651">
        <ele>2129.2</ele>
        <time>2015-06-26T04:32:38Z</time>
      </trkpt>
      <trkpt lat="42.19999" lon="9.04646">
        <ele>2129</ele>
        <time>2015-06-26T04:32:43Z</time>
      </trkpt>
      <trkpt lat="42.19999" lon="9.04642">
        <ele>2128.4</ele>
        <time>2015-06-26T04:32:48Z</time>
      </trkpt>
      <trkpt lat="42.2" lon="9.04634">
        <ele>2126.6</ele>
        <time>2015-06-26T04:33:04Z</time>
      </trkpt>
      <trkpt lat="42.2" lon="9.0463">
        <ele>2126.6</ele>
        <time>2015-06-26T04:33:08Z</time>
      </trkpt>
      <trkpt lat="42.20001" lon="9.04628">
        <ele>2125.8</ele>
        <time>2015-06-26T04:33:13Z</time>
      </trkpt>
      <trkpt lat="42.20011" lon="9.0462">
        <ele>2125.6</ele>
        <time>2015-06-26T04:33:33Z</time>
      </trkpt>
      <trkpt lat="42.20015" lon="9.04615">
        <ele>2127</ele>
        <time>2015-06-26T04:33:43Z</time>
      </trkpt>
      <trkpt lat="42.20021" lon="9.0461">
        <ele>2129</ele>
        <time>2015-06-26T04:33:57Z</time>
      </trkpt>
      <trkpt lat="42.20024" lon="9.04607">
        <ele>2129.8</ele>
        <time>2015-06-26T04:34:04Z</time>
      </trkpt>
      <trkpt lat="42.20029" lon="9.04602">
        <ele>2131.6</ele>
        <time>2015-06-26T04:34:20Z</time>
      </trkpt>
      <trkpt lat="42.20034" lon="9.04593">
        <ele>2133.2</ele>
        <time>2015-06-26T04:34:33Z</time>
      </trkpt>
      <trkpt lat="42.20041" lon="9.04581">
        <ele>2135</ele>
        <time>2015-06-26T04:34:53Z</time>
      </trkpt>
      <trkpt lat="42.20047" lon="9.04571">
        <ele>2136.2</ele>
        <time>2015-06-26T04:35:08Z</time>
      </trkpt>
      <trkpt lat="42.20052" lon="9.04568">
        <ele>2137.4</ele>
        <time>2015-06-26T04:35:21Z</time>
      </trkpt>
      <trkpt lat="42.20056" lon="9.04568">
        <ele>2138.6</ele>
        <time>2015-06-26T04:35:31Z</time>
      </trkpt>
      <trkpt lat="42.20061" lon="9.04569">
        <ele>2140.2</ele>
        <time>2015-06-26T04:35:42Z</time>
      </trkpt>
      <trkpt lat="42.20063" lon="9.04568">
        <ele>2141.6</ele>
        <time>2015-06-26T04:35:52Z</time>
      </trkpt>
      <trkpt lat="42.20066" lon="9.04565">
        <ele>2143</ele>
        <time>2015-06-26T04:36:01Z</time>
      </trkpt>
      <trkpt lat="42.2007" lon="9.04564">
        <ele>2144.2</ele>
        <time>2015-06-26T04:36:12Z</time>
      </trkpt>
      <trkpt lat="42.20076" lon="9.0456">
        <ele>2146</ele>
        <time>2015-06-26T04:36:39Z</time>
      </trkpt>
      <trkpt lat="42.20079" lon="9.04561">
        <ele>2147.2</ele>
        <time>2015-06-26T04:36:49Z</time>
      </trkpt>
      <trkpt lat="42.20082" lon="9.04559">
        <ele>2149.2</ele>
        <time>2015-06-26T04:37:07Z</time>
      </trkpt>
      <trkpt lat="42.20085" lon="9.04556">
        <ele>2150</ele>
        <time>2015-06-26T04:37:14Z</time>
      </trkpt>
      <trkpt lat="42.20089" lon="9.04554">
        <ele>2151.8</ele>
        <time>2015-06-26T04:37:25Z</time>
      </trkpt>
      <trkpt lat="42.20092" lon="9.04549">
        <ele>2152.6</ele>
        <time>2015-06-26T04:37:33Z</time>
      </trkpt>
      <trkpt lat="42.2011" lon="9.04528">
        <ele>2156</ele>
        <time>2015-06-26T04:38:35Z</time>
      </trkpt>
      <trkpt lat="42.20118" lon="9.04521">
        <ele>2157.2</ele>
        <time>2015-06-26T04:38:52Z</time>
      </trkpt>
      <trkpt lat="42.20122" lon="9.04517">
        <ele>2158.2</ele>
        <time>2015-06-26T04:39:02Z</time>
      </trkpt>
      <trkpt lat="42.20126" lon="9.0451">
        <ele>2159.6</ele>
        <time>2015-06-26T04:39:13Z</time>
      </trkpt>
      <trkpt lat="42.20133" lon="9.04506">
        <ele>2161</ele>
        <time>2015-06-26T04:39:26Z</time>
      </trkpt>
      <trkpt lat="42.20139" lon="9.04503">
        <ele>2163.2</ele>
        <time>2015-06-26T04:39:51Z</time>
      </trkpt>
      <trkpt lat="42.20154" lon="9.04495">
        <ele>2164.6</ele>
        <time>2015-06-26T04:40:25Z</time>
      </trkpt>
      <trkpt lat="42.20158" lon="9.04492">
        <ele>2166</ele>
        <time>2015-06-26T04:40:35Z</time>
      </trkpt>
      <trkpt lat="42.2018" lon="9.04472">
        <ele>2167.2</ele>
        <time>2015-06-26T04:41:21Z</time>
      </trkpt>
      <trkpt lat="42.20202" lon="9.04457">
        <ele>2167.8</ele>
        <time>2015-06-26T04:42:39Z</time>
      </trkpt>
      <trkpt lat="42.2022" lon="9.0444">
        <ele>2167.8</ele>
        <time>2015-06-26T04:43:10Z</time>
      </trkpt>
      <trkpt lat="42.2023" lon="9.04436">
        <ele>2166.8</ele>
        <time>2015-06-26T04:43:24Z</time>
      </trkpt>
      <trkpt lat="42.20232" lon="9.04432">
        <ele>2166.4</ele>
        <time>2015-06-26T04:43:37Z</time>
      </trkpt>
      <trkpt lat="42.20237" lon="9.0443">
        <ele>2165.8</ele>
        <time>2015-06-26T04:43:43Z</time>
      </trkpt>
      <trkpt lat="42.20246" lon="9.04427">
        <ele>2164.4</ele>
        <time>2015-06-26T04:43:57Z</time>
      </trkpt>
      <trkpt lat="42.20267" lon="9.04414">
        <ele>2166</ele>
        <time>2015-06-26T04:45:16Z</time>
      </trkpt>
      <trkpt lat="42.2027" lon="9.04408">
        <ele>2167.6</ele>
        <time>2015-06-26T04:45:28Z</time>
      </trkpt>
      <trkpt lat="42.20272" lon="9.04412">
        <ele>2168.2</ele>
        <time>2015-06-26T04:45:37Z</time>
      </trkpt>
      <trkpt lat="42.20276" lon="9.04411">
        <ele>2170.6</ele>
        <time>2015-06-26T04:45:51Z</time>
      </trkpt>
      <trkpt lat="42.20279" lon="9.04409">
        <ele>2171.2</ele>
        <time>2015-06-26T04:45:58Z</time>
      </trkpt>
      <trkpt lat="42.2028" lon="9.04411">
        <ele>2172.8</ele>
        <time>2015-06-26T04:46:11Z</time>
      </trkpt>
      <trkpt lat="42.20284" lon="9.04412">
        <ele>2174.2</ele>
        <time>2015-06-26T04:46:27Z</time>
      </trkpt>
      <trkpt lat="42.20297" lon="9.04404">
        <ele>2176</ele>
        <time>2015-06-26T04:46:59Z</time>
      </trkpt>
      <trkpt lat="42.20298" lon="9.04404">
        <ele>2177</ele>
        <time>2015-06-26T04:47:08Z</time>
      </trkpt>
      <trkpt lat="42.20302" lon="9.04404">
        <ele>2178.6</ele>
        <time>2015-06-26T04:47:18Z</time>
      </trkpt>
      <trkpt lat="42.20307" lon="9.04399">
        <ele>2179.8</ele>
        <time>2015-06-26T04:47:31Z</time>
      </trkpt>
      <trkpt lat="42.20309" lon="9.04395">
        <ele>2181</ele>
        <time>2015-06-26T04:47:39Z</time>
      </trkpt>
      <trkpt lat="42.20312" lon="9.04392">
        <ele>2182.6</ele>
        <time>2015-06-26T04:47:50Z</time>
      </trkpt>
      <trkpt lat="42.20314" lon="9.0439">
        <ele>2183.6</ele>
        <time>2015-06-26T04:47:58Z</time>
      </trkpt>
      <trkpt lat="42.20324" lon="9.04372">
        <ele>2185.6</ele>
        <time>2015-06-26T04:48:36Z</time>
      </trkpt>
      <trkpt lat="42.20332" lon="9.04358">
        <ele>2187.4</ele>
        <time>2015-06-26T04:48:57Z</time>
      </trkpt>
      <trkpt lat="42.20337" lon="9.04355">
        <ele>2187.8</ele>
        <time>2015-06-26T04:49:06Z</time>
      </trkpt>
      <trkpt lat="42.20341" lon="9.0435">
        <ele>2188.6</ele>
        <time>2015-06-26T04:49:15Z</time>
      </trkpt>
      <trkpt lat="42.20349" lon="9.04349">
        <ele>2189.8</ele>
        <time>2015-06-26T04:49:29Z</time>
      </trkpt>
      <trkpt lat="42.20368" lon="9.04312">
        <ele>2192.4</ele>
        <time>2015-06-26T04:50:38Z</time>
      </trkpt>
      <trkpt lat="42.2037" lon="9.04312">
        <ele>2193.6</ele>
        <time>2015-06-26T04:50:46Z</time>
      </trkpt>
      <trkpt lat="42.20373" lon="9.04313">
        <ele>2194.8</ele>
        <time>2015-06-26T04:50:55Z</time>
      </trkpt>
      <trkpt lat="42.20377" lon="9.04313">
        <ele>2196.2</ele>
        <time>2015-06-26T04:51:04Z</time>
      </trkpt>
      <trkpt lat="42.20379" lon="9.04313">
        <ele>2197.4</ele>
        <time>2015-06-26T04:51:14Z</time>
      </trkpt>
      <trkpt lat="42.20383" lon="9.04311">
        <ele>2198.4</ele>
        <time>2015-06-26T04:51:23Z</time>
      </trkpt>
      <trkpt lat="42.20387" lon="9.0431">
        <ele>2199.8</ele>
        <time>2015-06-26T04:51:34Z</time>
      </trkpt>
      <trkpt lat="42.2039" lon="9.04311">
        <ele>2200.8</ele>
        <time>2015-06-26T04:51:42Z</time>
      </trkpt>
      <trkpt lat="42.20393" lon="9.04308">
        <ele>2202.2</ele>
        <time>2015-06-26T04:51:51Z</time>
      </trkpt>
      <trkpt lat="42.204" lon="9.04297">
        <ele>2203.8</ele>
        <time>2015-06-26T04:52:08Z</time>
      </trkpt>
      <trkpt lat="42.20405" lon="9.04279">
        <ele>2205.4</ele>
        <time>2015-06-26T04:52:41Z</time>
      </trkpt>
      <trkpt lat="42.20408" lon="9.04277">
        <ele>2206.4</ele>
        <time>2015-06-26T04:52:52Z</time>
      </trkpt>
      <trkpt lat="42.2041" lon="9.04276">
        <ele>2207.4</ele>
        <time>2015-06-26T04:53:04Z</time>
      </trkpt>
      <trkpt lat="42.20413" lon="9.04271">
        <ele>2208.4</ele>
        <time>2015-06-26T04:53:12Z</time>
      </trkpt>
      <trkpt lat="42.20417" lon="9.04265">
        <ele>2210</ele>
        <time>2015-06-26T04:53:23Z</time>
      </trkpt>
      <trkpt lat="42.20422" lon="9.04261">
        <ele>2211.2</ele>
        <time>2015-06-26T04:53:33Z</time>
      </trkpt>
      <trkpt lat="42.20427" lon="9.0425">
        <ele>2213</ele>
        <time>2015-06-26T04:53:51Z</time>
      </trkpt>
      <trkpt lat="42.20428" lon="9.04248">
        <ele>2213.4</ele>
        <time>2015-06-26T04:53:55Z</time>
      </trkpt>
      <trkpt lat="42.2043" lon="9.04246">
        <ele>2214.2</ele>
        <time>2015-06-26T04:54:02Z</time>
      </trkpt>
      <trkpt lat="42.20433" lon="9.04241">
        <ele>2215.6</ele>
        <time>2015-06-26T04:54:15Z</time>
      </trkpt>
      <trkpt lat="42.20439" lon="9.04228">
        <ele>2217</ele>
        <time>2015-06-26T04:54:35Z</time>
      </trkpt>
      <trkpt lat="42.20447" lon="9.04213">
        <ele>2218.2</ele>
        <time>2015-06-26T04:55:01Z</time>
      </trkpt>
      <trkpt lat="42.20463" lon="9.04169">
        <ele>2220.2</ele>
        <time>2015-06-26T04:56:07Z</time>
      </trkpt>
      <trkpt lat="42.20467" lon="9.04145">
        <ele>2222.8</ele>
        <time>2015-06-26T04:56:50Z</time>
      </trkpt>
      <trkpt lat="42.20468" lon="9.04138">
        <ele>2223.4</ele>
        <time>2015-06-26T04:56:58Z</time>
      </trkpt>
      <trkpt lat="42.20473" lon="9.04129">
        <ele>2224.8</ele>
        <time>2015-06-26T04:57:12Z</time>
      </trkpt>
      <trkpt lat="42.20475" lon="9.04124">
        <ele>2226.2</ele>
        <time>2015-06-26T04:57:26Z</time>
      </trkpt>
      <trkpt lat="42.20481" lon="9.04112">
        <ele>2227.2</ele>
        <time>2015-06-26T04:57:44Z</time>
      </trkpt>
      <trkpt lat="42.20481" lon="9.0411">
        <ele>2227.2</ele>
        <time>2015-06-26T04:57:46Z</time>
      </trkpt>
      <trkpt lat="42.20484" lon="9.04099">
        <ele>2228</ele>
        <time>2015-06-26T04:57:59Z</time>
      </trkpt>
      <trkpt lat="42.20488" lon="9.0409">
        <ele>2229.6</ele>
        <time>2015-06-26T04:58:17Z</time>
      </trkpt>
      <trkpt lat="42.20503" lon="9.04072">
        <ele>2230.8</ele>
        <time>2015-06-26T04:59:09Z</time>
      </trkpt>
      <trkpt lat="42.20506" lon="9.04065">
        <ele>2232.4</ele>
        <time>2015-06-26T04:59:26Z</time>
      </trkpt>
      <trkpt lat="42.20513" lon="9.04056">
        <ele>2233.6</ele>
        <time>2015-06-26T04:59:54Z</time>
      </trkpt>
      <trkpt lat="42.20516" lon="9.0405">
        <ele>2234.8</ele>
        <time>2015-06-26T05:00:07Z</time>
      </trkpt>
      <trkpt lat="42.20522" lon="9.04043">
        <ele>2236.4</ele>
        <time>2015-06-26T05:00:22Z</time>
      </trkpt>
      <trkpt lat="42.20526" lon="9.04037">
        <ele>2237</ele>
        <time>2015-06-26T05:00:36Z</time>
      </trkpt>
      <trkpt lat="42.20531" lon="9.04034">
        <ele>2238.6</ele>
        <time>2015-06-26T05:00:51Z</time>
      </trkpt>
      <trkpt lat="42.20536" lon="9.0403">
        <ele>2240</ele>
        <time>2015-06-26T05:01:01Z</time>
      </trkpt>
      <trkpt lat="42.20539" lon="9.04027">
        <ele>2241</ele>
        <time>2015-06-26T05:01:10Z</time>
      </trkpt>
      <trkpt lat="42.20542" lon="9.04021">
        <ele>2241.6</ele>
        <time>2015-06-26T05:01:19Z</time>
      </trkpt>
      <trkpt lat="42.20551" lon="9.03999">
        <ele>2243.6</ele>
        <time>2015-06-26T05:01:56Z</time>
      </trkpt>
      <trkpt lat="42.20556" lon="9.03993">
        <ele>2244.6</ele>
        <time>2015-06-26T05:02:11Z</time>
      </trkpt>
      <trkpt lat="42.2056" lon="9.03986">
        <ele>2246</ele>
        <time>2015-06-26T05:02:35Z</time>
      </trkpt>
      <trkpt lat="42.20561" lon="9.03974">
        <ele>2247.8</ele>
        <time>2015-06-26T05:03:13Z</time>
      </trkpt>
      <trkpt lat="42.20582" lon="9.03929">
        <ele>2247.6</ele>
        <time>2015-06-26T05:04:30Z</time>
      </trkpt>
      <trkpt lat="42.20591" lon="9.03921">
        <ele>2249.4</ele>
        <time>2015-06-26T05:04:55Z</time>
      </trkpt>
      <trkpt lat="42.20595" lon="9.03915">
        <ele>2250.4</ele>
        <time>2015-06-26T05:05:09Z</time>
      </trkpt>
      <trkpt lat="42.20608" lon="9.03902">
        <ele>2251.4</ele>
        <time>2015-06-26T05:05:42Z</time>
      </trkpt>
      <trkpt lat="42.20614" lon="9.03894">
        <ele>2253</ele>
        <time>2015-06-26T05:05:55Z</time>
      </trkpt>
      <trkpt lat="42.2062" lon="9.03887">
        <ele>2254.2</ele>
        <time>2015-06-26T05:06:10Z</time>
      </trkpt>
      <trkpt lat="42.20623" lon="9.03881">
        <ele>2255</ele>
        <time>2015-06-26T05:06:20Z</time>
      </trkpt>
      <trkpt lat="42.20634" lon="9.03868">
        <ele>2256.2</ele>
        <time>2015-06-26T05:06:48Z</time>
      </trkpt>
      <trkpt lat="42.20637" lon="9.03868">
        <ele>2256.6</ele>
        <time>2015-06-26T05:06:54Z</time>
      </trkpt>
      <trkpt lat="42.20641" lon="9.03865">
        <ele>2257.4</ele>
        <time>2015-06-26T05:07:03Z</time>
      </trkpt>
      <trkpt lat="42.20644" lon="9.03845">
        <ele>2258.8</ele>
        <time>2015-06-26T05:07:37Z</time>
      </trkpt>
      <trkpt lat="42.20644" lon="9.03843">
        <ele>2260.4</ele>
        <time>2015-06-26T05:07:53Z</time>
      </trkpt>
      <trkpt lat="42.20645" lon="9.03843">
        <ele>2260.8</ele>
        <time>2015-06-26T05:08:01Z</time>
      </trkpt>
      <trkpt lat="42.20645" lon="9.03841">
        <ele>2262.2</ele>
        <time>2015-06-26T05:08:10Z</time>
      </trkpt>
      <trkpt lat="42.20647" lon="9.0384">
        <ele>2263.8</ele>
        <time>2015-06-26T05:08:25Z</time>
      </trkpt>
      <trkpt lat="42.20649" lon="9.03838">
        <ele>2264.6</ele>
        <time>2015-06-26T05:08:35Z</time>
      </trkpt>
      <trkpt lat="42.20656" lon="9.03824">
        <ele>2266.4</ele>
        <time>2015-06-26T05:08:55Z</time>
      </trkpt>
      <trkpt lat="42.20657" lon="9.03819">
        <ele>2266.8</ele>
        <time>2015-06-26T05:09:03Z</time>
      </trkpt>
      <trkpt lat="42.2066" lon="9.03819">
        <ele>2268.4</ele>
        <time>2015-06-26T05:09:15Z</time>
      </trkpt>
      <trkpt lat="42.20663" lon="9.03816">
        <ele>2269.4</ele>
        <time>2015-06-26T05:09:25Z</time>
      </trkpt>
      <trkpt lat="42.20664" lon="9.03816">
        <ele>2271.2</ele>
        <time>2015-06-26T05:09:52Z</time>
      </trkpt>
      <trkpt lat="42.20664" lon="9.03816">
        <ele>2271.6</ele>
        <time>2015-06-26T05:09:57Z</time>
      </trkpt>
      <trkpt lat="42.20664" lon="9.03815">
        <ele>2272.2</ele>
        <time>2015-06-26T05:10:04Z</time>
      </trkpt>
      <trkpt lat="42.20666" lon="9.03806">
        <ele>2273</ele>
        <time>2015-06-26T05:10:23Z</time>
      </trkpt>
      <trkpt lat="42.20667" lon="9.03799">
        <ele>2274.4</ele>
        <time>2015-06-26T05:10:31Z</time>
      </trkpt>
      <trkpt lat="42.2067" lon="9.03797">
        <ele>2275.6</ele>
        <time>2015-06-26T05:10:40Z</time>
      </trkpt>
      <trkpt lat="42.20671" lon="9.03788">
        <ele>2276.8</ele>
        <time>2015-06-26T05:11:09Z</time>
      </trkpt>
      <trkpt lat="42.20671" lon="9.03785">
        <ele>2278.2</ele>
        <time>2015-06-26T05:11:17Z</time>
      </trkpt>
      <trkpt lat="42.20672" lon="9.03786">
        <ele>2279.6</ele>
        <time>2015-06-26T05:11:26Z</time>
      </trkpt>
      <trkpt lat="42.20675" lon="9.03772">
        <ele>2280.8</ele>
        <time>2015-06-26T05:13:10Z</time>
      </trkpt>
      <trkpt lat="42.20678" lon="9.03772">
        <ele>2281</ele>
        <time>2015-06-26T05:14:45Z</time>
      </trkpt>
      <trkpt lat="42.20676" lon="9.03755">
        <ele>2281.6</ele>
        <time>2015-06-26T05:15:11Z</time>
      </trkpt>
      <trkpt lat="42.20677" lon="9.03748">
        <ele>2282.4</ele>
        <time>2015-06-26T05:15:18Z</time>
      </trkpt>
      <trkpt lat="42.20684" lon="9.03748">
        <ele>2282</ele>
        <time>2015-06-26T05:15:31Z</time>
      </trkpt>
      <trkpt lat="42.20691" lon="9.03741">
        <ele>2280.8</ele>
        <time>2015-06-26T05:15:41Z</time>
      </trkpt>
      <trkpt lat="42.20693" lon="9.03738">
        <ele>2280.6</ele>
        <time>2015-06-26T05:15:46Z</time>
      </trkpt>
      <trkpt lat="42.20696" lon="9.03732">
        <ele>2279.2</ele>
        <time>2015-06-26T05:15:52Z</time>
      </trkpt>
      <trkpt lat="42.207" lon="9.03724">
        <ele>2277.6</ele>
        <time>2015-06-26T05:16:00Z</time>
      </trkpt>
      <trkpt lat="42.20705" lon="9.03709">
        <ele>2276.2</ele>
        <time>2015-06-26T05:16:46Z</time>
      </trkpt>
      <trkpt lat="42.20707" lon="9.03708">
        <ele>2276</ele>
        <time>2015-06-26T05:16:51Z</time>
      </trkpt>
      <trkpt lat="42.2071" lon="9.03704">
        <ele>2274.8</ele>
        <time>2015-06-26T05:16:58Z</time>
      </trkpt>
      <trkpt lat="42.20714" lon="9.03692">
        <ele>2273</ele>
        <time>2015-06-26T05:17:11Z</time>
      </trkpt>
      <trkpt lat="42.20722" lon="9.03677">
        <ele>2272.4</ele>
        <time>2015-06-26T05:17:28Z</time>
      </trkpt>
      <trkpt lat="42.20727" lon="9.03666">
        <ele>2271.2</ele>
        <time>2015-06-26T05:17:40Z</time>
      </trkpt>
      <trkpt lat="42.20736" lon="9.0365">
        <ele>2270.2</ele>
        <time>2015-06-26T05:17:58Z</time>
      </trkpt>
      <trkpt lat="42.20762" lon="9.03603">
        <ele>2270</ele>
        <time>2015-06-26T05:18:57Z</time>
      </trkpt>
      <trkpt lat="42.20765" lon="9.03591">
        <ele>2269.2</ele>
        <time>2015-06-26T05:19:15Z</time>
      </trkpt>
      <trkpt lat="42.20768" lon="9.0359">
        <ele>2268</ele>
        <time>2015-06-26T05:19:24Z</time>
      </trkpt>
      <trkpt lat="42.2077" lon="9.03588">
        <ele>2267.4</ele>
        <time>2015-06-26T05:19:30Z</time>
      </trkpt>
      <trkpt lat="42.20771" lon="9.03585">
        <ele>2266.2</ele>
        <time>2015-06-26T05:19:38Z</time>
      </trkpt>
      <trkpt lat="42.20774" lon="9.03584">
        <ele>2264.8</ele>
        <time>2015-06-26T05:19:45Z</time>
      </trkpt>
      <trkpt lat="42.20776" lon="9.03584">
        <ele>2263.4</ele>
        <time>2015-06-26T05:20:04Z</time>
      </trkpt>
      <trkpt lat="42.20777" lon="9.03582">
        <ele>2262.8</ele>
        <time>2015-06-26T05:20:11Z</time>
      </trkpt>
      <trkpt lat="42.20779" lon="9.0358">
        <ele>2261.2</ele>
        <time>2015-06-26T05:20:21Z</time>
      </trkpt>
      <trkpt lat="42.2078" lon="9.03577">
        <ele>2260</ele>
        <time>2015-06-26T05:20:39Z</time>
      </trkpt>
      <trkpt lat="42.20779" lon="9.03574">
        <ele>2259.6</ele>
        <time>2015-06-26T05:20:45Z</time>
      </trkpt>
      <trkpt lat="42.20779" lon="9.0357">
        <ele>2258.6</ele>
        <time>2015-06-26T05:20:51Z</time>
      </trkpt>
      <trkpt lat="42.20779" lon="9.03566">
        <ele>2257.2</ele>
        <time>2015-06-26T05:20:59Z</time>
      </trkpt>
      <trkpt lat="42.20782" lon="9.03566">
        <ele>2256.4</ele>
        <time>2015-06-26T05:21:04Z</time>
      </trkpt>
      <trkpt lat="42.20782" lon="9.03564">
        <ele>2254.2</ele>
        <time>2015-06-26T05:21:38Z</time>
      </trkpt>
      <trkpt lat="42.20783" lon="9.03555">
        <ele>2253.6</ele>
        <time>2015-06-26T05:23:15Z</time>
      </trkpt>
      <trkpt lat="42.20781" lon="9.03552">
        <ele>2252.4</ele>
        <time>2015-06-26T05:23:23Z</time>
      </trkpt>
      <trkpt lat="42.20783" lon="9.03543">
        <ele>2251.4</ele>
        <time>2015-06-26T05:23:38Z</time>
      </trkpt>
      <trkpt lat="42.20786" lon="9.03534">
        <ele>2250</ele>
        <time>2015-06-26T05:23:48Z</time>
      </trkpt>
      <trkpt lat="42.20788" lon="9.03516">
        <ele>2248.8</ele>
        <time>2015-06-26T05:24:05Z</time>
      </trkpt>
      <trkpt lat="42.20788" lon="9.03506">
        <ele>2247.8</ele>
        <time>2015-06-26T05:24:14Z</time>
      </trkpt>
      <trkpt lat="42.20789" lon="9.03474">
        <ele>2247.6</ele>
        <time>2015-06-26T05:25:24Z</time>
      </trkpt>
      <trkpt lat="42.20789" lon="9.03463">
        <ele>2247.4</ele>
        <time>2015-06-26T05:25:41Z</time>
      </trkpt>
      <trkpt lat="42.20784" lon="9.03449">
        <ele>2246.4</ele>
        <time>2015-06-26T05:26:23Z</time>
      </trkpt>
      <trkpt lat="42.20779" lon="9.03447">
        <ele>2246.2</ele>
        <time>2015-06-26T05:26:48Z</time>
      </trkpt>
      <trkpt lat="42.20775" lon="9.03439">
        <ele>2247.2</ele>
        <time>2015-06-26T05:27:10Z</time>
      </trkpt>
      <trkpt lat="42.20778" lon="9.03436">
        <ele>2247.6</ele>
        <time>2015-06-26T05:27:21Z</time>
      </trkpt>
      <trkpt lat="42.20779" lon="9.03432">
        <ele>2246.6</ele>
        <time>2015-06-26T05:27:27Z</time>
      </trkpt>
      <trkpt lat="42.20782" lon="9.03428">
        <ele>2245.4</ele>
        <time>2015-06-26T05:27:36Z</time>
      </trkpt>
      <trkpt lat="42.20792" lon="9.03413">
        <ele>2244.2</ele>
        <time>2015-06-26T05:28:11Z</time>
      </trkpt>
      <trkpt lat="42.20795" lon="9.03406">
        <ele>2243.2</ele>
        <time>2015-06-26T05:28:22Z</time>
      </trkpt>
      <trkpt lat="42.20794" lon="9.03395">
        <ele>2242</ele>
        <time>2015-06-26T05:28:37Z</time>
      </trkpt>
      <trkpt lat="42.20797" lon="9.03352">
        <ele>2242</ele>
        <time>2015-06-26T05:29:47Z</time>
      </trkpt>
      <trkpt lat="42.20801" lon="9.03346">
        <ele>2242.2</ele>
        <time>2015-06-26T05:29:58Z</time>
      </trkpt>
      <trkpt lat="42.20801" lon="9.03333">
        <ele>2242.4</ele>
        <time>2015-06-26T05:30:35Z</time>
      </trkpt>
      <trkpt lat="42.20802" lon="9.03308">
        <ele>2243.6</ele>
        <time>2015-06-26T05:31:06Z</time>
      </trkpt>
      <trkpt lat="42.20797" lon="9.03301">
        <ele>2244.4</ele>
        <time>2015-06-26T05:31:18Z</time>
      </trkpt>
      <trkpt lat="42.20794" lon="9.03296">
        <ele>2245.6</ele>
        <time>2015-06-26T05:31:27Z</time>
      </trkpt>
      <trkpt lat="42.20793" lon="9.03285">
        <ele>2246.4</ele>
        <time>2015-06-26T05:31:42Z</time>
      </trkpt>
      <trkpt lat="42.20793" lon="9.0328">
        <ele>2247.6</ele>
        <time>2015-06-26T05:31:50Z</time>
      </trkpt>
      <trkpt lat="42.20798" lon="9.03263">
        <ele>2248</ele>
        <time>2015-06-26T05:32:16Z</time>
      </trkpt>
      <trkpt lat="42.20802" lon="9.03253">
        <ele>2246.8</ele>
        <time>2015-06-26T05:32:29Z</time>
      </trkpt>
      <trkpt lat="42.20806" lon="9.03238">
        <ele>2246</ele>
        <time>2015-06-26T05:32:45Z</time>
      </trkpt>
      <trkpt lat="42.20811" lon="9.03208">
        <ele>2245.4</ele>
        <time>2015-06-26T05:34:11Z</time>
      </trkpt>
      <trkpt lat="42.20812" lon="9.03179">
        <ele>2244.8</ele>
        <time>2015-06-26T05:34:54Z</time>
      </trkpt>
      <trkpt lat="42.20812" lon="9.0317">
        <ele>2244.4</ele>
        <time>2015-06-26T05:35:05Z</time>
      </trkpt>
      <trkpt lat="42.20814" lon="9.03161">
        <ele>2243.2</ele>
        <time>2015-06-26T05:35:13Z</time>
      </trkpt>
      <trkpt lat="42.20814" lon="9.03153">
        <ele>2241.8</ele>
        <time>2015-06-26T05:35:32Z</time>
      </trkpt>
      <trkpt lat="42.20817" lon="9.03149">
        <ele>2240.8</ele>
        <time>2015-06-26T05:35:42Z</time>
      </trkpt>
      <trkpt lat="42.20818" lon="9.03148">
        <ele>2240.8</ele>
        <time>2015-06-26T05:35:44Z</time>
      </trkpt>
      <trkpt lat="42.20822" lon="9.03146">
        <ele>2240.2</ele>
        <time>2015-06-26T05:35:51Z</time>
      </trkpt>
      <trkpt lat="42.20826" lon="9.03141">
        <ele>2239</ele>
        <time>2015-06-26T05:35:59Z</time>
      </trkpt>
      <trkpt lat="42.20825" lon="9.03137">
        <ele>2238.2</ele>
        <time>2015-06-26T05:36:04Z</time>
      </trkpt>
      <trkpt lat="42.2082" lon="9.03129">
        <ele>2236.2</ele>
        <time>2015-06-26T05:36:22Z</time>
      </trkpt>
      <trkpt lat="42.20818" lon="9.03123">
        <ele>2235</ele>
        <time>2015-06-26T05:36:37Z</time>
      </trkpt>
      <trkpt lat="42.20825" lon="9.03118">
        <ele>2234.4</ele>
        <time>2015-06-26T05:36:50Z</time>
      </trkpt>
      <trkpt lat="42.20825" lon="9.03114">
        <ele>2234</ele>
        <time>2015-06-26T05:36:54Z</time>
      </trkpt>
      <trkpt lat="42.20821" lon="9.03079">
        <ele>2231.8</ele>
        <time>2015-06-26T05:37:27Z</time>
      </trkpt>
      <trkpt lat="42.20819" lon="9.03072">
        <ele>2231.6</ele>
        <time>2015-06-26T05:37:45Z</time>
      </trkpt>
      <trkpt lat="42.20823" lon="9.03064">
        <ele>2230.6</ele>
        <time>2015-06-26T05:37:58Z</time>
      </trkpt>
      <trkpt lat="42.20827" lon="9.03057">
        <ele>2229.8</ele>
        <time>2015-06-26T05:38:14Z</time>
      </trkpt>
      <trkpt lat="42.20836" lon="9.03057">
        <ele>2228.8</ele>
        <time>2015-06-26T05:38:23Z</time>
      </trkpt>
      <trkpt lat="42.20839" lon="9.0306">
        <ele>2228.6</ele>
        <time>2015-06-26T05:38:28Z</time>
      </trkpt>
      <trkpt lat="42.20831" lon="9.03044">
        <ele>2228.4</ele>
        <time>2015-06-26T05:39:38Z</time>
      </trkpt>
      <trkpt lat="42.20832" lon="9.03031">
        <ele>2228.4</ele>
        <time>2015-06-26T05:40:03Z</time>
      </trkpt>
      <trkpt lat="42.20833" lon="9.03005">
        <ele>2228.4</ele>
        <time>2015-06-26T05:40:27Z</time>
      </trkpt>
      <trkpt lat="42.2084" lon="9.02996">
        <ele>2228</ele>
        <time>2015-06-26T05:40:53Z</time>
      </trkpt>
      <trkpt lat="42.20845" lon="9.02993">
        <ele>2226.8</ele>
        <time>2015-06-26T05:41:04Z</time>
      </trkpt>
      <trkpt lat="42.20848" lon="9.02987">
        <ele>2225.8</ele>
        <time>2015-06-26T05:41:14Z</time>
      </trkpt>
      <trkpt lat="42.20852" lon="9.02983">
        <ele>2225</ele>
        <time>2015-06-26T05:41:20Z</time>
      </trkpt>
      <trkpt lat="42.20867" lon="9.02973">
        <ele>2223</ele>
        <time>2015-06-26T05:41:47Z</time>
      </trkpt>
      <trkpt lat="42.20871" lon="9.02969">
        <ele>2222.4</ele>
        <time>2015-06-26T05:41:55Z</time>
      </trkpt>
      <trkpt lat="42.20876" lon="9.02964">
        <ele>2221.2</ele>
        <time>2015-06-26T05:42:13Z</time>
      </trkpt>
      <trkpt lat="42.20878" lon="9.0296">
        <ele>2220.2</ele>
        <time>2015-06-26T05:42:23Z</time>
      </trkpt>
      <trkpt lat="42.20878" lon="9.02956">
        <ele>2219.6</ele>
        <time>2015-06-26T05:42:29Z</time>
      </trkpt>
      <trkpt lat="42.20878" lon="9.02953">
        <ele>2217.8</ele>
        <time>2015-06-26T05:42:38Z</time>
      </trkpt>
      <trkpt lat="42.20881" lon="9.0295">
        <ele>2216.6</ele>
        <time>2015-06-26T05:43:39Z</time>
      </trkpt>
      <trkpt lat="42.20884" lon="9.02951">
        <ele>2215</ele>
        <time>2015-06-26T05:43:58Z</time>
      </trkpt>
      <trkpt lat="42.20886" lon="9.02949">
        <ele>2214.8</ele>
        <time>2015-06-26T05:44:03Z</time>
      </trkpt>
      <trkpt lat="42.20887" lon="9.02947">
        <ele>2213</ele>
        <time>2015-06-26T05:44:15Z</time>
      </trkpt>
      <trkpt lat="42.20889" lon="9.02944">
        <ele>2212.8</ele>
        <time>2015-06-26T05:44:20Z</time>
      </trkpt>
      <trkpt lat="42.2089" lon="9.02943">
        <ele>2211.6</ele>
        <time>2015-06-26T05:44:25Z</time>
      </trkpt>
      <trkpt lat="42.20891" lon="9.02945">
        <ele>2209.4</ele>
        <time>2015-06-26T05:44:37Z</time>
      </trkpt>
      <trkpt lat="42.20895" lon="9.02941">
        <ele>2208.8</ele>
        <time>2015-06-26T05:45:15Z</time>
      </trkpt>
      <trkpt lat="42.20898" lon="9.0294">
        <ele>2207.4</ele>
        <time>2015-06-26T05:45:22Z</time>
      </trkpt>
      <trkpt lat="42.20903" lon="9.02939">
        <ele>2206.4</ele>
        <time>2015-06-26T05:45:29Z</time>
      </trkpt>
      <trkpt lat="42.20905" lon="9.02939">
        <ele>2204.8</ele>
        <time>2015-06-26T05:45:38Z</time>
      </trkpt>
      <trkpt lat="42.20906" lon="9.02939">
        <ele>2204.2</ele>
        <time>2015-06-26T05:45:46Z</time>
      </trkpt>
      <trkpt lat="42.20908" lon="9.02937">
        <ele>2203</ele>
        <time>2015-06-26T05:46:01Z</time>
      </trkpt>
      <trkpt lat="42.20908" lon="9.02935">
        <ele>2201.8</ele>
        <time>2015-06-26T05:46:07Z</time>
      </trkpt>
      <trkpt lat="42.2091" lon="9.02933">
        <ele>2200.6</ele>
        <time>2015-06-26T05:46:14Z</time>
      </trkpt>
      <trkpt lat="42.20912" lon="9.02931">
        <ele>2199.6</ele>
        <time>2015-06-26T05:46:20Z</time>
      </trkpt>
      <trkpt lat="42.20914" lon="9.02929">
        <ele>2198.2</ele>
        <time>2015-06-26T05:46:28Z</time>
      </trkpt>
      <trkpt lat="42.20915" lon="9.02926">
        <ele>2197</ele>
        <time>2015-06-26T05:46:36Z</time>
      </trkpt>
      <trkpt lat="42.20916" lon="9.02924">
        <ele>2195.4</ele>
        <time>2015-06-26T05:46:52Z</time>
      </trkpt>
      <trkpt lat="42.20914" lon="9.02923">
        <ele>2194.6</ele>
        <time>2015-06-26T05:46:59Z</time>
      </trkpt>
      <trkpt lat="42.20913" lon="9.02921">
        <ele>2193.2</ele>
        <time>2015-06-26T05:47:11Z</time>
      </trkpt>
      <trkpt lat="42.20912" lon="9.02918">
        <ele>2192.4</ele>
        <time>2015-06-26T05:47:18Z</time>
      </trkpt>
      <trkpt lat="42.20913" lon="9.02915">
        <ele>2190.6</ele>
        <time>2015-06-26T05:47:29Z</time>
      </trkpt>
      <trkpt lat="42.20914" lon="9.02914">
        <ele>2190.2</ele>
        <time>2015-06-26T05:47:35Z</time>
      </trkpt>
      <trkpt lat="42.20916" lon="9.0291">
        <ele>2188.4</ele>
        <time>2015-06-26T05:47:48Z</time>
      </trkpt>
      <trkpt lat="42.20918" lon="9.02906">
        <ele>2187</ele>
        <time>2015-06-26T05:47:58Z</time>
      </trkpt>
      <trkpt lat="42.20913" lon="9.02904">
        <ele>2185.4</ele>
        <time>2015-06-26T05:48:22Z</time>
      </trkpt>
      <trkpt lat="42.20912" lon="9.02901">
        <ele>2184.4</ele>
        <time>2015-06-26T05:48:36Z</time>
      </trkpt>
      <trkpt lat="42.20912" lon="9.029">
        <ele>2184</ele>
        <time>2015-06-26T05:48:41Z</time>
      </trkpt>
      <trkpt lat="42.2091" lon="9.02897">
        <ele>2182</ele>
        <time>2015-06-26T05:48:52Z</time>
      </trkpt>
      <trkpt lat="42.20912" lon="9.02896">
        <ele>2181.2</ele>
        <time>2015-06-26T05:48:59Z</time>
      </trkpt>
      <trkpt lat="42.20911" lon="9.02894">
        <ele>2179.6</ele>
        <time>2015-06-26T05:49:13Z</time>
      </trkpt>
      <trkpt lat="42.20914" lon="9.02891">
        <ele>2178.8</ele>
        <time>2015-06-26T05:49:23Z</time>
      </trkpt>
      <trkpt lat="42.20913" lon="9.0289">
        <ele>2177.2</ele>
        <time>2015-06-26T05:49:33Z</time>
      </trkpt>
      <trkpt lat="42.2091" lon="9.02889">
        <ele>2176.2</ele>
        <time>2015-06-26T05:49:41Z</time>
      </trkpt>
      <trkpt lat="42.20907" lon="9.02888">
        <ele>2175</ele>
        <time>2015-06-26T05:49:50Z</time>
      </trkpt>
      <trkpt lat="42.20907" lon="9.02884">
        <ele>2173.6</ele>
        <time>2015-06-26T05:50:03Z</time>
      </trkpt>
      <trkpt lat="42.20907" lon="9.0288">
        <ele>2172.6</ele>
        <time>2015-06-26T05:50:11Z</time>
      </trkpt>
      <trkpt lat="42.20906" lon="9.02878">
        <ele>2171.2</ele>
        <time>2015-06-26T05:50:22Z</time>
      </trkpt>
      <trkpt lat="42.20907" lon="9.02874">
        <ele>2170</ele>
        <time>2015-06-26T05:50:36Z</time>
      </trkpt>
      <trkpt lat="42.20909" lon="9.0287">
        <ele>2169</ele>
        <time>2015-06-26T05:50:44Z</time>
      </trkpt>
      <trkpt lat="42.20911" lon="9.02867">
        <ele>2167.8</ele>
        <time>2015-06-26T05:50:50Z</time>
      </trkpt>
      <trkpt lat="42.20914" lon="9.02868">
        <ele>2166.4</ele>
        <time>2015-06-26T05:50:59Z</time>
      </trkpt>
      <trkpt lat="42.2092" lon="9.02866">
        <ele>2164.8</ele>
        <time>2015-06-26T05:51:11Z</time>
      </trkpt>
      <trkpt lat="42.20922" lon="9.02865">
        <ele>2163.8</ele>
        <time>2015-06-26T05:51:21Z</time>
      </trkpt>
      <trkpt lat="42.20923" lon="9.02863">
        <ele>2162.2</ele>
        <time>2015-06-26T05:51:33Z</time>
      </trkpt>
      <trkpt lat="42.20921" lon="9.02863">
        <ele>2161.4</ele>
        <time>2015-06-26T05:51:40Z</time>
      </trkpt>
      <trkpt lat="42.2092" lon="9.02858">
        <ele>2159.8</ele>
        <time>2015-06-26T05:51:51Z</time>
      </trkpt>
      <trkpt lat="42.20923" lon="9.02855">
        <ele>2158.8</ele>
        <time>2015-06-26T05:51:58Z</time>
      </trkpt>
      <trkpt lat="42.20926" lon="9.02856">
        <ele>2157.2</ele>
        <time>2015-06-26T05:52:09Z</time>
      </trkpt>
      <trkpt lat="42.20927" lon="9.02853">
        <ele>2155.8</ele>
        <time>2015-06-26T05:52:20Z</time>
      </trkpt>
      <trkpt lat="42.20925" lon="9.02852">
        <ele>2154.8</ele>
        <time>2015-06-26T05:52:31Z</time>
      </trkpt>
      <trkpt lat="42.20926" lon="9.02849">
        <ele>2153.8</ele>
        <time>2015-06-26T05:52:37Z</time>
      </trkpt>
      <trkpt lat="42.2093" lon="9.02847">
        <ele>2151.6</ele>
        <time>2015-06-26T05:52:59Z</time>
      </trkpt>
      <trkpt lat="42.20931" lon="9.02845">
        <ele>2150.6</ele>
        <time>2015-06-26T05:53:09Z</time>
      </trkpt>
      <trkpt lat="42.20932" lon="9.02842">
        <ele>2149.6</ele>
        <time>2015-06-26T05:53:17Z</time>
      </trkpt>
      <trkpt lat="42.20932" lon="9.0284">
        <ele>2147.8</ele>
        <time>2015-06-26T05:53:28Z</time>
      </trkpt>
      <trkpt lat="42.20933" lon="9.02838">
        <ele>2146.6</ele>
        <time>2015-06-26T05:53:38Z</time>
      </trkpt>
      <trkpt lat="42.2093" lon="9.02837">
        <ele>2145.6</ele>
        <time>2015-06-26T05:53:46Z</time>
      </trkpt>
      <trkpt lat="42.20935" lon="9.02829">
        <ele>2144</ele>
        <time>2015-06-26T05:53:57Z</time>
      </trkpt>
      <trkpt lat="42.20937" lon="9.02824">
        <ele>2142.2</ele>
        <time>2015-06-26T05:54:13Z</time>
      </trkpt>
      <trkpt lat="42.20932" lon="9.02819">
        <ele>2140.4</ele>
        <time>2015-06-26T05:54:48Z</time>
      </trkpt>
      <trkpt lat="42.20934" lon="9.0282">
        <ele>2139.8</ele>
        <time>2015-06-26T05:54:55Z</time>
      </trkpt>
      <trkpt lat="42.20922" lon="9.02827">
        <ele>2139</ele>
        <time>2015-06-26T05:55:21Z</time>
      </trkpt>
      <trkpt lat="42.20923" lon="9.02823">
        <ele>2139</ele>
        <time>2015-06-26T05:55:24Z</time>
      </trkpt>
      <trkpt lat="42.20918" lon="9.02818">
        <ele>2137.8</ele>
        <time>2015-06-26T05:55:35Z</time>
      </trkpt>
      <trkpt lat="42.2091" lon="9.02813">
        <ele>2135.6</ele>
        <time>2015-06-26T05:55:49Z</time>
      </trkpt>
      <trkpt lat="42.20907" lon="9.02811">
        <ele>2134.8</ele>
        <time>2015-06-26T05:55:56Z</time>
      </trkpt>
      <trkpt lat="42.20901" lon="9.02808">
        <ele>2132.8</ele>
        <time>2015-06-26T05:56:43Z</time>
      </trkpt>
      <trkpt lat="42.20897" lon="9.02805">
        <ele>2131.4</ele>
        <time>2015-06-26T05:57:04Z</time>
      </trkpt>
      <trkpt lat="42.20895" lon="9.02801">
        <ele>2129.6</ele>
        <time>2015-06-26T05:57:31Z</time>
      </trkpt>
      <trkpt lat="42.20895" lon="9.02799">
        <ele>2128.4</ele>
        <time>2015-06-26T05:57:41Z</time>
      </trkpt>
      <trkpt lat="42.20892" lon="9.02797">
        <ele>2127.4</ele>
        <time>2015-06-26T05:57:53Z</time>
      </trkpt>
      <trkpt lat="42.20885" lon="9.02801">
        <ele>2126.4</ele>
        <time>2015-06-26T05:58:19Z</time>
      </trkpt>
      <trkpt lat="42.20876" lon="9.02789">
        <ele>2126.4</ele>
        <time>2015-06-26T05:58:43Z</time>
      </trkpt>
      <trkpt lat="42.20865" lon="9.02787">
        <ele>2125.2</ele>
        <time>2015-06-26T05:59:06Z</time>
      </trkpt>
      <trkpt lat="42.20864" lon="9.02789">
        <ele>2125.8</ele>
        <time>2015-06-26T05:59:12Z</time>
      </trkpt>
      <trkpt lat="42.20862" lon="9.0279">
        <ele>2127</ele>
        <time>2015-06-26T05:59:20Z</time>
      </trkpt>
      <trkpt lat="42.20859" lon="9.02791">
        <ele>2128</ele>
        <time>2015-06-26T05:59:28Z</time>
      </trkpt>
      <trkpt lat="42.20857" lon="9.02795">
        <ele>2129</ele>
        <time>2015-06-26T05:59:38Z</time>
      </trkpt>
      <trkpt lat="42.20857" lon="9.02798">
        <ele>2130.2</ele>
        <time>2015-06-26T05:59:49Z</time>
      </trkpt>
      <trkpt lat="42.20855" lon="9.028">
        <ele>2131.2</ele>
        <time>2015-06-26T05:59:58Z</time>
      </trkpt>
      <trkpt lat="42.20852" lon="9.028">
        <ele>2132</ele>
        <time>2015-06-26T06:00:06Z</time>
      </trkpt>
      <trkpt lat="42.20847" lon="9.02797">
        <ele>2133</ele>
        <time>2015-06-26T06:00:32Z</time>
      </trkpt>
      <trkpt lat="42.20844" lon="9.02795">
        <ele>2134</ele>
        <time>2015-06-26T06:01:03Z</time>
      </trkpt>
      <trkpt lat="42.20827" lon="9.02778">
        <ele>2134</ele>
        <time>2015-06-26T06:02:52Z</time>
      </trkpt>
      <trkpt lat="42.20823" lon="9.02778">
        <ele>2135.4</ele>
        <time>2015-06-26T06:03:06Z</time>
      </trkpt>
      <trkpt lat="42.20822" lon="9.02776">
        <ele>2136.6</ele>
        <time>2015-06-26T06:03:32Z</time>
      </trkpt>
      <trkpt lat="42.20813" lon="9.02773">
        <ele>2137.4</ele>
        <time>2015-06-26T06:04:17Z</time>
      </trkpt>
      <trkpt lat="42.20805" lon="9.02777">
        <ele>2137.6</ele>
        <time>2015-06-26T06:04:36Z</time>
      </trkpt>
      <trkpt lat="42.20805" lon="9.02777">
        <ele>2137.8</ele>
        <time>2015-06-26T06:04:41Z</time>
      </trkpt>
      <trkpt lat="42.20804" lon="9.02773">
        <ele>2136.8</ele>
        <time>2015-06-26T06:05:03Z</time>
      </trkpt>
      <trkpt lat="42.20798" lon="9.02763">
        <ele>2136</ele>
        <time>2015-06-26T06:05:56Z</time>
      </trkpt>
      <trkpt lat="42.20798" lon="9.02761">
        <ele>2134.8</ele>
        <time>2015-06-26T06:06:08Z</time>
      </trkpt>
      <trkpt lat="42.20795" lon="9.02759">
        <ele>2134</ele>
        <time>2015-06-26T06:06:18Z</time>
      </trkpt>
      <trkpt lat="42.20778" lon="9.02759">
        <ele>2133.8</ele>
        <time>2015-06-26T06:06:58Z</time>
      </trkpt>
      <trkpt lat="42.20769" lon="9.02759">
        <ele>2135.2</ele>
        <time>2015-06-26T06:07:14Z</time>
      </trkpt>
      <trkpt lat="42.20764" lon="9.02763">
        <ele>2135.8</ele>
        <time>2015-06-26T06:07:24Z</time>
      </trkpt>
      <trkpt lat="42.2076" lon="9.02761">
        <ele>2137</ele>
        <time>2015-06-26T06:07:37Z</time>
      </trkpt>
      <trkpt lat="42.20759" lon="9.0276">
        <ele>2138</ele>
        <time>2015-06-26T06:07:49Z</time>
      </trkpt>
      <trkpt lat="42.20756" lon="9.02756">
        <ele>2139.2</ele>
        <time>2015-06-26T06:08:00Z</time>
      </trkpt>
      <trkpt lat="42.20756" lon="9.02751">
        <ele>2139.6</ele>
        <time>2015-06-26T06:08:07Z</time>
      </trkpt>
      <trkpt lat="42.20759" lon="9.0275">
        <ele>2141.6</ele>
        <time>2015-06-26T06:08:19Z</time>
      </trkpt>
      <trkpt lat="42.20754" lon="9.02746">
        <ele>2141.6</ele>
        <time>2015-06-26T06:08:39Z</time>
      </trkpt>
      <trkpt lat="42.20747" lon="9.02739">
        <ele>2140.6</ele>
        <time>2015-06-26T06:09:00Z</time>
      </trkpt>
      <trkpt lat="42.20744" lon="9.02733">
        <ele>2139.2</ele>
        <time>2015-06-26T06:09:20Z</time>
      </trkpt>
      <trkpt lat="42.20741" lon="9.02732">
        <ele>2139</ele>
        <time>2015-06-26T06:09:26Z</time>
      </trkpt>
      <trkpt lat="42.20739" lon="9.02729">
        <ele>2137.8</ele>
        <time>2015-06-26T06:09:32Z</time>
      </trkpt>
      <trkpt lat="42.20736" lon="9.02726">
        <ele>2136.4</ele>
        <time>2015-06-26T06:09:39Z</time>
      </trkpt>
      <trkpt lat="42.20735" lon="9.02719">
        <ele>2135.2</ele>
        <time>2015-06-26T06:09:48Z</time>
      </trkpt>
      <trkpt lat="42.20728" lon="9.02706">
        <ele>2134.8</ele>
        <time>2015-06-26T06:10:17Z</time>
      </trkpt>
      <trkpt lat="42.20729" lon="9.02703">
        <ele>2136</ele>
        <time>2015-06-26T06:10:27Z</time>
      </trkpt>
      <trkpt lat="42.20726" lon="9.027">
        <ele>2137</ele>
        <time>2015-06-26T06:10:35Z</time>
      </trkpt>
      <trkpt lat="42.20723" lon="9.02695">
        <ele>2138.8</ele>
        <time>2015-06-26T06:10:56Z</time>
      </trkpt>
      <trkpt lat="42.20723" lon="9.02691">
        <ele>2138.8</ele>
        <time>2015-06-26T06:11:05Z</time>
      </trkpt>
      <trkpt lat="42.20722" lon="9.02687">
        <ele>2138.2</ele>
        <time>2015-06-26T06:11:09Z</time>
      </trkpt>
      <trkpt lat="42.20717" lon="9.02683">
        <ele>2136.6</ele>
        <time>2015-06-26T06:11:16Z</time>
      </trkpt>
      <trkpt lat="42.20712" lon="9.0267">
        <ele>2136.2</ele>
        <time>2015-06-26T06:11:52Z</time>
      </trkpt>
      <trkpt lat="42.20711" lon="9.02669">
        <ele>2135.4</ele>
        <time>2015-06-26T06:11:59Z</time>
      </trkpt>
      <trkpt lat="42.20709" lon="9.02665">
        <ele>2134.2</ele>
        <time>2015-06-26T06:12:16Z</time>
      </trkpt>
      <trkpt lat="42.20708" lon="9.02659">
        <ele>2133</ele>
        <time>2015-06-26T06:12:27Z</time>
      </trkpt>
      <trkpt lat="42.20707" lon="9.02658">
        <ele>2132</ele>
        <time>2015-06-26T06:12:36Z</time>
      </trkpt>
      <trkpt lat="42.20706" lon="9.02653">
        <ele>2131.4</ele>
        <time>2015-06-26T06:12:43Z</time>
      </trkpt>
      <trkpt lat="42.20685" lon="9.02635">
        <ele>2130.2</ele>
        <time>2015-06-26T06:13:26Z</time>
      </trkpt>
      <trkpt lat="42.20686" lon="9.02629">
        <ele>2129.4</ele>
        <time>2015-06-26T06:13:35Z</time>
      </trkpt>
      <trkpt lat="42.20685" lon="9.02625">
        <ele>2128.6</ele>
        <time>2015-06-26T06:13:40Z</time>
      </trkpt>
      <trkpt lat="42.20686" lon="9.0262">
        <ele>2126.8</ele>
        <time>2015-06-26T06:13:49Z</time>
      </trkpt>
      <trkpt lat="42.20688" lon="9.0262">
        <ele>2126.2</ele>
        <time>2015-06-26T06:13:55Z</time>
      </trkpt>
      <trkpt lat="42.20689" lon="9.02615">
        <ele>2125</ele>
        <time>2015-06-26T06:14:01Z</time>
      </trkpt>
      <trkpt lat="42.20689" lon="9.02612">
        <ele>2124.2</ele>
        <time>2015-06-26T06:14:06Z</time>
      </trkpt>
      <trkpt lat="42.20687" lon="9.02602">
        <ele>2123.4</ele>
        <time>2015-06-26T06:14:27Z</time>
      </trkpt>
      <trkpt lat="42.20685" lon="9.02594">
        <ele>2123.6</ele>
        <time>2015-06-26T06:14:39Z</time>
      </trkpt>
      <trkpt lat="42.20685" lon="9.02588">
        <ele>2122.8</ele>
        <time>2015-06-26T06:14:46Z</time>
      </trkpt>
      <trkpt lat="42.20672" lon="9.02579">
        <ele>2121.4</ele>
        <time>2015-06-26T06:15:07Z</time>
      </trkpt>
      <trkpt lat="42.20657" lon="9.02561">
        <ele>2121.4</ele>
        <time>2015-06-26T06:15:49Z</time>
      </trkpt>
      <trkpt lat="42.20651" lon="9.02554">
        <ele>2122.4</ele>
        <time>2015-06-26T06:16:03Z</time>
      </trkpt>
      <trkpt lat="42.20645" lon="9.02553">
        <ele>2123.8</ele>
        <time>2015-06-26T06:16:15Z</time>
      </trkpt>
      <trkpt lat="42.20625" lon="9.02558">
        <ele>2123.8</ele>
        <time>2015-06-26T06:16:45Z</time>
      </trkpt>
      <trkpt lat="42.20614" lon="9.02559">
        <ele>2124</ele>
        <time>2015-06-26T06:17:04Z</time>
      </trkpt>
      <trkpt lat="42.20598" lon="9.0256">
        <ele>2125.4</ele>
        <time>2015-06-26T06:17:27Z</time>
      </trkpt>
      <trkpt lat="42.20587" lon="9.0256">
        <ele>2126.4</ele>
        <time>2015-06-26T06:17:41Z</time>
      </trkpt>
      <trkpt lat="42.20581" lon="9.02557">
        <ele>2127.6</ele>
        <time>2015-06-26T06:17:52Z</time>
      </trkpt>
      <trkpt lat="42.20574" lon="9.02548">
        <ele>2128.4</ele>
        <time>2015-06-26T06:18:12Z</time>
      </trkpt>
      <trkpt lat="42.20571" lon="9.02546">
        <ele>2127</ele>
        <time>2015-06-26T06:18:18Z</time>
      </trkpt>
      <trkpt lat="42.20569" lon="9.02543">
        <ele>2126.4</ele>
        <time>2015-06-26T06:18:22Z</time>
      </trkpt>
      <trkpt lat="42.2054" lon="9.02524">
        <ele>2124.4</ele>
        <time>2015-06-26T06:19:08Z</time>
      </trkpt>
      <trkpt lat="42.20539" lon="9.02524">
        <ele>2124.2</ele>
        <time>2015-06-26T06:19:09Z</time>
      </trkpt>
      <trkpt lat="42.20531" lon="9.02518">
        <ele>2123.6</ele>
        <time>2015-06-26T06:19:19Z</time>
      </trkpt>
      <trkpt lat="42.20518" lon="9.02507">
        <ele>2123</ele>
        <time>2015-06-26T06:19:43Z</time>
      </trkpt>
      <trkpt lat="42.20514" lon="9.02507">
        <ele>2124.4</ele>
        <time>2015-06-26T06:19:50Z</time>
      </trkpt>
      <trkpt lat="42.20511" lon="9.02507">
        <ele>2125.4</ele>
        <time>2015-06-26T06:19:56Z</time>
      </trkpt>
      <trkpt lat="42.20507" lon="9.02501">
        <ele>2126.8</ele>
        <time>2015-06-26T06:20:05Z</time>
      </trkpt>
      <trkpt lat="42.20492" lon="9.02484">
        <ele>2128</ele>
        <time>2015-06-26T06:20:29Z</time>
      </trkpt>
      <trkpt lat="42.20482" lon="9.02473">
        <ele>2128.2</ele>
        <time>2015-06-26T06:20:47Z</time>
      </trkpt>
      <trkpt lat="42.20481" lon="9.02472">
        <ele>2128.4</ele>
        <time>2015-06-26T06:20:49Z</time>
      </trkpt>
      <trkpt lat="42.20476" lon="9.0247">
        <ele>2129.4</ele>
        <time>2015-06-26T06:20:57Z</time>
      </trkpt>
      <trkpt lat="42.20471" lon="9.02469">
        <ele>2130.4</ele>
        <time>2015-06-26T06:21:06Z</time>
      </trkpt>
      <trkpt lat="42.20462" lon="9.02462">
        <ele>2130.6</ele>
        <time>2015-06-26T06:21:27Z</time>
      </trkpt>
      <trkpt lat="42.20454" lon="9.02457">
        <ele>2130.4</ele>
        <time>2015-06-26T06:21:40Z</time>
      </trkpt>
      <trkpt lat="42.20454" lon="9.02456">
        <ele>2130.4</ele>
        <time>2015-06-26T06:21:42Z</time>
      </trkpt>
      <trkpt lat="42.20452" lon="9.02449">
        <ele>2130.2</ele>
        <time>2015-06-26T06:21:49Z</time>
      </trkpt>
      <trkpt lat="42.20443" lon="9.02433">
        <ele>2128.8</ele>
        <time>2015-06-26T06:22:10Z</time>
      </trkpt>
      <trkpt lat="42.20443" lon="9.02429">
        <ele>2128.4</ele>
        <time>2015-06-26T06:22:16Z</time>
      </trkpt>
      <trkpt lat="42.2044" lon="9.02426">
        <ele>2127.6</ele>
        <time>2015-06-26T06:22:21Z</time>
      </trkpt>
      <trkpt lat="42.20432" lon="9.02418">
        <ele>2125.8</ele>
        <time>2015-06-26T06:22:35Z</time>
      </trkpt>
      <trkpt lat="42.20429" lon="9.02414">
        <ele>2125.4</ele>
        <time>2015-06-26T06:22:40Z</time>
      </trkpt>
      <trkpt lat="42.2041" lon="9.02382">
        <ele>2124</ele>
        <time>2015-06-26T06:23:40Z</time>
      </trkpt>
      <trkpt lat="42.20406" lon="9.02379">
        <ele>2123.2</ele>
        <time>2015-06-26T06:23:45Z</time>
      </trkpt>
      <trkpt lat="42.20401" lon="9.02376">
        <ele>2121.8</ele>
        <time>2015-06-26T06:23:54Z</time>
      </trkpt>
      <trkpt lat="42.20396" lon="9.02371">
        <ele>2120.4</ele>
        <time>2015-06-26T06:24:10Z</time>
      </trkpt>
      <trkpt lat="42.20394" lon="9.02368">
        <ele>2120.2</ele>
        <time>2015-06-26T06:24:16Z</time>
      </trkpt>
      <trkpt lat="42.2039" lon="9.02366">
        <ele>2119</ele>
        <time>2015-06-26T06:24:22Z</time>
      </trkpt>
      <trkpt lat="42.20383" lon="9.02363">
        <ele>2117.6</ele>
        <time>2015-06-26T06:24:33Z</time>
      </trkpt>
      <trkpt lat="42.20378" lon="9.02356">
        <ele>2117.2</ele>
        <time>2015-06-26T06:25:37Z</time>
      </trkpt>
      <trkpt lat="42.20376" lon="9.02358">
        <ele>2119.2</ele>
        <time>2015-06-26T06:26:10Z</time>
      </trkpt>
      <trkpt lat="42.20365" lon="9.02353">
        <ele>2119.8</ele>
        <time>2015-06-26T06:26:38Z</time>
      </trkpt>
      <trkpt lat="42.20362" lon="9.02351">
        <ele>2121</ele>
        <time>2015-06-26T06:26:46Z</time>
      </trkpt>
      <trkpt lat="42.20359" lon="9.02351">
        <ele>2122.2</ele>
        <time>2015-06-26T06:26:55Z</time>
      </trkpt>
      <trkpt lat="42.20357" lon="9.02352">
        <ele>2123.2</ele>
        <time>2015-06-26T06:27:03Z</time>
      </trkpt>
      <trkpt lat="42.20358" lon="9.02348">
        <ele>2124.2</ele>
        <time>2015-06-26T06:27:09Z</time>
      </trkpt>
      <trkpt lat="42.20359" lon="9.02335">
        <ele>2125.2</ele>
        <time>2015-06-26T06:27:31Z</time>
      </trkpt>
      <trkpt lat="42.20359" lon="9.0233">
        <ele>2124</ele>
        <time>2015-06-26T06:27:39Z</time>
      </trkpt>
      <trkpt lat="42.20359" lon="9.02324">
        <ele>2123</ele>
        <time>2015-06-26T06:27:50Z</time>
      </trkpt>
      <trkpt lat="42.20361" lon="9.02321">
        <ele>2122.2</ele>
        <time>2015-06-26T06:27:57Z</time>
      </trkpt>
      <trkpt lat="42.20363" lon="9.0232">
        <ele>2120.6</ele>
        <time>2015-06-26T06:28:13Z</time>
      </trkpt>
      <trkpt lat="42.2036" lon="9.02317">
        <ele>2120</ele>
        <time>2015-06-26T06:28:38Z</time>
      </trkpt>
      <trkpt lat="42.2036" lon="9.02313">
        <ele>2118.4</ele>
        <time>2015-06-26T06:29:23Z</time>
      </trkpt>
      <trkpt lat="42.20361" lon="9.02311">
        <ele>2118</ele>
        <time>2015-06-26T06:29:32Z</time>
      </trkpt>
      <trkpt lat="42.20362" lon="9.02305">
        <ele>2117</ele>
        <time>2015-06-26T06:29:40Z</time>
      </trkpt>
      <trkpt lat="42.20358" lon="9.02299">
        <ele>2115.6</ele>
        <time>2015-06-26T06:29:47Z</time>
      </trkpt>
      <trkpt lat="42.20356" lon="9.02283">
        <ele>2115.4</ele>
        <time>2015-06-26T06:30:22Z</time>
      </trkpt>
      <trkpt lat="42.2035" lon="9.02273">
        <ele>2114.2</ele>
        <time>2015-06-26T06:30:38Z</time>
      </trkpt>
      <trkpt lat="42.20347" lon="9.02278">
        <ele>2114.8</ele>
        <time>2015-06-26T06:31:43Z</time>
      </trkpt>
      <trkpt lat="42.20345" lon="9.02275">
        <ele>2114</ele>
        <time>2015-06-26T06:33:44Z</time>
      </trkpt>
      <trkpt lat="42.20347" lon="9.02277">
        <ele>2113.2</ele>
        <time>2015-06-26T06:36:01Z</time>
      </trkpt>
      <trkpt lat="42.20345" lon="9.02277">
        <ele>2113.6</ele>
        <time>2015-06-26T06:37:57Z</time>
      </trkpt>
      <trkpt lat="42.20347" lon="9.0228">
        <ele>2113.6</ele>
        <time>2015-06-26T06:43:45Z</time>
      </trkpt>
      <trkpt lat="42.20347" lon="9.02278">
        <ele>2113.8</ele>
        <time>2015-06-26T06:44:50Z</time>
      </trkpt>
      <trkpt lat="42.20348" lon="9.02277">
        <ele>2113.8</ele>
        <time>2015-06-26T06:46:22Z</time>
      </trkpt>
      <trkpt lat="42.20347" lon="9.02278">
        <ele>2113.8</ele>
        <time>2015-06-26T06:46:32Z</time>
      </trkpt>
      <trkpt lat="42.20349" lon="9.02278">
        <ele>2113.6</ele>
        <time>2015-06-26T06:47:18Z</time>
      </trkpt>
      <trkpt lat="42.20348" lon="9.02278">
        <ele>2113.8</ele>
        <time>2015-06-26T06:51:35Z</time>
      </trkpt>
      <trkpt lat="42.20347" lon="9.02268">
        <ele>2113.4</ele>
        <time>2015-06-26T06:51:56Z</time>
      </trkpt>
      <trkpt lat="42.2034" lon="9.02261">
        <ele>2112.4</ele>
        <time>2015-06-26T06:52:06Z</time>
      </trkpt>
      <trkpt lat="42.20338" lon="9.02256">
        <ele>2111.8</ele>
        <time>2015-06-26T06:52:13Z</time>
      </trkpt>
      <trkpt lat="42.20336" lon="9.02251">
        <ele>2111.6</ele>
        <time>2015-06-26T06:52:17Z</time>
      </trkpt>
      <trkpt lat="42.20331" lon="9.02243">
        <ele>2111</ele>
        <time>2015-06-26T06:52:25Z</time>
      </trkpt>
      <trkpt lat="42.20328" lon="9.02237">
        <ele>2110.6</ele>
        <time>2015-06-26T06:52:38Z</time>
      </trkpt>
      <trkpt lat="42.20326" lon="9.02236">
        <ele>2110.8</ele>
        <time>2015-06-26T06:52:41Z</time>
      </trkpt>
      <trkpt lat="42.20317" lon="9.02228">
        <ele>2111.2</ele>
        <time>2015-06-26T06:53:00Z</time>
      </trkpt>
      <trkpt lat="42.2032" lon="9.02225">
        <ele>2112.4</ele>
        <time>2015-06-26T06:53:19Z</time>
      </trkpt>
      <trkpt lat="42.20321" lon="9.0222">
        <ele>2113.2</ele>
        <time>2015-06-26T06:53:29Z</time>
      </trkpt>
      <trkpt lat="42.20316" lon="9.02217">
        <ele>2114.6</ele>
        <time>2015-06-26T06:53:39Z</time>
      </trkpt>
      <trkpt lat="42.20318" lon="9.02212">
        <ele>2115.4</ele>
        <time>2015-06-26T06:53:50Z</time>
      </trkpt>
      <trkpt lat="42.20319" lon="9.02211">
        <ele>2116.6</ele>
        <time>2015-06-26T06:53:58Z</time>
      </trkpt>
      <trkpt lat="42.20317" lon="9.0221">
        <ele>2118</ele>
        <time>2015-06-26T06:54:17Z</time>
      </trkpt>
      <trkpt lat="42.20301" lon="9.02186">
        <ele>2119</ele>
        <time>2015-06-26T06:55:47Z</time>
      </trkpt>
      <trkpt lat="42.20296" lon="9.02184">
        <ele>2118.4</ele>
        <time>2015-06-26T06:56:00Z</time>
      </trkpt>
      <trkpt lat="42.20294" lon="9.02184">
        <ele>2117.4</ele>
        <time>2015-06-26T06:56:57Z</time>
      </trkpt>
      <trkpt lat="42.20306" lon="9.02186">
        <ele>2117.4</ele>
        <time>2015-06-26T06:58:04Z</time>
      </trkpt>
      <trkpt lat="42.20311" lon="9.02183">
        <ele>2116</ele>
        <time>2015-06-26T06:58:18Z</time>
      </trkpt>
      <trkpt lat="42.20312" lon="9.0218">
        <ele>2115</ele>
        <time>2015-06-26T06:58:27Z</time>
      </trkpt>
      <trkpt lat="42.20314" lon="9.02179">
        <ele>2114.6</ele>
        <time>2015-06-26T06:58:32Z</time>
      </trkpt>
      <trkpt lat="42.20317" lon="9.02178">
        <ele>2113.6</ele>
        <time>2015-06-26T06:58:39Z</time>
      </trkpt>
      <trkpt lat="42.20319" lon="9.02177">
        <ele>2112.4</ele>
        <time>2015-06-26T06:58:46Z</time>
      </trkpt>
      <trkpt lat="42.20323" lon="9.02174">
        <ele>2111.6</ele>
        <time>2015-06-26T06:58:52Z</time>
      </trkpt>
      <trkpt lat="42.20327" lon="9.02172">
        <ele>2110.6</ele>
        <time>2015-06-26T06:58:57Z</time>
      </trkpt>
      <trkpt lat="42.20332" lon="9.02169">
        <ele>2109.6</ele>
        <time>2015-06-26T06:59:02Z</time>
      </trkpt>
      <trkpt lat="42.20338" lon="9.02164">
        <ele>2108.6</ele>
        <time>2015-06-26T06:59:07Z</time>
      </trkpt>
      <trkpt lat="42.20348" lon="9.02157">
        <ele>2106.8</ele>
        <time>2015-06-26T06:59:21Z</time>
      </trkpt>
      <trkpt lat="42.20353" lon="9.02153">
        <ele>2105.8</ele>
        <time>2015-06-26T06:59:28Z</time>
      </trkpt>
      <trkpt lat="42.20359" lon="9.0215">
        <ele>2105.6</ele>
        <time>2015-06-26T06:59:41Z</time>
      </trkpt>
      <trkpt lat="42.20362" lon="9.02141">
        <ele>2106</ele>
        <time>2015-06-26T07:00:02Z</time>
      </trkpt>
      <trkpt lat="42.20363" lon="9.02138">
        <ele>2105</ele>
        <time>2015-06-26T07:00:08Z</time>
      </trkpt>
      <trkpt lat="42.20364" lon="9.02137">
        <ele>2104</ele>
        <time>2015-06-26T07:00:14Z</time>
      </trkpt>
      <trkpt lat="42.20366" lon="9.02131">
        <ele>2102.4</ele>
        <time>2015-06-26T07:00:26Z</time>
      </trkpt>
      <trkpt lat="42.20373" lon="9.02129">
        <ele>2102.4</ele>
        <time>2015-06-26T07:00:42Z</time>
      </trkpt>
      <trkpt lat="42.20379" lon="9.02124">
        <ele>2102.6</ele>
        <time>2015-06-26T07:00:57Z</time>
      </trkpt>
      <trkpt lat="42.20383" lon="9.02122">
        <ele>2101.8</ele>
        <time>2015-06-26T07:01:04Z</time>
      </trkpt>
      <trkpt lat="42.20386" lon="9.0212">
        <ele>2101.2</ele>
        <time>2015-06-26T07:01:08Z</time>
      </trkpt>
      <trkpt lat="42.20385" lon="9.02103">
        <ele>2099.6</ele>
        <time>2015-06-26T07:01:36Z</time>
      </trkpt>
      <trkpt lat="42.2039" lon="9.02092">
        <ele>2100.8</ele>
        <time>2015-06-26T07:01:47Z</time>
      </trkpt>
      <trkpt lat="42.20392" lon="9.02088">
        <ele>2100.4</ele>
        <time>2015-06-26T07:02:03Z</time>
      </trkpt>
      <trkpt lat="42.20393" lon="9.02079">
        <ele>2099.6</ele>
        <time>2015-06-26T07:02:15Z</time>
      </trkpt>
      <trkpt lat="42.20399" lon="9.02047">
        <ele>2098.4</ele>
        <time>2015-06-26T07:02:57Z</time>
      </trkpt>
      <trkpt lat="42.20407" lon="9.02037">
        <ele>2098.4</ele>
        <time>2015-06-26T07:03:19Z</time>
      </trkpt>
      <trkpt lat="42.20408" lon="9.02035">
        <ele>2099.2</ele>
        <time>2015-06-26T07:03:25Z</time>
      </trkpt>
      <trkpt lat="42.20416" lon="9.02011">
        <ele>2101.6</ele>
        <time>2015-06-26T07:04:10Z</time>
      </trkpt>
      <trkpt lat="42.20419" lon="9.02007">
        <ele>2102</ele>
        <time>2015-06-26T07:04:20Z</time>
      </trkpt>
      <trkpt lat="42.20421" lon="9.02004">
        <ele>2103.2</ele>
        <time>2015-06-26T07:04:30Z</time>
      </trkpt>
      <trkpt lat="42.20429" lon="9.01977">
        <ele>2105</ele>
        <time>2015-06-26T07:05:08Z</time>
      </trkpt>
      <trkpt lat="42.20432" lon="9.01973">
        <ele>2105.4</ele>
        <time>2015-06-26T07:05:16Z</time>
      </trkpt>
      <trkpt lat="42.20434" lon="9.01969">
        <ele>2106.6</ele>
        <time>2015-06-26T07:05:23Z</time>
      </trkpt>
      <trkpt lat="42.20436" lon="9.01964">
        <ele>2107.8</ele>
        <time>2015-06-26T07:05:32Z</time>
      </trkpt>
      <trkpt lat="42.2044" lon="9.01959">
        <ele>2108.8</ele>
        <time>2015-06-26T07:05:41Z</time>
      </trkpt>
      <trkpt lat="42.20443" lon="9.01951">
        <ele>2110.2</ele>
        <time>2015-06-26T07:05:53Z</time>
      </trkpt>
      <trkpt lat="42.20446" lon="9.01938">
        <ele>2111.2</ele>
        <time>2015-06-26T07:06:08Z</time>
      </trkpt>
      <trkpt lat="42.2046" lon="9.01881">
        <ele>2112.6</ele>
        <time>2015-06-26T07:07:05Z</time>
      </trkpt>
      <trkpt lat="42.20462" lon="9.01864">
        <ele>2112.6</ele>
        <time>2015-06-26T07:07:18Z</time>
      </trkpt>
      <trkpt lat="42.20469" lon="9.01848">
        <ele>2113</ele>
        <time>2015-06-26T07:07:36Z</time>
      </trkpt>
      <trkpt lat="42.20481" lon="9.01841">
        <ele>2114</ele>
        <time>2015-06-26T07:08:44Z</time>
      </trkpt>
      <trkpt lat="42.20484" lon="9.01833">
        <ele>2114</ele>
        <time>2015-06-26T07:11:06Z</time>
      </trkpt>
      <trkpt lat="42.20491" lon="9.01816">
        <ele>2113.2</ele>
        <time>2015-06-26T07:11:45Z</time>
      </trkpt>
      <trkpt lat="42.20497" lon="9.01799">
        <ele>2112.4</ele>
        <time>2015-06-26T07:11:58Z</time>
      </trkpt>
      <trkpt lat="42.20502" lon="9.0179">
        <ele>2111.6</ele>
        <time>2015-06-26T07:12:06Z</time>
      </trkpt>
      <trkpt lat="42.20503" lon="9.0179">
        <ele>2111.4</ele>
        <time>2015-06-26T07:12:07Z</time>
      </trkpt>
      <trkpt lat="42.20515" lon="9.0177">
        <ele>2110.8</ele>
        <time>2015-06-26T07:12:43Z</time>
      </trkpt>
      <trkpt lat="42.20517" lon="9.01765">
        <ele>2110</ele>
        <time>2015-06-26T07:12:49Z</time>
      </trkpt>
      <trkpt lat="42.20517" lon="9.01763">
        <ele>2109.4</ele>
        <time>2015-06-26T07:12:51Z</time>
      </trkpt>
      <trkpt lat="42.20518" lon="9.01762">
        <ele>2109.2</ele>
        <time>2015-06-26T07:12:53Z</time>
      </trkpt>
      <trkpt lat="42.20523" lon="9.01756">
        <ele>2108.6</ele>
        <time>2015-06-26T07:13:03Z</time>
      </trkpt>
      <trkpt lat="42.20555" lon="9.01718">
        <ele>2108.2</ele>
        <time>2015-06-26T07:14:30Z</time>
      </trkpt>
      <trkpt lat="42.20556" lon="9.01717">
        <ele>2108</ele>
        <time>2015-06-26T07:14:32Z</time>
      </trkpt>
      <trkpt lat="42.20561" lon="9.01706">
        <ele>2107.4</ele>
        <time>2015-06-26T07:14:42Z</time>
      </trkpt>
      <trkpt lat="42.20568" lon="9.01692">
        <ele>2107.2</ele>
        <time>2015-06-26T07:14:58Z</time>
      </trkpt>
      <trkpt lat="42.20575" lon="9.01677">
        <ele>2107.4</ele>
        <time>2015-06-26T07:15:25Z</time>
      </trkpt>
      <trkpt lat="42.20597" lon="9.01663">
        <ele>2107</ele>
        <time>2015-06-26T07:16:05Z</time>
      </trkpt>
      <trkpt lat="42.206" lon="9.01657">
        <ele>2108</ele>
        <time>2015-06-26T07:16:13Z</time>
      </trkpt>
      <trkpt lat="42.20605" lon="9.01648">
        <ele>2109.2</ele>
        <time>2015-06-26T07:16:34Z</time>
      </trkpt>
      <trkpt lat="42.20616" lon="9.01624">
        <ele>2110.4</ele>
        <time>2015-06-26T07:17:06Z</time>
      </trkpt>
      <trkpt lat="42.20614" lon="9.0161">
        <ele>2111.2</ele>
        <time>2015-06-26T07:17:29Z</time>
      </trkpt>
      <trkpt lat="42.20616" lon="9.01603">
        <ele>2112.4</ele>
        <time>2015-06-26T07:17:50Z</time>
      </trkpt>
      <trkpt lat="42.20617" lon="9.01599">
        <ele>2113.8</ele>
        <time>2015-06-26T07:18:04Z</time>
      </trkpt>
      <trkpt lat="42.20621" lon="9.016">
        <ele>2114.4</ele>
        <time>2015-06-26T07:18:25Z</time>
      </trkpt>
      <trkpt lat="42.20624" lon="9.016">
        <ele>2115.4</ele>
        <time>2015-06-26T07:18:32Z</time>
      </trkpt>
      <trkpt lat="42.20631" lon="9.01598">
        <ele>2117.2</ele>
        <time>2015-06-26T07:18:46Z</time>
      </trkpt>
      <trkpt lat="42.20633" lon="9.01595">
        <ele>2117.4</ele>
        <time>2015-06-26T07:18:52Z</time>
      </trkpt>
      <trkpt lat="42.2064" lon="9.01591">
        <ele>2119</ele>
        <time>2015-06-26T07:19:10Z</time>
      </trkpt>
      <trkpt lat="42.20642" lon="9.0159">
        <ele>2119.8</ele>
        <time>2015-06-26T07:19:17Z</time>
      </trkpt>
      <trkpt lat="42.20643" lon="9.01594">
        <ele>2121</ele>
        <time>2015-06-26T07:19:26Z</time>
      </trkpt>
      <trkpt lat="42.20646" lon="9.0159">
        <ele>2122.6</ele>
        <time>2015-06-26T07:19:41Z</time>
      </trkpt>
      <trkpt lat="42.2065" lon="9.0159">
        <ele>2123.2</ele>
        <time>2015-06-26T07:19:47Z</time>
      </trkpt>
      <trkpt lat="42.20652" lon="9.01592">
        <ele>2124.4</ele>
        <time>2015-06-26T07:19:55Z</time>
      </trkpt>
      <trkpt lat="42.20654" lon="9.01594">
        <ele>2125.2</ele>
        <time>2015-06-26T07:20:01Z</time>
      </trkpt>
      <trkpt lat="42.20657" lon="9.01592">
        <ele>2126.6</ele>
        <time>2015-06-26T07:20:12Z</time>
      </trkpt>
      <trkpt lat="42.20659" lon="9.01586">
        <ele>2127.6</ele>
        <time>2015-06-26T07:20:22Z</time>
      </trkpt>
      <trkpt lat="42.20663" lon="9.01583">
        <ele>2128.8</ele>
        <time>2015-06-26T07:20:33Z</time>
      </trkpt>
      <trkpt lat="42.20665" lon="9.01577">
        <ele>2130.2</ele>
        <time>2015-06-26T07:20:43Z</time>
      </trkpt>
      <trkpt lat="42.20669" lon="9.01575">
        <ele>2131.2</ele>
        <time>2015-06-26T07:20:55Z</time>
      </trkpt>
      <trkpt lat="42.20672" lon="9.01574">
        <ele>2132</ele>
        <time>2015-06-26T07:21:04Z</time>
      </trkpt>
      <trkpt lat="42.20676" lon="9.01568">
        <ele>2133.4</ele>
        <time>2015-06-26T07:21:15Z</time>
      </trkpt>
      <trkpt lat="42.20678" lon="9.01568">
        <ele>2134</ele>
        <time>2015-06-26T07:21:22Z</time>
      </trkpt>
      <trkpt lat="42.20682" lon="9.01565">
        <ele>2135.2</ele>
        <time>2015-06-26T07:21:32Z</time>
      </trkpt>
      <trkpt lat="42.20683" lon="9.01564">
        <ele>2136.4</ele>
        <time>2015-06-26T07:21:39Z</time>
      </trkpt>
      <trkpt lat="42.20686" lon="9.01556">
        <ele>2137.8</ele>
        <time>2015-06-26T07:22:24Z</time>
      </trkpt>
      <trkpt lat="42.20691" lon="9.01549">
        <ele>2139.2</ele>
        <time>2015-06-26T07:22:49Z</time>
      </trkpt>
      <trkpt lat="42.20696" lon="9.01543">
        <ele>2140.2</ele>
        <time>2015-06-26T07:22:59Z</time>
      </trkpt>
      <trkpt lat="42.20701" lon="9.01536">
        <ele>2141.2</ele>
        <time>2015-06-26T07:23:10Z</time>
      </trkpt>
      <trkpt lat="42.20716" lon="9.01516">
        <ele>2142.2</ele>
        <time>2015-06-26T07:23:38Z</time>
      </trkpt>
      <trkpt lat="42.20721" lon="9.01509">
        <ele>2143.8</ele>
        <time>2015-06-26T07:24:15Z</time>
      </trkpt>
      <trkpt lat="42.20723" lon="9.01511">
        <ele>2144.8</ele>
        <time>2015-06-26T07:24:26Z</time>
      </trkpt>
      <trkpt lat="42.20726" lon="9.01506">
        <ele>2145.6</ele>
        <time>2015-06-26T07:24:35Z</time>
      </trkpt>
      <trkpt lat="42.20733" lon="9.01492">
        <ele>2147</ele>
        <time>2015-06-26T07:24:56Z</time>
      </trkpt>
      <trkpt lat="42.20737" lon="9.01488">
        <ele>2148</ele>
        <time>2015-06-26T07:25:05Z</time>
      </trkpt>
      <trkpt lat="42.2074" lon="9.01486">
        <ele>2148.6</ele>
        <time>2015-06-26T07:25:11Z</time>
      </trkpt>
      <trkpt lat="42.20741" lon="9.01486">
        <ele>2150</ele>
        <time>2015-06-26T07:25:18Z</time>
      </trkpt>
      <trkpt lat="42.20745" lon="9.01481">
        <ele>2151.4</ele>
        <time>2015-06-26T07:25:36Z</time>
      </trkpt>
      <trkpt lat="42.20747" lon="9.01471">
        <ele>2152.2</ele>
        <time>2015-06-26T07:25:47Z</time>
      </trkpt>
      <trkpt lat="42.20748" lon="9.0146">
        <ele>2152</ele>
        <time>2015-06-26T07:25:57Z</time>
      </trkpt>
      <trkpt lat="42.20748" lon="9.01459">
        <ele>2151.8</ele>
        <time>2015-06-26T07:25:58Z</time>
      </trkpt>
      <trkpt lat="42.2075" lon="9.01456">
        <ele>2151.4</ele>
        <time>2015-06-26T07:26:01Z</time>
      </trkpt>
      <trkpt lat="42.20765" lon="9.01431">
        <ele>2151.2</ele>
        <time>2015-06-26T07:26:53Z</time>
      </trkpt>
      <trkpt lat="42.2077" lon="9.01422">
        <ele>2151.8</ele>
        <time>2015-06-26T07:27:12Z</time>
      </trkpt>
      <trkpt lat="42.20775" lon="9.01413">
        <ele>2152.8</ele>
        <time>2015-06-26T07:27:29Z</time>
      </trkpt>
      <trkpt lat="42.20779" lon="9.01403">
        <ele>2152.4</ele>
        <time>2015-06-26T07:27:43Z</time>
      </trkpt>
      <trkpt lat="42.20785" lon="9.01382">
        <ele>2150.4</ele>
        <time>2015-06-26T07:28:09Z</time>
      </trkpt>
      <trkpt lat="42.2079" lon="9.0137">
        <ele>2150.2</ele>
        <time>2015-06-26T07:28:33Z</time>
      </trkpt>
      <trkpt lat="42.20808" lon="9.01331">
        <ele>2149.4</ele>
        <time>2015-06-26T07:30:11Z</time>
      </trkpt>
      <trkpt lat="42.2081" lon="9.01325">
        <ele>2150.6</ele>
        <time>2015-06-26T07:31:45Z</time>
      </trkpt>
      <trkpt lat="42.20816" lon="9.01308">
        <ele>2151.6</ele>
        <time>2015-06-26T07:32:54Z</time>
      </trkpt>
      <trkpt lat="42.20815" lon="9.01297">
        <ele>2151</ele>
        <time>2015-06-26T07:33:34Z</time>
      </trkpt>
      <trkpt lat="42.20813" lon="9.01275">
        <ele>2150.2</ele>
        <time>2015-06-26T07:37:41Z</time>
      </trkpt>
      <trkpt lat="42.20813" lon="9.01275">
        <ele>2150.2</ele>
        <time>2015-06-26T07:37:48Z</time>
      </trkpt>
      <trkpt lat="42.20813" lon="9.01271">
        <ele>2149.2</ele>
        <time>2015-06-26T07:38:13Z</time>
      </trkpt>
      <trkpt lat="42.20812" lon="9.01268">
        <ele>2148.8</ele>
        <time>2015-06-26T07:38:27Z</time>
      </trkpt>
      <trkpt lat="42.20811" lon="9.01267">
        <ele>2147.8</ele>
        <time>2015-06-26T07:38:42Z</time>
      </trkpt>
      <trkpt lat="42.2081" lon="9.01264">
        <ele>2146.6</ele>
        <time>2015-06-26T07:38:59Z</time>
      </trkpt>
      <trkpt lat="42.20808" lon="9.01262">
        <ele>2145.2</ele>
        <time>2015-06-26T07:39:19Z</time>
      </trkpt>
      <trkpt lat="42.20808" lon="9.0126">
        <ele>2144.8</ele>
        <time>2015-06-26T07:39:28Z</time>
      </trkpt>
      <trkpt lat="42.20808" lon="9.01255">
        <ele>2143.4</ele>
        <time>2015-06-26T07:39:39Z</time>
      </trkpt>
      <trkpt lat="42.20806" lon="9.01252">
        <ele>2142.6</ele>
        <time>2015-06-26T07:39:52Z</time>
      </trkpt>
      <trkpt lat="42.20808" lon="9.01241">
        <ele>2142.2</ele>
        <time>2015-06-26T07:40:23Z</time>
      </trkpt>
      <trkpt lat="42.20813" lon="9.01238">
        <ele>2143.2</ele>
        <time>2015-06-26T07:40:40Z</time>
      </trkpt>
      <trkpt lat="42.20814" lon="9.01238">
        <ele>2144.2</ele>
        <time>2015-06-26T07:40:58Z</time>
      </trkpt>
      <trkpt lat="42.20815" lon="9.01239">
        <ele>2145.2</ele>
        <time>2015-06-26T07:41:11Z</time>
      </trkpt>
      <trkpt lat="42.20817" lon="9.01235">
        <ele>2146</ele>
        <time>2015-06-26T07:41:20Z</time>
      </trkpt>
      <trkpt lat="42.20819" lon="9.01225">
        <ele>2147.6</ele>
        <time>2015-06-26T07:41:33Z</time>
      </trkpt>
      <trkpt lat="42.20819" lon="9.01225">
        <ele>2147.6</ele>
        <time>2015-06-26T07:41:34Z</time>
      </trkpt>
      <trkpt lat="42.2082" lon="9.01226">
        <ele>2147.8</ele>
        <time>2015-06-26T07:41:39Z</time>
      </trkpt>
      <trkpt lat="42.20822" lon="9.01224">
        <ele>2149.4</ele>
        <time>2015-06-26T07:41:47Z</time>
      </trkpt>
      <trkpt lat="42.20819" lon="9.01221">
        <ele>2150.6</ele>
        <time>2015-06-26T07:41:56Z</time>
      </trkpt>
      <trkpt lat="42.2082" lon="9.0122">
        <ele>2151.6</ele>
        <time>2015-06-26T07:42:08Z</time>
      </trkpt>
      <trkpt lat="42.2082" lon="9.01216">
        <ele>2152.8</ele>
        <time>2015-06-26T07:42:18Z</time>
      </trkpt>
      <trkpt lat="42.20819" lon="9.01213">
        <ele>2153.6</ele>
        <time>2015-06-26T07:42:26Z</time>
      </trkpt>
      <trkpt lat="42.20819" lon="9.01211">
        <ele>2154.8</ele>
        <time>2015-06-26T07:42:35Z</time>
      </trkpt>
      <trkpt lat="42.20819" lon="9.01209">
        <ele>2156</ele>
        <time>2015-06-26T07:42:44Z</time>
      </trkpt>
      <trkpt lat="42.2082" lon="9.01208">
        <ele>2157.2</ele>
        <time>2015-06-26T07:42:55Z</time>
      </trkpt>
      <trkpt lat="42.20822" lon="9.01205">
        <ele>2158.4</ele>
        <time>2015-06-26T07:43:05Z</time>
      </trkpt>
      <trkpt lat="42.2082" lon="9.01201">
        <ele>2159.6</ele>
        <time>2015-06-26T07:43:18Z</time>
      </trkpt>
      <trkpt lat="42.20824" lon="9.01202">
        <ele>2160.8</ele>
        <time>2015-06-26T07:43:32Z</time>
      </trkpt>
      <trkpt lat="42.20825" lon="9.01202">
        <ele>2162.2</ele>
        <time>2015-06-26T07:43:44Z</time>
      </trkpt>
      <trkpt lat="42.20827" lon="9.01197">
        <ele>2163.8</ele>
        <time>2015-06-26T07:44:03Z</time>
      </trkpt>
      <trkpt lat="42.20826" lon="9.01185">
        <ele>2163.8</ele>
        <time>2015-06-26T07:44:49Z</time>
      </trkpt>
      <trkpt lat="42.20824" lon="9.01179">
        <ele>2162.8</ele>
        <time>2015-06-26T07:45:02Z</time>
      </trkpt>
      <trkpt lat="42.20829" lon="9.01172">
        <ele>2162.4</ele>
        <time>2015-06-26T07:45:29Z</time>
      </trkpt>
      <trkpt lat="42.20833" lon="9.01154">
        <ele>2162.8</ele>
        <time>2015-06-26T07:46:16Z</time>
      </trkpt>
      <trkpt lat="42.20832" lon="9.01151">
        <ele>2161.6</ele>
        <time>2015-06-26T07:46:42Z</time>
      </trkpt>
      <trkpt lat="42.20834" lon="9.0115">
        <ele>2160.8</ele>
        <time>2015-06-26T07:47:01Z</time>
      </trkpt>
      <trkpt lat="42.20835" lon="9.01149">
        <ele>2160.2</ele>
        <time>2015-06-26T07:47:33Z</time>
      </trkpt>
      <trkpt lat="42.20834" lon="9.01147">
        <ele>2159</ele>
        <time>2015-06-26T07:48:01Z</time>
      </trkpt>
      <trkpt lat="42.20835" lon="9.01147">
        <ele>2158.4</ele>
        <time>2015-06-26T07:48:09Z</time>
      </trkpt>
      <trkpt lat="42.20836" lon="9.01147">
        <ele>2157.2</ele>
        <time>2015-06-26T07:48:21Z</time>
      </trkpt>
      <trkpt lat="42.20838" lon="9.01145">
        <ele>2156</ele>
        <time>2015-06-26T07:48:50Z</time>
      </trkpt>
      <trkpt lat="42.20838" lon="9.01144">
        <ele>2156</ele>
        <time>2015-06-26T07:48:52Z</time>
      </trkpt>
      <trkpt lat="42.20836" lon="9.01139">
        <ele>2156.2</ele>
        <time>2015-06-26T07:49:33Z</time>
      </trkpt>
      <trkpt lat="42.20835" lon="9.01137">
        <ele>2156.6</ele>
        <time>2015-06-26T07:49:39Z</time>
      </trkpt>
      <trkpt lat="42.2084" lon="9.01125">
        <ele>2158.2</ele>
        <time>2015-06-26T07:50:25Z</time>
      </trkpt>
      <trkpt lat="42.2084" lon="9.01122">
        <ele>2159.2</ele>
        <time>2015-06-26T07:50:33Z</time>
      </trkpt>
      <trkpt lat="42.2084" lon="9.0112">
        <ele>2160.4</ele>
        <time>2015-06-26T07:50:43Z</time>
      </trkpt>
      <trkpt lat="42.20842" lon="9.01121">
        <ele>2161.4</ele>
        <time>2015-06-26T07:51:02Z</time>
      </trkpt>
      <trkpt lat="42.20847" lon="9.01119">
        <ele>2162</ele>
        <time>2015-06-26T07:51:39Z</time>
      </trkpt>
      <trkpt lat="42.20845" lon="9.01118">
        <ele>2162</ele>
        <time>2015-06-26T07:52:12Z</time>
      </trkpt>
      <trkpt lat="42.20847" lon="9.01116">
        <ele>2163.8</ele>
        <time>2015-06-26T07:54:38Z</time>
      </trkpt>
      <trkpt lat="42.20845" lon="9.01114">
        <ele>2164</ele>
        <time>2015-06-26T07:54:45Z</time>
      </trkpt>
      <trkpt lat="42.20843" lon="9.01109">
        <ele>2166</ele>
        <time>2015-06-26T07:56:02Z</time>
      </trkpt>
      <trkpt lat="42.20843" lon="9.01106">
        <ele>2167.4</ele>
        <time>2015-06-26T07:56:24Z</time>
      </trkpt>
      <trkpt lat="42.20845" lon="9.01103">
        <ele>2168.4</ele>
        <time>2015-06-26T07:56:39Z</time>
      </trkpt>
      <trkpt lat="42.20841" lon="9.01105">
        <ele>2169</ele>
        <time>2015-06-26T07:57:10Z</time>
      </trkpt>
      <trkpt lat="42.20844" lon="9.01105">
        <ele>2170.6</ele>
        <time>2015-06-26T07:57:21Z</time>
      </trkpt>
      <trkpt lat="42.20844" lon="9.01103">
        <ele>2171.6</ele>
        <time>2015-06-26T07:57:39Z</time>
      </trkpt>
      <trkpt lat="42.20842" lon="9.01102">
        <ele>2172.6</ele>
        <time>2015-06-26T07:57:47Z</time>
      </trkpt>
      <trkpt lat="42.2084" lon="9.01101">
        <ele>2173.8</ele>
        <time>2015-06-26T07:57:56Z</time>
      </trkpt>
      <trkpt lat="42.20843" lon="9.01102">
        <ele>2175.4</ele>
        <time>2015-06-26T07:58:07Z</time>
      </trkpt>
      <trkpt lat="42.20841" lon="9.01099">
        <ele>2175.6</ele>
        <time>2015-06-26T07:58:14Z</time>
      </trkpt>
      <trkpt lat="42.20849" lon="9.011">
        <ele>2176.8</ele>
        <time>2015-06-26T07:58:49Z</time>
      </trkpt>
      <trkpt lat="42.20847" lon="9.01094">
        <ele>2176.8</ele>
        <time>2015-06-26T07:58:58Z</time>
      </trkpt>
      <trkpt lat="42.20848" lon="9.01077">
        <ele>2177</ele>
        <time>2015-06-26T07:59:30Z</time>
      </trkpt>
      <trkpt lat="42.20845" lon="9.01067">
        <ele>2176.6</ele>
        <time>2015-06-26T07:59:42Z</time>
      </trkpt>
      <trkpt lat="42.20845" lon="9.01065">
        <ele>2177.2</ele>
        <time>2015-06-26T07:59:44Z</time>
      </trkpt>
      <trkpt lat="42.20843" lon="9.01062">
        <ele>2177.4</ele>
        <time>2015-06-26T07:59:47Z</time>
      </trkpt>
      <trkpt lat="42.20843" lon="9.01061">
        <ele>2177.4</ele>
        <time>2015-06-26T07:59:48Z</time>
      </trkpt>
      <trkpt lat="42.2084" lon="9.01045">
        <ele>2178.4</ele>
        <time>2015-06-26T08:00:03Z</time>
      </trkpt>
      <trkpt lat="42.20845" lon="9.01004">
        <ele>2179.4</ele>
        <time>2015-06-26T08:01:13Z</time>
      </trkpt>
      <trkpt lat="42.20844" lon="9.01001">
        <ele>2180.8</ele>
        <time>2015-06-26T08:01:21Z</time>
      </trkpt>
      <trkpt lat="42.20845" lon="9.00999">
        <ele>2181.8</ele>
        <time>2015-06-26T08:01:28Z</time>
      </trkpt>
      <trkpt lat="42.20846" lon="9.00995">
        <ele>2183.2</ele>
        <time>2015-06-26T08:01:37Z</time>
      </trkpt>
      <trkpt lat="42.20846" lon="9.00993">
        <ele>2184.2</ele>
        <time>2015-06-26T08:01:45Z</time>
      </trkpt>
      <trkpt lat="42.20844" lon="9.00991">
        <ele>2185.8</ele>
        <time>2015-06-26T08:01:57Z</time>
      </trkpt>
      <trkpt lat="42.20843" lon="9.00987">
        <ele>2186.6</ele>
        <time>2015-06-26T08:02:07Z</time>
      </trkpt>
      <trkpt lat="42.20845" lon="9.00985">
        <ele>2187.8</ele>
        <time>2015-06-26T08:02:17Z</time>
      </trkpt>
      <trkpt lat="42.20847" lon="9.00983">
        <ele>2189.2</ele>
        <time>2015-06-26T08:02:29Z</time>
      </trkpt>
      <trkpt lat="42.20845" lon="9.00977">
        <ele>2190.2</ele>
        <time>2015-06-26T08:02:38Z</time>
      </trkpt>
      <trkpt lat="42.20842" lon="9.00975">
        <ele>2191.6</ele>
        <time>2015-06-26T08:02:49Z</time>
      </trkpt>
      <trkpt lat="42.20842" lon="9.00973">
        <ele>2192.2</ele>
        <time>2015-06-26T08:02:56Z</time>
      </trkpt>
      <trkpt lat="42.20843" lon="9.00971">
        <ele>2194</ele>
        <time>2015-06-26T08:03:08Z</time>
      </trkpt>
      <trkpt lat="42.20843" lon="9.00967">
        <ele>2195.2</ele>
        <time>2015-06-26T08:03:21Z</time>
      </trkpt>
      <trkpt lat="42.20843" lon="9.00963">
        <ele>2196.4</ele>
        <time>2015-06-26T08:03:36Z</time>
      </trkpt>
      <trkpt lat="42.20846" lon="9.00961">
        <ele>2198</ele>
        <time>2015-06-26T08:03:52Z</time>
      </trkpt>
      <trkpt lat="42.20843" lon="9.00954">
        <ele>2199.2</ele>
        <time>2015-06-26T08:04:10Z</time>
      </trkpt>
      <trkpt lat="42.20843" lon="9.00954">
        <ele>2199.4</ele>
        <time>2015-06-26T08:04:12Z</time>
      </trkpt>
      <trkpt lat="42.20844" lon="9.00953">
        <ele>2199.8</ele>
        <time>2015-06-26T08:04:18Z</time>
      </trkpt>
      <trkpt lat="42.20845" lon="9.0095">
        <ele>2201.4</ele>
        <time>2015-06-26T08:04:27Z</time>
      </trkpt>
      <trkpt lat="42.20845" lon="9.00948">
        <ele>2202</ele>
        <time>2015-06-26T08:04:32Z</time>
      </trkpt>
      <trkpt lat="42.20846" lon="9.00947">
        <ele>2203.6</ele>
        <time>2015-06-26T08:04:39Z</time>
      </trkpt>
      <trkpt lat="42.20848" lon="9.00947">
        <ele>2204.6</ele>
        <time>2015-06-26T08:04:46Z</time>
      </trkpt>
      <trkpt lat="42.2085" lon="9.00948">
        <ele>2206.2</ele>
        <time>2015-06-26T08:04:56Z</time>
      </trkpt>
      <trkpt lat="42.2085" lon="9.00942">
        <ele>2207</ele>
        <time>2015-06-26T08:05:04Z</time>
      </trkpt>
      <trkpt lat="42.2085" lon="9.0094">
        <ele>2208.6</ele>
        <time>2015-06-26T08:05:14Z</time>
      </trkpt>
      <trkpt lat="42.2085" lon="9.00937">
        <ele>2210</ele>
        <time>2015-06-26T08:06:39Z</time>
      </trkpt>
      <trkpt lat="42.20854" lon="9.00945">
        <ele>2210</ele>
        <time>2015-06-26T08:07:14Z</time>
      </trkpt>
      <trkpt lat="42.20856" lon="9.00947">
        <ele>2209</ele>
        <time>2015-06-26T08:07:46Z</time>
      </trkpt>
      <trkpt lat="42.20862" lon="9.00922">
        <ele>2209.8</ele>
        <time>2015-06-26T08:08:40Z</time>
      </trkpt>
      <trkpt lat="42.20867" lon="9.00902">
        <ele>2210.4</ele>
        <time>2015-06-26T08:09:00Z</time>
      </trkpt>
      <trkpt lat="42.2087" lon="9.0089">
        <ele>2212</ele>
        <time>2015-06-26T08:09:21Z</time>
      </trkpt>
      <trkpt lat="42.20879" lon="9.00873">
        <ele>2212.4</ele>
        <time>2015-06-26T08:09:59Z</time>
      </trkpt>
      <trkpt lat="42.20882" lon="9.00874">
        <ele>2214.4</ele>
        <time>2015-06-26T08:10:12Z</time>
      </trkpt>
      <trkpt lat="42.20884" lon="9.00872">
        <ele>2215.2</ele>
        <time>2015-06-26T08:10:23Z</time>
      </trkpt>
      <trkpt lat="42.20885" lon="9.00871">
        <ele>2216.2</ele>
        <time>2015-06-26T08:10:31Z</time>
      </trkpt>
      <trkpt lat="42.20886" lon="9.00866">
        <ele>2218</ele>
        <time>2015-06-26T08:10:45Z</time>
      </trkpt>
      <trkpt lat="42.20884" lon="9.00862">
        <ele>2218.8</ele>
        <time>2015-06-26T08:10:54Z</time>
      </trkpt>
      <trkpt lat="42.20885" lon="9.00859">
        <ele>2220</ele>
        <time>2015-06-26T08:11:05Z</time>
      </trkpt>
      <trkpt lat="42.20886" lon="9.00856">
        <ele>2221.6</ele>
        <time>2015-06-26T08:11:18Z</time>
      </trkpt>
      <trkpt lat="42.20892" lon="9.00848">
        <ele>2223.6</ele>
        <time>2015-06-26T08:12:29Z</time>
      </trkpt>
      <trkpt lat="42.20888" lon="9.00847">
        <ele>2224.2</ele>
        <time>2015-06-26T08:12:35Z</time>
      </trkpt>
      <trkpt lat="42.20889" lon="9.00844">
        <ele>2225.6</ele>
        <time>2015-06-26T08:12:56Z</time>
      </trkpt>
      <trkpt lat="42.20888" lon="9.00843">
        <ele>2227.4</ele>
        <time>2015-06-26T08:13:14Z</time>
      </trkpt>
      <trkpt lat="42.20888" lon="9.00839">
        <ele>2228.8</ele>
        <time>2015-06-26T08:13:37Z</time>
      </trkpt>
      <trkpt lat="42.20889" lon="9.00834">
        <ele>2229.6</ele>
        <time>2015-06-26T08:13:48Z</time>
      </trkpt>
      <trkpt lat="42.20896" lon="9.00829">
        <ele>2231.2</ele>
        <time>2015-06-26T08:14:02Z</time>
      </trkpt>
      <trkpt lat="42.20898" lon="9.00828">
        <ele>2232.4</ele>
        <time>2015-06-26T08:14:12Z</time>
      </trkpt>
      <trkpt lat="42.20905" lon="9.00822">
        <ele>2234</ele>
        <time>2015-06-26T08:14:32Z</time>
      </trkpt>
      <trkpt lat="42.20903" lon="9.00813">
        <ele>2235</ele>
        <time>2015-06-26T08:14:45Z</time>
      </trkpt>
      <trkpt lat="42.20911" lon="9.00808">
        <ele>2236.8</ele>
        <time>2015-06-26T08:15:05Z</time>
      </trkpt>
      <trkpt lat="42.2091" lon="9.00798">
        <ele>2237.8</ele>
        <time>2015-06-26T08:15:19Z</time>
      </trkpt>
      <trkpt lat="42.2091" lon="9.00795">
        <ele>2238.4</ele>
        <time>2015-06-26T08:15:27Z</time>
      </trkpt>
      <trkpt lat="42.20911" lon="9.00793">
        <ele>2240.2</ele>
        <time>2015-06-26T08:15:36Z</time>
      </trkpt>
      <trkpt lat="42.20911" lon="9.00791">
        <ele>2241.4</ele>
        <time>2015-06-26T08:15:52Z</time>
      </trkpt>
      <trkpt lat="42.20911" lon="9.00788">
        <ele>2242</ele>
        <time>2015-06-26T08:15:58Z</time>
      </trkpt>
      <trkpt lat="42.20911" lon="9.00783">
        <ele>2244.2</ele>
        <time>2015-06-26T08:16:11Z</time>
      </trkpt>
      <trkpt lat="42.20912" lon="9.00783">
        <ele>2245.2</ele>
        <time>2015-06-26T08:16:22Z</time>
      </trkpt>
      <trkpt lat="42.20911" lon="9.00782">
        <ele>2246.4</ele>
        <time>2015-06-26T08:16:31Z</time>
      </trkpt>
      <trkpt lat="42.20912" lon="9.0078">
        <ele>2247.4</ele>
        <time>2015-06-26T08:16:40Z</time>
      </trkpt>
      <trkpt lat="42.20936" lon="9.0075">
        <ele>2249.2</ele>
        <time>2015-06-26T08:17:27Z</time>
      </trkpt>
      <trkpt lat="42.2095" lon="9.0074">
        <ele>2249.8</ele>
        <time>2015-06-26T08:17:58Z</time>
      </trkpt>
      <trkpt lat="42.20952" lon="9.00735">
        <ele>2251.2</ele>
        <time>2015-06-26T08:18:10Z</time>
      </trkpt>
      <trkpt lat="42.20954" lon="9.00735">
        <ele>2252.8</ele>
        <time>2015-06-26T08:18:23Z</time>
      </trkpt>
      <trkpt lat="42.20956" lon="9.00733">
        <ele>2253.4</ele>
        <time>2015-06-26T08:18:30Z</time>
      </trkpt>
      <trkpt lat="42.20957" lon="9.00727">
        <ele>2254.6</ele>
        <time>2015-06-26T08:18:38Z</time>
      </trkpt>
      <trkpt lat="42.20958" lon="9.00723">
        <ele>2255.8</ele>
        <time>2015-06-26T08:18:46Z</time>
      </trkpt>
      <trkpt lat="42.20963" lon="9.00717">
        <ele>2257.4</ele>
        <time>2015-06-26T08:18:59Z</time>
      </trkpt>
      <trkpt lat="42.20963" lon="9.00712">
        <ele>2258.4</ele>
        <time>2015-06-26T08:19:09Z</time>
      </trkpt>
      <trkpt lat="42.20966" lon="9.00706">
        <ele>2260</ele>
        <time>2015-06-26T08:19:21Z</time>
      </trkpt>
      <trkpt lat="42.20984" lon="9.00691">
        <ele>2261.8</ele>
        <time>2015-06-26T08:20:06Z</time>
      </trkpt>
      <trkpt lat="42.20984" lon="9.00689">
        <ele>2262.8</ele>
        <time>2015-06-26T08:20:13Z</time>
      </trkpt>
      <trkpt lat="42.20986" lon="9.0069">
        <ele>2263.8</ele>
        <time>2015-06-26T08:20:21Z</time>
      </trkpt>
      <trkpt lat="42.20992" lon="9.0069">
        <ele>2265.6</ele>
        <time>2015-06-26T08:20:34Z</time>
      </trkpt>
      <trkpt lat="42.20997" lon="9.00686">
        <ele>2267</ele>
        <time>2015-06-26T08:21:03Z</time>
      </trkpt>
      <trkpt lat="42.21" lon="9.00679">
        <ele>2268.2</ele>
        <time>2015-06-26T08:21:12Z</time>
      </trkpt>
      <trkpt lat="42.21005" lon="9.00677">
        <ele>2269.2</ele>
        <time>2015-06-26T08:21:19Z</time>
      </trkpt>
      <trkpt lat="42.21035" lon="9.00686">
        <ele>2269.6</ele>
        <time>2015-06-26T08:21:47Z</time>
      </trkpt>
      <trkpt lat="42.21034" lon="9.00686">
        <ele>2269.8</ele>
        <time>2015-06-26T08:21:48Z</time>
      </trkpt>
      <trkpt lat="42.21051" lon="9.00672">
        <ele>2271</ele>
        <time>2015-06-26T08:22:43Z</time>
      </trkpt>
      <trkpt lat="42.21062" lon="9.00679">
        <ele>2271</ele>
        <time>2015-06-26T08:22:55Z</time>
      </trkpt>
      <trkpt lat="42.21063" lon="9.00679">
        <ele>2271.2</ele>
        <time>2015-06-26T08:22:57Z</time>
      </trkpt>
      <trkpt lat="42.21082" lon="9.00676">
        <ele>2272.2</ele>
        <time>2015-06-26T08:24:06Z</time>
      </trkpt>
      <trkpt lat="42.21086" lon="9.00672">
        <ele>2273.4</ele>
        <time>2015-06-26T08:24:18Z</time>
      </trkpt>
      <trkpt lat="42.21086" lon="9.00663">
        <ele>2274.4</ele>
        <time>2015-06-26T08:24:43Z</time>
      </trkpt>
      <trkpt lat="42.21091" lon="9.0066">
        <ele>2275.2</ele>
        <time>2015-06-26T08:25:25Z</time>
      </trkpt>
      <trkpt lat="42.21091" lon="9.0066">
        <ele>2276.2</ele>
        <time>2015-06-26T08:25:34Z</time>
      </trkpt>
      <trkpt lat="42.21094" lon="9.00654">
        <ele>2277.4</ele>
        <time>2015-06-26T08:25:48Z</time>
      </trkpt>
      <trkpt lat="42.21098" lon="9.00647">
        <ele>2278.6</ele>
        <time>2015-06-26T08:26:02Z</time>
      </trkpt>
      <trkpt lat="42.211" lon="9.00644">
        <ele>2279.4</ele>
        <time>2015-06-26T08:26:10Z</time>
      </trkpt>
      <trkpt lat="42.211" lon="9.00641">
        <ele>2280</ele>
        <time>2015-06-26T08:26:18Z</time>
      </trkpt>
      <trkpt lat="42.21103" lon="9.00637">
        <ele>2281.6</ele>
        <time>2015-06-26T08:26:29Z</time>
      </trkpt>
      <trkpt lat="42.21106" lon="9.00637">
        <ele>2282.4</ele>
        <time>2015-06-26T08:26:36Z</time>
      </trkpt>
      <trkpt lat="42.21121" lon="9.00624">
        <ele>2284</ele>
        <time>2015-06-26T08:27:43Z</time>
      </trkpt>
      <trkpt lat="42.21125" lon="9.00619">
        <ele>2285</ele>
        <time>2015-06-26T08:28:15Z</time>
      </trkpt>
      <trkpt lat="42.21137" lon="9.00602">
        <ele>2285.6</ele>
        <time>2015-06-26T08:28:59Z</time>
      </trkpt>
      <trkpt lat="42.21139" lon="9.00597">
        <ele>2286.8</ele>
        <time>2015-06-26T08:29:08Z</time>
      </trkpt>
      <trkpt lat="42.21139" lon="9.00593">
        <ele>2288.2</ele>
        <time>2015-06-26T08:29:17Z</time>
      </trkpt>
      <trkpt lat="42.21139" lon="9.0059">
        <ele>2289.2</ele>
        <time>2015-06-26T08:29:25Z</time>
      </trkpt>
      <trkpt lat="42.2114" lon="9.00589">
        <ele>2290.2</ele>
        <time>2015-06-26T08:29:33Z</time>
      </trkpt>
      <trkpt lat="42.21143" lon="9.00588">
        <ele>2291.4</ele>
        <time>2015-06-26T08:29:45Z</time>
      </trkpt>
      <trkpt lat="42.21147" lon="9.00589">
        <ele>2292.6</ele>
        <time>2015-06-26T08:29:55Z</time>
      </trkpt>
      <trkpt lat="42.21148" lon="9.00587">
        <ele>2293.6</ele>
        <time>2015-06-26T08:30:06Z</time>
      </trkpt>
      <trkpt lat="42.21155" lon="9.00589">
        <ele>2295</ele>
        <time>2015-06-26T08:34:04Z</time>
      </trkpt>
      <trkpt lat="42.21153" lon="9.00592">
        <ele>2293.8</ele>
        <time>2015-06-26T08:35:00Z</time>
      </trkpt>
      <trkpt lat="42.21153" lon="9.00593">
        <ele>2294.4</ele>
        <time>2015-06-26T08:35:48Z</time>
      </trkpt>
      <trkpt lat="42.21152" lon="9.00593">
        <ele>2294.8</ele>
        <time>2015-06-26T08:37:49Z</time>
      </trkpt>
      <trkpt lat="42.21152" lon="9.00593">
        <ele>2295.2</ele>
        <time>2015-06-26T08:37:50Z</time>
      </trkpt>
      <trkpt lat="42.21153" lon="9.00591">
        <ele>2295.4</ele>
        <time>2015-06-26T08:39:34Z</time>
      </trkpt>
      <trkpt lat="42.21154" lon="9.00588">
        <ele>2295.4</ele>
        <time>2015-06-26T08:40:59Z</time>
      </trkpt>
      <trkpt lat="42.21155" lon="9.0059">
        <ele>2294.4</ele>
        <time>2015-06-26T08:43:20Z</time>
      </trkpt>
      <trkpt lat="42.21155" lon="9.00589">
        <ele>2293.4</ele>
        <time>2015-06-26T08:43:29Z</time>
      </trkpt>
      <trkpt lat="42.21156" lon="9.00589">
        <ele>2292.2</ele>
        <time>2015-06-26T08:43:39Z</time>
      </trkpt>
      <trkpt lat="42.2116" lon="9.00587">
        <ele>2291.4</ele>
        <time>2015-06-26T08:43:48Z</time>
      </trkpt>
      <trkpt lat="42.21161" lon="9.00585">
        <ele>2290.4</ele>
        <time>2015-06-26T08:43:54Z</time>
      </trkpt>
      <trkpt lat="42.21161" lon="9.00584">
        <ele>2289.2</ele>
        <time>2015-06-26T08:44:03Z</time>
      </trkpt>
      <trkpt lat="42.2116" lon="9.00583">
        <ele>2287.6</ele>
        <time>2015-06-26T08:44:13Z</time>
      </trkpt>
      <trkpt lat="42.2116" lon="9.0058">
        <ele>2286.8</ele>
        <time>2015-06-26T08:44:24Z</time>
      </trkpt>
      <trkpt lat="42.21162" lon="9.00579">
        <ele>2285.6</ele>
        <time>2015-06-26T08:44:34Z</time>
      </trkpt>
      <trkpt lat="42.21162" lon="9.00577">
        <ele>2284.2</ele>
        <time>2015-06-26T08:44:46Z</time>
      </trkpt>
      <trkpt lat="42.21162" lon="9.00574">
        <ele>2283.2</ele>
        <time>2015-06-26T08:44:57Z</time>
      </trkpt>
      <trkpt lat="42.21161" lon="9.0057">
        <ele>2281.6</ele>
        <time>2015-06-26T08:45:08Z</time>
      </trkpt>
      <trkpt lat="42.21159" lon="9.00567">
        <ele>2281.2</ele>
        <time>2015-06-26T08:45:15Z</time>
      </trkpt>
      <trkpt lat="42.21158" lon="9.00562">
        <ele>2279.8</ele>
        <time>2015-06-26T08:45:25Z</time>
      </trkpt>
      <trkpt lat="42.21158" lon="9.00557">
        <ele>2278.6</ele>
        <time>2015-06-26T08:45:35Z</time>
      </trkpt>
      <trkpt lat="42.21159" lon="9.00553">
        <ele>2277.2</ele>
        <time>2015-06-26T08:45:47Z</time>
      </trkpt>
      <trkpt lat="42.21158" lon="9.00552">
        <ele>2276.4</ele>
        <time>2015-06-26T08:45:54Z</time>
      </trkpt>
      <trkpt lat="42.21158" lon="9.0055">
        <ele>2275</ele>
        <time>2015-06-26T08:46:06Z</time>
      </trkpt>
      <trkpt lat="42.21157" lon="9.00547">
        <ele>2274</ele>
        <time>2015-06-26T08:46:16Z</time>
      </trkpt>
      <trkpt lat="42.21157" lon="9.00539">
        <ele>2272.2</ele>
        <time>2015-06-26T08:47:05Z</time>
      </trkpt>
      <trkpt lat="42.21158" lon="9.00536">
        <ele>2271.4</ele>
        <time>2015-06-26T08:47:10Z</time>
      </trkpt>
      <trkpt lat="42.2116" lon="9.00533">
        <ele>2270</ele>
        <time>2015-06-26T08:47:16Z</time>
      </trkpt>
      <trkpt lat="42.2116" lon="9.0053">
        <ele>2268.6</ele>
        <time>2015-06-26T08:47:24Z</time>
      </trkpt>
      <trkpt lat="42.21158" lon="9.00528">
        <ele>2267.6</ele>
        <time>2015-06-26T08:47:32Z</time>
      </trkpt>
      <trkpt lat="42.2116" lon="9.00527">
        <ele>2266.8</ele>
        <time>2015-06-26T08:47:38Z</time>
      </trkpt>
      <trkpt lat="42.21161" lon="9.00523">
        <ele>2265</ele>
        <time>2015-06-26T08:47:49Z</time>
      </trkpt>
      <trkpt lat="42.21162" lon="9.00519">
        <ele>2263.8</ele>
        <time>2015-06-26T08:48:01Z</time>
      </trkpt>
      <trkpt lat="42.21164" lon="9.00518">
        <ele>2262.6</ele>
        <time>2015-06-26T08:48:08Z</time>
      </trkpt>
      <trkpt lat="42.21165" lon="9.00517">
        <ele>2262</ele>
        <time>2015-06-26T08:48:13Z</time>
      </trkpt>
      <trkpt lat="42.21163" lon="9.00515">
        <ele>2260.6</ele>
        <time>2015-06-26T08:48:18Z</time>
      </trkpt>
      <trkpt lat="42.21165" lon="9.00512">
        <ele>2259.8</ele>
        <time>2015-06-26T08:48:26Z</time>
      </trkpt>
      <trkpt lat="42.21167" lon="9.0051">
        <ele>2259.4</ele>
        <time>2015-06-26T08:48:31Z</time>
      </trkpt>
      <trkpt lat="42.21167" lon="9.00508">
        <ele>2257.8</ele>
        <time>2015-06-26T08:48:38Z</time>
      </trkpt>
      <trkpt lat="42.21168" lon="9.00506">
        <ele>2256.2</ele>
        <time>2015-06-26T08:48:53Z</time>
      </trkpt>
      <trkpt lat="42.2117" lon="9.00502">
        <ele>2255.6</ele>
        <time>2015-06-26T08:48:59Z</time>
      </trkpt>
      <trkpt lat="42.21172" lon="9.00501">
        <ele>2254.6</ele>
        <time>2015-06-26T08:49:04Z</time>
      </trkpt>
      <trkpt lat="42.21173" lon="9.00499">
        <ele>2252.6</ele>
        <time>2015-06-26T08:49:14Z</time>
      </trkpt>
      <trkpt lat="42.21174" lon="9.00493">
        <ele>2251.4</ele>
        <time>2015-06-26T08:49:27Z</time>
      </trkpt>
      <trkpt lat="42.21175" lon="9.00488">
        <ele>2250.6</ele>
        <time>2015-06-26T08:49:35Z</time>
      </trkpt>
      <trkpt lat="42.21177" lon="9.00485">
        <ele>2249.4</ele>
        <time>2015-06-26T08:49:43Z</time>
      </trkpt>
      <trkpt lat="42.2118" lon="9.00485">
        <ele>2248</ele>
        <time>2015-06-26T08:49:52Z</time>
      </trkpt>
      <trkpt lat="42.2118" lon="9.00484">
        <ele>2247.4</ele>
        <time>2015-06-26T08:49:55Z</time>
      </trkpt>
      <trkpt lat="42.21179" lon="9.0048">
        <ele>2246.6</ele>
        <time>2015-06-26T08:50:03Z</time>
      </trkpt>
      <trkpt lat="42.21183" lon="9.00478">
        <ele>2245.6</ele>
        <time>2015-06-26T08:50:10Z</time>
      </trkpt>
      <trkpt lat="42.21184" lon="9.00476">
        <ele>2243.8</ele>
        <time>2015-06-26T08:50:18Z</time>
      </trkpt>
      <trkpt lat="42.21182" lon="9.00471">
        <ele>2242.6</ele>
        <time>2015-06-26T08:50:29Z</time>
      </trkpt>
      <trkpt lat="42.21183" lon="9.00468">
        <ele>2241.6</ele>
        <time>2015-06-26T08:50:39Z</time>
      </trkpt>
      <trkpt lat="42.21184" lon="9.00465">
        <ele>2240.4</ele>
        <time>2015-06-26T08:50:47Z</time>
      </trkpt>
      <trkpt lat="42.21186" lon="9.00464">
        <ele>2238.8</ele>
        <time>2015-06-26T08:50:58Z</time>
      </trkpt>
      <trkpt lat="42.21187" lon="9.0046">
        <ele>2238</ele>
        <time>2015-06-26T08:51:07Z</time>
      </trkpt>
      <trkpt lat="42.21188" lon="9.00457">
        <ele>2236.6</ele>
        <time>2015-06-26T08:51:15Z</time>
      </trkpt>
      <trkpt lat="42.21187" lon="9.00449">
        <ele>2234.8</ele>
        <time>2015-06-26T08:51:29Z</time>
      </trkpt>
      <trkpt lat="42.21187" lon="9.00447">
        <ele>2234</ele>
        <time>2015-06-26T08:51:36Z</time>
      </trkpt>
      <trkpt lat="42.21187" lon="9.00446">
        <ele>2233.8</ele>
        <time>2015-06-26T08:51:39Z</time>
      </trkpt>
      <trkpt lat="42.21189" lon="9.00445">
        <ele>2232.2</ele>
        <time>2015-06-26T08:51:48Z</time>
      </trkpt>
      <trkpt lat="42.21189" lon="9.0044">
        <ele>2231.2</ele>
        <time>2015-06-26T08:51:59Z</time>
      </trkpt>
      <trkpt lat="42.21191" lon="9.00437">
        <ele>2230</ele>
        <time>2015-06-26T08:52:11Z</time>
      </trkpt>
      <trkpt lat="42.21193" lon="9.00433">
        <ele>2228.8</ele>
        <time>2015-06-26T08:52:21Z</time>
      </trkpt>
      <trkpt lat="42.21193" lon="9.00431">
        <ele>2227</ele>
        <time>2015-06-26T08:52:34Z</time>
      </trkpt>
      <trkpt lat="42.21193" lon="9.00428">
        <ele>2226.6</ele>
        <time>2015-06-26T08:52:42Z</time>
      </trkpt>
      <trkpt lat="42.21193" lon="9.00425">
        <ele>2225.2</ele>
        <time>2015-06-26T08:52:51Z</time>
      </trkpt>
      <trkpt lat="42.21192" lon="9.00422">
        <ele>2223.6</ele>
        <time>2015-06-26T08:53:03Z</time>
      </trkpt>
      <trkpt lat="42.21192" lon="9.00421">
        <ele>2223.6</ele>
        <time>2015-06-26T08:53:06Z</time>
      </trkpt>
      <trkpt lat="42.21193" lon="9.00418">
        <ele>2223</ele>
        <time>2015-06-26T08:53:11Z</time>
      </trkpt>
      <trkpt lat="42.21194" lon="9.00415">
        <ele>2221.6</ele>
        <time>2015-06-26T08:53:19Z</time>
      </trkpt>
      <trkpt lat="42.21191" lon="9.00418">
        <ele>2220.2</ele>
        <time>2015-06-26T08:53:29Z</time>
      </trkpt>
      <trkpt lat="42.21187" lon="9.00421">
        <ele>2219.2</ele>
        <time>2015-06-26T08:53:37Z</time>
      </trkpt>
      <trkpt lat="42.21184" lon="9.00419">
        <ele>2218</ele>
        <time>2015-06-26T08:53:47Z</time>
      </trkpt>
      <trkpt lat="42.21183" lon="9.00411">
        <ele>2216.6</ele>
        <time>2015-06-26T08:53:58Z</time>
      </trkpt>
      <trkpt lat="42.21183" lon="9.00406">
        <ele>2215.8</ele>
        <time>2015-06-26T08:54:06Z</time>
      </trkpt>
      <trkpt lat="42.21179" lon="9.00403">
        <ele>2213.8</ele>
        <time>2015-06-26T08:54:18Z</time>
      </trkpt>
      <trkpt lat="42.21179" lon="9.00399">
        <ele>2212.4</ele>
        <time>2015-06-26T08:54:34Z</time>
      </trkpt>
      <trkpt lat="42.21177" lon="9.00396">
        <ele>2211.4</ele>
        <time>2015-06-26T08:54:44Z</time>
      </trkpt>
      <trkpt lat="42.2118" lon="9.00391">
        <ele>2210.4</ele>
        <time>2015-06-26T08:54:58Z</time>
      </trkpt>
      <trkpt lat="42.2118" lon="9.0039">
        <ele>2209.2</ele>
        <time>2015-06-26T08:55:06Z</time>
      </trkpt>
      <trkpt lat="42.21177" lon="9.00388">
        <ele>2208.2</ele>
        <time>2015-06-26T08:55:15Z</time>
      </trkpt>
      <trkpt lat="42.21175" lon="9.00389">
        <ele>2206.8</ele>
        <time>2015-06-26T08:55:27Z</time>
      </trkpt>
      <trkpt lat="42.21173" lon="9.00383">
        <ele>2205.2</ele>
        <time>2015-06-26T08:55:40Z</time>
      </trkpt>
      <trkpt lat="42.21171" lon="9.00381">
        <ele>2204</ele>
        <time>2015-06-26T08:55:48Z</time>
      </trkpt>
      <trkpt lat="42.21168" lon="9.0038">
        <ele>2203</ele>
        <time>2015-06-26T08:55:55Z</time>
      </trkpt>
      <trkpt lat="42.21167" lon="9.00378">
        <ele>2201.2</ele>
        <time>2015-06-26T08:56:07Z</time>
      </trkpt>
      <trkpt lat="42.21167" lon="9.00376">
        <ele>2200</ele>
        <time>2015-06-26T08:56:17Z</time>
      </trkpt>
      <trkpt lat="42.21168" lon="9.00372">
        <ele>2199.4</ele>
        <time>2015-06-26T08:56:23Z</time>
      </trkpt>
      <trkpt lat="42.21172" lon="9.00367">
        <ele>2197.8</ele>
        <time>2015-06-26T08:56:32Z</time>
      </trkpt>
      <trkpt lat="42.21177" lon="9.00361">
        <ele>2196.4</ele>
        <time>2015-06-26T08:56:51Z</time>
      </trkpt>
      <trkpt lat="42.2118" lon="9.00357">
        <ele>2194.8</ele>
        <time>2015-06-26T08:57:06Z</time>
      </trkpt>
      <trkpt lat="42.21182" lon="9.00356">
        <ele>2194.4</ele>
        <time>2015-06-26T08:57:11Z</time>
      </trkpt>
      <trkpt lat="42.21183" lon="9.00355">
        <ele>2193</ele>
        <time>2015-06-26T08:57:18Z</time>
      </trkpt>
      <trkpt lat="42.21178" lon="9.00351">
        <ele>2191.2</ele>
        <time>2015-06-26T08:57:33Z</time>
      </trkpt>
      <trkpt lat="42.21176" lon="9.0035">
        <ele>2189.8</ele>
        <time>2015-06-26T08:57:45Z</time>
      </trkpt>
      <trkpt lat="42.21175" lon="9.00348">
        <ele>2189</ele>
        <time>2015-06-26T08:57:53Z</time>
      </trkpt>
      <trkpt lat="42.21176" lon="9.00345">
        <ele>2187.8</ele>
        <time>2015-06-26T08:58:00Z</time>
      </trkpt>
      <trkpt lat="42.21178" lon="9.00342">
        <ele>2186.2</ele>
        <time>2015-06-26T08:58:10Z</time>
      </trkpt>
      <trkpt lat="42.2118" lon="9.00336">
        <ele>2185</ele>
        <time>2015-06-26T08:58:23Z</time>
      </trkpt>
      <trkpt lat="42.21177" lon="9.00336">
        <ele>2184</ele>
        <time>2015-06-26T08:58:32Z</time>
      </trkpt>
      <trkpt lat="42.21174" lon="9.00333">
        <ele>2182.6</ele>
        <time>2015-06-26T08:58:43Z</time>
      </trkpt>
      <trkpt lat="42.21172" lon="9.00326">
        <ele>2181</ele>
        <time>2015-06-26T08:59:01Z</time>
      </trkpt>
      <trkpt lat="42.21172" lon="9.00321">
        <ele>2179.8</ele>
        <time>2015-06-26T08:59:13Z</time>
      </trkpt>
      <trkpt lat="42.21171" lon="9.00318">
        <ele>2179.2</ele>
        <time>2015-06-26T08:59:19Z</time>
      </trkpt>
      <trkpt lat="42.21172" lon="9.00312">
        <ele>2177.6</ele>
        <time>2015-06-26T08:59:28Z</time>
      </trkpt>
      <trkpt lat="42.21175" lon="9.0031">
        <ele>2176.4</ele>
        <time>2015-06-26T08:59:39Z</time>
      </trkpt>
      <trkpt lat="42.21178" lon="9.00308">
        <ele>2175</ele>
        <time>2015-06-26T08:59:50Z</time>
      </trkpt>
      <trkpt lat="42.21179" lon="9.00306">
        <ele>2174.2</ele>
        <time>2015-06-26T08:59:58Z</time>
      </trkpt>
      <trkpt lat="42.2118" lon="9.00303">
        <ele>2172.8</ele>
        <time>2015-06-26T09:00:08Z</time>
      </trkpt>
      <trkpt lat="42.21181" lon="9.00301">
        <ele>2171.8</ele>
        <time>2015-06-26T09:00:16Z</time>
      </trkpt>
      <trkpt lat="42.21181" lon="9.00297">
        <ele>2171</ele>
        <time>2015-06-26T09:00:23Z</time>
      </trkpt>
      <trkpt lat="42.21183" lon="9.00295">
        <ele>2170.2</ele>
        <time>2015-06-26T09:00:28Z</time>
      </trkpt>
      <trkpt lat="42.21186" lon="9.00294">
        <ele>2167.6</ele>
        <time>2015-06-26T09:00:44Z</time>
      </trkpt>
      <trkpt lat="42.21189" lon="9.00291">
        <ele>2167</ele>
        <time>2015-06-26T09:00:52Z</time>
      </trkpt>
      <trkpt lat="42.21188" lon="9.00288">
        <ele>2166</ele>
        <time>2015-06-26T09:01:01Z</time>
      </trkpt>
      <trkpt lat="42.21188" lon="9.00287">
        <ele>2165.6</ele>
        <time>2015-06-26T09:01:05Z</time>
      </trkpt>
      <trkpt lat="42.2119" lon="9.00283">
        <ele>2164.4</ele>
        <time>2015-06-26T09:01:13Z</time>
      </trkpt>
      <trkpt lat="42.21192" lon="9.00282">
        <ele>2164</ele>
        <time>2015-06-26T09:01:18Z</time>
      </trkpt>
      <trkpt lat="42.21193" lon="9.00278">
        <ele>2162.2</ele>
        <time>2015-06-26T09:01:29Z</time>
      </trkpt>
      <trkpt lat="42.21197" lon="9.00277">
        <ele>2161.2</ele>
        <time>2015-06-26T09:01:36Z</time>
      </trkpt>
      <trkpt lat="42.21201" lon="9.00275">
        <ele>2160</ele>
        <time>2015-06-26T09:01:45Z</time>
      </trkpt>
      <trkpt lat="42.21203" lon="9.0027">
        <ele>2158.8</ele>
        <time>2015-06-26T09:01:54Z</time>
      </trkpt>
      <trkpt lat="42.21205" lon="9.00268">
        <ele>2157.4</ele>
        <time>2015-06-26T09:02:02Z</time>
      </trkpt>
      <trkpt lat="42.21205" lon="9.00265">
        <ele>2156.6</ele>
        <time>2015-06-26T09:02:08Z</time>
      </trkpt>
      <trkpt lat="42.21208" lon="9.00261">
        <ele>2155</ele>
        <time>2015-06-26T09:02:20Z</time>
      </trkpt>
      <trkpt lat="42.21212" lon="9.00258">
        <ele>2153.6</ele>
        <time>2015-06-26T09:02:34Z</time>
      </trkpt>
      <trkpt lat="42.21213" lon="9.00257">
        <ele>2153.4</ele>
        <time>2015-06-26T09:02:39Z</time>
      </trkpt>
      <trkpt lat="42.21215" lon="9.00252">
        <ele>2151.8</ele>
        <time>2015-06-26T09:02:47Z</time>
      </trkpt>
      <trkpt lat="42.21217" lon="9.00247">
        <ele>2150.6</ele>
        <time>2015-06-26T09:02:59Z</time>
      </trkpt>
      <trkpt lat="42.21219" lon="9.00244">
        <ele>2149.6</ele>
        <time>2015-06-26T09:03:06Z</time>
      </trkpt>
      <trkpt lat="42.21217" lon="9.00242">
        <ele>2147.6</ele>
        <time>2015-06-26T09:03:20Z</time>
      </trkpt>
      <trkpt lat="42.21218" lon="9.0024">
        <ele>2147.4</ele>
        <time>2015-06-26T09:03:25Z</time>
      </trkpt>
      <trkpt lat="42.21218" lon="9.00234">
        <ele>2145.8</ele>
        <time>2015-06-26T09:03:35Z</time>
      </trkpt>
      <trkpt lat="42.2122" lon="9.00226">
        <ele>2144.8</ele>
        <time>2015-06-26T09:03:44Z</time>
      </trkpt>
      <trkpt lat="42.21222" lon="9.00217">
        <ele>2143.4</ele>
        <time>2015-06-26T09:03:54Z</time>
      </trkpt>
      <trkpt lat="42.21223" lon="9.00209">
        <ele>2142.4</ele>
        <time>2015-06-26T09:04:02Z</time>
      </trkpt>
      <trkpt lat="42.21222" lon="9.00207">
        <ele>2141.6</ele>
        <time>2015-06-26T09:04:07Z</time>
      </trkpt>
      <trkpt lat="42.21221" lon="9.00203">
        <ele>2140.2</ele>
        <time>2015-06-26T09:04:13Z</time>
      </trkpt>
      <trkpt lat="42.2122" lon="9.002">
        <ele>2138.8</ele>
        <time>2015-06-26T09:04:20Z</time>
      </trkpt>
      <trkpt lat="42.21221" lon="9.00194">
        <ele>2138</ele>
        <time>2015-06-26T09:04:27Z</time>
      </trkpt>
      <trkpt lat="42.21223" lon="9.00189">
        <ele>2136.4</ele>
        <time>2015-06-26T09:04:35Z</time>
      </trkpt>
      <trkpt lat="42.21227" lon="9.00183">
        <ele>2135.4</ele>
        <time>2015-06-26T09:04:43Z</time>
      </trkpt>
      <trkpt lat="42.21231" lon="9.00181">
        <ele>2134.4</ele>
        <time>2015-06-26T09:04:50Z</time>
      </trkpt>
      <trkpt lat="42.21231" lon="9.00176">
        <ele>2133</ele>
        <time>2015-06-26T09:05:00Z</time>
      </trkpt>
      <trkpt lat="42.21233" lon="9.0017">
        <ele>2132.2</ele>
        <time>2015-06-26T09:05:08Z</time>
      </trkpt>
      <trkpt lat="42.21233" lon="9.00163">
        <ele>2130.8</ele>
        <time>2015-06-26T09:05:17Z</time>
      </trkpt>
      <trkpt lat="42.21233" lon="9.00156">
        <ele>2129.6</ele>
        <time>2015-06-26T09:05:26Z</time>
      </trkpt>
      <trkpt lat="42.21233" lon="9.0015">
        <ele>2128.8</ele>
        <time>2015-06-26T09:05:32Z</time>
      </trkpt>
      <trkpt lat="42.21232" lon="9.00145">
        <ele>2127.2</ele>
        <time>2015-06-26T09:05:42Z</time>
      </trkpt>
      <trkpt lat="42.21232" lon="9.00141">
        <ele>2125.6</ele>
        <time>2015-06-26T09:05:53Z</time>
      </trkpt>
      <trkpt lat="42.21232" lon="9.00136">
        <ele>2125</ele>
        <time>2015-06-26T09:06:03Z</time>
      </trkpt>
      <trkpt lat="42.21231" lon="9.00132">
        <ele>2123.8</ele>
        <time>2015-06-26T09:06:35Z</time>
      </trkpt>
      <trkpt lat="42.2123" lon="9.00129">
        <ele>2123</ele>
        <time>2015-06-26T09:06:41Z</time>
      </trkpt>
      <trkpt lat="42.2123" lon="9.00125">
        <ele>2121.6</ele>
        <time>2015-06-26T09:06:49Z</time>
      </trkpt>
      <trkpt lat="42.2123" lon="9.0012">
        <ele>2120.4</ele>
        <time>2015-06-26T09:06:56Z</time>
      </trkpt>
      <trkpt lat="42.2123" lon="9.00115">
        <ele>2119.2</ele>
        <time>2015-06-26T09:07:03Z</time>
      </trkpt>
      <trkpt lat="42.2123" lon="9.00113">
        <ele>2118.4</ele>
        <time>2015-06-26T09:07:08Z</time>
      </trkpt>
      <trkpt lat="42.21231" lon="9.00109">
        <ele>2117.4</ele>
        <time>2015-06-26T09:07:13Z</time>
      </trkpt>
      <trkpt lat="42.21232" lon="9.00102">
        <ele>2115.8</ele>
        <time>2015-06-26T09:07:19Z</time>
      </trkpt>
      <trkpt lat="42.21232" lon="9.00089">
        <ele>2114.2</ele>
        <time>2015-06-26T09:07:37Z</time>
      </trkpt>
      <trkpt lat="42.21231" lon="9.00082">
        <ele>2113.4</ele>
        <time>2015-06-26T09:07:43Z</time>
      </trkpt>
      <trkpt lat="42.21233" lon="9.0008">
        <ele>2113</ele>
        <time>2015-06-26T09:07:45Z</time>
      </trkpt>
      <trkpt lat="42.21236" lon="9.00062">
        <ele>2111.6</ele>
        <time>2015-06-26T09:08:04Z</time>
      </trkpt>
      <trkpt lat="42.21236" lon="9.00058">
        <ele>2110.6</ele>
        <time>2015-06-26T09:08:37Z</time>
      </trkpt>
      <trkpt lat="42.21236" lon="9.00052">
        <ele>2110</ele>
        <time>2015-06-26T09:08:47Z</time>
      </trkpt>
      <trkpt lat="42.21236" lon="9.00049">
        <ele>2108.8</ele>
        <time>2015-06-26T09:08:54Z</time>
      </trkpt>
      <trkpt lat="42.21238" lon="9.00046">
        <ele>2108</ele>
        <time>2015-06-26T09:09:00Z</time>
      </trkpt>
      <trkpt lat="42.21237" lon="9.00043">
        <ele>2106.4</ele>
        <time>2015-06-26T09:09:08Z</time>
      </trkpt>
      <trkpt lat="42.21237" lon="9.00043">
        <ele>2106.2</ele>
        <time>2015-06-26T09:09:09Z</time>
      </trkpt>
      <trkpt lat="42.21235" lon="9.00042">
        <ele>2105.6</ele>
        <time>2015-06-26T09:09:14Z</time>
      </trkpt>
      <trkpt lat="42.21233" lon="9.00039">
        <ele>2104.4</ele>
        <time>2015-06-26T09:09:22Z</time>
      </trkpt>
      <trkpt lat="42.21233" lon="9.00036">
        <ele>2103.4</ele>
        <time>2015-06-26T09:09:28Z</time>
      </trkpt>
      <trkpt lat="42.21234" lon="9.00033">
        <ele>2101.8</ele>
        <time>2015-06-26T09:09:40Z</time>
      </trkpt>
      <trkpt lat="42.21233" lon="9.00028">
        <ele>2100.8</ele>
        <time>2015-06-26T09:09:48Z</time>
      </trkpt>
      <trkpt lat="42.21234" lon="9.00026">
        <ele>2099.8</ele>
        <time>2015-06-26T09:09:55Z</time>
      </trkpt>
      <trkpt lat="42.21234" lon="9.00023">
        <ele>2098.4</ele>
        <time>2015-06-26T09:10:07Z</time>
      </trkpt>
      <trkpt lat="42.21235" lon="9.00021">
        <ele>2097.6</ele>
        <time>2015-06-26T09:10:13Z</time>
      </trkpt>
      <trkpt lat="42.21234" lon="9.00016">
        <ele>2096.2</ele>
        <time>2015-06-26T09:10:22Z</time>
      </trkpt>
      <trkpt lat="42.21233" lon="9.00007">
        <ele>2095.2</ele>
        <time>2015-06-26T09:10:29Z</time>
      </trkpt>
      <trkpt lat="42.21235" lon="8.99986">
        <ele>2093.6</ele>
        <time>2015-06-26T09:10:50Z</time>
      </trkpt>
      <trkpt lat="42.21235" lon="8.99981">
        <ele>2093.4</ele>
        <time>2015-06-26T09:10:58Z</time>
      </trkpt>
      <trkpt lat="42.21234" lon="8.99979">
        <ele>2092.8</ele>
        <time>2015-06-26T09:11:05Z</time>
      </trkpt>
      <trkpt lat="42.21234" lon="8.99976">
        <ele>2091.6</ele>
        <time>2015-06-26T09:11:11Z</time>
      </trkpt>
      <trkpt lat="42.21232" lon="8.99973">
        <ele>2090</ele>
        <time>2015-06-26T09:11:24Z</time>
      </trkpt>
      <trkpt lat="42.21229" lon="8.99972">
        <ele>2089.4</ele>
        <time>2015-06-26T09:11:30Z</time>
      </trkpt>
      <trkpt lat="42.21228" lon="8.99971">
        <ele>2088.4</ele>
        <time>2015-06-26T09:11:36Z</time>
      </trkpt>
      <trkpt lat="42.21227" lon="8.99966">
        <ele>2086.4</ele>
        <time>2015-06-26T09:11:51Z</time>
      </trkpt>
      <trkpt lat="42.21223" lon="8.99964">
        <ele>2085.8</ele>
        <time>2015-06-26T09:12:08Z</time>
      </trkpt>
      <trkpt lat="42.21222" lon="8.99964">
        <ele>2085.6</ele>
        <time>2015-06-26T09:12:10Z</time>
      </trkpt>
      <trkpt lat="42.21219" lon="8.99962">
        <ele>2084.2</ele>
        <time>2015-06-26T09:12:23Z</time>
      </trkpt>
      <trkpt lat="42.21218" lon="8.99958">
        <ele>2083.2</ele>
        <time>2015-06-26T09:12:32Z</time>
      </trkpt>
      <trkpt lat="42.21213" lon="8.99957">
        <ele>2082</ele>
        <time>2015-06-26T09:12:40Z</time>
      </trkpt>
      <trkpt lat="42.21213" lon="8.99956">
        <ele>2081</ele>
        <time>2015-06-26T09:12:48Z</time>
      </trkpt>
      <trkpt lat="42.21212" lon="8.99951">
        <ele>2079.6</ele>
        <time>2015-06-26T09:13:00Z</time>
      </trkpt>
      <trkpt lat="42.2121" lon="8.99949">
        <ele>2078.2</ele>
        <time>2015-06-26T09:13:08Z</time>
      </trkpt>
      <trkpt lat="42.21211" lon="8.99944">
        <ele>2076.8</ele>
        <time>2015-06-26T09:13:17Z</time>
      </trkpt>
      <trkpt lat="42.21211" lon="8.99938">
        <ele>2075.6</ele>
        <time>2015-06-26T09:13:28Z</time>
      </trkpt>
      <trkpt lat="42.2121" lon="8.99934">
        <ele>2075</ele>
        <time>2015-06-26T09:13:37Z</time>
      </trkpt>
      <trkpt lat="42.21208" lon="8.99931">
        <ele>2073.6</ele>
        <time>2015-06-26T09:13:46Z</time>
      </trkpt>
      <trkpt lat="42.21206" lon="8.99928">
        <ele>2073</ele>
        <time>2015-06-26T09:13:52Z</time>
      </trkpt>
      <trkpt lat="42.21202" lon="8.99925">
        <ele>2071.4</ele>
        <time>2015-06-26T09:14:01Z</time>
      </trkpt>
      <trkpt lat="42.21199" lon="8.99921">
        <ele>2070.2</ele>
        <time>2015-06-26T09:14:09Z</time>
      </trkpt>
      <trkpt lat="42.212" lon="8.99917">
        <ele>2068.8</ele>
        <time>2015-06-26T09:14:17Z</time>
      </trkpt>
      <trkpt lat="42.21197" lon="8.99915">
        <ele>2067.6</ele>
        <time>2015-06-26T09:14:26Z</time>
      </trkpt>
      <trkpt lat="42.21201" lon="8.99906">
        <ele>2066</ele>
        <time>2015-06-26T09:14:48Z</time>
      </trkpt>
      <trkpt lat="42.212" lon="8.99899">
        <ele>2065</ele>
        <time>2015-06-26T09:14:59Z</time>
      </trkpt>
      <trkpt lat="42.21202" lon="8.999">
        <ele>2064.2</ele>
        <time>2015-06-26T09:15:04Z</time>
      </trkpt>
      <trkpt lat="42.21203" lon="8.99901">
        <ele>2064</ele>
        <time>2015-06-26T09:15:06Z</time>
      </trkpt>
      <trkpt lat="42.21203" lon="8.99907">
        <ele>2062.4</ele>
        <time>2015-06-26T09:15:14Z</time>
      </trkpt>
      <trkpt lat="42.21198" lon="8.99906">
        <ele>2061.4</ele>
        <time>2015-06-26T09:15:24Z</time>
      </trkpt>
      <trkpt lat="42.21199" lon="8.99911">
        <ele>2060.8</ele>
        <time>2015-06-26T09:15:27Z</time>
      </trkpt>
      <trkpt lat="42.21196" lon="8.9991">
        <ele>2059.8</ele>
        <time>2015-06-26T09:15:34Z</time>
      </trkpt>
      <trkpt lat="42.21197" lon="8.99909">
        <ele>2059.8</ele>
        <time>2015-06-26T09:15:35Z</time>
      </trkpt>
      <trkpt lat="42.21196" lon="8.99905">
        <ele>2059.2</ele>
        <time>2015-06-26T09:15:40Z</time>
      </trkpt>
      <trkpt lat="42.21193" lon="8.99901">
        <ele>2057.6</ele>
        <time>2015-06-26T09:15:49Z</time>
      </trkpt>
      <trkpt lat="42.21193" lon="8.99908">
        <ele>2056.4</ele>
        <time>2015-06-26T09:15:58Z</time>
      </trkpt>
      <trkpt lat="42.21189" lon="8.99908">
        <ele>2055.4</ele>
        <time>2015-06-26T09:16:11Z</time>
      </trkpt>
      <trkpt lat="42.21187" lon="8.99911">
        <ele>2054.2</ele>
        <time>2015-06-26T09:16:18Z</time>
      </trkpt>
      <trkpt lat="42.21185" lon="8.9991">
        <ele>2053</ele>
        <time>2015-06-26T09:16:25Z</time>
      </trkpt>
      <trkpt lat="42.21181" lon="8.99907">
        <ele>2051.8</ele>
        <time>2015-06-26T09:16:33Z</time>
      </trkpt>
      <trkpt lat="42.21178" lon="8.99907">
        <ele>2050.4</ele>
        <time>2015-06-26T09:16:41Z</time>
      </trkpt>
      <trkpt lat="42.2118" lon="8.99901">
        <ele>2049.2</ele>
        <time>2015-06-26T09:16:50Z</time>
      </trkpt>
      <trkpt lat="42.21182" lon="8.99889">
        <ele>2048.4</ele>
        <time>2015-06-26T09:17:01Z</time>
      </trkpt>
      <trkpt lat="42.2118" lon="8.9988">
        <ele>2047.2</ele>
        <time>2015-06-26T09:17:12Z</time>
      </trkpt>
      <trkpt lat="42.21181" lon="8.99875">
        <ele>2046.2</ele>
        <time>2015-06-26T09:17:20Z</time>
      </trkpt>
      <trkpt lat="42.21179" lon="8.9988">
        <ele>2045.2</ele>
        <time>2015-06-26T09:17:28Z</time>
      </trkpt>
      <trkpt lat="42.21174" lon="8.99884">
        <ele>2044</ele>
        <time>2015-06-26T09:17:35Z</time>
      </trkpt>
      <trkpt lat="42.21154" lon="8.99875">
        <ele>2042.2</ele>
        <time>2015-06-26T09:18:09Z</time>
      </trkpt>
      <trkpt lat="42.21151" lon="8.9987">
        <ele>2041.8</ele>
        <time>2015-06-26T09:18:16Z</time>
      </trkpt>
      <trkpt lat="42.21149" lon="8.9986">
        <ele>2040.4</ele>
        <time>2015-06-26T09:18:25Z</time>
      </trkpt>
      <trkpt lat="42.21149" lon="8.9986">
        <ele>2040.4</ele>
        <time>2015-06-26T09:18:26Z</time>
      </trkpt>
      <trkpt lat="42.21148" lon="8.99841">
        <ele>2038.8</ele>
        <time>2015-06-26T09:18:48Z</time>
      </trkpt>
      <trkpt lat="42.21148" lon="8.99839">
        <ele>2038.8</ele>
        <time>2015-06-26T09:18:52Z</time>
      </trkpt>
      <trkpt lat="42.21145" lon="8.99828">
        <ele>2038</ele>
        <time>2015-06-26T09:19:05Z</time>
      </trkpt>
      <trkpt lat="42.21146" lon="8.99822">
        <ele>2037.4</ele>
        <time>2015-06-26T09:19:12Z</time>
      </trkpt>
      <trkpt lat="42.21147" lon="8.9982">
        <ele>2037</ele>
        <time>2015-06-26T09:19:16Z</time>
      </trkpt>
      <trkpt lat="42.21148" lon="8.9981">
        <ele>2035.2</ele>
        <time>2015-06-26T09:19:26Z</time>
      </trkpt>
      <trkpt lat="42.21142" lon="8.9979">
        <ele>2033.8</ele>
        <time>2015-06-26T09:19:51Z</time>
      </trkpt>
      <trkpt lat="42.21145" lon="8.99772">
        <ele>2032.8</ele>
        <time>2015-06-26T09:20:07Z</time>
      </trkpt>
      <trkpt lat="42.21146" lon="8.99766">
        <ele>2032.6</ele>
        <time>2015-06-26T09:20:13Z</time>
      </trkpt>
      <trkpt lat="42.21147" lon="8.99759">
        <ele>2032.4</ele>
        <time>2015-06-26T09:20:19Z</time>
      </trkpt>
      <trkpt lat="42.21148" lon="8.99734">
        <ele>2032</ele>
        <time>2015-06-26T09:21:44Z</time>
      </trkpt>
      <trkpt lat="42.21152" lon="8.99728">
        <ele>2031.8</ele>
        <time>2015-06-26T09:21:52Z</time>
      </trkpt>
      <trkpt lat="42.21152" lon="8.99719">
        <ele>2031.2</ele>
        <time>2015-06-26T09:21:59Z</time>
      </trkpt>
      <trkpt lat="42.21152" lon="8.99716">
        <ele>2031.4</ele>
        <time>2015-06-26T09:22:02Z</time>
      </trkpt>
      <trkpt lat="42.21155" lon="8.99711">
        <ele>2031</ele>
        <time>2015-06-26T09:22:07Z</time>
      </trkpt>
      <trkpt lat="42.21156" lon="8.99705">
        <ele>2030.8</ele>
        <time>2015-06-26T09:22:12Z</time>
      </trkpt>
      <trkpt lat="42.21159" lon="8.99701">
        <ele>2030.8</ele>
        <time>2015-06-26T09:22:17Z</time>
      </trkpt>
      <trkpt lat="42.2116" lon="8.99691">
        <ele>2030.6</ele>
        <time>2015-06-26T09:22:27Z</time>
      </trkpt>
      <trkpt lat="42.21165" lon="8.99684">
        <ele>2030.6</ele>
        <time>2015-06-26T09:22:35Z</time>
      </trkpt>
      <trkpt lat="42.2117" lon="8.99667">
        <ele>2031.4</ele>
        <time>2015-06-26T09:22:58Z</time>
      </trkpt>
      <trkpt lat="42.21171" lon="8.99663">
        <ele>2032.8</ele>
        <time>2015-06-26T09:23:07Z</time>
      </trkpt>
      <trkpt lat="42.21172" lon="8.99662">
        <ele>2034</ele>
        <time>2015-06-26T09:23:19Z</time>
      </trkpt>
      <trkpt lat="42.21174" lon="8.99656">
        <ele>2035</ele>
        <time>2015-06-26T09:23:40Z</time>
      </trkpt>
      <trkpt lat="42.21175" lon="8.99644">
        <ele>2036.2</ele>
        <time>2015-06-26T09:23:58Z</time>
      </trkpt>
      <trkpt lat="42.21169" lon="8.99627">
        <ele>2036.6</ele>
        <time>2015-06-26T09:24:14Z</time>
      </trkpt>
      <trkpt lat="42.21167" lon="8.99622">
        <ele>2036.8</ele>
        <time>2015-06-26T09:24:19Z</time>
      </trkpt>
      <trkpt lat="42.21167" lon="8.99616">
        <ele>2037.6</ele>
        <time>2015-06-26T09:24:31Z</time>
      </trkpt>
      <trkpt lat="42.21159" lon="8.99579">
        <ele>2037.6</ele>
        <time>2015-06-26T09:25:18Z</time>
      </trkpt>
      <trkpt lat="42.21154" lon="8.99549">
        <ele>2037.4</ele>
        <time>2015-06-26T09:25:50Z</time>
      </trkpt>
      <trkpt lat="42.21152" lon="8.99543">
        <ele>2036.4</ele>
        <time>2015-06-26T09:25:58Z</time>
      </trkpt>
      <trkpt lat="42.2115" lon="8.99537">
        <ele>2035.4</ele>
        <time>2015-06-26T09:26:08Z</time>
      </trkpt>
      <trkpt lat="42.21147" lon="8.99529">
        <ele>2034</ele>
        <time>2015-06-26T09:26:19Z</time>
      </trkpt>
      <trkpt lat="42.21142" lon="8.99511">
        <ele>2032.4</ele>
        <time>2015-06-26T09:26:44Z</time>
      </trkpt>
      <trkpt lat="42.21141" lon="8.99506">
        <ele>2032</ele>
        <time>2015-06-26T09:26:55Z</time>
      </trkpt>
      <trkpt lat="42.21139" lon="8.99498">
        <ele>2031.2</ele>
        <time>2015-06-26T09:27:01Z</time>
      </trkpt>
      <trkpt lat="42.21137" lon="8.99488">
        <ele>2029.4</ele>
        <time>2015-06-26T09:27:16Z</time>
      </trkpt>
      <trkpt lat="42.21138" lon="8.99489">
        <ele>2028.6</ele>
        <time>2015-06-26T09:27:25Z</time>
      </trkpt>
      <trkpt lat="42.21135" lon="8.99482">
        <ele>2027.8</ele>
        <time>2015-06-26T09:27:33Z</time>
      </trkpt>
      <trkpt lat="42.21136" lon="8.99476">
        <ele>2026.8</ele>
        <time>2015-06-26T09:27:40Z</time>
      </trkpt>
      <trkpt lat="42.21134" lon="8.99471">
        <ele>2025.4</ele>
        <time>2015-06-26T09:27:49Z</time>
      </trkpt>
      <trkpt lat="42.21133" lon="8.99466">
        <ele>2024.6</ele>
        <time>2015-06-26T09:27:55Z</time>
      </trkpt>
      <trkpt lat="42.21132" lon="8.99455">
        <ele>2023</ele>
        <time>2015-06-26T09:28:15Z</time>
      </trkpt>
      <trkpt lat="42.21131" lon="8.99457">
        <ele>2021.8</ele>
        <time>2015-06-26T09:28:26Z</time>
      </trkpt>
      <trkpt lat="42.21128" lon="8.99461">
        <ele>2020.8</ele>
        <time>2015-06-26T09:28:35Z</time>
      </trkpt>
      <trkpt lat="42.21126" lon="8.99458">
        <ele>2020</ele>
        <time>2015-06-26T09:28:42Z</time>
      </trkpt>
      <trkpt lat="42.21125" lon="8.99453">
        <ele>2018.8</ele>
        <time>2015-06-26T09:28:49Z</time>
      </trkpt>
      <trkpt lat="42.21122" lon="8.99448">
        <ele>2017.6</ele>
        <time>2015-06-26T09:28:58Z</time>
      </trkpt>
      <trkpt lat="42.21119" lon="8.99439">
        <ele>2016.6</ele>
        <time>2015-06-26T09:29:08Z</time>
      </trkpt>
      <trkpt lat="42.21119" lon="8.99427">
        <ele>2015.4</ele>
        <time>2015-06-26T09:29:19Z</time>
      </trkpt>
      <trkpt lat="42.21124" lon="8.99411">
        <ele>2014</ele>
        <time>2015-06-26T09:29:38Z</time>
      </trkpt>
      <trkpt lat="42.21123" lon="8.99405">
        <ele>2013</ele>
        <time>2015-06-26T09:29:49Z</time>
      </trkpt>
      <trkpt lat="42.2112" lon="8.99401">
        <ele>2011.8</ele>
        <time>2015-06-26T09:29:59Z</time>
      </trkpt>
      <trkpt lat="42.2112" lon="8.99397">
        <ele>2011.2</ele>
        <time>2015-06-26T09:30:05Z</time>
      </trkpt>
      <trkpt lat="42.21119" lon="8.99398">
        <ele>2009.6</ele>
        <time>2015-06-26T09:30:14Z</time>
      </trkpt>
      <trkpt lat="42.21116" lon="8.994">
        <ele>2008.8</ele>
        <time>2015-06-26T09:30:22Z</time>
      </trkpt>
      <trkpt lat="42.21113" lon="8.99396">
        <ele>2007.6</ele>
        <time>2015-06-26T09:30:30Z</time>
      </trkpt>
      <trkpt lat="42.21116" lon="8.99389">
        <ele>2006.6</ele>
        <time>2015-06-26T09:30:36Z</time>
      </trkpt>
      <trkpt lat="42.21118" lon="8.99377">
        <ele>2005.2</ele>
        <time>2015-06-26T09:30:52Z</time>
      </trkpt>
      <trkpt lat="42.21114" lon="8.99371">
        <ele>2004</ele>
        <time>2015-06-26T09:31:05Z</time>
      </trkpt>
      <trkpt lat="42.21113" lon="8.99367">
        <ele>2002.8</ele>
        <time>2015-06-26T09:31:15Z</time>
      </trkpt>
      <trkpt lat="42.21111" lon="8.99364">
        <ele>2002.4</ele>
        <time>2015-06-26T09:31:23Z</time>
      </trkpt>
      <trkpt lat="42.2111" lon="8.99358">
        <ele>2001.4</ele>
        <time>2015-06-26T09:31:32Z</time>
      </trkpt>
      <trkpt lat="42.21109" lon="8.99353">
        <ele>2000</ele>
        <time>2015-06-26T09:31:40Z</time>
      </trkpt>
      <trkpt lat="42.21106" lon="8.9935">
        <ele>1999.4</ele>
        <time>2015-06-26T09:31:47Z</time>
      </trkpt>
      <trkpt lat="42.21106" lon="8.99349">
        <ele>1997.8</ele>
        <time>2015-06-26T09:31:58Z</time>
      </trkpt>
      <trkpt lat="42.21107" lon="8.99345">
        <ele>1996.6</ele>
        <time>2015-06-26T09:32:06Z</time>
      </trkpt>
      <trkpt lat="42.21103" lon="8.99342">
        <ele>1995.8</ele>
        <time>2015-06-26T09:32:14Z</time>
      </trkpt>
      <trkpt lat="42.21103" lon="8.99339">
        <ele>1994.8</ele>
        <time>2015-06-26T09:32:21Z</time>
      </trkpt>
      <trkpt lat="42.21101" lon="8.99334">
        <ele>1993.4</ele>
        <time>2015-06-26T09:32:30Z</time>
      </trkpt>
      <trkpt lat="42.21099" lon="8.99338">
        <ele>1992.4</ele>
        <time>2015-06-26T09:32:39Z</time>
      </trkpt>
      <trkpt lat="42.21096" lon="8.99336">
        <ele>1991.4</ele>
        <time>2015-06-26T09:32:48Z</time>
      </trkpt>
      <trkpt lat="42.21092" lon="8.99338">
        <ele>1990.2</ele>
        <time>2015-06-26T09:32:57Z</time>
      </trkpt>
      <trkpt lat="42.21092" lon="8.99335">
        <ele>1990</ele>
        <time>2015-06-26T09:33:00Z</time>
      </trkpt>
      <trkpt lat="42.21092" lon="8.99333">
        <ele>1989.6</ele>
        <time>2015-06-26T09:33:02Z</time>
      </trkpt>
      <trkpt lat="42.21093" lon="8.99326">
        <ele>1987.4</ele>
        <time>2015-06-26T09:33:11Z</time>
      </trkpt>
      <trkpt lat="42.21093" lon="8.99319">
        <ele>1987</ele>
        <time>2015-06-26T09:33:19Z</time>
      </trkpt>
      <trkpt lat="42.21091" lon="8.9931">
        <ele>1985.6</ele>
        <time>2015-06-26T09:33:28Z</time>
      </trkpt>
      <trkpt lat="42.21094" lon="8.993">
        <ele>1984.4</ele>
        <time>2015-06-26T09:33:40Z</time>
      </trkpt>
      <trkpt lat="42.21092" lon="8.99292">
        <ele>1983.4</ele>
        <time>2015-06-26T09:33:52Z</time>
      </trkpt>
      <trkpt lat="42.21093" lon="8.99288">
        <ele>1982.8</ele>
        <time>2015-06-26T09:33:58Z</time>
      </trkpt>
      <trkpt lat="42.21093" lon="8.99282">
        <ele>1981.6</ele>
        <time>2015-06-26T09:34:06Z</time>
      </trkpt>
      <trkpt lat="42.21093" lon="8.99275">
        <ele>1980.6</ele>
        <time>2015-06-26T09:34:12Z</time>
      </trkpt>
      <trkpt lat="42.21089" lon="8.99268">
        <ele>1979.4</ele>
        <time>2015-06-26T09:34:19Z</time>
      </trkpt>
      <trkpt lat="42.21089" lon="8.99264">
        <ele>1979</ele>
        <time>2015-06-26T09:34:25Z</time>
      </trkpt>
      <trkpt lat="42.2109" lon="8.99256">
        <ele>1978</ele>
        <time>2015-06-26T09:34:37Z</time>
      </trkpt>
      <trkpt lat="42.2109" lon="8.99249">
        <ele>1976.8</ele>
        <time>2015-06-26T09:34:49Z</time>
      </trkpt>
      <trkpt lat="42.21086" lon="8.99243">
        <ele>1975.8</ele>
        <time>2015-06-26T09:35:00Z</time>
      </trkpt>
      <trkpt lat="42.21083" lon="8.99244">
        <ele>1975</ele>
        <time>2015-06-26T09:35:09Z</time>
      </trkpt>
      <trkpt lat="42.21081" lon="8.9924">
        <ele>1974</ele>
        <time>2015-06-26T09:35:18Z</time>
      </trkpt>
      <trkpt lat="42.21082" lon="8.99236">
        <ele>1973.4</ele>
        <time>2015-06-26T09:35:23Z</time>
      </trkpt>
      <trkpt lat="42.21081" lon="8.99232">
        <ele>1972.2</ele>
        <time>2015-06-26T09:35:29Z</time>
      </trkpt>
      <trkpt lat="42.21083" lon="8.99226">
        <ele>1970.4</ele>
        <time>2015-06-26T09:35:39Z</time>
      </trkpt>
      <trkpt lat="42.21079" lon="8.9922">
        <ele>1969.8</ele>
        <time>2015-06-26T09:35:52Z</time>
      </trkpt>
      <trkpt lat="42.21074" lon="8.99219">
        <ele>1968.2</ele>
        <time>2015-06-26T09:36:04Z</time>
      </trkpt>
      <trkpt lat="42.21073" lon="8.99217">
        <ele>1968</ele>
        <time>2015-06-26T09:36:09Z</time>
      </trkpt>
      <trkpt lat="42.21075" lon="8.99213">
        <ele>1967.2</ele>
        <time>2015-06-26T09:36:13Z</time>
      </trkpt>
      <trkpt lat="42.21076" lon="8.99206">
        <ele>1965</ele>
        <time>2015-06-26T09:36:22Z</time>
      </trkpt>
      <trkpt lat="42.21073" lon="8.99198">
        <ele>1964.4</ele>
        <time>2015-06-26T09:36:34Z</time>
      </trkpt>
      <trkpt lat="42.21073" lon="8.99192">
        <ele>1963.6</ele>
        <time>2015-06-26T09:36:40Z</time>
      </trkpt>
      <trkpt lat="42.21071" lon="8.99182">
        <ele>1962.2</ele>
        <time>2015-06-26T09:36:51Z</time>
      </trkpt>
      <trkpt lat="42.21068" lon="8.99176">
        <ele>1961</ele>
        <time>2015-06-26T09:36:58Z</time>
      </trkpt>
      <trkpt lat="42.21066" lon="8.99173">
        <ele>1960.2</ele>
        <time>2015-06-26T09:37:03Z</time>
      </trkpt>
      <trkpt lat="42.21068" lon="8.99168">
        <ele>1959</ele>
        <time>2015-06-26T09:37:10Z</time>
      </trkpt>
      <trkpt lat="42.21067" lon="8.99164">
        <ele>1958.2</ele>
        <time>2015-06-26T09:37:15Z</time>
      </trkpt>
      <trkpt lat="42.21068" lon="8.99161">
        <ele>1957</ele>
        <time>2015-06-26T09:37:20Z</time>
      </trkpt>
      <trkpt lat="42.21071" lon="8.99149">
        <ele>1955</ele>
        <time>2015-06-26T09:37:33Z</time>
      </trkpt>
      <trkpt lat="42.21075" lon="8.99142">
        <ele>1954.2</ele>
        <time>2015-06-26T09:37:43Z</time>
      </trkpt>
      <trkpt lat="42.21077" lon="8.99135">
        <ele>1953.8</ele>
        <time>2015-06-26T09:37:52Z</time>
      </trkpt>
      <trkpt lat="42.21079" lon="8.9913">
        <ele>1953.4</ele>
        <time>2015-06-26T09:37:59Z</time>
      </trkpt>
      <trkpt lat="42.2108" lon="8.99121">
        <ele>1951.8</ele>
        <time>2015-06-26T09:38:08Z</time>
      </trkpt>
      <trkpt lat="42.21083" lon="8.99116">
        <ele>1950.6</ele>
        <time>2015-06-26T09:38:20Z</time>
      </trkpt>
      <trkpt lat="42.21087" lon="8.99109">
        <ele>1949.6</ele>
        <time>2015-06-26T09:38:30Z</time>
      </trkpt>
      <trkpt lat="42.21093" lon="8.99103">
        <ele>1948.8</ele>
        <time>2015-06-26T09:38:40Z</time>
      </trkpt>
      <trkpt lat="42.21091" lon="8.99095">
        <ele>1948</ele>
        <time>2015-06-26T09:38:48Z</time>
      </trkpt>
      <trkpt lat="42.21096" lon="8.99091">
        <ele>1946.6</ele>
        <time>2015-06-26T09:38:57Z</time>
      </trkpt>
      <trkpt lat="42.21097" lon="8.99087">
        <ele>1945.8</ele>
        <time>2015-06-26T09:39:04Z</time>
      </trkpt>
      <trkpt lat="42.21099" lon="8.99082">
        <ele>1944.4</ele>
        <time>2015-06-26T09:39:12Z</time>
      </trkpt>
      <trkpt lat="42.21101" lon="8.99075">
        <ele>1943.6</ele>
        <time>2015-06-26T09:39:22Z</time>
      </trkpt>
      <trkpt lat="42.21106" lon="8.99071">
        <ele>1943.4</ele>
        <time>2015-06-26T09:39:34Z</time>
      </trkpt>
      <trkpt lat="42.2111" lon="8.99058">
        <ele>1944.8</ele>
        <time>2015-06-26T09:39:54Z</time>
      </trkpt>
      <trkpt lat="42.21108" lon="8.99053">
        <ele>1944.6</ele>
        <time>2015-06-26T09:40:00Z</time>
      </trkpt>
      <trkpt lat="42.21112" lon="8.99044">
        <ele>1944</ele>
        <time>2015-06-26T09:40:14Z</time>
      </trkpt>
      <trkpt lat="42.21107" lon="8.99039">
        <ele>1942.4</ele>
        <time>2015-06-26T09:40:26Z</time>
      </trkpt>
      <trkpt lat="42.21108" lon="8.99036">
        <ele>1942.2</ele>
        <time>2015-06-26T09:40:31Z</time>
      </trkpt>
      <trkpt lat="42.21112" lon="8.99033">
        <ele>1940.4</ele>
        <time>2015-06-26T09:40:42Z</time>
      </trkpt>
      <trkpt lat="42.21113" lon="8.99033">
        <ele>1939.6</ele>
        <time>2015-06-26T09:40:49Z</time>
      </trkpt>
      <trkpt lat="42.21114" lon="8.9903">
        <ele>1938.2</ele>
        <time>2015-06-26T09:40:59Z</time>
      </trkpt>
      <trkpt lat="42.21111" lon="8.99027">
        <ele>1937.2</ele>
        <time>2015-06-26T09:41:08Z</time>
      </trkpt>
      <trkpt lat="42.21112" lon="8.99024">
        <ele>1936</ele>
        <time>2015-06-26T09:41:25Z</time>
      </trkpt>
      <trkpt lat="42.21114" lon="8.99021">
        <ele>1935.2</ele>
        <time>2015-06-26T09:41:32Z</time>
      </trkpt>
      <trkpt lat="42.21116" lon="8.99017">
        <ele>1934.4</ele>
        <time>2015-06-26T09:41:39Z</time>
      </trkpt>
      <trkpt lat="42.21114" lon="8.99012">
        <ele>1933</ele>
        <time>2015-06-26T09:41:49Z</time>
      </trkpt>
      <trkpt lat="42.21113" lon="8.99009">
        <ele>1932</ele>
        <time>2015-06-26T09:41:55Z</time>
      </trkpt>
      <trkpt lat="42.2111" lon="8.99008">
        <ele>1930.8</ele>
        <time>2015-06-26T09:42:03Z</time>
      </trkpt>
      <trkpt lat="42.21107" lon="8.99009">
        <ele>1929.4</ele>
        <time>2015-06-26T09:42:16Z</time>
      </trkpt>
      <trkpt lat="42.21102" lon="8.99011">
        <ele>1928.6</ele>
        <time>2015-06-26T09:42:41Z</time>
      </trkpt>
      <trkpt lat="42.21103" lon="8.9901">
        <ele>1928.4</ele>
        <time>2015-06-26T09:42:42Z</time>
      </trkpt>
      <trkpt lat="42.21104" lon="8.99007">
        <ele>1927.8</ele>
        <time>2015-06-26T09:42:48Z</time>
      </trkpt>
      <trkpt lat="42.21101" lon="8.99002">
        <ele>1926.4</ele>
        <time>2015-06-26T09:42:58Z</time>
      </trkpt>
      <trkpt lat="42.21103" lon="8.99">
        <ele>1925.6</ele>
        <time>2015-06-26T09:43:05Z</time>
      </trkpt>
      <trkpt lat="42.21101" lon="8.98998">
        <ele>1924.4</ele>
        <time>2015-06-26T09:43:15Z</time>
      </trkpt>
      <trkpt lat="42.21103" lon="8.98996">
        <ele>1924</ele>
        <time>2015-06-26T09:43:20Z</time>
      </trkpt>
      <trkpt lat="42.21107" lon="8.98995">
        <ele>1922.2</ele>
        <time>2015-06-26T09:43:36Z</time>
      </trkpt>
      <trkpt lat="42.2111" lon="8.98992">
        <ele>1921.8</ele>
        <time>2015-06-26T09:43:43Z</time>
      </trkpt>
      <trkpt lat="42.21111" lon="8.98985">
        <ele>1921.2</ele>
        <time>2015-06-26T09:44:00Z</time>
      </trkpt>
      <trkpt lat="42.2111" lon="8.98983">
        <ele>1921</ele>
        <time>2015-06-26T09:44:04Z</time>
      </trkpt>
      <trkpt lat="42.21111" lon="8.98981">
        <ele>1919.8</ele>
        <time>2015-06-26T09:44:09Z</time>
      </trkpt>
      <trkpt lat="42.2111" lon="8.98977">
        <ele>1918.4</ele>
        <time>2015-06-26T09:44:17Z</time>
      </trkpt>
      <trkpt lat="42.21112" lon="8.98978">
        <ele>1917.2</ele>
        <time>2015-06-26T09:44:25Z</time>
      </trkpt>
      <trkpt lat="42.21112" lon="8.98975">
        <ele>1916.4</ele>
        <time>2015-06-26T09:44:31Z</time>
      </trkpt>
      <trkpt lat="42.21106" lon="8.98971">
        <ele>1915.2</ele>
        <time>2015-06-26T09:44:38Z</time>
      </trkpt>
      <trkpt lat="42.21103" lon="8.98968">
        <ele>1914.2</ele>
        <time>2015-06-26T09:44:44Z</time>
      </trkpt>
      <trkpt lat="42.21099" lon="8.98965">
        <ele>1912.8</ele>
        <time>2015-06-26T09:44:55Z</time>
      </trkpt>
      <trkpt lat="42.21098" lon="8.98961">
        <ele>1911.8</ele>
        <time>2015-06-26T09:45:04Z</time>
      </trkpt>
      <trkpt lat="42.21102" lon="8.98957">
        <ele>1910.8</ele>
        <time>2015-06-26T09:45:15Z</time>
      </trkpt>
      <trkpt lat="42.21104" lon="8.98955">
        <ele>1910</ele>
        <time>2015-06-26T09:45:23Z</time>
      </trkpt>
      <trkpt lat="42.21106" lon="8.98954">
        <ele>1908.8</ele>
        <time>2015-06-26T09:45:31Z</time>
      </trkpt>
      <trkpt lat="42.21103" lon="8.98951">
        <ele>1907.4</ele>
        <time>2015-06-26T09:45:40Z</time>
      </trkpt>
      <trkpt lat="42.21101" lon="8.9895">
        <ele>1906.6</ele>
        <time>2015-06-26T09:45:47Z</time>
      </trkpt>
      <trkpt lat="42.21101" lon="8.98947">
        <ele>1905.6</ele>
        <time>2015-06-26T09:45:56Z</time>
      </trkpt>
      <trkpt lat="42.21102" lon="8.98945">
        <ele>1904.6</ele>
        <time>2015-06-26T09:46:03Z</time>
      </trkpt>
      <trkpt lat="42.21103" lon="8.98943">
        <ele>1903.4</ele>
        <time>2015-06-26T09:46:10Z</time>
      </trkpt>
      <trkpt lat="42.21107" lon="8.9894">
        <ele>1901.8</ele>
        <time>2015-06-26T09:46:19Z</time>
      </trkpt>
      <trkpt lat="42.2111" lon="8.98938">
        <ele>1901.2</ele>
        <time>2015-06-26T09:46:26Z</time>
      </trkpt>
      <trkpt lat="42.21108" lon="8.98935">
        <ele>1899.6</ele>
        <time>2015-06-26T09:46:36Z</time>
      </trkpt>
      <trkpt lat="42.211" lon="8.98933">
        <ele>1898.8</ele>
        <time>2015-06-26T09:46:45Z</time>
      </trkpt>
      <trkpt lat="42.21098" lon="8.98931">
        <ele>1897.6</ele>
        <time>2015-06-26T09:46:58Z</time>
      </trkpt>
      <trkpt lat="42.21094" lon="8.98927">
        <ele>1897</ele>
        <time>2015-06-26T09:47:03Z</time>
      </trkpt>
      <trkpt lat="42.21093" lon="8.98926">
        <ele>1896.8</ele>
        <time>2015-06-26T09:47:05Z</time>
      </trkpt>
      <trkpt lat="42.21091" lon="8.98924">
        <ele>1896</ele>
        <time>2015-06-26T09:47:10Z</time>
      </trkpt>
      <trkpt lat="42.21089" lon="8.98923">
        <ele>1894.8</ele>
        <time>2015-06-26T09:47:16Z</time>
      </trkpt>
      <trkpt lat="42.21087" lon="8.9892">
        <ele>1894</ele>
        <time>2015-06-26T09:47:21Z</time>
      </trkpt>
      <trkpt lat="42.21085" lon="8.98917">
        <ele>1892.6</ele>
        <time>2015-06-26T09:47:27Z</time>
      </trkpt>
      <trkpt lat="42.21084" lon="8.98915">
        <ele>1891.2</ele>
        <time>2015-06-26T09:47:36Z</time>
      </trkpt>
      <trkpt lat="42.21085" lon="8.98914">
        <ele>1890.6</ele>
        <time>2015-06-26T09:47:40Z</time>
      </trkpt>
      <trkpt lat="42.21085" lon="8.98913">
        <ele>1890.2</ele>
        <time>2015-06-26T09:47:45Z</time>
      </trkpt>
      <trkpt lat="42.21086" lon="8.98909">
        <ele>1888.4</ele>
        <time>2015-06-26T09:48:00Z</time>
      </trkpt>
      <trkpt lat="42.21089" lon="8.98904">
        <ele>1888</ele>
        <time>2015-06-26T09:48:06Z</time>
      </trkpt>
      <trkpt lat="42.21094" lon="8.98899">
        <ele>1886.6</ele>
        <time>2015-06-26T09:48:14Z</time>
      </trkpt>
      <trkpt lat="42.21096" lon="8.98893">
        <ele>1885.6</ele>
        <time>2015-06-26T09:48:22Z</time>
      </trkpt>
      <trkpt lat="42.211" lon="8.9889">
        <ele>1884.8</ele>
        <time>2015-06-26T09:48:29Z</time>
      </trkpt>
      <trkpt lat="42.21106" lon="8.98886">
        <ele>1883.6</ele>
        <time>2015-06-26T09:48:36Z</time>
      </trkpt>
      <trkpt lat="42.21108" lon="8.98885">
        <ele>1883.4</ele>
        <time>2015-06-26T09:48:39Z</time>
      </trkpt>
      <trkpt lat="42.21109" lon="8.98885">
        <ele>1883</ele>
        <time>2015-06-26T09:48:41Z</time>
      </trkpt>
      <trkpt lat="42.21111" lon="8.98884">
        <ele>1882.6</ele>
        <time>2015-06-26T09:48:43Z</time>
      </trkpt>
      <trkpt lat="42.21114" lon="8.98883">
        <ele>1882.2</ele>
        <time>2015-06-26T09:48:50Z</time>
      </trkpt>
      <trkpt lat="42.21117" lon="8.98882">
        <ele>1881.4</ele>
        <time>2015-06-26T09:48:57Z</time>
      </trkpt>
      <trkpt lat="42.2112" lon="8.98879">
        <ele>1880.6</ele>
        <time>2015-06-26T09:49:04Z</time>
      </trkpt>
      <trkpt lat="42.21126" lon="8.9888">
        <ele>1879.2</ele>
        <time>2015-06-26T09:49:12Z</time>
      </trkpt>
      <trkpt lat="42.21128" lon="8.98876">
        <ele>1878</ele>
        <time>2015-06-26T09:49:21Z</time>
      </trkpt>
      <trkpt lat="42.21129" lon="8.98872">
        <ele>1877</ele>
        <time>2015-06-26T09:49:30Z</time>
      </trkpt>
      <trkpt lat="42.21131" lon="8.9887">
        <ele>1876</ele>
        <time>2015-06-26T09:49:37Z</time>
      </trkpt>
      <trkpt lat="42.21131" lon="8.98862">
        <ele>1875</ele>
        <time>2015-06-26T09:49:45Z</time>
      </trkpt>
      <trkpt lat="42.21134" lon="8.98858">
        <ele>1874</ele>
        <time>2015-06-26T09:49:52Z</time>
      </trkpt>
      <trkpt lat="42.21132" lon="8.98851">
        <ele>1872.8</ele>
        <time>2015-06-26T09:50:00Z</time>
      </trkpt>
      <trkpt lat="42.21134" lon="8.98845">
        <ele>1872</ele>
        <time>2015-06-26T09:50:07Z</time>
      </trkpt>
      <trkpt lat="42.21134" lon="8.98836">
        <ele>1871</ele>
        <time>2015-06-26T09:50:15Z</time>
      </trkpt>
      <trkpt lat="42.21143" lon="8.98828">
        <ele>1869.4</ele>
        <time>2015-06-26T09:50:29Z</time>
      </trkpt>
      <trkpt lat="42.21152" lon="8.98824">
        <ele>1868.8</ele>
        <time>2015-06-26T09:50:39Z</time>
      </trkpt>
      <trkpt lat="42.21162" lon="8.98817">
        <ele>1867.6</ele>
        <time>2015-06-26T09:50:52Z</time>
      </trkpt>
      <trkpt lat="42.21165" lon="8.98815">
        <ele>1867.4</ele>
        <time>2015-06-26T09:50:56Z</time>
      </trkpt>
      <trkpt lat="42.21183" lon="8.98806">
        <ele>1866.6</ele>
        <time>2015-06-26T09:51:18Z</time>
      </trkpt>
      <trkpt lat="42.21185" lon="8.98804">
        <ele>1866.6</ele>
        <time>2015-06-26T09:51:21Z</time>
      </trkpt>
      <trkpt lat="42.21188" lon="8.98804">
        <ele>1866</ele>
        <time>2015-06-26T09:51:25Z</time>
      </trkpt>
      <trkpt lat="42.21202" lon="8.98789">
        <ele>1865.6</ele>
        <time>2015-06-26T09:51:44Z</time>
      </trkpt>
      <trkpt lat="42.21203" lon="8.98788">
        <ele>1865.6</ele>
        <time>2015-06-26T09:51:45Z</time>
      </trkpt>
      <trkpt lat="42.21205" lon="8.98788">
        <ele>1865.6</ele>
        <time>2015-06-26T09:51:47Z</time>
      </trkpt>
      <trkpt lat="42.21206" lon="8.98787">
        <ele>1865.6</ele>
        <time>2015-06-26T09:51:48Z</time>
      </trkpt>
      <trkpt lat="42.21228" lon="8.98764">
        <ele>1865.2</ele>
        <time>2015-06-26T09:52:37Z</time>
      </trkpt>
      <trkpt lat="42.21229" lon="8.98761">
        <ele>1864</ele>
        <time>2015-06-26T09:52:59Z</time>
      </trkpt>
      <trkpt lat="42.21242" lon="8.98721">
        <ele>1863.4</ele>
        <time>2015-06-26T09:53:53Z</time>
      </trkpt>
      <trkpt lat="42.21244" lon="8.98719">
        <ele>1863.6</ele>
        <time>2015-06-26T09:53:56Z</time>
      </trkpt>
      <trkpt lat="42.21245" lon="8.98717">
        <ele>1863.4</ele>
        <time>2015-06-26T09:53:58Z</time>
      </trkpt>
      <trkpt lat="42.21245" lon="8.98709">
        <ele>1863.4</ele>
        <time>2015-06-26T09:54:05Z</time>
      </trkpt>
      <trkpt lat="42.21244" lon="8.98706">
        <ele>1863.4</ele>
        <time>2015-06-26T09:54:08Z</time>
      </trkpt>
      <trkpt lat="42.21244" lon="8.98695">
        <ele>1863.6</ele>
        <time>2015-06-26T09:54:20Z</time>
      </trkpt>
      <trkpt lat="42.21247" lon="8.98676">
        <ele>1862.2</ele>
        <time>2015-06-26T09:54:37Z</time>
      </trkpt>
      <trkpt lat="42.21247" lon="8.98673">
        <ele>1862.2</ele>
        <time>2015-06-26T09:54:40Z</time>
      </trkpt>
      <trkpt lat="42.21254" lon="8.98665">
        <ele>1862.2</ele>
        <time>2015-06-26T09:54:51Z</time>
      </trkpt>
      <trkpt lat="42.21257" lon="8.98659">
        <ele>1862</ele>
        <time>2015-06-26T09:54:57Z</time>
      </trkpt>
      <trkpt lat="42.21272" lon="8.98631">
        <ele>1862</ele>
        <time>2015-06-26T09:55:21Z</time>
      </trkpt>
      <trkpt lat="42.21274" lon="8.98626">
        <ele>1862</ele>
        <time>2015-06-26T09:55:24Z</time>
      </trkpt>
      <trkpt lat="42.21279" lon="8.98619">
        <ele>1862</ele>
        <time>2015-06-26T09:55:32Z</time>
      </trkpt>
      <trkpt lat="42.21282" lon="8.98613">
        <ele>1861.8</ele>
        <time>2015-06-26T09:55:37Z</time>
      </trkpt>
      <trkpt lat="42.21284" lon="8.98606">
        <ele>1861.8</ele>
        <time>2015-06-26T09:55:43Z</time>
      </trkpt>
      <trkpt lat="42.21283" lon="8.98591">
        <ele>1861.6</ele>
        <time>2015-06-26T09:55:57Z</time>
      </trkpt>
      <trkpt lat="42.21284" lon="8.9859">
        <ele>1861.8</ele>
        <time>2015-06-26T09:55:59Z</time>
      </trkpt>
      <trkpt lat="42.21298" lon="8.98583">
        <ele>1862.2</ele>
        <time>2015-06-26T09:56:16Z</time>
      </trkpt>
      <trkpt lat="42.21311" lon="8.98577">
        <ele>1862.6</ele>
        <time>2015-06-26T09:56:38Z</time>
      </trkpt>
      <trkpt lat="42.21318" lon="8.98567">
        <ele>1863.2</ele>
        <time>2015-06-26T09:56:57Z</time>
      </trkpt>
      <trkpt lat="42.21321" lon="8.98563">
        <ele>1862.6</ele>
        <time>2015-06-26T09:57:04Z</time>
      </trkpt>
      <trkpt lat="42.21325" lon="8.9856">
        <ele>1861.6</ele>
        <time>2015-06-26T09:57:10Z</time>
      </trkpt>
      <trkpt lat="42.21325" lon="8.98553">
        <ele>1860.2</ele>
        <time>2015-06-26T09:57:18Z</time>
      </trkpt>
      <trkpt lat="42.2133" lon="8.98548">
        <ele>1859.2</ele>
        <time>2015-06-26T09:57:27Z</time>
      </trkpt>
      <trkpt lat="42.2133" lon="8.98543">
        <ele>1858.8</ele>
        <time>2015-06-26T09:57:32Z</time>
      </trkpt>
      <trkpt lat="42.21332" lon="8.98539">
        <ele>1857.2</ele>
        <time>2015-06-26T09:57:40Z</time>
      </trkpt>
      <trkpt lat="42.21334" lon="8.98534">
        <ele>1856.4</ele>
        <time>2015-06-26T09:57:47Z</time>
      </trkpt>
      <trkpt lat="42.21336" lon="8.98529">
        <ele>1855.2</ele>
        <time>2015-06-26T09:57:58Z</time>
      </trkpt>
      <trkpt lat="42.21336" lon="8.98523">
        <ele>1854</ele>
        <time>2015-06-26T09:58:19Z</time>
      </trkpt>
      <trkpt lat="42.21338" lon="8.98522">
        <ele>1853</ele>
        <time>2015-06-26T09:58:33Z</time>
      </trkpt>
      <trkpt lat="42.21341" lon="8.98518">
        <ele>1852.4</ele>
        <time>2015-06-26T09:58:42Z</time>
      </trkpt>
      <trkpt lat="42.21342" lon="8.98516">
        <ele>1851.4</ele>
        <time>2015-06-26T09:58:48Z</time>
      </trkpt>
      <trkpt lat="42.21342" lon="8.98513">
        <ele>1849.4</ele>
        <time>2015-06-26T09:58:59Z</time>
      </trkpt>
      <trkpt lat="42.21344" lon="8.98512">
        <ele>1849</ele>
        <time>2015-06-26T09:59:07Z</time>
      </trkpt>
      <trkpt lat="42.21344" lon="8.98509">
        <ele>1848.2</ele>
        <time>2015-06-26T09:59:12Z</time>
      </trkpt>
      <trkpt lat="42.21348" lon="8.98506">
        <ele>1846.6</ele>
        <time>2015-06-26T09:59:21Z</time>
      </trkpt>
      <trkpt lat="42.2135" lon="8.98502">
        <ele>1845.8</ele>
        <time>2015-06-26T09:59:28Z</time>
      </trkpt>
      <trkpt lat="42.21352" lon="8.98498">
        <ele>1845</ele>
        <time>2015-06-26T09:59:34Z</time>
      </trkpt>
      <trkpt lat="42.21356" lon="8.98496">
        <ele>1843.6</ele>
        <time>2015-06-26T09:59:43Z</time>
      </trkpt>
      <trkpt lat="42.21357" lon="8.98493">
        <ele>1843</ele>
        <time>2015-06-26T09:59:48Z</time>
      </trkpt>
      <trkpt lat="42.21357" lon="8.9849">
        <ele>1842</ele>
        <time>2015-06-26T09:59:53Z</time>
      </trkpt>
      <trkpt lat="42.2136" lon="8.98486">
        <ele>1840.8</ele>
        <time>2015-06-26T09:59:58Z</time>
      </trkpt>
      <trkpt lat="42.21363" lon="8.98484">
        <ele>1839.6</ele>
        <time>2015-06-26T10:00:04Z</time>
      </trkpt>
      <trkpt lat="42.21366" lon="8.98473">
        <ele>1838.2</ele>
        <time>2015-06-26T10:00:14Z</time>
      </trkpt>
      <trkpt lat="42.21375" lon="8.98466">
        <ele>1836.8</ele>
        <time>2015-06-26T10:00:25Z</time>
      </trkpt>
      <trkpt lat="42.21383" lon="8.98461">
        <ele>1836</ele>
        <time>2015-06-26T10:00:41Z</time>
      </trkpt>
      <trkpt lat="42.21387" lon="8.98455">
        <ele>1835</ele>
        <time>2015-06-26T10:00:57Z</time>
      </trkpt>
      <trkpt lat="42.21387" lon="8.98449">
        <ele>1833.6</ele>
        <time>2015-06-26T10:01:12Z</time>
      </trkpt>
      <trkpt lat="42.21389" lon="8.98447">
        <ele>1833</ele>
        <time>2015-06-26T10:01:28Z</time>
      </trkpt>
      <trkpt lat="42.2139" lon="8.98442">
        <ele>1832</ele>
        <time>2015-06-26T10:01:38Z</time>
      </trkpt>
      <trkpt lat="42.21393" lon="8.98442">
        <ele>1831</ele>
        <time>2015-06-26T10:01:54Z</time>
      </trkpt>
      <trkpt lat="42.21396" lon="8.98439">
        <ele>1830</ele>
        <time>2015-06-26T10:02:16Z</time>
      </trkpt>
      <trkpt lat="42.21397" lon="8.98441">
        <ele>1829</ele>
        <time>2015-06-26T10:02:26Z</time>
      </trkpt>
      <trkpt lat="42.21399" lon="8.98439">
        <ele>1828</ele>
        <time>2015-06-26T10:02:34Z</time>
      </trkpt>
      <trkpt lat="42.21398" lon="8.98436">
        <ele>1827</ele>
        <time>2015-06-26T10:02:41Z</time>
      </trkpt>
      <trkpt lat="42.214" lon="8.98434">
        <ele>1825.8</ele>
        <time>2015-06-26T10:02:49Z</time>
      </trkpt>
      <trkpt lat="42.21402" lon="8.98431">
        <ele>1825</ele>
        <time>2015-06-26T10:02:57Z</time>
      </trkpt>
      <trkpt lat="42.21402" lon="8.9843">
        <ele>1823.6</ele>
        <time>2015-06-26T10:03:07Z</time>
      </trkpt>
      <trkpt lat="42.21405" lon="8.98428">
        <ele>1822.8</ele>
        <time>2015-06-26T10:03:16Z</time>
      </trkpt>
      <trkpt lat="42.21407" lon="8.98424">
        <ele>1821.6</ele>
        <time>2015-06-26T10:03:23Z</time>
      </trkpt>
      <trkpt lat="42.21407" lon="8.98422">
        <ele>1820.4</ele>
        <time>2015-06-26T10:03:30Z</time>
      </trkpt>
      <trkpt lat="42.21411" lon="8.98424">
        <ele>1818.8</ele>
        <time>2015-06-26T10:03:48Z</time>
      </trkpt>
      <trkpt lat="42.2141" lon="8.98421">
        <ele>1818</ele>
        <time>2015-06-26T10:04:01Z</time>
      </trkpt>
      <trkpt lat="42.21412" lon="8.98419">
        <ele>1817</ele>
        <time>2015-06-26T10:04:10Z</time>
      </trkpt>
      <trkpt lat="42.21415" lon="8.98418">
        <ele>1816.2</ele>
        <time>2015-06-26T10:04:18Z</time>
      </trkpt>
      <trkpt lat="42.2142" lon="8.98416">
        <ele>1814.6</ele>
        <time>2015-06-26T10:04:31Z</time>
      </trkpt>
      <trkpt lat="42.21424" lon="8.98417">
        <ele>1813.6</ele>
        <time>2015-06-26T10:04:54Z</time>
      </trkpt>
      <trkpt lat="42.21426" lon="8.98417">
        <ele>1813.2</ele>
        <time>2015-06-26T10:04:59Z</time>
      </trkpt>
      <trkpt lat="42.21428" lon="8.98418">
        <ele>1811.8</ele>
        <time>2015-06-26T10:05:06Z</time>
      </trkpt>
      <trkpt lat="42.21432" lon="8.98416">
        <ele>1810.4</ele>
        <time>2015-06-26T10:05:19Z</time>
      </trkpt>
      <trkpt lat="42.21435" lon="8.98415">
        <ele>1809.6</ele>
        <time>2015-06-26T10:05:26Z</time>
      </trkpt>
      <trkpt lat="42.21436" lon="8.98415">
        <ele>1808.8</ele>
        <time>2015-06-26T10:05:30Z</time>
      </trkpt>
      <trkpt lat="42.21437" lon="8.98415">
        <ele>1808.2</ele>
        <time>2015-06-26T10:05:33Z</time>
      </trkpt>
      <trkpt lat="42.2144" lon="8.98415">
        <ele>1807.2</ele>
        <time>2015-06-26T10:05:42Z</time>
      </trkpt>
      <trkpt lat="42.21442" lon="8.98414">
        <ele>1806.2</ele>
        <time>2015-06-26T10:05:51Z</time>
      </trkpt>
      <trkpt lat="42.21444" lon="8.98412">
        <ele>1805</ele>
        <time>2015-06-26T10:05:59Z</time>
      </trkpt>
      <trkpt lat="42.21449" lon="8.98411">
        <ele>1803.8</ele>
        <time>2015-06-26T10:06:07Z</time>
      </trkpt>
      <trkpt lat="42.21452" lon="8.98416">
        <ele>1802.6</ele>
        <time>2015-06-26T10:06:17Z</time>
      </trkpt>
      <trkpt lat="42.21451" lon="8.98417">
        <ele>1801.6</ele>
        <time>2015-06-26T10:06:27Z</time>
      </trkpt>
      <trkpt lat="42.21453" lon="8.98414">
        <ele>1800.2</ele>
        <time>2015-06-26T10:06:42Z</time>
      </trkpt>
      <trkpt lat="42.21457" lon="8.98411">
        <ele>1799</ele>
        <time>2015-06-26T10:06:57Z</time>
      </trkpt>
      <trkpt lat="42.2146" lon="8.98407">
        <ele>1798</ele>
        <time>2015-06-26T10:07:06Z</time>
      </trkpt>
      <trkpt lat="42.21463" lon="8.98403">
        <ele>1797</ele>
        <time>2015-06-26T10:07:21Z</time>
      </trkpt>
      <trkpt lat="42.21467" lon="8.98403">
        <ele>1796.2</ele>
        <time>2015-06-26T10:07:29Z</time>
      </trkpt>
      <trkpt lat="42.21471" lon="8.98403">
        <ele>1795.2</ele>
        <time>2015-06-26T10:07:36Z</time>
      </trkpt>
      <trkpt lat="42.21476" lon="8.98405">
        <ele>1794</ele>
        <time>2015-06-26T10:07:44Z</time>
      </trkpt>
      <trkpt lat="42.21489" lon="8.98409">
        <ele>1792.2</ele>
        <time>2015-06-26T10:08:12Z</time>
      </trkpt>
      <trkpt lat="42.21482" lon="8.98411">
        <ele>1792</ele>
        <time>2015-06-26T10:08:16Z</time>
      </trkpt>
      <trkpt lat="42.21485" lon="8.9841">
        <ele>1791.6</ele>
        <time>2015-06-26T10:08:21Z</time>
      </trkpt>
      <trkpt lat="42.2149" lon="8.9841">
        <ele>1790.4</ele>
        <time>2015-06-26T10:08:31Z</time>
      </trkpt>
      <trkpt lat="42.2149" lon="8.9841">
        <ele>1789.6</ele>
        <time>2015-06-26T10:08:36Z</time>
      </trkpt>
      <trkpt lat="42.21491" lon="8.98405">
        <ele>1788</ele>
        <time>2015-06-26T10:08:44Z</time>
      </trkpt>
      <trkpt lat="42.21496" lon="8.98404">
        <ele>1787</ele>
        <time>2015-06-26T10:08:52Z</time>
      </trkpt>
      <trkpt lat="42.21502" lon="8.98404">
        <ele>1785.4</ele>
        <time>2015-06-26T10:09:08Z</time>
      </trkpt>
      <trkpt lat="42.21503" lon="8.98402">
        <ele>1785</ele>
        <time>2015-06-26T10:09:15Z</time>
      </trkpt>
      <trkpt lat="42.21501" lon="8.98398">
        <ele>1783.4</ele>
        <time>2015-06-26T10:09:26Z</time>
      </trkpt>
      <trkpt lat="42.21504" lon="8.98396">
        <ele>1782.2</ele>
        <time>2015-06-26T10:09:40Z</time>
      </trkpt>
      <trkpt lat="42.21505" lon="8.98397">
        <ele>1781.2</ele>
        <time>2015-06-26T10:09:51Z</time>
      </trkpt>
      <trkpt lat="42.21505" lon="8.98396">
        <ele>1781.2</ele>
        <time>2015-06-26T10:09:52Z</time>
      </trkpt>
      <trkpt lat="42.21508" lon="8.98395">
        <ele>1780.8</ele>
        <time>2015-06-26T10:09:57Z</time>
      </trkpt>
      <trkpt lat="42.21509" lon="8.98395">
        <ele>1780.4</ele>
        <time>2015-06-26T10:10:00Z</time>
      </trkpt>
      <trkpt lat="42.21512" lon="8.984">
        <ele>1779</ele>
        <time>2015-06-26T10:10:11Z</time>
      </trkpt>
      <trkpt lat="42.21514" lon="8.98403">
        <ele>1778.6</ele>
        <time>2015-06-26T10:10:14Z</time>
      </trkpt>
      <trkpt lat="42.21515" lon="8.98404">
        <ele>1778.6</ele>
        <time>2015-06-26T10:10:16Z</time>
      </trkpt>
      <trkpt lat="42.21523" lon="8.98404">
        <ele>1777.6</ele>
        <time>2015-06-26T10:10:50Z</time>
      </trkpt>
      <trkpt lat="42.21526" lon="8.98404">
        <ele>1776.8</ele>
        <time>2015-06-26T10:11:04Z</time>
      </trkpt>
      <trkpt lat="42.21528" lon="8.98402">
        <ele>1775.8</ele>
        <time>2015-06-26T10:11:15Z</time>
      </trkpt>
      <trkpt lat="42.21529" lon="8.98401">
        <ele>1774.8</ele>
        <time>2015-06-26T10:11:22Z</time>
      </trkpt>
      <trkpt lat="42.21533" lon="8.98399">
        <ele>1773.2</ele>
        <time>2015-06-26T10:11:53Z</time>
      </trkpt>
      <trkpt lat="42.21534" lon="8.98394">
        <ele>1772.6</ele>
        <time>2015-06-26T10:12:00Z</time>
      </trkpt>
      <trkpt lat="42.21535" lon="8.98392">
        <ele>1771.2</ele>
        <time>2015-06-26T10:12:07Z</time>
      </trkpt>
      <trkpt lat="42.21537" lon="8.98388">
        <ele>1769.8</ele>
        <time>2015-06-26T10:12:17Z</time>
      </trkpt>
      <trkpt lat="42.2154" lon="8.9839">
        <ele>1768.8</ele>
        <time>2015-06-26T10:12:27Z</time>
      </trkpt>
      <trkpt lat="42.21544" lon="8.9839">
        <ele>1767.6</ele>
        <time>2015-06-26T10:12:36Z</time>
      </trkpt>
      <trkpt lat="42.21546" lon="8.98389">
        <ele>1766.8</ele>
        <time>2015-06-26T10:12:42Z</time>
      </trkpt>
      <trkpt lat="42.21552" lon="8.98387">
        <ele>1764.8</ele>
        <time>2015-06-26T10:12:57Z</time>
      </trkpt>
      <trkpt lat="42.21564" lon="8.98393">
        <ele>1763.4</ele>
        <time>2015-06-26T10:13:25Z</time>
      </trkpt>
      <trkpt lat="42.2157" lon="8.98391">
        <ele>1762.4</ele>
        <time>2015-06-26T10:13:39Z</time>
      </trkpt>
      <trkpt lat="42.21572" lon="8.98389">
        <ele>1761.6</ele>
        <time>2015-06-26T10:13:49Z</time>
      </trkpt>
      <trkpt lat="42.21572" lon="8.98386">
        <ele>1760.4</ele>
        <time>2015-06-26T10:13:58Z</time>
      </trkpt>
      <trkpt lat="42.21572" lon="8.98381">
        <ele>1759.2</ele>
        <time>2015-06-26T10:14:08Z</time>
      </trkpt>
      <trkpt lat="42.21575" lon="8.98379">
        <ele>1758.4</ele>
        <time>2015-06-26T10:14:13Z</time>
      </trkpt>
      <trkpt lat="42.21579" lon="8.98376">
        <ele>1756.8</ele>
        <time>2015-06-26T10:14:21Z</time>
      </trkpt>
      <trkpt lat="42.21581" lon="8.98376">
        <ele>1756</ele>
        <time>2015-06-26T10:14:28Z</time>
      </trkpt>
      <trkpt lat="42.21584" lon="8.98376">
        <ele>1754.6</ele>
        <time>2015-06-26T10:14:36Z</time>
      </trkpt>
      <trkpt lat="42.21586" lon="8.98375">
        <ele>1753.6</ele>
        <time>2015-06-26T10:14:42Z</time>
      </trkpt>
      <trkpt lat="42.2159" lon="8.98372">
        <ele>1751.8</ele>
        <time>2015-06-26T10:14:53Z</time>
      </trkpt>
      <trkpt lat="42.21592" lon="8.98368">
        <ele>1750.8</ele>
        <time>2015-06-26T10:15:03Z</time>
      </trkpt>
      <trkpt lat="42.21594" lon="8.98365">
        <ele>1749.8</ele>
        <time>2015-06-26T10:15:17Z</time>
      </trkpt>
      <trkpt lat="42.21593" lon="8.98364">
        <ele>1748.4</ele>
        <time>2015-06-26T10:15:31Z</time>
      </trkpt>
      <trkpt lat="42.21593" lon="8.98362">
        <ele>1747</ele>
        <time>2015-06-26T10:15:43Z</time>
      </trkpt>
      <trkpt lat="42.21595" lon="8.98358">
        <ele>1746</ele>
        <time>2015-06-26T10:15:53Z</time>
      </trkpt>
      <trkpt lat="42.21597" lon="8.98355">
        <ele>1745.4</ele>
        <time>2015-06-26T10:15:57Z</time>
      </trkpt>
      <trkpt lat="42.21597" lon="8.98354">
        <ele>1745.4</ele>
        <time>2015-06-26T10:15:59Z</time>
      </trkpt>
      <trkpt lat="42.21608" lon="8.98343">
        <ele>1742.8</ele>
        <time>2015-06-26T10:16:56Z</time>
      </trkpt>
      <trkpt lat="42.21616" lon="8.98338">
        <ele>1741.6</ele>
        <time>2015-06-26T10:17:10Z</time>
      </trkpt>
      <trkpt lat="42.21623" lon="8.98336">
        <ele>1740.2</ele>
        <time>2015-06-26T10:17:20Z</time>
      </trkpt>
      <trkpt lat="42.21632" lon="8.98332">
        <ele>1738.4</ele>
        <time>2015-06-26T10:17:34Z</time>
      </trkpt>
      <trkpt lat="42.21642" lon="8.98332">
        <ele>1737.6</ele>
        <time>2015-06-26T10:17:47Z</time>
      </trkpt>
      <trkpt lat="42.21647" lon="8.98332">
        <ele>1736.6</ele>
        <time>2015-06-26T10:17:54Z</time>
      </trkpt>
      <trkpt lat="42.21672" lon="8.9833">
        <ele>1734.8</ele>
        <time>2015-06-26T10:18:30Z</time>
      </trkpt>
      <trkpt lat="42.21686" lon="8.98326">
        <ele>1733.4</ele>
        <time>2015-06-26T10:18:51Z</time>
      </trkpt>
      <trkpt lat="42.21689" lon="8.98324">
        <ele>1733</ele>
        <time>2015-06-26T10:18:56Z</time>
      </trkpt>
      <trkpt lat="42.21703" lon="8.98313">
        <ele>1731.8</ele>
        <time>2015-06-26T10:19:40Z</time>
      </trkpt>
      <trkpt lat="42.21718" lon="8.98308">
        <ele>1732</ele>
        <time>2015-06-26T10:20:25Z</time>
      </trkpt>
      <trkpt lat="42.21723" lon="8.98297">
        <ele>1731.4</ele>
        <time>2015-06-26T10:20:43Z</time>
      </trkpt>
      <trkpt lat="42.21743" lon="8.98288">
        <ele>1730</ele>
        <time>2015-06-26T10:21:23Z</time>
      </trkpt>
      <trkpt lat="42.21746" lon="8.98283">
        <ele>1729.2</ele>
        <time>2015-06-26T10:21:32Z</time>
      </trkpt>
      <trkpt lat="42.2175" lon="8.9828">
        <ele>1728.6</ele>
        <time>2015-06-26T10:21:38Z</time>
      </trkpt>
      <trkpt lat="42.2177" lon="8.98269">
        <ele>1726.2</ele>
        <time>2015-06-26T10:22:11Z</time>
      </trkpt>
      <trkpt lat="42.21776" lon="8.98264">
        <ele>1725.6</ele>
        <time>2015-06-26T10:22:23Z</time>
      </trkpt>
      <trkpt lat="42.21783" lon="8.9826">
        <ele>1724.4</ele>
        <time>2015-06-26T10:22:34Z</time>
      </trkpt>
      <trkpt lat="42.21786" lon="8.98259">
        <ele>1723.4</ele>
        <time>2015-06-26T10:22:41Z</time>
      </trkpt>
      <trkpt lat="42.21793" lon="8.98254">
        <ele>1721.6</ele>
        <time>2015-06-26T10:22:55Z</time>
      </trkpt>
      <trkpt lat="42.21827" lon="8.9824">
        <ele>1720.2</ele>
        <time>2015-06-26T10:23:39Z</time>
      </trkpt>
      <trkpt lat="42.21836" lon="8.98237">
        <ele>1719.8</ele>
        <time>2015-06-26T10:23:51Z</time>
      </trkpt>
      <trkpt lat="42.21846" lon="8.98237">
        <ele>1718.6</ele>
        <time>2015-06-26T10:24:02Z</time>
      </trkpt>
      <trkpt lat="42.21853" lon="8.98236">
        <ele>1717.6</ele>
        <time>2015-06-26T10:24:10Z</time>
      </trkpt>
      <trkpt lat="42.21859" lon="8.9823">
        <ele>1716.4</ele>
        <time>2015-06-26T10:24:20Z</time>
      </trkpt>
      <trkpt lat="42.21861" lon="8.98224">
        <ele>1715.6</ele>
        <time>2015-06-26T10:24:27Z</time>
      </trkpt>
      <trkpt lat="42.21866" lon="8.98217">
        <ele>1714</ele>
        <time>2015-06-26T10:24:36Z</time>
      </trkpt>
      <trkpt lat="42.21869" lon="8.98216">
        <ele>1713.2</ele>
        <time>2015-06-26T10:24:43Z</time>
      </trkpt>
      <trkpt lat="42.21875" lon="8.98211">
        <ele>1712.2</ele>
        <time>2015-06-26T10:24:53Z</time>
      </trkpt>
      <trkpt lat="42.21879" lon="8.98207">
        <ele>1711</ele>
        <time>2015-06-26T10:25:01Z</time>
      </trkpt>
      <trkpt lat="42.21883" lon="8.98206">
        <ele>1709.6</ele>
        <time>2015-06-26T10:25:10Z</time>
      </trkpt>
      <trkpt lat="42.21884" lon="8.98201">
        <ele>1709.2</ele>
        <time>2015-06-26T10:25:15Z</time>
      </trkpt>
      <trkpt lat="42.21889" lon="8.982">
        <ele>1707.2</ele>
        <time>2015-06-26T10:25:25Z</time>
      </trkpt>
      <trkpt lat="42.21899" lon="8.982">
        <ele>1706</ele>
        <time>2015-06-26T10:25:41Z</time>
      </trkpt>
      <trkpt lat="42.21903" lon="8.98196">
        <ele>1705.2</ele>
        <time>2015-06-26T10:25:49Z</time>
      </trkpt>
      <trkpt lat="42.2191" lon="8.98194">
        <ele>1703.6</ele>
        <time>2015-06-26T10:26:04Z</time>
      </trkpt>
      <trkpt lat="42.21912" lon="8.98192">
        <ele>1703.2</ele>
        <time>2015-06-26T10:26:10Z</time>
      </trkpt>
      <trkpt lat="42.21921" lon="8.98187">
        <ele>1701.4</ele>
        <time>2015-06-26T10:26:24Z</time>
      </trkpt>
      <trkpt lat="42.21926" lon="8.98183">
        <ele>1700.6</ele>
        <time>2015-06-26T10:26:34Z</time>
      </trkpt>
      <trkpt lat="42.2193" lon="8.98179">
        <ele>1698.8</ele>
        <time>2015-06-26T10:26:48Z</time>
      </trkpt>
      <trkpt lat="42.21938" lon="8.98176">
        <ele>1698.4</ele>
        <time>2015-06-26T10:27:41Z</time>
      </trkpt>
      <trkpt lat="42.21956" lon="8.98169">
        <ele>1696.6</ele>
        <time>2015-06-26T10:28:05Z</time>
      </trkpt>
      <trkpt lat="42.21961" lon="8.98165">
        <ele>1696.6</ele>
        <time>2015-06-26T10:28:12Z</time>
      </trkpt>
      <trkpt lat="42.21968" lon="8.98159">
        <ele>1695.8</ele>
        <time>2015-06-26T10:28:21Z</time>
      </trkpt>
      <trkpt lat="42.21972" lon="8.98154">
        <ele>1694.8</ele>
        <time>2015-06-26T10:28:30Z</time>
      </trkpt>
      <trkpt lat="42.21984" lon="8.9814">
        <ele>1694</ele>
        <time>2015-06-26T10:28:59Z</time>
      </trkpt>
      <trkpt lat="42.21985" lon="8.98137">
        <ele>1692.8</ele>
        <time>2015-06-26T10:29:08Z</time>
      </trkpt>
      <trkpt lat="42.21985" lon="8.98133">
        <ele>1691.6</ele>
        <time>2015-06-26T10:29:16Z</time>
      </trkpt>
      <trkpt lat="42.21979" lon="8.9812">
        <ele>1690.6</ele>
        <time>2015-06-26T10:29:43Z</time>
      </trkpt>
      <trkpt lat="42.21976" lon="8.98114">
        <ele>1691.2</ele>
        <time>2015-06-26T10:29:49Z</time>
      </trkpt>
      <trkpt lat="42.21978" lon="8.98112">
        <ele>1691.2</ele>
        <time>2015-06-26T10:29:51Z</time>
      </trkpt>
      <trkpt lat="42.21993" lon="8.9807">
        <ele>1690.2</ele>
        <time>2015-06-26T10:30:26Z</time>
      </trkpt>
    </trkseg>
  </trk>
  <trk>
    <name><![CDATA[GR20 Manganu - Ciottulu à i Mori]]></name>
    <trkseg>
      <trkpt lat="42.21992" lon="8.9805">
        <ele>1608.4</ele>
        <time>2015-06-27T03:49:41Z</time>
      </trkpt>
      <trkpt lat="42.21993" lon="8.9805">
        <ele>1608.4</ele>
        <time>2015-06-27T03:49:43Z</time>
      </trkpt>
      <trkpt lat="42.22002" lon="8.98053">
        <ele>1606.8</ele>
        <time>2015-06-27T03:49:59Z</time>
      </trkpt>
      <trkpt lat="42.22001" lon="8.98046">
        <ele>1607.2</ele>
        <time>2015-06-27T03:50:05Z</time>
      </trkpt>
      <trkpt lat="42.22006" lon="8.98042">
        <ele>1605.8</ele>
        <time>2015-06-27T03:50:14Z</time>
      </trkpt>
      <trkpt lat="42.22008" lon="8.98048">
        <ele>1605.2</ele>
        <time>2015-06-27T03:50:20Z</time>
      </trkpt>
      <trkpt lat="42.22013" lon="8.98059">
        <ele>1603.6</ele>
        <time>2015-06-27T03:50:32Z</time>
      </trkpt>
      <trkpt lat="42.22017" lon="8.9806">
        <ele>1602.6</ele>
        <time>2015-06-27T03:50:41Z</time>
      </trkpt>
      <trkpt lat="42.22023" lon="8.98062">
        <ele>1601.6</ele>
        <time>2015-06-27T03:50:51Z</time>
      </trkpt>
      <trkpt lat="42.22046" lon="8.98079">
        <ele>1600.6</ele>
        <time>2015-06-27T03:52:09Z</time>
      </trkpt>
      <trkpt lat="42.22048" lon="8.98076">
        <ele>1600.4</ele>
        <time>2015-06-27T03:52:12Z</time>
      </trkpt>
      <trkpt lat="42.22051" lon="8.98071">
        <ele>1599.8</ele>
        <time>2015-06-27T03:52:17Z</time>
      </trkpt>
      <trkpt lat="42.22052" lon="8.98066">
        <ele>1599.6</ele>
        <time>2015-06-27T03:52:20Z</time>
      </trkpt>
      <trkpt lat="42.22054" lon="8.98066">
        <ele>1598.8</ele>
        <time>2015-06-27T03:52:24Z</time>
      </trkpt>
      <trkpt lat="42.22058" lon="8.98057">
        <ele>1597.8</ele>
        <time>2015-06-27T03:52:35Z</time>
      </trkpt>
      <trkpt lat="42.22057" lon="8.98049">
        <ele>1596.8</ele>
        <time>2015-06-27T03:52:43Z</time>
      </trkpt>
      <trkpt lat="42.22057" lon="8.98043">
        <ele>1596</ele>
        <time>2015-06-27T03:52:49Z</time>
      </trkpt>
      <trkpt lat="42.2206" lon="8.98038">
        <ele>1594.8</ele>
        <time>2015-06-27T03:52:58Z</time>
      </trkpt>
      <trkpt lat="42.22065" lon="8.98037">
        <ele>1593.4</ele>
        <time>2015-06-27T03:53:06Z</time>
      </trkpt>
      <trkpt lat="42.22068" lon="8.98034">
        <ele>1592.6</ele>
        <time>2015-06-27T03:53:14Z</time>
      </trkpt>
      <trkpt lat="42.22071" lon="8.9803">
        <ele>1591.6</ele>
        <time>2015-06-27T03:53:22Z</time>
      </trkpt>
      <trkpt lat="42.22075" lon="8.98028">
        <ele>1590.2</ele>
        <time>2015-06-27T03:53:33Z</time>
      </trkpt>
      <trkpt lat="42.22079" lon="8.98026">
        <ele>1589.2</ele>
        <time>2015-06-27T03:53:41Z</time>
      </trkpt>
      <trkpt lat="42.22083" lon="8.9802">
        <ele>1587.8</ele>
        <time>2015-06-27T03:53:51Z</time>
      </trkpt>
      <trkpt lat="42.22091" lon="8.98018">
        <ele>1586.6</ele>
        <time>2015-06-27T03:54:03Z</time>
      </trkpt>
      <trkpt lat="42.22105" lon="8.98018">
        <ele>1586.8</ele>
        <time>2015-06-27T03:54:21Z</time>
      </trkpt>
      <trkpt lat="42.22112" lon="8.98015">
        <ele>1587.4</ele>
        <time>2015-06-27T03:54:30Z</time>
      </trkpt>
      <trkpt lat="42.22124" lon="8.98007">
        <ele>1587.8</ele>
        <time>2015-06-27T03:54:51Z</time>
      </trkpt>
      <trkpt lat="42.22129" lon="8.98001">
        <ele>1586.8</ele>
        <time>2015-06-27T03:55:00Z</time>
      </trkpt>
      <trkpt lat="42.2214" lon="8.98">
        <ele>1585.4</ele>
        <time>2015-06-27T03:55:15Z</time>
      </trkpt>
      <trkpt lat="42.22147" lon="8.97992">
        <ele>1585.2</ele>
        <time>2015-06-27T03:55:26Z</time>
      </trkpt>
      <trkpt lat="42.22149" lon="8.97987">
        <ele>1585</ele>
        <time>2015-06-27T03:55:30Z</time>
      </trkpt>
      <trkpt lat="42.22152" lon="8.97985">
        <ele>1585</ele>
        <time>2015-06-27T03:55:34Z</time>
      </trkpt>
      <trkpt lat="42.22157" lon="8.97987">
        <ele>1585</ele>
        <time>2015-06-27T03:55:39Z</time>
      </trkpt>
      <trkpt lat="42.22163" lon="8.97986">
        <ele>1585.6</ele>
        <time>2015-06-27T03:55:50Z</time>
      </trkpt>
      <trkpt lat="42.22168" lon="8.97988">
        <ele>1586.2</ele>
        <time>2015-06-27T03:55:57Z</time>
      </trkpt>
      <trkpt lat="42.22176" lon="8.97987">
        <ele>1587.2</ele>
        <time>2015-06-27T03:56:07Z</time>
      </trkpt>
      <trkpt lat="42.22186" lon="8.97982">
        <ele>1586.8</ele>
        <time>2015-06-27T03:56:20Z</time>
      </trkpt>
      <trkpt lat="42.22202" lon="8.97978">
        <ele>1585.6</ele>
        <time>2015-06-27T03:56:38Z</time>
      </trkpt>
      <trkpt lat="42.22205" lon="8.97977">
        <ele>1585.4</ele>
        <time>2015-06-27T03:56:41Z</time>
      </trkpt>
      <trkpt lat="42.22207" lon="8.97979">
        <ele>1585.2</ele>
        <time>2015-06-27T03:56:43Z</time>
      </trkpt>
      <trkpt lat="42.22214" lon="8.97975">
        <ele>1584.8</ele>
        <time>2015-06-27T03:56:56Z</time>
      </trkpt>
      <trkpt lat="42.22231" lon="8.97971">
        <ele>1583.2</ele>
        <time>2015-06-27T03:57:20Z</time>
      </trkpt>
      <trkpt lat="42.22237" lon="8.97966">
        <ele>1583</ele>
        <time>2015-06-27T03:57:29Z</time>
      </trkpt>
      <trkpt lat="42.2224" lon="8.97965">
        <ele>1582.6</ele>
        <time>2015-06-27T03:57:32Z</time>
      </trkpt>
      <trkpt lat="42.22256" lon="8.97966">
        <ele>1582.4</ele>
        <time>2015-06-27T03:57:53Z</time>
      </trkpt>
      <trkpt lat="42.22279" lon="8.97961">
        <ele>1582.8</ele>
        <time>2015-06-27T03:58:26Z</time>
      </trkpt>
      <trkpt lat="42.22285" lon="8.97956">
        <ele>1581.8</ele>
        <time>2015-06-27T03:58:35Z</time>
      </trkpt>
      <trkpt lat="42.22286" lon="8.97955">
        <ele>1581.8</ele>
        <time>2015-06-27T03:58:39Z</time>
      </trkpt>
      <trkpt lat="42.22301" lon="8.97959">
        <ele>1582</ele>
        <time>2015-06-27T03:59:02Z</time>
      </trkpt>
      <trkpt lat="42.22306" lon="8.97962">
        <ele>1583</ele>
        <time>2015-06-27T03:59:11Z</time>
      </trkpt>
      <trkpt lat="42.22311" lon="8.97964">
        <ele>1584.2</ele>
        <time>2015-06-27T03:59:20Z</time>
      </trkpt>
      <trkpt lat="42.22319" lon="8.97964">
        <ele>1585.4</ele>
        <time>2015-06-27T03:59:32Z</time>
      </trkpt>
      <trkpt lat="42.2235" lon="8.97964">
        <ele>1585.6</ele>
        <time>2015-06-27T04:00:12Z</time>
      </trkpt>
      <trkpt lat="42.22357" lon="8.97964">
        <ele>1585</ele>
        <time>2015-06-27T04:00:20Z</time>
      </trkpt>
      <trkpt lat="42.22383" lon="8.97967">
        <ele>1585.4</ele>
        <time>2015-06-27T04:00:57Z</time>
      </trkpt>
      <trkpt lat="42.22391" lon="8.97972">
        <ele>1585.8</ele>
        <time>2015-06-27T04:01:12Z</time>
      </trkpt>
      <trkpt lat="42.22396" lon="8.97973">
        <ele>1587</ele>
        <time>2015-06-27T04:01:20Z</time>
      </trkpt>
      <trkpt lat="42.22401" lon="8.97977">
        <ele>1588</ele>
        <time>2015-06-27T04:01:32Z</time>
      </trkpt>
      <trkpt lat="42.22414" lon="8.97973">
        <ele>1588.8</ele>
        <time>2015-06-27T04:02:07Z</time>
      </trkpt>
      <trkpt lat="42.22421" lon="8.97965">
        <ele>1588.2</ele>
        <time>2015-06-27T04:02:17Z</time>
      </trkpt>
      <trkpt lat="42.22431" lon="8.97955">
        <ele>1588.2</ele>
        <time>2015-06-27T04:02:32Z</time>
      </trkpt>
      <trkpt lat="42.22451" lon="8.97951">
        <ele>1587.6</ele>
        <time>2015-06-27T04:02:59Z</time>
      </trkpt>
      <trkpt lat="42.22455" lon="8.97948">
        <ele>1587.6</ele>
        <time>2015-06-27T04:03:06Z</time>
      </trkpt>
      <trkpt lat="42.22467" lon="8.97945">
        <ele>1586.8</ele>
        <time>2015-06-27T04:03:20Z</time>
      </trkpt>
      <trkpt lat="42.2247" lon="8.97943">
        <ele>1586.4</ele>
        <time>2015-06-27T04:03:24Z</time>
      </trkpt>
      <trkpt lat="42.22474" lon="8.9794">
        <ele>1586</ele>
        <time>2015-06-27T04:03:29Z</time>
      </trkpt>
      <trkpt lat="42.22476" lon="8.97938">
        <ele>1585.6</ele>
        <time>2015-06-27T04:03:32Z</time>
      </trkpt>
      <trkpt lat="42.22477" lon="8.97939">
        <ele>1585.6</ele>
        <time>2015-06-27T04:03:33Z</time>
      </trkpt>
      <trkpt lat="42.22503" lon="8.97922">
        <ele>1584.6</ele>
        <time>2015-06-27T04:04:03Z</time>
      </trkpt>
      <trkpt lat="42.22504" lon="8.97922">
        <ele>1584.6</ele>
        <time>2015-06-27T04:04:04Z</time>
      </trkpt>
      <trkpt lat="42.22509" lon="8.97922">
        <ele>1584.2</ele>
        <time>2015-06-27T04:04:11Z</time>
      </trkpt>
      <trkpt lat="42.22515" lon="8.97918">
        <ele>1583.8</ele>
        <time>2015-06-27T04:04:21Z</time>
      </trkpt>
      <trkpt lat="42.22524" lon="8.97916">
        <ele>1582.8</ele>
        <time>2015-06-27T04:04:32Z</time>
      </trkpt>
      <trkpt lat="42.22527" lon="8.97913">
        <ele>1582.6</ele>
        <time>2015-06-27T04:04:36Z</time>
      </trkpt>
      <trkpt lat="42.22528" lon="8.97912">
        <ele>1582.6</ele>
        <time>2015-06-27T04:04:38Z</time>
      </trkpt>
      <trkpt lat="42.2253" lon="8.97912">
        <ele>1582.4</ele>
        <time>2015-06-27T04:04:41Z</time>
      </trkpt>
      <trkpt lat="42.22543" lon="8.97915">
        <ele>1581.6</ele>
        <time>2015-06-27T04:05:05Z</time>
      </trkpt>
      <trkpt lat="42.22553" lon="8.97909">
        <ele>1581</ele>
        <time>2015-06-27T04:05:22Z</time>
      </trkpt>
      <trkpt lat="42.2258" lon="8.97885">
        <ele>1580.6</ele>
        <time>2015-06-27T04:05:55Z</time>
      </trkpt>
      <trkpt lat="42.22591" lon="8.97881">
        <ele>1580.2</ele>
        <time>2015-06-27T04:06:06Z</time>
      </trkpt>
      <trkpt lat="42.22597" lon="8.97877">
        <ele>1579.4</ele>
        <time>2015-06-27T04:06:13Z</time>
      </trkpt>
      <trkpt lat="42.22598" lon="8.97874">
        <ele>1579.2</ele>
        <time>2015-06-27T04:06:15Z</time>
      </trkpt>
      <trkpt lat="42.226" lon="8.97873">
        <ele>1579</ele>
        <time>2015-06-27T04:06:17Z</time>
      </trkpt>
      <trkpt lat="42.22601" lon="8.97871">
        <ele>1579</ele>
        <time>2015-06-27T04:06:19Z</time>
      </trkpt>
      <trkpt lat="42.22602" lon="8.9787">
        <ele>1578.6</ele>
        <time>2015-06-27T04:06:21Z</time>
      </trkpt>
      <trkpt lat="42.22603" lon="8.97868">
        <ele>1578.4</ele>
        <time>2015-06-27T04:06:23Z</time>
      </trkpt>
      <trkpt lat="42.22607" lon="8.97867">
        <ele>1578.2</ele>
        <time>2015-06-27T04:06:27Z</time>
      </trkpt>
      <trkpt lat="42.22612" lon="8.97861">
        <ele>1577.4</ele>
        <time>2015-06-27T04:06:35Z</time>
      </trkpt>
      <trkpt lat="42.22613" lon="8.97859">
        <ele>1577</ele>
        <time>2015-06-27T04:06:37Z</time>
      </trkpt>
      <trkpt lat="42.22614" lon="8.97856">
        <ele>1576.6</ele>
        <time>2015-06-27T04:06:40Z</time>
      </trkpt>
      <trkpt lat="42.22616" lon="8.97855">
        <ele>1576.4</ele>
        <time>2015-06-27T04:06:42Z</time>
      </trkpt>
      <trkpt lat="42.2262" lon="8.97853">
        <ele>1575.8</ele>
        <time>2015-06-27T04:06:45Z</time>
      </trkpt>
      <trkpt lat="42.22626" lon="8.97855">
        <ele>1575</ele>
        <time>2015-06-27T04:06:51Z</time>
      </trkpt>
      <trkpt lat="42.22632" lon="8.97853">
        <ele>1574.6</ele>
        <time>2015-06-27T04:06:56Z</time>
      </trkpt>
      <trkpt lat="42.22634" lon="8.97851">
        <ele>1574</ele>
        <time>2015-06-27T04:06:58Z</time>
      </trkpt>
      <trkpt lat="42.22636" lon="8.9785">
        <ele>1573.8</ele>
        <time>2015-06-27T04:07:00Z</time>
      </trkpt>
      <trkpt lat="42.22641" lon="8.97851">
        <ele>1573.6</ele>
        <time>2015-06-27T04:07:05Z</time>
      </trkpt>
      <trkpt lat="42.22665" lon="8.9785">
        <ele>1573</ele>
        <time>2015-06-27T04:07:30Z</time>
      </trkpt>
      <trkpt lat="42.22667" lon="8.97849">
        <ele>1573</ele>
        <time>2015-06-27T04:07:33Z</time>
      </trkpt>
      <trkpt lat="42.22668" lon="8.97847">
        <ele>1573</ele>
        <time>2015-06-27T04:07:35Z</time>
      </trkpt>
      <trkpt lat="42.2267" lon="8.97847">
        <ele>1573</ele>
        <time>2015-06-27T04:07:37Z</time>
      </trkpt>
      <trkpt lat="42.22674" lon="8.97843">
        <ele>1572.8</ele>
        <time>2015-06-27T04:07:44Z</time>
      </trkpt>
      <trkpt lat="42.22681" lon="8.97831">
        <ele>1571.4</ele>
        <time>2015-06-27T04:08:09Z</time>
      </trkpt>
      <trkpt lat="42.22683" lon="8.9783">
        <ele>1571.4</ele>
        <time>2015-06-27T04:08:13Z</time>
      </trkpt>
      <trkpt lat="42.22688" lon="8.97828">
        <ele>1570</ele>
        <time>2015-06-27T04:08:22Z</time>
      </trkpt>
      <trkpt lat="42.22688" lon="8.97829">
        <ele>1569.8</ele>
        <time>2015-06-27T04:08:23Z</time>
      </trkpt>
      <trkpt lat="42.22691" lon="8.97831">
        <ele>1569</ele>
        <time>2015-06-27T04:08:30Z</time>
      </trkpt>
      <trkpt lat="42.22696" lon="8.97828">
        <ele>1567.8</ele>
        <time>2015-06-27T04:08:37Z</time>
      </trkpt>
      <trkpt lat="42.22699" lon="8.97824">
        <ele>1566.6</ele>
        <time>2015-06-27T04:08:44Z</time>
      </trkpt>
      <trkpt lat="42.22703" lon="8.97821">
        <ele>1565.8</ele>
        <time>2015-06-27T04:08:51Z</time>
      </trkpt>
      <trkpt lat="42.22706" lon="8.97817">
        <ele>1564.8</ele>
        <time>2015-06-27T04:08:57Z</time>
      </trkpt>
      <trkpt lat="42.22709" lon="8.97813">
        <ele>1563.8</ele>
        <time>2015-06-27T04:09:03Z</time>
      </trkpt>
      <trkpt lat="42.22712" lon="8.9781">
        <ele>1562.6</ele>
        <time>2015-06-27T04:09:09Z</time>
      </trkpt>
      <trkpt lat="42.22715" lon="8.97806">
        <ele>1561.8</ele>
        <time>2015-06-27T04:09:14Z</time>
      </trkpt>
      <trkpt lat="42.22717" lon="8.97802">
        <ele>1560.8</ele>
        <time>2015-06-27T04:09:19Z</time>
      </trkpt>
      <trkpt lat="42.22723" lon="8.978">
        <ele>1559</ele>
        <time>2015-06-27T04:09:27Z</time>
      </trkpt>
      <trkpt lat="42.22729" lon="8.97798">
        <ele>1558.4</ele>
        <time>2015-06-27T04:09:33Z</time>
      </trkpt>
      <trkpt lat="42.22741" lon="8.97795">
        <ele>1557</ele>
        <time>2015-06-27T04:09:44Z</time>
      </trkpt>
      <trkpt lat="42.22747" lon="8.97792">
        <ele>1556.4</ele>
        <time>2015-06-27T04:09:51Z</time>
      </trkpt>
      <trkpt lat="42.22752" lon="8.97791">
        <ele>1556</ele>
        <time>2015-06-27T04:09:56Z</time>
      </trkpt>
      <trkpt lat="42.22761" lon="8.97788">
        <ele>1555</ele>
        <time>2015-06-27T04:10:06Z</time>
      </trkpt>
      <trkpt lat="42.22762" lon="8.97787">
        <ele>1555</ele>
        <time>2015-06-27T04:10:07Z</time>
      </trkpt>
      <trkpt lat="42.22765" lon="8.97787">
        <ele>1554.6</ele>
        <time>2015-06-27T04:10:11Z</time>
      </trkpt>
      <trkpt lat="42.2277" lon="8.97788">
        <ele>1554</ele>
        <time>2015-06-27T04:10:15Z</time>
      </trkpt>
      <trkpt lat="42.22771" lon="8.97788">
        <ele>1554</ele>
        <time>2015-06-27T04:10:16Z</time>
      </trkpt>
      <trkpt lat="42.22775" lon="8.97789">
        <ele>1553.6</ele>
        <time>2015-06-27T04:10:21Z</time>
      </trkpt>
      <trkpt lat="42.22777" lon="8.97787">
        <ele>1553.2</ele>
        <time>2015-06-27T04:10:24Z</time>
      </trkpt>
      <trkpt lat="42.22779" lon="8.97783">
        <ele>1553</ele>
        <time>2015-06-27T04:10:27Z</time>
      </trkpt>
      <trkpt lat="42.22783" lon="8.97778">
        <ele>1552.6</ele>
        <time>2015-06-27T04:10:32Z</time>
      </trkpt>
      <trkpt lat="42.22784" lon="8.97778">
        <ele>1552.4</ele>
        <time>2015-06-27T04:10:33Z</time>
      </trkpt>
      <trkpt lat="42.22803" lon="8.97777">
        <ele>1550.6</ele>
        <time>2015-06-27T04:10:51Z</time>
      </trkpt>
      <trkpt lat="42.22829" lon="8.97781">
        <ele>1550.4</ele>
        <time>2015-06-27T04:11:15Z</time>
      </trkpt>
      <trkpt lat="42.22873" lon="8.97776">
        <ele>1550</ele>
        <time>2015-06-27T04:11:56Z</time>
      </trkpt>
      <trkpt lat="42.22884" lon="8.97771">
        <ele>1550</ele>
        <time>2015-06-27T04:12:07Z</time>
      </trkpt>
      <trkpt lat="42.22921" lon="8.97769">
        <ele>1549.6</ele>
        <time>2015-06-27T04:12:41Z</time>
      </trkpt>
      <trkpt lat="42.22922" lon="8.97769">
        <ele>1549.6</ele>
        <time>2015-06-27T04:12:42Z</time>
      </trkpt>
      <trkpt lat="42.22964" lon="8.97765">
        <ele>1549.4</ele>
        <time>2015-06-27T04:13:20Z</time>
      </trkpt>
      <trkpt lat="42.22967" lon="8.97766">
        <ele>1549.4</ele>
        <time>2015-06-27T04:13:23Z</time>
      </trkpt>
      <trkpt lat="42.22977" lon="8.97768">
        <ele>1549.2</ele>
        <time>2015-06-27T04:13:32Z</time>
      </trkpt>
      <trkpt lat="42.22998" lon="8.9777">
        <ele>1549.8</ele>
        <time>2015-06-27T04:13:52Z</time>
      </trkpt>
      <trkpt lat="42.23003" lon="8.9777">
        <ele>1549.8</ele>
        <time>2015-06-27T04:13:56Z</time>
      </trkpt>
      <trkpt lat="42.23011" lon="8.97772">
        <ele>1549.8</ele>
        <time>2015-06-27T04:14:04Z</time>
      </trkpt>
      <trkpt lat="42.23021" lon="8.97772">
        <ele>1549.8</ele>
        <time>2015-06-27T04:14:14Z</time>
      </trkpt>
      <trkpt lat="42.23022" lon="8.97772">
        <ele>1549.8</ele>
        <time>2015-06-27T04:14:16Z</time>
      </trkpt>
      <trkpt lat="42.23027" lon="8.9777">
        <ele>1549.8</ele>
        <time>2015-06-27T04:14:21Z</time>
      </trkpt>
      <trkpt lat="42.23039" lon="8.97761">
        <ele>1549.8</ele>
        <time>2015-06-27T04:14:33Z</time>
      </trkpt>
      <trkpt lat="42.2306" lon="8.97749">
        <ele>1549.6</ele>
        <time>2015-06-27T04:14:57Z</time>
      </trkpt>
      <trkpt lat="42.23062" lon="8.9775">
        <ele>1549.6</ele>
        <time>2015-06-27T04:14:59Z</time>
      </trkpt>
      <trkpt lat="42.23071" lon="8.97743">
        <ele>1549.6</ele>
        <time>2015-06-27T04:15:25Z</time>
      </trkpt>
      <trkpt lat="42.23112" lon="8.97718">
        <ele>1548.8</ele>
        <time>2015-06-27T04:16:05Z</time>
      </trkpt>
      <trkpt lat="42.23117" lon="8.97717">
        <ele>1548.8</ele>
        <time>2015-06-27T04:16:09Z</time>
      </trkpt>
      <trkpt lat="42.23118" lon="8.97717">
        <ele>1548.6</ele>
        <time>2015-06-27T04:16:10Z</time>
      </trkpt>
      <trkpt lat="42.23145" lon="8.97708">
        <ele>1547.6</ele>
        <time>2015-06-27T04:16:33Z</time>
      </trkpt>
      <trkpt lat="42.23163" lon="8.97696">
        <ele>1547.4</ele>
        <time>2015-06-27T04:16:51Z</time>
      </trkpt>
      <trkpt lat="42.23183" lon="8.97676">
        <ele>1547.4</ele>
        <time>2015-06-27T04:17:13Z</time>
      </trkpt>
      <trkpt lat="42.23204" lon="8.97656">
        <ele>1547.4</ele>
        <time>2015-06-27T04:17:36Z</time>
      </trkpt>
      <trkpt lat="42.23247" lon="8.97634">
        <ele>1547.6</ele>
        <time>2015-06-27T04:18:19Z</time>
      </trkpt>
      <trkpt lat="42.23275" lon="8.97626">
        <ele>1547.6</ele>
        <time>2015-06-27T04:18:46Z</time>
      </trkpt>
      <trkpt lat="42.23319" lon="8.97614">
        <ele>1547.8</ele>
        <time>2015-06-27T04:19:26Z</time>
      </trkpt>
      <trkpt lat="42.23362" lon="8.97596">
        <ele>1548.4</ele>
        <time>2015-06-27T04:20:09Z</time>
      </trkpt>
      <trkpt lat="42.23368" lon="8.97593">
        <ele>1548.4</ele>
        <time>2015-06-27T04:20:15Z</time>
      </trkpt>
      <trkpt lat="42.23391" lon="8.97578">
        <ele>1548.8</ele>
        <time>2015-06-27T04:20:40Z</time>
      </trkpt>
      <trkpt lat="42.23405" lon="8.97576">
        <ele>1549</ele>
        <time>2015-06-27T04:20:54Z</time>
      </trkpt>
      <trkpt lat="42.23416" lon="8.97574">
        <ele>1548.4</ele>
        <time>2015-06-27T04:21:06Z</time>
      </trkpt>
      <trkpt lat="42.23418" lon="8.9757">
        <ele>1548.2</ele>
        <time>2015-06-27T04:21:10Z</time>
      </trkpt>
      <trkpt lat="42.23424" lon="8.97562">
        <ele>1548</ele>
        <time>2015-06-27T04:21:20Z</time>
      </trkpt>
      <trkpt lat="42.23436" lon="8.97557">
        <ele>1548.6</ele>
        <time>2015-06-27T04:21:33Z</time>
      </trkpt>
      <trkpt lat="42.23439" lon="8.97557">
        <ele>1548.8</ele>
        <time>2015-06-27T04:21:36Z</time>
      </trkpt>
      <trkpt lat="42.23443" lon="8.97556">
        <ele>1549.2</ele>
        <time>2015-06-27T04:21:40Z</time>
      </trkpt>
      <trkpt lat="42.23446" lon="8.97549">
        <ele>1550</ele>
        <time>2015-06-27T04:21:54Z</time>
      </trkpt>
      <trkpt lat="42.23448" lon="8.97548">
        <ele>1550</ele>
        <time>2015-06-27T04:21:57Z</time>
      </trkpt>
      <trkpt lat="42.2345" lon="8.97546">
        <ele>1550.2</ele>
        <time>2015-06-27T04:22:00Z</time>
      </trkpt>
      <trkpt lat="42.23457" lon="8.97543">
        <ele>1550.4</ele>
        <time>2015-06-27T04:22:08Z</time>
      </trkpt>
      <trkpt lat="42.23466" lon="8.97544">
        <ele>1551</ele>
        <time>2015-06-27T04:22:17Z</time>
      </trkpt>
      <trkpt lat="42.2347" lon="8.97543">
        <ele>1551</ele>
        <time>2015-06-27T04:22:22Z</time>
      </trkpt>
      <trkpt lat="42.23474" lon="8.9754">
        <ele>1551.2</ele>
        <time>2015-06-27T04:22:27Z</time>
      </trkpt>
      <trkpt lat="42.2348" lon="8.97537">
        <ele>1551.6</ele>
        <time>2015-06-27T04:22:34Z</time>
      </trkpt>
      <trkpt lat="42.23485" lon="8.97536">
        <ele>1552</ele>
        <time>2015-06-27T04:22:40Z</time>
      </trkpt>
      <trkpt lat="42.23489" lon="8.97534">
        <ele>1552.4</ele>
        <time>2015-06-27T04:22:45Z</time>
      </trkpt>
      <trkpt lat="42.23495" lon="8.97532">
        <ele>1552.6</ele>
        <time>2015-06-27T04:22:51Z</time>
      </trkpt>
      <trkpt lat="42.23502" lon="8.97529">
        <ele>1553.8</ele>
        <time>2015-06-27T04:22:59Z</time>
      </trkpt>
      <trkpt lat="42.23502" lon="8.97527">
        <ele>1553.8</ele>
        <time>2015-06-27T04:23:01Z</time>
      </trkpt>
      <trkpt lat="42.23502" lon="8.97526">
        <ele>1554</ele>
        <time>2015-06-27T04:23:02Z</time>
      </trkpt>
      <trkpt lat="42.23507" lon="8.97519">
        <ele>1555</ele>
        <time>2015-06-27T04:23:13Z</time>
      </trkpt>
      <trkpt lat="42.23514" lon="8.97511">
        <ele>1556.2</ele>
        <time>2015-06-27T04:23:24Z</time>
      </trkpt>
      <trkpt lat="42.23518" lon="8.97507">
        <ele>1557</ele>
        <time>2015-06-27T04:23:33Z</time>
      </trkpt>
      <trkpt lat="42.23522" lon="8.97502">
        <ele>1558</ele>
        <time>2015-06-27T04:23:41Z</time>
      </trkpt>
      <trkpt lat="42.2353" lon="8.975">
        <ele>1559.6</ele>
        <time>2015-06-27T04:23:54Z</time>
      </trkpt>
      <trkpt lat="42.23534" lon="8.97499">
        <ele>1560.6</ele>
        <time>2015-06-27T04:24:03Z</time>
      </trkpt>
      <trkpt lat="42.23537" lon="8.97496">
        <ele>1561.2</ele>
        <time>2015-06-27T04:24:10Z</time>
      </trkpt>
      <trkpt lat="42.23541" lon="8.97494">
        <ele>1562.8</ele>
        <time>2015-06-27T04:24:21Z</time>
      </trkpt>
      <trkpt lat="42.23547" lon="8.97491">
        <ele>1564</ele>
        <time>2015-06-27T04:24:35Z</time>
      </trkpt>
      <trkpt lat="42.23552" lon="8.97486">
        <ele>1564.8</ele>
        <time>2015-06-27T04:24:45Z</time>
      </trkpt>
      <trkpt lat="42.23558" lon="8.97484">
        <ele>1565.8</ele>
        <time>2015-06-27T04:24:57Z</time>
      </trkpt>
      <trkpt lat="42.23564" lon="8.97485">
        <ele>1566.8</ele>
        <time>2015-06-27T04:25:07Z</time>
      </trkpt>
      <trkpt lat="42.2357" lon="8.97481">
        <ele>1567.8</ele>
        <time>2015-06-27T04:25:17Z</time>
      </trkpt>
      <trkpt lat="42.23577" lon="8.97481">
        <ele>1569.4</ele>
        <time>2015-06-27T04:25:29Z</time>
      </trkpt>
      <trkpt lat="42.23582" lon="8.97479">
        <ele>1570.4</ele>
        <time>2015-06-27T04:25:39Z</time>
      </trkpt>
      <trkpt lat="42.23586" lon="8.97478">
        <ele>1571.2</ele>
        <time>2015-06-27T04:25:49Z</time>
      </trkpt>
      <trkpt lat="42.2359" lon="8.97477">
        <ele>1572</ele>
        <time>2015-06-27T04:25:56Z</time>
      </trkpt>
      <trkpt lat="42.23592" lon="8.97474">
        <ele>1573.6</ele>
        <time>2015-06-27T04:26:06Z</time>
      </trkpt>
      <trkpt lat="42.23595" lon="8.97471">
        <ele>1574.6</ele>
        <time>2015-06-27T04:26:14Z</time>
      </trkpt>
      <trkpt lat="42.23603" lon="8.97474">
        <ele>1576</ele>
        <time>2015-06-27T04:26:33Z</time>
      </trkpt>
      <trkpt lat="42.23608" lon="8.97475">
        <ele>1577</ele>
        <time>2015-06-27T04:26:43Z</time>
      </trkpt>
      <trkpt lat="42.23615" lon="8.97475">
        <ele>1577.8</ele>
        <time>2015-06-27T04:26:54Z</time>
      </trkpt>
      <trkpt lat="42.23618" lon="8.97472">
        <ele>1579</ele>
        <time>2015-06-27T04:27:02Z</time>
      </trkpt>
      <trkpt lat="42.23621" lon="8.9747">
        <ele>1579.6</ele>
        <time>2015-06-27T04:27:08Z</time>
      </trkpt>
      <trkpt lat="42.23623" lon="8.97464">
        <ele>1581.2</ele>
        <time>2015-06-27T04:27:18Z</time>
      </trkpt>
      <trkpt lat="42.23627" lon="8.97461">
        <ele>1582</ele>
        <time>2015-06-27T04:27:27Z</time>
      </trkpt>
      <trkpt lat="42.2363" lon="8.97458">
        <ele>1583.2</ele>
        <time>2015-06-27T04:27:34Z</time>
      </trkpt>
      <trkpt lat="42.23634" lon="8.97457">
        <ele>1584.4</ele>
        <time>2015-06-27T04:27:42Z</time>
      </trkpt>
      <trkpt lat="42.23637" lon="8.9745">
        <ele>1586</ele>
        <time>2015-06-27T04:27:52Z</time>
      </trkpt>
      <trkpt lat="42.23644" lon="8.97447">
        <ele>1586.8</ele>
        <time>2015-06-27T04:28:02Z</time>
      </trkpt>
      <trkpt lat="42.23648" lon="8.97443">
        <ele>1587.6</ele>
        <time>2015-06-27T04:28:11Z</time>
      </trkpt>
      <trkpt lat="42.23652" lon="8.97436">
        <ele>1588.8</ele>
        <time>2015-06-27T04:28:22Z</time>
      </trkpt>
      <trkpt lat="42.23656" lon="8.97438">
        <ele>1590</ele>
        <time>2015-06-27T04:28:33Z</time>
      </trkpt>
      <trkpt lat="42.23659" lon="8.97438">
        <ele>1591</ele>
        <time>2015-06-27T04:28:40Z</time>
      </trkpt>
      <trkpt lat="42.23663" lon="8.97437">
        <ele>1592</ele>
        <time>2015-06-27T04:28:47Z</time>
      </trkpt>
      <trkpt lat="42.23667" lon="8.97439">
        <ele>1593.2</ele>
        <time>2015-06-27T04:28:56Z</time>
      </trkpt>
      <trkpt lat="42.23673" lon="8.97439">
        <ele>1594.4</ele>
        <time>2015-06-27T04:29:06Z</time>
      </trkpt>
      <trkpt lat="42.23679" lon="8.97436">
        <ele>1595.4</ele>
        <time>2015-06-27T04:29:15Z</time>
      </trkpt>
      <trkpt lat="42.23683" lon="8.9743">
        <ele>1596.6</ele>
        <time>2015-06-27T04:29:25Z</time>
      </trkpt>
      <trkpt lat="42.2369" lon="8.97426">
        <ele>1597.8</ele>
        <time>2015-06-27T04:29:39Z</time>
      </trkpt>
      <trkpt lat="42.23694" lon="8.97425">
        <ele>1598.6</ele>
        <time>2015-06-27T04:29:52Z</time>
      </trkpt>
      <trkpt lat="42.23694" lon="8.97425">
        <ele>1598.8</ele>
        <time>2015-06-27T04:29:57Z</time>
      </trkpt>
      <trkpt lat="42.23704" lon="8.9743">
        <ele>1600.2</ele>
        <time>2015-06-27T04:30:32Z</time>
      </trkpt>
      <trkpt lat="42.23709" lon="8.97432">
        <ele>1600.8</ele>
        <time>2015-06-27T04:30:39Z</time>
      </trkpt>
      <trkpt lat="42.23711" lon="8.97429">
        <ele>1601.4</ele>
        <time>2015-06-27T04:30:44Z</time>
      </trkpt>
      <trkpt lat="42.23715" lon="8.97422">
        <ele>1603</ele>
        <time>2015-06-27T04:30:51Z</time>
      </trkpt>
      <trkpt lat="42.23717" lon="8.97424">
        <ele>1603.2</ele>
        <time>2015-06-27T04:30:54Z</time>
      </trkpt>
      <trkpt lat="42.23718" lon="8.97428">
        <ele>1603.4</ele>
        <time>2015-06-27T04:30:58Z</time>
      </trkpt>
      <trkpt lat="42.23718" lon="8.9743">
        <ele>1603.6</ele>
        <time>2015-06-27T04:31:00Z</time>
      </trkpt>
      <trkpt lat="42.23717" lon="8.97434">
        <ele>1603.8</ele>
        <time>2015-06-27T04:31:04Z</time>
      </trkpt>
      <trkpt lat="42.23717" lon="8.97437">
        <ele>1603.8</ele>
        <time>2015-06-27T04:31:06Z</time>
      </trkpt>
      <trkpt lat="42.23719" lon="8.97439">
        <ele>1604.2</ele>
        <time>2015-06-27T04:31:09Z</time>
      </trkpt>
      <trkpt lat="42.2372" lon="8.97443">
        <ele>1604.4</ele>
        <time>2015-06-27T04:31:13Z</time>
      </trkpt>
      <trkpt lat="42.23719" lon="8.97446">
        <ele>1604.4</ele>
        <time>2015-06-27T04:31:17Z</time>
      </trkpt>
      <trkpt lat="42.23718" lon="8.97452">
        <ele>1605.8</ele>
        <time>2015-06-27T04:31:38Z</time>
      </trkpt>
      <trkpt lat="42.23729" lon="8.97462">
        <ele>1606.2</ele>
        <time>2015-06-27T04:32:14Z</time>
      </trkpt>
      <trkpt lat="42.23733" lon="8.97458">
        <ele>1606</ele>
        <time>2015-06-27T04:34:23Z</time>
      </trkpt>
      <trkpt lat="42.23733" lon="8.9746">
        <ele>1605.6</ele>
        <time>2015-06-27T04:36:17Z</time>
      </trkpt>
      <trkpt lat="42.23738" lon="8.97457">
        <ele>1605.6</ele>
        <time>2015-06-27T04:37:34Z</time>
      </trkpt>
      <trkpt lat="42.23748" lon="8.97449">
        <ele>1605</ele>
        <time>2015-06-27T04:37:47Z</time>
      </trkpt>
      <trkpt lat="42.23758" lon="8.97444">
        <ele>1604.2</ele>
        <time>2015-06-27T04:37:57Z</time>
      </trkpt>
      <trkpt lat="42.23786" lon="8.97417">
        <ele>1603</ele>
        <time>2015-06-27T04:38:30Z</time>
      </trkpt>
      <trkpt lat="42.238" lon="8.97412">
        <ele>1602.8</ele>
        <time>2015-06-27T04:38:43Z</time>
      </trkpt>
      <trkpt lat="42.23829" lon="8.97383">
        <ele>1601.8</ele>
        <time>2015-06-27T04:39:15Z</time>
      </trkpt>
      <trkpt lat="42.23832" lon="8.97382">
        <ele>1601.6</ele>
        <time>2015-06-27T04:39:18Z</time>
      </trkpt>
      <trkpt lat="42.23834" lon="8.97381">
        <ele>1601.6</ele>
        <time>2015-06-27T04:39:20Z</time>
      </trkpt>
      <trkpt lat="42.23868" lon="8.97359">
        <ele>1600.8</ele>
        <time>2015-06-27T04:39:55Z</time>
      </trkpt>
      <trkpt lat="42.23902" lon="8.97329">
        <ele>1601.4</ele>
        <time>2015-06-27T04:40:35Z</time>
      </trkpt>
      <trkpt lat="42.23909" lon="8.97325">
        <ele>1601.2</ele>
        <time>2015-06-27T04:40:41Z</time>
      </trkpt>
      <trkpt lat="42.23945" lon="8.97297">
        <ele>1602</ele>
        <time>2015-06-27T04:41:33Z</time>
      </trkpt>
      <trkpt lat="42.23954" lon="8.97292">
        <ele>1602.2</ele>
        <time>2015-06-27T04:41:42Z</time>
      </trkpt>
      <trkpt lat="42.23955" lon="8.9729">
        <ele>1602.4</ele>
        <time>2015-06-27T04:41:44Z</time>
      </trkpt>
      <trkpt lat="42.23985" lon="8.97256">
        <ele>1603</ele>
        <time>2015-06-27T04:42:26Z</time>
      </trkpt>
      <trkpt lat="42.23985" lon="8.97253">
        <ele>1603.2</ele>
        <time>2015-06-27T04:42:29Z</time>
      </trkpt>
      <trkpt lat="42.24016" lon="8.97208">
        <ele>1603.6</ele>
        <time>2015-06-27T04:43:15Z</time>
      </trkpt>
      <trkpt lat="42.24027" lon="8.97196">
        <ele>1603</ele>
        <time>2015-06-27T04:43:31Z</time>
      </trkpt>
      <trkpt lat="42.24041" lon="8.97178">
        <ele>1602</ele>
        <time>2015-06-27T04:43:53Z</time>
      </trkpt>
      <trkpt lat="42.24046" lon="8.97172">
        <ele>1601.2</ele>
        <time>2015-06-27T04:44:01Z</time>
      </trkpt>
      <trkpt lat="42.24078" lon="8.97128">
        <ele>1601</ele>
        <time>2015-06-27T04:44:53Z</time>
      </trkpt>
      <trkpt lat="42.24091" lon="8.97116">
        <ele>1601.4</ele>
        <time>2015-06-27T04:45:10Z</time>
      </trkpt>
      <trkpt lat="42.24101" lon="8.97104">
        <ele>1602.2</ele>
        <time>2015-06-27T04:45:26Z</time>
      </trkpt>
      <trkpt lat="42.24106" lon="8.971">
        <ele>1602.6</ele>
        <time>2015-06-27T04:45:31Z</time>
      </trkpt>
      <trkpt lat="42.24116" lon="8.97093">
        <ele>1603.6</ele>
        <time>2015-06-27T04:45:43Z</time>
      </trkpt>
      <trkpt lat="42.24119" lon="8.97089">
        <ele>1604</ele>
        <time>2015-06-27T04:45:48Z</time>
      </trkpt>
      <trkpt lat="42.2415" lon="8.97046">
        <ele>1603.8</ele>
        <time>2015-06-27T04:46:34Z</time>
      </trkpt>
      <trkpt lat="42.24164" lon="8.97028">
        <ele>1604.6</ele>
        <time>2015-06-27T04:46:57Z</time>
      </trkpt>
      <trkpt lat="42.24178" lon="8.97019">
        <ele>1604.8</ele>
        <time>2015-06-27T04:47:14Z</time>
      </trkpt>
      <trkpt lat="42.24203" lon="8.96969">
        <ele>1605.8</ele>
        <time>2015-06-27T04:48:01Z</time>
      </trkpt>
      <trkpt lat="42.24205" lon="8.96963">
        <ele>1605.2</ele>
        <time>2015-06-27T04:48:06Z</time>
      </trkpt>
      <trkpt lat="42.24206" lon="8.96961">
        <ele>1605</ele>
        <time>2015-06-27T04:48:08Z</time>
      </trkpt>
      <trkpt lat="42.24213" lon="8.96948">
        <ele>1603.8</ele>
        <time>2015-06-27T04:48:21Z</time>
      </trkpt>
      <trkpt lat="42.24224" lon="8.9693">
        <ele>1602.6</ele>
        <time>2015-06-27T04:48:37Z</time>
      </trkpt>
      <trkpt lat="42.24229" lon="8.96914">
        <ele>1601.4</ele>
        <time>2015-06-27T04:48:50Z</time>
      </trkpt>
      <trkpt lat="42.24236" lon="8.969">
        <ele>1603</ele>
        <time>2015-06-27T04:49:17Z</time>
      </trkpt>
      <trkpt lat="42.24248" lon="8.96877">
        <ele>1603</ele>
        <time>2015-06-27T04:49:45Z</time>
      </trkpt>
      <trkpt lat="42.24257" lon="8.96869">
        <ele>1602.6</ele>
        <time>2015-06-27T04:49:56Z</time>
      </trkpt>
      <trkpt lat="42.24274" lon="8.96845">
        <ele>1601.4</ele>
        <time>2015-06-27T04:50:24Z</time>
      </trkpt>
      <trkpt lat="42.24296" lon="8.96816">
        <ele>1601.6</ele>
        <time>2015-06-27T04:51:05Z</time>
      </trkpt>
      <trkpt lat="42.24308" lon="8.96815">
        <ele>1602</ele>
        <time>2015-06-27T04:51:20Z</time>
      </trkpt>
      <trkpt lat="42.2431" lon="8.96814">
        <ele>1602</ele>
        <time>2015-06-27T04:51:22Z</time>
      </trkpt>
      <trkpt lat="42.24321" lon="8.96802">
        <ele>1602.4</ele>
        <time>2015-06-27T04:51:40Z</time>
      </trkpt>
      <trkpt lat="42.24343" lon="8.96778">
        <ele>1603.4</ele>
        <time>2015-06-27T04:52:06Z</time>
      </trkpt>
      <trkpt lat="42.24345" lon="8.96773">
        <ele>1603.4</ele>
        <time>2015-06-27T04:52:10Z</time>
      </trkpt>
      <trkpt lat="42.24351" lon="8.96764">
        <ele>1603.6</ele>
        <time>2015-06-27T04:52:17Z</time>
      </trkpt>
      <trkpt lat="42.24352" lon="8.96761">
        <ele>1603.6</ele>
        <time>2015-06-27T04:52:19Z</time>
      </trkpt>
      <trkpt lat="42.24354" lon="8.96759">
        <ele>1603.6</ele>
        <time>2015-06-27T04:52:21Z</time>
      </trkpt>
      <trkpt lat="42.24358" lon="8.96752">
        <ele>1603.4</ele>
        <time>2015-06-27T04:52:27Z</time>
      </trkpt>
      <trkpt lat="42.24361" lon="8.96748">
        <ele>1603.4</ele>
        <time>2015-06-27T04:52:30Z</time>
      </trkpt>
      <trkpt lat="42.24365" lon="8.9674">
        <ele>1603.6</ele>
        <time>2015-06-27T04:52:37Z</time>
      </trkpt>
      <trkpt lat="42.24367" lon="8.96727">
        <ele>1603.8</ele>
        <time>2015-06-27T04:52:45Z</time>
      </trkpt>
      <trkpt lat="42.24371" lon="8.96722">
        <ele>1603.8</ele>
        <time>2015-06-27T04:52:50Z</time>
      </trkpt>
      <trkpt lat="42.24374" lon="8.96717">
        <ele>1603.8</ele>
        <time>2015-06-27T04:52:55Z</time>
      </trkpt>
      <trkpt lat="42.24377" lon="8.96712">
        <ele>1603.8</ele>
        <time>2015-06-27T04:52:59Z</time>
      </trkpt>
      <trkpt lat="42.244" lon="8.96683">
        <ele>1603.6</ele>
        <time>2015-06-27T04:53:30Z</time>
      </trkpt>
      <trkpt lat="42.24411" lon="8.96663">
        <ele>1603.8</ele>
        <time>2015-06-27T04:53:47Z</time>
      </trkpt>
      <trkpt lat="42.24415" lon="8.96658">
        <ele>1604</ele>
        <time>2015-06-27T04:53:52Z</time>
      </trkpt>
      <trkpt lat="42.24417" lon="8.96653">
        <ele>1604</ele>
        <time>2015-06-27T04:53:56Z</time>
      </trkpt>
      <trkpt lat="42.24425" lon="8.96647">
        <ele>1603.8</ele>
        <time>2015-06-27T04:54:04Z</time>
      </trkpt>
      <trkpt lat="42.24429" lon="8.96644">
        <ele>1603.8</ele>
        <time>2015-06-27T04:54:08Z</time>
      </trkpt>
      <trkpt lat="42.2443" lon="8.96642">
        <ele>1604</ele>
        <time>2015-06-27T04:54:10Z</time>
      </trkpt>
      <trkpt lat="42.24431" lon="8.96642">
        <ele>1603.6</ele>
        <time>2015-06-27T04:54:11Z</time>
      </trkpt>
      <trkpt lat="42.24434" lon="8.96638">
        <ele>1603.6</ele>
        <time>2015-06-27T04:54:16Z</time>
      </trkpt>
      <trkpt lat="42.24461" lon="8.96595">
        <ele>1604.4</ele>
        <time>2015-06-27T04:55:04Z</time>
      </trkpt>
      <trkpt lat="42.24474" lon="8.96585">
        <ele>1604.2</ele>
        <time>2015-06-27T04:55:16Z</time>
      </trkpt>
      <trkpt lat="42.24504" lon="8.96563">
        <ele>1605.2</ele>
        <time>2015-06-27T04:55:50Z</time>
      </trkpt>
      <trkpt lat="42.24505" lon="8.96562">
        <ele>1605.2</ele>
        <time>2015-06-27T04:55:51Z</time>
      </trkpt>
      <trkpt lat="42.24517" lon="8.96552">
        <ele>1606.2</ele>
        <time>2015-06-27T04:56:06Z</time>
      </trkpt>
      <trkpt lat="42.24542" lon="8.96518">
        <ele>1607.2</ele>
        <time>2015-06-27T04:56:38Z</time>
      </trkpt>
      <trkpt lat="42.24548" lon="8.96477">
        <ele>1608</ele>
        <time>2015-06-27T04:57:19Z</time>
      </trkpt>
      <trkpt lat="42.24562" lon="8.96454">
        <ele>1609.2</ele>
        <time>2015-06-27T04:57:43Z</time>
      </trkpt>
      <trkpt lat="42.24564" lon="8.96448">
        <ele>1609.6</ele>
        <time>2015-06-27T04:57:50Z</time>
      </trkpt>
      <trkpt lat="42.24568" lon="8.96442">
        <ele>1610.8</ele>
        <time>2015-06-27T04:57:58Z</time>
      </trkpt>
      <trkpt lat="42.24574" lon="8.96433">
        <ele>1611.8</ele>
        <time>2015-06-27T04:58:07Z</time>
      </trkpt>
      <trkpt lat="42.24579" lon="8.96422">
        <ele>1613</ele>
        <time>2015-06-27T04:58:18Z</time>
      </trkpt>
      <trkpt lat="42.24598" lon="8.96406">
        <ele>1614.2</ele>
        <time>2015-06-27T04:58:39Z</time>
      </trkpt>
      <trkpt lat="42.24619" lon="8.96386">
        <ele>1615.6</ele>
        <time>2015-06-27T04:59:11Z</time>
      </trkpt>
      <trkpt lat="42.24622" lon="8.96383">
        <ele>1615.8</ele>
        <time>2015-06-27T04:59:16Z</time>
      </trkpt>
      <trkpt lat="42.24623" lon="8.96379">
        <ele>1616</ele>
        <time>2015-06-27T04:59:21Z</time>
      </trkpt>
      <trkpt lat="42.24621" lon="8.96371">
        <ele>1617.2</ele>
        <time>2015-06-27T04:59:29Z</time>
      </trkpt>
      <trkpt lat="42.24626" lon="8.96362">
        <ele>1618.6</ele>
        <time>2015-06-27T04:59:40Z</time>
      </trkpt>
      <trkpt lat="42.24634" lon="8.96345">
        <ele>1619.6</ele>
        <time>2015-06-27T04:59:57Z</time>
      </trkpt>
      <trkpt lat="42.24641" lon="8.96333">
        <ele>1620.6</ele>
        <time>2015-06-27T05:00:10Z</time>
      </trkpt>
      <trkpt lat="42.2465" lon="8.96306">
        <ele>1622</ele>
        <time>2015-06-27T05:00:32Z</time>
      </trkpt>
      <trkpt lat="42.2466" lon="8.9629">
        <ele>1622.6</ele>
        <time>2015-06-27T05:00:50Z</time>
      </trkpt>
      <trkpt lat="42.24671" lon="8.96284">
        <ele>1623.6</ele>
        <time>2015-06-27T05:01:05Z</time>
      </trkpt>
      <trkpt lat="42.24676" lon="8.96287">
        <ele>1624.6</ele>
        <time>2015-06-27T05:01:15Z</time>
      </trkpt>
      <trkpt lat="42.24682" lon="8.96288">
        <ele>1625.4</ele>
        <time>2015-06-27T05:01:23Z</time>
      </trkpt>
      <trkpt lat="42.24689" lon="8.96285">
        <ele>1626.8</ele>
        <time>2015-06-27T05:01:32Z</time>
      </trkpt>
      <trkpt lat="42.24693" lon="8.96282">
        <ele>1627.2</ele>
        <time>2015-06-27T05:01:37Z</time>
      </trkpt>
      <trkpt lat="42.24694" lon="8.9628">
        <ele>1627.4</ele>
        <time>2015-06-27T05:01:40Z</time>
      </trkpt>
      <trkpt lat="42.24703" lon="8.96268">
        <ele>1629</ele>
        <time>2015-06-27T05:02:00Z</time>
      </trkpt>
      <trkpt lat="42.24715" lon="8.96258">
        <ele>1629.6</ele>
        <time>2015-06-27T05:02:18Z</time>
      </trkpt>
      <trkpt lat="42.24726" lon="8.96263">
        <ele>1630.8</ele>
        <time>2015-06-27T05:02:33Z</time>
      </trkpt>
      <trkpt lat="42.24735" lon="8.9626">
        <ele>1631.8</ele>
        <time>2015-06-27T05:02:46Z</time>
      </trkpt>
      <trkpt lat="42.24749" lon="8.96247">
        <ele>1633.2</ele>
        <time>2015-06-27T05:03:05Z</time>
      </trkpt>
      <trkpt lat="42.24757" lon="8.96234">
        <ele>1634.2</ele>
        <time>2015-06-27T05:03:23Z</time>
      </trkpt>
      <trkpt lat="42.24763" lon="8.96229">
        <ele>1635</ele>
        <time>2015-06-27T05:03:34Z</time>
      </trkpt>
      <trkpt lat="42.24767" lon="8.96225">
        <ele>1635.6</ele>
        <time>2015-06-27T05:03:42Z</time>
      </trkpt>
      <trkpt lat="42.24775" lon="8.96225">
        <ele>1637.2</ele>
        <time>2015-06-27T05:03:54Z</time>
      </trkpt>
      <trkpt lat="42.24779" lon="8.9622">
        <ele>1638</ele>
        <time>2015-06-27T05:04:03Z</time>
      </trkpt>
      <trkpt lat="42.24781" lon="8.96216">
        <ele>1638.8</ele>
        <time>2015-06-27T05:04:10Z</time>
      </trkpt>
      <trkpt lat="42.24784" lon="8.96217">
        <ele>1639.4</ele>
        <time>2015-06-27T05:04:15Z</time>
      </trkpt>
      <trkpt lat="42.24787" lon="8.96221">
        <ele>1640.4</ele>
        <time>2015-06-27T05:04:22Z</time>
      </trkpt>
      <trkpt lat="42.24792" lon="8.96221">
        <ele>1640.8</ele>
        <time>2015-06-27T05:04:30Z</time>
      </trkpt>
      <trkpt lat="42.24796" lon="8.96222">
        <ele>1642.2</ele>
        <time>2015-06-27T05:04:40Z</time>
      </trkpt>
      <trkpt lat="42.24798" lon="8.96217">
        <ele>1643.2</ele>
        <time>2015-06-27T05:04:47Z</time>
      </trkpt>
      <trkpt lat="42.248" lon="8.96212">
        <ele>1644.4</ele>
        <time>2015-06-27T05:04:56Z</time>
      </trkpt>
      <trkpt lat="42.24802" lon="8.96208">
        <ele>1645</ele>
        <time>2015-06-27T05:05:03Z</time>
      </trkpt>
      <trkpt lat="42.24803" lon="8.96204">
        <ele>1645.8</ele>
        <time>2015-06-27T05:05:08Z</time>
      </trkpt>
      <trkpt lat="42.24808" lon="8.96203">
        <ele>1647.2</ele>
        <time>2015-06-27T05:05:19Z</time>
      </trkpt>
      <trkpt lat="42.24812" lon="8.96202">
        <ele>1647.8</ele>
        <time>2015-06-27T05:05:26Z</time>
      </trkpt>
      <trkpt lat="42.24815" lon="8.96193">
        <ele>1648.8</ele>
        <time>2015-06-27T05:05:37Z</time>
      </trkpt>
      <trkpt lat="42.2482" lon="8.96184">
        <ele>1649.8</ele>
        <time>2015-06-27T05:05:50Z</time>
      </trkpt>
      <trkpt lat="42.24825" lon="8.96177">
        <ele>1650.4</ele>
        <time>2015-06-27T05:06:04Z</time>
      </trkpt>
      <trkpt lat="42.24829" lon="8.96174">
        <ele>1651.4</ele>
        <time>2015-06-27T05:06:13Z</time>
      </trkpt>
      <trkpt lat="42.24832" lon="8.96173">
        <ele>1652.2</ele>
        <time>2015-06-27T05:06:19Z</time>
      </trkpt>
      <trkpt lat="42.24848" lon="8.96175">
        <ele>1654.4</ele>
        <time>2015-06-27T05:06:41Z</time>
      </trkpt>
      <trkpt lat="42.24856" lon="8.96173">
        <ele>1654.6</ele>
        <time>2015-06-27T05:06:55Z</time>
      </trkpt>
      <trkpt lat="42.24861" lon="8.96174">
        <ele>1655.6</ele>
        <time>2015-06-27T05:07:04Z</time>
      </trkpt>
      <trkpt lat="42.24865" lon="8.96176">
        <ele>1656.4</ele>
        <time>2015-06-27T05:07:11Z</time>
      </trkpt>
      <trkpt lat="42.24871" lon="8.96175">
        <ele>1657.6</ele>
        <time>2015-06-27T05:07:20Z</time>
      </trkpt>
      <trkpt lat="42.24877" lon="8.96176">
        <ele>1658.8</ele>
        <time>2015-06-27T05:07:30Z</time>
      </trkpt>
      <trkpt lat="42.24882" lon="8.96176">
        <ele>1659.6</ele>
        <time>2015-06-27T05:07:38Z</time>
      </trkpt>
      <trkpt lat="42.24888" lon="8.96175">
        <ele>1661</ele>
        <time>2015-06-27T05:07:50Z</time>
      </trkpt>
      <trkpt lat="42.24898" lon="8.96175">
        <ele>1662.2</ele>
        <time>2015-06-27T05:08:05Z</time>
      </trkpt>
      <trkpt lat="42.24902" lon="8.96184">
        <ele>1662.4</ele>
        <time>2015-06-27T05:08:13Z</time>
      </trkpt>
      <trkpt lat="42.2491" lon="8.96188">
        <ele>1662.6</ele>
        <time>2015-06-27T05:08:31Z</time>
      </trkpt>
      <trkpt lat="42.24914" lon="8.96191">
        <ele>1663.2</ele>
        <time>2015-06-27T05:08:36Z</time>
      </trkpt>
      <trkpt lat="42.24916" lon="8.96192">
        <ele>1664</ele>
        <time>2015-06-27T05:08:42Z</time>
      </trkpt>
      <trkpt lat="42.2492" lon="8.96192">
        <ele>1664.8</ele>
        <time>2015-06-27T05:08:50Z</time>
      </trkpt>
      <trkpt lat="42.24925" lon="8.96188">
        <ele>1665.6</ele>
        <time>2015-06-27T05:08:57Z</time>
      </trkpt>
      <trkpt lat="42.24933" lon="8.96186">
        <ele>1667.4</ele>
        <time>2015-06-27T05:09:10Z</time>
      </trkpt>
      <trkpt lat="42.24938" lon="8.96186">
        <ele>1668.2</ele>
        <time>2015-06-27T05:09:19Z</time>
      </trkpt>
      <trkpt lat="42.24941" lon="8.96185">
        <ele>1669</ele>
        <time>2015-06-27T05:09:26Z</time>
      </trkpt>
      <trkpt lat="42.24946" lon="8.96186">
        <ele>1670.2</ele>
        <time>2015-06-27T05:09:35Z</time>
      </trkpt>
      <trkpt lat="42.24952" lon="8.96194">
        <ele>1671.6</ele>
        <time>2015-06-27T05:09:46Z</time>
      </trkpt>
      <trkpt lat="42.24956" lon="8.96205">
        <ele>1672.6</ele>
        <time>2015-06-27T05:10:01Z</time>
      </trkpt>
      <trkpt lat="42.24961" lon="8.96208">
        <ele>1673.4</ele>
        <time>2015-06-27T05:10:11Z</time>
      </trkpt>
      <trkpt lat="42.24966" lon="8.96212">
        <ele>1674.4</ele>
        <time>2015-06-27T05:10:20Z</time>
      </trkpt>
      <trkpt lat="42.2497" lon="8.96211">
        <ele>1675.2</ele>
        <time>2015-06-27T05:10:28Z</time>
      </trkpt>
      <trkpt lat="42.24975" lon="8.96216">
        <ele>1676.4</ele>
        <time>2015-06-27T05:10:39Z</time>
      </trkpt>
      <trkpt lat="42.24978" lon="8.96212">
        <ele>1677.6</ele>
        <time>2015-06-27T05:10:49Z</time>
      </trkpt>
      <trkpt lat="42.24984" lon="8.9621">
        <ele>1678.6</ele>
        <time>2015-06-27T05:10:59Z</time>
      </trkpt>
      <trkpt lat="42.24985" lon="8.96211">
        <ele>1678.8</ele>
        <time>2015-06-27T05:11:02Z</time>
      </trkpt>
      <trkpt lat="42.24989" lon="8.96208">
        <ele>1679.4</ele>
        <time>2015-06-27T05:11:10Z</time>
      </trkpt>
      <trkpt lat="42.24993" lon="8.96208">
        <ele>1680.6</ele>
        <time>2015-06-27T05:11:17Z</time>
      </trkpt>
      <trkpt lat="42.25001" lon="8.9621">
        <ele>1682</ele>
        <time>2015-06-27T05:11:30Z</time>
      </trkpt>
      <trkpt lat="42.25006" lon="8.96211">
        <ele>1683</ele>
        <time>2015-06-27T05:11:40Z</time>
      </trkpt>
      <trkpt lat="42.25009" lon="8.96213">
        <ele>1683.6</ele>
        <time>2015-06-27T05:11:47Z</time>
      </trkpt>
      <trkpt lat="42.25014" lon="8.9621">
        <ele>1685.2</ele>
        <time>2015-06-27T05:11:56Z</time>
      </trkpt>
      <trkpt lat="42.25017" lon="8.96209">
        <ele>1685.8</ele>
        <time>2015-06-27T05:12:02Z</time>
      </trkpt>
      <trkpt lat="42.25023" lon="8.96203">
        <ele>1687.2</ele>
        <time>2015-06-27T05:12:16Z</time>
      </trkpt>
      <trkpt lat="42.25027" lon="8.96201">
        <ele>1688.4</ele>
        <time>2015-06-27T05:12:26Z</time>
      </trkpt>
      <trkpt lat="42.2503" lon="8.96194">
        <ele>1689.2</ele>
        <time>2015-06-27T05:12:34Z</time>
      </trkpt>
      <trkpt lat="42.25031" lon="8.96186">
        <ele>1690.6</ele>
        <time>2015-06-27T05:12:42Z</time>
      </trkpt>
      <trkpt lat="42.25037" lon="8.96177">
        <ele>1692</ele>
        <time>2015-06-27T05:12:55Z</time>
      </trkpt>
      <trkpt lat="42.25043" lon="8.96172">
        <ele>1692.8</ele>
        <time>2015-06-27T05:13:07Z</time>
      </trkpt>
      <trkpt lat="42.25047" lon="8.96171">
        <ele>1693.8</ele>
        <time>2015-06-27T05:13:16Z</time>
      </trkpt>
      <trkpt lat="42.25051" lon="8.96171">
        <ele>1694.6</ele>
        <time>2015-06-27T05:13:23Z</time>
      </trkpt>
      <trkpt lat="42.25055" lon="8.96169">
        <ele>1695.6</ele>
        <time>2015-06-27T05:13:29Z</time>
      </trkpt>
      <trkpt lat="42.25062" lon="8.96168">
        <ele>1697.2</ele>
        <time>2015-06-27T05:13:42Z</time>
      </trkpt>
      <trkpt lat="42.25068" lon="8.96168">
        <ele>1697.8</ele>
        <time>2015-06-27T05:13:52Z</time>
      </trkpt>
      <trkpt lat="42.2507" lon="8.96166">
        <ele>1698.4</ele>
        <time>2015-06-27T05:13:56Z</time>
      </trkpt>
      <trkpt lat="42.25072" lon="8.96161">
        <ele>1700</ele>
        <time>2015-06-27T05:14:03Z</time>
      </trkpt>
      <trkpt lat="42.25077" lon="8.96154">
        <ele>1701.2</ele>
        <time>2015-06-27T05:14:16Z</time>
      </trkpt>
      <trkpt lat="42.25084" lon="8.9615">
        <ele>1702</ele>
        <time>2015-06-27T05:14:27Z</time>
      </trkpt>
      <trkpt lat="42.25086" lon="8.96144">
        <ele>1703.2</ele>
        <time>2015-06-27T05:14:36Z</time>
      </trkpt>
      <trkpt lat="42.25088" lon="8.9614">
        <ele>1704</ele>
        <time>2015-06-27T05:14:44Z</time>
      </trkpt>
      <trkpt lat="42.25089" lon="8.96133">
        <ele>1705.2</ele>
        <time>2015-06-27T05:14:52Z</time>
      </trkpt>
      <trkpt lat="42.25092" lon="8.9613">
        <ele>1706</ele>
        <time>2015-06-27T05:15:00Z</time>
      </trkpt>
      <trkpt lat="42.25094" lon="8.96125">
        <ele>1707.4</ele>
        <time>2015-06-27T05:15:09Z</time>
      </trkpt>
      <trkpt lat="42.25095" lon="8.96119">
        <ele>1708</ele>
        <time>2015-06-27T05:15:17Z</time>
      </trkpt>
      <trkpt lat="42.25099" lon="8.96115">
        <ele>1709</ele>
        <time>2015-06-27T05:15:26Z</time>
      </trkpt>
      <trkpt lat="42.251" lon="8.96109">
        <ele>1710</ele>
        <time>2015-06-27T05:15:34Z</time>
      </trkpt>
      <trkpt lat="42.25105" lon="8.96104">
        <ele>1711</ele>
        <time>2015-06-27T05:15:44Z</time>
      </trkpt>
      <trkpt lat="42.25112" lon="8.96098">
        <ele>1712.2</ele>
        <time>2015-06-27T05:15:54Z</time>
      </trkpt>
      <trkpt lat="42.25124" lon="8.96072">
        <ele>1713.4</ele>
        <time>2015-06-27T05:16:20Z</time>
      </trkpt>
      <trkpt lat="42.25128" lon="8.96061">
        <ele>1714.4</ele>
        <time>2015-06-27T05:16:33Z</time>
      </trkpt>
      <trkpt lat="42.25131" lon="8.96054">
        <ele>1715.2</ele>
        <time>2015-06-27T05:16:42Z</time>
      </trkpt>
      <trkpt lat="42.25134" lon="8.96045">
        <ele>1716.2</ele>
        <time>2015-06-27T05:16:52Z</time>
      </trkpt>
      <trkpt lat="42.25139" lon="8.96035">
        <ele>1717</ele>
        <time>2015-06-27T05:17:05Z</time>
      </trkpt>
      <trkpt lat="42.25143" lon="8.96027">
        <ele>1718</ele>
        <time>2015-06-27T05:17:16Z</time>
      </trkpt>
      <trkpt lat="42.25146" lon="8.96022">
        <ele>1718.8</ele>
        <time>2015-06-27T05:17:24Z</time>
      </trkpt>
      <trkpt lat="42.25154" lon="8.96018">
        <ele>1720.2</ele>
        <time>2015-06-27T05:17:36Z</time>
      </trkpt>
      <trkpt lat="42.25159" lon="8.96016">
        <ele>1720.8</ele>
        <time>2015-06-27T05:17:44Z</time>
      </trkpt>
      <trkpt lat="42.2516" lon="8.96016">
        <ele>1722.2</ele>
        <time>2015-06-27T05:17:57Z</time>
      </trkpt>
      <trkpt lat="42.25157" lon="8.96019">
        <ele>1722.4</ele>
        <time>2015-06-27T05:21:22Z</time>
      </trkpt>
      <trkpt lat="42.25178" lon="8.95997">
        <ele>1723.2</ele>
        <time>2015-06-27T05:22:28Z</time>
      </trkpt>
      <trkpt lat="42.25179" lon="8.95996">
        <ele>1723.2</ele>
        <time>2015-06-27T05:22:29Z</time>
      </trkpt>
      <trkpt lat="42.25215" lon="8.9596">
        <ele>1723.2</ele>
        <time>2015-06-27T05:23:13Z</time>
      </trkpt>
      <trkpt lat="42.2524" lon="8.95933">
        <ele>1723.6</ele>
        <time>2015-06-27T05:23:45Z</time>
      </trkpt>
      <trkpt lat="42.25252" lon="8.9592">
        <ele>1724.8</ele>
        <time>2015-06-27T05:24:02Z</time>
      </trkpt>
      <trkpt lat="42.25262" lon="8.9591">
        <ele>1725.6</ele>
        <time>2015-06-27T05:24:17Z</time>
      </trkpt>
      <trkpt lat="42.25268" lon="8.95901">
        <ele>1726.4</ele>
        <time>2015-06-27T05:24:28Z</time>
      </trkpt>
      <trkpt lat="42.25268" lon="8.95899">
        <ele>1726.4</ele>
        <time>2015-06-27T05:24:29Z</time>
      </trkpt>
      <trkpt lat="42.25272" lon="8.95891">
        <ele>1727.4</ele>
        <time>2015-06-27T05:24:37Z</time>
      </trkpt>
      <trkpt lat="42.25278" lon="8.95879">
        <ele>1728.6</ele>
        <time>2015-06-27T05:24:49Z</time>
      </trkpt>
      <trkpt lat="42.25287" lon="8.95855">
        <ele>1729.8</ele>
        <time>2015-06-27T05:25:09Z</time>
      </trkpt>
      <trkpt lat="42.25301" lon="8.95836">
        <ele>1729.6</ele>
        <time>2015-06-27T05:25:28Z</time>
      </trkpt>
      <trkpt lat="42.25302" lon="8.95834">
        <ele>1729.4</ele>
        <time>2015-06-27T05:25:29Z</time>
      </trkpt>
      <trkpt lat="42.25305" lon="8.95828">
        <ele>1729</ele>
        <time>2015-06-27T05:25:34Z</time>
      </trkpt>
      <trkpt lat="42.25313" lon="8.95813">
        <ele>1729</ele>
        <time>2015-06-27T05:25:46Z</time>
      </trkpt>
      <trkpt lat="42.25314" lon="8.9581">
        <ele>1728.8</ele>
        <time>2015-06-27T05:25:48Z</time>
      </trkpt>
      <trkpt lat="42.25316" lon="8.95807">
        <ele>1728.8</ele>
        <time>2015-06-27T05:25:51Z</time>
      </trkpt>
      <trkpt lat="42.25328" lon="8.95793">
        <ele>1728.6</ele>
        <time>2015-06-27T05:26:05Z</time>
      </trkpt>
      <trkpt lat="42.25363" lon="8.95756">
        <ele>1728.4</ele>
        <time>2015-06-27T05:26:45Z</time>
      </trkpt>
      <trkpt lat="42.25372" lon="8.95749">
        <ele>1728.2</ele>
        <time>2015-06-27T05:26:55Z</time>
      </trkpt>
      <trkpt lat="42.25374" lon="8.9575">
        <ele>1728</ele>
        <time>2015-06-27T05:26:57Z</time>
      </trkpt>
      <trkpt lat="42.25376" lon="8.9575">
        <ele>1728</ele>
        <time>2015-06-27T05:26:59Z</time>
      </trkpt>
      <trkpt lat="42.25378" lon="8.95751">
        <ele>1727.8</ele>
        <time>2015-06-27T05:27:01Z</time>
      </trkpt>
      <trkpt lat="42.25379" lon="8.95751">
        <ele>1727.8</ele>
        <time>2015-06-27T05:27:02Z</time>
      </trkpt>
      <trkpt lat="42.25381" lon="8.95753">
        <ele>1727.8</ele>
        <time>2015-06-27T05:27:04Z</time>
      </trkpt>
      <trkpt lat="42.25386" lon="8.9575">
        <ele>1726.8</ele>
        <time>2015-06-27T05:27:13Z</time>
      </trkpt>
      <trkpt lat="42.25387" lon="8.95746">
        <ele>1726.6</ele>
        <time>2015-06-27T05:27:18Z</time>
      </trkpt>
      <trkpt lat="42.25398" lon="8.9575">
        <ele>1726.8</ele>
        <time>2015-06-27T05:27:51Z</time>
      </trkpt>
      <trkpt lat="42.25412" lon="8.95749">
        <ele>1728.2</ele>
        <time>2015-06-27T05:28:22Z</time>
      </trkpt>
      <trkpt lat="42.2542" lon="8.95747">
        <ele>1728.6</ele>
        <time>2015-06-27T05:28:31Z</time>
      </trkpt>
      <trkpt lat="42.25421" lon="8.95747">
        <ele>1728.8</ele>
        <time>2015-06-27T05:28:33Z</time>
      </trkpt>
      <trkpt lat="42.25425" lon="8.95747">
        <ele>1728.8</ele>
        <time>2015-06-27T05:28:37Z</time>
      </trkpt>
      <trkpt lat="42.25435" lon="8.95741">
        <ele>1729.8</ele>
        <time>2015-06-27T05:28:49Z</time>
      </trkpt>
      <trkpt lat="42.25447" lon="8.95736">
        <ele>1731.2</ele>
        <time>2015-06-27T05:29:07Z</time>
      </trkpt>
      <trkpt lat="42.25467" lon="8.95761">
        <ele>1732</ele>
        <time>2015-06-27T05:29:31Z</time>
      </trkpt>
      <trkpt lat="42.25471" lon="8.95766">
        <ele>1732</ele>
        <time>2015-06-27T05:29:36Z</time>
      </trkpt>
      <trkpt lat="42.25477" lon="8.95766">
        <ele>1731.8</ele>
        <time>2015-06-27T05:29:43Z</time>
      </trkpt>
      <trkpt lat="42.25479" lon="8.95768">
        <ele>1732</ele>
        <time>2015-06-27T05:29:45Z</time>
      </trkpt>
      <trkpt lat="42.25483" lon="8.95786">
        <ele>1731.8</ele>
        <time>2015-06-27T05:29:58Z</time>
      </trkpt>
      <trkpt lat="42.25481" lon="8.95805">
        <ele>1731.6</ele>
        <time>2015-06-27T05:30:13Z</time>
      </trkpt>
      <trkpt lat="42.25482" lon="8.95806">
        <ele>1732</ele>
        <time>2015-06-27T05:30:17Z</time>
      </trkpt>
      <trkpt lat="42.25494" lon="8.95815">
        <ele>1733.2</ele>
        <time>2015-06-27T05:30:30Z</time>
      </trkpt>
      <trkpt lat="42.25501" lon="8.95819">
        <ele>1733.8</ele>
        <time>2015-06-27T05:30:38Z</time>
      </trkpt>
      <trkpt lat="42.25512" lon="8.95828">
        <ele>1735.2</ele>
        <time>2015-06-27T05:30:49Z</time>
      </trkpt>
      <trkpt lat="42.25512" lon="8.95829">
        <ele>1735.2</ele>
        <time>2015-06-27T05:30:50Z</time>
      </trkpt>
      <trkpt lat="42.25518" lon="8.95838">
        <ele>1736</ele>
        <time>2015-06-27T05:31:01Z</time>
      </trkpt>
      <trkpt lat="42.25527" lon="8.9584">
        <ele>1737.4</ele>
        <time>2015-06-27T05:31:11Z</time>
      </trkpt>
      <trkpt lat="42.25535" lon="8.9584">
        <ele>1738</ele>
        <time>2015-06-27T05:31:21Z</time>
      </trkpt>
      <trkpt lat="42.25541" lon="8.95846">
        <ele>1739.4</ele>
        <time>2015-06-27T05:31:29Z</time>
      </trkpt>
      <trkpt lat="42.25551" lon="8.95855">
        <ele>1740.6</ele>
        <time>2015-06-27T05:31:42Z</time>
      </trkpt>
      <trkpt lat="42.25556" lon="8.95855">
        <ele>1740.8</ele>
        <time>2015-06-27T05:31:47Z</time>
      </trkpt>
      <trkpt lat="42.2556" lon="8.95857">
        <ele>1741.4</ele>
        <time>2015-06-27T05:31:53Z</time>
      </trkpt>
      <trkpt lat="42.25567" lon="8.95862">
        <ele>1742.4</ele>
        <time>2015-06-27T05:32:03Z</time>
      </trkpt>
      <trkpt lat="42.25576" lon="8.95857">
        <ele>1743.2</ele>
        <time>2015-06-27T05:32:15Z</time>
      </trkpt>
      <trkpt lat="42.25582" lon="8.95862">
        <ele>1743.8</ele>
        <time>2015-06-27T05:32:24Z</time>
      </trkpt>
      <trkpt lat="42.25596" lon="8.95848">
        <ele>1745</ele>
        <time>2015-06-27T05:32:42Z</time>
      </trkpt>
      <trkpt lat="42.25602" lon="8.9584">
        <ele>1745.2</ele>
        <time>2015-06-27T05:32:52Z</time>
      </trkpt>
      <trkpt lat="42.25625" lon="8.95822">
        <ele>1745.8</ele>
        <time>2015-06-27T05:33:24Z</time>
      </trkpt>
      <trkpt lat="42.25627" lon="8.95779">
        <ele>1746.4</ele>
        <time>2015-06-27T05:34:44Z</time>
      </trkpt>
      <trkpt lat="42.25629" lon="8.95779">
        <ele>1746.6</ele>
        <time>2015-06-27T05:34:48Z</time>
      </trkpt>
      <trkpt lat="42.2563" lon="8.95774">
        <ele>1746.8</ele>
        <time>2015-06-27T05:34:53Z</time>
      </trkpt>
      <trkpt lat="42.25631" lon="8.9576">
        <ele>1748.8</ele>
        <time>2015-06-27T05:35:13Z</time>
      </trkpt>
      <trkpt lat="42.25641" lon="8.95753">
        <ele>1749.2</ele>
        <time>2015-06-27T05:35:49Z</time>
      </trkpt>
      <trkpt lat="42.25646" lon="8.95752">
        <ele>1750.2</ele>
        <time>2015-06-27T05:36:00Z</time>
      </trkpt>
      <trkpt lat="42.25647" lon="8.95748">
        <ele>1751</ele>
        <time>2015-06-27T05:36:06Z</time>
      </trkpt>
      <trkpt lat="42.25648" lon="8.95744">
        <ele>1752.2</ele>
        <time>2015-06-27T05:36:14Z</time>
      </trkpt>
      <trkpt lat="42.25652" lon="8.95775">
        <ele>1752.4</ele>
        <time>2015-06-27T05:38:47Z</time>
      </trkpt>
      <trkpt lat="42.25656" lon="8.95778">
        <ele>1752.2</ele>
        <time>2015-06-27T05:38:52Z</time>
      </trkpt>
      <trkpt lat="42.25665" lon="8.9581">
        <ele>1753</ele>
        <time>2015-06-27T05:39:25Z</time>
      </trkpt>
      <trkpt lat="42.25662" lon="8.9582">
        <ele>1753.6</ele>
        <time>2015-06-27T05:39:34Z</time>
      </trkpt>
      <trkpt lat="42.25652" lon="8.95841">
        <ele>1754</ele>
        <time>2015-06-27T05:39:58Z</time>
      </trkpt>
      <trkpt lat="42.25645" lon="8.95862">
        <ele>1755</ele>
        <time>2015-06-27T05:40:18Z</time>
      </trkpt>
      <trkpt lat="42.25643" lon="8.95865">
        <ele>1754.8</ele>
        <time>2015-06-27T05:40:21Z</time>
      </trkpt>
      <trkpt lat="42.2564" lon="8.9587">
        <ele>1755</ele>
        <time>2015-06-27T05:40:27Z</time>
      </trkpt>
      <trkpt lat="42.25617" lon="8.95884">
        <ele>1754.6</ele>
        <time>2015-06-27T05:41:04Z</time>
      </trkpt>
      <trkpt lat="42.25618" lon="8.95871">
        <ele>1753.2</ele>
        <time>2015-06-27T05:41:23Z</time>
      </trkpt>
      <trkpt lat="42.25615" lon="8.95866">
        <ele>1752</ele>
        <time>2015-06-27T05:41:46Z</time>
      </trkpt>
      <trkpt lat="42.25615" lon="8.95859">
        <ele>1751.2</ele>
        <time>2015-06-27T05:41:56Z</time>
      </trkpt>
      <trkpt lat="42.25614" lon="8.95856">
        <ele>1750.2</ele>
        <time>2015-06-27T05:42:02Z</time>
      </trkpt>
      <trkpt lat="42.25618" lon="8.95849">
        <ele>1748.2</ele>
        <time>2015-06-27T05:42:36Z</time>
      </trkpt>
      <trkpt lat="42.25616" lon="8.95834">
        <ele>1747</ele>
        <time>2015-06-27T05:42:58Z</time>
      </trkpt>
      <trkpt lat="42.2562" lon="8.9583">
        <ele>1746.8</ele>
        <time>2015-06-27T05:43:04Z</time>
      </trkpt>
      <trkpt lat="42.25616" lon="8.95822">
        <ele>1746.2</ele>
        <time>2015-06-27T05:43:16Z</time>
      </trkpt>
      <trkpt lat="42.25615" lon="8.95815">
        <ele>1746</ele>
        <time>2015-06-27T05:43:28Z</time>
      </trkpt>
      <trkpt lat="42.25595" lon="8.95761">
        <ele>1745.8</ele>
        <time>2015-06-27T05:44:20Z</time>
      </trkpt>
      <trkpt lat="42.25584" lon="8.95732">
        <ele>1745.8</ele>
        <time>2015-06-27T05:44:46Z</time>
      </trkpt>
      <trkpt lat="42.25568" lon="8.95711">
        <ele>1747</ele>
        <time>2015-06-27T05:45:14Z</time>
      </trkpt>
      <trkpt lat="42.25546" lon="8.95688">
        <ele>1746.6</ele>
        <time>2015-06-27T05:45:43Z</time>
      </trkpt>
      <trkpt lat="42.25543" lon="8.95686">
        <ele>1746.6</ele>
        <time>2015-06-27T05:45:46Z</time>
      </trkpt>
      <trkpt lat="42.25542" lon="8.95683">
        <ele>1746.8</ele>
        <time>2015-06-27T05:45:49Z</time>
      </trkpt>
      <trkpt lat="42.2554" lon="8.9568">
        <ele>1746.6</ele>
        <time>2015-06-27T05:45:53Z</time>
      </trkpt>
      <trkpt lat="42.25535" lon="8.95667">
        <ele>1746</ele>
        <time>2015-06-27T05:46:12Z</time>
      </trkpt>
      <trkpt lat="42.25529" lon="8.95668">
        <ele>1745.8</ele>
        <time>2015-06-27T05:46:19Z</time>
      </trkpt>
      <trkpt lat="42.25523" lon="8.95662">
        <ele>1745.8</ele>
        <time>2015-06-27T05:46:26Z</time>
      </trkpt>
      <trkpt lat="42.25508" lon="8.95647">
        <ele>1746</ele>
        <time>2015-06-27T05:46:44Z</time>
      </trkpt>
      <trkpt lat="42.25506" lon="8.95645">
        <ele>1746</ele>
        <time>2015-06-27T05:46:46Z</time>
      </trkpt>
      <trkpt lat="42.25497" lon="8.95637">
        <ele>1746.2</ele>
        <time>2015-06-27T05:46:57Z</time>
      </trkpt>
      <trkpt lat="42.25463" lon="8.95597">
        <ele>1745.6</ele>
        <time>2015-06-27T05:47:37Z</time>
      </trkpt>
      <trkpt lat="42.25448" lon="8.95572">
        <ele>1745.4</ele>
        <time>2015-06-27T05:47:59Z</time>
      </trkpt>
      <trkpt lat="42.25437" lon="8.95542">
        <ele>1745</ele>
        <time>2015-06-27T05:48:21Z</time>
      </trkpt>
      <trkpt lat="42.25436" lon="8.95534">
        <ele>1745</ele>
        <time>2015-06-27T05:48:26Z</time>
      </trkpt>
      <trkpt lat="42.25424" lon="8.95518">
        <ele>1744.8</ele>
        <time>2015-06-27T05:48:42Z</time>
      </trkpt>
      <trkpt lat="42.25398" lon="8.95467">
        <ele>1744.4</ele>
        <time>2015-06-27T05:49:19Z</time>
      </trkpt>
      <trkpt lat="42.25378" lon="8.95414">
        <ele>1743.6</ele>
        <time>2015-06-27T05:49:56Z</time>
      </trkpt>
      <trkpt lat="42.25359" lon="8.95382">
        <ele>1743.4</ele>
        <time>2015-06-27T05:50:21Z</time>
      </trkpt>
      <trkpt lat="42.25359" lon="8.95381">
        <ele>1743.4</ele>
        <time>2015-06-27T05:50:22Z</time>
      </trkpt>
      <trkpt lat="42.25356" lon="8.9537">
        <ele>1743.2</ele>
        <time>2015-06-27T05:50:32Z</time>
      </trkpt>
      <trkpt lat="42.2534" lon="8.95336">
        <ele>1742.8</ele>
        <time>2015-06-27T05:50:59Z</time>
      </trkpt>
      <trkpt lat="42.25327" lon="8.95279">
        <ele>1743.2</ele>
        <time>2015-06-27T05:51:37Z</time>
      </trkpt>
      <trkpt lat="42.25325" lon="8.95266">
        <ele>1743.6</ele>
        <time>2015-06-27T05:51:46Z</time>
      </trkpt>
      <trkpt lat="42.25324" lon="8.95249">
        <ele>1743.4</ele>
        <time>2015-06-27T05:51:57Z</time>
      </trkpt>
      <trkpt lat="42.25323" lon="8.95188">
        <ele>1743.6</ele>
        <time>2015-06-27T05:52:36Z</time>
      </trkpt>
      <trkpt lat="42.25323" lon="8.95181">
        <ele>1743.8</ele>
        <time>2015-06-27T05:52:40Z</time>
      </trkpt>
      <trkpt lat="42.25325" lon="8.95153">
        <ele>1744</ele>
        <time>2015-06-27T05:52:56Z</time>
      </trkpt>
      <trkpt lat="42.25325" lon="8.95126">
        <ele>1743.8</ele>
        <time>2015-06-27T05:53:14Z</time>
      </trkpt>
      <trkpt lat="42.25324" lon="8.95126">
        <ele>1743.6</ele>
        <time>2015-06-27T05:53:16Z</time>
      </trkpt>
      <trkpt lat="42.25322" lon="8.95119">
        <ele>1743.8</ele>
        <time>2015-06-27T05:53:23Z</time>
      </trkpt>
      <trkpt lat="42.25311" lon="8.95091">
        <ele>1744.4</ele>
        <time>2015-06-27T05:53:45Z</time>
      </trkpt>
      <trkpt lat="42.25306" lon="8.95073">
        <ele>1744.2</ele>
        <time>2015-06-27T05:54:14Z</time>
      </trkpt>
      <trkpt lat="42.25298" lon="8.95013">
        <ele>1743.8</ele>
        <time>2015-06-27T05:54:53Z</time>
      </trkpt>
      <trkpt lat="42.25284" lon="8.94957">
        <ele>1743.6</ele>
        <time>2015-06-27T05:55:30Z</time>
      </trkpt>
      <trkpt lat="42.25281" lon="8.94952">
        <ele>1743.8</ele>
        <time>2015-06-27T05:55:35Z</time>
      </trkpt>
      <trkpt lat="42.25259" lon="8.94899">
        <ele>1744</ele>
        <time>2015-06-27T05:56:12Z</time>
      </trkpt>
      <trkpt lat="42.25254" lon="8.9484">
        <ele>1744.2</ele>
        <time>2015-06-27T05:56:50Z</time>
      </trkpt>
      <trkpt lat="42.25252" lon="8.94815">
        <ele>1744.4</ele>
        <time>2015-06-27T05:57:05Z</time>
      </trkpt>
      <trkpt lat="42.25253" lon="8.94755">
        <ele>1744.4</ele>
        <time>2015-06-27T05:57:41Z</time>
      </trkpt>
      <trkpt lat="42.25257" lon="8.94735">
        <ele>1744.6</ele>
        <time>2015-06-27T05:57:53Z</time>
      </trkpt>
      <trkpt lat="42.25262" lon="8.9472">
        <ele>1744.6</ele>
        <time>2015-06-27T05:58:03Z</time>
      </trkpt>
      <trkpt lat="42.25278" lon="8.94664">
        <ele>1744.6</ele>
        <time>2015-06-27T05:58:39Z</time>
      </trkpt>
      <trkpt lat="42.25288" lon="8.94642">
        <ele>1744.6</ele>
        <time>2015-06-27T05:58:55Z</time>
      </trkpt>
      <trkpt lat="42.25292" lon="8.94634">
        <ele>1744.4</ele>
        <time>2015-06-27T05:59:01Z</time>
      </trkpt>
      <trkpt lat="42.25293" lon="8.94619">
        <ele>1744.4</ele>
        <time>2015-06-27T05:59:10Z</time>
      </trkpt>
      <trkpt lat="42.25296" lon="8.94613">
        <ele>1744.2</ele>
        <time>2015-06-27T05:59:15Z</time>
      </trkpt>
      <trkpt lat="42.25323" lon="8.94582">
        <ele>1743.8</ele>
        <time>2015-06-27T05:59:46Z</time>
      </trkpt>
      <trkpt lat="42.25325" lon="8.94583">
        <ele>1743.8</ele>
        <time>2015-06-27T05:59:48Z</time>
      </trkpt>
      <trkpt lat="42.25326" lon="8.94582">
        <ele>1743.8</ele>
        <time>2015-06-27T05:59:50Z</time>
      </trkpt>
      <trkpt lat="42.25328" lon="8.9458">
        <ele>1743.6</ele>
        <time>2015-06-27T05:59:52Z</time>
      </trkpt>
      <trkpt lat="42.25335" lon="8.94567">
        <ele>1744</ele>
        <time>2015-06-27T06:00:02Z</time>
      </trkpt>
      <trkpt lat="42.25337" lon="8.94563">
        <ele>1744</ele>
        <time>2015-06-27T06:00:05Z</time>
      </trkpt>
      <trkpt lat="42.25342" lon="8.94555">
        <ele>1744.4</ele>
        <time>2015-06-27T06:00:12Z</time>
      </trkpt>
      <trkpt lat="42.25354" lon="8.94527">
        <ele>1745</ele>
        <time>2015-06-27T06:00:37Z</time>
      </trkpt>
      <trkpt lat="42.25358" lon="8.94493">
        <ele>1745.6</ele>
        <time>2015-06-27T06:00:59Z</time>
      </trkpt>
      <trkpt lat="42.25367" lon="8.94467">
        <ele>1745.6</ele>
        <time>2015-06-27T06:01:19Z</time>
      </trkpt>
      <trkpt lat="42.25367" lon="8.94466">
        <ele>1745.8</ele>
        <time>2015-06-27T06:01:20Z</time>
      </trkpt>
      <trkpt lat="42.2537" lon="8.94459">
        <ele>1746.2</ele>
        <time>2015-06-27T06:01:26Z</time>
      </trkpt>
      <trkpt lat="42.25371" lon="8.94457">
        <ele>1746</ele>
        <time>2015-06-27T06:01:28Z</time>
      </trkpt>
      <trkpt lat="42.25373" lon="8.94455">
        <ele>1746.2</ele>
        <time>2015-06-27T06:01:30Z</time>
      </trkpt>
      <trkpt lat="42.25375" lon="8.94452">
        <ele>1746</ele>
        <time>2015-06-27T06:01:38Z</time>
      </trkpt>
      <trkpt lat="42.25386" lon="8.94429">
        <ele>1745.8</ele>
        <time>2015-06-27T06:01:54Z</time>
      </trkpt>
      <trkpt lat="42.25402" lon="8.94392">
        <ele>1745.4</ele>
        <time>2015-06-27T06:02:22Z</time>
      </trkpt>
      <trkpt lat="42.25418" lon="8.9436">
        <ele>1745.8</ele>
        <time>2015-06-27T06:02:48Z</time>
      </trkpt>
      <trkpt lat="42.25424" lon="8.9435">
        <ele>1745.8</ele>
        <time>2015-06-27T06:02:57Z</time>
      </trkpt>
      <trkpt lat="42.25425" lon="8.94335">
        <ele>1745.8</ele>
        <time>2015-06-27T06:03:05Z</time>
      </trkpt>
      <trkpt lat="42.25433" lon="8.94307">
        <ele>1746</ele>
        <time>2015-06-27T06:03:26Z</time>
      </trkpt>
      <trkpt lat="42.25435" lon="8.94305">
        <ele>1746</ele>
        <time>2015-06-27T06:03:28Z</time>
      </trkpt>
      <trkpt lat="42.25438" lon="8.943">
        <ele>1746.2</ele>
        <time>2015-06-27T06:03:33Z</time>
      </trkpt>
      <trkpt lat="42.25462" lon="8.94253">
        <ele>1746.2</ele>
        <time>2015-06-27T06:04:24Z</time>
      </trkpt>
      <trkpt lat="42.25463" lon="8.94248">
        <ele>1745.8</ele>
        <time>2015-06-27T06:04:28Z</time>
      </trkpt>
      <trkpt lat="42.25465" lon="8.94236">
        <ele>1745.4</ele>
        <time>2015-06-27T06:04:39Z</time>
      </trkpt>
      <trkpt lat="42.25464" lon="8.94233">
        <ele>1745.4</ele>
        <time>2015-06-27T06:04:41Z</time>
      </trkpt>
      <trkpt lat="42.25491" lon="8.9423">
        <ele>1744.6</ele>
        <time>2015-06-27T06:05:33Z</time>
      </trkpt>
      <trkpt lat="42.25508" lon="8.94221">
        <ele>1746</ele>
        <time>2015-06-27T06:05:51Z</time>
      </trkpt>
      <trkpt lat="42.25528" lon="8.94214">
        <ele>1746.2</ele>
        <time>2015-06-27T06:06:12Z</time>
      </trkpt>
      <trkpt lat="42.2553" lon="8.94216">
        <ele>1746.2</ele>
        <time>2015-06-27T06:06:14Z</time>
      </trkpt>
      <trkpt lat="42.25543" lon="8.9421">
        <ele>1745.4</ele>
        <time>2015-06-27T06:06:26Z</time>
      </trkpt>
      <trkpt lat="42.25543" lon="8.94209">
        <ele>1745.4</ele>
        <time>2015-06-27T06:06:27Z</time>
      </trkpt>
      <trkpt lat="42.25558" lon="8.942">
        <ele>1744.8</ele>
        <time>2015-06-27T06:06:40Z</time>
      </trkpt>
      <trkpt lat="42.25562" lon="8.94198">
        <ele>1744.8</ele>
        <time>2015-06-27T06:06:44Z</time>
      </trkpt>
      <trkpt lat="42.25571" lon="8.94191">
        <ele>1745</ele>
        <time>2015-06-27T06:06:53Z</time>
      </trkpt>
      <trkpt lat="42.25587" lon="8.94172">
        <ele>1744.6</ele>
        <time>2015-06-27T06:07:11Z</time>
      </trkpt>
      <trkpt lat="42.25589" lon="8.94169">
        <ele>1744.6</ele>
        <time>2015-06-27T06:07:14Z</time>
      </trkpt>
      <trkpt lat="42.25601" lon="8.94154">
        <ele>1744</ele>
        <time>2015-06-27T06:07:29Z</time>
      </trkpt>
      <trkpt lat="42.25605" lon="8.94146">
        <ele>1744.2</ele>
        <time>2015-06-27T06:07:35Z</time>
      </trkpt>
      <trkpt lat="42.25622" lon="8.94118">
        <ele>1744</ele>
        <time>2015-06-27T06:08:00Z</time>
      </trkpt>
      <trkpt lat="42.25628" lon="8.94104">
        <ele>1744</ele>
        <time>2015-06-27T06:08:12Z</time>
      </trkpt>
      <trkpt lat="42.25648" lon="8.94052">
        <ele>1744.4</ele>
        <time>2015-06-27T06:08:59Z</time>
      </trkpt>
      <trkpt lat="42.25653" lon="8.94046">
        <ele>1744.4</ele>
        <time>2015-06-27T06:09:05Z</time>
      </trkpt>
      <trkpt lat="42.25663" lon="8.94003">
        <ele>1745.6</ele>
        <time>2015-06-27T06:09:39Z</time>
      </trkpt>
      <trkpt lat="42.25665" lon="8.93989">
        <ele>1745.4</ele>
        <time>2015-06-27T06:09:50Z</time>
      </trkpt>
      <trkpt lat="42.2567" lon="8.93976">
        <ele>1745</ele>
        <time>2015-06-27T06:09:59Z</time>
      </trkpt>
      <trkpt lat="42.25674" lon="8.93969">
        <ele>1744.6</ele>
        <time>2015-06-27T06:10:05Z</time>
      </trkpt>
      <trkpt lat="42.25678" lon="8.93964">
        <ele>1744.6</ele>
        <time>2015-06-27T06:10:11Z</time>
      </trkpt>
      <trkpt lat="42.25685" lon="8.93948">
        <ele>1744.8</ele>
        <time>2015-06-27T06:10:24Z</time>
      </trkpt>
      <trkpt lat="42.25702" lon="8.93916">
        <ele>1745.2</ele>
        <time>2015-06-27T06:10:50Z</time>
      </trkpt>
      <trkpt lat="42.25707" lon="8.9391">
        <ele>1745.4</ele>
        <time>2015-06-27T06:10:56Z</time>
      </trkpt>
      <trkpt lat="42.25707" lon="8.93909">
        <ele>1745.4</ele>
        <time>2015-06-27T06:10:57Z</time>
      </trkpt>
      <trkpt lat="42.25712" lon="8.93904">
        <ele>1745.8</ele>
        <time>2015-06-27T06:11:02Z</time>
      </trkpt>
      <trkpt lat="42.25741" lon="8.93864">
        <ele>1745.8</ele>
        <time>2015-06-27T06:11:39Z</time>
      </trkpt>
      <trkpt lat="42.25748" lon="8.93849">
        <ele>1745.8</ele>
        <time>2015-06-27T06:11:51Z</time>
      </trkpt>
      <trkpt lat="42.2576" lon="8.93837">
        <ele>1745.8</ele>
        <time>2015-06-27T06:12:05Z</time>
      </trkpt>
      <trkpt lat="42.25793" lon="8.93796">
        <ele>1746.2</ele>
        <time>2015-06-27T06:12:50Z</time>
      </trkpt>
      <trkpt lat="42.25797" lon="8.9379">
        <ele>1746.4</ele>
        <time>2015-06-27T06:12:55Z</time>
      </trkpt>
      <trkpt lat="42.25804" lon="8.93779">
        <ele>1746.6</ele>
        <time>2015-06-27T06:13:04Z</time>
      </trkpt>
      <trkpt lat="42.25805" lon="8.93774">
        <ele>1746.6</ele>
        <time>2015-06-27T06:13:08Z</time>
      </trkpt>
      <trkpt lat="42.25811" lon="8.93756">
        <ele>1746.6</ele>
        <time>2015-06-27T06:13:20Z</time>
      </trkpt>
      <trkpt lat="42.25814" lon="8.93749">
        <ele>1746.4</ele>
        <time>2015-06-27T06:13:25Z</time>
      </trkpt>
      <trkpt lat="42.25815" lon="8.93728">
        <ele>1746.4</ele>
        <time>2015-06-27T06:13:37Z</time>
      </trkpt>
      <trkpt lat="42.25817" lon="8.93717">
        <ele>1746.4</ele>
        <time>2015-06-27T06:13:44Z</time>
      </trkpt>
      <trkpt lat="42.25829" lon="8.93669">
        <ele>1746.2</ele>
        <time>2015-06-27T06:14:17Z</time>
      </trkpt>
      <trkpt lat="42.2584" lon="8.93627">
        <ele>1746.6</ele>
        <time>2015-06-27T06:14:48Z</time>
      </trkpt>
      <trkpt lat="42.25837" lon="8.93601">
        <ele>1746.8</ele>
        <time>2015-06-27T06:16:53Z</time>
      </trkpt>
      <trkpt lat="42.25836" lon="8.93604">
        <ele>1746.8</ele>
        <time>2015-06-27T06:18:06Z</time>
      </trkpt>
      <trkpt lat="42.25825" lon="8.93611">
        <ele>1746.4</ele>
        <time>2015-06-27T06:18:16Z</time>
      </trkpt>
      <trkpt lat="42.25821" lon="8.93611">
        <ele>1746</ele>
        <time>2015-06-27T06:18:19Z</time>
      </trkpt>
      <trkpt lat="42.25801" lon="8.9361">
        <ele>1744.8</ele>
        <time>2015-06-27T06:18:39Z</time>
      </trkpt>
      <trkpt lat="42.25796" lon="8.93609">
        <ele>1744.8</ele>
        <time>2015-06-27T06:18:44Z</time>
      </trkpt>
      <trkpt lat="42.25793" lon="8.93611">
        <ele>1744.6</ele>
        <time>2015-06-27T06:18:47Z</time>
      </trkpt>
      <trkpt lat="42.25784" lon="8.93619">
        <ele>1744.6</ele>
        <time>2015-06-27T06:18:56Z</time>
      </trkpt>
      <trkpt lat="42.25781" lon="8.93624">
        <ele>1744.8</ele>
        <time>2015-06-27T06:19:00Z</time>
      </trkpt>
      <trkpt lat="42.25779" lon="8.93628">
        <ele>1744.8</ele>
        <time>2015-06-27T06:19:03Z</time>
      </trkpt>
      <trkpt lat="42.25773" lon="8.93636">
        <ele>1744.6</ele>
        <time>2015-06-27T06:19:11Z</time>
      </trkpt>
      <trkpt lat="42.25767" lon="8.9364">
        <ele>1744.4</ele>
        <time>2015-06-27T06:19:17Z</time>
      </trkpt>
      <trkpt lat="42.2575" lon="8.93654">
        <ele>1744.4</ele>
        <time>2015-06-27T06:19:34Z</time>
      </trkpt>
      <trkpt lat="42.25738" lon="8.93667">
        <ele>1744.4</ele>
        <time>2015-06-27T06:19:48Z</time>
      </trkpt>
      <trkpt lat="42.25737" lon="8.93669">
        <ele>1744.4</ele>
        <time>2015-06-27T06:19:51Z</time>
      </trkpt>
      <trkpt lat="42.25722" lon="8.93672">
        <ele>1744.4</ele>
        <time>2015-06-27T06:20:13Z</time>
      </trkpt>
      <trkpt lat="42.25707" lon="8.93681">
        <ele>1744.4</ele>
        <time>2015-06-27T06:20:28Z</time>
      </trkpt>
      <trkpt lat="42.25693" lon="8.93685">
        <ele>1744.4</ele>
        <time>2015-06-27T06:20:44Z</time>
      </trkpt>
      <trkpt lat="42.25689" lon="8.9369">
        <ele>1744.6</ele>
        <time>2015-06-27T06:20:50Z</time>
      </trkpt>
      <trkpt lat="42.25688" lon="8.93692">
        <ele>1744.6</ele>
        <time>2015-06-27T06:20:52Z</time>
      </trkpt>
      <trkpt lat="42.25685" lon="8.93705">
        <ele>1746</ele>
        <time>2015-06-27T06:21:02Z</time>
      </trkpt>
      <trkpt lat="42.25684" lon="8.93713">
        <ele>1746.6</ele>
        <time>2015-06-27T06:21:09Z</time>
      </trkpt>
      <trkpt lat="42.25683" lon="8.93715">
        <ele>1746.8</ele>
        <time>2015-06-27T06:21:12Z</time>
      </trkpt>
      <trkpt lat="42.2568" lon="8.93714">
        <ele>1746.8</ele>
        <time>2015-06-27T06:21:16Z</time>
      </trkpt>
      <trkpt lat="42.25676" lon="8.93714">
        <ele>1747.8</ele>
        <time>2015-06-27T06:21:23Z</time>
      </trkpt>
      <trkpt lat="42.25671" lon="8.93718">
        <ele>1749.2</ele>
        <time>2015-06-27T06:21:32Z</time>
      </trkpt>
      <trkpt lat="42.25667" lon="8.93719">
        <ele>1750.2</ele>
        <time>2015-06-27T06:21:40Z</time>
      </trkpt>
      <trkpt lat="42.25664" lon="8.93718">
        <ele>1750.8</ele>
        <time>2015-06-27T06:21:46Z</time>
      </trkpt>
      <trkpt lat="42.2566" lon="8.93713">
        <ele>1752.4</ele>
        <time>2015-06-27T06:21:54Z</time>
      </trkpt>
      <trkpt lat="42.25653" lon="8.93717">
        <ele>1753.6</ele>
        <time>2015-06-27T06:22:05Z</time>
      </trkpt>
      <trkpt lat="42.25649" lon="8.93721">
        <ele>1754.4</ele>
        <time>2015-06-27T06:22:13Z</time>
      </trkpt>
      <trkpt lat="42.25643" lon="8.93727">
        <ele>1755.6</ele>
        <time>2015-06-27T06:22:23Z</time>
      </trkpt>
      <trkpt lat="42.25635" lon="8.93732">
        <ele>1756.8</ele>
        <time>2015-06-27T06:22:38Z</time>
      </trkpt>
      <trkpt lat="42.25635" lon="8.93732">
        <ele>1756.8</ele>
        <time>2015-06-27T06:22:41Z</time>
      </trkpt>
      <trkpt lat="42.25633" lon="8.9373">
        <ele>1757.6</ele>
        <time>2015-06-27T06:23:08Z</time>
      </trkpt>
      <trkpt lat="42.25628" lon="8.93721">
        <ele>1758.6</ele>
        <time>2015-06-27T06:23:22Z</time>
      </trkpt>
      <trkpt lat="42.25625" lon="8.93714">
        <ele>1759.6</ele>
        <time>2015-06-27T06:23:30Z</time>
      </trkpt>
      <trkpt lat="42.25621" lon="8.93707">
        <ele>1760.6</ele>
        <time>2015-06-27T06:23:38Z</time>
      </trkpt>
      <trkpt lat="42.25618" lon="8.93701">
        <ele>1761.8</ele>
        <time>2015-06-27T06:23:46Z</time>
      </trkpt>
      <trkpt lat="42.25614" lon="8.93695">
        <ele>1762.8</ele>
        <time>2015-06-27T06:23:54Z</time>
      </trkpt>
      <trkpt lat="42.25609" lon="8.93693">
        <ele>1764.2</ele>
        <time>2015-06-27T06:24:02Z</time>
      </trkpt>
      <trkpt lat="42.25603" lon="8.9369">
        <ele>1765.4</ele>
        <time>2015-06-27T06:24:11Z</time>
      </trkpt>
      <trkpt lat="42.25598" lon="8.93687">
        <ele>1766.4</ele>
        <time>2015-06-27T06:24:19Z</time>
      </trkpt>
      <trkpt lat="42.25594" lon="8.93681">
        <ele>1767.4</ele>
        <time>2015-06-27T06:24:27Z</time>
      </trkpt>
      <trkpt lat="42.25593" lon="8.93677">
        <ele>1768</ele>
        <time>2015-06-27T06:24:33Z</time>
      </trkpt>
      <trkpt lat="42.2559" lon="8.9367">
        <ele>1769.6</ele>
        <time>2015-06-27T06:24:41Z</time>
      </trkpt>
      <trkpt lat="42.25587" lon="8.93662">
        <ele>1770.6</ele>
        <time>2015-06-27T06:24:50Z</time>
      </trkpt>
      <trkpt lat="42.25579" lon="8.93655">
        <ele>1771.8</ele>
        <time>2015-06-27T06:25:02Z</time>
      </trkpt>
      <trkpt lat="42.25573" lon="8.93649">
        <ele>1772.8</ele>
        <time>2015-06-27T06:25:11Z</time>
      </trkpt>
      <trkpt lat="42.25568" lon="8.93643">
        <ele>1773.8</ele>
        <time>2015-06-27T06:25:20Z</time>
      </trkpt>
      <trkpt lat="42.25563" lon="8.93637">
        <ele>1775</ele>
        <time>2015-06-27T06:25:29Z</time>
      </trkpt>
      <trkpt lat="42.2556" lon="8.93635">
        <ele>1775.6</ele>
        <time>2015-06-27T06:25:35Z</time>
      </trkpt>
      <trkpt lat="42.25558" lon="8.93629">
        <ele>1777</ele>
        <time>2015-06-27T06:25:45Z</time>
      </trkpt>
      <trkpt lat="42.25558" lon="8.93622">
        <ele>1778.2</ele>
        <time>2015-06-27T06:25:53Z</time>
      </trkpt>
      <trkpt lat="42.25557" lon="8.93615">
        <ele>1779.6</ele>
        <time>2015-06-27T06:26:03Z</time>
      </trkpt>
      <trkpt lat="42.25554" lon="8.9361">
        <ele>1780.2</ele>
        <time>2015-06-27T06:26:10Z</time>
      </trkpt>
      <trkpt lat="42.25551" lon="8.93602">
        <ele>1781.4</ele>
        <time>2015-06-27T06:26:19Z</time>
      </trkpt>
      <trkpt lat="42.25552" lon="8.93591">
        <ele>1782.6</ele>
        <time>2015-06-27T06:26:28Z</time>
      </trkpt>
      <trkpt lat="42.25551" lon="8.93582">
        <ele>1784</ele>
        <time>2015-06-27T06:26:38Z</time>
      </trkpt>
      <trkpt lat="42.2555" lon="8.93578">
        <ele>1784.4</ele>
        <time>2015-06-27T06:26:44Z</time>
      </trkpt>
      <trkpt lat="42.25549" lon="8.93576">
        <ele>1785</ele>
        <time>2015-06-27T06:26:48Z</time>
      </trkpt>
      <trkpt lat="42.25549" lon="8.93562">
        <ele>1786</ele>
        <time>2015-06-27T06:27:02Z</time>
      </trkpt>
      <trkpt lat="42.25549" lon="8.93555">
        <ele>1786.8</ele>
        <time>2015-06-27T06:27:12Z</time>
      </trkpt>
      <trkpt lat="42.25548" lon="8.93548">
        <ele>1787.8</ele>
        <time>2015-06-27T06:27:21Z</time>
      </trkpt>
      <trkpt lat="42.25552" lon="8.93541">
        <ele>1789.2</ele>
        <time>2015-06-27T06:27:32Z</time>
      </trkpt>
      <trkpt lat="42.25556" lon="8.9353">
        <ele>1790.4</ele>
        <time>2015-06-27T06:27:47Z</time>
      </trkpt>
      <trkpt lat="42.25554" lon="8.93525">
        <ele>1790.8</ele>
        <time>2015-06-27T06:27:55Z</time>
      </trkpt>
      <trkpt lat="42.2555" lon="8.93522">
        <ele>1792</ele>
        <time>2015-06-27T06:28:03Z</time>
      </trkpt>
      <trkpt lat="42.25549" lon="8.93518">
        <ele>1793</ele>
        <time>2015-06-27T06:28:10Z</time>
      </trkpt>
      <trkpt lat="42.25553" lon="8.93512">
        <ele>1794.4</ele>
        <time>2015-06-27T06:28:19Z</time>
      </trkpt>
      <trkpt lat="42.25553" lon="8.935">
        <ele>1795.4</ele>
        <time>2015-06-27T06:28:32Z</time>
      </trkpt>
      <trkpt lat="42.25549" lon="8.93499">
        <ele>1796.2</ele>
        <time>2015-06-27T06:28:39Z</time>
      </trkpt>
      <trkpt lat="42.25548" lon="8.93498">
        <ele>1796.2</ele>
        <time>2015-06-27T06:28:42Z</time>
      </trkpt>
      <trkpt lat="42.25542" lon="8.935">
        <ele>1797.8</ele>
        <time>2015-06-27T06:28:51Z</time>
      </trkpt>
      <trkpt lat="42.25536" lon="8.935">
        <ele>1799</ele>
        <time>2015-06-27T06:29:03Z</time>
      </trkpt>
      <trkpt lat="42.25539" lon="8.93483">
        <ele>1799.8</ele>
        <time>2015-06-27T06:29:21Z</time>
      </trkpt>
      <trkpt lat="42.25541" lon="8.93476">
        <ele>1800.6</ele>
        <time>2015-06-27T06:29:30Z</time>
      </trkpt>
      <trkpt lat="42.25544" lon="8.93471">
        <ele>1801.6</ele>
        <time>2015-06-27T06:29:38Z</time>
      </trkpt>
      <trkpt lat="42.25548" lon="8.93463">
        <ele>1802.8</ele>
        <time>2015-06-27T06:29:51Z</time>
      </trkpt>
      <trkpt lat="42.2555" lon="8.93456">
        <ele>1803.8</ele>
        <time>2015-06-27T06:30:01Z</time>
      </trkpt>
      <trkpt lat="42.25553" lon="8.93447">
        <ele>1804.8</ele>
        <time>2015-06-27T06:30:13Z</time>
      </trkpt>
      <trkpt lat="42.25558" lon="8.93441">
        <ele>1806</ele>
        <time>2015-06-27T06:30:24Z</time>
      </trkpt>
      <trkpt lat="42.25556" lon="8.93431">
        <ele>1807.2</ele>
        <time>2015-06-27T06:30:39Z</time>
      </trkpt>
      <trkpt lat="42.25553" lon="8.93429">
        <ele>1807.6</ele>
        <time>2015-06-27T06:30:45Z</time>
      </trkpt>
      <trkpt lat="42.25549" lon="8.93426">
        <ele>1809.2</ele>
        <time>2015-06-27T06:30:53Z</time>
      </trkpt>
      <trkpt lat="42.25545" lon="8.93425">
        <ele>1809.8</ele>
        <time>2015-06-27T06:31:00Z</time>
      </trkpt>
      <trkpt lat="42.25543" lon="8.93423">
        <ele>1811.2</ele>
        <time>2015-06-27T06:31:08Z</time>
      </trkpt>
      <trkpt lat="42.25545" lon="8.93417">
        <ele>1812.2</ele>
        <time>2015-06-27T06:31:20Z</time>
      </trkpt>
      <trkpt lat="42.25551" lon="8.93411">
        <ele>1813.2</ele>
        <time>2015-06-27T06:31:29Z</time>
      </trkpt>
      <trkpt lat="42.25551" lon="8.93404">
        <ele>1814</ele>
        <time>2015-06-27T06:31:37Z</time>
      </trkpt>
      <trkpt lat="42.25552" lon="8.93399">
        <ele>1814.8</ele>
        <time>2015-06-27T06:31:44Z</time>
      </trkpt>
      <trkpt lat="42.25552" lon="8.93396">
        <ele>1816</ele>
        <time>2015-06-27T06:31:49Z</time>
      </trkpt>
      <trkpt lat="42.25553" lon="8.93393">
        <ele>1816.4</ele>
        <time>2015-06-27T06:31:54Z</time>
      </trkpt>
      <trkpt lat="42.25551" lon="8.93387">
        <ele>1817.2</ele>
        <time>2015-06-27T06:32:03Z</time>
      </trkpt>
      <trkpt lat="42.25546" lon="8.93379">
        <ele>1818.8</ele>
        <time>2015-06-27T06:32:15Z</time>
      </trkpt>
      <trkpt lat="42.25542" lon="8.93377">
        <ele>1819.6</ele>
        <time>2015-06-27T06:32:24Z</time>
      </trkpt>
      <trkpt lat="42.25539" lon="8.93374">
        <ele>1820.2</ele>
        <time>2015-06-27T06:32:31Z</time>
      </trkpt>
      <trkpt lat="42.25537" lon="8.93371">
        <ele>1821.4</ele>
        <time>2015-06-27T06:32:38Z</time>
      </trkpt>
      <trkpt lat="42.25531" lon="8.93371">
        <ele>1822.8</ele>
        <time>2015-06-27T06:32:46Z</time>
      </trkpt>
      <trkpt lat="42.25526" lon="8.93371">
        <ele>1823.6</ele>
        <time>2015-06-27T06:32:55Z</time>
      </trkpt>
      <trkpt lat="42.2552" lon="8.93377">
        <ele>1824.8</ele>
        <time>2015-06-27T06:33:06Z</time>
      </trkpt>
      <trkpt lat="42.25515" lon="8.9338">
        <ele>1826</ele>
        <time>2015-06-27T06:33:16Z</time>
      </trkpt>
      <trkpt lat="42.25513" lon="8.93381">
        <ele>1827.2</ele>
        <time>2015-06-27T06:33:28Z</time>
      </trkpt>
      <trkpt lat="42.25514" lon="8.93381">
        <ele>1827.4</ele>
        <time>2015-06-27T06:33:33Z</time>
      </trkpt>
      <trkpt lat="42.25513" lon="8.93353">
        <ele>1829</ele>
        <time>2015-06-27T06:34:27Z</time>
      </trkpt>
      <trkpt lat="42.25513" lon="8.93346">
        <ele>1829.6</ele>
        <time>2015-06-27T06:34:33Z</time>
      </trkpt>
      <trkpt lat="42.25521" lon="8.93335">
        <ele>1831</ele>
        <time>2015-06-27T06:34:48Z</time>
      </trkpt>
      <trkpt lat="42.25521" lon="8.93325">
        <ele>1832</ele>
        <time>2015-06-27T06:34:55Z</time>
      </trkpt>
      <trkpt lat="42.25518" lon="8.93289">
        <ele>1833.6</ele>
        <time>2015-06-27T06:35:24Z</time>
      </trkpt>
      <trkpt lat="42.25517" lon="8.93276">
        <ele>1834.4</ele>
        <time>2015-06-27T06:35:34Z</time>
      </trkpt>
      <trkpt lat="42.25515" lon="8.93272">
        <ele>1834.6</ele>
        <time>2015-06-27T06:35:38Z</time>
      </trkpt>
      <trkpt lat="42.25512" lon="8.93269">
        <ele>1835.8</ele>
        <time>2015-06-27T06:35:43Z</time>
      </trkpt>
      <trkpt lat="42.25509" lon="8.93251">
        <ele>1836.4</ele>
        <time>2015-06-27T06:35:59Z</time>
      </trkpt>
      <trkpt lat="42.25493" lon="8.93216">
        <ele>1837.2</ele>
        <time>2015-06-27T06:36:29Z</time>
      </trkpt>
      <trkpt lat="42.25489" lon="8.93202">
        <ele>1837.4</ele>
        <time>2015-06-27T06:36:39Z</time>
      </trkpt>
      <trkpt lat="42.2548" lon="8.93172">
        <ele>1837.6</ele>
        <time>2015-06-27T06:37:02Z</time>
      </trkpt>
      <trkpt lat="42.25475" lon="8.93151">
        <ele>1838</ele>
        <time>2015-06-27T06:37:19Z</time>
      </trkpt>
      <trkpt lat="42.25474" lon="8.9314">
        <ele>1838.2</ele>
        <time>2015-06-27T06:37:26Z</time>
      </trkpt>
      <trkpt lat="42.25484" lon="8.9308">
        <ele>1839.8</ele>
        <time>2015-06-27T06:38:05Z</time>
      </trkpt>
      <trkpt lat="42.25484" lon="8.93071">
        <ele>1840</ele>
        <time>2015-06-27T06:38:11Z</time>
      </trkpt>
      <trkpt lat="42.25485" lon="8.93054">
        <ele>1840.6</ele>
        <time>2015-06-27T06:38:25Z</time>
      </trkpt>
      <trkpt lat="42.25486" lon="8.93046">
        <ele>1841</ele>
        <time>2015-06-27T06:38:31Z</time>
      </trkpt>
      <trkpt lat="42.25483" lon="8.93013">
        <ele>1841.4</ele>
        <time>2015-06-27T06:38:51Z</time>
      </trkpt>
      <trkpt lat="42.25482" lon="8.93009">
        <ele>1841.4</ele>
        <time>2015-06-27T06:38:54Z</time>
      </trkpt>
      <trkpt lat="42.2548" lon="8.92988">
        <ele>1841.6</ele>
        <time>2015-06-27T06:39:08Z</time>
      </trkpt>
      <trkpt lat="42.2548" lon="8.92985">
        <ele>1841.4</ele>
        <time>2015-06-27T06:39:10Z</time>
      </trkpt>
      <trkpt lat="42.25479" lon="8.92954">
        <ele>1841.8</ele>
        <time>2015-06-27T06:39:33Z</time>
      </trkpt>
      <trkpt lat="42.25476" lon="8.92937">
        <ele>1842.6</ele>
        <time>2015-06-27T06:39:45Z</time>
      </trkpt>
      <trkpt lat="42.25472" lon="8.92918">
        <ele>1843.4</ele>
        <time>2015-06-27T06:39:59Z</time>
      </trkpt>
      <trkpt lat="42.2547" lon="8.92877">
        <ele>1845</ele>
        <time>2015-06-27T06:40:27Z</time>
      </trkpt>
      <trkpt lat="42.25465" lon="8.92863">
        <ele>1845.8</ele>
        <time>2015-06-27T06:40:39Z</time>
      </trkpt>
      <trkpt lat="42.25465" lon="8.92861">
        <ele>1846</ele>
        <time>2015-06-27T06:40:41Z</time>
      </trkpt>
      <trkpt lat="42.25463" lon="8.92854">
        <ele>1846.6</ele>
        <time>2015-06-27T06:40:47Z</time>
      </trkpt>
      <trkpt lat="42.25463" lon="8.92853">
        <ele>1846.6</ele>
        <time>2015-06-27T06:40:48Z</time>
      </trkpt>
      <trkpt lat="42.25464" lon="8.92846">
        <ele>1847.6</ele>
        <time>2015-06-27T06:40:55Z</time>
      </trkpt>
      <trkpt lat="42.25463" lon="8.92837">
        <ele>1848.6</ele>
        <time>2015-06-27T06:41:02Z</time>
      </trkpt>
      <trkpt lat="42.2546" lon="8.92827">
        <ele>1849.8</ele>
        <time>2015-06-27T06:41:11Z</time>
      </trkpt>
      <trkpt lat="42.25458" lon="8.92818">
        <ele>1850.8</ele>
        <time>2015-06-27T06:41:19Z</time>
      </trkpt>
      <trkpt lat="42.25453" lon="8.92812">
        <ele>1852</ele>
        <time>2015-06-27T06:41:28Z</time>
      </trkpt>
      <trkpt lat="42.2545" lon="8.92805">
        <ele>1853</ele>
        <time>2015-06-27T06:41:36Z</time>
      </trkpt>
      <trkpt lat="42.25449" lon="8.92797">
        <ele>1853.8</ele>
        <time>2015-06-27T06:41:44Z</time>
      </trkpt>
      <trkpt lat="42.25446" lon="8.9279">
        <ele>1855</ele>
        <time>2015-06-27T06:41:52Z</time>
      </trkpt>
      <trkpt lat="42.25444" lon="8.92783">
        <ele>1856</ele>
        <time>2015-06-27T06:42:00Z</time>
      </trkpt>
      <trkpt lat="42.25444" lon="8.92775">
        <ele>1857</ele>
        <time>2015-06-27T06:42:08Z</time>
      </trkpt>
      <trkpt lat="42.25442" lon="8.92769">
        <ele>1858.2</ele>
        <time>2015-06-27T06:42:15Z</time>
      </trkpt>
      <trkpt lat="42.25441" lon="8.92762">
        <ele>1859.2</ele>
        <time>2015-06-27T06:42:23Z</time>
      </trkpt>
      <trkpt lat="42.25438" lon="8.92757">
        <ele>1860</ele>
        <time>2015-06-27T06:42:30Z</time>
      </trkpt>
      <trkpt lat="42.25435" lon="8.9275">
        <ele>1861.2</ele>
        <time>2015-06-27T06:42:37Z</time>
      </trkpt>
      <trkpt lat="42.25434" lon="8.92743">
        <ele>1862.4</ele>
        <time>2015-06-27T06:42:44Z</time>
      </trkpt>
      <trkpt lat="42.25433" lon="8.92735">
        <ele>1863.4</ele>
        <time>2015-06-27T06:42:52Z</time>
      </trkpt>
      <trkpt lat="42.25433" lon="8.92728">
        <ele>1864</ele>
        <time>2015-06-27T06:42:58Z</time>
      </trkpt>
      <trkpt lat="42.2543" lon="8.92719">
        <ele>1865.4</ele>
        <time>2015-06-27T06:43:06Z</time>
      </trkpt>
      <trkpt lat="42.2543" lon="8.92718">
        <ele>1865.2</ele>
        <time>2015-06-27T06:43:07Z</time>
      </trkpt>
      <trkpt lat="42.2543" lon="8.92716">
        <ele>1865.6</ele>
        <time>2015-06-27T06:43:09Z</time>
      </trkpt>
      <trkpt lat="42.25428" lon="8.92709">
        <ele>1866.4</ele>
        <time>2015-06-27T06:43:17Z</time>
      </trkpt>
      <trkpt lat="42.25427" lon="8.92698">
        <ele>1867.4</ele>
        <time>2015-06-27T06:43:26Z</time>
      </trkpt>
      <trkpt lat="42.25428" lon="8.92687">
        <ele>1868.6</ele>
        <time>2015-06-27T06:43:35Z</time>
      </trkpt>
      <trkpt lat="42.25428" lon="8.92679">
        <ele>1869.4</ele>
        <time>2015-06-27T06:43:41Z</time>
      </trkpt>
      <trkpt lat="42.25429" lon="8.92667">
        <ele>1870.8</ele>
        <time>2015-06-27T06:43:50Z</time>
      </trkpt>
      <trkpt lat="42.2543" lon="8.92657">
        <ele>1871.4</ele>
        <time>2015-06-27T06:43:58Z</time>
      </trkpt>
      <trkpt lat="42.25431" lon="8.92652">
        <ele>1872.2</ele>
        <time>2015-06-27T06:44:03Z</time>
      </trkpt>
      <trkpt lat="42.2543" lon="8.9265">
        <ele>1872.6</ele>
        <time>2015-06-27T06:44:10Z</time>
      </trkpt>
      <trkpt lat="42.2543" lon="8.9264">
        <ele>1873</ele>
        <time>2015-06-27T06:44:28Z</time>
      </trkpt>
      <trkpt lat="42.25428" lon="8.92629">
        <ele>1873.6</ele>
        <time>2015-06-27T06:44:57Z</time>
      </trkpt>
      <trkpt lat="42.25424" lon="8.92604">
        <ele>1873.4</ele>
        <time>2015-06-27T06:45:17Z</time>
      </trkpt>
      <trkpt lat="42.25421" lon="8.92595">
        <ele>1873</ele>
        <time>2015-06-27T06:45:23Z</time>
      </trkpt>
      <trkpt lat="42.25421" lon="8.92588">
        <ele>1872.4</ele>
        <time>2015-06-27T06:45:28Z</time>
      </trkpt>
      <trkpt lat="42.2542" lon="8.92577">
        <ele>1871.4</ele>
        <time>2015-06-27T06:45:36Z</time>
      </trkpt>
      <trkpt lat="42.25419" lon="8.92566">
        <ele>1869.8</ele>
        <time>2015-06-27T06:45:51Z</time>
      </trkpt>
      <trkpt lat="42.25419" lon="8.92564">
        <ele>1869.6</ele>
        <time>2015-06-27T06:45:53Z</time>
      </trkpt>
      <trkpt lat="42.25416" lon="8.92549">
        <ele>1868.8</ele>
        <time>2015-06-27T06:46:03Z</time>
      </trkpt>
      <trkpt lat="42.25417" lon="8.92548">
        <ele>1868.6</ele>
        <time>2015-06-27T06:46:04Z</time>
      </trkpt>
      <trkpt lat="42.25419" lon="8.92547">
        <ele>1868</ele>
        <time>2015-06-27T06:46:09Z</time>
      </trkpt>
      <trkpt lat="42.25421" lon="8.92545">
        <ele>1866.8</ele>
        <time>2015-06-27T06:48:11Z</time>
      </trkpt>
      <trkpt lat="42.25419" lon="8.92547">
        <ele>1866.6</ele>
        <time>2015-06-27T06:49:47Z</time>
      </trkpt>
      <trkpt lat="42.25416" lon="8.9255">
        <ele>1866.2</ele>
        <time>2015-06-27T06:52:05Z</time>
      </trkpt>
      <trkpt lat="42.25421" lon="8.92545">
        <ele>1866.6</ele>
        <time>2015-06-27T06:52:36Z</time>
      </trkpt>
      <trkpt lat="42.2542" lon="8.92549">
        <ele>1866</ele>
        <time>2015-06-27T06:57:04Z</time>
      </trkpt>
      <trkpt lat="42.25421" lon="8.92546">
        <ele>1866.6</ele>
        <time>2015-06-27T06:57:29Z</time>
      </trkpt>
      <trkpt lat="42.25418" lon="8.92549">
        <ele>1865.6</ele>
        <time>2015-06-27T07:02:47Z</time>
      </trkpt>
      <trkpt lat="42.25422" lon="8.92548">
        <ele>1866</ele>
        <time>2015-06-27T07:04:49Z</time>
      </trkpt>
      <trkpt lat="42.25417" lon="8.92542">
        <ele>1866.6</ele>
        <time>2015-06-27T07:07:55Z</time>
      </trkpt>
      <trkpt lat="42.25417" lon="8.92538">
        <ele>1865.4</ele>
        <time>2015-06-27T07:08:44Z</time>
      </trkpt>
      <trkpt lat="42.25418" lon="8.92526">
        <ele>1865</ele>
        <time>2015-06-27T07:08:53Z</time>
      </trkpt>
      <trkpt lat="42.25416" lon="8.92518">
        <ele>1864</ele>
        <time>2015-06-27T07:08:59Z</time>
      </trkpt>
      <trkpt lat="42.25418" lon="8.92511">
        <ele>1863</ele>
        <time>2015-06-27T07:09:05Z</time>
      </trkpt>
      <trkpt lat="42.2542" lon="8.92509">
        <ele>1862.6</ele>
        <time>2015-06-27T07:09:07Z</time>
      </trkpt>
      <trkpt lat="42.25421" lon="8.92505">
        <ele>1862</ele>
        <time>2015-06-27T07:09:10Z</time>
      </trkpt>
      <trkpt lat="42.25422" lon="8.92499">
        <ele>1860.6</ele>
        <time>2015-06-27T07:09:15Z</time>
      </trkpt>
      <trkpt lat="42.25421" lon="8.92497">
        <ele>1860.2</ele>
        <time>2015-06-27T07:09:17Z</time>
      </trkpt>
      <trkpt lat="42.25422" lon="8.92494">
        <ele>1860</ele>
        <time>2015-06-27T07:09:18Z</time>
      </trkpt>
      <trkpt lat="42.25422" lon="8.92492">
        <ele>1859.8</ele>
        <time>2015-06-27T07:09:20Z</time>
      </trkpt>
      <trkpt lat="42.25424" lon="8.92489">
        <ele>1859.4</ele>
        <time>2015-06-27T07:09:22Z</time>
      </trkpt>
      <trkpt lat="42.25426" lon="8.92483">
        <ele>1858.4</ele>
        <time>2015-06-27T07:09:27Z</time>
      </trkpt>
      <trkpt lat="42.25427" lon="8.92469">
        <ele>1856.8</ele>
        <time>2015-06-27T07:09:36Z</time>
      </trkpt>
      <trkpt lat="42.25429" lon="8.92461">
        <ele>1856.2</ele>
        <time>2015-06-27T07:09:42Z</time>
      </trkpt>
      <trkpt lat="42.25433" lon="8.92443">
        <ele>1854.2</ele>
        <time>2015-06-27T07:09:54Z</time>
      </trkpt>
      <trkpt lat="42.25435" lon="8.92429">
        <ele>1853.6</ele>
        <time>2015-06-27T07:10:03Z</time>
      </trkpt>
      <trkpt lat="42.25435" lon="8.92417">
        <ele>1852.6</ele>
        <time>2015-06-27T07:10:10Z</time>
      </trkpt>
      <trkpt lat="42.25435" lon="8.92405">
        <ele>1851.4</ele>
        <time>2015-06-27T07:10:18Z</time>
      </trkpt>
      <trkpt lat="42.25436" lon="8.92398">
        <ele>1850.8</ele>
        <time>2015-06-27T07:10:23Z</time>
      </trkpt>
      <trkpt lat="42.25438" lon="8.92392">
        <ele>1849.4</ele>
        <time>2015-06-27T07:10:28Z</time>
      </trkpt>
      <trkpt lat="42.25443" lon="8.92375">
        <ele>1847.8</ele>
        <time>2015-06-27T07:10:39Z</time>
      </trkpt>
      <trkpt lat="42.25445" lon="8.92365">
        <ele>1847.4</ele>
        <time>2015-06-27T07:10:46Z</time>
      </trkpt>
      <trkpt lat="42.25447" lon="8.92359">
        <ele>1847</ele>
        <time>2015-06-27T07:10:51Z</time>
      </trkpt>
      <trkpt lat="42.25447" lon="8.92352">
        <ele>1846.8</ele>
        <time>2015-06-27T07:10:56Z</time>
      </trkpt>
      <trkpt lat="42.25447" lon="8.92351">
        <ele>1846.6</ele>
        <time>2015-06-27T07:10:57Z</time>
      </trkpt>
      <trkpt lat="42.25448" lon="8.9235">
        <ele>1846.6</ele>
        <time>2015-06-27T07:10:58Z</time>
      </trkpt>
      <trkpt lat="42.25449" lon="8.92346">
        <ele>1846.2</ele>
        <time>2015-06-27T07:11:02Z</time>
      </trkpt>
      <trkpt lat="42.25451" lon="8.92343">
        <ele>1845.6</ele>
        <time>2015-06-27T07:11:06Z</time>
      </trkpt>
      <trkpt lat="42.25451" lon="8.92335">
        <ele>1845</ele>
        <time>2015-06-27T07:11:13Z</time>
      </trkpt>
      <trkpt lat="42.25452" lon="8.92322">
        <ele>1843.8</ele>
        <time>2015-06-27T07:11:22Z</time>
      </trkpt>
      <trkpt lat="42.25455" lon="8.92309">
        <ele>1842.6</ele>
        <time>2015-06-27T07:11:32Z</time>
      </trkpt>
      <trkpt lat="42.25457" lon="8.92304">
        <ele>1842.4</ele>
        <time>2015-06-27T07:11:36Z</time>
      </trkpt>
      <trkpt lat="42.25458" lon="8.92297">
        <ele>1842.2</ele>
        <time>2015-06-27T07:11:41Z</time>
      </trkpt>
      <trkpt lat="42.25458" lon="8.92295">
        <ele>1842</ele>
        <time>2015-06-27T07:11:43Z</time>
      </trkpt>
      <trkpt lat="42.2546" lon="8.9229">
        <ele>1841.6</ele>
        <time>2015-06-27T07:11:48Z</time>
      </trkpt>
      <trkpt lat="42.25466" lon="8.92272">
        <ele>1840.4</ele>
        <time>2015-06-27T07:12:08Z</time>
      </trkpt>
      <trkpt lat="42.25468" lon="8.92266">
        <ele>1840</ele>
        <time>2015-06-27T07:12:13Z</time>
      </trkpt>
      <trkpt lat="42.25471" lon="8.92258">
        <ele>1839.4</ele>
        <time>2015-06-27T07:12:21Z</time>
      </trkpt>
      <trkpt lat="42.25472" lon="8.92254">
        <ele>1839.2</ele>
        <time>2015-06-27T07:12:24Z</time>
      </trkpt>
      <trkpt lat="42.25472" lon="8.92253">
        <ele>1839.2</ele>
        <time>2015-06-27T07:12:25Z</time>
      </trkpt>
      <trkpt lat="42.25477" lon="8.92238">
        <ele>1838.4</ele>
        <time>2015-06-27T07:12:40Z</time>
      </trkpt>
      <trkpt lat="42.25481" lon="8.92226">
        <ele>1837.6</ele>
        <time>2015-06-27T07:12:49Z</time>
      </trkpt>
      <trkpt lat="42.25482" lon="8.9221">
        <ele>1837.2</ele>
        <time>2015-06-27T07:13:00Z</time>
      </trkpt>
      <trkpt lat="42.25484" lon="8.92196">
        <ele>1836.4</ele>
        <time>2015-06-27T07:13:11Z</time>
      </trkpt>
      <trkpt lat="42.25485" lon="8.9219">
        <ele>1836</ele>
        <time>2015-06-27T07:13:21Z</time>
      </trkpt>
      <trkpt lat="42.25493" lon="8.92177">
        <ele>1834.8</ele>
        <time>2015-06-27T07:13:33Z</time>
      </trkpt>
      <trkpt lat="42.25494" lon="8.92175">
        <ele>1834.8</ele>
        <time>2015-06-27T07:13:35Z</time>
      </trkpt>
      <trkpt lat="42.25504" lon="8.92159">
        <ele>1833.8</ele>
        <time>2015-06-27T07:14:31Z</time>
      </trkpt>
      <trkpt lat="42.25507" lon="8.92153">
        <ele>1833.2</ele>
        <time>2015-06-27T07:14:39Z</time>
      </trkpt>
      <trkpt lat="42.25511" lon="8.92146">
        <ele>1832.2</ele>
        <time>2015-06-27T07:14:47Z</time>
      </trkpt>
      <trkpt lat="42.25515" lon="8.92136">
        <ele>1831.6</ele>
        <time>2015-06-27T07:14:57Z</time>
      </trkpt>
      <trkpt lat="42.25526" lon="8.92121">
        <ele>1832.2</ele>
        <time>2015-06-27T07:15:17Z</time>
      </trkpt>
      <trkpt lat="42.25528" lon="8.92113">
        <ele>1832</ele>
        <time>2015-06-27T07:15:27Z</time>
      </trkpt>
      <trkpt lat="42.2553" lon="8.92103">
        <ele>1831</ele>
        <time>2015-06-27T07:15:35Z</time>
      </trkpt>
      <trkpt lat="42.2553" lon="8.921">
        <ele>1830.6</ele>
        <time>2015-06-27T07:15:38Z</time>
      </trkpt>
      <trkpt lat="42.25531" lon="8.92093">
        <ele>1829.6</ele>
        <time>2015-06-27T07:15:45Z</time>
      </trkpt>
      <trkpt lat="42.25533" lon="8.92079">
        <ele>1828.6</ele>
        <time>2015-06-27T07:15:59Z</time>
      </trkpt>
      <trkpt lat="42.25535" lon="8.92065">
        <ele>1827.6</ele>
        <time>2015-06-27T07:16:10Z</time>
      </trkpt>
      <trkpt lat="42.25536" lon="8.92051">
        <ele>1826.6</ele>
        <time>2015-06-27T07:16:19Z</time>
      </trkpt>
      <trkpt lat="42.25537" lon="8.92039">
        <ele>1826.2</ele>
        <time>2015-06-27T07:16:29Z</time>
      </trkpt>
      <trkpt lat="42.25539" lon="8.92036">
        <ele>1826.2</ele>
        <time>2015-06-27T07:16:33Z</time>
      </trkpt>
      <trkpt lat="42.2555" lon="8.92002">
        <ele>1827.4</ele>
        <time>2015-06-27T07:17:08Z</time>
      </trkpt>
      <trkpt lat="42.25555" lon="8.91997">
        <ele>1828.4</ele>
        <time>2015-06-27T07:17:24Z</time>
      </trkpt>
      <trkpt lat="42.25552" lon="8.91975">
        <ele>1829.4</ele>
        <time>2015-06-27T07:18:06Z</time>
      </trkpt>
      <trkpt lat="42.25555" lon="8.91963">
        <ele>1828.8</ele>
        <time>2015-06-27T07:18:16Z</time>
      </trkpt>
      <trkpt lat="42.25555" lon="8.91961">
        <ele>1828.6</ele>
        <time>2015-06-27T07:18:17Z</time>
      </trkpt>
      <trkpt lat="42.25557" lon="8.91941">
        <ele>1827.4</ele>
        <time>2015-06-27T07:18:33Z</time>
      </trkpt>
      <trkpt lat="42.25559" lon="8.91932">
        <ele>1826.8</ele>
        <time>2015-06-27T07:18:40Z</time>
      </trkpt>
      <trkpt lat="42.25558" lon="8.91916">
        <ele>1825.6</ele>
        <time>2015-06-27T07:18:51Z</time>
      </trkpt>
      <trkpt lat="42.2556" lon="8.91889">
        <ele>1824</ele>
        <time>2015-06-27T07:19:15Z</time>
      </trkpt>
      <trkpt lat="42.25561" lon="8.91873">
        <ele>1823.6</ele>
        <time>2015-06-27T07:19:27Z</time>
      </trkpt>
      <trkpt lat="42.25561" lon="8.91867">
        <ele>1823.4</ele>
        <time>2015-06-27T07:19:32Z</time>
      </trkpt>
      <trkpt lat="42.25561" lon="8.91865">
        <ele>1823.2</ele>
        <time>2015-06-27T07:19:33Z</time>
      </trkpt>
      <trkpt lat="42.25561" lon="8.91853">
        <ele>1822.4</ele>
        <time>2015-06-27T07:19:44Z</time>
      </trkpt>
      <trkpt lat="42.2556" lon="8.91846">
        <ele>1821.2</ele>
        <time>2015-06-27T07:20:00Z</time>
      </trkpt>
      <trkpt lat="42.2556" lon="8.91826">
        <ele>1820.2</ele>
        <time>2015-06-27T07:20:37Z</time>
      </trkpt>
      <trkpt lat="42.25566" lon="8.91817">
        <ele>1819.6</ele>
        <time>2015-06-27T07:20:46Z</time>
      </trkpt>
      <trkpt lat="42.25577" lon="8.91812">
        <ele>1818.4</ele>
        <time>2015-06-27T07:21:04Z</time>
      </trkpt>
      <trkpt lat="42.25571" lon="8.91805">
        <ele>1817.2</ele>
        <time>2015-06-27T07:21:22Z</time>
      </trkpt>
      <trkpt lat="42.25566" lon="8.91803">
        <ele>1816.8</ele>
        <time>2015-06-27T07:21:27Z</time>
      </trkpt>
      <trkpt lat="42.25563" lon="8.91803">
        <ele>1816.6</ele>
        <time>2015-06-27T07:21:30Z</time>
      </trkpt>
      <trkpt lat="42.25554" lon="8.91809">
        <ele>1815.4</ele>
        <time>2015-06-27T07:21:40Z</time>
      </trkpt>
      <trkpt lat="42.25551" lon="8.91809">
        <ele>1815</ele>
        <time>2015-06-27T07:21:44Z</time>
      </trkpt>
      <trkpt lat="42.25552" lon="8.91807">
        <ele>1814.6</ele>
        <time>2015-06-27T07:21:47Z</time>
      </trkpt>
      <trkpt lat="42.25558" lon="8.91796">
        <ele>1813</ele>
        <time>2015-06-27T07:21:57Z</time>
      </trkpt>
      <trkpt lat="42.25563" lon="8.91787">
        <ele>1812</ele>
        <time>2015-06-27T07:22:06Z</time>
      </trkpt>
      <trkpt lat="42.25568" lon="8.91782">
        <ele>1811.2</ele>
        <time>2015-06-27T07:22:15Z</time>
      </trkpt>
      <trkpt lat="42.25567" lon="8.91778">
        <ele>1810.4</ele>
        <time>2015-06-27T07:22:21Z</time>
      </trkpt>
      <trkpt lat="42.2556" lon="8.91778">
        <ele>1809.4</ele>
        <time>2015-06-27T07:22:30Z</time>
      </trkpt>
      <trkpt lat="42.25559" lon="8.91775">
        <ele>1808</ele>
        <time>2015-06-27T07:22:39Z</time>
      </trkpt>
      <trkpt lat="42.2556" lon="8.91769">
        <ele>1807</ele>
        <time>2015-06-27T07:22:46Z</time>
      </trkpt>
      <trkpt lat="42.25556" lon="8.91768">
        <ele>1805.6</ele>
        <time>2015-06-27T07:22:58Z</time>
      </trkpt>
      <trkpt lat="42.25553" lon="8.91768">
        <ele>1804.4</ele>
        <time>2015-06-27T07:23:08Z</time>
      </trkpt>
      <trkpt lat="42.25548" lon="8.91771">
        <ele>1804</ele>
        <time>2015-06-27T07:23:14Z</time>
      </trkpt>
      <trkpt lat="42.25543" lon="8.91777">
        <ele>1802.6</ele>
        <time>2015-06-27T07:23:21Z</time>
      </trkpt>
      <trkpt lat="42.2554" lon="8.91778">
        <ele>1802</ele>
        <time>2015-06-27T07:23:27Z</time>
      </trkpt>
      <trkpt lat="42.25542" lon="8.91773">
        <ele>1800.8</ele>
        <time>2015-06-27T07:23:34Z</time>
      </trkpt>
      <trkpt lat="42.25544" lon="8.91762">
        <ele>1799.2</ele>
        <time>2015-06-27T07:23:44Z</time>
      </trkpt>
      <trkpt lat="42.25546" lon="8.91748">
        <ele>1798.4</ele>
        <time>2015-06-27T07:23:58Z</time>
      </trkpt>
      <trkpt lat="42.25545" lon="8.91743">
        <ele>1797.2</ele>
        <time>2015-06-27T07:24:07Z</time>
      </trkpt>
      <trkpt lat="42.25543" lon="8.9174">
        <ele>1796.6</ele>
        <time>2015-06-27T07:24:20Z</time>
      </trkpt>
      <trkpt lat="42.25539" lon="8.91747">
        <ele>1795.4</ele>
        <time>2015-06-27T07:24:28Z</time>
      </trkpt>
      <trkpt lat="42.25539" lon="8.91747">
        <ele>1795</ele>
        <time>2015-06-27T07:24:29Z</time>
      </trkpt>
      <trkpt lat="42.25536" lon="8.91748">
        <ele>1794.6</ele>
        <time>2015-06-27T07:24:34Z</time>
      </trkpt>
      <trkpt lat="42.25534" lon="8.91743">
        <ele>1793.8</ele>
        <time>2015-06-27T07:24:39Z</time>
      </trkpt>
      <trkpt lat="42.25534" lon="8.91737">
        <ele>1792.6</ele>
        <time>2015-06-27T07:24:45Z</time>
      </trkpt>
      <trkpt lat="42.25534" lon="8.91732">
        <ele>1791.6</ele>
        <time>2015-06-27T07:24:50Z</time>
      </trkpt>
      <trkpt lat="42.25533" lon="8.91728">
        <ele>1790.8</ele>
        <time>2015-06-27T07:24:56Z</time>
      </trkpt>
      <trkpt lat="42.25533" lon="8.91728">
        <ele>1790</ele>
        <time>2015-06-27T07:25:05Z</time>
      </trkpt>
      <trkpt lat="42.25533" lon="8.91717">
        <ele>1789.8</ele>
        <time>2015-06-27T07:25:26Z</time>
      </trkpt>
      <trkpt lat="42.25533" lon="8.91707">
        <ele>1789</ele>
        <time>2015-06-27T07:25:33Z</time>
      </trkpt>
      <trkpt lat="42.25533" lon="8.91704">
        <ele>1789</ele>
        <time>2015-06-27T07:25:35Z</time>
      </trkpt>
      <trkpt lat="42.25535" lon="8.91691">
        <ele>1788</ele>
        <time>2015-06-27T07:25:44Z</time>
      </trkpt>
      <trkpt lat="42.25533" lon="8.91683">
        <ele>1787.4</ele>
        <time>2015-06-27T07:25:51Z</time>
      </trkpt>
      <trkpt lat="42.25533" lon="8.91677">
        <ele>1786.4</ele>
        <time>2015-06-27T07:26:02Z</time>
      </trkpt>
      <trkpt lat="42.25532" lon="8.91666">
        <ele>1786</ele>
        <time>2015-06-27T07:26:10Z</time>
      </trkpt>
      <trkpt lat="42.25531" lon="8.91662">
        <ele>1785.8</ele>
        <time>2015-06-27T07:26:13Z</time>
      </trkpt>
      <trkpt lat="42.25531" lon="8.91659">
        <ele>1785.4</ele>
        <time>2015-06-27T07:26:15Z</time>
      </trkpt>
      <trkpt lat="42.2553" lon="8.91627">
        <ele>1786</ele>
        <time>2015-06-27T07:26:57Z</time>
      </trkpt>
      <trkpt lat="42.25532" lon="8.91625">
        <ele>1787</ele>
        <time>2015-06-27T07:27:07Z</time>
      </trkpt>
      <trkpt lat="42.25531" lon="8.91621">
        <ele>1787.6</ele>
        <time>2015-06-27T07:27:13Z</time>
      </trkpt>
      <trkpt lat="42.25532" lon="8.91616">
        <ele>1789.8</ele>
        <time>2015-06-27T07:27:26Z</time>
      </trkpt>
      <trkpt lat="42.2553" lon="8.91611">
        <ele>1790.4</ele>
        <time>2015-06-27T07:27:36Z</time>
      </trkpt>
      <trkpt lat="42.25529" lon="8.91599">
        <ele>1791.6</ele>
        <time>2015-06-27T07:27:50Z</time>
      </trkpt>
      <trkpt lat="42.25528" lon="8.91593">
        <ele>1792.2</ele>
        <time>2015-06-27T07:27:59Z</time>
      </trkpt>
      <trkpt lat="42.25528" lon="8.91587">
        <ele>1793.2</ele>
        <time>2015-06-27T07:28:06Z</time>
      </trkpt>
      <trkpt lat="42.25529" lon="8.91583">
        <ele>1794.8</ele>
        <time>2015-06-27T07:28:17Z</time>
      </trkpt>
      <trkpt lat="42.25532" lon="8.91586">
        <ele>1796</ele>
        <time>2015-06-27T07:28:27Z</time>
      </trkpt>
      <trkpt lat="42.25533" lon="8.9159">
        <ele>1797</ele>
        <time>2015-06-27T07:28:37Z</time>
      </trkpt>
      <trkpt lat="42.25535" lon="8.91595">
        <ele>1798.2</ele>
        <time>2015-06-27T07:28:47Z</time>
      </trkpt>
      <trkpt lat="42.25537" lon="8.91591">
        <ele>1799.6</ele>
        <time>2015-06-27T07:28:59Z</time>
      </trkpt>
      <trkpt lat="42.25537" lon="8.9158">
        <ele>1800.8</ele>
        <time>2015-06-27T07:29:12Z</time>
      </trkpt>
      <trkpt lat="42.25542" lon="8.91561">
        <ele>1800.8</ele>
        <time>2015-06-27T07:29:44Z</time>
      </trkpt>
      <trkpt lat="42.25534" lon="8.91531">
        <ele>1799.4</ele>
        <time>2015-06-27T07:30:08Z</time>
      </trkpt>
      <trkpt lat="42.25533" lon="8.91519">
        <ele>1799</ele>
        <time>2015-06-27T07:30:17Z</time>
      </trkpt>
      <trkpt lat="42.25531" lon="8.91512">
        <ele>1798</ele>
        <time>2015-06-27T07:30:24Z</time>
      </trkpt>
      <trkpt lat="42.25531" lon="8.91511">
        <ele>1797.8</ele>
        <time>2015-06-27T07:30:25Z</time>
      </trkpt>
      <trkpt lat="42.25531" lon="8.91507">
        <ele>1797.2</ele>
        <time>2015-06-27T07:30:31Z</time>
      </trkpt>
      <trkpt lat="42.25531" lon="8.91503">
        <ele>1796.2</ele>
        <time>2015-06-27T07:30:36Z</time>
      </trkpt>
      <trkpt lat="42.25532" lon="8.91496">
        <ele>1794.8</ele>
        <time>2015-06-27T07:30:42Z</time>
      </trkpt>
      <trkpt lat="42.25532" lon="8.91491">
        <ele>1793.8</ele>
        <time>2015-06-27T07:30:48Z</time>
      </trkpt>
      <trkpt lat="42.25529" lon="8.91478">
        <ele>1792.6</ele>
        <time>2015-06-27T07:31:00Z</time>
      </trkpt>
      <trkpt lat="42.25527" lon="8.91468">
        <ele>1791.6</ele>
        <time>2015-06-27T07:31:08Z</time>
      </trkpt>
      <trkpt lat="42.25526" lon="8.9146">
        <ele>1790.4</ele>
        <time>2015-06-27T07:31:16Z</time>
      </trkpt>
      <trkpt lat="42.25526" lon="8.91453">
        <ele>1789.6</ele>
        <time>2015-06-27T07:31:22Z</time>
      </trkpt>
      <trkpt lat="42.25525" lon="8.91446">
        <ele>1788.2</ele>
        <time>2015-06-27T07:31:29Z</time>
      </trkpt>
      <trkpt lat="42.25523" lon="8.91437">
        <ele>1787.2</ele>
        <time>2015-06-27T07:31:37Z</time>
      </trkpt>
      <trkpt lat="42.25521" lon="8.9143">
        <ele>1786.6</ele>
        <time>2015-06-27T07:31:43Z</time>
      </trkpt>
      <trkpt lat="42.2552" lon="8.91426">
        <ele>1786</ele>
        <time>2015-06-27T07:31:46Z</time>
      </trkpt>
      <trkpt lat="42.2552" lon="8.91424">
        <ele>1785.6</ele>
        <time>2015-06-27T07:31:49Z</time>
      </trkpt>
      <trkpt lat="42.2552" lon="8.91417">
        <ele>1784.4</ele>
        <time>2015-06-27T07:31:56Z</time>
      </trkpt>
      <trkpt lat="42.25519" lon="8.9141">
        <ele>1783.4</ele>
        <time>2015-06-27T07:32:02Z</time>
      </trkpt>
      <trkpt lat="42.25518" lon="8.91402">
        <ele>1782.4</ele>
        <time>2015-06-27T07:32:09Z</time>
      </trkpt>
      <trkpt lat="42.25516" lon="8.91393">
        <ele>1781.2</ele>
        <time>2015-06-27T07:32:16Z</time>
      </trkpt>
      <trkpt lat="42.25516" lon="8.91389">
        <ele>1780.6</ele>
        <time>2015-06-27T07:32:19Z</time>
      </trkpt>
      <trkpt lat="42.25516" lon="8.91385">
        <ele>1780.2</ele>
        <time>2015-06-27T07:32:22Z</time>
      </trkpt>
      <trkpt lat="42.25515" lon="8.91374">
        <ele>1779</ele>
        <time>2015-06-27T07:32:30Z</time>
      </trkpt>
      <trkpt lat="42.25514" lon="8.91359">
        <ele>1778</ele>
        <time>2015-06-27T07:32:39Z</time>
      </trkpt>
      <trkpt lat="42.25514" lon="8.91351">
        <ele>1777.4</ele>
        <time>2015-06-27T07:32:44Z</time>
      </trkpt>
      <trkpt lat="42.25517" lon="8.91343">
        <ele>1776.8</ele>
        <time>2015-06-27T07:32:49Z</time>
      </trkpt>
      <trkpt lat="42.25517" lon="8.91341">
        <ele>1776.6</ele>
        <time>2015-06-27T07:32:51Z</time>
      </trkpt>
      <trkpt lat="42.25518" lon="8.91323">
        <ele>1775.8</ele>
        <time>2015-06-27T07:33:03Z</time>
      </trkpt>
      <trkpt lat="42.25517" lon="8.9132">
        <ele>1775.6</ele>
        <time>2015-06-27T07:33:05Z</time>
      </trkpt>
      <trkpt lat="42.25519" lon="8.91295">
        <ele>1774.6</ele>
        <time>2015-06-27T07:33:22Z</time>
      </trkpt>
      <trkpt lat="42.25522" lon="8.91272">
        <ele>1774</ele>
        <time>2015-06-27T07:33:37Z</time>
      </trkpt>
      <trkpt lat="42.25522" lon="8.91267">
        <ele>1773.8</ele>
        <time>2015-06-27T07:33:40Z</time>
      </trkpt>
      <trkpt lat="42.25529" lon="8.91229">
        <ele>1772.8</ele>
        <time>2015-06-27T07:34:06Z</time>
      </trkpt>
      <trkpt lat="42.25532" lon="8.91218">
        <ele>1772.2</ele>
        <time>2015-06-27T07:34:14Z</time>
      </trkpt>
      <trkpt lat="42.25534" lon="8.91204">
        <ele>1772</ele>
        <time>2015-06-27T07:34:23Z</time>
      </trkpt>
      <trkpt lat="42.25535" lon="8.91196">
        <ele>1771.4</ele>
        <time>2015-06-27T07:34:29Z</time>
      </trkpt>
      <trkpt lat="42.25539" lon="8.91178">
        <ele>1770.6</ele>
        <time>2015-06-27T07:34:42Z</time>
      </trkpt>
      <trkpt lat="42.25543" lon="8.91159">
        <ele>1770</ele>
        <time>2015-06-27T07:34:55Z</time>
      </trkpt>
      <trkpt lat="42.25543" lon="8.91158">
        <ele>1769.8</ele>
        <time>2015-06-27T07:34:56Z</time>
      </trkpt>
      <trkpt lat="42.25547" lon="8.91142">
        <ele>1769.2</ele>
        <time>2015-06-27T07:35:09Z</time>
      </trkpt>
      <trkpt lat="42.25546" lon="8.91126">
        <ele>1768.2</ele>
        <time>2015-06-27T07:35:24Z</time>
      </trkpt>
      <trkpt lat="42.25546" lon="8.91115">
        <ele>1767.6</ele>
        <time>2015-06-27T07:35:32Z</time>
      </trkpt>
      <trkpt lat="42.25545" lon="8.91109">
        <ele>1767.2</ele>
        <time>2015-06-27T07:35:36Z</time>
      </trkpt>
      <trkpt lat="42.25545" lon="8.91108">
        <ele>1767.2</ele>
        <time>2015-06-27T07:35:37Z</time>
      </trkpt>
      <trkpt lat="42.25545" lon="8.91106">
        <ele>1767.2</ele>
        <time>2015-06-27T07:35:39Z</time>
      </trkpt>
      <trkpt lat="42.25545" lon="8.91094">
        <ele>1766.4</ele>
        <time>2015-06-27T07:35:56Z</time>
      </trkpt>
      <trkpt lat="42.25545" lon="8.91087">
        <ele>1765.6</ele>
        <time>2015-06-27T07:36:02Z</time>
      </trkpt>
      <trkpt lat="42.25543" lon="8.91071">
        <ele>1764.2</ele>
        <time>2015-06-27T07:36:59Z</time>
      </trkpt>
      <trkpt lat="42.25536" lon="8.91053">
        <ele>1763.4</ele>
        <time>2015-06-27T07:37:12Z</time>
      </trkpt>
      <trkpt lat="42.25536" lon="8.9105">
        <ele>1763.2</ele>
        <time>2015-06-27T07:37:14Z</time>
      </trkpt>
      <trkpt lat="42.25535" lon="8.91048">
        <ele>1763.2</ele>
        <time>2015-06-27T07:37:16Z</time>
      </trkpt>
      <trkpt lat="42.25532" lon="8.9104">
        <ele>1762.8</ele>
        <time>2015-06-27T07:37:22Z</time>
      </trkpt>
      <trkpt lat="42.25532" lon="8.91038">
        <ele>1762.8</ele>
        <time>2015-06-27T07:37:24Z</time>
      </trkpt>
      <trkpt lat="42.25529" lon="8.91029">
        <ele>1762.4</ele>
        <time>2015-06-27T07:37:32Z</time>
      </trkpt>
      <trkpt lat="42.25528" lon="8.91028">
        <ele>1762.4</ele>
        <time>2015-06-27T07:37:33Z</time>
      </trkpt>
      <trkpt lat="42.25525" lon="8.91022">
        <ele>1761.8</ele>
        <time>2015-06-27T07:37:39Z</time>
      </trkpt>
      <trkpt lat="42.25523" lon="8.91019">
        <ele>1761.2</ele>
        <time>2015-06-27T07:37:42Z</time>
      </trkpt>
      <trkpt lat="42.25518" lon="8.91012">
        <ele>1760.6</ele>
        <time>2015-06-27T07:37:50Z</time>
      </trkpt>
      <trkpt lat="42.25516" lon="8.9101">
        <ele>1760.4</ele>
        <time>2015-06-27T07:37:52Z</time>
      </trkpt>
      <trkpt lat="42.25514" lon="8.91008">
        <ele>1760.2</ele>
        <time>2015-06-27T07:37:54Z</time>
      </trkpt>
      <trkpt lat="42.25502" lon="8.9098">
        <ele>1760</ele>
        <time>2015-06-27T07:38:18Z</time>
      </trkpt>
      <trkpt lat="42.25502" lon="8.90965">
        <ele>1758.2</ele>
        <time>2015-06-27T07:38:27Z</time>
      </trkpt>
      <trkpt lat="42.25502" lon="8.90957">
        <ele>1757.6</ele>
        <time>2015-06-27T07:38:34Z</time>
      </trkpt>
      <trkpt lat="42.25503" lon="8.90948">
        <ele>1756.2</ele>
        <time>2015-06-27T07:38:42Z</time>
      </trkpt>
      <trkpt lat="42.25502" lon="8.90924">
        <ele>1754.8</ele>
        <time>2015-06-27T07:38:59Z</time>
      </trkpt>
      <trkpt lat="42.25502" lon="8.9091">
        <ele>1754.2</ele>
        <time>2015-06-27T07:39:12Z</time>
      </trkpt>
      <trkpt lat="42.25504" lon="8.90901">
        <ele>1753.2</ele>
        <time>2015-06-27T07:39:21Z</time>
      </trkpt>
      <trkpt lat="42.25507" lon="8.90892">
        <ele>1752.6</ele>
        <time>2015-06-27T07:39:28Z</time>
      </trkpt>
      <trkpt lat="42.25511" lon="8.90876">
        <ele>1751.2</ele>
        <time>2015-06-27T07:39:46Z</time>
      </trkpt>
      <trkpt lat="42.25513" lon="8.90871">
        <ele>1750.8</ele>
        <time>2015-06-27T07:39:52Z</time>
      </trkpt>
      <trkpt lat="42.25516" lon="8.90863">
        <ele>1749.4</ele>
        <time>2015-06-27T07:40:00Z</time>
      </trkpt>
      <trkpt lat="42.25518" lon="8.90855">
        <ele>1748.4</ele>
        <time>2015-06-27T07:40:07Z</time>
      </trkpt>
      <trkpt lat="42.2552" lon="8.90843">
        <ele>1747.6</ele>
        <time>2015-06-27T07:40:16Z</time>
      </trkpt>
      <trkpt lat="42.25523" lon="8.90827">
        <ele>1747.2</ele>
        <time>2015-06-27T07:40:34Z</time>
      </trkpt>
      <trkpt lat="42.25525" lon="8.90822">
        <ele>1746.6</ele>
        <time>2015-06-27T07:40:43Z</time>
      </trkpt>
      <trkpt lat="42.25529" lon="8.90814">
        <ele>1745.4</ele>
        <time>2015-06-27T07:40:54Z</time>
      </trkpt>
      <trkpt lat="42.25532" lon="8.9081">
        <ele>1744.8</ele>
        <time>2015-06-27T07:40:59Z</time>
      </trkpt>
      <trkpt lat="42.25534" lon="8.90809">
        <ele>1743.2</ele>
        <time>2015-06-27T07:41:18Z</time>
      </trkpt>
      <trkpt lat="42.25537" lon="8.90803">
        <ele>1742.6</ele>
        <time>2015-06-27T07:41:35Z</time>
      </trkpt>
      <trkpt lat="42.25538" lon="8.90799">
        <ele>1742.4</ele>
        <time>2015-06-27T07:41:38Z</time>
      </trkpt>
      <trkpt lat="42.25538" lon="8.90798">
        <ele>1742.2</ele>
        <time>2015-06-27T07:41:39Z</time>
      </trkpt>
      <trkpt lat="42.25538" lon="8.90791">
        <ele>1740.6</ele>
        <time>2015-06-27T07:41:44Z</time>
      </trkpt>
      <trkpt lat="42.25538" lon="8.90785">
        <ele>1739.2</ele>
        <time>2015-06-27T07:41:50Z</time>
      </trkpt>
      <trkpt lat="42.25538" lon="8.90782">
        <ele>1738.8</ele>
        <time>2015-06-27T07:41:53Z</time>
      </trkpt>
      <trkpt lat="42.25539" lon="8.9078">
        <ele>1738.4</ele>
        <time>2015-06-27T07:41:55Z</time>
      </trkpt>
      <trkpt lat="42.2554" lon="8.90775">
        <ele>1737.4</ele>
        <time>2015-06-27T07:42:00Z</time>
      </trkpt>
      <trkpt lat="42.25541" lon="8.9077">
        <ele>1736</ele>
        <time>2015-06-27T07:42:07Z</time>
      </trkpt>
      <trkpt lat="42.25543" lon="8.90769">
        <ele>1735</ele>
        <time>2015-06-27T07:42:14Z</time>
      </trkpt>
      <trkpt lat="42.25543" lon="8.90762">
        <ele>1733.8</ele>
        <time>2015-06-27T07:42:32Z</time>
      </trkpt>
      <trkpt lat="42.25545" lon="8.90757">
        <ele>1732.8</ele>
        <time>2015-06-27T07:42:38Z</time>
      </trkpt>
      <trkpt lat="42.25544" lon="8.90749">
        <ele>1731.8</ele>
        <time>2015-06-27T07:42:44Z</time>
      </trkpt>
      <trkpt lat="42.2554" lon="8.90738">
        <ele>1730.6</ele>
        <time>2015-06-27T07:42:52Z</time>
      </trkpt>
      <trkpt lat="42.25536" lon="8.9073">
        <ele>1729.8</ele>
        <time>2015-06-27T07:42:58Z</time>
      </trkpt>
      <trkpt lat="42.25534" lon="8.90728">
        <ele>1729.6</ele>
        <time>2015-06-27T07:43:00Z</time>
      </trkpt>
      <trkpt lat="42.25534" lon="8.90726">
        <ele>1729.4</ele>
        <time>2015-06-27T07:43:02Z</time>
      </trkpt>
      <trkpt lat="42.25532" lon="8.90723">
        <ele>1729.2</ele>
        <time>2015-06-27T07:43:05Z</time>
      </trkpt>
      <trkpt lat="42.2553" lon="8.90714">
        <ele>1728.4</ele>
        <time>2015-06-27T07:43:15Z</time>
      </trkpt>
      <trkpt lat="42.25521" lon="8.90699">
        <ele>1726.8</ele>
        <time>2015-06-27T07:43:29Z</time>
      </trkpt>
      <trkpt lat="42.25519" lon="8.90691">
        <ele>1726.6</ele>
        <time>2015-06-27T07:43:35Z</time>
      </trkpt>
      <trkpt lat="42.25514" lon="8.90678">
        <ele>1725.2</ele>
        <time>2015-06-27T07:43:48Z</time>
      </trkpt>
      <trkpt lat="42.25511" lon="8.9067">
        <ele>1724.6</ele>
        <time>2015-06-27T07:43:55Z</time>
      </trkpt>
      <trkpt lat="42.25509" lon="8.90666">
        <ele>1723.6</ele>
        <time>2015-06-27T07:44:01Z</time>
      </trkpt>
      <trkpt lat="42.25511" lon="8.90665">
        <ele>1722.6</ele>
        <time>2015-06-27T07:44:07Z</time>
      </trkpt>
      <trkpt lat="42.25515" lon="8.90666">
        <ele>1721.4</ele>
        <time>2015-06-27T07:44:14Z</time>
      </trkpt>
      <trkpt lat="42.25519" lon="8.9067">
        <ele>1720.6</ele>
        <time>2015-06-27T07:44:19Z</time>
      </trkpt>
      <trkpt lat="42.25525" lon="8.90673">
        <ele>1719.6</ele>
        <time>2015-06-27T07:44:26Z</time>
      </trkpt>
      <trkpt lat="42.2553" lon="8.90676">
        <ele>1718.6</ele>
        <time>2015-06-27T07:44:32Z</time>
      </trkpt>
      <trkpt lat="42.25535" lon="8.9068">
        <ele>1717.4</ele>
        <time>2015-06-27T07:44:38Z</time>
      </trkpt>
      <trkpt lat="42.25545" lon="8.90699">
        <ele>1715.8</ele>
        <time>2015-06-27T07:45:00Z</time>
      </trkpt>
      <trkpt lat="42.25556" lon="8.90708">
        <ele>1714.8</ele>
        <time>2015-06-27T07:45:14Z</time>
      </trkpt>
      <trkpt lat="42.2556" lon="8.90712">
        <ele>1713.8</ele>
        <time>2015-06-27T07:45:22Z</time>
      </trkpt>
      <trkpt lat="42.25565" lon="8.90717">
        <ele>1713</ele>
        <time>2015-06-27T07:45:30Z</time>
      </trkpt>
      <trkpt lat="42.25573" lon="8.90723">
        <ele>1712</ele>
        <time>2015-06-27T07:45:40Z</time>
      </trkpt>
      <trkpt lat="42.25581" lon="8.90733">
        <ele>1710.8</ele>
        <time>2015-06-27T07:45:53Z</time>
      </trkpt>
      <trkpt lat="42.25583" lon="8.90737">
        <ele>1710.2</ele>
        <time>2015-06-27T07:46:39Z</time>
      </trkpt>
      <trkpt lat="42.25589" lon="8.90741">
        <ele>1709.4</ele>
        <time>2015-06-27T07:46:49Z</time>
      </trkpt>
      <trkpt lat="42.25591" lon="8.90736">
        <ele>1708.8</ele>
        <time>2015-06-27T07:46:55Z</time>
      </trkpt>
      <trkpt lat="42.25591" lon="8.90729">
        <ele>1707.6</ele>
        <time>2015-06-27T07:47:02Z</time>
      </trkpt>
      <trkpt lat="42.25591" lon="8.90722">
        <ele>1706.4</ele>
        <time>2015-06-27T07:47:10Z</time>
      </trkpt>
      <trkpt lat="42.2559" lon="8.90714">
        <ele>1705.4</ele>
        <time>2015-06-27T07:47:19Z</time>
      </trkpt>
      <trkpt lat="42.25588" lon="8.90707">
        <ele>1704.8</ele>
        <time>2015-06-27T07:47:25Z</time>
      </trkpt>
      <trkpt lat="42.25585" lon="8.907">
        <ele>1703.6</ele>
        <time>2015-06-27T07:47:31Z</time>
      </trkpt>
      <trkpt lat="42.25582" lon="8.90693">
        <ele>1702.4</ele>
        <time>2015-06-27T07:47:38Z</time>
      </trkpt>
      <trkpt lat="42.25576" lon="8.90685">
        <ele>1701.4</ele>
        <time>2015-06-27T07:47:46Z</time>
      </trkpt>
      <trkpt lat="42.25568" lon="8.90675">
        <ele>1700</ele>
        <time>2015-06-27T07:47:56Z</time>
      </trkpt>
      <trkpt lat="42.25563" lon="8.90664">
        <ele>1698.8</ele>
        <time>2015-06-27T07:48:07Z</time>
      </trkpt>
      <trkpt lat="42.25563" lon="8.90664">
        <ele>1698.6</ele>
        <time>2015-06-27T07:48:09Z</time>
      </trkpt>
      <trkpt lat="42.25563" lon="8.90657">
        <ele>1698.4</ele>
        <time>2015-06-27T07:48:16Z</time>
      </trkpt>
      <trkpt lat="42.25563" lon="8.90653">
        <ele>1698.2</ele>
        <time>2015-06-27T07:48:19Z</time>
      </trkpt>
      <trkpt lat="42.25563" lon="8.90647">
        <ele>1696.6</ele>
        <time>2015-06-27T07:48:24Z</time>
      </trkpt>
      <trkpt lat="42.25564" lon="8.90646">
        <ele>1696.2</ele>
        <time>2015-06-27T07:48:25Z</time>
      </trkpt>
      <trkpt lat="42.25565" lon="8.90643">
        <ele>1695.6</ele>
        <time>2015-06-27T07:48:28Z</time>
      </trkpt>
      <trkpt lat="42.25566" lon="8.90638">
        <ele>1694.8</ele>
        <time>2015-06-27T07:48:32Z</time>
      </trkpt>
      <trkpt lat="42.25567" lon="8.90633">
        <ele>1693.2</ele>
        <time>2015-06-27T07:48:37Z</time>
      </trkpt>
      <trkpt lat="42.25571" lon="8.9063">
        <ele>1692.2</ele>
        <time>2015-06-27T07:48:42Z</time>
      </trkpt>
      <trkpt lat="42.25573" lon="8.90631">
        <ele>1691.4</ele>
        <time>2015-06-27T07:48:46Z</time>
      </trkpt>
      <trkpt lat="42.25574" lon="8.90628">
        <ele>1690.2</ele>
        <time>2015-06-27T07:48:50Z</time>
      </trkpt>
      <trkpt lat="42.25577" lon="8.90624">
        <ele>1688.4</ele>
        <time>2015-06-27T07:48:57Z</time>
      </trkpt>
      <trkpt lat="42.25579" lon="8.90624">
        <ele>1687.6</ele>
        <time>2015-06-27T07:49:01Z</time>
      </trkpt>
      <trkpt lat="42.25583" lon="8.90634">
        <ele>1685.8</ele>
        <time>2015-06-27T07:49:13Z</time>
      </trkpt>
      <trkpt lat="42.2559" lon="8.90647">
        <ele>1685</ele>
        <time>2015-06-27T07:49:24Z</time>
      </trkpt>
      <trkpt lat="42.25594" lon="8.90654">
        <ele>1684.2</ele>
        <time>2015-06-27T07:49:30Z</time>
      </trkpt>
      <trkpt lat="42.25596" lon="8.90652">
        <ele>1683</ele>
        <time>2015-06-27T07:49:37Z</time>
      </trkpt>
      <trkpt lat="42.25594" lon="8.90643">
        <ele>1682</ele>
        <time>2015-06-27T07:49:44Z</time>
      </trkpt>
      <trkpt lat="42.25594" lon="8.90636">
        <ele>1681</ele>
        <time>2015-06-27T07:49:50Z</time>
      </trkpt>
      <trkpt lat="42.25594" lon="8.90627">
        <ele>1679.8</ele>
        <time>2015-06-27T07:49:57Z</time>
      </trkpt>
      <trkpt lat="42.25594" lon="8.90614">
        <ele>1678.4</ele>
        <time>2015-06-27T07:50:08Z</time>
      </trkpt>
      <trkpt lat="42.25598" lon="8.90598">
        <ele>1677.6</ele>
        <time>2015-06-27T07:50:23Z</time>
      </trkpt>
      <trkpt lat="42.25598" lon="8.90591">
        <ele>1677.2</ele>
        <time>2015-06-27T07:50:29Z</time>
      </trkpt>
      <trkpt lat="42.25597" lon="8.90581">
        <ele>1675.6</ele>
        <time>2015-06-27T07:50:37Z</time>
      </trkpt>
      <trkpt lat="42.25598" lon="8.9057">
        <ele>1674.8</ele>
        <time>2015-06-27T07:50:45Z</time>
      </trkpt>
      <trkpt lat="42.25598" lon="8.90561">
        <ele>1673.6</ele>
        <time>2015-06-27T07:50:53Z</time>
      </trkpt>
      <trkpt lat="42.25597" lon="8.90544">
        <ele>1672.2</ele>
        <time>2015-06-27T07:51:06Z</time>
      </trkpt>
      <trkpt lat="42.25598" lon="8.90535">
        <ele>1671.6</ele>
        <time>2015-06-27T07:51:14Z</time>
      </trkpt>
      <trkpt lat="42.25596" lon="8.90524">
        <ele>1670.6</ele>
        <time>2015-06-27T07:51:22Z</time>
      </trkpt>
      <trkpt lat="42.256" lon="8.90513">
        <ele>1669.4</ele>
        <time>2015-06-27T07:51:34Z</time>
      </trkpt>
      <trkpt lat="42.25603" lon="8.90504">
        <ele>1668.4</ele>
        <time>2015-06-27T07:51:42Z</time>
      </trkpt>
      <trkpt lat="42.25606" lon="8.90498">
        <ele>1667.4</ele>
        <time>2015-06-27T07:51:49Z</time>
      </trkpt>
      <trkpt lat="42.25609" lon="8.90484">
        <ele>1666.2</ele>
        <time>2015-06-27T07:52:07Z</time>
      </trkpt>
      <trkpt lat="42.25614" lon="8.90463">
        <ele>1665.2</ele>
        <time>2015-06-27T07:52:25Z</time>
      </trkpt>
      <trkpt lat="42.25614" lon="8.90413">
        <ele>1664.6</ele>
        <time>2015-06-27T07:53:33Z</time>
      </trkpt>
      <trkpt lat="42.25619" lon="8.90408">
        <ele>1664.2</ele>
        <time>2015-06-27T07:53:40Z</time>
      </trkpt>
      <trkpt lat="42.25626" lon="8.90401">
        <ele>1663</ele>
        <time>2015-06-27T07:53:48Z</time>
      </trkpt>
      <trkpt lat="42.25631" lon="8.90394">
        <ele>1662.2</ele>
        <time>2015-06-27T07:53:55Z</time>
      </trkpt>
      <trkpt lat="42.25635" lon="8.90391">
        <ele>1661.6</ele>
        <time>2015-06-27T07:54:00Z</time>
      </trkpt>
      <trkpt lat="42.25639" lon="8.90388">
        <ele>1660.4</ele>
        <time>2015-06-27T07:54:05Z</time>
      </trkpt>
      <trkpt lat="42.25642" lon="8.90379">
        <ele>1658.6</ele>
        <time>2015-06-27T07:54:15Z</time>
      </trkpt>
      <trkpt lat="42.25646" lon="8.90374">
        <ele>1658</ele>
        <time>2015-06-27T07:54:22Z</time>
      </trkpt>
      <trkpt lat="42.25649" lon="8.90367">
        <ele>1657</ele>
        <time>2015-06-27T07:54:29Z</time>
      </trkpt>
      <trkpt lat="42.25654" lon="8.90359">
        <ele>1656.2</ele>
        <time>2015-06-27T07:54:37Z</time>
      </trkpt>
      <trkpt lat="42.25665" lon="8.90349">
        <ele>1655</ele>
        <time>2015-06-27T07:54:51Z</time>
      </trkpt>
      <trkpt lat="42.25671" lon="8.90347">
        <ele>1654.2</ele>
        <time>2015-06-27T07:54:57Z</time>
      </trkpt>
      <trkpt lat="42.25679" lon="8.90341">
        <ele>1652.6</ele>
        <time>2015-06-27T07:55:06Z</time>
      </trkpt>
      <trkpt lat="42.25699" lon="8.90324">
        <ele>1651.4</ele>
        <time>2015-06-27T07:55:25Z</time>
      </trkpt>
      <trkpt lat="42.25719" lon="8.90295">
        <ele>1650.8</ele>
        <time>2015-06-27T07:55:55Z</time>
      </trkpt>
      <trkpt lat="42.25722" lon="8.90291">
        <ele>1650</ele>
        <time>2015-06-27T07:56:02Z</time>
      </trkpt>
      <trkpt lat="42.25729" lon="8.90283">
        <ele>1648.6</ele>
        <time>2015-06-27T07:56:13Z</time>
      </trkpt>
      <trkpt lat="42.25744" lon="8.90269">
        <ele>1647.4</ele>
        <time>2015-06-27T07:56:32Z</time>
      </trkpt>
      <trkpt lat="42.25751" lon="8.90258">
        <ele>1646.8</ele>
        <time>2015-06-27T07:56:46Z</time>
      </trkpt>
      <trkpt lat="42.25764" lon="8.90248">
        <ele>1645.6</ele>
        <time>2015-06-27T07:57:00Z</time>
      </trkpt>
      <trkpt lat="42.25771" lon="8.90245">
        <ele>1645</ele>
        <time>2015-06-27T07:57:07Z</time>
      </trkpt>
      <trkpt lat="42.25782" lon="8.90239">
        <ele>1643.8</ele>
        <time>2015-06-27T07:57:18Z</time>
      </trkpt>
      <trkpt lat="42.25792" lon="8.90233">
        <ele>1642.6</ele>
        <time>2015-06-27T07:57:28Z</time>
      </trkpt>
      <trkpt lat="42.25805" lon="8.90223">
        <ele>1641.8</ele>
        <time>2015-06-27T07:57:40Z</time>
      </trkpt>
      <trkpt lat="42.25808" lon="8.90219">
        <ele>1641</ele>
        <time>2015-06-27T07:57:45Z</time>
      </trkpt>
      <trkpt lat="42.2581" lon="8.90208">
        <ele>1639.8</ele>
        <time>2015-06-27T07:57:54Z</time>
      </trkpt>
      <trkpt lat="42.25812" lon="8.90196">
        <ele>1638.6</ele>
        <time>2015-06-27T07:58:04Z</time>
      </trkpt>
      <trkpt lat="42.25815" lon="8.90186">
        <ele>1637.8</ele>
        <time>2015-06-27T07:58:12Z</time>
      </trkpt>
      <trkpt lat="42.25816" lon="8.90177">
        <ele>1637.6</ele>
        <time>2015-06-27T07:58:18Z</time>
      </trkpt>
      <trkpt lat="42.25816" lon="8.90168">
        <ele>1636.6</ele>
        <time>2015-06-27T07:58:25Z</time>
      </trkpt>
      <trkpt lat="42.25817" lon="8.90158">
        <ele>1635.6</ele>
        <time>2015-06-27T07:58:33Z</time>
      </trkpt>
      <trkpt lat="42.25819" lon="8.90145">
        <ele>1634.4</ele>
        <time>2015-06-27T07:58:47Z</time>
      </trkpt>
      <trkpt lat="42.25821" lon="8.9014">
        <ele>1633.8</ele>
        <time>2015-06-27T07:58:53Z</time>
      </trkpt>
      <trkpt lat="42.25824" lon="8.90132">
        <ele>1632.8</ele>
        <time>2015-06-27T07:59:00Z</time>
      </trkpt>
      <trkpt lat="42.25827" lon="8.90122">
        <ele>1631.6</ele>
        <time>2015-06-27T07:59:07Z</time>
      </trkpt>
      <trkpt lat="42.25829" lon="8.90115">
        <ele>1630.8</ele>
        <time>2015-06-27T07:59:12Z</time>
      </trkpt>
      <trkpt lat="42.25832" lon="8.90104">
        <ele>1629.2</ele>
        <time>2015-06-27T07:59:20Z</time>
      </trkpt>
      <trkpt lat="42.25835" lon="8.90098">
        <ele>1628.4</ele>
        <time>2015-06-27T07:59:26Z</time>
      </trkpt>
      <trkpt lat="42.2584" lon="8.90085">
        <ele>1627.2</ele>
        <time>2015-06-27T07:59:34Z</time>
      </trkpt>
      <trkpt lat="42.25845" lon="8.90074">
        <ele>1626.2</ele>
        <time>2015-06-27T07:59:43Z</time>
      </trkpt>
      <trkpt lat="42.25851" lon="8.90064">
        <ele>1625.2</ele>
        <time>2015-06-27T07:59:53Z</time>
      </trkpt>
      <trkpt lat="42.2585" lon="8.90058">
        <ele>1624.2</ele>
        <time>2015-06-27T08:00:00Z</time>
      </trkpt>
      <trkpt lat="42.25854" lon="8.90047">
        <ele>1623.4</ele>
        <time>2015-06-27T08:00:11Z</time>
      </trkpt>
      <trkpt lat="42.25855" lon="8.90039">
        <ele>1622.6</ele>
        <time>2015-06-27T08:00:17Z</time>
      </trkpt>
      <trkpt lat="42.2586" lon="8.90032">
        <ele>1621.4</ele>
        <time>2015-06-27T08:00:25Z</time>
      </trkpt>
      <trkpt lat="42.25864" lon="8.90022">
        <ele>1620.2</ele>
        <time>2015-06-27T08:00:34Z</time>
      </trkpt>
      <trkpt lat="42.25867" lon="8.90013">
        <ele>1619</ele>
        <time>2015-06-27T08:00:41Z</time>
      </trkpt>
      <trkpt lat="42.25869" lon="8.90007">
        <ele>1618.2</ele>
        <time>2015-06-27T08:00:47Z</time>
      </trkpt>
      <trkpt lat="42.25871" lon="8.90001">
        <ele>1617.2</ele>
        <time>2015-06-27T08:00:53Z</time>
      </trkpt>
      <trkpt lat="42.25873" lon="8.89996">
        <ele>1616.2</ele>
        <time>2015-06-27T08:00:58Z</time>
      </trkpt>
      <trkpt lat="42.25876" lon="8.89988">
        <ele>1615</ele>
        <time>2015-06-27T08:01:04Z</time>
      </trkpt>
      <trkpt lat="42.25879" lon="8.89982">
        <ele>1614.2</ele>
        <time>2015-06-27T08:01:10Z</time>
      </trkpt>
      <trkpt lat="42.25881" lon="8.89977">
        <ele>1613</ele>
        <time>2015-06-27T08:01:15Z</time>
      </trkpt>
      <trkpt lat="42.25883" lon="8.89963">
        <ele>1611.2</ele>
        <time>2015-06-27T08:01:28Z</time>
      </trkpt>
      <trkpt lat="42.25884" lon="8.89958">
        <ele>1611</ele>
        <time>2015-06-27T08:01:32Z</time>
      </trkpt>
      <trkpt lat="42.25884" lon="8.89955">
        <ele>1611</ele>
        <time>2015-06-27T08:01:34Z</time>
      </trkpt>
      <trkpt lat="42.25887" lon="8.89949">
        <ele>1609.8</ele>
        <time>2015-06-27T08:01:40Z</time>
      </trkpt>
      <trkpt lat="42.25892" lon="8.89946">
        <ele>1608.4</ele>
        <time>2015-06-27T08:01:47Z</time>
      </trkpt>
      <trkpt lat="42.25899" lon="8.89939">
        <ele>1607.4</ele>
        <time>2015-06-27T08:01:55Z</time>
      </trkpt>
      <trkpt lat="42.25904" lon="8.89933">
        <ele>1606.2</ele>
        <time>2015-06-27T08:02:02Z</time>
      </trkpt>
      <trkpt lat="42.25909" lon="8.89926">
        <ele>1605.2</ele>
        <time>2015-06-27T08:02:09Z</time>
      </trkpt>
      <trkpt lat="42.25914" lon="8.89911">
        <ele>1603.6</ele>
        <time>2015-06-27T08:02:21Z</time>
      </trkpt>
      <trkpt lat="42.25916" lon="8.89909">
        <ele>1603.2</ele>
        <time>2015-06-27T08:02:23Z</time>
      </trkpt>
      <trkpt lat="42.25918" lon="8.89903">
        <ele>1603</ele>
        <time>2015-06-27T08:02:28Z</time>
      </trkpt>
      <trkpt lat="42.25919" lon="8.899">
        <ele>1602.8</ele>
        <time>2015-06-27T08:02:30Z</time>
      </trkpt>
      <trkpt lat="42.25921" lon="8.89895">
        <ele>1602.2</ele>
        <time>2015-06-27T08:02:34Z</time>
      </trkpt>
      <trkpt lat="42.25922" lon="8.8989">
        <ele>1602</ele>
        <time>2015-06-27T08:02:37Z</time>
      </trkpt>
      <trkpt lat="42.25923" lon="8.89886">
        <ele>1601.6</ele>
        <time>2015-06-27T08:02:40Z</time>
      </trkpt>
      <trkpt lat="42.25923" lon="8.89884">
        <ele>1601.6</ele>
        <time>2015-06-27T08:02:41Z</time>
      </trkpt>
      <trkpt lat="42.25925" lon="8.89881">
        <ele>1601.2</ele>
        <time>2015-06-27T08:02:44Z</time>
      </trkpt>
      <trkpt lat="42.25926" lon="8.89879">
        <ele>1601.2</ele>
        <time>2015-06-27T08:02:46Z</time>
      </trkpt>
      <trkpt lat="42.25931" lon="8.89871">
        <ele>1601</ele>
        <time>2015-06-27T08:02:54Z</time>
      </trkpt>
      <trkpt lat="42.25932" lon="8.89869">
        <ele>1600.6</ele>
        <time>2015-06-27T08:02:56Z</time>
      </trkpt>
      <trkpt lat="42.25934" lon="8.89862">
        <ele>1600.2</ele>
        <time>2015-06-27T08:03:02Z</time>
      </trkpt>
      <trkpt lat="42.25934" lon="8.89861">
        <ele>1600</ele>
        <time>2015-06-27T08:03:03Z</time>
      </trkpt>
      <trkpt lat="42.25934" lon="8.8986">
        <ele>1600</ele>
        <time>2015-06-27T08:03:04Z</time>
      </trkpt>
      <trkpt lat="42.25934" lon="8.89852">
        <ele>1599</ele>
        <time>2015-06-27T08:03:10Z</time>
      </trkpt>
      <trkpt lat="42.25934" lon="8.8985">
        <ele>1599</ele>
        <time>2015-06-27T08:03:11Z</time>
      </trkpt>
      <trkpt lat="42.25934" lon="8.89849">
        <ele>1599</ele>
        <time>2015-06-27T08:03:12Z</time>
      </trkpt>
      <trkpt lat="42.25932" lon="8.89842">
        <ele>1598.2</ele>
        <time>2015-06-27T08:03:17Z</time>
      </trkpt>
      <trkpt lat="42.25931" lon="8.89837">
        <ele>1598</ele>
        <time>2015-06-27T08:03:20Z</time>
      </trkpt>
      <trkpt lat="42.25931" lon="8.89834">
        <ele>1597.6</ele>
        <time>2015-06-27T08:03:22Z</time>
      </trkpt>
      <trkpt lat="42.2593" lon="8.89827">
        <ele>1596.8</ele>
        <time>2015-06-27T08:03:27Z</time>
      </trkpt>
      <trkpt lat="42.25931" lon="8.89825">
        <ele>1596.4</ele>
        <time>2015-06-27T08:03:30Z</time>
      </trkpt>
      <trkpt lat="42.25934" lon="8.89819">
        <ele>1595.4</ele>
        <time>2015-06-27T08:03:35Z</time>
      </trkpt>
      <trkpt lat="42.25938" lon="8.89817">
        <ele>1594.6</ele>
        <time>2015-06-27T08:03:40Z</time>
      </trkpt>
      <trkpt lat="42.25948" lon="8.89813">
        <ele>1593.4</ele>
        <time>2015-06-27T08:03:51Z</time>
      </trkpt>
      <trkpt lat="42.25951" lon="8.89805">
        <ele>1593</ele>
        <time>2015-06-27T08:03:58Z</time>
      </trkpt>
      <trkpt lat="42.25959" lon="8.89793">
        <ele>1591.4</ele>
        <time>2015-06-27T08:04:11Z</time>
      </trkpt>
      <trkpt lat="42.25962" lon="8.89792">
        <ele>1591.4</ele>
        <time>2015-06-27T08:04:15Z</time>
      </trkpt>
      <trkpt lat="42.25963" lon="8.89791">
        <ele>1590.8</ele>
        <time>2015-06-27T08:04:17Z</time>
      </trkpt>
      <trkpt lat="42.25963" lon="8.8979">
        <ele>1590.8</ele>
        <time>2015-06-27T08:04:19Z</time>
      </trkpt>
      <trkpt lat="42.25967" lon="8.89783">
        <ele>1589.8</ele>
        <time>2015-06-27T08:04:25Z</time>
      </trkpt>
      <trkpt lat="42.25972" lon="8.89773">
        <ele>1588.6</ele>
        <time>2015-06-27T08:04:33Z</time>
      </trkpt>
      <trkpt lat="42.25973" lon="8.89772">
        <ele>1588.2</ele>
        <time>2015-06-27T08:04:35Z</time>
      </trkpt>
      <trkpt lat="42.25974" lon="8.8977">
        <ele>1588</ele>
        <time>2015-06-27T08:04:37Z</time>
      </trkpt>
      <trkpt lat="42.25976" lon="8.89766">
        <ele>1587.4</ele>
        <time>2015-06-27T08:04:41Z</time>
      </trkpt>
      <trkpt lat="42.25977" lon="8.89763">
        <ele>1587</ele>
        <time>2015-06-27T08:04:44Z</time>
      </trkpt>
      <trkpt lat="42.25978" lon="8.89762">
        <ele>1586.8</ele>
        <time>2015-06-27T08:04:46Z</time>
      </trkpt>
      <trkpt lat="42.25978" lon="8.89762">
        <ele>1586.8</ele>
        <time>2015-06-27T08:04:47Z</time>
      </trkpt>
      <trkpt lat="42.25981" lon="8.89757">
        <ele>1585.4</ele>
        <time>2015-06-27T08:04:54Z</time>
      </trkpt>
      <trkpt lat="42.25984" lon="8.89751">
        <ele>1584.4</ele>
        <time>2015-06-27T08:05:00Z</time>
      </trkpt>
      <trkpt lat="42.25987" lon="8.89745">
        <ele>1583.2</ele>
        <time>2015-06-27T08:05:07Z</time>
      </trkpt>
      <trkpt lat="42.25994" lon="8.89738">
        <ele>1581.8</ele>
        <time>2015-06-27T08:05:15Z</time>
      </trkpt>
      <trkpt lat="42.25999" lon="8.89731">
        <ele>1581</ele>
        <time>2015-06-27T08:05:22Z</time>
      </trkpt>
      <trkpt lat="42.26001" lon="8.89726">
        <ele>1580</ele>
        <time>2015-06-27T08:05:28Z</time>
      </trkpt>
      <trkpt lat="42.26005" lon="8.89723">
        <ele>1579.4</ele>
        <time>2015-06-27T08:05:33Z</time>
      </trkpt>
      <trkpt lat="42.26006" lon="8.89721">
        <ele>1579</ele>
        <time>2015-06-27T08:05:35Z</time>
      </trkpt>
      <trkpt lat="42.26006" lon="8.89717">
        <ele>1578.8</ele>
        <time>2015-06-27T08:05:38Z</time>
      </trkpt>
      <trkpt lat="42.26008" lon="8.89713">
        <ele>1577.8</ele>
        <time>2015-06-27T08:05:42Z</time>
      </trkpt>
      <trkpt lat="42.2601" lon="8.89707">
        <ele>1576.2</ele>
        <time>2015-06-27T08:05:47Z</time>
      </trkpt>
      <trkpt lat="42.26009" lon="8.89704">
        <ele>1576</ele>
        <time>2015-06-27T08:05:49Z</time>
      </trkpt>
      <trkpt lat="42.2601" lon="8.89702">
        <ele>1576</ele>
        <time>2015-06-27T08:05:51Z</time>
      </trkpt>
      <trkpt lat="42.26011" lon="8.89699">
        <ele>1575.2</ele>
        <time>2015-06-27T08:05:54Z</time>
      </trkpt>
      <trkpt lat="42.26013" lon="8.89692">
        <ele>1573.8</ele>
        <time>2015-06-27T08:06:00Z</time>
      </trkpt>
      <trkpt lat="42.26016" lon="8.89685">
        <ele>1572.4</ele>
        <time>2015-06-27T08:06:06Z</time>
      </trkpt>
      <trkpt lat="42.26017" lon="8.89684">
        <ele>1572.2</ele>
        <time>2015-06-27T08:06:08Z</time>
      </trkpt>
      <trkpt lat="42.2602" lon="8.89679">
        <ele>1571.6</ele>
        <time>2015-06-27T08:06:14Z</time>
      </trkpt>
      <trkpt lat="42.26022" lon="8.89674">
        <ele>1570.8</ele>
        <time>2015-06-27T08:06:19Z</time>
      </trkpt>
      <trkpt lat="42.26024" lon="8.89671">
        <ele>1569.4</ele>
        <time>2015-06-27T08:06:25Z</time>
      </trkpt>
      <trkpt lat="42.26029" lon="8.89667">
        <ele>1568.4</ele>
        <time>2015-06-27T08:06:30Z</time>
      </trkpt>
      <trkpt lat="42.26031" lon="8.89661">
        <ele>1568</ele>
        <time>2015-06-27T08:06:36Z</time>
      </trkpt>
      <trkpt lat="42.2603" lon="8.89654">
        <ele>1567.2</ele>
        <time>2015-06-27T08:06:42Z</time>
      </trkpt>
      <trkpt lat="42.26031" lon="8.89653">
        <ele>1567</ele>
        <time>2015-06-27T08:06:43Z</time>
      </trkpt>
      <trkpt lat="42.26037" lon="8.89648">
        <ele>1565.8</ele>
        <time>2015-06-27T08:06:51Z</time>
      </trkpt>
      <trkpt lat="42.26038" lon="8.89644">
        <ele>1565.6</ele>
        <time>2015-06-27T08:06:54Z</time>
      </trkpt>
      <trkpt lat="42.2604" lon="8.8964">
        <ele>1564.8</ele>
        <time>2015-06-27T08:06:58Z</time>
      </trkpt>
      <trkpt lat="42.26041" lon="8.89636">
        <ele>1563.2</ele>
        <time>2015-06-27T08:07:02Z</time>
      </trkpt>
      <trkpt lat="42.26045" lon="8.89634">
        <ele>1562.8</ele>
        <time>2015-06-27T08:07:07Z</time>
      </trkpt>
      <trkpt lat="42.26047" lon="8.89633">
        <ele>1562.4</ele>
        <time>2015-06-27T08:07:09Z</time>
      </trkpt>
      <trkpt lat="42.26046" lon="8.89629">
        <ele>1562</ele>
        <time>2015-06-27T08:07:13Z</time>
      </trkpt>
      <trkpt lat="42.26048" lon="8.89624">
        <ele>1561.2</ele>
        <time>2015-06-27T08:07:18Z</time>
      </trkpt>
      <trkpt lat="42.26051" lon="8.8962">
        <ele>1559.8</ele>
        <time>2015-06-27T08:07:25Z</time>
      </trkpt>
      <trkpt lat="42.26052" lon="8.8962">
        <ele>1559.6</ele>
        <time>2015-06-27T08:07:26Z</time>
      </trkpt>
      <trkpt lat="42.26052" lon="8.8962">
        <ele>1559.6</ele>
        <time>2015-06-27T08:07:27Z</time>
      </trkpt>
      <trkpt lat="42.26054" lon="8.89617">
        <ele>1558.8</ele>
        <time>2015-06-27T08:07:31Z</time>
      </trkpt>
      <trkpt lat="42.26056" lon="8.89612">
        <ele>1558</ele>
        <time>2015-06-27T08:07:36Z</time>
      </trkpt>
      <trkpt lat="42.26059" lon="8.89607">
        <ele>1556.4</ele>
        <time>2015-06-27T08:07:43Z</time>
      </trkpt>
      <trkpt lat="42.26066" lon="8.89601">
        <ele>1555</ele>
        <time>2015-06-27T08:07:53Z</time>
      </trkpt>
      <trkpt lat="42.26069" lon="8.89601">
        <ele>1554.4</ele>
        <time>2015-06-27T08:07:57Z</time>
      </trkpt>
      <trkpt lat="42.26074" lon="8.89599">
        <ele>1553.2</ele>
        <time>2015-06-27T08:08:03Z</time>
      </trkpt>
      <trkpt lat="42.26077" lon="8.89595">
        <ele>1552.4</ele>
        <time>2015-06-27T08:08:08Z</time>
      </trkpt>
      <trkpt lat="42.2608" lon="8.89592">
        <ele>1551.6</ele>
        <time>2015-06-27T08:08:12Z</time>
      </trkpt>
      <trkpt lat="42.2608" lon="8.89592">
        <ele>1551.4</ele>
        <time>2015-06-27T08:08:13Z</time>
      </trkpt>
      <trkpt lat="42.26084" lon="8.89589">
        <ele>1550</ele>
        <time>2015-06-27T08:08:18Z</time>
      </trkpt>
      <trkpt lat="42.26087" lon="8.89588">
        <ele>1549</ele>
        <time>2015-06-27T08:08:23Z</time>
      </trkpt>
      <trkpt lat="42.26089" lon="8.89585">
        <ele>1548</ele>
        <time>2015-06-27T08:08:29Z</time>
      </trkpt>
      <trkpt lat="42.26089" lon="8.89582">
        <ele>1547.8</ele>
        <time>2015-06-27T08:08:32Z</time>
      </trkpt>
      <trkpt lat="42.26086" lon="8.89575">
        <ele>1545.4</ele>
        <time>2015-06-27T08:08:38Z</time>
      </trkpt>
      <trkpt lat="42.26086" lon="8.89573">
        <ele>1545.4</ele>
        <time>2015-06-27T08:08:40Z</time>
      </trkpt>
      <trkpt lat="42.26089" lon="8.89569">
        <ele>1544.4</ele>
        <time>2015-06-27T08:08:47Z</time>
      </trkpt>
      <trkpt lat="42.26092" lon="8.89568">
        <ele>1543.6</ele>
        <time>2015-06-27T08:08:52Z</time>
      </trkpt>
      <trkpt lat="42.26095" lon="8.89567">
        <ele>1542.8</ele>
        <time>2015-06-27T08:08:56Z</time>
      </trkpt>
      <trkpt lat="42.26096" lon="8.89564">
        <ele>1541.4</ele>
        <time>2015-06-27T08:09:01Z</time>
      </trkpt>
      <trkpt lat="42.26096" lon="8.8956">
        <ele>1540.6</ele>
        <time>2015-06-27T08:09:06Z</time>
      </trkpt>
      <trkpt lat="42.26097" lon="8.89558">
        <ele>1539.6</ele>
        <time>2015-06-27T08:09:10Z</time>
      </trkpt>
      <trkpt lat="42.26104" lon="8.89562">
        <ele>1537.6</ele>
        <time>2015-06-27T08:09:21Z</time>
      </trkpt>
      <trkpt lat="42.26107" lon="8.89561">
        <ele>1537</ele>
        <time>2015-06-27T08:09:27Z</time>
      </trkpt>
      <trkpt lat="42.2611" lon="8.89559">
        <ele>1536</ele>
        <time>2015-06-27T08:09:33Z</time>
      </trkpt>
      <trkpt lat="42.26113" lon="8.89556">
        <ele>1535</ele>
        <time>2015-06-27T08:09:38Z</time>
      </trkpt>
      <trkpt lat="42.26114" lon="8.89552">
        <ele>1534.4</ele>
        <time>2015-06-27T08:09:42Z</time>
      </trkpt>
      <trkpt lat="42.26114" lon="8.89548">
        <ele>1532.8</ele>
        <time>2015-06-27T08:09:47Z</time>
      </trkpt>
      <trkpt lat="42.26117" lon="8.89546">
        <ele>1531.4</ele>
        <time>2015-06-27T08:09:54Z</time>
      </trkpt>
      <trkpt lat="42.26119" lon="8.89543">
        <ele>1530.8</ele>
        <time>2015-06-27T08:09:58Z</time>
      </trkpt>
      <trkpt lat="42.26122" lon="8.89542">
        <ele>1530</ele>
        <time>2015-06-27T08:10:02Z</time>
      </trkpt>
      <trkpt lat="42.26124" lon="8.89539">
        <ele>1529</ele>
        <time>2015-06-27T08:10:07Z</time>
      </trkpt>
      <trkpt lat="42.26126" lon="8.89538">
        <ele>1528</ele>
        <time>2015-06-27T08:10:11Z</time>
      </trkpt>
      <trkpt lat="42.26127" lon="8.89534">
        <ele>1527</ele>
        <time>2015-06-27T08:10:15Z</time>
      </trkpt>
      <trkpt lat="42.26129" lon="8.8953">
        <ele>1525.6</ele>
        <time>2015-06-27T08:10:20Z</time>
      </trkpt>
      <trkpt lat="42.26131" lon="8.89527">
        <ele>1524.4</ele>
        <time>2015-06-27T08:10:24Z</time>
      </trkpt>
      <trkpt lat="42.26134" lon="8.89524">
        <ele>1523</ele>
        <time>2015-06-27T08:10:31Z</time>
      </trkpt>
      <trkpt lat="42.26136" lon="8.89518">
        <ele>1522.4</ele>
        <time>2015-06-27T08:10:36Z</time>
      </trkpt>
      <trkpt lat="42.26139" lon="8.89514">
        <ele>1521.2</ele>
        <time>2015-06-27T08:10:41Z</time>
      </trkpt>
      <trkpt lat="42.26143" lon="8.89511">
        <ele>1520.2</ele>
        <time>2015-06-27T08:10:46Z</time>
      </trkpt>
      <trkpt lat="42.26147" lon="8.89507">
        <ele>1519</ele>
        <time>2015-06-27T08:10:52Z</time>
      </trkpt>
      <trkpt lat="42.26148" lon="8.89502">
        <ele>1518</ele>
        <time>2015-06-27T08:10:57Z</time>
      </trkpt>
      <trkpt lat="42.26152" lon="8.89498">
        <ele>1516.8</ele>
        <time>2015-06-27T08:11:03Z</time>
      </trkpt>
      <trkpt lat="42.26159" lon="8.89497">
        <ele>1515.4</ele>
        <time>2015-06-27T08:11:12Z</time>
      </trkpt>
      <trkpt lat="42.26169" lon="8.89498">
        <ele>1514.2</ele>
        <time>2015-06-27T08:11:22Z</time>
      </trkpt>
      <trkpt lat="42.26177" lon="8.89498">
        <ele>1513.4</ele>
        <time>2015-06-27T08:11:30Z</time>
      </trkpt>
      <trkpt lat="42.26184" lon="8.89498">
        <ele>1512.6</ele>
        <time>2015-06-27T08:11:37Z</time>
      </trkpt>
      <trkpt lat="42.26189" lon="8.89495">
        <ele>1511.6</ele>
        <time>2015-06-27T08:11:43Z</time>
      </trkpt>
      <trkpt lat="42.26191" lon="8.89494">
        <ele>1511</ele>
        <time>2015-06-27T08:11:46Z</time>
      </trkpt>
      <trkpt lat="42.26193" lon="8.89495">
        <ele>1510.8</ele>
        <time>2015-06-27T08:11:48Z</time>
      </trkpt>
      <trkpt lat="42.26195" lon="8.89493">
        <ele>1509.4</ele>
        <time>2015-06-27T08:11:54Z</time>
      </trkpt>
      <trkpt lat="42.26198" lon="8.89489">
        <ele>1508.2</ele>
        <time>2015-06-27T08:12:01Z</time>
      </trkpt>
      <trkpt lat="42.26201" lon="8.89487">
        <ele>1507.6</ele>
        <time>2015-06-27T08:12:05Z</time>
      </trkpt>
      <trkpt lat="42.26205" lon="8.89489">
        <ele>1506</ele>
        <time>2015-06-27T08:12:11Z</time>
      </trkpt>
      <trkpt lat="42.2621" lon="8.89485">
        <ele>1505.2</ele>
        <time>2015-06-27T08:12:17Z</time>
      </trkpt>
      <trkpt lat="42.26213" lon="8.89487">
        <ele>1504.2</ele>
        <time>2015-06-27T08:12:22Z</time>
      </trkpt>
      <trkpt lat="42.26217" lon="8.89484">
        <ele>1502.8</ele>
        <time>2015-06-27T08:12:28Z</time>
      </trkpt>
      <trkpt lat="42.26219" lon="8.89481">
        <ele>1502</ele>
        <time>2015-06-27T08:12:32Z</time>
      </trkpt>
      <trkpt lat="42.26222" lon="8.89476">
        <ele>1500.8</ele>
        <time>2015-06-27T08:12:37Z</time>
      </trkpt>
      <trkpt lat="42.26224" lon="8.89472">
        <ele>1500.2</ele>
        <time>2015-06-27T08:12:41Z</time>
      </trkpt>
      <trkpt lat="42.26228" lon="8.89466">
        <ele>1498.4</ele>
        <time>2015-06-27T08:12:47Z</time>
      </trkpt>
      <trkpt lat="42.26232" lon="8.89462">
        <ele>1497.6</ele>
        <time>2015-06-27T08:12:52Z</time>
      </trkpt>
      <trkpt lat="42.26238" lon="8.89459">
        <ele>1495.8</ele>
        <time>2015-06-27T08:12:58Z</time>
      </trkpt>
      <trkpt lat="42.26243" lon="8.89457">
        <ele>1495</ele>
        <time>2015-06-27T08:13:03Z</time>
      </trkpt>
      <trkpt lat="42.26248" lon="8.89454">
        <ele>1493.8</ele>
        <time>2015-06-27T08:13:09Z</time>
      </trkpt>
      <trkpt lat="42.26254" lon="8.89452">
        <ele>1493</ele>
        <time>2015-06-27T08:13:14Z</time>
      </trkpt>
      <trkpt lat="42.26262" lon="8.89448">
        <ele>1491.8</ele>
        <time>2015-06-27T08:13:21Z</time>
      </trkpt>
      <trkpt lat="42.26269" lon="8.89442">
        <ele>1490.4</ele>
        <time>2015-06-27T08:13:29Z</time>
      </trkpt>
      <trkpt lat="42.26273" lon="8.89437">
        <ele>1489.6</ele>
        <time>2015-06-27T08:13:36Z</time>
      </trkpt>
      <trkpt lat="42.26276" lon="8.89427">
        <ele>1488.4</ele>
        <time>2015-06-27T08:13:46Z</time>
      </trkpt>
      <trkpt lat="42.26281" lon="8.89418">
        <ele>1487.2</ele>
        <time>2015-06-27T08:13:57Z</time>
      </trkpt>
      <trkpt lat="42.26283" lon="8.89412">
        <ele>1486.8</ele>
        <time>2015-06-27T08:14:02Z</time>
      </trkpt>
      <trkpt lat="42.26284" lon="8.89409">
        <ele>1486</ele>
        <time>2015-06-27T08:14:07Z</time>
      </trkpt>
      <trkpt lat="42.26286" lon="8.89406">
        <ele>1484.2</ele>
        <time>2015-06-27T08:14:32Z</time>
      </trkpt>
      <trkpt lat="42.26288" lon="8.89402">
        <ele>1483.8</ele>
        <time>2015-06-27T08:14:38Z</time>
      </trkpt>
      <trkpt lat="42.26289" lon="8.89396">
        <ele>1482.4</ele>
        <time>2015-06-27T08:14:44Z</time>
      </trkpt>
      <trkpt lat="42.26289" lon="8.89387">
        <ele>1481</ele>
        <time>2015-06-27T08:14:52Z</time>
      </trkpt>
      <trkpt lat="42.26287" lon="8.89379">
        <ele>1480.4</ele>
        <time>2015-06-27T08:14:58Z</time>
      </trkpt>
      <trkpt lat="42.26288" lon="8.89378">
        <ele>1479.8</ele>
        <time>2015-06-27T08:15:00Z</time>
      </trkpt>
      <trkpt lat="42.26288" lon="8.89377">
        <ele>1479.8</ele>
        <time>2015-06-27T08:15:01Z</time>
      </trkpt>
      <trkpt lat="42.26289" lon="8.89373">
        <ele>1479.4</ele>
        <time>2015-06-27T08:15:04Z</time>
      </trkpt>
      <trkpt lat="42.2629" lon="8.89373">
        <ele>1479.2</ele>
        <time>2015-06-27T08:15:05Z</time>
      </trkpt>
      <trkpt lat="42.26291" lon="8.8937">
        <ele>1478.6</ele>
        <time>2015-06-27T08:15:08Z</time>
      </trkpt>
      <trkpt lat="42.26294" lon="8.89365">
        <ele>1477</ele>
        <time>2015-06-27T08:15:15Z</time>
      </trkpt>
      <trkpt lat="42.26296" lon="8.89363">
        <ele>1476.6</ele>
        <time>2015-06-27T08:15:18Z</time>
      </trkpt>
      <trkpt lat="42.26301" lon="8.89358">
        <ele>1475.2</ele>
        <time>2015-06-27T08:15:24Z</time>
      </trkpt>
      <trkpt lat="42.26301" lon="8.89357">
        <ele>1474.8</ele>
        <time>2015-06-27T08:15:25Z</time>
      </trkpt>
      <trkpt lat="42.26301" lon="8.89354">
        <ele>1474.4</ele>
        <time>2015-06-27T08:15:28Z</time>
      </trkpt>
      <trkpt lat="42.26302" lon="8.89353">
        <ele>1474.2</ele>
        <time>2015-06-27T08:15:29Z</time>
      </trkpt>
      <trkpt lat="42.26305" lon="8.89349">
        <ele>1473</ele>
        <time>2015-06-27T08:15:34Z</time>
      </trkpt>
      <trkpt lat="42.26305" lon="8.89348">
        <ele>1472.8</ele>
        <time>2015-06-27T08:15:35Z</time>
      </trkpt>
      <trkpt lat="42.26305" lon="8.89344">
        <ele>1472.2</ele>
        <time>2015-06-27T08:15:39Z</time>
      </trkpt>
      <trkpt lat="42.26307" lon="8.8934">
        <ele>1471.2</ele>
        <time>2015-06-27T08:15:43Z</time>
      </trkpt>
      <trkpt lat="42.26309" lon="8.89336">
        <ele>1469.8</ele>
        <time>2015-06-27T08:15:48Z</time>
      </trkpt>
      <trkpt lat="42.2631" lon="8.89336">
        <ele>1469.6</ele>
        <time>2015-06-27T08:15:49Z</time>
      </trkpt>
      <trkpt lat="42.26312" lon="8.89334">
        <ele>1468.8</ele>
        <time>2015-06-27T08:15:52Z</time>
      </trkpt>
      <trkpt lat="42.26314" lon="8.89332">
        <ele>1468</ele>
        <time>2015-06-27T08:15:57Z</time>
      </trkpt>
      <trkpt lat="42.26315" lon="8.89328">
        <ele>1467.8</ele>
        <time>2015-06-27T08:16:02Z</time>
      </trkpt>
      <trkpt lat="42.26318" lon="8.89327">
        <ele>1467.2</ele>
        <time>2015-06-27T08:16:05Z</time>
      </trkpt>
      <trkpt lat="42.26321" lon="8.89323">
        <ele>1465.8</ele>
        <time>2015-06-27T08:16:10Z</time>
      </trkpt>
      <trkpt lat="42.26323" lon="8.89317">
        <ele>1464.8</ele>
        <time>2015-06-27T08:16:15Z</time>
      </trkpt>
      <trkpt lat="42.26324" lon="8.89312">
        <ele>1463.8</ele>
        <time>2015-06-27T08:16:19Z</time>
      </trkpt>
      <trkpt lat="42.2633" lon="8.89295">
        <ele>1463</ele>
        <time>2015-06-27T08:16:51Z</time>
      </trkpt>
      <trkpt lat="42.26332" lon="8.89296">
        <ele>1463</ele>
        <time>2015-06-27T08:18:05Z</time>
      </trkpt>
      <trkpt lat="42.2633" lon="8.89295">
        <ele>1463.4</ele>
        <time>2015-06-27T08:18:41Z</time>
      </trkpt>
      <trkpt lat="42.2633" lon="8.89295">
        <ele>1463.6</ele>
        <time>2015-06-27T08:18:50Z</time>
      </trkpt>
      <trkpt lat="42.26329" lon="8.89296">
        <ele>1462.8</ele>
        <time>2015-06-27T08:19:29Z</time>
      </trkpt>
      <trkpt lat="42.26328" lon="8.89296">
        <ele>1463.2</ele>
        <time>2015-06-27T08:20:10Z</time>
      </trkpt>
      <trkpt lat="42.2633" lon="8.89295">
        <ele>1463.2</ele>
        <time>2015-06-27T08:21:33Z</time>
      </trkpt>
      <trkpt lat="42.26328" lon="8.89299">
        <ele>1463</ele>
        <time>2015-06-27T08:22:25Z</time>
      </trkpt>
      <trkpt lat="42.26326" lon="8.89295">
        <ele>1463.4</ele>
        <time>2015-06-27T08:24:31Z</time>
      </trkpt>
      <trkpt lat="42.26338" lon="8.89291">
        <ele>1463.2</ele>
        <time>2015-06-27T08:25:02Z</time>
      </trkpt>
      <trkpt lat="42.26332" lon="8.89295">
        <ele>1463.4</ele>
        <time>2015-06-27T08:25:19Z</time>
      </trkpt>
      <trkpt lat="42.26329" lon="8.89297">
        <ele>1463.4</ele>
        <time>2015-06-27T08:25:22Z</time>
      </trkpt>
      <trkpt lat="42.26329" lon="8.89298">
        <ele>1463</ele>
        <time>2015-06-27T08:25:50Z</time>
      </trkpt>
      <trkpt lat="42.26331" lon="8.89301">
        <ele>1462.6</ele>
        <time>2015-06-27T08:27:20Z</time>
      </trkpt>
      <trkpt lat="42.26333" lon="8.89311">
        <ele>1462</ele>
        <time>2015-06-27T08:27:29Z</time>
      </trkpt>
      <trkpt lat="42.26335" lon="8.89318">
        <ele>1461.4</ele>
        <time>2015-06-27T08:27:34Z</time>
      </trkpt>
      <trkpt lat="42.26336" lon="8.89323">
        <ele>1460.8</ele>
        <time>2015-06-27T08:27:38Z</time>
      </trkpt>
      <trkpt lat="42.26337" lon="8.89326">
        <ele>1460</ele>
        <time>2015-06-27T08:27:40Z</time>
      </trkpt>
      <trkpt lat="42.26338" lon="8.8933">
        <ele>1459</ele>
        <time>2015-06-27T08:27:44Z</time>
      </trkpt>
      <trkpt lat="42.2634" lon="8.89333">
        <ele>1458.8</ele>
        <time>2015-06-27T08:27:46Z</time>
      </trkpt>
      <trkpt lat="42.2634" lon="8.89335">
        <ele>1458.6</ele>
        <time>2015-06-27T08:27:48Z</time>
      </trkpt>
      <trkpt lat="42.26341" lon="8.89341">
        <ele>1457.8</ele>
        <time>2015-06-27T08:27:53Z</time>
      </trkpt>
      <trkpt lat="42.26342" lon="8.89341">
        <ele>1457.6</ele>
        <time>2015-06-27T08:27:54Z</time>
      </trkpt>
      <trkpt lat="42.26342" lon="8.89348">
        <ele>1457</ele>
        <time>2015-06-27T08:27:59Z</time>
      </trkpt>
      <trkpt lat="42.26344" lon="8.89355">
        <ele>1455.8</ele>
        <time>2015-06-27T08:28:06Z</time>
      </trkpt>
      <trkpt lat="42.26345" lon="8.89355">
        <ele>1455.6</ele>
        <time>2015-06-27T08:28:07Z</time>
      </trkpt>
      <trkpt lat="42.26347" lon="8.89353">
        <ele>1455.4</ele>
        <time>2015-06-27T08:28:10Z</time>
      </trkpt>
      <trkpt lat="42.26347" lon="8.89349">
        <ele>1454.8</ele>
        <time>2015-06-27T08:28:13Z</time>
      </trkpt>
      <trkpt lat="42.26349" lon="8.89344">
        <ele>1454</ele>
        <time>2015-06-27T08:28:18Z</time>
      </trkpt>
      <trkpt lat="42.26352" lon="8.89336">
        <ele>1452.4</ele>
        <time>2015-06-27T08:28:25Z</time>
      </trkpt>
      <trkpt lat="42.26355" lon="8.89328">
        <ele>1451.4</ele>
        <time>2015-06-27T08:28:32Z</time>
      </trkpt>
      <trkpt lat="42.2636" lon="8.89317">
        <ele>1450.2</ele>
        <time>2015-06-27T08:28:43Z</time>
      </trkpt>
      <trkpt lat="42.26362" lon="8.89305">
        <ele>1449</ele>
        <time>2015-06-27T08:28:54Z</time>
      </trkpt>
      <trkpt lat="42.26363" lon="8.89295">
        <ele>1448.2</ele>
        <time>2015-06-27T08:29:04Z</time>
      </trkpt>
      <trkpt lat="42.26368" lon="8.89287">
        <ele>1447.4</ele>
        <time>2015-06-27T08:29:12Z</time>
      </trkpt>
      <trkpt lat="42.2637" lon="8.89283">
        <ele>1446.8</ele>
        <time>2015-06-27T08:29:17Z</time>
      </trkpt>
      <trkpt lat="42.26375" lon="8.89271">
        <ele>1444.8</ele>
        <time>2015-06-27T08:29:32Z</time>
      </trkpt>
      <trkpt lat="42.26379" lon="8.89266">
        <ele>1444.4</ele>
        <time>2015-06-27T08:29:38Z</time>
      </trkpt>
      <trkpt lat="42.26386" lon="8.89258">
        <ele>1443</ele>
        <time>2015-06-27T08:29:46Z</time>
      </trkpt>
      <trkpt lat="42.26395" lon="8.89254">
        <ele>1441.8</ele>
        <time>2015-06-27T08:29:57Z</time>
      </trkpt>
      <trkpt lat="42.26401" lon="8.89256">
        <ele>1441</ele>
        <time>2015-06-27T08:30:03Z</time>
      </trkpt>
      <trkpt lat="42.26408" lon="8.89256">
        <ele>1440.2</ele>
        <time>2015-06-27T08:30:09Z</time>
      </trkpt>
      <trkpt lat="42.26418" lon="8.89258">
        <ele>1438.6</ele>
        <time>2015-06-27T08:30:19Z</time>
      </trkpt>
      <trkpt lat="42.26425" lon="8.89256">
        <ele>1437.8</ele>
        <time>2015-06-27T08:30:26Z</time>
      </trkpt>
      <trkpt lat="42.26431" lon="8.89257">
        <ele>1436.6</ele>
        <time>2015-06-27T08:30:34Z</time>
      </trkpt>
      <trkpt lat="42.26435" lon="8.89259">
        <ele>1436</ele>
        <time>2015-06-27T08:30:38Z</time>
      </trkpt>
      <trkpt lat="42.26439" lon="8.89261">
        <ele>1434.8</ele>
        <time>2015-06-27T08:30:43Z</time>
      </trkpt>
      <trkpt lat="42.26444" lon="8.89262">
        <ele>1433.8</ele>
        <time>2015-06-27T08:30:48Z</time>
      </trkpt>
      <trkpt lat="42.26446" lon="8.89262">
        <ele>1433.6</ele>
        <time>2015-06-27T08:30:49Z</time>
      </trkpt>
      <trkpt lat="42.26447" lon="8.89263">
        <ele>1433.2</ele>
        <time>2015-06-27T08:30:51Z</time>
      </trkpt>
      <trkpt lat="42.26451" lon="8.89262">
        <ele>1433</ele>
        <time>2015-06-27T08:30:54Z</time>
      </trkpt>
      <trkpt lat="42.26459" lon="8.89264">
        <ele>1431.4</ele>
        <time>2015-06-27T08:31:01Z</time>
      </trkpt>
      <trkpt lat="42.26465" lon="8.89265">
        <ele>1430.2</ele>
        <time>2015-06-27T08:31:08Z</time>
      </trkpt>
      <trkpt lat="42.26466" lon="8.89265">
        <ele>1430.2</ele>
        <time>2015-06-27T08:31:09Z</time>
      </trkpt>
      <trkpt lat="42.26472" lon="8.89263">
        <ele>1429.4</ele>
        <time>2015-06-27T08:31:15Z</time>
      </trkpt>
      <trkpt lat="42.26478" lon="8.89264">
        <ele>1428.4</ele>
        <time>2015-06-27T08:31:22Z</time>
      </trkpt>
      <trkpt lat="42.26482" lon="8.89264">
        <ele>1427.4</ele>
        <time>2015-06-27T08:31:28Z</time>
      </trkpt>
      <trkpt lat="42.26492" lon="8.89269">
        <ele>1426</ele>
        <time>2015-06-27T08:31:42Z</time>
      </trkpt>
      <trkpt lat="42.26498" lon="8.89272">
        <ele>1425.2</ele>
        <time>2015-06-27T08:31:48Z</time>
      </trkpt>
      <trkpt lat="42.26503" lon="8.89273">
        <ele>1424.2</ele>
        <time>2015-06-27T08:31:54Z</time>
      </trkpt>
      <trkpt lat="42.26511" lon="8.89272">
        <ele>1423</ele>
        <time>2015-06-27T08:32:02Z</time>
      </trkpt>
      <trkpt lat="42.26519" lon="8.89275">
        <ele>1421.6</ele>
        <time>2015-06-27T08:32:11Z</time>
      </trkpt>
      <trkpt lat="42.26527" lon="8.89276">
        <ele>1420.6</ele>
        <time>2015-06-27T08:32:23Z</time>
      </trkpt>
      <trkpt lat="42.26533" lon="8.89278">
        <ele>1419.8</ele>
        <time>2015-06-27T08:32:33Z</time>
      </trkpt>
      <trkpt lat="42.26536" lon="8.89278">
        <ele>1419</ele>
        <time>2015-06-27T08:32:39Z</time>
      </trkpt>
      <trkpt lat="42.26549" lon="8.89268">
        <ele>1417.2</ele>
        <time>2015-06-27T08:33:04Z</time>
      </trkpt>
      <trkpt lat="42.26555" lon="8.89269">
        <ele>1416.4</ele>
        <time>2015-06-27T08:33:13Z</time>
      </trkpt>
      <trkpt lat="42.26558" lon="8.8927">
        <ele>1415.6</ele>
        <time>2015-06-27T08:33:21Z</time>
      </trkpt>
      <trkpt lat="42.26565" lon="8.89261">
        <ele>1415.4</ele>
        <time>2015-06-27T08:34:10Z</time>
      </trkpt>
      <trkpt lat="42.26571" lon="8.89255">
        <ele>1416.4</ele>
        <time>2015-06-27T08:34:34Z</time>
      </trkpt>
      <trkpt lat="42.26591" lon="8.89259">
        <ele>1417.2</ele>
        <time>2015-06-27T08:36:06Z</time>
      </trkpt>
      <trkpt lat="42.26593" lon="8.89261">
        <ele>1416.4</ele>
        <time>2015-06-27T08:36:13Z</time>
      </trkpt>
      <trkpt lat="42.26594" lon="8.89263">
        <ele>1415.8</ele>
        <time>2015-06-27T08:36:17Z</time>
      </trkpt>
      <trkpt lat="42.26595" lon="8.89264">
        <ele>1415.4</ele>
        <time>2015-06-27T08:36:20Z</time>
      </trkpt>
      <trkpt lat="42.26598" lon="8.89267">
        <ele>1413.8</ele>
        <time>2015-06-27T08:36:25Z</time>
      </trkpt>
      <trkpt lat="42.26599" lon="8.89268">
        <ele>1412.8</ele>
        <time>2015-06-27T08:36:29Z</time>
      </trkpt>
      <trkpt lat="42.26601" lon="8.8927">
        <ele>1411.6</ele>
        <time>2015-06-27T08:36:34Z</time>
      </trkpt>
      <trkpt lat="42.26603" lon="8.89272">
        <ele>1409.6</ele>
        <time>2015-06-27T08:36:44Z</time>
      </trkpt>
      <trkpt lat="42.26604" lon="8.89271">
        <ele>1409.6</ele>
        <time>2015-06-27T08:36:46Z</time>
      </trkpt>
      <trkpt lat="42.266" lon="8.89266">
        <ele>1409.8</ele>
        <time>2015-06-27T08:37:02Z</time>
      </trkpt>
      <trkpt lat="42.266" lon="8.89267">
        <ele>1410</ele>
        <time>2015-06-27T08:37:03Z</time>
      </trkpt>
      <trkpt lat="42.26595" lon="8.89266">
        <ele>1411.2</ele>
        <time>2015-06-27T08:37:09Z</time>
      </trkpt>
      <trkpt lat="42.26592" lon="8.89266">
        <ele>1411.8</ele>
        <time>2015-06-27T08:37:12Z</time>
      </trkpt>
      <trkpt lat="42.26588" lon="8.89266">
        <ele>1412.4</ele>
        <time>2015-06-27T08:37:17Z</time>
      </trkpt>
      <trkpt lat="42.26556" lon="8.89271">
        <ele>1414</ele>
        <time>2015-06-27T08:38:10Z</time>
      </trkpt>
      <trkpt lat="42.26551" lon="8.89272">
        <ele>1414.4</ele>
        <time>2015-06-27T08:38:15Z</time>
      </trkpt>
      <trkpt lat="42.26531" lon="8.89275">
        <ele>1416.4</ele>
        <time>2015-06-27T08:38:44Z</time>
      </trkpt>
      <trkpt lat="42.26527" lon="8.89273">
        <ele>1417.2</ele>
        <time>2015-06-27T08:38:50Z</time>
      </trkpt>
      <trkpt lat="42.26517" lon="8.89271">
        <ele>1418.8</ele>
        <time>2015-06-27T08:39:03Z</time>
      </trkpt>
      <trkpt lat="42.2651" lon="8.89271">
        <ele>1419.8</ele>
        <time>2015-06-27T08:39:13Z</time>
      </trkpt>
      <trkpt lat="42.26503" lon="8.8927">
        <ele>1421.2</ele>
        <time>2015-06-27T08:39:24Z</time>
      </trkpt>
      <trkpt lat="42.26498" lon="8.89267">
        <ele>1422</ele>
        <time>2015-06-27T08:39:36Z</time>
      </trkpt>
      <trkpt lat="42.26491" lon="8.89263">
        <ele>1423.2</ele>
        <time>2015-06-27T08:39:51Z</time>
      </trkpt>
      <trkpt lat="42.26483" lon="8.89261">
        <ele>1424.6</ele>
        <time>2015-06-27T08:40:02Z</time>
      </trkpt>
      <trkpt lat="42.26476" lon="8.89267">
        <ele>1425.2</ele>
        <time>2015-06-27T08:40:21Z</time>
      </trkpt>
      <trkpt lat="42.26472" lon="8.89273">
        <ele>1424.2</ele>
        <time>2015-06-27T08:40:27Z</time>
      </trkpt>
      <trkpt lat="42.2647" lon="8.89276">
        <ele>1423.4</ele>
        <time>2015-06-27T08:40:31Z</time>
      </trkpt>
      <trkpt lat="42.26465" lon="8.89283">
        <ele>1421.8</ele>
        <time>2015-06-27T08:40:39Z</time>
      </trkpt>
      <trkpt lat="42.2646" lon="8.89287">
        <ele>1421</ele>
        <time>2015-06-27T08:40:44Z</time>
      </trkpt>
      <trkpt lat="42.26458" lon="8.89288">
        <ele>1420.6</ele>
        <time>2015-06-27T08:40:46Z</time>
      </trkpt>
      <trkpt lat="42.26431" lon="8.89292">
        <ele>1419</ele>
        <time>2015-06-27T08:41:26Z</time>
      </trkpt>
      <trkpt lat="42.26421" lon="8.89302">
        <ele>1418.4</ele>
        <time>2015-06-27T08:41:39Z</time>
      </trkpt>
      <trkpt lat="42.26418" lon="8.89308">
        <ele>1417.8</ele>
        <time>2015-06-27T08:41:45Z</time>
      </trkpt>
      <trkpt lat="42.26417" lon="8.89316">
        <ele>1416.4</ele>
        <time>2015-06-27T08:41:53Z</time>
      </trkpt>
      <trkpt lat="42.26418" lon="8.89321">
        <ele>1416</ele>
        <time>2015-06-27T08:41:57Z</time>
      </trkpt>
      <trkpt lat="42.2642" lon="8.89326">
        <ele>1415.2</ele>
        <time>2015-06-27T08:42:01Z</time>
      </trkpt>
      <trkpt lat="42.26424" lon="8.89332">
        <ele>1413.6</ele>
        <time>2015-06-27T08:42:07Z</time>
      </trkpt>
      <trkpt lat="42.26429" lon="8.89342">
        <ele>1412</ele>
        <time>2015-06-27T08:42:17Z</time>
      </trkpt>
      <trkpt lat="42.26432" lon="8.89353">
        <ele>1410.8</ele>
        <time>2015-06-27T08:42:27Z</time>
      </trkpt>
      <trkpt lat="42.26432" lon="8.89359">
        <ele>1410.4</ele>
        <time>2015-06-27T08:42:32Z</time>
      </trkpt>
      <trkpt lat="42.26429" lon="8.89371">
        <ele>1408.6</ele>
        <time>2015-06-27T08:42:43Z</time>
      </trkpt>
      <trkpt lat="42.26428" lon="8.8938">
        <ele>1408.2</ele>
        <time>2015-06-27T08:42:49Z</time>
      </trkpt>
      <trkpt lat="42.26428" lon="8.89389">
        <ele>1407</ele>
        <time>2015-06-27T08:42:56Z</time>
      </trkpt>
      <trkpt lat="42.2643" lon="8.89399">
        <ele>1405.8</ele>
        <time>2015-06-27T08:43:04Z</time>
      </trkpt>
      <trkpt lat="42.26431" lon="8.89405">
        <ele>1405</ele>
        <time>2015-06-27T08:43:09Z</time>
      </trkpt>
      <trkpt lat="42.26439" lon="8.89413">
        <ele>1403.2</ele>
        <time>2015-06-27T08:43:18Z</time>
      </trkpt>
      <trkpt lat="42.26442" lon="8.89424">
        <ele>1402.4</ele>
        <time>2015-06-27T08:43:25Z</time>
      </trkpt>
      <trkpt lat="42.26446" lon="8.89435">
        <ele>1401.4</ele>
        <time>2015-06-27T08:43:33Z</time>
      </trkpt>
      <trkpt lat="42.26447" lon="8.89452">
        <ele>1399.8</ele>
        <time>2015-06-27T08:43:44Z</time>
      </trkpt>
      <trkpt lat="42.26448" lon="8.89462">
        <ele>1399.4</ele>
        <time>2015-06-27T08:43:52Z</time>
      </trkpt>
      <trkpt lat="42.26453" lon="8.89472">
        <ele>1398</ele>
        <time>2015-06-27T08:44:01Z</time>
      </trkpt>
      <trkpt lat="42.26462" lon="8.89483">
        <ele>1396.8</ele>
        <time>2015-06-27T08:44:11Z</time>
      </trkpt>
      <trkpt lat="42.26467" lon="8.89492">
        <ele>1395.8</ele>
        <time>2015-06-27T08:44:20Z</time>
      </trkpt>
      <trkpt lat="42.26471" lon="8.89502">
        <ele>1394.8</ele>
        <time>2015-06-27T08:44:27Z</time>
      </trkpt>
      <trkpt lat="42.26476" lon="8.89513">
        <ele>1393.6</ele>
        <time>2015-06-27T08:44:34Z</time>
      </trkpt>
      <trkpt lat="42.2648" lon="8.8952">
        <ele>1392.6</ele>
        <time>2015-06-27T08:44:41Z</time>
      </trkpt>
      <trkpt lat="42.26483" lon="8.89526">
        <ele>1391.8</ele>
        <time>2015-06-27T08:44:46Z</time>
      </trkpt>
      <trkpt lat="42.26485" lon="8.89534">
        <ele>1390.4</ele>
        <time>2015-06-27T08:44:52Z</time>
      </trkpt>
      <trkpt lat="42.26488" lon="8.8954">
        <ele>1389.6</ele>
        <time>2015-06-27T08:44:57Z</time>
      </trkpt>
      <trkpt lat="42.26486" lon="8.89558">
        <ele>1387.6</ele>
        <time>2015-06-27T08:45:11Z</time>
      </trkpt>
      <trkpt lat="42.26488" lon="8.89561">
        <ele>1386.8</ele>
        <time>2015-06-27T08:45:18Z</time>
      </trkpt>
      <trkpt lat="42.26491" lon="8.89564">
        <ele>1385.6</ele>
        <time>2015-06-27T08:45:26Z</time>
      </trkpt>
      <trkpt lat="42.26495" lon="8.89562">
        <ele>1384.4</ele>
        <time>2015-06-27T08:45:36Z</time>
      </trkpt>
      <trkpt lat="42.26497" lon="8.89563">
        <ele>1383.2</ele>
        <time>2015-06-27T08:45:43Z</time>
      </trkpt>
      <trkpt lat="42.265" lon="8.89566">
        <ele>1382</ele>
        <time>2015-06-27T08:45:58Z</time>
      </trkpt>
      <trkpt lat="42.265" lon="8.89575">
        <ele>1381.2</ele>
        <time>2015-06-27T08:46:07Z</time>
      </trkpt>
      <trkpt lat="42.26503" lon="8.89577">
        <ele>1379.8</ele>
        <time>2015-06-27T08:46:16Z</time>
      </trkpt>
      <trkpt lat="42.26506" lon="8.89576">
        <ele>1378.8</ele>
        <time>2015-06-27T08:46:23Z</time>
      </trkpt>
      <trkpt lat="42.26507" lon="8.8958">
        <ele>1378.4</ele>
        <time>2015-06-27T08:46:28Z</time>
      </trkpt>
      <trkpt lat="42.26509" lon="8.89584">
        <ele>1376.8</ele>
        <time>2015-06-27T08:46:34Z</time>
      </trkpt>
      <trkpt lat="42.26512" lon="8.89587">
        <ele>1375.4</ele>
        <time>2015-06-27T08:46:42Z</time>
      </trkpt>
      <trkpt lat="42.26514" lon="8.89583">
        <ele>1374.2</ele>
        <time>2015-06-27T08:46:50Z</time>
      </trkpt>
      <trkpt lat="42.26516" lon="8.89581">
        <ele>1373</ele>
        <time>2015-06-27T08:46:57Z</time>
      </trkpt>
      <trkpt lat="42.26516" lon="8.89585">
        <ele>1372</ele>
        <time>2015-06-27T08:47:05Z</time>
      </trkpt>
      <trkpt lat="42.26478" lon="8.8961">
        <ele>1371.2</ele>
        <time>2015-06-27T08:47:51Z</time>
      </trkpt>
      <trkpt lat="42.26477" lon="8.89613">
        <ele>1371.4</ele>
        <time>2015-06-27T08:47:54Z</time>
      </trkpt>
      <trkpt lat="42.26448" lon="8.89659">
        <ele>1370.6</ele>
        <time>2015-06-27T08:48:36Z</time>
      </trkpt>
      <trkpt lat="42.26446" lon="8.89664">
        <ele>1370.4</ele>
        <time>2015-06-27T08:48:40Z</time>
      </trkpt>
      <trkpt lat="42.26458" lon="8.89725">
        <ele>1370.4</ele>
        <time>2015-06-27T08:49:28Z</time>
      </trkpt>
      <trkpt lat="42.26428" lon="8.89758">
        <ele>1371.2</ele>
        <time>2015-06-27T08:50:19Z</time>
      </trkpt>
      <trkpt lat="42.26421" lon="8.89764">
        <ele>1371.4</ele>
        <time>2015-06-27T08:50:26Z</time>
      </trkpt>
      <trkpt lat="42.26395" lon="8.89804">
        <ele>1371.6</ele>
        <time>2015-06-27T08:51:09Z</time>
      </trkpt>
      <trkpt lat="42.26388" lon="8.89818">
        <ele>1371.2</ele>
        <time>2015-06-27T08:51:22Z</time>
      </trkpt>
      <trkpt lat="42.2637" lon="8.89869">
        <ele>1371</ele>
        <time>2015-06-27T08:52:11Z</time>
      </trkpt>
      <trkpt lat="42.26368" lon="8.89873">
        <ele>1371.4</ele>
        <time>2015-06-27T08:52:14Z</time>
      </trkpt>
      <trkpt lat="42.26338" lon="8.89912">
        <ele>1371</ele>
        <time>2015-06-27T08:52:54Z</time>
      </trkpt>
      <trkpt lat="42.2633" lon="8.89925">
        <ele>1371.2</ele>
        <time>2015-06-27T08:53:05Z</time>
      </trkpt>
      <trkpt lat="42.26328" lon="8.8994">
        <ele>1371</ele>
        <time>2015-06-27T08:53:29Z</time>
      </trkpt>
      <trkpt lat="42.26372" lon="8.89942">
        <ele>1369.8</ele>
        <time>2015-06-27T08:54:40Z</time>
      </trkpt>
      <trkpt lat="42.26391" lon="8.89951">
        <ele>1370</ele>
        <time>2015-06-27T08:55:06Z</time>
      </trkpt>
      <trkpt lat="42.2641" lon="8.89963">
        <ele>1369.6</ele>
        <time>2015-06-27T08:55:28Z</time>
      </trkpt>
      <trkpt lat="42.2641" lon="8.8996">
        <ele>1369.6</ele>
        <time>2015-06-27T08:55:31Z</time>
      </trkpt>
      <trkpt lat="42.26394" lon="8.8995">
        <ele>1369.8</ele>
        <time>2015-06-27T08:55:47Z</time>
      </trkpt>
      <trkpt lat="42.26386" lon="8.89949">
        <ele>1369.8</ele>
        <time>2015-06-27T08:55:55Z</time>
      </trkpt>
      <trkpt lat="42.26373" lon="8.89944">
        <ele>1369.8</ele>
        <time>2015-06-27T08:56:45Z</time>
      </trkpt>
      <trkpt lat="42.26408" lon="8.89963">
        <ele>1369.6</ele>
        <time>2015-06-27T08:57:19Z</time>
      </trkpt>
      <trkpt lat="42.2644" lon="8.90006">
        <ele>1369.6</ele>
        <time>2015-06-27T08:58:03Z</time>
      </trkpt>
      <trkpt lat="42.26473" lon="8.90048">
        <ele>1369.6</ele>
        <time>2015-06-27T08:58:43Z</time>
      </trkpt>
      <trkpt lat="42.26482" lon="8.90062">
        <ele>1370.2</ele>
        <time>2015-06-27T09:01:07Z</time>
      </trkpt>
      <trkpt lat="42.26481" lon="8.90057">
        <ele>1370</ele>
        <time>2015-06-27T09:01:26Z</time>
      </trkpt>
      <trkpt lat="42.26467" lon="8.90041">
        <ele>1369.8</ele>
        <time>2015-06-27T09:01:57Z</time>
      </trkpt>
      <trkpt lat="42.26465" lon="8.90039">
        <ele>1370</ele>
        <time>2015-06-27T09:01:59Z</time>
      </trkpt>
      <trkpt lat="42.26433" lon="8.89999">
        <ele>1370.2</ele>
        <time>2015-06-27T09:02:37Z</time>
      </trkpt>
      <trkpt lat="42.26399" lon="8.89958">
        <ele>1370.4</ele>
        <time>2015-06-27T09:03:14Z</time>
      </trkpt>
      <trkpt lat="42.26356" lon="8.89939">
        <ele>1371</ele>
        <time>2015-06-27T09:03:55Z</time>
      </trkpt>
      <trkpt lat="42.26345" lon="8.8994">
        <ele>1370.8</ele>
        <time>2015-06-27T09:04:04Z</time>
      </trkpt>
      <trkpt lat="42.26328" lon="8.8994">
        <ele>1371.8</ele>
        <time>2015-06-27T09:04:24Z</time>
      </trkpt>
      <trkpt lat="42.2633" lon="8.89919">
        <ele>1372.2</ele>
        <time>2015-06-27T09:04:53Z</time>
      </trkpt>
      <trkpt lat="42.26359" lon="8.89872">
        <ele>1372.2</ele>
        <time>2015-06-27T09:05:23Z</time>
      </trkpt>
      <trkpt lat="42.26384" lon="8.89828">
        <ele>1372</ele>
        <time>2015-06-27T09:06:08Z</time>
      </trkpt>
      <trkpt lat="42.26414" lon="8.8979">
        <ele>1371.8</ele>
        <time>2015-06-27T09:06:49Z</time>
      </trkpt>
      <trkpt lat="42.26442" lon="8.89752">
        <ele>1372.6</ele>
        <time>2015-06-27T09:07:35Z</time>
      </trkpt>
      <trkpt lat="42.26451" lon="8.89747">
        <ele>1372</ele>
        <time>2015-06-27T09:07:44Z</time>
      </trkpt>
      <trkpt lat="42.26446" lon="8.89693">
        <ele>1371.4</ele>
        <time>2015-06-27T09:08:22Z</time>
      </trkpt>
      <trkpt lat="42.26452" lon="8.89653">
        <ele>1371.2</ele>
        <time>2015-06-27T09:08:57Z</time>
      </trkpt>
      <trkpt lat="42.26472" lon="8.89622">
        <ele>1372</ele>
        <time>2015-06-27T09:09:20Z</time>
      </trkpt>
      <trkpt lat="42.26507" lon="8.89592">
        <ele>1372.6</ele>
        <time>2015-06-27T09:09:58Z</time>
      </trkpt>
      <trkpt lat="42.26506" lon="8.89589">
        <ele>1372.4</ele>
        <time>2015-06-27T09:10:01Z</time>
      </trkpt>
      <trkpt lat="42.2652" lon="8.89537">
        <ele>1371.8</ele>
        <time>2015-06-27T09:10:55Z</time>
      </trkpt>
      <trkpt lat="42.2652" lon="8.89532">
        <ele>1372</ele>
        <time>2015-06-27T09:10:59Z</time>
      </trkpt>
      <trkpt lat="42.2652" lon="8.89525">
        <ele>1372</ele>
        <time>2015-06-27T09:11:04Z</time>
      </trkpt>
      <trkpt lat="42.26518" lon="8.89503">
        <ele>1372</ele>
        <time>2015-06-27T09:11:18Z</time>
      </trkpt>
      <trkpt lat="42.26516" lon="8.89488">
        <ele>1372</ele>
        <time>2015-06-27T09:11:26Z</time>
      </trkpt>
      <trkpt lat="42.26516" lon="8.89483">
        <ele>1371.8</ele>
        <time>2015-06-27T09:11:29Z</time>
      </trkpt>
      <trkpt lat="42.26515" lon="8.89474">
        <ele>1371.8</ele>
        <time>2015-06-27T09:11:35Z</time>
      </trkpt>
      <trkpt lat="42.26505" lon="8.89436">
        <ele>1372</ele>
        <time>2015-06-27T09:12:02Z</time>
      </trkpt>
      <trkpt lat="42.26506" lon="8.89427">
        <ele>1372</ele>
        <time>2015-06-27T09:12:07Z</time>
      </trkpt>
      <trkpt lat="42.26513" lon="8.89376">
        <ele>1372.8</ele>
        <time>2015-06-27T09:12:48Z</time>
      </trkpt>
      <trkpt lat="42.26533" lon="8.89372">
        <ele>1372.2</ele>
        <time>2015-06-27T09:13:06Z</time>
      </trkpt>
      <trkpt lat="42.26539" lon="8.89371">
        <ele>1371.8</ele>
        <time>2015-06-27T09:13:13Z</time>
      </trkpt>
      <trkpt lat="42.26542" lon="8.89371">
        <ele>1371.6</ele>
        <time>2015-06-27T09:13:16Z</time>
      </trkpt>
      <trkpt lat="42.26552" lon="8.89371">
        <ele>1371.4</ele>
        <time>2015-06-27T09:13:25Z</time>
      </trkpt>
      <trkpt lat="42.26555" lon="8.89368">
        <ele>1371.2</ele>
        <time>2015-06-27T09:13:28Z</time>
      </trkpt>
      <trkpt lat="42.26577" lon="8.89365">
        <ele>1370.8</ele>
        <time>2015-06-27T09:13:47Z</time>
      </trkpt>
      <trkpt lat="42.2659" lon="8.89374">
        <ele>1370.2</ele>
        <time>2015-06-27T09:14:00Z</time>
      </trkpt>
      <trkpt lat="42.26627" lon="8.89367">
        <ele>1369.2</ele>
        <time>2015-06-27T09:14:34Z</time>
      </trkpt>
      <trkpt lat="42.26664" lon="8.89335">
        <ele>1369.4</ele>
        <time>2015-06-27T09:15:10Z</time>
      </trkpt>
      <trkpt lat="42.2667" lon="8.89335">
        <ele>1369.4</ele>
        <time>2015-06-27T09:15:16Z</time>
      </trkpt>
      <trkpt lat="42.26675" lon="8.8934">
        <ele>1369.2</ele>
        <time>2015-06-27T09:15:21Z</time>
      </trkpt>
      <trkpt lat="42.26691" lon="8.89351">
        <ele>1367.6</ele>
        <time>2015-06-27T09:15:38Z</time>
      </trkpt>
      <trkpt lat="42.26697" lon="8.89355">
        <ele>1367.6</ele>
        <time>2015-06-27T09:15:43Z</time>
      </trkpt>
      <trkpt lat="42.26714" lon="8.89359">
        <ele>1367</ele>
        <time>2015-06-27T09:16:00Z</time>
      </trkpt>
      <trkpt lat="42.26726" lon="8.89344">
        <ele>1366.2</ele>
        <time>2015-06-27T09:16:16Z</time>
      </trkpt>
      <trkpt lat="42.26732" lon="8.89332">
        <ele>1366</ele>
        <time>2015-06-27T09:16:29Z</time>
      </trkpt>
      <trkpt lat="42.26737" lon="8.89324">
        <ele>1365.8</ele>
        <time>2015-06-27T09:16:35Z</time>
      </trkpt>
      <trkpt lat="42.26764" lon="8.89312">
        <ele>1365.2</ele>
        <time>2015-06-27T09:17:17Z</time>
      </trkpt>
      <trkpt lat="42.26809" lon="8.89331">
        <ele>1365.4</ele>
        <time>2015-06-27T09:18:02Z</time>
      </trkpt>
      <trkpt lat="42.26832" lon="8.89333">
        <ele>1365.4</ele>
        <time>2015-06-27T09:18:21Z</time>
      </trkpt>
      <trkpt lat="42.26843" lon="8.8933">
        <ele>1365.4</ele>
        <time>2015-06-27T09:18:27Z</time>
      </trkpt>
      <trkpt lat="42.26845" lon="8.89332">
        <ele>1365.2</ele>
        <time>2015-06-27T09:18:29Z</time>
      </trkpt>
      <trkpt lat="42.26846" lon="8.89335">
        <ele>1365</ele>
        <time>2015-06-27T09:18:31Z</time>
      </trkpt>
      <trkpt lat="42.26847" lon="8.89338">
        <ele>1365</ele>
        <time>2015-06-27T09:18:33Z</time>
      </trkpt>
      <trkpt lat="42.26854" lon="8.89341">
        <ele>1365</ele>
        <time>2015-06-27T09:18:39Z</time>
      </trkpt>
      <trkpt lat="42.2686" lon="8.89344">
        <ele>1365</ele>
        <time>2015-06-27T09:18:43Z</time>
      </trkpt>
      <trkpt lat="42.26862" lon="8.89345">
        <ele>1364.8</ele>
        <time>2015-06-27T09:18:45Z</time>
      </trkpt>
      <trkpt lat="42.26866" lon="8.89347">
        <ele>1364.8</ele>
        <time>2015-06-27T09:18:48Z</time>
      </trkpt>
      <trkpt lat="42.26873" lon="8.89348">
        <ele>1364.4</ele>
        <time>2015-06-27T09:18:53Z</time>
      </trkpt>
      <trkpt lat="42.26875" lon="8.89348">
        <ele>1364.4</ele>
        <time>2015-06-27T09:18:54Z</time>
      </trkpt>
      <trkpt lat="42.26881" lon="8.89346">
        <ele>1364.2</ele>
        <time>2015-06-27T09:18:59Z</time>
      </trkpt>
      <trkpt lat="42.26884" lon="8.89348">
        <ele>1364</ele>
        <time>2015-06-27T09:19:04Z</time>
      </trkpt>
      <trkpt lat="42.26888" lon="8.89346">
        <ele>1364</ele>
        <time>2015-06-27T09:19:08Z</time>
      </trkpt>
      <trkpt lat="42.26891" lon="8.89343">
        <ele>1363.8</ele>
        <time>2015-06-27T09:19:11Z</time>
      </trkpt>
      <trkpt lat="42.26898" lon="8.89328">
        <ele>1363.6</ele>
        <time>2015-06-27T09:19:21Z</time>
      </trkpt>
      <trkpt lat="42.26899" lon="8.89326">
        <ele>1363.6</ele>
        <time>2015-06-27T09:19:23Z</time>
      </trkpt>
      <trkpt lat="42.26904" lon="8.8932">
        <ele>1363.4</ele>
        <time>2015-06-27T09:19:29Z</time>
      </trkpt>
      <trkpt lat="42.26906" lon="8.89318">
        <ele>1363.6</ele>
        <time>2015-06-27T09:19:31Z</time>
      </trkpt>
      <trkpt lat="42.26911" lon="8.89313">
        <ele>1363</ele>
        <time>2015-06-27T09:19:38Z</time>
      </trkpt>
      <trkpt lat="42.26918" lon="8.89299">
        <ele>1362.8</ele>
        <time>2015-06-27T09:19:48Z</time>
      </trkpt>
      <trkpt lat="42.26928" lon="8.89274">
        <ele>1362.8</ele>
        <time>2015-06-27T09:20:14Z</time>
      </trkpt>
      <trkpt lat="42.26932" lon="8.89262">
        <ele>1362.6</ele>
        <time>2015-06-27T09:20:20Z</time>
      </trkpt>
      <trkpt lat="42.26932" lon="8.8926">
        <ele>1362.6</ele>
        <time>2015-06-27T09:20:21Z</time>
      </trkpt>
      <trkpt lat="42.26936" lon="8.89245">
        <ele>1362</ele>
        <time>2015-06-27T09:20:35Z</time>
      </trkpt>
      <trkpt lat="42.26935" lon="8.89239">
        <ele>1362</ele>
        <time>2015-06-27T09:20:38Z</time>
      </trkpt>
      <trkpt lat="42.26935" lon="8.89225">
        <ele>1362</ele>
        <time>2015-06-27T09:20:45Z</time>
      </trkpt>
      <trkpt lat="42.2694" lon="8.89205">
        <ele>1361.4</ele>
        <time>2015-06-27T09:20:56Z</time>
      </trkpt>
      <trkpt lat="42.26952" lon="8.89161">
        <ele>1360.4</ele>
        <time>2015-06-27T09:21:24Z</time>
      </trkpt>
      <trkpt lat="42.26963" lon="8.89147">
        <ele>1359.6</ele>
        <time>2015-06-27T09:21:37Z</time>
      </trkpt>
      <trkpt lat="42.26969" lon="8.89139">
        <ele>1359</ele>
        <time>2015-06-27T09:21:46Z</time>
      </trkpt>
      <trkpt lat="42.26986" lon="8.89111">
        <ele>1358</ele>
        <time>2015-06-27T09:22:06Z</time>
      </trkpt>
      <trkpt lat="42.26993" lon="8.89092">
        <ele>1357</ele>
        <time>2015-06-27T09:22:21Z</time>
      </trkpt>
      <trkpt lat="42.27008" lon="8.89083">
        <ele>1356.6</ele>
        <time>2015-06-27T09:22:35Z</time>
      </trkpt>
      <trkpt lat="42.27039" lon="8.89064">
        <ele>1355.8</ele>
        <time>2015-06-27T09:23:10Z</time>
      </trkpt>
      <trkpt lat="42.27052" lon="8.89054">
        <ele>1355.6</ele>
        <time>2015-06-27T09:23:19Z</time>
      </trkpt>
      <trkpt lat="42.27056" lon="8.89055">
        <ele>1354.8</ele>
        <time>2015-06-27T09:23:26Z</time>
      </trkpt>
      <trkpt lat="42.2706" lon="8.89055">
        <ele>1354.2</ele>
        <time>2015-06-27T09:23:30Z</time>
      </trkpt>
      <trkpt lat="42.27069" lon="8.89063">
        <ele>1352.4</ele>
        <time>2015-06-27T09:23:41Z</time>
      </trkpt>
      <trkpt lat="42.27087" lon="8.89102">
        <ele>1351.8</ele>
        <time>2015-06-27T09:24:20Z</time>
      </trkpt>
      <trkpt lat="42.27088" lon="8.89139">
        <ele>1351.6</ele>
        <time>2015-06-27T09:24:42Z</time>
      </trkpt>
      <trkpt lat="42.27095" lon="8.89156">
        <ele>1350.6</ele>
        <time>2015-06-27T09:24:54Z</time>
      </trkpt>
      <trkpt lat="42.27101" lon="8.89172">
        <ele>1349.8</ele>
        <time>2015-06-27T09:25:09Z</time>
      </trkpt>
      <trkpt lat="42.27119" lon="8.89211">
        <ele>1348.8</ele>
        <time>2015-06-27T09:25:35Z</time>
      </trkpt>
      <trkpt lat="42.27139" lon="8.89268">
        <ele>1348.4</ele>
        <time>2015-06-27T09:26:19Z</time>
      </trkpt>
      <trkpt lat="42.27151" lon="8.89306">
        <ele>1348.8</ele>
        <time>2015-06-27T09:26:47Z</time>
      </trkpt>
      <trkpt lat="42.27174" lon="8.89349">
        <ele>1348.2</ele>
        <time>2015-06-27T09:27:21Z</time>
      </trkpt>
      <trkpt lat="42.27191" lon="8.8937">
        <ele>1347.6</ele>
        <time>2015-06-27T09:27:39Z</time>
      </trkpt>
      <trkpt lat="42.2721" lon="8.89425">
        <ele>1348</ele>
        <time>2015-06-27T09:28:20Z</time>
      </trkpt>
      <trkpt lat="42.27228" lon="8.89447">
        <ele>1348.4</ele>
        <time>2015-06-27T09:28:43Z</time>
      </trkpt>
      <trkpt lat="42.27229" lon="8.89447">
        <ele>1348.6</ele>
        <time>2015-06-27T09:28:45Z</time>
      </trkpt>
      <trkpt lat="42.27238" lon="8.89447">
        <ele>1348.6</ele>
        <time>2015-06-27T09:28:52Z</time>
      </trkpt>
      <trkpt lat="42.27267" lon="8.89422">
        <ele>1349.2</ele>
        <time>2015-06-27T09:29:27Z</time>
      </trkpt>
      <trkpt lat="42.27278" lon="8.89407">
        <ele>1349</ele>
        <time>2015-06-27T09:29:41Z</time>
      </trkpt>
      <trkpt lat="42.27293" lon="8.89406">
        <ele>1348</ele>
        <time>2015-06-27T09:29:59Z</time>
      </trkpt>
      <trkpt lat="42.27332" lon="8.89374">
        <ele>1347.4</ele>
        <time>2015-06-27T09:30:37Z</time>
      </trkpt>
      <trkpt lat="42.27355" lon="8.89366">
        <ele>1347.4</ele>
        <time>2015-06-27T09:31:05Z</time>
      </trkpt>
      <trkpt lat="42.27363" lon="8.89364">
        <ele>1347.2</ele>
        <time>2015-06-27T09:31:10Z</time>
      </trkpt>
      <trkpt lat="42.27383" lon="8.89359">
        <ele>1347.4</ele>
        <time>2015-06-27T09:31:36Z</time>
      </trkpt>
      <trkpt lat="42.27385" lon="8.89358">
        <ele>1347.4</ele>
        <time>2015-06-27T09:31:39Z</time>
      </trkpt>
      <trkpt lat="42.27403" lon="8.89343">
        <ele>1347.4</ele>
        <time>2015-06-27T09:31:55Z</time>
      </trkpt>
      <trkpt lat="42.27449" lon="8.8933">
        <ele>1347.4</ele>
        <time>2015-06-27T09:32:32Z</time>
      </trkpt>
      <trkpt lat="42.27458" lon="8.89326">
        <ele>1347</ele>
        <time>2015-06-27T09:32:43Z</time>
      </trkpt>
      <trkpt lat="42.27465" lon="8.89325">
        <ele>1346.8</ele>
        <time>2015-06-27T09:32:50Z</time>
      </trkpt>
      <trkpt lat="42.27467" lon="8.89323">
        <ele>1346.8</ele>
        <time>2015-06-27T09:32:52Z</time>
      </trkpt>
      <trkpt lat="42.27471" lon="8.89323">
        <ele>1346.6</ele>
        <time>2015-06-27T09:32:55Z</time>
      </trkpt>
      <trkpt lat="42.27471" lon="8.89332">
        <ele>1346.6</ele>
        <time>2015-06-27T09:33:00Z</time>
      </trkpt>
      <trkpt lat="42.2748" lon="8.89344">
        <ele>1346.8</ele>
        <time>2015-06-27T09:33:13Z</time>
      </trkpt>
      <trkpt lat="42.27501" lon="8.89336">
        <ele>1346.8</ele>
        <time>2015-06-27T09:33:43Z</time>
      </trkpt>
      <trkpt lat="42.27502" lon="8.89327">
        <ele>1347.2</ele>
        <time>2015-06-27T09:33:51Z</time>
      </trkpt>
      <trkpt lat="42.2751" lon="8.89267">
        <ele>1347</ele>
        <time>2015-06-27T09:34:31Z</time>
      </trkpt>
      <trkpt lat="42.2751" lon="8.89227">
        <ele>1346.2</ele>
        <time>2015-06-27T09:34:58Z</time>
      </trkpt>
      <trkpt lat="42.27513" lon="8.89166">
        <ele>1345</ele>
        <time>2015-06-27T09:35:32Z</time>
      </trkpt>
      <trkpt lat="42.27527" lon="8.89107">
        <ele>1344</ele>
        <time>2015-06-27T09:36:01Z</time>
      </trkpt>
      <trkpt lat="42.27541" lon="8.89085">
        <ele>1344.4</ele>
        <time>2015-06-27T09:36:26Z</time>
      </trkpt>
      <trkpt lat="42.27558" lon="8.89088">
        <ele>1343.6</ele>
        <time>2015-06-27T09:36:50Z</time>
      </trkpt>
      <trkpt lat="42.27594" lon="8.89054">
        <ele>1343.4</ele>
        <time>2015-06-27T09:37:25Z</time>
      </trkpt>
      <trkpt lat="42.27595" lon="8.8905">
        <ele>1343.6</ele>
        <time>2015-06-27T09:37:30Z</time>
      </trkpt>
      <trkpt lat="42.27603" lon="8.89045">
        <ele>1344.2</ele>
        <time>2015-06-27T09:37:42Z</time>
      </trkpt>
      <trkpt lat="42.27606" lon="8.89043">
        <ele>1344.2</ele>
        <time>2015-06-27T09:37:46Z</time>
      </trkpt>
      <trkpt lat="42.27648" lon="8.89051">
        <ele>1343</ele>
        <time>2015-06-27T09:38:28Z</time>
      </trkpt>
      <trkpt lat="42.27687" lon="8.89058">
        <ele>1343.8</ele>
        <time>2015-06-27T09:39:05Z</time>
      </trkpt>
      <trkpt lat="42.27705" lon="8.89052">
        <ele>1344.6</ele>
        <time>2015-06-27T09:39:24Z</time>
      </trkpt>
      <trkpt lat="42.27716" lon="8.8905">
        <ele>1344.6</ele>
        <time>2015-06-27T09:39:37Z</time>
      </trkpt>
      <trkpt lat="42.27723" lon="8.89043">
        <ele>1344.4</ele>
        <time>2015-06-27T09:39:42Z</time>
      </trkpt>
      <trkpt lat="42.2775" lon="8.88994">
        <ele>1344.4</ele>
        <time>2015-06-27T09:40:20Z</time>
      </trkpt>
      <trkpt lat="42.27764" lon="8.8898">
        <ele>1344.2</ele>
        <time>2015-06-27T09:40:36Z</time>
      </trkpt>
      <trkpt lat="42.27793" lon="8.88984">
        <ele>1344.4</ele>
        <time>2015-06-27T09:41:04Z</time>
      </trkpt>
      <trkpt lat="42.27801" lon="8.88982">
        <ele>1344.2</ele>
        <time>2015-06-27T09:41:14Z</time>
      </trkpt>
      <trkpt lat="42.27815" lon="8.88968">
        <ele>1343.8</ele>
        <time>2015-06-27T09:41:24Z</time>
      </trkpt>
      <trkpt lat="42.27817" lon="8.88964">
        <ele>1344</ele>
        <time>2015-06-27T09:41:27Z</time>
      </trkpt>
      <trkpt lat="42.27823" lon="8.88957">
        <ele>1344.2</ele>
        <time>2015-06-27T09:41:35Z</time>
      </trkpt>
      <trkpt lat="42.27859" lon="8.88946">
        <ele>1344.4</ele>
        <time>2015-06-27T09:42:06Z</time>
      </trkpt>
      <trkpt lat="42.2787" lon="8.88942">
        <ele>1343.8</ele>
        <time>2015-06-27T09:42:21Z</time>
      </trkpt>
      <trkpt lat="42.27909" lon="8.88922">
        <ele>1344</ele>
        <time>2015-06-27T09:43:03Z</time>
      </trkpt>
      <trkpt lat="42.2795" lon="8.88951">
        <ele>1343.2</ele>
        <time>2015-06-27T09:43:45Z</time>
      </trkpt>
      <trkpt lat="42.27958" lon="8.88956">
        <ele>1343</ele>
        <time>2015-06-27T09:43:52Z</time>
      </trkpt>
      <trkpt lat="42.27983" lon="8.88996">
        <ele>1341.8</ele>
        <time>2015-06-27T09:44:29Z</time>
      </trkpt>
      <trkpt lat="42.28026" lon="8.89028">
        <ele>1341.6</ele>
        <time>2015-06-27T09:45:13Z</time>
      </trkpt>
      <trkpt lat="42.28043" lon="8.89043">
        <ele>1341.4</ele>
        <time>2015-06-27T09:45:31Z</time>
      </trkpt>
      <trkpt lat="42.28059" lon="8.8906">
        <ele>1340.4</ele>
        <time>2015-06-27T09:45:48Z</time>
      </trkpt>
      <trkpt lat="42.28107" lon="8.89066">
        <ele>1340</ele>
        <time>2015-06-27T09:46:27Z</time>
      </trkpt>
      <trkpt lat="42.2811" lon="8.89065">
        <ele>1340</ele>
        <time>2015-06-27T09:46:28Z</time>
      </trkpt>
      <trkpt lat="42.28152" lon="8.89085">
        <ele>1339.2</ele>
        <time>2015-06-27T09:47:11Z</time>
      </trkpt>
      <trkpt lat="42.28161" lon="8.89095">
        <ele>1339</ele>
        <time>2015-06-27T09:47:21Z</time>
      </trkpt>
      <trkpt lat="42.28173" lon="8.89138">
        <ele>1338.2</ele>
        <time>2015-06-27T09:47:53Z</time>
      </trkpt>
      <trkpt lat="42.28183" lon="8.89155">
        <ele>1338.6</ele>
        <time>2015-06-27T09:48:08Z</time>
      </trkpt>
      <trkpt lat="42.28201" lon="8.89181">
        <ele>1339</ele>
        <time>2015-06-27T09:48:33Z</time>
      </trkpt>
      <trkpt lat="42.28215" lon="8.89178">
        <ele>1338.6</ele>
        <time>2015-06-27T09:48:48Z</time>
      </trkpt>
      <trkpt lat="42.28248" lon="8.89171">
        <ele>1338.2</ele>
        <time>2015-06-27T09:49:14Z</time>
      </trkpt>
      <trkpt lat="42.28264" lon="8.89171">
        <ele>1338.4</ele>
        <time>2015-06-27T09:49:28Z</time>
      </trkpt>
      <trkpt lat="42.28265" lon="8.89174">
        <ele>1338.4</ele>
        <time>2015-06-27T09:49:31Z</time>
      </trkpt>
      <trkpt lat="42.28269" lon="8.89183">
        <ele>1338.4</ele>
        <time>2015-06-27T09:49:40Z</time>
      </trkpt>
      <trkpt lat="42.28297" lon="8.89232">
        <ele>1338.2</ele>
        <time>2015-06-27T09:50:23Z</time>
      </trkpt>
      <trkpt lat="42.28311" lon="8.89244">
        <ele>1338</ele>
        <time>2015-06-27T09:50:41Z</time>
      </trkpt>
      <trkpt lat="42.2831" lon="8.89246">
        <ele>1338</ele>
        <time>2015-06-27T09:50:43Z</time>
      </trkpt>
      <trkpt lat="42.28305" lon="8.89268">
        <ele>1338</ele>
        <time>2015-06-27T09:50:54Z</time>
      </trkpt>
      <trkpt lat="42.28305" lon="8.89316">
        <ele>1337.4</ele>
        <time>2015-06-27T09:51:25Z</time>
      </trkpt>
      <trkpt lat="42.28303" lon="8.89324">
        <ele>1337.4</ele>
        <time>2015-06-27T09:51:30Z</time>
      </trkpt>
      <trkpt lat="42.28304" lon="8.89326">
        <ele>1337.2</ele>
        <time>2015-06-27T09:51:31Z</time>
      </trkpt>
      <trkpt lat="42.283" lon="8.89361">
        <ele>1336.8</ele>
        <time>2015-06-27T09:51:46Z</time>
      </trkpt>
      <trkpt lat="42.28297" lon="8.89402">
        <ele>1336.8</ele>
        <time>2015-06-27T09:52:07Z</time>
      </trkpt>
      <trkpt lat="42.28298" lon="8.8941">
        <ele>1336.8</ele>
        <time>2015-06-27T09:52:13Z</time>
      </trkpt>
      <trkpt lat="42.283" lon="8.89414">
        <ele>1337</ele>
        <time>2015-06-27T09:52:17Z</time>
      </trkpt>
      <trkpt lat="42.28302" lon="8.89433">
        <ele>1337.4</ele>
        <time>2015-06-27T09:52:29Z</time>
      </trkpt>
      <trkpt lat="42.28303" lon="8.89442">
        <ele>1337.6</ele>
        <time>2015-06-27T09:52:36Z</time>
      </trkpt>
      <trkpt lat="42.28304" lon="8.89446">
        <ele>1337.6</ele>
        <time>2015-06-27T09:52:39Z</time>
      </trkpt>
      <trkpt lat="42.28306" lon="8.89453">
        <ele>1337.8</ele>
        <time>2015-06-27T09:52:46Z</time>
      </trkpt>
      <trkpt lat="42.28309" lon="8.89456">
        <ele>1337.8</ele>
        <time>2015-06-27T09:52:50Z</time>
      </trkpt>
      <trkpt lat="42.28314" lon="8.89464">
        <ele>1337.6</ele>
        <time>2015-06-27T09:52:58Z</time>
      </trkpt>
      <trkpt lat="42.28316" lon="8.89466">
        <ele>1337.6</ele>
        <time>2015-06-27T09:53:00Z</time>
      </trkpt>
      <trkpt lat="42.28318" lon="8.8947">
        <ele>1337.8</ele>
        <time>2015-06-27T09:53:03Z</time>
      </trkpt>
      <trkpt lat="42.28323" lon="8.89474">
        <ele>1337.6</ele>
        <time>2015-06-27T09:53:09Z</time>
      </trkpt>
      <trkpt lat="42.28325" lon="8.89483">
        <ele>1337.8</ele>
        <time>2015-06-27T09:53:13Z</time>
      </trkpt>
      <trkpt lat="42.28336" lon="8.89514">
        <ele>1338.2</ele>
        <time>2015-06-27T09:53:31Z</time>
      </trkpt>
      <trkpt lat="42.28338" lon="8.89518">
        <ele>1338</ele>
        <time>2015-06-27T09:53:34Z</time>
      </trkpt>
      <trkpt lat="42.28339" lon="8.89522">
        <ele>1338.2</ele>
        <time>2015-06-27T09:53:36Z</time>
      </trkpt>
      <trkpt lat="42.28343" lon="8.89525">
        <ele>1338.2</ele>
        <time>2015-06-27T09:53:40Z</time>
      </trkpt>
      <trkpt lat="42.28351" lon="8.8951">
        <ele>1338.8</ele>
        <time>2015-06-27T09:53:54Z</time>
      </trkpt>
      <trkpt lat="42.28352" lon="8.89504">
        <ele>1339.2</ele>
        <time>2015-06-27T09:54:01Z</time>
      </trkpt>
      <trkpt lat="42.28353" lon="8.89496">
        <ele>1340.2</ele>
        <time>2015-06-27T09:54:07Z</time>
      </trkpt>
      <trkpt lat="42.28353" lon="8.89491">
        <ele>1341.2</ele>
        <time>2015-06-27T09:54:13Z</time>
      </trkpt>
      <trkpt lat="42.28356" lon="8.89487">
        <ele>1342.2</ele>
        <time>2015-06-27T09:54:19Z</time>
      </trkpt>
      <trkpt lat="42.28358" lon="8.89484">
        <ele>1343</ele>
        <time>2015-06-27T09:54:24Z</time>
      </trkpt>
      <trkpt lat="42.28361" lon="8.89481">
        <ele>1343.4</ele>
        <time>2015-06-27T09:54:26Z</time>
      </trkpt>
      <trkpt lat="42.28363" lon="8.89482">
        <ele>1344.4</ele>
        <time>2015-06-27T09:54:30Z</time>
      </trkpt>
      <trkpt lat="42.28367" lon="8.89475">
        <ele>1345.6</ele>
        <time>2015-06-27T09:54:36Z</time>
      </trkpt>
      <trkpt lat="42.28368" lon="8.89474">
        <ele>1345.6</ele>
        <time>2015-06-27T09:54:37Z</time>
      </trkpt>
      <trkpt lat="42.28371" lon="8.8947">
        <ele>1346.6</ele>
        <time>2015-06-27T09:54:43Z</time>
      </trkpt>
      <trkpt lat="42.28374" lon="8.89465">
        <ele>1347.2</ele>
        <time>2015-06-27T09:54:47Z</time>
      </trkpt>
      <trkpt lat="42.28383" lon="8.89463">
        <ele>1348</ele>
        <time>2015-06-27T09:54:54Z</time>
      </trkpt>
      <trkpt lat="42.28388" lon="8.89465">
        <ele>1348.4</ele>
        <time>2015-06-27T09:55:00Z</time>
      </trkpt>
      <trkpt lat="42.28394" lon="8.89465">
        <ele>1349.8</ele>
        <time>2015-06-27T09:55:07Z</time>
      </trkpt>
      <trkpt lat="42.28408" lon="8.89469">
        <ele>1351</ele>
        <time>2015-06-27T09:55:15Z</time>
      </trkpt>
      <trkpt lat="42.28413" lon="8.8947">
        <ele>1351.8</ele>
        <time>2015-06-27T09:55:23Z</time>
      </trkpt>
      <trkpt lat="42.28415" lon="8.89472">
        <ele>1353</ele>
        <time>2015-06-27T09:55:31Z</time>
      </trkpt>
      <trkpt lat="42.28417" lon="8.89477">
        <ele>1353.8</ele>
        <time>2015-06-27T09:55:38Z</time>
      </trkpt>
      <trkpt lat="42.28422" lon="8.89477">
        <ele>1355.2</ele>
        <time>2015-06-27T09:55:48Z</time>
      </trkpt>
      <trkpt lat="42.28426" lon="8.89478">
        <ele>1355.6</ele>
        <time>2015-06-27T09:55:53Z</time>
      </trkpt>
      <trkpt lat="42.28428" lon="8.89477">
        <ele>1356</ele>
        <time>2015-06-27T09:55:55Z</time>
      </trkpt>
      <trkpt lat="42.28434" lon="8.89474">
        <ele>1357.2</ele>
        <time>2015-06-27T09:56:02Z</time>
      </trkpt>
      <trkpt lat="42.28437" lon="8.89473">
        <ele>1357.8</ele>
        <time>2015-06-27T09:56:08Z</time>
      </trkpt>
      <trkpt lat="42.28437" lon="8.89473">
        <ele>1358.8</ele>
        <time>2015-06-27T09:56:14Z</time>
      </trkpt>
      <trkpt lat="42.2844" lon="8.8947">
        <ele>1360</ele>
        <time>2015-06-27T09:56:20Z</time>
      </trkpt>
      <trkpt lat="42.28442" lon="8.89468">
        <ele>1360.8</ele>
        <time>2015-06-27T09:56:25Z</time>
      </trkpt>
      <trkpt lat="42.28442" lon="8.89468">
        <ele>1361.6</ele>
        <time>2015-06-27T09:56:30Z</time>
      </trkpt>
      <trkpt lat="42.28443" lon="8.89462">
        <ele>1362.8</ele>
        <time>2015-06-27T09:56:36Z</time>
      </trkpt>
      <trkpt lat="42.28446" lon="8.89458">
        <ele>1364</ele>
        <time>2015-06-27T09:56:42Z</time>
      </trkpt>
      <trkpt lat="42.28448" lon="8.89456">
        <ele>1364.2</ele>
        <time>2015-06-27T09:56:44Z</time>
      </trkpt>
      <trkpt lat="42.28451" lon="8.89453">
        <ele>1365.2</ele>
        <time>2015-06-27T09:56:49Z</time>
      </trkpt>
      <trkpt lat="42.28453" lon="8.89451">
        <ele>1365.4</ele>
        <time>2015-06-27T09:56:51Z</time>
      </trkpt>
      <trkpt lat="42.28455" lon="8.89449">
        <ele>1365.8</ele>
        <time>2015-06-27T09:56:53Z</time>
      </trkpt>
      <trkpt lat="42.28457" lon="8.89447">
        <ele>1366</ele>
        <time>2015-06-27T09:56:55Z</time>
      </trkpt>
      <trkpt lat="42.28465" lon="8.89444">
        <ele>1367.4</ele>
        <time>2015-06-27T09:57:04Z</time>
      </trkpt>
      <trkpt lat="42.28468" lon="8.89444">
        <ele>1368.4</ele>
        <time>2015-06-27T09:57:12Z</time>
      </trkpt>
      <trkpt lat="42.28475" lon="8.89445">
        <ele>1369.4</ele>
        <time>2015-06-27T09:57:21Z</time>
      </trkpt>
      <trkpt lat="42.28482" lon="8.89443">
        <ele>1370</ele>
        <time>2015-06-27T09:57:30Z</time>
      </trkpt>
      <trkpt lat="42.28484" lon="8.89442">
        <ele>1370.2</ele>
        <time>2015-06-27T09:57:32Z</time>
      </trkpt>
      <trkpt lat="42.28488" lon="8.89441">
        <ele>1371</ele>
        <time>2015-06-27T09:57:37Z</time>
      </trkpt>
      <trkpt lat="42.28491" lon="8.89439">
        <ele>1371.6</ele>
        <time>2015-06-27T09:57:42Z</time>
      </trkpt>
      <trkpt lat="42.28491" lon="8.89439">
        <ele>1372</ele>
        <time>2015-06-27T09:57:44Z</time>
      </trkpt>
      <trkpt lat="42.28496" lon="8.89436">
        <ele>1373</ele>
        <time>2015-06-27T09:57:51Z</time>
      </trkpt>
      <trkpt lat="42.285" lon="8.89436">
        <ele>1374</ele>
        <time>2015-06-27T09:57:58Z</time>
      </trkpt>
      <trkpt lat="42.28503" lon="8.89437">
        <ele>1374.8</ele>
        <time>2015-06-27T09:58:04Z</time>
      </trkpt>
      <trkpt lat="42.28505" lon="8.89432">
        <ele>1375.8</ele>
        <time>2015-06-27T09:58:12Z</time>
      </trkpt>
      <trkpt lat="42.28505" lon="8.89427">
        <ele>1376.6</ele>
        <time>2015-06-27T09:58:17Z</time>
      </trkpt>
      <trkpt lat="42.28509" lon="8.89424">
        <ele>1377.6</ele>
        <time>2015-06-27T09:58:22Z</time>
      </trkpt>
      <trkpt lat="42.28512" lon="8.89423">
        <ele>1378.6</ele>
        <time>2015-06-27T09:58:28Z</time>
      </trkpt>
      <trkpt lat="42.28516" lon="8.89426">
        <ele>1379.4</ele>
        <time>2015-06-27T09:58:33Z</time>
      </trkpt>
      <trkpt lat="42.28521" lon="8.89425">
        <ele>1379.6</ele>
        <time>2015-06-27T09:58:36Z</time>
      </trkpt>
      <trkpt lat="42.28524" lon="8.89425">
        <ele>1380.4</ele>
        <time>2015-06-27T09:58:39Z</time>
      </trkpt>
      <trkpt lat="42.28526" lon="8.89428">
        <ele>1381.2</ele>
        <time>2015-06-27T09:58:43Z</time>
      </trkpt>
      <trkpt lat="42.28526" lon="8.89427">
        <ele>1381.4</ele>
        <time>2015-06-27T09:58:45Z</time>
      </trkpt>
      <trkpt lat="42.2853" lon="8.89428">
        <ele>1382.2</ele>
        <time>2015-06-27T09:58:51Z</time>
      </trkpt>
      <trkpt lat="42.28533" lon="8.89426">
        <ele>1383.4</ele>
        <time>2015-06-27T09:58:57Z</time>
      </trkpt>
      <trkpt lat="42.28536" lon="8.89425">
        <ele>1384.4</ele>
        <time>2015-06-27T09:59:05Z</time>
      </trkpt>
      <trkpt lat="42.28541" lon="8.89428">
        <ele>1385</ele>
        <time>2015-06-27T09:59:11Z</time>
      </trkpt>
      <trkpt lat="42.28544" lon="8.89429">
        <ele>1386.2</ele>
        <time>2015-06-27T09:59:17Z</time>
      </trkpt>
      <trkpt lat="42.28547" lon="8.89428">
        <ele>1387</ele>
        <time>2015-06-27T09:59:22Z</time>
      </trkpt>
      <trkpt lat="42.28549" lon="8.89426">
        <ele>1387.8</ele>
        <time>2015-06-27T09:59:27Z</time>
      </trkpt>
      <trkpt lat="42.28552" lon="8.89426">
        <ele>1389</ele>
        <time>2015-06-27T09:59:32Z</time>
      </trkpt>
      <trkpt lat="42.28555" lon="8.89428">
        <ele>1389.8</ele>
        <time>2015-06-27T09:59:38Z</time>
      </trkpt>
      <trkpt lat="42.28557" lon="8.89431">
        <ele>1390.6</ele>
        <time>2015-06-27T09:59:42Z</time>
      </trkpt>
      <trkpt lat="42.28563" lon="8.8944">
        <ele>1392</ele>
        <time>2015-06-27T09:59:49Z</time>
      </trkpt>
      <trkpt lat="42.28567" lon="8.89445">
        <ele>1393</ele>
        <time>2015-06-27T09:59:56Z</time>
      </trkpt>
      <trkpt lat="42.28571" lon="8.89448">
        <ele>1393.6</ele>
        <time>2015-06-27T10:00:00Z</time>
      </trkpt>
      <trkpt lat="42.28573" lon="8.89452">
        <ele>1393.8</ele>
        <time>2015-06-27T10:00:03Z</time>
      </trkpt>
      <trkpt lat="42.28579" lon="8.89461">
        <ele>1394.8</ele>
        <time>2015-06-27T10:00:10Z</time>
      </trkpt>
      <trkpt lat="42.28585" lon="8.89464">
        <ele>1395.8</ele>
        <time>2015-06-27T10:00:17Z</time>
      </trkpt>
      <trkpt lat="42.28592" lon="8.8947">
        <ele>1397.2</ele>
        <time>2015-06-27T10:00:26Z</time>
      </trkpt>
      <trkpt lat="42.28598" lon="8.89476">
        <ele>1397.8</ele>
        <time>2015-06-27T10:00:34Z</time>
      </trkpt>
      <trkpt lat="42.28602" lon="8.89479">
        <ele>1398.6</ele>
        <time>2015-06-27T10:00:41Z</time>
      </trkpt>
      <trkpt lat="42.28607" lon="8.89481">
        <ele>1399.4</ele>
        <time>2015-06-27T10:00:46Z</time>
      </trkpt>
      <trkpt lat="42.28611" lon="8.89482">
        <ele>1400.4</ele>
        <time>2015-06-27T10:00:52Z</time>
      </trkpt>
      <trkpt lat="42.28617" lon="8.8948">
        <ele>1401.8</ele>
        <time>2015-06-27T10:01:00Z</time>
      </trkpt>
      <trkpt lat="42.28621" lon="8.8948">
        <ele>1402.4</ele>
        <time>2015-06-27T10:01:06Z</time>
      </trkpt>
      <trkpt lat="42.28623" lon="8.89479">
        <ele>1403</ele>
        <time>2015-06-27T10:01:11Z</time>
      </trkpt>
      <trkpt lat="42.28625" lon="8.89476">
        <ele>1404.4</ele>
        <time>2015-06-27T10:01:17Z</time>
      </trkpt>
      <trkpt lat="42.28625" lon="8.89474">
        <ele>1405.4</ele>
        <time>2015-06-27T10:01:22Z</time>
      </trkpt>
      <trkpt lat="42.28626" lon="8.89471">
        <ele>1406.4</ele>
        <time>2015-06-27T10:01:28Z</time>
      </trkpt>
      <trkpt lat="42.28628" lon="8.89463">
        <ele>1407.8</ele>
        <time>2015-06-27T10:01:52Z</time>
      </trkpt>
      <trkpt lat="42.28631" lon="8.89451">
        <ele>1408</ele>
        <time>2015-06-27T10:02:07Z</time>
      </trkpt>
      <trkpt lat="42.28637" lon="8.89423">
        <ele>1409.2</ele>
        <time>2015-06-27T10:02:29Z</time>
      </trkpt>
      <trkpt lat="42.28637" lon="8.89395">
        <ele>1409.8</ele>
        <time>2015-06-27T10:02:50Z</time>
      </trkpt>
      <trkpt lat="42.28644" lon="8.89367">
        <ele>1410.4</ele>
        <time>2015-06-27T10:03:14Z</time>
      </trkpt>
      <trkpt lat="42.28646" lon="8.89359">
        <ele>1411</ele>
        <time>2015-06-27T10:03:31Z</time>
      </trkpt>
      <trkpt lat="42.28649" lon="8.89336">
        <ele>1411</ele>
        <time>2015-06-27T10:03:39Z</time>
      </trkpt>
      <trkpt lat="42.28653" lon="8.89313">
        <ele>1411.2</ele>
        <time>2015-06-27T10:03:50Z</time>
      </trkpt>
      <trkpt lat="42.28654" lon="8.89295">
        <ele>1412.4</ele>
        <time>2015-06-27T10:04:02Z</time>
      </trkpt>
      <trkpt lat="42.28655" lon="8.89283">
        <ele>1412.8</ele>
        <time>2015-06-27T10:04:08Z</time>
      </trkpt>
      <trkpt lat="42.28656" lon="8.89267">
        <ele>1413.2</ele>
        <time>2015-06-27T10:04:18Z</time>
      </trkpt>
      <trkpt lat="42.28665" lon="8.89249">
        <ele>1414.4</ele>
        <time>2015-06-27T10:04:36Z</time>
      </trkpt>
      <trkpt lat="42.28666" lon="8.89247">
        <ele>1414.4</ele>
        <time>2015-06-27T10:04:42Z</time>
      </trkpt>
      <trkpt lat="42.2866" lon="8.89252">
        <ele>1414.6</ele>
        <time>2015-06-27T10:05:21Z</time>
      </trkpt>
      <trkpt lat="42.2866" lon="8.89253">
        <ele>1414.8</ele>
        <time>2015-06-27T10:05:25Z</time>
      </trkpt>
      <trkpt lat="42.2866" lon="8.89254">
        <ele>1414.6</ele>
        <time>2015-06-27T10:05:27Z</time>
      </trkpt>
      <trkpt lat="42.2866" lon="8.89254">
        <ele>1414.6</ele>
        <time>2015-06-27T10:05:29Z</time>
      </trkpt>
      <trkpt lat="42.28664" lon="8.89242">
        <ele>1420.6</ele>
        <time>2015-06-27T12:21:16Z</time>
      </trkpt>
      <trkpt lat="42.28672" lon="8.89251">
        <ele>1420.6</ele>
        <time>2015-06-27T12:21:27Z</time>
      </trkpt>
      <trkpt lat="42.28668" lon="8.8925">
        <ele>1420.8</ele>
        <time>2015-06-27T12:21:31Z</time>
      </trkpt>
      <trkpt lat="42.28669" lon="8.89244">
        <ele>1420.6</ele>
        <time>2015-06-27T12:23:27Z</time>
      </trkpt>
      <trkpt lat="42.2865" lon="8.89235">
        <ele>1421</ele>
        <time>2015-06-27T12:23:50Z</time>
      </trkpt>
      <trkpt lat="42.28667" lon="8.89243">
        <ele>1421</ele>
        <time>2015-06-27T12:26:42Z</time>
      </trkpt>
      <trkpt lat="42.28669" lon="8.89249">
        <ele>1420.4</ele>
        <time>2015-06-27T12:29:01Z</time>
      </trkpt>
      <trkpt lat="42.2867" lon="8.89222">
        <ele>1420.4</ele>
        <time>2015-06-27T12:29:21Z</time>
      </trkpt>
      <trkpt lat="42.28686" lon="8.8918">
        <ele>1421.2</ele>
        <time>2015-06-27T12:29:54Z</time>
      </trkpt>
      <trkpt lat="42.28687" lon="8.89178">
        <ele>1421.4</ele>
        <time>2015-06-27T12:29:56Z</time>
      </trkpt>
      <trkpt lat="42.28688" lon="8.89177">
        <ele>1421.4</ele>
        <time>2015-06-27T12:29:58Z</time>
      </trkpt>
      <trkpt lat="42.28692" lon="8.89175">
        <ele>1422.2</ele>
        <time>2015-06-27T12:30:04Z</time>
      </trkpt>
      <trkpt lat="42.28699" lon="8.89177">
        <ele>1423.4</ele>
        <time>2015-06-27T12:30:15Z</time>
      </trkpt>
      <trkpt lat="42.28708" lon="8.89176">
        <ele>1424.2</ele>
        <time>2015-06-27T12:30:23Z</time>
      </trkpt>
      <trkpt lat="42.2872" lon="8.89178">
        <ele>1425.6</ele>
        <time>2015-06-27T12:30:33Z</time>
      </trkpt>
      <trkpt lat="42.28739" lon="8.89184">
        <ele>1426.8</ele>
        <time>2015-06-27T12:30:50Z</time>
      </trkpt>
      <trkpt lat="42.28764" lon="8.89181">
        <ele>1428</ele>
        <time>2015-06-27T12:31:11Z</time>
      </trkpt>
      <trkpt lat="42.28784" lon="8.89161">
        <ele>1429.2</ele>
        <time>2015-06-27T12:31:34Z</time>
      </trkpt>
      <trkpt lat="42.28784" lon="8.89159">
        <ele>1429.2</ele>
        <time>2015-06-27T12:31:36Z</time>
      </trkpt>
      <trkpt lat="42.28794" lon="8.8916">
        <ele>1429</ele>
        <time>2015-06-27T12:31:59Z</time>
      </trkpt>
      <trkpt lat="42.288" lon="8.89151">
        <ele>1427.8</ele>
        <time>2015-06-27T12:32:09Z</time>
      </trkpt>
      <trkpt lat="42.28804" lon="8.89142">
        <ele>1426.2</ele>
        <time>2015-06-27T12:32:18Z</time>
      </trkpt>
      <trkpt lat="42.28809" lon="8.8913">
        <ele>1425.2</ele>
        <time>2015-06-27T12:32:31Z</time>
      </trkpt>
      <trkpt lat="42.28813" lon="8.89118">
        <ele>1424.6</ele>
        <time>2015-06-27T12:32:44Z</time>
      </trkpt>
      <trkpt lat="42.28815" lon="8.89111">
        <ele>1423.6</ele>
        <time>2015-06-27T12:32:50Z</time>
      </trkpt>
      <trkpt lat="42.28816" lon="8.89075">
        <ele>1422.2</ele>
        <time>2015-06-27T12:33:33Z</time>
      </trkpt>
      <trkpt lat="42.28818" lon="8.89066">
        <ele>1422</ele>
        <time>2015-06-27T12:33:41Z</time>
      </trkpt>
      <trkpt lat="42.28821" lon="8.89061">
        <ele>1422.2</ele>
        <time>2015-06-27T12:33:46Z</time>
      </trkpt>
      <trkpt lat="42.28822" lon="8.89057">
        <ele>1422</ele>
        <time>2015-06-27T12:33:49Z</time>
      </trkpt>
      <trkpt lat="42.28826" lon="8.89041">
        <ele>1422.2</ele>
        <time>2015-06-27T12:33:59Z</time>
      </trkpt>
      <trkpt lat="42.28827" lon="8.89014">
        <ele>1422</ele>
        <time>2015-06-27T12:34:19Z</time>
      </trkpt>
      <trkpt lat="42.28836" lon="8.88997">
        <ele>1422.2</ele>
        <time>2015-06-27T12:34:38Z</time>
      </trkpt>
      <trkpt lat="42.28848" lon="8.88985">
        <ele>1422</ele>
        <time>2015-06-27T12:35:00Z</time>
      </trkpt>
      <trkpt lat="42.28852" lon="8.88977">
        <ele>1422</ele>
        <time>2015-06-27T12:35:09Z</time>
      </trkpt>
      <trkpt lat="42.28855" lon="8.88974">
        <ele>1422.8</ele>
        <time>2015-06-27T12:35:14Z</time>
      </trkpt>
      <trkpt lat="42.28858" lon="8.88972">
        <ele>1423</ele>
        <time>2015-06-27T12:35:17Z</time>
      </trkpt>
      <trkpt lat="42.28882" lon="8.88937">
        <ele>1423.8</ele>
        <time>2015-06-27T12:35:49Z</time>
      </trkpt>
      <trkpt lat="42.28888" lon="8.88929">
        <ele>1422.8</ele>
        <time>2015-06-27T12:35:57Z</time>
      </trkpt>
      <trkpt lat="42.28894" lon="8.88923">
        <ele>1421.6</ele>
        <time>2015-06-27T12:36:05Z</time>
      </trkpt>
      <trkpt lat="42.289" lon="8.88917">
        <ele>1420.8</ele>
        <time>2015-06-27T12:36:11Z</time>
      </trkpt>
      <trkpt lat="42.28905" lon="8.88914">
        <ele>1420</ele>
        <time>2015-06-27T12:36:16Z</time>
      </trkpt>
      <trkpt lat="42.28909" lon="8.88911">
        <ele>1418.8</ele>
        <time>2015-06-27T12:36:21Z</time>
      </trkpt>
      <trkpt lat="42.28914" lon="8.88908">
        <ele>1417.4</ele>
        <time>2015-06-27T12:36:28Z</time>
      </trkpt>
      <trkpt lat="42.28918" lon="8.88902">
        <ele>1416.4</ele>
        <time>2015-06-27T12:36:35Z</time>
      </trkpt>
      <trkpt lat="42.2892" lon="8.88896">
        <ele>1415.4</ele>
        <time>2015-06-27T12:36:41Z</time>
      </trkpt>
      <trkpt lat="42.28922" lon="8.88889">
        <ele>1414</ele>
        <time>2015-06-27T12:36:51Z</time>
      </trkpt>
      <trkpt lat="42.28926" lon="8.88875">
        <ele>1412.6</ele>
        <time>2015-06-27T12:37:31Z</time>
      </trkpt>
      <trkpt lat="42.28927" lon="8.8887">
        <ele>1412.2</ele>
        <time>2015-06-27T12:37:38Z</time>
      </trkpt>
      <trkpt lat="42.28925" lon="8.88865">
        <ele>1411.6</ele>
        <time>2015-06-27T12:37:42Z</time>
      </trkpt>
      <trkpt lat="42.28924" lon="8.88859">
        <ele>1411.4</ele>
        <time>2015-06-27T12:37:47Z</time>
      </trkpt>
      <trkpt lat="42.28923" lon="8.88858">
        <ele>1411.4</ele>
        <time>2015-06-27T12:37:49Z</time>
      </trkpt>
      <trkpt lat="42.28922" lon="8.88853">
        <ele>1411.6</ele>
        <time>2015-06-27T12:37:53Z</time>
      </trkpt>
      <trkpt lat="42.28922" lon="8.88851">
        <ele>1411.8</ele>
        <time>2015-06-27T12:37:55Z</time>
      </trkpt>
      <trkpt lat="42.28922" lon="8.88847">
        <ele>1412</ele>
        <time>2015-06-27T12:37:57Z</time>
      </trkpt>
      <trkpt lat="42.28924" lon="8.88832">
        <ele>1411.6</ele>
        <time>2015-06-27T12:38:06Z</time>
      </trkpt>
      <trkpt lat="42.28925" lon="8.88813">
        <ele>1411.6</ele>
        <time>2015-06-27T12:38:20Z</time>
      </trkpt>
      <trkpt lat="42.28926" lon="8.88795">
        <ele>1413</ele>
        <time>2015-06-27T12:38:37Z</time>
      </trkpt>
      <trkpt lat="42.28941" lon="8.88763">
        <ele>1414.2</ele>
        <time>2015-06-27T12:39:01Z</time>
      </trkpt>
      <trkpt lat="42.28941" lon="8.88758">
        <ele>1414.4</ele>
        <time>2015-06-27T12:39:07Z</time>
      </trkpt>
      <trkpt lat="42.28941" lon="8.88755">
        <ele>1415.4</ele>
        <time>2015-06-27T12:39:12Z</time>
      </trkpt>
      <trkpt lat="42.28939" lon="8.8875">
        <ele>1416.8</ele>
        <time>2015-06-27T12:39:20Z</time>
      </trkpt>
      <trkpt lat="42.28942" lon="8.88746">
        <ele>1417.8</ele>
        <time>2015-06-27T12:39:26Z</time>
      </trkpt>
      <trkpt lat="42.28945" lon="8.8874">
        <ele>1419</ele>
        <time>2015-06-27T12:39:33Z</time>
      </trkpt>
      <trkpt lat="42.2895" lon="8.88723">
        <ele>1418.2</ele>
        <time>2015-06-27T12:39:50Z</time>
      </trkpt>
      <trkpt lat="42.2895" lon="8.88712">
        <ele>1417.8</ele>
        <time>2015-06-27T12:40:03Z</time>
      </trkpt>
      <trkpt lat="42.2895" lon="8.88706">
        <ele>1417.4</ele>
        <time>2015-06-27T12:40:08Z</time>
      </trkpt>
      <trkpt lat="42.28949" lon="8.88698">
        <ele>1415.8</ele>
        <time>2015-06-27T12:40:14Z</time>
      </trkpt>
      <trkpt lat="42.28945" lon="8.88692">
        <ele>1415</ele>
        <time>2015-06-27T12:40:21Z</time>
      </trkpt>
      <trkpt lat="42.28939" lon="8.88683">
        <ele>1415.6</ele>
        <time>2015-06-27T12:40:34Z</time>
      </trkpt>
      <trkpt lat="42.28937" lon="8.8868">
        <ele>1416</ele>
        <time>2015-06-27T12:40:38Z</time>
      </trkpt>
      <trkpt lat="42.28925" lon="8.88657">
        <ele>1415.2</ele>
        <time>2015-06-27T12:41:03Z</time>
      </trkpt>
      <trkpt lat="42.28922" lon="8.88649">
        <ele>1415.4</ele>
        <time>2015-06-27T12:41:10Z</time>
      </trkpt>
      <trkpt lat="42.28917" lon="8.88646">
        <ele>1415.8</ele>
        <time>2015-06-27T12:41:15Z</time>
      </trkpt>
      <trkpt lat="42.28909" lon="8.88636">
        <ele>1416.8</ele>
        <time>2015-06-27T12:41:28Z</time>
      </trkpt>
      <trkpt lat="42.28908" lon="8.88636">
        <ele>1417</ele>
        <time>2015-06-27T12:41:29Z</time>
      </trkpt>
      <trkpt lat="42.28904" lon="8.88634">
        <ele>1417.2</ele>
        <time>2015-06-27T12:41:33Z</time>
      </trkpt>
      <trkpt lat="42.28892" lon="8.88623">
        <ele>1417.2</ele>
        <time>2015-06-27T12:41:48Z</time>
      </trkpt>
      <trkpt lat="42.28889" lon="8.88618">
        <ele>1417.2</ele>
        <time>2015-06-27T12:41:51Z</time>
      </trkpt>
      <trkpt lat="42.28887" lon="8.88615">
        <ele>1417.2</ele>
        <time>2015-06-27T12:41:55Z</time>
      </trkpt>
      <trkpt lat="42.28887" lon="8.88613">
        <ele>1417.2</ele>
        <time>2015-06-27T12:41:57Z</time>
      </trkpt>
      <trkpt lat="42.28892" lon="8.88589">
        <ele>1418.6</ele>
        <time>2015-06-27T12:42:18Z</time>
      </trkpt>
      <trkpt lat="42.289" lon="8.88568">
        <ele>1417.6</ele>
        <time>2015-06-27T12:42:39Z</time>
      </trkpt>
      <trkpt lat="42.28901" lon="8.8856">
        <ele>1417.8</ele>
        <time>2015-06-27T12:42:43Z</time>
      </trkpt>
      <trkpt lat="42.28903" lon="8.88557">
        <ele>1418</ele>
        <time>2015-06-27T12:42:46Z</time>
      </trkpt>
      <trkpt lat="42.28905" lon="8.88554">
        <ele>1418.2</ele>
        <time>2015-06-27T12:42:49Z</time>
      </trkpt>
      <trkpt lat="42.28906" lon="8.88553">
        <ele>1418.4</ele>
        <time>2015-06-27T12:42:51Z</time>
      </trkpt>
      <trkpt lat="42.28911" lon="8.88545">
        <ele>1419.4</ele>
        <time>2015-06-27T12:43:01Z</time>
      </trkpt>
      <trkpt lat="42.28913" lon="8.8854">
        <ele>1420</ele>
        <time>2015-06-27T12:43:06Z</time>
      </trkpt>
      <trkpt lat="42.28914" lon="8.88537">
        <ele>1420</ele>
        <time>2015-06-27T12:43:08Z</time>
      </trkpt>
      <trkpt lat="42.28915" lon="8.88536">
        <ele>1420.2</ele>
        <time>2015-06-27T12:43:09Z</time>
      </trkpt>
      <trkpt lat="42.28915" lon="8.88535">
        <ele>1420.6</ele>
        <time>2015-06-27T12:43:11Z</time>
      </trkpt>
      <trkpt lat="42.28915" lon="8.8853">
        <ele>1421.4</ele>
        <time>2015-06-27T12:43:14Z</time>
      </trkpt>
      <trkpt lat="42.28914" lon="8.88528">
        <ele>1421.4</ele>
        <time>2015-06-27T12:43:16Z</time>
      </trkpt>
      <trkpt lat="42.28915" lon="8.88526">
        <ele>1421.6</ele>
        <time>2015-06-27T12:43:18Z</time>
      </trkpt>
      <trkpt lat="42.28925" lon="8.88513">
        <ele>1422.4</ele>
        <time>2015-06-27T12:43:31Z</time>
      </trkpt>
      <trkpt lat="42.28926" lon="8.88511">
        <ele>1422.4</ele>
        <time>2015-06-27T12:43:33Z</time>
      </trkpt>
      <trkpt lat="42.28926" lon="8.88509">
        <ele>1422.4</ele>
        <time>2015-06-27T12:43:36Z</time>
      </trkpt>
      <trkpt lat="42.28926" lon="8.88508">
        <ele>1422.4</ele>
        <time>2015-06-27T12:43:38Z</time>
      </trkpt>
      <trkpt lat="42.28925" lon="8.88504">
        <ele>1422.8</ele>
        <time>2015-06-27T12:43:43Z</time>
      </trkpt>
      <trkpt lat="42.28932" lon="8.88495">
        <ele>1423.8</ele>
        <time>2015-06-27T12:43:56Z</time>
      </trkpt>
      <trkpt lat="42.28937" lon="8.88489">
        <ele>1423.6</ele>
        <time>2015-06-27T12:44:01Z</time>
      </trkpt>
      <trkpt lat="42.2894" lon="8.88488">
        <ele>1423.6</ele>
        <time>2015-06-27T12:44:03Z</time>
      </trkpt>
      <trkpt lat="42.28942" lon="8.88484">
        <ele>1423.4</ele>
        <time>2015-06-27T12:44:06Z</time>
      </trkpt>
      <trkpt lat="42.28941" lon="8.8848">
        <ele>1422.8</ele>
        <time>2015-06-27T12:44:08Z</time>
      </trkpt>
      <trkpt lat="42.28944" lon="8.88477">
        <ele>1422.6</ele>
        <time>2015-06-27T12:44:11Z</time>
      </trkpt>
      <trkpt lat="42.28951" lon="8.88469">
        <ele>1422.6</ele>
        <time>2015-06-27T12:44:19Z</time>
      </trkpt>
      <trkpt lat="42.28956" lon="8.88463">
        <ele>1422.8</ele>
        <time>2015-06-27T12:44:25Z</time>
      </trkpt>
      <trkpt lat="42.28955" lon="8.88457">
        <ele>1422.8</ele>
        <time>2015-06-27T12:44:30Z</time>
      </trkpt>
      <trkpt lat="42.28968" lon="8.8844">
        <ele>1423.2</ele>
        <time>2015-06-27T12:44:53Z</time>
      </trkpt>
      <trkpt lat="42.28988" lon="8.88427">
        <ele>1422.2</ele>
        <time>2015-06-27T12:45:08Z</time>
      </trkpt>
      <trkpt lat="42.28992" lon="8.88423">
        <ele>1422.6</ele>
        <time>2015-06-27T12:45:12Z</time>
      </trkpt>
      <trkpt lat="42.28996" lon="8.88405">
        <ele>1423.2</ele>
        <time>2015-06-27T12:45:30Z</time>
      </trkpt>
      <trkpt lat="42.28996" lon="8.88402">
        <ele>1423.2</ele>
        <time>2015-06-27T12:45:32Z</time>
      </trkpt>
      <trkpt lat="42.28995" lon="8.88399">
        <ele>1423.2</ele>
        <time>2015-06-27T12:45:35Z</time>
      </trkpt>
      <trkpt lat="42.28996" lon="8.88395">
        <ele>1423.4</ele>
        <time>2015-06-27T12:45:39Z</time>
      </trkpt>
      <trkpt lat="42.29009" lon="8.88387">
        <ele>1423.8</ele>
        <time>2015-06-27T12:45:52Z</time>
      </trkpt>
      <trkpt lat="42.29011" lon="8.88382">
        <ele>1424</ele>
        <time>2015-06-27T12:45:56Z</time>
      </trkpt>
      <trkpt lat="42.29012" lon="8.88378">
        <ele>1424</ele>
        <time>2015-06-27T12:45:58Z</time>
      </trkpt>
      <trkpt lat="42.29013" lon="8.88371">
        <ele>1424.2</ele>
        <time>2015-06-27T12:46:03Z</time>
      </trkpt>
      <trkpt lat="42.29031" lon="8.88354">
        <ele>1424.2</ele>
        <time>2015-06-27T12:46:18Z</time>
      </trkpt>
      <trkpt lat="42.29033" lon="8.88352">
        <ele>1424.4</ele>
        <time>2015-06-27T12:46:21Z</time>
      </trkpt>
      <trkpt lat="42.29035" lon="8.88348">
        <ele>1424.8</ele>
        <time>2015-06-27T12:46:24Z</time>
      </trkpt>
      <trkpt lat="42.29034" lon="8.88344">
        <ele>1425</ele>
        <time>2015-06-27T12:46:28Z</time>
      </trkpt>
      <trkpt lat="42.29035" lon="8.88341">
        <ele>1425.2</ele>
        <time>2015-06-27T12:46:31Z</time>
      </trkpt>
      <trkpt lat="42.29037" lon="8.88333">
        <ele>1425.2</ele>
        <time>2015-06-27T12:46:37Z</time>
      </trkpt>
      <trkpt lat="42.2904" lon="8.8833">
        <ele>1425.2</ele>
        <time>2015-06-27T12:46:39Z</time>
      </trkpt>
      <trkpt lat="42.29043" lon="8.88325">
        <ele>1425</ele>
        <time>2015-06-27T12:46:44Z</time>
      </trkpt>
      <trkpt lat="42.29044" lon="8.88313">
        <ele>1424.8</ele>
        <time>2015-06-27T12:46:51Z</time>
      </trkpt>
      <trkpt lat="42.29043" lon="8.88309">
        <ele>1424.8</ele>
        <time>2015-06-27T12:46:54Z</time>
      </trkpt>
      <trkpt lat="42.29044" lon="8.88305">
        <ele>1424.8</ele>
        <time>2015-06-27T12:46:57Z</time>
      </trkpt>
      <trkpt lat="42.29045" lon="8.883">
        <ele>1425.2</ele>
        <time>2015-06-27T12:47:00Z</time>
      </trkpt>
      <trkpt lat="42.29046" lon="8.88297">
        <ele>1425.8</ele>
        <time>2015-06-27T12:47:03Z</time>
      </trkpt>
      <trkpt lat="42.29049" lon="8.88282">
        <ele>1426</ele>
        <time>2015-06-27T12:47:15Z</time>
      </trkpt>
      <trkpt lat="42.2905" lon="8.88279">
        <ele>1426</ele>
        <time>2015-06-27T12:47:19Z</time>
      </trkpt>
      <trkpt lat="42.29053" lon="8.88275">
        <ele>1425.2</ele>
        <time>2015-06-27T12:47:24Z</time>
      </trkpt>
      <trkpt lat="42.29056" lon="8.88271">
        <ele>1424</ele>
        <time>2015-06-27T12:47:31Z</time>
      </trkpt>
      <trkpt lat="42.29058" lon="8.88268">
        <ele>1423.4</ele>
        <time>2015-06-27T12:47:35Z</time>
      </trkpt>
      <trkpt lat="42.2906" lon="8.88265">
        <ele>1423</ele>
        <time>2015-06-27T12:47:37Z</time>
      </trkpt>
      <trkpt lat="42.29061" lon="8.88264">
        <ele>1423</ele>
        <time>2015-06-27T12:47:39Z</time>
      </trkpt>
      <trkpt lat="42.29062" lon="8.88261">
        <ele>1422.8</ele>
        <time>2015-06-27T12:47:42Z</time>
      </trkpt>
      <trkpt lat="42.29068" lon="8.8825">
        <ele>1423.4</ele>
        <time>2015-06-27T12:47:52Z</time>
      </trkpt>
      <trkpt lat="42.29071" lon="8.88247">
        <ele>1424</ele>
        <time>2015-06-27T12:47:55Z</time>
      </trkpt>
      <trkpt lat="42.29073" lon="8.8824">
        <ele>1424.2</ele>
        <time>2015-06-27T12:48:00Z</time>
      </trkpt>
      <trkpt lat="42.29078" lon="8.88233">
        <ele>1424.2</ele>
        <time>2015-06-27T12:48:07Z</time>
      </trkpt>
      <trkpt lat="42.29083" lon="8.88228">
        <ele>1423.6</ele>
        <time>2015-06-27T12:48:11Z</time>
      </trkpt>
      <trkpt lat="42.2909" lon="8.88223">
        <ele>1422.8</ele>
        <time>2015-06-27T12:48:17Z</time>
      </trkpt>
      <trkpt lat="42.29089" lon="8.88221">
        <ele>1422.6</ele>
        <time>2015-06-27T12:48:18Z</time>
      </trkpt>
      <trkpt lat="42.29093" lon="8.88218">
        <ele>1422</ele>
        <time>2015-06-27T12:48:23Z</time>
      </trkpt>
      <trkpt lat="42.29095" lon="8.88216">
        <ele>1421.6</ele>
        <time>2015-06-27T12:48:26Z</time>
      </trkpt>
      <trkpt lat="42.29108" lon="8.88214">
        <ele>1421.4</ele>
        <time>2015-06-27T12:48:41Z</time>
      </trkpt>
      <trkpt lat="42.2913" lon="8.8823">
        <ele>1421.8</ele>
        <time>2015-06-27T12:49:53Z</time>
      </trkpt>
      <trkpt lat="42.29135" lon="8.88234">
        <ele>1422.4</ele>
        <time>2015-06-27T12:49:59Z</time>
      </trkpt>
      <trkpt lat="42.29147" lon="8.88237">
        <ele>1423.4</ele>
        <time>2015-06-27T12:50:09Z</time>
      </trkpt>
      <trkpt lat="42.2915" lon="8.88237">
        <ele>1424.8</ele>
        <time>2015-06-27T12:50:16Z</time>
      </trkpt>
      <trkpt lat="42.29155" lon="8.88237">
        <ele>1426</ele>
        <time>2015-06-27T12:50:25Z</time>
      </trkpt>
      <trkpt lat="42.29161" lon="8.88245">
        <ele>1427.2</ele>
        <time>2015-06-27T12:50:35Z</time>
      </trkpt>
      <trkpt lat="42.29178" lon="8.88255">
        <ele>1427.2</ele>
        <time>2015-06-27T12:50:49Z</time>
      </trkpt>
      <trkpt lat="42.2918" lon="8.88278">
        <ele>1426.8</ele>
        <time>2015-06-27T12:51:10Z</time>
      </trkpt>
      <trkpt lat="42.29183" lon="8.88279">
        <ele>1426.8</ele>
        <time>2015-06-27T12:51:12Z</time>
      </trkpt>
      <trkpt lat="42.29192" lon="8.88273">
        <ele>1427.4</ele>
        <time>2015-06-27T12:51:28Z</time>
      </trkpt>
      <trkpt lat="42.29195" lon="8.88269">
        <ele>1428.2</ele>
        <time>2015-06-27T12:51:35Z</time>
      </trkpt>
      <trkpt lat="42.29206" lon="8.8826">
        <ele>1430</ele>
        <time>2015-06-27T12:51:49Z</time>
      </trkpt>
      <trkpt lat="42.29244" lon="8.88244">
        <ele>1431.2</ele>
        <time>2015-06-27T12:52:37Z</time>
      </trkpt>
      <trkpt lat="42.2925" lon="8.8824">
        <ele>1432</ele>
        <time>2015-06-27T12:52:46Z</time>
      </trkpt>
      <trkpt lat="42.29257" lon="8.88233">
        <ele>1433</ele>
        <time>2015-06-27T12:52:57Z</time>
      </trkpt>
      <trkpt lat="42.29273" lon="8.88234">
        <ele>1433.6</ele>
        <time>2015-06-27T12:53:18Z</time>
      </trkpt>
      <trkpt lat="42.29278" lon="8.88235">
        <ele>1432.6</ele>
        <time>2015-06-27T12:53:26Z</time>
      </trkpt>
      <trkpt lat="42.29284" lon="8.88235">
        <ele>1432</ele>
        <time>2015-06-27T12:53:31Z</time>
      </trkpt>
      <trkpt lat="42.29287" lon="8.88233">
        <ele>1431.4</ele>
        <time>2015-06-27T12:53:34Z</time>
      </trkpt>
      <trkpt lat="42.29293" lon="8.88225">
        <ele>1430.6</ele>
        <time>2015-06-27T12:53:47Z</time>
      </trkpt>
      <trkpt lat="42.29297" lon="8.88222">
        <ele>1431.8</ele>
        <time>2015-06-27T12:53:53Z</time>
      </trkpt>
      <trkpt lat="42.29341" lon="8.88226">
        <ele>1432.8</ele>
        <time>2015-06-27T12:54:41Z</time>
      </trkpt>
      <trkpt lat="42.29377" lon="8.8823">
        <ele>1433.2</ele>
        <time>2015-06-27T12:55:17Z</time>
      </trkpt>
      <trkpt lat="42.29388" lon="8.88229">
        <ele>1435</ele>
        <time>2015-06-27T12:55:28Z</time>
      </trkpt>
      <trkpt lat="42.29424" lon="8.88208">
        <ele>1435</ele>
        <time>2015-06-27T12:56:08Z</time>
      </trkpt>
      <trkpt lat="42.29431" lon="8.88204">
        <ele>1434</ele>
        <time>2015-06-27T12:56:19Z</time>
      </trkpt>
      <trkpt lat="42.29438" lon="8.88202">
        <ele>1433</ele>
        <time>2015-06-27T12:56:28Z</time>
      </trkpt>
      <trkpt lat="42.29443" lon="8.882">
        <ele>1432.2</ele>
        <time>2015-06-27T12:56:34Z</time>
      </trkpt>
      <trkpt lat="42.29448" lon="8.88197">
        <ele>1431</ele>
        <time>2015-06-27T12:56:39Z</time>
      </trkpt>
      <trkpt lat="42.29462" lon="8.88188">
        <ele>1429.4</ele>
        <time>2015-06-27T12:56:54Z</time>
      </trkpt>
      <trkpt lat="42.29466" lon="8.88186">
        <ele>1429.2</ele>
        <time>2015-06-27T12:56:58Z</time>
      </trkpt>
      <trkpt lat="42.29476" lon="8.88176">
        <ele>1427.8</ele>
        <time>2015-06-27T12:57:15Z</time>
      </trkpt>
      <trkpt lat="42.29516" lon="8.88191">
        <ele>1427.4</ele>
        <time>2015-06-27T12:57:57Z</time>
      </trkpt>
      <trkpt lat="42.29523" lon="8.88196">
        <ele>1427.8</ele>
        <time>2015-06-27T12:58:04Z</time>
      </trkpt>
      <trkpt lat="42.29524" lon="8.88199">
        <ele>1428</ele>
        <time>2015-06-27T12:58:07Z</time>
      </trkpt>
      <trkpt lat="42.29527" lon="8.88203">
        <ele>1428</ele>
        <time>2015-06-27T12:58:11Z</time>
      </trkpt>
      <trkpt lat="42.29529" lon="8.88206">
        <ele>1427.2</ele>
        <time>2015-06-27T12:58:16Z</time>
      </trkpt>
      <trkpt lat="42.29531" lon="8.88208">
        <ele>1426.8</ele>
        <time>2015-06-27T12:58:18Z</time>
      </trkpt>
      <trkpt lat="42.29534" lon="8.88213">
        <ele>1426</ele>
        <time>2015-06-27T12:58:23Z</time>
      </trkpt>
      <trkpt lat="42.29537" lon="8.88219">
        <ele>1425</ele>
        <time>2015-06-27T12:58:28Z</time>
      </trkpt>
      <trkpt lat="42.2954" lon="8.88225">
        <ele>1423.4</ele>
        <time>2015-06-27T12:58:34Z</time>
      </trkpt>
      <trkpt lat="42.29563" lon="8.88241">
        <ele>1421.6</ele>
        <time>2015-06-27T12:59:06Z</time>
      </trkpt>
      <trkpt lat="42.29579" lon="8.88248">
        <ele>1420.2</ele>
        <time>2015-06-27T12:59:20Z</time>
      </trkpt>
      <trkpt lat="42.2959" lon="8.88252">
        <ele>1419.2</ele>
        <time>2015-06-27T12:59:31Z</time>
      </trkpt>
      <trkpt lat="42.29609" lon="8.88253">
        <ele>1418</ele>
        <time>2015-06-27T12:59:49Z</time>
      </trkpt>
      <trkpt lat="42.29619" lon="8.88249">
        <ele>1416.8</ele>
        <time>2015-06-27T12:59:59Z</time>
      </trkpt>
      <trkpt lat="42.2962" lon="8.88249">
        <ele>1416.6</ele>
        <time>2015-06-27T13:00:00Z</time>
      </trkpt>
      <trkpt lat="42.29631" lon="8.88245">
        <ele>1416.2</ele>
        <time>2015-06-27T13:00:10Z</time>
      </trkpt>
      <trkpt lat="42.29636" lon="8.88242">
        <ele>1415.6</ele>
        <time>2015-06-27T13:00:14Z</time>
      </trkpt>
      <trkpt lat="42.2965" lon="8.88229">
        <ele>1413.2</ele>
        <time>2015-06-27T13:00:31Z</time>
      </trkpt>
      <trkpt lat="42.29651" lon="8.88225">
        <ele>1413.2</ele>
        <time>2015-06-27T13:00:34Z</time>
      </trkpt>
      <trkpt lat="42.29657" lon="8.88224">
        <ele>1413.2</ele>
        <time>2015-06-27T13:00:37Z</time>
      </trkpt>
      <trkpt lat="42.29661" lon="8.88221">
        <ele>1413.2</ele>
        <time>2015-06-27T13:00:40Z</time>
      </trkpt>
      <trkpt lat="42.29669" lon="8.88207">
        <ele>1412.2</ele>
        <time>2015-06-27T13:00:55Z</time>
      </trkpt>
      <trkpt lat="42.29671" lon="8.88205">
        <ele>1412.2</ele>
        <time>2015-06-27T13:00:58Z</time>
      </trkpt>
      <trkpt lat="42.29673" lon="8.88201">
        <ele>1412</ele>
        <time>2015-06-27T13:01:02Z</time>
      </trkpt>
      <trkpt lat="42.29675" lon="8.88198">
        <ele>1411.8</ele>
        <time>2015-06-27T13:01:06Z</time>
      </trkpt>
      <trkpt lat="42.29682" lon="8.8819">
        <ele>1411</ele>
        <time>2015-06-27T13:01:15Z</time>
      </trkpt>
      <trkpt lat="42.29691" lon="8.88185">
        <ele>1410.2</ele>
        <time>2015-06-27T13:01:23Z</time>
      </trkpt>
      <trkpt lat="42.29696" lon="8.8818">
        <ele>1409.2</ele>
        <time>2015-06-27T13:01:29Z</time>
      </trkpt>
      <trkpt lat="42.29699" lon="8.88177">
        <ele>1408.6</ele>
        <time>2015-06-27T13:01:32Z</time>
      </trkpt>
      <trkpt lat="42.29699" lon="8.88173">
        <ele>1408</ele>
        <time>2015-06-27T13:01:35Z</time>
      </trkpt>
      <trkpt lat="42.297" lon="8.88172">
        <ele>1407.8</ele>
        <time>2015-06-27T13:01:36Z</time>
      </trkpt>
      <trkpt lat="42.29702" lon="8.88171">
        <ele>1407.6</ele>
        <time>2015-06-27T13:01:38Z</time>
      </trkpt>
      <trkpt lat="42.29704" lon="8.88169">
        <ele>1407.2</ele>
        <time>2015-06-27T13:01:41Z</time>
      </trkpt>
      <trkpt lat="42.29704" lon="8.88169">
        <ele>1407</ele>
        <time>2015-06-27T13:01:42Z</time>
      </trkpt>
      <trkpt lat="42.29705" lon="8.88167">
        <ele>1406.4</ele>
        <time>2015-06-27T13:01:44Z</time>
      </trkpt>
      <trkpt lat="42.29706" lon="8.88162">
        <ele>1406</ele>
        <time>2015-06-27T13:01:47Z</time>
      </trkpt>
      <trkpt lat="42.29714" lon="8.88159">
        <ele>1404.4</ele>
        <time>2015-06-27T13:01:54Z</time>
      </trkpt>
      <trkpt lat="42.29722" lon="8.88156">
        <ele>1403.4</ele>
        <time>2015-06-27T13:02:00Z</time>
      </trkpt>
      <trkpt lat="42.29726" lon="8.88148">
        <ele>1402.2</ele>
        <time>2015-06-27T13:02:08Z</time>
      </trkpt>
      <trkpt lat="42.29727" lon="8.88144">
        <ele>1401.4</ele>
        <time>2015-06-27T13:02:13Z</time>
      </trkpt>
      <trkpt lat="42.29727" lon="8.88141">
        <ele>1401</ele>
        <time>2015-06-27T13:02:15Z</time>
      </trkpt>
      <trkpt lat="42.29732" lon="8.88137">
        <ele>1399.8</ele>
        <time>2015-06-27T13:02:19Z</time>
      </trkpt>
      <trkpt lat="42.29732" lon="8.88135">
        <ele>1399.2</ele>
        <time>2015-06-27T13:02:21Z</time>
      </trkpt>
      <trkpt lat="42.29734" lon="8.88134">
        <ele>1398.8</ele>
        <time>2015-06-27T13:02:24Z</time>
      </trkpt>
      <trkpt lat="42.29738" lon="8.88129">
        <ele>1399</ele>
        <time>2015-06-27T13:02:29Z</time>
      </trkpt>
      <trkpt lat="42.29742" lon="8.88119">
        <ele>1400</ele>
        <time>2015-06-27T13:02:37Z</time>
      </trkpt>
      <trkpt lat="42.29745" lon="8.88102">
        <ele>1399.8</ele>
        <time>2015-06-27T13:02:51Z</time>
      </trkpt>
      <trkpt lat="42.29748" lon="8.88099">
        <ele>1399.6</ele>
        <time>2015-06-27T13:02:54Z</time>
      </trkpt>
      <trkpt lat="42.29748" lon="8.88098">
        <ele>1399.6</ele>
        <time>2015-06-27T13:02:55Z</time>
      </trkpt>
      <trkpt lat="42.29749" lon="8.88097">
        <ele>1399.6</ele>
        <time>2015-06-27T13:02:56Z</time>
      </trkpt>
      <trkpt lat="42.29744" lon="8.8809">
        <ele>1398.6</ele>
        <time>2015-06-27T13:03:00Z</time>
      </trkpt>
      <trkpt lat="42.29744" lon="8.88074">
        <ele>1398.6</ele>
        <time>2015-06-27T13:03:10Z</time>
      </trkpt>
      <trkpt lat="42.29744" lon="8.88073">
        <ele>1398.6</ele>
        <time>2015-06-27T13:03:12Z</time>
      </trkpt>
      <trkpt lat="42.29745" lon="8.88069">
        <ele>1399.2</ele>
        <time>2015-06-27T13:03:15Z</time>
      </trkpt>
      <trkpt lat="42.29749" lon="8.88067">
        <ele>1399.6</ele>
        <time>2015-06-27T13:03:18Z</time>
      </trkpt>
      <trkpt lat="42.29747" lon="8.88059">
        <ele>1399.6</ele>
        <time>2015-06-27T13:03:23Z</time>
      </trkpt>
      <trkpt lat="42.29747" lon="8.88057">
        <ele>1400</ele>
        <time>2015-06-27T13:03:26Z</time>
      </trkpt>
      <trkpt lat="42.2975" lon="8.88054">
        <ele>1400</ele>
        <time>2015-06-27T13:03:33Z</time>
      </trkpt>
      <trkpt lat="42.29753" lon="8.88051">
        <ele>1400.6</ele>
        <time>2015-06-27T13:03:41Z</time>
      </trkpt>
      <trkpt lat="42.29756" lon="8.88051">
        <ele>1401</ele>
        <time>2015-06-27T13:03:43Z</time>
      </trkpt>
      <trkpt lat="42.29759" lon="8.8805">
        <ele>1401.2</ele>
        <time>2015-06-27T13:03:45Z</time>
      </trkpt>
      <trkpt lat="42.29767" lon="8.88045">
        <ele>1402</ele>
        <time>2015-06-27T13:03:56Z</time>
      </trkpt>
      <trkpt lat="42.29773" lon="8.88044">
        <ele>1402.8</ele>
        <time>2015-06-27T13:04:04Z</time>
      </trkpt>
      <trkpt lat="42.29793" lon="8.88048">
        <ele>1402.8</ele>
        <time>2015-06-27T13:04:43Z</time>
      </trkpt>
      <trkpt lat="42.29798" lon="8.88053">
        <ele>1402</ele>
        <time>2015-06-27T13:04:51Z</time>
      </trkpt>
      <trkpt lat="42.298" lon="8.88057">
        <ele>1401.4</ele>
        <time>2015-06-27T13:04:55Z</time>
      </trkpt>
      <trkpt lat="42.29801" lon="8.8806">
        <ele>1401.2</ele>
        <time>2015-06-27T13:04:57Z</time>
      </trkpt>
      <trkpt lat="42.29804" lon="8.88065">
        <ele>1400</ele>
        <time>2015-06-27T13:05:03Z</time>
      </trkpt>
      <trkpt lat="42.29805" lon="8.88066">
        <ele>1400</ele>
        <time>2015-06-27T13:05:04Z</time>
      </trkpt>
      <trkpt lat="42.29811" lon="8.88069">
        <ele>1399</ele>
        <time>2015-06-27T13:05:10Z</time>
      </trkpt>
      <trkpt lat="42.29812" lon="8.88069">
        <ele>1398.6</ele>
        <time>2015-06-27T13:05:11Z</time>
      </trkpt>
      <trkpt lat="42.2982" lon="8.88066">
        <ele>1398.2</ele>
        <time>2015-06-27T13:05:23Z</time>
      </trkpt>
      <trkpt lat="42.29846" lon="8.88063">
        <ele>1398</ele>
        <time>2015-06-27T13:06:20Z</time>
      </trkpt>
      <trkpt lat="42.29857" lon="8.88071">
        <ele>1396.8</ele>
        <time>2015-06-27T13:06:47Z</time>
      </trkpt>
      <trkpt lat="42.2986" lon="8.88076">
        <ele>1396.4</ele>
        <time>2015-06-27T13:06:53Z</time>
      </trkpt>
      <trkpt lat="42.29864" lon="8.8808">
        <ele>1395</ele>
        <time>2015-06-27T13:06:59Z</time>
      </trkpt>
      <trkpt lat="42.29873" lon="8.88086">
        <ele>1393.4</ele>
        <time>2015-06-27T13:07:11Z</time>
      </trkpt>
      <trkpt lat="42.29884" lon="8.88094">
        <ele>1392.2</ele>
        <time>2015-06-27T13:07:27Z</time>
      </trkpt>
      <trkpt lat="42.29897" lon="8.88112">
        <ele>1391.2</ele>
        <time>2015-06-27T13:07:53Z</time>
      </trkpt>
      <trkpt lat="42.29913" lon="8.88113">
        <ele>1390.4</ele>
        <time>2015-06-27T13:08:21Z</time>
      </trkpt>
      <trkpt lat="42.2993" lon="8.8812">
        <ele>1390.6</ele>
        <time>2015-06-27T13:08:49Z</time>
      </trkpt>
      <trkpt lat="42.29939" lon="8.88128">
        <ele>1389.2</ele>
        <time>2015-06-27T13:09:05Z</time>
      </trkpt>
      <trkpt lat="42.29948" lon="8.88141">
        <ele>1388.2</ele>
        <time>2015-06-27T13:09:30Z</time>
      </trkpt>
      <trkpt lat="42.29952" lon="8.88146">
        <ele>1387.4</ele>
        <time>2015-06-27T13:09:37Z</time>
      </trkpt>
      <trkpt lat="42.29955" lon="8.88147">
        <ele>1386.8</ele>
        <time>2015-06-27T13:09:40Z</time>
      </trkpt>
      <trkpt lat="42.29968" lon="8.88155">
        <ele>1386.2</ele>
        <time>2015-06-27T13:10:07Z</time>
      </trkpt>
      <trkpt lat="42.29969" lon="8.88162">
        <ele>1384.8</ele>
        <time>2015-06-27T13:10:15Z</time>
      </trkpt>
      <trkpt lat="42.29974" lon="8.88164">
        <ele>1384.2</ele>
        <time>2015-06-27T13:10:20Z</time>
      </trkpt>
      <trkpt lat="42.29983" lon="8.88174">
        <ele>1382.4</ele>
        <time>2015-06-27T13:10:36Z</time>
      </trkpt>
      <trkpt lat="42.29993" lon="8.88176">
        <ele>1382</ele>
        <time>2015-06-27T13:10:47Z</time>
      </trkpt>
      <trkpt lat="42.29998" lon="8.88181">
        <ele>1382.4</ele>
        <time>2015-06-27T13:10:54Z</time>
      </trkpt>
      <trkpt lat="42.3" lon="8.88186">
        <ele>1383.2</ele>
        <time>2015-06-27T13:11:01Z</time>
      </trkpt>
      <trkpt lat="42.30002" lon="8.88193">
        <ele>1384.2</ele>
        <time>2015-06-27T13:11:08Z</time>
      </trkpt>
      <trkpt lat="42.30007" lon="8.88199">
        <ele>1385.4</ele>
        <time>2015-06-27T13:11:19Z</time>
      </trkpt>
      <trkpt lat="42.30007" lon="8.88202">
        <ele>1386.4</ele>
        <time>2015-06-27T13:11:25Z</time>
      </trkpt>
      <trkpt lat="42.30008" lon="8.88204">
        <ele>1387.2</ele>
        <time>2015-06-27T13:11:31Z</time>
      </trkpt>
      <trkpt lat="42.30013" lon="8.88209">
        <ele>1388.8</ele>
        <time>2015-06-27T13:11:39Z</time>
      </trkpt>
      <trkpt lat="42.30017" lon="8.88211">
        <ele>1389.4</ele>
        <time>2015-06-27T13:11:44Z</time>
      </trkpt>
      <trkpt lat="42.30018" lon="8.88216">
        <ele>1390.6</ele>
        <time>2015-06-27T13:11:50Z</time>
      </trkpt>
      <trkpt lat="42.30018" lon="8.8822">
        <ele>1391.2</ele>
        <time>2015-06-27T13:11:53Z</time>
      </trkpt>
      <trkpt lat="42.30018" lon="8.88223">
        <ele>1391.6</ele>
        <time>2015-06-27T13:11:56Z</time>
      </trkpt>
      <trkpt lat="42.30022" lon="8.88227">
        <ele>1393</ele>
        <time>2015-06-27T13:12:04Z</time>
      </trkpt>
      <trkpt lat="42.30024" lon="8.88233">
        <ele>1394.2</ele>
        <time>2015-06-27T13:12:13Z</time>
      </trkpt>
      <trkpt lat="42.30033" lon="8.88236">
        <ele>1395.4</ele>
        <time>2015-06-27T13:12:21Z</time>
      </trkpt>
      <trkpt lat="42.30044" lon="8.88234">
        <ele>1396.2</ele>
        <time>2015-06-27T13:12:29Z</time>
      </trkpt>
      <trkpt lat="42.30044" lon="8.88233">
        <ele>1396.6</ele>
        <time>2015-06-27T13:12:30Z</time>
      </trkpt>
      <trkpt lat="42.30041" lon="8.88229">
        <ele>1397.8</ele>
        <time>2015-06-27T13:12:49Z</time>
      </trkpt>
      <trkpt lat="42.3004" lon="8.88226">
        <ele>1398.8</ele>
        <time>2015-06-27T13:13:22Z</time>
      </trkpt>
      <trkpt lat="42.30043" lon="8.88231">
        <ele>1398.6</ele>
        <time>2015-06-27T13:14:48Z</time>
      </trkpt>
      <trkpt lat="42.30048" lon="8.88222">
        <ele>1399.2</ele>
        <time>2015-06-27T13:15:25Z</time>
      </trkpt>
      <trkpt lat="42.30051" lon="8.8822">
        <ele>1399.4</ele>
        <time>2015-06-27T13:15:30Z</time>
      </trkpt>
      <trkpt lat="42.30062" lon="8.88174">
        <ele>1399.8</ele>
        <time>2015-06-27T13:16:08Z</time>
      </trkpt>
      <trkpt lat="42.30062" lon="8.88163">
        <ele>1398.4</ele>
        <time>2015-06-27T13:16:16Z</time>
      </trkpt>
      <trkpt lat="42.30067" lon="8.88153">
        <ele>1397.2</ele>
        <time>2015-06-27T13:16:26Z</time>
      </trkpt>
      <trkpt lat="42.30065" lon="8.88149">
        <ele>1397.2</ele>
        <time>2015-06-27T13:16:29Z</time>
      </trkpt>
      <trkpt lat="42.30066" lon="8.88147">
        <ele>1396.6</ele>
        <time>2015-06-27T13:16:32Z</time>
      </trkpt>
      <trkpt lat="42.30066" lon="8.88144">
        <ele>1395.8</ele>
        <time>2015-06-27T13:16:37Z</time>
      </trkpt>
      <trkpt lat="42.30069" lon="8.88138">
        <ele>1395</ele>
        <time>2015-06-27T13:16:41Z</time>
      </trkpt>
      <trkpt lat="42.30075" lon="8.8813">
        <ele>1393.2</ele>
        <time>2015-06-27T13:16:48Z</time>
      </trkpt>
      <trkpt lat="42.30082" lon="8.881">
        <ele>1392</ele>
        <time>2015-06-27T13:17:19Z</time>
      </trkpt>
      <trkpt lat="42.30086" lon="8.88097">
        <ele>1390.2</ele>
        <time>2015-06-27T13:17:28Z</time>
      </trkpt>
      <trkpt lat="42.3009" lon="8.88091">
        <ele>1389.8</ele>
        <time>2015-06-27T13:17:36Z</time>
      </trkpt>
      <trkpt lat="42.3012" lon="8.88047">
        <ele>1389</ele>
        <time>2015-06-27T13:18:16Z</time>
      </trkpt>
      <trkpt lat="42.30123" lon="8.88024">
        <ele>1390.6</ele>
        <time>2015-06-27T13:18:38Z</time>
      </trkpt>
      <trkpt lat="42.30123" lon="8.88019">
        <ele>1390.6</ele>
        <time>2015-06-27T13:18:41Z</time>
      </trkpt>
      <trkpt lat="42.30126" lon="8.88014">
        <ele>1390.2</ele>
        <time>2015-06-27T13:18:48Z</time>
      </trkpt>
      <trkpt lat="42.3013" lon="8.88004">
        <ele>1389.6</ele>
        <time>2015-06-27T13:18:58Z</time>
      </trkpt>
      <trkpt lat="42.30144" lon="8.87977">
        <ele>1388.6</ele>
        <time>2015-06-27T13:19:22Z</time>
      </trkpt>
      <trkpt lat="42.30149" lon="8.87961">
        <ele>1388.8</ele>
        <time>2015-06-27T13:19:38Z</time>
      </trkpt>
      <trkpt lat="42.30149" lon="8.87957">
        <ele>1388.8</ele>
        <time>2015-06-27T13:19:42Z</time>
      </trkpt>
      <trkpt lat="42.30153" lon="8.87949">
        <ele>1387.8</ele>
        <time>2015-06-27T13:19:50Z</time>
      </trkpt>
      <trkpt lat="42.30152" lon="8.87924">
        <ele>1387</ele>
        <time>2015-06-27T13:20:07Z</time>
      </trkpt>
      <trkpt lat="42.3016" lon="8.87899">
        <ele>1387.8</ele>
        <time>2015-06-27T13:20:36Z</time>
      </trkpt>
      <trkpt lat="42.30163" lon="8.8789">
        <ele>1386.6</ele>
        <time>2015-06-27T13:20:43Z</time>
      </trkpt>
      <trkpt lat="42.30166" lon="8.87886">
        <ele>1386.4</ele>
        <time>2015-06-27T13:20:46Z</time>
      </trkpt>
      <trkpt lat="42.30169" lon="8.87874">
        <ele>1385.6</ele>
        <time>2015-06-27T13:20:59Z</time>
      </trkpt>
      <trkpt lat="42.30171" lon="8.87873">
        <ele>1385.6</ele>
        <time>2015-06-27T13:21:00Z</time>
      </trkpt>
      <trkpt lat="42.30171" lon="8.87869">
        <ele>1385.4</ele>
        <time>2015-06-27T13:21:03Z</time>
      </trkpt>
      <trkpt lat="42.30176" lon="8.87854">
        <ele>1385.6</ele>
        <time>2015-06-27T13:21:15Z</time>
      </trkpt>
      <trkpt lat="42.30179" lon="8.87851">
        <ele>1385.6</ele>
        <time>2015-06-27T13:21:18Z</time>
      </trkpt>
      <trkpt lat="42.30179" lon="8.87848">
        <ele>1385.8</ele>
        <time>2015-06-27T13:21:20Z</time>
      </trkpt>
      <trkpt lat="42.30182" lon="8.87834">
        <ele>1385.8</ele>
        <time>2015-06-27T13:21:30Z</time>
      </trkpt>
      <trkpt lat="42.30212" lon="8.87828">
        <ele>1385.8</ele>
        <time>2015-06-27T13:21:37Z</time>
      </trkpt>
      <trkpt lat="42.30216" lon="8.87817">
        <ele>1385.2</ele>
        <time>2015-06-27T13:21:45Z</time>
      </trkpt>
      <trkpt lat="42.30218" lon="8.87809">
        <ele>1384.2</ele>
        <time>2015-06-27T13:21:53Z</time>
      </trkpt>
      <trkpt lat="42.30219" lon="8.87802">
        <ele>1383.4</ele>
        <time>2015-06-27T13:22:00Z</time>
      </trkpt>
      <trkpt lat="42.30206" lon="8.87781">
        <ele>1382.6</ele>
        <time>2015-06-27T13:22:16Z</time>
      </trkpt>
      <trkpt lat="42.30207" lon="8.8778">
        <ele>1382.6</ele>
        <time>2015-06-27T13:22:18Z</time>
      </trkpt>
      <trkpt lat="42.30207" lon="8.87777">
        <ele>1382.8</ele>
        <time>2015-06-27T13:22:21Z</time>
      </trkpt>
      <trkpt lat="42.30214" lon="8.87773">
        <ele>1383.2</ele>
        <time>2015-06-27T13:22:31Z</time>
      </trkpt>
      <trkpt lat="42.30231" lon="8.87763">
        <ele>1383</ele>
        <time>2015-06-27T13:22:55Z</time>
      </trkpt>
      <trkpt lat="42.30229" lon="8.87763">
        <ele>1382.8</ele>
        <time>2015-06-27T13:22:58Z</time>
      </trkpt>
      <trkpt lat="42.30231" lon="8.87755">
        <ele>1382.4</ele>
        <time>2015-06-27T13:23:18Z</time>
      </trkpt>
      <trkpt lat="42.30236" lon="8.87723">
        <ele>1383.4</ele>
        <time>2015-06-27T13:23:48Z</time>
      </trkpt>
      <trkpt lat="42.30237" lon="8.87714">
        <ele>1383.6</ele>
        <time>2015-06-27T13:24:05Z</time>
      </trkpt>
      <trkpt lat="42.30241" lon="8.87711">
        <ele>1383.6</ele>
        <time>2015-06-27T13:24:09Z</time>
      </trkpt>
      <trkpt lat="42.30245" lon="8.877">
        <ele>1384.6</ele>
        <time>2015-06-27T13:24:34Z</time>
      </trkpt>
      <trkpt lat="42.3025" lon="8.87693">
        <ele>1386.2</ele>
        <time>2015-06-27T13:24:49Z</time>
      </trkpt>
      <trkpt lat="42.3026" lon="8.87686">
        <ele>1386.8</ele>
        <time>2015-06-27T13:25:06Z</time>
      </trkpt>
      <trkpt lat="42.3029" lon="8.87671">
        <ele>1386.8</ele>
        <time>2015-06-27T13:25:27Z</time>
      </trkpt>
      <trkpt lat="42.30291" lon="8.87669">
        <ele>1387.4</ele>
        <time>2015-06-27T13:25:30Z</time>
      </trkpt>
      <trkpt lat="42.30296" lon="8.87668">
        <ele>1387.8</ele>
        <time>2015-06-27T13:25:35Z</time>
      </trkpt>
      <trkpt lat="42.30298" lon="8.87664">
        <ele>1388.6</ele>
        <time>2015-06-27T13:25:42Z</time>
      </trkpt>
      <trkpt lat="42.30312" lon="8.8766">
        <ele>1389.4</ele>
        <time>2015-06-27T13:25:49Z</time>
      </trkpt>
      <trkpt lat="42.30315" lon="8.87659">
        <ele>1389.8</ele>
        <time>2015-06-27T13:25:52Z</time>
      </trkpt>
      <trkpt lat="42.30317" lon="8.87658">
        <ele>1390.2</ele>
        <time>2015-06-27T13:25:54Z</time>
      </trkpt>
      <trkpt lat="42.30314" lon="8.87653">
        <ele>1390.4</ele>
        <time>2015-06-27T13:25:59Z</time>
      </trkpt>
      <trkpt lat="42.30313" lon="8.87654">
        <ele>1390.6</ele>
        <time>2015-06-27T13:26:01Z</time>
      </trkpt>
      <trkpt lat="42.30316" lon="8.87654">
        <ele>1390.2</ele>
        <time>2015-06-27T13:26:10Z</time>
      </trkpt>
      <trkpt lat="42.3032" lon="8.87653">
        <ele>1389.6</ele>
        <time>2015-06-27T13:26:15Z</time>
      </trkpt>
      <trkpt lat="42.30324" lon="8.87651">
        <ele>1388.6</ele>
        <time>2015-06-27T13:26:19Z</time>
      </trkpt>
      <trkpt lat="42.30324" lon="8.87621">
        <ele>1386.2</ele>
        <time>2015-06-27T13:26:47Z</time>
      </trkpt>
      <trkpt lat="42.30319" lon="8.87611">
        <ele>1386.6</ele>
        <time>2015-06-27T13:26:57Z</time>
      </trkpt>
      <trkpt lat="42.30317" lon="8.87607">
        <ele>1387.4</ele>
        <time>2015-06-27T13:27:02Z</time>
      </trkpt>
      <trkpt lat="42.30318" lon="8.87602">
        <ele>1388.2</ele>
        <time>2015-06-27T13:27:08Z</time>
      </trkpt>
      <trkpt lat="42.30316" lon="8.87593">
        <ele>1389.6</ele>
        <time>2015-06-27T13:27:19Z</time>
      </trkpt>
      <trkpt lat="42.3032" lon="8.87587">
        <ele>1390.8</ele>
        <time>2015-06-27T13:27:26Z</time>
      </trkpt>
      <trkpt lat="42.30323" lon="8.87567">
        <ele>1391.6</ele>
        <time>2015-06-27T13:27:51Z</time>
      </trkpt>
      <trkpt lat="42.30323" lon="8.87565">
        <ele>1391.6</ele>
        <time>2015-06-27T13:27:53Z</time>
      </trkpt>
      <trkpt lat="42.30327" lon="8.87563">
        <ele>1391.4</ele>
        <time>2015-06-27T13:28:10Z</time>
      </trkpt>
      <trkpt lat="42.30306" lon="8.87579">
        <ele>1391.6</ele>
        <time>2015-06-27T13:29:53Z</time>
      </trkpt>
      <trkpt lat="42.30303" lon="8.87577">
        <ele>1392.6</ele>
        <time>2015-06-27T13:29:59Z</time>
      </trkpt>
      <trkpt lat="42.30303" lon="8.87575">
        <ele>1393.6</ele>
        <time>2015-06-27T13:30:05Z</time>
      </trkpt>
      <trkpt lat="42.30301" lon="8.8757">
        <ele>1394.8</ele>
        <time>2015-06-27T13:30:12Z</time>
      </trkpt>
      <trkpt lat="42.30301" lon="8.87565">
        <ele>1396</ele>
        <time>2015-06-27T13:30:19Z</time>
      </trkpt>
      <trkpt lat="42.30302" lon="8.87558">
        <ele>1397.6</ele>
        <time>2015-06-27T13:30:28Z</time>
      </trkpt>
      <trkpt lat="42.30298" lon="8.87549">
        <ele>1398.8</ele>
        <time>2015-06-27T13:30:39Z</time>
      </trkpt>
      <trkpt lat="42.303" lon="8.87547">
        <ele>1399</ele>
        <time>2015-06-27T13:30:41Z</time>
      </trkpt>
      <trkpt lat="42.30303" lon="8.87536">
        <ele>1399.8</ele>
        <time>2015-06-27T13:31:04Z</time>
      </trkpt>
      <trkpt lat="42.30307" lon="8.8753">
        <ele>1401.4</ele>
        <time>2015-06-27T13:31:25Z</time>
      </trkpt>
      <trkpt lat="42.30314" lon="8.87524">
        <ele>1402</ele>
        <time>2015-06-27T13:31:41Z</time>
      </trkpt>
      <trkpt lat="42.30319" lon="8.87523">
        <ele>1403.4</ele>
        <time>2015-06-27T13:31:52Z</time>
      </trkpt>
      <trkpt lat="42.30323" lon="8.87519">
        <ele>1404.2</ele>
        <time>2015-06-27T13:32:00Z</time>
      </trkpt>
      <trkpt lat="42.30326" lon="8.87515">
        <ele>1405.2</ele>
        <time>2015-06-27T13:32:07Z</time>
      </trkpt>
      <trkpt lat="42.30336" lon="8.87505">
        <ele>1407</ele>
        <time>2015-06-27T13:32:23Z</time>
      </trkpt>
      <trkpt lat="42.30339" lon="8.87485">
        <ele>1408.6</ele>
        <time>2015-06-27T13:32:49Z</time>
      </trkpt>
      <trkpt lat="42.30351" lon="8.87484">
        <ele>1408.6</ele>
        <time>2015-06-27T13:33:05Z</time>
      </trkpt>
      <trkpt lat="42.30355" lon="8.8749">
        <ele>1408.6</ele>
        <time>2015-06-27T13:33:13Z</time>
      </trkpt>
      <trkpt lat="42.30371" lon="8.87529">
        <ele>1408.8</ele>
        <time>2015-06-27T13:34:25Z</time>
      </trkpt>
      <trkpt lat="42.30379" lon="8.87537">
        <ele>1408</ele>
        <time>2015-06-27T13:34:43Z</time>
      </trkpt>
      <trkpt lat="42.3038" lon="8.87541">
        <ele>1407.8</ele>
        <time>2015-06-27T13:34:48Z</time>
      </trkpt>
      <trkpt lat="42.30385" lon="8.87549">
        <ele>1407</ele>
        <time>2015-06-27T13:34:57Z</time>
      </trkpt>
      <trkpt lat="42.30391" lon="8.87554">
        <ele>1405.8</ele>
        <time>2015-06-27T13:35:06Z</time>
      </trkpt>
      <trkpt lat="42.30397" lon="8.87558">
        <ele>1405</ele>
        <time>2015-06-27T13:35:13Z</time>
      </trkpt>
      <trkpt lat="42.30399" lon="8.87558">
        <ele>1404.8</ele>
        <time>2015-06-27T13:35:15Z</time>
      </trkpt>
      <trkpt lat="42.30402" lon="8.87555">
        <ele>1404</ele>
        <time>2015-06-27T13:35:19Z</time>
      </trkpt>
      <trkpt lat="42.30403" lon="8.87556">
        <ele>1403.8</ele>
        <time>2015-06-27T13:35:20Z</time>
      </trkpt>
      <trkpt lat="42.30405" lon="8.87556">
        <ele>1403.2</ele>
        <time>2015-06-27T13:35:23Z</time>
      </trkpt>
      <trkpt lat="42.30409" lon="8.8755">
        <ele>1402.2</ele>
        <time>2015-06-27T13:35:42Z</time>
      </trkpt>
      <trkpt lat="42.30413" lon="8.87553">
        <ele>1401.8</ele>
        <time>2015-06-27T13:35:51Z</time>
      </trkpt>
      <trkpt lat="42.30415" lon="8.87555">
        <ele>1400.8</ele>
        <time>2015-06-27T13:35:57Z</time>
      </trkpt>
      <trkpt lat="42.30416" lon="8.87557">
        <ele>1399.6</ele>
        <time>2015-06-27T13:36:05Z</time>
      </trkpt>
      <trkpt lat="42.30416" lon="8.87561">
        <ele>1399</ele>
        <time>2015-06-27T13:36:11Z</time>
      </trkpt>
      <trkpt lat="42.30435" lon="8.87563">
        <ele>1397.8</ele>
        <time>2015-06-27T13:36:39Z</time>
      </trkpt>
      <trkpt lat="42.30439" lon="8.87566">
        <ele>1397.8</ele>
        <time>2015-06-27T13:36:43Z</time>
      </trkpt>
      <trkpt lat="42.30441" lon="8.87568">
        <ele>1397.2</ele>
        <time>2015-06-27T13:36:46Z</time>
      </trkpt>
      <trkpt lat="42.30444" lon="8.8757">
        <ele>1396.4</ele>
        <time>2015-06-27T13:36:50Z</time>
      </trkpt>
      <trkpt lat="42.30445" lon="8.87572">
        <ele>1396</ele>
        <time>2015-06-27T13:36:53Z</time>
      </trkpt>
      <trkpt lat="42.3045" lon="8.87581">
        <ele>1395</ele>
        <time>2015-06-27T13:37:03Z</time>
      </trkpt>
      <trkpt lat="42.30459" lon="8.87592">
        <ele>1394.2</ele>
        <time>2015-06-27T13:37:26Z</time>
      </trkpt>
      <trkpt lat="42.30466" lon="8.87602">
        <ele>1394.6</ele>
        <time>2015-06-27T13:37:37Z</time>
      </trkpt>
      <trkpt lat="42.30468" lon="8.87607">
        <ele>1395.4</ele>
        <time>2015-06-27T13:37:43Z</time>
      </trkpt>
      <trkpt lat="42.30472" lon="8.87609">
        <ele>1396</ele>
        <time>2015-06-27T13:37:50Z</time>
      </trkpt>
      <trkpt lat="42.30471" lon="8.87606">
        <ele>1397</ele>
        <time>2015-06-27T13:38:00Z</time>
      </trkpt>
      <trkpt lat="42.30474" lon="8.87612">
        <ele>1398</ele>
        <time>2015-06-27T13:38:10Z</time>
      </trkpt>
      <trkpt lat="42.30477" lon="8.87621">
        <ele>1399.2</ele>
        <time>2015-06-27T13:38:20Z</time>
      </trkpt>
      <trkpt lat="42.30498" lon="8.87639">
        <ele>1400.6</ele>
        <time>2015-06-27T13:38:56Z</time>
      </trkpt>
      <trkpt lat="42.30501" lon="8.87637">
        <ele>1401.4</ele>
        <time>2015-06-27T13:39:05Z</time>
      </trkpt>
      <trkpt lat="42.30506" lon="8.87643">
        <ele>1402</ele>
        <time>2015-06-27T13:39:58Z</time>
      </trkpt>
      <trkpt lat="42.30526" lon="8.87666">
        <ele>1402.4</ele>
        <time>2015-06-27T13:40:29Z</time>
      </trkpt>
      <trkpt lat="42.30534" lon="8.87673">
        <ele>1403.8</ele>
        <time>2015-06-27T13:40:38Z</time>
      </trkpt>
      <trkpt lat="42.30539" lon="8.87674">
        <ele>1404.2</ele>
        <time>2015-06-27T13:40:43Z</time>
      </trkpt>
      <trkpt lat="42.30541" lon="8.87677">
        <ele>1404.6</ele>
        <time>2015-06-27T13:40:46Z</time>
      </trkpt>
      <trkpt lat="42.30543" lon="8.87677">
        <ele>1404.8</ele>
        <time>2015-06-27T13:40:48Z</time>
      </trkpt>
      <trkpt lat="42.30546" lon="8.87679">
        <ele>1405.8</ele>
        <time>2015-06-27T13:40:54Z</time>
      </trkpt>
      <trkpt lat="42.3055" lon="8.87686">
        <ele>1407</ele>
        <time>2015-06-27T13:41:04Z</time>
      </trkpt>
      <trkpt lat="42.30553" lon="8.8769">
        <ele>1407.6</ele>
        <time>2015-06-27T13:41:10Z</time>
      </trkpt>
      <trkpt lat="42.30559" lon="8.87691">
        <ele>1409.4</ele>
        <time>2015-06-27T13:41:20Z</time>
      </trkpt>
      <trkpt lat="42.30579" lon="8.87699">
        <ele>1410.8</ele>
        <time>2015-06-27T13:41:52Z</time>
      </trkpt>
      <trkpt lat="42.30598" lon="8.87703">
        <ele>1410.8</ele>
        <time>2015-06-27T13:42:20Z</time>
      </trkpt>
      <trkpt lat="42.30601" lon="8.87705">
        <ele>1410.6</ele>
        <time>2015-06-27T13:42:24Z</time>
      </trkpt>
      <trkpt lat="42.30602" lon="8.87705">
        <ele>1410.6</ele>
        <time>2015-06-27T13:42:26Z</time>
      </trkpt>
      <trkpt lat="42.30604" lon="8.87707">
        <ele>1410.2</ele>
        <time>2015-06-27T13:42:29Z</time>
      </trkpt>
      <trkpt lat="42.30613" lon="8.87711">
        <ele>1409.6</ele>
        <time>2015-06-27T13:42:37Z</time>
      </trkpt>
      <trkpt lat="42.30625" lon="8.87715">
        <ele>1410</ele>
        <time>2015-06-27T13:42:53Z</time>
      </trkpt>
      <trkpt lat="42.30629" lon="8.87717">
        <ele>1410.4</ele>
        <time>2015-06-27T13:42:58Z</time>
      </trkpt>
      <trkpt lat="42.3063" lon="8.87718">
        <ele>1410.4</ele>
        <time>2015-06-27T13:42:59Z</time>
      </trkpt>
      <trkpt lat="42.30644" lon="8.87743">
        <ele>1412.4</ele>
        <time>2015-06-27T13:43:28Z</time>
      </trkpt>
      <trkpt lat="42.30654" lon="8.87757">
        <ele>1413.6</ele>
        <time>2015-06-27T13:43:56Z</time>
      </trkpt>
      <trkpt lat="42.30654" lon="8.87757">
        <ele>1414.2</ele>
        <time>2015-06-27T13:44:04Z</time>
      </trkpt>
      <trkpt lat="42.30656" lon="8.87755">
        <ele>1415.2</ele>
        <time>2015-06-27T13:44:20Z</time>
      </trkpt>
      <trkpt lat="42.30656" lon="8.87759">
        <ele>1416.2</ele>
        <time>2015-06-27T13:44:26Z</time>
      </trkpt>
      <trkpt lat="42.30658" lon="8.87762">
        <ele>1417.6</ele>
        <time>2015-06-27T13:44:34Z</time>
      </trkpt>
      <trkpt lat="42.30658" lon="8.87762">
        <ele>1418.6</ele>
        <time>2015-06-27T13:44:41Z</time>
      </trkpt>
      <trkpt lat="42.30662" lon="8.87762">
        <ele>1420</ele>
        <time>2015-06-27T13:44:54Z</time>
      </trkpt>
      <trkpt lat="42.30669" lon="8.87756">
        <ele>1421</ele>
        <time>2015-06-27T13:45:03Z</time>
      </trkpt>
      <trkpt lat="42.30674" lon="8.8775">
        <ele>1422</ele>
        <time>2015-06-27T13:45:11Z</time>
      </trkpt>
      <trkpt lat="42.30679" lon="8.87749">
        <ele>1422.6</ele>
        <time>2015-06-27T13:45:19Z</time>
      </trkpt>
      <trkpt lat="42.30669" lon="8.87756">
        <ele>1423.8</ele>
        <time>2015-06-27T13:45:34Z</time>
      </trkpt>
      <trkpt lat="42.30674" lon="8.87761">
        <ele>1424</ele>
        <time>2015-06-27T13:45:42Z</time>
      </trkpt>
      <trkpt lat="42.30675" lon="8.87759">
        <ele>1424</ele>
        <time>2015-06-27T13:45:43Z</time>
      </trkpt>
      <trkpt lat="42.30677" lon="8.87758">
        <ele>1424</ele>
        <time>2015-06-27T13:45:46Z</time>
      </trkpt>
      <trkpt lat="42.3068" lon="8.87757">
        <ele>1424.2</ele>
        <time>2015-06-27T13:45:48Z</time>
      </trkpt>
      <trkpt lat="42.30683" lon="8.87757">
        <ele>1424.6</ele>
        <time>2015-06-27T13:45:50Z</time>
      </trkpt>
      <trkpt lat="42.30685" lon="8.87757">
        <ele>1424.8</ele>
        <time>2015-06-27T13:45:52Z</time>
      </trkpt>
      <trkpt lat="42.30689" lon="8.87756">
        <ele>1425.2</ele>
        <time>2015-06-27T13:45:57Z</time>
      </trkpt>
      <trkpt lat="42.3069" lon="8.87756">
        <ele>1425.8</ele>
        <time>2015-06-27T13:46:02Z</time>
      </trkpt>
      <trkpt lat="42.30695" lon="8.87756">
        <ele>1426.8</ele>
        <time>2015-06-27T13:46:09Z</time>
      </trkpt>
      <trkpt lat="42.30699" lon="8.87759">
        <ele>1428</ele>
        <time>2015-06-27T13:46:17Z</time>
      </trkpt>
      <trkpt lat="42.30702" lon="8.87761">
        <ele>1428.6</ele>
        <time>2015-06-27T13:46:22Z</time>
      </trkpt>
      <trkpt lat="42.30705" lon="8.87757">
        <ele>1430.2</ele>
        <time>2015-06-27T13:46:31Z</time>
      </trkpt>
      <trkpt lat="42.30708" lon="8.87755">
        <ele>1431</ele>
        <time>2015-06-27T13:46:37Z</time>
      </trkpt>
      <trkpt lat="42.30716" lon="8.87745">
        <ele>1432.4</ele>
        <time>2015-06-27T13:46:46Z</time>
      </trkpt>
      <trkpt lat="42.30723" lon="8.87726">
        <ele>1433.4</ele>
        <time>2015-06-27T13:47:02Z</time>
      </trkpt>
      <trkpt lat="42.30723" lon="8.87705">
        <ele>1434</ele>
        <time>2015-06-27T13:47:10Z</time>
      </trkpt>
      <trkpt lat="42.30723" lon="8.87694">
        <ele>1434</ele>
        <time>2015-06-27T13:47:13Z</time>
      </trkpt>
      <trkpt lat="42.30744" lon="8.87695">
        <ele>1435</ele>
        <time>2015-06-27T13:47:26Z</time>
      </trkpt>
      <trkpt lat="42.30751" lon="8.87696">
        <ele>1435.4</ele>
        <time>2015-06-27T13:47:31Z</time>
      </trkpt>
      <trkpt lat="42.30766" lon="8.87704">
        <ele>1436.8</ele>
        <time>2015-06-27T13:47:43Z</time>
      </trkpt>
      <trkpt lat="42.30767" lon="8.8771">
        <ele>1437.2</ele>
        <time>2015-06-27T13:47:49Z</time>
      </trkpt>
      <trkpt lat="42.3077" lon="8.87714">
        <ele>1438.2</ele>
        <time>2015-06-27T13:47:54Z</time>
      </trkpt>
      <trkpt lat="42.30774" lon="8.87714">
        <ele>1439.2</ele>
        <time>2015-06-27T13:48:02Z</time>
      </trkpt>
      <trkpt lat="42.30775" lon="8.87715">
        <ele>1440.2</ele>
        <time>2015-06-27T13:48:08Z</time>
      </trkpt>
      <trkpt lat="42.30774" lon="8.87713">
        <ele>1441.2</ele>
        <time>2015-06-27T13:48:15Z</time>
      </trkpt>
      <trkpt lat="42.3078" lon="8.87713">
        <ele>1442.2</ele>
        <time>2015-06-27T13:48:23Z</time>
      </trkpt>
      <trkpt lat="42.30783" lon="8.87713">
        <ele>1442.2</ele>
        <time>2015-06-27T13:48:25Z</time>
      </trkpt>
      <trkpt lat="42.30789" lon="8.8771">
        <ele>1443</ele>
        <time>2015-06-27T13:48:34Z</time>
      </trkpt>
      <trkpt lat="42.30791" lon="8.87708">
        <ele>1443.8</ele>
        <time>2015-06-27T13:48:40Z</time>
      </trkpt>
      <trkpt lat="42.30797" lon="8.87705">
        <ele>1445</ele>
        <time>2015-06-27T13:48:50Z</time>
      </trkpt>
      <trkpt lat="42.30801" lon="8.87704">
        <ele>1445.8</ele>
        <time>2015-06-27T13:49:01Z</time>
      </trkpt>
      <trkpt lat="42.308" lon="8.87714">
        <ele>1446.8</ele>
        <time>2015-06-27T13:49:17Z</time>
      </trkpt>
      <trkpt lat="42.308" lon="8.87723">
        <ele>1447.4</ele>
        <time>2015-06-27T13:49:25Z</time>
      </trkpt>
      <trkpt lat="42.30804" lon="8.87726">
        <ele>1448.4</ele>
        <time>2015-06-27T13:49:33Z</time>
      </trkpt>
      <trkpt lat="42.30807" lon="8.8772">
        <ele>1449.4</ele>
        <time>2015-06-27T13:49:42Z</time>
      </trkpt>
      <trkpt lat="42.30812" lon="8.87708">
        <ele>1450.6</ele>
        <time>2015-06-27T13:49:55Z</time>
      </trkpt>
      <trkpt lat="42.30815" lon="8.87695">
        <ele>1451.4</ele>
        <time>2015-06-27T13:50:05Z</time>
      </trkpt>
      <trkpt lat="42.30819" lon="8.87681">
        <ele>1452</ele>
        <time>2015-06-27T13:50:18Z</time>
      </trkpt>
      <trkpt lat="42.30822" lon="8.87677">
        <ele>1453</ele>
        <time>2015-06-27T13:50:27Z</time>
      </trkpt>
      <trkpt lat="42.30826" lon="8.87685">
        <ele>1453.2</ele>
        <time>2015-06-27T13:50:28Z</time>
      </trkpt>
      <trkpt lat="42.3083" lon="8.87691">
        <ele>1453.6</ele>
        <time>2015-06-27T13:50:35Z</time>
      </trkpt>
      <trkpt lat="42.30828" lon="8.87698">
        <ele>1454.8</ele>
        <time>2015-06-27T13:50:43Z</time>
      </trkpt>
      <trkpt lat="42.30831" lon="8.87701">
        <ele>1455.4</ele>
        <time>2015-06-27T13:50:50Z</time>
      </trkpt>
      <trkpt lat="42.30833" lon="8.87698">
        <ele>1456</ele>
        <time>2015-06-27T13:50:54Z</time>
      </trkpt>
      <trkpt lat="42.30833" lon="8.87694">
        <ele>1456.8</ele>
        <time>2015-06-27T13:50:59Z</time>
      </trkpt>
      <trkpt lat="42.30836" lon="8.87691">
        <ele>1457.8</ele>
        <time>2015-06-27T13:51:07Z</time>
      </trkpt>
      <trkpt lat="42.30837" lon="8.87687">
        <ele>1458.4</ele>
        <time>2015-06-27T13:51:12Z</time>
      </trkpt>
      <trkpt lat="42.30838" lon="8.87682">
        <ele>1459.6</ele>
        <time>2015-06-27T13:51:18Z</time>
      </trkpt>
      <trkpt lat="42.30838" lon="8.8768">
        <ele>1459.8</ele>
        <time>2015-06-27T13:51:20Z</time>
      </trkpt>
      <trkpt lat="42.30841" lon="8.87677">
        <ele>1460.8</ele>
        <time>2015-06-27T13:51:28Z</time>
      </trkpt>
      <trkpt lat="42.30844" lon="8.87676">
        <ele>1461.6</ele>
        <time>2015-06-27T13:51:34Z</time>
      </trkpt>
      <trkpt lat="42.30848" lon="8.87675">
        <ele>1462.6</ele>
        <time>2015-06-27T13:51:41Z</time>
      </trkpt>
      <trkpt lat="42.30852" lon="8.87672">
        <ele>1463.4</ele>
        <time>2015-06-27T13:51:47Z</time>
      </trkpt>
      <trkpt lat="42.30856" lon="8.87667">
        <ele>1464.6</ele>
        <time>2015-06-27T13:51:56Z</time>
      </trkpt>
      <trkpt lat="42.30862" lon="8.87666">
        <ele>1466</ele>
        <time>2015-06-27T13:52:10Z</time>
      </trkpt>
      <trkpt lat="42.3087" lon="8.87665">
        <ele>1466.6</ele>
        <time>2015-06-27T13:52:21Z</time>
      </trkpt>
      <trkpt lat="42.30873" lon="8.87663">
        <ele>1467.2</ele>
        <time>2015-06-27T13:52:27Z</time>
      </trkpt>
      <trkpt lat="42.30874" lon="8.87657">
        <ele>1468.4</ele>
        <time>2015-06-27T13:52:33Z</time>
      </trkpt>
      <trkpt lat="42.30874" lon="8.87654">
        <ele>1468.8</ele>
        <time>2015-06-27T13:52:35Z</time>
      </trkpt>
      <trkpt lat="42.30874" lon="8.87647">
        <ele>1469.8</ele>
        <time>2015-06-27T13:52:41Z</time>
      </trkpt>
      <trkpt lat="42.30879" lon="8.87632">
        <ele>1471.2</ele>
        <time>2015-06-27T13:52:56Z</time>
      </trkpt>
      <trkpt lat="42.30882" lon="8.87624">
        <ele>1471.4</ele>
        <time>2015-06-27T13:53:02Z</time>
      </trkpt>
      <trkpt lat="42.30885" lon="8.87622">
        <ele>1471.6</ele>
        <time>2015-06-27T13:53:05Z</time>
      </trkpt>
      <trkpt lat="42.30887" lon="8.87625">
        <ele>1472.2</ele>
        <time>2015-06-27T13:53:07Z</time>
      </trkpt>
      <trkpt lat="42.3089" lon="8.87629">
        <ele>1472.6</ele>
        <time>2015-06-27T13:53:10Z</time>
      </trkpt>
      <trkpt lat="42.3089" lon="8.87626">
        <ele>1473.4</ele>
        <time>2015-06-27T13:53:18Z</time>
      </trkpt>
      <trkpt lat="42.30891" lon="8.87623">
        <ele>1474.4</ele>
        <time>2015-06-27T13:53:24Z</time>
      </trkpt>
      <trkpt lat="42.30893" lon="8.87626">
        <ele>1475</ele>
        <time>2015-06-27T13:53:28Z</time>
      </trkpt>
      <trkpt lat="42.30894" lon="8.87626">
        <ele>1475.2</ele>
        <time>2015-06-27T13:53:30Z</time>
      </trkpt>
      <trkpt lat="42.30896" lon="8.87625">
        <ele>1476.4</ele>
        <time>2015-06-27T13:53:36Z</time>
      </trkpt>
      <trkpt lat="42.30898" lon="8.87621">
        <ele>1477.6</ele>
        <time>2015-06-27T13:53:44Z</time>
      </trkpt>
      <trkpt lat="42.309" lon="8.87617">
        <ele>1478.2</ele>
        <time>2015-06-27T13:53:49Z</time>
      </trkpt>
      <trkpt lat="42.30917" lon="8.87562">
        <ele>1479</ele>
        <time>2015-06-27T13:54:31Z</time>
      </trkpt>
      <trkpt lat="42.30922" lon="8.87556">
        <ele>1478.6</ele>
        <time>2015-06-27T13:54:41Z</time>
      </trkpt>
      <trkpt lat="42.3093" lon="8.87558">
        <ele>1480.2</ele>
        <time>2015-06-27T13:54:52Z</time>
      </trkpt>
      <trkpt lat="42.30932" lon="8.87561">
        <ele>1480.6</ele>
        <time>2015-06-27T13:54:54Z</time>
      </trkpt>
      <trkpt lat="42.30935" lon="8.87561">
        <ele>1481</ele>
        <time>2015-06-27T13:55:00Z</time>
      </trkpt>
      <trkpt lat="42.30941" lon="8.87558">
        <ele>1482.2</ele>
        <time>2015-06-27T13:55:08Z</time>
      </trkpt>
      <trkpt lat="42.30944" lon="8.87555">
        <ele>1482.6</ele>
        <time>2015-06-27T13:55:13Z</time>
      </trkpt>
      <trkpt lat="42.30948" lon="8.87548">
        <ele>1484</ele>
        <time>2015-06-27T13:55:20Z</time>
      </trkpt>
      <trkpt lat="42.30952" lon="8.87521">
        <ele>1485.2</ele>
        <time>2015-06-27T13:55:44Z</time>
      </trkpt>
      <trkpt lat="42.30955" lon="8.8752">
        <ele>1485.6</ele>
        <time>2015-06-27T13:55:51Z</time>
      </trkpt>
      <trkpt lat="42.30958" lon="8.87518">
        <ele>1486.6</ele>
        <time>2015-06-27T13:55:58Z</time>
      </trkpt>
      <trkpt lat="42.30962" lon="8.8752">
        <ele>1487.4</ele>
        <time>2015-06-27T13:56:06Z</time>
      </trkpt>
      <trkpt lat="42.30964" lon="8.87518">
        <ele>1488.2</ele>
        <time>2015-06-27T13:56:12Z</time>
      </trkpt>
      <trkpt lat="42.30966" lon="8.87516">
        <ele>1489.2</ele>
        <time>2015-06-27T13:56:19Z</time>
      </trkpt>
      <trkpt lat="42.30967" lon="8.87519">
        <ele>1490.2</ele>
        <time>2015-06-27T13:56:25Z</time>
      </trkpt>
      <trkpt lat="42.3097" lon="8.87517">
        <ele>1491</ele>
        <time>2015-06-27T13:56:32Z</time>
      </trkpt>
      <trkpt lat="42.30973" lon="8.87522">
        <ele>1492.2</ele>
        <time>2015-06-27T13:56:40Z</time>
      </trkpt>
      <trkpt lat="42.30977" lon="8.87523">
        <ele>1493.2</ele>
        <time>2015-06-27T13:56:46Z</time>
      </trkpt>
      <trkpt lat="42.30979" lon="8.87519">
        <ele>1494.2</ele>
        <time>2015-06-27T13:56:53Z</time>
      </trkpt>
      <trkpt lat="42.30981" lon="8.87514">
        <ele>1495.2</ele>
        <time>2015-06-27T13:57:02Z</time>
      </trkpt>
      <trkpt lat="42.30983" lon="8.87511">
        <ele>1496.4</ele>
        <time>2015-06-27T13:57:09Z</time>
      </trkpt>
      <trkpt lat="42.30986" lon="8.87519">
        <ele>1497.4</ele>
        <time>2015-06-27T13:57:19Z</time>
      </trkpt>
      <trkpt lat="42.30987" lon="8.87523">
        <ele>1498.6</ele>
        <time>2015-06-27T13:57:26Z</time>
      </trkpt>
      <trkpt lat="42.3099" lon="8.87527">
        <ele>1499.4</ele>
        <time>2015-06-27T13:57:43Z</time>
      </trkpt>
      <trkpt lat="42.30993" lon="8.87515">
        <ele>1500.6</ele>
        <time>2015-06-27T13:57:56Z</time>
      </trkpt>
      <trkpt lat="42.30992" lon="8.87503">
        <ele>1501.6</ele>
        <time>2015-06-27T13:58:06Z</time>
      </trkpt>
      <trkpt lat="42.30996" lon="8.87492">
        <ele>1502.6</ele>
        <time>2015-06-27T13:58:22Z</time>
      </trkpt>
      <trkpt lat="42.30994" lon="8.8748">
        <ele>1503.6</ele>
        <time>2015-06-27T13:58:37Z</time>
      </trkpt>
      <trkpt lat="42.3099" lon="8.87479">
        <ele>1504.4</ele>
        <time>2015-06-27T13:58:45Z</time>
      </trkpt>
      <trkpt lat="42.30989" lon="8.87479">
        <ele>1504.4</ele>
        <time>2015-06-27T13:58:46Z</time>
      </trkpt>
      <trkpt lat="42.30991" lon="8.87474">
        <ele>1505.2</ele>
        <time>2015-06-27T13:58:52Z</time>
      </trkpt>
      <trkpt lat="42.30993" lon="8.87456">
        <ele>1506.6</ele>
        <time>2015-06-27T13:59:07Z</time>
      </trkpt>
      <trkpt lat="42.30996" lon="8.87446">
        <ele>1507.2</ele>
        <time>2015-06-27T13:59:16Z</time>
      </trkpt>
      <trkpt lat="42.30997" lon="8.87446">
        <ele>1507.6</ele>
        <time>2015-06-27T13:59:17Z</time>
      </trkpt>
      <trkpt lat="42.31" lon="8.87441">
        <ele>1508.2</ele>
        <time>2015-06-27T13:59:23Z</time>
      </trkpt>
      <trkpt lat="42.31" lon="8.87433">
        <ele>1509.6</ele>
        <time>2015-06-27T13:59:34Z</time>
      </trkpt>
      <trkpt lat="42.30998" lon="8.87411">
        <ele>1510.2</ele>
        <time>2015-06-27T13:59:57Z</time>
      </trkpt>
      <trkpt lat="42.30997" lon="8.87404">
        <ele>1511.2</ele>
        <time>2015-06-27T14:00:07Z</time>
      </trkpt>
      <trkpt lat="42.30995" lon="8.8739">
        <ele>1512.4</ele>
        <time>2015-06-27T14:00:24Z</time>
      </trkpt>
      <trkpt lat="42.30998" lon="8.87383">
        <ele>1513</ele>
        <time>2015-06-27T14:00:34Z</time>
      </trkpt>
      <trkpt lat="42.30997" lon="8.87374">
        <ele>1514.4</ele>
        <time>2015-06-27T14:00:46Z</time>
      </trkpt>
      <trkpt lat="42.30993" lon="8.87367">
        <ele>1515</ele>
        <time>2015-06-27T14:00:54Z</time>
      </trkpt>
      <trkpt lat="42.30986" lon="8.87356">
        <ele>1516.4</ele>
        <time>2015-06-27T14:01:07Z</time>
      </trkpt>
      <trkpt lat="42.30984" lon="8.87344">
        <ele>1517.6</ele>
        <time>2015-06-27T14:01:19Z</time>
      </trkpt>
      <trkpt lat="42.30981" lon="8.87337">
        <ele>1518.6</ele>
        <time>2015-06-27T14:01:28Z</time>
      </trkpt>
      <trkpt lat="42.30981" lon="8.87328">
        <ele>1519.4</ele>
        <time>2015-06-27T14:01:37Z</time>
      </trkpt>
      <trkpt lat="42.30983" lon="8.87321">
        <ele>1520.4</ele>
        <time>2015-06-27T14:01:46Z</time>
      </trkpt>
      <trkpt lat="42.30982" lon="8.87315">
        <ele>1521.2</ele>
        <time>2015-06-27T14:01:53Z</time>
      </trkpt>
      <trkpt lat="42.30979" lon="8.87309">
        <ele>1522.4</ele>
        <time>2015-06-27T14:02:00Z</time>
      </trkpt>
      <trkpt lat="42.3098" lon="8.87299">
        <ele>1523.6</ele>
        <time>2015-06-27T14:02:12Z</time>
      </trkpt>
      <trkpt lat="42.30982" lon="8.8729">
        <ele>1524.8</ele>
        <time>2015-06-27T14:02:26Z</time>
      </trkpt>
      <trkpt lat="42.30983" lon="8.87288">
        <ele>1525.4</ele>
        <time>2015-06-27T14:02:33Z</time>
      </trkpt>
      <trkpt lat="42.30986" lon="8.87286">
        <ele>1526.8</ele>
        <time>2015-06-27T14:02:40Z</time>
      </trkpt>
      <trkpt lat="42.30993" lon="8.87293">
        <ele>1527.8</ele>
        <time>2015-06-27T14:02:51Z</time>
      </trkpt>
      <trkpt lat="42.30997" lon="8.87285">
        <ele>1529.2</ele>
        <time>2015-06-27T14:03:05Z</time>
      </trkpt>
      <trkpt lat="42.30997" lon="8.87273">
        <ele>1530</ele>
        <time>2015-06-27T14:03:19Z</time>
      </trkpt>
      <trkpt lat="42.30988" lon="8.87252">
        <ele>1531.4</ele>
        <time>2015-06-27T14:03:39Z</time>
      </trkpt>
      <trkpt lat="42.30989" lon="8.87244">
        <ele>1532</ele>
        <time>2015-06-27T14:03:53Z</time>
      </trkpt>
      <trkpt lat="42.30996" lon="8.87241">
        <ele>1532.8</ele>
        <time>2015-06-27T14:04:13Z</time>
      </trkpt>
      <trkpt lat="42.30999" lon="8.87236">
        <ele>1534.4</ele>
        <time>2015-06-27T14:04:28Z</time>
      </trkpt>
      <trkpt lat="42.30997" lon="8.87218">
        <ele>1535.6</ele>
        <time>2015-06-27T14:04:50Z</time>
      </trkpt>
      <trkpt lat="42.30994" lon="8.87208">
        <ele>1536.6</ele>
        <time>2015-06-27T14:05:04Z</time>
      </trkpt>
      <trkpt lat="42.30997" lon="8.87212">
        <ele>1537.8</ele>
        <time>2015-06-27T14:05:14Z</time>
      </trkpt>
      <trkpt lat="42.31004" lon="8.87218">
        <ele>1538.8</ele>
        <time>2015-06-27T14:05:28Z</time>
      </trkpt>
      <trkpt lat="42.31005" lon="8.87212">
        <ele>1539.4</ele>
        <time>2015-06-27T14:05:34Z</time>
      </trkpt>
      <trkpt lat="42.31005" lon="8.87201">
        <ele>1541</ele>
        <time>2015-06-27T14:05:45Z</time>
      </trkpt>
      <trkpt lat="42.31005" lon="8.87191">
        <ele>1542.2</ele>
        <time>2015-06-27T14:05:57Z</time>
      </trkpt>
      <trkpt lat="42.31004" lon="8.87181">
        <ele>1543</ele>
        <time>2015-06-27T14:06:09Z</time>
      </trkpt>
      <trkpt lat="42.31006" lon="8.87175">
        <ele>1544.2</ele>
        <time>2015-06-27T14:06:23Z</time>
      </trkpt>
      <trkpt lat="42.31007" lon="8.8717">
        <ele>1545.2</ele>
        <time>2015-06-27T14:06:32Z</time>
      </trkpt>
      <trkpt lat="42.3101" lon="8.87164">
        <ele>1546.4</ele>
        <time>2015-06-27T14:06:44Z</time>
      </trkpt>
      <trkpt lat="42.31013" lon="8.87159">
        <ele>1547.8</ele>
        <time>2015-06-27T14:06:57Z</time>
      </trkpt>
      <trkpt lat="42.31015" lon="8.87156">
        <ele>1548</ele>
        <time>2015-06-27T14:07:03Z</time>
      </trkpt>
      <trkpt lat="42.31015" lon="8.87153">
        <ele>1548.6</ele>
        <time>2015-06-27T14:07:06Z</time>
      </trkpt>
      <trkpt lat="42.31016" lon="8.87148">
        <ele>1549.2</ele>
        <time>2015-06-27T14:07:12Z</time>
      </trkpt>
      <trkpt lat="42.31014" lon="8.8714">
        <ele>1550.8</ele>
        <time>2015-06-27T14:07:25Z</time>
      </trkpt>
      <trkpt lat="42.31012" lon="8.87127">
        <ele>1552.2</ele>
        <time>2015-06-27T14:07:41Z</time>
      </trkpt>
      <trkpt lat="42.3101" lon="8.87118">
        <ele>1553</ele>
        <time>2015-06-27T14:07:54Z</time>
      </trkpt>
      <trkpt lat="42.31011" lon="8.87115">
        <ele>1553.8</ele>
        <time>2015-06-27T14:08:01Z</time>
      </trkpt>
      <trkpt lat="42.31015" lon="8.87109">
        <ele>1555.2</ele>
        <time>2015-06-27T14:08:10Z</time>
      </trkpt>
      <trkpt lat="42.31015" lon="8.87097">
        <ele>1556.4</ele>
        <time>2015-06-27T14:08:25Z</time>
      </trkpt>
      <trkpt lat="42.31016" lon="8.87092">
        <ele>1557</ele>
        <time>2015-06-27T14:08:31Z</time>
      </trkpt>
      <trkpt lat="42.31017" lon="8.87088">
        <ele>1557.8</ele>
        <time>2015-06-27T14:08:37Z</time>
      </trkpt>
      <trkpt lat="42.31018" lon="8.87078">
        <ele>1558.6</ele>
        <time>2015-06-27T14:08:46Z</time>
      </trkpt>
      <trkpt lat="42.31009" lon="8.87065">
        <ele>1559.8</ele>
        <time>2015-06-27T14:09:09Z</time>
      </trkpt>
      <trkpt lat="42.31007" lon="8.87053">
        <ele>1560</ele>
        <time>2015-06-27T14:09:37Z</time>
      </trkpt>
      <trkpt lat="42.31008" lon="8.8705">
        <ele>1561.2</ele>
        <time>2015-06-27T14:09:53Z</time>
      </trkpt>
      <trkpt lat="42.31009" lon="8.8705">
        <ele>1562.2</ele>
        <time>2015-06-27T14:10:01Z</time>
      </trkpt>
      <trkpt lat="42.31022" lon="8.87047">
        <ele>1562.8</ele>
        <time>2015-06-27T14:10:19Z</time>
      </trkpt>
      <trkpt lat="42.31037" lon="8.87043">
        <ele>1563.4</ele>
        <time>2015-06-27T14:10:46Z</time>
      </trkpt>
      <trkpt lat="42.31046" lon="8.87038">
        <ele>1564.6</ele>
        <time>2015-06-27T14:10:58Z</time>
      </trkpt>
      <trkpt lat="42.31049" lon="8.87034">
        <ele>1565.2</ele>
        <time>2015-06-27T14:11:04Z</time>
      </trkpt>
      <trkpt lat="42.31051" lon="8.87031">
        <ele>1565.6</ele>
        <time>2015-06-27T14:11:09Z</time>
      </trkpt>
      <trkpt lat="42.31052" lon="8.87025">
        <ele>1566.4</ele>
        <time>2015-06-27T14:11:16Z</time>
      </trkpt>
      <trkpt lat="42.31054" lon="8.87018">
        <ele>1567.8</ele>
        <time>2015-06-27T14:11:25Z</time>
      </trkpt>
      <trkpt lat="42.31056" lon="8.87013">
        <ele>1568.4</ele>
        <time>2015-06-27T14:11:31Z</time>
      </trkpt>
      <trkpt lat="42.3106" lon="8.87012">
        <ele>1569.8</ele>
        <time>2015-06-27T14:11:39Z</time>
      </trkpt>
      <trkpt lat="42.31065" lon="8.8701">
        <ele>1570.8</ele>
        <time>2015-06-27T14:11:45Z</time>
      </trkpt>
      <trkpt lat="42.31074" lon="8.87007">
        <ele>1572.2</ele>
        <time>2015-06-27T14:11:59Z</time>
      </trkpt>
      <trkpt lat="42.3108" lon="8.87004">
        <ele>1573.2</ele>
        <time>2015-06-27T14:12:07Z</time>
      </trkpt>
      <trkpt lat="42.31083" lon="8.87002">
        <ele>1574</ele>
        <time>2015-06-27T14:12:13Z</time>
      </trkpt>
      <trkpt lat="42.3109" lon="8.86996">
        <ele>1575.8</ele>
        <time>2015-06-27T14:12:27Z</time>
      </trkpt>
      <trkpt lat="42.31098" lon="8.86993">
        <ele>1577</ele>
        <time>2015-06-27T14:12:38Z</time>
      </trkpt>
      <trkpt lat="42.31102" lon="8.8699">
        <ele>1577.8</ele>
        <time>2015-06-27T14:12:45Z</time>
      </trkpt>
      <trkpt lat="42.31108" lon="8.86982">
        <ele>1578.8</ele>
        <time>2015-06-27T14:12:58Z</time>
      </trkpt>
      <trkpt lat="42.31117" lon="8.86973">
        <ele>1579.8</ele>
        <time>2015-06-27T14:13:13Z</time>
      </trkpt>
      <trkpt lat="42.31117" lon="8.86973">
        <ele>1580</ele>
        <time>2015-06-27T14:13:14Z</time>
      </trkpt>
      <trkpt lat="42.31127" lon="8.86963">
        <ele>1581.4</ele>
        <time>2015-06-27T14:13:34Z</time>
      </trkpt>
      <trkpt lat="42.31136" lon="8.86952">
        <ele>1582.6</ele>
        <time>2015-06-27T14:13:51Z</time>
      </trkpt>
      <trkpt lat="42.31145" lon="8.86936">
        <ele>1583.6</ele>
        <time>2015-06-27T14:14:12Z</time>
      </trkpt>
      <trkpt lat="42.31156" lon="8.86926">
        <ele>1584.6</ele>
        <time>2015-06-27T14:14:29Z</time>
      </trkpt>
      <trkpt lat="42.31165" lon="8.86922">
        <ele>1586</ele>
        <time>2015-06-27T14:14:44Z</time>
      </trkpt>
      <trkpt lat="42.3119" lon="8.8692">
        <ele>1587</ele>
        <time>2015-06-27T14:15:09Z</time>
      </trkpt>
      <trkpt lat="42.31199" lon="8.86913">
        <ele>1587.8</ele>
        <time>2015-06-27T14:15:20Z</time>
      </trkpt>
      <trkpt lat="42.31203" lon="8.8691">
        <ele>1588.4</ele>
        <time>2015-06-27T14:15:26Z</time>
      </trkpt>
      <trkpt lat="42.31209" lon="8.86905">
        <ele>1589</ele>
        <time>2015-06-27T14:15:35Z</time>
      </trkpt>
      <trkpt lat="42.31215" lon="8.86903">
        <ele>1589.6</ele>
        <time>2015-06-27T14:15:43Z</time>
      </trkpt>
      <trkpt lat="42.31225" lon="8.86898">
        <ele>1591.2</ele>
        <time>2015-06-27T14:15:58Z</time>
      </trkpt>
      <trkpt lat="42.31228" lon="8.86894">
        <ele>1591.4</ele>
        <time>2015-06-27T14:16:02Z</time>
      </trkpt>
      <trkpt lat="42.31229" lon="8.86893">
        <ele>1591.6</ele>
        <time>2015-06-27T14:16:04Z</time>
      </trkpt>
      <trkpt lat="42.31236" lon="8.86887">
        <ele>1592.8</ele>
        <time>2015-06-27T14:16:16Z</time>
      </trkpt>
      <trkpt lat="42.31237" lon="8.8688">
        <ele>1593.4</ele>
        <time>2015-06-27T14:16:23Z</time>
      </trkpt>
      <trkpt lat="42.31238" lon="8.86877">
        <ele>1593.6</ele>
        <time>2015-06-27T14:16:27Z</time>
      </trkpt>
      <trkpt lat="42.31265" lon="8.86869">
        <ele>1594.4</ele>
        <time>2015-06-27T14:16:58Z</time>
      </trkpt>
      <trkpt lat="42.31295" lon="8.86851">
        <ele>1595.2</ele>
        <time>2015-06-27T14:17:31Z</time>
      </trkpt>
      <trkpt lat="42.31328" lon="8.86825">
        <ele>1596.2</ele>
        <time>2015-06-27T14:18:13Z</time>
      </trkpt>
      <trkpt lat="42.31334" lon="8.86818">
        <ele>1597</ele>
        <time>2015-06-27T14:18:28Z</time>
      </trkpt>
      <trkpt lat="42.31335" lon="8.86814">
        <ele>1597.8</ele>
        <time>2015-06-27T14:18:55Z</time>
      </trkpt>
      <trkpt lat="42.31334" lon="8.86813">
        <ele>1598.2</ele>
        <time>2015-06-27T14:19:10Z</time>
      </trkpt>
      <trkpt lat="42.31351" lon="8.86814">
        <ele>1597</ele>
        <time>2015-06-27T14:20:46Z</time>
      </trkpt>
      <trkpt lat="42.31362" lon="8.86812">
        <ele>1598.2</ele>
        <time>2015-06-27T14:20:57Z</time>
      </trkpt>
      <trkpt lat="42.31405" lon="8.8682">
        <ele>1599.4</ele>
        <time>2015-06-27T14:21:38Z</time>
      </trkpt>
      <trkpt lat="42.31419" lon="8.86821">
        <ele>1600.2</ele>
        <time>2015-06-27T14:21:54Z</time>
      </trkpt>
      <trkpt lat="42.31429" lon="8.86819">
        <ele>1601.2</ele>
        <time>2015-06-27T14:22:06Z</time>
      </trkpt>
      <trkpt lat="42.31448" lon="8.86821">
        <ele>1601.4</ele>
        <time>2015-06-27T14:22:25Z</time>
      </trkpt>
      <trkpt lat="42.31454" lon="8.86822">
        <ele>1602.8</ele>
        <time>2015-06-27T14:22:32Z</time>
      </trkpt>
      <trkpt lat="42.31461" lon="8.86821">
        <ele>1604</ele>
        <time>2015-06-27T14:22:41Z</time>
      </trkpt>
      <trkpt lat="42.31468" lon="8.8682">
        <ele>1604.8</ele>
        <time>2015-06-27T14:22:49Z</time>
      </trkpt>
      <trkpt lat="42.31473" lon="8.86816">
        <ele>1606.2</ele>
        <time>2015-06-27T14:22:58Z</time>
      </trkpt>
      <trkpt lat="42.3148" lon="8.86818">
        <ele>1607.2</ele>
        <time>2015-06-27T14:23:10Z</time>
      </trkpt>
      <trkpt lat="42.31484" lon="8.86819">
        <ele>1607.8</ele>
        <time>2015-06-27T14:23:15Z</time>
      </trkpt>
      <trkpt lat="42.31488" lon="8.86819">
        <ele>1608.8</ele>
        <time>2015-06-27T14:23:21Z</time>
      </trkpt>
      <trkpt lat="42.31496" lon="8.86812">
        <ele>1610</ele>
        <time>2015-06-27T14:23:32Z</time>
      </trkpt>
      <trkpt lat="42.31501" lon="8.86812">
        <ele>1611.2</ele>
        <time>2015-06-27T14:23:40Z</time>
      </trkpt>
      <trkpt lat="42.3151" lon="8.86815">
        <ele>1612.4</ele>
        <time>2015-06-27T14:23:54Z</time>
      </trkpt>
      <trkpt lat="42.31529" lon="8.868">
        <ele>1613</ele>
        <time>2015-06-27T14:24:34Z</time>
      </trkpt>
      <trkpt lat="42.31542" lon="8.86794">
        <ele>1613.8</ele>
        <time>2015-06-27T14:24:46Z</time>
      </trkpt>
      <trkpt lat="42.31563" lon="8.86795">
        <ele>1614.6</ele>
        <time>2015-06-27T14:25:09Z</time>
      </trkpt>
      <trkpt lat="42.31578" lon="8.86788">
        <ele>1615.8</ele>
        <time>2015-06-27T14:25:26Z</time>
      </trkpt>
      <trkpt lat="42.31585" lon="8.86788">
        <ele>1616</ele>
        <time>2015-06-27T14:25:34Z</time>
      </trkpt>
      <trkpt lat="42.31598" lon="8.86792">
        <ele>1616.2</ele>
        <time>2015-06-27T14:25:50Z</time>
      </trkpt>
      <trkpt lat="42.31609" lon="8.86797">
        <ele>1617.6</ele>
        <time>2015-06-27T14:26:00Z</time>
      </trkpt>
      <trkpt lat="42.31617" lon="8.868">
        <ele>1618.2</ele>
        <time>2015-06-27T14:26:09Z</time>
      </trkpt>
      <trkpt lat="42.31633" lon="8.86796">
        <ele>1619.6</ele>
        <time>2015-06-27T14:26:33Z</time>
      </trkpt>
      <trkpt lat="42.31636" lon="8.86798">
        <ele>1619.8</ele>
        <time>2015-06-27T14:26:37Z</time>
      </trkpt>
      <trkpt lat="42.31636" lon="8.86798">
        <ele>1620</ele>
        <time>2015-06-27T14:26:40Z</time>
      </trkpt>
      <trkpt lat="42.31639" lon="8.86803">
        <ele>1620.8</ele>
        <time>2015-06-27T14:26:46Z</time>
      </trkpt>
      <trkpt lat="42.3164" lon="8.86803">
        <ele>1621</ele>
        <time>2015-06-27T14:26:47Z</time>
      </trkpt>
      <trkpt lat="42.31644" lon="8.86807">
        <ele>1622</ele>
        <time>2015-06-27T14:26:55Z</time>
      </trkpt>
      <trkpt lat="42.31649" lon="8.8681">
        <ele>1623</ele>
        <time>2015-06-27T14:27:03Z</time>
      </trkpt>
      <trkpt lat="42.31657" lon="8.8681">
        <ele>1624.4</ele>
        <time>2015-06-27T14:27:14Z</time>
      </trkpt>
      <trkpt lat="42.31661" lon="8.86814">
        <ele>1625</ele>
        <time>2015-06-27T14:27:21Z</time>
      </trkpt>
      <trkpt lat="42.31665" lon="8.86817">
        <ele>1625.8</ele>
        <time>2015-06-27T14:27:27Z</time>
      </trkpt>
      <trkpt lat="42.31672" lon="8.86818">
        <ele>1627.4</ele>
        <time>2015-06-27T14:27:38Z</time>
      </trkpt>
      <trkpt lat="42.31676" lon="8.8682">
        <ele>1628.4</ele>
        <time>2015-06-27T14:27:46Z</time>
      </trkpt>
      <trkpt lat="42.31684" lon="8.86823">
        <ele>1629.6</ele>
        <time>2015-06-27T14:28:00Z</time>
      </trkpt>
      <trkpt lat="42.31686" lon="8.86821">
        <ele>1629.8</ele>
        <time>2015-06-27T14:28:05Z</time>
      </trkpt>
      <trkpt lat="42.3169" lon="8.86814">
        <ele>1631.4</ele>
        <time>2015-06-27T14:28:13Z</time>
      </trkpt>
      <trkpt lat="42.31694" lon="8.86809">
        <ele>1632.2</ele>
        <time>2015-06-27T14:28:20Z</time>
      </trkpt>
      <trkpt lat="42.31705" lon="8.86808">
        <ele>1633.8</ele>
        <time>2015-06-27T14:28:34Z</time>
      </trkpt>
      <trkpt lat="42.31722" lon="8.86811">
        <ele>1634.8</ele>
        <time>2015-06-27T14:28:49Z</time>
      </trkpt>
      <trkpt lat="42.31727" lon="8.86811">
        <ele>1635.4</ele>
        <time>2015-06-27T14:28:59Z</time>
      </trkpt>
      <trkpt lat="42.31735" lon="8.86812">
        <ele>1636.4</ele>
        <time>2015-06-27T14:29:08Z</time>
      </trkpt>
      <trkpt lat="42.31752" lon="8.868">
        <ele>1637.8</ele>
        <time>2015-06-27T14:29:32Z</time>
      </trkpt>
      <trkpt lat="42.31767" lon="8.86811">
        <ele>1638.8</ele>
        <time>2015-06-27T14:29:45Z</time>
      </trkpt>
      <trkpt lat="42.31776" lon="8.86817">
        <ele>1639.6</ele>
        <time>2015-06-27T14:29:58Z</time>
      </trkpt>
      <trkpt lat="42.31779" lon="8.86817">
        <ele>1639.8</ele>
        <time>2015-06-27T14:30:00Z</time>
      </trkpt>
      <trkpt lat="42.31783" lon="8.86822">
        <ele>1640.2</ele>
        <time>2015-06-27T14:30:05Z</time>
      </trkpt>
      <trkpt lat="42.31785" lon="8.86823">
        <ele>1640.2</ele>
        <time>2015-06-27T14:30:07Z</time>
      </trkpt>
      <trkpt lat="42.31788" lon="8.86829">
        <ele>1641.4</ele>
        <time>2015-06-27T14:30:14Z</time>
      </trkpt>
      <trkpt lat="42.31798" lon="8.86839">
        <ele>1642.6</ele>
        <time>2015-06-27T14:30:31Z</time>
      </trkpt>
      <trkpt lat="42.31817" lon="8.86858">
        <ele>1643.8</ele>
        <time>2015-06-27T14:30:56Z</time>
      </trkpt>
      <trkpt lat="42.31824" lon="8.86864">
        <ele>1644.6</ele>
        <time>2015-06-27T14:31:06Z</time>
      </trkpt>
      <trkpt lat="42.3183" lon="8.86874">
        <ele>1645.6</ele>
        <time>2015-06-27T14:31:16Z</time>
      </trkpt>
      <trkpt lat="42.31834" lon="8.86887">
        <ele>1646.8</ele>
        <time>2015-06-27T14:31:29Z</time>
      </trkpt>
      <trkpt lat="42.31848" lon="8.86897">
        <ele>1647.6</ele>
        <time>2015-06-27T14:31:42Z</time>
      </trkpt>
      <trkpt lat="42.31853" lon="8.86901">
        <ele>1648.2</ele>
        <time>2015-06-27T14:31:48Z</time>
      </trkpt>
      <trkpt lat="42.31859" lon="8.86904">
        <ele>1649.4</ele>
        <time>2015-06-27T14:31:55Z</time>
      </trkpt>
      <trkpt lat="42.31862" lon="8.86907">
        <ele>1650.2</ele>
        <time>2015-06-27T14:32:01Z</time>
      </trkpt>
      <trkpt lat="42.31867" lon="8.86917">
        <ele>1651.8</ele>
        <time>2015-06-27T14:32:12Z</time>
      </trkpt>
      <trkpt lat="42.31885" lon="8.86929">
        <ele>1653</ele>
        <time>2015-06-27T14:32:38Z</time>
      </trkpt>
      <trkpt lat="42.31894" lon="8.86933">
        <ele>1654</ele>
        <time>2015-06-27T14:32:50Z</time>
      </trkpt>
      <trkpt lat="42.31907" lon="8.86939">
        <ele>1655.2</ele>
        <time>2015-06-27T14:33:02Z</time>
      </trkpt>
      <trkpt lat="42.31924" lon="8.8695">
        <ele>1656</ele>
        <time>2015-06-27T14:33:22Z</time>
      </trkpt>
      <trkpt lat="42.31933" lon="8.86951">
        <ele>1656.8</ele>
        <time>2015-06-27T14:33:33Z</time>
      </trkpt>
      <trkpt lat="42.31944" lon="8.86948">
        <ele>1657.8</ele>
        <time>2015-06-27T14:34:30Z</time>
      </trkpt>
      <trkpt lat="42.31957" lon="8.86951">
        <ele>1658.4</ele>
        <time>2015-06-27T14:34:42Z</time>
      </trkpt>
      <trkpt lat="42.31971" lon="8.86953">
        <ele>1659.6</ele>
        <time>2015-06-27T14:34:58Z</time>
      </trkpt>
      <trkpt lat="42.31978" lon="8.86954">
        <ele>1660</ele>
        <time>2015-06-27T14:35:07Z</time>
      </trkpt>
      <trkpt lat="42.32003" lon="8.86953">
        <ele>1661.2</ele>
        <time>2015-06-27T14:35:28Z</time>
      </trkpt>
      <trkpt lat="42.32009" lon="8.86949">
        <ele>1661.6</ele>
        <time>2015-06-27T14:35:35Z</time>
      </trkpt>
      <trkpt lat="42.32024" lon="8.86947">
        <ele>1663.2</ele>
        <time>2015-06-27T14:35:50Z</time>
      </trkpt>
      <trkpt lat="42.32031" lon="8.86944">
        <ele>1663.8</ele>
        <time>2015-06-27T14:36:01Z</time>
      </trkpt>
      <trkpt lat="42.32033" lon="8.86944">
        <ele>1664</ele>
        <time>2015-06-27T14:36:03Z</time>
      </trkpt>
      <trkpt lat="42.32035" lon="8.86944">
        <ele>1664.2</ele>
        <time>2015-06-27T14:36:05Z</time>
      </trkpt>
      <trkpt lat="42.3205" lon="8.86942">
        <ele>1665.2</ele>
        <time>2015-06-27T14:36:20Z</time>
      </trkpt>
      <trkpt lat="42.32061" lon="8.86937">
        <ele>1665.8</ele>
        <time>2015-06-27T14:36:32Z</time>
      </trkpt>
      <trkpt lat="42.32067" lon="8.86937">
        <ele>1666.4</ele>
        <time>2015-06-27T14:36:39Z</time>
      </trkpt>
      <trkpt lat="42.32076" lon="8.86936">
        <ele>1667</ele>
        <time>2015-06-27T14:36:47Z</time>
      </trkpt>
      <trkpt lat="42.32091" lon="8.86935">
        <ele>1668.2</ele>
        <time>2015-06-27T14:37:01Z</time>
      </trkpt>
      <trkpt lat="42.32095" lon="8.86936">
        <ele>1668.4</ele>
        <time>2015-06-27T14:37:05Z</time>
      </trkpt>
      <trkpt lat="42.32102" lon="8.86936">
        <ele>1669</ele>
        <time>2015-06-27T14:37:10Z</time>
      </trkpt>
      <trkpt lat="42.32105" lon="8.86935">
        <ele>1669.2</ele>
        <time>2015-06-27T14:37:13Z</time>
      </trkpt>
      <trkpt lat="42.3211" lon="8.86934">
        <ele>1669.6</ele>
        <time>2015-06-27T14:37:19Z</time>
      </trkpt>
      <trkpt lat="42.32114" lon="8.86931">
        <ele>1670</ele>
        <time>2015-06-27T14:37:24Z</time>
      </trkpt>
      <trkpt lat="42.32123" lon="8.86924">
        <ele>1671.6</ele>
        <time>2015-06-27T14:37:36Z</time>
      </trkpt>
      <trkpt lat="42.32138" lon="8.86924">
        <ele>1672.6</ele>
        <time>2015-06-27T14:37:52Z</time>
      </trkpt>
      <trkpt lat="42.32151" lon="8.86917">
        <ele>1673.4</ele>
        <time>2015-06-27T14:38:08Z</time>
      </trkpt>
      <trkpt lat="42.32159" lon="8.86916">
        <ele>1674.4</ele>
        <time>2015-06-27T14:38:19Z</time>
      </trkpt>
      <trkpt lat="42.3216" lon="8.86917">
        <ele>1674.4</ele>
        <time>2015-06-27T14:38:20Z</time>
      </trkpt>
      <trkpt lat="42.32169" lon="8.86917">
        <ele>1675.8</ele>
        <time>2015-06-27T14:38:31Z</time>
      </trkpt>
      <trkpt lat="42.32179" lon="8.86914">
        <ele>1677</ele>
        <time>2015-06-27T14:38:42Z</time>
      </trkpt>
      <trkpt lat="42.3219" lon="8.86911">
        <ele>1678.2</ele>
        <time>2015-06-27T14:38:57Z</time>
      </trkpt>
      <trkpt lat="42.32201" lon="8.8691">
        <ele>1679</ele>
        <time>2015-06-27T14:39:09Z</time>
      </trkpt>
      <trkpt lat="42.32206" lon="8.86909">
        <ele>1680</ele>
        <time>2015-06-27T14:39:19Z</time>
      </trkpt>
      <trkpt lat="42.32212" lon="8.86908">
        <ele>1681.2</ele>
        <time>2015-06-27T14:39:28Z</time>
      </trkpt>
      <trkpt lat="42.32219" lon="8.86909">
        <ele>1682.4</ele>
        <time>2015-06-27T14:39:37Z</time>
      </trkpt>
      <trkpt lat="42.32232" lon="8.86909">
        <ele>1683.6</ele>
        <time>2015-06-27T14:39:52Z</time>
      </trkpt>
      <trkpt lat="42.32241" lon="8.86916">
        <ele>1685.2</ele>
        <time>2015-06-27T14:40:12Z</time>
      </trkpt>
      <trkpt lat="42.32249" lon="8.86913">
        <ele>1686</ele>
        <time>2015-06-27T14:40:24Z</time>
      </trkpt>
      <trkpt lat="42.32254" lon="8.86909">
        <ele>1686.6</ele>
        <time>2015-06-27T14:40:32Z</time>
      </trkpt>
      <trkpt lat="42.3226" lon="8.86904">
        <ele>1687.8</ele>
        <time>2015-06-27T14:40:42Z</time>
      </trkpt>
      <trkpt lat="42.32264" lon="8.86902">
        <ele>1689.2</ele>
        <time>2015-06-27T14:40:52Z</time>
      </trkpt>
      <trkpt lat="42.32267" lon="8.86899">
        <ele>1690.2</ele>
        <time>2015-06-27T14:41:01Z</time>
      </trkpt>
      <trkpt lat="42.32272" lon="8.86898">
        <ele>1691.2</ele>
        <time>2015-06-27T14:41:08Z</time>
      </trkpt>
      <trkpt lat="42.32292" lon="8.86884">
        <ele>1692.8</ele>
        <time>2015-06-27T14:41:36Z</time>
      </trkpt>
      <trkpt lat="42.32302" lon="8.86881">
        <ele>1693.8</ele>
        <time>2015-06-27T14:41:50Z</time>
      </trkpt>
      <trkpt lat="42.32307" lon="8.86878">
        <ele>1694.8</ele>
        <time>2015-06-27T14:41:58Z</time>
      </trkpt>
      <trkpt lat="42.32311" lon="8.8687">
        <ele>1696</ele>
        <time>2015-06-27T14:42:08Z</time>
      </trkpt>
      <trkpt lat="42.32316" lon="8.86862">
        <ele>1697.2</ele>
        <time>2015-06-27T14:42:19Z</time>
      </trkpt>
      <trkpt lat="42.32321" lon="8.86852">
        <ele>1698.2</ele>
        <time>2015-06-27T14:42:32Z</time>
      </trkpt>
      <trkpt lat="42.32324" lon="8.86848">
        <ele>1699.2</ele>
        <time>2015-06-27T14:42:39Z</time>
      </trkpt>
      <trkpt lat="42.32327" lon="8.86843">
        <ele>1700.4</ele>
        <time>2015-06-27T14:42:47Z</time>
      </trkpt>
      <trkpt lat="42.32327" lon="8.86843">
        <ele>1700.6</ele>
        <time>2015-06-27T14:42:48Z</time>
      </trkpt>
      <trkpt lat="42.32331" lon="8.86839">
        <ele>1701.8</ele>
        <time>2015-06-27T14:42:56Z</time>
      </trkpt>
      <trkpt lat="42.32335" lon="8.86835">
        <ele>1702.8</ele>
        <time>2015-06-27T14:43:04Z</time>
      </trkpt>
      <trkpt lat="42.32336" lon="8.86826">
        <ele>1703.8</ele>
        <time>2015-06-27T14:43:14Z</time>
      </trkpt>
      <trkpt lat="42.32336" lon="8.86823">
        <ele>1704.2</ele>
        <time>2015-06-27T14:43:17Z</time>
      </trkpt>
      <trkpt lat="42.32335" lon="8.86819">
        <ele>1704.8</ele>
        <time>2015-06-27T14:43:23Z</time>
      </trkpt>
      <trkpt lat="42.32334" lon="8.86817">
        <ele>1706</ele>
        <time>2015-06-27T14:43:30Z</time>
      </trkpt>
      <trkpt lat="42.32336" lon="8.86816">
        <ele>1707.2</ele>
        <time>2015-06-27T14:43:38Z</time>
      </trkpt>
      <trkpt lat="42.32339" lon="8.8681">
        <ele>1708.6</ele>
        <time>2015-06-27T14:43:47Z</time>
      </trkpt>
      <trkpt lat="42.32338" lon="8.86807">
        <ele>1709.6</ele>
        <time>2015-06-27T14:43:55Z</time>
      </trkpt>
      <trkpt lat="42.32339" lon="8.86804">
        <ele>1710.4</ele>
        <time>2015-06-27T14:44:02Z</time>
      </trkpt>
      <trkpt lat="42.32338" lon="8.86802">
        <ele>1711</ele>
        <time>2015-06-27T14:44:04Z</time>
      </trkpt>
      <trkpt lat="42.32341" lon="8.86801">
        <ele>1712</ele>
        <time>2015-06-27T14:44:11Z</time>
      </trkpt>
      <trkpt lat="42.32342" lon="8.86796">
        <ele>1712.8</ele>
        <time>2015-06-27T14:44:18Z</time>
      </trkpt>
      <trkpt lat="42.32346" lon="8.86791">
        <ele>1714.4</ele>
        <time>2015-06-27T14:44:28Z</time>
      </trkpt>
      <trkpt lat="42.32348" lon="8.86787">
        <ele>1715.4</ele>
        <time>2015-06-27T14:44:37Z</time>
      </trkpt>
      <trkpt lat="42.32351" lon="8.86784">
        <ele>1716.4</ele>
        <time>2015-06-27T14:44:45Z</time>
      </trkpt>
      <trkpt lat="42.32352" lon="8.86777">
        <ele>1717.6</ele>
        <time>2015-06-27T14:44:54Z</time>
      </trkpt>
      <trkpt lat="42.32351" lon="8.86774">
        <ele>1719.2</ele>
        <time>2015-06-27T14:45:06Z</time>
      </trkpt>
      <trkpt lat="42.32357" lon="8.86771">
        <ele>1720.2</ele>
        <time>2015-06-27T14:45:17Z</time>
      </trkpt>
      <trkpt lat="42.32361" lon="8.86768">
        <ele>1721.2</ele>
        <time>2015-06-27T14:45:28Z</time>
      </trkpt>
      <trkpt lat="42.32365" lon="8.86764">
        <ele>1722</ele>
        <time>2015-06-27T14:45:35Z</time>
      </trkpt>
      <trkpt lat="42.32367" lon="8.86759">
        <ele>1723</ele>
        <time>2015-06-27T14:45:40Z</time>
      </trkpt>
      <trkpt lat="42.32367" lon="8.86756">
        <ele>1723.6</ele>
        <time>2015-06-27T14:45:42Z</time>
      </trkpt>
      <trkpt lat="42.32366" lon="8.86755">
        <ele>1724.6</ele>
        <time>2015-06-27T14:45:51Z</time>
      </trkpt>
      <trkpt lat="42.32359" lon="8.86752">
        <ele>1726.2</ele>
        <time>2015-06-27T14:46:07Z</time>
      </trkpt>
      <trkpt lat="42.3236" lon="8.8675">
        <ele>1726.8</ele>
        <time>2015-06-27T14:46:13Z</time>
      </trkpt>
      <trkpt lat="42.3236" lon="8.86745">
        <ele>1728</ele>
        <time>2015-06-27T14:46:20Z</time>
      </trkpt>
      <trkpt lat="42.3236" lon="8.86742">
        <ele>1729.2</ele>
        <time>2015-06-27T14:46:28Z</time>
      </trkpt>
      <trkpt lat="42.32359" lon="8.86737">
        <ele>1730.6</ele>
        <time>2015-06-27T14:46:38Z</time>
      </trkpt>
      <trkpt lat="42.32359" lon="8.86737">
        <ele>1731</ele>
        <time>2015-06-27T14:46:43Z</time>
      </trkpt>
      <trkpt lat="42.32356" lon="8.86735">
        <ele>1732.8</ele>
        <time>2015-06-27T14:46:53Z</time>
      </trkpt>
      <trkpt lat="42.32356" lon="8.86732">
        <ele>1733.4</ele>
        <time>2015-06-27T14:46:59Z</time>
      </trkpt>
      <trkpt lat="42.32353" lon="8.86726">
        <ele>1735</ele>
        <time>2015-06-27T14:47:09Z</time>
      </trkpt>
      <trkpt lat="42.32351" lon="8.86723">
        <ele>1735.8</ele>
        <time>2015-06-27T14:47:16Z</time>
      </trkpt>
      <trkpt lat="42.32351" lon="8.86719">
        <ele>1737</ele>
        <time>2015-06-27T14:47:23Z</time>
      </trkpt>
      <trkpt lat="42.32352" lon="8.86716">
        <ele>1738.6</ele>
        <time>2015-06-27T14:47:32Z</time>
      </trkpt>
      <trkpt lat="42.32353" lon="8.86713">
        <ele>1739.4</ele>
        <time>2015-06-27T14:47:39Z</time>
      </trkpt>
      <trkpt lat="42.32352" lon="8.86711">
        <ele>1740.2</ele>
        <time>2015-06-27T14:47:45Z</time>
      </trkpt>
      <trkpt lat="42.32347" lon="8.86709">
        <ele>1741.6</ele>
        <time>2015-06-27T14:47:54Z</time>
      </trkpt>
      <trkpt lat="42.32345" lon="8.86704">
        <ele>1742.4</ele>
        <time>2015-06-27T14:48:00Z</time>
      </trkpt>
      <trkpt lat="42.32343" lon="8.86701">
        <ele>1743.4</ele>
        <time>2015-06-27T14:48:06Z</time>
      </trkpt>
      <trkpt lat="42.32341" lon="8.86695">
        <ele>1745.2</ele>
        <time>2015-06-27T14:48:16Z</time>
      </trkpt>
      <trkpt lat="42.32339" lon="8.86691">
        <ele>1745.6</ele>
        <time>2015-06-27T14:48:22Z</time>
      </trkpt>
      <trkpt lat="42.32337" lon="8.86688">
        <ele>1747.2</ele>
        <time>2015-06-27T14:48:32Z</time>
      </trkpt>
      <trkpt lat="42.32337" lon="8.86685">
        <ele>1748</ele>
        <time>2015-06-27T14:48:38Z</time>
      </trkpt>
      <trkpt lat="42.32338" lon="8.86685">
        <ele>1748.2</ele>
        <time>2015-06-27T14:48:40Z</time>
      </trkpt>
      <trkpt lat="42.32337" lon="8.8668">
        <ele>1749.4</ele>
        <time>2015-06-27T14:48:46Z</time>
      </trkpt>
      <trkpt lat="42.32337" lon="8.86676">
        <ele>1750</ele>
        <time>2015-06-27T14:48:52Z</time>
      </trkpt>
      <trkpt lat="42.32338" lon="8.86672">
        <ele>1751.2</ele>
        <time>2015-06-27T14:48:58Z</time>
      </trkpt>
      <trkpt lat="42.32339" lon="8.86669">
        <ele>1752.4</ele>
        <time>2015-06-27T14:49:05Z</time>
      </trkpt>
      <trkpt lat="42.3234" lon="8.86665">
        <ele>1753</ele>
        <time>2015-06-27T14:49:10Z</time>
      </trkpt>
      <trkpt lat="42.32339" lon="8.86656">
        <ele>1754.8</ele>
        <time>2015-06-27T14:49:25Z</time>
      </trkpt>
      <trkpt lat="42.32341" lon="8.86657">
        <ele>1755.6</ele>
        <time>2015-06-27T14:49:32Z</time>
      </trkpt>
      <trkpt lat="42.32341" lon="8.86657">
        <ele>1755.6</ele>
        <time>2015-06-27T14:49:33Z</time>
      </trkpt>
      <trkpt lat="42.32341" lon="8.86644">
        <ele>1757</ele>
        <time>2015-06-27T14:50:35Z</time>
      </trkpt>
      <trkpt lat="42.32341" lon="8.8664">
        <ele>1757.4</ele>
        <time>2015-06-27T14:50:40Z</time>
      </trkpt>
      <trkpt lat="42.32343" lon="8.86638">
        <ele>1759</ele>
        <time>2015-06-27T14:50:49Z</time>
      </trkpt>
      <trkpt lat="42.32344" lon="8.86635">
        <ele>1759.6</ele>
        <time>2015-06-27T14:50:54Z</time>
      </trkpt>
      <trkpt lat="42.32345" lon="8.8663">
        <ele>1761.2</ele>
        <time>2015-06-27T14:51:02Z</time>
      </trkpt>
      <trkpt lat="42.32347" lon="8.86626">
        <ele>1762.4</ele>
        <time>2015-06-27T14:51:11Z</time>
      </trkpt>
      <trkpt lat="42.32348" lon="8.86625">
        <ele>1762.8</ele>
        <time>2015-06-27T14:51:14Z</time>
      </trkpt>
      <trkpt lat="42.32349" lon="8.86622">
        <ele>1763.2</ele>
        <time>2015-06-27T14:51:18Z</time>
      </trkpt>
      <trkpt lat="42.3235" lon="8.86618">
        <ele>1764.2</ele>
        <time>2015-06-27T14:51:24Z</time>
      </trkpt>
      <trkpt lat="42.3235" lon="8.86615">
        <ele>1764.8</ele>
        <time>2015-06-27T14:51:28Z</time>
      </trkpt>
      <trkpt lat="42.32349" lon="8.86611">
        <ele>1766.4</ele>
        <time>2015-06-27T14:51:35Z</time>
      </trkpt>
      <trkpt lat="42.3235" lon="8.86607">
        <ele>1767.6</ele>
        <time>2015-06-27T14:51:43Z</time>
      </trkpt>
      <trkpt lat="42.3235" lon="8.86602">
        <ele>1768.6</ele>
        <time>2015-06-27T14:51:51Z</time>
      </trkpt>
      <trkpt lat="42.32348" lon="8.86599">
        <ele>1769.6</ele>
        <time>2015-06-27T14:51:57Z</time>
      </trkpt>
      <trkpt lat="42.32349" lon="8.86595">
        <ele>1770.6</ele>
        <time>2015-06-27T14:52:04Z</time>
      </trkpt>
      <trkpt lat="42.32345" lon="8.8659">
        <ele>1772</ele>
        <time>2015-06-27T14:52:12Z</time>
      </trkpt>
      <trkpt lat="42.32344" lon="8.86586">
        <ele>1772.8</ele>
        <time>2015-06-27T14:52:18Z</time>
      </trkpt>
      <trkpt lat="42.32343" lon="8.86582">
        <ele>1773.6</ele>
        <time>2015-06-27T14:52:23Z</time>
      </trkpt>
      <trkpt lat="42.32341" lon="8.86579">
        <ele>1775.6</ele>
        <time>2015-06-27T14:52:33Z</time>
      </trkpt>
      <trkpt lat="42.32338" lon="8.86577">
        <ele>1776.6</ele>
        <time>2015-06-27T14:52:43Z</time>
      </trkpt>
      <trkpt lat="42.3233" lon="8.86572">
        <ele>1777.8</ele>
        <time>2015-06-27T14:53:02Z</time>
      </trkpt>
      <trkpt lat="42.32321" lon="8.86568">
        <ele>1778.8</ele>
        <time>2015-06-27T14:53:14Z</time>
      </trkpt>
      <trkpt lat="42.32312" lon="8.86565">
        <ele>1779.6</ele>
        <time>2015-06-27T14:53:25Z</time>
      </trkpt>
      <trkpt lat="42.32306" lon="8.86563">
        <ele>1780.6</ele>
        <time>2015-06-27T14:53:33Z</time>
      </trkpt>
      <trkpt lat="42.32301" lon="8.86563">
        <ele>1781.6</ele>
        <time>2015-06-27T14:53:40Z</time>
      </trkpt>
      <trkpt lat="42.32298" lon="8.86561">
        <ele>1782.4</ele>
        <time>2015-06-27T14:53:46Z</time>
      </trkpt>
      <trkpt lat="42.32298" lon="8.8656">
        <ele>1783.4</ele>
        <time>2015-06-27T14:53:53Z</time>
      </trkpt>
      <trkpt lat="42.32302" lon="8.86557">
        <ele>1784.8</ele>
        <time>2015-06-27T14:54:01Z</time>
      </trkpt>
      <trkpt lat="42.32302" lon="8.86551">
        <ele>1786</ele>
        <time>2015-06-27T14:54:09Z</time>
      </trkpt>
      <trkpt lat="42.323" lon="8.86549">
        <ele>1787</ele>
        <time>2015-06-27T14:54:16Z</time>
      </trkpt>
      <trkpt lat="42.32298" lon="8.86544">
        <ele>1787.8</ele>
        <time>2015-06-27T14:54:22Z</time>
      </trkpt>
      <trkpt lat="42.32298" lon="8.86543">
        <ele>1788</ele>
        <time>2015-06-27T14:54:23Z</time>
      </trkpt>
      <trkpt lat="42.32296" lon="8.86539">
        <ele>1789</ele>
        <time>2015-06-27T14:54:29Z</time>
      </trkpt>
      <trkpt lat="42.32295" lon="8.86536">
        <ele>1790.2</ele>
        <time>2015-06-27T14:54:38Z</time>
      </trkpt>
      <trkpt lat="42.32298" lon="8.86538">
        <ele>1791</ele>
        <time>2015-06-27T14:54:45Z</time>
      </trkpt>
      <trkpt lat="42.32303" lon="8.86535">
        <ele>1792.4</ele>
        <time>2015-06-27T14:54:54Z</time>
      </trkpt>
      <trkpt lat="42.32304" lon="8.86529">
        <ele>1793.2</ele>
        <time>2015-06-27T14:55:02Z</time>
      </trkpt>
      <trkpt lat="42.32305" lon="8.86525">
        <ele>1794.6</ele>
        <time>2015-06-27T14:55:16Z</time>
      </trkpt>
      <trkpt lat="42.32304" lon="8.86522">
        <ele>1795.6</ele>
        <time>2015-06-27T14:55:26Z</time>
      </trkpt>
      <trkpt lat="42.32301" lon="8.86518">
        <ele>1796.6</ele>
        <time>2015-06-27T14:55:38Z</time>
      </trkpt>
      <trkpt lat="42.32303" lon="8.86518">
        <ele>1797.2</ele>
        <time>2015-06-27T14:55:45Z</time>
      </trkpt>
      <trkpt lat="42.32305" lon="8.86514">
        <ele>1798.4</ele>
        <time>2015-06-27T14:55:51Z</time>
      </trkpt>
      <trkpt lat="42.32304" lon="8.86508">
        <ele>1799.8</ele>
        <time>2015-06-27T14:56:00Z</time>
      </trkpt>
      <trkpt lat="42.32305" lon="8.86506">
        <ele>1800.6</ele>
        <time>2015-06-27T14:56:06Z</time>
      </trkpt>
      <trkpt lat="42.32306" lon="8.865">
        <ele>1802</ele>
        <time>2015-06-27T14:56:14Z</time>
      </trkpt>
      <trkpt lat="42.32305" lon="8.86495">
        <ele>1802.8</ele>
        <time>2015-06-27T14:56:20Z</time>
      </trkpt>
      <trkpt lat="42.32303" lon="8.86493">
        <ele>1804.4</ele>
        <time>2015-06-27T14:56:29Z</time>
      </trkpt>
      <trkpt lat="42.32301" lon="8.86489">
        <ele>1805.2</ele>
        <time>2015-06-27T14:56:36Z</time>
      </trkpt>
      <trkpt lat="42.32301" lon="8.86484">
        <ele>1806.4</ele>
        <time>2015-06-27T14:56:43Z</time>
      </trkpt>
      <trkpt lat="42.323" lon="8.86477">
        <ele>1807.2</ele>
        <time>2015-06-27T14:56:49Z</time>
      </trkpt>
      <trkpt lat="42.32302" lon="8.86472">
        <ele>1808.6</ele>
        <time>2015-06-27T14:56:56Z</time>
      </trkpt>
      <trkpt lat="42.32304" lon="8.86466">
        <ele>1809.6</ele>
        <time>2015-06-27T14:57:03Z</time>
      </trkpt>
      <trkpt lat="42.32304" lon="8.86462">
        <ele>1810.6</ele>
        <time>2015-06-27T14:57:11Z</time>
      </trkpt>
      <trkpt lat="42.32305" lon="8.86458">
        <ele>1811.8</ele>
        <time>2015-06-27T14:57:18Z</time>
      </trkpt>
      <trkpt lat="42.32305" lon="8.86453">
        <ele>1812.8</ele>
        <time>2015-06-27T14:57:24Z</time>
      </trkpt>
      <trkpt lat="42.32305" lon="8.8645">
        <ele>1813.8</ele>
        <time>2015-06-27T14:57:30Z</time>
      </trkpt>
      <trkpt lat="42.32303" lon="8.86446">
        <ele>1815.2</ele>
        <time>2015-06-27T14:57:38Z</time>
      </trkpt>
      <trkpt lat="42.32301" lon="8.86443">
        <ele>1816.4</ele>
        <time>2015-06-27T14:57:45Z</time>
      </trkpt>
      <trkpt lat="42.32299" lon="8.8644">
        <ele>1817.2</ele>
        <time>2015-06-27T14:57:53Z</time>
      </trkpt>
      <trkpt lat="42.32298" lon="8.86436">
        <ele>1818.4</ele>
        <time>2015-06-27T14:58:00Z</time>
      </trkpt>
      <trkpt lat="42.32299" lon="8.86433">
        <ele>1819.8</ele>
        <time>2015-06-27T14:58:10Z</time>
      </trkpt>
      <trkpt lat="42.32298" lon="8.86428">
        <ele>1820.4</ele>
        <time>2015-06-27T14:58:18Z</time>
      </trkpt>
      <trkpt lat="42.32297" lon="8.86423">
        <ele>1821.6</ele>
        <time>2015-06-27T14:58:24Z</time>
      </trkpt>
      <trkpt lat="42.32297" lon="8.86418">
        <ele>1822.6</ele>
        <time>2015-06-27T14:58:32Z</time>
      </trkpt>
      <trkpt lat="42.32296" lon="8.86413">
        <ele>1823.8</ele>
        <time>2015-06-27T14:58:40Z</time>
      </trkpt>
      <trkpt lat="42.32296" lon="8.86407">
        <ele>1824.8</ele>
        <time>2015-06-27T14:58:48Z</time>
      </trkpt>
      <trkpt lat="42.32299" lon="8.86401">
        <ele>1825.8</ele>
        <time>2015-06-27T14:58:57Z</time>
      </trkpt>
      <trkpt lat="42.32303" lon="8.86399">
        <ele>1827</ele>
        <time>2015-06-27T14:59:05Z</time>
      </trkpt>
      <trkpt lat="42.32308" lon="8.86395">
        <ele>1828</ele>
        <time>2015-06-27T14:59:13Z</time>
      </trkpt>
      <trkpt lat="42.32308" lon="8.86388">
        <ele>1828.8</ele>
        <time>2015-06-27T14:59:19Z</time>
      </trkpt>
      <trkpt lat="42.32307" lon="8.86385">
        <ele>1829.2</ele>
        <time>2015-06-27T14:59:22Z</time>
      </trkpt>
      <trkpt lat="42.32307" lon="8.86378">
        <ele>1830.2</ele>
        <time>2015-06-27T14:59:30Z</time>
      </trkpt>
      <trkpt lat="42.32307" lon="8.86373">
        <ele>1831.2</ele>
        <time>2015-06-27T14:59:37Z</time>
      </trkpt>
      <trkpt lat="42.3231" lon="8.86372">
        <ele>1832</ele>
        <time>2015-06-27T14:59:44Z</time>
      </trkpt>
      <trkpt lat="42.32312" lon="8.86368">
        <ele>1833.2</ele>
        <time>2015-06-27T14:59:51Z</time>
      </trkpt>
      <trkpt lat="42.32313" lon="8.86363">
        <ele>1834.2</ele>
        <time>2015-06-27T14:59:57Z</time>
      </trkpt>
      <trkpt lat="42.32315" lon="8.86359">
        <ele>1835.6</ele>
        <time>2015-06-27T15:00:05Z</time>
      </trkpt>
      <trkpt lat="42.32317" lon="8.86355">
        <ele>1836.6</ele>
        <time>2015-06-27T15:00:13Z</time>
      </trkpt>
      <trkpt lat="42.32319" lon="8.86349">
        <ele>1837.2</ele>
        <time>2015-06-27T15:00:19Z</time>
      </trkpt>
      <trkpt lat="42.3232" lon="8.86342">
        <ele>1838.6</ele>
        <time>2015-06-27T15:00:27Z</time>
      </trkpt>
      <trkpt lat="42.32321" lon="8.86341">
        <ele>1838.8</ele>
        <time>2015-06-27T15:00:29Z</time>
      </trkpt>
      <trkpt lat="42.32322" lon="8.86336">
        <ele>1839.8</ele>
        <time>2015-06-27T15:00:35Z</time>
      </trkpt>
      <trkpt lat="42.32323" lon="8.86327">
        <ele>1840.8</ele>
        <time>2015-06-27T15:00:43Z</time>
      </trkpt>
      <trkpt lat="42.32323" lon="8.86322">
        <ele>1841.6</ele>
        <time>2015-06-27T15:00:50Z</time>
      </trkpt>
      <trkpt lat="42.32324" lon="8.86316">
        <ele>1842.8</ele>
        <time>2015-06-27T15:00:58Z</time>
      </trkpt>
      <trkpt lat="42.32325" lon="8.86312">
        <ele>1843.6</ele>
        <time>2015-06-27T15:01:04Z</time>
      </trkpt>
      <trkpt lat="42.32328" lon="8.8631">
        <ele>1844.8</ele>
        <time>2015-06-27T15:01:11Z</time>
      </trkpt>
      <trkpt lat="42.32331" lon="8.86309">
        <ele>1845.8</ele>
        <time>2015-06-27T15:01:18Z</time>
      </trkpt>
      <trkpt lat="42.32334" lon="8.86304">
        <ele>1846.8</ele>
        <time>2015-06-27T15:01:25Z</time>
      </trkpt>
      <trkpt lat="42.32336" lon="8.86297">
        <ele>1848</ele>
        <time>2015-06-27T15:01:32Z</time>
      </trkpt>
      <trkpt lat="42.32339" lon="8.86285">
        <ele>1849.4</ele>
        <time>2015-06-27T15:01:44Z</time>
      </trkpt>
      <trkpt lat="42.32341" lon="8.86274">
        <ele>1850.4</ele>
        <time>2015-06-27T15:01:54Z</time>
      </trkpt>
      <trkpt lat="42.32342" lon="8.86268">
        <ele>1850.8</ele>
        <time>2015-06-27T15:02:00Z</time>
      </trkpt>
      <trkpt lat="42.32343" lon="8.86263">
        <ele>1851.4</ele>
        <time>2015-06-27T15:02:05Z</time>
      </trkpt>
      <trkpt lat="42.32346" lon="8.86254">
        <ele>1852.2</ele>
        <time>2015-06-27T15:02:15Z</time>
      </trkpt>
      <trkpt lat="42.32346" lon="8.86252">
        <ele>1852.2</ele>
        <time>2015-06-27T15:02:17Z</time>
      </trkpt>
      <trkpt lat="42.3235" lon="8.86245">
        <ele>1853.4</ele>
        <time>2015-06-27T15:02:27Z</time>
      </trkpt>
      <trkpt lat="42.32355" lon="8.86238">
        <ele>1854.4</ele>
        <time>2015-06-27T15:02:36Z</time>
      </trkpt>
      <trkpt lat="42.32361" lon="8.86232">
        <ele>1855.8</ele>
        <time>2015-06-27T15:02:48Z</time>
      </trkpt>
      <trkpt lat="42.32384" lon="8.86232">
        <ele>1856</ele>
        <time>2015-06-27T15:04:11Z</time>
      </trkpt>
      <trkpt lat="42.32398" lon="8.86222">
        <ele>1857.2</ele>
        <time>2015-06-27T15:04:38Z</time>
      </trkpt>
      <trkpt lat="42.32394" lon="8.86201">
        <ele>1856.8</ele>
        <time>2015-06-27T15:05:35Z</time>
      </trkpt>
      <trkpt lat="42.32394" lon="8.86196">
        <ele>1857</ele>
        <time>2015-06-27T15:05:39Z</time>
      </trkpt>
      <trkpt lat="42.32392" lon="8.86189">
        <ele>1857.6</ele>
        <time>2015-06-27T15:05:46Z</time>
      </trkpt>
      <trkpt lat="42.32391" lon="8.86179">
        <ele>1858.2</ele>
        <time>2015-06-27T15:05:53Z</time>
      </trkpt>
      <trkpt lat="42.32391" lon="8.86177">
        <ele>1858.4</ele>
        <time>2015-06-27T15:05:54Z</time>
      </trkpt>
      <trkpt lat="42.32394" lon="8.86156">
        <ele>1858.2</ele>
        <time>2015-06-27T15:06:07Z</time>
      </trkpt>
      <trkpt lat="42.32405" lon="8.86137">
        <ele>1859</ele>
        <time>2015-06-27T15:06:30Z</time>
      </trkpt>
      <trkpt lat="42.32407" lon="8.86134">
        <ele>1859.4</ele>
        <time>2015-06-27T15:06:33Z</time>
      </trkpt>
      <trkpt lat="42.32409" lon="8.86128">
        <ele>1860.4</ele>
        <time>2015-06-27T15:06:42Z</time>
      </trkpt>
      <trkpt lat="42.32451" lon="8.86112">
        <ele>1860</ele>
        <time>2015-06-27T15:07:34Z</time>
      </trkpt>
      <trkpt lat="42.32458" lon="8.86103">
        <ele>1860.8</ele>
        <time>2015-06-27T15:07:45Z</time>
      </trkpt>
      <trkpt lat="42.32459" lon="8.86101">
        <ele>1861</ele>
        <time>2015-06-27T15:07:47Z</time>
      </trkpt>
      <trkpt lat="42.3246" lon="8.86096">
        <ele>1862.2</ele>
        <time>2015-06-27T15:07:55Z</time>
      </trkpt>
      <trkpt lat="42.32462" lon="8.86093">
        <ele>1862.4</ele>
        <time>2015-06-27T15:08:01Z</time>
      </trkpt>
      <trkpt lat="42.32467" lon="8.86091">
        <ele>1864</ele>
        <time>2015-06-27T15:08:10Z</time>
      </trkpt>
      <trkpt lat="42.32471" lon="8.86088">
        <ele>1864.8</ele>
        <time>2015-06-27T15:08:16Z</time>
      </trkpt>
      <trkpt lat="42.32474" lon="8.86084">
        <ele>1866</ele>
        <time>2015-06-27T15:08:24Z</time>
      </trkpt>
      <trkpt lat="42.32478" lon="8.86082">
        <ele>1867.2</ele>
        <time>2015-06-27T15:08:31Z</time>
      </trkpt>
      <trkpt lat="42.32482" lon="8.86078">
        <ele>1868.4</ele>
        <time>2015-06-27T15:08:39Z</time>
      </trkpt>
      <trkpt lat="42.32488" lon="8.86074">
        <ele>1869.6</ele>
        <time>2015-06-27T15:08:49Z</time>
      </trkpt>
      <trkpt lat="42.32493" lon="8.86071">
        <ele>1870.8</ele>
        <time>2015-06-27T15:08:57Z</time>
      </trkpt>
      <trkpt lat="42.325" lon="8.86068">
        <ele>1872</ele>
        <time>2015-06-27T15:09:09Z</time>
      </trkpt>
      <trkpt lat="42.32504" lon="8.86063">
        <ele>1873</ele>
        <time>2015-06-27T15:09:18Z</time>
      </trkpt>
      <trkpt lat="42.32508" lon="8.86062">
        <ele>1873.8</ele>
        <time>2015-06-27T15:09:24Z</time>
      </trkpt>
      <trkpt lat="42.32512" lon="8.86061">
        <ele>1875</ele>
        <time>2015-06-27T15:09:30Z</time>
      </trkpt>
      <trkpt lat="42.3252" lon="8.8606">
        <ele>1876.6</ele>
        <time>2015-06-27T15:09:41Z</time>
      </trkpt>
      <trkpt lat="42.32527" lon="8.86059">
        <ele>1877.4</ele>
        <time>2015-06-27T15:09:51Z</time>
      </trkpt>
      <trkpt lat="42.32532" lon="8.86059">
        <ele>1878.8</ele>
        <time>2015-06-27T15:10:01Z</time>
      </trkpt>
      <trkpt lat="42.32536" lon="8.86059">
        <ele>1879.4</ele>
        <time>2015-06-27T15:10:07Z</time>
      </trkpt>
      <trkpt lat="42.32542" lon="8.86058">
        <ele>1880.6</ele>
        <time>2015-06-27T15:10:15Z</time>
      </trkpt>
      <trkpt lat="42.32548" lon="8.86059">
        <ele>1881.8</ele>
        <time>2015-06-27T15:10:23Z</time>
      </trkpt>
      <trkpt lat="42.32557" lon="8.86058">
        <ele>1883.2</ele>
        <time>2015-06-27T15:10:33Z</time>
      </trkpt>
      <trkpt lat="42.32572" lon="8.86059">
        <ele>1884.2</ele>
        <time>2015-06-27T15:10:49Z</time>
      </trkpt>
      <trkpt lat="42.3258" lon="8.86059">
        <ele>1884.4</ele>
        <time>2015-06-27T15:10:57Z</time>
      </trkpt>
      <trkpt lat="42.32584" lon="8.86058">
        <ele>1884.6</ele>
        <time>2015-06-27T15:11:00Z</time>
      </trkpt>
      <trkpt lat="42.32586" lon="8.86058">
        <ele>1884.8</ele>
        <time>2015-06-27T15:11:02Z</time>
      </trkpt>
      <trkpt lat="42.32589" lon="8.86059">
        <ele>1885</ele>
        <time>2015-06-27T15:11:06Z</time>
      </trkpt>
      <trkpt lat="42.32592" lon="8.86061">
        <ele>1885</ele>
        <time>2015-06-27T15:11:10Z</time>
      </trkpt>
      <trkpt lat="42.32598" lon="8.86064">
        <ele>1887</ele>
        <time>2015-06-27T15:11:18Z</time>
      </trkpt>
      <trkpt lat="42.32604" lon="8.86067">
        <ele>1888.2</ele>
        <time>2015-06-27T15:11:28Z</time>
      </trkpt>
      <trkpt lat="42.32609" lon="8.86069">
        <ele>1889</ele>
        <time>2015-06-27T15:11:35Z</time>
      </trkpt>
      <trkpt lat="42.32614" lon="8.86072">
        <ele>1890</ele>
        <time>2015-06-27T15:11:44Z</time>
      </trkpt>
      <trkpt lat="42.32618" lon="8.86076">
        <ele>1891.4</ele>
        <time>2015-06-27T15:11:54Z</time>
      </trkpt>
      <trkpt lat="42.32627" lon="8.86081">
        <ele>1892.6</ele>
        <time>2015-06-27T15:12:11Z</time>
      </trkpt>
      <trkpt lat="42.32635" lon="8.8608">
        <ele>1893.2</ele>
        <time>2015-06-27T15:12:21Z</time>
      </trkpt>
      <trkpt lat="42.3264" lon="8.86077">
        <ele>1894</ele>
        <time>2015-06-27T15:12:30Z</time>
      </trkpt>
      <trkpt lat="42.32644" lon="8.86074">
        <ele>1894.8</ele>
        <time>2015-06-27T15:12:36Z</time>
      </trkpt>
      <trkpt lat="42.32645" lon="8.86073">
        <ele>1895</ele>
        <time>2015-06-27T15:12:37Z</time>
      </trkpt>
      <trkpt lat="42.32648" lon="8.86071">
        <ele>1896.2</ele>
        <time>2015-06-27T15:12:43Z</time>
      </trkpt>
      <trkpt lat="42.3265" lon="8.86071">
        <ele>1896.6</ele>
        <time>2015-06-27T15:12:47Z</time>
      </trkpt>
      <trkpt lat="42.32655" lon="8.86075">
        <ele>1898.4</ele>
        <time>2015-06-27T15:12:58Z</time>
      </trkpt>
      <trkpt lat="42.32662" lon="8.86072">
        <ele>1899.4</ele>
        <time>2015-06-27T15:13:10Z</time>
      </trkpt>
      <trkpt lat="42.32665" lon="8.86074">
        <ele>1899.8</ele>
        <time>2015-06-27T15:13:15Z</time>
      </trkpt>
      <trkpt lat="42.3267" lon="8.86074">
        <ele>1901</ele>
        <time>2015-06-27T15:13:22Z</time>
      </trkpt>
      <trkpt lat="42.32674" lon="8.86074">
        <ele>1901.6</ele>
        <time>2015-06-27T15:13:27Z</time>
      </trkpt>
      <trkpt lat="42.32679" lon="8.86075">
        <ele>1903.4</ele>
        <time>2015-06-27T15:13:36Z</time>
      </trkpt>
      <trkpt lat="42.32682" lon="8.86076">
        <ele>1904.2</ele>
        <time>2015-06-27T15:13:42Z</time>
      </trkpt>
      <trkpt lat="42.32686" lon="8.86077">
        <ele>1905.2</ele>
        <time>2015-06-27T15:13:49Z</time>
      </trkpt>
      <trkpt lat="42.32692" lon="8.86076">
        <ele>1906.2</ele>
        <time>2015-06-27T15:13:59Z</time>
      </trkpt>
      <trkpt lat="42.32694" lon="8.8608">
        <ele>1907.4</ele>
        <time>2015-06-27T15:14:06Z</time>
      </trkpt>
      <trkpt lat="42.32697" lon="8.8608">
        <ele>1908.4</ele>
        <time>2015-06-27T15:14:14Z</time>
      </trkpt>
      <trkpt lat="42.327" lon="8.86079">
        <ele>1909.4</ele>
        <time>2015-06-27T15:14:23Z</time>
      </trkpt>
      <trkpt lat="42.32703" lon="8.86085">
        <ele>1911</ele>
        <time>2015-06-27T15:14:33Z</time>
      </trkpt>
      <trkpt lat="42.3271" lon="8.8609">
        <ele>1911.6</ele>
        <time>2015-06-27T15:14:44Z</time>
      </trkpt>
      <trkpt lat="42.32715" lon="8.86094">
        <ele>1912.8</ele>
        <time>2015-06-27T15:14:52Z</time>
      </trkpt>
      <trkpt lat="42.3272" lon="8.86098">
        <ele>1913.6</ele>
        <time>2015-06-27T15:14:59Z</time>
      </trkpt>
      <trkpt lat="42.32724" lon="8.86101">
        <ele>1914.4</ele>
        <time>2015-06-27T15:15:09Z</time>
      </trkpt>
      <trkpt lat="42.32727" lon="8.86103">
        <ele>1915.6</ele>
        <time>2015-06-27T15:15:15Z</time>
      </trkpt>
      <trkpt lat="42.32729" lon="8.86104">
        <ele>1915.6</ele>
        <time>2015-06-27T15:15:18Z</time>
      </trkpt>
      <trkpt lat="42.32733" lon="8.86106">
        <ele>1917.8</ele>
        <time>2015-06-27T15:15:27Z</time>
      </trkpt>
      <trkpt lat="42.32739" lon="8.86108">
        <ele>1918.6</ele>
        <time>2015-06-27T15:15:35Z</time>
      </trkpt>
      <trkpt lat="42.32745" lon="8.86106">
        <ele>1919.8</ele>
        <time>2015-06-27T15:15:48Z</time>
      </trkpt>
      <trkpt lat="42.32748" lon="8.86106">
        <ele>1920.8</ele>
        <time>2015-06-27T15:15:55Z</time>
      </trkpt>
      <trkpt lat="42.32751" lon="8.86109">
        <ele>1921.6</ele>
        <time>2015-06-27T15:16:03Z</time>
      </trkpt>
      <trkpt lat="42.32754" lon="8.86112">
        <ele>1922.6</ele>
        <time>2015-06-27T15:16:09Z</time>
      </trkpt>
      <trkpt lat="42.32758" lon="8.86117">
        <ele>1924</ele>
        <time>2015-06-27T15:16:19Z</time>
      </trkpt>
      <trkpt lat="42.32765" lon="8.86122">
        <ele>1924.8</ele>
        <time>2015-06-27T15:16:30Z</time>
      </trkpt>
      <trkpt lat="42.32769" lon="8.86127">
        <ele>1926</ele>
        <time>2015-06-27T15:16:38Z</time>
      </trkpt>
      <trkpt lat="42.32775" lon="8.86133">
        <ele>1927.2</ele>
        <time>2015-06-27T15:16:50Z</time>
      </trkpt>
      <trkpt lat="42.32779" lon="8.86136">
        <ele>1928</ele>
        <time>2015-06-27T15:16:59Z</time>
      </trkpt>
      <trkpt lat="42.3278" lon="8.86138">
        <ele>1928.4</ele>
        <time>2015-06-27T15:17:04Z</time>
      </trkpt>
      <trkpt lat="42.32784" lon="8.8614">
        <ele>1930</ele>
        <time>2015-06-27T15:17:11Z</time>
      </trkpt>
      <trkpt lat="42.32787" lon="8.86142">
        <ele>1930.6</ele>
        <time>2015-06-27T15:17:16Z</time>
      </trkpt>
      <trkpt lat="42.32788" lon="8.86145">
        <ele>1931.4</ele>
        <time>2015-06-27T15:17:20Z</time>
      </trkpt>
      <trkpt lat="42.3279" lon="8.86146">
        <ele>1932.6</ele>
        <time>2015-06-27T15:17:24Z</time>
      </trkpt>
      <trkpt lat="42.32794" lon="8.86148">
        <ele>1934.2</ele>
        <time>2015-06-27T15:17:30Z</time>
      </trkpt>
      <trkpt lat="42.32803" lon="8.86152">
        <ele>1936</ele>
        <time>2015-06-27T15:17:45Z</time>
      </trkpt>
      <trkpt lat="42.32809" lon="8.86152">
        <ele>1936.4</ele>
        <time>2015-06-27T15:17:54Z</time>
      </trkpt>
      <trkpt lat="42.32814" lon="8.86157">
        <ele>1938</ele>
        <time>2015-06-27T15:18:04Z</time>
      </trkpt>
      <trkpt lat="42.3282" lon="8.86163">
        <ele>1939</ele>
        <time>2015-06-27T15:18:19Z</time>
      </trkpt>
      <trkpt lat="42.32826" lon="8.86166">
        <ele>1939.8</ele>
        <time>2015-06-27T15:18:30Z</time>
      </trkpt>
      <trkpt lat="42.32832" lon="8.86165">
        <ele>1940.6</ele>
        <time>2015-06-27T15:18:40Z</time>
      </trkpt>
      <trkpt lat="42.32837" lon="8.86166">
        <ele>1941.6</ele>
        <time>2015-06-27T15:18:48Z</time>
      </trkpt>
      <trkpt lat="42.32841" lon="8.86166">
        <ele>1942.4</ele>
        <time>2015-06-27T15:18:54Z</time>
      </trkpt>
      <trkpt lat="42.32845" lon="8.86166">
        <ele>1943.4</ele>
        <time>2015-06-27T15:19:01Z</time>
      </trkpt>
      <trkpt lat="42.32849" lon="8.86169">
        <ele>1944.8</ele>
        <time>2015-06-27T15:19:11Z</time>
      </trkpt>
      <trkpt lat="42.32853" lon="8.86172">
        <ele>1945.6</ele>
        <time>2015-06-27T15:19:18Z</time>
      </trkpt>
      <trkpt lat="42.32859" lon="8.86172">
        <ele>1946.6</ele>
        <time>2015-06-27T15:19:25Z</time>
      </trkpt>
      <trkpt lat="42.32863" lon="8.86173">
        <ele>1947.8</ele>
        <time>2015-06-27T15:19:33Z</time>
      </trkpt>
      <trkpt lat="42.32872" lon="8.86172">
        <ele>1948.6</ele>
        <time>2015-06-27T15:19:43Z</time>
      </trkpt>
      <trkpt lat="42.32879" lon="8.8617">
        <ele>1949.8</ele>
        <time>2015-06-27T15:19:54Z</time>
      </trkpt>
      <trkpt lat="42.32884" lon="8.8617">
        <ele>1950.6</ele>
        <time>2015-06-27T15:20:00Z</time>
      </trkpt>
      <trkpt lat="42.32891" lon="8.86171">
        <ele>1951</ele>
        <time>2015-06-27T15:21:00Z</time>
      </trkpt>
      <trkpt lat="42.32898" lon="8.8617">
        <ele>1949.4</ele>
        <time>2015-06-27T15:21:08Z</time>
      </trkpt>
      <trkpt lat="42.32906" lon="8.86173">
        <ele>1948.4</ele>
        <time>2015-06-27T15:21:17Z</time>
      </trkpt>
      <trkpt lat="42.3292" lon="8.8617">
        <ele>1947.4</ele>
        <time>2015-06-27T15:21:29Z</time>
      </trkpt>
      <trkpt lat="42.3293" lon="8.86168">
        <ele>1946</ele>
        <time>2015-06-27T15:21:38Z</time>
      </trkpt>
      <trkpt lat="42.32944" lon="8.86171">
        <ele>1944.6</ele>
        <time>2015-06-27T15:21:50Z</time>
      </trkpt>
      <trkpt lat="42.32955" lon="8.86171">
        <ele>1943.4</ele>
        <time>2015-06-27T15:22:00Z</time>
      </trkpt>
      <trkpt lat="42.32961" lon="8.86169">
        <ele>1943</ele>
        <time>2015-06-27T15:22:06Z</time>
      </trkpt>
      <trkpt lat="42.32972" lon="8.86169">
        <ele>1941.4</ele>
        <time>2015-06-27T15:22:15Z</time>
      </trkpt>
      <trkpt lat="42.32979" lon="8.86168">
        <ele>1940.6</ele>
        <time>2015-06-27T15:22:20Z</time>
      </trkpt>
      <trkpt lat="42.32991" lon="8.86166">
        <ele>1939.4</ele>
        <time>2015-06-27T15:22:30Z</time>
      </trkpt>
      <trkpt lat="42.32999" lon="8.86164">
        <ele>1939.2</ele>
        <time>2015-06-27T15:22:36Z</time>
      </trkpt>
      <trkpt lat="42.33011" lon="8.8616">
        <ele>1939.2</ele>
        <time>2015-06-27T15:22:47Z</time>
      </trkpt>
      <trkpt lat="42.33019" lon="8.86159">
        <ele>1939.6</ele>
        <time>2015-06-27T15:22:56Z</time>
      </trkpt>
      <trkpt lat="42.3302" lon="8.8616">
        <ele>1939.6</ele>
        <time>2015-06-27T15:22:57Z</time>
      </trkpt>
      <trkpt lat="42.33022" lon="8.86161">
        <ele>1939.8</ele>
        <time>2015-06-27T15:22:59Z</time>
      </trkpt>
      <trkpt lat="42.33029" lon="8.86163">
        <ele>1940.4</ele>
        <time>2015-06-27T15:23:07Z</time>
      </trkpt>
      <trkpt lat="42.33036" lon="8.86164">
        <ele>1941.8</ele>
        <time>2015-06-27T15:23:16Z</time>
      </trkpt>
      <trkpt lat="42.33042" lon="8.86165">
        <ele>1942.8</ele>
        <time>2015-06-27T15:23:24Z</time>
      </trkpt>
      <trkpt lat="42.33047" lon="8.86167">
        <ele>1943.8</ele>
        <time>2015-06-27T15:23:32Z</time>
      </trkpt>
      <trkpt lat="42.33054" lon="8.86171">
        <ele>1944.8</ele>
        <time>2015-06-27T15:23:42Z</time>
      </trkpt>
      <trkpt lat="42.33064" lon="8.86176">
        <ele>1946.2</ele>
        <time>2015-06-27T15:23:53Z</time>
      </trkpt>
      <trkpt lat="42.33076" lon="8.86177">
        <ele>1947</ele>
        <time>2015-06-27T15:24:05Z</time>
      </trkpt>
      <trkpt lat="42.33086" lon="8.86177">
        <ele>1948.2</ele>
        <time>2015-06-27T15:24:17Z</time>
      </trkpt>
      <trkpt lat="42.33094" lon="8.86179">
        <ele>1949</ele>
        <time>2015-06-27T15:24:27Z</time>
      </trkpt>
      <trkpt lat="42.331" lon="8.86189">
        <ele>1950.2</ele>
        <time>2015-06-27T15:24:40Z</time>
      </trkpt>
      <trkpt lat="42.33106" lon="8.86194">
        <ele>1951</ele>
        <time>2015-06-27T15:24:50Z</time>
      </trkpt>
      <trkpt lat="42.3311" lon="8.86202">
        <ele>1951.8</ele>
        <time>2015-06-27T15:24:57Z</time>
      </trkpt>
      <trkpt lat="42.33121" lon="8.86215">
        <ele>1953.4</ele>
        <time>2015-06-27T15:25:13Z</time>
      </trkpt>
      <trkpt lat="42.3313" lon="8.86219">
        <ele>1954.4</ele>
        <time>2015-06-27T15:25:27Z</time>
      </trkpt>
      <trkpt lat="42.33138" lon="8.86223">
        <ele>1955.4</ele>
        <time>2015-06-27T15:25:38Z</time>
      </trkpt>
      <trkpt lat="42.33142" lon="8.86225">
        <ele>1956</ele>
        <time>2015-06-27T15:25:45Z</time>
      </trkpt>
      <trkpt lat="42.33146" lon="8.86231">
        <ele>1957.4</ele>
        <time>2015-06-27T15:25:53Z</time>
      </trkpt>
      <trkpt lat="42.33153" lon="8.86238">
        <ele>1958.4</ele>
        <time>2015-06-27T15:26:04Z</time>
      </trkpt>
      <trkpt lat="42.3316" lon="8.86244">
        <ele>1959.6</ele>
        <time>2015-06-27T15:26:14Z</time>
      </trkpt>
      <trkpt lat="42.33166" lon="8.86253">
        <ele>1960.6</ele>
        <time>2015-06-27T15:26:25Z</time>
      </trkpt>
      <trkpt lat="42.33172" lon="8.86258">
        <ele>1961.6</ele>
        <time>2015-06-27T15:26:35Z</time>
      </trkpt>
      <trkpt lat="42.33176" lon="8.86261">
        <ele>1962.6</ele>
        <time>2015-06-27T15:26:43Z</time>
      </trkpt>
      <trkpt lat="42.33185" lon="8.86273">
        <ele>1964</ele>
        <time>2015-06-27T15:26:59Z</time>
      </trkpt>
      <trkpt lat="42.3319" lon="8.86282">
        <ele>1965</ele>
        <time>2015-06-27T15:27:09Z</time>
      </trkpt>
      <trkpt lat="42.33196" lon="8.86288">
        <ele>1965.8</ele>
        <time>2015-06-27T15:27:19Z</time>
      </trkpt>
      <trkpt lat="42.33198" lon="8.86289">
        <ele>1965.8</ele>
        <time>2015-06-27T15:27:21Z</time>
      </trkpt>
      <trkpt lat="42.33204" lon="8.86294">
        <ele>1966.8</ele>
        <time>2015-06-27T15:27:31Z</time>
      </trkpt>
      <trkpt lat="42.33209" lon="8.86297">
        <ele>1967.8</ele>
        <time>2015-06-27T15:27:38Z</time>
      </trkpt>
      <trkpt lat="42.33213" lon="8.86302">
        <ele>1969</ele>
        <time>2015-06-27T15:27:48Z</time>
      </trkpt>
      <trkpt lat="42.33217" lon="8.86306">
        <ele>1970</ele>
        <time>2015-06-27T15:27:56Z</time>
      </trkpt>
      <trkpt lat="42.33224" lon="8.86314">
        <ele>1971.2</ele>
        <time>2015-06-27T15:28:08Z</time>
      </trkpt>
      <trkpt lat="42.33232" lon="8.8632">
        <ele>1972.2</ele>
        <time>2015-06-27T15:28:21Z</time>
      </trkpt>
      <trkpt lat="42.33236" lon="8.86322">
        <ele>1972.8</ele>
        <time>2015-06-27T15:28:27Z</time>
      </trkpt>
      <trkpt lat="42.33238" lon="8.86326">
        <ele>1973.6</ele>
        <time>2015-06-27T15:28:32Z</time>
      </trkpt>
      <trkpt lat="42.33245" lon="8.86331">
        <ele>1975.2</ele>
        <time>2015-06-27T15:28:43Z</time>
      </trkpt>
      <trkpt lat="42.33251" lon="8.86333">
        <ele>1976.2</ele>
        <time>2015-06-27T15:28:51Z</time>
      </trkpt>
      <trkpt lat="42.33255" lon="8.86337">
        <ele>1977.2</ele>
        <time>2015-06-27T15:28:58Z</time>
      </trkpt>
      <trkpt lat="42.33259" lon="8.8634">
        <ele>1978.2</ele>
        <time>2015-06-27T15:29:07Z</time>
      </trkpt>
      <trkpt lat="42.33264" lon="8.86343">
        <ele>1979.2</ele>
        <time>2015-06-27T15:29:16Z</time>
      </trkpt>
      <trkpt lat="42.3327" lon="8.86346">
        <ele>1980</ele>
        <time>2015-06-27T15:29:24Z</time>
      </trkpt>
      <trkpt lat="42.33279" lon="8.86356">
        <ele>1981.4</ele>
        <time>2015-06-27T15:29:39Z</time>
      </trkpt>
      <trkpt lat="42.33286" lon="8.86361">
        <ele>1982.4</ele>
        <time>2015-06-27T15:29:48Z</time>
      </trkpt>
      <trkpt lat="42.33298" lon="8.86371">
        <ele>1983.4</ele>
        <time>2015-06-27T15:30:45Z</time>
      </trkpt>
      <trkpt lat="42.33309" lon="8.86383">
        <ele>1984.4</ele>
        <time>2015-06-27T15:31:02Z</time>
      </trkpt>
      <trkpt lat="42.33316" lon="8.86386">
        <ele>1984.8</ele>
        <time>2015-06-27T15:31:11Z</time>
      </trkpt>
      <trkpt lat="42.33322" lon="8.86391">
        <ele>1985.8</ele>
        <time>2015-06-27T15:31:19Z</time>
      </trkpt>
      <trkpt lat="42.33332" lon="8.8641">
        <ele>1987.4</ele>
        <time>2015-06-27T15:31:38Z</time>
      </trkpt>
      <trkpt lat="42.33358" lon="8.86458">
        <ele>1988.2</ele>
        <time>2015-06-27T15:32:30Z</time>
      </trkpt>
      <trkpt lat="42.33374" lon="8.86484">
        <ele>1988.2</ele>
        <time>2015-06-27T15:33:02Z</time>
      </trkpt>
      <trkpt lat="42.33396" lon="8.86538">
        <ele>1988</ele>
        <time>2015-06-27T15:33:43Z</time>
      </trkpt>
      <trkpt lat="42.33416" lon="8.86576">
        <ele>1987.8</ele>
        <time>2015-06-27T15:34:30Z</time>
      </trkpt>
      <trkpt lat="42.33419" lon="8.86583">
        <ele>1986.6</ele>
        <time>2015-06-27T15:34:38Z</time>
      </trkpt>
      <trkpt lat="42.33435" lon="8.86612">
        <ele>1986.2</ele>
        <time>2015-06-27T15:35:13Z</time>
      </trkpt>
      <trkpt lat="42.33438" lon="8.86621">
        <ele>1987.6</ele>
        <time>2015-06-27T15:35:23Z</time>
      </trkpt>
      <trkpt lat="42.33454" lon="8.86677">
        <ele>1988.2</ele>
        <time>2015-06-27T15:36:07Z</time>
      </trkpt>
      <trkpt lat="42.33456" lon="8.86687">
        <ele>1988.8</ele>
        <time>2015-06-27T15:36:14Z</time>
      </trkpt>
      <trkpt lat="42.33457" lon="8.86696">
        <ele>1989.2</ele>
        <time>2015-06-27T15:36:22Z</time>
      </trkpt>
      <trkpt lat="42.33457" lon="8.86697">
        <ele>1989.2</ele>
        <time>2015-06-27T15:36:23Z</time>
      </trkpt>
      <trkpt lat="42.33457" lon="8.86701">
        <ele>1989.6</ele>
        <time>2015-06-27T15:36:26Z</time>
      </trkpt>
      <trkpt lat="42.33457" lon="8.86709">
        <ele>1990.4</ele>
        <time>2015-06-27T15:36:33Z</time>
      </trkpt>
      <trkpt lat="42.33457" lon="8.86715">
        <ele>1991.2</ele>
        <time>2015-06-27T15:36:40Z</time>
      </trkpt>
      <trkpt lat="42.33467" lon="8.86742">
        <ele>1992.6</ele>
        <time>2015-06-27T15:37:06Z</time>
      </trkpt>
      <trkpt lat="42.33472" lon="8.86747">
        <ele>1992.6</ele>
        <time>2015-06-27T15:37:28Z</time>
      </trkpt>
      <trkpt lat="42.33491" lon="8.86796">
        <ele>1993.4</ele>
        <time>2015-06-27T15:38:23Z</time>
      </trkpt>
      <trkpt lat="42.33493" lon="8.86804">
        <ele>1994.6</ele>
        <time>2015-06-27T15:39:01Z</time>
      </trkpt>
      <trkpt lat="42.33492" lon="8.8681">
        <ele>1994</ele>
        <time>2015-06-27T15:39:18Z</time>
      </trkpt>
    </trkseg>
  </trk>
  <trk>
    <name><![CDATA[GR20 Ciottulu à i Mori - Tighjettu]]></name>
    <trkseg>
      <trkpt lat="42.33497" lon="8.8681">
        <ele>1997</ele>
        <time>2015-06-28T04:47:35Z</time>
      </trkpt>
      <trkpt lat="42.33498" lon="8.86822">
        <ele>1997</ele>
        <time>2015-06-28T04:50:31Z</time>
      </trkpt>
      <trkpt lat="42.335" lon="8.86831">
        <ele>1995</ele>
        <time>2015-06-28T04:51:28Z</time>
      </trkpt>
      <trkpt lat="42.335" lon="8.86832">
        <ele>1994.4</ele>
        <time>2015-06-28T04:51:35Z</time>
      </trkpt>
      <trkpt lat="42.33503" lon="8.86834">
        <ele>1993.8</ele>
        <time>2015-06-28T04:52:28Z</time>
      </trkpt>
      <trkpt lat="42.33515" lon="8.86833">
        <ele>1993.8</ele>
        <time>2015-06-28T04:52:46Z</time>
      </trkpt>
      <trkpt lat="42.33523" lon="8.86834">
        <ele>1992.8</ele>
        <time>2015-06-28T04:52:55Z</time>
      </trkpt>
      <trkpt lat="42.33528" lon="8.86839">
        <ele>1992</ele>
        <time>2015-06-28T04:53:02Z</time>
      </trkpt>
      <trkpt lat="42.33533" lon="8.86848">
        <ele>1990.6</ele>
        <time>2015-06-28T04:53:17Z</time>
      </trkpt>
      <trkpt lat="42.33532" lon="8.86849">
        <ele>1990.4</ele>
        <time>2015-06-28T04:53:19Z</time>
      </trkpt>
      <trkpt lat="42.33534" lon="8.86855">
        <ele>1989.6</ele>
        <time>2015-06-28T04:53:26Z</time>
      </trkpt>
      <trkpt lat="42.33538" lon="8.86864">
        <ele>1988.8</ele>
        <time>2015-06-28T04:53:35Z</time>
      </trkpt>
      <trkpt lat="42.33551" lon="8.86894">
        <ele>1987.8</ele>
        <time>2015-06-28T04:54:01Z</time>
      </trkpt>
      <trkpt lat="42.33554" lon="8.86901">
        <ele>1987.6</ele>
        <time>2015-06-28T04:54:09Z</time>
      </trkpt>
      <trkpt lat="42.33554" lon="8.86903">
        <ele>1987.6</ele>
        <time>2015-06-28T04:54:11Z</time>
      </trkpt>
      <trkpt lat="42.33553" lon="8.86905">
        <ele>1987.8</ele>
        <time>2015-06-28T04:54:14Z</time>
      </trkpt>
      <trkpt lat="42.33549" lon="8.86928">
        <ele>1989</ele>
        <time>2015-06-28T04:54:38Z</time>
      </trkpt>
      <trkpt lat="42.33549" lon="8.86958">
        <ele>1990</ele>
        <time>2015-06-28T04:55:03Z</time>
      </trkpt>
      <trkpt lat="42.33547" lon="8.86982">
        <ele>1991</ele>
        <time>2015-06-28T04:55:24Z</time>
      </trkpt>
      <trkpt lat="42.33545" lon="8.86996">
        <ele>1991.6</ele>
        <time>2015-06-28T04:55:38Z</time>
      </trkpt>
      <trkpt lat="42.33543" lon="8.87003">
        <ele>1992.4</ele>
        <time>2015-06-28T04:55:46Z</time>
      </trkpt>
      <trkpt lat="42.33543" lon="8.8701">
        <ele>1993.6</ele>
        <time>2015-06-28T04:55:55Z</time>
      </trkpt>
      <trkpt lat="42.33544" lon="8.8702">
        <ele>1995</ele>
        <time>2015-06-28T04:56:07Z</time>
      </trkpt>
      <trkpt lat="42.33542" lon="8.87034">
        <ele>1996.2</ele>
        <time>2015-06-28T04:56:23Z</time>
      </trkpt>
      <trkpt lat="42.33538" lon="8.87041">
        <ele>1997.4</ele>
        <time>2015-06-28T04:56:33Z</time>
      </trkpt>
      <trkpt lat="42.33526" lon="8.87072">
        <ele>1998</ele>
        <time>2015-06-28T04:57:12Z</time>
      </trkpt>
      <trkpt lat="42.33525" lon="8.87075">
        <ele>1999</ele>
        <time>2015-06-28T04:57:19Z</time>
      </trkpt>
      <trkpt lat="42.33527" lon="8.87078">
        <ele>2000</ele>
        <time>2015-06-28T04:57:25Z</time>
      </trkpt>
      <trkpt lat="42.33526" lon="8.87081">
        <ele>2001</ele>
        <time>2015-06-28T04:57:32Z</time>
      </trkpt>
      <trkpt lat="42.33526" lon="8.8708">
        <ele>2001.4</ele>
        <time>2015-06-28T04:57:36Z</time>
      </trkpt>
      <trkpt lat="42.33522" lon="8.87086">
        <ele>2002.4</ele>
        <time>2015-06-28T04:57:50Z</time>
      </trkpt>
      <trkpt lat="42.33521" lon="8.8709">
        <ele>2003.4</ele>
        <time>2015-06-28T04:57:57Z</time>
      </trkpt>
      <trkpt lat="42.33521" lon="8.87092">
        <ele>2004.4</ele>
        <time>2015-06-28T04:58:04Z</time>
      </trkpt>
      <trkpt lat="42.33519" lon="8.87099">
        <ele>2005.4</ele>
        <time>2015-06-28T04:58:13Z</time>
      </trkpt>
      <trkpt lat="42.33515" lon="8.8711">
        <ele>2006.8</ele>
        <time>2015-06-28T04:58:27Z</time>
      </trkpt>
      <trkpt lat="42.33514" lon="8.87116">
        <ele>2007.8</ele>
        <time>2015-06-28T04:58:36Z</time>
      </trkpt>
      <trkpt lat="42.33513" lon="8.87122">
        <ele>2008.8</ele>
        <time>2015-06-28T04:58:44Z</time>
      </trkpt>
      <trkpt lat="42.33512" lon="8.87128">
        <ele>2009.8</ele>
        <time>2015-06-28T04:58:52Z</time>
      </trkpt>
      <trkpt lat="42.33513" lon="8.87134">
        <ele>2011</ele>
        <time>2015-06-28T04:59:01Z</time>
      </trkpt>
      <trkpt lat="42.33511" lon="8.87141">
        <ele>2012.4</ele>
        <time>2015-06-28T04:59:11Z</time>
      </trkpt>
      <trkpt lat="42.33509" lon="8.87147">
        <ele>2013.2</ele>
        <time>2015-06-28T04:59:21Z</time>
      </trkpt>
      <trkpt lat="42.33508" lon="8.87155">
        <ele>2014.6</ele>
        <time>2015-06-28T04:59:32Z</time>
      </trkpt>
      <trkpt lat="42.33502" lon="8.87163">
        <ele>2015.4</ele>
        <time>2015-06-28T04:59:55Z</time>
      </trkpt>
      <trkpt lat="42.33504" lon="8.8717">
        <ele>2016.4</ele>
        <time>2015-06-28T05:00:15Z</time>
      </trkpt>
      <trkpt lat="42.33506" lon="8.87171">
        <ele>2017.4</ele>
        <time>2015-06-28T05:00:23Z</time>
      </trkpt>
      <trkpt lat="42.33508" lon="8.87173">
        <ele>2018.6</ele>
        <time>2015-06-28T05:00:31Z</time>
      </trkpt>
      <trkpt lat="42.33508" lon="8.87176">
        <ele>2019.2</ele>
        <time>2015-06-28T05:00:38Z</time>
      </trkpt>
      <trkpt lat="42.33506" lon="8.87179">
        <ele>2020.2</ele>
        <time>2015-06-28T05:00:43Z</time>
      </trkpt>
      <trkpt lat="42.33503" lon="8.8718">
        <ele>2021.8</ele>
        <time>2015-06-28T05:00:51Z</time>
      </trkpt>
      <trkpt lat="42.33504" lon="8.87184">
        <ele>2023</ele>
        <time>2015-06-28T05:01:02Z</time>
      </trkpt>
      <trkpt lat="42.33506" lon="8.87193">
        <ele>2024</ele>
        <time>2015-06-28T05:01:44Z</time>
      </trkpt>
      <trkpt lat="42.33503" lon="8.87202">
        <ele>2024</ele>
        <time>2015-06-28T05:01:53Z</time>
      </trkpt>
      <trkpt lat="42.33498" lon="8.87234">
        <ele>2024</ele>
        <time>2015-06-28T05:02:26Z</time>
      </trkpt>
      <trkpt lat="42.33492" lon="8.87256">
        <ele>2024.6</ele>
        <time>2015-06-28T05:02:45Z</time>
      </trkpt>
      <trkpt lat="42.33492" lon="8.87258">
        <ele>2024.2</ele>
        <time>2015-06-28T05:02:47Z</time>
      </trkpt>
      <trkpt lat="42.33489" lon="8.87264">
        <ele>2023.4</ele>
        <time>2015-06-28T05:02:55Z</time>
      </trkpt>
      <trkpt lat="42.33483" lon="8.87282">
        <ele>2022</ele>
        <time>2015-06-28T05:03:15Z</time>
      </trkpt>
      <trkpt lat="42.3348" lon="8.87291">
        <ele>2022</ele>
        <time>2015-06-28T05:03:24Z</time>
      </trkpt>
      <trkpt lat="42.33474" lon="8.87299">
        <ele>2021.8</ele>
        <time>2015-06-28T05:03:38Z</time>
      </trkpt>
      <trkpt lat="42.33475" lon="8.87303">
        <ele>2022.6</ele>
        <time>2015-06-28T05:03:44Z</time>
      </trkpt>
      <trkpt lat="42.33475" lon="8.87307">
        <ele>2023.8</ele>
        <time>2015-06-28T05:03:51Z</time>
      </trkpt>
      <trkpt lat="42.33475" lon="8.87311">
        <ele>2024.8</ele>
        <time>2015-06-28T05:03:58Z</time>
      </trkpt>
      <trkpt lat="42.33475" lon="8.87313">
        <ele>2025.8</ele>
        <time>2015-06-28T05:04:05Z</time>
      </trkpt>
      <trkpt lat="42.33473" lon="8.87314">
        <ele>2027</ele>
        <time>2015-06-28T05:04:13Z</time>
      </trkpt>
      <trkpt lat="42.33471" lon="8.87317">
        <ele>2028.2</ele>
        <time>2015-06-28T05:04:21Z</time>
      </trkpt>
      <trkpt lat="42.33472" lon="8.87321">
        <ele>2029</ele>
        <time>2015-06-28T05:04:29Z</time>
      </trkpt>
      <trkpt lat="42.33471" lon="8.87325">
        <ele>2030</ele>
        <time>2015-06-28T05:04:35Z</time>
      </trkpt>
      <trkpt lat="42.33471" lon="8.87329">
        <ele>2031.2</ele>
        <time>2015-06-28T05:04:41Z</time>
      </trkpt>
      <trkpt lat="42.33474" lon="8.87333">
        <ele>2032.8</ele>
        <time>2015-06-28T05:04:51Z</time>
      </trkpt>
      <trkpt lat="42.33472" lon="8.87337">
        <ele>2033.6</ele>
        <time>2015-06-28T05:04:59Z</time>
      </trkpt>
      <trkpt lat="42.33471" lon="8.87342">
        <ele>2034.6</ele>
        <time>2015-06-28T05:05:07Z</time>
      </trkpt>
      <trkpt lat="42.33469" lon="8.87349">
        <ele>2036</ele>
        <time>2015-06-28T05:05:17Z</time>
      </trkpt>
      <trkpt lat="42.33466" lon="8.87355">
        <ele>2037.2</ele>
        <time>2015-06-28T05:05:27Z</time>
      </trkpt>
      <trkpt lat="42.33464" lon="8.87361">
        <ele>2038</ele>
        <time>2015-06-28T05:05:37Z</time>
      </trkpt>
      <trkpt lat="42.33458" lon="8.87368">
        <ele>2039</ele>
        <time>2015-06-28T05:06:32Z</time>
      </trkpt>
      <trkpt lat="42.33452" lon="8.87376">
        <ele>2038.2</ele>
        <time>2015-06-28T05:06:42Z</time>
      </trkpt>
      <trkpt lat="42.3345" lon="8.87378">
        <ele>2037.6</ele>
        <time>2015-06-28T05:06:45Z</time>
      </trkpt>
      <trkpt lat="42.3345" lon="8.87383">
        <ele>2037.2</ele>
        <time>2015-06-28T05:06:49Z</time>
      </trkpt>
      <trkpt lat="42.3345" lon="8.87388">
        <ele>2036.6</ele>
        <time>2015-06-28T05:06:53Z</time>
      </trkpt>
      <trkpt lat="42.33447" lon="8.87393">
        <ele>2036.2</ele>
        <time>2015-06-28T05:06:59Z</time>
      </trkpt>
      <trkpt lat="42.33446" lon="8.87397">
        <ele>2035.8</ele>
        <time>2015-06-28T05:07:03Z</time>
      </trkpt>
      <trkpt lat="42.33442" lon="8.87403">
        <ele>2035</ele>
        <time>2015-06-28T05:07:10Z</time>
      </trkpt>
      <trkpt lat="42.3344" lon="8.8741">
        <ele>2034</ele>
        <time>2015-06-28T05:07:17Z</time>
      </trkpt>
      <trkpt lat="42.33436" lon="8.87414">
        <ele>2032.8</ele>
        <time>2015-06-28T05:07:26Z</time>
      </trkpt>
      <trkpt lat="42.33432" lon="8.87417">
        <ele>2031.8</ele>
        <time>2015-06-28T05:07:32Z</time>
      </trkpt>
      <trkpt lat="42.3343" lon="8.87422">
        <ele>2030.4</ele>
        <time>2015-06-28T05:07:40Z</time>
      </trkpt>
      <trkpt lat="42.33429" lon="8.87427">
        <ele>2029.6</ele>
        <time>2015-06-28T05:07:46Z</time>
      </trkpt>
      <trkpt lat="42.33424" lon="8.87432">
        <ele>2028.4</ele>
        <time>2015-06-28T05:07:55Z</time>
      </trkpt>
      <trkpt lat="42.33421" lon="8.87435">
        <ele>2027.2</ele>
        <time>2015-06-28T05:08:02Z</time>
      </trkpt>
      <trkpt lat="42.33418" lon="8.87444">
        <ele>2025.8</ele>
        <time>2015-06-28T05:08:11Z</time>
      </trkpt>
      <trkpt lat="42.33415" lon="8.8745">
        <ele>2025</ele>
        <time>2015-06-28T05:08:18Z</time>
      </trkpt>
      <trkpt lat="42.33414" lon="8.87451">
        <ele>2024.8</ele>
        <time>2015-06-28T05:08:20Z</time>
      </trkpt>
      <trkpt lat="42.33412" lon="8.87455">
        <ele>2023.8</ele>
        <time>2015-06-28T05:08:26Z</time>
      </trkpt>
      <trkpt lat="42.33409" lon="8.8746">
        <ele>2022.6</ele>
        <time>2015-06-28T05:08:34Z</time>
      </trkpt>
      <trkpt lat="42.33406" lon="8.87465">
        <ele>2021.6</ele>
        <time>2015-06-28T05:08:41Z</time>
      </trkpt>
      <trkpt lat="42.33403" lon="8.87467">
        <ele>2020.8</ele>
        <time>2015-06-28T05:08:47Z</time>
      </trkpt>
      <trkpt lat="42.33401" lon="8.87469">
        <ele>2019.8</ele>
        <time>2015-06-28T05:08:52Z</time>
      </trkpt>
      <trkpt lat="42.334" lon="8.87472">
        <ele>2018.8</ele>
        <time>2015-06-28T05:08:58Z</time>
      </trkpt>
      <trkpt lat="42.33397" lon="8.87476">
        <ele>2017.2</ele>
        <time>2015-06-28T05:09:09Z</time>
      </trkpt>
      <trkpt lat="42.33394" lon="8.87482">
        <ele>2016.2</ele>
        <time>2015-06-28T05:09:18Z</time>
      </trkpt>
      <trkpt lat="42.33392" lon="8.87485">
        <ele>2015.2</ele>
        <time>2015-06-28T05:09:26Z</time>
      </trkpt>
      <trkpt lat="42.3339" lon="8.87497">
        <ele>2013.8</ele>
        <time>2015-06-28T05:09:38Z</time>
      </trkpt>
      <trkpt lat="42.33387" lon="8.87504">
        <ele>2013.2</ele>
        <time>2015-06-28T05:09:44Z</time>
      </trkpt>
      <trkpt lat="42.33387" lon="8.87504">
        <ele>2013</ele>
        <time>2015-06-28T05:09:45Z</time>
      </trkpt>
      <trkpt lat="42.33386" lon="8.87509">
        <ele>2011.8</ele>
        <time>2015-06-28T05:09:51Z</time>
      </trkpt>
      <trkpt lat="42.33382" lon="8.87521">
        <ele>2010.6</ele>
        <time>2015-06-28T05:10:05Z</time>
      </trkpt>
      <trkpt lat="42.3338" lon="8.87527">
        <ele>2009.8</ele>
        <time>2015-06-28T05:10:14Z</time>
      </trkpt>
      <trkpt lat="42.3338" lon="8.87531">
        <ele>2009.6</ele>
        <time>2015-06-28T05:10:17Z</time>
      </trkpt>
      <trkpt lat="42.33378" lon="8.87535">
        <ele>2009.6</ele>
        <time>2015-06-28T05:10:21Z</time>
      </trkpt>
      <trkpt lat="42.33377" lon="8.87539">
        <ele>2009.4</ele>
        <time>2015-06-28T05:10:24Z</time>
      </trkpt>
      <trkpt lat="42.33377" lon="8.87542">
        <ele>2009</ele>
        <time>2015-06-28T05:10:27Z</time>
      </trkpt>
      <trkpt lat="42.33374" lon="8.87546">
        <ele>2008.4</ele>
        <time>2015-06-28T05:10:32Z</time>
      </trkpt>
      <trkpt lat="42.33374" lon="8.87548">
        <ele>2008.2</ele>
        <time>2015-06-28T05:10:34Z</time>
      </trkpt>
      <trkpt lat="42.33373" lon="8.87549">
        <ele>2007.8</ele>
        <time>2015-06-28T05:10:36Z</time>
      </trkpt>
      <trkpt lat="42.33369" lon="8.87554">
        <ele>2006</ele>
        <time>2015-06-28T05:10:43Z</time>
      </trkpt>
      <trkpt lat="42.33366" lon="8.87558">
        <ele>2005.2</ele>
        <time>2015-06-28T05:10:49Z</time>
      </trkpt>
      <trkpt lat="42.33364" lon="8.87557">
        <ele>2004.6</ele>
        <time>2015-06-28T05:10:53Z</time>
      </trkpt>
      <trkpt lat="42.3336" lon="8.87558">
        <ele>2002.8</ele>
        <time>2015-06-28T05:10:59Z</time>
      </trkpt>
      <trkpt lat="42.33358" lon="8.87564">
        <ele>2001.4</ele>
        <time>2015-06-28T05:11:06Z</time>
      </trkpt>
      <trkpt lat="42.33356" lon="8.8757">
        <ele>2000.6</ele>
        <time>2015-06-28T05:11:11Z</time>
      </trkpt>
      <trkpt lat="42.33356" lon="8.87572">
        <ele>2000.6</ele>
        <time>2015-06-28T05:11:12Z</time>
      </trkpt>
      <trkpt lat="42.33353" lon="8.87572">
        <ele>1999.6</ele>
        <time>2015-06-28T05:11:17Z</time>
      </trkpt>
      <trkpt lat="42.33351" lon="8.87575">
        <ele>1998.8</ele>
        <time>2015-06-28T05:11:21Z</time>
      </trkpt>
      <trkpt lat="42.33348" lon="8.87581">
        <ele>1997.2</ele>
        <time>2015-06-28T05:11:28Z</time>
      </trkpt>
      <trkpt lat="42.33346" lon="8.87585">
        <ele>1996.4</ele>
        <time>2015-06-28T05:11:33Z</time>
      </trkpt>
      <trkpt lat="42.33345" lon="8.87588">
        <ele>1995.6</ele>
        <time>2015-06-28T05:11:36Z</time>
      </trkpt>
      <trkpt lat="42.33342" lon="8.8759">
        <ele>1994</ele>
        <time>2015-06-28T05:11:42Z</time>
      </trkpt>
      <trkpt lat="42.33339" lon="8.87592">
        <ele>1992.8</ele>
        <time>2015-06-28T05:11:48Z</time>
      </trkpt>
      <trkpt lat="42.33336" lon="8.87596">
        <ele>1991.8</ele>
        <time>2015-06-28T05:11:53Z</time>
      </trkpt>
      <trkpt lat="42.33333" lon="8.876">
        <ele>1990.4</ele>
        <time>2015-06-28T05:12:00Z</time>
      </trkpt>
      <trkpt lat="42.3333" lon="8.87605">
        <ele>1989.6</ele>
        <time>2015-06-28T05:12:05Z</time>
      </trkpt>
      <trkpt lat="42.33327" lon="8.87608">
        <ele>1988.8</ele>
        <time>2015-06-28T05:12:09Z</time>
      </trkpt>
      <trkpt lat="42.33323" lon="8.87613">
        <ele>1986.8</ele>
        <time>2015-06-28T05:12:16Z</time>
      </trkpt>
      <trkpt lat="42.3332" lon="8.87616">
        <ele>1986.2</ele>
        <time>2015-06-28T05:12:21Z</time>
      </trkpt>
      <trkpt lat="42.33316" lon="8.8762">
        <ele>1984.6</ele>
        <time>2015-06-28T05:12:28Z</time>
      </trkpt>
      <trkpt lat="42.33313" lon="8.87628">
        <ele>1983.4</ele>
        <time>2015-06-28T05:12:36Z</time>
      </trkpt>
      <trkpt lat="42.3331" lon="8.87635">
        <ele>1982.8</ele>
        <time>2015-06-28T05:12:42Z</time>
      </trkpt>
      <trkpt lat="42.33309" lon="8.87636">
        <ele>1982.4</ele>
        <time>2015-06-28T05:12:43Z</time>
      </trkpt>
      <trkpt lat="42.33305" lon="8.87645">
        <ele>1981</ele>
        <time>2015-06-28T05:12:53Z</time>
      </trkpt>
      <trkpt lat="42.33302" lon="8.87646">
        <ele>1980.6</ele>
        <time>2015-06-28T05:12:56Z</time>
      </trkpt>
      <trkpt lat="42.33298" lon="8.87642">
        <ele>1979.8</ele>
        <time>2015-06-28T05:13:03Z</time>
      </trkpt>
      <trkpt lat="42.33293" lon="8.87641">
        <ele>1979.4</ele>
        <time>2015-06-28T05:13:09Z</time>
      </trkpt>
      <trkpt lat="42.33289" lon="8.87643">
        <ele>1978.8</ele>
        <time>2015-06-28T05:13:13Z</time>
      </trkpt>
      <trkpt lat="42.33284" lon="8.87644">
        <ele>1977</ele>
        <time>2015-06-28T05:13:20Z</time>
      </trkpt>
      <trkpt lat="42.33284" lon="8.87645">
        <ele>1977</ele>
        <time>2015-06-28T05:13:21Z</time>
      </trkpt>
      <trkpt lat="42.33282" lon="8.87647">
        <ele>1976.4</ele>
        <time>2015-06-28T05:13:24Z</time>
      </trkpt>
      <trkpt lat="42.33278" lon="8.87648">
        <ele>1974.8</ele>
        <time>2015-06-28T05:13:30Z</time>
      </trkpt>
      <trkpt lat="42.33272" lon="8.87648">
        <ele>1973.8</ele>
        <time>2015-06-28T05:13:37Z</time>
      </trkpt>
      <trkpt lat="42.33268" lon="8.8765">
        <ele>1973</ele>
        <time>2015-06-28T05:13:42Z</time>
      </trkpt>
      <trkpt lat="42.33267" lon="8.87653">
        <ele>1972.6</ele>
        <time>2015-06-28T05:13:44Z</time>
      </trkpt>
      <trkpt lat="42.33266" lon="8.87656">
        <ele>1972</ele>
        <time>2015-06-28T05:13:47Z</time>
      </trkpt>
      <trkpt lat="42.33256" lon="8.87659">
        <ele>1970</ele>
        <time>2015-06-28T05:13:59Z</time>
      </trkpt>
      <trkpt lat="42.33256" lon="8.87662">
        <ele>1969.6</ele>
        <time>2015-06-28T05:14:03Z</time>
      </trkpt>
      <trkpt lat="42.33255" lon="8.87667">
        <ele>1968.2</ele>
        <time>2015-06-28T05:14:08Z</time>
      </trkpt>
      <trkpt lat="42.33253" lon="8.87673">
        <ele>1966.6</ele>
        <time>2015-06-28T05:14:17Z</time>
      </trkpt>
      <trkpt lat="42.33255" lon="8.87677">
        <ele>1966</ele>
        <time>2015-06-28T05:14:24Z</time>
      </trkpt>
      <trkpt lat="42.33259" lon="8.87681">
        <ele>1964.6</ele>
        <time>2015-06-28T05:14:32Z</time>
      </trkpt>
      <trkpt lat="42.33263" lon="8.87684">
        <ele>1963.2</ele>
        <time>2015-06-28T05:14:42Z</time>
      </trkpt>
      <trkpt lat="42.33265" lon="8.87686">
        <ele>1962.8</ele>
        <time>2015-06-28T05:14:49Z</time>
      </trkpt>
      <trkpt lat="42.33267" lon="8.87685">
        <ele>1961.4</ele>
        <time>2015-06-28T05:14:56Z</time>
      </trkpt>
      <trkpt lat="42.33269" lon="8.87687">
        <ele>1960.4</ele>
        <time>2015-06-28T05:15:05Z</time>
      </trkpt>
      <trkpt lat="42.33272" lon="8.87689">
        <ele>1960</ele>
        <time>2015-06-28T05:15:09Z</time>
      </trkpt>
      <trkpt lat="42.33275" lon="8.87696">
        <ele>1958.4</ele>
        <time>2015-06-28T05:15:16Z</time>
      </trkpt>
      <trkpt lat="42.33279" lon="8.87702">
        <ele>1957</ele>
        <time>2015-06-28T05:15:24Z</time>
      </trkpt>
      <trkpt lat="42.33279" lon="8.87706">
        <ele>1956</ele>
        <time>2015-06-28T05:15:33Z</time>
      </trkpt>
      <trkpt lat="42.33279" lon="8.87707">
        <ele>1955.4</ele>
        <time>2015-06-28T05:15:39Z</time>
      </trkpt>
      <trkpt lat="42.3328" lon="8.87709">
        <ele>1953.8</ele>
        <time>2015-06-28T05:15:47Z</time>
      </trkpt>
      <trkpt lat="42.33282" lon="8.87712">
        <ele>1952.6</ele>
        <time>2015-06-28T05:16:01Z</time>
      </trkpt>
      <trkpt lat="42.3328" lon="8.87716">
        <ele>1952</ele>
        <time>2015-06-28T05:16:20Z</time>
      </trkpt>
      <trkpt lat="42.3328" lon="8.87719">
        <ele>1950.4</ele>
        <time>2015-06-28T05:16:28Z</time>
      </trkpt>
      <trkpt lat="42.33281" lon="8.87722">
        <ele>1949</ele>
        <time>2015-06-28T05:16:41Z</time>
      </trkpt>
      <trkpt lat="42.33284" lon="8.87726">
        <ele>1948</ele>
        <time>2015-06-28T05:17:01Z</time>
      </trkpt>
      <trkpt lat="42.33285" lon="8.87729">
        <ele>1947.2</ele>
        <time>2015-06-28T05:17:08Z</time>
      </trkpt>
      <trkpt lat="42.33287" lon="8.87732">
        <ele>1946.2</ele>
        <time>2015-06-28T05:17:18Z</time>
      </trkpt>
      <trkpt lat="42.33288" lon="8.87734">
        <ele>1944.8</ele>
        <time>2015-06-28T05:17:27Z</time>
      </trkpt>
      <trkpt lat="42.3329" lon="8.8774">
        <ele>1943.6</ele>
        <time>2015-06-28T05:17:44Z</time>
      </trkpt>
      <trkpt lat="42.3329" lon="8.87745">
        <ele>1942.6</ele>
        <time>2015-06-28T05:17:53Z</time>
      </trkpt>
      <trkpt lat="42.3329" lon="8.87748">
        <ele>1942</ele>
        <time>2015-06-28T05:17:59Z</time>
      </trkpt>
      <trkpt lat="42.33297" lon="8.87759">
        <ele>1940.2</ele>
        <time>2015-06-28T05:18:47Z</time>
      </trkpt>
      <trkpt lat="42.33298" lon="8.87764">
        <ele>1938.8</ele>
        <time>2015-06-28T05:19:09Z</time>
      </trkpt>
      <trkpt lat="42.33299" lon="8.87767">
        <ele>1938</ele>
        <time>2015-06-28T05:19:16Z</time>
      </trkpt>
      <trkpt lat="42.33297" lon="8.87774">
        <ele>1936.4</ele>
        <time>2015-06-28T05:19:29Z</time>
      </trkpt>
      <trkpt lat="42.33296" lon="8.87773">
        <ele>1935.8</ele>
        <time>2015-06-28T05:19:35Z</time>
      </trkpt>
      <trkpt lat="42.33292" lon="8.87773">
        <ele>1934.6</ele>
        <time>2015-06-28T05:19:41Z</time>
      </trkpt>
      <trkpt lat="42.33293" lon="8.87775">
        <ele>1933.4</ele>
        <time>2015-06-28T05:19:47Z</time>
      </trkpt>
      <trkpt lat="42.33297" lon="8.87778">
        <ele>1932</ele>
        <time>2015-06-28T05:19:54Z</time>
      </trkpt>
      <trkpt lat="42.33299" lon="8.87781">
        <ele>1931.2</ele>
        <time>2015-06-28T05:20:00Z</time>
      </trkpt>
      <trkpt lat="42.333" lon="8.87783">
        <ele>1930.8</ele>
        <time>2015-06-28T05:20:02Z</time>
      </trkpt>
      <trkpt lat="42.33302" lon="8.87785">
        <ele>1930</ele>
        <time>2015-06-28T05:20:06Z</time>
      </trkpt>
      <trkpt lat="42.33305" lon="8.87788">
        <ele>1928.8</ele>
        <time>2015-06-28T05:20:12Z</time>
      </trkpt>
      <trkpt lat="42.33307" lon="8.87793">
        <ele>1927.6</ele>
        <time>2015-06-28T05:20:20Z</time>
      </trkpt>
      <trkpt lat="42.33313" lon="8.87797">
        <ele>1926.2</ele>
        <time>2015-06-28T05:20:28Z</time>
      </trkpt>
      <trkpt lat="42.33317" lon="8.87798">
        <ele>1926</ele>
        <time>2015-06-28T05:20:33Z</time>
      </trkpt>
      <trkpt lat="42.33323" lon="8.87807">
        <ele>1924.4</ele>
        <time>2015-06-28T05:20:56Z</time>
      </trkpt>
      <trkpt lat="42.33327" lon="8.8781">
        <ele>1924.2</ele>
        <time>2015-06-28T05:21:07Z</time>
      </trkpt>
      <trkpt lat="42.3333" lon="8.8781">
        <ele>1922.6</ele>
        <time>2015-06-28T05:21:18Z</time>
      </trkpt>
      <trkpt lat="42.33331" lon="8.87812">
        <ele>1922</ele>
        <time>2015-06-28T05:21:26Z</time>
      </trkpt>
      <trkpt lat="42.33331" lon="8.87816">
        <ele>1920.4</ele>
        <time>2015-06-28T05:21:36Z</time>
      </trkpt>
      <trkpt lat="42.33333" lon="8.87815">
        <ele>1919</ele>
        <time>2015-06-28T05:21:47Z</time>
      </trkpt>
      <trkpt lat="42.33335" lon="8.87814">
        <ele>1918.2</ele>
        <time>2015-06-28T05:21:58Z</time>
      </trkpt>
      <trkpt lat="42.33338" lon="8.87812">
        <ele>1917.2</ele>
        <time>2015-06-28T05:22:08Z</time>
      </trkpt>
      <trkpt lat="42.33341" lon="8.87814">
        <ele>1916.2</ele>
        <time>2015-06-28T05:22:19Z</time>
      </trkpt>
      <trkpt lat="42.33343" lon="8.87816">
        <ele>1915</ele>
        <time>2015-06-28T05:22:27Z</time>
      </trkpt>
      <trkpt lat="42.33346" lon="8.87817">
        <ele>1914.4</ele>
        <time>2015-06-28T05:22:32Z</time>
      </trkpt>
      <trkpt lat="42.33355" lon="8.8782">
        <ele>1912.6</ele>
        <time>2015-06-28T05:22:45Z</time>
      </trkpt>
      <trkpt lat="42.33357" lon="8.87824">
        <ele>1912</ele>
        <time>2015-06-28T05:22:53Z</time>
      </trkpt>
      <trkpt lat="42.33359" lon="8.8783">
        <ele>1910.2</ele>
        <time>2015-06-28T05:23:14Z</time>
      </trkpt>
      <trkpt lat="42.33357" lon="8.87831">
        <ele>1909.4</ele>
        <time>2015-06-28T05:23:21Z</time>
      </trkpt>
      <trkpt lat="42.33357" lon="8.87834">
        <ele>1908.2</ele>
        <time>2015-06-28T05:23:30Z</time>
      </trkpt>
      <trkpt lat="42.33359" lon="8.87838">
        <ele>1907</ele>
        <time>2015-06-28T05:23:38Z</time>
      </trkpt>
      <trkpt lat="42.3336" lon="8.87841">
        <ele>1906.4</ele>
        <time>2015-06-28T05:23:43Z</time>
      </trkpt>
      <trkpt lat="42.33362" lon="8.87847">
        <ele>1904.6</ele>
        <time>2015-06-28T05:23:53Z</time>
      </trkpt>
      <trkpt lat="42.33366" lon="8.87849">
        <ele>1904</ele>
        <time>2015-06-28T05:23:59Z</time>
      </trkpt>
      <trkpt lat="42.3337" lon="8.87853">
        <ele>1902.6</ele>
        <time>2015-06-28T05:24:06Z</time>
      </trkpt>
      <trkpt lat="42.33379" lon="8.87863">
        <ele>1901.2</ele>
        <time>2015-06-28T05:24:31Z</time>
      </trkpt>
      <trkpt lat="42.33402" lon="8.87882">
        <ele>1900</ele>
        <time>2015-06-28T05:25:24Z</time>
      </trkpt>
      <trkpt lat="42.33402" lon="8.87885">
        <ele>1899.4</ele>
        <time>2015-06-28T05:25:33Z</time>
      </trkpt>
      <trkpt lat="42.33404" lon="8.8789">
        <ele>1898.4</ele>
        <time>2015-06-28T05:25:40Z</time>
      </trkpt>
      <trkpt lat="42.33405" lon="8.87895">
        <ele>1897.2</ele>
        <time>2015-06-28T05:25:48Z</time>
      </trkpt>
      <trkpt lat="42.33407" lon="8.87897">
        <ele>1896</ele>
        <time>2015-06-28T05:25:56Z</time>
      </trkpt>
      <trkpt lat="42.33407" lon="8.87901">
        <ele>1894.8</ele>
        <time>2015-06-28T05:26:14Z</time>
      </trkpt>
      <trkpt lat="42.33406" lon="8.87903">
        <ele>1894.4</ele>
        <time>2015-06-28T05:26:19Z</time>
      </trkpt>
      <trkpt lat="42.33407" lon="8.87906">
        <ele>1893</ele>
        <time>2015-06-28T05:26:27Z</time>
      </trkpt>
      <trkpt lat="42.33408" lon="8.87908">
        <ele>1891.8</ele>
        <time>2015-06-28T05:26:35Z</time>
      </trkpt>
      <trkpt lat="42.3341" lon="8.87909">
        <ele>1891.2</ele>
        <time>2015-06-28T05:26:41Z</time>
      </trkpt>
      <trkpt lat="42.33409" lon="8.87913">
        <ele>1889.2</ele>
        <time>2015-06-28T05:26:56Z</time>
      </trkpt>
      <trkpt lat="42.33408" lon="8.87915">
        <ele>1888.8</ele>
        <time>2015-06-28T05:27:16Z</time>
      </trkpt>
      <trkpt lat="42.33408" lon="8.87917">
        <ele>1887.6</ele>
        <time>2015-06-28T05:27:24Z</time>
      </trkpt>
      <trkpt lat="42.33411" lon="8.87919">
        <ele>1886.2</ele>
        <time>2015-06-28T05:27:34Z</time>
      </trkpt>
      <trkpt lat="42.33411" lon="8.87922">
        <ele>1885</ele>
        <time>2015-06-28T05:27:44Z</time>
      </trkpt>
      <trkpt lat="42.33412" lon="8.87923">
        <ele>1884.6</ele>
        <time>2015-06-28T05:27:50Z</time>
      </trkpt>
      <trkpt lat="42.33413" lon="8.87927">
        <ele>1883.2</ele>
        <time>2015-06-28T05:28:16Z</time>
      </trkpt>
      <trkpt lat="42.33415" lon="8.87928">
        <ele>1881.6</ele>
        <time>2015-06-28T05:28:28Z</time>
      </trkpt>
      <trkpt lat="42.33425" lon="8.8793">
        <ele>1880.4</ele>
        <time>2015-06-28T05:28:53Z</time>
      </trkpt>
      <trkpt lat="42.33425" lon="8.87933">
        <ele>1879.8</ele>
        <time>2015-06-28T05:29:00Z</time>
      </trkpt>
      <trkpt lat="42.33425" lon="8.87937">
        <ele>1878.8</ele>
        <time>2015-06-28T05:29:07Z</time>
      </trkpt>
      <trkpt lat="42.33426" lon="8.87939">
        <ele>1877.6</ele>
        <time>2015-06-28T05:29:13Z</time>
      </trkpt>
      <trkpt lat="42.33427" lon="8.87942">
        <ele>1876.2</ele>
        <time>2015-06-28T05:29:22Z</time>
      </trkpt>
      <trkpt lat="42.33428" lon="8.87948">
        <ele>1875</ele>
        <time>2015-06-28T05:29:31Z</time>
      </trkpt>
      <trkpt lat="42.33429" lon="8.87952">
        <ele>1874.2</ele>
        <time>2015-06-28T05:29:37Z</time>
      </trkpt>
      <trkpt lat="42.33431" lon="8.87956">
        <ele>1873.2</ele>
        <time>2015-06-28T05:29:42Z</time>
      </trkpt>
      <trkpt lat="42.33433" lon="8.87961">
        <ele>1871.4</ele>
        <time>2015-06-28T05:29:50Z</time>
      </trkpt>
      <trkpt lat="42.33435" lon="8.87966">
        <ele>1871</ele>
        <time>2015-06-28T05:29:55Z</time>
      </trkpt>
      <trkpt lat="42.33428" lon="8.87963">
        <ele>1869.2</ele>
        <time>2015-06-28T05:30:21Z</time>
      </trkpt>
      <trkpt lat="42.33423" lon="8.87965">
        <ele>1868</ele>
        <time>2015-06-28T05:30:28Z</time>
      </trkpt>
      <trkpt lat="42.33422" lon="8.87965">
        <ele>1867.6</ele>
        <time>2015-06-28T05:30:29Z</time>
      </trkpt>
      <trkpt lat="42.33416" lon="8.87966">
        <ele>1866.6</ele>
        <time>2015-06-28T05:30:39Z</time>
      </trkpt>
      <trkpt lat="42.33411" lon="8.87967">
        <ele>1865.4</ele>
        <time>2015-06-28T05:30:48Z</time>
      </trkpt>
      <trkpt lat="42.33406" lon="8.8797">
        <ele>1864.2</ele>
        <time>2015-06-28T05:30:56Z</time>
      </trkpt>
      <trkpt lat="42.33403" lon="8.87976">
        <ele>1863.2</ele>
        <time>2015-06-28T05:31:05Z</time>
      </trkpt>
      <trkpt lat="42.33404" lon="8.87979">
        <ele>1862.6</ele>
        <time>2015-06-28T05:31:10Z</time>
      </trkpt>
      <trkpt lat="42.33406" lon="8.87982">
        <ele>1861.4</ele>
        <time>2015-06-28T05:31:15Z</time>
      </trkpt>
      <trkpt lat="42.33408" lon="8.87987">
        <ele>1859.4</ele>
        <time>2015-06-28T05:31:25Z</time>
      </trkpt>
      <trkpt lat="42.33405" lon="8.87987">
        <ele>1858.6</ele>
        <time>2015-06-28T05:31:32Z</time>
      </trkpt>
      <trkpt lat="42.33402" lon="8.87988">
        <ele>1857.6</ele>
        <time>2015-06-28T05:31:39Z</time>
      </trkpt>
      <trkpt lat="42.33398" lon="8.87991">
        <ele>1856.6</ele>
        <time>2015-06-28T05:31:46Z</time>
      </trkpt>
      <trkpt lat="42.33394" lon="8.87992">
        <ele>1855.2</ele>
        <time>2015-06-28T05:31:53Z</time>
      </trkpt>
      <trkpt lat="42.33389" lon="8.87995">
        <ele>1853.8</ele>
        <time>2015-06-28T05:32:01Z</time>
      </trkpt>
      <trkpt lat="42.33386" lon="8.88002">
        <ele>1852.8</ele>
        <time>2015-06-28T05:32:11Z</time>
      </trkpt>
      <trkpt lat="42.33388" lon="8.88006">
        <ele>1852</ele>
        <time>2015-06-28T05:32:18Z</time>
      </trkpt>
      <trkpt lat="42.33389" lon="8.8801">
        <ele>1850</ele>
        <time>2015-06-28T05:32:34Z</time>
      </trkpt>
      <trkpt lat="42.33392" lon="8.88012">
        <ele>1849.6</ele>
        <time>2015-06-28T05:32:41Z</time>
      </trkpt>
      <trkpt lat="42.33389" lon="8.88016">
        <ele>1848.2</ele>
        <time>2015-06-28T05:32:49Z</time>
      </trkpt>
      <trkpt lat="42.3339" lon="8.88016">
        <ele>1848.2</ele>
        <time>2015-06-28T05:32:50Z</time>
      </trkpt>
      <trkpt lat="42.3339" lon="8.88017">
        <ele>1847.8</ele>
        <time>2015-06-28T05:32:53Z</time>
      </trkpt>
      <trkpt lat="42.3339" lon="8.88018">
        <ele>1845.6</ele>
        <time>2015-06-28T05:33:11Z</time>
      </trkpt>
      <trkpt lat="42.33393" lon="8.88026">
        <ele>1844.6</ele>
        <time>2015-06-28T05:33:40Z</time>
      </trkpt>
      <trkpt lat="42.33395" lon="8.88029">
        <ele>1844</ele>
        <time>2015-06-28T05:33:51Z</time>
      </trkpt>
      <trkpt lat="42.33398" lon="8.88029">
        <ele>1843.2</ele>
        <time>2015-06-28T05:33:55Z</time>
      </trkpt>
      <trkpt lat="42.33404" lon="8.88034">
        <ele>1841.4</ele>
        <time>2015-06-28T05:34:08Z</time>
      </trkpt>
      <trkpt lat="42.33411" lon="8.88042">
        <ele>1840.2</ele>
        <time>2015-06-28T05:34:34Z</time>
      </trkpt>
      <trkpt lat="42.33407" lon="8.88045">
        <ele>1839</ele>
        <time>2015-06-28T05:35:02Z</time>
      </trkpt>
      <trkpt lat="42.33406" lon="8.88048">
        <ele>1838.2</ele>
        <time>2015-06-28T05:35:10Z</time>
      </trkpt>
      <trkpt lat="42.33405" lon="8.88053">
        <ele>1836.6</ele>
        <time>2015-06-28T05:35:24Z</time>
      </trkpt>
      <trkpt lat="42.33402" lon="8.88055">
        <ele>1835.8</ele>
        <time>2015-06-28T05:35:33Z</time>
      </trkpt>
      <trkpt lat="42.33401" lon="8.88058">
        <ele>1835.2</ele>
        <time>2015-06-28T05:35:39Z</time>
      </trkpt>
      <trkpt lat="42.33401" lon="8.8806">
        <ele>1834</ele>
        <time>2015-06-28T05:35:46Z</time>
      </trkpt>
      <trkpt lat="42.33402" lon="8.88061">
        <ele>1833.4</ele>
        <time>2015-06-28T05:35:51Z</time>
      </trkpt>
      <trkpt lat="42.33403" lon="8.88063">
        <ele>1832</ele>
        <time>2015-06-28T05:35:57Z</time>
      </trkpt>
      <trkpt lat="42.33404" lon="8.88066">
        <ele>1831.2</ele>
        <time>2015-06-28T05:36:02Z</time>
      </trkpt>
      <trkpt lat="42.33403" lon="8.8807">
        <ele>1829.6</ele>
        <time>2015-06-28T05:36:11Z</time>
      </trkpt>
      <trkpt lat="42.33403" lon="8.88073">
        <ele>1828.8</ele>
        <time>2015-06-28T05:36:17Z</time>
      </trkpt>
      <trkpt lat="42.33402" lon="8.88077">
        <ele>1827.2</ele>
        <time>2015-06-28T05:36:24Z</time>
      </trkpt>
      <trkpt lat="42.33402" lon="8.8808">
        <ele>1826.2</ele>
        <time>2015-06-28T05:36:32Z</time>
      </trkpt>
      <trkpt lat="42.334" lon="8.88083">
        <ele>1825.2</ele>
        <time>2015-06-28T05:36:40Z</time>
      </trkpt>
      <trkpt lat="42.33401" lon="8.88086">
        <ele>1823.6</ele>
        <time>2015-06-28T05:36:51Z</time>
      </trkpt>
      <trkpt lat="42.33401" lon="8.88089">
        <ele>1822.6</ele>
        <time>2015-06-28T05:37:03Z</time>
      </trkpt>
      <trkpt lat="42.33405" lon="8.8809">
        <ele>1821.6</ele>
        <time>2015-06-28T05:37:14Z</time>
      </trkpt>
      <trkpt lat="42.33405" lon="8.88091">
        <ele>1821.2</ele>
        <time>2015-06-28T05:37:16Z</time>
      </trkpt>
      <trkpt lat="42.33404" lon="8.88094">
        <ele>1820</ele>
        <time>2015-06-28T05:37:32Z</time>
      </trkpt>
      <trkpt lat="42.33403" lon="8.88097">
        <ele>1819.2</ele>
        <time>2015-06-28T05:37:46Z</time>
      </trkpt>
      <trkpt lat="42.33403" lon="8.88099">
        <ele>1818</ele>
        <time>2015-06-28T05:38:14Z</time>
      </trkpt>
      <trkpt lat="42.33404" lon="8.88099">
        <ele>1817.4</ele>
        <time>2015-06-28T05:38:21Z</time>
      </trkpt>
      <trkpt lat="42.33406" lon="8.881">
        <ele>1816</ele>
        <time>2015-06-28T05:38:29Z</time>
      </trkpt>
      <trkpt lat="42.33407" lon="8.88101">
        <ele>1815</ele>
        <time>2015-06-28T05:38:39Z</time>
      </trkpt>
      <trkpt lat="42.33406" lon="8.88101">
        <ele>1813.2</ele>
        <time>2015-06-28T05:39:20Z</time>
      </trkpt>
      <trkpt lat="42.33405" lon="8.88097">
        <ele>1812.6</ele>
        <time>2015-06-28T05:40:04Z</time>
      </trkpt>
      <trkpt lat="42.33407" lon="8.88108">
        <ele>1811.6</ele>
        <time>2015-06-28T05:40:18Z</time>
      </trkpt>
      <trkpt lat="42.33408" lon="8.88105">
        <ele>1810.6</ele>
        <time>2015-06-28T05:40:24Z</time>
      </trkpt>
      <trkpt lat="42.33405" lon="8.88105">
        <ele>1809</ele>
        <time>2015-06-28T05:40:38Z</time>
      </trkpt>
      <trkpt lat="42.33402" lon="8.88111">
        <ele>1808</ele>
        <time>2015-06-28T05:40:49Z</time>
      </trkpt>
      <trkpt lat="42.334" lon="8.88114">
        <ele>1807</ele>
        <time>2015-06-28T05:40:56Z</time>
      </trkpt>
      <trkpt lat="42.33398" lon="8.88116">
        <ele>1805.6</ele>
        <time>2015-06-28T05:41:05Z</time>
      </trkpt>
      <trkpt lat="42.33398" lon="8.88118">
        <ele>1803.8</ele>
        <time>2015-06-28T05:41:25Z</time>
      </trkpt>
      <trkpt lat="42.33398" lon="8.88122">
        <ele>1803</ele>
        <time>2015-06-28T05:41:35Z</time>
      </trkpt>
      <trkpt lat="42.33399" lon="8.88127">
        <ele>1801.8</ele>
        <time>2015-06-28T05:41:47Z</time>
      </trkpt>
      <trkpt lat="42.33398" lon="8.88126">
        <ele>1801.6</ele>
        <time>2015-06-28T05:41:51Z</time>
      </trkpt>
      <trkpt lat="42.33397" lon="8.88126">
        <ele>1800.2</ele>
        <time>2015-06-28T05:42:05Z</time>
      </trkpt>
      <trkpt lat="42.33395" lon="8.8813">
        <ele>1799</ele>
        <time>2015-06-28T05:42:30Z</time>
      </trkpt>
      <trkpt lat="42.33394" lon="8.88132">
        <ele>1798</ele>
        <time>2015-06-28T05:42:43Z</time>
      </trkpt>
      <trkpt lat="42.33393" lon="8.88135">
        <ele>1797</ele>
        <time>2015-06-28T05:42:54Z</time>
      </trkpt>
      <trkpt lat="42.33395" lon="8.88138">
        <ele>1796.6</ele>
        <time>2015-06-28T05:42:58Z</time>
      </trkpt>
      <trkpt lat="42.33396" lon="8.88137">
        <ele>1796.4</ele>
        <time>2015-06-28T05:43:01Z</time>
      </trkpt>
      <trkpt lat="42.334" lon="8.88141">
        <ele>1794.6</ele>
        <time>2015-06-28T05:43:09Z</time>
      </trkpt>
      <trkpt lat="42.33402" lon="8.88144">
        <ele>1793.2</ele>
        <time>2015-06-28T05:43:20Z</time>
      </trkpt>
      <trkpt lat="42.33402" lon="8.88147">
        <ele>1792.2</ele>
        <time>2015-06-28T05:43:29Z</time>
      </trkpt>
      <trkpt lat="42.33399" lon="8.8815">
        <ele>1790.8</ele>
        <time>2015-06-28T05:43:41Z</time>
      </trkpt>
      <trkpt lat="42.33401" lon="8.88155">
        <ele>1790</ele>
        <time>2015-06-28T05:43:48Z</time>
      </trkpt>
      <trkpt lat="42.33398" lon="8.88153">
        <ele>1788.2</ele>
        <time>2015-06-28T05:44:16Z</time>
      </trkpt>
      <trkpt lat="42.33396" lon="8.88157">
        <ele>1787.2</ele>
        <time>2015-06-28T05:44:35Z</time>
      </trkpt>
      <trkpt lat="42.33395" lon="8.8816">
        <ele>1786.6</ele>
        <time>2015-06-28T05:44:42Z</time>
      </trkpt>
      <trkpt lat="42.33396" lon="8.88161">
        <ele>1785.6</ele>
        <time>2015-06-28T05:44:48Z</time>
      </trkpt>
      <trkpt lat="42.33395" lon="8.88165">
        <ele>1784.2</ele>
        <time>2015-06-28T05:44:55Z</time>
      </trkpt>
      <trkpt lat="42.33394" lon="8.88169">
        <ele>1782.8</ele>
        <time>2015-06-28T05:45:03Z</time>
      </trkpt>
      <trkpt lat="42.33393" lon="8.88172">
        <ele>1781.8</ele>
        <time>2015-06-28T05:45:13Z</time>
      </trkpt>
      <trkpt lat="42.33391" lon="8.88168">
        <ele>1780</ele>
        <time>2015-06-28T05:45:29Z</time>
      </trkpt>
      <trkpt lat="42.33387" lon="8.88165">
        <ele>1778.6</ele>
        <time>2015-06-28T05:45:51Z</time>
      </trkpt>
      <trkpt lat="42.33387" lon="8.88169">
        <ele>1777.8</ele>
        <time>2015-06-28T05:46:03Z</time>
      </trkpt>
      <trkpt lat="42.33385" lon="8.88171">
        <ele>1776.6</ele>
        <time>2015-06-28T05:46:12Z</time>
      </trkpt>
      <trkpt lat="42.33384" lon="8.88171">
        <ele>1775.6</ele>
        <time>2015-06-28T05:46:22Z</time>
      </trkpt>
      <trkpt lat="42.33386" lon="8.88174">
        <ele>1775</ele>
        <time>2015-06-28T05:46:28Z</time>
      </trkpt>
      <trkpt lat="42.33386" lon="8.88178">
        <ele>1773.8</ele>
        <time>2015-06-28T05:46:33Z</time>
      </trkpt>
      <trkpt lat="42.33387" lon="8.88181">
        <ele>1772.4</ele>
        <time>2015-06-28T05:46:41Z</time>
      </trkpt>
      <trkpt lat="42.33385" lon="8.88181">
        <ele>1771</ele>
        <time>2015-06-28T05:46:55Z</time>
      </trkpt>
      <trkpt lat="42.33384" lon="8.88182">
        <ele>1770.6</ele>
        <time>2015-06-28T05:47:01Z</time>
      </trkpt>
      <trkpt lat="42.33382" lon="8.88184">
        <ele>1769.2</ele>
        <time>2015-06-28T05:47:09Z</time>
      </trkpt>
      <trkpt lat="42.33383" lon="8.88186">
        <ele>1768.4</ele>
        <time>2015-06-28T05:47:14Z</time>
      </trkpt>
      <trkpt lat="42.33386" lon="8.88188">
        <ele>1767.4</ele>
        <time>2015-06-28T05:47:19Z</time>
      </trkpt>
      <trkpt lat="42.33386" lon="8.88192">
        <ele>1766</ele>
        <time>2015-06-28T05:47:25Z</time>
      </trkpt>
      <trkpt lat="42.33387" lon="8.88196">
        <ele>1765</ele>
        <time>2015-06-28T05:47:30Z</time>
      </trkpt>
      <trkpt lat="42.33387" lon="8.88198">
        <ele>1763.2</ele>
        <time>2015-06-28T05:47:37Z</time>
      </trkpt>
      <trkpt lat="42.33389" lon="8.88203">
        <ele>1762.4</ele>
        <time>2015-06-28T05:47:44Z</time>
      </trkpt>
      <trkpt lat="42.33392" lon="8.88206">
        <ele>1761.4</ele>
        <time>2015-06-28T05:47:50Z</time>
      </trkpt>
      <trkpt lat="42.33394" lon="8.88208">
        <ele>1760.8</ele>
        <time>2015-06-28T05:48:00Z</time>
      </trkpt>
      <trkpt lat="42.33399" lon="8.88213">
        <ele>1761.8</ele>
        <time>2015-06-28T05:48:09Z</time>
      </trkpt>
      <trkpt lat="42.33403" lon="8.88217">
        <ele>1762.4</ele>
        <time>2015-06-28T05:48:19Z</time>
      </trkpt>
      <trkpt lat="42.33405" lon="8.88223">
        <ele>1763.2</ele>
        <time>2015-06-28T05:48:43Z</time>
      </trkpt>
      <trkpt lat="42.33404" lon="8.8823">
        <ele>1762.4</ele>
        <time>2015-06-28T05:48:52Z</time>
      </trkpt>
      <trkpt lat="42.33405" lon="8.88231">
        <ele>1762.2</ele>
        <time>2015-06-28T05:48:54Z</time>
      </trkpt>
      <trkpt lat="42.33406" lon="8.88232">
        <ele>1762</ele>
        <time>2015-06-28T05:48:56Z</time>
      </trkpt>
      <trkpt lat="42.33406" lon="8.88233">
        <ele>1761.6</ele>
        <time>2015-06-28T05:48:57Z</time>
      </trkpt>
      <trkpt lat="42.33409" lon="8.88233">
        <ele>1761.2</ele>
        <time>2015-06-28T05:49:13Z</time>
      </trkpt>
      <trkpt lat="42.33411" lon="8.88251">
        <ele>1760.6</ele>
        <time>2015-06-28T05:49:34Z</time>
      </trkpt>
      <trkpt lat="42.33415" lon="8.88258">
        <ele>1760.2</ele>
        <time>2015-06-28T05:49:43Z</time>
      </trkpt>
      <trkpt lat="42.33415" lon="8.8826">
        <ele>1759</ele>
        <time>2015-06-28T05:49:54Z</time>
      </trkpt>
      <trkpt lat="42.33415" lon="8.88262">
        <ele>1757.8</ele>
        <time>2015-06-28T05:50:03Z</time>
      </trkpt>
      <trkpt lat="42.33417" lon="8.88267">
        <ele>1757</ele>
        <time>2015-06-28T05:50:13Z</time>
      </trkpt>
      <trkpt lat="42.33418" lon="8.88268">
        <ele>1756.8</ele>
        <time>2015-06-28T05:50:14Z</time>
      </trkpt>
      <trkpt lat="42.33425" lon="8.88277">
        <ele>1755.6</ele>
        <time>2015-06-28T05:50:28Z</time>
      </trkpt>
      <trkpt lat="42.33425" lon="8.8828">
        <ele>1755.2</ele>
        <time>2015-06-28T05:50:33Z</time>
      </trkpt>
      <trkpt lat="42.33426" lon="8.88283">
        <ele>1754.2</ele>
        <time>2015-06-28T05:50:38Z</time>
      </trkpt>
      <trkpt lat="42.33428" lon="8.88285">
        <ele>1753</ele>
        <time>2015-06-28T05:50:44Z</time>
      </trkpt>
      <trkpt lat="42.3343" lon="8.88288">
        <ele>1752.2</ele>
        <time>2015-06-28T05:50:49Z</time>
      </trkpt>
      <trkpt lat="42.33429" lon="8.88291">
        <ele>1750.8</ele>
        <time>2015-06-28T05:50:55Z</time>
      </trkpt>
      <trkpt lat="42.3343" lon="8.88296">
        <ele>1749.4</ele>
        <time>2015-06-28T05:51:03Z</time>
      </trkpt>
      <trkpt lat="42.33429" lon="8.883">
        <ele>1748.4</ele>
        <time>2015-06-28T05:51:10Z</time>
      </trkpt>
      <trkpt lat="42.3343" lon="8.88301">
        <ele>1747.6</ele>
        <time>2015-06-28T05:51:17Z</time>
      </trkpt>
      <trkpt lat="42.33431" lon="8.88303">
        <ele>1746.6</ele>
        <time>2015-06-28T05:51:23Z</time>
      </trkpt>
      <trkpt lat="42.33432" lon="8.88304">
        <ele>1745</ele>
        <time>2015-06-28T05:51:32Z</time>
      </trkpt>
      <trkpt lat="42.33432" lon="8.88309">
        <ele>1744.2</ele>
        <time>2015-06-28T05:51:40Z</time>
      </trkpt>
      <trkpt lat="42.33432" lon="8.88309">
        <ele>1743.4</ele>
        <time>2015-06-28T05:51:45Z</time>
      </trkpt>
      <trkpt lat="42.33435" lon="8.88308">
        <ele>1742.4</ele>
        <time>2015-06-28T05:51:50Z</time>
      </trkpt>
      <trkpt lat="42.33435" lon="8.88313">
        <ele>1740.8</ele>
        <time>2015-06-28T05:52:07Z</time>
      </trkpt>
      <trkpt lat="42.33435" lon="8.88316">
        <ele>1740</ele>
        <time>2015-06-28T05:52:18Z</time>
      </trkpt>
      <trkpt lat="42.33435" lon="8.88322">
        <ele>1738.8</ele>
        <time>2015-06-28T05:52:27Z</time>
      </trkpt>
      <trkpt lat="42.33434" lon="8.88329">
        <ele>1737.8</ele>
        <time>2015-06-28T05:52:38Z</time>
      </trkpt>
      <trkpt lat="42.33435" lon="8.88334">
        <ele>1737</ele>
        <time>2015-06-28T05:52:45Z</time>
      </trkpt>
      <trkpt lat="42.33434" lon="8.88337">
        <ele>1736</ele>
        <time>2015-06-28T05:52:51Z</time>
      </trkpt>
      <trkpt lat="42.33435" lon="8.88339">
        <ele>1735</ele>
        <time>2015-06-28T05:52:57Z</time>
      </trkpt>
      <trkpt lat="42.33436" lon="8.88343">
        <ele>1733.8</ele>
        <time>2015-06-28T05:53:03Z</time>
      </trkpt>
      <trkpt lat="42.33438" lon="8.88347">
        <ele>1732.8</ele>
        <time>2015-06-28T05:53:10Z</time>
      </trkpt>
      <trkpt lat="42.3344" lon="8.88352">
        <ele>1731.6</ele>
        <time>2015-06-28T05:53:16Z</time>
      </trkpt>
      <trkpt lat="42.33441" lon="8.88358">
        <ele>1730.8</ele>
        <time>2015-06-28T05:53:22Z</time>
      </trkpt>
      <trkpt lat="42.33443" lon="8.88361">
        <ele>1730.2</ele>
        <time>2015-06-28T05:53:26Z</time>
      </trkpt>
      <trkpt lat="42.33444" lon="8.88368">
        <ele>1729.4</ele>
        <time>2015-06-28T05:53:38Z</time>
      </trkpt>
      <trkpt lat="42.33447" lon="8.88372">
        <ele>1728.8</ele>
        <time>2015-06-28T05:53:44Z</time>
      </trkpt>
      <trkpt lat="42.33446" lon="8.88377">
        <ele>1727.4</ele>
        <time>2015-06-28T05:53:52Z</time>
      </trkpt>
      <trkpt lat="42.33447" lon="8.8838">
        <ele>1726.4</ele>
        <time>2015-06-28T05:53:58Z</time>
      </trkpt>
      <trkpt lat="42.33446" lon="8.88386">
        <ele>1724.4</ele>
        <time>2015-06-28T05:54:09Z</time>
      </trkpt>
      <trkpt lat="42.3345" lon="8.88393">
        <ele>1723.8</ele>
        <time>2015-06-28T05:54:17Z</time>
      </trkpt>
      <trkpt lat="42.33451" lon="8.88398">
        <ele>1723.4</ele>
        <time>2015-06-28T05:54:22Z</time>
      </trkpt>
      <trkpt lat="42.33452" lon="8.88401">
        <ele>1722.2</ele>
        <time>2015-06-28T05:54:27Z</time>
      </trkpt>
      <trkpt lat="42.33453" lon="8.88406">
        <ele>1721.4</ele>
        <time>2015-06-28T05:54:32Z</time>
      </trkpt>
      <trkpt lat="42.33454" lon="8.8841">
        <ele>1720</ele>
        <time>2015-06-28T05:54:38Z</time>
      </trkpt>
      <trkpt lat="42.33456" lon="8.88415">
        <ele>1718.4</ele>
        <time>2015-06-28T05:54:48Z</time>
      </trkpt>
      <trkpt lat="42.33455" lon="8.88421">
        <ele>1717.8</ele>
        <time>2015-06-28T05:54:55Z</time>
      </trkpt>
      <trkpt lat="42.33456" lon="8.88425">
        <ele>1716.8</ele>
        <time>2015-06-28T05:55:01Z</time>
      </trkpt>
      <trkpt lat="42.33457" lon="8.88431">
        <ele>1715.6</ele>
        <time>2015-06-28T05:55:09Z</time>
      </trkpt>
      <trkpt lat="42.33458" lon="8.88437">
        <ele>1714.8</ele>
        <time>2015-06-28T05:55:16Z</time>
      </trkpt>
      <trkpt lat="42.33458" lon="8.88439">
        <ele>1714.2</ele>
        <time>2015-06-28T05:55:21Z</time>
      </trkpt>
      <trkpt lat="42.33458" lon="8.88441">
        <ele>1713.6</ele>
        <time>2015-06-28T05:55:24Z</time>
      </trkpt>
      <trkpt lat="42.33457" lon="8.88445">
        <ele>1712.8</ele>
        <time>2015-06-28T05:55:29Z</time>
      </trkpt>
      <trkpt lat="42.33459" lon="8.88448">
        <ele>1711.4</ele>
        <time>2015-06-28T05:55:36Z</time>
      </trkpt>
      <trkpt lat="42.33461" lon="8.88452">
        <ele>1710.8</ele>
        <time>2015-06-28T05:55:41Z</time>
      </trkpt>
      <trkpt lat="42.33462" lon="8.88457">
        <ele>1709.4</ele>
        <time>2015-06-28T05:55:47Z</time>
      </trkpt>
      <trkpt lat="42.33463" lon="8.88461">
        <ele>1708.8</ele>
        <time>2015-06-28T05:55:52Z</time>
      </trkpt>
      <trkpt lat="42.33465" lon="8.88464">
        <ele>1707.2</ele>
        <time>2015-06-28T05:55:58Z</time>
      </trkpt>
      <trkpt lat="42.33466" lon="8.88468">
        <ele>1706.2</ele>
        <time>2015-06-28T05:56:04Z</time>
      </trkpt>
      <trkpt lat="42.33467" lon="8.88472">
        <ele>1705.2</ele>
        <time>2015-06-28T05:56:09Z</time>
      </trkpt>
      <trkpt lat="42.33469" lon="8.88475">
        <ele>1704.4</ele>
        <time>2015-06-28T05:56:14Z</time>
      </trkpt>
      <trkpt lat="42.3347" lon="8.88479">
        <ele>1703.2</ele>
        <time>2015-06-28T05:56:19Z</time>
      </trkpt>
      <trkpt lat="42.3347" lon="8.88485">
        <ele>1702</ele>
        <time>2015-06-28T05:56:25Z</time>
      </trkpt>
      <trkpt lat="42.3347" lon="8.88489">
        <ele>1701.2</ele>
        <time>2015-06-28T05:56:29Z</time>
      </trkpt>
      <trkpt lat="42.33472" lon="8.88494">
        <ele>1699.4</ele>
        <time>2015-06-28T05:56:36Z</time>
      </trkpt>
      <trkpt lat="42.33473" lon="8.88499">
        <ele>1698.4</ele>
        <time>2015-06-28T05:56:42Z</time>
      </trkpt>
      <trkpt lat="42.33476" lon="8.88503">
        <ele>1697.4</ele>
        <time>2015-06-28T05:56:47Z</time>
      </trkpt>
      <trkpt lat="42.33479" lon="8.88508">
        <ele>1696</ele>
        <time>2015-06-28T05:56:54Z</time>
      </trkpt>
      <trkpt lat="42.33478" lon="8.88514">
        <ele>1694.8</ele>
        <time>2015-06-28T05:57:02Z</time>
      </trkpt>
      <trkpt lat="42.33477" lon="8.8852">
        <ele>1693.8</ele>
        <time>2015-06-28T05:57:09Z</time>
      </trkpt>
      <trkpt lat="42.33476" lon="8.88525">
        <ele>1693</ele>
        <time>2015-06-28T05:57:15Z</time>
      </trkpt>
      <trkpt lat="42.33476" lon="8.88526">
        <ele>1691.8</ele>
        <time>2015-06-28T05:57:20Z</time>
      </trkpt>
      <trkpt lat="42.33473" lon="8.88527">
        <ele>1690.4</ele>
        <time>2015-06-28T05:57:29Z</time>
      </trkpt>
      <trkpt lat="42.33473" lon="8.88529">
        <ele>1689.8</ele>
        <time>2015-06-28T05:57:33Z</time>
      </trkpt>
      <trkpt lat="42.33473" lon="8.88531">
        <ele>1688.8</ele>
        <time>2015-06-28T05:57:38Z</time>
      </trkpt>
      <trkpt lat="42.33472" lon="8.88534">
        <ele>1687.4</ele>
        <time>2015-06-28T05:57:44Z</time>
      </trkpt>
      <trkpt lat="42.3347" lon="8.88537">
        <ele>1686.4</ele>
        <time>2015-06-28T05:57:49Z</time>
      </trkpt>
      <trkpt lat="42.3347" lon="8.88539">
        <ele>1685.4</ele>
        <time>2015-06-28T05:57:54Z</time>
      </trkpt>
      <trkpt lat="42.33469" lon="8.88543">
        <ele>1684</ele>
        <time>2015-06-28T05:58:00Z</time>
      </trkpt>
      <trkpt lat="42.33469" lon="8.88548">
        <ele>1683.2</ele>
        <time>2015-06-28T05:58:06Z</time>
      </trkpt>
      <trkpt lat="42.33468" lon="8.88551">
        <ele>1682</ele>
        <time>2015-06-28T05:58:11Z</time>
      </trkpt>
      <trkpt lat="42.33468" lon="8.88553">
        <ele>1681.6</ele>
        <time>2015-06-28T05:58:15Z</time>
      </trkpt>
      <trkpt lat="42.33468" lon="8.88558">
        <ele>1680</ele>
        <time>2015-06-28T05:58:21Z</time>
      </trkpt>
      <trkpt lat="42.33471" lon="8.88563">
        <ele>1678.8</ele>
        <time>2015-06-28T05:58:27Z</time>
      </trkpt>
      <trkpt lat="42.33473" lon="8.88571">
        <ele>1677.8</ele>
        <time>2015-06-28T05:58:34Z</time>
      </trkpt>
      <trkpt lat="42.33474" lon="8.88572">
        <ele>1677.6</ele>
        <time>2015-06-28T05:58:36Z</time>
      </trkpt>
      <trkpt lat="42.33476" lon="8.88577">
        <ele>1677</ele>
        <time>2015-06-28T05:58:42Z</time>
      </trkpt>
      <trkpt lat="42.33477" lon="8.88581">
        <ele>1676</ele>
        <time>2015-06-28T05:58:47Z</time>
      </trkpt>
      <trkpt lat="42.33476" lon="8.88584">
        <ele>1675</ele>
        <time>2015-06-28T05:58:52Z</time>
      </trkpt>
      <trkpt lat="42.33477" lon="8.88588">
        <ele>1673.6</ele>
        <time>2015-06-28T05:58:58Z</time>
      </trkpt>
      <trkpt lat="42.33477" lon="8.88592">
        <ele>1673.2</ele>
        <time>2015-06-28T05:59:02Z</time>
      </trkpt>
      <trkpt lat="42.3348" lon="8.88593">
        <ele>1672.2</ele>
        <time>2015-06-28T05:59:05Z</time>
      </trkpt>
      <trkpt lat="42.33483" lon="8.88598">
        <ele>1670.8</ele>
        <time>2015-06-28T05:59:10Z</time>
      </trkpt>
      <trkpt lat="42.3349" lon="8.88609">
        <ele>1668.8</ele>
        <time>2015-06-28T05:59:26Z</time>
      </trkpt>
      <trkpt lat="42.33492" lon="8.88611">
        <ele>1668.2</ele>
        <time>2015-06-28T05:59:34Z</time>
      </trkpt>
      <trkpt lat="42.33492" lon="8.88611">
        <ele>1667</ele>
        <time>2015-06-28T05:59:41Z</time>
      </trkpt>
      <trkpt lat="42.33492" lon="8.8861">
        <ele>1666.8</ele>
        <time>2015-06-28T05:59:48Z</time>
      </trkpt>
      <trkpt lat="42.33491" lon="8.8861">
        <ele>1667.6</ele>
        <time>2015-06-28T06:00:16Z</time>
      </trkpt>
      <trkpt lat="42.33491" lon="8.8861">
        <ele>1666.8</ele>
        <time>2015-06-28T06:00:29Z</time>
      </trkpt>
      <trkpt lat="42.33492" lon="8.8861">
        <ele>1667.4</ele>
        <time>2015-06-28T06:01:51Z</time>
      </trkpt>
      <trkpt lat="42.33498" lon="8.88612">
        <ele>1667</ele>
        <time>2015-06-28T06:02:07Z</time>
      </trkpt>
      <trkpt lat="42.33499" lon="8.88619">
        <ele>1666.6</ele>
        <time>2015-06-28T06:02:19Z</time>
      </trkpt>
      <trkpt lat="42.33499" lon="8.88619">
        <ele>1666</ele>
        <time>2015-06-28T06:02:24Z</time>
      </trkpt>
      <trkpt lat="42.33494" lon="8.88623">
        <ele>1664.6</ele>
        <time>2015-06-28T06:02:31Z</time>
      </trkpt>
      <trkpt lat="42.33495" lon="8.88626">
        <ele>1663.8</ele>
        <time>2015-06-28T06:02:39Z</time>
      </trkpt>
      <trkpt lat="42.33492" lon="8.8863">
        <ele>1663</ele>
        <time>2015-06-28T06:02:44Z</time>
      </trkpt>
      <trkpt lat="42.33491" lon="8.88631">
        <ele>1662.4</ele>
        <time>2015-06-28T06:02:47Z</time>
      </trkpt>
      <trkpt lat="42.33493" lon="8.88634">
        <ele>1662.2</ele>
        <time>2015-06-28T06:02:51Z</time>
      </trkpt>
      <trkpt lat="42.33493" lon="8.88638">
        <ele>1661.6</ele>
        <time>2015-06-28T06:02:54Z</time>
      </trkpt>
      <trkpt lat="42.33495" lon="8.88641">
        <ele>1660.4</ele>
        <time>2015-06-28T06:02:58Z</time>
      </trkpt>
      <trkpt lat="42.33496" lon="8.88645">
        <ele>1659</ele>
        <time>2015-06-28T06:03:03Z</time>
      </trkpt>
      <trkpt lat="42.33499" lon="8.88647">
        <ele>1657.8</ele>
        <time>2015-06-28T06:03:08Z</time>
      </trkpt>
      <trkpt lat="42.33499" lon="8.88649">
        <ele>1656.6</ele>
        <time>2015-06-28T06:03:13Z</time>
      </trkpt>
      <trkpt lat="42.33504" lon="8.88651">
        <ele>1655.4</ele>
        <time>2015-06-28T06:03:18Z</time>
      </trkpt>
      <trkpt lat="42.33512" lon="8.88653">
        <ele>1653.6</ele>
        <time>2015-06-28T06:03:28Z</time>
      </trkpt>
      <trkpt lat="42.33514" lon="8.88654">
        <ele>1653</ele>
        <time>2015-06-28T06:03:35Z</time>
      </trkpt>
      <trkpt lat="42.33518" lon="8.88654">
        <ele>1652</ele>
        <time>2015-06-28T06:03:41Z</time>
      </trkpt>
      <trkpt lat="42.33518" lon="8.88656">
        <ele>1651.4</ele>
        <time>2015-06-28T06:03:44Z</time>
      </trkpt>
      <trkpt lat="42.33519" lon="8.88658">
        <ele>1650.8</ele>
        <time>2015-06-28T06:03:47Z</time>
      </trkpt>
      <trkpt lat="42.33519" lon="8.88663">
        <ele>1649.6</ele>
        <time>2015-06-28T06:03:53Z</time>
      </trkpt>
      <trkpt lat="42.33523" lon="8.88664">
        <ele>1648.8</ele>
        <time>2015-06-28T06:03:57Z</time>
      </trkpt>
      <trkpt lat="42.33524" lon="8.88664">
        <ele>1648.8</ele>
        <time>2015-06-28T06:03:58Z</time>
      </trkpt>
      <trkpt lat="42.33524" lon="8.8867">
        <ele>1647</ele>
        <time>2015-06-28T06:04:07Z</time>
      </trkpt>
      <trkpt lat="42.33525" lon="8.88673">
        <ele>1646.6</ele>
        <time>2015-06-28T06:04:11Z</time>
      </trkpt>
      <trkpt lat="42.33525" lon="8.88678">
        <ele>1645.6</ele>
        <time>2015-06-28T06:04:16Z</time>
      </trkpt>
      <trkpt lat="42.33527" lon="8.88682">
        <ele>1644.4</ele>
        <time>2015-06-28T06:04:21Z</time>
      </trkpt>
      <trkpt lat="42.33528" lon="8.88688">
        <ele>1643.2</ele>
        <time>2015-06-28T06:04:28Z</time>
      </trkpt>
      <trkpt lat="42.33528" lon="8.88692">
        <ele>1642.2</ele>
        <time>2015-06-28T06:04:35Z</time>
      </trkpt>
      <trkpt lat="42.33526" lon="8.88696">
        <ele>1641.2</ele>
        <time>2015-06-28T06:04:40Z</time>
      </trkpt>
      <trkpt lat="42.33529" lon="8.88699">
        <ele>1640</ele>
        <time>2015-06-28T06:04:46Z</time>
      </trkpt>
      <trkpt lat="42.33532" lon="8.88701">
        <ele>1639</ele>
        <time>2015-06-28T06:04:51Z</time>
      </trkpt>
      <trkpt lat="42.33533" lon="8.88701">
        <ele>1637.8</ele>
        <time>2015-06-28T06:04:57Z</time>
      </trkpt>
      <trkpt lat="42.33532" lon="8.88704">
        <ele>1636.6</ele>
        <time>2015-06-28T06:05:04Z</time>
      </trkpt>
      <trkpt lat="42.33531" lon="8.88708">
        <ele>1636</ele>
        <time>2015-06-28T06:05:09Z</time>
      </trkpt>
      <trkpt lat="42.33536" lon="8.8871">
        <ele>1634.8</ele>
        <time>2015-06-28T06:05:15Z</time>
      </trkpt>
      <trkpt lat="42.33538" lon="8.88711">
        <ele>1633.2</ele>
        <time>2015-06-28T06:05:24Z</time>
      </trkpt>
      <trkpt lat="42.33539" lon="8.88714">
        <ele>1632.8</ele>
        <time>2015-06-28T06:05:28Z</time>
      </trkpt>
      <trkpt lat="42.33543" lon="8.88715">
        <ele>1632.4</ele>
        <time>2015-06-28T06:05:31Z</time>
      </trkpt>
      <trkpt lat="42.33544" lon="8.88717">
        <ele>1629.8</ele>
        <time>2015-06-28T06:05:50Z</time>
      </trkpt>
      <trkpt lat="42.33546" lon="8.88721">
        <ele>1629.2</ele>
        <time>2015-06-28T06:05:58Z</time>
      </trkpt>
      <trkpt lat="42.33548" lon="8.88724">
        <ele>1628.8</ele>
        <time>2015-06-28T06:06:03Z</time>
      </trkpt>
      <trkpt lat="42.3355" lon="8.88724">
        <ele>1627.6</ele>
        <time>2015-06-28T06:06:07Z</time>
      </trkpt>
      <trkpt lat="42.33552" lon="8.88724">
        <ele>1626.2</ele>
        <time>2015-06-28T06:06:12Z</time>
      </trkpt>
      <trkpt lat="42.33553" lon="8.88724">
        <ele>1625</ele>
        <time>2015-06-28T06:06:18Z</time>
      </trkpt>
      <trkpt lat="42.33553" lon="8.88721">
        <ele>1623.8</ele>
        <time>2015-06-28T06:06:25Z</time>
      </trkpt>
      <trkpt lat="42.33555" lon="8.88723">
        <ele>1622.8</ele>
        <time>2015-06-28T06:06:33Z</time>
      </trkpt>
      <trkpt lat="42.33558" lon="8.88724">
        <ele>1621.6</ele>
        <time>2015-06-28T06:06:41Z</time>
      </trkpt>
      <trkpt lat="42.3356" lon="8.88732">
        <ele>1620.2</ele>
        <time>2015-06-28T06:07:02Z</time>
      </trkpt>
      <trkpt lat="42.33561" lon="8.88743">
        <ele>1619</ele>
        <time>2015-06-28T06:07:31Z</time>
      </trkpt>
      <trkpt lat="42.3356" lon="8.88746">
        <ele>1619</ele>
        <time>2015-06-28T06:07:34Z</time>
      </trkpt>
      <trkpt lat="42.33559" lon="8.88747">
        <ele>1619</ele>
        <time>2015-06-28T06:07:35Z</time>
      </trkpt>
      <trkpt lat="42.3356" lon="8.88762">
        <ele>1617.4</ele>
        <time>2015-06-28T06:07:51Z</time>
      </trkpt>
      <trkpt lat="42.33561" lon="8.88768">
        <ele>1616.8</ele>
        <time>2015-06-28T06:08:01Z</time>
      </trkpt>
      <trkpt lat="42.33563" lon="8.88771">
        <ele>1616</ele>
        <time>2015-06-28T06:08:06Z</time>
      </trkpt>
      <trkpt lat="42.33564" lon="8.88777">
        <ele>1614.6</ele>
        <time>2015-06-28T06:08:12Z</time>
      </trkpt>
      <trkpt lat="42.33564" lon="8.88783">
        <ele>1614</ele>
        <time>2015-06-28T06:08:16Z</time>
      </trkpt>
      <trkpt lat="42.33564" lon="8.8879">
        <ele>1612.4</ele>
        <time>2015-06-28T06:08:22Z</time>
      </trkpt>
      <trkpt lat="42.33563" lon="8.88795">
        <ele>1611.8</ele>
        <time>2015-06-28T06:08:27Z</time>
      </trkpt>
      <trkpt lat="42.33562" lon="8.88799">
        <ele>1610.6</ele>
        <time>2015-06-28T06:08:32Z</time>
      </trkpt>
      <trkpt lat="42.33563" lon="8.88803">
        <ele>1610</ele>
        <time>2015-06-28T06:08:36Z</time>
      </trkpt>
      <trkpt lat="42.33563" lon="8.88808">
        <ele>1608.4</ele>
        <time>2015-06-28T06:08:41Z</time>
      </trkpt>
      <trkpt lat="42.33562" lon="8.88814">
        <ele>1607</ele>
        <time>2015-06-28T06:08:47Z</time>
      </trkpt>
      <trkpt lat="42.33561" lon="8.88819">
        <ele>1606</ele>
        <time>2015-06-28T06:08:52Z</time>
      </trkpt>
      <trkpt lat="42.3356" lon="8.88822">
        <ele>1604.8</ele>
        <time>2015-06-28T06:08:57Z</time>
      </trkpt>
      <trkpt lat="42.3356" lon="8.88824">
        <ele>1604.4</ele>
        <time>2015-06-28T06:09:01Z</time>
      </trkpt>
      <trkpt lat="42.33562" lon="8.88826">
        <ele>1602.6</ele>
        <time>2015-06-28T06:09:07Z</time>
      </trkpt>
      <trkpt lat="42.33562" lon="8.8883">
        <ele>1601.4</ele>
        <time>2015-06-28T06:09:13Z</time>
      </trkpt>
      <trkpt lat="42.33563" lon="8.88837">
        <ele>1600.6</ele>
        <time>2015-06-28T06:09:18Z</time>
      </trkpt>
      <trkpt lat="42.33564" lon="8.88839">
        <ele>1600.4</ele>
        <time>2015-06-28T06:09:19Z</time>
      </trkpt>
      <trkpt lat="42.33563" lon="8.88839">
        <ele>1600</ele>
        <time>2015-06-28T06:09:21Z</time>
      </trkpt>
      <trkpt lat="42.33563" lon="8.88843">
        <ele>1598.6</ele>
        <time>2015-06-28T06:09:34Z</time>
      </trkpt>
      <trkpt lat="42.33563" lon="8.88845">
        <ele>1598.6</ele>
        <time>2015-06-28T06:09:38Z</time>
      </trkpt>
      <trkpt lat="42.33563" lon="8.88846">
        <ele>1597.6</ele>
        <time>2015-06-28T06:09:42Z</time>
      </trkpt>
      <trkpt lat="42.33565" lon="8.88848">
        <ele>1595.8</ele>
        <time>2015-06-28T06:09:49Z</time>
      </trkpt>
      <trkpt lat="42.33564" lon="8.88851">
        <ele>1595.2</ele>
        <time>2015-06-28T06:09:57Z</time>
      </trkpt>
      <trkpt lat="42.33565" lon="8.88854">
        <ele>1593.6</ele>
        <time>2015-06-28T06:10:12Z</time>
      </trkpt>
      <trkpt lat="42.33568" lon="8.8886">
        <ele>1592.8</ele>
        <time>2015-06-28T06:10:28Z</time>
      </trkpt>
      <trkpt lat="42.33569" lon="8.88862">
        <ele>1592</ele>
        <time>2015-06-28T06:10:34Z</time>
      </trkpt>
      <trkpt lat="42.33572" lon="8.88867">
        <ele>1590.6</ele>
        <time>2015-06-28T06:10:42Z</time>
      </trkpt>
      <trkpt lat="42.33573" lon="8.88871">
        <ele>1589.8</ele>
        <time>2015-06-28T06:10:47Z</time>
      </trkpt>
      <trkpt lat="42.33572" lon="8.88878">
        <ele>1588</ele>
        <time>2015-06-28T06:10:59Z</time>
      </trkpt>
      <trkpt lat="42.33568" lon="8.88876">
        <ele>1587.2</ele>
        <time>2015-06-28T06:11:11Z</time>
      </trkpt>
      <trkpt lat="42.33567" lon="8.88874">
        <ele>1586.2</ele>
        <time>2015-06-28T06:11:19Z</time>
      </trkpt>
      <trkpt lat="42.33567" lon="8.88873">
        <ele>1585.2</ele>
        <time>2015-06-28T06:11:28Z</time>
      </trkpt>
      <trkpt lat="42.33565" lon="8.88876">
        <ele>1583.8</ele>
        <time>2015-06-28T06:11:45Z</time>
      </trkpt>
      <trkpt lat="42.33566" lon="8.88876">
        <ele>1582.8</ele>
        <time>2015-06-28T06:12:02Z</time>
      </trkpt>
      <trkpt lat="42.33563" lon="8.88878">
        <ele>1581.8</ele>
        <time>2015-06-28T06:12:21Z</time>
      </trkpt>
      <trkpt lat="42.33558" lon="8.88878">
        <ele>1581.4</ele>
        <time>2015-06-28T06:12:28Z</time>
      </trkpt>
      <trkpt lat="42.33557" lon="8.88879">
        <ele>1581.4</ele>
        <time>2015-06-28T06:12:29Z</time>
      </trkpt>
      <trkpt lat="42.33558" lon="8.88879">
        <ele>1580.8</ele>
        <time>2015-06-28T06:12:33Z</time>
      </trkpt>
      <trkpt lat="42.33561" lon="8.88881">
        <ele>1579.4</ele>
        <time>2015-06-28T06:12:39Z</time>
      </trkpt>
      <trkpt lat="42.33561" lon="8.88884">
        <ele>1578.8</ele>
        <time>2015-06-28T06:12:43Z</time>
      </trkpt>
      <trkpt lat="42.33561" lon="8.88886">
        <ele>1577.4</ele>
        <time>2015-06-28T06:12:49Z</time>
      </trkpt>
      <trkpt lat="42.3356" lon="8.8889">
        <ele>1576.2</ele>
        <time>2015-06-28T06:12:56Z</time>
      </trkpt>
      <trkpt lat="42.3356" lon="8.88895">
        <ele>1575.4</ele>
        <time>2015-06-28T06:13:01Z</time>
      </trkpt>
      <trkpt lat="42.33559" lon="8.889">
        <ele>1573.8</ele>
        <time>2015-06-28T06:13:09Z</time>
      </trkpt>
      <trkpt lat="42.33558" lon="8.88902">
        <ele>1573.6</ele>
        <time>2015-06-28T06:13:13Z</time>
      </trkpt>
      <trkpt lat="42.33558" lon="8.88901">
        <ele>1573.2</ele>
        <time>2015-06-28T06:13:14Z</time>
      </trkpt>
      <trkpt lat="42.33557" lon="8.88904">
        <ele>1571.8</ele>
        <time>2015-06-28T06:13:18Z</time>
      </trkpt>
      <trkpt lat="42.33555" lon="8.88903">
        <ele>1571.2</ele>
        <time>2015-06-28T06:13:22Z</time>
      </trkpt>
      <trkpt lat="42.33554" lon="8.88905">
        <ele>1569.6</ele>
        <time>2015-06-28T06:13:27Z</time>
      </trkpt>
      <trkpt lat="42.33552" lon="8.88906">
        <ele>1568.6</ele>
        <time>2015-06-28T06:13:32Z</time>
      </trkpt>
      <trkpt lat="42.33551" lon="8.8891">
        <ele>1567</ele>
        <time>2015-06-28T06:13:40Z</time>
      </trkpt>
      <trkpt lat="42.33548" lon="8.88912">
        <ele>1566</ele>
        <time>2015-06-28T06:13:46Z</time>
      </trkpt>
      <trkpt lat="42.33546" lon="8.88916">
        <ele>1564.4</ele>
        <time>2015-06-28T06:13:57Z</time>
      </trkpt>
      <trkpt lat="42.33542" lon="8.88919">
        <ele>1564</ele>
        <time>2015-06-28T06:14:03Z</time>
      </trkpt>
      <trkpt lat="42.33541" lon="8.88923">
        <ele>1563.2</ele>
        <time>2015-06-28T06:14:07Z</time>
      </trkpt>
      <trkpt lat="42.33539" lon="8.88928">
        <ele>1562</ele>
        <time>2015-06-28T06:14:12Z</time>
      </trkpt>
      <trkpt lat="42.3354" lon="8.88931">
        <ele>1560.8</ele>
        <time>2015-06-28T06:14:16Z</time>
      </trkpt>
      <trkpt lat="42.3354" lon="8.88934">
        <ele>1559.4</ele>
        <time>2015-06-28T06:14:21Z</time>
      </trkpt>
      <trkpt lat="42.33538" lon="8.88938">
        <ele>1558.2</ele>
        <time>2015-06-28T06:14:27Z</time>
      </trkpt>
      <trkpt lat="42.33537" lon="8.88942">
        <ele>1557</ele>
        <time>2015-06-28T06:14:33Z</time>
      </trkpt>
      <trkpt lat="42.33537" lon="8.88946">
        <ele>1556.2</ele>
        <time>2015-06-28T06:14:39Z</time>
      </trkpt>
      <trkpt lat="42.33538" lon="8.88951">
        <ele>1555.2</ele>
        <time>2015-06-28T06:14:45Z</time>
      </trkpt>
      <trkpt lat="42.33538" lon="8.88954">
        <ele>1554.4</ele>
        <time>2015-06-28T06:14:49Z</time>
      </trkpt>
      <trkpt lat="42.33539" lon="8.88954">
        <ele>1554</ele>
        <time>2015-06-28T06:14:51Z</time>
      </trkpt>
      <trkpt lat="42.33541" lon="8.88957">
        <ele>1552.4</ele>
        <time>2015-06-28T06:14:59Z</time>
      </trkpt>
      <trkpt lat="42.33542" lon="8.88962">
        <ele>1551.6</ele>
        <time>2015-06-28T06:15:07Z</time>
      </trkpt>
      <trkpt lat="42.33541" lon="8.88966">
        <ele>1550.8</ele>
        <time>2015-06-28T06:15:13Z</time>
      </trkpt>
      <trkpt lat="42.33538" lon="8.88968">
        <ele>1549.4</ele>
        <time>2015-06-28T06:15:20Z</time>
      </trkpt>
      <trkpt lat="42.33535" lon="8.88972">
        <ele>1548.6</ele>
        <time>2015-06-28T06:15:26Z</time>
      </trkpt>
      <trkpt lat="42.33535" lon="8.88977">
        <ele>1547.2</ele>
        <time>2015-06-28T06:15:32Z</time>
      </trkpt>
      <trkpt lat="42.33537" lon="8.88981">
        <ele>1546.4</ele>
        <time>2015-06-28T06:15:37Z</time>
      </trkpt>
      <trkpt lat="42.33538" lon="8.88986">
        <ele>1545.4</ele>
        <time>2015-06-28T06:15:42Z</time>
      </trkpt>
      <trkpt lat="42.3354" lon="8.88989">
        <ele>1544.8</ele>
        <time>2015-06-28T06:15:45Z</time>
      </trkpt>
      <trkpt lat="42.3354" lon="8.88993">
        <ele>1543.4</ele>
        <time>2015-06-28T06:15:50Z</time>
      </trkpt>
      <trkpt lat="42.33539" lon="8.88995">
        <ele>1542.2</ele>
        <time>2015-06-28T06:15:55Z</time>
      </trkpt>
      <trkpt lat="42.33537" lon="8.88999">
        <ele>1540.8</ele>
        <time>2015-06-28T06:16:01Z</time>
      </trkpt>
      <trkpt lat="42.33538" lon="8.89002">
        <ele>1539.6</ele>
        <time>2015-06-28T06:16:07Z</time>
      </trkpt>
      <trkpt lat="42.33537" lon="8.89005">
        <ele>1538.8</ele>
        <time>2015-06-28T06:16:12Z</time>
      </trkpt>
      <trkpt lat="42.33536" lon="8.89009">
        <ele>1537.4</ele>
        <time>2015-06-28T06:16:18Z</time>
      </trkpt>
      <trkpt lat="42.33539" lon="8.89012">
        <ele>1536.6</ele>
        <time>2015-06-28T06:16:23Z</time>
      </trkpt>
      <trkpt lat="42.3354" lon="8.89016">
        <ele>1535.2</ele>
        <time>2015-06-28T06:16:30Z</time>
      </trkpt>
      <trkpt lat="42.33538" lon="8.89019">
        <ele>1534.2</ele>
        <time>2015-06-28T06:16:36Z</time>
      </trkpt>
      <trkpt lat="42.3354" lon="8.89021">
        <ele>1533.8</ele>
        <time>2015-06-28T06:16:39Z</time>
      </trkpt>
      <trkpt lat="42.3354" lon="8.89023">
        <ele>1533.4</ele>
        <time>2015-06-28T06:16:41Z</time>
      </trkpt>
      <trkpt lat="42.33541" lon="8.89026">
        <ele>1532</ele>
        <time>2015-06-28T06:16:47Z</time>
      </trkpt>
      <trkpt lat="42.33539" lon="8.89031">
        <ele>1530.6</ele>
        <time>2015-06-28T06:16:55Z</time>
      </trkpt>
      <trkpt lat="42.33541" lon="8.89035">
        <ele>1529.8</ele>
        <time>2015-06-28T06:17:01Z</time>
      </trkpt>
      <trkpt lat="42.33541" lon="8.89039">
        <ele>1528.2</ele>
        <time>2015-06-28T06:17:09Z</time>
      </trkpt>
      <trkpt lat="42.33541" lon="8.89041">
        <ele>1527.4</ele>
        <time>2015-06-28T06:17:16Z</time>
      </trkpt>
      <trkpt lat="42.33536" lon="8.8905">
        <ele>1525.8</ele>
        <time>2015-06-28T06:18:24Z</time>
      </trkpt>
      <trkpt lat="42.33537" lon="8.89051">
        <ele>1525.4</ele>
        <time>2015-06-28T06:19:48Z</time>
      </trkpt>
      <trkpt lat="42.33539" lon="8.89046">
        <ele>1525</ele>
        <time>2015-06-28T06:21:59Z</time>
      </trkpt>
      <trkpt lat="42.33537" lon="8.89043">
        <ele>1525.2</ele>
        <time>2015-06-28T06:24:11Z</time>
      </trkpt>
      <trkpt lat="42.33536" lon="8.89054">
        <ele>1524.6</ele>
        <time>2015-06-28T06:25:06Z</time>
      </trkpt>
      <trkpt lat="42.33534" lon="8.89056">
        <ele>1524.6</ele>
        <time>2015-06-28T06:25:08Z</time>
      </trkpt>
      <trkpt lat="42.33533" lon="8.89058">
        <ele>1524.4</ele>
        <time>2015-06-28T06:25:10Z</time>
      </trkpt>
      <trkpt lat="42.33533" lon="8.89063">
        <ele>1523.4</ele>
        <time>2015-06-28T06:25:14Z</time>
      </trkpt>
      <trkpt lat="42.33532" lon="8.89068">
        <ele>1522.2</ele>
        <time>2015-06-28T06:25:20Z</time>
      </trkpt>
      <trkpt lat="42.33533" lon="8.89073">
        <ele>1521</ele>
        <time>2015-06-28T06:25:27Z</time>
      </trkpt>
      <trkpt lat="42.33537" lon="8.89078">
        <ele>1520.2</ele>
        <time>2015-06-28T06:25:33Z</time>
      </trkpt>
      <trkpt lat="42.33541" lon="8.89082">
        <ele>1519</ele>
        <time>2015-06-28T06:25:39Z</time>
      </trkpt>
      <trkpt lat="42.33543" lon="8.89084">
        <ele>1518.4</ele>
        <time>2015-06-28T06:25:43Z</time>
      </trkpt>
      <trkpt lat="42.33545" lon="8.89086">
        <ele>1517.4</ele>
        <time>2015-06-28T06:25:48Z</time>
      </trkpt>
      <trkpt lat="42.33545" lon="8.89089">
        <ele>1516</ele>
        <time>2015-06-28T06:25:54Z</time>
      </trkpt>
      <trkpt lat="42.33547" lon="8.89092">
        <ele>1514.4</ele>
        <time>2015-06-28T06:26:01Z</time>
      </trkpt>
      <trkpt lat="42.33549" lon="8.89095">
        <ele>1513.6</ele>
        <time>2015-06-28T06:26:08Z</time>
      </trkpt>
      <trkpt lat="42.33548" lon="8.89098">
        <ele>1512.4</ele>
        <time>2015-06-28T06:26:15Z</time>
      </trkpt>
      <trkpt lat="42.33546" lon="8.89102">
        <ele>1511.4</ele>
        <time>2015-06-28T06:26:21Z</time>
      </trkpt>
      <trkpt lat="42.33548" lon="8.89103">
        <ele>1510.2</ele>
        <time>2015-06-28T06:26:28Z</time>
      </trkpt>
      <trkpt lat="42.33546" lon="8.89108">
        <ele>1509.2</ele>
        <time>2015-06-28T06:26:35Z</time>
      </trkpt>
      <trkpt lat="42.33546" lon="8.89111">
        <ele>1508</ele>
        <time>2015-06-28T06:26:42Z</time>
      </trkpt>
      <trkpt lat="42.33546" lon="8.89115">
        <ele>1506.8</ele>
        <time>2015-06-28T06:26:49Z</time>
      </trkpt>
      <trkpt lat="42.33548" lon="8.89118">
        <ele>1505.8</ele>
        <time>2015-06-28T06:26:55Z</time>
      </trkpt>
      <trkpt lat="42.33545" lon="8.89122">
        <ele>1505</ele>
        <time>2015-06-28T06:27:00Z</time>
      </trkpt>
      <trkpt lat="42.33547" lon="8.89126">
        <ele>1503.4</ele>
        <time>2015-06-28T06:27:09Z</time>
      </trkpt>
      <trkpt lat="42.33547" lon="8.89131">
        <ele>1502.4</ele>
        <time>2015-06-28T06:27:16Z</time>
      </trkpt>
      <trkpt lat="42.33552" lon="8.89131">
        <ele>1501.4</ele>
        <time>2015-06-28T06:27:22Z</time>
      </trkpt>
      <trkpt lat="42.33551" lon="8.89134">
        <ele>1500.4</ele>
        <time>2015-06-28T06:27:27Z</time>
      </trkpt>
      <trkpt lat="42.33552" lon="8.8914">
        <ele>1498.8</ele>
        <time>2015-06-28T06:27:35Z</time>
      </trkpt>
      <trkpt lat="42.3355" lon="8.89145">
        <ele>1498</ele>
        <time>2015-06-28T06:27:41Z</time>
      </trkpt>
      <trkpt lat="42.33554" lon="8.89149">
        <ele>1496.4</ele>
        <time>2015-06-28T06:27:49Z</time>
      </trkpt>
      <trkpt lat="42.33558" lon="8.89148">
        <ele>1496</ele>
        <time>2015-06-28T06:27:53Z</time>
      </trkpt>
      <trkpt lat="42.33558" lon="8.89149">
        <ele>1496</ele>
        <time>2015-06-28T06:27:54Z</time>
      </trkpt>
      <trkpt lat="42.33561" lon="8.89151">
        <ele>1494.4</ele>
        <time>2015-06-28T06:28:01Z</time>
      </trkpt>
      <trkpt lat="42.33562" lon="8.89155">
        <ele>1493.8</ele>
        <time>2015-06-28T06:28:06Z</time>
      </trkpt>
      <trkpt lat="42.33561" lon="8.89161">
        <ele>1492.4</ele>
        <time>2015-06-28T06:28:12Z</time>
      </trkpt>
      <trkpt lat="42.3356" lon="8.89164">
        <ele>1491</ele>
        <time>2015-06-28T06:28:19Z</time>
      </trkpt>
      <trkpt lat="42.33561" lon="8.89169">
        <ele>1489.8</ele>
        <time>2015-06-28T06:28:29Z</time>
      </trkpt>
      <trkpt lat="42.3356" lon="8.89176">
        <ele>1488.4</ele>
        <time>2015-06-28T06:28:37Z</time>
      </trkpt>
      <trkpt lat="42.33561" lon="8.89176">
        <ele>1488.2</ele>
        <time>2015-06-28T06:28:38Z</time>
      </trkpt>
      <trkpt lat="42.33563" lon="8.89177">
        <ele>1488</ele>
        <time>2015-06-28T06:28:42Z</time>
      </trkpt>
      <trkpt lat="42.33566" lon="8.89181">
        <ele>1486.2</ele>
        <time>2015-06-28T06:28:53Z</time>
      </trkpt>
      <trkpt lat="42.33567" lon="8.89183">
        <ele>1485.6</ele>
        <time>2015-06-28T06:28:58Z</time>
      </trkpt>
      <trkpt lat="42.33572" lon="8.89189">
        <ele>1483.6</ele>
        <time>2015-06-28T06:29:12Z</time>
      </trkpt>
      <trkpt lat="42.33573" lon="8.89199">
        <ele>1483</ele>
        <time>2015-06-28T06:29:26Z</time>
      </trkpt>
      <trkpt lat="42.33573" lon="8.89202">
        <ele>1482.2</ele>
        <time>2015-06-28T06:29:31Z</time>
      </trkpt>
      <trkpt lat="42.33578" lon="8.89206">
        <ele>1480.6</ele>
        <time>2015-06-28T06:29:49Z</time>
      </trkpt>
      <trkpt lat="42.33577" lon="8.89212">
        <ele>1479.8</ele>
        <time>2015-06-28T06:30:00Z</time>
      </trkpt>
      <trkpt lat="42.33577" lon="8.89217">
        <ele>1478.4</ele>
        <time>2015-06-28T06:30:10Z</time>
      </trkpt>
      <trkpt lat="42.33578" lon="8.8922">
        <ele>1477.8</ele>
        <time>2015-06-28T06:30:17Z</time>
      </trkpt>
      <trkpt lat="42.33577" lon="8.89225">
        <ele>1477</ele>
        <time>2015-06-28T06:30:22Z</time>
      </trkpt>
      <trkpt lat="42.33575" lon="8.8923">
        <ele>1475.6</ele>
        <time>2015-06-28T06:30:28Z</time>
      </trkpt>
      <trkpt lat="42.33575" lon="8.89234">
        <ele>1474.6</ele>
        <time>2015-06-28T06:30:33Z</time>
      </trkpt>
      <trkpt lat="42.33574" lon="8.89241">
        <ele>1473.2</ele>
        <time>2015-06-28T06:30:41Z</time>
      </trkpt>
      <trkpt lat="42.33576" lon="8.89245">
        <ele>1472.4</ele>
        <time>2015-06-28T06:30:47Z</time>
      </trkpt>
      <trkpt lat="42.33575" lon="8.89251">
        <ele>1471.4</ele>
        <time>2015-06-28T06:30:53Z</time>
      </trkpt>
      <trkpt lat="42.33576" lon="8.89254">
        <ele>1470.6</ele>
        <time>2015-06-28T06:30:57Z</time>
      </trkpt>
      <trkpt lat="42.33578" lon="8.89259">
        <ele>1469.2</ele>
        <time>2015-06-28T06:31:03Z</time>
      </trkpt>
      <trkpt lat="42.33577" lon="8.89265">
        <ele>1467.8</ele>
        <time>2015-06-28T06:31:09Z</time>
      </trkpt>
      <trkpt lat="42.33578" lon="8.8927">
        <ele>1467</ele>
        <time>2015-06-28T06:31:14Z</time>
      </trkpt>
      <trkpt lat="42.3358" lon="8.89277">
        <ele>1465</ele>
        <time>2015-06-28T06:31:23Z</time>
      </trkpt>
      <trkpt lat="42.33581" lon="8.89281">
        <ele>1464.4</ele>
        <time>2015-06-28T06:31:29Z</time>
      </trkpt>
      <trkpt lat="42.33581" lon="8.89285">
        <ele>1463.6</ele>
        <time>2015-06-28T06:31:34Z</time>
      </trkpt>
      <trkpt lat="42.33583" lon="8.89291">
        <ele>1462</ele>
        <time>2015-06-28T06:31:41Z</time>
      </trkpt>
      <trkpt lat="42.33584" lon="8.89299">
        <ele>1461</ele>
        <time>2015-06-28T06:31:48Z</time>
      </trkpt>
      <trkpt lat="42.33584" lon="8.89307">
        <ele>1459.6</ele>
        <time>2015-06-28T06:31:56Z</time>
      </trkpt>
      <trkpt lat="42.33586" lon="8.89314">
        <ele>1458.6</ele>
        <time>2015-06-28T06:32:02Z</time>
      </trkpt>
      <trkpt lat="42.33587" lon="8.8932">
        <ele>1457.4</ele>
        <time>2015-06-28T06:32:08Z</time>
      </trkpt>
      <trkpt lat="42.33587" lon="8.89321">
        <ele>1457.4</ele>
        <time>2015-06-28T06:32:09Z</time>
      </trkpt>
      <trkpt lat="42.33588" lon="8.89325">
        <ele>1456.6</ele>
        <time>2015-06-28T06:32:14Z</time>
      </trkpt>
      <trkpt lat="42.33588" lon="8.89327">
        <ele>1456.4</ele>
        <time>2015-06-28T06:32:15Z</time>
      </trkpt>
      <trkpt lat="42.33589" lon="8.89333">
        <ele>1455</ele>
        <time>2015-06-28T06:32:20Z</time>
      </trkpt>
      <trkpt lat="42.3359" lon="8.89338">
        <ele>1454.2</ele>
        <time>2015-06-28T06:32:25Z</time>
      </trkpt>
      <trkpt lat="42.33592" lon="8.89345">
        <ele>1453</ele>
        <time>2015-06-28T06:32:32Z</time>
      </trkpt>
      <trkpt lat="42.33594" lon="8.89352">
        <ele>1451.8</ele>
        <time>2015-06-28T06:32:40Z</time>
      </trkpt>
      <trkpt lat="42.33595" lon="8.8936">
        <ele>1450.8</ele>
        <time>2015-06-28T06:32:47Z</time>
      </trkpt>
      <trkpt lat="42.33596" lon="8.89366">
        <ele>1450.2</ele>
        <time>2015-06-28T06:32:52Z</time>
      </trkpt>
      <trkpt lat="42.33599" lon="8.8937">
        <ele>1449.2</ele>
        <time>2015-06-28T06:32:56Z</time>
      </trkpt>
      <trkpt lat="42.336" lon="8.89382">
        <ele>1448.2</ele>
        <time>2015-06-28T06:33:04Z</time>
      </trkpt>
      <trkpt lat="42.336" lon="8.89386">
        <ele>1448</ele>
        <time>2015-06-28T06:33:07Z</time>
      </trkpt>
      <trkpt lat="42.33603" lon="8.89392">
        <ele>1447.6</ele>
        <time>2015-06-28T06:33:12Z</time>
      </trkpt>
      <trkpt lat="42.33608" lon="8.89401">
        <ele>1447.6</ele>
        <time>2015-06-28T06:33:21Z</time>
      </trkpt>
      <trkpt lat="42.33614" lon="8.89418">
        <ele>1447.4</ele>
        <time>2015-06-28T06:33:36Z</time>
      </trkpt>
      <trkpt lat="42.33618" lon="8.89431">
        <ele>1446.4</ele>
        <time>2015-06-28T06:33:46Z</time>
      </trkpt>
      <trkpt lat="42.33619" lon="8.89438">
        <ele>1445.8</ele>
        <time>2015-06-28T06:33:53Z</time>
      </trkpt>
      <trkpt lat="42.33624" lon="8.89448">
        <ele>1444.2</ele>
        <time>2015-06-28T06:34:01Z</time>
      </trkpt>
      <trkpt lat="42.33628" lon="8.89458">
        <ele>1444</ele>
        <time>2015-06-28T06:34:10Z</time>
      </trkpt>
      <trkpt lat="42.33625" lon="8.89475">
        <ele>1443.6</ele>
        <time>2015-06-28T06:34:26Z</time>
      </trkpt>
      <trkpt lat="42.33625" lon="8.8949">
        <ele>1442</ele>
        <time>2015-06-28T06:34:39Z</time>
      </trkpt>
      <trkpt lat="42.33624" lon="8.89491">
        <ele>1442</ele>
        <time>2015-06-28T06:34:41Z</time>
      </trkpt>
      <trkpt lat="42.33623" lon="8.89495">
        <ele>1441.8</ele>
        <time>2015-06-28T06:34:45Z</time>
      </trkpt>
      <trkpt lat="42.33621" lon="8.89499">
        <ele>1441</ele>
        <time>2015-06-28T06:34:50Z</time>
      </trkpt>
      <trkpt lat="42.3362" lon="8.89502">
        <ele>1440.2</ele>
        <time>2015-06-28T06:34:54Z</time>
      </trkpt>
      <trkpt lat="42.33621" lon="8.89505">
        <ele>1439.2</ele>
        <time>2015-06-28T06:34:58Z</time>
      </trkpt>
      <trkpt lat="42.33622" lon="8.89507">
        <ele>1438</ele>
        <time>2015-06-28T06:35:02Z</time>
      </trkpt>
      <trkpt lat="42.33623" lon="8.8951">
        <ele>1437</ele>
        <time>2015-06-28T06:35:06Z</time>
      </trkpt>
      <trkpt lat="42.33628" lon="8.8954">
        <ele>1435.4</ele>
        <time>2015-06-28T06:35:38Z</time>
      </trkpt>
      <trkpt lat="42.33626" lon="8.89544">
        <ele>1434.8</ele>
        <time>2015-06-28T06:35:43Z</time>
      </trkpt>
      <trkpt lat="42.33624" lon="8.89547">
        <ele>1433.8</ele>
        <time>2015-06-28T06:35:48Z</time>
      </trkpt>
      <trkpt lat="42.33624" lon="8.89552">
        <ele>1432.4</ele>
        <time>2015-06-28T06:35:54Z</time>
      </trkpt>
      <trkpt lat="42.33627" lon="8.8956">
        <ele>1431.2</ele>
        <time>2015-06-28T06:36:01Z</time>
      </trkpt>
      <trkpt lat="42.33628" lon="8.89568">
        <ele>1430.4</ele>
        <time>2015-06-28T06:36:06Z</time>
      </trkpt>
      <trkpt lat="42.3363" lon="8.89576">
        <ele>1429.2</ele>
        <time>2015-06-28T06:36:12Z</time>
      </trkpt>
      <trkpt lat="42.33633" lon="8.89584">
        <ele>1428</ele>
        <time>2015-06-28T06:36:19Z</time>
      </trkpt>
      <trkpt lat="42.33634" lon="8.8959">
        <ele>1427</ele>
        <time>2015-06-28T06:36:25Z</time>
      </trkpt>
      <trkpt lat="42.33631" lon="8.89596">
        <ele>1426</ele>
        <time>2015-06-28T06:36:31Z</time>
      </trkpt>
      <trkpt lat="42.33631" lon="8.89607">
        <ele>1424.8</ele>
        <time>2015-06-28T06:36:38Z</time>
      </trkpt>
      <trkpt lat="42.33632" lon="8.8962">
        <ele>1423.8</ele>
        <time>2015-06-28T06:36:45Z</time>
      </trkpt>
      <trkpt lat="42.33632" lon="8.89629">
        <ele>1422.6</ele>
        <time>2015-06-28T06:36:52Z</time>
      </trkpt>
      <trkpt lat="42.33635" lon="8.89636">
        <ele>1421.8</ele>
        <time>2015-06-28T06:36:58Z</time>
      </trkpt>
      <trkpt lat="42.33643" lon="8.89659">
        <ele>1420</ele>
        <time>2015-06-28T06:37:20Z</time>
      </trkpt>
      <trkpt lat="42.33654" lon="8.89671">
        <ele>1420</ele>
        <time>2015-06-28T06:37:34Z</time>
      </trkpt>
      <trkpt lat="42.33658" lon="8.89675">
        <ele>1421</ele>
        <time>2015-06-28T06:37:40Z</time>
      </trkpt>
      <trkpt lat="42.33664" lon="8.89689">
        <ele>1423</ele>
        <time>2015-06-28T06:37:54Z</time>
      </trkpt>
      <trkpt lat="42.33674" lon="8.89707">
        <ele>1424.2</ele>
        <time>2015-06-28T06:38:14Z</time>
      </trkpt>
      <trkpt lat="42.33678" lon="8.89709">
        <ele>1424.8</ele>
        <time>2015-06-28T06:38:21Z</time>
      </trkpt>
      <trkpt lat="42.33682" lon="8.89715">
        <ele>1425.8</ele>
        <time>2015-06-28T06:38:29Z</time>
      </trkpt>
      <trkpt lat="42.33686" lon="8.89722">
        <ele>1427</ele>
        <time>2015-06-28T06:38:37Z</time>
      </trkpt>
      <trkpt lat="42.33688" lon="8.89732">
        <ele>1428.4</ele>
        <time>2015-06-28T06:38:46Z</time>
      </trkpt>
      <trkpt lat="42.33689" lon="8.89765">
        <ele>1430</ele>
        <time>2015-06-28T06:39:20Z</time>
      </trkpt>
      <trkpt lat="42.33694" lon="8.89773">
        <ele>1431</ele>
        <time>2015-06-28T06:39:29Z</time>
      </trkpt>
      <trkpt lat="42.33696" lon="8.89774">
        <ele>1431.2</ele>
        <time>2015-06-28T06:39:32Z</time>
      </trkpt>
      <trkpt lat="42.33698" lon="8.89791">
        <ele>1430.6</ele>
        <time>2015-06-28T06:40:31Z</time>
      </trkpt>
      <trkpt lat="42.33702" lon="8.89795">
        <ele>1430.2</ele>
        <time>2015-06-28T06:40:43Z</time>
      </trkpt>
      <trkpt lat="42.33702" lon="8.89798">
        <ele>1429.6</ele>
        <time>2015-06-28T06:40:49Z</time>
      </trkpt>
      <trkpt lat="42.33705" lon="8.89801">
        <ele>1428.2</ele>
        <time>2015-06-28T06:40:57Z</time>
      </trkpt>
      <trkpt lat="42.33708" lon="8.89802">
        <ele>1427</ele>
        <time>2015-06-28T06:41:20Z</time>
      </trkpt>
      <trkpt lat="42.33708" lon="8.89805">
        <ele>1426.8</ele>
        <time>2015-06-28T06:41:26Z</time>
      </trkpt>
      <trkpt lat="42.33712" lon="8.89806">
        <ele>1426</ele>
        <time>2015-06-28T06:41:31Z</time>
      </trkpt>
      <trkpt lat="42.33719" lon="8.89812">
        <ele>1424.2</ele>
        <time>2015-06-28T06:41:42Z</time>
      </trkpt>
      <trkpt lat="42.33721" lon="8.89819">
        <ele>1423.6</ele>
        <time>2015-06-28T06:41:48Z</time>
      </trkpt>
      <trkpt lat="42.3372" lon="8.89822">
        <ele>1423.8</ele>
        <time>2015-06-28T06:41:50Z</time>
      </trkpt>
      <trkpt lat="42.33721" lon="8.89826">
        <ele>1422.8</ele>
        <time>2015-06-28T06:41:53Z</time>
      </trkpt>
      <trkpt lat="42.33723" lon="8.89835">
        <ele>1421</ele>
        <time>2015-06-28T06:42:02Z</time>
      </trkpt>
      <trkpt lat="42.33741" lon="8.89866">
        <ele>1421.2</ele>
        <time>2015-06-28T06:42:44Z</time>
      </trkpt>
      <trkpt lat="42.33754" lon="8.89888">
        <ele>1422.8</ele>
        <time>2015-06-28T06:43:08Z</time>
      </trkpt>
      <trkpt lat="42.33757" lon="8.8989">
        <ele>1422.8</ele>
        <time>2015-06-28T06:43:12Z</time>
      </trkpt>
      <trkpt lat="42.33762" lon="8.89896">
        <ele>1423.2</ele>
        <time>2015-06-28T06:43:20Z</time>
      </trkpt>
      <trkpt lat="42.33762" lon="8.89904">
        <ele>1423</ele>
        <time>2015-06-28T06:43:28Z</time>
      </trkpt>
      <trkpt lat="42.33764" lon="8.89908">
        <ele>1422.6</ele>
        <time>2015-06-28T06:43:33Z</time>
      </trkpt>
      <trkpt lat="42.33765" lon="8.8991">
        <ele>1422.4</ele>
        <time>2015-06-28T06:43:35Z</time>
      </trkpt>
      <trkpt lat="42.33775" lon="8.89936">
        <ele>1422.2</ele>
        <time>2015-06-28T06:43:56Z</time>
      </trkpt>
      <trkpt lat="42.33778" lon="8.89941">
        <ele>1421.6</ele>
        <time>2015-06-28T06:44:01Z</time>
      </trkpt>
      <trkpt lat="42.33781" lon="8.89948">
        <ele>1420</ele>
        <time>2015-06-28T06:44:08Z</time>
      </trkpt>
      <trkpt lat="42.33784" lon="8.89966">
        <ele>1418.6</ele>
        <time>2015-06-28T06:44:20Z</time>
      </trkpt>
      <trkpt lat="42.33801" lon="8.90002">
        <ele>1418.6</ele>
        <time>2015-06-28T06:44:48Z</time>
      </trkpt>
      <trkpt lat="42.33806" lon="8.90018">
        <ele>1420</ele>
        <time>2015-06-28T06:45:04Z</time>
      </trkpt>
      <trkpt lat="42.33808" lon="8.9002">
        <ele>1420.2</ele>
        <time>2015-06-28T06:45:07Z</time>
      </trkpt>
      <trkpt lat="42.33814" lon="8.90043">
        <ele>1421.2</ele>
        <time>2015-06-28T06:45:30Z</time>
      </trkpt>
      <trkpt lat="42.33817" lon="8.90072">
        <ele>1420.8</ele>
        <time>2015-06-28T06:45:49Z</time>
      </trkpt>
      <trkpt lat="42.33817" lon="8.90078">
        <ele>1421.2</ele>
        <time>2015-06-28T06:45:55Z</time>
      </trkpt>
      <trkpt lat="42.33818" lon="8.90088">
        <ele>1421.2</ele>
        <time>2015-06-28T06:46:04Z</time>
      </trkpt>
      <trkpt lat="42.33832" lon="8.90144">
        <ele>1420.6</ele>
        <time>2015-06-28T06:46:51Z</time>
      </trkpt>
      <trkpt lat="42.33846" lon="8.90165">
        <ele>1419.6</ele>
        <time>2015-06-28T06:47:11Z</time>
      </trkpt>
      <trkpt lat="42.33848" lon="8.90181">
        <ele>1419</ele>
        <time>2015-06-28T06:47:25Z</time>
      </trkpt>
      <trkpt lat="42.33851" lon="8.90196">
        <ele>1418</ele>
        <time>2015-06-28T06:47:33Z</time>
      </trkpt>
      <trkpt lat="42.33853" lon="8.90202">
        <ele>1417.8</ele>
        <time>2015-06-28T06:47:38Z</time>
      </trkpt>
      <trkpt lat="42.33855" lon="8.90204">
        <ele>1417.8</ele>
        <time>2015-06-28T06:47:41Z</time>
      </trkpt>
      <trkpt lat="42.33856" lon="8.90207">
        <ele>1418.2</ele>
        <time>2015-06-28T06:47:44Z</time>
      </trkpt>
      <trkpt lat="42.3386" lon="8.90212">
        <ele>1419</ele>
        <time>2015-06-28T06:47:49Z</time>
      </trkpt>
      <trkpt lat="42.33861" lon="8.90214">
        <ele>1419.2</ele>
        <time>2015-06-28T06:47:52Z</time>
      </trkpt>
      <trkpt lat="42.33869" lon="8.90221">
        <ele>1419.2</ele>
        <time>2015-06-28T06:48:02Z</time>
      </trkpt>
      <trkpt lat="42.33871" lon="8.90221">
        <ele>1419.2</ele>
        <time>2015-06-28T06:48:04Z</time>
      </trkpt>
      <trkpt lat="42.33873" lon="8.90223">
        <ele>1419</ele>
        <time>2015-06-28T06:48:09Z</time>
      </trkpt>
      <trkpt lat="42.33878" lon="8.90227">
        <ele>1418.4</ele>
        <time>2015-06-28T06:48:14Z</time>
      </trkpt>
      <trkpt lat="42.33879" lon="8.90227">
        <ele>1417.8</ele>
        <time>2015-06-28T06:48:17Z</time>
      </trkpt>
      <trkpt lat="42.33884" lon="8.90231">
        <ele>1417.2</ele>
        <time>2015-06-28T06:48:26Z</time>
      </trkpt>
      <trkpt lat="42.3389" lon="8.90233">
        <ele>1416</ele>
        <time>2015-06-28T06:48:33Z</time>
      </trkpt>
      <trkpt lat="42.33902" lon="8.90236">
        <ele>1414.6</ele>
        <time>2015-06-28T06:48:41Z</time>
      </trkpt>
      <trkpt lat="42.33905" lon="8.90236">
        <ele>1414.2</ele>
        <time>2015-06-28T06:48:42Z</time>
      </trkpt>
      <trkpt lat="42.33908" lon="8.90236">
        <ele>1414.2</ele>
        <time>2015-06-28T06:48:45Z</time>
      </trkpt>
      <trkpt lat="42.33913" lon="8.90234">
        <ele>1413.6</ele>
        <time>2015-06-28T06:48:50Z</time>
      </trkpt>
      <trkpt lat="42.33914" lon="8.90234">
        <ele>1413.6</ele>
        <time>2015-06-28T06:48:51Z</time>
      </trkpt>
      <trkpt lat="42.33923" lon="8.90229">
        <ele>1412.2</ele>
        <time>2015-06-28T06:49:02Z</time>
      </trkpt>
      <trkpt lat="42.33929" lon="8.90229">
        <ele>1411.8</ele>
        <time>2015-06-28T06:49:09Z</time>
      </trkpt>
      <trkpt lat="42.33932" lon="8.90229">
        <ele>1411.8</ele>
        <time>2015-06-28T06:49:11Z</time>
      </trkpt>
      <trkpt lat="42.33951" lon="8.90222">
        <ele>1411</ele>
        <time>2015-06-28T06:49:25Z</time>
      </trkpt>
      <trkpt lat="42.33953" lon="8.9022">
        <ele>1411.4</ele>
        <time>2015-06-28T06:49:28Z</time>
      </trkpt>
      <trkpt lat="42.33955" lon="8.9022">
        <ele>1411.6</ele>
        <time>2015-06-28T06:49:30Z</time>
      </trkpt>
      <trkpt lat="42.33958" lon="8.90219">
        <ele>1411.4</ele>
        <time>2015-06-28T06:49:32Z</time>
      </trkpt>
      <trkpt lat="42.3396" lon="8.90217">
        <ele>1411.6</ele>
        <time>2015-06-28T06:49:34Z</time>
      </trkpt>
      <trkpt lat="42.33975" lon="8.90211">
        <ele>1411.4</ele>
        <time>2015-06-28T06:49:49Z</time>
      </trkpt>
      <trkpt lat="42.33985" lon="8.9021">
        <ele>1411.4</ele>
        <time>2015-06-28T06:49:58Z</time>
      </trkpt>
      <trkpt lat="42.33986" lon="8.90211">
        <ele>1411.2</ele>
        <time>2015-06-28T06:50:01Z</time>
      </trkpt>
      <trkpt lat="42.33989" lon="8.90212">
        <ele>1411</ele>
        <time>2015-06-28T06:50:06Z</time>
      </trkpt>
      <trkpt lat="42.33994" lon="8.90212">
        <ele>1409.8</ele>
        <time>2015-06-28T06:50:12Z</time>
      </trkpt>
      <trkpt lat="42.33995" lon="8.90213">
        <ele>1409.2</ele>
        <time>2015-06-28T06:50:15Z</time>
      </trkpt>
      <trkpt lat="42.33996" lon="8.90213">
        <ele>1409</ele>
        <time>2015-06-28T06:50:16Z</time>
      </trkpt>
      <trkpt lat="42.34" lon="8.90214">
        <ele>1408.4</ele>
        <time>2015-06-28T06:50:19Z</time>
      </trkpt>
      <trkpt lat="42.34004" lon="8.90214">
        <ele>1407.6</ele>
        <time>2015-06-28T06:50:22Z</time>
      </trkpt>
      <trkpt lat="42.34007" lon="8.90215">
        <ele>1407.4</ele>
        <time>2015-06-28T06:50:25Z</time>
      </trkpt>
      <trkpt lat="42.34009" lon="8.90215">
        <ele>1407</ele>
        <time>2015-06-28T06:50:27Z</time>
      </trkpt>
      <trkpt lat="42.34013" lon="8.90216">
        <ele>1406.6</ele>
        <time>2015-06-28T06:50:31Z</time>
      </trkpt>
      <trkpt lat="42.34014" lon="8.90216">
        <ele>1406.6</ele>
        <time>2015-06-28T06:50:32Z</time>
      </trkpt>
      <trkpt lat="42.34018" lon="8.90215">
        <ele>1406</ele>
        <time>2015-06-28T06:50:35Z</time>
      </trkpt>
      <trkpt lat="42.34019" lon="8.90215">
        <ele>1406</ele>
        <time>2015-06-28T06:50:36Z</time>
      </trkpt>
      <trkpt lat="42.3402" lon="8.90214">
        <ele>1405.8</ele>
        <time>2015-06-28T06:50:37Z</time>
      </trkpt>
      <trkpt lat="42.34022" lon="8.90214">
        <ele>1405.2</ele>
        <time>2015-06-28T06:50:39Z</time>
      </trkpt>
      <trkpt lat="42.34032" lon="8.9021">
        <ele>1404</ele>
        <time>2015-06-28T06:50:45Z</time>
      </trkpt>
      <trkpt lat="42.34032" lon="8.90209">
        <ele>1404</ele>
        <time>2015-06-28T06:50:47Z</time>
      </trkpt>
      <trkpt lat="42.34043" lon="8.90201">
        <ele>1405</ele>
        <time>2015-06-28T06:50:59Z</time>
      </trkpt>
      <trkpt lat="42.34056" lon="8.9019">
        <ele>1406.2</ele>
        <time>2015-06-28T06:51:24Z</time>
      </trkpt>
      <trkpt lat="42.34059" lon="8.9019">
        <ele>1406.2</ele>
        <time>2015-06-28T06:51:26Z</time>
      </trkpt>
      <trkpt lat="42.34061" lon="8.90188">
        <ele>1406</ele>
        <time>2015-06-28T06:51:29Z</time>
      </trkpt>
      <trkpt lat="42.34064" lon="8.90187">
        <ele>1406.2</ele>
        <time>2015-06-28T06:51:32Z</time>
      </trkpt>
      <trkpt lat="42.34068" lon="8.90189">
        <ele>1406.6</ele>
        <time>2015-06-28T06:51:35Z</time>
      </trkpt>
      <trkpt lat="42.34078" lon="8.90192">
        <ele>1407.4</ele>
        <time>2015-06-28T06:51:41Z</time>
      </trkpt>
      <trkpt lat="42.34086" lon="8.90198">
        <ele>1407.8</ele>
        <time>2015-06-28T06:51:51Z</time>
      </trkpt>
      <trkpt lat="42.34092" lon="8.90203">
        <ele>1408.6</ele>
        <time>2015-06-28T06:51:59Z</time>
      </trkpt>
      <trkpt lat="42.34096" lon="8.90197">
        <ele>1409.6</ele>
        <time>2015-06-28T06:52:08Z</time>
      </trkpt>
      <trkpt lat="42.34098" lon="8.90196">
        <ele>1411</ele>
        <time>2015-06-28T06:52:15Z</time>
      </trkpt>
      <trkpt lat="42.34101" lon="8.90198">
        <ele>1412</ele>
        <time>2015-06-28T06:52:22Z</time>
      </trkpt>
      <trkpt lat="42.34105" lon="8.90197">
        <ele>1413.2</ele>
        <time>2015-06-28T06:52:29Z</time>
      </trkpt>
      <trkpt lat="42.34109" lon="8.90195">
        <ele>1414.4</ele>
        <time>2015-06-28T06:52:36Z</time>
      </trkpt>
      <trkpt lat="42.34112" lon="8.90196">
        <ele>1415.4</ele>
        <time>2015-06-28T06:52:43Z</time>
      </trkpt>
      <trkpt lat="42.34115" lon="8.90197">
        <ele>1416.8</ele>
        <time>2015-06-28T06:52:52Z</time>
      </trkpt>
      <trkpt lat="42.34119" lon="8.90199">
        <ele>1417.6</ele>
        <time>2015-06-28T06:52:57Z</time>
      </trkpt>
      <trkpt lat="42.34121" lon="8.902">
        <ele>1418.4</ele>
        <time>2015-06-28T06:53:00Z</time>
      </trkpt>
      <trkpt lat="42.34132" lon="8.902">
        <ele>1419.4</ele>
        <time>2015-06-28T06:53:21Z</time>
      </trkpt>
      <trkpt lat="42.34138" lon="8.902">
        <ele>1418.8</ele>
        <time>2015-06-28T06:53:25Z</time>
      </trkpt>
      <trkpt lat="42.34139" lon="8.90201">
        <ele>1418.6</ele>
        <time>2015-06-28T06:53:26Z</time>
      </trkpt>
      <trkpt lat="42.34143" lon="8.90199">
        <ele>1417.4</ele>
        <time>2015-06-28T06:53:31Z</time>
      </trkpt>
      <trkpt lat="42.3415" lon="8.90195">
        <ele>1415.6</ele>
        <time>2015-06-28T06:53:43Z</time>
      </trkpt>
      <trkpt lat="42.34157" lon="8.90194">
        <ele>1415</ele>
        <time>2015-06-28T06:53:53Z</time>
      </trkpt>
      <trkpt lat="42.34158" lon="8.90196">
        <ele>1414.8</ele>
        <time>2015-06-28T06:53:57Z</time>
      </trkpt>
      <trkpt lat="42.34161" lon="8.90196">
        <ele>1413.6</ele>
        <time>2015-06-28T06:54:02Z</time>
      </trkpt>
      <trkpt lat="42.34163" lon="8.90194">
        <ele>1412.4</ele>
        <time>2015-06-28T06:54:07Z</time>
      </trkpt>
      <trkpt lat="42.34164" lon="8.90193">
        <ele>1411.2</ele>
        <time>2015-06-28T06:54:12Z</time>
      </trkpt>
      <trkpt lat="42.34164" lon="8.90191">
        <ele>1410.2</ele>
        <time>2015-06-28T06:54:17Z</time>
      </trkpt>
      <trkpt lat="42.34166" lon="8.9019">
        <ele>1409</ele>
        <time>2015-06-28T06:54:22Z</time>
      </trkpt>
      <trkpt lat="42.34171" lon="8.90187">
        <ele>1408</ele>
        <time>2015-06-28T06:54:27Z</time>
      </trkpt>
      <trkpt lat="42.34172" lon="8.90186">
        <ele>1407.8</ele>
        <time>2015-06-28T06:54:29Z</time>
      </trkpt>
      <trkpt lat="42.34174" lon="8.90184">
        <ele>1407.2</ele>
        <time>2015-06-28T06:54:32Z</time>
      </trkpt>
      <trkpt lat="42.34179" lon="8.90181">
        <ele>1405.8</ele>
        <time>2015-06-28T06:54:39Z</time>
      </trkpt>
      <trkpt lat="42.34188" lon="8.90174">
        <ele>1404.4</ele>
        <time>2015-06-28T06:54:50Z</time>
      </trkpt>
      <trkpt lat="42.3419" lon="8.90174">
        <ele>1404.2</ele>
        <time>2015-06-28T06:54:52Z</time>
      </trkpt>
      <trkpt lat="42.34224" lon="8.90143">
        <ele>1403.6</ele>
        <time>2015-06-28T06:55:31Z</time>
      </trkpt>
      <trkpt lat="42.34233" lon="8.90135">
        <ele>1403.2</ele>
        <time>2015-06-28T06:55:37Z</time>
      </trkpt>
      <trkpt lat="42.34237" lon="8.90129">
        <ele>1403.2</ele>
        <time>2015-06-28T06:55:41Z</time>
      </trkpt>
      <trkpt lat="42.34238" lon="8.90127">
        <ele>1403</ele>
        <time>2015-06-28T06:55:43Z</time>
      </trkpt>
      <trkpt lat="42.34242" lon="8.9012">
        <ele>1403.4</ele>
        <time>2015-06-28T06:55:49Z</time>
      </trkpt>
      <trkpt lat="42.34243" lon="8.90117">
        <ele>1403.6</ele>
        <time>2015-06-28T06:55:51Z</time>
      </trkpt>
      <trkpt lat="42.34243" lon="8.90116">
        <ele>1403.4</ele>
        <time>2015-06-28T06:55:53Z</time>
      </trkpt>
      <trkpt lat="42.34257" lon="8.90095">
        <ele>1403.4</ele>
        <time>2015-06-28T06:56:12Z</time>
      </trkpt>
      <trkpt lat="42.34257" lon="8.90093">
        <ele>1403.6</ele>
        <time>2015-06-28T06:56:15Z</time>
      </trkpt>
      <trkpt lat="42.34256" lon="8.90092">
        <ele>1403.8</ele>
        <time>2015-06-28T06:56:18Z</time>
      </trkpt>
      <trkpt lat="42.34259" lon="8.9009">
        <ele>1404.4</ele>
        <time>2015-06-28T06:56:23Z</time>
      </trkpt>
      <trkpt lat="42.34261" lon="8.90082">
        <ele>1405.8</ele>
        <time>2015-06-28T06:56:31Z</time>
      </trkpt>
      <trkpt lat="42.34267" lon="8.90072">
        <ele>1407</ele>
        <time>2015-06-28T06:56:40Z</time>
      </trkpt>
      <trkpt lat="42.34267" lon="8.90071">
        <ele>1407</ele>
        <time>2015-06-28T06:56:42Z</time>
      </trkpt>
      <trkpt lat="42.34272" lon="8.90061">
        <ele>1406.6</ele>
        <time>2015-06-28T06:56:56Z</time>
      </trkpt>
      <trkpt lat="42.34271" lon="8.90057">
        <ele>1405.2</ele>
        <time>2015-06-28T06:57:09Z</time>
      </trkpt>
      <trkpt lat="42.34275" lon="8.90057">
        <ele>1405</ele>
        <time>2015-06-28T06:57:14Z</time>
      </trkpt>
      <trkpt lat="42.34279" lon="8.90056">
        <ele>1404</ele>
        <time>2015-06-28T06:57:18Z</time>
      </trkpt>
      <trkpt lat="42.34286" lon="8.90052">
        <ele>1402.4</ele>
        <time>2015-06-28T06:57:25Z</time>
      </trkpt>
      <trkpt lat="42.34296" lon="8.90051">
        <ele>1400.6</ele>
        <time>2015-06-28T06:57:39Z</time>
      </trkpt>
      <trkpt lat="42.34299" lon="8.90054">
        <ele>1400.2</ele>
        <time>2015-06-28T06:57:46Z</time>
      </trkpt>
      <trkpt lat="42.34304" lon="8.90054">
        <ele>1399.8</ele>
        <time>2015-06-28T06:57:50Z</time>
      </trkpt>
      <trkpt lat="42.34308" lon="8.9005">
        <ele>1400</ele>
        <time>2015-06-28T06:58:01Z</time>
      </trkpt>
      <trkpt lat="42.34321" lon="8.90029">
        <ele>1401.4</ele>
        <time>2015-06-28T06:58:57Z</time>
      </trkpt>
      <trkpt lat="42.34339" lon="8.90038">
        <ele>1402.4</ele>
        <time>2015-06-28T06:59:28Z</time>
      </trkpt>
      <trkpt lat="42.34367" lon="8.90087">
        <ele>1402.8</ele>
        <time>2015-06-28T07:00:21Z</time>
      </trkpt>
      <trkpt lat="42.34371" lon="8.90091">
        <ele>1402.6</ele>
        <time>2015-06-28T07:00:25Z</time>
      </trkpt>
      <trkpt lat="42.34365" lon="8.901">
        <ele>1402.4</ele>
        <time>2015-06-28T07:01:07Z</time>
      </trkpt>
      <trkpt lat="42.34374" lon="8.90106">
        <ele>1401.4</ele>
        <time>2015-06-28T07:01:20Z</time>
      </trkpt>
      <trkpt lat="42.34378" lon="8.90111">
        <ele>1400.6</ele>
        <time>2015-06-28T07:01:52Z</time>
      </trkpt>
      <trkpt lat="42.34374" lon="8.90117">
        <ele>1400.2</ele>
        <time>2015-06-28T07:01:59Z</time>
      </trkpt>
      <trkpt lat="42.34374" lon="8.90124">
        <ele>1399.8</ele>
        <time>2015-06-28T07:02:05Z</time>
      </trkpt>
      <trkpt lat="42.34376" lon="8.90129">
        <ele>1398.8</ele>
        <time>2015-06-28T07:02:11Z</time>
      </trkpt>
      <trkpt lat="42.34394" lon="8.90128">
        <ele>1396.8</ele>
        <time>2015-06-28T07:02:47Z</time>
      </trkpt>
      <trkpt lat="42.34395" lon="8.90128">
        <ele>1397</ele>
        <time>2015-06-28T07:02:49Z</time>
      </trkpt>
      <trkpt lat="42.34411" lon="8.90148">
        <ele>1396.8</ele>
        <time>2015-06-28T07:03:25Z</time>
      </trkpt>
      <trkpt lat="42.34419" lon="8.90194">
        <ele>1396.4</ele>
        <time>2015-06-28T07:04:08Z</time>
      </trkpt>
      <trkpt lat="42.34422" lon="8.90194">
        <ele>1397.8</ele>
        <time>2015-06-28T07:04:15Z</time>
      </trkpt>
      <trkpt lat="42.34424" lon="8.90198">
        <ele>1398.8</ele>
        <time>2015-06-28T07:04:22Z</time>
      </trkpt>
      <trkpt lat="42.34427" lon="8.90206">
        <ele>1400</ele>
        <time>2015-06-28T07:04:30Z</time>
      </trkpt>
      <trkpt lat="42.3443" lon="8.90222">
        <ele>1401.2</ele>
        <time>2015-06-28T07:04:44Z</time>
      </trkpt>
      <trkpt lat="42.34438" lon="8.90247">
        <ele>1402</ele>
        <time>2015-06-28T07:05:07Z</time>
      </trkpt>
      <trkpt lat="42.34441" lon="8.9025">
        <ele>1402.4</ele>
        <time>2015-06-28T07:05:12Z</time>
      </trkpt>
      <trkpt lat="42.34447" lon="8.90272">
        <ele>1403.8</ele>
        <time>2015-06-28T07:05:33Z</time>
      </trkpt>
      <trkpt lat="42.34451" lon="8.90282">
        <ele>1404.8</ele>
        <time>2015-06-28T07:05:42Z</time>
      </trkpt>
      <trkpt lat="42.3446" lon="8.90306">
        <ele>1406.2</ele>
        <time>2015-06-28T07:06:07Z</time>
      </trkpt>
      <trkpt lat="42.34465" lon="8.90315">
        <ele>1407</ele>
        <time>2015-06-28T07:06:17Z</time>
      </trkpt>
      <trkpt lat="42.34471" lon="8.90324">
        <ele>1408</ele>
        <time>2015-06-28T07:06:28Z</time>
      </trkpt>
      <trkpt lat="42.3448" lon="8.9033">
        <ele>1409.6</ele>
        <time>2015-06-28T07:06:42Z</time>
      </trkpt>
      <trkpt lat="42.34486" lon="8.90346">
        <ele>1411</ele>
        <time>2015-06-28T07:06:59Z</time>
      </trkpt>
      <trkpt lat="42.34496" lon="8.90357">
        <ele>1411.6</ele>
        <time>2015-06-28T07:07:15Z</time>
      </trkpt>
      <trkpt lat="42.345" lon="8.90359">
        <ele>1412.2</ele>
        <time>2015-06-28T07:07:20Z</time>
      </trkpt>
      <trkpt lat="42.34509" lon="8.90365">
        <ele>1414.2</ele>
        <time>2015-06-28T07:07:30Z</time>
      </trkpt>
      <trkpt lat="42.3452" lon="8.90365">
        <ele>1414.8</ele>
        <time>2015-06-28T07:07:47Z</time>
      </trkpt>
      <trkpt lat="42.34541" lon="8.90371">
        <ele>1414.4</ele>
        <time>2015-06-28T07:08:18Z</time>
      </trkpt>
      <trkpt lat="42.34546" lon="8.90371">
        <ele>1414.2</ele>
        <time>2015-06-28T07:08:22Z</time>
      </trkpt>
      <trkpt lat="42.34548" lon="8.90371">
        <ele>1414.4</ele>
        <time>2015-06-28T07:08:24Z</time>
      </trkpt>
      <trkpt lat="42.34552" lon="8.90372">
        <ele>1414.6</ele>
        <time>2015-06-28T07:08:29Z</time>
      </trkpt>
      <trkpt lat="42.34557" lon="8.90374">
        <ele>1415.2</ele>
        <time>2015-06-28T07:08:33Z</time>
      </trkpt>
      <trkpt lat="42.34571" lon="8.90381">
        <ele>1416</ele>
        <time>2015-06-28T07:08:46Z</time>
      </trkpt>
      <trkpt lat="42.34573" lon="8.90383">
        <ele>1415.6</ele>
        <time>2015-06-28T07:08:50Z</time>
      </trkpt>
      <trkpt lat="42.34576" lon="8.90389">
        <ele>1415</ele>
        <time>2015-06-28T07:08:54Z</time>
      </trkpt>
      <trkpt lat="42.34581" lon="8.90398">
        <ele>1414</ele>
        <time>2015-06-28T07:09:01Z</time>
      </trkpt>
      <trkpt lat="42.34586" lon="8.90401">
        <ele>1413</ele>
        <time>2015-06-28T07:09:07Z</time>
      </trkpt>
      <trkpt lat="42.34595" lon="8.90404">
        <ele>1413.6</ele>
        <time>2015-06-28T07:09:21Z</time>
      </trkpt>
      <trkpt lat="42.34598" lon="8.90403">
        <ele>1414.2</ele>
        <time>2015-06-28T07:09:28Z</time>
      </trkpt>
      <trkpt lat="42.34601" lon="8.90402">
        <ele>1415.2</ele>
        <time>2015-06-28T07:09:34Z</time>
      </trkpt>
      <trkpt lat="42.3461" lon="8.90406">
        <ele>1416.8</ele>
        <time>2015-06-28T07:09:45Z</time>
      </trkpt>
      <trkpt lat="42.34623" lon="8.90444">
        <ele>1418.2</ele>
        <time>2015-06-28T07:10:24Z</time>
      </trkpt>
      <trkpt lat="42.34624" lon="8.90445">
        <ele>1418</ele>
        <time>2015-06-28T07:10:26Z</time>
      </trkpt>
      <trkpt lat="42.34635" lon="8.90458">
        <ele>1418.2</ele>
        <time>2015-06-28T07:10:41Z</time>
      </trkpt>
      <trkpt lat="42.34636" lon="8.90458">
        <ele>1418.2</ele>
        <time>2015-06-28T07:10:42Z</time>
      </trkpt>
      <trkpt lat="42.34637" lon="8.90459">
        <ele>1418.4</ele>
        <time>2015-06-28T07:10:44Z</time>
      </trkpt>
      <trkpt lat="42.3464" lon="8.90463">
        <ele>1419.2</ele>
        <time>2015-06-28T07:10:51Z</time>
      </trkpt>
      <trkpt lat="42.34643" lon="8.90465">
        <ele>1420</ele>
        <time>2015-06-28T07:10:57Z</time>
      </trkpt>
      <trkpt lat="42.34648" lon="8.90471">
        <ele>1421.6</ele>
        <time>2015-06-28T07:11:06Z</time>
      </trkpt>
      <trkpt lat="42.34651" lon="8.90474">
        <ele>1422</ele>
        <time>2015-06-28T07:11:10Z</time>
      </trkpt>
      <trkpt lat="42.34652" lon="8.90476">
        <ele>1422.2</ele>
        <time>2015-06-28T07:11:12Z</time>
      </trkpt>
      <trkpt lat="42.34653" lon="8.90483">
        <ele>1424</ele>
        <time>2015-06-28T07:11:22Z</time>
      </trkpt>
      <trkpt lat="42.34659" lon="8.90487">
        <ele>1424.8</ele>
        <time>2015-06-28T07:11:32Z</time>
      </trkpt>
      <trkpt lat="42.34668" lon="8.90497">
        <ele>1426.2</ele>
        <time>2015-06-28T07:11:49Z</time>
      </trkpt>
      <trkpt lat="42.34669" lon="8.90498">
        <ele>1426.4</ele>
        <time>2015-06-28T07:11:51Z</time>
      </trkpt>
      <trkpt lat="42.34673" lon="8.90498">
        <ele>1427</ele>
        <time>2015-06-28T07:11:58Z</time>
      </trkpt>
      <trkpt lat="42.34677" lon="8.90499">
        <ele>1428.4</ele>
        <time>2015-06-28T07:12:07Z</time>
      </trkpt>
      <trkpt lat="42.3468" lon="8.905">
        <ele>1428.8</ele>
        <time>2015-06-28T07:12:10Z</time>
      </trkpt>
      <trkpt lat="42.34682" lon="8.90502">
        <ele>1429</ele>
        <time>2015-06-28T07:12:14Z</time>
      </trkpt>
      <trkpt lat="42.34688" lon="8.90506">
        <ele>1430.4</ele>
        <time>2015-06-28T07:12:21Z</time>
      </trkpt>
      <trkpt lat="42.34689" lon="8.90506">
        <ele>1430.6</ele>
        <time>2015-06-28T07:12:23Z</time>
      </trkpt>
      <trkpt lat="42.34693" lon="8.90508">
        <ele>1431.4</ele>
        <time>2015-06-28T07:12:30Z</time>
      </trkpt>
      <trkpt lat="42.34698" lon="8.90512">
        <ele>1432.6</ele>
        <time>2015-06-28T07:12:38Z</time>
      </trkpt>
      <trkpt lat="42.34708" lon="8.90516">
        <ele>1434</ele>
        <time>2015-06-28T07:12:51Z</time>
      </trkpt>
      <trkpt lat="42.34719" lon="8.90524">
        <ele>1434.8</ele>
        <time>2015-06-28T07:13:07Z</time>
      </trkpt>
      <trkpt lat="42.34726" lon="8.90528">
        <ele>1435</ele>
        <time>2015-06-28T07:13:15Z</time>
      </trkpt>
      <trkpt lat="42.34745" lon="8.90541">
        <ele>1436</ele>
        <time>2015-06-28T07:13:35Z</time>
      </trkpt>
      <trkpt lat="42.34751" lon="8.90544">
        <ele>1437</ele>
        <time>2015-06-28T07:13:43Z</time>
      </trkpt>
      <trkpt lat="42.34755" lon="8.90547">
        <ele>1438.2</ele>
        <time>2015-06-28T07:13:51Z</time>
      </trkpt>
      <trkpt lat="42.34755" lon="8.90549">
        <ele>1439</ele>
        <time>2015-06-28T07:13:58Z</time>
      </trkpt>
      <trkpt lat="42.34767" lon="8.90554">
        <ele>1440.8</ele>
        <time>2015-06-28T07:14:14Z</time>
      </trkpt>
      <trkpt lat="42.34783" lon="8.90571">
        <ele>1441.2</ele>
        <time>2015-06-28T07:14:40Z</time>
      </trkpt>
      <trkpt lat="42.34798" lon="8.90598">
        <ele>1441.8</ele>
        <time>2015-06-28T07:15:09Z</time>
      </trkpt>
      <trkpt lat="42.34802" lon="8.90605">
        <ele>1439.6</ele>
        <time>2015-06-28T07:15:19Z</time>
      </trkpt>
      <trkpt lat="42.34803" lon="8.9061">
        <ele>1439.2</ele>
        <time>2015-06-28T07:15:26Z</time>
      </trkpt>
      <trkpt lat="42.34807" lon="8.90615">
        <ele>1438.2</ele>
        <time>2015-06-28T07:15:33Z</time>
      </trkpt>
      <trkpt lat="42.34814" lon="8.90623">
        <ele>1437</ele>
        <time>2015-06-28T07:15:48Z</time>
      </trkpt>
      <trkpt lat="42.34817" lon="8.90627">
        <ele>1436.4</ele>
        <time>2015-06-28T07:15:58Z</time>
      </trkpt>
      <trkpt lat="42.34825" lon="8.90633">
        <ele>1435.6</ele>
        <time>2015-06-28T07:16:11Z</time>
      </trkpt>
      <trkpt lat="42.34833" lon="8.90637">
        <ele>1434.6</ele>
        <time>2015-06-28T07:16:27Z</time>
      </trkpt>
      <trkpt lat="42.3485" lon="8.9064">
        <ele>1433.4</ele>
        <time>2015-06-28T07:16:54Z</time>
      </trkpt>
      <trkpt lat="42.34852" lon="8.9064">
        <ele>1433.8</ele>
        <time>2015-06-28T07:16:58Z</time>
      </trkpt>
      <trkpt lat="42.34864" lon="8.90639">
        <ele>1435.8</ele>
        <time>2015-06-28T07:17:15Z</time>
      </trkpt>
      <trkpt lat="42.34875" lon="8.9064">
        <ele>1435.6</ele>
        <time>2015-06-28T07:17:26Z</time>
      </trkpt>
      <trkpt lat="42.34901" lon="8.90642">
        <ele>1434.6</ele>
        <time>2015-06-28T07:18:05Z</time>
      </trkpt>
      <trkpt lat="42.34908" lon="8.90643">
        <ele>1434.6</ele>
        <time>2015-06-28T07:18:12Z</time>
      </trkpt>
      <trkpt lat="42.34923" lon="8.90647">
        <ele>1433.4</ele>
        <time>2015-06-28T07:18:27Z</time>
      </trkpt>
      <trkpt lat="42.34928" lon="8.9065">
        <ele>1432.2</ele>
        <time>2015-06-28T07:18:39Z</time>
      </trkpt>
      <trkpt lat="42.34934" lon="8.90653">
        <ele>1431.4</ele>
        <time>2015-06-28T07:18:52Z</time>
      </trkpt>
      <trkpt lat="42.34935" lon="8.90653">
        <ele>1430.8</ele>
        <time>2015-06-28T07:18:58Z</time>
      </trkpt>
      <trkpt lat="42.34978" lon="8.90674">
        <ele>1429.4</ele>
        <time>2015-06-28T07:19:39Z</time>
      </trkpt>
      <trkpt lat="42.35011" lon="8.90664">
        <ele>1430</ele>
        <time>2015-06-28T07:20:39Z</time>
      </trkpt>
      <trkpt lat="42.35012" lon="8.90662">
        <ele>1430.2</ele>
        <time>2015-06-28T07:20:42Z</time>
      </trkpt>
      <trkpt lat="42.35014" lon="8.90658">
        <ele>1430.8</ele>
        <time>2015-06-28T07:20:50Z</time>
      </trkpt>
      <trkpt lat="42.35018" lon="8.90658">
        <ele>1431.6</ele>
        <time>2015-06-28T07:20:56Z</time>
      </trkpt>
      <trkpt lat="42.35027" lon="8.9066">
        <ele>1432.8</ele>
        <time>2015-06-28T07:21:07Z</time>
      </trkpt>
      <trkpt lat="42.35034" lon="8.90662">
        <ele>1433</ele>
        <time>2015-06-28T07:21:15Z</time>
      </trkpt>
      <trkpt lat="42.35034" lon="8.90662">
        <ele>1433</ele>
        <time>2015-06-28T07:21:16Z</time>
      </trkpt>
      <trkpt lat="42.35044" lon="8.90659">
        <ele>1434.2</ele>
        <time>2015-06-28T07:21:27Z</time>
      </trkpt>
      <trkpt lat="42.35047" lon="8.90658">
        <ele>1434.8</ele>
        <time>2015-06-28T07:21:30Z</time>
      </trkpt>
      <trkpt lat="42.35049" lon="8.90659">
        <ele>1434.8</ele>
        <time>2015-06-28T07:21:32Z</time>
      </trkpt>
      <trkpt lat="42.35064" lon="8.90661">
        <ele>1435.2</ele>
        <time>2015-06-28T07:21:48Z</time>
      </trkpt>
      <trkpt lat="42.35069" lon="8.90665">
        <ele>1436.4</ele>
        <time>2015-06-28T07:21:59Z</time>
      </trkpt>
      <trkpt lat="42.35076" lon="8.90665">
        <ele>1437.4</ele>
        <time>2015-06-28T07:22:09Z</time>
      </trkpt>
      <trkpt lat="42.35086" lon="8.90669">
        <ele>1438.8</ele>
        <time>2015-06-28T07:22:22Z</time>
      </trkpt>
      <trkpt lat="42.35088" lon="8.9067">
        <ele>1439.4</ele>
        <time>2015-06-28T07:22:32Z</time>
      </trkpt>
      <trkpt lat="42.35094" lon="8.90677">
        <ele>1440</ele>
        <time>2015-06-28T07:22:41Z</time>
      </trkpt>
      <trkpt lat="42.35101" lon="8.90679">
        <ele>1440.4</ele>
        <time>2015-06-28T07:22:54Z</time>
      </trkpt>
      <trkpt lat="42.35114" lon="8.9069">
        <ele>1440.6</ele>
        <time>2015-06-28T07:23:21Z</time>
      </trkpt>
      <trkpt lat="42.35119" lon="8.90693">
        <ele>1440</ele>
        <time>2015-06-28T07:23:28Z</time>
      </trkpt>
      <trkpt lat="42.35126" lon="8.90702">
        <ele>1439</ele>
        <time>2015-06-28T07:23:44Z</time>
      </trkpt>
      <trkpt lat="42.35138" lon="8.90709">
        <ele>1437.6</ele>
        <time>2015-06-28T07:23:59Z</time>
      </trkpt>
      <trkpt lat="42.35139" lon="8.9071">
        <ele>1437.4</ele>
        <time>2015-06-28T07:24:00Z</time>
      </trkpt>
      <trkpt lat="42.35143" lon="8.90713">
        <ele>1437</ele>
        <time>2015-06-28T07:24:06Z</time>
      </trkpt>
      <trkpt lat="42.35152" lon="8.90716">
        <ele>1436.2</ele>
        <time>2015-06-28T07:24:21Z</time>
      </trkpt>
      <trkpt lat="42.35158" lon="8.90716">
        <ele>1437.6</ele>
        <time>2015-06-28T07:24:33Z</time>
      </trkpt>
      <trkpt lat="42.35163" lon="8.90718">
        <ele>1438.6</ele>
        <time>2015-06-28T07:24:43Z</time>
      </trkpt>
      <trkpt lat="42.35174" lon="8.90722">
        <ele>1439.6</ele>
        <time>2015-06-28T07:24:58Z</time>
      </trkpt>
      <trkpt lat="42.3518" lon="8.90719">
        <ele>1441</ele>
        <time>2015-06-28T07:25:11Z</time>
      </trkpt>
      <trkpt lat="42.35186" lon="8.90717">
        <ele>1441.6</ele>
        <time>2015-06-28T07:25:20Z</time>
      </trkpt>
      <trkpt lat="42.3519" lon="8.90716">
        <ele>1442.8</ele>
        <time>2015-06-28T07:25:28Z</time>
      </trkpt>
      <trkpt lat="42.35196" lon="8.90718">
        <ele>1443.8</ele>
        <time>2015-06-28T07:25:38Z</time>
      </trkpt>
      <trkpt lat="42.3521" lon="8.90735">
        <ele>1444.8</ele>
        <time>2015-06-28T07:26:03Z</time>
      </trkpt>
      <trkpt lat="42.3521" lon="8.90739">
        <ele>1445</ele>
        <time>2015-06-28T07:26:07Z</time>
      </trkpt>
      <trkpt lat="42.35213" lon="8.90742">
        <ele>1446.4</ele>
        <time>2015-06-28T07:26:15Z</time>
      </trkpt>
      <trkpt lat="42.35218" lon="8.90741">
        <ele>1447.4</ele>
        <time>2015-06-28T07:26:25Z</time>
      </trkpt>
      <trkpt lat="42.35222" lon="8.90737">
        <ele>1448.8</ele>
        <time>2015-06-28T07:26:37Z</time>
      </trkpt>
      <trkpt lat="42.35226" lon="8.90737">
        <ele>1449.2</ele>
        <time>2015-06-28T07:26:46Z</time>
      </trkpt>
      <trkpt lat="42.35228" lon="8.90738">
        <ele>1450.8</ele>
        <time>2015-06-28T07:26:57Z</time>
      </trkpt>
      <trkpt lat="42.35232" lon="8.90736">
        <ele>1451.8</ele>
        <time>2015-06-28T07:27:05Z</time>
      </trkpt>
      <trkpt lat="42.35239" lon="8.90736">
        <ele>1453</ele>
        <time>2015-06-28T07:27:22Z</time>
      </trkpt>
      <trkpt lat="42.35242" lon="8.90741">
        <ele>1454.2</ele>
        <time>2015-06-28T07:27:31Z</time>
      </trkpt>
      <trkpt lat="42.35246" lon="8.90742">
        <ele>1455.2</ele>
        <time>2015-06-28T07:27:39Z</time>
      </trkpt>
      <trkpt lat="42.35249" lon="8.90744">
        <ele>1456.2</ele>
        <time>2015-06-28T07:27:48Z</time>
      </trkpt>
      <trkpt lat="42.35253" lon="8.90748">
        <ele>1457.2</ele>
        <time>2015-06-28T07:27:55Z</time>
      </trkpt>
      <trkpt lat="42.35258" lon="8.90748">
        <ele>1458.6</ele>
        <time>2015-06-28T07:28:04Z</time>
      </trkpt>
      <trkpt lat="42.35263" lon="8.90748">
        <ele>1459.4</ele>
        <time>2015-06-28T07:28:12Z</time>
      </trkpt>
      <trkpt lat="42.3529" lon="8.90768">
        <ele>1461</ele>
        <time>2015-06-28T07:29:09Z</time>
      </trkpt>
      <trkpt lat="42.35288" lon="8.90774">
        <ele>1462</ele>
        <time>2015-06-28T07:29:16Z</time>
      </trkpt>
      <trkpt lat="42.35289" lon="8.9078">
        <ele>1463.4</ele>
        <time>2015-06-28T07:29:25Z</time>
      </trkpt>
      <trkpt lat="42.35292" lon="8.9079">
        <ele>1464.2</ele>
        <time>2015-06-28T07:31:31Z</time>
      </trkpt>
      <trkpt lat="42.3529" lon="8.90791">
        <ele>1464.8</ele>
        <time>2015-06-28T07:34:05Z</time>
      </trkpt>
      <trkpt lat="42.35287" lon="8.90791">
        <ele>1464.4</ele>
        <time>2015-06-28T07:35:36Z</time>
      </trkpt>
      <trkpt lat="42.35327" lon="8.90793">
        <ele>1471.8</ele>
        <time>2015-06-28T08:13:36Z</time>
      </trkpt>
      <trkpt lat="42.35336" lon="8.90797">
        <ele>1472.8</ele>
        <time>2015-06-28T08:13:57Z</time>
      </trkpt>
      <trkpt lat="42.35337" lon="8.90802">
        <ele>1473.8</ele>
        <time>2015-06-28T08:14:06Z</time>
      </trkpt>
      <trkpt lat="42.35341" lon="8.90801">
        <ele>1475.2</ele>
        <time>2015-06-28T08:14:16Z</time>
      </trkpt>
      <trkpt lat="42.35342" lon="8.90803">
        <ele>1476.2</ele>
        <time>2015-06-28T08:14:25Z</time>
      </trkpt>
      <trkpt lat="42.35342" lon="8.90808">
        <ele>1477.2</ele>
        <time>2015-06-28T08:14:34Z</time>
      </trkpt>
      <trkpt lat="42.35344" lon="8.90816">
        <ele>1478.6</ele>
        <time>2015-06-28T08:14:45Z</time>
      </trkpt>
      <trkpt lat="42.35344" lon="8.90817">
        <ele>1478.6</ele>
        <time>2015-06-28T08:14:46Z</time>
      </trkpt>
      <trkpt lat="42.35353" lon="8.9082">
        <ele>1479.8</ele>
        <time>2015-06-28T08:14:59Z</time>
      </trkpt>
      <trkpt lat="42.35357" lon="8.90821">
        <ele>1480.6</ele>
        <time>2015-06-28T08:15:09Z</time>
      </trkpt>
      <trkpt lat="42.35364" lon="8.90821">
        <ele>1482</ele>
        <time>2015-06-28T08:15:22Z</time>
      </trkpt>
      <trkpt lat="42.35371" lon="8.90821">
        <ele>1483.4</ele>
        <time>2015-06-28T08:15:34Z</time>
      </trkpt>
      <trkpt lat="42.35375" lon="8.90827">
        <ele>1484.4</ele>
        <time>2015-06-28T08:15:44Z</time>
      </trkpt>
      <trkpt lat="42.35376" lon="8.90839">
        <ele>1485.6</ele>
        <time>2015-06-28T08:15:58Z</time>
      </trkpt>
      <trkpt lat="42.35386" lon="8.90859">
        <ele>1487</ele>
        <time>2015-06-28T08:16:22Z</time>
      </trkpt>
      <trkpt lat="42.3539" lon="8.90875">
        <ele>1488</ele>
        <time>2015-06-28T08:16:54Z</time>
      </trkpt>
      <trkpt lat="42.354" lon="8.90886">
        <ele>1488.8</ele>
        <time>2015-06-28T08:17:12Z</time>
      </trkpt>
      <trkpt lat="42.35434" lon="8.90909">
        <ele>1489.6</ele>
        <time>2015-06-28T08:17:57Z</time>
      </trkpt>
      <trkpt lat="42.3546" lon="8.90939">
        <ele>1490.2</ele>
        <time>2015-06-28T08:18:41Z</time>
      </trkpt>
      <trkpt lat="42.35488" lon="8.90954">
        <ele>1492</ele>
        <time>2015-06-28T08:19:23Z</time>
      </trkpt>
      <trkpt lat="42.35491" lon="8.90955">
        <ele>1492.2</ele>
        <time>2015-06-28T08:19:29Z</time>
      </trkpt>
      <trkpt lat="42.35499" lon="8.90954">
        <ele>1493.2</ele>
        <time>2015-06-28T08:19:42Z</time>
      </trkpt>
      <trkpt lat="42.35503" lon="8.90953">
        <ele>1493.6</ele>
        <time>2015-06-28T08:19:49Z</time>
      </trkpt>
      <trkpt lat="42.35512" lon="8.90951">
        <ele>1495.6</ele>
        <time>2015-06-28T08:20:13Z</time>
      </trkpt>
      <trkpt lat="42.35518" lon="8.90958">
        <ele>1495.8</ele>
        <time>2015-06-28T08:20:25Z</time>
      </trkpt>
      <trkpt lat="42.35528" lon="8.90965">
        <ele>1497</ele>
        <time>2015-06-28T08:20:43Z</time>
      </trkpt>
      <trkpt lat="42.35533" lon="8.90963">
        <ele>1497.4</ele>
        <time>2015-06-28T08:20:50Z</time>
      </trkpt>
      <trkpt lat="42.35536" lon="8.9096">
        <ele>1498.8</ele>
        <time>2015-06-28T08:21:02Z</time>
      </trkpt>
      <trkpt lat="42.3554" lon="8.90962">
        <ele>1499.8</ele>
        <time>2015-06-28T08:21:11Z</time>
      </trkpt>
      <trkpt lat="42.35545" lon="8.90963">
        <ele>1501</ele>
        <time>2015-06-28T08:21:19Z</time>
      </trkpt>
      <trkpt lat="42.3555" lon="8.90961">
        <ele>1502.2</ele>
        <time>2015-06-28T08:21:30Z</time>
      </trkpt>
      <trkpt lat="42.35552" lon="8.90962">
        <ele>1502.6</ele>
        <time>2015-06-28T08:21:35Z</time>
      </trkpt>
      <trkpt lat="42.35554" lon="8.90963">
        <ele>1503.4</ele>
        <time>2015-06-28T08:21:40Z</time>
      </trkpt>
      <trkpt lat="42.35558" lon="8.90961">
        <ele>1504.6</ele>
        <time>2015-06-28T08:21:49Z</time>
      </trkpt>
      <trkpt lat="42.35564" lon="8.90959">
        <ele>1505.4</ele>
        <time>2015-06-28T08:21:57Z</time>
      </trkpt>
      <trkpt lat="42.35568" lon="8.90959">
        <ele>1506.6</ele>
        <time>2015-06-28T08:22:07Z</time>
      </trkpt>
      <trkpt lat="42.35575" lon="8.90963">
        <ele>1508</ele>
        <time>2015-06-28T08:22:20Z</time>
      </trkpt>
      <trkpt lat="42.35582" lon="8.90961">
        <ele>1509.2</ele>
        <time>2015-06-28T08:22:31Z</time>
      </trkpt>
      <trkpt lat="42.35588" lon="8.90959">
        <ele>1510.2</ele>
        <time>2015-06-28T08:22:41Z</time>
      </trkpt>
      <trkpt lat="42.35594" lon="8.90961">
        <ele>1511</ele>
        <time>2015-06-28T08:22:49Z</time>
      </trkpt>
      <trkpt lat="42.35601" lon="8.90962">
        <ele>1512.4</ele>
        <time>2015-06-28T08:23:01Z</time>
      </trkpt>
      <trkpt lat="42.35604" lon="8.90963">
        <ele>1513.2</ele>
        <time>2015-06-28T08:23:10Z</time>
      </trkpt>
      <trkpt lat="42.35607" lon="8.90961">
        <ele>1514.4</ele>
        <time>2015-06-28T08:23:18Z</time>
      </trkpt>
      <trkpt lat="42.35611" lon="8.90961">
        <ele>1515.4</ele>
        <time>2015-06-28T08:23:26Z</time>
      </trkpt>
      <trkpt lat="42.35614" lon="8.90959">
        <ele>1516.4</ele>
        <time>2015-06-28T08:23:35Z</time>
      </trkpt>
      <trkpt lat="42.35618" lon="8.90957">
        <ele>1517.4</ele>
        <time>2015-06-28T08:23:44Z</time>
      </trkpt>
      <trkpt lat="42.35623" lon="8.90959">
        <ele>1518.8</ele>
        <time>2015-06-28T08:23:55Z</time>
      </trkpt>
      <trkpt lat="42.35628" lon="8.90958">
        <ele>1520</ele>
        <time>2015-06-28T08:24:09Z</time>
      </trkpt>
      <trkpt lat="42.35633" lon="8.90961">
        <ele>1520.8</ele>
        <time>2015-06-28T08:24:18Z</time>
      </trkpt>
      <trkpt lat="42.35637" lon="8.90964">
        <ele>1521.8</ele>
        <time>2015-06-28T08:24:28Z</time>
      </trkpt>
      <trkpt lat="42.35641" lon="8.90965">
        <ele>1522.8</ele>
        <time>2015-06-28T08:24:35Z</time>
      </trkpt>
      <trkpt lat="42.35656" lon="8.90963">
        <ele>1524.2</ele>
        <time>2015-06-28T08:25:01Z</time>
      </trkpt>
      <trkpt lat="42.35661" lon="8.90958">
        <ele>1525</ele>
        <time>2015-06-28T08:25:11Z</time>
      </trkpt>
      <trkpt lat="42.35665" lon="8.90957">
        <ele>1526</ele>
        <time>2015-06-28T08:25:20Z</time>
      </trkpt>
      <trkpt lat="42.3567" lon="8.90957">
        <ele>1527.6</ele>
        <time>2015-06-28T08:25:47Z</time>
      </trkpt>
      <trkpt lat="42.35683" lon="8.90954">
        <ele>1527.8</ele>
        <time>2015-06-28T08:26:01Z</time>
      </trkpt>
      <trkpt lat="42.3569" lon="8.9095">
        <ele>1528.2</ele>
        <time>2015-06-28T08:26:10Z</time>
      </trkpt>
      <trkpt lat="42.35698" lon="8.90945">
        <ele>1529.4</ele>
        <time>2015-06-28T08:26:21Z</time>
      </trkpt>
      <trkpt lat="42.35738" lon="8.9096">
        <ele>1530.4</ele>
        <time>2015-06-28T08:27:18Z</time>
      </trkpt>
      <trkpt lat="42.35739" lon="8.9096">
        <ele>1530.6</ele>
        <time>2015-06-28T08:27:19Z</time>
      </trkpt>
      <trkpt lat="42.35742" lon="8.90964">
        <ele>1531</ele>
        <time>2015-06-28T08:27:25Z</time>
      </trkpt>
      <trkpt lat="42.35748" lon="8.90972">
        <ele>1532.8</ele>
        <time>2015-06-28T08:27:34Z</time>
      </trkpt>
      <trkpt lat="42.35753" lon="8.90969">
        <ele>1533.6</ele>
        <time>2015-06-28T08:27:45Z</time>
      </trkpt>
      <trkpt lat="42.35755" lon="8.90971">
        <ele>1534.6</ele>
        <time>2015-06-28T08:27:52Z</time>
      </trkpt>
      <trkpt lat="42.35758" lon="8.90972">
        <ele>1535.8</ele>
        <time>2015-06-28T08:27:59Z</time>
      </trkpt>
      <trkpt lat="42.35766" lon="8.90975">
        <ele>1537.2</ele>
        <time>2015-06-28T08:28:14Z</time>
      </trkpt>
      <trkpt lat="42.35776" lon="8.90977">
        <ele>1538.2</ele>
        <time>2015-06-28T08:28:27Z</time>
      </trkpt>
      <trkpt lat="42.35781" lon="8.90969">
        <ele>1539.6</ele>
        <time>2015-06-28T08:28:40Z</time>
      </trkpt>
      <trkpt lat="42.35788" lon="8.90971">
        <ele>1540.4</ele>
        <time>2015-06-28T08:28:50Z</time>
      </trkpt>
      <trkpt lat="42.35795" lon="8.90979">
        <ele>1541.4</ele>
        <time>2015-06-28T08:29:03Z</time>
      </trkpt>
      <trkpt lat="42.35798" lon="8.9098">
        <ele>1541.6</ele>
        <time>2015-06-28T08:29:09Z</time>
      </trkpt>
      <trkpt lat="42.35806" lon="8.90981">
        <ele>1542.6</ele>
        <time>2015-06-28T08:29:19Z</time>
      </trkpt>
      <trkpt lat="42.35812" lon="8.90976">
        <ele>1544.2</ele>
        <time>2015-06-28T08:29:34Z</time>
      </trkpt>
      <trkpt lat="42.35816" lon="8.9097">
        <ele>1545.2</ele>
        <time>2015-06-28T08:29:44Z</time>
      </trkpt>
      <trkpt lat="42.35821" lon="8.90968">
        <ele>1546</ele>
        <time>2015-06-28T08:29:54Z</time>
      </trkpt>
      <trkpt lat="42.35828" lon="8.90964">
        <ele>1547</ele>
        <time>2015-06-28T08:30:05Z</time>
      </trkpt>
      <trkpt lat="42.35835" lon="8.90963">
        <ele>1548.6</ele>
        <time>2015-06-28T08:30:17Z</time>
      </trkpt>
      <trkpt lat="42.35838" lon="8.90966">
        <ele>1549.4</ele>
        <time>2015-06-28T08:30:25Z</time>
      </trkpt>
      <trkpt lat="42.35842" lon="8.9097">
        <ele>1550.4</ele>
        <time>2015-06-28T08:30:34Z</time>
      </trkpt>
      <trkpt lat="42.35847" lon="8.90973">
        <ele>1552</ele>
        <time>2015-06-28T08:30:46Z</time>
      </trkpt>
      <trkpt lat="42.35855" lon="8.90973">
        <ele>1553.2</ele>
        <time>2015-06-28T08:31:00Z</time>
      </trkpt>
      <trkpt lat="42.3586" lon="8.90978">
        <ele>1554.4</ele>
        <time>2015-06-28T08:31:14Z</time>
      </trkpt>
      <trkpt lat="42.35865" lon="8.90979">
        <ele>1555.4</ele>
        <time>2015-06-28T08:31:24Z</time>
      </trkpt>
      <trkpt lat="42.35867" lon="8.9098">
        <ele>1556.6</ele>
        <time>2015-06-28T08:31:34Z</time>
      </trkpt>
      <trkpt lat="42.35871" lon="8.90981">
        <ele>1557.6</ele>
        <time>2015-06-28T08:31:44Z</time>
      </trkpt>
      <trkpt lat="42.35874" lon="8.90981">
        <ele>1558.8</ele>
        <time>2015-06-28T08:31:53Z</time>
      </trkpt>
      <trkpt lat="42.35875" lon="8.90981">
        <ele>1560</ele>
        <time>2015-06-28T08:32:01Z</time>
      </trkpt>
      <trkpt lat="42.3588" lon="8.90977">
        <ele>1561.8</ele>
        <time>2015-06-28T08:32:18Z</time>
      </trkpt>
      <trkpt lat="42.35882" lon="8.90983">
        <ele>1562.4</ele>
        <time>2015-06-28T08:32:25Z</time>
      </trkpt>
      <trkpt lat="42.35887" lon="8.90986">
        <ele>1563.8</ele>
        <time>2015-06-28T08:32:36Z</time>
      </trkpt>
      <trkpt lat="42.35891" lon="8.90988">
        <ele>1564.6</ele>
        <time>2015-06-28T08:32:44Z</time>
      </trkpt>
      <trkpt lat="42.35895" lon="8.90988">
        <ele>1566</ele>
        <time>2015-06-28T08:32:55Z</time>
      </trkpt>
      <trkpt lat="42.35898" lon="8.90989">
        <ele>1567.2</ele>
        <time>2015-06-28T08:33:05Z</time>
      </trkpt>
      <trkpt lat="42.359" lon="8.90989">
        <ele>1568.4</ele>
        <time>2015-06-28T08:33:17Z</time>
      </trkpt>
      <trkpt lat="42.35903" lon="8.9099">
        <ele>1569.2</ele>
        <time>2015-06-28T08:33:25Z</time>
      </trkpt>
      <trkpt lat="42.35909" lon="8.90988">
        <ele>1570.6</ele>
        <time>2015-06-28T08:33:36Z</time>
      </trkpt>
      <trkpt lat="42.35914" lon="8.90987">
        <ele>1571.6</ele>
        <time>2015-06-28T08:33:46Z</time>
      </trkpt>
      <trkpt lat="42.35917" lon="8.90986">
        <ele>1572.4</ele>
        <time>2015-06-28T08:33:55Z</time>
      </trkpt>
      <trkpt lat="42.35922" lon="8.90983">
        <ele>1574</ele>
        <time>2015-06-28T08:34:05Z</time>
      </trkpt>
      <trkpt lat="42.35925" lon="8.90984">
        <ele>1575.2</ele>
        <time>2015-06-28T08:34:16Z</time>
      </trkpt>
      <trkpt lat="42.35929" lon="8.90984">
        <ele>1576.4</ele>
        <time>2015-06-28T08:34:26Z</time>
      </trkpt>
      <trkpt lat="42.35932" lon="8.90983">
        <ele>1577.2</ele>
        <time>2015-06-28T08:34:35Z</time>
      </trkpt>
      <trkpt lat="42.35935" lon="8.90988">
        <ele>1578.6</ele>
        <time>2015-06-28T08:34:47Z</time>
      </trkpt>
      <trkpt lat="42.35936" lon="8.90992">
        <ele>1579.8</ele>
        <time>2015-06-28T08:34:59Z</time>
      </trkpt>
      <trkpt lat="42.35937" lon="8.90996">
        <ele>1580.8</ele>
        <time>2015-06-28T08:35:06Z</time>
      </trkpt>
      <trkpt lat="42.35939" lon="8.90997">
        <ele>1581.8</ele>
        <time>2015-06-28T08:35:15Z</time>
      </trkpt>
      <trkpt lat="42.35941" lon="8.90996">
        <ele>1582.4</ele>
        <time>2015-06-28T08:35:19Z</time>
      </trkpt>
      <trkpt lat="42.35942" lon="8.90996">
        <ele>1582.8</ele>
        <time>2015-06-28T08:35:22Z</time>
      </trkpt>
      <trkpt lat="42.35944" lon="8.90996">
        <ele>1584.6</ele>
        <time>2015-06-28T08:35:34Z</time>
      </trkpt>
      <trkpt lat="42.35946" lon="8.90994">
        <ele>1585.2</ele>
        <time>2015-06-28T08:35:43Z</time>
      </trkpt>
      <trkpt lat="42.35951" lon="8.90995">
        <ele>1587</ele>
        <time>2015-06-28T08:36:04Z</time>
      </trkpt>
      <trkpt lat="42.35952" lon="8.90993">
        <ele>1587.6</ele>
        <time>2015-06-28T08:36:11Z</time>
      </trkpt>
      <trkpt lat="42.35953" lon="8.90989">
        <ele>1588.8</ele>
        <time>2015-06-28T08:36:18Z</time>
      </trkpt>
      <trkpt lat="42.35953" lon="8.9099">
        <ele>1590.4</ele>
        <time>2015-06-28T08:36:33Z</time>
      </trkpt>
      <trkpt lat="42.35956" lon="8.90989">
        <ele>1591.6</ele>
        <time>2015-06-28T08:36:48Z</time>
      </trkpt>
      <trkpt lat="42.35957" lon="8.9099">
        <ele>1592.6</ele>
        <time>2015-06-28T08:37:02Z</time>
      </trkpt>
      <trkpt lat="42.35959" lon="8.90991">
        <ele>1593.8</ele>
        <time>2015-06-28T08:37:14Z</time>
      </trkpt>
      <trkpt lat="42.35961" lon="8.90991">
        <ele>1594.8</ele>
        <time>2015-06-28T08:37:27Z</time>
      </trkpt>
      <trkpt lat="42.35961" lon="8.90992">
        <ele>1596</ele>
        <time>2015-06-28T08:37:36Z</time>
      </trkpt>
      <trkpt lat="42.35963" lon="8.90994">
        <ele>1596.8</ele>
        <time>2015-06-28T08:37:47Z</time>
      </trkpt>
      <trkpt lat="42.35967" lon="8.90993">
        <ele>1598.4</ele>
        <time>2015-06-28T08:38:01Z</time>
      </trkpt>
      <trkpt lat="42.35972" lon="8.90991">
        <ele>1599.4</ele>
        <time>2015-06-28T08:38:10Z</time>
      </trkpt>
      <trkpt lat="42.35975" lon="8.90995">
        <ele>1600.4</ele>
        <time>2015-06-28T08:38:18Z</time>
      </trkpt>
      <trkpt lat="42.35977" lon="8.90997">
        <ele>1601.6</ele>
        <time>2015-06-28T08:38:28Z</time>
      </trkpt>
      <trkpt lat="42.35977" lon="8.90997">
        <ele>1602</ele>
        <time>2015-06-28T08:38:31Z</time>
      </trkpt>
      <trkpt lat="42.35985" lon="8.90992">
        <ele>1603</ele>
        <time>2015-06-28T08:39:06Z</time>
      </trkpt>
      <trkpt lat="42.35992" lon="8.90987">
        <ele>1604.2</ele>
        <time>2015-06-28T08:39:21Z</time>
      </trkpt>
      <trkpt lat="42.35998" lon="8.90982">
        <ele>1605.6</ele>
        <time>2015-06-28T08:39:41Z</time>
      </trkpt>
      <trkpt lat="42.36004" lon="8.9098">
        <ele>1607.4</ele>
        <time>2015-06-28T08:40:03Z</time>
      </trkpt>
      <trkpt lat="42.36006" lon="8.90978">
        <ele>1608</ele>
        <time>2015-06-28T08:40:13Z</time>
      </trkpt>
      <trkpt lat="42.36011" lon="8.90979">
        <ele>1609.6</ele>
        <time>2015-06-28T08:40:38Z</time>
      </trkpt>
      <trkpt lat="42.36023" lon="8.90969">
        <ele>1611.2</ele>
        <time>2015-06-28T08:41:12Z</time>
      </trkpt>
      <trkpt lat="42.36031" lon="8.90954">
        <ele>1611.6</ele>
        <time>2015-06-28T08:41:45Z</time>
      </trkpt>
      <trkpt lat="42.3604" lon="8.90937">
        <ele>1611.8</ele>
        <time>2015-06-28T08:42:19Z</time>
      </trkpt>
      <trkpt lat="42.36042" lon="8.90936">
        <ele>1613</ele>
        <time>2015-06-28T08:42:27Z</time>
      </trkpt>
      <trkpt lat="42.36043" lon="8.90936">
        <ele>1612.8</ele>
        <time>2015-06-28T08:42:29Z</time>
      </trkpt>
      <trkpt lat="42.36045" lon="8.90934">
        <ele>1614.4</ele>
        <time>2015-06-28T08:42:37Z</time>
      </trkpt>
      <trkpt lat="42.3605" lon="8.90928">
        <ele>1615.8</ele>
        <time>2015-06-28T08:42:52Z</time>
      </trkpt>
      <trkpt lat="42.36054" lon="8.90929">
        <ele>1617</ele>
        <time>2015-06-28T08:43:03Z</time>
      </trkpt>
      <trkpt lat="42.36061" lon="8.90928">
        <ele>1618</ele>
        <time>2015-06-28T08:43:15Z</time>
      </trkpt>
      <trkpt lat="42.36071" lon="8.90933">
        <ele>1619.8</ele>
        <time>2015-06-28T08:43:46Z</time>
      </trkpt>
      <trkpt lat="42.36077" lon="8.90936">
        <ele>1620.6</ele>
        <time>2015-06-28T08:43:54Z</time>
      </trkpt>
      <trkpt lat="42.36082" lon="8.90944">
        <ele>1622.2</ele>
        <time>2015-06-28T08:44:08Z</time>
      </trkpt>
      <trkpt lat="42.36083" lon="8.90946">
        <ele>1623.4</ele>
        <time>2015-06-28T08:44:19Z</time>
      </trkpt>
      <trkpt lat="42.36093" lon="8.90953">
        <ele>1625</ele>
        <time>2015-06-28T08:44:43Z</time>
      </trkpt>
      <trkpt lat="42.36093" lon="8.90956">
        <ele>1625.6</ele>
        <time>2015-06-28T08:44:50Z</time>
      </trkpt>
      <trkpt lat="42.36092" lon="8.90962">
        <ele>1626.8</ele>
        <time>2015-06-28T08:44:58Z</time>
      </trkpt>
      <trkpt lat="42.36094" lon="8.90968">
        <ele>1628.4</ele>
        <time>2015-06-28T08:45:11Z</time>
      </trkpt>
      <trkpt lat="42.36098" lon="8.90974">
        <ele>1629.4</ele>
        <time>2015-06-28T08:45:24Z</time>
      </trkpt>
      <trkpt lat="42.36102" lon="8.90975">
        <ele>1630.8</ele>
        <time>2015-06-28T08:45:35Z</time>
      </trkpt>
      <trkpt lat="42.36105" lon="8.90977">
        <ele>1632.2</ele>
        <time>2015-06-28T08:45:44Z</time>
      </trkpt>
      <trkpt lat="42.36106" lon="8.90977">
        <ele>1632.4</ele>
        <time>2015-06-28T08:45:45Z</time>
      </trkpt>
      <trkpt lat="42.36107" lon="8.90983">
        <ele>1633.6</ele>
        <time>2015-06-28T08:45:59Z</time>
      </trkpt>
      <trkpt lat="42.3611" lon="8.90982">
        <ele>1635</ele>
        <time>2015-06-28T08:46:09Z</time>
      </trkpt>
      <trkpt lat="42.36115" lon="8.90981">
        <ele>1636.2</ele>
        <time>2015-06-28T08:46:22Z</time>
      </trkpt>
      <trkpt lat="42.36117" lon="8.90981">
        <ele>1637.2</ele>
        <time>2015-06-28T08:46:33Z</time>
      </trkpt>
      <trkpt lat="42.3612" lon="8.90982">
        <ele>1638.6</ele>
        <time>2015-06-28T08:46:40Z</time>
      </trkpt>
      <trkpt lat="42.36125" lon="8.90983">
        <ele>1640.4</ele>
        <time>2015-06-28T08:46:52Z</time>
      </trkpt>
      <trkpt lat="42.36126" lon="8.90985">
        <ele>1641.2</ele>
        <time>2015-06-28T08:47:00Z</time>
      </trkpt>
      <trkpt lat="42.36128" lon="8.90984">
        <ele>1642.6</ele>
        <time>2015-06-28T08:47:09Z</time>
      </trkpt>
      <trkpt lat="42.36131" lon="8.90987">
        <ele>1644.6</ele>
        <time>2015-06-28T08:47:40Z</time>
      </trkpt>
      <trkpt lat="42.36141" lon="8.90987">
        <ele>1646.2</ele>
        <time>2015-06-28T08:48:07Z</time>
      </trkpt>
      <trkpt lat="42.36145" lon="8.90986">
        <ele>1647</ele>
        <time>2015-06-28T08:48:15Z</time>
      </trkpt>
      <trkpt lat="42.36151" lon="8.90984">
        <ele>1648.8</ele>
        <time>2015-06-28T08:48:27Z</time>
      </trkpt>
      <trkpt lat="42.36156" lon="8.90984">
        <ele>1650</ele>
        <time>2015-06-28T08:48:36Z</time>
      </trkpt>
      <trkpt lat="42.3616" lon="8.90982">
        <ele>1651</ele>
        <time>2015-06-28T08:48:45Z</time>
      </trkpt>
      <trkpt lat="42.36163" lon="8.90983">
        <ele>1652.8</ele>
        <time>2015-06-28T08:48:57Z</time>
      </trkpt>
      <trkpt lat="42.36166" lon="8.90984">
        <ele>1654</ele>
        <time>2015-06-28T08:49:07Z</time>
      </trkpt>
      <trkpt lat="42.36171" lon="8.90985">
        <ele>1655.4</ele>
        <time>2015-06-28T08:49:24Z</time>
      </trkpt>
      <trkpt lat="42.36174" lon="8.90983">
        <ele>1656.8</ele>
        <time>2015-06-28T08:49:34Z</time>
      </trkpt>
      <trkpt lat="42.36177" lon="8.90984">
        <ele>1658</ele>
        <time>2015-06-28T08:49:43Z</time>
      </trkpt>
      <trkpt lat="42.36181" lon="8.90986">
        <ele>1659</ele>
        <time>2015-06-28T08:49:53Z</time>
      </trkpt>
      <trkpt lat="42.36184" lon="8.90988">
        <ele>1660.2</ele>
        <time>2015-06-28T08:50:00Z</time>
      </trkpt>
      <trkpt lat="42.36187" lon="8.9099">
        <ele>1661.8</ele>
        <time>2015-06-28T08:50:12Z</time>
      </trkpt>
      <trkpt lat="42.36189" lon="8.90991">
        <ele>1663.4</ele>
        <time>2015-06-28T08:50:26Z</time>
      </trkpt>
      <trkpt lat="42.36191" lon="8.90989">
        <ele>1665.2</ele>
        <time>2015-06-28T08:50:47Z</time>
      </trkpt>
      <trkpt lat="42.36193" lon="8.9099">
        <ele>1665.8</ele>
        <time>2015-06-28T08:50:54Z</time>
      </trkpt>
      <trkpt lat="42.36197" lon="8.90986">
        <ele>1667.4</ele>
        <time>2015-06-28T08:51:06Z</time>
      </trkpt>
      <trkpt lat="42.36201" lon="8.90986">
        <ele>1669.6</ele>
        <time>2015-06-28T08:51:25Z</time>
      </trkpt>
      <trkpt lat="42.36204" lon="8.9099">
        <ele>1670.6</ele>
        <time>2015-06-28T08:51:37Z</time>
      </trkpt>
      <trkpt lat="42.3621" lon="8.90986">
        <ele>1672</ele>
        <time>2015-06-28T08:51:51Z</time>
      </trkpt>
      <trkpt lat="42.36214" lon="8.90983">
        <ele>1673</ele>
        <time>2015-06-28T08:52:03Z</time>
      </trkpt>
      <trkpt lat="42.36217" lon="8.90982">
        <ele>1674.2</ele>
        <time>2015-06-28T08:52:11Z</time>
      </trkpt>
      <trkpt lat="42.36221" lon="8.90973">
        <ele>1675.8</ele>
        <time>2015-06-28T08:52:24Z</time>
      </trkpt>
      <trkpt lat="42.36226" lon="8.90975">
        <ele>1677.2</ele>
        <time>2015-06-28T08:52:37Z</time>
      </trkpt>
      <trkpt lat="42.36232" lon="8.90975">
        <ele>1678.4</ele>
        <time>2015-06-28T08:52:48Z</time>
      </trkpt>
      <trkpt lat="42.36238" lon="8.90974">
        <ele>1681</ele>
        <time>2015-06-28T08:54:02Z</time>
      </trkpt>
      <trkpt lat="42.3624" lon="8.90967">
        <ele>1683</ele>
        <time>2015-06-28T08:54:13Z</time>
      </trkpt>
      <trkpt lat="42.3624" lon="8.90962">
        <ele>1683.8</ele>
        <time>2015-06-28T08:54:21Z</time>
      </trkpt>
      <trkpt lat="42.3624" lon="8.90956">
        <ele>1685.6</ele>
        <time>2015-06-28T08:54:30Z</time>
      </trkpt>
      <trkpt lat="42.36241" lon="8.90956">
        <ele>1686.6</ele>
        <time>2015-06-28T08:54:40Z</time>
      </trkpt>
      <trkpt lat="42.36239" lon="8.90945">
        <ele>1688.4</ele>
        <time>2015-06-28T08:54:58Z</time>
      </trkpt>
      <trkpt lat="42.36241" lon="8.90943">
        <ele>1689.2</ele>
        <time>2015-06-28T08:55:07Z</time>
      </trkpt>
      <trkpt lat="42.36241" lon="8.90938">
        <ele>1690.8</ele>
        <time>2015-06-28T08:55:17Z</time>
      </trkpt>
      <trkpt lat="42.36241" lon="8.90931">
        <ele>1692</ele>
        <time>2015-06-28T08:55:28Z</time>
      </trkpt>
      <trkpt lat="42.36243" lon="8.90932">
        <ele>1693.2</ele>
        <time>2015-06-28T08:55:39Z</time>
      </trkpt>
      <trkpt lat="42.36244" lon="8.90933">
        <ele>1694.2</ele>
        <time>2015-06-28T08:55:46Z</time>
      </trkpt>
      <trkpt lat="42.36247" lon="8.90926">
        <ele>1694.8</ele>
        <time>2015-06-28T08:55:51Z</time>
      </trkpt>
      <trkpt lat="42.36248" lon="8.90924">
        <ele>1695.2</ele>
        <time>2015-06-28T08:55:53Z</time>
      </trkpt>
      <trkpt lat="42.36248" lon="8.90923">
        <ele>1695.6</ele>
        <time>2015-06-28T08:55:54Z</time>
      </trkpt>
      <trkpt lat="42.36247" lon="8.90919">
        <ele>1696</ele>
        <time>2015-06-28T08:55:58Z</time>
      </trkpt>
      <trkpt lat="42.36246" lon="8.90916">
        <ele>1696.4</ele>
        <time>2015-06-28T08:56:02Z</time>
      </trkpt>
      <trkpt lat="42.36243" lon="8.90908">
        <ele>1697</ele>
        <time>2015-06-28T08:56:11Z</time>
      </trkpt>
      <trkpt lat="42.3624" lon="8.90897">
        <ele>1698.4</ele>
        <time>2015-06-28T08:56:24Z</time>
      </trkpt>
      <trkpt lat="42.36245" lon="8.909">
        <ele>1699.6</ele>
        <time>2015-06-28T08:56:38Z</time>
      </trkpt>
      <trkpt lat="42.36244" lon="8.90885">
        <ele>1700.6</ele>
        <time>2015-06-28T08:57:43Z</time>
      </trkpt>
      <trkpt lat="42.36244" lon="8.90883">
        <ele>1700.6</ele>
        <time>2015-06-28T08:57:47Z</time>
      </trkpt>
      <trkpt lat="42.3624" lon="8.90881">
        <ele>1699</ele>
        <time>2015-06-28T08:57:54Z</time>
      </trkpt>
      <trkpt lat="42.36238" lon="8.90877">
        <ele>1698</ele>
        <time>2015-06-28T08:58:02Z</time>
      </trkpt>
      <trkpt lat="42.36233" lon="8.90875">
        <ele>1697.2</ele>
        <time>2015-06-28T08:58:09Z</time>
      </trkpt>
      <trkpt lat="42.36233" lon="8.90869">
        <ele>1697.4</ele>
        <time>2015-06-28T08:58:34Z</time>
      </trkpt>
      <trkpt lat="42.36231" lon="8.90863">
        <ele>1697.6</ele>
        <time>2015-06-28T08:59:18Z</time>
      </trkpt>
    </trkseg>
  </trk>
  <trk>
    <name><![CDATA[GR20 Tighjettu - Calasima]]></name>
    <trkseg>
      <trkpt lat="42.36244" lon="8.90936">
        <ele>1694.2</ele>
        <time>2015-06-29T05:33:57Z</time>
      </trkpt>
      <trkpt lat="42.36244" lon="8.90937">
        <ele>1694.2</ele>
        <time>2015-06-29T05:33:59Z</time>
      </trkpt>
      <trkpt lat="42.36243" lon="8.90939">
        <ele>1693.6</ele>
        <time>2015-06-29T05:34:06Z</time>
      </trkpt>
      <trkpt lat="42.36241" lon="8.90942">
        <ele>1693.6</ele>
        <time>2015-06-29T05:34:12Z</time>
      </trkpt>
      <trkpt lat="42.36237" lon="8.90943">
        <ele>1692.6</ele>
        <time>2015-06-29T05:34:18Z</time>
      </trkpt>
      <trkpt lat="42.36233" lon="8.90939">
        <ele>1691</ele>
        <time>2015-06-29T05:34:25Z</time>
      </trkpt>
      <trkpt lat="42.36233" lon="8.90943">
        <ele>1689.8</ele>
        <time>2015-06-29T05:34:31Z</time>
      </trkpt>
      <trkpt lat="42.36231" lon="8.90948">
        <ele>1687.8</ele>
        <time>2015-06-29T05:34:45Z</time>
      </trkpt>
      <trkpt lat="42.3623" lon="8.90952">
        <ele>1686.2</ele>
        <time>2015-06-29T05:35:00Z</time>
      </trkpt>
      <trkpt lat="42.36227" lon="8.90953">
        <ele>1685.8</ele>
        <time>2015-06-29T05:35:06Z</time>
      </trkpt>
      <trkpt lat="42.36226" lon="8.90956">
        <ele>1684.6</ele>
        <time>2015-06-29T05:35:13Z</time>
      </trkpt>
      <trkpt lat="42.36223" lon="8.90959">
        <ele>1683</ele>
        <time>2015-06-29T05:35:21Z</time>
      </trkpt>
      <trkpt lat="42.36223" lon="8.90963">
        <ele>1682.2</ele>
        <time>2015-06-29T05:35:27Z</time>
      </trkpt>
      <trkpt lat="42.36226" lon="8.90969">
        <ele>1680.2</ele>
        <time>2015-06-29T05:35:39Z</time>
      </trkpt>
      <trkpt lat="42.36229" lon="8.90978">
        <ele>1679</ele>
        <time>2015-06-29T05:35:51Z</time>
      </trkpt>
      <trkpt lat="42.36225" lon="8.9098">
        <ele>1677.8</ele>
        <time>2015-06-29T05:36:01Z</time>
      </trkpt>
      <trkpt lat="42.36224" lon="8.90985">
        <ele>1676</ele>
        <time>2015-06-29T05:36:14Z</time>
      </trkpt>
      <trkpt lat="42.36217" lon="8.90983">
        <ele>1674.8</ele>
        <time>2015-06-29T05:36:27Z</time>
      </trkpt>
      <trkpt lat="42.36213" lon="8.90983">
        <ele>1673.4</ele>
        <time>2015-06-29T05:36:37Z</time>
      </trkpt>
      <trkpt lat="42.36212" lon="8.90978">
        <ele>1672.6</ele>
        <time>2015-06-29T05:36:45Z</time>
      </trkpt>
      <trkpt lat="42.36208" lon="8.90981">
        <ele>1671.8</ele>
        <time>2015-06-29T05:36:51Z</time>
      </trkpt>
      <trkpt lat="42.36208" lon="8.90983">
        <ele>1671.4</ele>
        <time>2015-06-29T05:36:53Z</time>
      </trkpt>
      <trkpt lat="42.36207" lon="8.90986">
        <ele>1671</ele>
        <time>2015-06-29T05:36:55Z</time>
      </trkpt>
      <trkpt lat="42.36206" lon="8.90989">
        <ele>1670.4</ele>
        <time>2015-06-29T05:36:58Z</time>
      </trkpt>
      <trkpt lat="42.36205" lon="8.90997">
        <ele>1669</ele>
        <time>2015-06-29T05:37:07Z</time>
      </trkpt>
      <trkpt lat="42.36206" lon="8.91004">
        <ele>1667.4</ele>
        <time>2015-06-29T05:37:16Z</time>
      </trkpt>
      <trkpt lat="42.36202" lon="8.91006">
        <ele>1666.2</ele>
        <time>2015-06-29T05:37:25Z</time>
      </trkpt>
      <trkpt lat="42.36197" lon="8.90996">
        <ele>1664.6</ele>
        <time>2015-06-29T05:37:39Z</time>
      </trkpt>
      <trkpt lat="42.36197" lon="8.90996">
        <ele>1664.4</ele>
        <time>2015-06-29T05:37:42Z</time>
      </trkpt>
      <trkpt lat="42.36188" lon="8.90999">
        <ele>1663.2</ele>
        <time>2015-06-29T05:38:29Z</time>
      </trkpt>
      <trkpt lat="42.36184" lon="8.90998">
        <ele>1662</ele>
        <time>2015-06-29T05:38:37Z</time>
      </trkpt>
      <trkpt lat="42.36181" lon="8.90998">
        <ele>1661</ele>
        <time>2015-06-29T05:38:43Z</time>
      </trkpt>
      <trkpt lat="42.36179" lon="8.91001">
        <ele>1659.2</ele>
        <time>2015-06-29T05:38:58Z</time>
      </trkpt>
      <trkpt lat="42.36177" lon="8.91003">
        <ele>1657.8</ele>
        <time>2015-06-29T05:39:09Z</time>
      </trkpt>
      <trkpt lat="42.36174" lon="8.91003">
        <ele>1657.4</ele>
        <time>2015-06-29T05:39:14Z</time>
      </trkpt>
      <trkpt lat="42.3617" lon="8.91004">
        <ele>1656</ele>
        <time>2015-06-29T05:39:22Z</time>
      </trkpt>
      <trkpt lat="42.36167" lon="8.91006">
        <ele>1654.8</ele>
        <time>2015-06-29T05:39:28Z</time>
      </trkpt>
      <trkpt lat="42.36164" lon="8.9101">
        <ele>1653.4</ele>
        <time>2015-06-29T05:39:35Z</time>
      </trkpt>
      <trkpt lat="42.3616" lon="8.91009">
        <ele>1652.2</ele>
        <time>2015-06-29T05:39:41Z</time>
      </trkpt>
      <trkpt lat="42.36156" lon="8.91011">
        <ele>1651.2</ele>
        <time>2015-06-29T05:39:47Z</time>
      </trkpt>
      <trkpt lat="42.36152" lon="8.91009">
        <ele>1650</ele>
        <time>2015-06-29T05:39:52Z</time>
      </trkpt>
      <trkpt lat="42.36151" lon="8.91007">
        <ele>1649.6</ele>
        <time>2015-06-29T05:39:54Z</time>
      </trkpt>
      <trkpt lat="42.3615" lon="8.91004">
        <ele>1649.2</ele>
        <time>2015-06-29T05:39:56Z</time>
      </trkpt>
      <trkpt lat="42.36152" lon="8.90998">
        <ele>1648.6</ele>
        <time>2015-06-29T05:40:01Z</time>
      </trkpt>
      <trkpt lat="42.36148" lon="8.90995">
        <ele>1647.2</ele>
        <time>2015-06-29T05:40:09Z</time>
      </trkpt>
      <trkpt lat="42.36145" lon="8.90994">
        <ele>1646.2</ele>
        <time>2015-06-29T05:40:15Z</time>
      </trkpt>
      <trkpt lat="42.36143" lon="8.90995">
        <ele>1644.6</ele>
        <time>2015-06-29T05:40:23Z</time>
      </trkpt>
      <trkpt lat="42.36138" lon="8.90994">
        <ele>1643.4</ele>
        <time>2015-06-29T05:40:31Z</time>
      </trkpt>
      <trkpt lat="42.36135" lon="8.90991">
        <ele>1642.2</ele>
        <time>2015-06-29T05:40:38Z</time>
      </trkpt>
      <trkpt lat="42.36131" lon="8.90994">
        <ele>1640.8</ele>
        <time>2015-06-29T05:40:46Z</time>
      </trkpt>
      <trkpt lat="42.36128" lon="8.90996">
        <ele>1639.6</ele>
        <time>2015-06-29T05:40:54Z</time>
      </trkpt>
      <trkpt lat="42.36124" lon="8.90995">
        <ele>1638.6</ele>
        <time>2015-06-29T05:41:03Z</time>
      </trkpt>
      <trkpt lat="42.36118" lon="8.90996">
        <ele>1637</ele>
        <time>2015-06-29T05:41:12Z</time>
      </trkpt>
      <trkpt lat="42.36114" lon="8.90994">
        <ele>1635.6</ele>
        <time>2015-06-29T05:41:26Z</time>
      </trkpt>
      <trkpt lat="42.36112" lon="8.90991">
        <ele>1634.6</ele>
        <time>2015-06-29T05:41:37Z</time>
      </trkpt>
      <trkpt lat="42.36109" lon="8.90989">
        <ele>1633.4</ele>
        <time>2015-06-29T05:41:46Z</time>
      </trkpt>
      <trkpt lat="42.36105" lon="8.90987">
        <ele>1632.2</ele>
        <time>2015-06-29T05:41:56Z</time>
      </trkpt>
      <trkpt lat="42.36104" lon="8.90989">
        <ele>1631.4</ele>
        <time>2015-06-29T05:42:01Z</time>
      </trkpt>
      <trkpt lat="42.361" lon="8.90988">
        <ele>1629.2</ele>
        <time>2015-06-29T05:42:15Z</time>
      </trkpt>
      <trkpt lat="42.36096" lon="8.90989">
        <ele>1628.4</ele>
        <time>2015-06-29T05:42:23Z</time>
      </trkpt>
      <trkpt lat="42.36091" lon="8.90987">
        <ele>1627.2</ele>
        <time>2015-06-29T05:42:33Z</time>
      </trkpt>
      <trkpt lat="42.3609" lon="8.90983">
        <ele>1626</ele>
        <time>2015-06-29T05:42:41Z</time>
      </trkpt>
      <trkpt lat="42.36087" lon="8.90982">
        <ele>1624.8</ele>
        <time>2015-06-29T05:42:50Z</time>
      </trkpt>
      <trkpt lat="42.36083" lon="8.9098">
        <ele>1623.4</ele>
        <time>2015-06-29T05:42:58Z</time>
      </trkpt>
      <trkpt lat="42.36081" lon="8.90977">
        <ele>1622.2</ele>
        <time>2015-06-29T05:43:05Z</time>
      </trkpt>
      <trkpt lat="42.36076" lon="8.9097">
        <ele>1620.8</ele>
        <time>2015-06-29T05:43:15Z</time>
      </trkpt>
      <trkpt lat="42.36075" lon="8.90966">
        <ele>1619.6</ele>
        <time>2015-06-29T05:43:23Z</time>
      </trkpt>
      <trkpt lat="42.36074" lon="8.90961">
        <ele>1618.4</ele>
        <time>2015-06-29T05:43:33Z</time>
      </trkpt>
      <trkpt lat="42.36071" lon="8.90956">
        <ele>1617</ele>
        <time>2015-06-29T05:43:42Z</time>
      </trkpt>
      <trkpt lat="42.36069" lon="8.9095">
        <ele>1616.2</ele>
        <time>2015-06-29T05:43:50Z</time>
      </trkpt>
      <trkpt lat="42.36067" lon="8.90945">
        <ele>1614.8</ele>
        <time>2015-06-29T05:43:59Z</time>
      </trkpt>
      <trkpt lat="42.36063" lon="8.90938">
        <ele>1613.2</ele>
        <time>2015-06-29T05:44:10Z</time>
      </trkpt>
      <trkpt lat="42.36058" lon="8.90935">
        <ele>1612.2</ele>
        <time>2015-06-29T05:44:19Z</time>
      </trkpt>
      <trkpt lat="42.36052" lon="8.90934">
        <ele>1611</ele>
        <time>2015-06-29T05:44:28Z</time>
      </trkpt>
      <trkpt lat="42.36048" lon="8.90934">
        <ele>1609.4</ele>
        <time>2015-06-29T05:44:38Z</time>
      </trkpt>
      <trkpt lat="42.36041" lon="8.90938">
        <ele>1608.2</ele>
        <time>2015-06-29T05:44:52Z</time>
      </trkpt>
      <trkpt lat="42.36036" lon="8.90937">
        <ele>1607.2</ele>
        <time>2015-06-29T05:45:04Z</time>
      </trkpt>
      <trkpt lat="42.36032" lon="8.90939">
        <ele>1605.8</ele>
        <time>2015-06-29T05:45:16Z</time>
      </trkpt>
      <trkpt lat="42.36033" lon="8.90942">
        <ele>1604.6</ele>
        <time>2015-06-29T05:45:30Z</time>
      </trkpt>
      <trkpt lat="42.36029" lon="8.90945">
        <ele>1603.6</ele>
        <time>2015-06-29T05:45:37Z</time>
      </trkpt>
      <trkpt lat="42.36028" lon="8.90952">
        <ele>1602.4</ele>
        <time>2015-06-29T05:45:44Z</time>
      </trkpt>
      <trkpt lat="42.36024" lon="8.90957">
        <ele>1601.4</ele>
        <time>2015-06-29T05:45:54Z</time>
      </trkpt>
      <trkpt lat="42.36016" lon="8.90969">
        <ele>1601.4</ele>
        <time>2015-06-29T05:46:14Z</time>
      </trkpt>
      <trkpt lat="42.36008" lon="8.90971">
        <ele>1602</ele>
        <time>2015-06-29T05:46:31Z</time>
      </trkpt>
      <trkpt lat="42.36005" lon="8.90976">
        <ele>1601.8</ele>
        <time>2015-06-29T05:46:36Z</time>
      </trkpt>
      <trkpt lat="42.35999" lon="8.90977">
        <ele>1600.6</ele>
        <time>2015-06-29T05:46:57Z</time>
      </trkpt>
      <trkpt lat="42.35995" lon="8.90977">
        <ele>1599.8</ele>
        <time>2015-06-29T05:47:09Z</time>
      </trkpt>
      <trkpt lat="42.35994" lon="8.9098">
        <ele>1599.6</ele>
        <time>2015-06-29T05:47:13Z</time>
      </trkpt>
      <trkpt lat="42.35986" lon="8.90986">
        <ele>1597.4</ele>
        <time>2015-06-29T05:47:25Z</time>
      </trkpt>
      <trkpt lat="42.3598" lon="8.9099">
        <ele>1596</ele>
        <time>2015-06-29T05:47:38Z</time>
      </trkpt>
      <trkpt lat="42.35974" lon="8.90993">
        <ele>1595</ele>
        <time>2015-06-29T05:47:48Z</time>
      </trkpt>
      <trkpt lat="42.35971" lon="8.90994">
        <ele>1593.8</ele>
        <time>2015-06-29T05:47:59Z</time>
      </trkpt>
      <trkpt lat="42.35966" lon="8.90997">
        <ele>1592.6</ele>
        <time>2015-06-29T05:48:15Z</time>
      </trkpt>
      <trkpt lat="42.35962" lon="8.90996">
        <ele>1591.2</ele>
        <time>2015-06-29T05:48:25Z</time>
      </trkpt>
      <trkpt lat="42.35957" lon="8.90997">
        <ele>1589.8</ele>
        <time>2015-06-29T05:48:42Z</time>
      </trkpt>
      <trkpt lat="42.35956" lon="8.90998">
        <ele>1588.8</ele>
        <time>2015-06-29T05:48:49Z</time>
      </trkpt>
      <trkpt lat="42.35953" lon="8.90997">
        <ele>1587.6</ele>
        <time>2015-06-29T05:49:02Z</time>
      </trkpt>
      <trkpt lat="42.35951" lon="8.90998">
        <ele>1586</ele>
        <time>2015-06-29T05:49:13Z</time>
      </trkpt>
      <trkpt lat="42.35948" lon="8.90998">
        <ele>1584.8</ele>
        <time>2015-06-29T05:49:25Z</time>
      </trkpt>
      <trkpt lat="42.35946" lon="8.90997">
        <ele>1584</ele>
        <time>2015-06-29T05:49:35Z</time>
      </trkpt>
      <trkpt lat="42.35944" lon="8.90997">
        <ele>1582.8</ele>
        <time>2015-06-29T05:49:43Z</time>
      </trkpt>
      <trkpt lat="42.35942" lon="8.90996">
        <ele>1580.8</ele>
        <time>2015-06-29T05:50:00Z</time>
      </trkpt>
      <trkpt lat="42.35939" lon="8.91">
        <ele>1580.4</ele>
        <time>2015-06-29T05:50:07Z</time>
      </trkpt>
      <trkpt lat="42.35937" lon="8.91002">
        <ele>1578.8</ele>
        <time>2015-06-29T05:50:18Z</time>
      </trkpt>
      <trkpt lat="42.35933" lon="8.91001">
        <ele>1578</ele>
        <time>2015-06-29T05:50:26Z</time>
      </trkpt>
      <trkpt lat="42.35929" lon="8.91">
        <ele>1576.6</ele>
        <time>2015-06-29T05:50:35Z</time>
      </trkpt>
      <trkpt lat="42.35927" lon="8.91">
        <ele>1575.4</ele>
        <time>2015-06-29T05:50:41Z</time>
      </trkpt>
      <trkpt lat="42.35925" lon="8.90999">
        <ele>1574.2</ele>
        <time>2015-06-29T05:50:50Z</time>
      </trkpt>
      <trkpt lat="42.35923" lon="8.90995">
        <ele>1572.8</ele>
        <time>2015-06-29T05:50:58Z</time>
      </trkpt>
      <trkpt lat="42.35923" lon="8.90991">
        <ele>1571.8</ele>
        <time>2015-06-29T05:51:04Z</time>
      </trkpt>
      <trkpt lat="42.35919" lon="8.90986">
        <ele>1569.8</ele>
        <time>2015-06-29T05:51:19Z</time>
      </trkpt>
      <trkpt lat="42.35916" lon="8.90986">
        <ele>1569.2</ele>
        <time>2015-06-29T05:51:25Z</time>
      </trkpt>
      <trkpt lat="42.35913" lon="8.90986">
        <ele>1567.8</ele>
        <time>2015-06-29T05:51:33Z</time>
      </trkpt>
      <trkpt lat="42.35911" lon="8.90983">
        <ele>1566</ele>
        <time>2015-06-29T05:51:45Z</time>
      </trkpt>
      <trkpt lat="42.35906" lon="8.90989">
        <ele>1565</ele>
        <time>2015-06-29T05:51:56Z</time>
      </trkpt>
      <trkpt lat="42.35901" lon="8.90991">
        <ele>1564.2</ele>
        <time>2015-06-29T05:52:03Z</time>
      </trkpt>
      <trkpt lat="42.35898" lon="8.90995">
        <ele>1562.6</ele>
        <time>2015-06-29T05:52:11Z</time>
      </trkpt>
      <trkpt lat="42.35893" lon="8.90994">
        <ele>1561.2</ele>
        <time>2015-06-29T05:52:20Z</time>
      </trkpt>
      <trkpt lat="42.35892" lon="8.9099">
        <ele>1560.4</ele>
        <time>2015-06-29T05:52:28Z</time>
      </trkpt>
      <trkpt lat="42.35889" lon="8.90991">
        <ele>1559</ele>
        <time>2015-06-29T05:52:38Z</time>
      </trkpt>
      <trkpt lat="42.35884" lon="8.9099">
        <ele>1557.8</ele>
        <time>2015-06-29T05:52:48Z</time>
      </trkpt>
      <trkpt lat="42.3588" lon="8.90988">
        <ele>1556.4</ele>
        <time>2015-06-29T05:52:58Z</time>
      </trkpt>
      <trkpt lat="42.35877" lon="8.90987">
        <ele>1555.4</ele>
        <time>2015-06-29T05:53:06Z</time>
      </trkpt>
      <trkpt lat="42.35874" lon="8.90985">
        <ele>1554</ele>
        <time>2015-06-29T05:53:16Z</time>
      </trkpt>
      <trkpt lat="42.3587" lon="8.90984">
        <ele>1552.6</ele>
        <time>2015-06-29T05:53:29Z</time>
      </trkpt>
      <trkpt lat="42.35867" lon="8.90983">
        <ele>1552</ele>
        <time>2015-06-29T05:53:36Z</time>
      </trkpt>
      <trkpt lat="42.35864" lon="8.90983">
        <ele>1550.4</ele>
        <time>2015-06-29T05:53:45Z</time>
      </trkpt>
      <trkpt lat="42.3586" lon="8.90983">
        <ele>1549</ele>
        <time>2015-06-29T05:53:55Z</time>
      </trkpt>
      <trkpt lat="42.35859" lon="8.90983">
        <ele>1547.8</ele>
        <time>2015-06-29T05:54:07Z</time>
      </trkpt>
      <trkpt lat="42.35854" lon="8.90981">
        <ele>1546.4</ele>
        <time>2015-06-29T05:54:31Z</time>
      </trkpt>
      <trkpt lat="42.35848" lon="8.90978">
        <ele>1545.4</ele>
        <time>2015-06-29T05:54:41Z</time>
      </trkpt>
      <trkpt lat="42.35844" lon="8.90976">
        <ele>1544.4</ele>
        <time>2015-06-29T05:54:49Z</time>
      </trkpt>
      <trkpt lat="42.35836" lon="8.90978">
        <ele>1543</ele>
        <time>2015-06-29T05:55:01Z</time>
      </trkpt>
      <trkpt lat="42.3583" lon="8.90976">
        <ele>1541.8</ele>
        <time>2015-06-29T05:55:14Z</time>
      </trkpt>
      <trkpt lat="42.35825" lon="8.9097">
        <ele>1540.6</ele>
        <time>2015-06-29T05:55:28Z</time>
      </trkpt>
      <trkpt lat="42.35821" lon="8.90971">
        <ele>1539.4</ele>
        <time>2015-06-29T05:55:37Z</time>
      </trkpt>
      <trkpt lat="42.35817" lon="8.90972">
        <ele>1538</ele>
        <time>2015-06-29T05:55:49Z</time>
      </trkpt>
      <trkpt lat="42.3581" lon="8.90972">
        <ele>1537</ele>
        <time>2015-06-29T05:56:00Z</time>
      </trkpt>
      <trkpt lat="42.35806" lon="8.90975">
        <ele>1535.6</ele>
        <time>2015-06-29T05:56:11Z</time>
      </trkpt>
      <trkpt lat="42.35804" lon="8.90979">
        <ele>1534.6</ele>
        <time>2015-06-29T05:56:22Z</time>
      </trkpt>
      <trkpt lat="42.35796" lon="8.90982">
        <ele>1533.4</ele>
        <time>2015-06-29T05:56:48Z</time>
      </trkpt>
      <trkpt lat="42.35789" lon="8.90981">
        <ele>1532.2</ele>
        <time>2015-06-29T05:56:57Z</time>
      </trkpt>
      <trkpt lat="42.35779" lon="8.90976">
        <ele>1530.4</ele>
        <time>2015-06-29T05:57:11Z</time>
      </trkpt>
      <trkpt lat="42.35772" lon="8.90978">
        <ele>1529.6</ele>
        <time>2015-06-29T05:57:24Z</time>
      </trkpt>
      <trkpt lat="42.35765" lon="8.90979">
        <ele>1528.2</ele>
        <time>2015-06-29T05:57:34Z</time>
      </trkpt>
      <trkpt lat="42.35757" lon="8.90974">
        <ele>1527.4</ele>
        <time>2015-06-29T05:57:46Z</time>
      </trkpt>
      <trkpt lat="42.35749" lon="8.9097">
        <ele>1525.8</ele>
        <time>2015-06-29T05:57:58Z</time>
      </trkpt>
      <trkpt lat="42.35745" lon="8.90969">
        <ele>1525.2</ele>
        <time>2015-06-29T05:58:06Z</time>
      </trkpt>
      <trkpt lat="42.35742" lon="8.90966">
        <ele>1524</ele>
        <time>2015-06-29T05:58:14Z</time>
      </trkpt>
      <trkpt lat="42.35738" lon="8.90964">
        <ele>1522.8</ele>
        <time>2015-06-29T05:58:22Z</time>
      </trkpt>
      <trkpt lat="42.35732" lon="8.90957">
        <ele>1521.6</ele>
        <time>2015-06-29T05:58:33Z</time>
      </trkpt>
      <trkpt lat="42.35729" lon="8.90951">
        <ele>1520.4</ele>
        <time>2015-06-29T05:58:40Z</time>
      </trkpt>
      <trkpt lat="42.35715" lon="8.90935">
        <ele>1519.6</ele>
        <time>2015-06-29T05:59:10Z</time>
      </trkpt>
      <trkpt lat="42.35705" lon="8.90943">
        <ele>1520</ele>
        <time>2015-06-29T05:59:29Z</time>
      </trkpt>
      <trkpt lat="42.35696" lon="8.90948">
        <ele>1519.2</ele>
        <time>2015-06-29T05:59:43Z</time>
      </trkpt>
      <trkpt lat="42.35688" lon="8.90953">
        <ele>1518</ele>
        <time>2015-06-29T05:59:54Z</time>
      </trkpt>
      <trkpt lat="42.35683" lon="8.90954">
        <ele>1517.2</ele>
        <time>2015-06-29T06:00:02Z</time>
      </trkpt>
      <trkpt lat="42.35666" lon="8.90954">
        <ele>1516</ele>
        <time>2015-06-29T06:00:26Z</time>
      </trkpt>
      <trkpt lat="42.35661" lon="8.90957">
        <ele>1515.2</ele>
        <time>2015-06-29T06:00:36Z</time>
      </trkpt>
      <trkpt lat="42.35656" lon="8.90963">
        <ele>1514.2</ele>
        <time>2015-06-29T06:00:46Z</time>
      </trkpt>
      <trkpt lat="42.3565" lon="8.90965">
        <ele>1513.2</ele>
        <time>2015-06-29T06:00:55Z</time>
      </trkpt>
      <trkpt lat="42.35636" lon="8.90969">
        <ele>1512</ele>
        <time>2015-06-29T06:01:13Z</time>
      </trkpt>
      <trkpt lat="42.3563" lon="8.90971">
        <ele>1510.6</ele>
        <time>2015-06-29T06:01:25Z</time>
      </trkpt>
      <trkpt lat="42.35622" lon="8.90971">
        <ele>1509.6</ele>
        <time>2015-06-29T06:01:37Z</time>
      </trkpt>
      <trkpt lat="42.3562" lon="8.90967">
        <ele>1509</ele>
        <time>2015-06-29T06:01:44Z</time>
      </trkpt>
      <trkpt lat="42.35617" lon="8.90962">
        <ele>1507.6</ele>
        <time>2015-06-29T06:01:52Z</time>
      </trkpt>
      <trkpt lat="42.35612" lon="8.90961">
        <ele>1506.6</ele>
        <time>2015-06-29T06:02:02Z</time>
      </trkpt>
      <trkpt lat="42.35607" lon="8.90959">
        <ele>1505.2</ele>
        <time>2015-06-29T06:02:12Z</time>
      </trkpt>
      <trkpt lat="42.35603" lon="8.90959">
        <ele>1504</ele>
        <time>2015-06-29T06:02:23Z</time>
      </trkpt>
      <trkpt lat="42.35599" lon="8.9096">
        <ele>1503.2</ele>
        <time>2015-06-29T06:02:32Z</time>
      </trkpt>
      <trkpt lat="42.35593" lon="8.90961">
        <ele>1502</ele>
        <time>2015-06-29T06:02:43Z</time>
      </trkpt>
      <trkpt lat="42.35589" lon="8.90962">
        <ele>1501</ele>
        <time>2015-06-29T06:02:54Z</time>
      </trkpt>
      <trkpt lat="42.35585" lon="8.90958">
        <ele>1500.2</ele>
        <time>2015-06-29T06:03:06Z</time>
      </trkpt>
      <trkpt lat="42.3558" lon="8.9096">
        <ele>1498.8</ele>
        <time>2015-06-29T06:03:15Z</time>
      </trkpt>
      <trkpt lat="42.35573" lon="8.90962">
        <ele>1498</ele>
        <time>2015-06-29T06:03:25Z</time>
      </trkpt>
      <trkpt lat="42.35566" lon="8.90958">
        <ele>1496.8</ele>
        <time>2015-06-29T06:03:36Z</time>
      </trkpt>
      <trkpt lat="42.35561" lon="8.90958">
        <ele>1495.6</ele>
        <time>2015-06-29T06:03:48Z</time>
      </trkpt>
      <trkpt lat="42.35558" lon="8.90959">
        <ele>1495.2</ele>
        <time>2015-06-29T06:03:52Z</time>
      </trkpt>
      <trkpt lat="42.35556" lon="8.90959">
        <ele>1494.6</ele>
        <time>2015-06-29T06:03:57Z</time>
      </trkpt>
      <trkpt lat="42.3555" lon="8.90961">
        <ele>1493.4</ele>
        <time>2015-06-29T06:04:07Z</time>
      </trkpt>
      <trkpt lat="42.35546" lon="8.9096">
        <ele>1492.4</ele>
        <time>2015-06-29T06:04:17Z</time>
      </trkpt>
      <trkpt lat="42.35542" lon="8.90961">
        <ele>1491.2</ele>
        <time>2015-06-29T06:04:27Z</time>
      </trkpt>
      <trkpt lat="42.35536" lon="8.90959">
        <ele>1490</ele>
        <time>2015-06-29T06:04:36Z</time>
      </trkpt>
      <trkpt lat="42.35531" lon="8.90956">
        <ele>1488.8</ele>
        <time>2015-06-29T06:04:47Z</time>
      </trkpt>
      <trkpt lat="42.35527" lon="8.90958">
        <ele>1487.8</ele>
        <time>2015-06-29T06:04:57Z</time>
      </trkpt>
      <trkpt lat="42.35525" lon="8.90959">
        <ele>1486.6</ele>
        <time>2015-06-29T06:05:11Z</time>
      </trkpt>
      <trkpt lat="42.35517" lon="8.90959">
        <ele>1485.8</ele>
        <time>2015-06-29T06:05:21Z</time>
      </trkpt>
      <trkpt lat="42.35504" lon="8.90958">
        <ele>1484</ele>
        <time>2015-06-29T06:05:43Z</time>
      </trkpt>
      <trkpt lat="42.355" lon="8.90954">
        <ele>1483.2</ele>
        <time>2015-06-29T06:05:56Z</time>
      </trkpt>
      <trkpt lat="42.35495" lon="8.90952">
        <ele>1482.4</ele>
        <time>2015-06-29T06:06:08Z</time>
      </trkpt>
      <trkpt lat="42.35486" lon="8.90947">
        <ele>1481</ele>
        <time>2015-06-29T06:06:25Z</time>
      </trkpt>
      <trkpt lat="42.35478" lon="8.90944">
        <ele>1479.8</ele>
        <time>2015-06-29T06:06:51Z</time>
      </trkpt>
      <trkpt lat="42.35457" lon="8.90942">
        <ele>1478.6</ele>
        <time>2015-06-29T06:07:23Z</time>
      </trkpt>
      <trkpt lat="42.35442" lon="8.90934">
        <ele>1477.2</ele>
        <time>2015-06-29T06:07:48Z</time>
      </trkpt>
      <trkpt lat="42.35408" lon="8.90899">
        <ele>1476.2</ele>
        <time>2015-06-29T06:08:42Z</time>
      </trkpt>
      <trkpt lat="42.35386" lon="8.90871">
        <ele>1475.8</ele>
        <time>2015-06-29T06:09:14Z</time>
      </trkpt>
      <trkpt lat="42.35377" lon="8.9085">
        <ele>1474.6</ele>
        <time>2015-06-29T06:09:37Z</time>
      </trkpt>
      <trkpt lat="42.35368" lon="8.9083">
        <ele>1473.6</ele>
        <time>2015-06-29T06:09:59Z</time>
      </trkpt>
      <trkpt lat="42.35367" lon="8.90826">
        <ele>1473.4</ele>
        <time>2015-06-29T06:10:02Z</time>
      </trkpt>
      <trkpt lat="42.35365" lon="8.90818">
        <ele>1473</ele>
        <time>2015-06-29T06:10:11Z</time>
      </trkpt>
      <trkpt lat="42.3536" lon="8.90818">
        <ele>1471.6</ele>
        <time>2015-06-29T06:10:22Z</time>
      </trkpt>
      <trkpt lat="42.35353" lon="8.90814">
        <ele>1470.6</ele>
        <time>2015-06-29T06:10:35Z</time>
      </trkpt>
      <trkpt lat="42.35348" lon="8.90811">
        <ele>1469.6</ele>
        <time>2015-06-29T06:10:43Z</time>
      </trkpt>
      <trkpt lat="42.35346" lon="8.90811">
        <ele>1469</ele>
        <time>2015-06-29T06:10:47Z</time>
      </trkpt>
      <trkpt lat="42.35341" lon="8.90808">
        <ele>1467</ele>
        <time>2015-06-29T06:10:57Z</time>
      </trkpt>
      <trkpt lat="42.3534" lon="8.90796">
        <ele>1465.8</ele>
        <time>2015-06-29T06:11:12Z</time>
      </trkpt>
      <trkpt lat="42.35337" lon="8.90788">
        <ele>1465.2</ele>
        <time>2015-06-29T06:11:20Z</time>
      </trkpt>
      <trkpt lat="42.35335" lon="8.90788">
        <ele>1464.4</ele>
        <time>2015-06-29T06:11:26Z</time>
      </trkpt>
      <trkpt lat="42.35331" lon="8.9079">
        <ele>1463</ele>
        <time>2015-06-29T06:11:32Z</time>
      </trkpt>
      <trkpt lat="42.35329" lon="8.90793">
        <ele>1461.8</ele>
        <time>2015-06-29T06:11:38Z</time>
      </trkpt>
      <trkpt lat="42.35325" lon="8.90793">
        <ele>1460.6</ele>
        <time>2015-06-29T06:11:47Z</time>
      </trkpt>
      <trkpt lat="42.35322" lon="8.90787">
        <ele>1459.4</ele>
        <time>2015-06-29T06:11:54Z</time>
      </trkpt>
      <trkpt lat="42.3532" lon="8.90786">
        <ele>1459</ele>
        <time>2015-06-29T06:11:56Z</time>
      </trkpt>
      <trkpt lat="42.35319" lon="8.90785">
        <ele>1458.8</ele>
        <time>2015-06-29T06:11:59Z</time>
      </trkpt>
      <trkpt lat="42.35315" lon="8.90791">
        <ele>1457.4</ele>
        <time>2015-06-29T06:12:06Z</time>
      </trkpt>
      <trkpt lat="42.35306" lon="8.90784">
        <ele>1455.8</ele>
        <time>2015-06-29T06:12:38Z</time>
      </trkpt>
      <trkpt lat="42.35302" lon="8.90783">
        <ele>1455.4</ele>
        <time>2015-06-29T06:12:43Z</time>
      </trkpt>
      <trkpt lat="42.3529" lon="8.90795">
        <ele>1453.2</ele>
        <time>2015-06-29T06:13:10Z</time>
      </trkpt>
      <trkpt lat="42.35294" lon="8.90784">
        <ele>1453</ele>
        <time>2015-06-29T06:14:57Z</time>
      </trkpt>
      <trkpt lat="42.3529" lon="8.90786">
        <ele>1453.4</ele>
        <time>2015-06-29T06:18:01Z</time>
      </trkpt>
      <trkpt lat="42.35289" lon="8.90782">
        <ele>1452.8</ele>
        <time>2015-06-29T06:21:30Z</time>
      </trkpt>
      <trkpt lat="42.35294" lon="8.90785">
        <ele>1452.8</ele>
        <time>2015-06-29T06:21:39Z</time>
      </trkpt>
      <trkpt lat="42.35309" lon="8.9078">
        <ele>1452.4</ele>
        <time>2015-06-29T06:25:03Z</time>
      </trkpt>
      <trkpt lat="42.353" lon="8.90787">
        <ele>1452.2</ele>
        <time>2015-06-29T06:25:42Z</time>
      </trkpt>
      <trkpt lat="42.35291" lon="8.90778">
        <ele>1452.2</ele>
        <time>2015-06-29T06:28:16Z</time>
      </trkpt>
      <trkpt lat="42.35294" lon="8.90783">
        <ele>1452.4</ele>
        <time>2015-06-29T06:29:12Z</time>
      </trkpt>
      <trkpt lat="42.35291" lon="8.90796">
        <ele>1452.2</ele>
        <time>2015-06-29T06:29:51Z</time>
      </trkpt>
      <trkpt lat="42.35292" lon="8.90796">
        <ele>1452</ele>
        <time>2015-06-29T06:30:03Z</time>
      </trkpt>
      <trkpt lat="42.35293" lon="8.90796">
        <ele>1452.2</ele>
        <time>2015-06-29T06:30:08Z</time>
      </trkpt>
      <trkpt lat="42.35293" lon="8.90796">
        <ele>1452</ele>
        <time>2015-06-29T06:30:13Z</time>
      </trkpt>
      <trkpt lat="42.35285" lon="8.90806">
        <ele>1451.6</ele>
        <time>2015-06-29T06:30:52Z</time>
      </trkpt>
      <trkpt lat="42.35283" lon="8.90814">
        <ele>1451</ele>
        <time>2015-06-29T06:30:59Z</time>
      </trkpt>
      <trkpt lat="42.35279" lon="8.90817">
        <ele>1450.2</ele>
        <time>2015-06-29T06:31:15Z</time>
      </trkpt>
      <trkpt lat="42.35275" lon="8.90821">
        <ele>1450</ele>
        <time>2015-06-29T06:31:22Z</time>
      </trkpt>
      <trkpt lat="42.35272" lon="8.90828">
        <ele>1448.6</ele>
        <time>2015-06-29T06:31:30Z</time>
      </trkpt>
      <trkpt lat="42.35266" lon="8.90827">
        <ele>1447.4</ele>
        <time>2015-06-29T06:31:53Z</time>
      </trkpt>
      <trkpt lat="42.35262" lon="8.90825">
        <ele>1446.6</ele>
        <time>2015-06-29T06:32:00Z</time>
      </trkpt>
      <trkpt lat="42.35257" lon="8.90823">
        <ele>1445.2</ele>
        <time>2015-06-29T06:32:08Z</time>
      </trkpt>
      <trkpt lat="42.35253" lon="8.90823">
        <ele>1444.4</ele>
        <time>2015-06-29T06:32:16Z</time>
      </trkpt>
      <trkpt lat="42.35249" lon="8.90821">
        <ele>1443</ele>
        <time>2015-06-29T06:32:27Z</time>
      </trkpt>
      <trkpt lat="42.35246" lon="8.90818">
        <ele>1442.4</ele>
        <time>2015-06-29T06:32:33Z</time>
      </trkpt>
      <trkpt lat="42.35244" lon="8.90816">
        <ele>1441.4</ele>
        <time>2015-06-29T06:32:38Z</time>
      </trkpt>
      <trkpt lat="42.35241" lon="8.90814">
        <ele>1440.2</ele>
        <time>2015-06-29T06:32:43Z</time>
      </trkpt>
      <trkpt lat="42.35238" lon="8.90817">
        <ele>1438.8</ele>
        <time>2015-06-29T06:32:49Z</time>
      </trkpt>
      <trkpt lat="42.35227" lon="8.90826">
        <ele>1437.4</ele>
        <time>2015-06-29T06:33:55Z</time>
      </trkpt>
      <trkpt lat="42.35222" lon="8.90826">
        <ele>1438.8</ele>
        <time>2015-06-29T06:34:03Z</time>
      </trkpt>
      <trkpt lat="42.35215" lon="8.90833">
        <ele>1439</ele>
        <time>2015-06-29T06:34:17Z</time>
      </trkpt>
      <trkpt lat="42.35209" lon="8.90835">
        <ele>1438</ele>
        <time>2015-06-29T06:34:30Z</time>
      </trkpt>
      <trkpt lat="42.35204" lon="8.9083">
        <ele>1436.8</ele>
        <time>2015-06-29T06:34:40Z</time>
      </trkpt>
      <trkpt lat="42.35199" lon="8.90832">
        <ele>1436</ele>
        <time>2015-06-29T06:34:47Z</time>
      </trkpt>
      <trkpt lat="42.35193" lon="8.90833">
        <ele>1434.8</ele>
        <time>2015-06-29T06:34:55Z</time>
      </trkpt>
      <trkpt lat="42.35189" lon="8.9083">
        <ele>1433.6</ele>
        <time>2015-06-29T06:35:02Z</time>
      </trkpt>
      <trkpt lat="42.35184" lon="8.9083">
        <ele>1432.6</ele>
        <time>2015-06-29T06:35:09Z</time>
      </trkpt>
      <trkpt lat="42.35178" lon="8.90834">
        <ele>1431.4</ele>
        <time>2015-06-29T06:35:19Z</time>
      </trkpt>
      <trkpt lat="42.35174" lon="8.90833">
        <ele>1430.6</ele>
        <time>2015-06-29T06:35:25Z</time>
      </trkpt>
      <trkpt lat="42.35169" lon="8.90836">
        <ele>1429</ele>
        <time>2015-06-29T06:35:35Z</time>
      </trkpt>
      <trkpt lat="42.35165" lon="8.90837">
        <ele>1428</ele>
        <time>2015-06-29T06:35:44Z</time>
      </trkpt>
      <trkpt lat="42.35161" lon="8.90839">
        <ele>1427</ele>
        <time>2015-06-29T06:35:51Z</time>
      </trkpt>
      <trkpt lat="42.35157" lon="8.90838">
        <ele>1425.8</ele>
        <time>2015-06-29T06:36:01Z</time>
      </trkpt>
      <trkpt lat="42.3515" lon="8.90839">
        <ele>1424.8</ele>
        <time>2015-06-29T06:36:09Z</time>
      </trkpt>
      <trkpt lat="42.35145" lon="8.90834">
        <ele>1423.6</ele>
        <time>2015-06-29T06:36:17Z</time>
      </trkpt>
      <trkpt lat="42.35138" lon="8.90834">
        <ele>1422.2</ele>
        <time>2015-06-29T06:36:27Z</time>
      </trkpt>
      <trkpt lat="42.3513" lon="8.90833">
        <ele>1421</ele>
        <time>2015-06-29T06:36:37Z</time>
      </trkpt>
      <trkpt lat="42.35125" lon="8.90834">
        <ele>1419.8</ele>
        <time>2015-06-29T06:36:45Z</time>
      </trkpt>
      <trkpt lat="42.35117" lon="8.90835">
        <ele>1418.8</ele>
        <time>2015-06-29T06:36:56Z</time>
      </trkpt>
      <trkpt lat="42.35112" lon="8.90837">
        <ele>1417.8</ele>
        <time>2015-06-29T06:37:05Z</time>
      </trkpt>
      <trkpt lat="42.35112" lon="8.90833">
        <ele>1416.8</ele>
        <time>2015-06-29T06:37:12Z</time>
      </trkpt>
      <trkpt lat="42.35109" lon="8.9083">
        <ele>1415.4</ele>
        <time>2015-06-29T06:37:21Z</time>
      </trkpt>
      <trkpt lat="42.35105" lon="8.90832">
        <ele>1414.2</ele>
        <time>2015-06-29T06:37:29Z</time>
      </trkpt>
      <trkpt lat="42.351" lon="8.90836">
        <ele>1413.2</ele>
        <time>2015-06-29T06:37:37Z</time>
      </trkpt>
      <trkpt lat="42.35096" lon="8.90842">
        <ele>1412</ele>
        <time>2015-06-29T06:37:47Z</time>
      </trkpt>
      <trkpt lat="42.35092" lon="8.90848">
        <ele>1410.6</ele>
        <time>2015-06-29T06:37:55Z</time>
      </trkpt>
      <trkpt lat="42.35087" lon="8.90854">
        <ele>1409.2</ele>
        <time>2015-06-29T06:38:09Z</time>
      </trkpt>
      <trkpt lat="42.35081" lon="8.90855">
        <ele>1408.6</ele>
        <time>2015-06-29T06:38:19Z</time>
      </trkpt>
      <trkpt lat="42.3507" lon="8.9086">
        <ele>1407.2</ele>
        <time>2015-06-29T06:38:33Z</time>
      </trkpt>
      <trkpt lat="42.35066" lon="8.90866">
        <ele>1406.2</ele>
        <time>2015-06-29T06:38:42Z</time>
      </trkpt>
      <trkpt lat="42.35061" lon="8.90867">
        <ele>1405.2</ele>
        <time>2015-06-29T06:38:53Z</time>
      </trkpt>
      <trkpt lat="42.35051" lon="8.90869">
        <ele>1403.8</ele>
        <time>2015-06-29T06:39:04Z</time>
      </trkpt>
      <trkpt lat="42.35045" lon="8.90868">
        <ele>1403.4</ele>
        <time>2015-06-29T06:39:11Z</time>
      </trkpt>
      <trkpt lat="42.35039" lon="8.90869">
        <ele>1402</ele>
        <time>2015-06-29T06:39:18Z</time>
      </trkpt>
      <trkpt lat="42.35034" lon="8.90866">
        <ele>1401</ele>
        <time>2015-06-29T06:39:25Z</time>
      </trkpt>
      <trkpt lat="42.35025" lon="8.90867">
        <ele>1399.6</ele>
        <time>2015-06-29T06:39:35Z</time>
      </trkpt>
      <trkpt lat="42.35018" lon="8.90864">
        <ele>1398.6</ele>
        <time>2015-06-29T06:39:44Z</time>
      </trkpt>
      <trkpt lat="42.35009" lon="8.90866">
        <ele>1397.6</ele>
        <time>2015-06-29T06:39:55Z</time>
      </trkpt>
      <trkpt lat="42.35009" lon="8.90866">
        <ele>1397.4</ele>
        <time>2015-06-29T06:39:56Z</time>
      </trkpt>
      <trkpt lat="42.35" lon="8.90867">
        <ele>1396.4</ele>
        <time>2015-06-29T06:40:05Z</time>
      </trkpt>
      <trkpt lat="42.3499" lon="8.90876">
        <ele>1394.8</ele>
        <time>2015-06-29T06:40:23Z</time>
      </trkpt>
      <trkpt lat="42.3498" lon="8.90878">
        <ele>1394</ele>
        <time>2015-06-29T06:40:36Z</time>
      </trkpt>
      <trkpt lat="42.34971" lon="8.90881">
        <ele>1393.2</ele>
        <time>2015-06-29T06:40:46Z</time>
      </trkpt>
      <trkpt lat="42.34966" lon="8.90885">
        <ele>1392.8</ele>
        <time>2015-06-29T06:40:50Z</time>
      </trkpt>
      <trkpt lat="42.34958" lon="8.9089">
        <ele>1392</ele>
        <time>2015-06-29T06:41:00Z</time>
      </trkpt>
      <trkpt lat="42.3495" lon="8.90896">
        <ele>1390.6</ele>
        <time>2015-06-29T06:41:13Z</time>
      </trkpt>
      <trkpt lat="42.34944" lon="8.909">
        <ele>1390.2</ele>
        <time>2015-06-29T06:41:20Z</time>
      </trkpt>
      <trkpt lat="42.34938" lon="8.90903">
        <ele>1389.8</ele>
        <time>2015-06-29T06:41:25Z</time>
      </trkpt>
      <trkpt lat="42.34921" lon="8.90906">
        <ele>1388.6</ele>
        <time>2015-06-29T06:41:37Z</time>
      </trkpt>
      <trkpt lat="42.34914" lon="8.90902">
        <ele>1387.8</ele>
        <time>2015-06-29T06:41:45Z</time>
      </trkpt>
      <trkpt lat="42.34906" lon="8.90896">
        <ele>1386.8</ele>
        <time>2015-06-29T06:41:53Z</time>
      </trkpt>
      <trkpt lat="42.34893" lon="8.90887">
        <ele>1385.8</ele>
        <time>2015-06-29T06:42:01Z</time>
      </trkpt>
      <trkpt lat="42.34866" lon="8.90885">
        <ele>1384</ele>
        <time>2015-06-29T06:42:26Z</time>
      </trkpt>
      <trkpt lat="42.34837" lon="8.90887">
        <ele>1384.6</ele>
        <time>2015-06-29T06:43:02Z</time>
      </trkpt>
      <trkpt lat="42.34834" lon="8.90888">
        <ele>1384.8</ele>
        <time>2015-06-29T06:43:05Z</time>
      </trkpt>
      <trkpt lat="42.34809" lon="8.90897">
        <ele>1383.4</ele>
        <time>2015-06-29T06:43:30Z</time>
      </trkpt>
      <trkpt lat="42.34799" lon="8.90902">
        <ele>1382.6</ele>
        <time>2015-06-29T06:43:42Z</time>
      </trkpt>
      <trkpt lat="42.34794" lon="8.90903">
        <ele>1382.2</ele>
        <time>2015-06-29T06:43:48Z</time>
      </trkpt>
      <trkpt lat="42.34779" lon="8.90904">
        <ele>1381.6</ele>
        <time>2015-06-29T06:44:04Z</time>
      </trkpt>
      <trkpt lat="42.34775" lon="8.90903">
        <ele>1381</ele>
        <time>2015-06-29T06:44:09Z</time>
      </trkpt>
      <trkpt lat="42.34772" lon="8.90902">
        <ele>1380.6</ele>
        <time>2015-06-29T06:44:13Z</time>
      </trkpt>
      <trkpt lat="42.34763" lon="8.90899">
        <ele>1379.6</ele>
        <time>2015-06-29T06:44:21Z</time>
      </trkpt>
      <trkpt lat="42.34754" lon="8.90895">
        <ele>1378.6</ele>
        <time>2015-06-29T06:44:29Z</time>
      </trkpt>
      <trkpt lat="42.34748" lon="8.90894">
        <ele>1377.6</ele>
        <time>2015-06-29T06:44:37Z</time>
      </trkpt>
      <trkpt lat="42.34742" lon="8.90893">
        <ele>1376.6</ele>
        <time>2015-06-29T06:44:45Z</time>
      </trkpt>
      <trkpt lat="42.34737" lon="8.90891">
        <ele>1375.6</ele>
        <time>2015-06-29T06:44:52Z</time>
      </trkpt>
      <trkpt lat="42.34728" lon="8.90889">
        <ele>1374.4</ele>
        <time>2015-06-29T06:45:00Z</time>
      </trkpt>
      <trkpt lat="42.34721" lon="8.90886">
        <ele>1373.6</ele>
        <time>2015-06-29T06:45:07Z</time>
      </trkpt>
      <trkpt lat="42.34712" lon="8.90883">
        <ele>1372.4</ele>
        <time>2015-06-29T06:45:15Z</time>
      </trkpt>
      <trkpt lat="42.34706" lon="8.9088">
        <ele>1371</ele>
        <time>2015-06-29T06:45:23Z</time>
      </trkpt>
      <trkpt lat="42.34699" lon="8.90879">
        <ele>1370</ele>
        <time>2015-06-29T06:45:32Z</time>
      </trkpt>
      <trkpt lat="42.34693" lon="8.90879">
        <ele>1369</ele>
        <time>2015-06-29T06:45:40Z</time>
      </trkpt>
      <trkpt lat="42.34688" lon="8.90877">
        <ele>1368</ele>
        <time>2015-06-29T06:45:49Z</time>
      </trkpt>
      <trkpt lat="42.34683" lon="8.90876">
        <ele>1367.4</ele>
        <time>2015-06-29T06:45:57Z</time>
      </trkpt>
      <trkpt lat="42.34677" lon="8.90873">
        <ele>1366</ele>
        <time>2015-06-29T06:46:08Z</time>
      </trkpt>
      <trkpt lat="42.34667" lon="8.90866">
        <ele>1364.8</ele>
        <time>2015-06-29T06:46:21Z</time>
      </trkpt>
      <trkpt lat="42.34662" lon="8.90861">
        <ele>1364</ele>
        <time>2015-06-29T06:46:30Z</time>
      </trkpt>
      <trkpt lat="42.34657" lon="8.90856">
        <ele>1363.2</ele>
        <time>2015-06-29T06:46:37Z</time>
      </trkpt>
      <trkpt lat="42.34653" lon="8.90854">
        <ele>1362.2</ele>
        <time>2015-06-29T06:46:43Z</time>
      </trkpt>
      <trkpt lat="42.34649" lon="8.9085">
        <ele>1361.2</ele>
        <time>2015-06-29T06:46:49Z</time>
      </trkpt>
      <trkpt lat="42.34642" lon="8.90845">
        <ele>1360.2</ele>
        <time>2015-06-29T06:46:57Z</time>
      </trkpt>
      <trkpt lat="42.34637" lon="8.9084">
        <ele>1359.2</ele>
        <time>2015-06-29T06:47:04Z</time>
      </trkpt>
      <trkpt lat="42.34632" lon="8.90838">
        <ele>1358</ele>
        <time>2015-06-29T06:47:10Z</time>
      </trkpt>
      <trkpt lat="42.34627" lon="8.90836">
        <ele>1357</ele>
        <time>2015-06-29T06:47:16Z</time>
      </trkpt>
      <trkpt lat="42.34623" lon="8.90835">
        <ele>1356</ele>
        <time>2015-06-29T06:47:22Z</time>
      </trkpt>
      <trkpt lat="42.34617" lon="8.90834">
        <ele>1354.6</ele>
        <time>2015-06-29T06:47:30Z</time>
      </trkpt>
      <trkpt lat="42.34612" lon="8.90833">
        <ele>1353.4</ele>
        <time>2015-06-29T06:47:39Z</time>
      </trkpt>
      <trkpt lat="42.34608" lon="8.90835">
        <ele>1352.4</ele>
        <time>2015-06-29T06:47:47Z</time>
      </trkpt>
      <trkpt lat="42.34603" lon="8.90835">
        <ele>1351.6</ele>
        <time>2015-06-29T06:47:55Z</time>
      </trkpt>
      <trkpt lat="42.34602" lon="8.90834">
        <ele>1350.2</ele>
        <time>2015-06-29T06:48:04Z</time>
      </trkpt>
      <trkpt lat="42.346" lon="8.90836">
        <ele>1349.6</ele>
        <time>2015-06-29T06:48:10Z</time>
      </trkpt>
      <trkpt lat="42.34589" lon="8.90841">
        <ele>1348</ele>
        <time>2015-06-29T06:48:22Z</time>
      </trkpt>
      <trkpt lat="42.34582" lon="8.90844">
        <ele>1347.6</ele>
        <time>2015-06-29T06:48:28Z</time>
      </trkpt>
      <trkpt lat="42.34568" lon="8.90845">
        <ele>1345.8</ele>
        <time>2015-06-29T06:48:43Z</time>
      </trkpt>
      <trkpt lat="42.34557" lon="8.90849">
        <ele>1345</ele>
        <time>2015-06-29T06:49:00Z</time>
      </trkpt>
      <trkpt lat="42.34546" lon="8.90857">
        <ele>1344</ele>
        <time>2015-06-29T06:49:11Z</time>
      </trkpt>
      <trkpt lat="42.3454" lon="8.90861">
        <ele>1343.4</ele>
        <time>2015-06-29T06:49:17Z</time>
      </trkpt>
      <trkpt lat="42.34531" lon="8.9086">
        <ele>1342</ele>
        <time>2015-06-29T06:49:25Z</time>
      </trkpt>
      <trkpt lat="42.34527" lon="8.90856">
        <ele>1341.4</ele>
        <time>2015-06-29T06:49:31Z</time>
      </trkpt>
      <trkpt lat="42.34524" lon="8.90854">
        <ele>1340.4</ele>
        <time>2015-06-29T06:49:35Z</time>
      </trkpt>
      <trkpt lat="42.34523" lon="8.90852">
        <ele>1340</ele>
        <time>2015-06-29T06:49:38Z</time>
      </trkpt>
      <trkpt lat="42.34519" lon="8.90843">
        <ele>1338.6</ele>
        <time>2015-06-29T06:49:47Z</time>
      </trkpt>
      <trkpt lat="42.34517" lon="8.90836">
        <ele>1337.8</ele>
        <time>2015-06-29T06:49:54Z</time>
      </trkpt>
      <trkpt lat="42.34516" lon="8.90828">
        <ele>1336.6</ele>
        <time>2015-06-29T06:50:01Z</time>
      </trkpt>
      <trkpt lat="42.34517" lon="8.90819">
        <ele>1335.4</ele>
        <time>2015-06-29T06:50:08Z</time>
      </trkpt>
      <trkpt lat="42.34522" lon="8.90806">
        <ele>1334</ele>
        <time>2015-06-29T06:50:19Z</time>
      </trkpt>
      <trkpt lat="42.34523" lon="8.90796">
        <ele>1333.4</ele>
        <time>2015-06-29T06:50:27Z</time>
      </trkpt>
      <trkpt lat="42.34521" lon="8.9079">
        <ele>1332.6</ele>
        <time>2015-06-29T06:50:33Z</time>
      </trkpt>
      <trkpt lat="42.3452" lon="8.9078">
        <ele>1331</ele>
        <time>2015-06-29T06:50:42Z</time>
      </trkpt>
      <trkpt lat="42.34521" lon="8.90773">
        <ele>1330</ele>
        <time>2015-06-29T06:50:50Z</time>
      </trkpt>
      <trkpt lat="42.34511" lon="8.90773">
        <ele>1328.6</ele>
        <time>2015-06-29T06:51:04Z</time>
      </trkpt>
      <trkpt lat="42.34504" lon="8.90777">
        <ele>1328</ele>
        <time>2015-06-29T06:51:10Z</time>
      </trkpt>
      <trkpt lat="42.34501" lon="8.90778">
        <ele>1327.2</ele>
        <time>2015-06-29T06:51:15Z</time>
      </trkpt>
      <trkpt lat="42.34498" lon="8.90778">
        <ele>1326.6</ele>
        <time>2015-06-29T06:51:19Z</time>
      </trkpt>
      <trkpt lat="42.34492" lon="8.90778">
        <ele>1325.6</ele>
        <time>2015-06-29T06:51:28Z</time>
      </trkpt>
      <trkpt lat="42.34483" lon="8.9078">
        <ele>1324.2</ele>
        <time>2015-06-29T06:51:40Z</time>
      </trkpt>
      <trkpt lat="42.34475" lon="8.90782">
        <ele>1323.6</ele>
        <time>2015-06-29T06:51:55Z</time>
      </trkpt>
      <trkpt lat="42.3447" lon="8.90781">
        <ele>1322.4</ele>
        <time>2015-06-29T06:52:03Z</time>
      </trkpt>
      <trkpt lat="42.34468" lon="8.90784">
        <ele>1321.8</ele>
        <time>2015-06-29T06:52:09Z</time>
      </trkpt>
      <trkpt lat="42.34465" lon="8.908">
        <ele>1320.2</ele>
        <time>2015-06-29T06:52:27Z</time>
      </trkpt>
      <trkpt lat="42.34464" lon="8.90803">
        <ele>1320.2</ele>
        <time>2015-06-29T06:52:29Z</time>
      </trkpt>
      <trkpt lat="42.34463" lon="8.90811">
        <ele>1319.6</ele>
        <time>2015-06-29T06:52:40Z</time>
      </trkpt>
      <trkpt lat="42.34463" lon="8.90814">
        <ele>1319.6</ele>
        <time>2015-06-29T06:52:47Z</time>
      </trkpt>
      <trkpt lat="42.34461" lon="8.90818">
        <ele>1318.2</ele>
        <time>2015-06-29T06:52:55Z</time>
      </trkpt>
      <trkpt lat="42.34455" lon="8.90823">
        <ele>1317</ele>
        <time>2015-06-29T06:53:04Z</time>
      </trkpt>
      <trkpt lat="42.34452" lon="8.90826">
        <ele>1316.2</ele>
        <time>2015-06-29T06:53:12Z</time>
      </trkpt>
      <trkpt lat="42.3445" lon="8.90833">
        <ele>1315</ele>
        <time>2015-06-29T06:53:20Z</time>
      </trkpt>
      <trkpt lat="42.34445" lon="8.90837">
        <ele>1314</ele>
        <time>2015-06-29T06:53:28Z</time>
      </trkpt>
      <trkpt lat="42.34439" lon="8.90842">
        <ele>1313</ele>
        <time>2015-06-29T06:53:36Z</time>
      </trkpt>
      <trkpt lat="42.34439" lon="8.90843">
        <ele>1312.8</ele>
        <time>2015-06-29T06:53:37Z</time>
      </trkpt>
      <trkpt lat="42.34437" lon="8.90845">
        <ele>1312.6</ele>
        <time>2015-06-29T06:53:39Z</time>
      </trkpt>
      <trkpt lat="42.34432" lon="8.9085">
        <ele>1311.8</ele>
        <time>2015-06-29T06:53:44Z</time>
      </trkpt>
      <trkpt lat="42.34427" lon="8.90855">
        <ele>1311</ele>
        <time>2015-06-29T06:53:51Z</time>
      </trkpt>
      <trkpt lat="42.34425" lon="8.90857">
        <ele>1310.6</ele>
        <time>2015-06-29T06:53:54Z</time>
      </trkpt>
      <trkpt lat="42.34419" lon="8.90857">
        <ele>1309.8</ele>
        <time>2015-06-29T06:54:02Z</time>
      </trkpt>
      <trkpt lat="42.34413" lon="8.90856">
        <ele>1308.6</ele>
        <time>2015-06-29T06:54:11Z</time>
      </trkpt>
      <trkpt lat="42.34409" lon="8.90855">
        <ele>1307.8</ele>
        <time>2015-06-29T06:54:18Z</time>
      </trkpt>
      <trkpt lat="42.34403" lon="8.90847">
        <ele>1306</ele>
        <time>2015-06-29T06:54:28Z</time>
      </trkpt>
      <trkpt lat="42.34398" lon="8.90843">
        <ele>1305.4</ele>
        <time>2015-06-29T06:54:35Z</time>
      </trkpt>
      <trkpt lat="42.34392" lon="8.9084">
        <ele>1304.4</ele>
        <time>2015-06-29T06:54:41Z</time>
      </trkpt>
      <trkpt lat="42.34386" lon="8.9084">
        <ele>1303.2</ele>
        <time>2015-06-29T06:54:48Z</time>
      </trkpt>
      <trkpt lat="42.34383" lon="8.9084">
        <ele>1302.4</ele>
        <time>2015-06-29T06:54:54Z</time>
      </trkpt>
      <trkpt lat="42.34378" lon="8.90842">
        <ele>1301.2</ele>
        <time>2015-06-29T06:55:01Z</time>
      </trkpt>
      <trkpt lat="42.34374" lon="8.90846">
        <ele>1299.8</ele>
        <time>2015-06-29T06:55:09Z</time>
      </trkpt>
      <trkpt lat="42.3437" lon="8.90848">
        <ele>1298.6</ele>
        <time>2015-06-29T06:55:16Z</time>
      </trkpt>
      <trkpt lat="42.34369" lon="8.9085">
        <ele>1298.4</ele>
        <time>2015-06-29T06:55:19Z</time>
      </trkpt>
      <trkpt lat="42.34367" lon="8.90853">
        <ele>1297.2</ele>
        <time>2015-06-29T06:55:23Z</time>
      </trkpt>
      <trkpt lat="42.34364" lon="8.90857">
        <ele>1296.4</ele>
        <time>2015-06-29T06:55:29Z</time>
      </trkpt>
      <trkpt lat="42.34362" lon="8.90861">
        <ele>1295.2</ele>
        <time>2015-06-29T06:55:35Z</time>
      </trkpt>
      <trkpt lat="42.3436" lon="8.90866">
        <ele>1294.2</ele>
        <time>2015-06-29T06:55:41Z</time>
      </trkpt>
      <trkpt lat="42.34357" lon="8.90871">
        <ele>1292.8</ele>
        <time>2015-06-29T06:55:49Z</time>
      </trkpt>
      <trkpt lat="42.34354" lon="8.90876">
        <ele>1291.8</ele>
        <time>2015-06-29T06:55:57Z</time>
      </trkpt>
      <trkpt lat="42.3435" lon="8.90884">
        <ele>1290.4</ele>
        <time>2015-06-29T06:56:08Z</time>
      </trkpt>
      <trkpt lat="42.34347" lon="8.90889">
        <ele>1289.6</ele>
        <time>2015-06-29T06:56:16Z</time>
      </trkpt>
      <trkpt lat="42.34343" lon="8.90893">
        <ele>1288.8</ele>
        <time>2015-06-29T06:56:23Z</time>
      </trkpt>
      <trkpt lat="42.34335" lon="8.9089">
        <ele>1287</ele>
        <time>2015-06-29T06:56:40Z</time>
      </trkpt>
      <trkpt lat="42.34332" lon="8.90889">
        <ele>1286.8</ele>
        <time>2015-06-29T06:56:44Z</time>
      </trkpt>
      <trkpt lat="42.34329" lon="8.90885">
        <ele>1286.4</ele>
        <time>2015-06-29T06:56:49Z</time>
      </trkpt>
      <trkpt lat="42.34322" lon="8.90884">
        <ele>1286</ele>
        <time>2015-06-29T06:56:58Z</time>
      </trkpt>
      <trkpt lat="42.3432" lon="8.90895">
        <ele>1285.2</ele>
        <time>2015-06-29T06:57:12Z</time>
      </trkpt>
      <trkpt lat="42.34316" lon="8.90916">
        <ele>1284</ele>
        <time>2015-06-29T06:57:38Z</time>
      </trkpt>
      <trkpt lat="42.34312" lon="8.90917">
        <ele>1283.2</ele>
        <time>2015-06-29T06:57:46Z</time>
      </trkpt>
      <trkpt lat="42.34302" lon="8.90921">
        <ele>1282</ele>
        <time>2015-06-29T06:57:57Z</time>
      </trkpt>
      <trkpt lat="42.34293" lon="8.90923">
        <ele>1280.8</ele>
        <time>2015-06-29T06:58:06Z</time>
      </trkpt>
      <trkpt lat="42.34284" lon="8.90926">
        <ele>1280.2</ele>
        <time>2015-06-29T06:58:15Z</time>
      </trkpt>
      <trkpt lat="42.34274" lon="8.90932">
        <ele>1278.8</ele>
        <time>2015-06-29T06:58:27Z</time>
      </trkpt>
      <trkpt lat="42.34267" lon="8.9094">
        <ele>1277.6</ele>
        <time>2015-06-29T06:58:38Z</time>
      </trkpt>
      <trkpt lat="42.34259" lon="8.90948">
        <ele>1276.8</ele>
        <time>2015-06-29T06:58:50Z</time>
      </trkpt>
      <trkpt lat="42.34254" lon="8.90955">
        <ele>1275.4</ele>
        <time>2015-06-29T06:59:03Z</time>
      </trkpt>
      <trkpt lat="42.34245" lon="8.90964">
        <ele>1274.4</ele>
        <time>2015-06-29T06:59:17Z</time>
      </trkpt>
      <trkpt lat="42.34225" lon="8.90973">
        <ele>1273.6</ele>
        <time>2015-06-29T06:59:42Z</time>
      </trkpt>
      <trkpt lat="42.34201" lon="8.9099">
        <ele>1272.4</ele>
        <time>2015-06-29T07:00:10Z</time>
      </trkpt>
      <trkpt lat="42.34162" lon="8.91018">
        <ele>1272.4</ele>
        <time>2015-06-29T07:00:59Z</time>
      </trkpt>
      <trkpt lat="42.34152" lon="8.91027">
        <ele>1273.4</ele>
        <time>2015-06-29T07:01:14Z</time>
      </trkpt>
      <trkpt lat="42.34127" lon="8.9103">
        <ele>1273.2</ele>
        <time>2015-06-29T07:01:40Z</time>
      </trkpt>
      <trkpt lat="42.34104" lon="8.91038">
        <ele>1272.2</ele>
        <time>2015-06-29T07:02:07Z</time>
      </trkpt>
      <trkpt lat="42.34097" lon="8.91039">
        <ele>1271.6</ele>
        <time>2015-06-29T07:02:15Z</time>
      </trkpt>
      <trkpt lat="42.34087" lon="8.91041">
        <ele>1270.4</ele>
        <time>2015-06-29T07:02:29Z</time>
      </trkpt>
      <trkpt lat="42.34081" lon="8.91041">
        <ele>1269.6</ele>
        <time>2015-06-29T07:02:36Z</time>
      </trkpt>
      <trkpt lat="42.34074" lon="8.9104">
        <ele>1268.6</ele>
        <time>2015-06-29T07:02:44Z</time>
      </trkpt>
      <trkpt lat="42.34068" lon="8.91039">
        <ele>1267.4</ele>
        <time>2015-06-29T07:02:51Z</time>
      </trkpt>
      <trkpt lat="42.34062" lon="8.91038">
        <ele>1266.4</ele>
        <time>2015-06-29T07:02:59Z</time>
      </trkpt>
      <trkpt lat="42.34054" lon="8.91036">
        <ele>1265.2</ele>
        <time>2015-06-29T07:03:09Z</time>
      </trkpt>
      <trkpt lat="42.3405" lon="8.91036">
        <ele>1264.6</ele>
        <time>2015-06-29T07:03:14Z</time>
      </trkpt>
      <trkpt lat="42.34044" lon="8.91036">
        <ele>1263.2</ele>
        <time>2015-06-29T07:03:22Z</time>
      </trkpt>
      <trkpt lat="42.34038" lon="8.91036">
        <ele>1262.2</ele>
        <time>2015-06-29T07:03:29Z</time>
      </trkpt>
      <trkpt lat="42.34033" lon="8.91037">
        <ele>1261</ele>
        <time>2015-06-29T07:03:35Z</time>
      </trkpt>
      <trkpt lat="42.3402" lon="8.91041">
        <ele>1259.6</ele>
        <time>2015-06-29T07:03:50Z</time>
      </trkpt>
      <trkpt lat="42.34012" lon="8.91042">
        <ele>1258.8</ele>
        <time>2015-06-29T07:04:01Z</time>
      </trkpt>
      <trkpt lat="42.34002" lon="8.91041">
        <ele>1257.8</ele>
        <time>2015-06-29T07:04:12Z</time>
      </trkpt>
      <trkpt lat="42.33994" lon="8.91042">
        <ele>1256.6</ele>
        <time>2015-06-29T07:04:22Z</time>
      </trkpt>
      <trkpt lat="42.33989" lon="8.91046">
        <ele>1256</ele>
        <time>2015-06-29T07:04:30Z</time>
      </trkpt>
      <trkpt lat="42.33987" lon="8.91048">
        <ele>1255.6</ele>
        <time>2015-06-29T07:04:33Z</time>
      </trkpt>
      <trkpt lat="42.33982" lon="8.91051">
        <ele>1254.8</ele>
        <time>2015-06-29T07:04:40Z</time>
      </trkpt>
      <trkpt lat="42.33975" lon="8.9105">
        <ele>1253.4</ele>
        <time>2015-06-29T07:04:49Z</time>
      </trkpt>
      <trkpt lat="42.33969" lon="8.9105">
        <ele>1252.8</ele>
        <time>2015-06-29T07:04:57Z</time>
      </trkpt>
      <trkpt lat="42.33962" lon="8.9105">
        <ele>1251.6</ele>
        <time>2015-06-29T07:05:05Z</time>
      </trkpt>
      <trkpt lat="42.33956" lon="8.91051">
        <ele>1250.6</ele>
        <time>2015-06-29T07:05:14Z</time>
      </trkpt>
      <trkpt lat="42.33947" lon="8.91055">
        <ele>1249.4</ele>
        <time>2015-06-29T07:05:28Z</time>
      </trkpt>
      <trkpt lat="42.33942" lon="8.9106">
        <ele>1248.4</ele>
        <time>2015-06-29T07:05:40Z</time>
      </trkpt>
      <trkpt lat="42.33936" lon="8.91063">
        <ele>1247.8</ele>
        <time>2015-06-29T07:05:52Z</time>
      </trkpt>
      <trkpt lat="42.33928" lon="8.91071">
        <ele>1246.6</ele>
        <time>2015-06-29T07:06:05Z</time>
      </trkpt>
      <trkpt lat="42.33923" lon="8.91076">
        <ele>1245.6</ele>
        <time>2015-06-29T07:06:15Z</time>
      </trkpt>
      <trkpt lat="42.33914" lon="8.91082">
        <ele>1244.6</ele>
        <time>2015-06-29T07:06:25Z</time>
      </trkpt>
      <trkpt lat="42.33907" lon="8.9109">
        <ele>1243.8</ele>
        <time>2015-06-29T07:06:37Z</time>
      </trkpt>
      <trkpt lat="42.33903" lon="8.91096">
        <ele>1243</ele>
        <time>2015-06-29T07:06:46Z</time>
      </trkpt>
      <trkpt lat="42.33895" lon="8.91106">
        <ele>1241.6</ele>
        <time>2015-06-29T07:07:02Z</time>
      </trkpt>
      <trkpt lat="42.33891" lon="8.91114">
        <ele>1240.8</ele>
        <time>2015-06-29T07:07:13Z</time>
      </trkpt>
      <trkpt lat="42.33886" lon="8.91116">
        <ele>1240.2</ele>
        <time>2015-06-29T07:07:21Z</time>
      </trkpt>
      <trkpt lat="42.33881" lon="8.91119">
        <ele>1238.8</ele>
        <time>2015-06-29T07:07:32Z</time>
      </trkpt>
      <trkpt lat="42.33876" lon="8.91122">
        <ele>1238.2</ele>
        <time>2015-06-29T07:07:43Z</time>
      </trkpt>
      <trkpt lat="42.33871" lon="8.91122">
        <ele>1236.8</ele>
        <time>2015-06-29T07:07:56Z</time>
      </trkpt>
      <trkpt lat="42.33864" lon="8.91126">
        <ele>1236</ele>
        <time>2015-06-29T07:08:08Z</time>
      </trkpt>
      <trkpt lat="42.33856" lon="8.91127">
        <ele>1234.8</ele>
        <time>2015-06-29T07:08:20Z</time>
      </trkpt>
      <trkpt lat="42.33852" lon="8.91129">
        <ele>1234</ele>
        <time>2015-06-29T07:08:28Z</time>
      </trkpt>
      <trkpt lat="42.33847" lon="8.9113">
        <ele>1232.8</ele>
        <time>2015-06-29T07:08:38Z</time>
      </trkpt>
      <trkpt lat="42.3384" lon="8.91133">
        <ele>1231.8</ele>
        <time>2015-06-29T07:08:46Z</time>
      </trkpt>
      <trkpt lat="42.33831" lon="8.91137">
        <ele>1230.8</ele>
        <time>2015-06-29T07:08:56Z</time>
      </trkpt>
      <trkpt lat="42.33828" lon="8.9114">
        <ele>1230</ele>
        <time>2015-06-29T07:09:03Z</time>
      </trkpt>
      <trkpt lat="42.33827" lon="8.9114">
        <ele>1229.6</ele>
        <time>2015-06-29T07:09:07Z</time>
      </trkpt>
      <trkpt lat="42.33822" lon="8.91145">
        <ele>1228</ele>
        <time>2015-06-29T07:09:14Z</time>
      </trkpt>
      <trkpt lat="42.33816" lon="8.91151">
        <ele>1226.8</ele>
        <time>2015-06-29T07:09:21Z</time>
      </trkpt>
      <trkpt lat="42.33805" lon="8.91156">
        <ele>1225.6</ele>
        <time>2015-06-29T07:09:36Z</time>
      </trkpt>
      <trkpt lat="42.33778" lon="8.91176">
        <ele>1224.4</ele>
        <time>2015-06-29T07:10:07Z</time>
      </trkpt>
      <trkpt lat="42.33761" lon="8.91196">
        <ele>1223.4</ele>
        <time>2015-06-29T07:10:30Z</time>
      </trkpt>
      <trkpt lat="42.3375" lon="8.91211">
        <ele>1222.6</ele>
        <time>2015-06-29T07:10:46Z</time>
      </trkpt>
      <trkpt lat="42.33737" lon="8.91222">
        <ele>1221.8</ele>
        <time>2015-06-29T07:11:00Z</time>
      </trkpt>
      <trkpt lat="42.3372" lon="8.91231">
        <ele>1220.8</ele>
        <time>2015-06-29T07:11:17Z</time>
      </trkpt>
      <trkpt lat="42.33708" lon="8.91236">
        <ele>1219.8</ele>
        <time>2015-06-29T07:11:30Z</time>
      </trkpt>
      <trkpt lat="42.33691" lon="8.91243">
        <ele>1219</ele>
        <time>2015-06-29T07:11:47Z</time>
      </trkpt>
      <trkpt lat="42.3368" lon="8.91249">
        <ele>1218.2</ele>
        <time>2015-06-29T07:12:02Z</time>
      </trkpt>
      <trkpt lat="42.3367" lon="8.91258">
        <ele>1217.4</ele>
        <time>2015-06-29T07:12:19Z</time>
      </trkpt>
      <trkpt lat="42.33663" lon="8.9126">
        <ele>1217.4</ele>
        <time>2015-06-29T07:12:28Z</time>
      </trkpt>
      <trkpt lat="42.33666" lon="8.91258">
        <ele>1217.4</ele>
        <time>2015-06-29T07:12:59Z</time>
      </trkpt>
      <trkpt lat="42.33666" lon="8.91258">
        <ele>1217.4</ele>
        <time>2015-06-29T07:13:12Z</time>
      </trkpt>
      <trkpt lat="42.33657" lon="8.91269">
        <ele>1216.8</ele>
        <time>2015-06-29T07:13:30Z</time>
      </trkpt>
      <trkpt lat="42.3365" lon="8.91282">
        <ele>1216</ele>
        <time>2015-06-29T07:13:42Z</time>
      </trkpt>
      <trkpt lat="42.33642" lon="8.91297">
        <ele>1215</ele>
        <time>2015-06-29T07:13:56Z</time>
      </trkpt>
      <trkpt lat="42.33634" lon="8.91313">
        <ele>1214.2</ele>
        <time>2015-06-29T07:14:10Z</time>
      </trkpt>
      <trkpt lat="42.33626" lon="8.91333">
        <ele>1213</ele>
        <time>2015-06-29T07:14:26Z</time>
      </trkpt>
      <trkpt lat="42.33616" lon="8.91354">
        <ele>1212.4</ele>
        <time>2015-06-29T07:14:44Z</time>
      </trkpt>
      <trkpt lat="42.33608" lon="8.9137">
        <ele>1211.4</ele>
        <time>2015-06-29T07:14:57Z</time>
      </trkpt>
      <trkpt lat="42.33599" lon="8.91385">
        <ele>1210.6</ele>
        <time>2015-06-29T07:15:10Z</time>
      </trkpt>
      <trkpt lat="42.33587" lon="8.91401">
        <ele>1209.6</ele>
        <time>2015-06-29T07:15:27Z</time>
      </trkpt>
      <trkpt lat="42.33576" lon="8.91418">
        <ele>1208.8</ele>
        <time>2015-06-29T07:15:43Z</time>
      </trkpt>
      <trkpt lat="42.33563" lon="8.91433">
        <ele>1208</ele>
        <time>2015-06-29T07:15:59Z</time>
      </trkpt>
      <trkpt lat="42.33561" lon="8.91436">
        <ele>1207.6</ele>
        <time>2015-06-29T07:16:02Z</time>
      </trkpt>
      <trkpt lat="42.33555" lon="8.91441">
        <ele>1207.2</ele>
        <time>2015-06-29T07:16:08Z</time>
      </trkpt>
      <trkpt lat="42.33547" lon="8.91448">
        <ele>1206.2</ele>
        <time>2015-06-29T07:16:18Z</time>
      </trkpt>
      <trkpt lat="42.33534" lon="8.91459">
        <ele>1205</ele>
        <time>2015-06-29T07:16:31Z</time>
      </trkpt>
      <trkpt lat="42.33517" lon="8.91467">
        <ele>1204.2</ele>
        <time>2015-06-29T07:16:46Z</time>
      </trkpt>
      <trkpt lat="42.33504" lon="8.91473">
        <ele>1203.2</ele>
        <time>2015-06-29T07:17:00Z</time>
      </trkpt>
      <trkpt lat="42.33485" lon="8.91475">
        <ele>1202.4</ele>
        <time>2015-06-29T07:17:16Z</time>
      </trkpt>
      <trkpt lat="42.33472" lon="8.91477">
        <ele>1201.6</ele>
        <time>2015-06-29T07:17:28Z</time>
      </trkpt>
      <trkpt lat="42.33455" lon="8.91481">
        <ele>1200.6</ele>
        <time>2015-06-29T07:17:43Z</time>
      </trkpt>
      <trkpt lat="42.33445" lon="8.91484">
        <ele>1200</ele>
        <time>2015-06-29T07:17:53Z</time>
      </trkpt>
      <trkpt lat="42.33427" lon="8.91485">
        <ele>1198.8</ele>
        <time>2015-06-29T07:18:10Z</time>
      </trkpt>
      <trkpt lat="42.33414" lon="8.91498">
        <ele>1197.8</ele>
        <time>2015-06-29T07:18:25Z</time>
      </trkpt>
      <trkpt lat="42.33406" lon="8.91522">
        <ele>1196.8</ele>
        <time>2015-06-29T07:18:43Z</time>
      </trkpt>
      <trkpt lat="42.33403" lon="8.91533">
        <ele>1196.4</ele>
        <time>2015-06-29T07:18:52Z</time>
      </trkpt>
      <trkpt lat="42.33398" lon="8.91546">
        <ele>1195</ele>
        <time>2015-06-29T07:19:04Z</time>
      </trkpt>
      <trkpt lat="42.33393" lon="8.91563">
        <ele>1194.2</ele>
        <time>2015-06-29T07:19:18Z</time>
      </trkpt>
      <trkpt lat="42.3339" lon="8.91576">
        <ele>1193</ele>
        <time>2015-06-29T07:19:28Z</time>
      </trkpt>
      <trkpt lat="42.3339" lon="8.9159">
        <ele>1192.2</ele>
        <time>2015-06-29T07:19:38Z</time>
      </trkpt>
      <trkpt lat="42.33395" lon="8.91611">
        <ele>1191</ele>
        <time>2015-06-29T07:19:54Z</time>
      </trkpt>
      <trkpt lat="42.33396" lon="8.91623">
        <ele>1190.4</ele>
        <time>2015-06-29T07:20:04Z</time>
      </trkpt>
      <trkpt lat="42.33401" lon="8.91643">
        <ele>1189.6</ele>
        <time>2015-06-29T07:20:16Z</time>
      </trkpt>
      <trkpt lat="42.33407" lon="8.91661">
        <ele>1188.6</ele>
        <time>2015-06-29T07:20:29Z</time>
      </trkpt>
      <trkpt lat="42.33415" lon="8.91681">
        <ele>1187.6</ele>
        <time>2015-06-29T07:20:44Z</time>
      </trkpt>
      <trkpt lat="42.33421" lon="8.91694">
        <ele>1186.4</ele>
        <time>2015-06-29T07:20:56Z</time>
      </trkpt>
      <trkpt lat="42.33428" lon="8.91703">
        <ele>1185.6</ele>
        <time>2015-06-29T07:21:06Z</time>
      </trkpt>
      <trkpt lat="42.3344" lon="8.91715">
        <ele>1184.8</ele>
        <time>2015-06-29T07:21:19Z</time>
      </trkpt>
      <trkpt lat="42.33447" lon="8.91726">
        <ele>1183.6</ele>
        <time>2015-06-29T07:21:31Z</time>
      </trkpt>
      <trkpt lat="42.33459" lon="8.91738">
        <ele>1182.6</ele>
        <time>2015-06-29T07:21:43Z</time>
      </trkpt>
      <trkpt lat="42.33463" lon="8.91755">
        <ele>1181.8</ele>
        <time>2015-06-29T07:21:55Z</time>
      </trkpt>
      <trkpt lat="42.33463" lon="8.91776">
        <ele>1180.8</ele>
        <time>2015-06-29T07:22:07Z</time>
      </trkpt>
      <trkpt lat="42.33462" lon="8.91801">
        <ele>1179.4</ele>
        <time>2015-06-29T07:22:22Z</time>
      </trkpt>
      <trkpt lat="42.33457" lon="8.91816">
        <ele>1178.4</ele>
        <time>2015-06-29T07:22:34Z</time>
      </trkpt>
      <trkpt lat="42.33452" lon="8.9183">
        <ele>1177.6</ele>
        <time>2015-06-29T07:22:45Z</time>
      </trkpt>
      <trkpt lat="42.33444" lon="8.91846">
        <ele>1176.4</ele>
        <time>2015-06-29T07:22:58Z</time>
      </trkpt>
      <trkpt lat="42.33437" lon="8.91865">
        <ele>1175.4</ele>
        <time>2015-06-29T07:23:12Z</time>
      </trkpt>
      <trkpt lat="42.33439" lon="8.91887">
        <ele>1174.6</ele>
        <time>2015-06-29T07:23:27Z</time>
      </trkpt>
      <trkpt lat="42.33439" lon="8.919">
        <ele>1174.4</ele>
        <time>2015-06-29T07:23:35Z</time>
      </trkpt>
      <trkpt lat="42.33437" lon="8.91915">
        <ele>1174.2</ele>
        <time>2015-06-29T07:23:45Z</time>
      </trkpt>
      <trkpt lat="42.33435" lon="8.9192">
        <ele>1174.2</ele>
        <time>2015-06-29T07:23:49Z</time>
      </trkpt>
      <trkpt lat="42.33431" lon="8.91939">
        <ele>1173.6</ele>
        <time>2015-06-29T07:24:01Z</time>
      </trkpt>
      <trkpt lat="42.33429" lon="8.91944">
        <ele>1173.2</ele>
        <time>2015-06-29T07:24:05Z</time>
      </trkpt>
      <trkpt lat="42.33428" lon="8.91949">
        <ele>1173</ele>
        <time>2015-06-29T07:24:09Z</time>
      </trkpt>
      <trkpt lat="42.33426" lon="8.91962">
        <ele>1171.8</ele>
        <time>2015-06-29T07:24:19Z</time>
      </trkpt>
      <trkpt lat="42.33422" lon="8.91974">
        <ele>1170.8</ele>
        <time>2015-06-29T07:24:28Z</time>
      </trkpt>
      <trkpt lat="42.33416" lon="8.91984">
        <ele>1169.8</ele>
        <time>2015-06-29T07:24:36Z</time>
      </trkpt>
      <trkpt lat="42.33415" lon="8.91987">
        <ele>1169.8</ele>
        <time>2015-06-29T07:24:38Z</time>
      </trkpt>
      <trkpt lat="42.33415" lon="8.91988">
        <ele>1169.6</ele>
        <time>2015-06-29T07:24:39Z</time>
      </trkpt>
      <trkpt lat="42.3341" lon="8.91993">
        <ele>1169.2</ele>
        <time>2015-06-29T07:24:45Z</time>
      </trkpt>
      <trkpt lat="42.33405" lon="8.92001">
        <ele>1168.6</ele>
        <time>2015-06-29T07:24:52Z</time>
      </trkpt>
      <trkpt lat="42.33405" lon="8.92002">
        <ele>1168.6</ele>
        <time>2015-06-29T07:24:53Z</time>
      </trkpt>
      <trkpt lat="42.33397" lon="8.92018">
        <ele>1167.8</ele>
        <time>2015-06-29T07:25:05Z</time>
      </trkpt>
      <trkpt lat="42.33391" lon="8.9203">
        <ele>1167.2</ele>
        <time>2015-06-29T07:25:14Z</time>
      </trkpt>
      <trkpt lat="42.33385" lon="8.92043">
        <ele>1166</ele>
        <time>2015-06-29T07:25:24Z</time>
      </trkpt>
      <trkpt lat="42.3338" lon="8.92059">
        <ele>1165.2</ele>
        <time>2015-06-29T07:25:35Z</time>
      </trkpt>
      <trkpt lat="42.3338" lon="8.9206">
        <ele>1165</ele>
        <time>2015-06-29T07:25:36Z</time>
      </trkpt>
      <trkpt lat="42.33379" lon="8.92066">
        <ele>1164.6</ele>
        <time>2015-06-29T07:25:41Z</time>
      </trkpt>
      <trkpt lat="42.33374" lon="8.92084">
        <ele>1163</ele>
        <time>2015-06-29T07:25:54Z</time>
      </trkpt>
      <trkpt lat="42.33371" lon="8.921">
        <ele>1162.2</ele>
        <time>2015-06-29T07:26:04Z</time>
      </trkpt>
      <trkpt lat="42.33372" lon="8.92108">
        <ele>1161.8</ele>
        <time>2015-06-29T07:26:09Z</time>
      </trkpt>
      <trkpt lat="42.33372" lon="8.92117">
        <ele>1161.4</ele>
        <time>2015-06-29T07:26:14Z</time>
      </trkpt>
      <trkpt lat="42.33373" lon="8.92134">
        <ele>1160.2</ele>
        <time>2015-06-29T07:26:25Z</time>
      </trkpt>
      <trkpt lat="42.33373" lon="8.9214">
        <ele>1160</ele>
        <time>2015-06-29T07:26:28Z</time>
      </trkpt>
      <trkpt lat="42.33373" lon="8.92144">
        <ele>1159.8</ele>
        <time>2015-06-29T07:26:31Z</time>
      </trkpt>
      <trkpt lat="42.33374" lon="8.9215">
        <ele>1159.4</ele>
        <time>2015-06-29T07:26:35Z</time>
      </trkpt>
      <trkpt lat="42.33375" lon="8.92162">
        <ele>1158.6</ele>
        <time>2015-06-29T07:26:43Z</time>
      </trkpt>
      <trkpt lat="42.33377" lon="8.92182">
        <ele>1157.6</ele>
        <time>2015-06-29T07:26:55Z</time>
      </trkpt>
      <trkpt lat="42.33379" lon="8.92191">
        <ele>1157.2</ele>
        <time>2015-06-29T07:27:01Z</time>
      </trkpt>
      <trkpt lat="42.33379" lon="8.92192">
        <ele>1157</ele>
        <time>2015-06-29T07:27:02Z</time>
      </trkpt>
      <trkpt lat="42.33382" lon="8.92201">
        <ele>1156.6</ele>
        <time>2015-06-29T07:27:10Z</time>
      </trkpt>
      <trkpt lat="42.33382" lon="8.92203">
        <ele>1156.6</ele>
        <time>2015-06-29T07:27:11Z</time>
      </trkpt>
      <trkpt lat="42.33383" lon="8.9221">
        <ele>1156</ele>
        <time>2015-06-29T07:27:16Z</time>
      </trkpt>
      <trkpt lat="42.33384" lon="8.92219">
        <ele>1155.4</ele>
        <time>2015-06-29T07:27:21Z</time>
      </trkpt>
      <trkpt lat="42.33384" lon="8.92235">
        <ele>1154.6</ele>
        <time>2015-06-29T07:27:32Z</time>
      </trkpt>
      <trkpt lat="42.33384" lon="8.92237">
        <ele>1154.4</ele>
        <time>2015-06-29T07:27:33Z</time>
      </trkpt>
      <trkpt lat="42.33384" lon="8.9224">
        <ele>1154.4</ele>
        <time>2015-06-29T07:27:35Z</time>
      </trkpt>
      <trkpt lat="42.33384" lon="8.92255">
        <ele>1153.4</ele>
        <time>2015-06-29T07:27:45Z</time>
      </trkpt>
      <trkpt lat="42.33384" lon="8.92258">
        <ele>1153.4</ele>
        <time>2015-06-29T07:27:47Z</time>
      </trkpt>
      <trkpt lat="42.33384" lon="8.92264">
        <ele>1153.2</ele>
        <time>2015-06-29T07:27:51Z</time>
      </trkpt>
      <trkpt lat="42.33383" lon="8.92271">
        <ele>1152.8</ele>
        <time>2015-06-29T07:27:56Z</time>
      </trkpt>
      <trkpt lat="42.33381" lon="8.92288">
        <ele>1151.8</ele>
        <time>2015-06-29T07:28:08Z</time>
      </trkpt>
      <trkpt lat="42.33381" lon="8.9229">
        <ele>1151.6</ele>
        <time>2015-06-29T07:28:09Z</time>
      </trkpt>
      <trkpt lat="42.3338" lon="8.92301">
        <ele>1151</ele>
        <time>2015-06-29T07:28:15Z</time>
      </trkpt>
      <trkpt lat="42.33381" lon="8.92306">
        <ele>1150.8</ele>
        <time>2015-06-29T07:28:19Z</time>
      </trkpt>
      <trkpt lat="42.33383" lon="8.92319">
        <ele>1150</ele>
        <time>2015-06-29T07:28:28Z</time>
      </trkpt>
      <trkpt lat="42.33384" lon="8.9232">
        <ele>1149.8</ele>
        <time>2015-06-29T07:28:29Z</time>
      </trkpt>
      <trkpt lat="42.33385" lon="8.92331">
        <ele>1148.8</ele>
        <time>2015-06-29T07:28:37Z</time>
      </trkpt>
      <trkpt lat="42.33387" lon="8.92344">
        <ele>1148.2</ele>
        <time>2015-06-29T07:28:45Z</time>
      </trkpt>
      <trkpt lat="42.33387" lon="8.92355">
        <ele>1147</ele>
        <time>2015-06-29T07:28:53Z</time>
      </trkpt>
      <trkpt lat="42.33386" lon="8.92374">
        <ele>1145.8</ele>
        <time>2015-06-29T07:29:06Z</time>
      </trkpt>
      <trkpt lat="42.33387" lon="8.92391">
        <ele>1145</ele>
        <time>2015-06-29T07:29:17Z</time>
      </trkpt>
      <trkpt lat="42.33395" lon="8.92403">
        <ele>1144.4</ele>
        <time>2015-06-29T07:29:28Z</time>
      </trkpt>
      <trkpt lat="42.33408" lon="8.9241">
        <ele>1143.2</ele>
        <time>2015-06-29T07:29:40Z</time>
      </trkpt>
      <trkpt lat="42.33412" lon="8.92414">
        <ele>1143</ele>
        <time>2015-06-29T07:29:45Z</time>
      </trkpt>
      <trkpt lat="42.33416" lon="8.92429">
        <ele>1142.4</ele>
        <time>2015-06-29T07:29:56Z</time>
      </trkpt>
      <trkpt lat="42.33414" lon="8.92442">
        <ele>1141.8</ele>
        <time>2015-06-29T07:30:07Z</time>
      </trkpt>
      <trkpt lat="42.33403" lon="8.92452">
        <ele>1140.8</ele>
        <time>2015-06-29T07:30:20Z</time>
      </trkpt>
      <trkpt lat="42.33394" lon="8.92462">
        <ele>1140</ele>
        <time>2015-06-29T07:30:30Z</time>
      </trkpt>
      <trkpt lat="42.33387" lon="8.92471">
        <ele>1139.2</ele>
        <time>2015-06-29T07:30:39Z</time>
      </trkpt>
      <trkpt lat="42.33386" lon="8.92472">
        <ele>1139</ele>
        <time>2015-06-29T07:30:40Z</time>
      </trkpt>
      <trkpt lat="42.33381" lon="8.92482">
        <ele>1138.2</ele>
        <time>2015-06-29T07:30:48Z</time>
      </trkpt>
      <trkpt lat="42.33375" lon="8.92495">
        <ele>1137.2</ele>
        <time>2015-06-29T07:30:58Z</time>
      </trkpt>
      <trkpt lat="42.33374" lon="8.92497">
        <ele>1137</ele>
        <time>2015-06-29T07:31:00Z</time>
      </trkpt>
      <trkpt lat="42.33371" lon="8.92505">
        <ele>1136.2</ele>
        <time>2015-06-29T07:31:07Z</time>
      </trkpt>
      <trkpt lat="42.3337" lon="8.92506">
        <ele>1136</ele>
        <time>2015-06-29T07:31:08Z</time>
      </trkpt>
      <trkpt lat="42.33369" lon="8.92513">
        <ele>1135.6</ele>
        <time>2015-06-29T07:31:13Z</time>
      </trkpt>
      <trkpt lat="42.33368" lon="8.92526">
        <ele>1135.2</ele>
        <time>2015-06-29T07:31:21Z</time>
      </trkpt>
      <trkpt lat="42.33367" lon="8.92529">
        <ele>1135.2</ele>
        <time>2015-06-29T07:31:23Z</time>
      </trkpt>
      <trkpt lat="42.33367" lon="8.92535">
        <ele>1134.8</ele>
        <time>2015-06-29T07:31:27Z</time>
      </trkpt>
      <trkpt lat="42.33369" lon="8.92542">
        <ele>1134.4</ele>
        <time>2015-06-29T07:31:31Z</time>
      </trkpt>
      <trkpt lat="42.3337" lon="8.92552">
        <ele>1134</ele>
        <time>2015-06-29T07:31:37Z</time>
      </trkpt>
      <trkpt lat="42.33373" lon="8.92558">
        <ele>1133.2</ele>
        <time>2015-06-29T07:31:42Z</time>
      </trkpt>
      <trkpt lat="42.33374" lon="8.9256">
        <ele>1133</ele>
        <time>2015-06-29T07:31:44Z</time>
      </trkpt>
      <trkpt lat="42.33378" lon="8.92569">
        <ele>1131.8</ele>
        <time>2015-06-29T07:31:52Z</time>
      </trkpt>
      <trkpt lat="42.33379" lon="8.92576">
        <ele>1131.2</ele>
        <time>2015-06-29T07:31:58Z</time>
      </trkpt>
      <trkpt lat="42.33379" lon="8.92583">
        <ele>1129.8</ele>
        <time>2015-06-29T07:32:05Z</time>
      </trkpt>
      <trkpt lat="42.33377" lon="8.92591">
        <ele>1128.8</ele>
        <time>2015-06-29T07:32:13Z</time>
      </trkpt>
      <trkpt lat="42.33374" lon="8.92601">
        <ele>1128</ele>
        <time>2015-06-29T07:32:21Z</time>
      </trkpt>
      <trkpt lat="42.3337" lon="8.92616">
        <ele>1126.8</ele>
        <time>2015-06-29T07:32:33Z</time>
      </trkpt>
      <trkpt lat="42.3336" lon="8.92631">
        <ele>1125.6</ele>
        <time>2015-06-29T07:32:48Z</time>
      </trkpt>
      <trkpt lat="42.33358" lon="8.92635">
        <ele>1125.4</ele>
        <time>2015-06-29T07:32:52Z</time>
      </trkpt>
      <trkpt lat="42.33335" lon="8.92656">
        <ele>1124.8</ele>
        <time>2015-06-29T07:33:11Z</time>
      </trkpt>
      <trkpt lat="42.33331" lon="8.92663">
        <ele>1124.4</ele>
        <time>2015-06-29T07:33:17Z</time>
      </trkpt>
      <trkpt lat="42.33325" lon="8.92674">
        <ele>1124.2</ele>
        <time>2015-06-29T07:33:26Z</time>
      </trkpt>
      <trkpt lat="42.33317" lon="8.92692">
        <ele>1123.2</ele>
        <time>2015-06-29T07:33:39Z</time>
      </trkpt>
      <trkpt lat="42.33311" lon="8.92709">
        <ele>1122.2</ele>
        <time>2015-06-29T07:33:52Z</time>
      </trkpt>
      <trkpt lat="42.33307" lon="8.92736">
        <ele>1121.2</ele>
        <time>2015-06-29T07:34:07Z</time>
      </trkpt>
      <trkpt lat="42.33308" lon="8.92738">
        <ele>1121.2</ele>
        <time>2015-06-29T07:34:08Z</time>
      </trkpt>
      <trkpt lat="42.33308" lon="8.92745">
        <ele>1121</ele>
        <time>2015-06-29T07:34:12Z</time>
      </trkpt>
      <trkpt lat="42.33307" lon="8.92751">
        <ele>1120.6</ele>
        <time>2015-06-29T07:34:15Z</time>
      </trkpt>
      <trkpt lat="42.33308" lon="8.92752">
        <ele>1120.6</ele>
        <time>2015-06-29T07:34:16Z</time>
      </trkpt>
      <trkpt lat="42.33312" lon="8.92766">
        <ele>1119.8</ele>
        <time>2015-06-29T07:34:24Z</time>
      </trkpt>
      <trkpt lat="42.33314" lon="8.92768">
        <ele>1119.6</ele>
        <time>2015-06-29T07:34:26Z</time>
      </trkpt>
      <trkpt lat="42.33315" lon="8.92771">
        <ele>1119.2</ele>
        <time>2015-06-29T07:34:28Z</time>
      </trkpt>
      <trkpt lat="42.33318" lon="8.92776">
        <ele>1119</ele>
        <time>2015-06-29T07:34:32Z</time>
      </trkpt>
      <trkpt lat="42.33316" lon="8.92785">
        <ele>1118.4</ele>
        <time>2015-06-29T07:34:39Z</time>
      </trkpt>
      <trkpt lat="42.33304" lon="8.92793">
        <ele>1117.6</ele>
        <time>2015-06-29T07:34:50Z</time>
      </trkpt>
      <trkpt lat="42.33297" lon="8.92799">
        <ele>1116.8</ele>
        <time>2015-06-29T07:34:58Z</time>
      </trkpt>
      <trkpt lat="42.33286" lon="8.92813">
        <ele>1115.6</ele>
        <time>2015-06-29T07:35:10Z</time>
      </trkpt>
      <trkpt lat="42.33281" lon="8.92826">
        <ele>1114.8</ele>
        <time>2015-06-29T07:35:19Z</time>
      </trkpt>
      <trkpt lat="42.33278" lon="8.92837">
        <ele>1114</ele>
        <time>2015-06-29T07:35:26Z</time>
      </trkpt>
      <trkpt lat="42.33276" lon="8.92847">
        <ele>1113.2</ele>
        <time>2015-06-29T07:35:32Z</time>
      </trkpt>
      <trkpt lat="42.33276" lon="8.9285">
        <ele>1113</ele>
        <time>2015-06-29T07:35:34Z</time>
      </trkpt>
      <trkpt lat="42.33275" lon="8.92868">
        <ele>1112</ele>
        <time>2015-06-29T07:35:44Z</time>
      </trkpt>
      <trkpt lat="42.33275" lon="8.92869">
        <ele>1111.8</ele>
        <time>2015-06-29T07:35:45Z</time>
      </trkpt>
      <trkpt lat="42.33268" lon="8.92876">
        <ele>1111.2</ele>
        <time>2015-06-29T07:35:53Z</time>
      </trkpt>
      <trkpt lat="42.33261" lon="8.92883">
        <ele>1110.2</ele>
        <time>2015-06-29T07:36:02Z</time>
      </trkpt>
      <trkpt lat="42.33251" lon="8.92897">
        <ele>1109.4</ele>
        <time>2015-06-29T07:36:13Z</time>
      </trkpt>
      <trkpt lat="42.33248" lon="8.92901">
        <ele>1109.2</ele>
        <time>2015-06-29T07:36:16Z</time>
      </trkpt>
      <trkpt lat="42.33242" lon="8.9291">
        <ele>1108.4</ele>
        <time>2015-06-29T07:36:25Z</time>
      </trkpt>
      <trkpt lat="42.33241" lon="8.92912">
        <ele>1108.2</ele>
        <time>2015-06-29T07:36:26Z</time>
      </trkpt>
      <trkpt lat="42.33238" lon="8.92918">
        <ele>1107.6</ele>
        <time>2015-06-29T07:36:32Z</time>
      </trkpt>
      <trkpt lat="42.33235" lon="8.92923">
        <ele>1107</ele>
        <time>2015-06-29T07:36:36Z</time>
      </trkpt>
      <trkpt lat="42.33231" lon="8.92929">
        <ele>1106.6</ele>
        <time>2015-06-29T07:36:41Z</time>
      </trkpt>
      <trkpt lat="42.33225" lon="8.92937">
        <ele>1105.8</ele>
        <time>2015-06-29T07:36:49Z</time>
      </trkpt>
      <trkpt lat="42.33224" lon="8.92938">
        <ele>1105.6</ele>
        <time>2015-06-29T07:36:50Z</time>
      </trkpt>
      <trkpt lat="42.3322" lon="8.92943">
        <ele>1105.2</ele>
        <time>2015-06-29T07:36:55Z</time>
      </trkpt>
      <trkpt lat="42.33217" lon="8.92944">
        <ele>1104.8</ele>
        <time>2015-06-29T07:36:57Z</time>
      </trkpt>
      <trkpt lat="42.33217" lon="8.92945">
        <ele>1104.8</ele>
        <time>2015-06-29T07:36:58Z</time>
      </trkpt>
      <trkpt lat="42.33216" lon="8.92946">
        <ele>1104.6</ele>
        <time>2015-06-29T07:36:59Z</time>
      </trkpt>
      <trkpt lat="42.33215" lon="8.92947">
        <ele>1104.2</ele>
        <time>2015-06-29T07:37:01Z</time>
      </trkpt>
      <trkpt lat="42.3321" lon="8.92952">
        <ele>1103.8</ele>
        <time>2015-06-29T07:37:06Z</time>
      </trkpt>
      <trkpt lat="42.33204" lon="8.92962">
        <ele>1103</ele>
        <time>2015-06-29T07:37:14Z</time>
      </trkpt>
      <trkpt lat="42.33196" lon="8.92973">
        <ele>1101.6</ele>
        <time>2015-06-29T07:37:24Z</time>
      </trkpt>
      <trkpt lat="42.33186" lon="8.92987">
        <ele>1100.6</ele>
        <time>2015-06-29T07:37:36Z</time>
      </trkpt>
      <trkpt lat="42.33178" lon="8.93004">
        <ele>1100</ele>
        <time>2015-06-29T07:37:46Z</time>
      </trkpt>
      <trkpt lat="42.33175" lon="8.93012">
        <ele>1100</ele>
        <time>2015-06-29T07:37:50Z</time>
      </trkpt>
      <trkpt lat="42.3317" lon="8.93024">
        <ele>1099.2</ele>
        <time>2015-06-29T07:37:57Z</time>
      </trkpt>
      <trkpt lat="42.33165" lon="8.93037">
        <ele>1098.4</ele>
        <time>2015-06-29T07:38:06Z</time>
      </trkpt>
      <trkpt lat="42.33159" lon="8.93048">
        <ele>1097.8</ele>
        <time>2015-06-29T07:38:15Z</time>
      </trkpt>
      <trkpt lat="42.33153" lon="8.93058">
        <ele>1096.8</ele>
        <time>2015-06-29T07:38:23Z</time>
      </trkpt>
      <trkpt lat="42.33153" lon="8.93059">
        <ele>1096.8</ele>
        <time>2015-06-29T07:38:24Z</time>
      </trkpt>
      <trkpt lat="42.33149" lon="8.93066">
        <ele>1096</ele>
        <time>2015-06-29T07:38:30Z</time>
      </trkpt>
      <trkpt lat="42.33145" lon="8.9307">
        <ele>1095.6</ele>
        <time>2015-06-29T07:38:34Z</time>
      </trkpt>
      <trkpt lat="42.33144" lon="8.9307">
        <ele>1095.6</ele>
        <time>2015-06-29T07:38:35Z</time>
      </trkpt>
      <trkpt lat="42.3314" lon="8.93079">
        <ele>1095</ele>
        <time>2015-06-29T07:38:42Z</time>
      </trkpt>
      <trkpt lat="42.33131" lon="8.9309">
        <ele>1094</ele>
        <time>2015-06-29T07:38:52Z</time>
      </trkpt>
      <trkpt lat="42.33125" lon="8.931">
        <ele>1093</ele>
        <time>2015-06-29T07:39:01Z</time>
      </trkpt>
      <trkpt lat="42.33118" lon="8.93111">
        <ele>1092</ele>
        <time>2015-06-29T07:39:10Z</time>
      </trkpt>
      <trkpt lat="42.3311" lon="8.93125">
        <ele>1091.2</ele>
        <time>2015-06-29T07:39:20Z</time>
      </trkpt>
      <trkpt lat="42.33104" lon="8.93137">
        <ele>1090.6</ele>
        <time>2015-06-29T07:39:27Z</time>
      </trkpt>
      <trkpt lat="42.33097" lon="8.93148">
        <ele>1089</ele>
        <time>2015-06-29T07:39:36Z</time>
      </trkpt>
      <trkpt lat="42.33091" lon="8.93154">
        <ele>1088.6</ele>
        <time>2015-06-29T07:39:42Z</time>
      </trkpt>
      <trkpt lat="42.3309" lon="8.93156">
        <ele>1088.4</ele>
        <time>2015-06-29T07:39:43Z</time>
      </trkpt>
      <trkpt lat="42.33086" lon="8.93164">
        <ele>1087.6</ele>
        <time>2015-06-29T07:39:50Z</time>
      </trkpt>
      <trkpt lat="42.33085" lon="8.93164">
        <ele>1087.4</ele>
        <time>2015-06-29T07:39:51Z</time>
      </trkpt>
      <trkpt lat="42.33084" lon="8.93165">
        <ele>1087.4</ele>
        <time>2015-06-29T07:39:52Z</time>
      </trkpt>
      <trkpt lat="42.33077" lon="8.93182">
        <ele>1086.4</ele>
        <time>2015-06-29T07:40:02Z</time>
      </trkpt>
      <trkpt lat="42.33074" lon="8.93186">
        <ele>1086</ele>
        <time>2015-06-29T07:40:05Z</time>
      </trkpt>
      <trkpt lat="42.33072" lon="8.93191">
        <ele>1086</ele>
        <time>2015-06-29T07:40:09Z</time>
      </trkpt>
      <trkpt lat="42.33065" lon="8.93206">
        <ele>1085.8</ele>
        <time>2015-06-29T07:40:19Z</time>
      </trkpt>
      <trkpt lat="42.33066" lon="8.93212">
        <ele>1085.8</ele>
        <time>2015-06-29T07:40:24Z</time>
      </trkpt>
      <trkpt lat="42.33063" lon="8.93218">
        <ele>1085.6</ele>
        <time>2015-06-29T07:40:36Z</time>
      </trkpt>
      <trkpt lat="42.33049" lon="8.93244">
        <ele>1084.8</ele>
        <time>2015-06-29T07:41:05Z</time>
      </trkpt>
      <trkpt lat="42.33041" lon="8.93253">
        <ele>1084.4</ele>
        <time>2015-06-29T07:41:13Z</time>
      </trkpt>
      <trkpt lat="42.3304" lon="8.93255">
        <ele>1084.2</ele>
        <time>2015-06-29T07:41:15Z</time>
      </trkpt>
      <trkpt lat="42.33037" lon="8.93263">
        <ele>1084.2</ele>
        <time>2015-06-29T07:41:21Z</time>
      </trkpt>
      <trkpt lat="42.33036" lon="8.93265">
        <ele>1084.2</ele>
        <time>2015-06-29T07:41:23Z</time>
      </trkpt>
      <trkpt lat="42.33034" lon="8.9328">
        <ele>1083.8</ele>
        <time>2015-06-29T07:41:37Z</time>
      </trkpt>
      <trkpt lat="42.33033" lon="8.93284">
        <ele>1083.6</ele>
        <time>2015-06-29T07:41:41Z</time>
      </trkpt>
      <trkpt lat="42.3303" lon="8.93302">
        <ele>1083.2</ele>
        <time>2015-06-29T07:41:53Z</time>
      </trkpt>
      <trkpt lat="42.33029" lon="8.93305">
        <ele>1083</ele>
        <time>2015-06-29T07:41:55Z</time>
      </trkpt>
      <trkpt lat="42.33022" lon="8.93342">
        <ele>1082.2</ele>
        <time>2015-06-29T07:42:19Z</time>
      </trkpt>
      <trkpt lat="42.33021" lon="8.93345">
        <ele>1082</ele>
        <time>2015-06-29T07:42:21Z</time>
      </trkpt>
      <trkpt lat="42.3302" lon="8.93349">
        <ele>1082.2</ele>
        <time>2015-06-29T07:42:24Z</time>
      </trkpt>
      <trkpt lat="42.33021" lon="8.93409">
        <ele>1084</ele>
        <time>2015-06-29T07:43:01Z</time>
      </trkpt>
      <trkpt lat="42.33019" lon="8.93418">
        <ele>1084</ele>
        <time>2015-06-29T07:43:06Z</time>
      </trkpt>
      <trkpt lat="42.33018" lon="8.93437">
        <ele>1084.4</ele>
        <time>2015-06-29T07:43:19Z</time>
      </trkpt>
      <trkpt lat="42.33018" lon="8.93457">
        <ele>1085</ele>
        <time>2015-06-29T07:43:31Z</time>
      </trkpt>
      <trkpt lat="42.33019" lon="8.9346">
        <ele>1085</ele>
        <time>2015-06-29T07:43:33Z</time>
      </trkpt>
      <trkpt lat="42.3302" lon="8.93479">
        <ele>1085.4</ele>
        <time>2015-06-29T07:43:44Z</time>
      </trkpt>
      <trkpt lat="42.33021" lon="8.93484">
        <ele>1085.4</ele>
        <time>2015-06-29T07:43:47Z</time>
      </trkpt>
      <trkpt lat="42.3303" lon="8.93519">
        <ele>1086.2</ele>
        <time>2015-06-29T07:44:09Z</time>
      </trkpt>
      <trkpt lat="42.3304" lon="8.93563">
        <ele>1087.4</ele>
        <time>2015-06-29T07:44:39Z</time>
      </trkpt>
      <trkpt lat="42.33042" lon="8.93584">
        <ele>1087.8</ele>
        <time>2015-06-29T07:44:54Z</time>
      </trkpt>
      <trkpt lat="42.33045" lon="8.93609">
        <ele>1088.4</ele>
        <time>2015-06-29T07:45:09Z</time>
      </trkpt>
      <trkpt lat="42.33054" lon="8.93639">
        <ele>1088.6</ele>
        <time>2015-06-29T07:45:27Z</time>
      </trkpt>
      <trkpt lat="42.33057" lon="8.93651">
        <ele>1088.4</ele>
        <time>2015-06-29T07:45:34Z</time>
      </trkpt>
      <trkpt lat="42.33072" lon="8.93681">
        <ele>1088</ele>
        <time>2015-06-29T07:45:56Z</time>
      </trkpt>
      <trkpt lat="42.33086" lon="8.93701">
        <ele>1088.2</ele>
        <time>2015-06-29T07:46:14Z</time>
      </trkpt>
      <trkpt lat="42.33083" lon="8.93722">
        <ele>1088.2</ele>
        <time>2015-06-29T07:46:28Z</time>
      </trkpt>
      <trkpt lat="42.33079" lon="8.93732">
        <ele>1088.4</ele>
        <time>2015-06-29T07:46:35Z</time>
      </trkpt>
      <trkpt lat="42.3308" lon="8.9374">
        <ele>1088.6</ele>
        <time>2015-06-29T07:46:39Z</time>
      </trkpt>
      <trkpt lat="42.33063" lon="8.93764">
        <ele>1088.6</ele>
        <time>2015-06-29T07:46:57Z</time>
      </trkpt>
      <trkpt lat="42.33049" lon="8.93783">
        <ele>1089</ele>
        <time>2015-06-29T07:47:12Z</time>
      </trkpt>
      <trkpt lat="42.33047" lon="8.93785">
        <ele>1088.8</ele>
        <time>2015-06-29T07:47:14Z</time>
      </trkpt>
      <trkpt lat="42.33044" lon="8.93789">
        <ele>1088.8</ele>
        <time>2015-06-29T07:47:17Z</time>
      </trkpt>
      <trkpt lat="42.33036" lon="8.93815">
        <ele>1089.2</ele>
        <time>2015-06-29T07:47:34Z</time>
      </trkpt>
      <trkpt lat="42.3304" lon="8.93845">
        <ele>1090.6</ele>
        <time>2015-06-29T07:47:53Z</time>
      </trkpt>
      <trkpt lat="42.33043" lon="8.93862">
        <ele>1091.6</ele>
        <time>2015-06-29T07:48:05Z</time>
      </trkpt>
      <trkpt lat="42.33043" lon="8.93864">
        <ele>1091.6</ele>
        <time>2015-06-29T07:48:06Z</time>
      </trkpt>
      <trkpt lat="42.33053" lon="8.93881">
        <ele>1092.6</ele>
        <time>2015-06-29T07:48:20Z</time>
      </trkpt>
      <trkpt lat="42.33063" lon="8.93895">
        <ele>1093.6</ele>
        <time>2015-06-29T07:48:33Z</time>
      </trkpt>
      <trkpt lat="42.3307" lon="8.93902">
        <ele>1094.4</ele>
        <time>2015-06-29T07:48:41Z</time>
      </trkpt>
      <trkpt lat="42.33072" lon="8.93904">
        <ele>1094.6</ele>
        <time>2015-06-29T07:48:43Z</time>
      </trkpt>
      <trkpt lat="42.33081" lon="8.93912">
        <ele>1095.8</ele>
        <time>2015-06-29T07:48:53Z</time>
      </trkpt>
      <trkpt lat="42.33081" lon="8.93913">
        <ele>1096</ele>
        <time>2015-06-29T07:48:54Z</time>
      </trkpt>
      <trkpt lat="42.33082" lon="8.93918">
        <ele>1096.2</ele>
        <time>2015-06-29T07:48:57Z</time>
      </trkpt>
      <trkpt lat="42.33082" lon="8.93927">
        <ele>1096.6</ele>
        <time>2015-06-29T07:49:02Z</time>
      </trkpt>
      <trkpt lat="42.3308" lon="8.93934">
        <ele>1097.2</ele>
        <time>2015-06-29T07:49:06Z</time>
      </trkpt>
      <trkpt lat="42.33074" lon="8.93945">
        <ele>1098</ele>
        <time>2015-06-29T07:49:15Z</time>
      </trkpt>
      <trkpt lat="42.33067" lon="8.93954">
        <ele>1098.8</ele>
        <time>2015-06-29T07:49:23Z</time>
      </trkpt>
      <trkpt lat="42.33052" lon="8.93964">
        <ele>1100</ele>
        <time>2015-06-29T07:49:36Z</time>
      </trkpt>
      <trkpt lat="42.33038" lon="8.93974">
        <ele>1101</ele>
        <time>2015-06-29T07:49:49Z</time>
      </trkpt>
      <trkpt lat="42.33032" lon="8.93989">
        <ele>1101.6</ele>
        <time>2015-06-29T07:50:01Z</time>
      </trkpt>
      <trkpt lat="42.33028" lon="8.94007">
        <ele>1101.8</ele>
        <time>2015-06-29T07:50:12Z</time>
      </trkpt>
      <trkpt lat="42.33022" lon="8.94024">
        <ele>1101.4</ele>
        <time>2015-06-29T07:50:24Z</time>
      </trkpt>
      <trkpt lat="42.33013" lon="8.94049">
        <ele>1100.8</ele>
        <time>2015-06-29T07:50:41Z</time>
      </trkpt>
      <trkpt lat="42.33012" lon="8.94054">
        <ele>1100.6</ele>
        <time>2015-06-29T07:50:44Z</time>
      </trkpt>
      <trkpt lat="42.33" lon="8.94083">
        <ele>1100</ele>
        <time>2015-06-29T07:51:03Z</time>
      </trkpt>
      <trkpt lat="42.32998" lon="8.94089">
        <ele>1100</ele>
        <time>2015-06-29T07:51:07Z</time>
      </trkpt>
      <trkpt lat="42.32994" lon="8.94098">
        <ele>1099.6</ele>
        <time>2015-06-29T07:51:13Z</time>
      </trkpt>
      <trkpt lat="42.32979" lon="8.94144">
        <ele>1098.8</ele>
        <time>2015-06-29T07:51:43Z</time>
      </trkpt>
      <trkpt lat="42.32978" lon="8.94146">
        <ele>1098.8</ele>
        <time>2015-06-29T07:51:45Z</time>
      </trkpt>
      <trkpt lat="42.32978" lon="8.94152">
        <ele>1098.6</ele>
        <time>2015-06-29T07:51:49Z</time>
      </trkpt>
      <trkpt lat="42.32978" lon="8.94155">
        <ele>1098.6</ele>
        <time>2015-06-29T07:51:51Z</time>
      </trkpt>
      <trkpt lat="42.32977" lon="8.94159">
        <ele>1098.4</ele>
        <time>2015-06-29T07:51:54Z</time>
      </trkpt>
      <trkpt lat="42.32975" lon="8.94163">
        <ele>1098.4</ele>
        <time>2015-06-29T07:51:57Z</time>
      </trkpt>
      <trkpt lat="42.32958" lon="8.94212">
        <ele>1098</ele>
        <time>2015-06-29T07:52:29Z</time>
      </trkpt>
      <trkpt lat="42.32957" lon="8.94214">
        <ele>1098</ele>
        <time>2015-06-29T07:52:31Z</time>
      </trkpt>
      <trkpt lat="42.32948" lon="8.94259">
        <ele>1098.4</ele>
        <time>2015-06-29T07:53:04Z</time>
      </trkpt>
      <trkpt lat="42.32943" lon="8.943">
        <ele>1099.6</ele>
        <time>2015-06-29T07:53:29Z</time>
      </trkpt>
      <trkpt lat="42.32942" lon="8.94311">
        <ele>1099.8</ele>
        <time>2015-06-29T07:53:36Z</time>
      </trkpt>
      <trkpt lat="42.32943" lon="8.94326">
        <ele>1100.4</ele>
        <time>2015-06-29T07:53:47Z</time>
      </trkpt>
      <trkpt lat="42.32943" lon="8.94327">
        <ele>1100.4</ele>
        <time>2015-06-29T07:53:48Z</time>
      </trkpt>
      <trkpt lat="42.32947" lon="8.94372">
        <ele>1101.8</ele>
        <time>2015-06-29T07:54:14Z</time>
      </trkpt>
      <trkpt lat="42.32954" lon="8.94413">
        <ele>1102.6</ele>
        <time>2015-06-29T07:54:39Z</time>
      </trkpt>
      <trkpt lat="42.32957" lon="8.94419">
        <ele>1102.8</ele>
        <time>2015-06-29T07:54:43Z</time>
      </trkpt>
      <trkpt lat="42.32963" lon="8.94437">
        <ele>1102.6</ele>
        <time>2015-06-29T07:54:53Z</time>
      </trkpt>
      <trkpt lat="42.32965" lon="8.94442">
        <ele>1103</ele>
        <time>2015-06-29T07:54:56Z</time>
      </trkpt>
      <trkpt lat="42.32968" lon="8.94451">
        <ele>1103.6</ele>
        <time>2015-06-29T07:55:02Z</time>
      </trkpt>
      <trkpt lat="42.32979" lon="8.94472">
        <ele>1103.4</ele>
        <time>2015-06-29T07:55:18Z</time>
      </trkpt>
      <trkpt lat="42.32988" lon="8.94482">
        <ele>1103</ele>
        <time>2015-06-29T07:55:27Z</time>
      </trkpt>
      <trkpt lat="42.3299" lon="8.94485">
        <ele>1103</ele>
        <time>2015-06-29T07:55:29Z</time>
      </trkpt>
      <trkpt lat="42.33003" lon="8.94505">
        <ele>1102.2</ele>
        <time>2015-06-29T07:55:44Z</time>
      </trkpt>
      <trkpt lat="42.33012" lon="8.94515">
        <ele>1101.6</ele>
        <time>2015-06-29T07:55:53Z</time>
      </trkpt>
      <trkpt lat="42.33021" lon="8.94531">
        <ele>1100.6</ele>
        <time>2015-06-29T07:56:05Z</time>
      </trkpt>
      <trkpt lat="42.33024" lon="8.94535">
        <ele>1100</ele>
        <time>2015-06-29T07:56:09Z</time>
      </trkpt>
      <trkpt lat="42.33029" lon="8.94544">
        <ele>1099.6</ele>
        <time>2015-06-29T07:56:17Z</time>
      </trkpt>
      <trkpt lat="42.33032" lon="8.94548">
        <ele>1099.2</ele>
        <time>2015-06-29T07:56:20Z</time>
      </trkpt>
      <trkpt lat="42.33036" lon="8.94552">
        <ele>1099</ele>
        <time>2015-06-29T07:56:25Z</time>
      </trkpt>
      <trkpt lat="42.33038" lon="8.94568">
        <ele>1098.2</ele>
        <time>2015-06-29T07:56:36Z</time>
      </trkpt>
      <trkpt lat="42.33038" lon="8.94573">
        <ele>1098</ele>
        <time>2015-06-29T07:56:38Z</time>
      </trkpt>
      <trkpt lat="42.33047" lon="8.94598">
        <ele>1097.2</ele>
        <time>2015-06-29T07:56:52Z</time>
      </trkpt>
      <trkpt lat="42.33048" lon="8.94607">
        <ele>1097.2</ele>
        <time>2015-06-29T07:56:57Z</time>
      </trkpt>
      <trkpt lat="42.33048" lon="8.94608">
        <ele>1097</ele>
        <time>2015-06-29T07:56:58Z</time>
      </trkpt>
      <trkpt lat="42.33044" lon="8.94643">
        <ele>1095.6</ele>
        <time>2015-06-29T07:57:19Z</time>
      </trkpt>
      <trkpt lat="42.3304" lon="8.94672">
        <ele>1095.6</ele>
        <time>2015-06-29T07:57:36Z</time>
      </trkpt>
      <trkpt lat="42.33039" lon="8.94676">
        <ele>1095.6</ele>
        <time>2015-06-29T07:57:39Z</time>
      </trkpt>
      <trkpt lat="42.33039" lon="8.94681">
        <ele>1095.6</ele>
        <time>2015-06-29T07:57:42Z</time>
      </trkpt>
      <trkpt lat="42.33024" lon="8.94739">
        <ele>1096.6</ele>
        <time>2015-06-29T07:58:18Z</time>
      </trkpt>
      <trkpt lat="42.33023" lon="8.94743">
        <ele>1096.8</ele>
        <time>2015-06-29T07:58:20Z</time>
      </trkpt>
      <trkpt lat="42.33023" lon="8.94758">
        <ele>1097.6</ele>
        <time>2015-06-29T07:58:31Z</time>
      </trkpt>
      <trkpt lat="42.33023" lon="8.94764">
        <ele>1098</ele>
        <time>2015-06-29T07:58:36Z</time>
      </trkpt>
      <trkpt lat="42.33029" lon="8.9478">
        <ele>1099</ele>
        <time>2015-06-29T07:58:49Z</time>
      </trkpt>
      <trkpt lat="42.33033" lon="8.94794">
        <ele>1099.6</ele>
        <time>2015-06-29T07:58:59Z</time>
      </trkpt>
      <trkpt lat="42.33036" lon="8.94805">
        <ele>1100</ele>
        <time>2015-06-29T07:59:07Z</time>
      </trkpt>
      <trkpt lat="42.33046" lon="8.94826">
        <ele>1101.6</ele>
        <time>2015-06-29T07:59:23Z</time>
      </trkpt>
      <trkpt lat="42.33057" lon="8.94856">
        <ele>1102.2</ele>
        <time>2015-06-29T07:59:47Z</time>
      </trkpt>
      <trkpt lat="42.3307" lon="8.94879">
        <ele>1103.8</ele>
        <time>2015-06-29T08:00:07Z</time>
      </trkpt>
      <trkpt lat="42.33087" lon="8.94902">
        <ele>1105.2</ele>
        <time>2015-06-29T08:00:32Z</time>
      </trkpt>
      <trkpt lat="42.33106" lon="8.94939">
        <ele>1106.2</ele>
        <time>2015-06-29T08:01:02Z</time>
      </trkpt>
      <trkpt lat="42.33109" lon="8.94943">
        <ele>1106.2</ele>
        <time>2015-06-29T08:01:06Z</time>
      </trkpt>
      <trkpt lat="42.33118" lon="8.94955">
        <ele>1107.6</ele>
        <time>2015-06-29T08:01:16Z</time>
      </trkpt>
      <trkpt lat="42.33126" lon="8.94967">
        <ele>1107.8</ele>
        <time>2015-06-29T08:01:26Z</time>
      </trkpt>
      <trkpt lat="42.33146" lon="8.94989">
        <ele>1108.8</ele>
        <time>2015-06-29T08:01:48Z</time>
      </trkpt>
      <trkpt lat="42.33147" lon="8.9499">
        <ele>1109.2</ele>
        <time>2015-06-29T08:01:49Z</time>
      </trkpt>
      <trkpt lat="42.3315" lon="8.94992">
        <ele>1109.2</ele>
        <time>2015-06-29T08:01:52Z</time>
      </trkpt>
      <trkpt lat="42.33167" lon="8.9501">
        <ele>1110.2</ele>
        <time>2015-06-29T08:02:10Z</time>
      </trkpt>
      <trkpt lat="42.33184" lon="8.95026">
        <ele>1111</ele>
        <time>2015-06-29T08:02:27Z</time>
      </trkpt>
      <trkpt lat="42.33197" lon="8.9504">
        <ele>1110</ele>
        <time>2015-06-29T08:02:41Z</time>
      </trkpt>
      <trkpt lat="42.33199" lon="8.95042">
        <ele>1110</ele>
        <time>2015-06-29T08:02:43Z</time>
      </trkpt>
      <trkpt lat="42.33226" lon="8.95084">
        <ele>1110</ele>
        <time>2015-06-29T08:03:28Z</time>
      </trkpt>
      <trkpt lat="42.33227" lon="8.95091">
        <ele>1110.2</ele>
        <time>2015-06-29T08:03:33Z</time>
      </trkpt>
      <trkpt lat="42.33231" lon="8.95104">
        <ele>1111.2</ele>
        <time>2015-06-29T08:03:43Z</time>
      </trkpt>
      <trkpt lat="42.33234" lon="8.95123">
        <ele>1112.6</ele>
        <time>2015-06-29T08:03:58Z</time>
      </trkpt>
      <trkpt lat="42.33238" lon="8.95142">
        <ele>1113</ele>
        <time>2015-06-29T08:04:14Z</time>
      </trkpt>
      <trkpt lat="42.33255" lon="8.9516">
        <ele>1114.4</ele>
        <time>2015-06-29T08:05:56Z</time>
      </trkpt>
      <trkpt lat="42.33287" lon="8.95166">
        <ele>1115.8</ele>
        <time>2015-06-29T08:06:24Z</time>
      </trkpt>
      <trkpt lat="42.33294" lon="8.95166">
        <ele>1116</ele>
        <time>2015-06-29T08:06:31Z</time>
      </trkpt>
      <trkpt lat="42.33299" lon="8.95165">
        <ele>1116.2</ele>
        <time>2015-06-29T08:06:36Z</time>
      </trkpt>
      <trkpt lat="42.33327" lon="8.95157">
        <ele>1116.6</ele>
        <time>2015-06-29T08:07:05Z</time>
      </trkpt>
      <trkpt lat="42.33343" lon="8.95141">
        <ele>1117.6</ele>
        <time>2015-06-29T08:07:28Z</time>
      </trkpt>
      <trkpt lat="42.33352" lon="8.95124">
        <ele>1118.6</ele>
        <time>2015-06-29T08:07:43Z</time>
      </trkpt>
      <trkpt lat="42.33357" lon="8.95116">
        <ele>1119.2</ele>
        <time>2015-06-29T08:07:50Z</time>
      </trkpt>
      <trkpt lat="42.33359" lon="8.9511">
        <ele>1120.2</ele>
        <time>2015-06-29T08:07:55Z</time>
      </trkpt>
    </trkseg>
  </trk>
  <trk>
    <name><![CDATA[GR20 Ascu Stagnu - Carrozu]]></name>
    <trkseg>
      <trkpt lat="42.40346" lon="8.92239">
        <ele>1409.8</ele>
        <time>2015-06-30T04:44:43Z</time>
      </trkpt>
      <trkpt lat="42.40344" lon="8.92241">
        <ele>1408</ele>
        <time>2015-06-30T04:44:53Z</time>
      </trkpt>
      <trkpt lat="42.40346" lon="8.92245">
        <ele>1406.4</ele>
        <time>2015-06-30T04:45:01Z</time>
      </trkpt>
      <trkpt lat="42.40346" lon="8.92247">
        <ele>1407.6</ele>
        <time>2015-06-30T04:45:06Z</time>
      </trkpt>
      <trkpt lat="42.40338" lon="8.92226">
        <ele>1406.4</ele>
        <time>2015-06-30T04:46:02Z</time>
      </trkpt>
      <trkpt lat="42.40338" lon="8.9222">
        <ele>1407.6</ele>
        <time>2015-06-30T04:46:10Z</time>
      </trkpt>
      <trkpt lat="42.40338" lon="8.92216">
        <ele>1408.6</ele>
        <time>2015-06-30T04:46:16Z</time>
      </trkpt>
      <trkpt lat="42.40339" lon="8.92213">
        <ele>1409.6</ele>
        <time>2015-06-30T04:46:22Z</time>
      </trkpt>
      <trkpt lat="42.40341" lon="8.92207">
        <ele>1411.4</ele>
        <time>2015-06-30T04:46:33Z</time>
      </trkpt>
      <trkpt lat="42.40339" lon="8.92199">
        <ele>1412.2</ele>
        <time>2015-06-30T04:46:42Z</time>
      </trkpt>
      <trkpt lat="42.40336" lon="8.92192">
        <ele>1413.4</ele>
        <time>2015-06-30T04:47:13Z</time>
      </trkpt>
      <trkpt lat="42.40337" lon="8.92187">
        <ele>1414.4</ele>
        <time>2015-06-30T04:47:22Z</time>
      </trkpt>
      <trkpt lat="42.40336" lon="8.92185">
        <ele>1415.4</ele>
        <time>2015-06-30T04:47:35Z</time>
      </trkpt>
      <trkpt lat="42.40333" lon="8.92182">
        <ele>1416.2</ele>
        <time>2015-06-30T04:47:42Z</time>
      </trkpt>
      <trkpt lat="42.40332" lon="8.92179">
        <ele>1417.6</ele>
        <time>2015-06-30T04:47:52Z</time>
      </trkpt>
      <trkpt lat="42.40332" lon="8.92175">
        <ele>1419</ele>
        <time>2015-06-30T04:48:02Z</time>
      </trkpt>
      <trkpt lat="42.40332" lon="8.9217">
        <ele>1419.6</ele>
        <time>2015-06-30T04:48:10Z</time>
      </trkpt>
      <trkpt lat="42.40331" lon="8.92166">
        <ele>1420.4</ele>
        <time>2015-06-30T04:48:16Z</time>
      </trkpt>
      <trkpt lat="42.4033" lon="8.92162">
        <ele>1421.2</ele>
        <time>2015-06-30T04:48:20Z</time>
      </trkpt>
      <trkpt lat="42.40323" lon="8.92157">
        <ele>1422.4</ele>
        <time>2015-06-30T04:48:38Z</time>
      </trkpt>
      <trkpt lat="42.40314" lon="8.92153">
        <ele>1423.4</ele>
        <time>2015-06-30T04:48:51Z</time>
      </trkpt>
      <trkpt lat="42.40308" lon="8.92142">
        <ele>1424.6</ele>
        <time>2015-06-30T04:49:08Z</time>
      </trkpt>
      <trkpt lat="42.40306" lon="8.92128">
        <ele>1426.2</ele>
        <time>2015-06-30T04:49:27Z</time>
      </trkpt>
      <trkpt lat="42.40305" lon="8.92122">
        <ele>1426.6</ele>
        <time>2015-06-30T04:49:33Z</time>
      </trkpt>
      <trkpt lat="42.40303" lon="8.92118">
        <ele>1428</ele>
        <time>2015-06-30T04:49:41Z</time>
      </trkpt>
      <trkpt lat="42.40305" lon="8.92115">
        <ele>1428.6</ele>
        <time>2015-06-30T04:49:47Z</time>
      </trkpt>
      <trkpt lat="42.40307" lon="8.92112">
        <ele>1429.6</ele>
        <time>2015-06-30T04:49:52Z</time>
      </trkpt>
      <trkpt lat="42.40307" lon="8.9211">
        <ele>1430.2</ele>
        <time>2015-06-30T04:49:56Z</time>
      </trkpt>
      <trkpt lat="42.4031" lon="8.9211">
        <ele>1431.2</ele>
        <time>2015-06-30T04:50:06Z</time>
      </trkpt>
      <trkpt lat="42.40311" lon="8.92106">
        <ele>1432.6</ele>
        <time>2015-06-30T04:50:15Z</time>
      </trkpt>
      <trkpt lat="42.40313" lon="8.92108">
        <ele>1433.4</ele>
        <time>2015-06-30T04:50:22Z</time>
      </trkpt>
      <trkpt lat="42.40315" lon="8.92107">
        <ele>1435</ele>
        <time>2015-06-30T04:50:35Z</time>
      </trkpt>
      <trkpt lat="42.40319" lon="8.92104">
        <ele>1436.4</ele>
        <time>2015-06-30T04:50:45Z</time>
      </trkpt>
      <trkpt lat="42.40322" lon="8.921">
        <ele>1437</ele>
        <time>2015-06-30T04:50:53Z</time>
      </trkpt>
      <trkpt lat="42.40326" lon="8.921">
        <ele>1438.8</ele>
        <time>2015-06-30T04:51:05Z</time>
      </trkpt>
      <trkpt lat="42.40336" lon="8.92098">
        <ele>1440</ele>
        <time>2015-06-30T04:51:20Z</time>
      </trkpt>
      <trkpt lat="42.40344" lon="8.921">
        <ele>1441.4</ele>
        <time>2015-06-30T04:51:37Z</time>
      </trkpt>
      <trkpt lat="42.40346" lon="8.921">
        <ele>1441.6</ele>
        <time>2015-06-30T04:51:39Z</time>
      </trkpt>
      <trkpt lat="42.40351" lon="8.921">
        <ele>1441.8</ele>
        <time>2015-06-30T04:51:44Z</time>
      </trkpt>
      <trkpt lat="42.40353" lon="8.92099">
        <ele>1442</ele>
        <time>2015-06-30T04:51:46Z</time>
      </trkpt>
      <trkpt lat="42.40353" lon="8.92099">
        <ele>1442</ele>
        <time>2015-06-30T04:51:47Z</time>
      </trkpt>
      <trkpt lat="42.40354" lon="8.92095">
        <ele>1443.2</ele>
        <time>2015-06-30T04:51:54Z</time>
      </trkpt>
      <trkpt lat="42.40356" lon="8.92095">
        <ele>1444.4</ele>
        <time>2015-06-30T04:52:01Z</time>
      </trkpt>
      <trkpt lat="42.40364" lon="8.92096">
        <ele>1446</ele>
        <time>2015-06-30T04:52:13Z</time>
      </trkpt>
      <trkpt lat="42.4037" lon="8.92095">
        <ele>1446.8</ele>
        <time>2015-06-30T04:52:21Z</time>
      </trkpt>
      <trkpt lat="42.40373" lon="8.92094">
        <ele>1448.2</ele>
        <time>2015-06-30T04:52:29Z</time>
      </trkpt>
      <trkpt lat="42.40377" lon="8.92091">
        <ele>1449.2</ele>
        <time>2015-06-30T04:52:37Z</time>
      </trkpt>
      <trkpt lat="42.40378" lon="8.9209">
        <ele>1449.6</ele>
        <time>2015-06-30T04:52:41Z</time>
      </trkpt>
      <trkpt lat="42.40379" lon="8.9209">
        <ele>1450.2</ele>
        <time>2015-06-30T04:52:44Z</time>
      </trkpt>
      <trkpt lat="42.40381" lon="8.92091">
        <ele>1451.6</ele>
        <time>2015-06-30T04:52:52Z</time>
      </trkpt>
      <trkpt lat="42.40387" lon="8.92093">
        <ele>1452.8</ele>
        <time>2015-06-30T04:53:00Z</time>
      </trkpt>
      <trkpt lat="42.40391" lon="8.92092">
        <ele>1454</ele>
        <time>2015-06-30T04:53:07Z</time>
      </trkpt>
      <trkpt lat="42.40394" lon="8.92088">
        <ele>1454.6</ele>
        <time>2015-06-30T04:53:12Z</time>
      </trkpt>
      <trkpt lat="42.40395" lon="8.92086">
        <ele>1455.2</ele>
        <time>2015-06-30T04:53:15Z</time>
      </trkpt>
      <trkpt lat="42.40396" lon="8.92085">
        <ele>1455.2</ele>
        <time>2015-06-30T04:53:16Z</time>
      </trkpt>
      <trkpt lat="42.404" lon="8.92083">
        <ele>1456.8</ele>
        <time>2015-06-30T04:53:28Z</time>
      </trkpt>
      <trkpt lat="42.404" lon="8.92083">
        <ele>1456.8</ele>
        <time>2015-06-30T04:53:30Z</time>
      </trkpt>
      <trkpt lat="42.40401" lon="8.92083">
        <ele>1457.6</ele>
        <time>2015-06-30T04:53:35Z</time>
      </trkpt>
      <trkpt lat="42.40404" lon="8.92085">
        <ele>1458.8</ele>
        <time>2015-06-30T04:53:44Z</time>
      </trkpt>
      <trkpt lat="42.40409" lon="8.92084">
        <ele>1459.8</ele>
        <time>2015-06-30T04:53:51Z</time>
      </trkpt>
      <trkpt lat="42.4041" lon="8.92085">
        <ele>1460.2</ele>
        <time>2015-06-30T04:53:54Z</time>
      </trkpt>
      <trkpt lat="42.4041" lon="8.92082">
        <ele>1461.2</ele>
        <time>2015-06-30T04:54:01Z</time>
      </trkpt>
      <trkpt lat="42.40413" lon="8.9208">
        <ele>1462.8</ele>
        <time>2015-06-30T04:54:10Z</time>
      </trkpt>
      <trkpt lat="42.40412" lon="8.92077">
        <ele>1464</ele>
        <time>2015-06-30T04:54:20Z</time>
      </trkpt>
      <trkpt lat="42.40411" lon="8.92075">
        <ele>1465.2</ele>
        <time>2015-06-30T04:54:30Z</time>
      </trkpt>
      <trkpt lat="42.40412" lon="8.92074">
        <ele>1466.2</ele>
        <time>2015-06-30T04:54:39Z</time>
      </trkpt>
      <trkpt lat="42.40411" lon="8.92073">
        <ele>1467.4</ele>
        <time>2015-06-30T04:54:47Z</time>
      </trkpt>
      <trkpt lat="42.40414" lon="8.92073">
        <ele>1468.6</ele>
        <time>2015-06-30T04:54:57Z</time>
      </trkpt>
      <trkpt lat="42.40417" lon="8.92067">
        <ele>1470</ele>
        <time>2015-06-30T04:55:09Z</time>
      </trkpt>
      <trkpt lat="42.4042" lon="8.92066">
        <ele>1471.4</ele>
        <time>2015-06-30T04:55:19Z</time>
      </trkpt>
      <trkpt lat="42.40421" lon="8.92065">
        <ele>1472.2</ele>
        <time>2015-06-30T04:55:26Z</time>
      </trkpt>
      <trkpt lat="42.40423" lon="8.92061">
        <ele>1474</ele>
        <time>2015-06-30T04:55:37Z</time>
      </trkpt>
      <trkpt lat="42.40425" lon="8.9206">
        <ele>1475</ele>
        <time>2015-06-30T04:55:47Z</time>
      </trkpt>
      <trkpt lat="42.40427" lon="8.92062">
        <ele>1476.6</ele>
        <time>2015-06-30T04:55:59Z</time>
      </trkpt>
      <trkpt lat="42.40433" lon="8.92065">
        <ele>1477.8</ele>
        <time>2015-06-30T04:56:11Z</time>
      </trkpt>
      <trkpt lat="42.40435" lon="8.92066">
        <ele>1478.2</ele>
        <time>2015-06-30T04:56:15Z</time>
      </trkpt>
      <trkpt lat="42.40443" lon="8.92063">
        <ele>1478.6</ele>
        <time>2015-06-30T04:56:24Z</time>
      </trkpt>
      <trkpt lat="42.40443" lon="8.92062">
        <ele>1479.2</ele>
        <time>2015-06-30T04:56:27Z</time>
      </trkpt>
      <trkpt lat="42.40445" lon="8.92059">
        <ele>1480.4</ele>
        <time>2015-06-30T04:56:39Z</time>
      </trkpt>
      <trkpt lat="42.40445" lon="8.92055">
        <ele>1481.4</ele>
        <time>2015-06-30T04:56:49Z</time>
      </trkpt>
      <trkpt lat="42.40443" lon="8.92052">
        <ele>1482.6</ele>
        <time>2015-06-30T04:56:56Z</time>
      </trkpt>
      <trkpt lat="42.40445" lon="8.92053">
        <ele>1484.4</ele>
        <time>2015-06-30T04:57:11Z</time>
      </trkpt>
      <trkpt lat="42.40445" lon="8.92051">
        <ele>1485.6</ele>
        <time>2015-06-30T04:57:21Z</time>
      </trkpt>
      <trkpt lat="42.40444" lon="8.92045">
        <ele>1486.8</ele>
        <time>2015-06-30T04:57:31Z</time>
      </trkpt>
      <trkpt lat="42.4044" lon="8.9204">
        <ele>1488.2</ele>
        <time>2015-06-30T04:57:40Z</time>
      </trkpt>
      <trkpt lat="42.40438" lon="8.92038">
        <ele>1489.4</ele>
        <time>2015-06-30T04:57:52Z</time>
      </trkpt>
      <trkpt lat="42.40441" lon="8.92036">
        <ele>1490.8</ele>
        <time>2015-06-30T04:58:08Z</time>
      </trkpt>
      <trkpt lat="42.40444" lon="8.92037">
        <ele>1492.4</ele>
        <time>2015-06-30T04:58:25Z</time>
      </trkpt>
      <trkpt lat="42.4045" lon="8.92033">
        <ele>1493.6</ele>
        <time>2015-06-30T04:58:34Z</time>
      </trkpt>
      <trkpt lat="42.40453" lon="8.92028">
        <ele>1494.6</ele>
        <time>2015-06-30T04:58:42Z</time>
      </trkpt>
      <trkpt lat="42.40455" lon="8.92021">
        <ele>1496.2</ele>
        <time>2015-06-30T04:58:54Z</time>
      </trkpt>
      <trkpt lat="42.40452" lon="8.92016">
        <ele>1497.6</ele>
        <time>2015-06-30T04:59:06Z</time>
      </trkpt>
      <trkpt lat="42.4045" lon="8.92014">
        <ele>1498.8</ele>
        <time>2015-06-30T04:59:15Z</time>
      </trkpt>
      <trkpt lat="42.40449" lon="8.9201">
        <ele>1500</ele>
        <time>2015-06-30T04:59:26Z</time>
      </trkpt>
      <trkpt lat="42.40445" lon="8.92005">
        <ele>1501.6</ele>
        <time>2015-06-30T04:59:37Z</time>
      </trkpt>
      <trkpt lat="42.40441" lon="8.92004">
        <ele>1502.8</ele>
        <time>2015-06-30T04:59:46Z</time>
      </trkpt>
      <trkpt lat="42.4044" lon="8.91999">
        <ele>1504.4</ele>
        <time>2015-06-30T05:00:01Z</time>
      </trkpt>
      <trkpt lat="42.4044" lon="8.91993">
        <ele>1505.4</ele>
        <time>2015-06-30T05:00:09Z</time>
      </trkpt>
      <trkpt lat="42.40438" lon="8.91991">
        <ele>1506.6</ele>
        <time>2015-06-30T05:00:18Z</time>
      </trkpt>
      <trkpt lat="42.40439" lon="8.91988">
        <ele>1507.8</ele>
        <time>2015-06-30T05:00:26Z</time>
      </trkpt>
      <trkpt lat="42.40436" lon="8.91982">
        <ele>1509.6</ele>
        <time>2015-06-30T05:00:37Z</time>
      </trkpt>
      <trkpt lat="42.40436" lon="8.91975">
        <ele>1510.6</ele>
        <time>2015-06-30T05:00:47Z</time>
      </trkpt>
      <trkpt lat="42.40435" lon="8.91971">
        <ele>1511.6</ele>
        <time>2015-06-30T05:00:55Z</time>
      </trkpt>
      <trkpt lat="42.40435" lon="8.9197">
        <ele>1511.6</ele>
        <time>2015-06-30T05:00:56Z</time>
      </trkpt>
      <trkpt lat="42.40433" lon="8.91967">
        <ele>1513</ele>
        <time>2015-06-30T05:01:05Z</time>
      </trkpt>
      <trkpt lat="42.40435" lon="8.91959">
        <ele>1514.2</ele>
        <time>2015-06-30T05:01:18Z</time>
      </trkpt>
      <trkpt lat="42.40436" lon="8.91957">
        <ele>1514.2</ele>
        <time>2015-06-30T05:01:19Z</time>
      </trkpt>
      <trkpt lat="42.40435" lon="8.9195">
        <ele>1515.2</ele>
        <time>2015-06-30T05:01:26Z</time>
      </trkpt>
      <trkpt lat="42.40435" lon="8.91948">
        <ele>1515.2</ele>
        <time>2015-06-30T05:01:27Z</time>
      </trkpt>
      <trkpt lat="42.40434" lon="8.9194">
        <ele>1516.8</ele>
        <time>2015-06-30T05:01:37Z</time>
      </trkpt>
      <trkpt lat="42.4043" lon="8.91934">
        <ele>1517.8</ele>
        <time>2015-06-30T05:01:47Z</time>
      </trkpt>
      <trkpt lat="42.40427" lon="8.91927">
        <ele>1517.6</ele>
        <time>2015-06-30T05:02:03Z</time>
      </trkpt>
      <trkpt lat="42.40425" lon="8.91926">
        <ele>1518.2</ele>
        <time>2015-06-30T05:02:12Z</time>
      </trkpt>
      <trkpt lat="42.40424" lon="8.91924">
        <ele>1519.6</ele>
        <time>2015-06-30T05:02:20Z</time>
      </trkpt>
      <trkpt lat="42.40417" lon="8.91911">
        <ele>1520.8</ele>
        <time>2015-06-30T05:02:31Z</time>
      </trkpt>
      <trkpt lat="42.40417" lon="8.91909">
        <ele>1521</ele>
        <time>2015-06-30T05:02:34Z</time>
      </trkpt>
      <trkpt lat="42.40414" lon="8.9191">
        <ele>1521.2</ele>
        <time>2015-06-30T05:02:38Z</time>
      </trkpt>
      <trkpt lat="42.40415" lon="8.91909">
        <ele>1521.4</ele>
        <time>2015-06-30T05:02:40Z</time>
      </trkpt>
      <trkpt lat="42.40417" lon="8.91903">
        <ele>1523</ele>
        <time>2015-06-30T05:02:51Z</time>
      </trkpt>
      <trkpt lat="42.40419" lon="8.919">
        <ele>1524</ele>
        <time>2015-06-30T05:02:58Z</time>
      </trkpt>
      <trkpt lat="42.40421" lon="8.91901">
        <ele>1525.2</ele>
        <time>2015-06-30T05:03:06Z</time>
      </trkpt>
      <trkpt lat="42.4043" lon="8.91898">
        <ele>1526.6</ele>
        <time>2015-06-30T05:03:17Z</time>
      </trkpt>
      <trkpt lat="42.40431" lon="8.91896">
        <ele>1527.6</ele>
        <time>2015-06-30T05:03:25Z</time>
      </trkpt>
      <trkpt lat="42.40432" lon="8.91895">
        <ele>1528.4</ele>
        <time>2015-06-30T05:03:30Z</time>
      </trkpt>
      <trkpt lat="42.40431" lon="8.91892">
        <ele>1530.2</ele>
        <time>2015-06-30T05:03:38Z</time>
      </trkpt>
      <trkpt lat="42.40429" lon="8.91891">
        <ele>1531.2</ele>
        <time>2015-06-30T05:03:52Z</time>
      </trkpt>
      <trkpt lat="42.40428" lon="8.9189">
        <ele>1532</ele>
        <time>2015-06-30T05:03:58Z</time>
      </trkpt>
      <trkpt lat="42.40427" lon="8.91888">
        <ele>1533</ele>
        <time>2015-06-30T05:04:04Z</time>
      </trkpt>
      <trkpt lat="42.40427" lon="8.91885">
        <ele>1534.6</ele>
        <time>2015-06-30T05:04:13Z</time>
      </trkpt>
      <trkpt lat="42.40427" lon="8.91881">
        <ele>1535.6</ele>
        <time>2015-06-30T05:04:20Z</time>
      </trkpt>
      <trkpt lat="42.40427" lon="8.91876">
        <ele>1536.8</ele>
        <time>2015-06-30T05:04:29Z</time>
      </trkpt>
      <trkpt lat="42.40429" lon="8.91872">
        <ele>1537.6</ele>
        <time>2015-06-30T05:04:35Z</time>
      </trkpt>
      <trkpt lat="42.40428" lon="8.91872">
        <ele>1538</ele>
        <time>2015-06-30T05:04:37Z</time>
      </trkpt>
      <trkpt lat="42.40431" lon="8.9187">
        <ele>1539.4</ele>
        <time>2015-06-30T05:04:48Z</time>
      </trkpt>
      <trkpt lat="42.40433" lon="8.91865">
        <ele>1540.4</ele>
        <time>2015-06-30T05:05:00Z</time>
      </trkpt>
      <trkpt lat="42.40436" lon="8.91862">
        <ele>1541.2</ele>
        <time>2015-06-30T05:05:07Z</time>
      </trkpt>
      <trkpt lat="42.40433" lon="8.91858">
        <ele>1542.8</ele>
        <time>2015-06-30T05:05:17Z</time>
      </trkpt>
      <trkpt lat="42.40428" lon="8.91858">
        <ele>1544</ele>
        <time>2015-06-30T05:05:27Z</time>
      </trkpt>
      <trkpt lat="42.40427" lon="8.91857">
        <ele>1544</ele>
        <time>2015-06-30T05:05:28Z</time>
      </trkpt>
      <trkpt lat="42.40425" lon="8.9185">
        <ele>1545</ele>
        <time>2015-06-30T05:05:37Z</time>
      </trkpt>
      <trkpt lat="42.40424" lon="8.91848">
        <ele>1545.2</ele>
        <time>2015-06-30T05:05:38Z</time>
      </trkpt>
      <trkpt lat="42.40425" lon="8.91845">
        <ele>1546.6</ele>
        <time>2015-06-30T05:05:48Z</time>
      </trkpt>
      <trkpt lat="42.40427" lon="8.91843">
        <ele>1547.2</ele>
        <time>2015-06-30T05:05:57Z</time>
      </trkpt>
      <trkpt lat="42.40429" lon="8.91839">
        <ele>1548.2</ele>
        <time>2015-06-30T05:06:06Z</time>
      </trkpt>
      <trkpt lat="42.40433" lon="8.91839">
        <ele>1549.6</ele>
        <time>2015-06-30T05:06:15Z</time>
      </trkpt>
      <trkpt lat="42.40442" lon="8.91834">
        <ele>1550.8</ele>
        <time>2015-06-30T05:06:25Z</time>
      </trkpt>
      <trkpt lat="42.40442" lon="8.91834">
        <ele>1551</ele>
        <time>2015-06-30T05:06:27Z</time>
      </trkpt>
      <trkpt lat="42.40442" lon="8.91834">
        <ele>1551</ele>
        <time>2015-06-30T05:06:28Z</time>
      </trkpt>
      <trkpt lat="42.40444" lon="8.91832">
        <ele>1552.2</ele>
        <time>2015-06-30T05:06:42Z</time>
      </trkpt>
      <trkpt lat="42.40445" lon="8.91833">
        <ele>1553</ele>
        <time>2015-06-30T05:06:49Z</time>
      </trkpt>
      <trkpt lat="42.40445" lon="8.91836">
        <ele>1554.2</ele>
        <time>2015-06-30T05:06:58Z</time>
      </trkpt>
      <trkpt lat="42.40446" lon="8.91837">
        <ele>1555.6</ele>
        <time>2015-06-30T05:07:09Z</time>
      </trkpt>
      <trkpt lat="42.40451" lon="8.91833">
        <ele>1556.6</ele>
        <time>2015-06-30T05:07:22Z</time>
      </trkpt>
      <trkpt lat="42.40456" lon="8.91828">
        <ele>1557.6</ele>
        <time>2015-06-30T05:07:31Z</time>
      </trkpt>
      <trkpt lat="42.40456" lon="8.91823">
        <ele>1558.8</ele>
        <time>2015-06-30T05:07:42Z</time>
      </trkpt>
      <trkpt lat="42.40462" lon="8.9182">
        <ele>1560</ele>
        <time>2015-06-30T05:07:50Z</time>
      </trkpt>
      <trkpt lat="42.40463" lon="8.91818">
        <ele>1561</ele>
        <time>2015-06-30T05:07:57Z</time>
      </trkpt>
      <trkpt lat="42.40469" lon="8.91817">
        <ele>1562.4</ele>
        <time>2015-06-30T05:08:06Z</time>
      </trkpt>
      <trkpt lat="42.4047" lon="8.91817">
        <ele>1562.8</ele>
        <time>2015-06-30T05:08:09Z</time>
      </trkpt>
      <trkpt lat="42.40471" lon="8.91815">
        <ele>1563.2</ele>
        <time>2015-06-30T05:08:14Z</time>
      </trkpt>
      <trkpt lat="42.40472" lon="8.91813">
        <ele>1564.6</ele>
        <time>2015-06-30T05:08:22Z</time>
      </trkpt>
      <trkpt lat="42.40472" lon="8.91814">
        <ele>1566</ele>
        <time>2015-06-30T05:08:31Z</time>
      </trkpt>
      <trkpt lat="42.4047" lon="8.91811">
        <ele>1567</ele>
        <time>2015-06-30T05:08:40Z</time>
      </trkpt>
      <trkpt lat="42.40466" lon="8.91806">
        <ele>1568</ele>
        <time>2015-06-30T05:08:49Z</time>
      </trkpt>
      <trkpt lat="42.40467" lon="8.91804">
        <ele>1568.4</ele>
        <time>2015-06-30T05:08:51Z</time>
      </trkpt>
      <trkpt lat="42.40466" lon="8.91803">
        <ele>1568.4</ele>
        <time>2015-06-30T05:08:52Z</time>
      </trkpt>
      <trkpt lat="42.40467" lon="8.91801">
        <ele>1568.8</ele>
        <time>2015-06-30T05:08:55Z</time>
      </trkpt>
      <trkpt lat="42.40466" lon="8.918">
        <ele>1569</ele>
        <time>2015-06-30T05:08:57Z</time>
      </trkpt>
      <trkpt lat="42.40466" lon="8.918">
        <ele>1569</ele>
        <time>2015-06-30T05:08:58Z</time>
      </trkpt>
      <trkpt lat="42.40466" lon="8.91795">
        <ele>1570.6</ele>
        <time>2015-06-30T05:09:14Z</time>
      </trkpt>
      <trkpt lat="42.40466" lon="8.91793">
        <ele>1571.6</ele>
        <time>2015-06-30T05:09:23Z</time>
      </trkpt>
      <trkpt lat="42.40466" lon="8.91791">
        <ele>1572.6</ele>
        <time>2015-06-30T05:09:30Z</time>
      </trkpt>
      <trkpt lat="42.40468" lon="8.91789">
        <ele>1574.2</ele>
        <time>2015-06-30T05:09:41Z</time>
      </trkpt>
      <trkpt lat="42.40472" lon="8.91789">
        <ele>1575</ele>
        <time>2015-06-30T05:09:47Z</time>
      </trkpt>
      <trkpt lat="42.40474" lon="8.91788">
        <ele>1575</ele>
        <time>2015-06-30T05:09:49Z</time>
      </trkpt>
      <trkpt lat="42.40474" lon="8.91787">
        <ele>1575.2</ele>
        <time>2015-06-30T05:09:50Z</time>
      </trkpt>
      <trkpt lat="42.40474" lon="8.91787">
        <ele>1577</ele>
        <time>2015-06-30T05:10:07Z</time>
      </trkpt>
      <trkpt lat="42.40477" lon="8.91786">
        <ele>1578</ele>
        <time>2015-06-30T05:10:21Z</time>
      </trkpt>
      <trkpt lat="42.4048" lon="8.91788">
        <ele>1579</ele>
        <time>2015-06-30T05:10:30Z</time>
      </trkpt>
      <trkpt lat="42.40485" lon="8.91786">
        <ele>1579.8</ele>
        <time>2015-06-30T05:10:36Z</time>
      </trkpt>
      <trkpt lat="42.40488" lon="8.91783">
        <ele>1580.4</ele>
        <time>2015-06-30T05:10:44Z</time>
      </trkpt>
      <trkpt lat="42.40489" lon="8.91783">
        <ele>1581.6</ele>
        <time>2015-06-30T05:10:55Z</time>
      </trkpt>
      <trkpt lat="42.4049" lon="8.91783">
        <ele>1582.4</ele>
        <time>2015-06-30T05:11:04Z</time>
      </trkpt>
      <trkpt lat="42.40492" lon="8.91782">
        <ele>1584</ele>
        <time>2015-06-30T05:11:16Z</time>
      </trkpt>
      <trkpt lat="42.40492" lon="8.91781">
        <ele>1584.8</ele>
        <time>2015-06-30T05:11:25Z</time>
      </trkpt>
      <trkpt lat="42.40492" lon="8.91779">
        <ele>1586.6</ele>
        <time>2015-06-30T05:11:42Z</time>
      </trkpt>
      <trkpt lat="42.40492" lon="8.91776">
        <ele>1587.8</ele>
        <time>2015-06-30T05:11:53Z</time>
      </trkpt>
      <trkpt lat="42.40494" lon="8.91767">
        <ele>1589.2</ele>
        <time>2015-06-30T05:12:58Z</time>
      </trkpt>
      <trkpt lat="42.40496" lon="8.91763">
        <ele>1590.8</ele>
        <time>2015-06-30T05:13:09Z</time>
      </trkpt>
      <trkpt lat="42.40498" lon="8.91763">
        <ele>1591.2</ele>
        <time>2015-06-30T05:13:15Z</time>
      </trkpt>
      <trkpt lat="42.405" lon="8.91762">
        <ele>1593</ele>
        <time>2015-06-30T05:13:25Z</time>
      </trkpt>
      <trkpt lat="42.40501" lon="8.91758">
        <ele>1594.2</ele>
        <time>2015-06-30T05:13:33Z</time>
      </trkpt>
      <trkpt lat="42.40503" lon="8.91754">
        <ele>1595.4</ele>
        <time>2015-06-30T05:13:42Z</time>
      </trkpt>
      <trkpt lat="42.40503" lon="8.91751">
        <ele>1596.2</ele>
        <time>2015-06-30T05:13:49Z</time>
      </trkpt>
      <trkpt lat="42.40503" lon="8.91749">
        <ele>1597.6</ele>
        <time>2015-06-30T05:13:59Z</time>
      </trkpt>
      <trkpt lat="42.40499" lon="8.91747">
        <ele>1598.8</ele>
        <time>2015-06-30T05:14:09Z</time>
      </trkpt>
      <trkpt lat="42.40502" lon="8.91744">
        <ele>1599.8</ele>
        <time>2015-06-30T05:14:18Z</time>
      </trkpt>
      <trkpt lat="42.405" lon="8.91739">
        <ele>1601</ele>
        <time>2015-06-30T05:14:30Z</time>
      </trkpt>
      <trkpt lat="42.40501" lon="8.91735">
        <ele>1602</ele>
        <time>2015-06-30T05:14:38Z</time>
      </trkpt>
      <trkpt lat="42.405" lon="8.91733">
        <ele>1602.4</ele>
        <time>2015-06-30T05:14:41Z</time>
      </trkpt>
      <trkpt lat="42.405" lon="8.91728">
        <ele>1603</ele>
        <time>2015-06-30T05:14:47Z</time>
      </trkpt>
      <trkpt lat="42.405" lon="8.91722">
        <ele>1603.4</ele>
        <time>2015-06-30T05:14:57Z</time>
      </trkpt>
      <trkpt lat="42.40502" lon="8.91714">
        <ele>1605</ele>
        <time>2015-06-30T05:15:10Z</time>
      </trkpt>
      <trkpt lat="42.40499" lon="8.91697">
        <ele>1606</ele>
        <time>2015-06-30T05:15:39Z</time>
      </trkpt>
      <trkpt lat="42.405" lon="8.9169">
        <ele>1607</ele>
        <time>2015-06-30T05:15:51Z</time>
      </trkpt>
      <trkpt lat="42.405" lon="8.91685">
        <ele>1608.2</ele>
        <time>2015-06-30T05:16:02Z</time>
      </trkpt>
      <trkpt lat="42.40499" lon="8.9168">
        <ele>1609.6</ele>
        <time>2015-06-30T05:16:12Z</time>
      </trkpt>
      <trkpt lat="42.40499" lon="8.9168">
        <ele>1609.6</ele>
        <time>2015-06-30T05:16:13Z</time>
      </trkpt>
      <trkpt lat="42.40502" lon="8.91676">
        <ele>1610.8</ele>
        <time>2015-06-30T05:16:24Z</time>
      </trkpt>
      <trkpt lat="42.40506" lon="8.91674">
        <ele>1611.8</ele>
        <time>2015-06-30T05:16:38Z</time>
      </trkpt>
      <trkpt lat="42.40505" lon="8.91673">
        <ele>1613.2</ele>
        <time>2015-06-30T05:16:50Z</time>
      </trkpt>
      <trkpt lat="42.40504" lon="8.91671">
        <ele>1614.2</ele>
        <time>2015-06-30T05:16:59Z</time>
      </trkpt>
      <trkpt lat="42.40504" lon="8.91669">
        <ele>1615.2</ele>
        <time>2015-06-30T05:17:10Z</time>
      </trkpt>
      <trkpt lat="42.40503" lon="8.91666">
        <ele>1616.4</ele>
        <time>2015-06-30T05:17:20Z</time>
      </trkpt>
      <trkpt lat="42.40502" lon="8.9166">
        <ele>1617.8</ele>
        <time>2015-06-30T05:17:31Z</time>
      </trkpt>
      <trkpt lat="42.40502" lon="8.91658">
        <ele>1618.8</ele>
        <time>2015-06-30T05:17:42Z</time>
      </trkpt>
      <trkpt lat="42.40501" lon="8.91656">
        <ele>1620.8</ele>
        <time>2015-06-30T05:17:58Z</time>
      </trkpt>
      <trkpt lat="42.40501" lon="8.91655">
        <ele>1621.2</ele>
        <time>2015-06-30T05:18:07Z</time>
      </trkpt>
      <trkpt lat="42.40501" lon="8.91651">
        <ele>1622.6</ele>
        <time>2015-06-30T05:18:20Z</time>
      </trkpt>
      <trkpt lat="42.405" lon="8.91647">
        <ele>1623.8</ele>
        <time>2015-06-30T05:18:35Z</time>
      </trkpt>
      <trkpt lat="42.405" lon="8.91642">
        <ele>1624.8</ele>
        <time>2015-06-30T05:18:45Z</time>
      </trkpt>
      <trkpt lat="42.40506" lon="8.91634">
        <ele>1626.2</ele>
        <time>2015-06-30T05:19:03Z</time>
      </trkpt>
      <trkpt lat="42.40506" lon="8.91625">
        <ele>1627.8</ele>
        <time>2015-06-30T05:19:19Z</time>
      </trkpt>
      <trkpt lat="42.40507" lon="8.91621">
        <ele>1629.2</ele>
        <time>2015-06-30T05:19:36Z</time>
      </trkpt>
      <trkpt lat="42.40505" lon="8.91617">
        <ele>1630.2</ele>
        <time>2015-06-30T05:19:46Z</time>
      </trkpt>
      <trkpt lat="42.40504" lon="8.91614">
        <ele>1631.6</ele>
        <time>2015-06-30T05:19:54Z</time>
      </trkpt>
      <trkpt lat="42.40502" lon="8.91611">
        <ele>1633</ele>
        <time>2015-06-30T05:20:04Z</time>
      </trkpt>
      <trkpt lat="42.40501" lon="8.91618">
        <ele>1632.2</ele>
        <time>2015-06-30T05:20:18Z</time>
      </trkpt>
      <trkpt lat="42.40502" lon="8.91621">
        <ele>1631.6</ele>
        <time>2015-06-30T05:20:25Z</time>
      </trkpt>
      <trkpt lat="42.40501" lon="8.91624">
        <ele>1630.8</ele>
        <time>2015-06-30T05:20:33Z</time>
      </trkpt>
      <trkpt lat="42.40498" lon="8.91627">
        <ele>1629.6</ele>
        <time>2015-06-30T05:20:43Z</time>
      </trkpt>
      <trkpt lat="42.405" lon="8.9163">
        <ele>1629.6</ele>
        <time>2015-06-30T05:20:47Z</time>
      </trkpt>
      <trkpt lat="42.40501" lon="8.91631">
        <ele>1629.4</ele>
        <time>2015-06-30T05:20:48Z</time>
      </trkpt>
      <trkpt lat="42.40504" lon="8.91632">
        <ele>1628.6</ele>
        <time>2015-06-30T05:20:50Z</time>
      </trkpt>
      <trkpt lat="42.40506" lon="8.91633">
        <ele>1628</ele>
        <time>2015-06-30T05:20:52Z</time>
      </trkpt>
      <trkpt lat="42.40515" lon="8.91622">
        <ele>1628.6</ele>
        <time>2015-06-30T05:21:15Z</time>
      </trkpt>
      <trkpt lat="42.40521" lon="8.9161">
        <ele>1630</ele>
        <time>2015-06-30T05:21:39Z</time>
      </trkpt>
      <trkpt lat="42.40521" lon="8.91608">
        <ele>1631.4</ele>
        <time>2015-06-30T05:21:48Z</time>
      </trkpt>
      <trkpt lat="42.40521" lon="8.91607">
        <ele>1632.4</ele>
        <time>2015-06-30T05:21:57Z</time>
      </trkpt>
      <trkpt lat="42.4052" lon="8.91596">
        <ele>1634</ele>
        <time>2015-06-30T05:22:17Z</time>
      </trkpt>
      <trkpt lat="42.40527" lon="8.91569">
        <ele>1634</ele>
        <time>2015-06-30T05:23:17Z</time>
      </trkpt>
      <trkpt lat="42.40531" lon="8.91562">
        <ele>1635.6</ele>
        <time>2015-06-30T05:23:26Z</time>
      </trkpt>
      <trkpt lat="42.40532" lon="8.91558">
        <ele>1636.2</ele>
        <time>2015-06-30T05:23:32Z</time>
      </trkpt>
      <trkpt lat="42.40532" lon="8.91554">
        <ele>1637.8</ele>
        <time>2015-06-30T05:23:40Z</time>
      </trkpt>
      <trkpt lat="42.40531" lon="8.91551">
        <ele>1638.6</ele>
        <time>2015-06-30T05:23:46Z</time>
      </trkpt>
      <trkpt lat="42.40532" lon="8.91549">
        <ele>1640</ele>
        <time>2015-06-30T05:23:54Z</time>
      </trkpt>
      <trkpt lat="42.40533" lon="8.91547">
        <ele>1641.2</ele>
        <time>2015-06-30T05:24:04Z</time>
      </trkpt>
      <trkpt lat="42.40532" lon="8.91544">
        <ele>1642.6</ele>
        <time>2015-06-30T05:24:14Z</time>
      </trkpt>
      <trkpt lat="42.40536" lon="8.91542">
        <ele>1643.6</ele>
        <time>2015-06-30T05:24:24Z</time>
      </trkpt>
      <trkpt lat="42.40539" lon="8.91538">
        <ele>1645.2</ele>
        <time>2015-06-30T05:24:34Z</time>
      </trkpt>
      <trkpt lat="42.40542" lon="8.91537">
        <ele>1645.8</ele>
        <time>2015-06-30T05:24:40Z</time>
      </trkpt>
      <trkpt lat="42.40545" lon="8.91536">
        <ele>1647.2</ele>
        <time>2015-06-30T05:24:49Z</time>
      </trkpt>
      <trkpt lat="42.40543" lon="8.91529">
        <ele>1648.6</ele>
        <time>2015-06-30T05:25:00Z</time>
      </trkpt>
      <trkpt lat="42.40546" lon="8.91526">
        <ele>1649.8</ele>
        <time>2015-06-30T05:25:15Z</time>
      </trkpt>
      <trkpt lat="42.40544" lon="8.91517">
        <ele>1650.8</ele>
        <time>2015-06-30T05:25:41Z</time>
      </trkpt>
      <trkpt lat="42.40545" lon="8.91516">
        <ele>1650.8</ele>
        <time>2015-06-30T05:25:43Z</time>
      </trkpt>
      <trkpt lat="42.40548" lon="8.91513">
        <ele>1651.6</ele>
        <time>2015-06-30T05:26:03Z</time>
      </trkpt>
      <trkpt lat="42.4055" lon="8.91509">
        <ele>1652.8</ele>
        <time>2015-06-30T05:26:11Z</time>
      </trkpt>
      <trkpt lat="42.40548" lon="8.91507">
        <ele>1653.2</ele>
        <time>2015-06-30T05:26:18Z</time>
      </trkpt>
      <trkpt lat="42.40544" lon="8.91504">
        <ele>1654.6</ele>
        <time>2015-06-30T05:26:26Z</time>
      </trkpt>
      <trkpt lat="42.40544" lon="8.91504">
        <ele>1655.4</ele>
        <time>2015-06-30T05:26:31Z</time>
      </trkpt>
      <trkpt lat="42.40543" lon="8.91501">
        <ele>1655.8</ele>
        <time>2015-06-30T05:26:36Z</time>
      </trkpt>
      <trkpt lat="42.40545" lon="8.915">
        <ele>1656.8</ele>
        <time>2015-06-30T05:26:44Z</time>
      </trkpt>
      <trkpt lat="42.40547" lon="8.91501">
        <ele>1657.8</ele>
        <time>2015-06-30T05:26:51Z</time>
      </trkpt>
      <trkpt lat="42.40547" lon="8.91504">
        <ele>1659</ele>
        <time>2015-06-30T05:26:59Z</time>
      </trkpt>
      <trkpt lat="42.40549" lon="8.91504">
        <ele>1659.8</ele>
        <time>2015-06-30T05:27:05Z</time>
      </trkpt>
      <trkpt lat="42.40548" lon="8.91499">
        <ele>1661.4</ele>
        <time>2015-06-30T05:27:21Z</time>
      </trkpt>
      <trkpt lat="42.40547" lon="8.91494">
        <ele>1662.4</ele>
        <time>2015-06-30T05:27:30Z</time>
      </trkpt>
      <trkpt lat="42.40547" lon="8.91491">
        <ele>1664</ele>
        <time>2015-06-30T05:28:14Z</time>
      </trkpt>
      <trkpt lat="42.40545" lon="8.9149">
        <ele>1665.2</ele>
        <time>2015-06-30T05:28:33Z</time>
      </trkpt>
      <trkpt lat="42.4055" lon="8.91493">
        <ele>1665.6</ele>
        <time>2015-06-30T05:28:44Z</time>
      </trkpt>
      <trkpt lat="42.40548" lon="8.91493">
        <ele>1666.8</ele>
        <time>2015-06-30T05:29:03Z</time>
      </trkpt>
      <trkpt lat="42.40548" lon="8.91491">
        <ele>1667.8</ele>
        <time>2015-06-30T05:29:10Z</time>
      </trkpt>
      <trkpt lat="42.40546" lon="8.91486">
        <ele>1669</ele>
        <time>2015-06-30T05:29:20Z</time>
      </trkpt>
      <trkpt lat="42.40547" lon="8.91484">
        <ele>1670.4</ele>
        <time>2015-06-30T05:29:32Z</time>
      </trkpt>
      <trkpt lat="42.40547" lon="8.91483">
        <ele>1671</ele>
        <time>2015-06-30T05:29:38Z</time>
      </trkpt>
      <trkpt lat="42.40547" lon="8.91478">
        <ele>1672.4</ele>
        <time>2015-06-30T05:29:46Z</time>
      </trkpt>
      <trkpt lat="42.4055" lon="8.91475">
        <ele>1673.2</ele>
        <time>2015-06-30T05:29:52Z</time>
      </trkpt>
      <trkpt lat="42.40553" lon="8.91474">
        <ele>1674.2</ele>
        <time>2015-06-30T05:30:00Z</time>
      </trkpt>
      <trkpt lat="42.40554" lon="8.91467">
        <ele>1675.6</ele>
        <time>2015-06-30T05:30:17Z</time>
      </trkpt>
      <trkpt lat="42.40555" lon="8.91465">
        <ele>1677</ele>
        <time>2015-06-30T05:30:33Z</time>
      </trkpt>
      <trkpt lat="42.40555" lon="8.91463">
        <ele>1678.2</ele>
        <time>2015-06-30T05:30:46Z</time>
      </trkpt>
      <trkpt lat="42.40551" lon="8.91465">
        <ele>1679.2</ele>
        <time>2015-06-30T05:31:03Z</time>
      </trkpt>
      <trkpt lat="42.40551" lon="8.91467">
        <ele>1680.4</ele>
        <time>2015-06-30T05:31:18Z</time>
      </trkpt>
      <trkpt lat="42.40556" lon="8.91468">
        <ele>1680.6</ele>
        <time>2015-06-30T05:31:20Z</time>
      </trkpt>
      <trkpt lat="42.40556" lon="8.91468">
        <ele>1680.8</ele>
        <time>2015-06-30T05:31:22Z</time>
      </trkpt>
      <trkpt lat="42.40558" lon="8.91465">
        <ele>1681.6</ele>
        <time>2015-06-30T05:31:34Z</time>
      </trkpt>
      <trkpt lat="42.40561" lon="8.91463">
        <ele>1682.6</ele>
        <time>2015-06-30T05:31:43Z</time>
      </trkpt>
      <trkpt lat="42.40563" lon="8.91463">
        <ele>1683.2</ele>
        <time>2015-06-30T05:31:49Z</time>
      </trkpt>
      <trkpt lat="42.4056" lon="8.91459">
        <ele>1684.6</ele>
        <time>2015-06-30T05:31:58Z</time>
      </trkpt>
      <trkpt lat="42.4056" lon="8.9146">
        <ele>1686.2</ele>
        <time>2015-06-30T05:32:10Z</time>
      </trkpt>
      <trkpt lat="42.40561" lon="8.91457">
        <ele>1687.4</ele>
        <time>2015-06-30T05:32:21Z</time>
      </trkpt>
      <trkpt lat="42.40553" lon="8.91455">
        <ele>1687.4</ele>
        <time>2015-06-30T05:32:25Z</time>
      </trkpt>
      <trkpt lat="42.40551" lon="8.91453">
        <ele>1688</ele>
        <time>2015-06-30T05:32:29Z</time>
      </trkpt>
      <trkpt lat="42.40539" lon="8.91451">
        <ele>1689</ele>
        <time>2015-06-30T05:32:36Z</time>
      </trkpt>
      <trkpt lat="42.40542" lon="8.91447">
        <ele>1690.2</ele>
        <time>2015-06-30T05:32:45Z</time>
      </trkpt>
      <trkpt lat="42.40551" lon="8.91447">
        <ele>1690.6</ele>
        <time>2015-06-30T05:32:47Z</time>
      </trkpt>
      <trkpt lat="42.40557" lon="8.91446">
        <ele>1691</ele>
        <time>2015-06-30T05:32:50Z</time>
      </trkpt>
      <trkpt lat="42.40559" lon="8.91445">
        <ele>1691.2</ele>
        <time>2015-06-30T05:32:52Z</time>
      </trkpt>
      <trkpt lat="42.40559" lon="8.91445">
        <ele>1691.4</ele>
        <time>2015-06-30T05:32:53Z</time>
      </trkpt>
      <trkpt lat="42.40559" lon="8.91444">
        <ele>1691.6</ele>
        <time>2015-06-30T05:32:54Z</time>
      </trkpt>
      <trkpt lat="42.40563" lon="8.91439">
        <ele>1692.8</ele>
        <time>2015-06-30T05:33:09Z</time>
      </trkpt>
      <trkpt lat="42.40565" lon="8.91439">
        <ele>1693.6</ele>
        <time>2015-06-30T05:33:18Z</time>
      </trkpt>
      <trkpt lat="42.40567" lon="8.91438">
        <ele>1694.8</ele>
        <time>2015-06-30T05:33:29Z</time>
      </trkpt>
      <trkpt lat="42.40565" lon="8.91432">
        <ele>1696</ele>
        <time>2015-06-30T05:33:38Z</time>
      </trkpt>
      <trkpt lat="42.40564" lon="8.91428">
        <ele>1696.8</ele>
        <time>2015-06-30T05:33:45Z</time>
      </trkpt>
      <trkpt lat="42.4056" lon="8.91422">
        <ele>1698.2</ele>
        <time>2015-06-30T05:33:56Z</time>
      </trkpt>
      <trkpt lat="42.4056" lon="8.91421">
        <ele>1699</ele>
        <time>2015-06-30T05:34:08Z</time>
      </trkpt>
      <trkpt lat="42.4056" lon="8.91418">
        <ele>1700.6</ele>
        <time>2015-06-30T05:34:21Z</time>
      </trkpt>
      <trkpt lat="42.40557" lon="8.91414">
        <ele>1702</ele>
        <time>2015-06-30T05:34:46Z</time>
      </trkpt>
      <trkpt lat="42.40555" lon="8.91412">
        <ele>1702.8</ele>
        <time>2015-06-30T05:34:54Z</time>
      </trkpt>
      <trkpt lat="42.40553" lon="8.91409">
        <ele>1703.8</ele>
        <time>2015-06-30T05:35:02Z</time>
      </trkpt>
      <trkpt lat="42.40556" lon="8.91408">
        <ele>1705.2</ele>
        <time>2015-06-30T05:35:12Z</time>
      </trkpt>
      <trkpt lat="42.40561" lon="8.91407">
        <ele>1706.4</ele>
        <time>2015-06-30T05:35:24Z</time>
      </trkpt>
      <trkpt lat="42.40562" lon="8.91405">
        <ele>1707.4</ele>
        <time>2015-06-30T05:35:32Z</time>
      </trkpt>
      <trkpt lat="42.40569" lon="8.91403">
        <ele>1708.4</ele>
        <time>2015-06-30T05:35:41Z</time>
      </trkpt>
      <trkpt lat="42.40568" lon="8.91401">
        <ele>1709.4</ele>
        <time>2015-06-30T05:35:50Z</time>
      </trkpt>
      <trkpt lat="42.40574" lon="8.91401">
        <ele>1710.4</ele>
        <time>2015-06-30T05:36:21Z</time>
      </trkpt>
      <trkpt lat="42.40576" lon="8.91401">
        <ele>1711.2</ele>
        <time>2015-06-30T05:36:31Z</time>
      </trkpt>
      <trkpt lat="42.40578" lon="8.91399">
        <ele>1712.2</ele>
        <time>2015-06-30T05:36:40Z</time>
      </trkpt>
      <trkpt lat="42.40575" lon="8.91397">
        <ele>1713.6</ele>
        <time>2015-06-30T05:36:59Z</time>
      </trkpt>
      <trkpt lat="42.40571" lon="8.91392">
        <ele>1714</ele>
        <time>2015-06-30T05:37:03Z</time>
      </trkpt>
      <trkpt lat="42.40572" lon="8.91391">
        <ele>1714</ele>
        <time>2015-06-30T05:37:04Z</time>
      </trkpt>
      <trkpt lat="42.40572" lon="8.9139">
        <ele>1714.4</ele>
        <time>2015-06-30T05:37:06Z</time>
      </trkpt>
      <trkpt lat="42.40573" lon="8.9139">
        <ele>1714.8</ele>
        <time>2015-06-30T05:37:08Z</time>
      </trkpt>
      <trkpt lat="42.40573" lon="8.91389">
        <ele>1715.8</ele>
        <time>2015-06-30T05:37:12Z</time>
      </trkpt>
      <trkpt lat="42.40576" lon="8.91404">
        <ele>1717.2</ele>
        <time>2015-06-30T05:37:45Z</time>
      </trkpt>
      <trkpt lat="42.40584" lon="8.91406">
        <ele>1717.8</ele>
        <time>2015-06-30T05:37:53Z</time>
      </trkpt>
      <trkpt lat="42.40587" lon="8.9141">
        <ele>1718.2</ele>
        <time>2015-06-30T05:37:56Z</time>
      </trkpt>
      <trkpt lat="42.40588" lon="8.91411">
        <ele>1718.6</ele>
        <time>2015-06-30T05:37:58Z</time>
      </trkpt>
      <trkpt lat="42.40588" lon="8.9141">
        <ele>1718.8</ele>
        <time>2015-06-30T05:37:59Z</time>
      </trkpt>
      <trkpt lat="42.40585" lon="8.91414">
        <ele>1720.4</ele>
        <time>2015-06-30T05:38:33Z</time>
      </trkpt>
      <trkpt lat="42.4059" lon="8.91409">
        <ele>1720.4</ele>
        <time>2015-06-30T05:38:37Z</time>
      </trkpt>
      <trkpt lat="42.40593" lon="8.91413">
        <ele>1720.6</ele>
        <time>2015-06-30T05:38:39Z</time>
      </trkpt>
      <trkpt lat="42.40596" lon="8.91419">
        <ele>1721.2</ele>
        <time>2015-06-30T05:38:45Z</time>
      </trkpt>
      <trkpt lat="42.40596" lon="8.91423">
        <ele>1721.2</ele>
        <time>2015-06-30T05:38:48Z</time>
      </trkpt>
      <trkpt lat="42.40598" lon="8.91422">
        <ele>1721.4</ele>
        <time>2015-06-30T05:39:07Z</time>
      </trkpt>
      <trkpt lat="42.40604" lon="8.91414">
        <ele>1721.4</ele>
        <time>2015-06-30T05:39:12Z</time>
      </trkpt>
      <trkpt lat="42.40605" lon="8.91414">
        <ele>1721.8</ele>
        <time>2015-06-30T05:39:15Z</time>
      </trkpt>
      <trkpt lat="42.40606" lon="8.91417">
        <ele>1722</ele>
        <time>2015-06-30T05:39:23Z</time>
      </trkpt>
      <trkpt lat="42.40608" lon="8.91417">
        <ele>1722.8</ele>
        <time>2015-06-30T05:39:32Z</time>
      </trkpt>
      <trkpt lat="42.40608" lon="8.91418">
        <ele>1724.2</ele>
        <time>2015-06-30T05:39:43Z</time>
      </trkpt>
      <trkpt lat="42.40612" lon="8.91421">
        <ele>1725.4</ele>
        <time>2015-06-30T05:39:55Z</time>
      </trkpt>
      <trkpt lat="42.40613" lon="8.91421">
        <ele>1726.2</ele>
        <time>2015-06-30T05:40:04Z</time>
      </trkpt>
      <trkpt lat="42.40617" lon="8.91422">
        <ele>1727.6</ele>
        <time>2015-06-30T05:40:19Z</time>
      </trkpt>
      <trkpt lat="42.4062" lon="8.91424">
        <ele>1728.2</ele>
        <time>2015-06-30T05:40:29Z</time>
      </trkpt>
      <trkpt lat="42.40622" lon="8.91423">
        <ele>1729.4</ele>
        <time>2015-06-30T05:40:37Z</time>
      </trkpt>
      <trkpt lat="42.40624" lon="8.91425">
        <ele>1729.6</ele>
        <time>2015-06-30T05:40:40Z</time>
      </trkpt>
      <trkpt lat="42.40625" lon="8.91426">
        <ele>1730.2</ele>
        <time>2015-06-30T05:40:44Z</time>
      </trkpt>
      <trkpt lat="42.40627" lon="8.91429">
        <ele>1731.8</ele>
        <time>2015-06-30T05:40:54Z</time>
      </trkpt>
      <trkpt lat="42.40628" lon="8.9143">
        <ele>1732.4</ele>
        <time>2015-06-30T05:41:02Z</time>
      </trkpt>
      <trkpt lat="42.4063" lon="8.91427">
        <ele>1733.6</ele>
        <time>2015-06-30T05:41:16Z</time>
      </trkpt>
      <trkpt lat="42.40622" lon="8.91419">
        <ele>1735.2</ele>
        <time>2015-06-30T05:41:43Z</time>
      </trkpt>
      <trkpt lat="42.40621" lon="8.91419">
        <ele>1735.2</ele>
        <time>2015-06-30T05:41:47Z</time>
      </trkpt>
      <trkpt lat="42.4064" lon="8.91411">
        <ele>1736</ele>
        <time>2015-06-30T05:42:34Z</time>
      </trkpt>
      <trkpt lat="42.40642" lon="8.9141">
        <ele>1736.2</ele>
        <time>2015-06-30T05:42:37Z</time>
      </trkpt>
      <trkpt lat="42.40645" lon="8.91407">
        <ele>1736.8</ele>
        <time>2015-06-30T05:42:42Z</time>
      </trkpt>
      <trkpt lat="42.40646" lon="8.91403">
        <ele>1737.2</ele>
        <time>2015-06-30T05:42:45Z</time>
      </trkpt>
      <trkpt lat="42.40644" lon="8.91396">
        <ele>1738.2</ele>
        <time>2015-06-30T05:42:53Z</time>
      </trkpt>
      <trkpt lat="42.40641" lon="8.91397">
        <ele>1738.4</ele>
        <time>2015-06-30T05:42:55Z</time>
      </trkpt>
      <trkpt lat="42.4064" lon="8.91397">
        <ele>1738.8</ele>
        <time>2015-06-30T05:42:58Z</time>
      </trkpt>
      <trkpt lat="42.40643" lon="8.91391">
        <ele>1739.6</ele>
        <time>2015-06-30T05:43:04Z</time>
      </trkpt>
      <trkpt lat="42.40647" lon="8.91389">
        <ele>1740</ele>
        <time>2015-06-30T05:43:08Z</time>
      </trkpt>
      <trkpt lat="42.40648" lon="8.91388">
        <ele>1740.4</ele>
        <time>2015-06-30T05:43:11Z</time>
      </trkpt>
      <trkpt lat="42.40651" lon="8.91387">
        <ele>1740.8</ele>
        <time>2015-06-30T05:43:14Z</time>
      </trkpt>
      <trkpt lat="42.40654" lon="8.91383">
        <ele>1741</ele>
        <time>2015-06-30T05:43:18Z</time>
      </trkpt>
      <trkpt lat="42.40656" lon="8.91382">
        <ele>1741.6</ele>
        <time>2015-06-30T05:43:23Z</time>
      </trkpt>
      <trkpt lat="42.40662" lon="8.91381">
        <ele>1743</ele>
        <time>2015-06-30T05:43:33Z</time>
      </trkpt>
      <trkpt lat="42.40663" lon="8.91381">
        <ele>1743.2</ele>
        <time>2015-06-30T05:43:34Z</time>
      </trkpt>
      <trkpt lat="42.40664" lon="8.9138">
        <ele>1743.8</ele>
        <time>2015-06-30T05:43:41Z</time>
      </trkpt>
      <trkpt lat="42.40664" lon="8.91379">
        <ele>1745</ele>
        <time>2015-06-30T05:43:51Z</time>
      </trkpt>
      <trkpt lat="42.40668" lon="8.91378">
        <ele>1746.2</ele>
        <time>2015-06-30T05:44:02Z</time>
      </trkpt>
      <trkpt lat="42.40669" lon="8.9138">
        <ele>1747</ele>
        <time>2015-06-30T05:44:10Z</time>
      </trkpt>
      <trkpt lat="42.4067" lon="8.9138">
        <ele>1748.6</ele>
        <time>2015-06-30T05:44:19Z</time>
      </trkpt>
      <trkpt lat="42.40678" lon="8.91378">
        <ele>1749.8</ele>
        <time>2015-06-30T05:44:38Z</time>
      </trkpt>
      <trkpt lat="42.40678" lon="8.91376">
        <ele>1750.4</ele>
        <time>2015-06-30T05:44:47Z</time>
      </trkpt>
      <trkpt lat="42.40677" lon="8.91371">
        <ele>1751.4</ele>
        <time>2015-06-30T05:44:56Z</time>
      </trkpt>
      <trkpt lat="42.40677" lon="8.9137">
        <ele>1752.6</ele>
        <time>2015-06-30T05:45:04Z</time>
      </trkpt>
      <trkpt lat="42.40675" lon="8.91371">
        <ele>1753.8</ele>
        <time>2015-06-30T05:45:18Z</time>
      </trkpt>
      <trkpt lat="42.4068" lon="8.9137">
        <ele>1754.4</ele>
        <time>2015-06-30T05:45:27Z</time>
      </trkpt>
      <trkpt lat="42.40682" lon="8.91368">
        <ele>1755.8</ele>
        <time>2015-06-30T05:45:37Z</time>
      </trkpt>
      <trkpt lat="42.40688" lon="8.9136">
        <ele>1757</ele>
        <time>2015-06-30T05:45:53Z</time>
      </trkpt>
      <trkpt lat="42.40688" lon="8.91365">
        <ele>1757.8</ele>
        <time>2015-06-30T05:46:04Z</time>
      </trkpt>
      <trkpt lat="42.40686" lon="8.91364">
        <ele>1759.2</ele>
        <time>2015-06-30T05:46:17Z</time>
      </trkpt>
      <trkpt lat="42.40686" lon="8.91363">
        <ele>1759.8</ele>
        <time>2015-06-30T05:46:26Z</time>
      </trkpt>
      <trkpt lat="42.40685" lon="8.91359">
        <ele>1761.2</ele>
        <time>2015-06-30T05:46:41Z</time>
      </trkpt>
      <trkpt lat="42.40682" lon="8.91357">
        <ele>1762.6</ele>
        <time>2015-06-30T05:47:00Z</time>
      </trkpt>
      <trkpt lat="42.40681" lon="8.91356">
        <ele>1762.6</ele>
        <time>2015-06-30T05:47:01Z</time>
      </trkpt>
      <trkpt lat="42.40681" lon="8.91358">
        <ele>1763.4</ele>
        <time>2015-06-30T05:47:13Z</time>
      </trkpt>
      <trkpt lat="42.40676" lon="8.9136">
        <ele>1764.8</ele>
        <time>2015-06-30T05:47:27Z</time>
      </trkpt>
      <trkpt lat="42.40678" lon="8.9136">
        <ele>1765.4</ele>
        <time>2015-06-30T05:47:35Z</time>
      </trkpt>
      <trkpt lat="42.40681" lon="8.91356">
        <ele>1766.6</ele>
        <time>2015-06-30T05:47:43Z</time>
      </trkpt>
      <trkpt lat="42.40682" lon="8.91352">
        <ele>1767.8</ele>
        <time>2015-06-30T05:47:54Z</time>
      </trkpt>
      <trkpt lat="42.40685" lon="8.91355">
        <ele>1768.8</ele>
        <time>2015-06-30T05:48:06Z</time>
      </trkpt>
      <trkpt lat="42.40688" lon="8.9135">
        <ele>1769.8</ele>
        <time>2015-06-30T05:48:24Z</time>
      </trkpt>
      <trkpt lat="42.40692" lon="8.91345">
        <ele>1771.2</ele>
        <time>2015-06-30T05:48:34Z</time>
      </trkpt>
      <trkpt lat="42.40691" lon="8.91344">
        <ele>1771.6</ele>
        <time>2015-06-30T05:48:41Z</time>
      </trkpt>
      <trkpt lat="42.40688" lon="8.91342">
        <ele>1772.8</ele>
        <time>2015-06-30T05:48:48Z</time>
      </trkpt>
      <trkpt lat="42.40682" lon="8.91338">
        <ele>1774</ele>
        <time>2015-06-30T05:48:55Z</time>
      </trkpt>
      <trkpt lat="42.40682" lon="8.91338">
        <ele>1774</ele>
        <time>2015-06-30T05:48:56Z</time>
      </trkpt>
      <trkpt lat="42.40688" lon="8.91329">
        <ele>1775.2</ele>
        <time>2015-06-30T05:49:03Z</time>
      </trkpt>
      <trkpt lat="42.40684" lon="8.91333">
        <ele>1775.2</ele>
        <time>2015-06-30T05:49:16Z</time>
      </trkpt>
      <trkpt lat="42.40683" lon="8.91333">
        <ele>1776.2</ele>
        <time>2015-06-30T05:49:24Z</time>
      </trkpt>
      <trkpt lat="42.40681" lon="8.91329">
        <ele>1777.8</ele>
        <time>2015-06-30T05:49:38Z</time>
      </trkpt>
      <trkpt lat="42.40681" lon="8.91325">
        <ele>1778.2</ele>
        <time>2015-06-30T05:49:44Z</time>
      </trkpt>
      <trkpt lat="42.40682" lon="8.91322">
        <ele>1779.2</ele>
        <time>2015-06-30T05:49:50Z</time>
      </trkpt>
      <trkpt lat="42.40685" lon="8.91319">
        <ele>1780</ele>
        <time>2015-06-30T05:49:55Z</time>
      </trkpt>
      <trkpt lat="42.40685" lon="8.91318">
        <ele>1780.4</ele>
        <time>2015-06-30T05:50:02Z</time>
      </trkpt>
      <trkpt lat="42.40682" lon="8.91312">
        <ele>1781.8</ele>
        <time>2015-06-30T05:50:15Z</time>
      </trkpt>
      <trkpt lat="42.40677" lon="8.91295">
        <ele>1783.2</ele>
        <time>2015-06-30T05:50:34Z</time>
      </trkpt>
      <trkpt lat="42.40674" lon="8.91298">
        <ele>1783.4</ele>
        <time>2015-06-30T05:50:37Z</time>
      </trkpt>
      <trkpt lat="42.40672" lon="8.91304">
        <ele>1783.2</ele>
        <time>2015-06-30T05:50:39Z</time>
      </trkpt>
      <trkpt lat="42.40674" lon="8.91311">
        <ele>1783.2</ele>
        <time>2015-06-30T05:50:57Z</time>
      </trkpt>
      <trkpt lat="42.40674" lon="8.91308">
        <ele>1783.4</ele>
        <time>2015-06-30T05:51:03Z</time>
      </trkpt>
      <trkpt lat="42.40671" lon="8.91301">
        <ele>1784.8</ele>
        <time>2015-06-30T05:51:23Z</time>
      </trkpt>
      <trkpt lat="42.40673" lon="8.91296">
        <ele>1785.2</ele>
        <time>2015-06-30T05:51:49Z</time>
      </trkpt>
      <trkpt lat="42.40674" lon="8.91291">
        <ele>1786.2</ele>
        <time>2015-06-30T05:52:03Z</time>
      </trkpt>
      <trkpt lat="42.40663" lon="8.91289">
        <ele>1787.6</ele>
        <time>2015-06-30T05:52:27Z</time>
      </trkpt>
      <trkpt lat="42.4066" lon="8.91286">
        <ele>1788.2</ele>
        <time>2015-06-30T05:52:37Z</time>
      </trkpt>
      <trkpt lat="42.40655" lon="8.91286">
        <ele>1789.4</ele>
        <time>2015-06-30T05:52:53Z</time>
      </trkpt>
      <trkpt lat="42.40656" lon="8.91284">
        <ele>1790</ele>
        <time>2015-06-30T05:53:04Z</time>
      </trkpt>
      <trkpt lat="42.40658" lon="8.91285">
        <ele>1790</ele>
        <time>2015-06-30T05:53:07Z</time>
      </trkpt>
      <trkpt lat="42.40662" lon="8.91285">
        <ele>1790.2</ele>
        <time>2015-06-30T05:53:10Z</time>
      </trkpt>
      <trkpt lat="42.40668" lon="8.91279">
        <ele>1791.6</ele>
        <time>2015-06-30T05:53:34Z</time>
      </trkpt>
      <trkpt lat="42.40663" lon="8.91278">
        <ele>1792</ele>
        <time>2015-06-30T05:53:54Z</time>
      </trkpt>
      <trkpt lat="42.40665" lon="8.9128">
        <ele>1793</ele>
        <time>2015-06-30T05:54:08Z</time>
      </trkpt>
      <trkpt lat="42.40672" lon="8.91285">
        <ele>1793.6</ele>
        <time>2015-06-30T05:54:32Z</time>
      </trkpt>
      <trkpt lat="42.40673" lon="8.91283">
        <ele>1794.4</ele>
        <time>2015-06-30T05:54:48Z</time>
      </trkpt>
      <trkpt lat="42.40674" lon="8.91282">
        <ele>1795</ele>
        <time>2015-06-30T05:55:17Z</time>
      </trkpt>
      <trkpt lat="42.40675" lon="8.91279">
        <ele>1796</ele>
        <time>2015-06-30T05:55:30Z</time>
      </trkpt>
      <trkpt lat="42.40675" lon="8.91272">
        <ele>1796.6</ele>
        <time>2015-06-30T05:55:35Z</time>
      </trkpt>
      <trkpt lat="42.40675" lon="8.91273">
        <ele>1797</ele>
        <time>2015-06-30T05:55:42Z</time>
      </trkpt>
      <trkpt lat="42.40671" lon="8.91276">
        <ele>1797.4</ele>
        <time>2015-06-30T05:56:07Z</time>
      </trkpt>
      <trkpt lat="42.40672" lon="8.91276">
        <ele>1797.6</ele>
        <time>2015-06-30T05:56:15Z</time>
      </trkpt>
      <trkpt lat="42.40673" lon="8.91274">
        <ele>1799</ele>
        <time>2015-06-30T05:56:26Z</time>
      </trkpt>
      <trkpt lat="42.40672" lon="8.91274">
        <ele>1799.8</ele>
        <time>2015-06-30T05:56:37Z</time>
      </trkpt>
      <trkpt lat="42.40674" lon="8.91271">
        <ele>1801</ele>
        <time>2015-06-30T05:56:52Z</time>
      </trkpt>
      <trkpt lat="42.40673" lon="8.9127">
        <ele>1801.8</ele>
        <time>2015-06-30T05:57:02Z</time>
      </trkpt>
      <trkpt lat="42.40669" lon="8.91268">
        <ele>1802.6</ele>
        <time>2015-06-30T05:57:09Z</time>
      </trkpt>
      <trkpt lat="42.4066" lon="8.91261">
        <ele>1803</ele>
        <time>2015-06-30T05:57:40Z</time>
      </trkpt>
      <trkpt lat="42.40659" lon="8.91262">
        <ele>1802.8</ele>
        <time>2015-06-30T05:57:48Z</time>
      </trkpt>
      <trkpt lat="42.4066" lon="8.91261">
        <ele>1803.6</ele>
        <time>2015-06-30T05:57:55Z</time>
      </trkpt>
      <trkpt lat="42.40661" lon="8.91256">
        <ele>1804.4</ele>
        <time>2015-06-30T05:58:03Z</time>
      </trkpt>
      <trkpt lat="42.40661" lon="8.91259">
        <ele>1805.8</ele>
        <time>2015-06-30T05:58:13Z</time>
      </trkpt>
      <trkpt lat="42.40662" lon="8.91256">
        <ele>1806.8</ele>
        <time>2015-06-30T05:58:25Z</time>
      </trkpt>
      <trkpt lat="42.40665" lon="8.91255">
        <ele>1808.2</ele>
        <time>2015-06-30T05:58:34Z</time>
      </trkpt>
      <trkpt lat="42.40666" lon="8.91252">
        <ele>1808.8</ele>
        <time>2015-06-30T05:58:41Z</time>
      </trkpt>
      <trkpt lat="42.40665" lon="8.91248">
        <ele>1809.6</ele>
        <time>2015-06-30T05:58:48Z</time>
      </trkpt>
      <trkpt lat="42.40664" lon="8.91245">
        <ele>1810.6</ele>
        <time>2015-06-30T05:58:54Z</time>
      </trkpt>
      <trkpt lat="42.40664" lon="8.91244">
        <ele>1812</ele>
        <time>2015-06-30T05:59:04Z</time>
      </trkpt>
      <trkpt lat="42.40663" lon="8.91239">
        <ele>1813</ele>
        <time>2015-06-30T05:59:16Z</time>
      </trkpt>
      <trkpt lat="42.40662" lon="8.91234">
        <ele>1814.2</ele>
        <time>2015-06-30T05:59:33Z</time>
      </trkpt>
      <trkpt lat="42.40662" lon="8.91237">
        <ele>1815</ele>
        <time>2015-06-30T05:59:41Z</time>
      </trkpt>
      <trkpt lat="42.40662" lon="8.91235">
        <ele>1816</ele>
        <time>2015-06-30T05:59:51Z</time>
      </trkpt>
      <trkpt lat="42.40663" lon="8.91233">
        <ele>1816.8</ele>
        <time>2015-06-30T05:59:58Z</time>
      </trkpt>
      <trkpt lat="42.40664" lon="8.91232">
        <ele>1817.8</ele>
        <time>2015-06-30T06:00:07Z</time>
      </trkpt>
      <trkpt lat="42.40665" lon="8.91229">
        <ele>1819.2</ele>
        <time>2015-06-30T06:00:22Z</time>
      </trkpt>
      <trkpt lat="42.40666" lon="8.91228">
        <ele>1819.8</ele>
        <time>2015-06-30T06:00:29Z</time>
      </trkpt>
      <trkpt lat="42.40666" lon="8.91227">
        <ele>1820.8</ele>
        <time>2015-06-30T06:00:36Z</time>
      </trkpt>
      <trkpt lat="42.40664" lon="8.91222">
        <ele>1822.2</ele>
        <time>2015-06-30T06:00:50Z</time>
      </trkpt>
      <trkpt lat="42.40663" lon="8.9122">
        <ele>1823.2</ele>
        <time>2015-06-30T06:00:59Z</time>
      </trkpt>
      <trkpt lat="42.40663" lon="8.91218">
        <ele>1824</ele>
        <time>2015-06-30T06:01:08Z</time>
      </trkpt>
      <trkpt lat="42.40664" lon="8.91214">
        <ele>1825</ele>
        <time>2015-06-30T06:01:16Z</time>
      </trkpt>
      <trkpt lat="42.40666" lon="8.91215">
        <ele>1826.2</ele>
        <time>2015-06-30T06:01:25Z</time>
      </trkpt>
      <trkpt lat="42.40669" lon="8.91215">
        <ele>1827</ele>
        <time>2015-06-30T06:01:32Z</time>
      </trkpt>
      <trkpt lat="42.40669" lon="8.91212">
        <ele>1828.2</ele>
        <time>2015-06-30T06:01:40Z</time>
      </trkpt>
      <trkpt lat="42.40671" lon="8.91212">
        <ele>1829.4</ele>
        <time>2015-06-30T06:01:49Z</time>
      </trkpt>
      <trkpt lat="42.40672" lon="8.9121">
        <ele>1830.4</ele>
        <time>2015-06-30T06:01:56Z</time>
      </trkpt>
      <trkpt lat="42.40671" lon="8.91205">
        <ele>1831.2</ele>
        <time>2015-06-30T06:02:04Z</time>
      </trkpt>
      <trkpt lat="42.40669" lon="8.91202">
        <ele>1832.4</ele>
        <time>2015-06-30T06:02:13Z</time>
      </trkpt>
      <trkpt lat="42.4067" lon="8.912">
        <ele>1833.2</ele>
        <time>2015-06-30T06:02:21Z</time>
      </trkpt>
      <trkpt lat="42.40671" lon="8.91201">
        <ele>1834.8</ele>
        <time>2015-06-30T06:02:32Z</time>
      </trkpt>
      <trkpt lat="42.40673" lon="8.91199">
        <ele>1835.4</ele>
        <time>2015-06-30T06:02:40Z</time>
      </trkpt>
      <trkpt lat="42.40676" lon="8.91195">
        <ele>1836.4</ele>
        <time>2015-06-30T06:02:50Z</time>
      </trkpt>
      <trkpt lat="42.40677" lon="8.91193">
        <ele>1837.2</ele>
        <time>2015-06-30T06:02:55Z</time>
      </trkpt>
      <trkpt lat="42.40679" lon="8.91187">
        <ele>1838.6</ele>
        <time>2015-06-30T06:03:05Z</time>
      </trkpt>
      <trkpt lat="42.40679" lon="8.91187">
        <ele>1839.6</ele>
        <time>2015-06-30T06:03:13Z</time>
      </trkpt>
      <trkpt lat="42.40679" lon="8.91184">
        <ele>1840.8</ele>
        <time>2015-06-30T06:03:23Z</time>
      </trkpt>
      <trkpt lat="42.4068" lon="8.91185">
        <ele>1840.8</ele>
        <time>2015-06-30T06:03:25Z</time>
      </trkpt>
      <trkpt lat="42.4068" lon="8.91185">
        <ele>1841.6</ele>
        <time>2015-06-30T06:03:36Z</time>
      </trkpt>
      <trkpt lat="42.40679" lon="8.91184">
        <ele>1842.4</ele>
        <time>2015-06-30T06:03:43Z</time>
      </trkpt>
      <trkpt lat="42.40677" lon="8.91185">
        <ele>1844</ele>
        <time>2015-06-30T06:03:52Z</time>
      </trkpt>
      <trkpt lat="42.40677" lon="8.91185">
        <ele>1844.6</ele>
        <time>2015-06-30T06:04:04Z</time>
      </trkpt>
      <trkpt lat="42.4068" lon="8.9118">
        <ele>1846</ele>
        <time>2015-06-30T06:04:17Z</time>
      </trkpt>
      <trkpt lat="42.40682" lon="8.91179">
        <ele>1846.2</ele>
        <time>2015-06-30T06:04:19Z</time>
      </trkpt>
      <trkpt lat="42.40684" lon="8.91176">
        <ele>1846.2</ele>
        <time>2015-06-30T06:04:22Z</time>
      </trkpt>
      <trkpt lat="42.40685" lon="8.91175">
        <ele>1846.2</ele>
        <time>2015-06-30T06:04:24Z</time>
      </trkpt>
      <trkpt lat="42.40686" lon="8.91174">
        <ele>1846.4</ele>
        <time>2015-06-30T06:04:25Z</time>
      </trkpt>
      <trkpt lat="42.40686" lon="8.91173">
        <ele>1846.8</ele>
        <time>2015-06-30T06:04:27Z</time>
      </trkpt>
      <trkpt lat="42.40689" lon="8.9117">
        <ele>1847.6</ele>
        <time>2015-06-30T06:04:32Z</time>
      </trkpt>
      <trkpt lat="42.40689" lon="8.9117">
        <ele>1847.6</ele>
        <time>2015-06-30T06:04:33Z</time>
      </trkpt>
      <trkpt lat="42.40688" lon="8.91165">
        <ele>1848.2</ele>
        <time>2015-06-30T06:04:38Z</time>
      </trkpt>
      <trkpt lat="42.40679" lon="8.91164">
        <ele>1850</ele>
        <time>2015-06-30T06:04:51Z</time>
      </trkpt>
      <trkpt lat="42.40673" lon="8.91173">
        <ele>1850.2</ele>
        <time>2015-06-30T06:04:58Z</time>
      </trkpt>
      <trkpt lat="42.40672" lon="8.91175">
        <ele>1851</ele>
        <time>2015-06-30T06:05:10Z</time>
      </trkpt>
      <trkpt lat="42.40672" lon="8.91172">
        <ele>1852</ele>
        <time>2015-06-30T06:05:19Z</time>
      </trkpt>
      <trkpt lat="42.40672" lon="8.91169">
        <ele>1852.4</ele>
        <time>2015-06-30T06:05:25Z</time>
      </trkpt>
      <trkpt lat="42.40672" lon="8.91167">
        <ele>1854</ele>
        <time>2015-06-30T06:05:33Z</time>
      </trkpt>
      <trkpt lat="42.40672" lon="8.91165">
        <ele>1854.8</ele>
        <time>2015-06-30T06:05:40Z</time>
      </trkpt>
      <trkpt lat="42.40673" lon="8.91165">
        <ele>1856</ele>
        <time>2015-06-30T06:05:48Z</time>
      </trkpt>
      <trkpt lat="42.40676" lon="8.91165">
        <ele>1857</ele>
        <time>2015-06-30T06:05:55Z</time>
      </trkpt>
      <trkpt lat="42.40677" lon="8.91161">
        <ele>1857.8</ele>
        <time>2015-06-30T06:06:03Z</time>
      </trkpt>
      <trkpt lat="42.4068" lon="8.91157">
        <ele>1859</ele>
        <time>2015-06-30T06:06:14Z</time>
      </trkpt>
      <trkpt lat="42.4068" lon="8.91156">
        <ele>1860.2</ele>
        <time>2015-06-30T06:06:21Z</time>
      </trkpt>
      <trkpt lat="42.40681" lon="8.91157">
        <ele>1861</ele>
        <time>2015-06-30T06:06:30Z</time>
      </trkpt>
      <trkpt lat="42.40683" lon="8.91157">
        <ele>1862</ele>
        <time>2015-06-30T06:06:41Z</time>
      </trkpt>
      <trkpt lat="42.40686" lon="8.91157">
        <ele>1863.2</ele>
        <time>2015-06-30T06:06:49Z</time>
      </trkpt>
      <trkpt lat="42.40687" lon="8.91158">
        <ele>1864</ele>
        <time>2015-06-30T06:06:56Z</time>
      </trkpt>
      <trkpt lat="42.40689" lon="8.9116">
        <ele>1865</ele>
        <time>2015-06-30T06:07:02Z</time>
      </trkpt>
      <trkpt lat="42.40694" lon="8.9116">
        <ele>1866</ele>
        <time>2015-06-30T06:07:11Z</time>
      </trkpt>
      <trkpt lat="42.40694" lon="8.91158">
        <ele>1867.2</ele>
        <time>2015-06-30T06:07:18Z</time>
      </trkpt>
      <trkpt lat="42.40694" lon="8.91154">
        <ele>1868</ele>
        <time>2015-06-30T06:07:25Z</time>
      </trkpt>
      <trkpt lat="42.40692" lon="8.91152">
        <ele>1869</ele>
        <time>2015-06-30T06:07:33Z</time>
      </trkpt>
      <trkpt lat="42.40695" lon="8.9115">
        <ele>1870.4</ele>
        <time>2015-06-30T06:07:41Z</time>
      </trkpt>
      <trkpt lat="42.40698" lon="8.91149">
        <ele>1871</ele>
        <time>2015-06-30T06:07:48Z</time>
      </trkpt>
      <trkpt lat="42.40699" lon="8.91147">
        <ele>1872</ele>
        <time>2015-06-30T06:07:55Z</time>
      </trkpt>
      <trkpt lat="42.40703" lon="8.91145">
        <ele>1873.2</ele>
        <time>2015-06-30T06:08:03Z</time>
      </trkpt>
      <trkpt lat="42.40703" lon="8.91144">
        <ele>1873.8</ele>
        <time>2015-06-30T06:08:10Z</time>
      </trkpt>
      <trkpt lat="42.40705" lon="8.91144">
        <ele>1874.8</ele>
        <time>2015-06-30T06:08:16Z</time>
      </trkpt>
      <trkpt lat="42.40705" lon="8.91144">
        <ele>1876</ele>
        <time>2015-06-30T06:08:24Z</time>
      </trkpt>
      <trkpt lat="42.40707" lon="8.91143">
        <ele>1876.6</ele>
        <time>2015-06-30T06:08:32Z</time>
      </trkpt>
      <trkpt lat="42.40707" lon="8.91141">
        <ele>1878</ele>
        <time>2015-06-30T06:08:41Z</time>
      </trkpt>
      <trkpt lat="42.40707" lon="8.9114">
        <ele>1879</ele>
        <time>2015-06-30T06:08:53Z</time>
      </trkpt>
      <trkpt lat="42.40709" lon="8.91137">
        <ele>1879.8</ele>
        <time>2015-06-30T06:09:03Z</time>
      </trkpt>
      <trkpt lat="42.40706" lon="8.91138">
        <ele>1880.2</ele>
        <time>2015-06-30T06:09:43Z</time>
      </trkpt>
      <trkpt lat="42.40707" lon="8.91137">
        <ele>1880.8</ele>
        <time>2015-06-30T06:09:50Z</time>
      </trkpt>
      <trkpt lat="42.40699" lon="8.91134">
        <ele>1881.8</ele>
        <time>2015-06-30T06:10:32Z</time>
      </trkpt>
      <trkpt lat="42.40699" lon="8.91131">
        <ele>1882</ele>
        <time>2015-06-30T06:10:37Z</time>
      </trkpt>
      <trkpt lat="42.40698" lon="8.91128">
        <ele>1883.2</ele>
        <time>2015-06-30T06:10:44Z</time>
      </trkpt>
      <trkpt lat="42.40699" lon="8.91126">
        <ele>1884</ele>
        <time>2015-06-30T06:10:51Z</time>
      </trkpt>
      <trkpt lat="42.40698" lon="8.91121">
        <ele>1885.2</ele>
        <time>2015-06-30T06:10:59Z</time>
      </trkpt>
      <trkpt lat="42.40698" lon="8.91118">
        <ele>1886.2</ele>
        <time>2015-06-30T06:11:07Z</time>
      </trkpt>
      <trkpt lat="42.40698" lon="8.91115">
        <ele>1886.8</ele>
        <time>2015-06-30T06:11:13Z</time>
      </trkpt>
      <trkpt lat="42.40697" lon="8.91115">
        <ele>1888.2</ele>
        <time>2015-06-30T06:11:23Z</time>
      </trkpt>
      <trkpt lat="42.40699" lon="8.91115">
        <ele>1889</ele>
        <time>2015-06-30T06:11:30Z</time>
      </trkpt>
      <trkpt lat="42.407" lon="8.91111">
        <ele>1890</ele>
        <time>2015-06-30T06:11:37Z</time>
      </trkpt>
      <trkpt lat="42.407" lon="8.91108">
        <ele>1891.2</ele>
        <time>2015-06-30T06:11:46Z</time>
      </trkpt>
      <trkpt lat="42.40699" lon="8.91106">
        <ele>1892.2</ele>
        <time>2015-06-30T06:11:55Z</time>
      </trkpt>
      <trkpt lat="42.40698" lon="8.91104">
        <ele>1892.8</ele>
        <time>2015-06-30T06:12:02Z</time>
      </trkpt>
      <trkpt lat="42.40692" lon="8.91095">
        <ele>1894.2</ele>
        <time>2015-06-30T06:12:21Z</time>
      </trkpt>
      <trkpt lat="42.40692" lon="8.91094">
        <ele>1894.8</ele>
        <time>2015-06-30T06:12:28Z</time>
      </trkpt>
      <trkpt lat="42.40692" lon="8.9109">
        <ele>1895.6</ele>
        <time>2015-06-30T06:12:35Z</time>
      </trkpt>
      <trkpt lat="42.4069" lon="8.91086">
        <ele>1896.6</ele>
        <time>2015-06-30T06:12:42Z</time>
      </trkpt>
      <trkpt lat="42.40691" lon="8.91085">
        <ele>1897.8</ele>
        <time>2015-06-30T06:12:52Z</time>
      </trkpt>
      <trkpt lat="42.40692" lon="8.91084">
        <ele>1898.6</ele>
        <time>2015-06-30T06:12:58Z</time>
      </trkpt>
      <trkpt lat="42.40693" lon="8.91083">
        <ele>1899.8</ele>
        <time>2015-06-30T06:13:06Z</time>
      </trkpt>
      <trkpt lat="42.40693" lon="8.91085">
        <ele>1901</ele>
        <time>2015-06-30T06:13:18Z</time>
      </trkpt>
      <trkpt lat="42.40694" lon="8.91085">
        <ele>1901.6</ele>
        <time>2015-06-30T06:13:28Z</time>
      </trkpt>
      <trkpt lat="42.40696" lon="8.91085">
        <ele>1903</ele>
        <time>2015-06-30T06:13:38Z</time>
      </trkpt>
      <trkpt lat="42.40697" lon="8.91085">
        <ele>1903.4</ele>
        <time>2015-06-30T06:13:45Z</time>
      </trkpt>
      <trkpt lat="42.40697" lon="8.91085">
        <ele>1904.6</ele>
        <time>2015-06-30T06:13:54Z</time>
      </trkpt>
      <trkpt lat="42.40698" lon="8.91084">
        <ele>1906</ele>
        <time>2015-06-30T06:14:01Z</time>
      </trkpt>
      <trkpt lat="42.40701" lon="8.91082">
        <ele>1907</ele>
        <time>2015-06-30T06:14:12Z</time>
      </trkpt>
      <trkpt lat="42.40703" lon="8.91081">
        <ele>1907.6</ele>
        <time>2015-06-30T06:14:18Z</time>
      </trkpt>
      <trkpt lat="42.40705" lon="8.91082">
        <ele>1908.8</ele>
        <time>2015-06-30T06:14:26Z</time>
      </trkpt>
      <trkpt lat="42.40708" lon="8.91083">
        <ele>1909.8</ele>
        <time>2015-06-30T06:14:33Z</time>
      </trkpt>
      <trkpt lat="42.4071" lon="8.91081">
        <ele>1911</ele>
        <time>2015-06-30T06:14:43Z</time>
      </trkpt>
      <trkpt lat="42.40711" lon="8.91083">
        <ele>1911.8</ele>
        <time>2015-06-30T06:14:53Z</time>
      </trkpt>
      <trkpt lat="42.40713" lon="8.91083">
        <ele>1912.4</ele>
        <time>2015-06-30T06:15:00Z</time>
      </trkpt>
      <trkpt lat="42.40714" lon="8.91081">
        <ele>1913.8</ele>
        <time>2015-06-30T06:15:09Z</time>
      </trkpt>
      <trkpt lat="42.40717" lon="8.91082">
        <ele>1914.6</ele>
        <time>2015-06-30T06:15:17Z</time>
      </trkpt>
      <trkpt lat="42.40718" lon="8.91082">
        <ele>1916</ele>
        <time>2015-06-30T06:15:26Z</time>
      </trkpt>
      <trkpt lat="42.4072" lon="8.91082">
        <ele>1916.4</ele>
        <time>2015-06-30T06:15:33Z</time>
      </trkpt>
      <trkpt lat="42.40721" lon="8.91082">
        <ele>1917.8</ele>
        <time>2015-06-30T06:15:42Z</time>
      </trkpt>
      <trkpt lat="42.40723" lon="8.9108">
        <ele>1918.4</ele>
        <time>2015-06-30T06:15:49Z</time>
      </trkpt>
      <trkpt lat="42.40724" lon="8.9108">
        <ele>1919.6</ele>
        <time>2015-06-30T06:15:56Z</time>
      </trkpt>
      <trkpt lat="42.40727" lon="8.91081">
        <ele>1920.4</ele>
        <time>2015-06-30T06:16:03Z</time>
      </trkpt>
      <trkpt lat="42.4073" lon="8.9108">
        <ele>1922.2</ele>
        <time>2015-06-30T06:16:20Z</time>
      </trkpt>
      <trkpt lat="42.40733" lon="8.91077">
        <ele>1923</ele>
        <time>2015-06-30T06:16:30Z</time>
      </trkpt>
      <trkpt lat="42.40736" lon="8.91079">
        <ele>1923.6</ele>
        <time>2015-06-30T06:16:37Z</time>
      </trkpt>
      <trkpt lat="42.40737" lon="8.91078">
        <ele>1924.6</ele>
        <time>2015-06-30T06:16:43Z</time>
      </trkpt>
      <trkpt lat="42.4074" lon="8.91081">
        <ele>1926</ele>
        <time>2015-06-30T06:16:55Z</time>
      </trkpt>
      <trkpt lat="42.40742" lon="8.91079">
        <ele>1926.8</ele>
        <time>2015-06-30T06:17:03Z</time>
      </trkpt>
      <trkpt lat="42.40743" lon="8.91077">
        <ele>1928.2</ele>
        <time>2015-06-30T06:17:17Z</time>
      </trkpt>
      <trkpt lat="42.40743" lon="8.91073">
        <ele>1928.8</ele>
        <time>2015-06-30T06:17:24Z</time>
      </trkpt>
      <trkpt lat="42.40745" lon="8.91072">
        <ele>1930</ele>
        <time>2015-06-30T06:17:36Z</time>
      </trkpt>
      <trkpt lat="42.40746" lon="8.91071">
        <ele>1931</ele>
        <time>2015-06-30T06:17:44Z</time>
      </trkpt>
      <trkpt lat="42.40747" lon="8.91071">
        <ele>1932</ele>
        <time>2015-06-30T06:17:50Z</time>
      </trkpt>
      <trkpt lat="42.40748" lon="8.9107">
        <ele>1933</ele>
        <time>2015-06-30T06:17:56Z</time>
      </trkpt>
      <trkpt lat="42.40749" lon="8.91069">
        <ele>1934</ele>
        <time>2015-06-30T06:18:04Z</time>
      </trkpt>
      <trkpt lat="42.40751" lon="8.91067">
        <ele>1935.2</ele>
        <time>2015-06-30T06:18:13Z</time>
      </trkpt>
      <trkpt lat="42.40754" lon="8.91068">
        <ele>1936.2</ele>
        <time>2015-06-30T06:18:21Z</time>
      </trkpt>
      <trkpt lat="42.40758" lon="8.91065">
        <ele>1937.2</ele>
        <time>2015-06-30T06:18:29Z</time>
      </trkpt>
      <trkpt lat="42.40763" lon="8.91062">
        <ele>1938.2</ele>
        <time>2015-06-30T06:18:47Z</time>
      </trkpt>
      <trkpt lat="42.40764" lon="8.91062">
        <ele>1939.2</ele>
        <time>2015-06-30T06:18:54Z</time>
      </trkpt>
      <trkpt lat="42.40765" lon="8.9106">
        <ele>1940</ele>
        <time>2015-06-30T06:19:00Z</time>
      </trkpt>
      <trkpt lat="42.40766" lon="8.91058">
        <ele>1941.4</ele>
        <time>2015-06-30T06:19:07Z</time>
      </trkpt>
      <trkpt lat="42.40766" lon="8.91054">
        <ele>1942</ele>
        <time>2015-06-30T06:19:11Z</time>
      </trkpt>
      <trkpt lat="42.40766" lon="8.91052">
        <ele>1942.4</ele>
        <time>2015-06-30T06:19:14Z</time>
      </trkpt>
      <trkpt lat="42.40767" lon="8.91051">
        <ele>1943.2</ele>
        <time>2015-06-30T06:19:19Z</time>
      </trkpt>
      <trkpt lat="42.40768" lon="8.9105">
        <ele>1944</ele>
        <time>2015-06-30T06:19:24Z</time>
      </trkpt>
      <trkpt lat="42.40769" lon="8.91047">
        <ele>1945.4</ele>
        <time>2015-06-30T06:19:31Z</time>
      </trkpt>
      <trkpt lat="42.4077" lon="8.91049">
        <ele>1946.2</ele>
        <time>2015-06-30T06:19:37Z</time>
      </trkpt>
      <trkpt lat="42.40772" lon="8.9105">
        <ele>1947.8</ele>
        <time>2015-06-30T06:19:53Z</time>
      </trkpt>
      <trkpt lat="42.4077" lon="8.91047">
        <ele>1947.8</ele>
        <time>2015-06-30T06:21:13Z</time>
      </trkpt>
      <trkpt lat="42.40772" lon="8.91047">
        <ele>1948</ele>
        <time>2015-06-30T06:22:06Z</time>
      </trkpt>
      <trkpt lat="42.40774" lon="8.91046">
        <ele>1948.4</ele>
        <time>2015-06-30T06:22:51Z</time>
      </trkpt>
      <trkpt lat="42.40769" lon="8.91046">
        <ele>1948.4</ele>
        <time>2015-06-30T06:23:50Z</time>
      </trkpt>
      <trkpt lat="42.40769" lon="8.91046">
        <ele>1948.2</ele>
        <time>2015-06-30T06:24:58Z</time>
      </trkpt>
      <trkpt lat="42.40767" lon="8.91047">
        <ele>1948.4</ele>
        <time>2015-06-30T06:26:06Z</time>
      </trkpt>
      <trkpt lat="42.40766" lon="8.91048">
        <ele>1948.6</ele>
        <time>2015-06-30T06:26:35Z</time>
      </trkpt>
      <trkpt lat="42.40766" lon="8.91047">
        <ele>1948.4</ele>
        <time>2015-06-30T06:27:50Z</time>
      </trkpt>
      <trkpt lat="42.40769" lon="8.91043">
        <ele>1948.2</ele>
        <time>2015-06-30T06:28:00Z</time>
      </trkpt>
      <trkpt lat="42.40773" lon="8.91039">
        <ele>1947</ele>
        <time>2015-06-30T06:28:09Z</time>
      </trkpt>
      <trkpt lat="42.40776" lon="8.91036">
        <ele>1945.6</ele>
        <time>2015-06-30T06:28:19Z</time>
      </trkpt>
      <trkpt lat="42.40778" lon="8.91033">
        <ele>1945</ele>
        <time>2015-06-30T06:28:26Z</time>
      </trkpt>
      <trkpt lat="42.40776" lon="8.91032">
        <ele>1944.4</ele>
        <time>2015-06-30T06:28:29Z</time>
      </trkpt>
      <trkpt lat="42.40777" lon="8.91031">
        <ele>1943.6</ele>
        <time>2015-06-30T06:28:33Z</time>
      </trkpt>
      <trkpt lat="42.4078" lon="8.91028">
        <ele>1941.6</ele>
        <time>2015-06-30T06:28:39Z</time>
      </trkpt>
      <trkpt lat="42.40782" lon="8.91026">
        <ele>1940.2</ele>
        <time>2015-06-30T06:28:45Z</time>
      </trkpt>
      <trkpt lat="42.40782" lon="8.91022">
        <ele>1939.6</ele>
        <time>2015-06-30T06:28:49Z</time>
      </trkpt>
      <trkpt lat="42.40784" lon="8.9102">
        <ele>1938.4</ele>
        <time>2015-06-30T06:28:53Z</time>
      </trkpt>
      <trkpt lat="42.40786" lon="8.91017">
        <ele>1936.8</ele>
        <time>2015-06-30T06:28:58Z</time>
      </trkpt>
      <trkpt lat="42.40787" lon="8.91012">
        <ele>1935.4</ele>
        <time>2015-06-30T06:29:03Z</time>
      </trkpt>
      <trkpt lat="42.40791" lon="8.9101">
        <ele>1934.4</ele>
        <time>2015-06-30T06:29:07Z</time>
      </trkpt>
      <trkpt lat="42.40794" lon="8.91007">
        <ele>1932.8</ele>
        <time>2015-06-30T06:29:12Z</time>
      </trkpt>
      <trkpt lat="42.40799" lon="8.91005">
        <ele>1931.2</ele>
        <time>2015-06-30T06:29:18Z</time>
      </trkpt>
      <trkpt lat="42.40805" lon="8.90999">
        <ele>1929.8</ele>
        <time>2015-06-30T06:29:27Z</time>
      </trkpt>
      <trkpt lat="42.40809" lon="8.90994">
        <ele>1928.8</ele>
        <time>2015-06-30T06:29:34Z</time>
      </trkpt>
      <trkpt lat="42.40812" lon="8.9099">
        <ele>1927.6</ele>
        <time>2015-06-30T06:29:39Z</time>
      </trkpt>
      <trkpt lat="42.40814" lon="8.90988">
        <ele>1925.8</ele>
        <time>2015-06-30T06:29:50Z</time>
      </trkpt>
      <trkpt lat="42.40815" lon="8.9098">
        <ele>1924.2</ele>
        <time>2015-06-30T06:30:02Z</time>
      </trkpt>
      <trkpt lat="42.40818" lon="8.90976">
        <ele>1923.4</ele>
        <time>2015-06-30T06:30:09Z</time>
      </trkpt>
      <trkpt lat="42.40818" lon="8.90973">
        <ele>1922</ele>
        <time>2015-06-30T06:30:17Z</time>
      </trkpt>
      <trkpt lat="42.40819" lon="8.9097">
        <ele>1920.6</ele>
        <time>2015-06-30T06:30:28Z</time>
      </trkpt>
      <trkpt lat="42.40821" lon="8.9097">
        <ele>1920.2</ele>
        <time>2015-06-30T06:30:32Z</time>
      </trkpt>
      <trkpt lat="42.40823" lon="8.90967">
        <ele>1918</ele>
        <time>2015-06-30T06:30:45Z</time>
      </trkpt>
      <trkpt lat="42.40822" lon="8.90965">
        <ele>1917</ele>
        <time>2015-06-30T06:30:53Z</time>
      </trkpt>
      <trkpt lat="42.40821" lon="8.9096">
        <ele>1915.8</ele>
        <time>2015-06-30T06:31:01Z</time>
      </trkpt>
      <trkpt lat="42.40821" lon="8.90957">
        <ele>1914.2</ele>
        <time>2015-06-30T06:31:10Z</time>
      </trkpt>
      <trkpt lat="42.40823" lon="8.90955">
        <ele>1913.4</ele>
        <time>2015-06-30T06:31:15Z</time>
      </trkpt>
      <trkpt lat="42.40826" lon="8.90949">
        <ele>1912</ele>
        <time>2015-06-30T06:31:23Z</time>
      </trkpt>
      <trkpt lat="42.40828" lon="8.90946">
        <ele>1911.2</ele>
        <time>2015-06-30T06:31:28Z</time>
      </trkpt>
      <trkpt lat="42.40835" lon="8.90943">
        <ele>1909</ele>
        <time>2015-06-30T06:31:41Z</time>
      </trkpt>
      <trkpt lat="42.40838" lon="8.90942">
        <ele>1908.6</ele>
        <time>2015-06-30T06:31:47Z</time>
      </trkpt>
      <trkpt lat="42.4084" lon="8.90937">
        <ele>1907.2</ele>
        <time>2015-06-30T06:32:04Z</time>
      </trkpt>
      <trkpt lat="42.40843" lon="8.90934">
        <ele>1906.8</ele>
        <time>2015-06-30T06:32:09Z</time>
      </trkpt>
      <trkpt lat="42.40846" lon="8.9093">
        <ele>1905</ele>
        <time>2015-06-30T06:32:17Z</time>
      </trkpt>
      <trkpt lat="42.40848" lon="8.90926">
        <ele>1903.2</ele>
        <time>2015-06-30T06:32:30Z</time>
      </trkpt>
      <trkpt lat="42.40852" lon="8.9092">
        <ele>1902.4</ele>
        <time>2015-06-30T06:32:37Z</time>
      </trkpt>
      <trkpt lat="42.40853" lon="8.90915">
        <ele>1900.6</ele>
        <time>2015-06-30T06:32:45Z</time>
      </trkpt>
      <trkpt lat="42.40857" lon="8.9091">
        <ele>1899.8</ele>
        <time>2015-06-30T06:32:51Z</time>
      </trkpt>
      <trkpt lat="42.4086" lon="8.90904">
        <ele>1898.6</ele>
        <time>2015-06-30T06:32:57Z</time>
      </trkpt>
      <trkpt lat="42.40866" lon="8.9089">
        <ele>1895.8</ele>
        <time>2015-06-30T06:33:49Z</time>
      </trkpt>
      <trkpt lat="42.40869" lon="8.90884">
        <ele>1894.8</ele>
        <time>2015-06-30T06:33:56Z</time>
      </trkpt>
      <trkpt lat="42.40883" lon="8.90875">
        <ele>1892.8</ele>
        <time>2015-06-30T06:34:16Z</time>
      </trkpt>
      <trkpt lat="42.40886" lon="8.90872">
        <ele>1892.8</ele>
        <time>2015-06-30T06:34:21Z</time>
      </trkpt>
      <trkpt lat="42.40894" lon="8.90864">
        <ele>1891.8</ele>
        <time>2015-06-30T06:34:31Z</time>
      </trkpt>
      <trkpt lat="42.40899" lon="8.90857">
        <ele>1890.4</ele>
        <time>2015-06-30T06:34:40Z</time>
      </trkpt>
      <trkpt lat="42.40903" lon="8.90854">
        <ele>1888.8</ele>
        <time>2015-06-30T06:34:52Z</time>
      </trkpt>
      <trkpt lat="42.40904" lon="8.90853">
        <ele>1887.4</ele>
        <time>2015-06-30T06:35:05Z</time>
      </trkpt>
      <trkpt lat="42.40906" lon="8.9085">
        <ele>1885.8</ele>
        <time>2015-06-30T06:35:18Z</time>
      </trkpt>
      <trkpt lat="42.40907" lon="8.90846">
        <ele>1883.8</ele>
        <time>2015-06-30T06:35:51Z</time>
      </trkpt>
      <trkpt lat="42.40909" lon="8.90838">
        <ele>1881.8</ele>
        <time>2015-06-30T06:36:42Z</time>
      </trkpt>
      <trkpt lat="42.40917" lon="8.9084">
        <ele>1881</ele>
        <time>2015-06-30T06:37:00Z</time>
      </trkpt>
      <trkpt lat="42.40918" lon="8.9084">
        <ele>1882</ele>
        <time>2015-06-30T06:37:06Z</time>
      </trkpt>
      <trkpt lat="42.40915" lon="8.90847">
        <ele>1883</ele>
        <time>2015-06-30T06:37:30Z</time>
      </trkpt>
      <trkpt lat="42.40917" lon="8.90849">
        <ele>1883.6</ele>
        <time>2015-06-30T06:37:39Z</time>
      </trkpt>
      <trkpt lat="42.40917" lon="8.9085">
        <ele>1884.4</ele>
        <time>2015-06-30T06:37:49Z</time>
      </trkpt>
      <trkpt lat="42.40919" lon="8.90851">
        <ele>1885.4</ele>
        <time>2015-06-30T06:37:58Z</time>
      </trkpt>
      <trkpt lat="42.40919" lon="8.90852">
        <ele>1885.4</ele>
        <time>2015-06-30T06:38:00Z</time>
      </trkpt>
      <trkpt lat="42.4092" lon="8.90853">
        <ele>1886</ele>
        <time>2015-06-30T06:38:06Z</time>
      </trkpt>
      <trkpt lat="42.40922" lon="8.90855">
        <ele>1887.4</ele>
        <time>2015-06-30T06:38:13Z</time>
      </trkpt>
      <trkpt lat="42.40922" lon="8.90855">
        <ele>1888.6</ele>
        <time>2015-06-30T06:38:24Z</time>
      </trkpt>
      <trkpt lat="42.40924" lon="8.90856">
        <ele>1889.6</ele>
        <time>2015-06-30T06:38:36Z</time>
      </trkpt>
      <trkpt lat="42.40925" lon="8.90856">
        <ele>1890.4</ele>
        <time>2015-06-30T06:38:46Z</time>
      </trkpt>
      <trkpt lat="42.40925" lon="8.90856">
        <ele>1891</ele>
        <time>2015-06-30T06:38:59Z</time>
      </trkpt>
      <trkpt lat="42.40927" lon="8.90855">
        <ele>1892</ele>
        <time>2015-06-30T06:39:11Z</time>
      </trkpt>
      <trkpt lat="42.40929" lon="8.90857">
        <ele>1893.2</ele>
        <time>2015-06-30T06:39:26Z</time>
      </trkpt>
      <trkpt lat="42.4093" lon="8.90858">
        <ele>1893.6</ele>
        <time>2015-06-30T06:39:33Z</time>
      </trkpt>
      <trkpt lat="42.40934" lon="8.9085">
        <ele>1893.2</ele>
        <time>2015-06-30T06:40:13Z</time>
      </trkpt>
      <trkpt lat="42.40937" lon="8.90845">
        <ele>1891.2</ele>
        <time>2015-06-30T06:41:05Z</time>
      </trkpt>
      <trkpt lat="42.40964" lon="8.90835">
        <ele>1890</ele>
        <time>2015-06-30T06:42:34Z</time>
      </trkpt>
      <trkpt lat="42.40963" lon="8.9083">
        <ele>1889.8</ele>
        <time>2015-06-30T06:42:54Z</time>
      </trkpt>
      <trkpt lat="42.40965" lon="8.90827">
        <ele>1889.2</ele>
        <time>2015-06-30T06:43:02Z</time>
      </trkpt>
      <trkpt lat="42.40964" lon="8.90818">
        <ele>1887.6</ele>
        <time>2015-06-30T06:43:23Z</time>
      </trkpt>
      <trkpt lat="42.40969" lon="8.90813">
        <ele>1885.8</ele>
        <time>2015-06-30T06:43:51Z</time>
      </trkpt>
      <trkpt lat="42.40975" lon="8.90813">
        <ele>1885.4</ele>
        <time>2015-06-30T06:44:04Z</time>
      </trkpt>
      <trkpt lat="42.40978" lon="8.90812">
        <ele>1885.8</ele>
        <time>2015-06-30T06:44:10Z</time>
      </trkpt>
      <trkpt lat="42.40985" lon="8.90799">
        <ele>1886.6</ele>
        <time>2015-06-30T06:44:45Z</time>
      </trkpt>
      <trkpt lat="42.40986" lon="8.90799">
        <ele>1887.6</ele>
        <time>2015-06-30T06:44:51Z</time>
      </trkpt>
      <trkpt lat="42.40988" lon="8.908">
        <ele>1889</ele>
        <time>2015-06-30T06:45:00Z</time>
      </trkpt>
      <trkpt lat="42.40989" lon="8.90799">
        <ele>1889.6</ele>
        <time>2015-06-30T06:45:05Z</time>
      </trkpt>
      <trkpt lat="42.40989" lon="8.90798">
        <ele>1889.8</ele>
        <time>2015-06-30T06:45:06Z</time>
      </trkpt>
      <trkpt lat="42.4099" lon="8.90796">
        <ele>1891</ele>
        <time>2015-06-30T06:45:13Z</time>
      </trkpt>
      <trkpt lat="42.40992" lon="8.90794">
        <ele>1892</ele>
        <time>2015-06-30T06:45:20Z</time>
      </trkpt>
      <trkpt lat="42.40994" lon="8.90794">
        <ele>1893.4</ele>
        <time>2015-06-30T06:45:30Z</time>
      </trkpt>
      <trkpt lat="42.40995" lon="8.90797">
        <ele>1894</ele>
        <time>2015-06-30T06:45:38Z</time>
      </trkpt>
      <trkpt lat="42.40998" lon="8.90798">
        <ele>1894.6</ele>
        <time>2015-06-30T06:45:45Z</time>
      </trkpt>
      <trkpt lat="42.40999" lon="8.90799">
        <ele>1895.6</ele>
        <time>2015-06-30T06:45:51Z</time>
      </trkpt>
      <trkpt lat="42.41" lon="8.90799">
        <ele>1897.4</ele>
        <time>2015-06-30T06:46:00Z</time>
      </trkpt>
      <trkpt lat="42.41001" lon="8.90798">
        <ele>1898</ele>
        <time>2015-06-30T06:46:08Z</time>
      </trkpt>
      <trkpt lat="42.41003" lon="8.90798">
        <ele>1899</ele>
        <time>2015-06-30T06:46:19Z</time>
      </trkpt>
      <trkpt lat="42.41005" lon="8.90798">
        <ele>1900.2</ele>
        <time>2015-06-30T06:46:28Z</time>
      </trkpt>
      <trkpt lat="42.41007" lon="8.90798">
        <ele>1901</ele>
        <time>2015-06-30T06:46:36Z</time>
      </trkpt>
      <trkpt lat="42.41008" lon="8.90796">
        <ele>1901.6</ele>
        <time>2015-06-30T06:46:41Z</time>
      </trkpt>
      <trkpt lat="42.41009" lon="8.90795">
        <ele>1902.4</ele>
        <time>2015-06-30T06:46:46Z</time>
      </trkpt>
      <trkpt lat="42.4101" lon="8.90794">
        <ele>1904.2</ele>
        <time>2015-06-30T06:46:54Z</time>
      </trkpt>
      <trkpt lat="42.41011" lon="8.90787">
        <ele>1905.4</ele>
        <time>2015-06-30T06:47:09Z</time>
      </trkpt>
      <trkpt lat="42.41012" lon="8.90787">
        <ele>1905.8</ele>
        <time>2015-06-30T06:47:14Z</time>
      </trkpt>
      <trkpt lat="42.41014" lon="8.90788">
        <ele>1907.2</ele>
        <time>2015-06-30T06:47:24Z</time>
      </trkpt>
      <trkpt lat="42.41015" lon="8.90788">
        <ele>1908.4</ele>
        <time>2015-06-30T06:47:33Z</time>
      </trkpt>
      <trkpt lat="42.41018" lon="8.90789">
        <ele>1909.4</ele>
        <time>2015-06-30T06:47:48Z</time>
      </trkpt>
      <trkpt lat="42.41019" lon="8.90785">
        <ele>1910.4</ele>
        <time>2015-06-30T06:47:57Z</time>
      </trkpt>
      <trkpt lat="42.4102" lon="8.90784">
        <ele>1911.2</ele>
        <time>2015-06-30T06:48:04Z</time>
      </trkpt>
      <trkpt lat="42.4102" lon="8.90783">
        <ele>1912.8</ele>
        <time>2015-06-30T06:48:25Z</time>
      </trkpt>
      <trkpt lat="42.41021" lon="8.90779">
        <ele>1913.6</ele>
        <time>2015-06-30T06:48:37Z</time>
      </trkpt>
      <trkpt lat="42.41029" lon="8.90775">
        <ele>1915</ele>
        <time>2015-06-30T06:49:00Z</time>
      </trkpt>
      <trkpt lat="42.41029" lon="8.90776">
        <ele>1915.6</ele>
        <time>2015-06-30T06:49:08Z</time>
      </trkpt>
      <trkpt lat="42.41031" lon="8.90777">
        <ele>1916.6</ele>
        <time>2015-06-30T06:49:14Z</time>
      </trkpt>
      <trkpt lat="42.4104" lon="8.90769">
        <ele>1918.4</ele>
        <time>2015-06-30T06:49:31Z</time>
      </trkpt>
      <trkpt lat="42.41043" lon="8.90769">
        <ele>1918.8</ele>
        <time>2015-06-30T06:49:38Z</time>
      </trkpt>
      <trkpt lat="42.41044" lon="8.90768">
        <ele>1919.8</ele>
        <time>2015-06-30T06:49:43Z</time>
      </trkpt>
      <trkpt lat="42.41046" lon="8.90768">
        <ele>1921.4</ele>
        <time>2015-06-30T06:49:52Z</time>
      </trkpt>
      <trkpt lat="42.41049" lon="8.90767">
        <ele>1922.6</ele>
        <time>2015-06-30T06:50:02Z</time>
      </trkpt>
      <trkpt lat="42.41052" lon="8.90768">
        <ele>1923.6</ele>
        <time>2015-06-30T06:50:10Z</time>
      </trkpt>
      <trkpt lat="42.41054" lon="8.9077">
        <ele>1924.8</ele>
        <time>2015-06-30T06:50:20Z</time>
      </trkpt>
      <trkpt lat="42.41057" lon="8.9077">
        <ele>1925.2</ele>
        <time>2015-06-30T06:50:26Z</time>
      </trkpt>
      <trkpt lat="42.4106" lon="8.9077">
        <ele>1926.2</ele>
        <time>2015-06-30T06:50:32Z</time>
      </trkpt>
      <trkpt lat="42.41061" lon="8.90771">
        <ele>1927.6</ele>
        <time>2015-06-30T06:50:39Z</time>
      </trkpt>
      <trkpt lat="42.41058" lon="8.90774">
        <ele>1928.8</ele>
        <time>2015-06-30T06:50:49Z</time>
      </trkpt>
      <trkpt lat="42.41048" lon="8.90785">
        <ele>1929.8</ele>
        <time>2015-06-30T06:51:09Z</time>
      </trkpt>
      <trkpt lat="42.41046" lon="8.90793">
        <ele>1930.6</ele>
        <time>2015-06-30T06:51:19Z</time>
      </trkpt>
      <trkpt lat="42.41044" lon="8.90795">
        <ele>1931.6</ele>
        <time>2015-06-30T06:51:28Z</time>
      </trkpt>
      <trkpt lat="42.41046" lon="8.90798">
        <ele>1933</ele>
        <time>2015-06-30T06:51:39Z</time>
      </trkpt>
      <trkpt lat="42.41046" lon="8.908">
        <ele>1934</ele>
        <time>2015-06-30T06:51:49Z</time>
      </trkpt>
      <trkpt lat="42.41044" lon="8.90802">
        <ele>1934.6</ele>
        <time>2015-06-30T06:51:56Z</time>
      </trkpt>
      <trkpt lat="42.41043" lon="8.90805">
        <ele>1935.4</ele>
        <time>2015-06-30T06:52:02Z</time>
      </trkpt>
      <trkpt lat="42.41043" lon="8.90808">
        <ele>1937</ele>
        <time>2015-06-30T06:52:19Z</time>
      </trkpt>
      <trkpt lat="42.41041" lon="8.90807">
        <ele>1938</ele>
        <time>2015-06-30T06:52:54Z</time>
      </trkpt>
      <trkpt lat="42.41041" lon="8.90808">
        <ele>1938.8</ele>
        <time>2015-06-30T06:53:04Z</time>
      </trkpt>
      <trkpt lat="42.41043" lon="8.90818">
        <ele>1938.8</ele>
        <time>2015-06-30T06:54:16Z</time>
      </trkpt>
      <trkpt lat="42.4105" lon="8.90833">
        <ele>1938.2</ele>
        <time>2015-06-30T06:54:34Z</time>
      </trkpt>
      <trkpt lat="42.41052" lon="8.90837">
        <ele>1938.8</ele>
        <time>2015-06-30T06:55:26Z</time>
      </trkpt>
      <trkpt lat="42.41053" lon="8.90837">
        <ele>1937.4</ele>
        <time>2015-06-30T06:55:34Z</time>
      </trkpt>
      <trkpt lat="42.41054" lon="8.90835">
        <ele>1935.8</ele>
        <time>2015-06-30T06:55:54Z</time>
      </trkpt>
      <trkpt lat="42.41057" lon="8.90835">
        <ele>1934.2</ele>
        <time>2015-06-30T06:57:03Z</time>
      </trkpt>
      <trkpt lat="42.4106" lon="8.90836">
        <ele>1933.2</ele>
        <time>2015-06-30T06:57:21Z</time>
      </trkpt>
      <trkpt lat="42.41061" lon="8.90838">
        <ele>1932.6</ele>
        <time>2015-06-30T06:57:27Z</time>
      </trkpt>
      <trkpt lat="42.41063" lon="8.90838">
        <ele>1930.8</ele>
        <time>2015-06-30T06:57:40Z</time>
      </trkpt>
      <trkpt lat="42.41066" lon="8.90839">
        <ele>1929.4</ele>
        <time>2015-06-30T06:57:52Z</time>
      </trkpt>
      <trkpt lat="42.41067" lon="8.9084">
        <ele>1928.6</ele>
        <time>2015-06-30T06:58:01Z</time>
      </trkpt>
      <trkpt lat="42.41071" lon="8.90838">
        <ele>1926.2</ele>
        <time>2015-06-30T06:59:58Z</time>
      </trkpt>
      <trkpt lat="42.41073" lon="8.90837">
        <ele>1924.6</ele>
        <time>2015-06-30T07:00:12Z</time>
      </trkpt>
      <trkpt lat="42.41078" lon="8.90838">
        <ele>1923.6</ele>
        <time>2015-06-30T07:00:27Z</time>
      </trkpt>
      <trkpt lat="42.41081" lon="8.90839">
        <ele>1923</ele>
        <time>2015-06-30T07:00:34Z</time>
      </trkpt>
      <trkpt lat="42.41083" lon="8.90837">
        <ele>1921.8</ele>
        <time>2015-06-30T07:00:42Z</time>
      </trkpt>
      <trkpt lat="42.41084" lon="8.90838">
        <ele>1920</ele>
        <time>2015-06-30T07:00:54Z</time>
      </trkpt>
      <trkpt lat="42.41085" lon="8.90842">
        <ele>1919</ele>
        <time>2015-06-30T07:01:07Z</time>
      </trkpt>
      <trkpt lat="42.41088" lon="8.90844">
        <ele>1918.2</ele>
        <time>2015-06-30T07:01:14Z</time>
      </trkpt>
      <trkpt lat="42.41089" lon="8.90844">
        <ele>1916.4</ele>
        <time>2015-06-30T07:01:31Z</time>
      </trkpt>
      <trkpt lat="42.41091" lon="8.90845">
        <ele>1915.6</ele>
        <time>2015-06-30T07:01:38Z</time>
      </trkpt>
      <trkpt lat="42.41093" lon="8.90842">
        <ele>1913.8</ele>
        <time>2015-06-30T07:01:59Z</time>
      </trkpt>
      <trkpt lat="42.41096" lon="8.90842">
        <ele>1913</ele>
        <time>2015-06-30T07:02:08Z</time>
      </trkpt>
      <trkpt lat="42.41097" lon="8.90844">
        <ele>1911.6</ele>
        <time>2015-06-30T07:02:17Z</time>
      </trkpt>
      <trkpt lat="42.41098" lon="8.90848">
        <ele>1910.4</ele>
        <time>2015-06-30T07:02:27Z</time>
      </trkpt>
      <trkpt lat="42.411" lon="8.90848">
        <ele>1909</ele>
        <time>2015-06-30T07:02:41Z</time>
      </trkpt>
      <trkpt lat="42.41101" lon="8.90849">
        <ele>1907.8</ele>
        <time>2015-06-30T07:02:50Z</time>
      </trkpt>
      <trkpt lat="42.41102" lon="8.9085">
        <ele>1907</ele>
        <time>2015-06-30T07:02:56Z</time>
      </trkpt>
      <trkpt lat="42.41106" lon="8.90853">
        <ele>1905.8</ele>
        <time>2015-06-30T07:03:04Z</time>
      </trkpt>
      <trkpt lat="42.41109" lon="8.90853">
        <ele>1905</ele>
        <time>2015-06-30T07:03:09Z</time>
      </trkpt>
      <trkpt lat="42.41111" lon="8.90848">
        <ele>1903.6</ele>
        <time>2015-06-30T07:03:16Z</time>
      </trkpt>
      <trkpt lat="42.41115" lon="8.90848">
        <ele>1902.2</ele>
        <time>2015-06-30T07:03:24Z</time>
      </trkpt>
      <trkpt lat="42.41115" lon="8.90847">
        <ele>1901.2</ele>
        <time>2015-06-30T07:03:29Z</time>
      </trkpt>
      <trkpt lat="42.41115" lon="8.90845">
        <ele>1900</ele>
        <time>2015-06-30T07:03:35Z</time>
      </trkpt>
      <trkpt lat="42.41113" lon="8.9084">
        <ele>1898.4</ele>
        <time>2015-06-30T07:03:50Z</time>
      </trkpt>
      <trkpt lat="42.41115" lon="8.90837">
        <ele>1896.8</ele>
        <time>2015-06-30T07:04:10Z</time>
      </trkpt>
      <trkpt lat="42.41118" lon="8.90839">
        <ele>1895</ele>
        <time>2015-06-30T07:04:24Z</time>
      </trkpt>
      <trkpt lat="42.41121" lon="8.90841">
        <ele>1894.8</ele>
        <time>2015-06-30T07:04:31Z</time>
      </trkpt>
      <trkpt lat="42.41124" lon="8.9084">
        <ele>1893.4</ele>
        <time>2015-06-30T07:04:40Z</time>
      </trkpt>
      <trkpt lat="42.41128" lon="8.90839">
        <ele>1891.8</ele>
        <time>2015-06-30T07:04:55Z</time>
      </trkpt>
      <trkpt lat="42.4113" lon="8.90836">
        <ele>1891</ele>
        <time>2015-06-30T07:05:02Z</time>
      </trkpt>
      <trkpt lat="42.41132" lon="8.90836">
        <ele>1888.6</ele>
        <time>2015-06-30T07:05:20Z</time>
      </trkpt>
      <trkpt lat="42.41134" lon="8.90838">
        <ele>1888.2</ele>
        <time>2015-06-30T07:05:27Z</time>
      </trkpt>
      <trkpt lat="42.41134" lon="8.90836">
        <ele>1886.6</ele>
        <time>2015-06-30T07:05:38Z</time>
      </trkpt>
      <trkpt lat="42.41137" lon="8.90834">
        <ele>1886</ele>
        <time>2015-06-30T07:05:45Z</time>
      </trkpt>
      <trkpt lat="42.41141" lon="8.90833">
        <ele>1884.4</ele>
        <time>2015-06-30T07:05:53Z</time>
      </trkpt>
      <trkpt lat="42.41141" lon="8.90828">
        <ele>1883.2</ele>
        <time>2015-06-30T07:06:00Z</time>
      </trkpt>
      <trkpt lat="42.4114" lon="8.90825">
        <ele>1882</ele>
        <time>2015-06-30T07:06:08Z</time>
      </trkpt>
      <trkpt lat="42.41145" lon="8.90825">
        <ele>1880.2</ele>
        <time>2015-06-30T07:06:19Z</time>
      </trkpt>
      <trkpt lat="42.41146" lon="8.90825">
        <ele>1879.8</ele>
        <time>2015-06-30T07:06:24Z</time>
      </trkpt>
      <trkpt lat="42.41148" lon="8.90826">
        <ele>1878.2</ele>
        <time>2015-06-30T07:06:32Z</time>
      </trkpt>
      <trkpt lat="42.4115" lon="8.90824">
        <ele>1877</ele>
        <time>2015-06-30T07:06:40Z</time>
      </trkpt>
      <trkpt lat="42.41151" lon="8.90827">
        <ele>1875.4</ele>
        <time>2015-06-30T07:06:49Z</time>
      </trkpt>
      <trkpt lat="42.41153" lon="8.90826">
        <ele>1874</ele>
        <time>2015-06-30T07:07:02Z</time>
      </trkpt>
      <trkpt lat="42.41156" lon="8.90827">
        <ele>1873</ele>
        <time>2015-06-30T07:07:12Z</time>
      </trkpt>
      <trkpt lat="42.41159" lon="8.90829">
        <ele>1871.8</ele>
        <time>2015-06-30T07:07:21Z</time>
      </trkpt>
      <trkpt lat="42.41162" lon="8.90828">
        <ele>1870.6</ele>
        <time>2015-06-30T07:07:31Z</time>
      </trkpt>
      <trkpt lat="42.41163" lon="8.90826">
        <ele>1869.2</ele>
        <time>2015-06-30T07:07:39Z</time>
      </trkpt>
      <trkpt lat="42.41166" lon="8.90827">
        <ele>1868.4</ele>
        <time>2015-06-30T07:07:46Z</time>
      </trkpt>
      <trkpt lat="42.41167" lon="8.90826">
        <ele>1866.8</ele>
        <time>2015-06-30T07:07:54Z</time>
      </trkpt>
      <trkpt lat="42.41167" lon="8.90824">
        <ele>1865.6</ele>
        <time>2015-06-30T07:08:03Z</time>
      </trkpt>
      <trkpt lat="42.41173" lon="8.90825">
        <ele>1864.6</ele>
        <time>2015-06-30T07:08:23Z</time>
      </trkpt>
      <trkpt lat="42.41176" lon="8.90825">
        <ele>1862.8</ele>
        <time>2015-06-30T07:08:34Z</time>
      </trkpt>
      <trkpt lat="42.41177" lon="8.90825">
        <ele>1862.2</ele>
        <time>2015-06-30T07:08:39Z</time>
      </trkpt>
      <trkpt lat="42.41178" lon="8.90824">
        <ele>1859.8</ele>
        <time>2015-06-30T07:09:02Z</time>
      </trkpt>
      <trkpt lat="42.41181" lon="8.90822">
        <ele>1858.6</ele>
        <time>2015-06-30T07:09:14Z</time>
      </trkpt>
      <trkpt lat="42.41182" lon="8.9082">
        <ele>1858.2</ele>
        <time>2015-06-30T07:09:19Z</time>
      </trkpt>
      <trkpt lat="42.41187" lon="8.9082">
        <ele>1856</ele>
        <time>2015-06-30T07:09:37Z</time>
      </trkpt>
      <trkpt lat="42.41188" lon="8.90821">
        <ele>1854.8</ele>
        <time>2015-06-30T07:09:49Z</time>
      </trkpt>
      <trkpt lat="42.41191" lon="8.90821">
        <ele>1853.8</ele>
        <time>2015-06-30T07:09:59Z</time>
      </trkpt>
      <trkpt lat="42.41195" lon="8.90822">
        <ele>1852</ele>
        <time>2015-06-30T07:10:10Z</time>
      </trkpt>
      <trkpt lat="42.41196" lon="8.90822">
        <ele>1851.2</ele>
        <time>2015-06-30T07:10:18Z</time>
      </trkpt>
      <trkpt lat="42.41198" lon="8.90818">
        <ele>1850.2</ele>
        <time>2015-06-30T07:10:25Z</time>
      </trkpt>
      <trkpt lat="42.41199" lon="8.90813">
        <ele>1848.2</ele>
        <time>2015-06-30T07:10:36Z</time>
      </trkpt>
      <trkpt lat="42.41201" lon="8.90811">
        <ele>1847.4</ele>
        <time>2015-06-30T07:10:44Z</time>
      </trkpt>
      <trkpt lat="42.41207" lon="8.90807">
        <ele>1846</ele>
        <time>2015-06-30T07:10:57Z</time>
      </trkpt>
      <trkpt lat="42.41216" lon="8.90807">
        <ele>1843.8</ele>
        <time>2015-06-30T07:11:16Z</time>
      </trkpt>
      <trkpt lat="42.41218" lon="8.90808">
        <ele>1843.4</ele>
        <time>2015-06-30T07:11:23Z</time>
      </trkpt>
      <trkpt lat="42.41219" lon="8.90807">
        <ele>1841.8</ele>
        <time>2015-06-30T07:11:34Z</time>
      </trkpt>
      <trkpt lat="42.41222" lon="8.90806">
        <ele>1840.8</ele>
        <time>2015-06-30T07:11:42Z</time>
      </trkpt>
      <trkpt lat="42.41225" lon="8.90807">
        <ele>1839.4</ele>
        <time>2015-06-30T07:11:55Z</time>
      </trkpt>
      <trkpt lat="42.41226" lon="8.90805">
        <ele>1838</ele>
        <time>2015-06-30T07:12:06Z</time>
      </trkpt>
      <trkpt lat="42.41229" lon="8.90804">
        <ele>1836.6</ele>
        <time>2015-06-30T07:12:21Z</time>
      </trkpt>
      <trkpt lat="42.4123" lon="8.90801">
        <ele>1836</ele>
        <time>2015-06-30T07:12:29Z</time>
      </trkpt>
      <trkpt lat="42.41233" lon="8.90795">
        <ele>1834.4</ele>
        <time>2015-06-30T07:12:38Z</time>
      </trkpt>
      <trkpt lat="42.4123" lon="8.90791">
        <ele>1833.6</ele>
        <time>2015-06-30T07:12:44Z</time>
      </trkpt>
      <trkpt lat="42.41228" lon="8.90784">
        <ele>1832.6</ele>
        <time>2015-06-30T07:12:57Z</time>
      </trkpt>
      <trkpt lat="42.4123" lon="8.90784">
        <ele>1831.4</ele>
        <time>2015-06-30T07:13:06Z</time>
      </trkpt>
      <trkpt lat="42.4123" lon="8.90784">
        <ele>1831.2</ele>
        <time>2015-06-30T07:13:09Z</time>
      </trkpt>
      <trkpt lat="42.4123" lon="8.9078">
        <ele>1830</ele>
        <time>2015-06-30T07:13:22Z</time>
      </trkpt>
      <trkpt lat="42.4123" lon="8.90779">
        <ele>1829.2</ele>
        <time>2015-06-30T07:13:29Z</time>
      </trkpt>
      <trkpt lat="42.41232" lon="8.90774">
        <ele>1827.6</ele>
        <time>2015-06-30T07:13:38Z</time>
      </trkpt>
      <trkpt lat="42.41236" lon="8.90773">
        <ele>1827</ele>
        <time>2015-06-30T07:13:44Z</time>
      </trkpt>
      <trkpt lat="42.41244" lon="8.90778">
        <ele>1825</ele>
        <time>2015-06-30T07:13:55Z</time>
      </trkpt>
      <trkpt lat="42.41246" lon="8.9078">
        <ele>1825</ele>
        <time>2015-06-30T07:13:57Z</time>
      </trkpt>
      <trkpt lat="42.41247" lon="8.90779">
        <ele>1824.4</ele>
        <time>2015-06-30T07:14:04Z</time>
      </trkpt>
      <trkpt lat="42.41247" lon="8.90774">
        <ele>1823</ele>
        <time>2015-06-30T07:14:12Z</time>
      </trkpt>
      <trkpt lat="42.41251" lon="8.90772">
        <ele>1822</ele>
        <time>2015-06-30T07:14:20Z</time>
      </trkpt>
      <trkpt lat="42.41257" lon="8.90769">
        <ele>1820.8</ele>
        <time>2015-06-30T07:14:28Z</time>
      </trkpt>
      <trkpt lat="42.41262" lon="8.90768">
        <ele>1820.2</ele>
        <time>2015-06-30T07:14:33Z</time>
      </trkpt>
      <trkpt lat="42.41264" lon="8.9077">
        <ele>1819.8</ele>
        <time>2015-06-30T07:14:37Z</time>
      </trkpt>
      <trkpt lat="42.41262" lon="8.9078">
        <ele>1820</ele>
        <time>2015-06-30T07:14:52Z</time>
      </trkpt>
      <trkpt lat="42.41263" lon="8.90782">
        <ele>1821.4</ele>
        <time>2015-06-30T07:15:02Z</time>
      </trkpt>
      <trkpt lat="42.41263" lon="8.90784">
        <ele>1822</ele>
        <time>2015-06-30T07:15:10Z</time>
      </trkpt>
      <trkpt lat="42.41263" lon="8.90784">
        <ele>1823</ele>
        <time>2015-06-30T07:15:17Z</time>
      </trkpt>
      <trkpt lat="42.41263" lon="8.90783">
        <ele>1824</ele>
        <time>2015-06-30T07:15:23Z</time>
      </trkpt>
      <trkpt lat="42.41265" lon="8.90785">
        <ele>1825.2</ele>
        <time>2015-06-30T07:15:30Z</time>
      </trkpt>
      <trkpt lat="42.41276" lon="8.90786">
        <ele>1826</ele>
        <time>2015-06-30T07:15:45Z</time>
      </trkpt>
      <trkpt lat="42.41279" lon="8.90788">
        <ele>1825.4</ele>
        <time>2015-06-30T07:15:50Z</time>
      </trkpt>
      <trkpt lat="42.41298" lon="8.90786">
        <ele>1824</ele>
        <time>2015-06-30T07:16:10Z</time>
      </trkpt>
      <trkpt lat="42.413" lon="8.90787">
        <ele>1823.8</ele>
        <time>2015-06-30T07:16:12Z</time>
      </trkpt>
      <trkpt lat="42.41314" lon="8.90789">
        <ele>1824</ele>
        <time>2015-06-30T07:16:36Z</time>
      </trkpt>
      <trkpt lat="42.41312" lon="8.90793">
        <ele>1823.6</ele>
        <time>2015-06-30T07:18:51Z</time>
      </trkpt>
      <trkpt lat="42.41315" lon="8.90806">
        <ele>1823.2</ele>
        <time>2015-06-30T07:19:24Z</time>
      </trkpt>
      <trkpt lat="42.4132" lon="8.9081">
        <ele>1821.8</ele>
        <time>2015-06-30T07:19:33Z</time>
      </trkpt>
      <trkpt lat="42.41326" lon="8.90812">
        <ele>1820.6</ele>
        <time>2015-06-30T07:19:43Z</time>
      </trkpt>
      <trkpt lat="42.41331" lon="8.90817">
        <ele>1819.8</ele>
        <time>2015-06-30T07:20:02Z</time>
      </trkpt>
      <trkpt lat="42.41332" lon="8.90815">
        <ele>1819</ele>
        <time>2015-06-30T07:20:08Z</time>
      </trkpt>
      <trkpt lat="42.41335" lon="8.90814">
        <ele>1817.6</ele>
        <time>2015-06-30T07:20:15Z</time>
      </trkpt>
      <trkpt lat="42.41337" lon="8.90815">
        <ele>1816.6</ele>
        <time>2015-06-30T07:20:23Z</time>
      </trkpt>
      <trkpt lat="42.41339" lon="8.90814">
        <ele>1815.4</ele>
        <time>2015-06-30T07:20:31Z</time>
      </trkpt>
      <trkpt lat="42.4134" lon="8.90811">
        <ele>1814.4</ele>
        <time>2015-06-30T07:20:38Z</time>
      </trkpt>
      <trkpt lat="42.41341" lon="8.90808">
        <ele>1813.4</ele>
        <time>2015-06-30T07:20:44Z</time>
      </trkpt>
      <trkpt lat="42.41344" lon="8.90811">
        <ele>1812.4</ele>
        <time>2015-06-30T07:20:50Z</time>
      </trkpt>
      <trkpt lat="42.41347" lon="8.90806">
        <ele>1810.6</ele>
        <time>2015-06-30T07:21:05Z</time>
      </trkpt>
      <trkpt lat="42.41347" lon="8.90803">
        <ele>1810</ele>
        <time>2015-06-30T07:21:12Z</time>
      </trkpt>
      <trkpt lat="42.41349" lon="8.90802">
        <ele>1809</ele>
        <time>2015-06-30T07:21:18Z</time>
      </trkpt>
      <trkpt lat="42.41352" lon="8.908">
        <ele>1807.8</ele>
        <time>2015-06-30T07:21:25Z</time>
      </trkpt>
      <trkpt lat="42.41355" lon="8.90799">
        <ele>1806.2</ele>
        <time>2015-06-30T07:21:33Z</time>
      </trkpt>
      <trkpt lat="42.41356" lon="8.90796">
        <ele>1805.2</ele>
        <time>2015-06-30T07:21:43Z</time>
      </trkpt>
      <trkpt lat="42.41358" lon="8.908">
        <ele>1804.4</ele>
        <time>2015-06-30T07:21:49Z</time>
      </trkpt>
      <trkpt lat="42.41363" lon="8.90801">
        <ele>1803</ele>
        <time>2015-06-30T07:21:56Z</time>
      </trkpt>
      <trkpt lat="42.41365" lon="8.90799">
        <ele>1802</ele>
        <time>2015-06-30T07:22:04Z</time>
      </trkpt>
      <trkpt lat="42.41373" lon="8.90794">
        <ele>1800.8</ele>
        <time>2015-06-30T07:22:15Z</time>
      </trkpt>
      <trkpt lat="42.41379" lon="8.90778">
        <ele>1799.6</ele>
        <time>2015-06-30T07:22:29Z</time>
      </trkpt>
      <trkpt lat="42.41365" lon="8.90751">
        <ele>1798.4</ele>
        <time>2015-06-30T07:23:21Z</time>
      </trkpt>
      <trkpt lat="42.41364" lon="8.90748">
        <ele>1797.6</ele>
        <time>2015-06-30T07:23:32Z</time>
      </trkpt>
      <trkpt lat="42.41364" lon="8.90744">
        <ele>1796.6</ele>
        <time>2015-06-30T07:23:40Z</time>
      </trkpt>
      <trkpt lat="42.41364" lon="8.90738">
        <ele>1795.2</ele>
        <time>2015-06-30T07:23:48Z</time>
      </trkpt>
      <trkpt lat="42.41367" lon="8.90733">
        <ele>1794.2</ele>
        <time>2015-06-30T07:24:00Z</time>
      </trkpt>
      <trkpt lat="42.41368" lon="8.90727">
        <ele>1793.4</ele>
        <time>2015-06-30T07:24:07Z</time>
      </trkpt>
      <trkpt lat="42.41368" lon="8.90724">
        <ele>1792.2</ele>
        <time>2015-06-30T07:24:15Z</time>
      </trkpt>
      <trkpt lat="42.41367" lon="8.90725">
        <ele>1791.6</ele>
        <time>2015-06-30T07:24:20Z</time>
      </trkpt>
      <trkpt lat="42.41363" lon="8.90723">
        <ele>1789.2</ele>
        <time>2015-06-30T07:24:37Z</time>
      </trkpt>
      <trkpt lat="42.41365" lon="8.90719">
        <ele>1788.8</ele>
        <time>2015-06-30T07:24:45Z</time>
      </trkpt>
      <trkpt lat="42.4136" lon="8.90719">
        <ele>1787.4</ele>
        <time>2015-06-30T07:25:14Z</time>
      </trkpt>
      <trkpt lat="42.41356" lon="8.90719">
        <ele>1786.2</ele>
        <time>2015-06-30T07:25:23Z</time>
      </trkpt>
      <trkpt lat="42.41356" lon="8.90712">
        <ele>1785.2</ele>
        <time>2015-06-30T07:25:48Z</time>
      </trkpt>
      <trkpt lat="42.41357" lon="8.90709">
        <ele>1783.8</ele>
        <time>2015-06-30T07:25:57Z</time>
      </trkpt>
      <trkpt lat="42.41359" lon="8.90705">
        <ele>1782.6</ele>
        <time>2015-06-30T07:26:05Z</time>
      </trkpt>
      <trkpt lat="42.41363" lon="8.90702">
        <ele>1781.6</ele>
        <time>2015-06-30T07:26:14Z</time>
      </trkpt>
      <trkpt lat="42.41367" lon="8.90701">
        <ele>1780.8</ele>
        <time>2015-06-30T07:26:20Z</time>
      </trkpt>
      <trkpt lat="42.41371" lon="8.907">
        <ele>1779.6</ele>
        <time>2015-06-30T07:26:26Z</time>
      </trkpt>
      <trkpt lat="42.41382" lon="8.90703">
        <ele>1777.4</ele>
        <time>2015-06-30T07:26:40Z</time>
      </trkpt>
      <trkpt lat="42.41385" lon="8.90703">
        <ele>1776.8</ele>
        <time>2015-06-30T07:26:46Z</time>
      </trkpt>
      <trkpt lat="42.41388" lon="8.90703">
        <ele>1775.2</ele>
        <time>2015-06-30T07:26:56Z</time>
      </trkpt>
      <trkpt lat="42.41389" lon="8.90701">
        <ele>1774</ele>
        <time>2015-06-30T07:27:09Z</time>
      </trkpt>
      <trkpt lat="42.41388" lon="8.90697">
        <ele>1772.4</ele>
        <time>2015-06-30T07:27:27Z</time>
      </trkpt>
      <trkpt lat="42.41398" lon="8.907">
        <ele>1772</ele>
        <time>2015-06-30T07:27:44Z</time>
      </trkpt>
      <trkpt lat="42.41407" lon="8.90696">
        <ele>1770.2</ele>
        <time>2015-06-30T07:28:01Z</time>
      </trkpt>
      <trkpt lat="42.41407" lon="8.90691">
        <ele>1769.6</ele>
        <time>2015-06-30T07:28:07Z</time>
      </trkpt>
      <trkpt lat="42.41409" lon="8.90688">
        <ele>1768</ele>
        <time>2015-06-30T07:28:15Z</time>
      </trkpt>
      <trkpt lat="42.4141" lon="8.90685">
        <ele>1767.2</ele>
        <time>2015-06-30T07:28:22Z</time>
      </trkpt>
      <trkpt lat="42.41411" lon="8.90681">
        <ele>1765.8</ele>
        <time>2015-06-30T07:28:32Z</time>
      </trkpt>
      <trkpt lat="42.41414" lon="8.90671">
        <ele>1764.2</ele>
        <time>2015-06-30T07:28:46Z</time>
      </trkpt>
      <trkpt lat="42.41418" lon="8.90668">
        <ele>1763.6</ele>
        <time>2015-06-30T07:28:53Z</time>
      </trkpt>
      <trkpt lat="42.41418" lon="8.90664">
        <ele>1762.6</ele>
        <time>2015-06-30T07:29:00Z</time>
      </trkpt>
      <trkpt lat="42.41417" lon="8.90662">
        <ele>1762</ele>
        <time>2015-06-30T07:29:03Z</time>
      </trkpt>
      <trkpt lat="42.41417" lon="8.90659">
        <ele>1761.2</ele>
        <time>2015-06-30T07:29:07Z</time>
      </trkpt>
      <trkpt lat="42.41417" lon="8.90655">
        <ele>1760</ele>
        <time>2015-06-30T07:29:16Z</time>
      </trkpt>
      <trkpt lat="42.41419" lon="8.90657">
        <ele>1759.2</ele>
        <time>2015-06-30T07:29:22Z</time>
      </trkpt>
      <trkpt lat="42.41425" lon="8.9066">
        <ele>1757.6</ele>
        <time>2015-06-30T07:29:29Z</time>
      </trkpt>
      <trkpt lat="42.41425" lon="8.9066">
        <ele>1757.6</ele>
        <time>2015-06-30T07:29:30Z</time>
      </trkpt>
      <trkpt lat="42.41426" lon="8.90659">
        <ele>1757.2</ele>
        <time>2015-06-30T07:29:32Z</time>
      </trkpt>
      <trkpt lat="42.41429" lon="8.90657">
        <ele>1756.6</ele>
        <time>2015-06-30T07:29:38Z</time>
      </trkpt>
      <trkpt lat="42.41431" lon="8.9066">
        <ele>1755.2</ele>
        <time>2015-06-30T07:29:50Z</time>
      </trkpt>
      <trkpt lat="42.4143" lon="8.90657">
        <ele>1755</ele>
        <time>2015-06-30T07:29:54Z</time>
      </trkpt>
      <trkpt lat="42.41429" lon="8.90654">
        <ele>1754.2</ele>
        <time>2015-06-30T07:30:00Z</time>
      </trkpt>
      <trkpt lat="42.41429" lon="8.90653">
        <ele>1753.2</ele>
        <time>2015-06-30T07:30:05Z</time>
      </trkpt>
      <trkpt lat="42.41415" lon="8.90649">
        <ele>1751.8</ele>
        <time>2015-06-30T07:30:31Z</time>
      </trkpt>
      <trkpt lat="42.41402" lon="8.90642">
        <ele>1750.8</ele>
        <time>2015-06-30T07:30:36Z</time>
      </trkpt>
      <trkpt lat="42.414" lon="8.9065">
        <ele>1749.8</ele>
        <time>2015-06-30T07:30:58Z</time>
      </trkpt>
      <trkpt lat="42.41402" lon="8.90651">
        <ele>1749.6</ele>
        <time>2015-06-30T07:31:01Z</time>
      </trkpt>
      <trkpt lat="42.41403" lon="8.9065">
        <ele>1748.6</ele>
        <time>2015-06-30T07:31:08Z</time>
      </trkpt>
      <trkpt lat="42.41407" lon="8.90648">
        <ele>1747.6</ele>
        <time>2015-06-30T07:31:18Z</time>
      </trkpt>
      <trkpt lat="42.4141" lon="8.90652">
        <ele>1746.2</ele>
        <time>2015-06-30T07:31:27Z</time>
      </trkpt>
      <trkpt lat="42.41415" lon="8.90658">
        <ele>1745.4</ele>
        <time>2015-06-30T07:31:36Z</time>
      </trkpt>
      <trkpt lat="42.41435" lon="8.90667">
        <ele>1744.4</ele>
        <time>2015-06-30T07:31:50Z</time>
      </trkpt>
      <trkpt lat="42.41436" lon="8.90663">
        <ele>1744</ele>
        <time>2015-06-30T07:31:56Z</time>
      </trkpt>
      <trkpt lat="42.41438" lon="8.90658">
        <ele>1743</ele>
        <time>2015-06-30T07:32:01Z</time>
      </trkpt>
      <trkpt lat="42.41433" lon="8.90648">
        <ele>1741.8</ele>
        <time>2015-06-30T07:32:07Z</time>
      </trkpt>
      <trkpt lat="42.41432" lon="8.90648">
        <ele>1741.4</ele>
        <time>2015-06-30T07:32:09Z</time>
      </trkpt>
      <trkpt lat="42.41435" lon="8.90651">
        <ele>1741</ele>
        <time>2015-06-30T07:32:11Z</time>
      </trkpt>
      <trkpt lat="42.41436" lon="8.90653">
        <ele>1740.6</ele>
        <time>2015-06-30T07:32:14Z</time>
      </trkpt>
      <trkpt lat="42.41436" lon="8.90653">
        <ele>1740.4</ele>
        <time>2015-06-30T07:32:16Z</time>
      </trkpt>
      <trkpt lat="42.41442" lon="8.90656">
        <ele>1739</ele>
        <time>2015-06-30T07:32:24Z</time>
      </trkpt>
      <trkpt lat="42.41445" lon="8.90651">
        <ele>1738.2</ele>
        <time>2015-06-30T07:32:31Z</time>
      </trkpt>
      <trkpt lat="42.41443" lon="8.90636">
        <ele>1736.6</ele>
        <time>2015-06-30T07:32:38Z</time>
      </trkpt>
      <trkpt lat="42.41443" lon="8.90634">
        <ele>1735.8</ele>
        <time>2015-06-30T07:32:43Z</time>
      </trkpt>
      <trkpt lat="42.41448" lon="8.90636">
        <ele>1733.2</ele>
        <time>2015-06-30T07:33:04Z</time>
      </trkpt>
      <trkpt lat="42.41447" lon="8.90633">
        <ele>1733.2</ele>
        <time>2015-06-30T07:33:08Z</time>
      </trkpt>
      <trkpt lat="42.41447" lon="8.90634">
        <ele>1732</ele>
        <time>2015-06-30T07:33:14Z</time>
      </trkpt>
      <trkpt lat="42.41448" lon="8.90634">
        <ele>1731.4</ele>
        <time>2015-06-30T07:33:17Z</time>
      </trkpt>
      <trkpt lat="42.41445" lon="8.90627">
        <ele>1730.4</ele>
        <time>2015-06-30T07:33:23Z</time>
      </trkpt>
      <trkpt lat="42.41443" lon="8.90623">
        <ele>1730.4</ele>
        <time>2015-06-30T07:33:24Z</time>
      </trkpt>
      <trkpt lat="42.41437" lon="8.90617">
        <ele>1729.8</ele>
        <time>2015-06-30T07:33:27Z</time>
      </trkpt>
      <trkpt lat="42.41435" lon="8.90615">
        <ele>1728.8</ele>
        <time>2015-06-30T07:33:39Z</time>
      </trkpt>
      <trkpt lat="42.41438" lon="8.90617">
        <ele>1729.6</ele>
        <time>2015-06-30T07:33:49Z</time>
      </trkpt>
      <trkpt lat="42.41438" lon="8.90617">
        <ele>1730.4</ele>
        <time>2015-06-30T07:33:59Z</time>
      </trkpt>
      <trkpt lat="42.41444" lon="8.90606">
        <ele>1730.6</ele>
        <time>2015-06-30T07:34:24Z</time>
      </trkpt>
      <trkpt lat="42.41437" lon="8.90599">
        <ele>1730.4</ele>
        <time>2015-06-30T07:34:26Z</time>
      </trkpt>
      <trkpt lat="42.41435" lon="8.90599">
        <ele>1730.2</ele>
        <time>2015-06-30T07:34:30Z</time>
      </trkpt>
      <trkpt lat="42.41436" lon="8.90602">
        <ele>1729.8</ele>
        <time>2015-06-30T07:34:40Z</time>
      </trkpt>
      <trkpt lat="42.41438" lon="8.90603">
        <ele>1728.8</ele>
        <time>2015-06-30T07:34:56Z</time>
      </trkpt>
      <trkpt lat="42.4144" lon="8.90606">
        <ele>1727.4</ele>
        <time>2015-06-30T07:35:06Z</time>
      </trkpt>
      <trkpt lat="42.41431" lon="8.90602">
        <ele>1726.4</ele>
        <time>2015-06-30T07:35:25Z</time>
      </trkpt>
      <trkpt lat="42.41434" lon="8.90603">
        <ele>1726.4</ele>
        <time>2015-06-30T07:35:27Z</time>
      </trkpt>
      <trkpt lat="42.41433" lon="8.90601">
        <ele>1726.4</ele>
        <time>2015-06-30T07:35:29Z</time>
      </trkpt>
      <trkpt lat="42.41433" lon="8.90602">
        <ele>1726.2</ele>
        <time>2015-06-30T07:35:31Z</time>
      </trkpt>
      <trkpt lat="42.41432" lon="8.90604">
        <ele>1725.4</ele>
        <time>2015-06-30T07:35:35Z</time>
      </trkpt>
      <trkpt lat="42.41435" lon="8.90603">
        <ele>1723.8</ele>
        <time>2015-06-30T07:35:43Z</time>
      </trkpt>
      <trkpt lat="42.4144" lon="8.90608">
        <ele>1722.8</ele>
        <time>2015-06-30T07:35:49Z</time>
      </trkpt>
      <trkpt lat="42.41441" lon="8.90608">
        <ele>1722.6</ele>
        <time>2015-06-30T07:35:50Z</time>
      </trkpt>
      <trkpt lat="42.41442" lon="8.90607">
        <ele>1722.4</ele>
        <time>2015-06-30T07:35:51Z</time>
      </trkpt>
      <trkpt lat="42.41438" lon="8.90598">
        <ele>1721.6</ele>
        <time>2015-06-30T07:35:56Z</time>
      </trkpt>
      <trkpt lat="42.41439" lon="8.90595">
        <ele>1721.2</ele>
        <time>2015-06-30T07:35:58Z</time>
      </trkpt>
      <trkpt lat="42.41452" lon="8.90602">
        <ele>1720.4</ele>
        <time>2015-06-30T07:36:03Z</time>
      </trkpt>
      <trkpt lat="42.41456" lon="8.90603">
        <ele>1719.2</ele>
        <time>2015-06-30T07:36:09Z</time>
      </trkpt>
      <trkpt lat="42.41448" lon="8.90593">
        <ele>1718.4</ele>
        <time>2015-06-30T07:36:14Z</time>
      </trkpt>
      <trkpt lat="42.41439" lon="8.90584">
        <ele>1718.2</ele>
        <time>2015-06-30T07:36:15Z</time>
      </trkpt>
      <trkpt lat="42.41434" lon="8.90576">
        <ele>1717.6</ele>
        <time>2015-06-30T07:36:17Z</time>
      </trkpt>
      <trkpt lat="42.41435" lon="8.90576">
        <ele>1717.4</ele>
        <time>2015-06-30T07:36:19Z</time>
      </trkpt>
      <trkpt lat="42.41434" lon="8.90579">
        <ele>1716.6</ele>
        <time>2015-06-30T07:36:22Z</time>
      </trkpt>
      <trkpt lat="42.4143" lon="8.90578">
        <ele>1715.6</ele>
        <time>2015-06-30T07:36:28Z</time>
      </trkpt>
      <trkpt lat="42.41429" lon="8.90577">
        <ele>1715.2</ele>
        <time>2015-06-30T07:36:31Z</time>
      </trkpt>
      <trkpt lat="42.41434" lon="8.90578">
        <ele>1714.8</ele>
        <time>2015-06-30T07:36:35Z</time>
      </trkpt>
      <trkpt lat="42.41433" lon="8.90578">
        <ele>1714.6</ele>
        <time>2015-06-30T07:36:37Z</time>
      </trkpt>
      <trkpt lat="42.41423" lon="8.90569">
        <ele>1713.2</ele>
        <time>2015-06-30T07:36:46Z</time>
      </trkpt>
      <trkpt lat="42.41412" lon="8.90561">
        <ele>1712</ele>
        <time>2015-06-30T07:36:53Z</time>
      </trkpt>
      <trkpt lat="42.41408" lon="8.90558">
        <ele>1712</ele>
        <time>2015-06-30T07:36:54Z</time>
      </trkpt>
      <trkpt lat="42.41382" lon="8.90535">
        <ele>1711</ele>
        <time>2015-06-30T07:37:01Z</time>
      </trkpt>
      <trkpt lat="42.41339" lon="8.90504">
        <ele>1709.4</ele>
        <time>2015-06-30T07:37:11Z</time>
      </trkpt>
      <trkpt lat="42.41316" lon="8.90488">
        <ele>1709.2</ele>
        <time>2015-06-30T07:37:16Z</time>
      </trkpt>
      <trkpt lat="42.41323" lon="8.90489">
        <ele>1708.8</ele>
        <time>2015-06-30T07:37:17Z</time>
      </trkpt>
      <trkpt lat="42.41329" lon="8.90489">
        <ele>1708.8</ele>
        <time>2015-06-30T07:37:19Z</time>
      </trkpt>
      <trkpt lat="42.41334" lon="8.9049">
        <ele>1708.6</ele>
        <time>2015-06-30T07:37:21Z</time>
      </trkpt>
      <trkpt lat="42.41333" lon="8.90486">
        <ele>1708.6</ele>
        <time>2015-06-30T07:37:23Z</time>
      </trkpt>
      <trkpt lat="42.41341" lon="8.90491">
        <ele>1708.4</ele>
        <time>2015-06-30T07:37:24Z</time>
      </trkpt>
      <trkpt lat="42.41347" lon="8.90497">
        <ele>1708</ele>
        <time>2015-06-30T07:37:27Z</time>
      </trkpt>
      <trkpt lat="42.41353" lon="8.90501">
        <ele>1707.6</ele>
        <time>2015-06-30T07:37:29Z</time>
      </trkpt>
      <trkpt lat="42.41375" lon="8.90514">
        <ele>1707.2</ele>
        <time>2015-06-30T07:37:33Z</time>
      </trkpt>
      <trkpt lat="42.41381" lon="8.90517">
        <ele>1707.2</ele>
        <time>2015-06-30T07:37:34Z</time>
      </trkpt>
      <trkpt lat="42.41383" lon="8.90518">
        <ele>1707</ele>
        <time>2015-06-30T07:37:36Z</time>
      </trkpt>
      <trkpt lat="42.41382" lon="8.90518">
        <ele>1706.6</ele>
        <time>2015-06-30T07:37:38Z</time>
      </trkpt>
      <trkpt lat="42.41382" lon="8.9052">
        <ele>1705.2</ele>
        <time>2015-06-30T07:37:58Z</time>
      </trkpt>
      <trkpt lat="42.41387" lon="8.90522">
        <ele>1705.2</ele>
        <time>2015-06-30T07:38:02Z</time>
      </trkpt>
      <trkpt lat="42.41385" lon="8.9052">
        <ele>1704.8</ele>
        <time>2015-06-30T07:38:04Z</time>
      </trkpt>
      <trkpt lat="42.41396" lon="8.90527">
        <ele>1704.6</ele>
        <time>2015-06-30T07:38:07Z</time>
      </trkpt>
      <trkpt lat="42.41398" lon="8.90525">
        <ele>1703.6</ele>
        <time>2015-06-30T07:38:14Z</time>
      </trkpt>
      <trkpt lat="42.41399" lon="8.90525">
        <ele>1703.4</ele>
        <time>2015-06-30T07:38:16Z</time>
      </trkpt>
      <trkpt lat="42.41409" lon="8.90531">
        <ele>1702.6</ele>
        <time>2015-06-30T07:38:22Z</time>
      </trkpt>
      <trkpt lat="42.41413" lon="8.90533">
        <ele>1702.6</ele>
        <time>2015-06-30T07:38:23Z</time>
      </trkpt>
      <trkpt lat="42.41426" lon="8.90541">
        <ele>1701.4</ele>
        <time>2015-06-30T07:38:28Z</time>
      </trkpt>
      <trkpt lat="42.41428" lon="8.90542">
        <ele>1701.4</ele>
        <time>2015-06-30T07:38:29Z</time>
      </trkpt>
      <trkpt lat="42.41429" lon="8.90542">
        <ele>1701.2</ele>
        <time>2015-06-30T07:38:30Z</time>
      </trkpt>
      <trkpt lat="42.41437" lon="8.90546">
        <ele>1700.4</ele>
        <time>2015-06-30T07:38:35Z</time>
      </trkpt>
      <trkpt lat="42.41446" lon="8.90553">
        <ele>1699.2</ele>
        <time>2015-06-30T07:38:41Z</time>
      </trkpt>
      <trkpt lat="42.41447" lon="8.90554">
        <ele>1698.8</ele>
        <time>2015-06-30T07:38:43Z</time>
      </trkpt>
      <trkpt lat="42.41446" lon="8.90553">
        <ele>1698.6</ele>
        <time>2015-06-30T07:38:45Z</time>
      </trkpt>
      <trkpt lat="42.41445" lon="8.90552">
        <ele>1698.2</ele>
        <time>2015-06-30T07:38:46Z</time>
      </trkpt>
      <trkpt lat="42.4144" lon="8.9055">
        <ele>1696.8</ele>
        <time>2015-06-30T07:38:53Z</time>
      </trkpt>
      <trkpt lat="42.41429" lon="8.90539">
        <ele>1696</ele>
        <time>2015-06-30T07:38:58Z</time>
      </trkpt>
      <trkpt lat="42.41429" lon="8.90539">
        <ele>1695.8</ele>
        <time>2015-06-30T07:38:59Z</time>
      </trkpt>
      <trkpt lat="42.41415" lon="8.90523">
        <ele>1695</ele>
        <time>2015-06-30T07:39:04Z</time>
      </trkpt>
      <trkpt lat="42.41413" lon="8.9052">
        <ele>1694.6</ele>
        <time>2015-06-30T07:39:05Z</time>
      </trkpt>
      <trkpt lat="42.41411" lon="8.90517">
        <ele>1694</ele>
        <time>2015-06-30T07:39:07Z</time>
      </trkpt>
      <trkpt lat="42.41417" lon="8.90518">
        <ele>1693.6</ele>
        <time>2015-06-30T07:39:11Z</time>
      </trkpt>
      <trkpt lat="42.41423" lon="8.90519">
        <ele>1693.2</ele>
        <time>2015-06-30T07:39:13Z</time>
      </trkpt>
      <trkpt lat="42.41432" lon="8.90526">
        <ele>1692.6</ele>
        <time>2015-06-30T07:39:18Z</time>
      </trkpt>
      <trkpt lat="42.41441" lon="8.90532">
        <ele>1691.2</ele>
        <time>2015-06-30T07:39:24Z</time>
      </trkpt>
      <trkpt lat="42.41448" lon="8.90538">
        <ele>1690.2</ele>
        <time>2015-06-30T07:39:30Z</time>
      </trkpt>
      <trkpt lat="42.41448" lon="8.90538">
        <ele>1690</ele>
        <time>2015-06-30T07:39:31Z</time>
      </trkpt>
      <trkpt lat="42.41449" lon="8.90539">
        <ele>1689</ele>
        <time>2015-06-30T07:39:37Z</time>
      </trkpt>
      <trkpt lat="42.41452" lon="8.90541">
        <ele>1687.8</ele>
        <time>2015-06-30T07:39:49Z</time>
      </trkpt>
      <trkpt lat="42.41451" lon="8.90538">
        <ele>1687</ele>
        <time>2015-06-30T07:39:56Z</time>
      </trkpt>
      <trkpt lat="42.41451" lon="8.90538">
        <ele>1687</ele>
        <time>2015-06-30T07:39:57Z</time>
      </trkpt>
      <trkpt lat="42.41451" lon="8.90536">
        <ele>1686.4</ele>
        <time>2015-06-30T07:40:01Z</time>
      </trkpt>
      <trkpt lat="42.41451" lon="8.90534">
        <ele>1685.4</ele>
        <time>2015-06-30T07:40:05Z</time>
      </trkpt>
      <trkpt lat="42.41453" lon="8.90531">
        <ele>1683.8</ele>
        <time>2015-06-30T07:40:13Z</time>
      </trkpt>
      <trkpt lat="42.41454" lon="8.90531">
        <ele>1683.4</ele>
        <time>2015-06-30T07:40:15Z</time>
      </trkpt>
      <trkpt lat="42.41456" lon="8.9053">
        <ele>1683.2</ele>
        <time>2015-06-30T07:40:18Z</time>
      </trkpt>
      <trkpt lat="42.41457" lon="8.9053">
        <ele>1682.2</ele>
        <time>2015-06-30T07:40:23Z</time>
      </trkpt>
      <trkpt lat="42.41462" lon="8.90534">
        <ele>1681.6</ele>
        <time>2015-06-30T07:40:27Z</time>
      </trkpt>
      <trkpt lat="42.41473" lon="8.90542">
        <ele>1679.8</ele>
        <time>2015-06-30T07:40:34Z</time>
      </trkpt>
      <trkpt lat="42.41495" lon="8.90557">
        <ele>1678</ele>
        <time>2015-06-30T07:40:48Z</time>
      </trkpt>
      <trkpt lat="42.41499" lon="8.90554">
        <ele>1677.8</ele>
        <time>2015-06-30T07:40:54Z</time>
      </trkpt>
      <trkpt lat="42.41499" lon="8.90551">
        <ele>1677.2</ele>
        <time>2015-06-30T07:40:57Z</time>
      </trkpt>
      <trkpt lat="42.41499" lon="8.9055">
        <ele>1676.8</ele>
        <time>2015-06-30T07:41:00Z</time>
      </trkpt>
      <trkpt lat="42.41497" lon="8.90549">
        <ele>1676</ele>
        <time>2015-06-30T07:41:03Z</time>
      </trkpt>
      <trkpt lat="42.41506" lon="8.90555">
        <ele>1675.6</ele>
        <time>2015-06-30T07:41:07Z</time>
      </trkpt>
      <trkpt lat="42.41508" lon="8.90556">
        <ele>1675.6</ele>
        <time>2015-06-30T07:41:08Z</time>
      </trkpt>
      <trkpt lat="42.4151" lon="8.90558">
        <ele>1675.2</ele>
        <time>2015-06-30T07:41:11Z</time>
      </trkpt>
      <trkpt lat="42.41512" lon="8.90558">
        <ele>1674.2</ele>
        <time>2015-06-30T07:41:15Z</time>
      </trkpt>
      <trkpt lat="42.41517" lon="8.9056">
        <ele>1673.6</ele>
        <time>2015-06-30T07:41:21Z</time>
      </trkpt>
      <trkpt lat="42.41517" lon="8.9056">
        <ele>1673.4</ele>
        <time>2015-06-30T07:41:22Z</time>
      </trkpt>
      <trkpt lat="42.41524" lon="8.90564">
        <ele>1673</ele>
        <time>2015-06-30T07:41:25Z</time>
      </trkpt>
      <trkpt lat="42.41529" lon="8.90566">
        <ele>1671.2</ele>
        <time>2015-06-30T07:41:32Z</time>
      </trkpt>
      <trkpt lat="42.41529" lon="8.90563">
        <ele>1670.4</ele>
        <time>2015-06-30T07:41:38Z</time>
      </trkpt>
      <trkpt lat="42.41522" lon="8.90553">
        <ele>1669.2</ele>
        <time>2015-06-30T07:41:45Z</time>
      </trkpt>
      <trkpt lat="42.41526" lon="8.90555">
        <ele>1668.8</ele>
        <time>2015-06-30T07:41:48Z</time>
      </trkpt>
      <trkpt lat="42.41526" lon="8.90554">
        <ele>1668.4</ele>
        <time>2015-06-30T07:41:50Z</time>
      </trkpt>
      <trkpt lat="42.41527" lon="8.90555">
        <ele>1668.4</ele>
        <time>2015-06-30T07:41:51Z</time>
      </trkpt>
      <trkpt lat="42.41529" lon="8.90556">
        <ele>1667.8</ele>
        <time>2015-06-30T07:41:53Z</time>
      </trkpt>
      <trkpt lat="42.41532" lon="8.90556">
        <ele>1667</ele>
        <time>2015-06-30T07:41:59Z</time>
      </trkpt>
      <trkpt lat="42.41532" lon="8.90554">
        <ele>1666.6</ele>
        <time>2015-06-30T07:42:02Z</time>
      </trkpt>
      <trkpt lat="42.41536" lon="8.90555">
        <ele>1666.2</ele>
        <time>2015-06-30T07:42:08Z</time>
      </trkpt>
      <trkpt lat="42.41507" lon="8.90527">
        <ele>1666</ele>
        <time>2015-06-30T07:42:09Z</time>
      </trkpt>
      <trkpt lat="42.41487" lon="8.90506">
        <ele>1665.2</ele>
        <time>2015-06-30T07:42:13Z</time>
      </trkpt>
      <trkpt lat="42.41464" lon="8.9048">
        <ele>1665</ele>
        <time>2015-06-30T07:42:14Z</time>
      </trkpt>
      <trkpt lat="42.41442" lon="8.90456">
        <ele>1664.6</ele>
        <time>2015-06-30T07:42:16Z</time>
      </trkpt>
      <trkpt lat="42.41454" lon="8.90467">
        <ele>1663.8</ele>
        <time>2015-06-30T07:42:19Z</time>
      </trkpt>
      <trkpt lat="42.4146" lon="8.90473">
        <ele>1663.4</ele>
        <time>2015-06-30T07:42:21Z</time>
      </trkpt>
      <trkpt lat="42.41464" lon="8.90477">
        <ele>1663.2</ele>
        <time>2015-06-30T07:42:23Z</time>
      </trkpt>
      <trkpt lat="42.41466" lon="8.9048">
        <ele>1662.8</ele>
        <time>2015-06-30T07:42:25Z</time>
      </trkpt>
      <trkpt lat="42.41476" lon="8.90491">
        <ele>1662</ele>
        <time>2015-06-30T07:42:29Z</time>
      </trkpt>
      <trkpt lat="42.41483" lon="8.90497">
        <ele>1661.6</ele>
        <time>2015-06-30T07:42:34Z</time>
      </trkpt>
      <trkpt lat="42.41427" lon="8.90438">
        <ele>1661.2</ele>
        <time>2015-06-30T07:42:38Z</time>
      </trkpt>
      <trkpt lat="42.41433" lon="8.90444">
        <ele>1660.6</ele>
        <time>2015-06-30T07:42:40Z</time>
      </trkpt>
      <trkpt lat="42.41436" lon="8.90445">
        <ele>1660.4</ele>
        <time>2015-06-30T07:42:41Z</time>
      </trkpt>
      <trkpt lat="42.41441" lon="8.90449">
        <ele>1660</ele>
        <time>2015-06-30T07:42:43Z</time>
      </trkpt>
      <trkpt lat="42.41449" lon="8.90457">
        <ele>1659.6</ele>
        <time>2015-06-30T07:42:46Z</time>
      </trkpt>
      <trkpt lat="42.41451" lon="8.9046">
        <ele>1659.4</ele>
        <time>2015-06-30T07:42:49Z</time>
      </trkpt>
      <trkpt lat="42.41459" lon="8.90469">
        <ele>1658.8</ele>
        <time>2015-06-30T07:42:54Z</time>
      </trkpt>
      <trkpt lat="42.41459" lon="8.90468">
        <ele>1658.6</ele>
        <time>2015-06-30T07:42:56Z</time>
      </trkpt>
      <trkpt lat="42.41458" lon="8.90468">
        <ele>1657.8</ele>
        <time>2015-06-30T07:43:07Z</time>
      </trkpt>
      <trkpt lat="42.41459" lon="8.90466">
        <ele>1657.4</ele>
        <time>2015-06-30T07:43:10Z</time>
      </trkpt>
      <trkpt lat="42.41464" lon="8.90469">
        <ele>1657</ele>
        <time>2015-06-30T07:43:12Z</time>
      </trkpt>
      <trkpt lat="42.41473" lon="8.90476">
        <ele>1656.6</ele>
        <time>2015-06-30T07:43:16Z</time>
      </trkpt>
      <trkpt lat="42.41478" lon="8.90478">
        <ele>1654.8</ele>
        <time>2015-06-30T07:43:22Z</time>
      </trkpt>
      <trkpt lat="42.4149" lon="8.90487">
        <ele>1654</ele>
        <time>2015-06-30T07:43:27Z</time>
      </trkpt>
      <trkpt lat="42.41498" lon="8.90493">
        <ele>1653.2</ele>
        <time>2015-06-30T07:43:33Z</time>
      </trkpt>
      <trkpt lat="42.41507" lon="8.90497">
        <ele>1652</ele>
        <time>2015-06-30T07:43:39Z</time>
      </trkpt>
      <trkpt lat="42.41497" lon="8.90484">
        <ele>1651.6</ele>
        <time>2015-06-30T07:43:41Z</time>
      </trkpt>
      <trkpt lat="42.41495" lon="8.90481">
        <ele>1651</ele>
        <time>2015-06-30T07:43:44Z</time>
      </trkpt>
      <trkpt lat="42.41495" lon="8.9048">
        <ele>1650.8</ele>
        <time>2015-06-30T07:43:45Z</time>
      </trkpt>
      <trkpt lat="42.41498" lon="8.90481">
        <ele>1650</ele>
        <time>2015-06-30T07:43:50Z</time>
      </trkpt>
      <trkpt lat="42.41502" lon="8.90482">
        <ele>1649.2</ele>
        <time>2015-06-30T07:43:54Z</time>
      </trkpt>
      <trkpt lat="42.41502" lon="8.90481">
        <ele>1649.2</ele>
        <time>2015-06-30T07:43:55Z</time>
      </trkpt>
      <trkpt lat="42.41504" lon="8.90479">
        <ele>1648.6</ele>
        <time>2015-06-30T07:43:58Z</time>
      </trkpt>
      <trkpt lat="42.4151" lon="8.90479">
        <ele>1647.2</ele>
        <time>2015-06-30T07:44:07Z</time>
      </trkpt>
      <trkpt lat="42.41516" lon="8.90481">
        <ele>1647.2</ele>
        <time>2015-06-30T07:44:16Z</time>
      </trkpt>
      <trkpt lat="42.41521" lon="8.90481">
        <ele>1647</ele>
        <time>2015-06-30T07:44:49Z</time>
      </trkpt>
      <trkpt lat="42.41527" lon="8.90483">
        <ele>1646.2</ele>
        <time>2015-06-30T07:45:00Z</time>
      </trkpt>
      <trkpt lat="42.41529" lon="8.90483">
        <ele>1645.6</ele>
        <time>2015-06-30T07:45:41Z</time>
      </trkpt>
      <trkpt lat="42.41527" lon="8.90479">
        <ele>1645.6</ele>
        <time>2015-06-30T07:46:22Z</time>
      </trkpt>
      <trkpt lat="42.41539" lon="8.90485">
        <ele>1644.8</ele>
        <time>2015-06-30T07:46:38Z</time>
      </trkpt>
      <trkpt lat="42.4154" lon="8.90485">
        <ele>1644.8</ele>
        <time>2015-06-30T07:46:40Z</time>
      </trkpt>
      <trkpt lat="42.4154" lon="8.90484">
        <ele>1644.4</ele>
        <time>2015-06-30T07:46:47Z</time>
      </trkpt>
      <trkpt lat="42.41525" lon="8.90486">
        <ele>1645.4</ele>
        <time>2015-06-30T07:47:33Z</time>
      </trkpt>
      <trkpt lat="42.41525" lon="8.90487">
        <ele>1646</ele>
        <time>2015-06-30T07:47:45Z</time>
      </trkpt>
      <trkpt lat="42.4153" lon="8.90489">
        <ele>1646</ele>
        <time>2015-06-30T07:48:34Z</time>
      </trkpt>
      <trkpt lat="42.41529" lon="8.90489">
        <ele>1646.2</ele>
        <time>2015-06-30T07:49:58Z</time>
      </trkpt>
      <trkpt lat="42.41525" lon="8.90484">
        <ele>1646</ele>
        <time>2015-06-30T07:50:40Z</time>
      </trkpt>
      <trkpt lat="42.41525" lon="8.90483">
        <ele>1646</ele>
        <time>2015-06-30T07:50:42Z</time>
      </trkpt>
      <trkpt lat="42.4149" lon="8.90447">
        <ele>1645.6</ele>
        <time>2015-06-30T07:51:26Z</time>
      </trkpt>
      <trkpt lat="42.4148" lon="8.90434">
        <ele>1645.6</ele>
        <time>2015-06-30T07:51:37Z</time>
      </trkpt>
      <trkpt lat="42.41495" lon="8.9045">
        <ele>1645.2</ele>
        <time>2015-06-30T07:51:59Z</time>
      </trkpt>
      <trkpt lat="42.415" lon="8.90456">
        <ele>1645.2</ele>
        <time>2015-06-30T07:52:04Z</time>
      </trkpt>
      <trkpt lat="42.41506" lon="8.90463">
        <ele>1645.6</ele>
        <time>2015-06-30T07:52:17Z</time>
      </trkpt>
      <trkpt lat="42.41509" lon="8.90467">
        <ele>1645.4</ele>
        <time>2015-06-30T07:52:20Z</time>
      </trkpt>
      <trkpt lat="42.41528" lon="8.90489">
        <ele>1646</ele>
        <time>2015-06-30T07:53:42Z</time>
      </trkpt>
      <trkpt lat="42.4153" lon="8.90489">
        <ele>1646</ele>
        <time>2015-06-30T07:54:05Z</time>
      </trkpt>
      <trkpt lat="42.41529" lon="8.9049">
        <ele>1645.4</ele>
        <time>2015-06-30T07:55:19Z</time>
      </trkpt>
      <trkpt lat="42.41533" lon="8.90487">
        <ele>1645.6</ele>
        <time>2015-06-30T07:56:07Z</time>
      </trkpt>
      <trkpt lat="42.41531" lon="8.90486">
        <ele>1644.6</ele>
        <time>2015-06-30T07:56:30Z</time>
      </trkpt>
      <trkpt lat="42.41514" lon="8.90451">
        <ele>1644.4</ele>
        <time>2015-06-30T07:58:03Z</time>
      </trkpt>
      <trkpt lat="42.41517" lon="8.9045">
        <ele>1644.4</ele>
        <time>2015-06-30T07:59:24Z</time>
      </trkpt>
      <trkpt lat="42.41522" lon="8.90463">
        <ele>1644.2</ele>
        <time>2015-06-30T08:00:44Z</time>
      </trkpt>
      <trkpt lat="42.41522" lon="8.90458">
        <ele>1644.2</ele>
        <time>2015-06-30T08:02:26Z</time>
      </trkpt>
      <trkpt lat="42.41534" lon="8.90479">
        <ele>1644.6</ele>
        <time>2015-06-30T08:04:17Z</time>
      </trkpt>
      <trkpt lat="42.41531" lon="8.90485">
        <ele>1645.4</ele>
        <time>2015-06-30T08:05:38Z</time>
      </trkpt>
      <trkpt lat="42.41523" lon="8.9048">
        <ele>1645.2</ele>
        <time>2015-06-30T08:06:25Z</time>
      </trkpt>
      <trkpt lat="42.41523" lon="8.90479">
        <ele>1644</ele>
        <time>2015-06-30T08:06:32Z</time>
      </trkpt>
      <trkpt lat="42.41524" lon="8.90477">
        <ele>1643.4</ele>
        <time>2015-06-30T08:06:37Z</time>
      </trkpt>
      <trkpt lat="42.41526" lon="8.90473">
        <ele>1641.8</ele>
        <time>2015-06-30T08:06:47Z</time>
      </trkpt>
      <trkpt lat="42.41529" lon="8.9047">
        <ele>1641.2</ele>
        <time>2015-06-30T08:06:53Z</time>
      </trkpt>
      <trkpt lat="42.4153" lon="8.90463">
        <ele>1639.8</ele>
        <time>2015-06-30T08:07:00Z</time>
      </trkpt>
      <trkpt lat="42.41531" lon="8.90458">
        <ele>1639</ele>
        <time>2015-06-30T08:07:06Z</time>
      </trkpt>
      <trkpt lat="42.41534" lon="8.90455">
        <ele>1638</ele>
        <time>2015-06-30T08:07:11Z</time>
      </trkpt>
      <trkpt lat="42.41536" lon="8.90452">
        <ele>1637.2</ele>
        <time>2015-06-30T08:07:15Z</time>
      </trkpt>
      <trkpt lat="42.41536" lon="8.90451">
        <ele>1636.8</ele>
        <time>2015-06-30T08:07:17Z</time>
      </trkpt>
      <trkpt lat="42.41539" lon="8.90449">
        <ele>1635.8</ele>
        <time>2015-06-30T08:07:23Z</time>
      </trkpt>
      <trkpt lat="42.41542" lon="8.90447">
        <ele>1635</ele>
        <time>2015-06-30T08:07:28Z</time>
      </trkpt>
      <trkpt lat="42.41541" lon="8.90444">
        <ele>1634</ele>
        <time>2015-06-30T08:07:33Z</time>
      </trkpt>
      <trkpt lat="42.41543" lon="8.90444">
        <ele>1632.6</ele>
        <time>2015-06-30T08:07:41Z</time>
      </trkpt>
      <trkpt lat="42.41546" lon="8.90444">
        <ele>1631.2</ele>
        <time>2015-06-30T08:07:49Z</time>
      </trkpt>
      <trkpt lat="42.41548" lon="8.90444">
        <ele>1630.6</ele>
        <time>2015-06-30T08:07:55Z</time>
      </trkpt>
      <trkpt lat="42.41552" lon="8.90444">
        <ele>1629.4</ele>
        <time>2015-06-30T08:08:01Z</time>
      </trkpt>
      <trkpt lat="42.41555" lon="8.90442">
        <ele>1628.4</ele>
        <time>2015-06-30T08:08:07Z</time>
      </trkpt>
      <trkpt lat="42.41556" lon="8.9044">
        <ele>1627.4</ele>
        <time>2015-06-30T08:08:12Z</time>
      </trkpt>
      <trkpt lat="42.41561" lon="8.90441">
        <ele>1625</ele>
        <time>2015-06-30T08:08:44Z</time>
      </trkpt>
      <trkpt lat="42.41563" lon="8.90439">
        <ele>1624.2</ele>
        <time>2015-06-30T08:08:58Z</time>
      </trkpt>
      <trkpt lat="42.41566" lon="8.90439">
        <ele>1623.4</ele>
        <time>2015-06-30T08:09:05Z</time>
      </trkpt>
      <trkpt lat="42.41568" lon="8.90434">
        <ele>1622.8</ele>
        <time>2015-06-30T08:09:11Z</time>
      </trkpt>
      <trkpt lat="42.41566" lon="8.90431">
        <ele>1621.6</ele>
        <time>2015-06-30T08:09:16Z</time>
      </trkpt>
      <trkpt lat="42.41565" lon="8.90432">
        <ele>1620</ele>
        <time>2015-06-30T08:09:25Z</time>
      </trkpt>
      <trkpt lat="42.41564" lon="8.90427">
        <ele>1619.4</ele>
        <time>2015-06-30T08:09:33Z</time>
      </trkpt>
      <trkpt lat="42.41566" lon="8.90423">
        <ele>1618.2</ele>
        <time>2015-06-30T08:09:39Z</time>
      </trkpt>
      <trkpt lat="42.4157" lon="8.90422">
        <ele>1616.6</ele>
        <time>2015-06-30T08:09:48Z</time>
      </trkpt>
      <trkpt lat="42.41575" lon="8.90421">
        <ele>1616</ele>
        <time>2015-06-30T08:09:56Z</time>
      </trkpt>
      <trkpt lat="42.41574" lon="8.90413">
        <ele>1615.2</ele>
        <time>2015-06-30T08:10:01Z</time>
      </trkpt>
      <trkpt lat="42.41575" lon="8.90408">
        <ele>1614</ele>
        <time>2015-06-30T08:10:06Z</time>
      </trkpt>
      <trkpt lat="42.41578" lon="8.90408">
        <ele>1612.8</ele>
        <time>2015-06-30T08:10:13Z</time>
      </trkpt>
      <trkpt lat="42.41583" lon="8.90408">
        <ele>1611.6</ele>
        <time>2015-06-30T08:10:21Z</time>
      </trkpt>
      <trkpt lat="42.41585" lon="8.90409">
        <ele>1610.8</ele>
        <time>2015-06-30T08:10:28Z</time>
      </trkpt>
      <trkpt lat="42.41586" lon="8.90409">
        <ele>1609.6</ele>
        <time>2015-06-30T08:10:34Z</time>
      </trkpt>
      <trkpt lat="42.41589" lon="8.90409">
        <ele>1608.6</ele>
        <time>2015-06-30T08:10:40Z</time>
      </trkpt>
      <trkpt lat="42.41589" lon="8.90409">
        <ele>1608</ele>
        <time>2015-06-30T08:10:43Z</time>
      </trkpt>
      <trkpt lat="42.41589" lon="8.90408">
        <ele>1607.8</ele>
        <time>2015-06-30T08:10:45Z</time>
      </trkpt>
      <trkpt lat="42.4159" lon="8.90406">
        <ele>1606.4</ele>
        <time>2015-06-30T08:10:51Z</time>
      </trkpt>
      <trkpt lat="42.4159" lon="8.90403">
        <ele>1605.2</ele>
        <time>2015-06-30T08:10:57Z</time>
      </trkpt>
      <trkpt lat="42.41591" lon="8.904">
        <ele>1604.2</ele>
        <time>2015-06-30T08:11:03Z</time>
      </trkpt>
      <trkpt lat="42.4159" lon="8.90396">
        <ele>1603</ele>
        <time>2015-06-30T08:11:11Z</time>
      </trkpt>
      <trkpt lat="42.41586" lon="8.90394">
        <ele>1602.2</ele>
        <time>2015-06-30T08:11:16Z</time>
      </trkpt>
      <trkpt lat="42.41584" lon="8.90394">
        <ele>1600.8</ele>
        <time>2015-06-30T08:11:25Z</time>
      </trkpt>
      <trkpt lat="42.41582" lon="8.90392">
        <ele>1599.8</ele>
        <time>2015-06-30T08:11:32Z</time>
      </trkpt>
      <trkpt lat="42.4158" lon="8.90389">
        <ele>1598.4</ele>
        <time>2015-06-30T08:11:40Z</time>
      </trkpt>
      <trkpt lat="42.41574" lon="8.90384">
        <ele>1596.8</ele>
        <time>2015-06-30T08:11:52Z</time>
      </trkpt>
      <trkpt lat="42.41568" lon="8.90372">
        <ele>1595.8</ele>
        <time>2015-06-30T08:12:10Z</time>
      </trkpt>
      <trkpt lat="42.4157" lon="8.90328">
        <ele>1596.2</ele>
        <time>2015-06-30T08:12:57Z</time>
      </trkpt>
      <trkpt lat="42.41573" lon="8.90304">
        <ele>1596.6</ele>
        <time>2015-06-30T08:13:20Z</time>
      </trkpt>
      <trkpt lat="42.41571" lon="8.90285">
        <ele>1597</ele>
        <time>2015-06-30T08:13:43Z</time>
      </trkpt>
      <trkpt lat="42.41571" lon="8.90281">
        <ele>1598.4</ele>
        <time>2015-06-30T08:13:52Z</time>
      </trkpt>
      <trkpt lat="42.41571" lon="8.90274">
        <ele>1599.2</ele>
        <time>2015-06-30T08:14:01Z</time>
      </trkpt>
      <trkpt lat="42.41572" lon="8.90264">
        <ele>1601</ele>
        <time>2015-06-30T08:14:16Z</time>
      </trkpt>
      <trkpt lat="42.41571" lon="8.9026">
        <ele>1601.2</ele>
        <time>2015-06-30T08:14:20Z</time>
      </trkpt>
      <trkpt lat="42.41572" lon="8.9025">
        <ele>1601.8</ele>
        <time>2015-06-30T08:14:33Z</time>
      </trkpt>
      <trkpt lat="42.41572" lon="8.90246">
        <ele>1602.8</ele>
        <time>2015-06-30T08:14:40Z</time>
      </trkpt>
      <trkpt lat="42.41584" lon="8.90225">
        <ele>1603.2</ele>
        <time>2015-06-30T08:15:05Z</time>
      </trkpt>
      <trkpt lat="42.41593" lon="8.90171">
        <ele>1603</ele>
        <time>2015-06-30T08:16:03Z</time>
      </trkpt>
      <trkpt lat="42.41596" lon="8.90169">
        <ele>1602.8</ele>
        <time>2015-06-30T08:16:09Z</time>
      </trkpt>
      <trkpt lat="42.41599" lon="8.90168">
        <ele>1602</ele>
        <time>2015-06-30T08:16:14Z</time>
      </trkpt>
      <trkpt lat="42.41602" lon="8.90166">
        <ele>1601.2</ele>
        <time>2015-06-30T08:16:18Z</time>
      </trkpt>
      <trkpt lat="42.41605" lon="8.90163">
        <ele>1599.6</ele>
        <time>2015-06-30T08:16:24Z</time>
      </trkpt>
      <trkpt lat="42.41608" lon="8.9016">
        <ele>1598.4</ele>
        <time>2015-06-30T08:16:31Z</time>
      </trkpt>
      <trkpt lat="42.41611" lon="8.90157">
        <ele>1597.4</ele>
        <time>2015-06-30T08:16:37Z</time>
      </trkpt>
      <trkpt lat="42.41613" lon="8.90156">
        <ele>1596.6</ele>
        <time>2015-06-30T08:16:42Z</time>
      </trkpt>
      <trkpt lat="42.41615" lon="8.90157">
        <ele>1595.8</ele>
        <time>2015-06-30T08:16:46Z</time>
      </trkpt>
      <trkpt lat="42.41617" lon="8.9016">
        <ele>1594.2</ele>
        <time>2015-06-30T08:16:52Z</time>
      </trkpt>
      <trkpt lat="42.41617" lon="8.90162">
        <ele>1593.4</ele>
        <time>2015-06-30T08:16:57Z</time>
      </trkpt>
      <trkpt lat="42.41617" lon="8.90164">
        <ele>1592.4</ele>
        <time>2015-06-30T08:17:01Z</time>
      </trkpt>
      <trkpt lat="42.41622" lon="8.90164">
        <ele>1590.8</ele>
        <time>2015-06-30T08:17:08Z</time>
      </trkpt>
      <trkpt lat="42.41624" lon="8.90162">
        <ele>1589.6</ele>
        <time>2015-06-30T08:17:14Z</time>
      </trkpt>
      <trkpt lat="42.41626" lon="8.90161">
        <ele>1588.6</ele>
        <time>2015-06-30T08:17:20Z</time>
      </trkpt>
      <trkpt lat="42.41631" lon="8.90158">
        <ele>1587.2</ele>
        <time>2015-06-30T08:17:27Z</time>
      </trkpt>
      <trkpt lat="42.41633" lon="8.90155">
        <ele>1586.6</ele>
        <time>2015-06-30T08:17:32Z</time>
      </trkpt>
      <trkpt lat="42.41637" lon="8.90151">
        <ele>1585</ele>
        <time>2015-06-30T08:17:39Z</time>
      </trkpt>
      <trkpt lat="42.41639" lon="8.90141">
        <ele>1583.8</ele>
        <time>2015-06-30T08:17:48Z</time>
      </trkpt>
      <trkpt lat="42.41641" lon="8.90137">
        <ele>1583.2</ele>
        <time>2015-06-30T08:17:54Z</time>
      </trkpt>
      <trkpt lat="42.41644" lon="8.9013">
        <ele>1581.6</ele>
        <time>2015-06-30T08:18:02Z</time>
      </trkpt>
      <trkpt lat="42.41663" lon="8.90121">
        <ele>1580.8</ele>
        <time>2015-06-30T08:18:44Z</time>
      </trkpt>
      <trkpt lat="42.41666" lon="8.90121">
        <ele>1580</ele>
        <time>2015-06-30T08:18:50Z</time>
      </trkpt>
      <trkpt lat="42.41669" lon="8.90121">
        <ele>1578.8</ele>
        <time>2015-06-30T08:18:57Z</time>
      </trkpt>
      <trkpt lat="42.41671" lon="8.9012">
        <ele>1577.8</ele>
        <time>2015-06-30T08:19:05Z</time>
      </trkpt>
      <trkpt lat="42.41673" lon="8.90121">
        <ele>1576.6</ele>
        <time>2015-06-30T08:19:14Z</time>
      </trkpt>
      <trkpt lat="42.41674" lon="8.90124">
        <ele>1575.8</ele>
        <time>2015-06-30T08:19:23Z</time>
      </trkpt>
      <trkpt lat="42.41677" lon="8.90125">
        <ele>1575.4</ele>
        <time>2015-06-30T08:19:27Z</time>
      </trkpt>
      <trkpt lat="42.41681" lon="8.90126">
        <ele>1574</ele>
        <time>2015-06-30T08:19:32Z</time>
      </trkpt>
      <trkpt lat="42.41686" lon="8.90126">
        <ele>1572.4</ele>
        <time>2015-06-30T08:19:41Z</time>
      </trkpt>
      <trkpt lat="42.41687" lon="8.90129">
        <ele>1571.6</ele>
        <time>2015-06-30T08:19:49Z</time>
      </trkpt>
      <trkpt lat="42.4169" lon="8.90133">
        <ele>1571</ele>
        <time>2015-06-30T08:19:54Z</time>
      </trkpt>
      <trkpt lat="42.41692" lon="8.90133">
        <ele>1569</ele>
        <time>2015-06-30T08:20:02Z</time>
      </trkpt>
      <trkpt lat="42.41696" lon="8.90132">
        <ele>1568</ele>
        <time>2015-06-30T08:20:09Z</time>
      </trkpt>
      <trkpt lat="42.41701" lon="8.90131">
        <ele>1567</ele>
        <time>2015-06-30T08:20:15Z</time>
      </trkpt>
      <trkpt lat="42.41704" lon="8.90131">
        <ele>1566</ele>
        <time>2015-06-30T08:20:21Z</time>
      </trkpt>
      <trkpt lat="42.41707" lon="8.90132">
        <ele>1564.8</ele>
        <time>2015-06-30T08:20:27Z</time>
      </trkpt>
      <trkpt lat="42.4171" lon="8.90132">
        <ele>1563.6</ele>
        <time>2015-06-30T08:20:35Z</time>
      </trkpt>
      <trkpt lat="42.41713" lon="8.90132">
        <ele>1562.6</ele>
        <time>2015-06-30T08:20:43Z</time>
      </trkpt>
      <trkpt lat="42.41715" lon="8.90131">
        <ele>1562</ele>
        <time>2015-06-30T08:20:48Z</time>
      </trkpt>
      <trkpt lat="42.41719" lon="8.90129">
        <ele>1560.4</ele>
        <time>2015-06-30T08:20:56Z</time>
      </trkpt>
      <trkpt lat="42.41719" lon="8.90128">
        <ele>1559.6</ele>
        <time>2015-06-30T08:21:01Z</time>
      </trkpt>
      <trkpt lat="42.4172" lon="8.90129">
        <ele>1558.4</ele>
        <time>2015-06-30T08:21:07Z</time>
      </trkpt>
      <trkpt lat="42.41722" lon="8.90129">
        <ele>1557.4</ele>
        <time>2015-06-30T08:21:13Z</time>
      </trkpt>
      <trkpt lat="42.41723" lon="8.90129">
        <ele>1556.8</ele>
        <time>2015-06-30T08:21:17Z</time>
      </trkpt>
      <trkpt lat="42.41724" lon="8.9013">
        <ele>1554.8</ele>
        <time>2015-06-30T08:21:26Z</time>
      </trkpt>
      <trkpt lat="42.41726" lon="8.90134">
        <ele>1554</ele>
        <time>2015-06-30T08:21:32Z</time>
      </trkpt>
      <trkpt lat="42.41727" lon="8.90137">
        <ele>1553.2</ele>
        <time>2015-06-30T08:21:37Z</time>
      </trkpt>
      <trkpt lat="42.41728" lon="8.90139">
        <ele>1551.6</ele>
        <time>2015-06-30T08:21:44Z</time>
      </trkpt>
      <trkpt lat="42.41728" lon="8.90141">
        <ele>1550.4</ele>
        <time>2015-06-30T08:21:51Z</time>
      </trkpt>
      <trkpt lat="42.41731" lon="8.90142">
        <ele>1549.4</ele>
        <time>2015-06-30T08:21:58Z</time>
      </trkpt>
      <trkpt lat="42.41733" lon="8.90144">
        <ele>1548.8</ele>
        <time>2015-06-30T08:22:03Z</time>
      </trkpt>
      <trkpt lat="42.41735" lon="8.90145">
        <ele>1547.2</ele>
        <time>2015-06-30T08:22:10Z</time>
      </trkpt>
      <trkpt lat="42.41738" lon="8.90145">
        <ele>1545.8</ele>
        <time>2015-06-30T08:22:19Z</time>
      </trkpt>
      <trkpt lat="42.41739" lon="8.90146">
        <ele>1545.2</ele>
        <time>2015-06-30T08:22:24Z</time>
      </trkpt>
      <trkpt lat="42.41745" lon="8.9015">
        <ele>1543.4</ele>
        <time>2015-06-30T08:22:53Z</time>
      </trkpt>
      <trkpt lat="42.41746" lon="8.90155">
        <ele>1542.4</ele>
        <time>2015-06-30T08:23:02Z</time>
      </trkpt>
      <trkpt lat="42.41748" lon="8.90159">
        <ele>1541.6</ele>
        <time>2015-06-30T08:23:08Z</time>
      </trkpt>
      <trkpt lat="42.41748" lon="8.90161">
        <ele>1540.6</ele>
        <time>2015-06-30T08:23:12Z</time>
      </trkpt>
      <trkpt lat="42.4175" lon="8.90161">
        <ele>1539.2</ele>
        <time>2015-06-30T08:23:18Z</time>
      </trkpt>
      <trkpt lat="42.41752" lon="8.90164">
        <ele>1538.2</ele>
        <time>2015-06-30T08:23:24Z</time>
      </trkpt>
      <trkpt lat="42.41752" lon="8.90165">
        <ele>1537.2</ele>
        <time>2015-06-30T08:23:29Z</time>
      </trkpt>
      <trkpt lat="42.41756" lon="8.90166">
        <ele>1535.6</ele>
        <time>2015-06-30T08:23:35Z</time>
      </trkpt>
      <trkpt lat="42.41754" lon="8.9017">
        <ele>1534.4</ele>
        <time>2015-06-30T08:23:41Z</time>
      </trkpt>
      <trkpt lat="42.41757" lon="8.90176">
        <ele>1533</ele>
        <time>2015-06-30T08:23:48Z</time>
      </trkpt>
      <trkpt lat="42.4176" lon="8.90179">
        <ele>1531.8</ele>
        <time>2015-06-30T08:23:55Z</time>
      </trkpt>
      <trkpt lat="42.41763" lon="8.90181">
        <ele>1530.4</ele>
        <time>2015-06-30T08:24:04Z</time>
      </trkpt>
      <trkpt lat="42.41763" lon="8.90185">
        <ele>1529</ele>
        <time>2015-06-30T08:24:14Z</time>
      </trkpt>
      <trkpt lat="42.41765" lon="8.90188">
        <ele>1528.4</ele>
        <time>2015-06-30T08:24:20Z</time>
      </trkpt>
      <trkpt lat="42.41767" lon="8.90191">
        <ele>1526.8</ele>
        <time>2015-06-30T08:24:29Z</time>
      </trkpt>
      <trkpt lat="42.41768" lon="8.90195">
        <ele>1525.6</ele>
        <time>2015-06-30T08:24:36Z</time>
      </trkpt>
      <trkpt lat="42.4177" lon="8.90196">
        <ele>1524.8</ele>
        <time>2015-06-30T08:24:41Z</time>
      </trkpt>
      <trkpt lat="42.41771" lon="8.90199">
        <ele>1523.6</ele>
        <time>2015-06-30T08:24:46Z</time>
      </trkpt>
      <trkpt lat="42.41773" lon="8.90197">
        <ele>1522.2</ele>
        <time>2015-06-30T08:24:52Z</time>
      </trkpt>
      <trkpt lat="42.41775" lon="8.90199">
        <ele>1521</ele>
        <time>2015-06-30T08:24:59Z</time>
      </trkpt>
      <trkpt lat="42.41776" lon="8.90202">
        <ele>1519.4</ele>
        <time>2015-06-30T08:25:06Z</time>
      </trkpt>
      <trkpt lat="42.41778" lon="8.90205">
        <ele>1518.4</ele>
        <time>2015-06-30T08:25:13Z</time>
      </trkpt>
      <trkpt lat="42.41779" lon="8.90212">
        <ele>1517</ele>
        <time>2015-06-30T08:25:23Z</time>
      </trkpt>
      <trkpt lat="42.41779" lon="8.90215">
        <ele>1516.6</ele>
        <time>2015-06-30T08:25:27Z</time>
      </trkpt>
      <trkpt lat="42.41779" lon="8.90219">
        <ele>1514.4</ele>
        <time>2015-06-30T08:25:34Z</time>
      </trkpt>
      <trkpt lat="42.41779" lon="8.9022">
        <ele>1513.4</ele>
        <time>2015-06-30T08:25:40Z</time>
      </trkpt>
      <trkpt lat="42.41782" lon="8.9022">
        <ele>1511.8</ele>
        <time>2015-06-30T08:25:49Z</time>
      </trkpt>
      <trkpt lat="42.41783" lon="8.90223">
        <ele>1511</ele>
        <time>2015-06-30T08:25:55Z</time>
      </trkpt>
      <trkpt lat="42.41786" lon="8.90227">
        <ele>1509.6</ele>
        <time>2015-06-30T08:26:02Z</time>
      </trkpt>
      <trkpt lat="42.41787" lon="8.90234">
        <ele>1508.4</ele>
        <time>2015-06-30T08:26:10Z</time>
      </trkpt>
      <trkpt lat="42.41783" lon="8.90237">
        <ele>1506.4</ele>
        <time>2015-06-30T08:26:20Z</time>
      </trkpt>
      <trkpt lat="42.41774" lon="8.90245">
        <ele>1505.6</ele>
        <time>2015-06-30T08:26:27Z</time>
      </trkpt>
      <trkpt lat="42.41761" lon="8.90248">
        <ele>1503.8</ele>
        <time>2015-06-30T08:26:40Z</time>
      </trkpt>
      <trkpt lat="42.41758" lon="8.90251">
        <ele>1503.6</ele>
        <time>2015-06-30T08:26:45Z</time>
      </trkpt>
      <trkpt lat="42.41754" lon="8.90257">
        <ele>1502.6</ele>
        <time>2015-06-30T08:27:06Z</time>
      </trkpt>
      <trkpt lat="42.41752" lon="8.90262">
        <ele>1502.4</ele>
        <time>2015-06-30T08:27:09Z</time>
      </trkpt>
      <trkpt lat="42.41752" lon="8.90264">
        <ele>1502.2</ele>
        <time>2015-06-30T08:27:10Z</time>
      </trkpt>
      <trkpt lat="42.41752" lon="8.90265">
        <ele>1501</ele>
        <time>2015-06-30T08:27:15Z</time>
      </trkpt>
      <trkpt lat="42.41756" lon="8.90264">
        <ele>1499.4</ele>
        <time>2015-06-30T08:27:22Z</time>
      </trkpt>
      <trkpt lat="42.41757" lon="8.90265">
        <ele>1498.4</ele>
        <time>2015-06-30T08:27:27Z</time>
      </trkpt>
      <trkpt lat="42.41761" lon="8.90263">
        <ele>1497</ele>
        <time>2015-06-30T08:27:35Z</time>
      </trkpt>
      <trkpt lat="42.41762" lon="8.90264">
        <ele>1496.6</ele>
        <time>2015-06-30T08:27:38Z</time>
      </trkpt>
      <trkpt lat="42.41763" lon="8.90265">
        <ele>1496.2</ele>
        <time>2015-06-30T08:27:40Z</time>
      </trkpt>
      <trkpt lat="42.41768" lon="8.90267">
        <ele>1494.8</ele>
        <time>2015-06-30T08:27:46Z</time>
      </trkpt>
      <trkpt lat="42.41769" lon="8.90269">
        <ele>1494</ele>
        <time>2015-06-30T08:27:49Z</time>
      </trkpt>
      <trkpt lat="42.41769" lon="8.90269">
        <ele>1493.4</ele>
        <time>2015-06-30T08:27:52Z</time>
      </trkpt>
      <trkpt lat="42.4177" lon="8.90269">
        <ele>1493.4</ele>
        <time>2015-06-30T08:27:53Z</time>
      </trkpt>
      <trkpt lat="42.41772" lon="8.90273">
        <ele>1492.4</ele>
        <time>2015-06-30T08:27:58Z</time>
      </trkpt>
      <trkpt lat="42.41772" lon="8.90275">
        <ele>1492.2</ele>
        <time>2015-06-30T08:28:00Z</time>
      </trkpt>
      <trkpt lat="42.41773" lon="8.90278">
        <ele>1491</ele>
        <time>2015-06-30T08:28:07Z</time>
      </trkpt>
      <trkpt lat="42.41777" lon="8.90277">
        <ele>1489.8</ele>
        <time>2015-06-30T08:28:13Z</time>
      </trkpt>
      <trkpt lat="42.41778" lon="8.90277">
        <ele>1489.6</ele>
        <time>2015-06-30T08:28:14Z</time>
      </trkpt>
      <trkpt lat="42.41778" lon="8.90278">
        <ele>1489.4</ele>
        <time>2015-06-30T08:28:15Z</time>
      </trkpt>
      <trkpt lat="42.41781" lon="8.9028">
        <ele>1488.8</ele>
        <time>2015-06-30T08:28:19Z</time>
      </trkpt>
      <trkpt lat="42.41782" lon="8.90281">
        <ele>1488.6</ele>
        <time>2015-06-30T08:28:20Z</time>
      </trkpt>
      <trkpt lat="42.41784" lon="8.90281">
        <ele>1488</ele>
        <time>2015-06-30T08:28:23Z</time>
      </trkpt>
      <trkpt lat="42.41785" lon="8.90282">
        <ele>1487.6</ele>
        <time>2015-06-30T08:28:25Z</time>
      </trkpt>
      <trkpt lat="42.41787" lon="8.90285">
        <ele>1486.6</ele>
        <time>2015-06-30T08:28:30Z</time>
      </trkpt>
      <trkpt lat="42.41789" lon="8.90289">
        <ele>1485</ele>
        <time>2015-06-30T08:28:37Z</time>
      </trkpt>
      <trkpt lat="42.4179" lon="8.90292">
        <ele>1484.4</ele>
        <time>2015-06-30T08:28:42Z</time>
      </trkpt>
      <trkpt lat="42.41793" lon="8.90299">
        <ele>1482.8</ele>
        <time>2015-06-30T08:28:48Z</time>
      </trkpt>
      <trkpt lat="42.41795" lon="8.90303">
        <ele>1481.6</ele>
        <time>2015-06-30T08:28:54Z</time>
      </trkpt>
      <trkpt lat="42.41798" lon="8.90305">
        <ele>1480.8</ele>
        <time>2015-06-30T08:28:59Z</time>
      </trkpt>
      <trkpt lat="42.418" lon="8.90307">
        <ele>1479.6</ele>
        <time>2015-06-30T08:29:04Z</time>
      </trkpt>
      <trkpt lat="42.41806" lon="8.90309">
        <ele>1478</ele>
        <time>2015-06-30T08:29:12Z</time>
      </trkpt>
      <trkpt lat="42.41809" lon="8.9031">
        <ele>1477.2</ele>
        <time>2015-06-30T08:29:17Z</time>
      </trkpt>
      <trkpt lat="42.41815" lon="8.90309">
        <ele>1475.6</ele>
        <time>2015-06-30T08:29:23Z</time>
      </trkpt>
      <trkpt lat="42.41816" lon="8.90311">
        <ele>1474.4</ele>
        <time>2015-06-30T08:29:29Z</time>
      </trkpt>
      <trkpt lat="42.41818" lon="8.90316">
        <ele>1473</ele>
        <time>2015-06-30T08:29:35Z</time>
      </trkpt>
      <trkpt lat="42.4182" lon="8.90318">
        <ele>1471.8</ele>
        <time>2015-06-30T08:29:42Z</time>
      </trkpt>
      <trkpt lat="42.4182" lon="8.90321">
        <ele>1470.8</ele>
        <time>2015-06-30T08:29:47Z</time>
      </trkpt>
      <trkpt lat="42.41823" lon="8.9032">
        <ele>1469.2</ele>
        <time>2015-06-30T08:29:54Z</time>
      </trkpt>
      <trkpt lat="42.41827" lon="8.90319">
        <ele>1468.2</ele>
        <time>2015-06-30T08:30:00Z</time>
      </trkpt>
      <trkpt lat="42.41829" lon="8.90315">
        <ele>1467.4</ele>
        <time>2015-06-30T08:30:04Z</time>
      </trkpt>
      <trkpt lat="42.41831" lon="8.90312">
        <ele>1466.6</ele>
        <time>2015-06-30T08:30:07Z</time>
      </trkpt>
      <trkpt lat="42.41834" lon="8.9031">
        <ele>1466.2</ele>
        <time>2015-06-30T08:30:10Z</time>
      </trkpt>
      <trkpt lat="42.41838" lon="8.90308">
        <ele>1465.4</ele>
        <time>2015-06-30T08:30:14Z</time>
      </trkpt>
      <trkpt lat="42.41847" lon="8.90305">
        <ele>1463.8</ele>
        <time>2015-06-30T08:30:23Z</time>
      </trkpt>
      <trkpt lat="42.41853" lon="8.90303">
        <ele>1463.2</ele>
        <time>2015-06-30T08:30:29Z</time>
      </trkpt>
      <trkpt lat="42.41854" lon="8.90303">
        <ele>1463</ele>
        <time>2015-06-30T08:30:30Z</time>
      </trkpt>
      <trkpt lat="42.41858" lon="8.90301">
        <ele>1461.8</ele>
        <time>2015-06-30T08:30:35Z</time>
      </trkpt>
      <trkpt lat="42.41859" lon="8.90301">
        <ele>1461.8</ele>
        <time>2015-06-30T08:30:36Z</time>
      </trkpt>
      <trkpt lat="42.41861" lon="8.90301">
        <ele>1461.2</ele>
        <time>2015-06-30T08:30:39Z</time>
      </trkpt>
      <trkpt lat="42.41864" lon="8.90301">
        <ele>1460.6</ele>
        <time>2015-06-30T08:30:44Z</time>
      </trkpt>
      <trkpt lat="42.41867" lon="8.90301">
        <ele>1459.6</ele>
        <time>2015-06-30T08:30:50Z</time>
      </trkpt>
      <trkpt lat="42.41871" lon="8.90294">
        <ele>1458</ele>
        <time>2015-06-30T08:31:05Z</time>
      </trkpt>
      <trkpt lat="42.41871" lon="8.90292">
        <ele>1457.6</ele>
        <time>2015-06-30T08:31:10Z</time>
      </trkpt>
      <trkpt lat="42.41872" lon="8.90296">
        <ele>1456</ele>
        <time>2015-06-30T08:31:22Z</time>
      </trkpt>
      <trkpt lat="42.41871" lon="8.90301">
        <ele>1455.2</ele>
        <time>2015-06-30T08:31:30Z</time>
      </trkpt>
      <trkpt lat="42.41872" lon="8.90306">
        <ele>1454.2</ele>
        <time>2015-06-30T08:31:37Z</time>
      </trkpt>
      <trkpt lat="42.41873" lon="8.90307">
        <ele>1453.4</ele>
        <time>2015-06-30T08:31:44Z</time>
      </trkpt>
      <trkpt lat="42.41876" lon="8.90307">
        <ele>1452.2</ele>
        <time>2015-06-30T08:31:51Z</time>
      </trkpt>
      <trkpt lat="42.41881" lon="8.90309">
        <ele>1450.8</ele>
        <time>2015-06-30T08:31:59Z</time>
      </trkpt>
      <trkpt lat="42.41884" lon="8.90309">
        <ele>1450.2</ele>
        <time>2015-06-30T08:32:05Z</time>
      </trkpt>
      <trkpt lat="42.41886" lon="8.90309">
        <ele>1449</ele>
        <time>2015-06-30T08:32:13Z</time>
      </trkpt>
      <trkpt lat="42.41894" lon="8.90312">
        <ele>1447.6</ele>
        <time>2015-06-30T08:32:44Z</time>
      </trkpt>
      <trkpt lat="42.41905" lon="8.90317">
        <ele>1447</ele>
        <time>2015-06-30T08:32:53Z</time>
      </trkpt>
      <trkpt lat="42.41911" lon="8.9032">
        <ele>1446.6</ele>
        <time>2015-06-30T08:32:59Z</time>
      </trkpt>
      <trkpt lat="42.41906" lon="8.90318">
        <ele>1446.6</ele>
        <time>2015-06-30T08:33:00Z</time>
      </trkpt>
      <trkpt lat="42.41903" lon="8.90315">
        <ele>1446.4</ele>
        <time>2015-06-30T08:33:02Z</time>
      </trkpt>
      <trkpt lat="42.41902" lon="8.90314">
        <ele>1446.4</ele>
        <time>2015-06-30T08:33:04Z</time>
      </trkpt>
      <trkpt lat="42.41895" lon="8.9031">
        <ele>1445.4</ele>
        <time>2015-06-30T08:33:13Z</time>
      </trkpt>
      <trkpt lat="42.41893" lon="8.90308">
        <ele>1445</ele>
        <time>2015-06-30T08:33:16Z</time>
      </trkpt>
      <trkpt lat="42.41893" lon="8.90305">
        <ele>1444.4</ele>
        <time>2015-06-30T08:33:23Z</time>
      </trkpt>
      <trkpt lat="42.41893" lon="8.90302">
        <ele>1443.4</ele>
        <time>2015-06-30T08:33:30Z</time>
      </trkpt>
      <trkpt lat="42.41894" lon="8.90301">
        <ele>1442.6</ele>
        <time>2015-06-30T08:33:35Z</time>
      </trkpt>
      <trkpt lat="42.41896" lon="8.90298">
        <ele>1441</ele>
        <time>2015-06-30T08:33:43Z</time>
      </trkpt>
      <trkpt lat="42.41898" lon="8.90297">
        <ele>1440.6</ele>
        <time>2015-06-30T08:33:48Z</time>
      </trkpt>
      <trkpt lat="42.419" lon="8.90296">
        <ele>1439.8</ele>
        <time>2015-06-30T08:33:52Z</time>
      </trkpt>
      <trkpt lat="42.41906" lon="8.90292">
        <ele>1437.8</ele>
        <time>2015-06-30T08:34:16Z</time>
      </trkpt>
      <trkpt lat="42.41911" lon="8.90291">
        <ele>1437.2</ele>
        <time>2015-06-30T08:34:22Z</time>
      </trkpt>
      <trkpt lat="42.41911" lon="8.90289">
        <ele>1436</ele>
        <time>2015-06-30T08:34:29Z</time>
      </trkpt>
      <trkpt lat="42.41916" lon="8.9029">
        <ele>1434.8</ele>
        <time>2015-06-30T08:34:42Z</time>
      </trkpt>
      <trkpt lat="42.4192" lon="8.90291">
        <ele>1434.4</ele>
        <time>2015-06-30T08:34:46Z</time>
      </trkpt>
      <trkpt lat="42.41924" lon="8.9029">
        <ele>1433.8</ele>
        <time>2015-06-30T08:34:49Z</time>
      </trkpt>
      <trkpt lat="42.41958" lon="8.90308">
        <ele>1432.6</ele>
        <time>2015-06-30T08:34:54Z</time>
      </trkpt>
      <trkpt lat="42.4199" lon="8.90321">
        <ele>1432</ele>
        <time>2015-06-30T08:34:59Z</time>
      </trkpt>
      <trkpt lat="42.42018" lon="8.90319">
        <ele>1430.8</ele>
        <time>2015-06-30T08:35:04Z</time>
      </trkpt>
      <trkpt lat="42.42047" lon="8.90307">
        <ele>1429.6</ele>
        <time>2015-06-30T08:35:11Z</time>
      </trkpt>
      <trkpt lat="42.42064" lon="8.90305">
        <ele>1428.8</ele>
        <time>2015-06-30T08:35:14Z</time>
      </trkpt>
      <trkpt lat="42.42076" lon="8.90301">
        <ele>1428.2</ele>
        <time>2015-06-30T08:35:18Z</time>
      </trkpt>
      <trkpt lat="42.42085" lon="8.90297">
        <ele>1426.2</ele>
        <time>2015-06-30T08:35:25Z</time>
      </trkpt>
      <trkpt lat="42.42087" lon="8.90293">
        <ele>1425.8</ele>
        <time>2015-06-30T08:35:29Z</time>
      </trkpt>
      <trkpt lat="42.42088" lon="8.90292">
        <ele>1425.2</ele>
        <time>2015-06-30T08:35:31Z</time>
      </trkpt>
      <trkpt lat="42.4209" lon="8.90291">
        <ele>1424.6</ele>
        <time>2015-06-30T08:35:33Z</time>
      </trkpt>
      <trkpt lat="42.42097" lon="8.9029">
        <ele>1424</ele>
        <time>2015-06-30T08:35:38Z</time>
      </trkpt>
      <trkpt lat="42.42103" lon="8.90289">
        <ele>1423.6</ele>
        <time>2015-06-30T08:35:45Z</time>
      </trkpt>
      <trkpt lat="42.42107" lon="8.9029">
        <ele>1423.4</ele>
        <time>2015-06-30T08:35:49Z</time>
      </trkpt>
      <trkpt lat="42.42108" lon="8.9029">
        <ele>1423.4</ele>
        <time>2015-06-30T08:35:50Z</time>
      </trkpt>
      <trkpt lat="42.41999" lon="8.90257">
        <ele>1422.6</ele>
        <time>2015-06-30T08:35:55Z</time>
      </trkpt>
      <trkpt lat="42.41965" lon="8.9025">
        <ele>1422</ele>
        <time>2015-06-30T08:35:57Z</time>
      </trkpt>
      <trkpt lat="42.41957" lon="8.90255">
        <ele>1421.6</ele>
        <time>2015-06-30T08:35:59Z</time>
      </trkpt>
      <trkpt lat="42.41944" lon="8.90255">
        <ele>1421.2</ele>
        <time>2015-06-30T08:36:01Z</time>
      </trkpt>
      <trkpt lat="42.41936" lon="8.90258">
        <ele>1420.8</ele>
        <time>2015-06-30T08:36:03Z</time>
      </trkpt>
      <trkpt lat="42.41936" lon="8.90257">
        <ele>1420.6</ele>
        <time>2015-06-30T08:36:05Z</time>
      </trkpt>
      <trkpt lat="42.41936" lon="8.90254">
        <ele>1420</ele>
        <time>2015-06-30T08:36:21Z</time>
      </trkpt>
      <trkpt lat="42.4194" lon="8.90245">
        <ele>1418.8</ele>
        <time>2015-06-30T08:36:37Z</time>
      </trkpt>
      <trkpt lat="42.41943" lon="8.9024">
        <ele>1418.4</ele>
        <time>2015-06-30T08:36:41Z</time>
      </trkpt>
      <trkpt lat="42.41948" lon="8.90232">
        <ele>1417.6</ele>
        <time>2015-06-30T08:36:48Z</time>
      </trkpt>
      <trkpt lat="42.41949" lon="8.90232">
        <ele>1417.4</ele>
        <time>2015-06-30T08:36:51Z</time>
      </trkpt>
      <trkpt lat="42.41947" lon="8.90227">
        <ele>1416.4</ele>
        <time>2015-06-30T08:37:00Z</time>
      </trkpt>
      <trkpt lat="42.41946" lon="8.90222">
        <ele>1414.8</ele>
        <time>2015-06-30T08:37:12Z</time>
      </trkpt>
      <trkpt lat="42.41948" lon="8.90227">
        <ele>1414.4</ele>
        <time>2015-06-30T08:37:18Z</time>
      </trkpt>
      <trkpt lat="42.41948" lon="8.90228">
        <ele>1414.2</ele>
        <time>2015-06-30T08:37:20Z</time>
      </trkpt>
      <trkpt lat="42.41949" lon="8.90227">
        <ele>1413.8</ele>
        <time>2015-06-30T08:37:24Z</time>
      </trkpt>
      <trkpt lat="42.41949" lon="8.90224">
        <ele>1413</ele>
        <time>2015-06-30T08:37:32Z</time>
      </trkpt>
      <trkpt lat="42.41952" lon="8.90224">
        <ele>1411.6</ele>
        <time>2015-06-30T08:37:44Z</time>
      </trkpt>
      <trkpt lat="42.41954" lon="8.90222">
        <ele>1410.4</ele>
        <time>2015-06-30T08:37:55Z</time>
      </trkpt>
      <trkpt lat="42.41954" lon="8.90219">
        <ele>1409.8</ele>
        <time>2015-06-30T08:38:01Z</time>
      </trkpt>
      <trkpt lat="42.41953" lon="8.90217">
        <ele>1409</ele>
        <time>2015-06-30T08:38:08Z</time>
      </trkpt>
      <trkpt lat="42.41953" lon="8.90213">
        <ele>1407.8</ele>
        <time>2015-06-30T08:38:15Z</time>
      </trkpt>
      <trkpt lat="42.41952" lon="8.90212">
        <ele>1407</ele>
        <time>2015-06-30T08:38:20Z</time>
      </trkpt>
      <trkpt lat="42.41953" lon="8.90208">
        <ele>1405.6</ele>
        <time>2015-06-30T08:38:26Z</time>
      </trkpt>
      <trkpt lat="42.41952" lon="8.90203">
        <ele>1404.4</ele>
        <time>2015-06-30T08:38:34Z</time>
      </trkpt>
      <trkpt lat="42.41954" lon="8.90201">
        <ele>1403.2</ele>
        <time>2015-06-30T08:38:40Z</time>
      </trkpt>
      <trkpt lat="42.41954" lon="8.90195">
        <ele>1401.8</ele>
        <time>2015-06-30T08:38:48Z</time>
      </trkpt>
      <trkpt lat="42.41955" lon="8.90192">
        <ele>1401.2</ele>
        <time>2015-06-30T08:38:55Z</time>
      </trkpt>
      <trkpt lat="42.41956" lon="8.90191">
        <ele>1399.8</ele>
        <time>2015-06-30T08:39:02Z</time>
      </trkpt>
      <trkpt lat="42.41955" lon="8.90187">
        <ele>1398.8</ele>
        <time>2015-06-30T08:39:08Z</time>
      </trkpt>
      <trkpt lat="42.41955" lon="8.90182">
        <ele>1397.4</ele>
        <time>2015-06-30T08:39:16Z</time>
      </trkpt>
      <trkpt lat="42.4196" lon="8.90187">
        <ele>1396.4</ele>
        <time>2015-06-30T08:39:34Z</time>
      </trkpt>
      <trkpt lat="42.41962" lon="8.90189">
        <ele>1396</ele>
        <time>2015-06-30T08:39:39Z</time>
      </trkpt>
      <trkpt lat="42.41966" lon="8.90191">
        <ele>1394.4</ele>
        <time>2015-06-30T08:39:48Z</time>
      </trkpt>
      <trkpt lat="42.41971" lon="8.90193">
        <ele>1393.2</ele>
        <time>2015-06-30T08:39:56Z</time>
      </trkpt>
      <trkpt lat="42.41971" lon="8.9019">
        <ele>1392.8</ele>
        <time>2015-06-30T08:40:01Z</time>
      </trkpt>
      <trkpt lat="42.41971" lon="8.90186">
        <ele>1391.4</ele>
        <time>2015-06-30T08:40:07Z</time>
      </trkpt>
      <trkpt lat="42.4197" lon="8.90182">
        <ele>1390.6</ele>
        <time>2015-06-30T08:40:12Z</time>
      </trkpt>
      <trkpt lat="42.41969" lon="8.90178">
        <ele>1389.2</ele>
        <time>2015-06-30T08:40:18Z</time>
      </trkpt>
      <trkpt lat="42.41971" lon="8.90176">
        <ele>1387.8</ele>
        <time>2015-06-30T08:40:25Z</time>
      </trkpt>
      <trkpt lat="42.41974" lon="8.90172">
        <ele>1387</ele>
        <time>2015-06-30T08:40:33Z</time>
      </trkpt>
      <trkpt lat="42.41975" lon="8.90173">
        <ele>1386.8</ele>
        <time>2015-06-30T08:40:34Z</time>
      </trkpt>
      <trkpt lat="42.41975" lon="8.90172">
        <ele>1386.2</ele>
        <time>2015-06-30T08:40:38Z</time>
      </trkpt>
      <trkpt lat="42.41974" lon="8.90167">
        <ele>1385</ele>
        <time>2015-06-30T08:40:44Z</time>
      </trkpt>
      <trkpt lat="42.41975" lon="8.90162">
        <ele>1383.8</ele>
        <time>2015-06-30T08:40:51Z</time>
      </trkpt>
      <trkpt lat="42.41976" lon="8.90157">
        <ele>1382.4</ele>
        <time>2015-06-30T08:40:58Z</time>
      </trkpt>
      <trkpt lat="42.41977" lon="8.90152">
        <ele>1382</ele>
        <time>2015-06-30T08:41:03Z</time>
      </trkpt>
      <trkpt lat="42.41979" lon="8.90143">
        <ele>1380</ele>
        <time>2015-06-30T08:41:12Z</time>
      </trkpt>
      <trkpt lat="42.41981" lon="8.90141">
        <ele>1379.6</ele>
        <time>2015-06-30T08:41:15Z</time>
      </trkpt>
      <trkpt lat="42.41982" lon="8.90138">
        <ele>1379.4</ele>
        <time>2015-06-30T08:41:18Z</time>
      </trkpt>
      <trkpt lat="42.41982" lon="8.90135">
        <ele>1378.4</ele>
        <time>2015-06-30T08:41:25Z</time>
      </trkpt>
      <trkpt lat="42.41983" lon="8.90132">
        <ele>1377.2</ele>
        <time>2015-06-30T08:41:32Z</time>
      </trkpt>
      <trkpt lat="42.41983" lon="8.90131">
        <ele>1376</ele>
        <time>2015-06-30T08:41:39Z</time>
      </trkpt>
      <trkpt lat="42.41985" lon="8.90127">
        <ele>1374.8</ele>
        <time>2015-06-30T08:41:49Z</time>
      </trkpt>
      <trkpt lat="42.41986" lon="8.90123">
        <ele>1374</ele>
        <time>2015-06-30T08:41:56Z</time>
      </trkpt>
      <trkpt lat="42.41988" lon="8.9012">
        <ele>1373</ele>
        <time>2015-06-30T08:42:01Z</time>
      </trkpt>
      <trkpt lat="42.41989" lon="8.90114">
        <ele>1371.6</ele>
        <time>2015-06-30T08:42:09Z</time>
      </trkpt>
      <trkpt lat="42.41991" lon="8.90111">
        <ele>1371</ele>
        <time>2015-06-30T08:42:15Z</time>
      </trkpt>
      <trkpt lat="42.41993" lon="8.90108">
        <ele>1369.4</ele>
        <time>2015-06-30T08:42:22Z</time>
      </trkpt>
      <trkpt lat="42.41994" lon="8.90105">
        <ele>1368.2</ele>
        <time>2015-06-30T08:42:30Z</time>
      </trkpt>
      <trkpt lat="42.41996" lon="8.90103">
        <ele>1367.6</ele>
        <time>2015-06-30T08:42:36Z</time>
      </trkpt>
      <trkpt lat="42.41996" lon="8.90098">
        <ele>1366.2</ele>
        <time>2015-06-30T08:42:42Z</time>
      </trkpt>
      <trkpt lat="42.41997" lon="8.90097">
        <ele>1365.6</ele>
        <time>2015-06-30T08:42:46Z</time>
      </trkpt>
      <trkpt lat="42.41997" lon="8.90095">
        <ele>1365</ele>
        <time>2015-06-30T08:42:55Z</time>
      </trkpt>
      <trkpt lat="42.41997" lon="8.90094">
        <ele>1364.2</ele>
        <time>2015-06-30T08:43:02Z</time>
      </trkpt>
      <trkpt lat="42.41995" lon="8.90094">
        <ele>1363</ele>
        <time>2015-06-30T08:43:15Z</time>
      </trkpt>
      <trkpt lat="42.41996" lon="8.90093">
        <ele>1362</ele>
        <time>2015-06-30T08:43:26Z</time>
      </trkpt>
      <trkpt lat="42.41996" lon="8.90091">
        <ele>1361</ele>
        <time>2015-06-30T08:43:35Z</time>
      </trkpt>
      <trkpt lat="42.41998" lon="8.90091">
        <ele>1360.4</ele>
        <time>2015-06-30T08:43:40Z</time>
      </trkpt>
      <trkpt lat="42.42003" lon="8.90089">
        <ele>1359.4</ele>
        <time>2015-06-30T08:43:46Z</time>
      </trkpt>
      <trkpt lat="42.42003" lon="8.90084">
        <ele>1359</ele>
        <time>2015-06-30T08:43:48Z</time>
      </trkpt>
      <trkpt lat="42.42005" lon="8.90079">
        <ele>1358.6</ele>
        <time>2015-06-30T08:43:51Z</time>
      </trkpt>
      <trkpt lat="42.42005" lon="8.90076">
        <ele>1357.4</ele>
        <time>2015-06-30T08:43:56Z</time>
      </trkpt>
      <trkpt lat="42.42005" lon="8.90069">
        <ele>1355.8</ele>
        <time>2015-06-30T08:44:03Z</time>
      </trkpt>
      <trkpt lat="42.42006" lon="8.90066">
        <ele>1355.2</ele>
        <time>2015-06-30T08:44:07Z</time>
      </trkpt>
      <trkpt lat="42.42007" lon="8.90064">
        <ele>1354.2</ele>
        <time>2015-06-30T08:44:12Z</time>
      </trkpt>
      <trkpt lat="42.42009" lon="8.90061">
        <ele>1352.8</ele>
        <time>2015-06-30T08:44:18Z</time>
      </trkpt>
      <trkpt lat="42.4201" lon="8.90058">
        <ele>1351.8</ele>
        <time>2015-06-30T08:44:24Z</time>
      </trkpt>
      <trkpt lat="42.42011" lon="8.90056">
        <ele>1350.6</ele>
        <time>2015-06-30T08:44:30Z</time>
      </trkpt>
      <trkpt lat="42.42013" lon="8.90051">
        <ele>1349.8</ele>
        <time>2015-06-30T08:44:35Z</time>
      </trkpt>
      <trkpt lat="42.42014" lon="8.90047">
        <ele>1348.4</ele>
        <time>2015-06-30T08:44:41Z</time>
      </trkpt>
      <trkpt lat="42.42016" lon="8.90043">
        <ele>1347.2</ele>
        <time>2015-06-30T08:44:46Z</time>
      </trkpt>
      <trkpt lat="42.42019" lon="8.9004">
        <ele>1346.4</ele>
        <time>2015-06-30T08:44:50Z</time>
      </trkpt>
      <trkpt lat="42.4202" lon="8.90038">
        <ele>1344.8</ele>
        <time>2015-06-30T08:44:55Z</time>
      </trkpt>
      <trkpt lat="42.42021" lon="8.90038">
        <ele>1343.4</ele>
        <time>2015-06-30T08:45:04Z</time>
      </trkpt>
      <trkpt lat="42.42022" lon="8.90044">
        <ele>1342.2</ele>
        <time>2015-06-30T08:45:11Z</time>
      </trkpt>
      <trkpt lat="42.42022" lon="8.90048">
        <ele>1341.8</ele>
        <time>2015-06-30T08:45:15Z</time>
      </trkpt>
      <trkpt lat="42.42024" lon="8.9004">
        <ele>1340.6</ele>
        <time>2015-06-30T08:45:33Z</time>
      </trkpt>
      <trkpt lat="42.42025" lon="8.90037">
        <ele>1340.4</ele>
        <time>2015-06-30T08:45:34Z</time>
      </trkpt>
      <trkpt lat="42.42025" lon="8.90036">
        <ele>1340.2</ele>
        <time>2015-06-30T08:45:37Z</time>
      </trkpt>
      <trkpt lat="42.42019" lon="8.90033">
        <ele>1338.4</ele>
        <time>2015-06-30T08:45:54Z</time>
      </trkpt>
      <trkpt lat="42.42019" lon="8.90028">
        <ele>1338.2</ele>
        <time>2015-06-30T08:46:05Z</time>
      </trkpt>
      <trkpt lat="42.42026" lon="8.90024">
        <ele>1336.8</ele>
        <time>2015-06-30T08:46:41Z</time>
      </trkpt>
      <trkpt lat="42.42027" lon="8.90023">
        <ele>1335.8</ele>
        <time>2015-06-30T08:46:52Z</time>
      </trkpt>
      <trkpt lat="42.42027" lon="8.90021">
        <ele>1334.6</ele>
        <time>2015-06-30T08:47:01Z</time>
      </trkpt>
      <trkpt lat="42.42032" lon="8.90016">
        <ele>1333.8</ele>
        <time>2015-06-30T08:47:10Z</time>
      </trkpt>
      <trkpt lat="42.42032" lon="8.90015">
        <ele>1332.6</ele>
        <time>2015-06-30T08:47:18Z</time>
      </trkpt>
      <trkpt lat="42.42035" lon="8.90016">
        <ele>1330.8</ele>
        <time>2015-06-30T08:47:33Z</time>
      </trkpt>
      <trkpt lat="42.42034" lon="8.90013">
        <ele>1330.6</ele>
        <time>2015-06-30T08:47:39Z</time>
      </trkpt>
      <trkpt lat="42.42037" lon="8.9001">
        <ele>1329.2</ele>
        <time>2015-06-30T08:47:46Z</time>
      </trkpt>
      <trkpt lat="42.42038" lon="8.90005">
        <ele>1328</ele>
        <time>2015-06-30T08:47:52Z</time>
      </trkpt>
      <trkpt lat="42.42035" lon="8.89999">
        <ele>1327</ele>
        <time>2015-06-30T08:47:57Z</time>
      </trkpt>
      <trkpt lat="42.42034" lon="8.89992">
        <ele>1325.4</ele>
        <time>2015-06-30T08:48:04Z</time>
      </trkpt>
      <trkpt lat="42.42037" lon="8.89988">
        <ele>1324.6</ele>
        <time>2015-06-30T08:48:10Z</time>
      </trkpt>
      <trkpt lat="42.4204" lon="8.89984">
        <ele>1323.4</ele>
        <time>2015-06-30T08:48:15Z</time>
      </trkpt>
      <trkpt lat="42.42042" lon="8.89977">
        <ele>1322</ele>
        <time>2015-06-30T08:48:22Z</time>
      </trkpt>
      <trkpt lat="42.42042" lon="8.89974">
        <ele>1321.2</ele>
        <time>2015-06-30T08:48:26Z</time>
      </trkpt>
      <trkpt lat="42.42042" lon="8.89972">
        <ele>1321</ele>
        <time>2015-06-30T08:48:28Z</time>
      </trkpt>
      <trkpt lat="42.42048" lon="8.89971">
        <ele>1318.8</ele>
        <time>2015-06-30T08:48:41Z</time>
      </trkpt>
      <trkpt lat="42.42053" lon="8.89975">
        <ele>1318.4</ele>
        <time>2015-06-30T08:48:49Z</time>
      </trkpt>
      <trkpt lat="42.42049" lon="8.8998">
        <ele>1317.8</ele>
        <time>2015-06-30T08:48:55Z</time>
      </trkpt>
      <trkpt lat="42.42051" lon="8.8997">
        <ele>1317.4</ele>
        <time>2015-06-30T08:49:15Z</time>
      </trkpt>
      <trkpt lat="42.42055" lon="8.89973">
        <ele>1316.6</ele>
        <time>2015-06-30T08:49:24Z</time>
      </trkpt>
      <trkpt lat="42.42054" lon="8.89974">
        <ele>1315.4</ele>
        <time>2015-06-30T08:49:32Z</time>
      </trkpt>
      <trkpt lat="42.42053" lon="8.8997">
        <ele>1315</ele>
        <time>2015-06-30T08:49:36Z</time>
      </trkpt>
      <trkpt lat="42.42056" lon="8.89965">
        <ele>1313</ele>
        <time>2015-06-30T08:49:45Z</time>
      </trkpt>
      <trkpt lat="42.42058" lon="8.89959">
        <ele>1311.8</ele>
        <time>2015-06-30T08:49:53Z</time>
      </trkpt>
      <trkpt lat="42.42057" lon="8.89954">
        <ele>1311</ele>
        <time>2015-06-30T08:49:58Z</time>
      </trkpt>
      <trkpt lat="42.42055" lon="8.8995">
        <ele>1310.2</ele>
        <time>2015-06-30T08:50:02Z</time>
      </trkpt>
      <trkpt lat="42.42055" lon="8.8995">
        <ele>1309.8</ele>
        <time>2015-06-30T08:50:03Z</time>
      </trkpt>
      <trkpt lat="42.42054" lon="8.89948">
        <ele>1308.6</ele>
        <time>2015-06-30T08:50:08Z</time>
      </trkpt>
      <trkpt lat="42.42055" lon="8.89945">
        <ele>1307.2</ele>
        <time>2015-06-30T08:50:14Z</time>
      </trkpt>
      <trkpt lat="42.42055" lon="8.89939">
        <ele>1306</ele>
        <time>2015-06-30T08:50:20Z</time>
      </trkpt>
      <trkpt lat="42.42045" lon="8.89911">
        <ele>1303.6</ele>
        <time>2015-06-30T08:50:42Z</time>
      </trkpt>
      <trkpt lat="42.42046" lon="8.89919">
        <ele>1303.6</ele>
        <time>2015-06-30T08:50:47Z</time>
      </trkpt>
      <trkpt lat="42.42048" lon="8.89921">
        <ele>1303.4</ele>
        <time>2015-06-30T08:50:50Z</time>
      </trkpt>
      <trkpt lat="42.4205" lon="8.89922">
        <ele>1302.6</ele>
        <time>2015-06-30T08:51:03Z</time>
      </trkpt>
      <trkpt lat="42.4205" lon="8.89915">
        <ele>1300</ele>
        <time>2015-06-30T08:51:45Z</time>
      </trkpt>
      <trkpt lat="42.42053" lon="8.8991">
        <ele>1299.8</ele>
        <time>2015-06-30T08:51:49Z</time>
      </trkpt>
      <trkpt lat="42.42067" lon="8.89899">
        <ele>1298.6</ele>
        <time>2015-06-30T08:52:15Z</time>
      </trkpt>
      <trkpt lat="42.42074" lon="8.89894">
        <ele>1297.2</ele>
        <time>2015-06-30T08:52:29Z</time>
      </trkpt>
      <trkpt lat="42.42088" lon="8.89887">
        <ele>1295.6</ele>
        <time>2015-06-30T08:53:09Z</time>
      </trkpt>
      <trkpt lat="42.42092" lon="8.89887">
        <ele>1295</ele>
        <time>2015-06-30T08:53:17Z</time>
      </trkpt>
      <trkpt lat="42.42095" lon="8.89888">
        <ele>1294</ele>
        <time>2015-06-30T08:53:24Z</time>
      </trkpt>
      <trkpt lat="42.42097" lon="8.89889">
        <ele>1292.6</ele>
        <time>2015-06-30T08:53:31Z</time>
      </trkpt>
      <trkpt lat="42.42111" lon="8.89886">
        <ele>1289.8</ele>
        <time>2015-06-30T08:53:51Z</time>
      </trkpt>
      <trkpt lat="42.42113" lon="8.89887">
        <ele>1289.4</ele>
        <time>2015-06-30T08:53:54Z</time>
      </trkpt>
      <trkpt lat="42.42117" lon="8.89875">
        <ele>1287.8</ele>
        <time>2015-06-30T08:54:23Z</time>
      </trkpt>
      <trkpt lat="42.4212" lon="8.89872">
        <ele>1287.2</ele>
        <time>2015-06-30T08:54:31Z</time>
      </trkpt>
      <trkpt lat="42.42125" lon="8.89864">
        <ele>1285.4</ele>
        <time>2015-06-30T08:54:39Z</time>
      </trkpt>
      <trkpt lat="42.42127" lon="8.89849">
        <ele>1285</ele>
        <time>2015-06-30T08:54:44Z</time>
      </trkpt>
      <trkpt lat="42.42131" lon="8.89842">
        <ele>1284.8</ele>
        <time>2015-06-30T08:54:47Z</time>
      </trkpt>
      <trkpt lat="42.42132" lon="8.89843">
        <ele>1284.4</ele>
        <time>2015-06-30T08:54:49Z</time>
      </trkpt>
      <trkpt lat="42.42133" lon="8.89844">
        <ele>1284.4</ele>
        <time>2015-06-30T08:54:50Z</time>
      </trkpt>
      <trkpt lat="42.42139" lon="8.89833">
        <ele>1282.6</ele>
        <time>2015-06-30T08:55:18Z</time>
      </trkpt>
      <trkpt lat="42.4214" lon="8.89829">
        <ele>1282.6</ele>
        <time>2015-06-30T08:55:20Z</time>
      </trkpt>
      <trkpt lat="42.4214" lon="8.8983">
        <ele>1282.6</ele>
        <time>2015-06-30T08:55:23Z</time>
      </trkpt>
      <trkpt lat="42.42139" lon="8.89827">
        <ele>1282.4</ele>
        <time>2015-06-30T08:55:25Z</time>
      </trkpt>
      <trkpt lat="42.42135" lon="8.89817">
        <ele>1282.4</ele>
        <time>2015-06-30T08:55:28Z</time>
      </trkpt>
      <trkpt lat="42.42127" lon="8.89818">
        <ele>1282</ele>
        <time>2015-06-30T08:55:31Z</time>
      </trkpt>
      <trkpt lat="42.42126" lon="8.89801">
        <ele>1281.2</ele>
        <time>2015-06-30T08:55:36Z</time>
      </trkpt>
      <trkpt lat="42.42125" lon="8.89782">
        <ele>1281</ele>
        <time>2015-06-30T08:55:39Z</time>
      </trkpt>
      <trkpt lat="42.42123" lon="8.89753">
        <ele>1280.6</ele>
        <time>2015-06-30T08:55:43Z</time>
      </trkpt>
      <trkpt lat="42.42122" lon="8.89743">
        <ele>1280.4</ele>
        <time>2015-06-30T08:55:48Z</time>
      </trkpt>
      <trkpt lat="42.42125" lon="8.89749">
        <ele>1280.4</ele>
        <time>2015-06-30T08:55:49Z</time>
      </trkpt>
      <trkpt lat="42.42128" lon="8.89758">
        <ele>1279.4</ele>
        <time>2015-06-30T08:55:53Z</time>
      </trkpt>
      <trkpt lat="42.42132" lon="8.89766">
        <ele>1277.6</ele>
        <time>2015-06-30T08:56:02Z</time>
      </trkpt>
      <trkpt lat="42.42136" lon="8.89769">
        <ele>1277.2</ele>
        <time>2015-06-30T08:56:08Z</time>
      </trkpt>
      <trkpt lat="42.42136" lon="8.89782">
        <ele>1277</ele>
        <time>2015-06-30T08:56:14Z</time>
      </trkpt>
      <trkpt lat="42.42137" lon="8.89788">
        <ele>1277</ele>
        <time>2015-06-30T08:56:16Z</time>
      </trkpt>
      <trkpt lat="42.42138" lon="8.898">
        <ele>1277.2</ele>
        <time>2015-06-30T08:56:20Z</time>
      </trkpt>
      <trkpt lat="42.42139" lon="8.89802">
        <ele>1277.2</ele>
        <time>2015-06-30T08:56:21Z</time>
      </trkpt>
      <trkpt lat="42.42144" lon="8.89823">
        <ele>1277.2</ele>
        <time>2015-06-30T08:56:31Z</time>
      </trkpt>
      <trkpt lat="42.4215" lon="8.89852">
        <ele>1277</ele>
        <time>2015-06-30T08:56:40Z</time>
      </trkpt>
      <trkpt lat="42.42154" lon="8.89857">
        <ele>1277</ele>
        <time>2015-06-30T08:56:45Z</time>
      </trkpt>
      <trkpt lat="42.42155" lon="8.89859">
        <ele>1277</ele>
        <time>2015-06-30T08:56:47Z</time>
      </trkpt>
      <trkpt lat="42.42159" lon="8.89859">
        <ele>1276.6</ele>
        <time>2015-06-30T08:56:53Z</time>
      </trkpt>
      <trkpt lat="42.42164" lon="8.89855">
        <ele>1275.6</ele>
        <time>2015-06-30T08:57:00Z</time>
      </trkpt>
      <trkpt lat="42.42165" lon="8.89855">
        <ele>1275.4</ele>
        <time>2015-06-30T08:57:01Z</time>
      </trkpt>
      <trkpt lat="42.42165" lon="8.89854">
        <ele>1275.2</ele>
        <time>2015-06-30T08:57:03Z</time>
      </trkpt>
      <trkpt lat="42.42166" lon="8.89858">
        <ele>1274.8</ele>
        <time>2015-06-30T08:57:09Z</time>
      </trkpt>
      <trkpt lat="42.42167" lon="8.89852">
        <ele>1272.8</ele>
        <time>2015-06-30T08:57:34Z</time>
      </trkpt>
      <trkpt lat="42.4217" lon="8.89853">
        <ele>1272</ele>
        <time>2015-06-30T08:57:43Z</time>
      </trkpt>
      <trkpt lat="42.4217" lon="8.89857">
        <ele>1271.4</ele>
        <time>2015-06-30T08:57:49Z</time>
      </trkpt>
      <trkpt lat="42.42172" lon="8.89854">
        <ele>1270</ele>
        <time>2015-06-30T08:58:17Z</time>
      </trkpt>
      <trkpt lat="42.42175" lon="8.89854">
        <ele>1270</ele>
        <time>2015-06-30T08:58:19Z</time>
      </trkpt>
      <trkpt lat="42.42176" lon="8.89856">
        <ele>1269.6</ele>
        <time>2015-06-30T08:58:21Z</time>
      </trkpt>
      <trkpt lat="42.4218" lon="8.89872">
        <ele>1269.2</ele>
        <time>2015-06-30T08:58:27Z</time>
      </trkpt>
      <trkpt lat="42.42182" lon="8.8988">
        <ele>1268.8</ele>
        <time>2015-06-30T08:58:32Z</time>
      </trkpt>
      <trkpt lat="42.4218" lon="8.89886">
        <ele>1268.4</ele>
        <time>2015-06-30T08:58:38Z</time>
      </trkpt>
      <trkpt lat="42.42181" lon="8.8987">
        <ele>1267</ele>
        <time>2015-06-30T08:58:45Z</time>
      </trkpt>
      <trkpt lat="42.42181" lon="8.89865">
        <ele>1266.8</ele>
        <time>2015-06-30T08:58:47Z</time>
      </trkpt>
      <trkpt lat="42.42191" lon="8.89857">
        <ele>1266.8</ele>
        <time>2015-06-30T08:59:26Z</time>
      </trkpt>
      <trkpt lat="42.42186" lon="8.8987">
        <ele>1265.8</ele>
        <time>2015-06-30T08:59:44Z</time>
      </trkpt>
      <trkpt lat="42.42187" lon="8.8987">
        <ele>1265.8</ele>
        <time>2015-06-30T08:59:46Z</time>
      </trkpt>
      <trkpt lat="42.42186" lon="8.89864">
        <ele>1266</ele>
        <time>2015-06-30T08:59:51Z</time>
      </trkpt>
      <trkpt lat="42.42187" lon="8.89853">
        <ele>1265.8</ele>
        <time>2015-06-30T08:59:55Z</time>
      </trkpt>
      <trkpt lat="42.42189" lon="8.89848">
        <ele>1266</ele>
        <time>2015-06-30T08:59:58Z</time>
      </trkpt>
      <trkpt lat="42.42192" lon="8.89845">
        <ele>1266</ele>
        <time>2015-06-30T09:00:00Z</time>
      </trkpt>
      <trkpt lat="42.42196" lon="8.89834">
        <ele>1265.8</ele>
        <time>2015-06-30T09:00:04Z</time>
      </trkpt>
      <trkpt lat="42.42196" lon="8.898">
        <ele>1265.6</ele>
        <time>2015-06-30T09:00:07Z</time>
      </trkpt>
      <trkpt lat="42.42204" lon="8.8982">
        <ele>1265.2</ele>
        <time>2015-06-30T09:00:13Z</time>
      </trkpt>
      <trkpt lat="42.42205" lon="8.8982">
        <ele>1265.2</ele>
        <time>2015-06-30T09:00:15Z</time>
      </trkpt>
      <trkpt lat="42.42205" lon="8.89826">
        <ele>1265.2</ele>
        <time>2015-06-30T09:00:20Z</time>
      </trkpt>
      <trkpt lat="42.42206" lon="8.89829">
        <ele>1265.2</ele>
        <time>2015-06-30T09:00:24Z</time>
      </trkpt>
      <trkpt lat="42.42208" lon="8.89831">
        <ele>1265</ele>
        <time>2015-06-30T09:00:29Z</time>
      </trkpt>
      <trkpt lat="42.42212" lon="8.89829">
        <ele>1264</ele>
        <time>2015-06-30T09:00:36Z</time>
      </trkpt>
      <trkpt lat="42.42217" lon="8.89818">
        <ele>1262.8</ele>
        <time>2015-06-30T09:00:43Z</time>
      </trkpt>
      <trkpt lat="42.42221" lon="8.89825">
        <ele>1262.2</ele>
        <time>2015-06-30T09:00:48Z</time>
      </trkpt>
      <trkpt lat="42.42224" lon="8.89826">
        <ele>1261.6</ele>
        <time>2015-06-30T09:00:52Z</time>
      </trkpt>
      <trkpt lat="42.42223" lon="8.89833">
        <ele>1260.6</ele>
        <time>2015-06-30T09:01:01Z</time>
      </trkpt>
      <trkpt lat="42.42224" lon="8.89834">
        <ele>1260</ele>
        <time>2015-06-30T09:01:39Z</time>
      </trkpt>
      <trkpt lat="42.42227" lon="8.89837">
        <ele>1259.4</ele>
        <time>2015-06-30T09:01:48Z</time>
      </trkpt>
      <trkpt lat="42.42229" lon="8.89838">
        <ele>1258</ele>
        <time>2015-06-30T09:02:00Z</time>
      </trkpt>
      <trkpt lat="42.42233" lon="8.89836">
        <ele>1257</ele>
        <time>2015-06-30T09:02:09Z</time>
      </trkpt>
      <trkpt lat="42.42237" lon="8.89835">
        <ele>1255.8</ele>
        <time>2015-06-30T09:02:25Z</time>
      </trkpt>
      <trkpt lat="42.42239" lon="8.89834">
        <ele>1255.6</ele>
        <time>2015-06-30T09:02:30Z</time>
      </trkpt>
      <trkpt lat="42.42242" lon="8.89833">
        <ele>1254.2</ele>
        <time>2015-06-30T09:02:38Z</time>
      </trkpt>
      <trkpt lat="42.42245" lon="8.89833">
        <ele>1253.8</ele>
        <time>2015-06-30T09:02:43Z</time>
      </trkpt>
      <trkpt lat="42.42246" lon="8.89832">
        <ele>1252.8</ele>
        <time>2015-06-30T09:02:49Z</time>
      </trkpt>
      <trkpt lat="42.42249" lon="8.89831">
        <ele>1251.6</ele>
        <time>2015-06-30T09:02:55Z</time>
      </trkpt>
      <trkpt lat="42.42254" lon="8.8983">
        <ele>1250.4</ele>
        <time>2015-06-30T09:03:17Z</time>
      </trkpt>
      <trkpt lat="42.42256" lon="8.8983">
        <ele>1250</ele>
        <time>2015-06-30T09:03:23Z</time>
      </trkpt>
      <trkpt lat="42.42258" lon="8.89828">
        <ele>1248.6</ele>
        <time>2015-06-30T09:03:35Z</time>
      </trkpt>
      <trkpt lat="42.42259" lon="8.89828">
        <ele>1247.8</ele>
        <time>2015-06-30T09:03:46Z</time>
      </trkpt>
      <trkpt lat="42.42261" lon="8.89829">
        <ele>1247</ele>
        <time>2015-06-30T09:04:01Z</time>
      </trkpt>
      <trkpt lat="42.42264" lon="8.89827">
        <ele>1246.2</ele>
        <time>2015-06-30T09:04:09Z</time>
      </trkpt>
      <trkpt lat="42.42265" lon="8.89825">
        <ele>1245.2</ele>
        <time>2015-06-30T09:04:17Z</time>
      </trkpt>
      <trkpt lat="42.42268" lon="8.89825">
        <ele>1244.2</ele>
        <time>2015-06-30T09:04:25Z</time>
      </trkpt>
      <trkpt lat="42.42273" lon="8.89829">
        <ele>1242.8</ele>
        <time>2015-06-30T09:04:33Z</time>
      </trkpt>
      <trkpt lat="42.42277" lon="8.89831">
        <ele>1241.6</ele>
        <time>2015-06-30T09:04:51Z</time>
      </trkpt>
      <trkpt lat="42.42282" lon="8.89832">
        <ele>1241</ele>
        <time>2015-06-30T09:04:59Z</time>
      </trkpt>
      <trkpt lat="42.42286" lon="8.89828">
        <ele>1239.8</ele>
        <time>2015-06-30T09:05:10Z</time>
      </trkpt>
      <trkpt lat="42.42293" lon="8.89817">
        <ele>1238.8</ele>
        <time>2015-06-30T09:05:28Z</time>
      </trkpt>
      <trkpt lat="42.42297" lon="8.89815">
        <ele>1238.2</ele>
        <time>2015-06-30T09:05:38Z</time>
      </trkpt>
      <trkpt lat="42.42298" lon="8.89819">
        <ele>1237</ele>
        <time>2015-06-30T09:05:50Z</time>
      </trkpt>
      <trkpt lat="42.42301" lon="8.89816">
        <ele>1236.6</ele>
        <time>2015-06-30T09:05:55Z</time>
      </trkpt>
      <trkpt lat="42.42303" lon="8.89815">
        <ele>1235.4</ele>
        <time>2015-06-30T09:06:02Z</time>
      </trkpt>
      <trkpt lat="42.42308" lon="8.89811">
        <ele>1235.2</ele>
        <time>2015-06-30T09:06:05Z</time>
      </trkpt>
      <trkpt lat="42.4231" lon="8.89808">
        <ele>1235</ele>
        <time>2015-06-30T09:06:07Z</time>
      </trkpt>
      <trkpt lat="42.42319" lon="8.89797">
        <ele>1234.2</ele>
        <time>2015-06-30T09:06:25Z</time>
      </trkpt>
      <trkpt lat="42.42321" lon="8.89795">
        <ele>1233.8</ele>
        <time>2015-06-30T09:06:39Z</time>
      </trkpt>
      <trkpt lat="42.42324" lon="8.89793">
        <ele>1233.2</ele>
        <time>2015-06-30T09:06:45Z</time>
      </trkpt>
      <trkpt lat="42.42328" lon="8.89793">
        <ele>1232</ele>
        <time>2015-06-30T09:06:52Z</time>
      </trkpt>
      <trkpt lat="42.42331" lon="8.89792">
        <ele>1230.8</ele>
        <time>2015-06-30T09:06:58Z</time>
      </trkpt>
      <trkpt lat="42.42332" lon="8.89791">
        <ele>1230.2</ele>
        <time>2015-06-30T09:07:02Z</time>
      </trkpt>
      <trkpt lat="42.42333" lon="8.89788">
        <ele>1228.6</ele>
        <time>2015-06-30T09:07:09Z</time>
      </trkpt>
      <trkpt lat="42.42333" lon="8.89787">
        <ele>1227.8</ele>
        <time>2015-06-30T09:07:17Z</time>
      </trkpt>
      <trkpt lat="42.42334" lon="8.89784">
        <ele>1227.2</ele>
        <time>2015-06-30T09:07:21Z</time>
      </trkpt>
      <trkpt lat="42.42337" lon="8.89775">
        <ele>1225.8</ele>
        <time>2015-06-30T09:07:27Z</time>
      </trkpt>
      <trkpt lat="42.42338" lon="8.89769">
        <ele>1225</ele>
        <time>2015-06-30T09:07:33Z</time>
      </trkpt>
      <trkpt lat="42.42366" lon="8.89767">
        <ele>1225.2</ele>
        <time>2015-06-30T09:08:39Z</time>
      </trkpt>
      <trkpt lat="42.42369" lon="8.89768">
        <ele>1224.8</ele>
        <time>2015-06-30T09:08:44Z</time>
      </trkpt>
      <trkpt lat="42.42374" lon="8.89769">
        <ele>1223</ele>
        <time>2015-06-30T09:08:52Z</time>
      </trkpt>
      <trkpt lat="42.42377" lon="8.89771">
        <ele>1222.2</ele>
        <time>2015-06-30T09:09:24Z</time>
      </trkpt>
      <trkpt lat="42.4238" lon="8.89768">
        <ele>1222.4</ele>
        <time>2015-06-30T09:09:53Z</time>
      </trkpt>
      <trkpt lat="42.42381" lon="8.8977">
        <ele>1221.4</ele>
        <time>2015-06-30T09:09:59Z</time>
      </trkpt>
      <trkpt lat="42.42382" lon="8.89772">
        <ele>1220.4</ele>
        <time>2015-06-30T09:10:05Z</time>
      </trkpt>
      <trkpt lat="42.4238" lon="8.89778">
        <ele>1219.2</ele>
        <time>2015-06-30T09:10:15Z</time>
      </trkpt>
      <trkpt lat="42.42379" lon="8.89783">
        <ele>1218.4</ele>
        <time>2015-06-30T09:10:21Z</time>
      </trkpt>
      <trkpt lat="42.42377" lon="8.89787">
        <ele>1217.6</ele>
        <time>2015-06-30T09:10:26Z</time>
      </trkpt>
      <trkpt lat="42.42378" lon="8.89789">
        <ele>1216.4</ele>
        <time>2015-06-30T09:10:32Z</time>
      </trkpt>
      <trkpt lat="42.42384" lon="8.89789">
        <ele>1215</ele>
        <time>2015-06-30T09:10:40Z</time>
      </trkpt>
      <trkpt lat="42.42387" lon="8.89782">
        <ele>1214.2</ele>
        <time>2015-06-30T09:10:47Z</time>
      </trkpt>
      <trkpt lat="42.42388" lon="8.89781">
        <ele>1214</ele>
        <time>2015-06-30T09:10:49Z</time>
      </trkpt>
      <trkpt lat="42.42396" lon="8.89771">
        <ele>1213</ele>
        <time>2015-06-30T09:10:57Z</time>
      </trkpt>
      <trkpt lat="42.424" lon="8.89765">
        <ele>1212</ele>
        <time>2015-06-30T09:11:11Z</time>
      </trkpt>
      <trkpt lat="42.42403" lon="8.89767">
        <ele>1211.6</ele>
        <time>2015-06-30T09:11:16Z</time>
      </trkpt>
      <trkpt lat="42.42405" lon="8.89766">
        <ele>1210.2</ele>
        <time>2015-06-30T09:11:22Z</time>
      </trkpt>
      <trkpt lat="42.42408" lon="8.89766">
        <ele>1209.2</ele>
        <time>2015-06-30T09:11:28Z</time>
      </trkpt>
      <trkpt lat="42.4241" lon="8.89767">
        <ele>1208.2</ele>
        <time>2015-06-30T09:11:34Z</time>
      </trkpt>
      <trkpt lat="42.42412" lon="8.89766">
        <ele>1207.4</ele>
        <time>2015-06-30T09:11:40Z</time>
      </trkpt>
      <trkpt lat="42.42414" lon="8.89768">
        <ele>1205.8</ele>
        <time>2015-06-30T09:11:50Z</time>
      </trkpt>
      <trkpt lat="42.42416" lon="8.89771">
        <ele>1205</ele>
        <time>2015-06-30T09:11:58Z</time>
      </trkpt>
      <trkpt lat="42.42417" lon="8.89771">
        <ele>1204.6</ele>
        <time>2015-06-30T09:12:02Z</time>
      </trkpt>
      <trkpt lat="42.42418" lon="8.8977">
        <ele>1204</ele>
        <time>2015-06-30T09:12:05Z</time>
      </trkpt>
      <trkpt lat="42.4242" lon="8.89772">
        <ele>1202.8</ele>
        <time>2015-06-30T09:12:14Z</time>
      </trkpt>
      <trkpt lat="42.4243" lon="8.89776">
        <ele>1201.4</ele>
        <time>2015-06-30T09:12:37Z</time>
      </trkpt>
      <trkpt lat="42.42431" lon="8.8978">
        <ele>1201.2</ele>
        <time>2015-06-30T09:12:42Z</time>
      </trkpt>
      <trkpt lat="42.42431" lon="8.89786">
        <ele>1199.8</ele>
        <time>2015-06-30T09:12:51Z</time>
      </trkpt>
      <trkpt lat="42.42422" lon="8.89789">
        <ele>1199.6</ele>
        <time>2015-06-30T09:14:02Z</time>
      </trkpt>
      <trkpt lat="42.42421" lon="8.89796">
        <ele>1200.2</ele>
        <time>2015-06-30T09:14:34Z</time>
      </trkpt>
      <trkpt lat="42.42424" lon="8.89789">
        <ele>1201.8</ele>
        <time>2015-06-30T09:15:04Z</time>
      </trkpt>
      <trkpt lat="42.42425" lon="8.89787">
        <ele>1202</ele>
        <time>2015-06-30T09:15:07Z</time>
      </trkpt>
      <trkpt lat="42.42425" lon="8.89784">
        <ele>1202.6</ele>
        <time>2015-06-30T09:15:11Z</time>
      </trkpt>
      <trkpt lat="42.42429" lon="8.89784">
        <ele>1203.8</ele>
        <time>2015-06-30T09:15:24Z</time>
      </trkpt>
      <trkpt lat="42.42431" lon="8.89787">
        <ele>1203.8</ele>
        <time>2015-06-30T09:15:26Z</time>
      </trkpt>
      <trkpt lat="42.42436" lon="8.89797">
        <ele>1203.8</ele>
        <time>2015-06-30T09:15:33Z</time>
      </trkpt>
      <trkpt lat="42.42437" lon="8.89798">
        <ele>1204.2</ele>
        <time>2015-06-30T09:15:35Z</time>
      </trkpt>
      <trkpt lat="42.4245" lon="8.89796">
        <ele>1204</ele>
        <time>2015-06-30T09:15:57Z</time>
      </trkpt>
      <trkpt lat="42.42452" lon="8.89796">
        <ele>1203.4</ele>
        <time>2015-06-30T09:16:02Z</time>
      </trkpt>
      <trkpt lat="42.42461" lon="8.89803">
        <ele>1202.6</ele>
        <time>2015-06-30T09:16:22Z</time>
      </trkpt>
      <trkpt lat="42.4247" lon="8.89809">
        <ele>1204.6</ele>
        <time>2015-06-30T09:16:46Z</time>
      </trkpt>
      <trkpt lat="42.42475" lon="8.89811">
        <ele>1205.6</ele>
        <time>2015-06-30T09:16:59Z</time>
      </trkpt>
      <trkpt lat="42.42477" lon="8.89809">
        <ele>1206.8</ele>
        <time>2015-06-30T09:17:08Z</time>
      </trkpt>
      <trkpt lat="42.42484" lon="8.8981">
        <ele>1207</ele>
        <time>2015-06-30T09:17:27Z</time>
      </trkpt>
      <trkpt lat="42.4249" lon="8.89818">
        <ele>1207.4</ele>
        <time>2015-06-30T09:18:02Z</time>
      </trkpt>
      <trkpt lat="42.42492" lon="8.89817">
        <ele>1209.2</ele>
        <time>2015-06-30T09:18:19Z</time>
      </trkpt>
      <trkpt lat="42.42494" lon="8.8982">
        <ele>1209.8</ele>
        <time>2015-06-30T09:18:28Z</time>
      </trkpt>
      <trkpt lat="42.42492" lon="8.89825">
        <ele>1211.2</ele>
        <time>2015-06-30T09:18:37Z</time>
      </trkpt>
      <trkpt lat="42.42489" lon="8.89832">
        <ele>1212</ele>
        <time>2015-06-30T09:18:46Z</time>
      </trkpt>
      <trkpt lat="42.42488" lon="8.89836">
        <ele>1212.8</ele>
        <time>2015-06-30T09:18:51Z</time>
      </trkpt>
      <trkpt lat="42.42488" lon="8.89839">
        <ele>1214.6</ele>
        <time>2015-06-30T09:19:00Z</time>
      </trkpt>
      <trkpt lat="42.42489" lon="8.8984">
        <ele>1215.8</ele>
        <time>2015-06-30T09:19:12Z</time>
      </trkpt>
      <trkpt lat="42.4249" lon="8.89848">
        <ele>1217.4</ele>
        <time>2015-06-30T09:19:29Z</time>
      </trkpt>
      <trkpt lat="42.4249" lon="8.89852">
        <ele>1218.6</ele>
        <time>2015-06-30T09:19:38Z</time>
      </trkpt>
      <trkpt lat="42.42487" lon="8.89852">
        <ele>1219.8</ele>
        <time>2015-06-30T09:19:48Z</time>
      </trkpt>
      <trkpt lat="42.42485" lon="8.89855">
        <ele>1221</ele>
        <time>2015-06-30T09:19:56Z</time>
      </trkpt>
      <trkpt lat="42.4249" lon="8.89866">
        <ele>1222.8</ele>
        <time>2015-06-30T09:20:12Z</time>
      </trkpt>
      <trkpt lat="42.42501" lon="8.8988">
        <ele>1224.2</ele>
        <time>2015-06-30T09:20:39Z</time>
      </trkpt>
      <trkpt lat="42.42502" lon="8.89883">
        <ele>1225</ele>
        <time>2015-06-30T09:20:47Z</time>
      </trkpt>
      <trkpt lat="42.42509" lon="8.89895">
        <ele>1226.6</ele>
        <time>2015-06-30T09:21:07Z</time>
      </trkpt>
      <trkpt lat="42.42512" lon="8.89899">
        <ele>1227.8</ele>
        <time>2015-06-30T09:21:21Z</time>
      </trkpt>
      <trkpt lat="42.42517" lon="8.89899">
        <ele>1228.6</ele>
        <time>2015-06-30T09:21:37Z</time>
      </trkpt>
      <trkpt lat="42.4252" lon="8.899">
        <ele>1227.8</ele>
        <time>2015-06-30T09:21:42Z</time>
      </trkpt>
      <trkpt lat="42.42545" lon="8.89909">
        <ele>1228.4</ele>
        <time>2015-06-30T09:22:53Z</time>
      </trkpt>
      <trkpt lat="42.42547" lon="8.89906">
        <ele>1227.4</ele>
        <time>2015-06-30T09:23:03Z</time>
      </trkpt>
      <trkpt lat="42.42554" lon="8.89911">
        <ele>1226.2</ele>
        <time>2015-06-30T09:23:28Z</time>
      </trkpt>
      <trkpt lat="42.42557" lon="8.89917">
        <ele>1225.8</ele>
        <time>2015-06-30T09:23:43Z</time>
      </trkpt>
      <trkpt lat="42.42563" lon="8.89919">
        <ele>1224.6</ele>
        <time>2015-06-30T09:23:56Z</time>
      </trkpt>
      <trkpt lat="42.42568" lon="8.89923">
        <ele>1224.2</ele>
        <time>2015-06-30T09:24:04Z</time>
      </trkpt>
      <trkpt lat="42.42569" lon="8.89923">
        <ele>1224.2</ele>
        <time>2015-06-30T09:24:06Z</time>
      </trkpt>
      <trkpt lat="42.4257" lon="8.89926">
        <ele>1224.4</ele>
        <time>2015-06-30T09:24:16Z</time>
      </trkpt>
      <trkpt lat="42.4257" lon="8.89929">
        <ele>1225</ele>
        <time>2015-06-30T09:24:19Z</time>
      </trkpt>
      <trkpt lat="42.42571" lon="8.89933">
        <ele>1225.6</ele>
        <time>2015-06-30T09:24:23Z</time>
      </trkpt>
      <trkpt lat="42.42572" lon="8.89939">
        <ele>1226.6</ele>
        <time>2015-06-30T09:24:29Z</time>
      </trkpt>
      <trkpt lat="42.42574" lon="8.89942">
        <ele>1228</ele>
        <time>2015-06-30T09:24:38Z</time>
      </trkpt>
      <trkpt lat="42.42576" lon="8.89943">
        <ele>1229</ele>
        <time>2015-06-30T09:24:44Z</time>
      </trkpt>
      <trkpt lat="42.42581" lon="8.89949">
        <ele>1230.2</ele>
        <time>2015-06-30T09:24:51Z</time>
      </trkpt>
      <trkpt lat="42.42584" lon="8.89956">
        <ele>1231.6</ele>
        <time>2015-06-30T09:25:01Z</time>
      </trkpt>
      <trkpt lat="42.42586" lon="8.89961">
        <ele>1232.4</ele>
        <time>2015-06-30T09:25:07Z</time>
      </trkpt>
      <trkpt lat="42.42587" lon="8.89965">
        <ele>1233.4</ele>
        <time>2015-06-30T09:25:11Z</time>
      </trkpt>
      <trkpt lat="42.42588" lon="8.89968">
        <ele>1233.8</ele>
        <time>2015-06-30T09:25:14Z</time>
      </trkpt>
      <trkpt lat="42.42589" lon="8.89971">
        <ele>1234.8</ele>
        <time>2015-06-30T09:25:21Z</time>
      </trkpt>
      <trkpt lat="42.42594" lon="8.89974">
        <ele>1236</ele>
        <time>2015-06-30T09:25:29Z</time>
      </trkpt>
      <trkpt lat="42.426" lon="8.89977">
        <ele>1237.8</ele>
        <time>2015-06-30T09:25:44Z</time>
      </trkpt>
      <trkpt lat="42.42604" lon="8.89983">
        <ele>1238.6</ele>
        <time>2015-06-30T09:25:54Z</time>
      </trkpt>
      <trkpt lat="42.42608" lon="8.89987">
        <ele>1239.4</ele>
        <time>2015-06-30T09:26:01Z</time>
      </trkpt>
      <trkpt lat="42.42614" lon="8.89984">
        <ele>1240.2</ele>
        <time>2015-06-30T09:26:07Z</time>
      </trkpt>
      <trkpt lat="42.42615" lon="8.89982">
        <ele>1240.4</ele>
        <time>2015-06-30T09:26:10Z</time>
      </trkpt>
      <trkpt lat="42.42616" lon="8.89982">
        <ele>1240.2</ele>
        <time>2015-06-30T09:26:12Z</time>
      </trkpt>
      <trkpt lat="42.42623" lon="8.89986">
        <ele>1240</ele>
        <time>2015-06-30T09:26:29Z</time>
      </trkpt>
      <trkpt lat="42.42624" lon="8.89987">
        <ele>1240.2</ele>
        <time>2015-06-30T09:26:31Z</time>
      </trkpt>
      <trkpt lat="42.42628" lon="8.89994">
        <ele>1241.4</ele>
        <time>2015-06-30T09:26:40Z</time>
      </trkpt>
      <trkpt lat="42.42628" lon="8.89995">
        <ele>1241.6</ele>
        <time>2015-06-30T09:26:41Z</time>
      </trkpt>
      <trkpt lat="42.42631" lon="8.89999">
        <ele>1242.2</ele>
        <time>2015-06-30T09:26:47Z</time>
      </trkpt>
      <trkpt lat="42.42633" lon="8.90002">
        <ele>1242.4</ele>
        <time>2015-06-30T09:26:51Z</time>
      </trkpt>
      <trkpt lat="42.42636" lon="8.90015">
        <ele>1244</ele>
        <time>2015-06-30T09:27:06Z</time>
      </trkpt>
      <trkpt lat="42.42638" lon="8.90025">
        <ele>1245.2</ele>
        <time>2015-06-30T09:27:18Z</time>
      </trkpt>
      <trkpt lat="42.4263" lon="8.90033">
        <ele>1245.8</ele>
        <time>2015-06-30T09:27:42Z</time>
      </trkpt>
      <trkpt lat="42.42627" lon="8.90032">
        <ele>1245.6</ele>
        <time>2015-06-30T09:27:49Z</time>
      </trkpt>
      <trkpt lat="42.42626" lon="8.90037">
        <ele>1245.4</ele>
        <time>2015-06-30T09:28:16Z</time>
      </trkpt>
      <trkpt lat="42.4263" lon="8.90038">
        <ele>1245.8</ele>
        <time>2015-06-30T09:28:58Z</time>
      </trkpt>
      <trkpt lat="42.42626" lon="8.90026">
        <ele>1245.4</ele>
        <time>2015-06-30T09:29:25Z</time>
      </trkpt>
      <trkpt lat="42.42625" lon="8.90026">
        <ele>1245.2</ele>
        <time>2015-06-30T09:29:27Z</time>
      </trkpt>
      <trkpt lat="42.42626" lon="8.90035">
        <ele>1245.6</ele>
        <time>2015-06-30T09:29:39Z</time>
      </trkpt>
      <trkpt lat="42.42624" lon="8.90033">
        <ele>1245.2</ele>
        <time>2015-06-30T09:30:07Z</time>
      </trkpt>
      <trkpt lat="42.42635" lon="8.90037">
        <ele>1245.4</ele>
        <time>2015-06-30T09:30:51Z</time>
      </trkpt>
      <trkpt lat="42.42629" lon="8.90036">
        <ele>1245.2</ele>
        <time>2015-06-30T09:31:00Z</time>
      </trkpt>
      <trkpt lat="42.42629" lon="8.9003">
        <ele>1245.2</ele>
        <time>2015-06-30T09:32:16Z</time>
      </trkpt>
      <trkpt lat="42.42625" lon="8.90031">
        <ele>1245.2</ele>
        <time>2015-06-30T09:32:59Z</time>
      </trkpt>
      <trkpt lat="42.42624" lon="8.90035">
        <ele>1245.2</ele>
        <time>2015-06-30T09:34:10Z</time>
      </trkpt>
      <trkpt lat="42.42623" lon="8.90034">
        <ele>1245.4</ele>
        <time>2015-06-30T09:34:17Z</time>
      </trkpt>
      <trkpt lat="42.4263" lon="8.90036">
        <ele>1245.6</ele>
        <time>2015-06-30T09:34:42Z</time>
      </trkpt>
      <trkpt lat="42.42632" lon="8.90036">
        <ele>1245.4</ele>
        <time>2015-06-30T09:34:59Z</time>
      </trkpt>
      <trkpt lat="42.42632" lon="8.90036">
        <ele>1244.8</ele>
        <time>2015-06-30T09:35:00Z</time>
      </trkpt>
    </trkseg>
  </trk>
  <trk>
    <name><![CDATA[GR20 Carrozu - Ortu di u Piobbu]]></name>
    <trkseg>
      <trkpt lat="42.42628" lon="8.90052">
        <ele>1272</ele>
        <time>2015-07-01T03:58:32Z</time>
      </trkpt>
      <trkpt lat="42.42636" lon="8.90047">
        <ele>1271.8</ele>
        <time>2015-07-01T03:59:05Z</time>
      </trkpt>
      <trkpt lat="42.42634" lon="8.90042">
        <ele>1272</ele>
        <time>2015-07-01T03:59:13Z</time>
      </trkpt>
      <trkpt lat="42.42631" lon="8.90041">
        <ele>1271.8</ele>
        <time>2015-07-01T03:59:15Z</time>
      </trkpt>
      <trkpt lat="42.42623" lon="8.90044">
        <ele>1272.2</ele>
        <time>2015-07-01T03:59:32Z</time>
      </trkpt>
      <trkpt lat="42.42619" lon="8.90058">
        <ele>1272.4</ele>
        <time>2015-07-01T03:59:45Z</time>
      </trkpt>
      <trkpt lat="42.42601" lon="8.90075">
        <ele>1272.8</ele>
        <time>2015-07-01T04:00:22Z</time>
      </trkpt>
      <trkpt lat="42.42605" lon="8.90082">
        <ele>1273.6</ele>
        <time>2015-07-01T04:00:50Z</time>
      </trkpt>
      <trkpt lat="42.42605" lon="8.90084">
        <ele>1273.6</ele>
        <time>2015-07-01T04:00:52Z</time>
      </trkpt>
      <trkpt lat="42.42603" lon="8.90092">
        <ele>1274.6</ele>
        <time>2015-07-01T04:01:01Z</time>
      </trkpt>
      <trkpt lat="42.42602" lon="8.90102">
        <ele>1275.8</ele>
        <time>2015-07-01T04:01:13Z</time>
      </trkpt>
      <trkpt lat="42.42604" lon="8.90108">
        <ele>1276.4</ele>
        <time>2015-07-01T04:01:20Z</time>
      </trkpt>
      <trkpt lat="42.42611" lon="8.90122">
        <ele>1278.2</ele>
        <time>2015-07-01T04:01:42Z</time>
      </trkpt>
      <trkpt lat="42.42615" lon="8.90131">
        <ele>1279</ele>
        <time>2015-07-01T04:01:55Z</time>
      </trkpt>
      <trkpt lat="42.4262" lon="8.90137">
        <ele>1280</ele>
        <time>2015-07-01T04:02:02Z</time>
      </trkpt>
      <trkpt lat="42.42623" lon="8.90144">
        <ele>1281.4</ele>
        <time>2015-07-01T04:02:14Z</time>
      </trkpt>
      <trkpt lat="42.42624" lon="8.90149">
        <ele>1282</ele>
        <time>2015-07-01T04:02:21Z</time>
      </trkpt>
      <trkpt lat="42.42622" lon="8.90153">
        <ele>1283.2</ele>
        <time>2015-07-01T04:02:30Z</time>
      </trkpt>
      <trkpt lat="42.4262" lon="8.90157">
        <ele>1284.6</ele>
        <time>2015-07-01T04:02:44Z</time>
      </trkpt>
      <trkpt lat="42.4262" lon="8.90164">
        <ele>1285.8</ele>
        <time>2015-07-01T04:02:53Z</time>
      </trkpt>
      <trkpt lat="42.42621" lon="8.90168">
        <ele>1286.6</ele>
        <time>2015-07-01T04:03:00Z</time>
      </trkpt>
      <trkpt lat="42.42621" lon="8.90171">
        <ele>1287.8</ele>
        <time>2015-07-01T04:03:08Z</time>
      </trkpt>
      <trkpt lat="42.42623" lon="8.90176">
        <ele>1289</ele>
        <time>2015-07-01T04:03:16Z</time>
      </trkpt>
      <trkpt lat="42.42623" lon="8.90182">
        <ele>1290</ele>
        <time>2015-07-01T04:03:24Z</time>
      </trkpt>
      <trkpt lat="42.42621" lon="8.90188">
        <ele>1291</ele>
        <time>2015-07-01T04:03:32Z</time>
      </trkpt>
      <trkpt lat="42.42622" lon="8.90198">
        <ele>1292.6</ele>
        <time>2015-07-01T04:03:46Z</time>
      </trkpt>
      <trkpt lat="42.42629" lon="8.90213">
        <ele>1294.2</ele>
        <time>2015-07-01T04:04:10Z</time>
      </trkpt>
      <trkpt lat="42.42632" lon="8.9022">
        <ele>1294.8</ele>
        <time>2015-07-01T04:04:18Z</time>
      </trkpt>
      <trkpt lat="42.42634" lon="8.90227">
        <ele>1296.2</ele>
        <time>2015-07-01T04:04:28Z</time>
      </trkpt>
      <trkpt lat="42.42635" lon="8.90232">
        <ele>1297.2</ele>
        <time>2015-07-01T04:04:37Z</time>
      </trkpt>
      <trkpt lat="42.42637" lon="8.90238">
        <ele>1298.2</ele>
        <time>2015-07-01T04:04:45Z</time>
      </trkpt>
      <trkpt lat="42.4264" lon="8.90245">
        <ele>1299.2</ele>
        <time>2015-07-01T04:04:53Z</time>
      </trkpt>
      <trkpt lat="42.42641" lon="8.90251">
        <ele>1300.8</ele>
        <time>2015-07-01T04:05:04Z</time>
      </trkpt>
      <trkpt lat="42.4264" lon="8.90258">
        <ele>1302</ele>
        <time>2015-07-01T04:05:13Z</time>
      </trkpt>
      <trkpt lat="42.42644" lon="8.90263">
        <ele>1302.8</ele>
        <time>2015-07-01T04:05:21Z</time>
      </trkpt>
      <trkpt lat="42.42642" lon="8.90269">
        <ele>1304.2</ele>
        <time>2015-07-01T04:05:30Z</time>
      </trkpt>
      <trkpt lat="42.42641" lon="8.90277">
        <ele>1305.2</ele>
        <time>2015-07-01T04:05:40Z</time>
      </trkpt>
      <trkpt lat="42.42639" lon="8.90283">
        <ele>1307.2</ele>
        <time>2015-07-01T04:05:53Z</time>
      </trkpt>
      <trkpt lat="42.42639" lon="8.90286">
        <ele>1307.8</ele>
        <time>2015-07-01T04:06:00Z</time>
      </trkpt>
      <trkpt lat="42.42642" lon="8.90292">
        <ele>1308.8</ele>
        <time>2015-07-01T04:06:09Z</time>
      </trkpt>
      <trkpt lat="42.42646" lon="8.90298">
        <ele>1310.2</ele>
        <time>2015-07-01T04:06:20Z</time>
      </trkpt>
      <trkpt lat="42.4265" lon="8.90302">
        <ele>1311</ele>
        <time>2015-07-01T04:06:27Z</time>
      </trkpt>
      <trkpt lat="42.42655" lon="8.90306">
        <ele>1312.6</ele>
        <time>2015-07-01T04:06:37Z</time>
      </trkpt>
      <trkpt lat="42.42659" lon="8.90314">
        <ele>1314</ele>
        <time>2015-07-01T04:06:49Z</time>
      </trkpt>
      <trkpt lat="42.42667" lon="8.9032">
        <ele>1315.2</ele>
        <time>2015-07-01T04:07:06Z</time>
      </trkpt>
      <trkpt lat="42.42669" lon="8.90324">
        <ele>1316</ele>
        <time>2015-07-01T04:07:15Z</time>
      </trkpt>
      <trkpt lat="42.42672" lon="8.90325">
        <ele>1317.2</ele>
        <time>2015-07-01T04:07:23Z</time>
      </trkpt>
      <trkpt lat="42.42674" lon="8.90328">
        <ele>1318.4</ele>
        <time>2015-07-01T04:07:33Z</time>
      </trkpt>
      <trkpt lat="42.42673" lon="8.90331">
        <ele>1319.6</ele>
        <time>2015-07-01T04:07:42Z</time>
      </trkpt>
      <trkpt lat="42.42674" lon="8.90335">
        <ele>1320.6</ele>
        <time>2015-07-01T04:07:51Z</time>
      </trkpt>
      <trkpt lat="42.42674" lon="8.90338">
        <ele>1322</ele>
        <time>2015-07-01T04:07:59Z</time>
      </trkpt>
      <trkpt lat="42.42673" lon="8.90342">
        <ele>1323</ele>
        <time>2015-07-01T04:08:08Z</time>
      </trkpt>
      <trkpt lat="42.42673" lon="8.90346">
        <ele>1324.4</ele>
        <time>2015-07-01T04:08:17Z</time>
      </trkpt>
      <trkpt lat="42.42672" lon="8.90349">
        <ele>1325</ele>
        <time>2015-07-01T04:08:23Z</time>
      </trkpt>
      <trkpt lat="42.42673" lon="8.9035">
        <ele>1325.6</ele>
        <time>2015-07-01T04:08:26Z</time>
      </trkpt>
      <trkpt lat="42.42674" lon="8.90353">
        <ele>1326.8</ele>
        <time>2015-07-01T04:08:32Z</time>
      </trkpt>
      <trkpt lat="42.42671" lon="8.90356">
        <ele>1328</ele>
        <time>2015-07-01T04:08:43Z</time>
      </trkpt>
      <trkpt lat="42.42669" lon="8.90357">
        <ele>1329.2</ele>
        <time>2015-07-01T04:08:52Z</time>
      </trkpt>
      <trkpt lat="42.42666" lon="8.90362">
        <ele>1330.4</ele>
        <time>2015-07-01T04:09:00Z</time>
      </trkpt>
      <trkpt lat="42.42667" lon="8.90366">
        <ele>1331.2</ele>
        <time>2015-07-01T04:09:07Z</time>
      </trkpt>
      <trkpt lat="42.42669" lon="8.90371">
        <ele>1332.6</ele>
        <time>2015-07-01T04:09:15Z</time>
      </trkpt>
      <trkpt lat="42.42669" lon="8.90374">
        <ele>1333.8</ele>
        <time>2015-07-01T04:09:23Z</time>
      </trkpt>
      <trkpt lat="42.42667" lon="8.90378">
        <ele>1334.8</ele>
        <time>2015-07-01T04:09:31Z</time>
      </trkpt>
      <trkpt lat="42.42668" lon="8.90383">
        <ele>1336.4</ele>
        <time>2015-07-01T04:09:40Z</time>
      </trkpt>
      <trkpt lat="42.42671" lon="8.90388">
        <ele>1337.8</ele>
        <time>2015-07-01T04:09:52Z</time>
      </trkpt>
      <trkpt lat="42.42671" lon="8.90392">
        <ele>1338.6</ele>
        <time>2015-07-01T04:09:59Z</time>
      </trkpt>
      <trkpt lat="42.42672" lon="8.90397">
        <ele>1339.6</ele>
        <time>2015-07-01T04:10:07Z</time>
      </trkpt>
      <trkpt lat="42.42672" lon="8.90402">
        <ele>1340.8</ele>
        <time>2015-07-01T04:10:15Z</time>
      </trkpt>
      <trkpt lat="42.42673" lon="8.90404">
        <ele>1341.2</ele>
        <time>2015-07-01T04:10:17Z</time>
      </trkpt>
      <trkpt lat="42.42673" lon="8.90408">
        <ele>1342.2</ele>
        <time>2015-07-01T04:10:24Z</time>
      </trkpt>
      <trkpt lat="42.42672" lon="8.90412">
        <ele>1343.2</ele>
        <time>2015-07-01T04:10:33Z</time>
      </trkpt>
      <trkpt lat="42.42673" lon="8.90416">
        <ele>1344.2</ele>
        <time>2015-07-01T04:10:40Z</time>
      </trkpt>
      <trkpt lat="42.42673" lon="8.90421">
        <ele>1345.8</ele>
        <time>2015-07-01T04:10:50Z</time>
      </trkpt>
      <trkpt lat="42.42674" lon="8.90428">
        <ele>1347</ele>
        <time>2015-07-01T04:11:00Z</time>
      </trkpt>
      <trkpt lat="42.42673" lon="8.90432">
        <ele>1348</ele>
        <time>2015-07-01T04:11:08Z</time>
      </trkpt>
      <trkpt lat="42.42673" lon="8.90437">
        <ele>1349</ele>
        <time>2015-07-01T04:11:15Z</time>
      </trkpt>
      <trkpt lat="42.42672" lon="8.90442">
        <ele>1350.4</ele>
        <time>2015-07-01T04:11:25Z</time>
      </trkpt>
      <trkpt lat="42.42673" lon="8.90447">
        <ele>1351.8</ele>
        <time>2015-07-01T04:11:34Z</time>
      </trkpt>
      <trkpt lat="42.42672" lon="8.90453">
        <ele>1352.8</ele>
        <time>2015-07-01T04:11:43Z</time>
      </trkpt>
      <trkpt lat="42.4267" lon="8.90457">
        <ele>1354</ele>
        <time>2015-07-01T04:11:51Z</time>
      </trkpt>
      <trkpt lat="42.42672" lon="8.90461">
        <ele>1354.8</ele>
        <time>2015-07-01T04:11:58Z</time>
      </trkpt>
      <trkpt lat="42.42674" lon="8.90466">
        <ele>1356.2</ele>
        <time>2015-07-01T04:12:07Z</time>
      </trkpt>
      <trkpt lat="42.42673" lon="8.90472">
        <ele>1357.2</ele>
        <time>2015-07-01T04:12:15Z</time>
      </trkpt>
      <trkpt lat="42.42674" lon="8.90478">
        <ele>1358.2</ele>
        <time>2015-07-01T04:12:23Z</time>
      </trkpt>
      <trkpt lat="42.42674" lon="8.90485">
        <ele>1359.4</ele>
        <time>2015-07-01T04:12:32Z</time>
      </trkpt>
      <trkpt lat="42.42674" lon="8.90491">
        <ele>1360.6</ele>
        <time>2015-07-01T04:12:41Z</time>
      </trkpt>
      <trkpt lat="42.42677" lon="8.90496">
        <ele>1361.6</ele>
        <time>2015-07-01T04:12:48Z</time>
      </trkpt>
      <trkpt lat="42.4268" lon="8.90499">
        <ele>1362.8</ele>
        <time>2015-07-01T04:12:56Z</time>
      </trkpt>
      <trkpt lat="42.42684" lon="8.905">
        <ele>1364</ele>
        <time>2015-07-01T04:13:05Z</time>
      </trkpt>
      <trkpt lat="42.4269" lon="8.90502">
        <ele>1364.8</ele>
        <time>2015-07-01T04:13:14Z</time>
      </trkpt>
      <trkpt lat="42.42691" lon="8.90504">
        <ele>1365.2</ele>
        <time>2015-07-01T04:13:17Z</time>
      </trkpt>
      <trkpt lat="42.42691" lon="8.90505">
        <ele>1365.2</ele>
        <time>2015-07-01T04:13:18Z</time>
      </trkpt>
      <trkpt lat="42.42708" lon="8.90517">
        <ele>1365.8</ele>
        <time>2015-07-01T04:14:15Z</time>
      </trkpt>
      <trkpt lat="42.42709" lon="8.90516">
        <ele>1364.6</ele>
        <time>2015-07-01T04:14:26Z</time>
      </trkpt>
      <trkpt lat="42.42709" lon="8.90517">
        <ele>1364.6</ele>
        <time>2015-07-01T04:14:28Z</time>
      </trkpt>
      <trkpt lat="42.4271" lon="8.90517">
        <ele>1364.2</ele>
        <time>2015-07-01T04:14:32Z</time>
      </trkpt>
      <trkpt lat="42.42717" lon="8.90527">
        <ele>1363.4</ele>
        <time>2015-07-01T04:15:11Z</time>
      </trkpt>
      <trkpt lat="42.42718" lon="8.90529">
        <ele>1364.2</ele>
        <time>2015-07-01T04:15:20Z</time>
      </trkpt>
      <trkpt lat="42.42722" lon="8.90533">
        <ele>1365.2</ele>
        <time>2015-07-01T04:15:27Z</time>
      </trkpt>
      <trkpt lat="42.42731" lon="8.90538">
        <ele>1366.8</ele>
        <time>2015-07-01T04:15:47Z</time>
      </trkpt>
      <trkpt lat="42.42733" lon="8.90536">
        <ele>1367.4</ele>
        <time>2015-07-01T04:15:53Z</time>
      </trkpt>
      <trkpt lat="42.42738" lon="8.90535">
        <ele>1369</ele>
        <time>2015-07-01T04:16:02Z</time>
      </trkpt>
      <trkpt lat="42.42743" lon="8.90531">
        <ele>1370</ele>
        <time>2015-07-01T04:16:10Z</time>
      </trkpt>
      <trkpt lat="42.42745" lon="8.90524">
        <ele>1371</ele>
        <time>2015-07-01T04:16:18Z</time>
      </trkpt>
      <trkpt lat="42.42749" lon="8.90521">
        <ele>1372.2</ele>
        <time>2015-07-01T04:16:29Z</time>
      </trkpt>
      <trkpt lat="42.42752" lon="8.90521">
        <ele>1372.8</ele>
        <time>2015-07-01T04:16:35Z</time>
      </trkpt>
      <trkpt lat="42.42757" lon="8.90522">
        <ele>1374.4</ele>
        <time>2015-07-01T04:16:44Z</time>
      </trkpt>
      <trkpt lat="42.42757" lon="8.90527">
        <ele>1375.4</ele>
        <time>2015-07-01T04:16:54Z</time>
      </trkpt>
      <trkpt lat="42.42761" lon="8.9053">
        <ele>1376.4</ele>
        <time>2015-07-01T04:17:01Z</time>
      </trkpt>
      <trkpt lat="42.42764" lon="8.90531">
        <ele>1377.6</ele>
        <time>2015-07-01T04:17:08Z</time>
      </trkpt>
      <trkpt lat="42.42769" lon="8.90531">
        <ele>1379</ele>
        <time>2015-07-01T04:17:16Z</time>
      </trkpt>
      <trkpt lat="42.42774" lon="8.90529">
        <ele>1380.2</ele>
        <time>2015-07-01T04:17:25Z</time>
      </trkpt>
      <trkpt lat="42.42783" lon="8.90525">
        <ele>1381.4</ele>
        <time>2015-07-01T04:17:38Z</time>
      </trkpt>
      <trkpt lat="42.42789" lon="8.9052">
        <ele>1382</ele>
        <time>2015-07-01T04:17:47Z</time>
      </trkpt>
      <trkpt lat="42.4279" lon="8.90519">
        <ele>1382.4</ele>
        <time>2015-07-01T04:17:49Z</time>
      </trkpt>
      <trkpt lat="42.42795" lon="8.90518">
        <ele>1383.4</ele>
        <time>2015-07-01T04:18:01Z</time>
      </trkpt>
      <trkpt lat="42.42796" lon="8.90523">
        <ele>1384.8</ele>
        <time>2015-07-01T04:18:11Z</time>
      </trkpt>
      <trkpt lat="42.42796" lon="8.9053">
        <ele>1385.8</ele>
        <time>2015-07-01T04:18:20Z</time>
      </trkpt>
      <trkpt lat="42.42795" lon="8.90534">
        <ele>1386.4</ele>
        <time>2015-07-01T04:18:26Z</time>
      </trkpt>
      <trkpt lat="42.42797" lon="8.9054">
        <ele>1387.8</ele>
        <time>2015-07-01T04:18:34Z</time>
      </trkpt>
      <trkpt lat="42.42794" lon="8.90546">
        <ele>1389</ele>
        <time>2015-07-01T04:18:44Z</time>
      </trkpt>
      <trkpt lat="42.42788" lon="8.90553">
        <ele>1390</ele>
        <time>2015-07-01T04:18:55Z</time>
      </trkpt>
      <trkpt lat="42.42786" lon="8.90555">
        <ele>1390.4</ele>
        <time>2015-07-01T04:18:58Z</time>
      </trkpt>
      <trkpt lat="42.42783" lon="8.90561">
        <ele>1391.2</ele>
        <time>2015-07-01T04:19:06Z</time>
      </trkpt>
      <trkpt lat="42.42781" lon="8.90566">
        <ele>1391.8</ele>
        <time>2015-07-01T04:19:11Z</time>
      </trkpt>
      <trkpt lat="42.4278" lon="8.90568">
        <ele>1392.2</ele>
        <time>2015-07-01T04:19:13Z</time>
      </trkpt>
      <trkpt lat="42.42782" lon="8.9057">
        <ele>1393.2</ele>
        <time>2015-07-01T04:19:21Z</time>
      </trkpt>
      <trkpt lat="42.42791" lon="8.9056">
        <ele>1394.8</ele>
        <time>2015-07-01T04:19:40Z</time>
      </trkpt>
      <trkpt lat="42.4279" lon="8.90565">
        <ele>1395.4</ele>
        <time>2015-07-01T04:19:50Z</time>
      </trkpt>
      <trkpt lat="42.42787" lon="8.90574">
        <ele>1396.8</ele>
        <time>2015-07-01T04:20:02Z</time>
      </trkpt>
      <trkpt lat="42.42784" lon="8.90579">
        <ele>1397.8</ele>
        <time>2015-07-01T04:20:11Z</time>
      </trkpt>
      <trkpt lat="42.42789" lon="8.90582">
        <ele>1399</ele>
        <time>2015-07-01T04:20:21Z</time>
      </trkpt>
      <trkpt lat="42.42791" lon="8.90584">
        <ele>1399.6</ele>
        <time>2015-07-01T04:20:29Z</time>
      </trkpt>
      <trkpt lat="42.42789" lon="8.90586">
        <ele>1400.8</ele>
        <time>2015-07-01T04:20:37Z</time>
      </trkpt>
      <trkpt lat="42.42788" lon="8.90591">
        <ele>1402</ele>
        <time>2015-07-01T04:20:44Z</time>
      </trkpt>
      <trkpt lat="42.42788" lon="8.90596">
        <ele>1403.2</ele>
        <time>2015-07-01T04:20:52Z</time>
      </trkpt>
      <trkpt lat="42.42787" lon="8.90599">
        <ele>1404</ele>
        <time>2015-07-01T04:20:58Z</time>
      </trkpt>
      <trkpt lat="42.42789" lon="8.90602">
        <ele>1405.2</ele>
        <time>2015-07-01T04:21:06Z</time>
      </trkpt>
      <trkpt lat="42.42792" lon="8.90601">
        <ele>1406</ele>
        <time>2015-07-01T04:21:12Z</time>
      </trkpt>
      <trkpt lat="42.42795" lon="8.906">
        <ele>1407.4</ele>
        <time>2015-07-01T04:21:20Z</time>
      </trkpt>
      <trkpt lat="42.428" lon="8.90602">
        <ele>1408.8</ele>
        <time>2015-07-01T04:21:30Z</time>
      </trkpt>
      <trkpt lat="42.42802" lon="8.90605">
        <ele>1409.4</ele>
        <time>2015-07-01T04:21:36Z</time>
      </trkpt>
      <trkpt lat="42.42803" lon="8.90607">
        <ele>1410.8</ele>
        <time>2015-07-01T04:21:44Z</time>
      </trkpt>
      <trkpt lat="42.42803" lon="8.9061">
        <ele>1411.4</ele>
        <time>2015-07-01T04:21:51Z</time>
      </trkpt>
      <trkpt lat="42.42803" lon="8.90612">
        <ele>1413</ele>
        <time>2015-07-01T04:21:59Z</time>
      </trkpt>
      <trkpt lat="42.42801" lon="8.90616">
        <ele>1414</ele>
        <time>2015-07-01T04:22:09Z</time>
      </trkpt>
      <trkpt lat="42.42798" lon="8.9062">
        <ele>1415</ele>
        <time>2015-07-01T04:22:17Z</time>
      </trkpt>
      <trkpt lat="42.428" lon="8.90625">
        <ele>1416.2</ele>
        <time>2015-07-01T04:22:26Z</time>
      </trkpt>
      <trkpt lat="42.42802" lon="8.90628">
        <ele>1417</ele>
        <time>2015-07-01T04:22:33Z</time>
      </trkpt>
      <trkpt lat="42.42803" lon="8.90632">
        <ele>1418</ele>
        <time>2015-07-01T04:22:40Z</time>
      </trkpt>
      <trkpt lat="42.42804" lon="8.90638">
        <ele>1419.4</ele>
        <time>2015-07-01T04:22:50Z</time>
      </trkpt>
      <trkpt lat="42.42804" lon="8.90643">
        <ele>1420.6</ele>
        <time>2015-07-01T04:22:58Z</time>
      </trkpt>
      <trkpt lat="42.42807" lon="8.90646">
        <ele>1421.8</ele>
        <time>2015-07-01T04:23:08Z</time>
      </trkpt>
      <trkpt lat="42.42807" lon="8.9065">
        <ele>1422.8</ele>
        <time>2015-07-01T04:23:16Z</time>
      </trkpt>
      <trkpt lat="42.42807" lon="8.90654">
        <ele>1424.4</ele>
        <time>2015-07-01T04:23:26Z</time>
      </trkpt>
      <trkpt lat="42.42805" lon="8.90658">
        <ele>1425</ele>
        <time>2015-07-01T04:23:33Z</time>
      </trkpt>
      <trkpt lat="42.42806" lon="8.90698">
        <ele>1426.2</ele>
        <time>2015-07-01T04:24:25Z</time>
      </trkpt>
      <trkpt lat="42.42808" lon="8.90702">
        <ele>1427.4</ele>
        <time>2015-07-01T04:24:32Z</time>
      </trkpt>
      <trkpt lat="42.42806" lon="8.90705">
        <ele>1428</ele>
        <time>2015-07-01T04:24:37Z</time>
      </trkpt>
      <trkpt lat="42.42804" lon="8.90716">
        <ele>1429.8</ele>
        <time>2015-07-01T04:24:48Z</time>
      </trkpt>
      <trkpt lat="42.42805" lon="8.90726">
        <ele>1431.2</ele>
        <time>2015-07-01T04:24:57Z</time>
      </trkpt>
      <trkpt lat="42.42805" lon="8.90732">
        <ele>1432</ele>
        <time>2015-07-01T04:25:07Z</time>
      </trkpt>
      <trkpt lat="42.42801" lon="8.9074">
        <ele>1433.6</ele>
        <time>2015-07-01T04:25:33Z</time>
      </trkpt>
      <trkpt lat="42.42799" lon="8.90742">
        <ele>1434</ele>
        <time>2015-07-01T04:25:39Z</time>
      </trkpt>
      <trkpt lat="42.42797" lon="8.9074">
        <ele>1435</ele>
        <time>2015-07-01T04:25:45Z</time>
      </trkpt>
      <trkpt lat="42.42794" lon="8.90744">
        <ele>1436.8</ele>
        <time>2015-07-01T04:25:55Z</time>
      </trkpt>
      <trkpt lat="42.42793" lon="8.90748">
        <ele>1437.8</ele>
        <time>2015-07-01T04:26:04Z</time>
      </trkpt>
      <trkpt lat="42.42795" lon="8.9075">
        <ele>1438.4</ele>
        <time>2015-07-01T04:26:09Z</time>
      </trkpt>
      <trkpt lat="42.42796" lon="8.90753">
        <ele>1439.8</ele>
        <time>2015-07-01T04:26:17Z</time>
      </trkpt>
      <trkpt lat="42.42794" lon="8.90759">
        <ele>1441</ele>
        <time>2015-07-01T04:26:26Z</time>
      </trkpt>
      <trkpt lat="42.42795" lon="8.90765">
        <ele>1442.2</ele>
        <time>2015-07-01T04:26:36Z</time>
      </trkpt>
      <trkpt lat="42.42795" lon="8.90768">
        <ele>1443.2</ele>
        <time>2015-07-01T04:26:43Z</time>
      </trkpt>
      <trkpt lat="42.42795" lon="8.90774">
        <ele>1444.4</ele>
        <time>2015-07-01T04:26:52Z</time>
      </trkpt>
      <trkpt lat="42.42794" lon="8.90778">
        <ele>1445.4</ele>
        <time>2015-07-01T04:27:00Z</time>
      </trkpt>
      <trkpt lat="42.42793" lon="8.90782">
        <ele>1446.4</ele>
        <time>2015-07-01T04:27:07Z</time>
      </trkpt>
      <trkpt lat="42.42793" lon="8.90788">
        <ele>1448</ele>
        <time>2015-07-01T04:27:16Z</time>
      </trkpt>
      <trkpt lat="42.42791" lon="8.90794">
        <ele>1449</ele>
        <time>2015-07-01T04:27:24Z</time>
      </trkpt>
      <trkpt lat="42.42792" lon="8.90797">
        <ele>1449.8</ele>
        <time>2015-07-01T04:27:31Z</time>
      </trkpt>
      <trkpt lat="42.42795" lon="8.90801">
        <ele>1451.2</ele>
        <time>2015-07-01T04:27:40Z</time>
      </trkpt>
      <trkpt lat="42.42795" lon="8.90805">
        <ele>1452.2</ele>
        <time>2015-07-01T04:27:48Z</time>
      </trkpt>
      <trkpt lat="42.42797" lon="8.90807">
        <ele>1453.2</ele>
        <time>2015-07-01T04:27:54Z</time>
      </trkpt>
      <trkpt lat="42.42797" lon="8.90813">
        <ele>1454.4</ele>
        <time>2015-07-01T04:28:05Z</time>
      </trkpt>
      <trkpt lat="42.42796" lon="8.90816">
        <ele>1455.4</ele>
        <time>2015-07-01T04:28:12Z</time>
      </trkpt>
      <trkpt lat="42.42793" lon="8.90824">
        <ele>1457</ele>
        <time>2015-07-01T04:28:24Z</time>
      </trkpt>
      <trkpt lat="42.42792" lon="8.90827">
        <ele>1458</ele>
        <time>2015-07-01T04:28:33Z</time>
      </trkpt>
      <trkpt lat="42.42793" lon="8.90831">
        <ele>1458.6</ele>
        <time>2015-07-01T04:28:41Z</time>
      </trkpt>
      <trkpt lat="42.42794" lon="8.90836">
        <ele>1460.2</ele>
        <time>2015-07-01T04:28:50Z</time>
      </trkpt>
      <trkpt lat="42.42795" lon="8.90839">
        <ele>1461.4</ele>
        <time>2015-07-01T04:28:59Z</time>
      </trkpt>
      <trkpt lat="42.42794" lon="8.90842">
        <ele>1462</ele>
        <time>2015-07-01T04:29:05Z</time>
      </trkpt>
      <trkpt lat="42.42794" lon="8.90846">
        <ele>1463.4</ele>
        <time>2015-07-01T04:29:12Z</time>
      </trkpt>
      <trkpt lat="42.42796" lon="8.90848">
        <ele>1464.2</ele>
        <time>2015-07-01T04:29:21Z</time>
      </trkpt>
      <trkpt lat="42.42792" lon="8.90854">
        <ele>1465.8</ele>
        <time>2015-07-01T04:29:32Z</time>
      </trkpt>
      <trkpt lat="42.42795" lon="8.90856">
        <ele>1467</ele>
        <time>2015-07-01T04:29:42Z</time>
      </trkpt>
      <trkpt lat="42.42798" lon="8.90858">
        <ele>1468</ele>
        <time>2015-07-01T04:29:52Z</time>
      </trkpt>
      <trkpt lat="42.428" lon="8.90862">
        <ele>1469</ele>
        <time>2015-07-01T04:30:02Z</time>
      </trkpt>
      <trkpt lat="42.428" lon="8.90866">
        <ele>1469.6</ele>
        <time>2015-07-01T04:30:08Z</time>
      </trkpt>
      <trkpt lat="42.428" lon="8.90871">
        <ele>1471.4</ele>
        <time>2015-07-01T04:30:18Z</time>
      </trkpt>
      <trkpt lat="42.42801" lon="8.90875">
        <ele>1472</ele>
        <time>2015-07-01T04:30:25Z</time>
      </trkpt>
      <trkpt lat="42.42804" lon="8.90876">
        <ele>1473.4</ele>
        <time>2015-07-01T04:30:32Z</time>
      </trkpt>
      <trkpt lat="42.42805" lon="8.90879">
        <ele>1474.8</ele>
        <time>2015-07-01T04:30:42Z</time>
      </trkpt>
      <trkpt lat="42.42803" lon="8.90885">
        <ele>1475.8</ele>
        <time>2015-07-01T04:30:54Z</time>
      </trkpt>
      <trkpt lat="42.42801" lon="8.90891">
        <ele>1476.6</ele>
        <time>2015-07-01T04:31:01Z</time>
      </trkpt>
      <trkpt lat="42.42802" lon="8.90895">
        <ele>1477.8</ele>
        <time>2015-07-01T04:31:11Z</time>
      </trkpt>
      <trkpt lat="42.42805" lon="8.90892">
        <ele>1479</ele>
        <time>2015-07-01T04:31:19Z</time>
      </trkpt>
      <trkpt lat="42.42808" lon="8.90893">
        <ele>1480.2</ele>
        <time>2015-07-01T04:31:26Z</time>
      </trkpt>
      <trkpt lat="42.42809" lon="8.90896">
        <ele>1481.2</ele>
        <time>2015-07-01T04:31:34Z</time>
      </trkpt>
      <trkpt lat="42.42812" lon="8.90901">
        <ele>1482.4</ele>
        <time>2015-07-01T04:31:42Z</time>
      </trkpt>
      <trkpt lat="42.42814" lon="8.90904">
        <ele>1483</ele>
        <time>2015-07-01T04:31:47Z</time>
      </trkpt>
      <trkpt lat="42.42817" lon="8.90908">
        <ele>1484.8</ele>
        <time>2015-07-01T04:31:56Z</time>
      </trkpt>
      <trkpt lat="42.42817" lon="8.90912">
        <ele>1485.6</ele>
        <time>2015-07-01T04:32:04Z</time>
      </trkpt>
      <trkpt lat="42.4282" lon="8.90918">
        <ele>1486.8</ele>
        <time>2015-07-01T04:32:12Z</time>
      </trkpt>
      <trkpt lat="42.42815" lon="8.90923">
        <ele>1488.4</ele>
        <time>2015-07-01T04:32:24Z</time>
      </trkpt>
      <trkpt lat="42.42815" lon="8.90929">
        <ele>1489</ele>
        <time>2015-07-01T04:32:30Z</time>
      </trkpt>
      <trkpt lat="42.42814" lon="8.9093">
        <ele>1489</ele>
        <time>2015-07-01T04:32:33Z</time>
      </trkpt>
      <trkpt lat="42.42814" lon="8.90933">
        <ele>1490.2</ele>
        <time>2015-07-01T04:32:40Z</time>
      </trkpt>
      <trkpt lat="42.42817" lon="8.90934">
        <ele>1491.4</ele>
        <time>2015-07-01T04:32:48Z</time>
      </trkpt>
      <trkpt lat="42.42819" lon="8.90934">
        <ele>1492.6</ele>
        <time>2015-07-01T04:32:56Z</time>
      </trkpt>
      <trkpt lat="42.42818" lon="8.90937">
        <ele>1494</ele>
        <time>2015-07-01T04:33:06Z</time>
      </trkpt>
      <trkpt lat="42.4282" lon="8.90939">
        <ele>1494.8</ele>
        <time>2015-07-01T04:33:13Z</time>
      </trkpt>
      <trkpt lat="42.4282" lon="8.90941">
        <ele>1495.8</ele>
        <time>2015-07-01T04:33:20Z</time>
      </trkpt>
      <trkpt lat="42.42818" lon="8.90943">
        <ele>1497.4</ele>
        <time>2015-07-01T04:33:30Z</time>
      </trkpt>
      <trkpt lat="42.42817" lon="8.90944">
        <ele>1497.8</ele>
        <time>2015-07-01T04:33:36Z</time>
      </trkpt>
      <trkpt lat="42.42816" lon="8.9095">
        <ele>1499.4</ele>
        <time>2015-07-01T04:33:45Z</time>
      </trkpt>
      <trkpt lat="42.42816" lon="8.90953">
        <ele>1500.2</ele>
        <time>2015-07-01T04:33:52Z</time>
      </trkpt>
      <trkpt lat="42.42817" lon="8.90956">
        <ele>1502</ele>
        <time>2015-07-01T04:34:02Z</time>
      </trkpt>
      <trkpt lat="42.42816" lon="8.90962">
        <ele>1503</ele>
        <time>2015-07-01T04:34:12Z</time>
      </trkpt>
      <trkpt lat="42.42815" lon="8.90965">
        <ele>1503.8</ele>
        <time>2015-07-01T04:34:19Z</time>
      </trkpt>
      <trkpt lat="42.42814" lon="8.90968">
        <ele>1505.2</ele>
        <time>2015-07-01T04:34:28Z</time>
      </trkpt>
      <trkpt lat="42.42813" lon="8.90972">
        <ele>1506.2</ele>
        <time>2015-07-01T04:34:36Z</time>
      </trkpt>
      <trkpt lat="42.42814" lon="8.90976">
        <ele>1507.6</ele>
        <time>2015-07-01T04:34:44Z</time>
      </trkpt>
      <trkpt lat="42.42817" lon="8.90978">
        <ele>1508.6</ele>
        <time>2015-07-01T04:34:53Z</time>
      </trkpt>
      <trkpt lat="42.42816" lon="8.90983">
        <ele>1509.8</ele>
        <time>2015-07-01T04:35:03Z</time>
      </trkpt>
      <trkpt lat="42.42815" lon="8.90986">
        <ele>1511.2</ele>
        <time>2015-07-01T04:35:14Z</time>
      </trkpt>
      <trkpt lat="42.42813" lon="8.9099">
        <ele>1512</ele>
        <time>2015-07-01T04:35:22Z</time>
      </trkpt>
      <trkpt lat="42.42816" lon="8.9099">
        <ele>1513.2</ele>
        <time>2015-07-01T04:35:31Z</time>
      </trkpt>
      <trkpt lat="42.4282" lon="8.90989">
        <ele>1514.2</ele>
        <time>2015-07-01T04:35:42Z</time>
      </trkpt>
      <trkpt lat="42.42822" lon="8.90992">
        <ele>1515.2</ele>
        <time>2015-07-01T04:35:49Z</time>
      </trkpt>
      <trkpt lat="42.42823" lon="8.90995">
        <ele>1516.6</ele>
        <time>2015-07-01T04:36:00Z</time>
      </trkpt>
      <trkpt lat="42.42823" lon="8.90999">
        <ele>1517.8</ele>
        <time>2015-07-01T04:36:10Z</time>
      </trkpt>
      <trkpt lat="42.42825" lon="8.91">
        <ele>1518.2</ele>
        <time>2015-07-01T04:36:15Z</time>
      </trkpt>
      <trkpt lat="42.42828" lon="8.90997">
        <ele>1519.8</ele>
        <time>2015-07-01T04:36:23Z</time>
      </trkpt>
      <trkpt lat="42.42828" lon="8.90996">
        <ele>1521.2</ele>
        <time>2015-07-01T04:36:34Z</time>
      </trkpt>
      <trkpt lat="42.42829" lon="8.90997">
        <ele>1521.8</ele>
        <time>2015-07-01T04:36:41Z</time>
      </trkpt>
      <trkpt lat="42.42833" lon="8.90998">
        <ele>1523.2</ele>
        <time>2015-07-01T04:36:51Z</time>
      </trkpt>
      <trkpt lat="42.42834" lon="8.90999">
        <ele>1524.6</ele>
        <time>2015-07-01T04:37:00Z</time>
      </trkpt>
      <trkpt lat="42.42838" lon="8.91001">
        <ele>1525.6</ele>
        <time>2015-07-01T04:37:09Z</time>
      </trkpt>
      <trkpt lat="42.4284" lon="8.91004">
        <ele>1526.6</ele>
        <time>2015-07-01T04:37:19Z</time>
      </trkpt>
      <trkpt lat="42.42841" lon="8.91006">
        <ele>1527.8</ele>
        <time>2015-07-01T04:37:27Z</time>
      </trkpt>
      <trkpt lat="42.42842" lon="8.91008">
        <ele>1529</ele>
        <time>2015-07-01T04:37:37Z</time>
      </trkpt>
      <trkpt lat="42.42842" lon="8.91012">
        <ele>1530</ele>
        <time>2015-07-01T04:37:44Z</time>
      </trkpt>
      <trkpt lat="42.42842" lon="8.91015">
        <ele>1531</ele>
        <time>2015-07-01T04:37:50Z</time>
      </trkpt>
      <trkpt lat="42.4284" lon="8.91017">
        <ele>1532.2</ele>
        <time>2015-07-01T04:37:57Z</time>
      </trkpt>
      <trkpt lat="42.42841" lon="8.91021">
        <ele>1533.2</ele>
        <time>2015-07-01T04:38:04Z</time>
      </trkpt>
      <trkpt lat="42.4284" lon="8.91023">
        <ele>1534</ele>
        <time>2015-07-01T04:38:10Z</time>
      </trkpt>
      <trkpt lat="42.42843" lon="8.91024">
        <ele>1535.4</ele>
        <time>2015-07-01T04:38:19Z</time>
      </trkpt>
      <trkpt lat="42.42841" lon="8.91028">
        <ele>1536.6</ele>
        <time>2015-07-01T04:38:27Z</time>
      </trkpt>
      <trkpt lat="42.42842" lon="8.91028">
        <ele>1538</ele>
        <time>2015-07-01T04:38:42Z</time>
      </trkpt>
      <trkpt lat="42.42844" lon="8.91029">
        <ele>1538.4</ele>
        <time>2015-07-01T04:38:48Z</time>
      </trkpt>
      <trkpt lat="42.42845" lon="8.91033">
        <ele>1539.6</ele>
        <time>2015-07-01T04:38:55Z</time>
      </trkpt>
      <trkpt lat="42.42844" lon="8.91036">
        <ele>1540.8</ele>
        <time>2015-07-01T04:39:09Z</time>
      </trkpt>
      <trkpt lat="42.42843" lon="8.91037">
        <ele>1541.6</ele>
        <time>2015-07-01T04:39:16Z</time>
      </trkpt>
      <trkpt lat="42.42845" lon="8.91039">
        <ele>1543</ele>
        <time>2015-07-01T04:39:26Z</time>
      </trkpt>
      <trkpt lat="42.42846" lon="8.91039">
        <ele>1544.2</ele>
        <time>2015-07-01T04:39:35Z</time>
      </trkpt>
      <trkpt lat="42.42848" lon="8.91041">
        <ele>1544.8</ele>
        <time>2015-07-01T04:39:42Z</time>
      </trkpt>
      <trkpt lat="42.4285" lon="8.91041">
        <ele>1546.2</ele>
        <time>2015-07-01T04:39:52Z</time>
      </trkpt>
      <trkpt lat="42.42852" lon="8.91042">
        <ele>1547</ele>
        <time>2015-07-01T04:39:59Z</time>
      </trkpt>
      <trkpt lat="42.42853" lon="8.91046">
        <ele>1548</ele>
        <time>2015-07-01T04:40:07Z</time>
      </trkpt>
      <trkpt lat="42.42854" lon="8.91049">
        <ele>1549.4</ele>
        <time>2015-07-01T04:40:20Z</time>
      </trkpt>
      <trkpt lat="42.42856" lon="8.9105">
        <ele>1550</ele>
        <time>2015-07-01T04:40:28Z</time>
      </trkpt>
      <trkpt lat="42.42858" lon="8.91051">
        <ele>1551.2</ele>
        <time>2015-07-01T04:40:35Z</time>
      </trkpt>
      <trkpt lat="42.42856" lon="8.91053">
        <ele>1552</ele>
        <time>2015-07-01T04:40:42Z</time>
      </trkpt>
      <trkpt lat="42.42855" lon="8.91056">
        <ele>1553.4</ele>
        <time>2015-07-01T04:40:50Z</time>
      </trkpt>
      <trkpt lat="42.42855" lon="8.9106">
        <ele>1554.6</ele>
        <time>2015-07-01T04:40:57Z</time>
      </trkpt>
      <trkpt lat="42.42854" lon="8.91067">
        <ele>1556</ele>
        <time>2015-07-01T04:41:08Z</time>
      </trkpt>
      <trkpt lat="42.42855" lon="8.91067">
        <ele>1557</ele>
        <time>2015-07-01T04:41:23Z</time>
      </trkpt>
      <trkpt lat="42.42857" lon="8.91068">
        <ele>1557</ele>
        <time>2015-07-01T04:41:26Z</time>
      </trkpt>
      <trkpt lat="42.42855" lon="8.91064">
        <ele>1557</ele>
        <time>2015-07-01T04:41:31Z</time>
      </trkpt>
      <trkpt lat="42.42855" lon="8.91068">
        <ele>1556.8</ele>
        <time>2015-07-01T04:42:43Z</time>
      </trkpt>
      <trkpt lat="42.42852" lon="8.91069">
        <ele>1557.4</ele>
        <time>2015-07-01T04:44:37Z</time>
      </trkpt>
      <trkpt lat="42.42853" lon="8.91071">
        <ele>1558</ele>
        <time>2015-07-01T04:44:47Z</time>
      </trkpt>
      <trkpt lat="42.42855" lon="8.9107">
        <ele>1559.2</ele>
        <time>2015-07-01T04:45:02Z</time>
      </trkpt>
      <trkpt lat="42.42858" lon="8.91072">
        <ele>1560.2</ele>
        <time>2015-07-01T04:45:11Z</time>
      </trkpt>
      <trkpt lat="42.42859" lon="8.91077">
        <ele>1561</ele>
        <time>2015-07-01T04:45:19Z</time>
      </trkpt>
      <trkpt lat="42.42859" lon="8.91079">
        <ele>1562.4</ele>
        <time>2015-07-01T04:45:27Z</time>
      </trkpt>
      <trkpt lat="42.42861" lon="8.9108">
        <ele>1563.2</ele>
        <time>2015-07-01T04:45:35Z</time>
      </trkpt>
      <trkpt lat="42.42861" lon="8.91082">
        <ele>1564.4</ele>
        <time>2015-07-01T04:45:44Z</time>
      </trkpt>
      <trkpt lat="42.42858" lon="8.91085">
        <ele>1565.6</ele>
        <time>2015-07-01T04:45:53Z</time>
      </trkpt>
      <trkpt lat="42.42859" lon="8.91087">
        <ele>1566.4</ele>
        <time>2015-07-01T04:46:00Z</time>
      </trkpt>
      <trkpt lat="42.42862" lon="8.9109">
        <ele>1567.8</ele>
        <time>2015-07-01T04:46:10Z</time>
      </trkpt>
      <trkpt lat="42.4286" lon="8.91093">
        <ele>1568.6</ele>
        <time>2015-07-01T04:46:17Z</time>
      </trkpt>
      <trkpt lat="42.4286" lon="8.91098">
        <ele>1569.6</ele>
        <time>2015-07-01T04:46:24Z</time>
      </trkpt>
      <trkpt lat="42.42861" lon="8.91097">
        <ele>1570.8</ele>
        <time>2015-07-01T04:46:32Z</time>
      </trkpt>
      <trkpt lat="42.42864" lon="8.91098">
        <ele>1572</ele>
        <time>2015-07-01T04:46:42Z</time>
      </trkpt>
      <trkpt lat="42.42867" lon="8.911">
        <ele>1573.4</ele>
        <time>2015-07-01T04:46:52Z</time>
      </trkpt>
      <trkpt lat="42.42864" lon="8.91103">
        <ele>1574.2</ele>
        <time>2015-07-01T04:46:59Z</time>
      </trkpt>
      <trkpt lat="42.42867" lon="8.91101">
        <ele>1575.4</ele>
        <time>2015-07-01T04:47:07Z</time>
      </trkpt>
      <trkpt lat="42.42871" lon="8.91105">
        <ele>1576.4</ele>
        <time>2015-07-01T04:47:15Z</time>
      </trkpt>
      <trkpt lat="42.42871" lon="8.91108">
        <ele>1577.8</ele>
        <time>2015-07-01T04:47:23Z</time>
      </trkpt>
      <trkpt lat="42.42872" lon="8.91113">
        <ele>1578.8</ele>
        <time>2015-07-01T04:47:31Z</time>
      </trkpt>
      <trkpt lat="42.42873" lon="8.91117">
        <ele>1579.6</ele>
        <time>2015-07-01T04:47:38Z</time>
      </trkpt>
      <trkpt lat="42.42875" lon="8.91124">
        <ele>1581.2</ele>
        <time>2015-07-01T04:47:49Z</time>
      </trkpt>
      <trkpt lat="42.42876" lon="8.91128">
        <ele>1581.6</ele>
        <time>2015-07-01T04:47:55Z</time>
      </trkpt>
      <trkpt lat="42.42878" lon="8.91132">
        <ele>1583</ele>
        <time>2015-07-01T04:48:04Z</time>
      </trkpt>
      <trkpt lat="42.42881" lon="8.91135">
        <ele>1584.2</ele>
        <time>2015-07-01T04:48:12Z</time>
      </trkpt>
      <trkpt lat="42.42885" lon="8.91131">
        <ele>1585.4</ele>
        <time>2015-07-01T04:48:24Z</time>
      </trkpt>
      <trkpt lat="42.42887" lon="8.91134">
        <ele>1586</ele>
        <time>2015-07-01T04:48:30Z</time>
      </trkpt>
      <trkpt lat="42.42887" lon="8.91137">
        <ele>1587.4</ele>
        <time>2015-07-01T04:48:37Z</time>
      </trkpt>
      <trkpt lat="42.42888" lon="8.9114">
        <ele>1588.8</ele>
        <time>2015-07-01T04:48:46Z</time>
      </trkpt>
      <trkpt lat="42.42889" lon="8.91142">
        <ele>1589.8</ele>
        <time>2015-07-01T04:48:54Z</time>
      </trkpt>
      <trkpt lat="42.42885" lon="8.91159">
        <ele>1591.6</ele>
        <time>2015-07-01T04:49:59Z</time>
      </trkpt>
      <trkpt lat="42.42883" lon="8.9117">
        <ele>1592.2</ele>
        <time>2015-07-01T04:50:17Z</time>
      </trkpt>
      <trkpt lat="42.42881" lon="8.91174">
        <ele>1593.6</ele>
        <time>2015-07-01T04:50:27Z</time>
      </trkpt>
      <trkpt lat="42.42881" lon="8.91177">
        <ele>1594.2</ele>
        <time>2015-07-01T04:50:34Z</time>
      </trkpt>
      <trkpt lat="42.42879" lon="8.9118">
        <ele>1595</ele>
        <time>2015-07-01T04:50:40Z</time>
      </trkpt>
      <trkpt lat="42.42878" lon="8.91185">
        <ele>1596.6</ele>
        <time>2015-07-01T04:50:48Z</time>
      </trkpt>
      <trkpt lat="42.42871" lon="8.91188">
        <ele>1598</ele>
        <time>2015-07-01T04:51:00Z</time>
      </trkpt>
      <trkpt lat="42.42871" lon="8.91196">
        <ele>1599.2</ele>
        <time>2015-07-01T04:51:13Z</time>
      </trkpt>
      <trkpt lat="42.42869" lon="8.91201">
        <ele>1600</ele>
        <time>2015-07-01T04:51:22Z</time>
      </trkpt>
      <trkpt lat="42.42867" lon="8.91201">
        <ele>1601.2</ele>
        <time>2015-07-01T04:51:30Z</time>
      </trkpt>
      <trkpt lat="42.42867" lon="8.91204">
        <ele>1602.2</ele>
        <time>2015-07-01T04:51:39Z</time>
      </trkpt>
      <trkpt lat="42.42868" lon="8.91204">
        <ele>1603</ele>
        <time>2015-07-01T04:51:45Z</time>
      </trkpt>
      <trkpt lat="42.42871" lon="8.91206">
        <ele>1604.2</ele>
        <time>2015-07-01T04:51:52Z</time>
      </trkpt>
      <trkpt lat="42.4287" lon="8.9121">
        <ele>1605.8</ele>
        <time>2015-07-01T04:52:04Z</time>
      </trkpt>
      <trkpt lat="42.42871" lon="8.91211">
        <ele>1606.6</ele>
        <time>2015-07-01T04:52:12Z</time>
      </trkpt>
      <trkpt lat="42.42873" lon="8.91213">
        <ele>1608</ele>
        <time>2015-07-01T04:52:22Z</time>
      </trkpt>
      <trkpt lat="42.42873" lon="8.91218">
        <ele>1609.2</ele>
        <time>2015-07-01T04:52:34Z</time>
      </trkpt>
      <trkpt lat="42.42872" lon="8.9122">
        <ele>1610.4</ele>
        <time>2015-07-01T04:52:44Z</time>
      </trkpt>
      <trkpt lat="42.42874" lon="8.91218">
        <ele>1611.4</ele>
        <time>2015-07-01T04:52:53Z</time>
      </trkpt>
      <trkpt lat="42.42875" lon="8.91217">
        <ele>1613</ele>
        <time>2015-07-01T04:53:02Z</time>
      </trkpt>
      <trkpt lat="42.42878" lon="8.91221">
        <ele>1614</ele>
        <time>2015-07-01T04:53:12Z</time>
      </trkpt>
      <trkpt lat="42.42881" lon="8.91222">
        <ele>1615.4</ele>
        <time>2015-07-01T04:53:25Z</time>
      </trkpt>
      <trkpt lat="42.42881" lon="8.91224">
        <ele>1616.8</ele>
        <time>2015-07-01T04:53:44Z</time>
      </trkpt>
      <trkpt lat="42.4288" lon="8.91225">
        <ele>1617.8</ele>
        <time>2015-07-01T04:53:55Z</time>
      </trkpt>
      <trkpt lat="42.42881" lon="8.91227">
        <ele>1619</ele>
        <time>2015-07-01T04:54:05Z</time>
      </trkpt>
      <trkpt lat="42.42885" lon="8.91223">
        <ele>1620.8</ele>
        <time>2015-07-01T04:54:22Z</time>
      </trkpt>
      <trkpt lat="42.42884" lon="8.91224">
        <ele>1622</ele>
        <time>2015-07-01T04:54:34Z</time>
      </trkpt>
      <trkpt lat="42.42884" lon="8.9122">
        <ele>1622.8</ele>
        <time>2015-07-01T04:54:42Z</time>
      </trkpt>
      <trkpt lat="42.42882" lon="8.91215">
        <ele>1623.2</ele>
        <time>2015-07-01T04:54:53Z</time>
      </trkpt>
      <trkpt lat="42.42884" lon="8.91216">
        <ele>1623.8</ele>
        <time>2015-07-01T04:54:59Z</time>
      </trkpt>
      <trkpt lat="42.42885" lon="8.91218">
        <ele>1624.4</ele>
        <time>2015-07-01T04:55:02Z</time>
      </trkpt>
      <trkpt lat="42.42887" lon="8.9122">
        <ele>1625.4</ele>
        <time>2015-07-01T04:55:09Z</time>
      </trkpt>
      <trkpt lat="42.42893" lon="8.91224">
        <ele>1627</ele>
        <time>2015-07-01T04:55:22Z</time>
      </trkpt>
      <trkpt lat="42.429" lon="8.91222">
        <ele>1628.4</ele>
        <time>2015-07-01T04:55:36Z</time>
      </trkpt>
      <trkpt lat="42.42905" lon="8.91227">
        <ele>1629.4</ele>
        <time>2015-07-01T04:55:45Z</time>
      </trkpt>
      <trkpt lat="42.42904" lon="8.91229">
        <ele>1630.6</ele>
        <time>2015-07-01T04:55:55Z</time>
      </trkpt>
      <trkpt lat="42.42904" lon="8.91231">
        <ele>1632</ele>
        <time>2015-07-01T04:56:06Z</time>
      </trkpt>
      <trkpt lat="42.42904" lon="8.91236">
        <ele>1633.4</ele>
        <time>2015-07-01T04:56:20Z</time>
      </trkpt>
      <trkpt lat="42.42901" lon="8.9124">
        <ele>1635.2</ele>
        <time>2015-07-01T04:56:43Z</time>
      </trkpt>
      <trkpt lat="42.42902" lon="8.91244">
        <ele>1636.4</ele>
        <time>2015-07-01T04:56:51Z</time>
      </trkpt>
      <trkpt lat="42.42901" lon="8.91247">
        <ele>1637.4</ele>
        <time>2015-07-01T04:57:00Z</time>
      </trkpt>
      <trkpt lat="42.42903" lon="8.91247">
        <ele>1639</ele>
        <time>2015-07-01T04:57:10Z</time>
      </trkpt>
      <trkpt lat="42.42902" lon="8.91247">
        <ele>1640</ele>
        <time>2015-07-01T04:57:19Z</time>
      </trkpt>
      <trkpt lat="42.42906" lon="8.91243">
        <ele>1641.4</ele>
        <time>2015-07-01T04:57:36Z</time>
      </trkpt>
      <trkpt lat="42.42906" lon="8.91239">
        <ele>1642</ele>
        <time>2015-07-01T04:58:02Z</time>
      </trkpt>
      <trkpt lat="42.42909" lon="8.91242">
        <ele>1642.4</ele>
        <time>2015-07-01T04:58:21Z</time>
      </trkpt>
      <trkpt lat="42.42912" lon="8.91244">
        <ele>1643.4</ele>
        <time>2015-07-01T04:58:29Z</time>
      </trkpt>
      <trkpt lat="42.42913" lon="8.91245">
        <ele>1645</ele>
        <time>2015-07-01T04:58:38Z</time>
      </trkpt>
      <trkpt lat="42.42914" lon="8.91246">
        <ele>1646</ele>
        <time>2015-07-01T04:58:49Z</time>
      </trkpt>
      <trkpt lat="42.4292" lon="8.91242">
        <ele>1648</ele>
        <time>2015-07-01T04:59:07Z</time>
      </trkpt>
      <trkpt lat="42.42923" lon="8.91245">
        <ele>1648.8</ele>
        <time>2015-07-01T04:59:17Z</time>
      </trkpt>
      <trkpt lat="42.42923" lon="8.91248">
        <ele>1649.6</ele>
        <time>2015-07-01T04:59:21Z</time>
      </trkpt>
      <trkpt lat="42.42924" lon="8.91248">
        <ele>1649.8</ele>
        <time>2015-07-01T04:59:23Z</time>
      </trkpt>
      <trkpt lat="42.42926" lon="8.91249">
        <ele>1650.4</ele>
        <time>2015-07-01T04:59:29Z</time>
      </trkpt>
      <trkpt lat="42.4293" lon="8.9125">
        <ele>1651.6</ele>
        <time>2015-07-01T04:59:37Z</time>
      </trkpt>
      <trkpt lat="42.42934" lon="8.9125">
        <ele>1652.6</ele>
        <time>2015-07-01T04:59:47Z</time>
      </trkpt>
      <trkpt lat="42.42935" lon="8.91251">
        <ele>1654</ele>
        <time>2015-07-01T04:59:57Z</time>
      </trkpt>
      <trkpt lat="42.42939" lon="8.91251">
        <ele>1655.6</ele>
        <time>2015-07-01T05:00:09Z</time>
      </trkpt>
      <trkpt lat="42.42941" lon="8.91251">
        <ele>1656.6</ele>
        <time>2015-07-01T05:00:18Z</time>
      </trkpt>
      <trkpt lat="42.42947" lon="8.91251">
        <ele>1658.2</ele>
        <time>2015-07-01T05:00:30Z</time>
      </trkpt>
      <trkpt lat="42.42951" lon="8.91256">
        <ele>1659</ele>
        <time>2015-07-01T05:00:38Z</time>
      </trkpt>
      <trkpt lat="42.42956" lon="8.9126">
        <ele>1660.4</ele>
        <time>2015-07-01T05:00:47Z</time>
      </trkpt>
      <trkpt lat="42.42955" lon="8.91261">
        <ele>1661.8</ele>
        <time>2015-07-01T05:00:56Z</time>
      </trkpt>
      <trkpt lat="42.42961" lon="8.91254">
        <ele>1663.6</ele>
        <time>2015-07-01T05:01:26Z</time>
      </trkpt>
      <trkpt lat="42.42962" lon="8.91254">
        <ele>1663.8</ele>
        <time>2015-07-01T05:01:27Z</time>
      </trkpt>
      <trkpt lat="42.42961" lon="8.91255">
        <ele>1665.6</ele>
        <time>2015-07-01T05:01:40Z</time>
      </trkpt>
      <trkpt lat="42.42961" lon="8.91255">
        <ele>1665.8</ele>
        <time>2015-07-01T05:01:43Z</time>
      </trkpt>
      <trkpt lat="42.42959" lon="8.91258">
        <ele>1667.2</ele>
        <time>2015-07-01T05:02:08Z</time>
      </trkpt>
      <trkpt lat="42.42961" lon="8.91256">
        <ele>1668.2</ele>
        <time>2015-07-01T05:02:33Z</time>
      </trkpt>
      <trkpt lat="42.4296" lon="8.91255">
        <ele>1668.2</ele>
        <time>2015-07-01T05:02:42Z</time>
      </trkpt>
      <trkpt lat="42.42963" lon="8.91258">
        <ele>1669.6</ele>
        <time>2015-07-01T05:03:42Z</time>
      </trkpt>
      <trkpt lat="42.42964" lon="8.91258">
        <ele>1670.6</ele>
        <time>2015-07-01T05:03:55Z</time>
      </trkpt>
      <trkpt lat="42.42966" lon="8.91263">
        <ele>1673</ele>
        <time>2015-07-01T05:04:25Z</time>
      </trkpt>
      <trkpt lat="42.42991" lon="8.9123">
        <ele>1676.6</ele>
        <time>2015-07-01T05:06:09Z</time>
      </trkpt>
      <trkpt lat="42.4299" lon="8.91225">
        <ele>1676.6</ele>
        <time>2015-07-01T05:06:11Z</time>
      </trkpt>
      <trkpt lat="42.42991" lon="8.91221">
        <ele>1676.6</ele>
        <time>2015-07-01T05:06:18Z</time>
      </trkpt>
      <trkpt lat="42.42988" lon="8.91204">
        <ele>1676.6</ele>
        <time>2015-07-01T05:06:28Z</time>
      </trkpt>
      <trkpt lat="42.42987" lon="8.91207">
        <ele>1676.6</ele>
        <time>2015-07-01T05:06:37Z</time>
      </trkpt>
      <trkpt lat="42.42989" lon="8.91219">
        <ele>1676.6</ele>
        <time>2015-07-01T05:06:39Z</time>
      </trkpt>
      <trkpt lat="42.42985" lon="8.91243">
        <ele>1677.2</ele>
        <time>2015-07-01T05:06:56Z</time>
      </trkpt>
      <trkpt lat="42.42987" lon="8.91248">
        <ele>1676.6</ele>
        <time>2015-07-01T05:07:11Z</time>
      </trkpt>
      <trkpt lat="42.42988" lon="8.91249">
        <ele>1676.6</ele>
        <time>2015-07-01T05:07:12Z</time>
      </trkpt>
      <trkpt lat="42.42989" lon="8.9125">
        <ele>1676.6</ele>
        <time>2015-07-01T05:07:14Z</time>
      </trkpt>
      <trkpt lat="42.42989" lon="8.91251">
        <ele>1676.8</ele>
        <time>2015-07-01T05:07:16Z</time>
      </trkpt>
      <trkpt lat="42.4299" lon="8.91246">
        <ele>1675.8</ele>
        <time>2015-07-01T05:07:34Z</time>
      </trkpt>
      <trkpt lat="42.42999" lon="8.91244">
        <ele>1676.4</ele>
        <time>2015-07-01T05:07:50Z</time>
      </trkpt>
      <trkpt lat="42.43002" lon="8.91239">
        <ele>1677.6</ele>
        <time>2015-07-01T05:07:57Z</time>
      </trkpt>
      <trkpt lat="42.43007" lon="8.91242">
        <ele>1678.8</ele>
        <time>2015-07-01T05:08:06Z</time>
      </trkpt>
      <trkpt lat="42.43009" lon="8.91245">
        <ele>1680.2</ele>
        <time>2015-07-01T05:08:13Z</time>
      </trkpt>
      <trkpt lat="42.4301" lon="8.91245">
        <ele>1681.2</ele>
        <time>2015-07-01T05:08:23Z</time>
      </trkpt>
      <trkpt lat="42.43011" lon="8.91244">
        <ele>1682.6</ele>
        <time>2015-07-01T05:08:30Z</time>
      </trkpt>
      <trkpt lat="42.43014" lon="8.91245">
        <ele>1684</ele>
        <time>2015-07-01T05:08:40Z</time>
      </trkpt>
      <trkpt lat="42.43015" lon="8.91247">
        <ele>1685.4</ele>
        <time>2015-07-01T05:08:50Z</time>
      </trkpt>
      <trkpt lat="42.43018" lon="8.91249">
        <ele>1686.8</ele>
        <time>2015-07-01T05:09:01Z</time>
      </trkpt>
      <trkpt lat="42.43019" lon="8.91252">
        <ele>1687.6</ele>
        <time>2015-07-01T05:09:09Z</time>
      </trkpt>
      <trkpt lat="42.43021" lon="8.91253">
        <ele>1689.2</ele>
        <time>2015-07-01T05:09:18Z</time>
      </trkpt>
      <trkpt lat="42.43023" lon="8.91255">
        <ele>1690.4</ele>
        <time>2015-07-01T05:09:28Z</time>
      </trkpt>
      <trkpt lat="42.43024" lon="8.91252">
        <ele>1691.8</ele>
        <time>2015-07-01T05:09:39Z</time>
      </trkpt>
      <trkpt lat="42.43027" lon="8.9125">
        <ele>1693.4</ele>
        <time>2015-07-01T05:09:53Z</time>
      </trkpt>
      <trkpt lat="42.43028" lon="8.91249">
        <ele>1693.8</ele>
        <time>2015-07-01T05:10:00Z</time>
      </trkpt>
      <trkpt lat="42.43031" lon="8.9125">
        <ele>1695.4</ele>
        <time>2015-07-01T05:10:09Z</time>
      </trkpt>
      <trkpt lat="42.43033" lon="8.91248">
        <ele>1696</ele>
        <time>2015-07-01T05:10:15Z</time>
      </trkpt>
      <trkpt lat="42.43035" lon="8.91244">
        <ele>1697.8</ele>
        <time>2015-07-01T05:10:25Z</time>
      </trkpt>
      <trkpt lat="42.43036" lon="8.91241">
        <ele>1698.8</ele>
        <time>2015-07-01T05:10:33Z</time>
      </trkpt>
      <trkpt lat="42.43038" lon="8.91245">
        <ele>1699.6</ele>
        <time>2015-07-01T05:10:37Z</time>
      </trkpt>
      <trkpt lat="42.43039" lon="8.91246">
        <ele>1699.8</ele>
        <time>2015-07-01T05:10:39Z</time>
      </trkpt>
      <trkpt lat="42.43042" lon="8.91248">
        <ele>1700.2</ele>
        <time>2015-07-01T05:10:46Z</time>
      </trkpt>
      <trkpt lat="42.43043" lon="8.91246">
        <ele>1701.4</ele>
        <time>2015-07-01T05:10:56Z</time>
      </trkpt>
      <trkpt lat="42.43046" lon="8.91243">
        <ele>1702.8</ele>
        <time>2015-07-01T05:11:04Z</time>
      </trkpt>
      <trkpt lat="42.43049" lon="8.91247">
        <ele>1704.4</ele>
        <time>2015-07-01T05:11:18Z</time>
      </trkpt>
      <trkpt lat="42.4305" lon="8.91251">
        <ele>1705.4</ele>
        <time>2015-07-01T05:11:27Z</time>
      </trkpt>
      <trkpt lat="42.43053" lon="8.91254">
        <ele>1707.2</ele>
        <time>2015-07-01T05:11:39Z</time>
      </trkpt>
      <trkpt lat="42.43052" lon="8.91259">
        <ele>1708.2</ele>
        <time>2015-07-01T05:11:47Z</time>
      </trkpt>
      <trkpt lat="42.43054" lon="8.91259">
        <ele>1709.6</ele>
        <time>2015-07-01T05:11:57Z</time>
      </trkpt>
      <trkpt lat="42.43056" lon="8.91257">
        <ele>1710.6</ele>
        <time>2015-07-01T05:12:06Z</time>
      </trkpt>
      <trkpt lat="42.43059" lon="8.91252">
        <ele>1712.4</ele>
        <time>2015-07-01T05:12:20Z</time>
      </trkpt>
      <trkpt lat="42.4306" lon="8.91252">
        <ele>1713.2</ele>
        <time>2015-07-01T05:12:29Z</time>
      </trkpt>
      <trkpt lat="42.43061" lon="8.91256">
        <ele>1714.4</ele>
        <time>2015-07-01T05:12:40Z</time>
      </trkpt>
      <trkpt lat="42.43063" lon="8.91262">
        <ele>1716.2</ele>
        <time>2015-07-01T05:12:51Z</time>
      </trkpt>
      <trkpt lat="42.43065" lon="8.91261">
        <ele>1717.4</ele>
        <time>2015-07-01T05:13:02Z</time>
      </trkpt>
      <trkpt lat="42.43068" lon="8.91263">
        <ele>1718.4</ele>
        <time>2015-07-01T05:13:09Z</time>
      </trkpt>
      <trkpt lat="42.4307" lon="8.91265">
        <ele>1719.6</ele>
        <time>2015-07-01T05:13:19Z</time>
      </trkpt>
      <trkpt lat="42.43071" lon="8.91265">
        <ele>1721</ele>
        <time>2015-07-01T05:13:28Z</time>
      </trkpt>
      <trkpt lat="42.43073" lon="8.91263">
        <ele>1721.8</ele>
        <time>2015-07-01T05:13:35Z</time>
      </trkpt>
      <trkpt lat="42.43075" lon="8.91261">
        <ele>1723.6</ele>
        <time>2015-07-01T05:13:44Z</time>
      </trkpt>
      <trkpt lat="42.43077" lon="8.91264">
        <ele>1725.4</ele>
        <time>2015-07-01T05:13:56Z</time>
      </trkpt>
      <trkpt lat="42.43078" lon="8.91269">
        <ele>1726.6</ele>
        <time>2015-07-01T05:14:08Z</time>
      </trkpt>
      <trkpt lat="42.4308" lon="8.9127">
        <ele>1727.8</ele>
        <time>2015-07-01T05:14:19Z</time>
      </trkpt>
      <trkpt lat="42.43082" lon="8.91269">
        <ele>1728.6</ele>
        <time>2015-07-01T05:14:26Z</time>
      </trkpt>
      <trkpt lat="42.43083" lon="8.91269">
        <ele>1729</ele>
        <time>2015-07-01T05:14:29Z</time>
      </trkpt>
      <trkpt lat="42.43084" lon="8.91267">
        <ele>1730</ele>
        <time>2015-07-01T05:14:35Z</time>
      </trkpt>
      <trkpt lat="42.43089" lon="8.91266">
        <ele>1732</ele>
        <time>2015-07-01T05:14:50Z</time>
      </trkpt>
      <trkpt lat="42.43092" lon="8.91265">
        <ele>1732.8</ele>
        <time>2015-07-01T05:14:59Z</time>
      </trkpt>
      <trkpt lat="42.43093" lon="8.91266">
        <ele>1734.2</ele>
        <time>2015-07-01T05:15:09Z</time>
      </trkpt>
      <trkpt lat="42.43094" lon="8.9127">
        <ele>1735.4</ele>
        <time>2015-07-01T05:15:18Z</time>
      </trkpt>
      <trkpt lat="42.43095" lon="8.91271">
        <ele>1736.4</ele>
        <time>2015-07-01T05:15:25Z</time>
      </trkpt>
      <trkpt lat="42.43097" lon="8.91269">
        <ele>1738.4</ele>
        <time>2015-07-01T05:15:48Z</time>
      </trkpt>
      <trkpt lat="42.43099" lon="8.9127">
        <ele>1739</ele>
        <time>2015-07-01T05:15:54Z</time>
      </trkpt>
      <trkpt lat="42.43103" lon="8.91269">
        <ele>1741</ele>
        <time>2015-07-01T05:16:08Z</time>
      </trkpt>
      <trkpt lat="42.43104" lon="8.9127">
        <ele>1742.6</ele>
        <time>2015-07-01T05:16:23Z</time>
      </trkpt>
      <trkpt lat="42.43104" lon="8.91274">
        <ele>1743.8</ele>
        <time>2015-07-01T05:16:33Z</time>
      </trkpt>
      <trkpt lat="42.43105" lon="8.91274">
        <ele>1745.4</ele>
        <time>2015-07-01T05:16:44Z</time>
      </trkpt>
      <trkpt lat="42.43107" lon="8.91273">
        <ele>1746</ele>
        <time>2015-07-01T05:16:50Z</time>
      </trkpt>
      <trkpt lat="42.43113" lon="8.91266">
        <ele>1748.2</ele>
        <time>2015-07-01T05:17:04Z</time>
      </trkpt>
      <trkpt lat="42.43118" lon="8.9126">
        <ele>1749.4</ele>
        <time>2015-07-01T05:17:19Z</time>
      </trkpt>
      <trkpt lat="42.43121" lon="8.91256">
        <ele>1750.6</ele>
        <time>2015-07-01T05:17:27Z</time>
      </trkpt>
      <trkpt lat="42.43126" lon="8.91252">
        <ele>1752.2</ele>
        <time>2015-07-01T05:17:39Z</time>
      </trkpt>
      <trkpt lat="42.43127" lon="8.91256">
        <ele>1753.6</ele>
        <time>2015-07-01T05:17:51Z</time>
      </trkpt>
      <trkpt lat="42.4313" lon="8.91259">
        <ele>1755</ele>
        <time>2015-07-01T05:18:03Z</time>
      </trkpt>
      <trkpt lat="42.43131" lon="8.91259">
        <ele>1755.8</ele>
        <time>2015-07-01T05:18:09Z</time>
      </trkpt>
      <trkpt lat="42.43134" lon="8.91264">
        <ele>1758</ele>
        <time>2015-07-01T05:18:26Z</time>
      </trkpt>
      <trkpt lat="42.43135" lon="8.91266">
        <ele>1759.8</ele>
        <time>2015-07-01T05:18:42Z</time>
      </trkpt>
      <trkpt lat="42.43138" lon="8.91265">
        <ele>1761.8</ele>
        <time>2015-07-01T05:19:07Z</time>
      </trkpt>
      <trkpt lat="42.43146" lon="8.91252">
        <ele>1763.8</ele>
        <time>2015-07-01T05:19:29Z</time>
      </trkpt>
      <trkpt lat="42.43148" lon="8.91254">
        <ele>1765</ele>
        <time>2015-07-01T05:19:41Z</time>
      </trkpt>
      <trkpt lat="42.4315" lon="8.91256">
        <ele>1766</ele>
        <time>2015-07-01T05:19:54Z</time>
      </trkpt>
      <trkpt lat="42.4315" lon="8.9126">
        <ele>1767.6</ele>
        <time>2015-07-01T05:20:04Z</time>
      </trkpt>
      <trkpt lat="42.43154" lon="8.9126">
        <ele>1769.2</ele>
        <time>2015-07-01T05:20:14Z</time>
      </trkpt>
      <trkpt lat="42.43157" lon="8.91256">
        <ele>1770.6</ele>
        <time>2015-07-01T05:20:25Z</time>
      </trkpt>
      <trkpt lat="42.43158" lon="8.91259">
        <ele>1771.6</ele>
        <time>2015-07-01T05:20:34Z</time>
      </trkpt>
      <trkpt lat="42.4316" lon="8.91262">
        <ele>1773</ele>
        <time>2015-07-01T05:20:43Z</time>
      </trkpt>
      <trkpt lat="42.43162" lon="8.9126">
        <ele>1774.6</ele>
        <time>2015-07-01T05:20:54Z</time>
      </trkpt>
      <trkpt lat="42.43165" lon="8.91256">
        <ele>1775.8</ele>
        <time>2015-07-01T05:21:04Z</time>
      </trkpt>
      <trkpt lat="42.43169" lon="8.91254">
        <ele>1777.6</ele>
        <time>2015-07-01T05:21:16Z</time>
      </trkpt>
      <trkpt lat="42.43171" lon="8.9125">
        <ele>1778.8</ele>
        <time>2015-07-01T05:21:24Z</time>
      </trkpt>
      <trkpt lat="42.43174" lon="8.91246">
        <ele>1780.4</ele>
        <time>2015-07-01T05:21:37Z</time>
      </trkpt>
      <trkpt lat="42.43176" lon="8.91247">
        <ele>1782</ele>
        <time>2015-07-01T05:21:50Z</time>
      </trkpt>
      <trkpt lat="42.43179" lon="8.91251">
        <ele>1783.4</ele>
        <time>2015-07-01T05:22:01Z</time>
      </trkpt>
      <trkpt lat="42.43182" lon="8.91253">
        <ele>1785</ele>
        <time>2015-07-01T05:22:15Z</time>
      </trkpt>
      <trkpt lat="42.43183" lon="8.91253">
        <ele>1786.4</ele>
        <time>2015-07-01T05:22:26Z</time>
      </trkpt>
      <trkpt lat="42.43185" lon="8.91254">
        <ele>1788</ele>
        <time>2015-07-01T05:22:40Z</time>
      </trkpt>
      <trkpt lat="42.43187" lon="8.91259">
        <ele>1789.6</ele>
        <time>2015-07-01T05:22:53Z</time>
      </trkpt>
      <trkpt lat="42.43185" lon="8.91271">
        <ele>1790.4</ele>
        <time>2015-07-01T05:23:00Z</time>
      </trkpt>
      <trkpt lat="42.43184" lon="8.91273">
        <ele>1790.6</ele>
        <time>2015-07-01T05:23:03Z</time>
      </trkpt>
      <trkpt lat="42.43182" lon="8.91273">
        <ele>1791.4</ele>
        <time>2015-07-01T05:23:06Z</time>
      </trkpt>
      <trkpt lat="42.43179" lon="8.91274">
        <ele>1792.2</ele>
        <time>2015-07-01T05:23:14Z</time>
      </trkpt>
      <trkpt lat="42.43183" lon="8.9127">
        <ele>1794</ele>
        <time>2015-07-01T05:23:30Z</time>
      </trkpt>
      <trkpt lat="42.43184" lon="8.91272">
        <ele>1795.4</ele>
        <time>2015-07-01T05:23:43Z</time>
      </trkpt>
      <trkpt lat="42.43185" lon="8.91272">
        <ele>1796.4</ele>
        <time>2015-07-01T05:23:51Z</time>
      </trkpt>
      <trkpt lat="42.43188" lon="8.91273">
        <ele>1798</ele>
        <time>2015-07-01T05:24:01Z</time>
      </trkpt>
      <trkpt lat="42.4319" lon="8.91272">
        <ele>1799.6</ele>
        <time>2015-07-01T05:24:12Z</time>
      </trkpt>
      <trkpt lat="42.43189" lon="8.91276">
        <ele>1801.2</ele>
        <time>2015-07-01T05:24:23Z</time>
      </trkpt>
      <trkpt lat="42.43188" lon="8.91284">
        <ele>1801.8</ele>
        <time>2015-07-01T05:24:29Z</time>
      </trkpt>
      <trkpt lat="42.43186" lon="8.91293">
        <ele>1802.6</ele>
        <time>2015-07-01T05:24:37Z</time>
      </trkpt>
      <trkpt lat="42.43187" lon="8.91299">
        <ele>1804.2</ele>
        <time>2015-07-01T05:24:49Z</time>
      </trkpt>
      <trkpt lat="42.43188" lon="8.91298">
        <ele>1805.4</ele>
        <time>2015-07-01T05:25:00Z</time>
      </trkpt>
      <trkpt lat="42.43189" lon="8.91304">
        <ele>1807.2</ele>
        <time>2015-07-01T05:25:15Z</time>
      </trkpt>
      <trkpt lat="42.4319" lon="8.9131">
        <ele>1808.8</ele>
        <time>2015-07-01T05:25:28Z</time>
      </trkpt>
      <trkpt lat="42.43189" lon="8.9131">
        <ele>1810.6</ele>
        <time>2015-07-01T05:25:39Z</time>
      </trkpt>
      <trkpt lat="42.43191" lon="8.91311">
        <ele>1811.6</ele>
        <time>2015-07-01T05:25:47Z</time>
      </trkpt>
      <trkpt lat="42.43194" lon="8.91312">
        <ele>1813.8</ele>
        <time>2015-07-01T05:26:02Z</time>
      </trkpt>
      <trkpt lat="42.43193" lon="8.91311">
        <ele>1814.6</ele>
        <time>2015-07-01T05:26:11Z</time>
      </trkpt>
      <trkpt lat="42.43198" lon="8.91315">
        <ele>1816.4</ele>
        <time>2015-07-01T05:26:24Z</time>
      </trkpt>
      <trkpt lat="42.43205" lon="8.91313">
        <ele>1818.2</ele>
        <time>2015-07-01T05:26:38Z</time>
      </trkpt>
      <trkpt lat="42.43207" lon="8.91315">
        <ele>1819.2</ele>
        <time>2015-07-01T05:26:47Z</time>
      </trkpt>
      <trkpt lat="42.43211" lon="8.91316">
        <ele>1820.8</ele>
        <time>2015-07-01T05:26:57Z</time>
      </trkpt>
      <trkpt lat="42.43216" lon="8.91315">
        <ele>1821.8</ele>
        <time>2015-07-01T05:27:07Z</time>
      </trkpt>
      <trkpt lat="42.43224" lon="8.91312">
        <ele>1823.2</ele>
        <time>2015-07-01T05:27:16Z</time>
      </trkpt>
      <trkpt lat="42.43226" lon="8.91311">
        <ele>1823.4</ele>
        <time>2015-07-01T05:27:20Z</time>
      </trkpt>
      <trkpt lat="42.4323" lon="8.9131">
        <ele>1824.2</ele>
        <time>2015-07-01T05:27:25Z</time>
      </trkpt>
      <trkpt lat="42.43232" lon="8.91304">
        <ele>1824.6</ele>
        <time>2015-07-01T05:27:30Z</time>
      </trkpt>
      <trkpt lat="42.43233" lon="8.91305">
        <ele>1824.8</ele>
        <time>2015-07-01T05:27:31Z</time>
      </trkpt>
      <trkpt lat="42.43234" lon="8.91299">
        <ele>1825.2</ele>
        <time>2015-07-01T05:27:33Z</time>
      </trkpt>
      <trkpt lat="42.43234" lon="8.91295">
        <ele>1825.4</ele>
        <time>2015-07-01T05:27:36Z</time>
      </trkpt>
      <trkpt lat="42.43235" lon="8.91292">
        <ele>1826</ele>
        <time>2015-07-01T05:27:41Z</time>
      </trkpt>
      <trkpt lat="42.43238" lon="8.91292">
        <ele>1826.8</ele>
        <time>2015-07-01T05:27:48Z</time>
      </trkpt>
      <trkpt lat="42.43246" lon="8.91284">
        <ele>1828.4</ele>
        <time>2015-07-01T05:27:59Z</time>
      </trkpt>
      <trkpt lat="42.4325" lon="8.91285">
        <ele>1829.2</ele>
        <time>2015-07-01T05:28:07Z</time>
      </trkpt>
      <trkpt lat="42.43251" lon="8.91285">
        <ele>1830.2</ele>
        <time>2015-07-01T05:28:16Z</time>
      </trkpt>
      <trkpt lat="42.43254" lon="8.91286">
        <ele>1831.2</ele>
        <time>2015-07-01T05:28:23Z</time>
      </trkpt>
      <trkpt lat="42.43256" lon="8.91285">
        <ele>1832</ele>
        <time>2015-07-01T05:28:30Z</time>
      </trkpt>
      <trkpt lat="42.43261" lon="8.91282">
        <ele>1833.2</ele>
        <time>2015-07-01T05:28:37Z</time>
      </trkpt>
      <trkpt lat="42.43265" lon="8.91281">
        <ele>1834.2</ele>
        <time>2015-07-01T05:28:47Z</time>
      </trkpt>
      <trkpt lat="42.43268" lon="8.91281">
        <ele>1834.8</ele>
        <time>2015-07-01T05:28:53Z</time>
      </trkpt>
      <trkpt lat="42.4327" lon="8.91281">
        <ele>1836.2</ele>
        <time>2015-07-01T05:29:02Z</time>
      </trkpt>
      <trkpt lat="42.43271" lon="8.91281">
        <ele>1836.4</ele>
        <time>2015-07-01T05:29:07Z</time>
      </trkpt>
      <trkpt lat="42.43273" lon="8.91279">
        <ele>1837.4</ele>
        <time>2015-07-01T05:29:12Z</time>
      </trkpt>
      <trkpt lat="42.43276" lon="8.91281">
        <ele>1838.6</ele>
        <time>2015-07-01T05:29:18Z</time>
      </trkpt>
      <trkpt lat="42.43279" lon="8.91281">
        <ele>1839.6</ele>
        <time>2015-07-01T05:29:25Z</time>
      </trkpt>
      <trkpt lat="42.43281" lon="8.91279">
        <ele>1840.4</ele>
        <time>2015-07-01T05:29:32Z</time>
      </trkpt>
      <trkpt lat="42.43283" lon="8.91277">
        <ele>1840.8</ele>
        <time>2015-07-01T05:29:37Z</time>
      </trkpt>
      <trkpt lat="42.43286" lon="8.91276">
        <ele>1842.4</ele>
        <time>2015-07-01T05:29:44Z</time>
      </trkpt>
      <trkpt lat="42.43291" lon="8.91273">
        <ele>1843.4</ele>
        <time>2015-07-01T05:29:54Z</time>
      </trkpt>
      <trkpt lat="42.43292" lon="8.91271">
        <ele>1843.8</ele>
        <time>2015-07-01T05:30:17Z</time>
      </trkpt>
      <trkpt lat="42.43292" lon="8.91271">
        <ele>1843.6</ele>
        <time>2015-07-01T05:30:44Z</time>
      </trkpt>
      <trkpt lat="42.43291" lon="8.91273">
        <ele>1843.8</ele>
        <time>2015-07-01T05:31:09Z</time>
      </trkpt>
      <trkpt lat="42.43292" lon="8.91272">
        <ele>1843.8</ele>
        <time>2015-07-01T05:31:29Z</time>
      </trkpt>
      <trkpt lat="42.4329" lon="8.9127">
        <ele>1843.8</ele>
        <time>2015-07-01T05:31:53Z</time>
      </trkpt>
      <trkpt lat="42.4329" lon="8.9127">
        <ele>1843.6</ele>
        <time>2015-07-01T05:32:22Z</time>
      </trkpt>
      <trkpt lat="42.4329" lon="8.91272">
        <ele>1844</ele>
        <time>2015-07-01T05:32:39Z</time>
      </trkpt>
      <trkpt lat="42.43291" lon="8.9127">
        <ele>1844</ele>
        <time>2015-07-01T05:33:04Z</time>
      </trkpt>
      <trkpt lat="42.43291" lon="8.91272">
        <ele>1844.2</ele>
        <time>2015-07-01T05:33:25Z</time>
      </trkpt>
      <trkpt lat="42.43288" lon="8.91286">
        <ele>1844</ele>
        <time>2015-07-01T05:33:46Z</time>
      </trkpt>
      <trkpt lat="42.43288" lon="8.9129">
        <ele>1844</ele>
        <time>2015-07-01T05:33:50Z</time>
      </trkpt>
      <trkpt lat="42.43289" lon="8.91291">
        <ele>1844.6</ele>
        <time>2015-07-01T05:33:53Z</time>
      </trkpt>
      <trkpt lat="42.43287" lon="8.91295">
        <ele>1845</ele>
        <time>2015-07-01T05:33:59Z</time>
      </trkpt>
      <trkpt lat="42.43286" lon="8.913">
        <ele>1846</ele>
        <time>2015-07-01T05:34:05Z</time>
      </trkpt>
      <trkpt lat="42.43284" lon="8.91304">
        <ele>1847</ele>
        <time>2015-07-01T05:34:11Z</time>
      </trkpt>
      <trkpt lat="42.43284" lon="8.91306">
        <ele>1847.8</ele>
        <time>2015-07-01T05:34:17Z</time>
      </trkpt>
      <trkpt lat="42.43283" lon="8.91309">
        <ele>1848.8</ele>
        <time>2015-07-01T05:34:23Z</time>
      </trkpt>
      <trkpt lat="42.43278" lon="8.91314">
        <ele>1850</ele>
        <time>2015-07-01T05:34:36Z</time>
      </trkpt>
      <trkpt lat="42.43273" lon="8.91326">
        <ele>1850.6</ele>
        <time>2015-07-01T05:34:51Z</time>
      </trkpt>
      <trkpt lat="42.43271" lon="8.91331">
        <ele>1850.8</ele>
        <time>2015-07-01T05:34:57Z</time>
      </trkpt>
      <trkpt lat="42.43272" lon="8.91336">
        <ele>1852</ele>
        <time>2015-07-01T05:35:05Z</time>
      </trkpt>
      <trkpt lat="42.43272" lon="8.91338">
        <ele>1852.4</ele>
        <time>2015-07-01T05:35:10Z</time>
      </trkpt>
      <trkpt lat="42.43272" lon="8.91341">
        <ele>1853.4</ele>
        <time>2015-07-01T05:35:16Z</time>
      </trkpt>
      <trkpt lat="42.43272" lon="8.9134">
        <ele>1854.4</ele>
        <time>2015-07-01T05:35:22Z</time>
      </trkpt>
      <trkpt lat="42.43274" lon="8.91341">
        <ele>1855.4</ele>
        <time>2015-07-01T05:35:30Z</time>
      </trkpt>
      <trkpt lat="42.4327" lon="8.91343">
        <ele>1856.2</ele>
        <time>2015-07-01T05:35:43Z</time>
      </trkpt>
      <trkpt lat="42.4327" lon="8.91346">
        <ele>1856.6</ele>
        <time>2015-07-01T05:35:49Z</time>
      </trkpt>
      <trkpt lat="42.4327" lon="8.91348">
        <ele>1857.4</ele>
        <time>2015-07-01T05:35:55Z</time>
      </trkpt>
      <trkpt lat="42.43268" lon="8.91349">
        <ele>1858.8</ele>
        <time>2015-07-01T05:36:02Z</time>
      </trkpt>
      <trkpt lat="42.43265" lon="8.91348">
        <ele>1859.2</ele>
        <time>2015-07-01T05:36:07Z</time>
      </trkpt>
      <trkpt lat="42.43269" lon="8.9135">
        <ele>1860.8</ele>
        <time>2015-07-01T05:36:19Z</time>
      </trkpt>
      <trkpt lat="42.43271" lon="8.91354">
        <ele>1861.4</ele>
        <time>2015-07-01T05:36:30Z</time>
      </trkpt>
      <trkpt lat="42.43271" lon="8.91354">
        <ele>1862</ele>
        <time>2015-07-01T05:36:37Z</time>
      </trkpt>
      <trkpt lat="42.4327" lon="8.91355">
        <ele>1862.8</ele>
        <time>2015-07-01T05:36:45Z</time>
      </trkpt>
      <trkpt lat="42.43268" lon="8.91358">
        <ele>1864</ele>
        <time>2015-07-01T05:36:54Z</time>
      </trkpt>
      <trkpt lat="42.43264" lon="8.91358">
        <ele>1864.2</ele>
        <time>2015-07-01T05:37:00Z</time>
      </trkpt>
      <trkpt lat="42.43263" lon="8.91358">
        <ele>1864.6</ele>
        <time>2015-07-01T05:37:04Z</time>
      </trkpt>
      <trkpt lat="42.43261" lon="8.91359">
        <ele>1865.2</ele>
        <time>2015-07-01T05:37:13Z</time>
      </trkpt>
      <trkpt lat="42.4326" lon="8.91361">
        <ele>1866</ele>
        <time>2015-07-01T05:37:20Z</time>
      </trkpt>
      <trkpt lat="42.43262" lon="8.91362">
        <ele>1866.8</ele>
        <time>2015-07-01T05:37:27Z</time>
      </trkpt>
      <trkpt lat="42.43263" lon="8.91364">
        <ele>1867.6</ele>
        <time>2015-07-01T05:37:32Z</time>
      </trkpt>
      <trkpt lat="42.43263" lon="8.91366">
        <ele>1868.6</ele>
        <time>2015-07-01T05:37:39Z</time>
      </trkpt>
      <trkpt lat="42.43263" lon="8.91368">
        <ele>1869.8</ele>
        <time>2015-07-01T05:37:48Z</time>
      </trkpt>
      <trkpt lat="42.43263" lon="8.91369">
        <ele>1870.4</ele>
        <time>2015-07-01T05:37:55Z</time>
      </trkpt>
      <trkpt lat="42.43262" lon="8.9137">
        <ele>1871.8</ele>
        <time>2015-07-01T05:38:10Z</time>
      </trkpt>
      <trkpt lat="42.43261" lon="8.9137">
        <ele>1872</ele>
        <time>2015-07-01T05:38:21Z</time>
      </trkpt>
      <trkpt lat="42.43263" lon="8.91373">
        <ele>1872.8</ele>
        <time>2015-07-01T05:38:35Z</time>
      </trkpt>
      <trkpt lat="42.43265" lon="8.91373">
        <ele>1873.4</ele>
        <time>2015-07-01T05:38:41Z</time>
      </trkpt>
      <trkpt lat="42.43271" lon="8.91373">
        <ele>1875</ele>
        <time>2015-07-01T05:38:51Z</time>
      </trkpt>
      <trkpt lat="42.43272" lon="8.91376">
        <ele>1875.4</ele>
        <time>2015-07-01T05:38:59Z</time>
      </trkpt>
      <trkpt lat="42.43275" lon="8.91376">
        <ele>1876</ele>
        <time>2015-07-01T05:39:04Z</time>
      </trkpt>
      <trkpt lat="42.43278" lon="8.91374">
        <ele>1877</ele>
        <time>2015-07-01T05:39:09Z</time>
      </trkpt>
      <trkpt lat="42.43281" lon="8.91375">
        <ele>1878.4</ele>
        <time>2015-07-01T05:39:19Z</time>
      </trkpt>
      <trkpt lat="42.43282" lon="8.91375">
        <ele>1878.6</ele>
        <time>2015-07-01T05:39:24Z</time>
      </trkpt>
      <trkpt lat="42.43283" lon="8.91376">
        <ele>1880</ele>
        <time>2015-07-01T05:39:31Z</time>
      </trkpt>
      <trkpt lat="42.43282" lon="8.91377">
        <ele>1881.2</ele>
        <time>2015-07-01T05:39:42Z</time>
      </trkpt>
      <trkpt lat="42.4328" lon="8.91379">
        <ele>1881.8</ele>
        <time>2015-07-01T05:39:50Z</time>
      </trkpt>
      <trkpt lat="42.43282" lon="8.91381">
        <ele>1882.6</ele>
        <time>2015-07-01T05:39:57Z</time>
      </trkpt>
      <trkpt lat="42.43282" lon="8.91381">
        <ele>1883.2</ele>
        <time>2015-07-01T05:40:03Z</time>
      </trkpt>
      <trkpt lat="42.43284" lon="8.91383">
        <ele>1884.4</ele>
        <time>2015-07-01T05:40:11Z</time>
      </trkpt>
      <trkpt lat="42.43284" lon="8.91385">
        <ele>1885.2</ele>
        <time>2015-07-01T05:40:18Z</time>
      </trkpt>
      <trkpt lat="42.43284" lon="8.91386">
        <ele>1886.2</ele>
        <time>2015-07-01T05:40:26Z</time>
      </trkpt>
      <trkpt lat="42.43283" lon="8.91388">
        <ele>1887.2</ele>
        <time>2015-07-01T05:40:36Z</time>
      </trkpt>
      <trkpt lat="42.43283" lon="8.9139">
        <ele>1887.6</ele>
        <time>2015-07-01T05:40:41Z</time>
      </trkpt>
      <trkpt lat="42.43284" lon="8.91392">
        <ele>1888.4</ele>
        <time>2015-07-01T05:40:46Z</time>
      </trkpt>
      <trkpt lat="42.43286" lon="8.91394">
        <ele>1889.6</ele>
        <time>2015-07-01T05:40:52Z</time>
      </trkpt>
      <trkpt lat="42.43288" lon="8.91394">
        <ele>1890.6</ele>
        <time>2015-07-01T05:40:59Z</time>
      </trkpt>
      <trkpt lat="42.43291" lon="8.91395">
        <ele>1891.6</ele>
        <time>2015-07-01T05:41:07Z</time>
      </trkpt>
      <trkpt lat="42.43293" lon="8.91395">
        <ele>1892.6</ele>
        <time>2015-07-01T05:41:15Z</time>
      </trkpt>
      <trkpt lat="42.43296" lon="8.91398">
        <ele>1893.2</ele>
        <time>2015-07-01T05:41:24Z</time>
      </trkpt>
      <trkpt lat="42.43297" lon="8.91419">
        <ele>1893.2</ele>
        <time>2015-07-01T05:42:23Z</time>
      </trkpt>
      <trkpt lat="42.433" lon="8.91426">
        <ele>1893.4</ele>
        <time>2015-07-01T05:42:32Z</time>
      </trkpt>
      <trkpt lat="42.43306" lon="8.91447">
        <ele>1894.6</ele>
        <time>2015-07-01T05:42:52Z</time>
      </trkpt>
      <trkpt lat="42.43322" lon="8.91469">
        <ele>1894</ele>
        <time>2015-07-01T05:43:37Z</time>
      </trkpt>
      <trkpt lat="42.43324" lon="8.91473">
        <ele>1895</ele>
        <time>2015-07-01T05:43:46Z</time>
      </trkpt>
      <trkpt lat="42.43327" lon="8.91475">
        <ele>1895.6</ele>
        <time>2015-07-01T05:43:52Z</time>
      </trkpt>
      <trkpt lat="42.4333" lon="8.91478">
        <ele>1896.6</ele>
        <time>2015-07-01T05:43:59Z</time>
      </trkpt>
      <trkpt lat="42.43331" lon="8.91479">
        <ele>1897.6</ele>
        <time>2015-07-01T05:44:07Z</time>
      </trkpt>
      <trkpt lat="42.43331" lon="8.91482">
        <ele>1898.2</ele>
        <time>2015-07-01T05:44:15Z</time>
      </trkpt>
      <trkpt lat="42.4333" lon="8.91485">
        <ele>1899.2</ele>
        <time>2015-07-01T05:44:22Z</time>
      </trkpt>
      <trkpt lat="42.4333" lon="8.91487">
        <ele>1900</ele>
        <time>2015-07-01T05:44:28Z</time>
      </trkpt>
      <trkpt lat="42.4333" lon="8.91488">
        <ele>1901</ele>
        <time>2015-07-01T05:44:34Z</time>
      </trkpt>
      <trkpt lat="42.43339" lon="8.91496">
        <ele>1901.2</ele>
        <time>2015-07-01T05:44:53Z</time>
      </trkpt>
      <trkpt lat="42.43346" lon="8.915">
        <ele>1899.4</ele>
        <time>2015-07-01T05:45:09Z</time>
      </trkpt>
      <trkpt lat="42.43347" lon="8.91503">
        <ele>1899</ele>
        <time>2015-07-01T05:45:15Z</time>
      </trkpt>
      <trkpt lat="42.43361" lon="8.91519">
        <ele>1896.2</ele>
        <time>2015-07-01T05:46:00Z</time>
      </trkpt>
      <trkpt lat="42.43366" lon="8.91521">
        <ele>1895.2</ele>
        <time>2015-07-01T05:46:08Z</time>
      </trkpt>
      <trkpt lat="42.43375" lon="8.91534">
        <ele>1894</ele>
        <time>2015-07-01T05:46:26Z</time>
      </trkpt>
      <trkpt lat="42.43381" lon="8.91539">
        <ele>1895</ele>
        <time>2015-07-01T05:46:35Z</time>
      </trkpt>
      <trkpt lat="42.43387" lon="8.91538">
        <ele>1894.2</ele>
        <time>2015-07-01T05:47:06Z</time>
      </trkpt>
      <trkpt lat="42.4339" lon="8.91535">
        <ele>1893.4</ele>
        <time>2015-07-01T05:47:12Z</time>
      </trkpt>
      <trkpt lat="42.43393" lon="8.91538">
        <ele>1892.2</ele>
        <time>2015-07-01T05:47:18Z</time>
      </trkpt>
      <trkpt lat="42.43396" lon="8.91543">
        <ele>1891.4</ele>
        <time>2015-07-01T05:47:27Z</time>
      </trkpt>
      <trkpt lat="42.43411" lon="8.91549">
        <ele>1892</ele>
        <time>2015-07-01T05:47:49Z</time>
      </trkpt>
      <trkpt lat="42.43426" lon="8.91553">
        <ele>1890.8</ele>
        <time>2015-07-01T05:48:17Z</time>
      </trkpt>
      <trkpt lat="42.43429" lon="8.91555">
        <ele>1890.2</ele>
        <time>2015-07-01T05:48:23Z</time>
      </trkpt>
      <trkpt lat="42.43436" lon="8.91555">
        <ele>1888.4</ele>
        <time>2015-07-01T05:48:34Z</time>
      </trkpt>
      <trkpt lat="42.43438" lon="8.91556">
        <ele>1887</ele>
        <time>2015-07-01T05:48:49Z</time>
      </trkpt>
      <trkpt lat="42.43439" lon="8.91554">
        <ele>1885.2</ele>
        <time>2015-07-01T05:49:03Z</time>
      </trkpt>
      <trkpt lat="42.43443" lon="8.91558">
        <ele>1884</ele>
        <time>2015-07-01T05:49:12Z</time>
      </trkpt>
      <trkpt lat="42.43443" lon="8.91557">
        <ele>1883.8</ele>
        <time>2015-07-01T05:49:14Z</time>
      </trkpt>
      <trkpt lat="42.43444" lon="8.91557">
        <ele>1883.6</ele>
        <time>2015-07-01T05:49:26Z</time>
      </trkpt>
      <trkpt lat="42.43446" lon="8.91557">
        <ele>1881.2</ele>
        <time>2015-07-01T05:49:49Z</time>
      </trkpt>
      <trkpt lat="42.43448" lon="8.91555">
        <ele>1880.6</ele>
        <time>2015-07-01T05:49:57Z</time>
      </trkpt>
      <trkpt lat="42.4345" lon="8.91558">
        <ele>1879.2</ele>
        <time>2015-07-01T05:50:05Z</time>
      </trkpt>
      <trkpt lat="42.43455" lon="8.91566">
        <ele>1877</ele>
        <time>2015-07-01T05:50:23Z</time>
      </trkpt>
      <trkpt lat="42.43457" lon="8.91566">
        <ele>1875.4</ele>
        <time>2015-07-01T05:50:36Z</time>
      </trkpt>
      <trkpt lat="42.4346" lon="8.91564">
        <ele>1874.2</ele>
        <time>2015-07-01T05:50:49Z</time>
      </trkpt>
      <trkpt lat="42.43463" lon="8.91563">
        <ele>1872.6</ele>
        <time>2015-07-01T05:51:02Z</time>
      </trkpt>
      <trkpt lat="42.4347" lon="8.91574">
        <ele>1871</ele>
        <time>2015-07-01T05:51:20Z</time>
      </trkpt>
      <trkpt lat="42.43483" lon="8.91581">
        <ele>1871</ele>
        <time>2015-07-01T05:51:43Z</time>
      </trkpt>
      <trkpt lat="42.43484" lon="8.91585">
        <ele>1872</ele>
        <time>2015-07-01T05:51:51Z</time>
      </trkpt>
      <trkpt lat="42.43486" lon="8.91589">
        <ele>1872.4</ele>
        <time>2015-07-01T05:51:57Z</time>
      </trkpt>
      <trkpt lat="42.43489" lon="8.9159">
        <ele>1873.2</ele>
        <time>2015-07-01T05:52:03Z</time>
      </trkpt>
      <trkpt lat="42.43489" lon="8.91593">
        <ele>1874</ele>
        <time>2015-07-01T05:52:10Z</time>
      </trkpt>
      <trkpt lat="42.43491" lon="8.91592">
        <ele>1874.6</ele>
        <time>2015-07-01T05:52:14Z</time>
      </trkpt>
      <trkpt lat="42.43491" lon="8.91594">
        <ele>1876</ele>
        <time>2015-07-01T05:52:23Z</time>
      </trkpt>
      <trkpt lat="42.43491" lon="8.91594">
        <ele>1877.2</ele>
        <time>2015-07-01T05:52:35Z</time>
      </trkpt>
      <trkpt lat="42.43492" lon="8.91597">
        <ele>1877</ele>
        <time>2015-07-01T05:53:04Z</time>
      </trkpt>
      <trkpt lat="42.43494" lon="8.91597">
        <ele>1877.2</ele>
        <time>2015-07-01T05:53:09Z</time>
      </trkpt>
      <trkpt lat="42.43495" lon="8.91599">
        <ele>1878.4</ele>
        <time>2015-07-01T05:53:16Z</time>
      </trkpt>
      <trkpt lat="42.43496" lon="8.91597">
        <ele>1879.4</ele>
        <time>2015-07-01T05:53:29Z</time>
      </trkpt>
      <trkpt lat="42.43495" lon="8.91602">
        <ele>1880</ele>
        <time>2015-07-01T05:53:54Z</time>
      </trkpt>
      <trkpt lat="42.43497" lon="8.91597">
        <ele>1880.2</ele>
        <time>2015-07-01T05:54:08Z</time>
      </trkpt>
      <trkpt lat="42.43497" lon="8.91599">
        <ele>1880.2</ele>
        <time>2015-07-01T05:54:09Z</time>
      </trkpt>
      <trkpt lat="42.43497" lon="8.916">
        <ele>1881.2</ele>
        <time>2015-07-01T05:54:18Z</time>
      </trkpt>
      <trkpt lat="42.43498" lon="8.91602">
        <ele>1881.8</ele>
        <time>2015-07-01T05:54:25Z</time>
      </trkpt>
      <trkpt lat="42.43499" lon="8.91605">
        <ele>1882.6</ele>
        <time>2015-07-01T05:54:31Z</time>
      </trkpt>
      <trkpt lat="42.435" lon="8.91614">
        <ele>1883.4</ele>
        <time>2015-07-01T05:55:05Z</time>
      </trkpt>
      <trkpt lat="42.43518" lon="8.91613">
        <ele>1882</ele>
        <time>2015-07-01T05:55:46Z</time>
      </trkpt>
      <trkpt lat="42.43508" lon="8.91623">
        <ele>1881.2</ele>
        <time>2015-07-01T05:56:13Z</time>
      </trkpt>
      <trkpt lat="42.43506" lon="8.91631">
        <ele>1881.2</ele>
        <time>2015-07-01T05:56:18Z</time>
      </trkpt>
      <trkpt lat="42.43506" lon="8.91635">
        <ele>1880.8</ele>
        <time>2015-07-01T05:56:21Z</time>
      </trkpt>
      <trkpt lat="42.43504" lon="8.91637">
        <ele>1880.8</ele>
        <time>2015-07-01T05:56:23Z</time>
      </trkpt>
      <trkpt lat="42.43505" lon="8.91636">
        <ele>1880.6</ele>
        <time>2015-07-01T05:56:25Z</time>
      </trkpt>
      <trkpt lat="42.43511" lon="8.91625">
        <ele>1879.8</ele>
        <time>2015-07-01T05:56:41Z</time>
      </trkpt>
      <trkpt lat="42.43512" lon="8.91624">
        <ele>1879.6</ele>
        <time>2015-07-01T05:56:43Z</time>
      </trkpt>
      <trkpt lat="42.43511" lon="8.91619">
        <ele>1879.6</ele>
        <time>2015-07-01T05:56:46Z</time>
      </trkpt>
      <trkpt lat="42.43512" lon="8.91615">
        <ele>1879</ele>
        <time>2015-07-01T05:57:07Z</time>
      </trkpt>
      <trkpt lat="42.43512" lon="8.91608">
        <ele>1878.4</ele>
        <time>2015-07-01T05:57:30Z</time>
      </trkpt>
      <trkpt lat="42.43514" lon="8.91608">
        <ele>1878.2</ele>
        <time>2015-07-01T05:57:44Z</time>
      </trkpt>
      <trkpt lat="42.43516" lon="8.91611">
        <ele>1878</ele>
        <time>2015-07-01T05:57:50Z</time>
      </trkpt>
      <trkpt lat="42.43519" lon="8.91611">
        <ele>1878.2</ele>
        <time>2015-07-01T05:57:58Z</time>
      </trkpt>
      <trkpt lat="42.4352" lon="8.91613">
        <ele>1878.6</ele>
        <time>2015-07-01T05:58:06Z</time>
      </trkpt>
      <trkpt lat="42.43523" lon="8.91617">
        <ele>1879.2</ele>
        <time>2015-07-01T05:58:45Z</time>
      </trkpt>
      <trkpt lat="42.43525" lon="8.91618">
        <ele>1879.2</ele>
        <time>2015-07-01T05:58:48Z</time>
      </trkpt>
      <trkpt lat="42.43547" lon="8.91641">
        <ele>1878.8</ele>
        <time>2015-07-01T05:59:30Z</time>
      </trkpt>
      <trkpt lat="42.43551" lon="8.91642">
        <ele>1879.2</ele>
        <time>2015-07-01T05:59:46Z</time>
      </trkpt>
      <trkpt lat="42.43556" lon="8.91645">
        <ele>1877.6</ele>
        <time>2015-07-01T05:59:53Z</time>
      </trkpt>
      <trkpt lat="42.4356" lon="8.91647">
        <ele>1877</ele>
        <time>2015-07-01T05:59:57Z</time>
      </trkpt>
      <trkpt lat="42.43561" lon="8.91652">
        <ele>1876.8</ele>
        <time>2015-07-01T06:00:05Z</time>
      </trkpt>
      <trkpt lat="42.43563" lon="8.91653">
        <ele>1877.8</ele>
        <time>2015-07-01T06:00:11Z</time>
      </trkpt>
      <trkpt lat="42.43567" lon="8.91655">
        <ele>1879</ele>
        <time>2015-07-01T06:00:18Z</time>
      </trkpt>
      <trkpt lat="42.43571" lon="8.91655">
        <ele>1880</ele>
        <time>2015-07-01T06:00:25Z</time>
      </trkpt>
      <trkpt lat="42.43577" lon="8.91659">
        <ele>1881</ele>
        <time>2015-07-01T06:00:33Z</time>
      </trkpt>
      <trkpt lat="42.4358" lon="8.91661">
        <ele>1881.6</ele>
        <time>2015-07-01T06:00:38Z</time>
      </trkpt>
      <trkpt lat="42.43581" lon="8.91663">
        <ele>1883</ele>
        <time>2015-07-01T06:00:46Z</time>
      </trkpt>
      <trkpt lat="42.43584" lon="8.91664">
        <ele>1883.6</ele>
        <time>2015-07-01T06:00:52Z</time>
      </trkpt>
      <trkpt lat="42.43587" lon="8.91666">
        <ele>1884.8</ele>
        <time>2015-07-01T06:01:00Z</time>
      </trkpt>
      <trkpt lat="42.43588" lon="8.9167">
        <ele>1885.8</ele>
        <time>2015-07-01T06:01:09Z</time>
      </trkpt>
      <trkpt lat="42.43589" lon="8.91674">
        <ele>1886.8</ele>
        <time>2015-07-01T06:01:18Z</time>
      </trkpt>
      <trkpt lat="42.4359" lon="8.91677">
        <ele>1887.8</ele>
        <time>2015-07-01T06:01:28Z</time>
      </trkpt>
      <trkpt lat="42.43594" lon="8.91681">
        <ele>1887</ele>
        <time>2015-07-01T06:02:14Z</time>
      </trkpt>
      <trkpt lat="42.43599" lon="8.9168">
        <ele>1885</ele>
        <time>2015-07-01T06:02:44Z</time>
      </trkpt>
      <trkpt lat="42.43599" lon="8.91686">
        <ele>1884.2</ele>
        <time>2015-07-01T06:02:57Z</time>
      </trkpt>
      <trkpt lat="42.43611" lon="8.91681">
        <ele>1882</ele>
        <time>2015-07-01T06:03:27Z</time>
      </trkpt>
      <trkpt lat="42.43615" lon="8.91684">
        <ele>1880.4</ele>
        <time>2015-07-01T06:03:55Z</time>
      </trkpt>
      <trkpt lat="42.43619" lon="8.91684">
        <ele>1879.6</ele>
        <time>2015-07-01T06:04:04Z</time>
      </trkpt>
      <trkpt lat="42.43631" lon="8.9168">
        <ele>1878.4</ele>
        <time>2015-07-01T06:04:28Z</time>
      </trkpt>
      <trkpt lat="42.43642" lon="8.91682">
        <ele>1879.2</ele>
        <time>2015-07-01T06:04:56Z</time>
      </trkpt>
      <trkpt lat="42.43644" lon="8.91686">
        <ele>1877.4</ele>
        <time>2015-07-01T06:05:05Z</time>
      </trkpt>
      <trkpt lat="42.43649" lon="8.91688">
        <ele>1876</ele>
        <time>2015-07-01T06:05:13Z</time>
      </trkpt>
      <trkpt lat="42.43651" lon="8.91685">
        <ele>1875.8</ele>
        <time>2015-07-01T06:05:26Z</time>
      </trkpt>
      <trkpt lat="42.43652" lon="8.91683">
        <ele>1876.8</ele>
        <time>2015-07-01T06:05:34Z</time>
      </trkpt>
      <trkpt lat="42.43657" lon="8.91681">
        <ele>1876.2</ele>
        <time>2015-07-01T06:06:12Z</time>
      </trkpt>
      <trkpt lat="42.43658" lon="8.91684">
        <ele>1875.6</ele>
        <time>2015-07-01T06:06:18Z</time>
      </trkpt>
      <trkpt lat="42.43659" lon="8.91685">
        <ele>1873.4</ele>
        <time>2015-07-01T06:06:34Z</time>
      </trkpt>
      <trkpt lat="42.43659" lon="8.91682">
        <ele>1873.4</ele>
        <time>2015-07-01T06:06:44Z</time>
      </trkpt>
      <trkpt lat="42.43659" lon="8.91681">
        <ele>1874.2</ele>
        <time>2015-07-01T06:06:50Z</time>
      </trkpt>
      <trkpt lat="42.43661" lon="8.91679">
        <ele>1875.2</ele>
        <time>2015-07-01T06:06:57Z</time>
      </trkpt>
      <trkpt lat="42.43666" lon="8.91677">
        <ele>1876.6</ele>
        <time>2015-07-01T06:07:09Z</time>
      </trkpt>
      <trkpt lat="42.43667" lon="8.91674">
        <ele>1877.4</ele>
        <time>2015-07-01T06:07:17Z</time>
      </trkpt>
      <trkpt lat="42.43666" lon="8.91674">
        <ele>1877.8</ele>
        <time>2015-07-01T06:07:25Z</time>
      </trkpt>
      <trkpt lat="42.43669" lon="8.91677">
        <ele>1878.6</ele>
        <time>2015-07-01T06:07:29Z</time>
      </trkpt>
      <trkpt lat="42.4367" lon="8.91679">
        <ele>1879.2</ele>
        <time>2015-07-01T06:07:52Z</time>
      </trkpt>
      <trkpt lat="42.4367" lon="8.91678">
        <ele>1880</ele>
        <time>2015-07-01T06:08:39Z</time>
      </trkpt>
      <trkpt lat="42.43674" lon="8.91675">
        <ele>1879</ele>
        <time>2015-07-01T06:09:19Z</time>
      </trkpt>
      <trkpt lat="42.43675" lon="8.91672">
        <ele>1877.8</ele>
        <time>2015-07-01T06:09:34Z</time>
      </trkpt>
      <trkpt lat="42.43677" lon="8.91672">
        <ele>1876.6</ele>
        <time>2015-07-01T06:09:56Z</time>
      </trkpt>
      <trkpt lat="42.43681" lon="8.91671">
        <ele>1875</ele>
        <time>2015-07-01T06:10:19Z</time>
      </trkpt>
      <trkpt lat="42.43682" lon="8.91671">
        <ele>1875</ele>
        <time>2015-07-01T06:10:21Z</time>
      </trkpt>
      <trkpt lat="42.43688" lon="8.91671">
        <ele>1874.6</ele>
        <time>2015-07-01T06:10:31Z</time>
      </trkpt>
      <trkpt lat="42.43693" lon="8.91677">
        <ele>1874.8</ele>
        <time>2015-07-01T06:10:43Z</time>
      </trkpt>
      <trkpt lat="42.43695" lon="8.9168">
        <ele>1874</ele>
        <time>2015-07-01T06:10:49Z</time>
      </trkpt>
      <trkpt lat="42.43697" lon="8.91681">
        <ele>1872</ele>
        <time>2015-07-01T06:10:57Z</time>
      </trkpt>
      <trkpt lat="42.43699" lon="8.91682">
        <ele>1871.8</ele>
        <time>2015-07-01T06:11:01Z</time>
      </trkpt>
      <trkpt lat="42.43702" lon="8.91684">
        <ele>1870.2</ele>
        <time>2015-07-01T06:11:07Z</time>
      </trkpt>
      <trkpt lat="42.43706" lon="8.91683">
        <ele>1869.4</ele>
        <time>2015-07-01T06:11:28Z</time>
      </trkpt>
      <trkpt lat="42.43707" lon="8.91681">
        <ele>1869.8</ele>
        <time>2015-07-01T06:11:36Z</time>
      </trkpt>
      <trkpt lat="42.43708" lon="8.91682">
        <ele>1871.2</ele>
        <time>2015-07-01T06:11:51Z</time>
      </trkpt>
      <trkpt lat="42.43719" lon="8.9168">
        <ele>1870.8</ele>
        <time>2015-07-01T06:12:54Z</time>
      </trkpt>
      <trkpt lat="42.43722" lon="8.9168">
        <ele>1871.8</ele>
        <time>2015-07-01T06:13:01Z</time>
      </trkpt>
      <trkpt lat="42.43731" lon="8.91681">
        <ele>1872.2</ele>
        <time>2015-07-01T06:13:14Z</time>
      </trkpt>
      <trkpt lat="42.43737" lon="8.91681">
        <ele>1871</ele>
        <time>2015-07-01T06:13:22Z</time>
      </trkpt>
      <trkpt lat="42.4374" lon="8.91681">
        <ele>1870.6</ele>
        <time>2015-07-01T06:13:25Z</time>
      </trkpt>
      <trkpt lat="42.43742" lon="8.91682">
        <ele>1870.2</ele>
        <time>2015-07-01T06:13:27Z</time>
      </trkpt>
      <trkpt lat="42.4376" lon="8.91679">
        <ele>1870.2</ele>
        <time>2015-07-01T06:13:54Z</time>
      </trkpt>
      <trkpt lat="42.43761" lon="8.91676">
        <ele>1870.6</ele>
        <time>2015-07-01T06:14:00Z</time>
      </trkpt>
      <trkpt lat="42.43764" lon="8.91677">
        <ele>1871.4</ele>
        <time>2015-07-01T06:14:05Z</time>
      </trkpt>
      <trkpt lat="42.43768" lon="8.91679">
        <ele>1873.4</ele>
        <time>2015-07-01T06:14:14Z</time>
      </trkpt>
      <trkpt lat="42.43798" lon="8.91682">
        <ele>1874.2</ele>
        <time>2015-07-01T06:15:02Z</time>
      </trkpt>
      <trkpt lat="42.438" lon="8.91682">
        <ele>1874.6</ele>
        <time>2015-07-01T06:15:09Z</time>
      </trkpt>
      <trkpt lat="42.43803" lon="8.91679">
        <ele>1874.2</ele>
        <time>2015-07-01T06:16:01Z</time>
      </trkpt>
      <trkpt lat="42.43815" lon="8.91688">
        <ele>1872.6</ele>
        <time>2015-07-01T06:17:13Z</time>
      </trkpt>
      <trkpt lat="42.43815" lon="8.91684">
        <ele>1872.4</ele>
        <time>2015-07-01T06:17:19Z</time>
      </trkpt>
      <trkpt lat="42.43813" lon="8.91679">
        <ele>1872.2</ele>
        <time>2015-07-01T06:17:34Z</time>
      </trkpt>
      <trkpt lat="42.43815" lon="8.91676">
        <ele>1870.6</ele>
        <time>2015-07-01T06:17:49Z</time>
      </trkpt>
      <trkpt lat="42.43819" lon="8.91675">
        <ele>1869</ele>
        <time>2015-07-01T06:18:21Z</time>
      </trkpt>
      <trkpt lat="42.43818" lon="8.91673">
        <ele>1868.4</ele>
        <time>2015-07-01T06:18:28Z</time>
      </trkpt>
      <trkpt lat="42.43819" lon="8.91672">
        <ele>1866.8</ele>
        <time>2015-07-01T06:18:36Z</time>
      </trkpt>
      <trkpt lat="42.43818" lon="8.9167">
        <ele>1865.8</ele>
        <time>2015-07-01T06:18:45Z</time>
      </trkpt>
      <trkpt lat="42.43817" lon="8.91668">
        <ele>1865.2</ele>
        <time>2015-07-01T06:18:50Z</time>
      </trkpt>
      <trkpt lat="42.43821" lon="8.91669">
        <ele>1863.2</ele>
        <time>2015-07-01T06:19:00Z</time>
      </trkpt>
      <trkpt lat="42.4382" lon="8.91666">
        <ele>1862.2</ele>
        <time>2015-07-01T06:19:07Z</time>
      </trkpt>
      <trkpt lat="42.43819" lon="8.91662">
        <ele>1861.2</ele>
        <time>2015-07-01T06:19:13Z</time>
      </trkpt>
      <trkpt lat="42.4382" lon="8.91661">
        <ele>1858.6</ele>
        <time>2015-07-01T06:19:59Z</time>
      </trkpt>
      <trkpt lat="42.43822" lon="8.91658">
        <ele>1857</ele>
        <time>2015-07-01T06:20:24Z</time>
      </trkpt>
      <trkpt lat="42.43826" lon="8.91657">
        <ele>1856</ele>
        <time>2015-07-01T06:20:41Z</time>
      </trkpt>
      <trkpt lat="42.43823" lon="8.91658">
        <ele>1854.6</ele>
        <time>2015-07-01T06:20:57Z</time>
      </trkpt>
      <trkpt lat="42.43829" lon="8.91657">
        <ele>1853.2</ele>
        <time>2015-07-01T06:21:06Z</time>
      </trkpt>
      <trkpt lat="42.43832" lon="8.91655">
        <ele>1852.8</ele>
        <time>2015-07-01T06:21:12Z</time>
      </trkpt>
      <trkpt lat="42.43835" lon="8.91654">
        <ele>1850.4</ele>
        <time>2015-07-01T06:21:42Z</time>
      </trkpt>
      <trkpt lat="42.43836" lon="8.91654">
        <ele>1849.6</ele>
        <time>2015-07-01T06:21:48Z</time>
      </trkpt>
      <trkpt lat="42.43837" lon="8.91648">
        <ele>1848</ele>
        <time>2015-07-01T06:22:00Z</time>
      </trkpt>
      <trkpt lat="42.43841" lon="8.91646">
        <ele>1846.6</ele>
        <time>2015-07-01T06:22:09Z</time>
      </trkpt>
      <trkpt lat="42.4384" lon="8.91642">
        <ele>1845.4</ele>
        <time>2015-07-01T06:22:17Z</time>
      </trkpt>
      <trkpt lat="42.43843" lon="8.91641">
        <ele>1844.2</ele>
        <time>2015-07-01T06:22:26Z</time>
      </trkpt>
      <trkpt lat="42.43847" lon="8.91635">
        <ele>1843.2</ele>
        <time>2015-07-01T06:22:33Z</time>
      </trkpt>
      <trkpt lat="42.43851" lon="8.91636">
        <ele>1841.6</ele>
        <time>2015-07-01T06:22:41Z</time>
      </trkpt>
      <trkpt lat="42.43877" lon="8.91632">
        <ele>1840.4</ele>
        <time>2015-07-01T06:23:24Z</time>
      </trkpt>
      <trkpt lat="42.43879" lon="8.91633">
        <ele>1841</ele>
        <time>2015-07-01T06:23:30Z</time>
      </trkpt>
      <trkpt lat="42.43881" lon="8.91633">
        <ele>1841.8</ele>
        <time>2015-07-01T06:23:36Z</time>
      </trkpt>
      <trkpt lat="42.439" lon="8.9163">
        <ele>1842.2</ele>
        <time>2015-07-01T06:24:05Z</time>
      </trkpt>
      <trkpt lat="42.43902" lon="8.9163">
        <ele>1842.4</ele>
        <time>2015-07-01T06:24:11Z</time>
      </trkpt>
      <trkpt lat="42.43905" lon="8.91628">
        <ele>1843.4</ele>
        <time>2015-07-01T06:24:17Z</time>
      </trkpt>
      <trkpt lat="42.43908" lon="8.91628">
        <ele>1844.4</ele>
        <time>2015-07-01T06:24:24Z</time>
      </trkpt>
      <trkpt lat="42.43909" lon="8.91631">
        <ele>1845.6</ele>
        <time>2015-07-01T06:24:31Z</time>
      </trkpt>
      <trkpt lat="42.43908" lon="8.91636">
        <ele>1846.4</ele>
        <time>2015-07-01T06:24:38Z</time>
      </trkpt>
      <trkpt lat="42.43909" lon="8.91637">
        <ele>1847.6</ele>
        <time>2015-07-01T06:24:47Z</time>
      </trkpt>
      <trkpt lat="42.43912" lon="8.91635">
        <ele>1848.8</ele>
        <time>2015-07-01T06:24:57Z</time>
      </trkpt>
      <trkpt lat="42.43913" lon="8.91635">
        <ele>1849.2</ele>
        <time>2015-07-01T06:25:10Z</time>
      </trkpt>
      <trkpt lat="42.43914" lon="8.91633">
        <ele>1850</ele>
        <time>2015-07-01T06:25:16Z</time>
      </trkpt>
      <trkpt lat="42.43916" lon="8.91635">
        <ele>1851.6</ele>
        <time>2015-07-01T06:25:26Z</time>
      </trkpt>
      <trkpt lat="42.43918" lon="8.91638">
        <ele>1852.2</ele>
        <time>2015-07-01T06:25:32Z</time>
      </trkpt>
      <trkpt lat="42.4392" lon="8.91638">
        <ele>1853.6</ele>
        <time>2015-07-01T06:25:42Z</time>
      </trkpt>
      <trkpt lat="42.43923" lon="8.91637">
        <ele>1854.2</ele>
        <time>2015-07-01T06:25:48Z</time>
      </trkpt>
      <trkpt lat="42.43926" lon="8.91637">
        <ele>1855.4</ele>
        <time>2015-07-01T06:25:55Z</time>
      </trkpt>
      <trkpt lat="42.43926" lon="8.91633">
        <ele>1856.6</ele>
        <time>2015-07-01T06:26:05Z</time>
      </trkpt>
      <trkpt lat="42.43927" lon="8.91634">
        <ele>1857.8</ele>
        <time>2015-07-01T06:26:18Z</time>
      </trkpt>
      <trkpt lat="42.43929" lon="8.91632">
        <ele>1857.6</ele>
        <time>2015-07-01T06:26:32Z</time>
      </trkpt>
      <trkpt lat="42.43931" lon="8.91631">
        <ele>1856.4</ele>
        <time>2015-07-01T06:26:42Z</time>
      </trkpt>
      <trkpt lat="42.43934" lon="8.91629">
        <ele>1855.4</ele>
        <time>2015-07-01T06:26:51Z</time>
      </trkpt>
      <trkpt lat="42.43936" lon="8.91628">
        <ele>1854</ele>
        <time>2015-07-01T06:27:06Z</time>
      </trkpt>
      <trkpt lat="42.43938" lon="8.91627">
        <ele>1852.4</ele>
        <time>2015-07-01T06:27:20Z</time>
      </trkpt>
      <trkpt lat="42.4394" lon="8.91626">
        <ele>1852</ele>
        <time>2015-07-01T06:27:25Z</time>
      </trkpt>
      <trkpt lat="42.43942" lon="8.91626">
        <ele>1850.6</ele>
        <time>2015-07-01T06:27:37Z</time>
      </trkpt>
      <trkpt lat="42.43944" lon="8.91625">
        <ele>1850</ele>
        <time>2015-07-01T06:27:43Z</time>
      </trkpt>
      <trkpt lat="42.43946" lon="8.91623">
        <ele>1848.2</ele>
        <time>2015-07-01T06:27:52Z</time>
      </trkpt>
      <trkpt lat="42.43947" lon="8.91623">
        <ele>1847.8</ele>
        <time>2015-07-01T06:27:57Z</time>
      </trkpt>
      <trkpt lat="42.4394" lon="8.91621">
        <ele>1845.6</ele>
        <time>2015-07-01T06:28:50Z</time>
      </trkpt>
      <trkpt lat="42.43939" lon="8.91617">
        <ele>1844</ele>
        <time>2015-07-01T06:29:01Z</time>
      </trkpt>
      <trkpt lat="42.43939" lon="8.91616">
        <ele>1843.6</ele>
        <time>2015-07-01T06:29:05Z</time>
      </trkpt>
      <trkpt lat="42.43938" lon="8.91615">
        <ele>1843.2</ele>
        <time>2015-07-01T06:29:10Z</time>
      </trkpt>
      <trkpt lat="42.43935" lon="8.91613">
        <ele>1842</ele>
        <time>2015-07-01T06:29:25Z</time>
      </trkpt>
      <trkpt lat="42.43933" lon="8.91612">
        <ele>1840.8</ele>
        <time>2015-07-01T06:29:35Z</time>
      </trkpt>
      <trkpt lat="42.43932" lon="8.91607">
        <ele>1839.4</ele>
        <time>2015-07-01T06:29:49Z</time>
      </trkpt>
      <trkpt lat="42.43941" lon="8.9161">
        <ele>1838.4</ele>
        <time>2015-07-01T06:30:17Z</time>
      </trkpt>
      <trkpt lat="42.43948" lon="8.91613">
        <ele>1839.6</ele>
        <time>2015-07-01T06:30:31Z</time>
      </trkpt>
      <trkpt lat="42.43963" lon="8.91616">
        <ele>1839.6</ele>
        <time>2015-07-01T06:31:16Z</time>
      </trkpt>
      <trkpt lat="42.43966" lon="8.91618">
        <ele>1840.6</ele>
        <time>2015-07-01T06:31:23Z</time>
      </trkpt>
      <trkpt lat="42.43967" lon="8.91623">
        <ele>1841.8</ele>
        <time>2015-07-01T06:31:32Z</time>
      </trkpt>
      <trkpt lat="42.43969" lon="8.91625">
        <ele>1842.8</ele>
        <time>2015-07-01T06:31:42Z</time>
      </trkpt>
      <trkpt lat="42.4397" lon="8.91627">
        <ele>1843.8</ele>
        <time>2015-07-01T06:31:49Z</time>
      </trkpt>
      <trkpt lat="42.43971" lon="8.91628">
        <ele>1844.8</ele>
        <time>2015-07-01T06:31:56Z</time>
      </trkpt>
      <trkpt lat="42.43972" lon="8.9163">
        <ele>1845.6</ele>
        <time>2015-07-01T06:32:06Z</time>
      </trkpt>
      <trkpt lat="42.43974" lon="8.91632">
        <ele>1846.8</ele>
        <time>2015-07-01T06:32:14Z</time>
      </trkpt>
      <trkpt lat="42.43976" lon="8.91632">
        <ele>1847.8</ele>
        <time>2015-07-01T06:32:23Z</time>
      </trkpt>
      <trkpt lat="42.43977" lon="8.91635">
        <ele>1848.8</ele>
        <time>2015-07-01T06:32:30Z</time>
      </trkpt>
      <trkpt lat="42.43978" lon="8.91637">
        <ele>1850</ele>
        <time>2015-07-01T06:32:38Z</time>
      </trkpt>
      <trkpt lat="42.43978" lon="8.91639">
        <ele>1851</ele>
        <time>2015-07-01T06:32:49Z</time>
      </trkpt>
      <trkpt lat="42.43978" lon="8.91641">
        <ele>1852.2</ele>
        <time>2015-07-01T06:32:57Z</time>
      </trkpt>
      <trkpt lat="42.43979" lon="8.91643">
        <ele>1852.8</ele>
        <time>2015-07-01T06:33:03Z</time>
      </trkpt>
      <trkpt lat="42.43979" lon="8.91645">
        <ele>1854.2</ele>
        <time>2015-07-01T06:33:13Z</time>
      </trkpt>
      <trkpt lat="42.43982" lon="8.91646">
        <ele>1855.6</ele>
        <time>2015-07-01T06:33:23Z</time>
      </trkpt>
      <trkpt lat="42.43982" lon="8.91647">
        <ele>1856</ele>
        <time>2015-07-01T06:33:30Z</time>
      </trkpt>
      <trkpt lat="42.43984" lon="8.91647">
        <ele>1857.4</ele>
        <time>2015-07-01T06:33:45Z</time>
      </trkpt>
      <trkpt lat="42.43995" lon="8.91633">
        <ele>1858.4</ele>
        <time>2015-07-01T06:34:23Z</time>
      </trkpt>
      <trkpt lat="42.43997" lon="8.91633">
        <ele>1859.2</ele>
        <time>2015-07-01T06:34:33Z</time>
      </trkpt>
      <trkpt lat="42.43999" lon="8.91632">
        <ele>1860.2</ele>
        <time>2015-07-01T06:34:41Z</time>
      </trkpt>
      <trkpt lat="42.44" lon="8.91631">
        <ele>1861.8</ele>
        <time>2015-07-01T06:34:55Z</time>
      </trkpt>
      <trkpt lat="42.44" lon="8.91631">
        <ele>1862.4</ele>
        <time>2015-07-01T06:35:04Z</time>
      </trkpt>
      <trkpt lat="42.44002" lon="8.9163">
        <ele>1862.8</ele>
        <time>2015-07-01T06:35:08Z</time>
      </trkpt>
      <trkpt lat="42.44005" lon="8.91631">
        <ele>1864</ele>
        <time>2015-07-01T06:35:41Z</time>
      </trkpt>
      <trkpt lat="42.44006" lon="8.91631">
        <ele>1864.8</ele>
        <time>2015-07-01T06:35:56Z</time>
      </trkpt>
      <trkpt lat="42.44008" lon="8.91629">
        <ele>1865.4</ele>
        <time>2015-07-01T06:36:02Z</time>
      </trkpt>
      <trkpt lat="42.4401" lon="8.91626">
        <ele>1867</ele>
        <time>2015-07-01T06:36:10Z</time>
      </trkpt>
      <trkpt lat="42.44013" lon="8.91621">
        <ele>1868.4</ele>
        <time>2015-07-01T06:36:22Z</time>
      </trkpt>
      <trkpt lat="42.44014" lon="8.91622">
        <ele>1869</ele>
        <time>2015-07-01T06:36:29Z</time>
      </trkpt>
      <trkpt lat="42.44015" lon="8.91621">
        <ele>1870.4</ele>
        <time>2015-07-01T06:36:44Z</time>
      </trkpt>
      <trkpt lat="42.44019" lon="8.91623">
        <ele>1871.4</ele>
        <time>2015-07-01T06:36:58Z</time>
      </trkpt>
      <trkpt lat="42.44022" lon="8.91625">
        <ele>1872.2</ele>
        <time>2015-07-01T06:37:04Z</time>
      </trkpt>
      <trkpt lat="42.44022" lon="8.91626">
        <ele>1873.8</ele>
        <time>2015-07-01T06:37:15Z</time>
      </trkpt>
      <trkpt lat="42.44024" lon="8.91625">
        <ele>1874.8</ele>
        <time>2015-07-01T06:37:24Z</time>
      </trkpt>
      <trkpt lat="42.44024" lon="8.91623">
        <ele>1876.2</ele>
        <time>2015-07-01T06:37:46Z</time>
      </trkpt>
      <trkpt lat="42.44028" lon="8.9162">
        <ele>1876.4</ele>
        <time>2015-07-01T06:38:00Z</time>
      </trkpt>
      <trkpt lat="42.44031" lon="8.91618">
        <ele>1875.4</ele>
        <time>2015-07-01T06:38:08Z</time>
      </trkpt>
      <trkpt lat="42.44033" lon="8.91612">
        <ele>1874.6</ele>
        <time>2015-07-01T06:38:14Z</time>
      </trkpt>
      <trkpt lat="42.4404" lon="8.91608">
        <ele>1872.8</ele>
        <time>2015-07-01T06:38:40Z</time>
      </trkpt>
      <trkpt lat="42.44043" lon="8.91604">
        <ele>1872.4</ele>
        <time>2015-07-01T06:38:46Z</time>
      </trkpt>
      <trkpt lat="42.44052" lon="8.916">
        <ele>1872.2</ele>
        <time>2015-07-01T06:39:46Z</time>
      </trkpt>
      <trkpt lat="42.44053" lon="8.916">
        <ele>1871.8</ele>
        <time>2015-07-01T06:40:11Z</time>
      </trkpt>
      <trkpt lat="42.44055" lon="8.91598">
        <ele>1871.8</ele>
        <time>2015-07-01T06:40:19Z</time>
      </trkpt>
      <trkpt lat="42.44057" lon="8.9159">
        <ele>1870.6</ele>
        <time>2015-07-01T06:40:35Z</time>
      </trkpt>
      <trkpt lat="42.44062" lon="8.91591">
        <ele>1872.6</ele>
        <time>2015-07-01T06:40:57Z</time>
      </trkpt>
      <trkpt lat="42.44062" lon="8.91591">
        <ele>1872.6</ele>
        <time>2015-07-01T06:40:58Z</time>
      </trkpt>
      <trkpt lat="42.44067" lon="8.91585">
        <ele>1872.6</ele>
        <time>2015-07-01T06:41:25Z</time>
      </trkpt>
      <trkpt lat="42.44068" lon="8.91581">
        <ele>1871.8</ele>
        <time>2015-07-01T06:41:32Z</time>
      </trkpt>
      <trkpt lat="42.4407" lon="8.91577">
        <ele>1870.4</ele>
        <time>2015-07-01T06:41:39Z</time>
      </trkpt>
      <trkpt lat="42.44079" lon="8.9157">
        <ele>1869</ele>
        <time>2015-07-01T06:42:02Z</time>
      </trkpt>
      <trkpt lat="42.4408" lon="8.91569">
        <ele>1869</ele>
        <time>2015-07-01T06:42:03Z</time>
      </trkpt>
      <trkpt lat="42.44082" lon="8.91569">
        <ele>1868.8</ele>
        <time>2015-07-01T06:42:07Z</time>
      </trkpt>
      <trkpt lat="42.44092" lon="8.91571">
        <ele>1868</ele>
        <time>2015-07-01T06:42:25Z</time>
      </trkpt>
      <trkpt lat="42.44097" lon="8.9157">
        <ele>1869</ele>
        <time>2015-07-01T06:42:32Z</time>
      </trkpt>
      <trkpt lat="42.44102" lon="8.91569">
        <ele>1870</ele>
        <time>2015-07-01T06:42:40Z</time>
      </trkpt>
      <trkpt lat="42.44105" lon="8.91568">
        <ele>1871</ele>
        <time>2015-07-01T06:42:48Z</time>
      </trkpt>
      <trkpt lat="42.44109" lon="8.91566">
        <ele>1872.4</ele>
        <time>2015-07-01T06:42:58Z</time>
      </trkpt>
      <trkpt lat="42.44112" lon="8.91563">
        <ele>1873.2</ele>
        <time>2015-07-01T06:43:05Z</time>
      </trkpt>
      <trkpt lat="42.44115" lon="8.91561">
        <ele>1874.4</ele>
        <time>2015-07-01T06:43:13Z</time>
      </trkpt>
      <trkpt lat="42.44117" lon="8.91559">
        <ele>1875.2</ele>
        <time>2015-07-01T06:43:20Z</time>
      </trkpt>
      <trkpt lat="42.44117" lon="8.91557">
        <ele>1876.4</ele>
        <time>2015-07-01T06:43:27Z</time>
      </trkpt>
      <trkpt lat="42.44119" lon="8.91552">
        <ele>1877.8</ele>
        <time>2015-07-01T06:43:35Z</time>
      </trkpt>
      <trkpt lat="42.44122" lon="8.91552">
        <ele>1878.8</ele>
        <time>2015-07-01T06:43:43Z</time>
      </trkpt>
      <trkpt lat="42.44123" lon="8.91555">
        <ele>1879.8</ele>
        <time>2015-07-01T06:43:51Z</time>
      </trkpt>
      <trkpt lat="42.44124" lon="8.91556">
        <ele>1881.2</ele>
        <time>2015-07-01T06:44:04Z</time>
      </trkpt>
      <trkpt lat="42.44127" lon="8.91557">
        <ele>1882</ele>
        <time>2015-07-01T06:44:13Z</time>
      </trkpt>
      <trkpt lat="42.44128" lon="8.91556">
        <ele>1883</ele>
        <time>2015-07-01T06:44:22Z</time>
      </trkpt>
      <trkpt lat="42.4413" lon="8.9156">
        <ele>1883.8</ele>
        <time>2015-07-01T06:44:29Z</time>
      </trkpt>
      <trkpt lat="42.44134" lon="8.9156">
        <ele>1885.4</ele>
        <time>2015-07-01T06:44:37Z</time>
      </trkpt>
      <trkpt lat="42.44134" lon="8.91557">
        <ele>1886.2</ele>
        <time>2015-07-01T06:44:44Z</time>
      </trkpt>
      <trkpt lat="42.44135" lon="8.91554">
        <ele>1887.6</ele>
        <time>2015-07-01T06:44:54Z</time>
      </trkpt>
      <trkpt lat="42.44139" lon="8.91551">
        <ele>1888.8</ele>
        <time>2015-07-01T06:45:05Z</time>
      </trkpt>
      <trkpt lat="42.44138" lon="8.91549">
        <ele>1889.4</ele>
        <time>2015-07-01T06:45:10Z</time>
      </trkpt>
      <trkpt lat="42.4414" lon="8.91547">
        <ele>1891</ele>
        <time>2015-07-01T06:45:19Z</time>
      </trkpt>
      <trkpt lat="42.44142" lon="8.91548">
        <ele>1892</ele>
        <time>2015-07-01T06:45:27Z</time>
      </trkpt>
      <trkpt lat="42.44145" lon="8.91547">
        <ele>1893.2</ele>
        <time>2015-07-01T06:45:35Z</time>
      </trkpt>
      <trkpt lat="42.44147" lon="8.91547">
        <ele>1894.4</ele>
        <time>2015-07-01T06:45:44Z</time>
      </trkpt>
      <trkpt lat="42.44149" lon="8.91547">
        <ele>1895</ele>
        <time>2015-07-01T06:45:50Z</time>
      </trkpt>
      <trkpt lat="42.44156" lon="8.91544">
        <ele>1896.4</ele>
        <time>2015-07-01T06:46:09Z</time>
      </trkpt>
      <trkpt lat="42.44157" lon="8.91542">
        <ele>1894.6</ele>
        <time>2015-07-01T06:46:22Z</time>
      </trkpt>
      <trkpt lat="42.4416" lon="8.91543">
        <ele>1894</ele>
        <time>2015-07-01T06:46:28Z</time>
      </trkpt>
      <trkpt lat="42.44162" lon="8.91536">
        <ele>1892.8</ele>
        <time>2015-07-01T06:46:36Z</time>
      </trkpt>
      <trkpt lat="42.44159" lon="8.9153">
        <ele>1892</ele>
        <time>2015-07-01T06:46:41Z</time>
      </trkpt>
      <trkpt lat="42.44159" lon="8.91527">
        <ele>1891</ele>
        <time>2015-07-01T06:46:46Z</time>
      </trkpt>
      <trkpt lat="42.4416" lon="8.91527">
        <ele>1890</ele>
        <time>2015-07-01T06:46:51Z</time>
      </trkpt>
      <trkpt lat="42.44161" lon="8.91528">
        <ele>1888.6</ele>
        <time>2015-07-01T06:46:58Z</time>
      </trkpt>
      <trkpt lat="42.44168" lon="8.91529">
        <ele>1887</ele>
        <time>2015-07-01T06:47:08Z</time>
      </trkpt>
      <trkpt lat="42.44172" lon="8.91528">
        <ele>1885.8</ele>
        <time>2015-07-01T06:47:42Z</time>
      </trkpt>
      <trkpt lat="42.4418" lon="8.91529">
        <ele>1884</ele>
        <time>2015-07-01T06:48:06Z</time>
      </trkpt>
      <trkpt lat="42.44182" lon="8.91529">
        <ele>1884</ele>
        <time>2015-07-01T06:48:08Z</time>
      </trkpt>
      <trkpt lat="42.44189" lon="8.91527">
        <ele>1884.2</ele>
        <time>2015-07-01T06:48:10Z</time>
      </trkpt>
      <trkpt lat="42.44182" lon="8.91527">
        <ele>1884</ele>
        <time>2015-07-01T06:48:14Z</time>
      </trkpt>
      <trkpt lat="42.4418" lon="8.91524">
        <ele>1882.4</ele>
        <time>2015-07-01T06:48:21Z</time>
      </trkpt>
      <trkpt lat="42.44186" lon="8.91521">
        <ele>1881.8</ele>
        <time>2015-07-01T06:48:34Z</time>
      </trkpt>
      <trkpt lat="42.4419" lon="8.9152">
        <ele>1882.8</ele>
        <time>2015-07-01T06:48:42Z</time>
      </trkpt>
      <trkpt lat="42.44193" lon="8.91519">
        <ele>1883.6</ele>
        <time>2015-07-01T06:48:49Z</time>
      </trkpt>
      <trkpt lat="42.44197" lon="8.91513">
        <ele>1885.2</ele>
        <time>2015-07-01T06:48:59Z</time>
      </trkpt>
      <trkpt lat="42.44202" lon="8.91513">
        <ele>1885.6</ele>
        <time>2015-07-01T06:49:06Z</time>
      </trkpt>
      <trkpt lat="42.44206" lon="8.91513">
        <ele>1886.8</ele>
        <time>2015-07-01T06:49:13Z</time>
      </trkpt>
      <trkpt lat="42.44209" lon="8.91511">
        <ele>1887.8</ele>
        <time>2015-07-01T06:49:21Z</time>
      </trkpt>
      <trkpt lat="42.44212" lon="8.91514">
        <ele>1888.8</ele>
        <time>2015-07-01T06:49:29Z</time>
      </trkpt>
      <trkpt lat="42.44211" lon="8.91518">
        <ele>1890</ele>
        <time>2015-07-01T06:49:37Z</time>
      </trkpt>
      <trkpt lat="42.44212" lon="8.91521">
        <ele>1890.6</ele>
        <time>2015-07-01T06:49:44Z</time>
      </trkpt>
      <trkpt lat="42.44215" lon="8.91525">
        <ele>1892</ele>
        <time>2015-07-01T06:49:52Z</time>
      </trkpt>
      <trkpt lat="42.44215" lon="8.91526">
        <ele>1893.2</ele>
        <time>2015-07-01T06:50:02Z</time>
      </trkpt>
      <trkpt lat="42.44217" lon="8.91526">
        <ele>1893.6</ele>
        <time>2015-07-01T06:50:07Z</time>
      </trkpt>
      <trkpt lat="42.44219" lon="8.91524">
        <ele>1895.2</ele>
        <time>2015-07-01T06:50:14Z</time>
      </trkpt>
      <trkpt lat="42.44222" lon="8.91522">
        <ele>1896.4</ele>
        <time>2015-07-01T06:50:24Z</time>
      </trkpt>
      <trkpt lat="42.44225" lon="8.9152">
        <ele>1897</ele>
        <time>2015-07-01T06:50:30Z</time>
      </trkpt>
      <trkpt lat="42.44228" lon="8.91522">
        <ele>1898.2</ele>
        <time>2015-07-01T06:50:37Z</time>
      </trkpt>
      <trkpt lat="42.44229" lon="8.91526">
        <ele>1899.6</ele>
        <time>2015-07-01T06:50:48Z</time>
      </trkpt>
      <trkpt lat="42.44231" lon="8.91526">
        <ele>1900</ele>
        <time>2015-07-01T06:50:54Z</time>
      </trkpt>
      <trkpt lat="42.44233" lon="8.91527">
        <ele>1901.6</ele>
        <time>2015-07-01T06:51:03Z</time>
      </trkpt>
      <trkpt lat="42.44235" lon="8.91528">
        <ele>1902.6</ele>
        <time>2015-07-01T06:51:12Z</time>
      </trkpt>
      <trkpt lat="42.44237" lon="8.91527">
        <ele>1903.8</ele>
        <time>2015-07-01T06:51:21Z</time>
      </trkpt>
      <trkpt lat="42.4424" lon="8.91529">
        <ele>1904.8</ele>
        <time>2015-07-01T06:51:30Z</time>
      </trkpt>
      <trkpt lat="42.44242" lon="8.9153">
        <ele>1905.4</ele>
        <time>2015-07-01T06:51:37Z</time>
      </trkpt>
      <trkpt lat="42.44244" lon="8.91531">
        <ele>1906.6</ele>
        <time>2015-07-01T06:51:46Z</time>
      </trkpt>
      <trkpt lat="42.44246" lon="8.91533">
        <ele>1907.4</ele>
        <time>2015-07-01T06:51:52Z</time>
      </trkpt>
      <trkpt lat="42.44247" lon="8.91533">
        <ele>1908.4</ele>
        <time>2015-07-01T06:51:58Z</time>
      </trkpt>
      <trkpt lat="42.44251" lon="8.91532">
        <ele>1909.6</ele>
        <time>2015-07-01T06:52:07Z</time>
      </trkpt>
      <trkpt lat="42.44253" lon="8.91535">
        <ele>1911</ele>
        <time>2015-07-01T06:52:15Z</time>
      </trkpt>
      <trkpt lat="42.44255" lon="8.91538">
        <ele>1912</ele>
        <time>2015-07-01T06:52:23Z</time>
      </trkpt>
      <trkpt lat="42.44256" lon="8.91542">
        <ele>1913</ele>
        <time>2015-07-01T06:52:31Z</time>
      </trkpt>
      <trkpt lat="42.44258" lon="8.91544">
        <ele>1914.2</ele>
        <time>2015-07-01T06:52:40Z</time>
      </trkpt>
      <trkpt lat="42.44261" lon="8.91541">
        <ele>1915.4</ele>
        <time>2015-07-01T06:52:49Z</time>
      </trkpt>
      <trkpt lat="42.44263" lon="8.91538">
        <ele>1916.2</ele>
        <time>2015-07-01T06:52:57Z</time>
      </trkpt>
      <trkpt lat="42.44265" lon="8.91542">
        <ele>1917.4</ele>
        <time>2015-07-01T06:53:07Z</time>
      </trkpt>
      <trkpt lat="42.44267" lon="8.91541">
        <ele>1918.6</ele>
        <time>2015-07-01T06:53:18Z</time>
      </trkpt>
      <trkpt lat="42.44268" lon="8.91539">
        <ele>1919.4</ele>
        <time>2015-07-01T06:53:26Z</time>
      </trkpt>
      <trkpt lat="42.44272" lon="8.91537">
        <ele>1920.6</ele>
        <time>2015-07-01T06:53:34Z</time>
      </trkpt>
      <trkpt lat="42.44274" lon="8.91537">
        <ele>1921.2</ele>
        <time>2015-07-01T06:53:39Z</time>
      </trkpt>
      <trkpt lat="42.44276" lon="8.9154">
        <ele>1923</ele>
        <time>2015-07-01T06:53:49Z</time>
      </trkpt>
      <trkpt lat="42.44277" lon="8.91543">
        <ele>1923.8</ele>
        <time>2015-07-01T06:53:57Z</time>
      </trkpt>
      <trkpt lat="42.4428" lon="8.91541">
        <ele>1925</ele>
        <time>2015-07-01T06:54:05Z</time>
      </trkpt>
      <trkpt lat="42.44281" lon="8.91542">
        <ele>1926.6</ele>
        <time>2015-07-01T06:54:16Z</time>
      </trkpt>
      <trkpt lat="42.44287" lon="8.91527">
        <ele>1927.6</ele>
        <time>2015-07-01T06:54:40Z</time>
      </trkpt>
      <trkpt lat="42.44292" lon="8.91524">
        <ele>1928.4</ele>
        <time>2015-07-01T06:54:51Z</time>
      </trkpt>
      <trkpt lat="42.44297" lon="8.91519">
        <ele>1929.4</ele>
        <time>2015-07-01T06:55:01Z</time>
      </trkpt>
      <trkpt lat="42.44301" lon="8.91513">
        <ele>1930.4</ele>
        <time>2015-07-01T06:55:13Z</time>
      </trkpt>
      <trkpt lat="42.44305" lon="8.91504">
        <ele>1931.4</ele>
        <time>2015-07-01T06:55:26Z</time>
      </trkpt>
      <trkpt lat="42.44308" lon="8.91501">
        <ele>1932</ele>
        <time>2015-07-01T06:55:33Z</time>
      </trkpt>
      <trkpt lat="42.44311" lon="8.91499">
        <ele>1933.2</ele>
        <time>2015-07-01T06:55:40Z</time>
      </trkpt>
      <trkpt lat="42.44313" lon="8.91495">
        <ele>1934.4</ele>
        <time>2015-07-01T06:55:47Z</time>
      </trkpt>
      <trkpt lat="42.44315" lon="8.91495">
        <ele>1935</ele>
        <time>2015-07-01T06:55:52Z</time>
      </trkpt>
      <trkpt lat="42.44317" lon="8.91493">
        <ele>1936.4</ele>
        <time>2015-07-01T06:55:59Z</time>
      </trkpt>
      <trkpt lat="42.44318" lon="8.91489">
        <ele>1937.2</ele>
        <time>2015-07-01T06:56:05Z</time>
      </trkpt>
      <trkpt lat="42.44319" lon="8.91485">
        <ele>1938.2</ele>
        <time>2015-07-01T06:56:12Z</time>
      </trkpt>
      <trkpt lat="42.44322" lon="8.91481">
        <ele>1939.8</ele>
        <time>2015-07-01T06:56:20Z</time>
      </trkpt>
      <trkpt lat="42.44325" lon="8.91476">
        <ele>1940.8</ele>
        <time>2015-07-01T06:56:31Z</time>
      </trkpt>
      <trkpt lat="42.44327" lon="8.91475">
        <ele>1941.8</ele>
        <time>2015-07-01T06:56:39Z</time>
      </trkpt>
      <trkpt lat="42.44327" lon="8.91473">
        <ele>1942.4</ele>
        <time>2015-07-01T06:56:44Z</time>
      </trkpt>
      <trkpt lat="42.44329" lon="8.91469">
        <ele>1943.8</ele>
        <time>2015-07-01T06:56:52Z</time>
      </trkpt>
      <trkpt lat="42.44331" lon="8.91466">
        <ele>1944.8</ele>
        <time>2015-07-01T06:57:00Z</time>
      </trkpt>
      <trkpt lat="42.44333" lon="8.91464">
        <ele>1945.8</ele>
        <time>2015-07-01T06:57:09Z</time>
      </trkpt>
      <trkpt lat="42.44333" lon="8.91461">
        <ele>1946.8</ele>
        <time>2015-07-01T06:57:16Z</time>
      </trkpt>
      <trkpt lat="42.44335" lon="8.91459">
        <ele>1947.8</ele>
        <time>2015-07-01T06:57:23Z</time>
      </trkpt>
      <trkpt lat="42.44336" lon="8.91459">
        <ele>1948.8</ele>
        <time>2015-07-01T06:57:30Z</time>
      </trkpt>
      <trkpt lat="42.44338" lon="8.91457">
        <ele>1949.8</ele>
        <time>2015-07-01T06:57:38Z</time>
      </trkpt>
      <trkpt lat="42.4434" lon="8.91455">
        <ele>1950.8</ele>
        <time>2015-07-01T06:57:45Z</time>
      </trkpt>
      <trkpt lat="42.44342" lon="8.91452">
        <ele>1952.2</ele>
        <time>2015-07-01T06:57:54Z</time>
      </trkpt>
      <trkpt lat="42.44344" lon="8.9145">
        <ele>1953</ele>
        <time>2015-07-01T06:58:01Z</time>
      </trkpt>
      <trkpt lat="42.44347" lon="8.91444">
        <ele>1954.2</ele>
        <time>2015-07-01T06:58:11Z</time>
      </trkpt>
      <trkpt lat="42.4435" lon="8.91433">
        <ele>1955.4</ele>
        <time>2015-07-01T06:58:27Z</time>
      </trkpt>
      <trkpt lat="42.44352" lon="8.9143">
        <ele>1956.2</ele>
        <time>2015-07-01T06:58:35Z</time>
      </trkpt>
      <trkpt lat="42.44354" lon="8.91427">
        <ele>1957.2</ele>
        <time>2015-07-01T06:58:42Z</time>
      </trkpt>
      <trkpt lat="42.44355" lon="8.91423">
        <ele>1958.6</ele>
        <time>2015-07-01T06:58:54Z</time>
      </trkpt>
      <trkpt lat="42.44355" lon="8.9142">
        <ele>1959.4</ele>
        <time>2015-07-01T06:59:02Z</time>
      </trkpt>
      <trkpt lat="42.44356" lon="8.91416">
        <ele>1960.6</ele>
        <time>2015-07-01T06:59:09Z</time>
      </trkpt>
      <trkpt lat="42.44359" lon="8.91411">
        <ele>1961.6</ele>
        <time>2015-07-01T06:59:18Z</time>
      </trkpt>
      <trkpt lat="42.4436" lon="8.91408">
        <ele>1962.6</ele>
        <time>2015-07-01T06:59:26Z</time>
      </trkpt>
      <trkpt lat="42.44361" lon="8.91406">
        <ele>1963.4</ele>
        <time>2015-07-01T06:59:32Z</time>
      </trkpt>
      <trkpt lat="42.44361" lon="8.914">
        <ele>1964.8</ele>
        <time>2015-07-01T06:59:40Z</time>
      </trkpt>
      <trkpt lat="42.44361" lon="8.91394">
        <ele>1966</ele>
        <time>2015-07-01T06:59:48Z</time>
      </trkpt>
      <trkpt lat="42.44361" lon="8.9139">
        <ele>1966.8</ele>
        <time>2015-07-01T06:59:55Z</time>
      </trkpt>
      <trkpt lat="42.44362" lon="8.91388">
        <ele>1967.4</ele>
        <time>2015-07-01T06:59:59Z</time>
      </trkpt>
      <trkpt lat="42.44364" lon="8.91387">
        <ele>1967.8</ele>
        <time>2015-07-01T07:00:03Z</time>
      </trkpt>
      <trkpt lat="42.44364" lon="8.91386">
        <ele>1969</ele>
        <time>2015-07-01T07:00:11Z</time>
      </trkpt>
      <trkpt lat="42.44364" lon="8.91383">
        <ele>1970</ele>
        <time>2015-07-01T07:00:19Z</time>
      </trkpt>
      <trkpt lat="42.44365" lon="8.91379">
        <ele>1971.2</ele>
        <time>2015-07-01T07:00:26Z</time>
      </trkpt>
      <trkpt lat="42.44367" lon="8.91378">
        <ele>1972.2</ele>
        <time>2015-07-01T07:00:36Z</time>
      </trkpt>
      <trkpt lat="42.44367" lon="8.91379">
        <ele>1973.4</ele>
        <time>2015-07-01T07:00:46Z</time>
      </trkpt>
      <trkpt lat="42.44371" lon="8.91381">
        <ele>1974.4</ele>
        <time>2015-07-01T07:00:55Z</time>
      </trkpt>
      <trkpt lat="42.44373" lon="8.91384">
        <ele>1976</ele>
        <time>2015-07-01T07:01:04Z</time>
      </trkpt>
      <trkpt lat="42.44374" lon="8.91381">
        <ele>1976.8</ele>
        <time>2015-07-01T07:01:13Z</time>
      </trkpt>
      <trkpt lat="42.44374" lon="8.91377">
        <ele>1977.4</ele>
        <time>2015-07-01T07:01:20Z</time>
      </trkpt>
      <trkpt lat="42.44374" lon="8.91375">
        <ele>1978.8</ele>
        <time>2015-07-01T07:01:28Z</time>
      </trkpt>
      <trkpt lat="42.44373" lon="8.91371">
        <ele>1980.4</ele>
        <time>2015-07-01T07:01:46Z</time>
      </trkpt>
      <trkpt lat="42.44374" lon="8.91371">
        <ele>1980.8</ele>
        <time>2015-07-01T07:01:56Z</time>
      </trkpt>
      <trkpt lat="42.44374" lon="8.91366">
        <ele>1982.4</ele>
        <time>2015-07-01T07:02:09Z</time>
      </trkpt>
      <trkpt lat="42.44374" lon="8.91361">
        <ele>1983.2</ele>
        <time>2015-07-01T07:02:16Z</time>
      </trkpt>
      <trkpt lat="42.44375" lon="8.91356">
        <ele>1984.2</ele>
        <time>2015-07-01T07:02:25Z</time>
      </trkpt>
      <trkpt lat="42.44375" lon="8.91354">
        <ele>1984.8</ele>
        <time>2015-07-01T07:02:29Z</time>
      </trkpt>
      <trkpt lat="42.44376" lon="8.91352">
        <ele>1986.2</ele>
        <time>2015-07-01T07:02:37Z</time>
      </trkpt>
      <trkpt lat="42.44378" lon="8.91346">
        <ele>1987.4</ele>
        <time>2015-07-01T07:02:45Z</time>
      </trkpt>
      <trkpt lat="42.44382" lon="8.91341">
        <ele>1988.4</ele>
        <time>2015-07-01T07:02:55Z</time>
      </trkpt>
      <trkpt lat="42.44383" lon="8.91339">
        <ele>1989.2</ele>
        <time>2015-07-01T07:03:01Z</time>
      </trkpt>
      <trkpt lat="42.4438" lon="8.91322">
        <ele>1990.8</ele>
        <time>2015-07-01T07:03:27Z</time>
      </trkpt>
      <trkpt lat="42.44381" lon="8.9132">
        <ele>1991.4</ele>
        <time>2015-07-01T07:03:33Z</time>
      </trkpt>
      <trkpt lat="42.44381" lon="8.91317">
        <ele>1993.2</ele>
        <time>2015-07-01T07:03:50Z</time>
      </trkpt>
      <trkpt lat="42.4438" lon="8.91313">
        <ele>1994</ele>
        <time>2015-07-01T07:03:59Z</time>
      </trkpt>
      <trkpt lat="42.44381" lon="8.91312">
        <ele>1995.4</ele>
        <time>2015-07-01T07:04:09Z</time>
      </trkpt>
      <trkpt lat="42.44378" lon="8.91308">
        <ele>1996.6</ele>
        <time>2015-07-01T07:04:33Z</time>
      </trkpt>
      <trkpt lat="42.44377" lon="8.91306">
        <ele>1997</ele>
        <time>2015-07-01T07:04:41Z</time>
      </trkpt>
      <trkpt lat="42.44378" lon="8.91305">
        <ele>1998.4</ele>
        <time>2015-07-01T07:04:51Z</time>
      </trkpt>
      <trkpt lat="42.44378" lon="8.91302">
        <ele>1999.2</ele>
        <time>2015-07-01T07:05:04Z</time>
      </trkpt>
      <trkpt lat="42.44381" lon="8.91302">
        <ele>2000.2</ele>
        <time>2015-07-01T07:05:12Z</time>
      </trkpt>
      <trkpt lat="42.44382" lon="8.91301">
        <ele>2001</ele>
        <time>2015-07-01T07:05:17Z</time>
      </trkpt>
      <trkpt lat="42.44382" lon="8.91301">
        <ele>2001.4</ele>
        <time>2015-07-01T07:05:19Z</time>
      </trkpt>
      <trkpt lat="42.44383" lon="8.91298">
        <ele>2002.6</ele>
        <time>2015-07-01T07:05:28Z</time>
      </trkpt>
      <trkpt lat="42.44383" lon="8.91297">
        <ele>2003.6</ele>
        <time>2015-07-01T07:05:39Z</time>
      </trkpt>
      <trkpt lat="42.44383" lon="8.91295">
        <ele>2004.8</ele>
        <time>2015-07-01T07:05:47Z</time>
      </trkpt>
      <trkpt lat="42.44384" lon="8.91292">
        <ele>2005.4</ele>
        <time>2015-07-01T07:05:53Z</time>
      </trkpt>
      <trkpt lat="42.44386" lon="8.91289">
        <ele>2006.8</ele>
        <time>2015-07-01T07:06:01Z</time>
      </trkpt>
      <trkpt lat="42.44389" lon="8.91287">
        <ele>2008</ele>
        <time>2015-07-01T07:06:09Z</time>
      </trkpt>
      <trkpt lat="42.44389" lon="8.91282">
        <ele>2009</ele>
        <time>2015-07-01T07:06:17Z</time>
      </trkpt>
      <trkpt lat="42.4439" lon="8.91261">
        <ele>2009.2</ele>
        <time>2015-07-01T07:06:48Z</time>
      </trkpt>
      <trkpt lat="42.44388" lon="8.91255">
        <ele>2008.8</ele>
        <time>2015-07-01T07:06:54Z</time>
      </trkpt>
      <trkpt lat="42.44387" lon="8.91252">
        <ele>2007.4</ele>
        <time>2015-07-01T07:07:02Z</time>
      </trkpt>
      <trkpt lat="42.44384" lon="8.91248">
        <ele>2006.4</ele>
        <time>2015-07-01T07:07:09Z</time>
      </trkpt>
      <trkpt lat="42.44384" lon="8.91236">
        <ele>2005.6</ele>
        <time>2015-07-01T07:07:33Z</time>
      </trkpt>
      <trkpt lat="42.44384" lon="8.91233">
        <ele>2007.2</ele>
        <time>2015-07-01T07:08:36Z</time>
      </trkpt>
      <trkpt lat="42.44381" lon="8.91234">
        <ele>2006.6</ele>
        <time>2015-07-01T07:10:26Z</time>
      </trkpt>
      <trkpt lat="42.4438" lon="8.9123">
        <ele>2006</ele>
        <time>2015-07-01T07:15:56Z</time>
      </trkpt>
      <trkpt lat="42.4438" lon="8.91231">
        <ele>2006</ele>
        <time>2015-07-01T07:16:03Z</time>
      </trkpt>
      <trkpt lat="42.44379" lon="8.91235">
        <ele>2006</ele>
        <time>2015-07-01T07:18:08Z</time>
      </trkpt>
      <trkpt lat="42.44379" lon="8.91236">
        <ele>2007</ele>
        <time>2015-07-01T07:20:38Z</time>
      </trkpt>
      <trkpt lat="42.4438" lon="8.91237">
        <ele>2007</ele>
        <time>2015-07-01T07:24:24Z</time>
      </trkpt>
      <trkpt lat="42.44382" lon="8.91217">
        <ele>2005</ele>
        <time>2015-07-01T07:28:11Z</time>
      </trkpt>
      <trkpt lat="42.44385" lon="8.91215">
        <ele>2003.6</ele>
        <time>2015-07-01T07:28:55Z</time>
      </trkpt>
      <trkpt lat="42.44386" lon="8.91211">
        <ele>2002.8</ele>
        <time>2015-07-01T07:29:05Z</time>
      </trkpt>
      <trkpt lat="42.44386" lon="8.91199">
        <ele>2001.4</ele>
        <time>2015-07-01T07:29:21Z</time>
      </trkpt>
      <trkpt lat="42.44386" lon="8.91198">
        <ele>2001.6</ele>
        <time>2015-07-01T07:29:22Z</time>
      </trkpt>
      <trkpt lat="42.44394" lon="8.91191">
        <ele>2000.8</ele>
        <time>2015-07-01T07:30:10Z</time>
      </trkpt>
      <trkpt lat="42.44397" lon="8.91169">
        <ele>1999.6</ele>
        <time>2015-07-01T07:30:57Z</time>
      </trkpt>
      <trkpt lat="42.44396" lon="8.9116">
        <ele>1998.6</ele>
        <time>2015-07-01T07:31:05Z</time>
      </trkpt>
      <trkpt lat="42.44396" lon="8.91159">
        <ele>1998.6</ele>
        <time>2015-07-01T07:31:06Z</time>
      </trkpt>
      <trkpt lat="42.44395" lon="8.91151">
        <ele>1997.4</ele>
        <time>2015-07-01T07:31:15Z</time>
      </trkpt>
      <trkpt lat="42.44396" lon="8.91142">
        <ele>1996.4</ele>
        <time>2015-07-01T07:31:23Z</time>
      </trkpt>
      <trkpt lat="42.44394" lon="8.91139">
        <ele>1995.8</ele>
        <time>2015-07-01T07:31:26Z</time>
      </trkpt>
      <trkpt lat="42.44393" lon="8.91132">
        <ele>1994.8</ele>
        <time>2015-07-01T07:31:31Z</time>
      </trkpt>
      <trkpt lat="42.44393" lon="8.91127">
        <ele>1993.8</ele>
        <time>2015-07-01T07:31:35Z</time>
      </trkpt>
      <trkpt lat="42.44394" lon="8.91125">
        <ele>1993.4</ele>
        <time>2015-07-01T07:31:36Z</time>
      </trkpt>
      <trkpt lat="42.4439" lon="8.91099">
        <ele>1991.6</ele>
        <time>2015-07-01T07:31:57Z</time>
      </trkpt>
      <trkpt lat="42.44391" lon="8.91096">
        <ele>1991.6</ele>
        <time>2015-07-01T07:31:59Z</time>
      </trkpt>
      <trkpt lat="42.44393" lon="8.91091">
        <ele>1991.6</ele>
        <time>2015-07-01T07:32:05Z</time>
      </trkpt>
      <trkpt lat="42.44394" lon="8.91071">
        <ele>1992</ele>
        <time>2015-07-01T07:32:26Z</time>
      </trkpt>
      <trkpt lat="42.44397" lon="8.91058">
        <ele>1990.4</ele>
        <time>2015-07-01T07:32:37Z</time>
      </trkpt>
      <trkpt lat="42.44397" lon="8.91056">
        <ele>1990.4</ele>
        <time>2015-07-01T07:32:39Z</time>
      </trkpt>
      <trkpt lat="42.44399" lon="8.91049">
        <ele>1989.6</ele>
        <time>2015-07-01T07:32:45Z</time>
      </trkpt>
      <trkpt lat="42.44399" lon="8.91048">
        <ele>1989.4</ele>
        <time>2015-07-01T07:32:46Z</time>
      </trkpt>
      <trkpt lat="42.444" lon="8.91041">
        <ele>1988.6</ele>
        <time>2015-07-01T07:32:54Z</time>
      </trkpt>
      <trkpt lat="42.44402" lon="8.91035">
        <ele>1987.2</ele>
        <time>2015-07-01T07:33:02Z</time>
      </trkpt>
      <trkpt lat="42.44404" lon="8.91031">
        <ele>1986.8</ele>
        <time>2015-07-01T07:33:06Z</time>
      </trkpt>
      <trkpt lat="42.44407" lon="8.91025">
        <ele>1985.6</ele>
        <time>2015-07-01T07:33:12Z</time>
      </trkpt>
      <trkpt lat="42.44408" lon="8.91021">
        <ele>1985.2</ele>
        <time>2015-07-01T07:33:16Z</time>
      </trkpt>
      <trkpt lat="42.44409" lon="8.91014">
        <ele>1984.4</ele>
        <time>2015-07-01T07:33:22Z</time>
      </trkpt>
      <trkpt lat="42.44412" lon="8.91002">
        <ele>1983</ele>
        <time>2015-07-01T07:33:31Z</time>
      </trkpt>
      <trkpt lat="42.44412" lon="8.91">
        <ele>1982.8</ele>
        <time>2015-07-01T07:33:33Z</time>
      </trkpt>
      <trkpt lat="42.44412" lon="8.90995">
        <ele>1982</ele>
        <time>2015-07-01T07:33:37Z</time>
      </trkpt>
      <trkpt lat="42.44414" lon="8.90986">
        <ele>1981</ele>
        <time>2015-07-01T07:33:43Z</time>
      </trkpt>
      <trkpt lat="42.44414" lon="8.90974">
        <ele>1979.6</ele>
        <time>2015-07-01T07:33:52Z</time>
      </trkpt>
      <trkpt lat="42.44415" lon="8.90962">
        <ele>1978.4</ele>
        <time>2015-07-01T07:34:01Z</time>
      </trkpt>
      <trkpt lat="42.44416" lon="8.90956">
        <ele>1978.2</ele>
        <time>2015-07-01T07:34:06Z</time>
      </trkpt>
      <trkpt lat="42.44424" lon="8.90946">
        <ele>1976.4</ele>
        <time>2015-07-01T07:34:18Z</time>
      </trkpt>
      <trkpt lat="42.44426" lon="8.90947">
        <ele>1976.4</ele>
        <time>2015-07-01T07:34:21Z</time>
      </trkpt>
      <trkpt lat="42.44427" lon="8.90935">
        <ele>1976.4</ele>
        <time>2015-07-01T07:34:51Z</time>
      </trkpt>
      <trkpt lat="42.44426" lon="8.90933">
        <ele>1975.8</ele>
        <time>2015-07-01T07:34:56Z</time>
      </trkpt>
      <trkpt lat="42.44424" lon="8.90929">
        <ele>1974.6</ele>
        <time>2015-07-01T07:35:01Z</time>
      </trkpt>
      <trkpt lat="42.44426" lon="8.90922">
        <ele>1973.2</ele>
        <time>2015-07-01T07:35:07Z</time>
      </trkpt>
      <trkpt lat="42.44432" lon="8.90914">
        <ele>1972.6</ele>
        <time>2015-07-01T07:35:50Z</time>
      </trkpt>
      <trkpt lat="42.44432" lon="8.90912">
        <ele>1971.6</ele>
        <time>2015-07-01T07:36:00Z</time>
      </trkpt>
      <trkpt lat="42.44431" lon="8.90909">
        <ele>1970.2</ele>
        <time>2015-07-01T07:36:15Z</time>
      </trkpt>
      <trkpt lat="42.4443" lon="8.90903">
        <ele>1968.8</ele>
        <time>2015-07-01T07:36:32Z</time>
      </trkpt>
      <trkpt lat="42.44431" lon="8.90893">
        <ele>1967.4</ele>
        <time>2015-07-01T07:36:48Z</time>
      </trkpt>
      <trkpt lat="42.44437" lon="8.9088">
        <ele>1966.4</ele>
        <time>2015-07-01T07:37:17Z</time>
      </trkpt>
      <trkpt lat="42.44437" lon="8.90878">
        <ele>1965.8</ele>
        <time>2015-07-01T07:37:24Z</time>
      </trkpt>
      <trkpt lat="42.44436" lon="8.90871">
        <ele>1964.4</ele>
        <time>2015-07-01T07:37:34Z</time>
      </trkpt>
      <trkpt lat="42.44437" lon="8.90866">
        <ele>1964.2</ele>
        <time>2015-07-01T07:37:38Z</time>
      </trkpt>
      <trkpt lat="42.44438" lon="8.90865">
        <ele>1963.8</ele>
        <time>2015-07-01T07:37:40Z</time>
      </trkpt>
      <trkpt lat="42.4444" lon="8.90866">
        <ele>1963</ele>
        <time>2015-07-01T07:37:54Z</time>
      </trkpt>
      <trkpt lat="42.44437" lon="8.90854">
        <ele>1963</ele>
        <time>2015-07-01T07:38:20Z</time>
      </trkpt>
      <trkpt lat="42.44437" lon="8.90849">
        <ele>1962.4</ele>
        <time>2015-07-01T07:38:25Z</time>
      </trkpt>
      <trkpt lat="42.44438" lon="8.9084">
        <ele>1960.6</ele>
        <time>2015-07-01T07:38:36Z</time>
      </trkpt>
      <trkpt lat="42.44437" lon="8.90833">
        <ele>1960.2</ele>
        <time>2015-07-01T07:38:42Z</time>
      </trkpt>
      <trkpt lat="42.44439" lon="8.90826">
        <ele>1959.2</ele>
        <time>2015-07-01T07:38:48Z</time>
      </trkpt>
      <trkpt lat="42.44442" lon="8.9082">
        <ele>1959.2</ele>
        <time>2015-07-01T07:38:59Z</time>
      </trkpt>
      <trkpt lat="42.44444" lon="8.90817">
        <ele>1960.4</ele>
        <time>2015-07-01T07:39:08Z</time>
      </trkpt>
      <trkpt lat="42.44446" lon="8.90816">
        <ele>1961.4</ele>
        <time>2015-07-01T07:39:16Z</time>
      </trkpt>
      <trkpt lat="42.44448" lon="8.90814">
        <ele>1962</ele>
        <time>2015-07-01T07:39:22Z</time>
      </trkpt>
      <trkpt lat="42.4445" lon="8.90815">
        <ele>1963.2</ele>
        <time>2015-07-01T07:39:29Z</time>
      </trkpt>
      <trkpt lat="42.44451" lon="8.90813">
        <ele>1964.2</ele>
        <time>2015-07-01T07:39:35Z</time>
      </trkpt>
      <trkpt lat="42.44453" lon="8.90811">
        <ele>1965.6</ele>
        <time>2015-07-01T07:39:43Z</time>
      </trkpt>
      <trkpt lat="42.44455" lon="8.90809">
        <ele>1966.2</ele>
        <time>2015-07-01T07:39:49Z</time>
      </trkpt>
      <trkpt lat="42.44457" lon="8.90808">
        <ele>1967.4</ele>
        <time>2015-07-01T07:39:56Z</time>
      </trkpt>
      <trkpt lat="42.44458" lon="8.90806">
        <ele>1968.8</ele>
        <time>2015-07-01T07:40:06Z</time>
      </trkpt>
      <trkpt lat="42.4446" lon="8.90806">
        <ele>1970</ele>
        <time>2015-07-01T07:40:15Z</time>
      </trkpt>
      <trkpt lat="42.44463" lon="8.90798">
        <ele>1971.2</ele>
        <time>2015-07-01T07:40:25Z</time>
      </trkpt>
      <trkpt lat="42.44465" lon="8.90793">
        <ele>1972.2</ele>
        <time>2015-07-01T07:40:34Z</time>
      </trkpt>
      <trkpt lat="42.44466" lon="8.90785">
        <ele>1973.2</ele>
        <time>2015-07-01T07:40:41Z</time>
      </trkpt>
      <trkpt lat="42.44468" lon="8.9078">
        <ele>1973.2</ele>
        <time>2015-07-01T07:40:46Z</time>
      </trkpt>
      <trkpt lat="42.44471" lon="8.90779">
        <ele>1973.8</ele>
        <time>2015-07-01T07:40:53Z</time>
      </trkpt>
      <trkpt lat="42.44477" lon="8.9078">
        <ele>1974.4</ele>
        <time>2015-07-01T07:41:02Z</time>
      </trkpt>
      <trkpt lat="42.44481" lon="8.90778">
        <ele>1975.4</ele>
        <time>2015-07-01T07:41:11Z</time>
      </trkpt>
      <trkpt lat="42.44484" lon="8.90776">
        <ele>1976.2</ele>
        <time>2015-07-01T07:41:18Z</time>
      </trkpt>
      <trkpt lat="42.44486" lon="8.90774">
        <ele>1977.4</ele>
        <time>2015-07-01T07:41:24Z</time>
      </trkpt>
      <trkpt lat="42.44488" lon="8.90773">
        <ele>1978.2</ele>
        <time>2015-07-01T07:41:29Z</time>
      </trkpt>
      <trkpt lat="42.4449" lon="8.90772">
        <ele>1979.4</ele>
        <time>2015-07-01T07:41:35Z</time>
      </trkpt>
      <trkpt lat="42.44494" lon="8.90772">
        <ele>1980.8</ele>
        <time>2015-07-01T07:41:44Z</time>
      </trkpt>
      <trkpt lat="42.44496" lon="8.90773">
        <ele>1981.2</ele>
        <time>2015-07-01T07:43:55Z</time>
      </trkpt>
      <trkpt lat="42.44495" lon="8.90773">
        <ele>1981.2</ele>
        <time>2015-07-01T07:50:01Z</time>
      </trkpt>
      <trkpt lat="42.44493" lon="8.90775">
        <ele>1981.8</ele>
        <time>2015-07-01T07:56:56Z</time>
      </trkpt>
      <trkpt lat="42.44492" lon="8.90772">
        <ele>1980.8</ele>
        <time>2015-07-01T07:57:50Z</time>
      </trkpt>
      <trkpt lat="42.44501" lon="8.90775">
        <ele>1980.8</ele>
        <time>2015-07-01T07:59:30Z</time>
      </trkpt>
      <trkpt lat="42.44507" lon="8.90785">
        <ele>1980.8</ele>
        <time>2015-07-01T07:59:44Z</time>
      </trkpt>
      <trkpt lat="42.44517" lon="8.90786">
        <ele>1981.8</ele>
        <time>2015-07-01T08:00:10Z</time>
      </trkpt>
      <trkpt lat="42.44523" lon="8.90785">
        <ele>1980.4</ele>
        <time>2015-07-01T08:00:17Z</time>
      </trkpt>
      <trkpt lat="42.44525" lon="8.90785">
        <ele>1980.2</ele>
        <time>2015-07-01T08:00:19Z</time>
      </trkpt>
      <trkpt lat="42.4453" lon="8.90785">
        <ele>1979.8</ele>
        <time>2015-07-01T08:00:29Z</time>
      </trkpt>
      <trkpt lat="42.44531" lon="8.90781">
        <ele>1981</ele>
        <time>2015-07-01T08:00:36Z</time>
      </trkpt>
      <trkpt lat="42.4454" lon="8.90767">
        <ele>1982.4</ele>
        <time>2015-07-01T08:00:59Z</time>
      </trkpt>
      <trkpt lat="42.44545" lon="8.90764">
        <ele>1982.6</ele>
        <time>2015-07-01T08:01:05Z</time>
      </trkpt>
      <trkpt lat="42.44551" lon="8.90756">
        <ele>1983.4</ele>
        <time>2015-07-01T08:01:16Z</time>
      </trkpt>
      <trkpt lat="42.44556" lon="8.90749">
        <ele>1983.8</ele>
        <time>2015-07-01T08:01:24Z</time>
      </trkpt>
      <trkpt lat="42.44557" lon="8.90747">
        <ele>1983.8</ele>
        <time>2015-07-01T08:01:26Z</time>
      </trkpt>
      <trkpt lat="42.44563" lon="8.90746">
        <ele>1983.6</ele>
        <time>2015-07-01T08:01:38Z</time>
      </trkpt>
      <trkpt lat="42.44565" lon="8.90741">
        <ele>1982.6</ele>
        <time>2015-07-01T08:01:46Z</time>
      </trkpt>
      <trkpt lat="42.44566" lon="8.90738">
        <ele>1982</ele>
        <time>2015-07-01T08:01:51Z</time>
      </trkpt>
      <trkpt lat="42.44565" lon="8.90737">
        <ele>1980.4</ele>
        <time>2015-07-01T08:01:58Z</time>
      </trkpt>
      <trkpt lat="42.44564" lon="8.90732">
        <ele>1979.2</ele>
        <time>2015-07-01T08:02:08Z</time>
      </trkpt>
      <trkpt lat="42.44567" lon="8.9073">
        <ele>1977.8</ele>
        <time>2015-07-01T08:02:18Z</time>
      </trkpt>
      <trkpt lat="42.4457" lon="8.90729">
        <ele>1977.2</ele>
        <time>2015-07-01T08:02:24Z</time>
      </trkpt>
      <trkpt lat="42.44572" lon="8.9073">
        <ele>1976</ele>
        <time>2015-07-01T08:02:30Z</time>
      </trkpt>
      <trkpt lat="42.44573" lon="8.90727">
        <ele>1975.2</ele>
        <time>2015-07-01T08:02:36Z</time>
      </trkpt>
      <trkpt lat="42.44571" lon="8.90724">
        <ele>1974</ele>
        <time>2015-07-01T08:02:42Z</time>
      </trkpt>
      <trkpt lat="42.44572" lon="8.9072">
        <ele>1972.6</ele>
        <time>2015-07-01T08:02:49Z</time>
      </trkpt>
      <trkpt lat="42.44574" lon="8.90718">
        <ele>1972</ele>
        <time>2015-07-01T08:02:54Z</time>
      </trkpt>
      <trkpt lat="42.44575" lon="8.90716">
        <ele>1971</ele>
        <time>2015-07-01T08:02:59Z</time>
      </trkpt>
      <trkpt lat="42.44572" lon="8.90711">
        <ele>1969.4</ele>
        <time>2015-07-01T08:03:06Z</time>
      </trkpt>
      <trkpt lat="42.4457" lon="8.90707">
        <ele>1968.6</ele>
        <time>2015-07-01T08:03:12Z</time>
      </trkpt>
      <trkpt lat="42.44568" lon="8.90704">
        <ele>1967.6</ele>
        <time>2015-07-01T08:03:17Z</time>
      </trkpt>
      <trkpt lat="42.44564" lon="8.90702">
        <ele>1966.4</ele>
        <time>2015-07-01T08:03:23Z</time>
      </trkpt>
      <trkpt lat="42.44563" lon="8.90699">
        <ele>1964.8</ele>
        <time>2015-07-01T08:03:34Z</time>
      </trkpt>
      <trkpt lat="42.44563" lon="8.90696">
        <ele>1964.2</ele>
        <time>2015-07-01T08:03:43Z</time>
      </trkpt>
      <trkpt lat="42.44565" lon="8.90694">
        <ele>1963.2</ele>
        <time>2015-07-01T08:03:50Z</time>
      </trkpt>
      <trkpt lat="42.44567" lon="8.90693">
        <ele>1961.8</ele>
        <time>2015-07-01T08:03:58Z</time>
      </trkpt>
      <trkpt lat="42.4457" lon="8.90691">
        <ele>1960.6</ele>
        <time>2015-07-01T08:04:10Z</time>
      </trkpt>
      <trkpt lat="42.44568" lon="8.90689">
        <ele>1960</ele>
        <time>2015-07-01T08:04:16Z</time>
      </trkpt>
      <trkpt lat="42.44572" lon="8.90687">
        <ele>1959</ele>
        <time>2015-07-01T08:04:22Z</time>
      </trkpt>
      <trkpt lat="42.44571" lon="8.90684">
        <ele>1957.4</ele>
        <time>2015-07-01T08:04:30Z</time>
      </trkpt>
      <trkpt lat="42.4457" lon="8.90683">
        <ele>1956</ele>
        <time>2015-07-01T08:04:40Z</time>
      </trkpt>
      <trkpt lat="42.44569" lon="8.90683">
        <ele>1955.2</ele>
        <time>2015-07-01T08:04:53Z</time>
      </trkpt>
      <trkpt lat="42.44568" lon="8.90679">
        <ele>1954.2</ele>
        <time>2015-07-01T08:05:05Z</time>
      </trkpt>
      <trkpt lat="42.44568" lon="8.90674">
        <ele>1953.6</ele>
        <time>2015-07-01T08:05:11Z</time>
      </trkpt>
      <trkpt lat="42.44569" lon="8.90673">
        <ele>1953.4</ele>
        <time>2015-07-01T08:05:12Z</time>
      </trkpt>
      <trkpt lat="42.44574" lon="8.90671">
        <ele>1952.2</ele>
        <time>2015-07-01T08:05:19Z</time>
      </trkpt>
      <trkpt lat="42.44574" lon="8.90668">
        <ele>1951.2</ele>
        <time>2015-07-01T08:05:30Z</time>
      </trkpt>
      <trkpt lat="42.44576" lon="8.90665">
        <ele>1950.4</ele>
        <time>2015-07-01T08:05:36Z</time>
      </trkpt>
      <trkpt lat="42.44574" lon="8.9066">
        <ele>1949.4</ele>
        <time>2015-07-01T08:05:43Z</time>
      </trkpt>
      <trkpt lat="42.44573" lon="8.90659">
        <ele>1948.6</ele>
        <time>2015-07-01T08:05:48Z</time>
      </trkpt>
      <trkpt lat="42.4457" lon="8.90658">
        <ele>1947</ele>
        <time>2015-07-01T08:05:54Z</time>
      </trkpt>
      <trkpt lat="42.44572" lon="8.90654">
        <ele>1945.6</ele>
        <time>2015-07-01T08:06:03Z</time>
      </trkpt>
      <trkpt lat="42.44573" lon="8.90652">
        <ele>1944.8</ele>
        <time>2015-07-01T08:06:09Z</time>
      </trkpt>
      <trkpt lat="42.44576" lon="8.90649">
        <ele>1943.2</ele>
        <time>2015-07-01T08:06:18Z</time>
      </trkpt>
      <trkpt lat="42.44577" lon="8.90646">
        <ele>1942.2</ele>
        <time>2015-07-01T08:06:24Z</time>
      </trkpt>
      <trkpt lat="42.44578" lon="8.90642">
        <ele>1941</ele>
        <time>2015-07-01T08:06:31Z</time>
      </trkpt>
      <trkpt lat="42.44579" lon="8.90641">
        <ele>1940.2</ele>
        <time>2015-07-01T08:06:36Z</time>
      </trkpt>
      <trkpt lat="42.44576" lon="8.90639">
        <ele>1938.4</ele>
        <time>2015-07-01T08:06:46Z</time>
      </trkpt>
      <trkpt lat="42.44574" lon="8.90638">
        <ele>1938</ele>
        <time>2015-07-01T08:06:51Z</time>
      </trkpt>
      <trkpt lat="42.44572" lon="8.90633">
        <ele>1936.4</ele>
        <time>2015-07-01T08:06:59Z</time>
      </trkpt>
      <trkpt lat="42.44577" lon="8.90633">
        <ele>1935.4</ele>
        <time>2015-07-01T08:07:07Z</time>
      </trkpt>
      <trkpt lat="42.4458" lon="8.90631">
        <ele>1934.4</ele>
        <time>2015-07-01T08:07:13Z</time>
      </trkpt>
      <trkpt lat="42.4458" lon="8.90629">
        <ele>1933.2</ele>
        <time>2015-07-01T08:07:19Z</time>
      </trkpt>
      <trkpt lat="42.44581" lon="8.90626">
        <ele>1932</ele>
        <time>2015-07-01T08:07:26Z</time>
      </trkpt>
      <trkpt lat="42.44581" lon="8.90626">
        <ele>1930.2</ele>
        <time>2015-07-01T08:07:44Z</time>
      </trkpt>
      <trkpt lat="42.44583" lon="8.90625">
        <ele>1930.2</ele>
        <time>2015-07-01T08:07:50Z</time>
      </trkpt>
      <trkpt lat="42.44585" lon="8.90621">
        <ele>1929.8</ele>
        <time>2015-07-01T08:07:57Z</time>
      </trkpt>
      <trkpt lat="42.44587" lon="8.90619">
        <ele>1928.4</ele>
        <time>2015-07-01T08:08:05Z</time>
      </trkpt>
      <trkpt lat="42.44585" lon="8.90616">
        <ele>1927.6</ele>
        <time>2015-07-01T08:08:11Z</time>
      </trkpt>
      <trkpt lat="42.44583" lon="8.90614">
        <ele>1925.8</ele>
        <time>2015-07-01T08:08:44Z</time>
      </trkpt>
      <trkpt lat="42.44583" lon="8.90609">
        <ele>1924.8</ele>
        <time>2015-07-01T08:08:53Z</time>
      </trkpt>
      <trkpt lat="42.44581" lon="8.90605">
        <ele>1924</ele>
        <time>2015-07-01T08:09:00Z</time>
      </trkpt>
      <trkpt lat="42.44579" lon="8.906">
        <ele>1922.8</ele>
        <time>2015-07-01T08:09:07Z</time>
      </trkpt>
      <trkpt lat="42.4458" lon="8.90596">
        <ele>1922</ele>
        <time>2015-07-01T08:09:12Z</time>
      </trkpt>
      <trkpt lat="42.4458" lon="8.90591">
        <ele>1920.4</ele>
        <time>2015-07-01T08:09:19Z</time>
      </trkpt>
      <trkpt lat="42.4458" lon="8.90587">
        <ele>1919</ele>
        <time>2015-07-01T08:09:27Z</time>
      </trkpt>
      <trkpt lat="42.44578" lon="8.90581">
        <ele>1918.6</ele>
        <time>2015-07-01T08:09:49Z</time>
      </trkpt>
      <trkpt lat="42.44579" lon="8.90576">
        <ele>1918.8</ele>
        <time>2015-07-01T08:10:21Z</time>
      </trkpt>
      <trkpt lat="42.44578" lon="8.90574">
        <ele>1917.8</ele>
        <time>2015-07-01T08:10:47Z</time>
      </trkpt>
      <trkpt lat="42.4458" lon="8.90573">
        <ele>1916.6</ele>
        <time>2015-07-01T08:10:55Z</time>
      </trkpt>
      <trkpt lat="42.44581" lon="8.90571">
        <ele>1915</ele>
        <time>2015-07-01T08:11:39Z</time>
      </trkpt>
      <trkpt lat="42.44583" lon="8.90568">
        <ele>1913.8</ele>
        <time>2015-07-01T08:12:47Z</time>
      </trkpt>
      <trkpt lat="42.44582" lon="8.90567">
        <ele>1913.4</ele>
        <time>2015-07-01T08:12:58Z</time>
      </trkpt>
      <trkpt lat="42.44582" lon="8.90563">
        <ele>1912.2</ele>
        <time>2015-07-01T08:13:09Z</time>
      </trkpt>
      <trkpt lat="42.44582" lon="8.9056">
        <ele>1911</ele>
        <time>2015-07-01T08:13:17Z</time>
      </trkpt>
      <trkpt lat="42.44581" lon="8.90554">
        <ele>1910.4</ele>
        <time>2015-07-01T08:13:22Z</time>
      </trkpt>
      <trkpt lat="42.44581" lon="8.90553">
        <ele>1910.4</ele>
        <time>2015-07-01T08:13:23Z</time>
      </trkpt>
      <trkpt lat="42.44582" lon="8.9055">
        <ele>1909.2</ele>
        <time>2015-07-01T08:13:28Z</time>
      </trkpt>
      <trkpt lat="42.44583" lon="8.90548">
        <ele>1908.2</ele>
        <time>2015-07-01T08:13:33Z</time>
      </trkpt>
      <trkpt lat="42.44583" lon="8.90545">
        <ele>1907.4</ele>
        <time>2015-07-01T08:13:37Z</time>
      </trkpt>
      <trkpt lat="42.4458" lon="8.90535">
        <ele>1905</ele>
        <time>2015-07-01T08:13:57Z</time>
      </trkpt>
      <trkpt lat="42.4458" lon="8.9053">
        <ele>1904.2</ele>
        <time>2015-07-01T08:14:12Z</time>
      </trkpt>
      <trkpt lat="42.4458" lon="8.90524">
        <ele>1902.8</ele>
        <time>2015-07-01T08:14:24Z</time>
      </trkpt>
      <trkpt lat="42.44582" lon="8.90516">
        <ele>1902.2</ele>
        <time>2015-07-01T08:14:32Z</time>
      </trkpt>
      <trkpt lat="42.44578" lon="8.9051">
        <ele>1901.6</ele>
        <time>2015-07-01T08:14:56Z</time>
      </trkpt>
      <trkpt lat="42.44577" lon="8.90511">
        <ele>1902.4</ele>
        <time>2015-07-01T08:15:02Z</time>
      </trkpt>
      <trkpt lat="42.44574" lon="8.90508">
        <ele>1904.2</ele>
        <time>2015-07-01T08:15:12Z</time>
      </trkpt>
      <trkpt lat="42.44575" lon="8.90497">
        <ele>1904</ele>
        <time>2015-07-01T08:15:52Z</time>
      </trkpt>
      <trkpt lat="42.44576" lon="8.90494">
        <ele>1903</ele>
        <time>2015-07-01T08:16:07Z</time>
      </trkpt>
      <trkpt lat="42.44571" lon="8.90486">
        <ele>1903</ele>
        <time>2015-07-01T08:16:19Z</time>
      </trkpt>
      <trkpt lat="42.44562" lon="8.90471">
        <ele>1904</ele>
        <time>2015-07-01T08:16:41Z</time>
      </trkpt>
      <trkpt lat="42.44561" lon="8.90468">
        <ele>1904.8</ele>
        <time>2015-07-01T08:16:47Z</time>
      </trkpt>
      <trkpt lat="42.44562" lon="8.90459">
        <ele>1905.6</ele>
        <time>2015-07-01T08:17:07Z</time>
      </trkpt>
      <trkpt lat="42.44562" lon="8.90457">
        <ele>1904.8</ele>
        <time>2015-07-01T08:17:13Z</time>
      </trkpt>
      <trkpt lat="42.44562" lon="8.90453">
        <ele>1903.2</ele>
        <time>2015-07-01T08:17:22Z</time>
      </trkpt>
      <trkpt lat="42.44564" lon="8.90451">
        <ele>1902.4</ele>
        <time>2015-07-01T08:17:34Z</time>
      </trkpt>
      <trkpt lat="42.44565" lon="8.90448">
        <ele>1901</ele>
        <time>2015-07-01T08:17:42Z</time>
      </trkpt>
      <trkpt lat="42.44566" lon="8.90444">
        <ele>1900</ele>
        <time>2015-07-01T08:17:51Z</time>
      </trkpt>
      <trkpt lat="42.44567" lon="8.90442">
        <ele>1898.8</ele>
        <time>2015-07-01T08:17:59Z</time>
      </trkpt>
      <trkpt lat="42.44569" lon="8.90437">
        <ele>1897.8</ele>
        <time>2015-07-01T08:18:08Z</time>
      </trkpt>
      <trkpt lat="42.44573" lon="8.90433">
        <ele>1896.6</ele>
        <time>2015-07-01T08:18:16Z</time>
      </trkpt>
      <trkpt lat="42.44575" lon="8.9043">
        <ele>1896</ele>
        <time>2015-07-01T08:18:27Z</time>
      </trkpt>
      <trkpt lat="42.44575" lon="8.9043">
        <ele>1894.8</ele>
        <time>2015-07-01T08:19:20Z</time>
      </trkpt>
      <trkpt lat="42.44582" lon="8.90422">
        <ele>1894.6</ele>
        <time>2015-07-01T08:20:03Z</time>
      </trkpt>
      <trkpt lat="42.44585" lon="8.90424">
        <ele>1893.8</ele>
        <time>2015-07-01T08:20:10Z</time>
      </trkpt>
      <trkpt lat="42.44587" lon="8.90423">
        <ele>1892.8</ele>
        <time>2015-07-01T08:20:15Z</time>
      </trkpt>
      <trkpt lat="42.4459" lon="8.90422">
        <ele>1890.6</ele>
        <time>2015-07-01T08:20:29Z</time>
      </trkpt>
      <trkpt lat="42.44591" lon="8.90423">
        <ele>1890.4</ele>
        <time>2015-07-01T08:20:33Z</time>
      </trkpt>
      <trkpt lat="42.44592" lon="8.90422">
        <ele>1889</ele>
        <time>2015-07-01T08:20:40Z</time>
      </trkpt>
      <trkpt lat="42.44593" lon="8.90423">
        <ele>1887.4</ele>
        <time>2015-07-01T08:20:51Z</time>
      </trkpt>
      <trkpt lat="42.44595" lon="8.90423">
        <ele>1886.8</ele>
        <time>2015-07-01T08:21:01Z</time>
      </trkpt>
      <trkpt lat="42.44596" lon="8.90424">
        <ele>1885.8</ele>
        <time>2015-07-01T08:21:07Z</time>
      </trkpt>
      <trkpt lat="42.44596" lon="8.9042">
        <ele>1884.6</ele>
        <time>2015-07-01T08:21:14Z</time>
      </trkpt>
      <trkpt lat="42.44598" lon="8.90416">
        <ele>1883.2</ele>
        <time>2015-07-01T08:21:23Z</time>
      </trkpt>
      <trkpt lat="42.446" lon="8.90418">
        <ele>1882</ele>
        <time>2015-07-01T08:21:32Z</time>
      </trkpt>
      <trkpt lat="42.44602" lon="8.90421">
        <ele>1881</ele>
        <time>2015-07-01T08:21:44Z</time>
      </trkpt>
      <trkpt lat="42.44604" lon="8.90423">
        <ele>1880</ele>
        <time>2015-07-01T08:21:52Z</time>
      </trkpt>
      <trkpt lat="42.44606" lon="8.90422">
        <ele>1878.2</ele>
        <time>2015-07-01T08:22:10Z</time>
      </trkpt>
      <trkpt lat="42.44608" lon="8.90419">
        <ele>1877.6</ele>
        <time>2015-07-01T08:22:25Z</time>
      </trkpt>
      <trkpt lat="42.44609" lon="8.90421">
        <ele>1876.6</ele>
        <time>2015-07-01T08:22:33Z</time>
      </trkpt>
      <trkpt lat="42.44611" lon="8.90421">
        <ele>1875.6</ele>
        <time>2015-07-01T08:22:49Z</time>
      </trkpt>
      <trkpt lat="42.44614" lon="8.90419">
        <ele>1874.4</ele>
        <time>2015-07-01T08:22:57Z</time>
      </trkpt>
      <trkpt lat="42.44616" lon="8.90416">
        <ele>1873.6</ele>
        <time>2015-07-01T08:23:04Z</time>
      </trkpt>
      <trkpt lat="42.44618" lon="8.90413">
        <ele>1872</ele>
        <time>2015-07-01T08:23:19Z</time>
      </trkpt>
      <trkpt lat="42.4462" lon="8.90414">
        <ele>1870.6</ele>
        <time>2015-07-01T08:23:36Z</time>
      </trkpt>
      <trkpt lat="42.44621" lon="8.90412">
        <ele>1870.2</ele>
        <time>2015-07-01T08:23:45Z</time>
      </trkpt>
      <trkpt lat="42.44624" lon="8.90409">
        <ele>1869.2</ele>
        <time>2015-07-01T08:24:03Z</time>
      </trkpt>
      <trkpt lat="42.44629" lon="8.90406">
        <ele>1867.8</ele>
        <time>2015-07-01T08:24:14Z</time>
      </trkpt>
      <trkpt lat="42.44631" lon="8.90403">
        <ele>1867</ele>
        <time>2015-07-01T08:24:20Z</time>
      </trkpt>
      <trkpt lat="42.44632" lon="8.90402">
        <ele>1866</ele>
        <time>2015-07-01T08:24:27Z</time>
      </trkpt>
      <trkpt lat="42.44632" lon="8.90408">
        <ele>1864.8</ele>
        <time>2015-07-01T08:24:34Z</time>
      </trkpt>
      <trkpt lat="42.44633" lon="8.90413">
        <ele>1863.8</ele>
        <time>2015-07-01T08:24:40Z</time>
      </trkpt>
      <trkpt lat="42.44632" lon="8.9042">
        <ele>1862.4</ele>
        <time>2015-07-01T08:24:48Z</time>
      </trkpt>
      <trkpt lat="42.44633" lon="8.90426">
        <ele>1861.4</ele>
        <time>2015-07-01T08:24:56Z</time>
      </trkpt>
      <trkpt lat="42.44633" lon="8.90429">
        <ele>1860.8</ele>
        <time>2015-07-01T08:25:01Z</time>
      </trkpt>
      <trkpt lat="42.44637" lon="8.90429">
        <ele>1859.4</ele>
        <time>2015-07-01T08:25:08Z</time>
      </trkpt>
      <trkpt lat="42.44638" lon="8.90433">
        <ele>1858.2</ele>
        <time>2015-07-01T08:25:15Z</time>
      </trkpt>
      <trkpt lat="42.44638" lon="8.9044">
        <ele>1857.4</ele>
        <time>2015-07-01T08:25:21Z</time>
      </trkpt>
      <trkpt lat="42.44638" lon="8.90446">
        <ele>1856.4</ele>
        <time>2015-07-01T08:25:26Z</time>
      </trkpt>
      <trkpt lat="42.44638" lon="8.90452">
        <ele>1855.2</ele>
        <time>2015-07-01T08:25:32Z</time>
      </trkpt>
      <trkpt lat="42.44639" lon="8.90458">
        <ele>1853.6</ele>
        <time>2015-07-01T08:25:42Z</time>
      </trkpt>
      <trkpt lat="42.44642" lon="8.90458">
        <ele>1853</ele>
        <time>2015-07-01T08:25:49Z</time>
      </trkpt>
      <trkpt lat="42.44643" lon="8.90449">
        <ele>1851.4</ele>
        <time>2015-07-01T08:25:57Z</time>
      </trkpt>
      <trkpt lat="42.44641" lon="8.90428">
        <ele>1850.4</ele>
        <time>2015-07-01T08:26:51Z</time>
      </trkpt>
      <trkpt lat="42.44642" lon="8.9042">
        <ele>1849.8</ele>
        <time>2015-07-01T08:27:01Z</time>
      </trkpt>
      <trkpt lat="42.44644" lon="8.90415">
        <ele>1848.4</ele>
        <time>2015-07-01T08:27:17Z</time>
      </trkpt>
      <trkpt lat="42.44646" lon="8.90416">
        <ele>1847.4</ele>
        <time>2015-07-01T08:27:27Z</time>
      </trkpt>
      <trkpt lat="42.44649" lon="8.90414">
        <ele>1847</ele>
        <time>2015-07-01T08:27:32Z</time>
      </trkpt>
      <trkpt lat="42.44651" lon="8.90411">
        <ele>1845.6</ele>
        <time>2015-07-01T08:27:40Z</time>
      </trkpt>
      <trkpt lat="42.44653" lon="8.90405">
        <ele>1844.2</ele>
        <time>2015-07-01T08:27:51Z</time>
      </trkpt>
      <trkpt lat="42.44655" lon="8.90403">
        <ele>1843</ele>
        <time>2015-07-01T08:27:59Z</time>
      </trkpt>
      <trkpt lat="42.44657" lon="8.90399">
        <ele>1842.2</ele>
        <time>2015-07-01T08:28:08Z</time>
      </trkpt>
      <trkpt lat="42.44659" lon="8.90397">
        <ele>1841.6</ele>
        <time>2015-07-01T08:28:13Z</time>
      </trkpt>
      <trkpt lat="42.44661" lon="8.90394">
        <ele>1840.4</ele>
        <time>2015-07-01T08:28:19Z</time>
      </trkpt>
      <trkpt lat="42.44664" lon="8.90389">
        <ele>1839</ele>
        <time>2015-07-01T08:28:27Z</time>
      </trkpt>
      <trkpt lat="42.44667" lon="8.90384">
        <ele>1837.8</ele>
        <time>2015-07-01T08:28:39Z</time>
      </trkpt>
      <trkpt lat="42.44669" lon="8.90378">
        <ele>1836.8</ele>
        <time>2015-07-01T08:28:53Z</time>
      </trkpt>
      <trkpt lat="42.44681" lon="8.90337">
        <ele>1837.4</ele>
        <time>2015-07-01T08:30:08Z</time>
      </trkpt>
      <trkpt lat="42.44687" lon="8.90328">
        <ele>1837.4</ele>
        <time>2015-07-01T08:30:34Z</time>
      </trkpt>
      <trkpt lat="42.44688" lon="8.90329">
        <ele>1836.8</ele>
        <time>2015-07-01T08:30:42Z</time>
      </trkpt>
      <trkpt lat="42.44692" lon="8.90331">
        <ele>1835.4</ele>
        <time>2015-07-01T08:30:55Z</time>
      </trkpt>
      <trkpt lat="42.44693" lon="8.90329">
        <ele>1835</ele>
        <time>2015-07-01T08:31:00Z</time>
      </trkpt>
      <trkpt lat="42.44697" lon="8.90328">
        <ele>1833.2</ele>
        <time>2015-07-01T08:31:12Z</time>
      </trkpt>
      <trkpt lat="42.447" lon="8.9033">
        <ele>1832.6</ele>
        <time>2015-07-01T08:31:19Z</time>
      </trkpt>
      <trkpt lat="42.447" lon="8.90332">
        <ele>1830.8</ele>
        <time>2015-07-01T08:31:41Z</time>
      </trkpt>
      <trkpt lat="42.44702" lon="8.90335">
        <ele>1830.2</ele>
        <time>2015-07-01T08:31:52Z</time>
      </trkpt>
      <trkpt lat="42.44702" lon="8.90335">
        <ele>1829</ele>
        <time>2015-07-01T08:32:03Z</time>
      </trkpt>
      <trkpt lat="42.44705" lon="8.90333">
        <ele>1828.2</ele>
        <time>2015-07-01T08:32:10Z</time>
      </trkpt>
      <trkpt lat="42.44708" lon="8.90329">
        <ele>1827</ele>
        <time>2015-07-01T08:32:20Z</time>
      </trkpt>
      <trkpt lat="42.44709" lon="8.90325">
        <ele>1826.2</ele>
        <time>2015-07-01T08:32:25Z</time>
      </trkpt>
      <trkpt lat="42.44715" lon="8.90308">
        <ele>1825.6</ele>
        <time>2015-07-01T08:33:13Z</time>
      </trkpt>
      <trkpt lat="42.44719" lon="8.90304">
        <ele>1825.8</ele>
        <time>2015-07-01T08:33:30Z</time>
      </trkpt>
      <trkpt lat="42.44725" lon="8.90298">
        <ele>1824.6</ele>
        <time>2015-07-01T08:33:48Z</time>
      </trkpt>
      <trkpt lat="42.44729" lon="8.90299">
        <ele>1823.6</ele>
        <time>2015-07-01T08:34:02Z</time>
      </trkpt>
      <trkpt lat="42.44729" lon="8.90301">
        <ele>1823.4</ele>
        <time>2015-07-01T08:34:06Z</time>
      </trkpt>
      <trkpt lat="42.44729" lon="8.90305">
        <ele>1821.4</ele>
        <time>2015-07-01T08:34:14Z</time>
      </trkpt>
      <trkpt lat="42.44727" lon="8.9031">
        <ele>1820</ele>
        <time>2015-07-01T08:34:24Z</time>
      </trkpt>
      <trkpt lat="42.44731" lon="8.90311">
        <ele>1819.2</ele>
        <time>2015-07-01T08:34:35Z</time>
      </trkpt>
      <trkpt lat="42.44734" lon="8.9031">
        <ele>1818.2</ele>
        <time>2015-07-01T08:34:42Z</time>
      </trkpt>
      <trkpt lat="42.44737" lon="8.9031">
        <ele>1816.8</ele>
        <time>2015-07-01T08:34:49Z</time>
      </trkpt>
      <trkpt lat="42.4474" lon="8.90304">
        <ele>1815.2</ele>
        <time>2015-07-01T08:34:59Z</time>
      </trkpt>
      <trkpt lat="42.44744" lon="8.903">
        <ele>1814.4</ele>
        <time>2015-07-01T08:35:12Z</time>
      </trkpt>
      <trkpt lat="42.44747" lon="8.90298">
        <ele>1813.4</ele>
        <time>2015-07-01T08:35:22Z</time>
      </trkpt>
      <trkpt lat="42.44751" lon="8.90296">
        <ele>1812</ele>
        <time>2015-07-01T08:35:38Z</time>
      </trkpt>
      <trkpt lat="42.44754" lon="8.90295">
        <ele>1811.4</ele>
        <time>2015-07-01T08:35:55Z</time>
      </trkpt>
      <trkpt lat="42.44757" lon="8.90294">
        <ele>1810.4</ele>
        <time>2015-07-01T08:36:06Z</time>
      </trkpt>
      <trkpt lat="42.44761" lon="8.90294">
        <ele>1809.2</ele>
        <time>2015-07-01T08:36:17Z</time>
      </trkpt>
      <trkpt lat="42.44762" lon="8.90292">
        <ele>1808.2</ele>
        <time>2015-07-01T08:36:26Z</time>
      </trkpt>
      <trkpt lat="42.4477" lon="8.90281">
        <ele>1806.8</ele>
        <time>2015-07-01T08:36:59Z</time>
      </trkpt>
      <trkpt lat="42.44773" lon="8.90277">
        <ele>1806</ele>
        <time>2015-07-01T08:37:21Z</time>
      </trkpt>
      <trkpt lat="42.44778" lon="8.90255">
        <ele>1806</ele>
        <time>2015-07-01T08:38:23Z</time>
      </trkpt>
      <trkpt lat="42.44784" lon="8.9025">
        <ele>1806.6</ele>
        <time>2015-07-01T08:38:40Z</time>
      </trkpt>
      <trkpt lat="42.44787" lon="8.90247">
        <ele>1805.6</ele>
        <time>2015-07-01T08:38:46Z</time>
      </trkpt>
      <trkpt lat="42.44789" lon="8.90244">
        <ele>1804.6</ele>
        <time>2015-07-01T08:38:51Z</time>
      </trkpt>
      <trkpt lat="42.44797" lon="8.90223">
        <ele>1803.6</ele>
        <time>2015-07-01T08:39:47Z</time>
      </trkpt>
      <trkpt lat="42.448" lon="8.90217">
        <ele>1802.8</ele>
        <time>2015-07-01T08:39:52Z</time>
      </trkpt>
      <trkpt lat="42.44805" lon="8.90212">
        <ele>1800.8</ele>
        <time>2015-07-01T08:40:02Z</time>
      </trkpt>
      <trkpt lat="42.44809" lon="8.90211">
        <ele>1800.2</ele>
        <time>2015-07-01T08:40:13Z</time>
      </trkpt>
      <trkpt lat="42.44812" lon="8.90211">
        <ele>1799.4</ele>
        <time>2015-07-01T08:40:18Z</time>
      </trkpt>
      <trkpt lat="42.44815" lon="8.9021">
        <ele>1798.4</ele>
        <time>2015-07-01T08:40:24Z</time>
      </trkpt>
      <trkpt lat="42.44818" lon="8.90208">
        <ele>1796.6</ele>
        <time>2015-07-01T08:40:33Z</time>
      </trkpt>
      <trkpt lat="42.44819" lon="8.90211">
        <ele>1796.2</ele>
        <time>2015-07-01T08:40:38Z</time>
      </trkpt>
      <trkpt lat="42.44819" lon="8.90216">
        <ele>1794.2</ele>
        <time>2015-07-01T08:40:50Z</time>
      </trkpt>
      <trkpt lat="42.44822" lon="8.90217">
        <ele>1793.2</ele>
        <time>2015-07-01T08:41:01Z</time>
      </trkpt>
      <trkpt lat="42.44824" lon="8.90217">
        <ele>1792.6</ele>
        <time>2015-07-01T08:41:07Z</time>
      </trkpt>
      <trkpt lat="42.44825" lon="8.90217">
        <ele>1791.4</ele>
        <time>2015-07-01T08:41:14Z</time>
      </trkpt>
      <trkpt lat="42.44827" lon="8.90216">
        <ele>1790.8</ele>
        <time>2015-07-01T08:41:20Z</time>
      </trkpt>
      <trkpt lat="42.44829" lon="8.90212">
        <ele>1789.4</ele>
        <time>2015-07-01T08:41:27Z</time>
      </trkpt>
      <trkpt lat="42.44831" lon="8.90211">
        <ele>1788.2</ele>
        <time>2015-07-01T08:41:36Z</time>
      </trkpt>
      <trkpt lat="42.44833" lon="8.9021">
        <ele>1787.6</ele>
        <time>2015-07-01T08:41:42Z</time>
      </trkpt>
      <trkpt lat="42.44836" lon="8.90208">
        <ele>1785.8</ele>
        <time>2015-07-01T08:41:59Z</time>
      </trkpt>
      <trkpt lat="42.44838" lon="8.90206">
        <ele>1785.6</ele>
        <time>2015-07-01T08:42:04Z</time>
      </trkpt>
      <trkpt lat="42.44845" lon="8.90201">
        <ele>1783.8</ele>
        <time>2015-07-01T08:42:17Z</time>
      </trkpt>
      <trkpt lat="42.44851" lon="8.90195">
        <ele>1782.8</ele>
        <time>2015-07-01T08:42:49Z</time>
      </trkpt>
      <trkpt lat="42.44853" lon="8.90197">
        <ele>1782.2</ele>
        <time>2015-07-01T08:42:54Z</time>
      </trkpt>
      <trkpt lat="42.44854" lon="8.90198">
        <ele>1780.6</ele>
        <time>2015-07-01T08:43:01Z</time>
      </trkpt>
      <trkpt lat="42.44855" lon="8.90198">
        <ele>1778.8</ele>
        <time>2015-07-01T08:43:17Z</time>
      </trkpt>
      <trkpt lat="42.44859" lon="8.90206">
        <ele>1778.4</ele>
        <time>2015-07-01T08:43:40Z</time>
      </trkpt>
      <trkpt lat="42.4486" lon="8.9021">
        <ele>1777.4</ele>
        <time>2015-07-01T08:43:48Z</time>
      </trkpt>
      <trkpt lat="42.44859" lon="8.90218">
        <ele>1776.6</ele>
        <time>2015-07-01T08:43:59Z</time>
      </trkpt>
      <trkpt lat="42.44858" lon="8.90219">
        <ele>1776.4</ele>
        <time>2015-07-01T08:44:00Z</time>
      </trkpt>
      <trkpt lat="42.44856" lon="8.90224">
        <ele>1775.4</ele>
        <time>2015-07-01T08:44:08Z</time>
      </trkpt>
      <trkpt lat="42.44856" lon="8.9023">
        <ele>1774.4</ele>
        <time>2015-07-01T08:44:15Z</time>
      </trkpt>
      <trkpt lat="42.44856" lon="8.90233">
        <ele>1773.8</ele>
        <time>2015-07-01T08:44:19Z</time>
      </trkpt>
      <trkpt lat="42.44851" lon="8.90244">
        <ele>1771.4</ele>
        <time>2015-07-01T08:44:42Z</time>
      </trkpt>
      <trkpt lat="42.44852" lon="8.90251">
        <ele>1770.6</ele>
        <time>2015-07-01T08:45:01Z</time>
      </trkpt>
      <trkpt lat="42.44854" lon="8.90254">
        <ele>1769.6</ele>
        <time>2015-07-01T08:45:22Z</time>
      </trkpt>
      <trkpt lat="42.44853" lon="8.90258">
        <ele>1769</ele>
        <time>2015-07-01T08:45:28Z</time>
      </trkpt>
      <trkpt lat="42.44851" lon="8.90265">
        <ele>1767.4</ele>
        <time>2015-07-01T08:45:43Z</time>
      </trkpt>
      <trkpt lat="42.4485" lon="8.90267">
        <ele>1766.4</ele>
        <time>2015-07-01T08:45:52Z</time>
      </trkpt>
      <trkpt lat="42.4485" lon="8.90275">
        <ele>1764.8</ele>
        <time>2015-07-01T08:46:06Z</time>
      </trkpt>
      <trkpt lat="42.44851" lon="8.90281">
        <ele>1763.8</ele>
        <time>2015-07-01T08:46:28Z</time>
      </trkpt>
      <trkpt lat="42.44851" lon="8.90285">
        <ele>1762.8</ele>
        <time>2015-07-01T08:46:39Z</time>
      </trkpt>
      <trkpt lat="42.44851" lon="8.90289">
        <ele>1762.2</ele>
        <time>2015-07-01T08:46:45Z</time>
      </trkpt>
      <trkpt lat="42.44849" lon="8.90303">
        <ele>1760</ele>
        <time>2015-07-01T08:47:33Z</time>
      </trkpt>
      <trkpt lat="42.44847" lon="8.90316">
        <ele>1758.8</ele>
        <time>2015-07-01T08:47:54Z</time>
      </trkpt>
      <trkpt lat="42.44845" lon="8.90331">
        <ele>1757.8</ele>
        <time>2015-07-01T08:48:41Z</time>
      </trkpt>
      <trkpt lat="42.44845" lon="8.90333">
        <ele>1757</ele>
        <time>2015-07-01T08:48:49Z</time>
      </trkpt>
      <trkpt lat="42.44849" lon="8.90331">
        <ele>1756</ele>
        <time>2015-07-01T08:48:56Z</time>
      </trkpt>
      <trkpt lat="42.44849" lon="8.90333">
        <ele>1755</ele>
        <time>2015-07-01T08:49:15Z</time>
      </trkpt>
      <trkpt lat="42.44845" lon="8.9035">
        <ele>1754.4</ele>
        <time>2015-07-01T08:49:33Z</time>
      </trkpt>
      <trkpt lat="42.44842" lon="8.9036">
        <ele>1753.6</ele>
        <time>2015-07-01T08:49:40Z</time>
      </trkpt>
      <trkpt lat="42.44841" lon="8.90368">
        <ele>1752.8</ele>
        <time>2015-07-01T08:49:52Z</time>
      </trkpt>
      <trkpt lat="42.44842" lon="8.90369">
        <ele>1752.8</ele>
        <time>2015-07-01T08:49:54Z</time>
      </trkpt>
      <trkpt lat="42.4484" lon="8.90375">
        <ele>1752.2</ele>
        <time>2015-07-01T08:50:01Z</time>
      </trkpt>
      <trkpt lat="42.4484" lon="8.90386">
        <ele>1750.8</ele>
        <time>2015-07-01T08:50:20Z</time>
      </trkpt>
      <trkpt lat="42.44844" lon="8.90401">
        <ele>1748.8</ele>
        <time>2015-07-01T08:51:31Z</time>
      </trkpt>
      <trkpt lat="42.44844" lon="8.90401">
        <ele>1747.8</ele>
        <time>2015-07-01T08:51:49Z</time>
      </trkpt>
      <trkpt lat="42.44847" lon="8.90399">
        <ele>1746.8</ele>
        <time>2015-07-01T08:52:01Z</time>
      </trkpt>
      <trkpt lat="42.44856" lon="8.90389">
        <ele>1746</ele>
        <time>2015-07-01T08:52:07Z</time>
      </trkpt>
      <trkpt lat="42.44857" lon="8.90385">
        <ele>1745.4</ele>
        <time>2015-07-01T08:52:10Z</time>
      </trkpt>
      <trkpt lat="42.44861" lon="8.9038">
        <ele>1744.8</ele>
        <time>2015-07-01T08:52:17Z</time>
      </trkpt>
      <trkpt lat="42.44862" lon="8.90378">
        <ele>1744.4</ele>
        <time>2015-07-01T08:52:20Z</time>
      </trkpt>
      <trkpt lat="42.44864" lon="8.90374">
        <ele>1743.6</ele>
        <time>2015-07-01T08:52:23Z</time>
      </trkpt>
      <trkpt lat="42.44866" lon="8.90373">
        <ele>1743.2</ele>
        <time>2015-07-01T08:52:26Z</time>
      </trkpt>
      <trkpt lat="42.44867" lon="8.90368">
        <ele>1742.8</ele>
        <time>2015-07-01T08:52:34Z</time>
      </trkpt>
      <trkpt lat="42.44868" lon="8.9036">
        <ele>1742.2</ele>
        <time>2015-07-01T08:52:41Z</time>
      </trkpt>
      <trkpt lat="42.4487" lon="8.90356">
        <ele>1740.4</ele>
        <time>2015-07-01T08:53:00Z</time>
      </trkpt>
      <trkpt lat="42.4487" lon="8.90355">
        <ele>1739.6</ele>
        <time>2015-07-01T08:53:09Z</time>
      </trkpt>
      <trkpt lat="42.44879" lon="8.90341">
        <ele>1738.2</ele>
        <time>2015-07-01T08:53:56Z</time>
      </trkpt>
      <trkpt lat="42.44882" lon="8.90346">
        <ele>1737</ele>
        <time>2015-07-01T08:54:41Z</time>
      </trkpt>
      <trkpt lat="42.44883" lon="8.90346">
        <ele>1736.6</ele>
        <time>2015-07-01T08:54:46Z</time>
      </trkpt>
      <trkpt lat="42.44888" lon="8.90342">
        <ele>1734.8</ele>
        <time>2015-07-01T08:54:56Z</time>
      </trkpt>
      <trkpt lat="42.44891" lon="8.90337">
        <ele>1733.8</ele>
        <time>2015-07-01T08:55:05Z</time>
      </trkpt>
      <trkpt lat="42.44893" lon="8.9033">
        <ele>1732.8</ele>
        <time>2015-07-01T08:55:13Z</time>
      </trkpt>
      <trkpt lat="42.44897" lon="8.90328">
        <ele>1731.6</ele>
        <time>2015-07-01T08:55:23Z</time>
      </trkpt>
      <trkpt lat="42.44899" lon="8.90325">
        <ele>1730.2</ele>
        <time>2015-07-01T08:55:34Z</time>
      </trkpt>
      <trkpt lat="42.44903" lon="8.90315">
        <ele>1729.4</ele>
        <time>2015-07-01T08:55:48Z</time>
      </trkpt>
      <trkpt lat="42.44906" lon="8.90311">
        <ele>1728.4</ele>
        <time>2015-07-01T08:55:56Z</time>
      </trkpt>
      <trkpt lat="42.44909" lon="8.90309">
        <ele>1727.6</ele>
        <time>2015-07-01T08:56:03Z</time>
      </trkpt>
      <trkpt lat="42.44912" lon="8.90305">
        <ele>1726.2</ele>
        <time>2015-07-01T08:56:12Z</time>
      </trkpt>
      <trkpt lat="42.44916" lon="8.90299">
        <ele>1725</ele>
        <time>2015-07-01T08:56:22Z</time>
      </trkpt>
      <trkpt lat="42.44919" lon="8.90294">
        <ele>1723.8</ele>
        <time>2015-07-01T08:56:32Z</time>
      </trkpt>
      <trkpt lat="42.4492" lon="8.90294">
        <ele>1723.2</ele>
        <time>2015-07-01T08:56:38Z</time>
      </trkpt>
      <trkpt lat="42.4492" lon="8.90283">
        <ele>1722.6</ele>
        <time>2015-07-01T08:57:03Z</time>
      </trkpt>
      <trkpt lat="42.44922" lon="8.90276">
        <ele>1723.8</ele>
        <time>2015-07-01T08:57:12Z</time>
      </trkpt>
      <trkpt lat="42.44924" lon="8.9027">
        <ele>1724.8</ele>
        <time>2015-07-01T08:57:24Z</time>
      </trkpt>
      <trkpt lat="42.4493" lon="8.90261">
        <ele>1726.2</ele>
        <time>2015-07-01T08:57:39Z</time>
      </trkpt>
      <trkpt lat="42.44933" lon="8.90256">
        <ele>1727.2</ele>
        <time>2015-07-01T08:57:51Z</time>
      </trkpt>
      <trkpt lat="42.44936" lon="8.90251">
        <ele>1728.6</ele>
        <time>2015-07-01T08:58:10Z</time>
      </trkpt>
      <trkpt lat="42.4494" lon="8.90247">
        <ele>1728.8</ele>
        <time>2015-07-01T08:58:22Z</time>
      </trkpt>
      <trkpt lat="42.44945" lon="8.90247">
        <ele>1729.4</ele>
        <time>2015-07-01T08:58:30Z</time>
      </trkpt>
      <trkpt lat="42.44947" lon="8.90251">
        <ele>1730.4</ele>
        <time>2015-07-01T08:58:56Z</time>
      </trkpt>
      <trkpt lat="42.44944" lon="8.90257">
        <ele>1729.4</ele>
        <time>2015-07-01T08:59:06Z</time>
      </trkpt>
      <trkpt lat="42.44943" lon="8.90258">
        <ele>1729.4</ele>
        <time>2015-07-01T08:59:07Z</time>
      </trkpt>
      <trkpt lat="42.44942" lon="8.90264">
        <ele>1728.4</ele>
        <time>2015-07-01T08:59:15Z</time>
      </trkpt>
      <trkpt lat="42.44944" lon="8.90265">
        <ele>1727.6</ele>
        <time>2015-07-01T08:59:23Z</time>
      </trkpt>
      <trkpt lat="42.44947" lon="8.90264">
        <ele>1727</ele>
        <time>2015-07-01T08:59:28Z</time>
      </trkpt>
      <trkpt lat="42.44947" lon="8.90267">
        <ele>1725.4</ele>
        <time>2015-07-01T08:59:35Z</time>
      </trkpt>
      <trkpt lat="42.4495" lon="8.90269">
        <ele>1724.4</ele>
        <time>2015-07-01T08:59:49Z</time>
      </trkpt>
      <trkpt lat="42.44952" lon="8.90272">
        <ele>1723.2</ele>
        <time>2015-07-01T08:59:57Z</time>
      </trkpt>
      <trkpt lat="42.44954" lon="8.90271">
        <ele>1722.6</ele>
        <time>2015-07-01T09:00:06Z</time>
      </trkpt>
      <trkpt lat="42.44957" lon="8.90271">
        <ele>1721.4</ele>
        <time>2015-07-01T09:00:14Z</time>
      </trkpt>
      <trkpt lat="42.44959" lon="8.90273">
        <ele>1720.2</ele>
        <time>2015-07-01T09:00:22Z</time>
      </trkpt>
      <trkpt lat="42.44961" lon="8.90277">
        <ele>1719.2</ele>
        <time>2015-07-01T09:00:30Z</time>
      </trkpt>
      <trkpt lat="42.44962" lon="8.90277">
        <ele>1718.6</ele>
        <time>2015-07-01T09:00:36Z</time>
      </trkpt>
      <trkpt lat="42.44964" lon="8.90275">
        <ele>1717.2</ele>
        <time>2015-07-01T09:00:46Z</time>
      </trkpt>
      <trkpt lat="42.44966" lon="8.90276">
        <ele>1715.8</ele>
        <time>2015-07-01T09:00:54Z</time>
      </trkpt>
      <trkpt lat="42.44966" lon="8.90278">
        <ele>1714.8</ele>
        <time>2015-07-01T09:01:07Z</time>
      </trkpt>
      <trkpt lat="42.44965" lon="8.90283">
        <ele>1713.8</ele>
        <time>2015-07-01T09:01:15Z</time>
      </trkpt>
      <trkpt lat="42.44966" lon="8.90285">
        <ele>1712.8</ele>
        <time>2015-07-01T09:01:25Z</time>
      </trkpt>
      <trkpt lat="42.44967" lon="8.90285">
        <ele>1712.2</ele>
        <time>2015-07-01T09:01:31Z</time>
      </trkpt>
      <trkpt lat="42.44967" lon="8.90286">
        <ele>1711.6</ele>
        <time>2015-07-01T09:01:34Z</time>
      </trkpt>
      <trkpt lat="42.44969" lon="8.90287">
        <ele>1710.4</ele>
        <time>2015-07-01T09:01:47Z</time>
      </trkpt>
      <trkpt lat="42.44967" lon="8.90291">
        <ele>1710.2</ele>
        <time>2015-07-01T09:01:53Z</time>
      </trkpt>
      <trkpt lat="42.44966" lon="8.90294">
        <ele>1709</ele>
        <time>2015-07-01T09:01:59Z</time>
      </trkpt>
      <trkpt lat="42.44963" lon="8.90302">
        <ele>1707.6</ele>
        <time>2015-07-01T09:02:10Z</time>
      </trkpt>
      <trkpt lat="42.44961" lon="8.90307">
        <ele>1706.4</ele>
        <time>2015-07-01T09:02:23Z</time>
      </trkpt>
      <trkpt lat="42.44963" lon="8.90308">
        <ele>1705.8</ele>
        <time>2015-07-01T09:02:30Z</time>
      </trkpt>
      <trkpt lat="42.44963" lon="8.90311">
        <ele>1704.4</ele>
        <time>2015-07-01T09:02:40Z</time>
      </trkpt>
      <trkpt lat="42.44964" lon="8.90312">
        <ele>1703.8</ele>
        <time>2015-07-01T09:02:47Z</time>
      </trkpt>
      <trkpt lat="42.44966" lon="8.90312">
        <ele>1702.6</ele>
        <time>2015-07-01T09:02:55Z</time>
      </trkpt>
      <trkpt lat="42.44969" lon="8.90312">
        <ele>1701.6</ele>
        <time>2015-07-01T09:03:03Z</time>
      </trkpt>
      <trkpt lat="42.44971" lon="8.90309">
        <ele>1700.6</ele>
        <time>2015-07-01T09:03:09Z</time>
      </trkpt>
      <trkpt lat="42.44974" lon="8.90312">
        <ele>1699.8</ele>
        <time>2015-07-01T09:03:14Z</time>
      </trkpt>
      <trkpt lat="42.44977" lon="8.90312">
        <ele>1698.2</ele>
        <time>2015-07-01T09:03:22Z</time>
      </trkpt>
      <trkpt lat="42.4498" lon="8.90317">
        <ele>1697.2</ele>
        <time>2015-07-01T09:03:30Z</time>
      </trkpt>
      <trkpt lat="42.44981" lon="8.90315">
        <ele>1695.8</ele>
        <time>2015-07-01T09:03:43Z</time>
      </trkpt>
      <trkpt lat="42.44983" lon="8.90314">
        <ele>1695.2</ele>
        <time>2015-07-01T09:03:49Z</time>
      </trkpt>
      <trkpt lat="42.44984" lon="8.90312">
        <ele>1693.8</ele>
        <time>2015-07-01T09:03:58Z</time>
      </trkpt>
      <trkpt lat="42.44987" lon="8.90312">
        <ele>1693</ele>
        <time>2015-07-01T09:04:08Z</time>
      </trkpt>
      <trkpt lat="42.44989" lon="8.90312">
        <ele>1692.2</ele>
        <time>2015-07-01T09:04:14Z</time>
      </trkpt>
      <trkpt lat="42.4499" lon="8.90315">
        <ele>1690.8</ele>
        <time>2015-07-01T09:04:25Z</time>
      </trkpt>
      <trkpt lat="42.44994" lon="8.90313">
        <ele>1689.6</ele>
        <time>2015-07-01T09:04:36Z</time>
      </trkpt>
      <trkpt lat="42.44995" lon="8.90314">
        <ele>1689.2</ele>
        <time>2015-07-01T09:04:41Z</time>
      </trkpt>
      <trkpt lat="42.44996" lon="8.90312">
        <ele>1687.4</ele>
        <time>2015-07-01T09:04:51Z</time>
      </trkpt>
      <trkpt lat="42.44998" lon="8.90321">
        <ele>1686.8</ele>
        <time>2015-07-01T09:04:57Z</time>
      </trkpt>
      <trkpt lat="42.44998" lon="8.90322">
        <ele>1686.8</ele>
        <time>2015-07-01T09:04:58Z</time>
      </trkpt>
      <trkpt lat="42.45" lon="8.90327">
        <ele>1685.4</ele>
        <time>2015-07-01T09:05:06Z</time>
      </trkpt>
      <trkpt lat="42.45003" lon="8.90328">
        <ele>1684.4</ele>
        <time>2015-07-01T09:05:17Z</time>
      </trkpt>
      <trkpt lat="42.45004" lon="8.90325">
        <ele>1682.8</ele>
        <time>2015-07-01T09:05:26Z</time>
      </trkpt>
      <trkpt lat="42.45006" lon="8.90324">
        <ele>1681.8</ele>
        <time>2015-07-01T09:05:35Z</time>
      </trkpt>
      <trkpt lat="42.45007" lon="8.90327">
        <ele>1681.2</ele>
        <time>2015-07-01T09:05:41Z</time>
      </trkpt>
      <trkpt lat="42.4501" lon="8.90324">
        <ele>1679.6</ele>
        <time>2015-07-01T09:05:52Z</time>
      </trkpt>
      <trkpt lat="42.45012" lon="8.90322">
        <ele>1679</ele>
        <time>2015-07-01T09:06:04Z</time>
      </trkpt>
      <trkpt lat="42.45016" lon="8.90324">
        <ele>1678</ele>
        <time>2015-07-01T09:06:12Z</time>
      </trkpt>
      <trkpt lat="42.45017" lon="8.90329">
        <ele>1676.8</ele>
        <time>2015-07-01T09:06:20Z</time>
      </trkpt>
      <trkpt lat="42.45018" lon="8.90329">
        <ele>1675.4</ele>
        <time>2015-07-01T09:06:31Z</time>
      </trkpt>
      <trkpt lat="42.4502" lon="8.9033">
        <ele>1674.2</ele>
        <time>2015-07-01T09:06:46Z</time>
      </trkpt>
      <trkpt lat="42.45022" lon="8.90328">
        <ele>1673.8</ele>
        <time>2015-07-01T09:06:52Z</time>
      </trkpt>
      <trkpt lat="42.45024" lon="8.90329">
        <ele>1672.4</ele>
        <time>2015-07-01T09:07:01Z</time>
      </trkpt>
      <trkpt lat="42.45026" lon="8.90331">
        <ele>1672</ele>
        <time>2015-07-01T09:07:06Z</time>
      </trkpt>
      <trkpt lat="42.45028" lon="8.90328">
        <ele>1670.4</ele>
        <time>2015-07-01T09:07:20Z</time>
      </trkpt>
      <trkpt lat="42.45029" lon="8.90328">
        <ele>1669.8</ele>
        <time>2015-07-01T09:07:26Z</time>
      </trkpt>
      <trkpt lat="42.45031" lon="8.90326">
        <ele>1668.8</ele>
        <time>2015-07-01T09:07:33Z</time>
      </trkpt>
      <trkpt lat="42.45033" lon="8.9032">
        <ele>1667.4</ele>
        <time>2015-07-01T09:07:44Z</time>
      </trkpt>
      <trkpt lat="42.45036" lon="8.9032">
        <ele>1666.4</ele>
        <time>2015-07-01T09:07:51Z</time>
      </trkpt>
      <trkpt lat="42.45037" lon="8.90318">
        <ele>1665.6</ele>
        <time>2015-07-01T09:07:56Z</time>
      </trkpt>
      <trkpt lat="42.45037" lon="8.90317">
        <ele>1665.4</ele>
        <time>2015-07-01T09:07:58Z</time>
      </trkpt>
      <trkpt lat="42.45041" lon="8.90322">
        <ele>1664.2</ele>
        <time>2015-07-01T09:08:25Z</time>
      </trkpt>
      <trkpt lat="42.45044" lon="8.90324">
        <ele>1663.4</ele>
        <time>2015-07-01T09:08:32Z</time>
      </trkpt>
      <trkpt lat="42.45045" lon="8.90321">
        <ele>1661.8</ele>
        <time>2015-07-01T09:08:43Z</time>
      </trkpt>
      <trkpt lat="42.45046" lon="8.90319">
        <ele>1660.8</ele>
        <time>2015-07-01T09:09:13Z</time>
      </trkpt>
      <trkpt lat="42.45053" lon="8.90323">
        <ele>1660.4</ele>
        <time>2015-07-01T09:11:39Z</time>
      </trkpt>
      <trkpt lat="42.45056" lon="8.90325">
        <ele>1659.8</ele>
        <time>2015-07-01T09:11:45Z</time>
      </trkpt>
      <trkpt lat="42.45058" lon="8.90327">
        <ele>1659</ele>
        <time>2015-07-01T09:11:50Z</time>
      </trkpt>
      <trkpt lat="42.45059" lon="8.90329">
        <ele>1657.2</ele>
        <time>2015-07-01T09:11:59Z</time>
      </trkpt>
      <trkpt lat="42.45061" lon="8.90331">
        <ele>1656.8</ele>
        <time>2015-07-01T09:12:04Z</time>
      </trkpt>
      <trkpt lat="42.4506" lon="8.90337">
        <ele>1654.8</ele>
        <time>2015-07-01T09:12:15Z</time>
      </trkpt>
      <trkpt lat="42.45062" lon="8.90336">
        <ele>1654</ele>
        <time>2015-07-01T09:12:22Z</time>
      </trkpt>
      <trkpt lat="42.45065" lon="8.90335">
        <ele>1653</ele>
        <time>2015-07-01T09:12:30Z</time>
      </trkpt>
      <trkpt lat="42.45067" lon="8.90333">
        <ele>1651.6</ele>
        <time>2015-07-01T09:12:41Z</time>
      </trkpt>
      <trkpt lat="42.45068" lon="8.90332">
        <ele>1650.4</ele>
        <time>2015-07-01T09:12:52Z</time>
      </trkpt>
      <trkpt lat="42.4507" lon="8.90332">
        <ele>1649.6</ele>
        <time>2015-07-01T09:13:01Z</time>
      </trkpt>
      <trkpt lat="42.45062" lon="8.90338">
        <ele>1649.2</ele>
        <time>2015-07-01T09:13:35Z</time>
      </trkpt>
      <trkpt lat="42.45059" lon="8.90339">
        <ele>1650.2</ele>
        <time>2015-07-01T09:13:42Z</time>
      </trkpt>
      <trkpt lat="42.45076" lon="8.90352">
        <ele>1651</ele>
        <time>2015-07-01T09:14:54Z</time>
      </trkpt>
      <trkpt lat="42.45081" lon="8.90352">
        <ele>1649.6</ele>
        <time>2015-07-01T09:15:06Z</time>
      </trkpt>
      <trkpt lat="42.45086" lon="8.90351">
        <ele>1648.4</ele>
        <time>2015-07-01T09:15:17Z</time>
      </trkpt>
      <trkpt lat="42.45085" lon="8.90349">
        <ele>1648</ele>
        <time>2015-07-01T09:15:26Z</time>
      </trkpt>
      <trkpt lat="42.45088" lon="8.90349">
        <ele>1647.2</ele>
        <time>2015-07-01T09:15:36Z</time>
      </trkpt>
      <trkpt lat="42.45092" lon="8.90346">
        <ele>1646</ele>
        <time>2015-07-01T09:15:55Z</time>
      </trkpt>
      <trkpt lat="42.45094" lon="8.90344">
        <ele>1645.6</ele>
        <time>2015-07-01T09:16:00Z</time>
      </trkpt>
      <trkpt lat="42.45097" lon="8.90343">
        <ele>1643.8</ele>
        <time>2015-07-01T09:16:08Z</time>
      </trkpt>
      <trkpt lat="42.45101" lon="8.90346">
        <ele>1643</ele>
        <time>2015-07-01T09:16:19Z</time>
      </trkpt>
      <trkpt lat="42.45104" lon="8.9035">
        <ele>1642</ele>
        <time>2015-07-01T09:16:25Z</time>
      </trkpt>
      <trkpt lat="42.45109" lon="8.90351">
        <ele>1640.8</ele>
        <time>2015-07-01T09:16:34Z</time>
      </trkpt>
      <trkpt lat="42.45112" lon="8.90351">
        <ele>1639.8</ele>
        <time>2015-07-01T09:16:41Z</time>
      </trkpt>
      <trkpt lat="42.45111" lon="8.9035">
        <ele>1638.2</ele>
        <time>2015-07-01T09:16:53Z</time>
      </trkpt>
      <trkpt lat="42.45111" lon="8.90344">
        <ele>1637.2</ele>
        <time>2015-07-01T09:17:26Z</time>
      </trkpt>
      <trkpt lat="42.45113" lon="8.90345">
        <ele>1636.6</ele>
        <time>2015-07-01T09:17:32Z</time>
      </trkpt>
      <trkpt lat="42.45115" lon="8.90346">
        <ele>1635.4</ele>
        <time>2015-07-01T09:17:38Z</time>
      </trkpt>
      <trkpt lat="42.4512" lon="8.90345">
        <ele>1634.4</ele>
        <time>2015-07-01T09:17:45Z</time>
      </trkpt>
      <trkpt lat="42.45124" lon="8.90346">
        <ele>1633.4</ele>
        <time>2015-07-01T09:17:51Z</time>
      </trkpt>
      <trkpt lat="42.45135" lon="8.90355">
        <ele>1631.8</ele>
        <time>2015-07-01T09:18:35Z</time>
      </trkpt>
      <trkpt lat="42.45138" lon="8.90354">
        <ele>1631.4</ele>
        <time>2015-07-01T09:18:43Z</time>
      </trkpt>
      <trkpt lat="42.45142" lon="8.90354">
        <ele>1629.6</ele>
        <time>2015-07-01T09:18:54Z</time>
      </trkpt>
      <trkpt lat="42.45143" lon="8.90353">
        <ele>1628.8</ele>
        <time>2015-07-01T09:19:02Z</time>
      </trkpt>
      <trkpt lat="42.45146" lon="8.90353">
        <ele>1627.8</ele>
        <time>2015-07-01T09:19:13Z</time>
      </trkpt>
      <trkpt lat="42.45154" lon="8.90352">
        <ele>1626.4</ele>
        <time>2015-07-01T09:19:52Z</time>
      </trkpt>
      <trkpt lat="42.45153" lon="8.90348">
        <ele>1625.8</ele>
        <time>2015-07-01T09:19:59Z</time>
      </trkpt>
      <trkpt lat="42.45154" lon="8.90344">
        <ele>1625</ele>
        <time>2015-07-01T09:20:07Z</time>
      </trkpt>
      <trkpt lat="42.45152" lon="8.90343">
        <ele>1623.6</ele>
        <time>2015-07-01T09:20:21Z</time>
      </trkpt>
      <trkpt lat="42.45152" lon="8.90341">
        <ele>1622.6</ele>
        <time>2015-07-01T09:20:29Z</time>
      </trkpt>
      <trkpt lat="42.45152" lon="8.90338">
        <ele>1621.8</ele>
        <time>2015-07-01T09:20:37Z</time>
      </trkpt>
      <trkpt lat="42.45151" lon="8.90336">
        <ele>1620.6</ele>
        <time>2015-07-01T09:20:47Z</time>
      </trkpt>
      <trkpt lat="42.45152" lon="8.90334">
        <ele>1619.4</ele>
        <time>2015-07-01T09:20:57Z</time>
      </trkpt>
      <trkpt lat="42.45154" lon="8.90335">
        <ele>1618.6</ele>
        <time>2015-07-01T09:21:04Z</time>
      </trkpt>
      <trkpt lat="42.45159" lon="8.90336">
        <ele>1617.4</ele>
        <time>2015-07-01T09:21:14Z</time>
      </trkpt>
      <trkpt lat="42.45162" lon="8.90335">
        <ele>1616.2</ele>
        <time>2015-07-01T09:21:22Z</time>
      </trkpt>
      <trkpt lat="42.45165" lon="8.90336">
        <ele>1615.6</ele>
        <time>2015-07-01T09:21:29Z</time>
      </trkpt>
      <trkpt lat="42.45167" lon="8.90334">
        <ele>1614.6</ele>
        <time>2015-07-01T09:21:37Z</time>
      </trkpt>
      <trkpt lat="42.45171" lon="8.90336">
        <ele>1613.2</ele>
        <time>2015-07-01T09:21:45Z</time>
      </trkpt>
      <trkpt lat="42.45172" lon="8.90333">
        <ele>1612.2</ele>
        <time>2015-07-01T09:21:54Z</time>
      </trkpt>
      <trkpt lat="42.45174" lon="8.90334">
        <ele>1611.6</ele>
        <time>2015-07-01T09:21:59Z</time>
      </trkpt>
      <trkpt lat="42.45177" lon="8.90332">
        <ele>1610</ele>
        <time>2015-07-01T09:22:09Z</time>
      </trkpt>
      <trkpt lat="42.45181" lon="8.90333">
        <ele>1609</ele>
        <time>2015-07-01T09:22:15Z</time>
      </trkpt>
      <trkpt lat="42.45182" lon="8.90331">
        <ele>1607.6</ele>
        <time>2015-07-01T09:22:25Z</time>
      </trkpt>
      <trkpt lat="42.45184" lon="8.90332">
        <ele>1607</ele>
        <time>2015-07-01T09:22:30Z</time>
      </trkpt>
      <trkpt lat="42.45187" lon="8.90332">
        <ele>1606</ele>
        <time>2015-07-01T09:22:36Z</time>
      </trkpt>
      <trkpt lat="42.4519" lon="8.90328">
        <ele>1604.6</ele>
        <time>2015-07-01T09:22:45Z</time>
      </trkpt>
      <trkpt lat="42.45194" lon="8.9033">
        <ele>1603.2</ele>
        <time>2015-07-01T09:22:57Z</time>
      </trkpt>
      <trkpt lat="42.45202" lon="8.90333">
        <ele>1602.4</ele>
        <time>2015-07-01T09:23:14Z</time>
      </trkpt>
      <trkpt lat="42.45205" lon="8.90346">
        <ele>1602.2</ele>
        <time>2015-07-01T09:24:05Z</time>
      </trkpt>
      <trkpt lat="42.45205" lon="8.90349">
        <ele>1603.8</ele>
        <time>2015-07-01T09:24:24Z</time>
      </trkpt>
      <trkpt lat="42.45205" lon="8.90351">
        <ele>1605</ele>
        <time>2015-07-01T09:24:35Z</time>
      </trkpt>
      <trkpt lat="42.45206" lon="8.90357">
        <ele>1606</ele>
        <time>2015-07-01T09:24:56Z</time>
      </trkpt>
      <trkpt lat="42.45205" lon="8.90359">
        <ele>1607.2</ele>
        <time>2015-07-01T09:25:05Z</time>
      </trkpt>
      <trkpt lat="42.45204" lon="8.90363">
        <ele>1608.2</ele>
        <time>2015-07-01T09:25:13Z</time>
      </trkpt>
      <trkpt lat="42.45206" lon="8.90369">
        <ele>1609</ele>
        <time>2015-07-01T09:25:21Z</time>
      </trkpt>
      <trkpt lat="42.45206" lon="8.90372">
        <ele>1609.4</ele>
        <time>2015-07-01T09:25:26Z</time>
      </trkpt>
      <trkpt lat="42.4521" lon="8.90379">
        <ele>1609.8</ele>
        <time>2015-07-01T09:25:41Z</time>
      </trkpt>
      <trkpt lat="42.4521" lon="8.90382">
        <ele>1610.6</ele>
        <time>2015-07-01T09:25:52Z</time>
      </trkpt>
      <trkpt lat="42.4521" lon="8.90383">
        <ele>1611.4</ele>
        <time>2015-07-01T09:25:58Z</time>
      </trkpt>
      <trkpt lat="42.45211" lon="8.90387">
        <ele>1613</ele>
        <time>2015-07-01T09:26:09Z</time>
      </trkpt>
      <trkpt lat="42.45211" lon="8.9039">
        <ele>1614</ele>
        <time>2015-07-01T09:26:21Z</time>
      </trkpt>
      <trkpt lat="42.45214" lon="8.90394">
        <ele>1615</ele>
        <time>2015-07-01T09:26:31Z</time>
      </trkpt>
      <trkpt lat="42.45222" lon="8.90406">
        <ele>1616.2</ele>
        <time>2015-07-01T09:26:47Z</time>
      </trkpt>
      <trkpt lat="42.45227" lon="8.90407">
        <ele>1616.2</ele>
        <time>2015-07-01T09:26:53Z</time>
      </trkpt>
      <trkpt lat="42.45234" lon="8.90407">
        <ele>1615.4</ele>
        <time>2015-07-01T09:27:05Z</time>
      </trkpt>
      <trkpt lat="42.4524" lon="8.90403">
        <ele>1614.6</ele>
        <time>2015-07-01T09:27:15Z</time>
      </trkpt>
      <trkpt lat="42.45244" lon="8.90399">
        <ele>1613.8</ele>
        <time>2015-07-01T09:27:25Z</time>
      </trkpt>
      <trkpt lat="42.45248" lon="8.90396">
        <ele>1612.2</ele>
        <time>2015-07-01T09:27:37Z</time>
      </trkpt>
      <trkpt lat="42.45247" lon="8.90394">
        <ele>1612</ele>
        <time>2015-07-01T09:27:41Z</time>
      </trkpt>
      <trkpt lat="42.45249" lon="8.90391">
        <ele>1610.6</ele>
        <time>2015-07-01T09:27:51Z</time>
      </trkpt>
      <trkpt lat="42.45249" lon="8.90388">
        <ele>1609.6</ele>
        <time>2015-07-01T09:28:01Z</time>
      </trkpt>
      <trkpt lat="42.45253" lon="8.9039">
        <ele>1608.6</ele>
        <time>2015-07-01T09:28:08Z</time>
      </trkpt>
      <trkpt lat="42.45262" lon="8.90395">
        <ele>1607</ele>
        <time>2015-07-01T09:28:25Z</time>
      </trkpt>
      <trkpt lat="42.45264" lon="8.90396">
        <ele>1606.6</ele>
        <time>2015-07-01T09:28:31Z</time>
      </trkpt>
      <trkpt lat="42.45267" lon="8.90394">
        <ele>1605.4</ele>
        <time>2015-07-01T09:28:38Z</time>
      </trkpt>
      <trkpt lat="42.45268" lon="8.90392">
        <ele>1604.4</ele>
        <time>2015-07-01T09:28:44Z</time>
      </trkpt>
      <trkpt lat="42.45271" lon="8.90388">
        <ele>1603.2</ele>
        <time>2015-07-01T09:28:51Z</time>
      </trkpt>
      <trkpt lat="42.45273" lon="8.90388">
        <ele>1602.4</ele>
        <time>2015-07-01T09:28:57Z</time>
      </trkpt>
      <trkpt lat="42.45276" lon="8.90385">
        <ele>1601</ele>
        <time>2015-07-01T09:29:09Z</time>
      </trkpt>
      <trkpt lat="42.45277" lon="8.90386">
        <ele>1600.2</ele>
        <time>2015-07-01T09:29:15Z</time>
      </trkpt>
      <trkpt lat="42.45282" lon="8.90385">
        <ele>1598.6</ele>
        <time>2015-07-01T09:29:27Z</time>
      </trkpt>
      <trkpt lat="42.45285" lon="8.90385">
        <ele>1598.4</ele>
        <time>2015-07-01T09:29:31Z</time>
      </trkpt>
      <trkpt lat="42.45288" lon="8.90382">
        <ele>1596.8</ele>
        <time>2015-07-01T09:29:41Z</time>
      </trkpt>
      <trkpt lat="42.4529" lon="8.90383">
        <ele>1595.8</ele>
        <time>2015-07-01T09:29:47Z</time>
      </trkpt>
      <trkpt lat="42.45292" lon="8.90389">
        <ele>1595.2</ele>
        <time>2015-07-01T09:29:58Z</time>
      </trkpt>
      <trkpt lat="42.45298" lon="8.90394">
        <ele>1596.2</ele>
        <time>2015-07-01T09:30:08Z</time>
      </trkpt>
      <trkpt lat="42.45302" lon="8.90398">
        <ele>1597</ele>
        <time>2015-07-01T09:30:15Z</time>
      </trkpt>
      <trkpt lat="42.45331" lon="8.90405">
        <ele>1597.4</ele>
        <time>2015-07-01T09:31:05Z</time>
      </trkpt>
      <trkpt lat="42.45335" lon="8.90407">
        <ele>1597</ele>
        <time>2015-07-01T09:31:11Z</time>
      </trkpt>
      <trkpt lat="42.45341" lon="8.90402">
        <ele>1595.4</ele>
        <time>2015-07-01T09:31:23Z</time>
      </trkpt>
      <trkpt lat="42.45351" lon="8.90394">
        <ele>1594.2</ele>
        <time>2015-07-01T09:31:41Z</time>
      </trkpt>
      <trkpt lat="42.45353" lon="8.9039">
        <ele>1593.2</ele>
        <time>2015-07-01T09:32:00Z</time>
      </trkpt>
      <trkpt lat="42.45356" lon="8.90388">
        <ele>1592.2</ele>
        <time>2015-07-01T09:32:09Z</time>
      </trkpt>
      <trkpt lat="42.45364" lon="8.90386">
        <ele>1590.8</ele>
        <time>2015-07-01T09:32:26Z</time>
      </trkpt>
      <trkpt lat="42.45364" lon="8.90383">
        <ele>1590</ele>
        <time>2015-07-01T09:32:40Z</time>
      </trkpt>
      <trkpt lat="42.45362" lon="8.90383">
        <ele>1589.8</ele>
        <time>2015-07-01T09:32:45Z</time>
      </trkpt>
      <trkpt lat="42.45361" lon="8.90382">
        <ele>1588</ele>
        <time>2015-07-01T09:32:56Z</time>
      </trkpt>
      <trkpt lat="42.45362" lon="8.90378">
        <ele>1587</ele>
        <time>2015-07-01T09:33:04Z</time>
      </trkpt>
      <trkpt lat="42.4536" lon="8.90373">
        <ele>1586.2</ele>
        <time>2015-07-01T09:33:12Z</time>
      </trkpt>
      <trkpt lat="42.45363" lon="8.90371">
        <ele>1584.6</ele>
        <time>2015-07-01T09:33:21Z</time>
      </trkpt>
      <trkpt lat="42.45368" lon="8.90369">
        <ele>1584</ele>
        <time>2015-07-01T09:33:30Z</time>
      </trkpt>
      <trkpt lat="42.45368" lon="8.90367">
        <ele>1582.8</ele>
        <time>2015-07-01T09:33:40Z</time>
      </trkpt>
      <trkpt lat="42.45368" lon="8.90364">
        <ele>1581.6</ele>
        <time>2015-07-01T09:33:48Z</time>
      </trkpt>
      <trkpt lat="42.45365" lon="8.9036">
        <ele>1580.6</ele>
        <time>2015-07-01T09:33:55Z</time>
      </trkpt>
      <trkpt lat="42.45368" lon="8.90357">
        <ele>1579.4</ele>
        <time>2015-07-01T09:34:02Z</time>
      </trkpt>
      <trkpt lat="42.4537" lon="8.90354">
        <ele>1578</ele>
        <time>2015-07-01T09:34:14Z</time>
      </trkpt>
      <trkpt lat="42.45374" lon="8.90355">
        <ele>1577.2</ele>
        <time>2015-07-01T09:34:23Z</time>
      </trkpt>
      <trkpt lat="42.45381" lon="8.90351">
        <ele>1576.2</ele>
        <time>2015-07-01T09:34:44Z</time>
      </trkpt>
      <trkpt lat="42.45384" lon="8.90351">
        <ele>1574.8</ele>
        <time>2015-07-01T09:34:54Z</time>
      </trkpt>
      <trkpt lat="42.45384" lon="8.90352">
        <ele>1574.6</ele>
        <time>2015-07-01T09:34:59Z</time>
      </trkpt>
      <trkpt lat="42.45386" lon="8.9035">
        <ele>1573.2</ele>
        <time>2015-07-01T09:35:05Z</time>
      </trkpt>
      <trkpt lat="42.4539" lon="8.90347">
        <ele>1571.8</ele>
        <time>2015-07-01T09:35:15Z</time>
      </trkpt>
      <trkpt lat="42.45387" lon="8.90345">
        <ele>1571.2</ele>
        <time>2015-07-01T09:35:20Z</time>
      </trkpt>
      <trkpt lat="42.45385" lon="8.90341">
        <ele>1569.8</ele>
        <time>2015-07-01T09:35:28Z</time>
      </trkpt>
      <trkpt lat="42.45388" lon="8.90339">
        <ele>1568.8</ele>
        <time>2015-07-01T09:35:34Z</time>
      </trkpt>
      <trkpt lat="42.45392" lon="8.90339">
        <ele>1567.2</ele>
        <time>2015-07-01T09:35:43Z</time>
      </trkpt>
      <trkpt lat="42.45395" lon="8.90337">
        <ele>1566.6</ele>
        <time>2015-07-01T09:35:49Z</time>
      </trkpt>
      <trkpt lat="42.45398" lon="8.90339">
        <ele>1565.2</ele>
        <time>2015-07-01T09:35:56Z</time>
      </trkpt>
      <trkpt lat="42.45405" lon="8.9034">
        <ele>1563.8</ele>
        <time>2015-07-01T09:36:10Z</time>
      </trkpt>
      <trkpt lat="42.45408" lon="8.90339">
        <ele>1563.2</ele>
        <time>2015-07-01T09:36:17Z</time>
      </trkpt>
      <trkpt lat="42.45411" lon="8.90336">
        <ele>1562</ele>
        <time>2015-07-01T09:36:26Z</time>
      </trkpt>
      <trkpt lat="42.45413" lon="8.90336">
        <ele>1561.2</ele>
        <time>2015-07-01T09:36:32Z</time>
      </trkpt>
      <trkpt lat="42.45415" lon="8.90334">
        <ele>1560</ele>
        <time>2015-07-01T09:36:43Z</time>
      </trkpt>
      <trkpt lat="42.45415" lon="8.90335">
        <ele>1558.6</ele>
        <time>2015-07-01T09:36:51Z</time>
      </trkpt>
      <trkpt lat="42.45416" lon="8.90332">
        <ele>1557.6</ele>
        <time>2015-07-01T09:36:59Z</time>
      </trkpt>
      <trkpt lat="42.45415" lon="8.90331">
        <ele>1556.8</ele>
        <time>2015-07-01T09:37:06Z</time>
      </trkpt>
      <trkpt lat="42.45417" lon="8.90331">
        <ele>1555.6</ele>
        <time>2015-07-01T09:37:15Z</time>
      </trkpt>
      <trkpt lat="42.45421" lon="8.90331">
        <ele>1554.4</ele>
        <time>2015-07-01T09:37:23Z</time>
      </trkpt>
      <trkpt lat="42.45423" lon="8.90331">
        <ele>1552.8</ele>
        <time>2015-07-01T09:37:40Z</time>
      </trkpt>
      <trkpt lat="42.45428" lon="8.90326">
        <ele>1552</ele>
        <time>2015-07-01T09:37:52Z</time>
      </trkpt>
      <trkpt lat="42.45432" lon="8.90327">
        <ele>1551.6</ele>
        <time>2015-07-01T09:37:57Z</time>
      </trkpt>
      <trkpt lat="42.45438" lon="8.90325">
        <ele>1549.6</ele>
        <time>2015-07-01T09:38:24Z</time>
      </trkpt>
      <trkpt lat="42.45442" lon="8.90325">
        <ele>1548.8</ele>
        <time>2015-07-01T09:38:31Z</time>
      </trkpt>
      <trkpt lat="42.45452" lon="8.90327">
        <ele>1547.4</ele>
        <time>2015-07-01T09:39:02Z</time>
      </trkpt>
      <trkpt lat="42.45456" lon="8.90327">
        <ele>1546.4</ele>
        <time>2015-07-01T09:39:10Z</time>
      </trkpt>
      <trkpt lat="42.45456" lon="8.90325">
        <ele>1545.4</ele>
        <time>2015-07-01T09:39:21Z</time>
      </trkpt>
      <trkpt lat="42.45459" lon="8.90323">
        <ele>1544.2</ele>
        <time>2015-07-01T09:39:29Z</time>
      </trkpt>
      <trkpt lat="42.45463" lon="8.90321">
        <ele>1543.6</ele>
        <time>2015-07-01T09:39:36Z</time>
      </trkpt>
      <trkpt lat="42.45505" lon="8.90327">
        <ele>1543.2</ele>
        <time>2015-07-01T09:41:01Z</time>
      </trkpt>
      <trkpt lat="42.45516" lon="8.9033">
        <ele>1541.6</ele>
        <time>2015-07-01T09:41:42Z</time>
      </trkpt>
      <trkpt lat="42.45524" lon="8.90338">
        <ele>1541.2</ele>
        <time>2015-07-01T09:42:17Z</time>
      </trkpt>
      <trkpt lat="42.45527" lon="8.90344">
        <ele>1540.2</ele>
        <time>2015-07-01T09:42:31Z</time>
      </trkpt>
      <trkpt lat="42.45532" lon="8.90347">
        <ele>1539</ele>
        <time>2015-07-01T09:42:41Z</time>
      </trkpt>
      <trkpt lat="42.45533" lon="8.90347">
        <ele>1538.8</ele>
        <time>2015-07-01T09:42:45Z</time>
      </trkpt>
      <trkpt lat="42.45533" lon="8.9035">
        <ele>1537.2</ele>
        <time>2015-07-01T09:42:54Z</time>
      </trkpt>
      <trkpt lat="42.45536" lon="8.90355">
        <ele>1535.8</ele>
        <time>2015-07-01T09:43:04Z</time>
      </trkpt>
      <trkpt lat="42.45539" lon="8.90357">
        <ele>1535</ele>
        <time>2015-07-01T09:43:14Z</time>
      </trkpt>
      <trkpt lat="42.45541" lon="8.90359">
        <ele>1534</ele>
        <time>2015-07-01T09:43:24Z</time>
      </trkpt>
      <trkpt lat="42.45541" lon="8.90364">
        <ele>1533</ele>
        <time>2015-07-01T09:43:32Z</time>
      </trkpt>
      <trkpt lat="42.4554" lon="8.90365">
        <ele>1531.8</ele>
        <time>2015-07-01T09:43:42Z</time>
      </trkpt>
      <trkpt lat="42.4554" lon="8.90364">
        <ele>1530.8</ele>
        <time>2015-07-01T09:43:53Z</time>
      </trkpt>
      <trkpt lat="42.45544" lon="8.9036">
        <ele>1529.4</ele>
        <time>2015-07-01T09:44:06Z</time>
      </trkpt>
      <trkpt lat="42.45546" lon="8.90355">
        <ele>1529.2</ele>
        <time>2015-07-01T09:44:12Z</time>
      </trkpt>
      <trkpt lat="42.45548" lon="8.90349">
        <ele>1527.4</ele>
        <time>2015-07-01T09:45:01Z</time>
      </trkpt>
      <trkpt lat="42.4555" lon="8.90348">
        <ele>1526.6</ele>
        <time>2015-07-01T09:45:08Z</time>
      </trkpt>
      <trkpt lat="42.45553" lon="8.90345">
        <ele>1525.8</ele>
        <time>2015-07-01T09:45:15Z</time>
      </trkpt>
      <trkpt lat="42.45556" lon="8.90345">
        <ele>1524.6</ele>
        <time>2015-07-01T09:45:21Z</time>
      </trkpt>
      <trkpt lat="42.45558" lon="8.90341">
        <ele>1523.6</ele>
        <time>2015-07-01T09:45:26Z</time>
      </trkpt>
      <trkpt lat="42.45562" lon="8.90338">
        <ele>1522</ele>
        <time>2015-07-01T09:45:33Z</time>
      </trkpt>
      <trkpt lat="42.45564" lon="8.90337">
        <ele>1520.8</ele>
        <time>2015-07-01T09:45:40Z</time>
      </trkpt>
      <trkpt lat="42.45566" lon="8.90338">
        <ele>1519.8</ele>
        <time>2015-07-01T09:45:47Z</time>
      </trkpt>
      <trkpt lat="42.45568" lon="8.9034">
        <ele>1519</ele>
        <time>2015-07-01T09:45:53Z</time>
      </trkpt>
      <trkpt lat="42.4557" lon="8.90343">
        <ele>1518</ele>
        <time>2015-07-01T09:45:58Z</time>
      </trkpt>
      <trkpt lat="42.45571" lon="8.90347">
        <ele>1516.8</ele>
        <time>2015-07-01T09:46:03Z</time>
      </trkpt>
      <trkpt lat="42.45572" lon="8.90348">
        <ele>1516.4</ele>
        <time>2015-07-01T09:46:04Z</time>
      </trkpt>
      <trkpt lat="42.45572" lon="8.90352">
        <ele>1515.6</ele>
        <time>2015-07-01T09:46:07Z</time>
      </trkpt>
      <trkpt lat="42.45573" lon="8.90356">
        <ele>1515.2</ele>
        <time>2015-07-01T09:46:11Z</time>
      </trkpt>
      <trkpt lat="42.45578" lon="8.90378">
        <ele>1515.4</ele>
        <time>2015-07-01T09:46:40Z</time>
      </trkpt>
      <trkpt lat="42.45586" lon="8.90378">
        <ele>1516.8</ele>
        <time>2015-07-01T09:47:02Z</time>
      </trkpt>
      <trkpt lat="42.45588" lon="8.90382">
        <ele>1517.4</ele>
        <time>2015-07-01T09:47:09Z</time>
      </trkpt>
      <trkpt lat="42.45588" lon="8.90388">
        <ele>1519</ele>
        <time>2015-07-01T09:47:19Z</time>
      </trkpt>
      <trkpt lat="42.45589" lon="8.90392">
        <ele>1519.6</ele>
        <time>2015-07-01T09:47:28Z</time>
      </trkpt>
      <trkpt lat="42.45585" lon="8.904">
        <ele>1520.8</ele>
        <time>2015-07-01T09:48:13Z</time>
      </trkpt>
      <trkpt lat="42.45583" lon="8.90405">
        <ele>1522</ele>
        <time>2015-07-01T09:48:30Z</time>
      </trkpt>
      <trkpt lat="42.45581" lon="8.90408">
        <ele>1522.2</ele>
        <time>2015-07-01T09:48:32Z</time>
      </trkpt>
      <trkpt lat="42.4558" lon="8.90408">
        <ele>1522</ele>
        <time>2015-07-01T09:48:33Z</time>
      </trkpt>
      <trkpt lat="42.45577" lon="8.90411">
        <ele>1522.6</ele>
        <time>2015-07-01T09:48:40Z</time>
      </trkpt>
      <trkpt lat="42.45569" lon="8.90422">
        <ele>1524</ele>
        <time>2015-07-01T09:49:05Z</time>
      </trkpt>
      <trkpt lat="42.45568" lon="8.90426">
        <ele>1524.8</ele>
        <time>2015-07-01T09:49:14Z</time>
      </trkpt>
      <trkpt lat="42.45567" lon="8.90428">
        <ele>1526</ele>
        <time>2015-07-01T09:49:22Z</time>
      </trkpt>
      <trkpt lat="42.45568" lon="8.90432">
        <ele>1527</ele>
        <time>2015-07-01T09:49:30Z</time>
      </trkpt>
      <trkpt lat="42.45562" lon="8.90442">
        <ele>1528.4</ele>
        <time>2015-07-01T09:49:48Z</time>
      </trkpt>
      <trkpt lat="42.45562" lon="8.90448">
        <ele>1529.4</ele>
        <time>2015-07-01T09:49:58Z</time>
      </trkpt>
      <trkpt lat="42.4556" lon="8.90451">
        <ele>1530.4</ele>
        <time>2015-07-01T09:50:06Z</time>
      </trkpt>
      <trkpt lat="42.45556" lon="8.90457">
        <ele>1531.8</ele>
        <time>2015-07-01T09:50:18Z</time>
      </trkpt>
      <trkpt lat="42.45556" lon="8.9046">
        <ele>1532</ele>
        <time>2015-07-01T09:50:23Z</time>
      </trkpt>
      <trkpt lat="42.45556" lon="8.90461">
        <ele>1532.4</ele>
        <time>2015-07-01T09:50:25Z</time>
      </trkpt>
      <trkpt lat="42.45557" lon="8.90469">
        <ele>1534</ele>
        <time>2015-07-01T09:50:40Z</time>
      </trkpt>
      <trkpt lat="42.45556" lon="8.90473">
        <ele>1535</ele>
        <time>2015-07-01T09:50:49Z</time>
      </trkpt>
      <trkpt lat="42.45552" lon="8.90478">
        <ele>1536</ele>
        <time>2015-07-01T09:50:57Z</time>
      </trkpt>
      <trkpt lat="42.4555" lon="8.90479">
        <ele>1537.8</ele>
        <time>2015-07-01T09:51:17Z</time>
      </trkpt>
      <trkpt lat="42.45548" lon="8.90479">
        <ele>1538.4</ele>
        <time>2015-07-01T09:51:27Z</time>
      </trkpt>
      <trkpt lat="42.45546" lon="8.9048">
        <ele>1538.4</ele>
        <time>2015-07-01T09:51:29Z</time>
      </trkpt>
      <trkpt lat="42.45548" lon="8.90477">
        <ele>1538.4</ele>
        <time>2015-07-01T09:51:50Z</time>
      </trkpt>
      <trkpt lat="42.45551" lon="8.90481">
        <ele>1538.8</ele>
        <time>2015-07-01T09:52:29Z</time>
      </trkpt>
      <trkpt lat="42.45562" lon="8.90478">
        <ele>1540.8</ele>
        <time>2015-07-01T09:55:06Z</time>
      </trkpt>
      <trkpt lat="42.45564" lon="8.90483">
        <ele>1541.8</ele>
        <time>2015-07-01T09:55:17Z</time>
      </trkpt>
      <trkpt lat="42.45567" lon="8.90485">
        <ele>1542.6</ele>
        <time>2015-07-01T09:55:25Z</time>
      </trkpt>
      <trkpt lat="42.45577" lon="8.90474">
        <ele>1542.8</ele>
        <time>2015-07-01T09:56:08Z</time>
      </trkpt>
      <trkpt lat="42.45577" lon="8.90473">
        <ele>1542</ele>
        <time>2015-07-01T09:56:28Z</time>
      </trkpt>
      <trkpt lat="42.45575" lon="8.90468">
        <ele>1542</ele>
        <time>2015-07-01T09:56:33Z</time>
      </trkpt>
      <trkpt lat="42.45573" lon="8.90463">
        <ele>1540.4</ele>
        <time>2015-07-01T09:56:40Z</time>
      </trkpt>
      <trkpt lat="42.45572" lon="8.9046">
        <ele>1539.4</ele>
        <time>2015-07-01T09:56:47Z</time>
      </trkpt>
      <trkpt lat="42.45573" lon="8.90457">
        <ele>1537.8</ele>
        <time>2015-07-01T09:56:57Z</time>
      </trkpt>
      <trkpt lat="42.45572" lon="8.90456">
        <ele>1537.2</ele>
        <time>2015-07-01T09:57:06Z</time>
      </trkpt>
      <trkpt lat="42.45568" lon="8.90451">
        <ele>1535.8</ele>
        <time>2015-07-01T09:57:22Z</time>
      </trkpt>
      <trkpt lat="42.45569" lon="8.90446">
        <ele>1535</ele>
        <time>2015-07-01T09:57:29Z</time>
      </trkpt>
      <trkpt lat="42.45569" lon="8.90444">
        <ele>1533.6</ele>
        <time>2015-07-01T09:57:40Z</time>
      </trkpt>
      <trkpt lat="42.45569" lon="8.90442">
        <ele>1532.4</ele>
        <time>2015-07-01T09:57:50Z</time>
      </trkpt>
      <trkpt lat="42.45567" lon="8.90435">
        <ele>1531.6</ele>
        <time>2015-07-01T09:57:59Z</time>
      </trkpt>
      <trkpt lat="42.45568" lon="8.90432">
        <ele>1530.8</ele>
        <time>2015-07-01T09:58:05Z</time>
      </trkpt>
      <trkpt lat="42.45569" lon="8.90428">
        <ele>1529.6</ele>
        <time>2015-07-01T09:58:11Z</time>
      </trkpt>
      <trkpt lat="42.4557" lon="8.90427">
        <ele>1529.6</ele>
        <time>2015-07-01T09:58:12Z</time>
      </trkpt>
      <trkpt lat="42.45573" lon="8.90419">
        <ele>1528</ele>
        <time>2015-07-01T09:58:24Z</time>
      </trkpt>
      <trkpt lat="42.45572" lon="8.90416">
        <ele>1527.4</ele>
        <time>2015-07-01T09:58:30Z</time>
      </trkpt>
      <trkpt lat="42.4557" lon="8.90412">
        <ele>1526</ele>
        <time>2015-07-01T09:58:37Z</time>
      </trkpt>
      <trkpt lat="42.45569" lon="8.90409">
        <ele>1524.8</ele>
        <time>2015-07-01T09:58:44Z</time>
      </trkpt>
      <trkpt lat="42.45571" lon="8.90403">
        <ele>1523.6</ele>
        <time>2015-07-01T09:58:53Z</time>
      </trkpt>
      <trkpt lat="42.45579" lon="8.90388">
        <ele>1522</ele>
        <time>2015-07-01T09:59:14Z</time>
      </trkpt>
      <trkpt lat="42.45581" lon="8.90382">
        <ele>1521</ele>
        <time>2015-07-01T09:59:25Z</time>
      </trkpt>
      <trkpt lat="42.45583" lon="8.90379">
        <ele>1520.2</ele>
        <time>2015-07-01T09:59:31Z</time>
      </trkpt>
      <trkpt lat="42.45585" lon="8.90375">
        <ele>1518.6</ele>
        <time>2015-07-01T09:59:39Z</time>
      </trkpt>
      <trkpt lat="42.45588" lon="8.90369">
        <ele>1517.6</ele>
        <time>2015-07-01T09:59:48Z</time>
      </trkpt>
      <trkpt lat="42.45591" lon="8.9036">
        <ele>1516.2</ele>
        <time>2015-07-01T10:00:01Z</time>
      </trkpt>
      <trkpt lat="42.45592" lon="8.90356">
        <ele>1515.2</ele>
        <time>2015-07-01T10:00:11Z</time>
      </trkpt>
      <trkpt lat="42.45592" lon="8.90349">
        <ele>1513.2</ele>
        <time>2015-07-01T10:00:35Z</time>
      </trkpt>
      <trkpt lat="42.45597" lon="8.90341">
        <ele>1512.8</ele>
        <time>2015-07-01T10:00:43Z</time>
      </trkpt>
      <trkpt lat="42.45593" lon="8.9032">
        <ele>1511.8</ele>
        <time>2015-07-01T10:01:14Z</time>
      </trkpt>
      <trkpt lat="42.45597" lon="8.90311">
        <ele>1513.2</ele>
        <time>2015-07-01T10:01:24Z</time>
      </trkpt>
      <trkpt lat="42.45602" lon="8.90304">
        <ele>1513.8</ele>
        <time>2015-07-01T10:01:35Z</time>
      </trkpt>
      <trkpt lat="42.45604" lon="8.90301">
        <ele>1514.4</ele>
        <time>2015-07-01T10:01:41Z</time>
      </trkpt>
      <trkpt lat="42.45606" lon="8.90295">
        <ele>1515.6</ele>
        <time>2015-07-01T10:01:49Z</time>
      </trkpt>
      <trkpt lat="42.4561" lon="8.9029">
        <ele>1516.8</ele>
        <time>2015-07-01T10:01:58Z</time>
      </trkpt>
      <trkpt lat="42.45618" lon="8.90281">
        <ele>1517.2</ele>
        <time>2015-07-01T10:02:14Z</time>
      </trkpt>
      <trkpt lat="42.45632" lon="8.90269">
        <ele>1515.6</ele>
        <time>2015-07-01T10:02:42Z</time>
      </trkpt>
      <trkpt lat="42.45671" lon="8.90271">
        <ele>1514.8</ele>
        <time>2015-07-01T10:03:50Z</time>
      </trkpt>
      <trkpt lat="42.45677" lon="8.90274">
        <ele>1515.8</ele>
        <time>2015-07-01T10:04:01Z</time>
      </trkpt>
      <trkpt lat="42.45684" lon="8.90277">
        <ele>1516.8</ele>
        <time>2015-07-01T10:04:13Z</time>
      </trkpt>
      <trkpt lat="42.45685" lon="8.90279">
        <ele>1517.4</ele>
        <time>2015-07-01T10:04:20Z</time>
      </trkpt>
      <trkpt lat="42.45686" lon="8.90281">
        <ele>1518.4</ele>
        <time>2015-07-01T10:04:26Z</time>
      </trkpt>
      <trkpt lat="42.45688" lon="8.90281">
        <ele>1519.8</ele>
        <time>2015-07-01T10:04:35Z</time>
      </trkpt>
      <trkpt lat="42.45694" lon="8.90286">
        <ele>1521</ele>
        <time>2015-07-01T10:04:47Z</time>
      </trkpt>
      <trkpt lat="42.45697" lon="8.90289">
        <ele>1521.4</ele>
        <time>2015-07-01T10:04:54Z</time>
      </trkpt>
      <trkpt lat="42.45701" lon="8.90291">
        <ele>1522.8</ele>
        <time>2015-07-01T10:05:02Z</time>
      </trkpt>
      <trkpt lat="42.45705" lon="8.90296">
        <ele>1524</ele>
        <time>2015-07-01T10:05:13Z</time>
      </trkpt>
      <trkpt lat="42.45708" lon="8.90298">
        <ele>1524.8</ele>
        <time>2015-07-01T10:05:21Z</time>
      </trkpt>
      <trkpt lat="42.4571" lon="8.90303">
        <ele>1525.8</ele>
        <time>2015-07-01T10:05:31Z</time>
      </trkpt>
      <trkpt lat="42.45711" lon="8.90306">
        <ele>1526.8</ele>
        <time>2015-07-01T10:05:38Z</time>
      </trkpt>
      <trkpt lat="42.45716" lon="8.90307">
        <ele>1528</ele>
        <time>2015-07-01T10:05:47Z</time>
      </trkpt>
      <trkpt lat="42.45722" lon="8.90313">
        <ele>1529.4</ele>
        <time>2015-07-01T10:06:04Z</time>
      </trkpt>
      <trkpt lat="42.45725" lon="8.90316">
        <ele>1530.2</ele>
        <time>2015-07-01T10:06:12Z</time>
      </trkpt>
      <trkpt lat="42.45726" lon="8.90319">
        <ele>1531.8</ele>
        <time>2015-07-01T10:06:22Z</time>
      </trkpt>
      <trkpt lat="42.45735" lon="8.90316">
        <ele>1533</ele>
        <time>2015-07-01T10:06:40Z</time>
      </trkpt>
      <trkpt lat="42.45738" lon="8.90314">
        <ele>1534.2</ele>
        <time>2015-07-01T10:06:51Z</time>
      </trkpt>
      <trkpt lat="42.45741" lon="8.9031">
        <ele>1535.4</ele>
        <time>2015-07-01T10:07:03Z</time>
      </trkpt>
      <trkpt lat="42.45744" lon="8.90309">
        <ele>1536.6</ele>
        <time>2015-07-01T10:07:11Z</time>
      </trkpt>
      <trkpt lat="42.45743" lon="8.90308">
        <ele>1537.4</ele>
        <time>2015-07-01T10:07:20Z</time>
      </trkpt>
      <trkpt lat="42.45747" lon="8.90304">
        <ele>1539</ele>
        <time>2015-07-01T10:07:31Z</time>
      </trkpt>
      <trkpt lat="42.45749" lon="8.90301">
        <ele>1539.4</ele>
        <time>2015-07-01T10:07:37Z</time>
      </trkpt>
      <trkpt lat="42.4575" lon="8.90301">
        <ele>1539.8</ele>
        <time>2015-07-01T10:07:38Z</time>
      </trkpt>
      <trkpt lat="42.45752" lon="8.90297">
        <ele>1541</ele>
        <time>2015-07-01T10:07:46Z</time>
      </trkpt>
      <trkpt lat="42.45754" lon="8.90295">
        <ele>1542</ele>
        <time>2015-07-01T10:07:53Z</time>
      </trkpt>
      <trkpt lat="42.45753" lon="8.90302">
        <ele>1543.2</ele>
        <time>2015-07-01T10:08:01Z</time>
      </trkpt>
      <trkpt lat="42.45752" lon="8.90307">
        <ele>1544</ele>
        <time>2015-07-01T10:08:07Z</time>
      </trkpt>
      <trkpt lat="42.45754" lon="8.90311">
        <ele>1544.8</ele>
        <time>2015-07-01T10:08:11Z</time>
      </trkpt>
      <trkpt lat="42.45756" lon="8.90314">
        <ele>1545.6</ele>
        <time>2015-07-01T10:08:16Z</time>
      </trkpt>
      <trkpt lat="42.45763" lon="8.90314">
        <ele>1546.8</ele>
        <time>2015-07-01T10:08:32Z</time>
      </trkpt>
      <trkpt lat="42.45764" lon="8.9031">
        <ele>1547.8</ele>
        <time>2015-07-01T10:08:40Z</time>
      </trkpt>
      <trkpt lat="42.45767" lon="8.90309">
        <ele>1549</ele>
        <time>2015-07-01T10:08:48Z</time>
      </trkpt>
      <trkpt lat="42.45765" lon="8.9031">
        <ele>1550</ele>
        <time>2015-07-01T10:08:57Z</time>
      </trkpt>
      <trkpt lat="42.45768" lon="8.90312">
        <ele>1551.8</ele>
        <time>2015-07-01T10:09:08Z</time>
      </trkpt>
      <trkpt lat="42.45771" lon="8.90322">
        <ele>1553</ele>
        <time>2015-07-01T10:09:26Z</time>
      </trkpt>
      <trkpt lat="42.45771" lon="8.90322">
        <ele>1554</ele>
        <time>2015-07-01T10:09:33Z</time>
      </trkpt>
      <trkpt lat="42.45772" lon="8.90326">
        <ele>1555.2</ele>
        <time>2015-07-01T10:09:43Z</time>
      </trkpt>
      <trkpt lat="42.45772" lon="8.9033">
        <ele>1556.4</ele>
        <time>2015-07-01T10:09:51Z</time>
      </trkpt>
      <trkpt lat="42.45773" lon="8.90329">
        <ele>1557.6</ele>
        <time>2015-07-01T10:09:58Z</time>
      </trkpt>
      <trkpt lat="42.45776" lon="8.90328">
        <ele>1558.8</ele>
        <time>2015-07-01T10:10:07Z</time>
      </trkpt>
      <trkpt lat="42.45779" lon="8.90325">
        <ele>1559.8</ele>
        <time>2015-07-01T10:10:14Z</time>
      </trkpt>
      <trkpt lat="42.45779" lon="8.90325">
        <ele>1561</ele>
        <time>2015-07-01T10:10:23Z</time>
      </trkpt>
      <trkpt lat="42.45784" lon="8.90323">
        <ele>1562.4</ele>
        <time>2015-07-01T10:10:40Z</time>
      </trkpt>
      <trkpt lat="42.45785" lon="8.90322">
        <ele>1563.8</ele>
        <time>2015-07-01T10:10:49Z</time>
      </trkpt>
      <trkpt lat="42.45788" lon="8.90326">
        <ele>1564.8</ele>
        <time>2015-07-01T10:11:00Z</time>
      </trkpt>
      <trkpt lat="42.4579" lon="8.90325">
        <ele>1566</ele>
        <time>2015-07-01T10:11:08Z</time>
      </trkpt>
      <trkpt lat="42.45796" lon="8.90321">
        <ele>1567.4</ele>
        <time>2015-07-01T10:11:18Z</time>
      </trkpt>
      <trkpt lat="42.45797" lon="8.90321">
        <ele>1567.6</ele>
        <time>2015-07-01T10:11:19Z</time>
      </trkpt>
      <trkpt lat="42.45796" lon="8.90319">
        <ele>1567.4</ele>
        <time>2015-07-01T10:11:20Z</time>
      </trkpt>
      <trkpt lat="42.45798" lon="8.90314">
        <ele>1568.6</ele>
        <time>2015-07-01T10:11:30Z</time>
      </trkpt>
      <trkpt lat="42.45802" lon="8.90308">
        <ele>1570</ele>
        <time>2015-07-01T10:11:39Z</time>
      </trkpt>
      <trkpt lat="42.45802" lon="8.90297">
        <ele>1571</ele>
        <time>2015-07-01T10:11:49Z</time>
      </trkpt>
      <trkpt lat="42.45797" lon="8.90281">
        <ele>1573</ele>
        <time>2015-07-01T10:12:09Z</time>
      </trkpt>
      <trkpt lat="42.45796" lon="8.9028">
        <ele>1573.2</ele>
        <time>2015-07-01T10:12:10Z</time>
      </trkpt>
      <trkpt lat="42.45798" lon="8.90272">
        <ele>1574</ele>
        <time>2015-07-01T10:12:20Z</time>
      </trkpt>
      <trkpt lat="42.45804" lon="8.90269">
        <ele>1575</ele>
        <time>2015-07-01T10:12:32Z</time>
      </trkpt>
      <trkpt lat="42.45808" lon="8.90271">
        <ele>1576.4</ele>
        <time>2015-07-01T10:12:41Z</time>
      </trkpt>
      <trkpt lat="42.45809" lon="8.90275">
        <ele>1577.8</ele>
        <time>2015-07-01T10:12:49Z</time>
      </trkpt>
      <trkpt lat="42.45811" lon="8.90269">
        <ele>1579</ele>
        <time>2015-07-01T10:13:01Z</time>
      </trkpt>
      <trkpt lat="42.45817" lon="8.90271">
        <ele>1580</ele>
        <time>2015-07-01T10:13:11Z</time>
      </trkpt>
      <trkpt lat="42.4582" lon="8.90275">
        <ele>1581.2</ele>
        <time>2015-07-01T10:13:19Z</time>
      </trkpt>
      <trkpt lat="42.45824" lon="8.9028">
        <ele>1582.4</ele>
        <time>2015-07-01T10:13:28Z</time>
      </trkpt>
      <trkpt lat="42.45825" lon="8.90285">
        <ele>1583.8</ele>
        <time>2015-07-01T10:13:38Z</time>
      </trkpt>
      <trkpt lat="42.45827" lon="8.90289">
        <ele>1585</ele>
        <time>2015-07-01T10:13:47Z</time>
      </trkpt>
      <trkpt lat="42.45828" lon="8.90291">
        <ele>1586.2</ele>
        <time>2015-07-01T10:13:55Z</time>
      </trkpt>
      <trkpt lat="42.45832" lon="8.90287">
        <ele>1587.6</ele>
        <time>2015-07-01T10:14:05Z</time>
      </trkpt>
      <trkpt lat="42.45832" lon="8.90282">
        <ele>1588.8</ele>
        <time>2015-07-01T10:14:14Z</time>
      </trkpt>
      <trkpt lat="42.45833" lon="8.90274">
        <ele>1590.2</ele>
        <time>2015-07-01T10:14:24Z</time>
      </trkpt>
      <trkpt lat="42.45833" lon="8.90265">
        <ele>1591.2</ele>
        <time>2015-07-01T10:14:34Z</time>
      </trkpt>
      <trkpt lat="42.45837" lon="8.90264">
        <ele>1592.4</ele>
        <time>2015-07-01T10:14:45Z</time>
      </trkpt>
      <trkpt lat="42.45841" lon="8.90262">
        <ele>1594</ele>
        <time>2015-07-01T10:14:58Z</time>
      </trkpt>
      <trkpt lat="42.45842" lon="8.90266">
        <ele>1595</ele>
        <time>2015-07-01T10:15:06Z</time>
      </trkpt>
      <trkpt lat="42.45847" lon="8.90265">
        <ele>1596.2</ele>
        <time>2015-07-01T10:15:17Z</time>
      </trkpt>
      <trkpt lat="42.45849" lon="8.9027">
        <ele>1597.8</ele>
        <time>2015-07-01T10:15:28Z</time>
      </trkpt>
      <trkpt lat="42.45853" lon="8.90267">
        <ele>1598.6</ele>
        <time>2015-07-01T10:15:38Z</time>
      </trkpt>
      <trkpt lat="42.45856" lon="8.90264">
        <ele>1600.2</ele>
        <time>2015-07-01T10:15:50Z</time>
      </trkpt>
      <trkpt lat="42.45858" lon="8.90265">
        <ele>1600.6</ele>
        <time>2015-07-01T10:15:55Z</time>
      </trkpt>
      <trkpt lat="42.45859" lon="8.90266">
        <ele>1601.2</ele>
        <time>2015-07-01T10:15:58Z</time>
      </trkpt>
      <trkpt lat="42.45863" lon="8.90269">
        <ele>1602</ele>
        <time>2015-07-01T10:16:05Z</time>
      </trkpt>
      <trkpt lat="42.45865" lon="8.90274">
        <ele>1603.6</ele>
        <time>2015-07-01T10:16:14Z</time>
      </trkpt>
      <trkpt lat="42.45868" lon="8.90279">
        <ele>1604.8</ele>
        <time>2015-07-01T10:16:25Z</time>
      </trkpt>
      <trkpt lat="42.4587" lon="8.90277">
        <ele>1606.4</ele>
        <time>2015-07-01T10:16:48Z</time>
      </trkpt>
      <trkpt lat="42.45873" lon="8.90279">
        <ele>1607.2</ele>
        <time>2015-07-01T10:16:57Z</time>
      </trkpt>
      <trkpt lat="42.45877" lon="8.90282">
        <ele>1608.4</ele>
        <time>2015-07-01T10:17:07Z</time>
      </trkpt>
      <trkpt lat="42.45881" lon="8.90283">
        <ele>1609.6</ele>
        <time>2015-07-01T10:17:15Z</time>
      </trkpt>
      <trkpt lat="42.45887" lon="8.90285">
        <ele>1611.2</ele>
        <time>2015-07-01T10:17:26Z</time>
      </trkpt>
      <trkpt lat="42.45892" lon="8.90287">
        <ele>1612</ele>
        <time>2015-07-01T10:17:35Z</time>
      </trkpt>
      <trkpt lat="42.45899" lon="8.90289">
        <ele>1613.4</ele>
        <time>2015-07-01T10:17:45Z</time>
      </trkpt>
      <trkpt lat="42.45907" lon="8.90296">
        <ele>1614.8</ele>
        <time>2015-07-01T10:18:00Z</time>
      </trkpt>
      <trkpt lat="42.45913" lon="8.90299">
        <ele>1615.6</ele>
        <time>2015-07-01T10:18:13Z</time>
      </trkpt>
      <trkpt lat="42.45914" lon="8.90303">
        <ele>1616.4</ele>
        <time>2015-07-01T10:18:20Z</time>
      </trkpt>
      <trkpt lat="42.45916" lon="8.90307">
        <ele>1617.2</ele>
        <time>2015-07-01T10:18:24Z</time>
      </trkpt>
      <trkpt lat="42.45917" lon="8.90309">
        <ele>1617.4</ele>
        <time>2015-07-01T10:18:26Z</time>
      </trkpt>
      <trkpt lat="42.45918" lon="8.90311">
        <ele>1617.8</ele>
        <time>2015-07-01T10:18:29Z</time>
      </trkpt>
      <trkpt lat="42.45924" lon="8.90316">
        <ele>1618.8</ele>
        <time>2015-07-01T10:18:39Z</time>
      </trkpt>
      <trkpt lat="42.4593" lon="8.90317">
        <ele>1620.4</ele>
        <time>2015-07-01T10:18:51Z</time>
      </trkpt>
      <trkpt lat="42.45947" lon="8.90324">
        <ele>1620.4</ele>
        <time>2015-07-01T10:19:27Z</time>
      </trkpt>
      <trkpt lat="42.45949" lon="8.90328">
        <ele>1619.2</ele>
        <time>2015-07-01T10:19:36Z</time>
      </trkpt>
      <trkpt lat="42.45952" lon="8.90332">
        <ele>1618</ele>
        <time>2015-07-01T10:19:45Z</time>
      </trkpt>
      <trkpt lat="42.45957" lon="8.90336">
        <ele>1617</ele>
        <time>2015-07-01T10:19:53Z</time>
      </trkpt>
      <trkpt lat="42.45959" lon="8.90342">
        <ele>1616</ele>
        <time>2015-07-01T10:20:02Z</time>
      </trkpt>
      <trkpt lat="42.45963" lon="8.90345">
        <ele>1615.2</ele>
        <time>2015-07-01T10:20:09Z</time>
      </trkpt>
      <trkpt lat="42.45969" lon="8.90352">
        <ele>1613.6</ele>
        <time>2015-07-01T10:20:18Z</time>
      </trkpt>
      <trkpt lat="42.4598" lon="8.90373">
        <ele>1613</ele>
        <time>2015-07-01T10:20:47Z</time>
      </trkpt>
      <trkpt lat="42.45986" lon="8.90383">
        <ele>1613.4</ele>
        <time>2015-07-01T10:20:59Z</time>
      </trkpt>
      <trkpt lat="42.45995" lon="8.90396">
        <ele>1613.8</ele>
        <time>2015-07-01T10:21:13Z</time>
      </trkpt>
      <trkpt lat="42.46003" lon="8.90407">
        <ele>1614.4</ele>
        <time>2015-07-01T10:21:26Z</time>
      </trkpt>
      <trkpt lat="42.4601" lon="8.90418">
        <ele>1615.4</ele>
        <time>2015-07-01T10:21:42Z</time>
      </trkpt>
      <trkpt lat="42.46019" lon="8.90434">
        <ele>1615.2</ele>
        <time>2015-07-01T10:22:12Z</time>
      </trkpt>
      <trkpt lat="42.46025" lon="8.90442">
        <ele>1614.2</ele>
        <time>2015-07-01T10:22:30Z</time>
      </trkpt>
      <trkpt lat="42.46024" lon="8.90457">
        <ele>1614.4</ele>
        <time>2015-07-01T10:22:49Z</time>
      </trkpt>
      <trkpt lat="42.46021" lon="8.90474">
        <ele>1616</ele>
        <time>2015-07-01T10:23:07Z</time>
      </trkpt>
      <trkpt lat="42.46019" lon="8.90485">
        <ele>1617.4</ele>
        <time>2015-07-01T10:23:40Z</time>
      </trkpt>
      <trkpt lat="42.46017" lon="8.9049">
        <ele>1617.6</ele>
        <time>2015-07-01T10:23:46Z</time>
      </trkpt>
      <trkpt lat="42.46015" lon="8.90494">
        <ele>1618.2</ele>
        <time>2015-07-01T10:23:51Z</time>
      </trkpt>
      <trkpt lat="42.46012" lon="8.90506">
        <ele>1619.4</ele>
        <time>2015-07-01T10:24:03Z</time>
      </trkpt>
      <trkpt lat="42.46012" lon="8.90508">
        <ele>1619.4</ele>
        <time>2015-07-01T10:24:05Z</time>
      </trkpt>
      <trkpt lat="42.46013" lon="8.90525">
        <ele>1620.4</ele>
        <time>2015-07-01T10:24:18Z</time>
      </trkpt>
      <trkpt lat="42.46023" lon="8.90584">
        <ele>1620</ele>
        <time>2015-07-01T10:25:04Z</time>
      </trkpt>
      <trkpt lat="42.46024" lon="8.90588">
        <ele>1620</ele>
        <time>2015-07-01T10:25:07Z</time>
      </trkpt>
      <trkpt lat="42.46026" lon="8.90617">
        <ele>1618.4</ele>
        <time>2015-07-01T10:25:29Z</time>
      </trkpt>
      <trkpt lat="42.46025" lon="8.90631">
        <ele>1617.8</ele>
        <time>2015-07-01T10:25:43Z</time>
      </trkpt>
      <trkpt lat="42.46022" lon="8.90638">
        <ele>1617.6</ele>
        <time>2015-07-01T10:25:53Z</time>
      </trkpt>
      <trkpt lat="42.46021" lon="8.9064">
        <ele>1617.6</ele>
        <time>2015-07-01T10:25:56Z</time>
      </trkpt>
      <trkpt lat="42.46026" lon="8.90646">
        <ele>1618.2</ele>
        <time>2015-07-01T10:26:03Z</time>
      </trkpt>
      <trkpt lat="42.46028" lon="8.90648">
        <ele>1618.4</ele>
        <time>2015-07-01T10:26:05Z</time>
      </trkpt>
      <trkpt lat="42.4604" lon="8.90652">
        <ele>1617.6</ele>
        <time>2015-07-01T10:26:18Z</time>
      </trkpt>
      <trkpt lat="42.46065" lon="8.90676">
        <ele>1617.2</ele>
        <time>2015-07-01T10:26:55Z</time>
      </trkpt>
      <trkpt lat="42.46069" lon="8.90682">
        <ele>1617.6</ele>
        <time>2015-07-01T10:27:03Z</time>
      </trkpt>
      <trkpt lat="42.4607" lon="8.90689">
        <ele>1618.6</ele>
        <time>2015-07-01T10:27:13Z</time>
      </trkpt>
      <trkpt lat="42.46082" lon="8.90689">
        <ele>1619.6</ele>
        <time>2015-07-01T10:27:50Z</time>
      </trkpt>
      <trkpt lat="42.46086" lon="8.90688">
        <ele>1618.8</ele>
        <time>2015-07-01T10:28:03Z</time>
      </trkpt>
      <trkpt lat="42.46108" lon="8.90687">
        <ele>1617.6</ele>
        <time>2015-07-01T10:28:39Z</time>
      </trkpt>
      <trkpt lat="42.46113" lon="8.90686">
        <ele>1616.6</ele>
        <time>2015-07-01T10:28:56Z</time>
      </trkpt>
      <trkpt lat="42.4612" lon="8.90683">
        <ele>1615.2</ele>
        <time>2015-07-01T10:29:24Z</time>
      </trkpt>
      <trkpt lat="42.46123" lon="8.90681">
        <ele>1614.4</ele>
        <time>2015-07-01T10:29:33Z</time>
      </trkpt>
      <trkpt lat="42.46124" lon="8.90678">
        <ele>1613.2</ele>
        <time>2015-07-01T10:29:40Z</time>
      </trkpt>
      <trkpt lat="42.46126" lon="8.90674">
        <ele>1612.2</ele>
        <time>2015-07-01T10:29:49Z</time>
      </trkpt>
      <trkpt lat="42.46129" lon="8.90674">
        <ele>1611.4</ele>
        <time>2015-07-01T10:29:54Z</time>
      </trkpt>
      <trkpt lat="42.4614" lon="8.90675">
        <ele>1609.8</ele>
        <time>2015-07-01T10:30:16Z</time>
      </trkpt>
      <trkpt lat="42.46143" lon="8.90671">
        <ele>1608.8</ele>
        <time>2015-07-01T10:30:25Z</time>
      </trkpt>
      <trkpt lat="42.46147" lon="8.90671">
        <ele>1608.4</ele>
        <time>2015-07-01T10:30:30Z</time>
      </trkpt>
      <trkpt lat="42.46153" lon="8.90671">
        <ele>1606.6</ele>
        <time>2015-07-01T10:30:41Z</time>
      </trkpt>
      <trkpt lat="42.46158" lon="8.90669">
        <ele>1605.4</ele>
        <time>2015-07-01T10:30:49Z</time>
      </trkpt>
      <trkpt lat="42.46157" lon="8.90662">
        <ele>1604.4</ele>
        <time>2015-07-01T10:30:57Z</time>
      </trkpt>
      <trkpt lat="42.46159" lon="8.90662">
        <ele>1603.8</ele>
        <time>2015-07-01T10:31:02Z</time>
      </trkpt>
      <trkpt lat="42.46192" lon="8.90674">
        <ele>1602</ele>
        <time>2015-07-01T10:31:59Z</time>
      </trkpt>
      <trkpt lat="42.46196" lon="8.90673">
        <ele>1601.2</ele>
        <time>2015-07-01T10:32:08Z</time>
      </trkpt>
      <trkpt lat="42.46197" lon="8.90671">
        <ele>1600.6</ele>
        <time>2015-07-01T10:32:13Z</time>
      </trkpt>
      <trkpt lat="42.462" lon="8.90668">
        <ele>1599</ele>
        <time>2015-07-01T10:32:22Z</time>
      </trkpt>
      <trkpt lat="42.46198" lon="8.90665">
        <ele>1598.4</ele>
        <time>2015-07-01T10:32:27Z</time>
      </trkpt>
      <trkpt lat="42.462" lon="8.90663">
        <ele>1597.6</ele>
        <time>2015-07-01T10:32:32Z</time>
      </trkpt>
      <trkpt lat="42.46202" lon="8.90661">
        <ele>1596.4</ele>
        <time>2015-07-01T10:32:37Z</time>
      </trkpt>
      <trkpt lat="42.46205" lon="8.90661">
        <ele>1595</ele>
        <time>2015-07-01T10:32:42Z</time>
      </trkpt>
      <trkpt lat="42.4621" lon="8.90658">
        <ele>1593.6</ele>
        <time>2015-07-01T10:32:51Z</time>
      </trkpt>
      <trkpt lat="42.46216" lon="8.90657">
        <ele>1592.6</ele>
        <time>2015-07-01T10:32:59Z</time>
      </trkpt>
      <trkpt lat="42.46221" lon="8.90657">
        <ele>1591.6</ele>
        <time>2015-07-01T10:33:06Z</time>
      </trkpt>
      <trkpt lat="42.46224" lon="8.90655">
        <ele>1590.2</ele>
        <time>2015-07-01T10:33:13Z</time>
      </trkpt>
      <trkpt lat="42.46228" lon="8.90655">
        <ele>1589</ele>
        <time>2015-07-01T10:33:21Z</time>
      </trkpt>
      <trkpt lat="42.4623" lon="8.90654">
        <ele>1588.2</ele>
        <time>2015-07-01T10:33:27Z</time>
      </trkpt>
      <trkpt lat="42.46241" lon="8.90656">
        <ele>1586.6</ele>
        <time>2015-07-01T10:33:48Z</time>
      </trkpt>
      <trkpt lat="42.46242" lon="8.90655">
        <ele>1586</ele>
        <time>2015-07-01T10:33:56Z</time>
      </trkpt>
      <trkpt lat="42.4626" lon="8.90664">
        <ele>1585.2</ele>
        <time>2015-07-01T10:34:28Z</time>
      </trkpt>
      <trkpt lat="42.46263" lon="8.90663">
        <ele>1583.6</ele>
        <time>2015-07-01T10:34:37Z</time>
      </trkpt>
      <trkpt lat="42.46268" lon="8.90663">
        <ele>1582.6</ele>
        <time>2015-07-01T10:34:46Z</time>
      </trkpt>
      <trkpt lat="42.46271" lon="8.90666">
        <ele>1581.8</ele>
        <time>2015-07-01T10:34:59Z</time>
      </trkpt>
      <trkpt lat="42.46274" lon="8.90668">
        <ele>1580.6</ele>
        <time>2015-07-01T10:35:07Z</time>
      </trkpt>
      <trkpt lat="42.46279" lon="8.9067">
        <ele>1579.6</ele>
        <time>2015-07-01T10:35:14Z</time>
      </trkpt>
      <trkpt lat="42.4628" lon="8.90671">
        <ele>1579.2</ele>
        <time>2015-07-01T10:35:17Z</time>
      </trkpt>
      <trkpt lat="42.46287" lon="8.90678">
        <ele>1578</ele>
        <time>2015-07-01T10:35:34Z</time>
      </trkpt>
      <trkpt lat="42.46289" lon="8.90685">
        <ele>1577.2</ele>
        <time>2015-07-01T10:35:42Z</time>
      </trkpt>
      <trkpt lat="42.46297" lon="8.90698">
        <ele>1576.2</ele>
        <time>2015-07-01T10:36:03Z</time>
      </trkpt>
      <trkpt lat="42.46297" lon="8.90698">
        <ele>1575</ele>
        <time>2015-07-01T10:36:12Z</time>
      </trkpt>
      <trkpt lat="42.46298" lon="8.907">
        <ele>1574</ele>
        <time>2015-07-01T10:36:20Z</time>
      </trkpt>
      <trkpt lat="42.463" lon="8.90703">
        <ele>1573.2</ele>
        <time>2015-07-01T10:36:26Z</time>
      </trkpt>
      <trkpt lat="42.46303" lon="8.90708">
        <ele>1571.6</ele>
        <time>2015-07-01T10:36:36Z</time>
      </trkpt>
      <trkpt lat="42.46306" lon="8.90713">
        <ele>1570.8</ele>
        <time>2015-07-01T10:36:44Z</time>
      </trkpt>
      <trkpt lat="42.46308" lon="8.9071">
        <ele>1569.8</ele>
        <time>2015-07-01T10:36:50Z</time>
      </trkpt>
      <trkpt lat="42.46309" lon="8.90706">
        <ele>1569.2</ele>
        <time>2015-07-01T10:36:55Z</time>
      </trkpt>
      <trkpt lat="42.46311" lon="8.90707">
        <ele>1567.6</ele>
        <time>2015-07-01T10:37:02Z</time>
      </trkpt>
      <trkpt lat="42.46314" lon="8.90711">
        <ele>1566.6</ele>
        <time>2015-07-01T10:37:10Z</time>
      </trkpt>
      <trkpt lat="42.46315" lon="8.90709">
        <ele>1565.6</ele>
        <time>2015-07-01T10:37:17Z</time>
      </trkpt>
      <trkpt lat="42.46316" lon="8.90707">
        <ele>1564.6</ele>
        <time>2015-07-01T10:37:22Z</time>
      </trkpt>
      <trkpt lat="42.46318" lon="8.90708">
        <ele>1563.4</ele>
        <time>2015-07-01T10:37:28Z</time>
      </trkpt>
      <trkpt lat="42.46319" lon="8.90704">
        <ele>1562.2</ele>
        <time>2015-07-01T10:37:36Z</time>
      </trkpt>
      <trkpt lat="42.46322" lon="8.90705">
        <ele>1561.4</ele>
        <time>2015-07-01T10:37:42Z</time>
      </trkpt>
      <trkpt lat="42.46326" lon="8.9071">
        <ele>1560.2</ele>
        <time>2015-07-01T10:37:49Z</time>
      </trkpt>
      <trkpt lat="42.4633" lon="8.90712">
        <ele>1559.2</ele>
        <time>2015-07-01T10:37:55Z</time>
      </trkpt>
      <trkpt lat="42.46331" lon="8.9071">
        <ele>1557.6</ele>
        <time>2015-07-01T10:38:04Z</time>
      </trkpt>
      <trkpt lat="42.46332" lon="8.90707">
        <ele>1557</ele>
        <time>2015-07-01T10:38:10Z</time>
      </trkpt>
      <trkpt lat="42.46332" lon="8.90702">
        <ele>1555.8</ele>
        <time>2015-07-01T10:38:16Z</time>
      </trkpt>
      <trkpt lat="42.46331" lon="8.90701">
        <ele>1554.6</ele>
        <time>2015-07-01T10:38:22Z</time>
      </trkpt>
      <trkpt lat="42.46332" lon="8.90699">
        <ele>1553.6</ele>
        <time>2015-07-01T10:38:27Z</time>
      </trkpt>
      <trkpt lat="42.46334" lon="8.90694">
        <ele>1552.2</ele>
        <time>2015-07-01T10:38:35Z</time>
      </trkpt>
      <trkpt lat="42.46336" lon="8.90694">
        <ele>1551</ele>
        <time>2015-07-01T10:38:42Z</time>
      </trkpt>
      <trkpt lat="42.46339" lon="8.90692">
        <ele>1549.8</ele>
        <time>2015-07-01T10:38:49Z</time>
      </trkpt>
      <trkpt lat="42.46339" lon="8.90688">
        <ele>1549.2</ele>
        <time>2015-07-01T10:38:53Z</time>
      </trkpt>
      <trkpt lat="42.46341" lon="8.90683">
        <ele>1547.4</ele>
        <time>2015-07-01T10:39:03Z</time>
      </trkpt>
      <trkpt lat="42.46344" lon="8.90681">
        <ele>1546.4</ele>
        <time>2015-07-01T10:39:10Z</time>
      </trkpt>
      <trkpt lat="42.46345" lon="8.90682">
        <ele>1545.8</ele>
        <time>2015-07-01T10:39:14Z</time>
      </trkpt>
      <trkpt lat="42.46348" lon="8.90681">
        <ele>1544.2</ele>
        <time>2015-07-01T10:39:20Z</time>
      </trkpt>
      <trkpt lat="42.46348" lon="8.90677">
        <ele>1543.2</ele>
        <time>2015-07-01T10:39:25Z</time>
      </trkpt>
      <trkpt lat="42.46348" lon="8.90671">
        <ele>1541.8</ele>
        <time>2015-07-01T10:39:32Z</time>
      </trkpt>
      <trkpt lat="42.4635" lon="8.90668">
        <ele>1540.8</ele>
        <time>2015-07-01T10:39:39Z</time>
      </trkpt>
      <trkpt lat="42.46351" lon="8.90669">
        <ele>1540</ele>
        <time>2015-07-01T10:39:43Z</time>
      </trkpt>
      <trkpt lat="42.46355" lon="8.90668">
        <ele>1538.6</ele>
        <time>2015-07-01T10:39:49Z</time>
      </trkpt>
      <trkpt lat="42.46363" lon="8.90671">
        <ele>1537</ele>
        <time>2015-07-01T10:39:56Z</time>
      </trkpt>
      <trkpt lat="42.46365" lon="8.90672">
        <ele>1536.4</ele>
        <time>2015-07-01T10:40:01Z</time>
      </trkpt>
      <trkpt lat="42.46368" lon="8.90677">
        <ele>1535</ele>
        <time>2015-07-01T10:40:07Z</time>
      </trkpt>
      <trkpt lat="42.46372" lon="8.90694">
        <ele>1533</ele>
        <time>2015-07-01T10:40:25Z</time>
      </trkpt>
      <trkpt lat="42.46376" lon="8.90694">
        <ele>1532.8</ele>
        <time>2015-07-01T10:40:29Z</time>
      </trkpt>
      <trkpt lat="42.46378" lon="8.90693">
        <ele>1532.8</ele>
        <time>2015-07-01T10:40:31Z</time>
      </trkpt>
      <trkpt lat="42.46399" lon="8.90694">
        <ele>1531.6</ele>
        <time>2015-07-01T10:41:01Z</time>
      </trkpt>
      <trkpt lat="42.46404" lon="8.90692">
        <ele>1531.6</ele>
        <time>2015-07-01T10:41:07Z</time>
      </trkpt>
      <trkpt lat="42.46409" lon="8.9069">
        <ele>1530.6</ele>
        <time>2015-07-01T10:41:17Z</time>
      </trkpt>
      <trkpt lat="42.46413" lon="8.90693">
        <ele>1530</ele>
        <time>2015-07-01T10:42:07Z</time>
      </trkpt>
      <trkpt lat="42.46454" lon="8.90707">
        <ele>1530.6</ele>
        <time>2015-07-01T10:42:54Z</time>
      </trkpt>
      <trkpt lat="42.4646" lon="8.90711">
        <ele>1531.4</ele>
        <time>2015-07-01T10:43:03Z</time>
      </trkpt>
      <trkpt lat="42.46468" lon="8.90712">
        <ele>1532</ele>
        <time>2015-07-01T10:43:13Z</time>
      </trkpt>
      <trkpt lat="42.46482" lon="8.90703">
        <ele>1531.4</ele>
        <time>2015-07-01T10:44:45Z</time>
      </trkpt>
      <trkpt lat="42.46522" lon="8.90676">
        <ele>1531.4</ele>
        <time>2015-07-01T10:45:42Z</time>
      </trkpt>
      <trkpt lat="42.46526" lon="8.90677">
        <ele>1531.8</ele>
        <time>2015-07-01T10:45:48Z</time>
      </trkpt>
      <trkpt lat="42.46534" lon="8.90677">
        <ele>1532.8</ele>
        <time>2015-07-01T10:45:59Z</time>
      </trkpt>
      <trkpt lat="42.46533" lon="8.9068">
        <ele>1533.6</ele>
        <time>2015-07-01T10:46:08Z</time>
      </trkpt>
      <trkpt lat="42.46527" lon="8.90681">
        <ele>1535</ele>
        <time>2015-07-01T10:46:24Z</time>
      </trkpt>
      <trkpt lat="42.46528" lon="8.90687">
        <ele>1536.2</ele>
        <time>2015-07-01T10:49:30Z</time>
      </trkpt>
      <trkpt lat="42.46528" lon="8.90688">
        <ele>1536.2</ele>
        <time>2015-07-01T10:49:34Z</time>
      </trkpt>
      <trkpt lat="42.46531" lon="8.9068">
        <ele>1536.4</ele>
        <time>2015-07-01T10:51:17Z</time>
      </trkpt>
      <trkpt lat="42.46531" lon="8.90682">
        <ele>1534.8</ele>
        <time>2015-07-01T10:52:28Z</time>
      </trkpt>
    </trkseg>
  </trk>
  <trk>
    <name><![CDATA[GR20 Ortu di u Piobbu - Calinzana]]></name>
    <trkseg>
      <trkpt lat="42.46528" lon="8.90681">
        <ele>1553.8</ele>
        <time>2015-07-02T04:02:44Z</time>
      </trkpt>
      <trkpt lat="42.46532" lon="8.90678">
        <ele>1553.8</ele>
        <time>2015-07-02T04:03:37Z</time>
      </trkpt>
      <trkpt lat="42.46545" lon="8.90686">
        <ele>1553.2</ele>
        <time>2015-07-02T04:04:09Z</time>
      </trkpt>
      <trkpt lat="42.46546" lon="8.90691">
        <ele>1554</ele>
        <time>2015-07-02T04:04:17Z</time>
      </trkpt>
      <trkpt lat="42.46548" lon="8.90697">
        <ele>1555.2</ele>
        <time>2015-07-02T04:04:25Z</time>
      </trkpt>
      <trkpt lat="42.4655" lon="8.90699">
        <ele>1555.8</ele>
        <time>2015-07-02T04:04:31Z</time>
      </trkpt>
      <trkpt lat="42.46557" lon="8.90707">
        <ele>1557.6</ele>
        <time>2015-07-02T04:04:42Z</time>
      </trkpt>
      <trkpt lat="42.46557" lon="8.90707">
        <ele>1557.8</ele>
        <time>2015-07-02T04:04:43Z</time>
      </trkpt>
      <trkpt lat="42.46562" lon="8.90711">
        <ele>1558.4</ele>
        <time>2015-07-02T04:04:51Z</time>
      </trkpt>
      <trkpt lat="42.46567" lon="8.90715">
        <ele>1559.6</ele>
        <time>2015-07-02T04:05:01Z</time>
      </trkpt>
      <trkpt lat="42.46573" lon="8.9072">
        <ele>1560.8</ele>
        <time>2015-07-02T04:05:11Z</time>
      </trkpt>
      <trkpt lat="42.46575" lon="8.90726">
        <ele>1561.8</ele>
        <time>2015-07-02T04:05:19Z</time>
      </trkpt>
      <trkpt lat="42.46577" lon="8.90729">
        <ele>1562.6</ele>
        <time>2015-07-02T04:05:27Z</time>
      </trkpt>
      <trkpt lat="42.46583" lon="8.90731">
        <ele>1563.8</ele>
        <time>2015-07-02T04:05:34Z</time>
      </trkpt>
      <trkpt lat="42.46601" lon="8.90735">
        <ele>1564.8</ele>
        <time>2015-07-02T04:05:54Z</time>
      </trkpt>
      <trkpt lat="42.46609" lon="8.90755">
        <ele>1564.4</ele>
        <time>2015-07-02T04:06:24Z</time>
      </trkpt>
      <trkpt lat="42.46615" lon="8.90764">
        <ele>1563</ele>
        <time>2015-07-02T04:06:38Z</time>
      </trkpt>
      <trkpt lat="42.46616" lon="8.90771">
        <ele>1562.4</ele>
        <time>2015-07-02T04:06:44Z</time>
      </trkpt>
      <trkpt lat="42.46616" lon="8.90784">
        <ele>1560.8</ele>
        <time>2015-07-02T04:06:55Z</time>
      </trkpt>
      <trkpt lat="42.46618" lon="8.90798">
        <ele>1560.2</ele>
        <time>2015-07-02T04:07:12Z</time>
      </trkpt>
      <trkpt lat="42.4662" lon="8.90809">
        <ele>1560.6</ele>
        <time>2015-07-02T04:07:27Z</time>
      </trkpt>
      <trkpt lat="42.46622" lon="8.90808">
        <ele>1560</ele>
        <time>2015-07-02T04:07:33Z</time>
      </trkpt>
      <trkpt lat="42.46626" lon="8.90807">
        <ele>1558.4</ele>
        <time>2015-07-02T04:07:44Z</time>
      </trkpt>
      <trkpt lat="42.46627" lon="8.90811">
        <ele>1557.8</ele>
        <time>2015-07-02T04:07:50Z</time>
      </trkpt>
      <trkpt lat="42.46629" lon="8.90814">
        <ele>1556.8</ele>
        <time>2015-07-02T04:07:57Z</time>
      </trkpt>
      <trkpt lat="42.46631" lon="8.90843">
        <ele>1554.8</ele>
        <time>2015-07-02T04:08:30Z</time>
      </trkpt>
      <trkpt lat="42.46635" lon="8.9085">
        <ele>1554.4</ele>
        <time>2015-07-02T04:09:09Z</time>
      </trkpt>
      <trkpt lat="42.46636" lon="8.90854">
        <ele>1555.2</ele>
        <time>2015-07-02T04:09:16Z</time>
      </trkpt>
      <trkpt lat="42.46642" lon="8.90858">
        <ele>1556.4</ele>
        <time>2015-07-02T04:09:23Z</time>
      </trkpt>
      <trkpt lat="42.46643" lon="8.9086">
        <ele>1556.8</ele>
        <time>2015-07-02T04:09:31Z</time>
      </trkpt>
      <trkpt lat="42.46648" lon="8.9086">
        <ele>1557</ele>
        <time>2015-07-02T04:09:35Z</time>
      </trkpt>
      <trkpt lat="42.46653" lon="8.90859">
        <ele>1557.2</ele>
        <time>2015-07-02T04:09:38Z</time>
      </trkpt>
      <trkpt lat="42.46655" lon="8.90859">
        <ele>1557.4</ele>
        <time>2015-07-02T04:09:40Z</time>
      </trkpt>
      <trkpt lat="42.46647" lon="8.90875">
        <ele>1559</ele>
        <time>2015-07-02T04:10:05Z</time>
      </trkpt>
      <trkpt lat="42.46647" lon="8.90875">
        <ele>1559</ele>
        <time>2015-07-02T04:10:06Z</time>
      </trkpt>
      <trkpt lat="42.46641" lon="8.90881">
        <ele>1559.2</ele>
        <time>2015-07-02T04:10:15Z</time>
      </trkpt>
      <trkpt lat="42.46648" lon="8.9089">
        <ele>1560.4</ele>
        <time>2015-07-02T04:10:36Z</time>
      </trkpt>
      <trkpt lat="42.46644" lon="8.909">
        <ele>1560</ele>
        <time>2015-07-02T04:10:44Z</time>
      </trkpt>
      <trkpt lat="42.46636" lon="8.90908">
        <ele>1559.2</ele>
        <time>2015-07-02T04:10:56Z</time>
      </trkpt>
      <trkpt lat="42.46633" lon="8.90914">
        <ele>1560</ele>
        <time>2015-07-02T04:11:05Z</time>
      </trkpt>
      <trkpt lat="42.4663" lon="8.90923">
        <ele>1561</ele>
        <time>2015-07-02T04:11:17Z</time>
      </trkpt>
      <trkpt lat="42.4663" lon="8.90926">
        <ele>1562</ele>
        <time>2015-07-02T04:11:26Z</time>
      </trkpt>
      <trkpt lat="42.46628" lon="8.90928">
        <ele>1563.2</ele>
        <time>2015-07-02T04:11:34Z</time>
      </trkpt>
      <trkpt lat="42.46632" lon="8.90934">
        <ele>1564</ele>
        <time>2015-07-02T04:11:52Z</time>
      </trkpt>
      <trkpt lat="42.46634" lon="8.90939">
        <ele>1565</ele>
        <time>2015-07-02T04:11:59Z</time>
      </trkpt>
      <trkpt lat="42.46636" lon="8.90941">
        <ele>1566</ele>
        <time>2015-07-02T04:12:06Z</time>
      </trkpt>
      <trkpt lat="42.46642" lon="8.90943">
        <ele>1567</ele>
        <time>2015-07-02T04:12:17Z</time>
      </trkpt>
      <trkpt lat="42.46641" lon="8.90945">
        <ele>1568</ele>
        <time>2015-07-02T04:12:24Z</time>
      </trkpt>
      <trkpt lat="42.4664" lon="8.90947">
        <ele>1569.2</ele>
        <time>2015-07-02T04:12:33Z</time>
      </trkpt>
      <trkpt lat="42.46642" lon="8.90949">
        <ele>1569.8</ele>
        <time>2015-07-02T04:12:40Z</time>
      </trkpt>
      <trkpt lat="42.46642" lon="8.90951">
        <ele>1571.4</ele>
        <time>2015-07-02T04:12:50Z</time>
      </trkpt>
      <trkpt lat="42.46638" lon="8.90954">
        <ele>1572</ele>
        <time>2015-07-02T04:12:59Z</time>
      </trkpt>
      <trkpt lat="42.46638" lon="8.90957">
        <ele>1572.8</ele>
        <time>2015-07-02T04:13:05Z</time>
      </trkpt>
      <trkpt lat="42.46638" lon="8.90957">
        <ele>1574</ele>
        <time>2015-07-02T04:13:11Z</time>
      </trkpt>
      <trkpt lat="42.46642" lon="8.90959">
        <ele>1575.6</ele>
        <time>2015-07-02T04:13:20Z</time>
      </trkpt>
      <trkpt lat="42.46653" lon="8.90961">
        <ele>1576</ele>
        <time>2015-07-02T04:13:42Z</time>
      </trkpt>
      <trkpt lat="42.46659" lon="8.90961">
        <ele>1574.8</ele>
        <time>2015-07-02T04:13:49Z</time>
      </trkpt>
      <trkpt lat="42.46663" lon="8.90959">
        <ele>1574.2</ele>
        <time>2015-07-02T04:13:54Z</time>
      </trkpt>
      <trkpt lat="42.46668" lon="8.90955">
        <ele>1572.8</ele>
        <time>2015-07-02T04:14:02Z</time>
      </trkpt>
      <trkpt lat="42.4667" lon="8.90954">
        <ele>1571.8</ele>
        <time>2015-07-02T04:14:07Z</time>
      </trkpt>
      <trkpt lat="42.46671" lon="8.9095">
        <ele>1570.2</ele>
        <time>2015-07-02T04:14:14Z</time>
      </trkpt>
      <trkpt lat="42.46674" lon="8.90948">
        <ele>1569.2</ele>
        <time>2015-07-02T04:14:21Z</time>
      </trkpt>
      <trkpt lat="42.46677" lon="8.90945">
        <ele>1568</ele>
        <time>2015-07-02T04:14:26Z</time>
      </trkpt>
      <trkpt lat="42.46676" lon="8.90943">
        <ele>1567.4</ele>
        <time>2015-07-02T04:14:30Z</time>
      </trkpt>
      <trkpt lat="42.46673" lon="8.9094">
        <ele>1566</ele>
        <time>2015-07-02T04:14:35Z</time>
      </trkpt>
      <trkpt lat="42.46674" lon="8.90937">
        <ele>1564.6</ele>
        <time>2015-07-02T04:14:41Z</time>
      </trkpt>
      <trkpt lat="42.46676" lon="8.90934">
        <ele>1563.4</ele>
        <time>2015-07-02T04:14:47Z</time>
      </trkpt>
      <trkpt lat="42.46674" lon="8.90931">
        <ele>1562.6</ele>
        <time>2015-07-02T04:14:52Z</time>
      </trkpt>
      <trkpt lat="42.46673" lon="8.9093">
        <ele>1562</ele>
        <time>2015-07-02T04:14:54Z</time>
      </trkpt>
      <trkpt lat="42.46673" lon="8.90928">
        <ele>1561.2</ele>
        <time>2015-07-02T04:14:57Z</time>
      </trkpt>
      <trkpt lat="42.46676" lon="8.90928">
        <ele>1559.8</ele>
        <time>2015-07-02T04:15:03Z</time>
      </trkpt>
      <trkpt lat="42.46683" lon="8.90926">
        <ele>1558.4</ele>
        <time>2015-07-02T04:15:14Z</time>
      </trkpt>
      <trkpt lat="42.46686" lon="8.9092">
        <ele>1557.8</ele>
        <time>2015-07-02T04:15:19Z</time>
      </trkpt>
      <trkpt lat="42.4669" lon="8.90916">
        <ele>1556.6</ele>
        <time>2015-07-02T04:15:25Z</time>
      </trkpt>
      <trkpt lat="42.46692" lon="8.90918">
        <ele>1555.8</ele>
        <time>2015-07-02T04:15:28Z</time>
      </trkpt>
      <trkpt lat="42.46705" lon="8.90934">
        <ele>1555</ele>
        <time>2015-07-02T04:15:52Z</time>
      </trkpt>
      <trkpt lat="42.46737" lon="8.90915">
        <ele>1554.6</ele>
        <time>2015-07-02T04:16:34Z</time>
      </trkpt>
      <trkpt lat="42.46741" lon="8.90902">
        <ele>1555</ele>
        <time>2015-07-02T04:16:46Z</time>
      </trkpt>
      <trkpt lat="42.46746" lon="8.90883">
        <ele>1554.8</ele>
        <time>2015-07-02T04:17:06Z</time>
      </trkpt>
      <trkpt lat="42.46747" lon="8.90876">
        <ele>1554</ele>
        <time>2015-07-02T04:17:12Z</time>
      </trkpt>
      <trkpt lat="42.46749" lon="8.90872">
        <ele>1553.2</ele>
        <time>2015-07-02T04:17:17Z</time>
      </trkpt>
      <trkpt lat="42.4675" lon="8.90866">
        <ele>1552.6</ele>
        <time>2015-07-02T04:17:21Z</time>
      </trkpt>
      <trkpt lat="42.46751" lon="8.90859">
        <ele>1551.8</ele>
        <time>2015-07-02T04:17:27Z</time>
      </trkpt>
      <trkpt lat="42.46755" lon="8.90849">
        <ele>1550.4</ele>
        <time>2015-07-02T04:17:37Z</time>
      </trkpt>
      <trkpt lat="42.46758" lon="8.90845">
        <ele>1549.2</ele>
        <time>2015-07-02T04:17:44Z</time>
      </trkpt>
      <trkpt lat="42.46762" lon="8.90837">
        <ele>1548</ele>
        <time>2015-07-02T04:17:55Z</time>
      </trkpt>
      <trkpt lat="42.46763" lon="8.90828">
        <ele>1547.2</ele>
        <time>2015-07-02T04:18:03Z</time>
      </trkpt>
      <trkpt lat="42.46766" lon="8.90821">
        <ele>1546.2</ele>
        <time>2015-07-02T04:18:13Z</time>
      </trkpt>
      <trkpt lat="42.46768" lon="8.90815">
        <ele>1545.4</ele>
        <time>2015-07-02T04:18:18Z</time>
      </trkpt>
      <trkpt lat="42.46777" lon="8.90804">
        <ele>1543.4</ele>
        <time>2015-07-02T04:18:39Z</time>
      </trkpt>
      <trkpt lat="42.46778" lon="8.908">
        <ele>1542.8</ele>
        <time>2015-07-02T04:18:46Z</time>
      </trkpt>
      <trkpt lat="42.4678" lon="8.90795">
        <ele>1541.6</ele>
        <time>2015-07-02T04:18:54Z</time>
      </trkpt>
      <trkpt lat="42.46781" lon="8.9079">
        <ele>1541</ele>
        <time>2015-07-02T04:18:59Z</time>
      </trkpt>
      <trkpt lat="42.46784" lon="8.90786">
        <ele>1539.8</ele>
        <time>2015-07-02T04:19:04Z</time>
      </trkpt>
      <trkpt lat="42.46788" lon="8.90778">
        <ele>1538.2</ele>
        <time>2015-07-02T04:19:11Z</time>
      </trkpt>
      <trkpt lat="42.46792" lon="8.9077">
        <ele>1536.8</ele>
        <time>2015-07-02T04:19:19Z</time>
      </trkpt>
      <trkpt lat="42.46802" lon="8.90755">
        <ele>1535.8</ele>
        <time>2015-07-02T04:19:42Z</time>
      </trkpt>
      <trkpt lat="42.46806" lon="8.90752">
        <ele>1535</ele>
        <time>2015-07-02T04:19:49Z</time>
      </trkpt>
      <trkpt lat="42.46807" lon="8.90749">
        <ele>1533.8</ele>
        <time>2015-07-02T04:19:56Z</time>
      </trkpt>
      <trkpt lat="42.46809" lon="8.90745">
        <ele>1532.6</ele>
        <time>2015-07-02T04:20:04Z</time>
      </trkpt>
      <trkpt lat="42.46809" lon="8.90741">
        <ele>1531.8</ele>
        <time>2015-07-02T04:20:10Z</time>
      </trkpt>
      <trkpt lat="42.4681" lon="8.90735">
        <ele>1530.6</ele>
        <time>2015-07-02T04:20:20Z</time>
      </trkpt>
      <trkpt lat="42.4681" lon="8.90732">
        <ele>1529.8</ele>
        <time>2015-07-02T04:20:25Z</time>
      </trkpt>
      <trkpt lat="42.46809" lon="8.90729">
        <ele>1528.8</ele>
        <time>2015-07-02T04:20:30Z</time>
      </trkpt>
      <trkpt lat="42.46811" lon="8.90724">
        <ele>1527.2</ele>
        <time>2015-07-02T04:20:37Z</time>
      </trkpt>
      <trkpt lat="42.46815" lon="8.9072">
        <ele>1525.8</ele>
        <time>2015-07-02T04:20:47Z</time>
      </trkpt>
      <trkpt lat="42.46817" lon="8.90718">
        <ele>1524.6</ele>
        <time>2015-07-02T04:20:57Z</time>
      </trkpt>
      <trkpt lat="42.46814" lon="8.90717">
        <ele>1524</ele>
        <time>2015-07-02T04:21:05Z</time>
      </trkpt>
      <trkpt lat="42.46815" lon="8.90713">
        <ele>1522.8</ele>
        <time>2015-07-02T04:21:12Z</time>
      </trkpt>
      <trkpt lat="42.46818" lon="8.90708">
        <ele>1522.2</ele>
        <time>2015-07-02T04:21:17Z</time>
      </trkpt>
      <trkpt lat="42.46823" lon="8.90701">
        <ele>1520.6</ele>
        <time>2015-07-02T04:21:25Z</time>
      </trkpt>
      <trkpt lat="42.46823" lon="8.907">
        <ele>1520.4</ele>
        <time>2015-07-02T04:21:26Z</time>
      </trkpt>
      <trkpt lat="42.46826" lon="8.90696">
        <ele>1520</ele>
        <time>2015-07-02T04:21:29Z</time>
      </trkpt>
      <trkpt lat="42.46828" lon="8.90695">
        <ele>1519.8</ele>
        <time>2015-07-02T04:21:32Z</time>
      </trkpt>
      <trkpt lat="42.46833" lon="8.90696">
        <ele>1519</ele>
        <time>2015-07-02T04:21:36Z</time>
      </trkpt>
      <trkpt lat="42.46837" lon="8.90699">
        <ele>1518.8</ele>
        <time>2015-07-02T04:21:41Z</time>
      </trkpt>
      <trkpt lat="42.4684" lon="8.90706">
        <ele>1519.4</ele>
        <time>2015-07-02T04:22:01Z</time>
      </trkpt>
      <trkpt lat="42.46843" lon="8.90705">
        <ele>1519.8</ele>
        <time>2015-07-02T04:23:15Z</time>
      </trkpt>
      <trkpt lat="42.46841" lon="8.90703">
        <ele>1519.8</ele>
        <time>2015-07-02T04:23:18Z</time>
      </trkpt>
      <trkpt lat="42.46841" lon="8.90702">
        <ele>1519.8</ele>
        <time>2015-07-02T04:23:25Z</time>
      </trkpt>
      <trkpt lat="42.46848" lon="8.90703">
        <ele>1518.2</ele>
        <time>2015-07-02T04:24:35Z</time>
      </trkpt>
      <trkpt lat="42.46854" lon="8.90705">
        <ele>1517.4</ele>
        <time>2015-07-02T04:24:43Z</time>
      </trkpt>
      <trkpt lat="42.46857" lon="8.90707">
        <ele>1516.8</ele>
        <time>2015-07-02T04:24:47Z</time>
      </trkpt>
      <trkpt lat="42.46861" lon="8.90708">
        <ele>1515.2</ele>
        <time>2015-07-02T04:24:54Z</time>
      </trkpt>
      <trkpt lat="42.46862" lon="8.90712">
        <ele>1514.8</ele>
        <time>2015-07-02T04:24:57Z</time>
      </trkpt>
      <trkpt lat="42.46865" lon="8.90718">
        <ele>1513.8</ele>
        <time>2015-07-02T04:25:03Z</time>
      </trkpt>
      <trkpt lat="42.46866" lon="8.90719">
        <ele>1513.8</ele>
        <time>2015-07-02T04:25:05Z</time>
      </trkpt>
      <trkpt lat="42.46888" lon="8.90712">
        <ele>1513.4</ele>
        <time>2015-07-02T04:25:39Z</time>
      </trkpt>
      <trkpt lat="42.4689" lon="8.90712">
        <ele>1513.8</ele>
        <time>2015-07-02T04:25:42Z</time>
      </trkpt>
      <trkpt lat="42.46891" lon="8.9071">
        <ele>1514.4</ele>
        <time>2015-07-02T04:25:46Z</time>
      </trkpt>
      <trkpt lat="42.46895" lon="8.90708">
        <ele>1515.2</ele>
        <time>2015-07-02T04:25:51Z</time>
      </trkpt>
      <trkpt lat="42.46899" lon="8.90705">
        <ele>1516.6</ele>
        <time>2015-07-02T04:25:58Z</time>
      </trkpt>
      <trkpt lat="42.46902" lon="8.907">
        <ele>1517.6</ele>
        <time>2015-07-02T04:26:04Z</time>
      </trkpt>
      <trkpt lat="42.46936" lon="8.90664">
        <ele>1517.6</ele>
        <time>2015-07-02T04:26:50Z</time>
      </trkpt>
      <trkpt lat="42.46937" lon="8.90653">
        <ele>1517.6</ele>
        <time>2015-07-02T04:27:00Z</time>
      </trkpt>
      <trkpt lat="42.46936" lon="8.90651">
        <ele>1517.8</ele>
        <time>2015-07-02T04:27:02Z</time>
      </trkpt>
      <trkpt lat="42.46937" lon="8.90645">
        <ele>1517.6</ele>
        <time>2015-07-02T04:27:07Z</time>
      </trkpt>
      <trkpt lat="42.46936" lon="8.90642">
        <ele>1517.8</ele>
        <time>2015-07-02T04:27:09Z</time>
      </trkpt>
      <trkpt lat="42.46935" lon="8.90635">
        <ele>1517.6</ele>
        <time>2015-07-02T04:27:13Z</time>
      </trkpt>
      <trkpt lat="42.46937" lon="8.90628">
        <ele>1518</ele>
        <time>2015-07-02T04:27:24Z</time>
      </trkpt>
      <trkpt lat="42.46938" lon="8.90623">
        <ele>1518.4</ele>
        <time>2015-07-02T04:27:29Z</time>
      </trkpt>
      <trkpt lat="42.46941" lon="8.90604">
        <ele>1518.2</ele>
        <time>2015-07-02T04:27:45Z</time>
      </trkpt>
      <trkpt lat="42.46942" lon="8.90602">
        <ele>1518</ele>
        <time>2015-07-02T04:27:47Z</time>
      </trkpt>
      <trkpt lat="42.46942" lon="8.90594">
        <ele>1517.6</ele>
        <time>2015-07-02T04:27:53Z</time>
      </trkpt>
      <trkpt lat="42.46941" lon="8.90572">
        <ele>1517.2</ele>
        <time>2015-07-02T04:28:16Z</time>
      </trkpt>
      <trkpt lat="42.4694" lon="8.90559">
        <ele>1517</ele>
        <time>2015-07-02T04:28:32Z</time>
      </trkpt>
      <trkpt lat="42.4694" lon="8.90554">
        <ele>1516.8</ele>
        <time>2015-07-02T04:28:36Z</time>
      </trkpt>
      <trkpt lat="42.4694" lon="8.90542">
        <ele>1516.2</ele>
        <time>2015-07-02T04:28:52Z</time>
      </trkpt>
      <trkpt lat="42.46941" lon="8.90523">
        <ele>1515</ele>
        <time>2015-07-02T04:29:05Z</time>
      </trkpt>
      <trkpt lat="42.46941" lon="8.90519">
        <ele>1514.6</ele>
        <time>2015-07-02T04:29:08Z</time>
      </trkpt>
      <trkpt lat="42.4694" lon="8.90509">
        <ele>1514</ele>
        <time>2015-07-02T04:29:15Z</time>
      </trkpt>
      <trkpt lat="42.46943" lon="8.90487">
        <ele>1512.8</ele>
        <time>2015-07-02T04:29:31Z</time>
      </trkpt>
      <trkpt lat="42.46944" lon="8.9048">
        <ele>1512.6</ele>
        <time>2015-07-02T04:29:35Z</time>
      </trkpt>
      <trkpt lat="42.46945" lon="8.90478">
        <ele>1512.4</ele>
        <time>2015-07-02T04:29:37Z</time>
      </trkpt>
      <trkpt lat="42.46947" lon="8.90476">
        <ele>1512</ele>
        <time>2015-07-02T04:29:40Z</time>
      </trkpt>
      <trkpt lat="42.46948" lon="8.90467">
        <ele>1512</ele>
        <time>2015-07-02T04:29:47Z</time>
      </trkpt>
      <trkpt lat="42.46952" lon="8.90458">
        <ele>1512.4</ele>
        <time>2015-07-02T04:29:55Z</time>
      </trkpt>
      <trkpt lat="42.46957" lon="8.90453">
        <ele>1512.8</ele>
        <time>2015-07-02T04:30:04Z</time>
      </trkpt>
      <trkpt lat="42.4696" lon="8.90434">
        <ele>1513.4</ele>
        <time>2015-07-02T04:30:19Z</time>
      </trkpt>
      <trkpt lat="42.4698" lon="8.90398">
        <ele>1514.2</ele>
        <time>2015-07-02T04:31:10Z</time>
      </trkpt>
      <trkpt lat="42.46982" lon="8.90397">
        <ele>1514.2</ele>
        <time>2015-07-02T04:31:13Z</time>
      </trkpt>
      <trkpt lat="42.47002" lon="8.90382">
        <ele>1514.2</ele>
        <time>2015-07-02T04:31:56Z</time>
      </trkpt>
      <trkpt lat="42.47004" lon="8.90377">
        <ele>1514.8</ele>
        <time>2015-07-02T04:32:04Z</time>
      </trkpt>
      <trkpt lat="42.47008" lon="8.90372">
        <ele>1515.6</ele>
        <time>2015-07-02T04:32:10Z</time>
      </trkpt>
      <trkpt lat="42.47012" lon="8.90359">
        <ele>1516</ele>
        <time>2015-07-02T04:32:21Z</time>
      </trkpt>
      <trkpt lat="42.47014" lon="8.90357">
        <ele>1516</ele>
        <time>2015-07-02T04:32:23Z</time>
      </trkpt>
      <trkpt lat="42.47015" lon="8.90356">
        <ele>1516</ele>
        <time>2015-07-02T04:32:25Z</time>
      </trkpt>
      <trkpt lat="42.4702" lon="8.90348">
        <ele>1516.4</ele>
        <time>2015-07-02T04:32:36Z</time>
      </trkpt>
      <trkpt lat="42.47023" lon="8.90345">
        <ele>1516.8</ele>
        <time>2015-07-02T04:32:42Z</time>
      </trkpt>
      <trkpt lat="42.47027" lon="8.90339">
        <ele>1518.4</ele>
        <time>2015-07-02T04:32:51Z</time>
      </trkpt>
      <trkpt lat="42.47029" lon="8.90324">
        <ele>1519.6</ele>
        <time>2015-07-02T04:33:06Z</time>
      </trkpt>
      <trkpt lat="42.47031" lon="8.90316">
        <ele>1519.8</ele>
        <time>2015-07-02T04:33:15Z</time>
      </trkpt>
      <trkpt lat="42.47036" lon="8.90307">
        <ele>1520.6</ele>
        <time>2015-07-02T04:33:26Z</time>
      </trkpt>
      <trkpt lat="42.47043" lon="8.90299">
        <ele>1521.8</ele>
        <time>2015-07-02T04:33:40Z</time>
      </trkpt>
      <trkpt lat="42.47046" lon="8.90299">
        <ele>1522.4</ele>
        <time>2015-07-02T04:33:46Z</time>
      </trkpt>
      <trkpt lat="42.47048" lon="8.90301">
        <ele>1523.8</ele>
        <time>2015-07-02T04:33:55Z</time>
      </trkpt>
      <trkpt lat="42.47051" lon="8.903">
        <ele>1524.6</ele>
        <time>2015-07-02T04:34:02Z</time>
      </trkpt>
      <trkpt lat="42.47051" lon="8.90296">
        <ele>1525.8</ele>
        <time>2015-07-02T04:34:10Z</time>
      </trkpt>
      <trkpt lat="42.47058" lon="8.90287">
        <ele>1526.4</ele>
        <time>2015-07-02T04:34:29Z</time>
      </trkpt>
      <trkpt lat="42.4706" lon="8.90284">
        <ele>1525.6</ele>
        <time>2015-07-02T04:34:34Z</time>
      </trkpt>
      <trkpt lat="42.47064" lon="8.90279">
        <ele>1524</ele>
        <time>2015-07-02T04:34:41Z</time>
      </trkpt>
      <trkpt lat="42.47067" lon="8.90277">
        <ele>1523.4</ele>
        <time>2015-07-02T04:34:45Z</time>
      </trkpt>
      <trkpt lat="42.47078" lon="8.9027">
        <ele>1521.2</ele>
        <time>2015-07-02T04:35:03Z</time>
      </trkpt>
      <trkpt lat="42.47099" lon="8.90253">
        <ele>1519.8</ele>
        <time>2015-07-02T04:35:29Z</time>
      </trkpt>
      <trkpt lat="42.47101" lon="8.9025">
        <ele>1519.8</ele>
        <time>2015-07-02T04:35:32Z</time>
      </trkpt>
      <trkpt lat="42.4712" lon="8.90233">
        <ele>1518.8</ele>
        <time>2015-07-02T04:35:57Z</time>
      </trkpt>
      <trkpt lat="42.47123" lon="8.90227">
        <ele>1518.2</ele>
        <time>2015-07-02T04:36:05Z</time>
      </trkpt>
      <trkpt lat="42.47127" lon="8.90228">
        <ele>1517.4</ele>
        <time>2015-07-02T04:36:20Z</time>
      </trkpt>
      <trkpt lat="42.47132" lon="8.90222">
        <ele>1519.2</ele>
        <time>2015-07-02T04:36:29Z</time>
      </trkpt>
      <trkpt lat="42.47135" lon="8.90218">
        <ele>1519.2</ele>
        <time>2015-07-02T04:36:34Z</time>
      </trkpt>
      <trkpt lat="42.47142" lon="8.90203">
        <ele>1519</ele>
        <time>2015-07-02T04:36:47Z</time>
      </trkpt>
      <trkpt lat="42.47146" lon="8.90199">
        <ele>1518.8</ele>
        <time>2015-07-02T04:36:52Z</time>
      </trkpt>
      <trkpt lat="42.47157" lon="8.90164">
        <ele>1519</ele>
        <time>2015-07-02T04:37:20Z</time>
      </trkpt>
      <trkpt lat="42.47161" lon="8.90146">
        <ele>1520</ele>
        <time>2015-07-02T04:37:34Z</time>
      </trkpt>
      <trkpt lat="42.47165" lon="8.90136">
        <ele>1520.4</ele>
        <time>2015-07-02T04:37:42Z</time>
      </trkpt>
      <trkpt lat="42.47167" lon="8.9013">
        <ele>1521</ele>
        <time>2015-07-02T04:37:48Z</time>
      </trkpt>
      <trkpt lat="42.47175" lon="8.90114">
        <ele>1522.2</ele>
        <time>2015-07-02T04:38:04Z</time>
      </trkpt>
      <trkpt lat="42.47174" lon="8.90108">
        <ele>1522.4</ele>
        <time>2015-07-02T04:38:11Z</time>
      </trkpt>
      <trkpt lat="42.47175" lon="8.90097">
        <ele>1523.6</ele>
        <time>2015-07-02T04:38:19Z</time>
      </trkpt>
      <trkpt lat="42.47175" lon="8.90089">
        <ele>1524.6</ele>
        <time>2015-07-02T04:38:25Z</time>
      </trkpt>
      <trkpt lat="42.47176" lon="8.90083">
        <ele>1525.8</ele>
        <time>2015-07-02T04:38:32Z</time>
      </trkpt>
      <trkpt lat="42.47178" lon="8.90072">
        <ele>1527</ele>
        <time>2015-07-02T04:38:41Z</time>
      </trkpt>
      <trkpt lat="42.47182" lon="8.90059">
        <ele>1527.8</ele>
        <time>2015-07-02T04:38:54Z</time>
      </trkpt>
      <trkpt lat="42.47184" lon="8.90053">
        <ele>1528.6</ele>
        <time>2015-07-02T04:38:59Z</time>
      </trkpt>
      <trkpt lat="42.47185" lon="8.90046">
        <ele>1529.8</ele>
        <time>2015-07-02T04:39:06Z</time>
      </trkpt>
      <trkpt lat="42.47186" lon="8.90038">
        <ele>1531</ele>
        <time>2015-07-02T04:39:12Z</time>
      </trkpt>
      <trkpt lat="42.47187" lon="8.90031">
        <ele>1532</ele>
        <time>2015-07-02T04:39:18Z</time>
      </trkpt>
      <trkpt lat="42.47188" lon="8.90022">
        <ele>1533.4</ele>
        <time>2015-07-02T04:39:25Z</time>
      </trkpt>
      <trkpt lat="42.47188" lon="8.90015">
        <ele>1534.6</ele>
        <time>2015-07-02T04:39:33Z</time>
      </trkpt>
      <trkpt lat="42.47188" lon="8.89996">
        <ele>1536</ele>
        <time>2015-07-02T04:39:46Z</time>
      </trkpt>
      <trkpt lat="42.47184" lon="8.89982">
        <ele>1536.8</ele>
        <time>2015-07-02T04:39:56Z</time>
      </trkpt>
      <trkpt lat="42.47181" lon="8.89974">
        <ele>1537.8</ele>
        <time>2015-07-02T04:40:04Z</time>
      </trkpt>
      <trkpt lat="42.47173" lon="8.89938">
        <ele>1539.4</ele>
        <time>2015-07-02T04:40:34Z</time>
      </trkpt>
      <trkpt lat="42.47173" lon="8.89932">
        <ele>1539.8</ele>
        <time>2015-07-02T04:40:41Z</time>
      </trkpt>
      <trkpt lat="42.47174" lon="8.89928">
        <ele>1541.6</ele>
        <time>2015-07-02T04:40:52Z</time>
      </trkpt>
      <trkpt lat="42.47174" lon="8.89926">
        <ele>1541.6</ele>
        <time>2015-07-02T04:40:57Z</time>
      </trkpt>
      <trkpt lat="42.47171" lon="8.8992">
        <ele>1543.6</ele>
        <time>2015-07-02T04:41:06Z</time>
      </trkpt>
      <trkpt lat="42.4717" lon="8.89915">
        <ele>1544.4</ele>
        <time>2015-07-02T04:41:13Z</time>
      </trkpt>
      <trkpt lat="42.4717" lon="8.89912">
        <ele>1545.4</ele>
        <time>2015-07-02T04:41:21Z</time>
      </trkpt>
      <trkpt lat="42.47167" lon="8.89908">
        <ele>1546.6</ele>
        <time>2015-07-02T04:41:28Z</time>
      </trkpt>
      <trkpt lat="42.47163" lon="8.89901">
        <ele>1548</ele>
        <time>2015-07-02T04:41:39Z</time>
      </trkpt>
      <trkpt lat="42.47163" lon="8.89892">
        <ele>1549</ele>
        <time>2015-07-02T04:41:49Z</time>
      </trkpt>
      <trkpt lat="42.47159" lon="8.89884">
        <ele>1550</ele>
        <time>2015-07-02T04:41:58Z</time>
      </trkpt>
      <trkpt lat="42.47156" lon="8.89879">
        <ele>1550.8</ele>
        <time>2015-07-02T04:42:05Z</time>
      </trkpt>
      <trkpt lat="42.47154" lon="8.89871">
        <ele>1552.2</ele>
        <time>2015-07-02T04:42:14Z</time>
      </trkpt>
      <trkpt lat="42.47151" lon="8.89867">
        <ele>1553.2</ele>
        <time>2015-07-02T04:42:22Z</time>
      </trkpt>
      <trkpt lat="42.4715" lon="8.89861">
        <ele>1554.2</ele>
        <time>2015-07-02T04:42:30Z</time>
      </trkpt>
      <trkpt lat="42.47147" lon="8.89855">
        <ele>1555</ele>
        <time>2015-07-02T04:42:37Z</time>
      </trkpt>
      <trkpt lat="42.47146" lon="8.89851">
        <ele>1556.4</ele>
        <time>2015-07-02T04:42:44Z</time>
      </trkpt>
      <trkpt lat="42.47145" lon="8.89849">
        <ele>1557.4</ele>
        <time>2015-07-02T04:42:51Z</time>
      </trkpt>
      <trkpt lat="42.47143" lon="8.8984">
        <ele>1558.4</ele>
        <time>2015-07-02T04:43:00Z</time>
      </trkpt>
      <trkpt lat="42.47145" lon="8.89831">
        <ele>1559.6</ele>
        <time>2015-07-02T04:43:09Z</time>
      </trkpt>
      <trkpt lat="42.47145" lon="8.89826">
        <ele>1560.6</ele>
        <time>2015-07-02T04:43:16Z</time>
      </trkpt>
      <trkpt lat="42.47148" lon="8.89822">
        <ele>1561.8</ele>
        <time>2015-07-02T04:43:24Z</time>
      </trkpt>
      <trkpt lat="42.47148" lon="8.89816">
        <ele>1562.6</ele>
        <time>2015-07-02T04:43:31Z</time>
      </trkpt>
      <trkpt lat="42.47146" lon="8.89804">
        <ele>1564</ele>
        <time>2015-07-02T04:43:42Z</time>
      </trkpt>
      <trkpt lat="42.47147" lon="8.89793">
        <ele>1565.4</ele>
        <time>2015-07-02T04:43:56Z</time>
      </trkpt>
      <trkpt lat="42.47148" lon="8.89776">
        <ele>1566.2</ele>
        <time>2015-07-02T04:44:08Z</time>
      </trkpt>
      <trkpt lat="42.47141" lon="8.8974">
        <ele>1566.4</ele>
        <time>2015-07-02T04:44:36Z</time>
      </trkpt>
      <trkpt lat="42.47143" lon="8.89688">
        <ele>1565.8</ele>
        <time>2015-07-02T04:46:15Z</time>
      </trkpt>
      <trkpt lat="42.47144" lon="8.89677">
        <ele>1565.6</ele>
        <time>2015-07-02T04:46:23Z</time>
      </trkpt>
      <trkpt lat="42.47145" lon="8.89663">
        <ele>1565</ele>
        <time>2015-07-02T04:46:31Z</time>
      </trkpt>
      <trkpt lat="42.47151" lon="8.89631">
        <ele>1564.2</ele>
        <time>2015-07-02T04:46:53Z</time>
      </trkpt>
      <trkpt lat="42.47152" lon="8.89629">
        <ele>1564</ele>
        <time>2015-07-02T04:46:55Z</time>
      </trkpt>
      <trkpt lat="42.47166" lon="8.89582">
        <ele>1563</ele>
        <time>2015-07-02T04:47:52Z</time>
      </trkpt>
      <trkpt lat="42.47169" lon="8.8957">
        <ele>1562.6</ele>
        <time>2015-07-02T04:48:01Z</time>
      </trkpt>
      <trkpt lat="42.47169" lon="8.89569">
        <ele>1562.4</ele>
        <time>2015-07-02T04:48:02Z</time>
      </trkpt>
      <trkpt lat="42.4717" lon="8.89567">
        <ele>1562.2</ele>
        <time>2015-07-02T04:48:03Z</time>
      </trkpt>
      <trkpt lat="42.47179" lon="8.89537">
        <ele>1560.6</ele>
        <time>2015-07-02T04:48:23Z</time>
      </trkpt>
      <trkpt lat="42.47182" lon="8.8953">
        <ele>1560.6</ele>
        <time>2015-07-02T04:48:29Z</time>
      </trkpt>
      <trkpt lat="42.47184" lon="8.89522">
        <ele>1560.4</ele>
        <time>2015-07-02T04:48:36Z</time>
      </trkpt>
      <trkpt lat="42.47185" lon="8.8952">
        <ele>1560.2</ele>
        <time>2015-07-02T04:48:38Z</time>
      </trkpt>
      <trkpt lat="42.47185" lon="8.89516">
        <ele>1560</ele>
        <time>2015-07-02T04:48:41Z</time>
      </trkpt>
      <trkpt lat="42.47185" lon="8.89514">
        <ele>1559.4</ele>
        <time>2015-07-02T04:48:44Z</time>
      </trkpt>
      <trkpt lat="42.47186" lon="8.89511">
        <ele>1558.2</ele>
        <time>2015-07-02T04:48:54Z</time>
      </trkpt>
      <trkpt lat="42.47185" lon="8.89506">
        <ele>1557.4</ele>
        <time>2015-07-02T04:49:00Z</time>
      </trkpt>
      <trkpt lat="42.47185" lon="8.89502">
        <ele>1556.2</ele>
        <time>2015-07-02T04:49:06Z</time>
      </trkpt>
      <trkpt lat="42.47186" lon="8.89494">
        <ele>1555</ele>
        <time>2015-07-02T04:49:14Z</time>
      </trkpt>
      <trkpt lat="42.47187" lon="8.89489">
        <ele>1554</ele>
        <time>2015-07-02T04:49:21Z</time>
      </trkpt>
      <trkpt lat="42.47189" lon="8.89484">
        <ele>1553</ele>
        <time>2015-07-02T04:49:26Z</time>
      </trkpt>
      <trkpt lat="42.47189" lon="8.89471">
        <ele>1551</ele>
        <time>2015-07-02T04:49:38Z</time>
      </trkpt>
      <trkpt lat="42.47189" lon="8.8946">
        <ele>1550.2</ele>
        <time>2015-07-02T04:49:49Z</time>
      </trkpt>
      <trkpt lat="42.47188" lon="8.8945">
        <ele>1549.4</ele>
        <time>2015-07-02T04:49:56Z</time>
      </trkpt>
      <trkpt lat="42.47189" lon="8.8944">
        <ele>1548.4</ele>
        <time>2015-07-02T04:50:03Z</time>
      </trkpt>
      <trkpt lat="42.4719" lon="8.89428">
        <ele>1547.2</ele>
        <time>2015-07-02T04:50:12Z</time>
      </trkpt>
      <trkpt lat="42.47192" lon="8.89426">
        <ele>1547</ele>
        <time>2015-07-02T04:50:15Z</time>
      </trkpt>
      <trkpt lat="42.47193" lon="8.89407">
        <ele>1546.2</ele>
        <time>2015-07-02T04:50:31Z</time>
      </trkpt>
      <trkpt lat="42.47198" lon="8.89389">
        <ele>1544.8</ele>
        <time>2015-07-02T04:50:46Z</time>
      </trkpt>
      <trkpt lat="42.47198" lon="8.89382">
        <ele>1545.6</ele>
        <time>2015-07-02T04:50:57Z</time>
      </trkpt>
      <trkpt lat="42.47196" lon="8.89379">
        <ele>1546</ele>
        <time>2015-07-02T04:51:06Z</time>
      </trkpt>
      <trkpt lat="42.47195" lon="8.89375">
        <ele>1545.6</ele>
        <time>2015-07-02T04:51:10Z</time>
      </trkpt>
      <trkpt lat="42.47195" lon="8.89369">
        <ele>1544.2</ele>
        <time>2015-07-02T04:51:15Z</time>
      </trkpt>
      <trkpt lat="42.47194" lon="8.89312">
        <ele>1543.4</ele>
        <time>2015-07-02T04:51:56Z</time>
      </trkpt>
      <trkpt lat="42.47192" lon="8.893">
        <ele>1544.4</ele>
        <time>2015-07-02T04:52:05Z</time>
      </trkpt>
      <trkpt lat="42.47191" lon="8.8929">
        <ele>1545.4</ele>
        <time>2015-07-02T04:52:14Z</time>
      </trkpt>
      <trkpt lat="42.47189" lon="8.89278">
        <ele>1546.6</ele>
        <time>2015-07-02T04:52:25Z</time>
      </trkpt>
      <trkpt lat="42.47186" lon="8.89265">
        <ele>1547.6</ele>
        <time>2015-07-02T04:52:38Z</time>
      </trkpt>
      <trkpt lat="42.47192" lon="8.89213">
        <ele>1547.8</ele>
        <time>2015-07-02T04:53:19Z</time>
      </trkpt>
      <trkpt lat="42.47192" lon="8.89196">
        <ele>1546.8</ele>
        <time>2015-07-02T04:53:29Z</time>
      </trkpt>
      <trkpt lat="42.47192" lon="8.89179">
        <ele>1546</ele>
        <time>2015-07-02T04:53:41Z</time>
      </trkpt>
      <trkpt lat="42.47191" lon="8.8917">
        <ele>1545.6</ele>
        <time>2015-07-02T04:53:46Z</time>
      </trkpt>
      <trkpt lat="42.47186" lon="8.89144">
        <ele>1544.6</ele>
        <time>2015-07-02T04:54:03Z</time>
      </trkpt>
      <trkpt lat="42.4718" lon="8.89127">
        <ele>1544.4</ele>
        <time>2015-07-02T04:54:15Z</time>
      </trkpt>
      <trkpt lat="42.47177" lon="8.89119">
        <ele>1544.6</ele>
        <time>2015-07-02T04:54:22Z</time>
      </trkpt>
      <trkpt lat="42.47175" lon="8.89096">
        <ele>1544.6</ele>
        <time>2015-07-02T04:54:38Z</time>
      </trkpt>
      <trkpt lat="42.47175" lon="8.89086">
        <ele>1544</ele>
        <time>2015-07-02T04:54:46Z</time>
      </trkpt>
      <trkpt lat="42.47176" lon="8.89074">
        <ele>1542.6</ele>
        <time>2015-07-02T04:54:55Z</time>
      </trkpt>
      <trkpt lat="42.47172" lon="8.89072">
        <ele>1542</ele>
        <time>2015-07-02T04:54:59Z</time>
      </trkpt>
      <trkpt lat="42.47172" lon="8.89066">
        <ele>1541.6</ele>
        <time>2015-07-02T04:55:03Z</time>
      </trkpt>
      <trkpt lat="42.47174" lon="8.89055">
        <ele>1540.6</ele>
        <time>2015-07-02T04:55:11Z</time>
      </trkpt>
      <trkpt lat="42.47174" lon="8.89053">
        <ele>1540.4</ele>
        <time>2015-07-02T04:55:13Z</time>
      </trkpt>
      <trkpt lat="42.47173" lon="8.89049">
        <ele>1540.2</ele>
        <time>2015-07-02T04:55:16Z</time>
      </trkpt>
      <trkpt lat="42.47172" lon="8.89042">
        <ele>1539.4</ele>
        <time>2015-07-02T04:55:22Z</time>
      </trkpt>
      <trkpt lat="42.47171" lon="8.89041">
        <ele>1539.2</ele>
        <time>2015-07-02T04:55:23Z</time>
      </trkpt>
      <trkpt lat="42.4717" lon="8.8903">
        <ele>1538.2</ele>
        <time>2015-07-02T04:55:30Z</time>
      </trkpt>
      <trkpt lat="42.47171" lon="8.89019">
        <ele>1537.4</ele>
        <time>2015-07-02T04:55:36Z</time>
      </trkpt>
      <trkpt lat="42.47174" lon="8.89016">
        <ele>1537</ele>
        <time>2015-07-02T04:55:39Z</time>
      </trkpt>
      <trkpt lat="42.47176" lon="8.8901">
        <ele>1536.8</ele>
        <time>2015-07-02T04:55:43Z</time>
      </trkpt>
      <trkpt lat="42.47179" lon="8.89004">
        <ele>1536.6</ele>
        <time>2015-07-02T04:55:48Z</time>
      </trkpt>
      <trkpt lat="42.4718" lon="8.89001">
        <ele>1536.4</ele>
        <time>2015-07-02T04:55:50Z</time>
      </trkpt>
      <trkpt lat="42.47183" lon="8.88995">
        <ele>1536</ele>
        <time>2015-07-02T04:55:56Z</time>
      </trkpt>
      <trkpt lat="42.47184" lon="8.88992">
        <ele>1535.6</ele>
        <time>2015-07-02T04:55:58Z</time>
      </trkpt>
      <trkpt lat="42.47188" lon="8.88988">
        <ele>1534.8</ele>
        <time>2015-07-02T04:56:04Z</time>
      </trkpt>
      <trkpt lat="42.47193" lon="8.88982">
        <ele>1533.2</ele>
        <time>2015-07-02T04:56:15Z</time>
      </trkpt>
      <trkpt lat="42.472" lon="8.88977">
        <ele>1532.2</ele>
        <time>2015-07-02T04:57:53Z</time>
      </trkpt>
      <trkpt lat="42.47204" lon="8.88976">
        <ele>1531.8</ele>
        <time>2015-07-02T04:57:56Z</time>
      </trkpt>
      <trkpt lat="42.47205" lon="8.88976">
        <ele>1531.4</ele>
        <time>2015-07-02T04:57:58Z</time>
      </trkpt>
      <trkpt lat="42.47205" lon="8.88976">
        <ele>1531.2</ele>
        <time>2015-07-02T04:57:59Z</time>
      </trkpt>
      <trkpt lat="42.47209" lon="8.88974">
        <ele>1530.2</ele>
        <time>2015-07-02T04:58:05Z</time>
      </trkpt>
      <trkpt lat="42.47211" lon="8.88971">
        <ele>1529.2</ele>
        <time>2015-07-02T04:58:10Z</time>
      </trkpt>
      <trkpt lat="42.47214" lon="8.88969">
        <ele>1528</ele>
        <time>2015-07-02T04:58:15Z</time>
      </trkpt>
      <trkpt lat="42.47218" lon="8.88965">
        <ele>1526.6</ele>
        <time>2015-07-02T04:58:21Z</time>
      </trkpt>
      <trkpt lat="42.47221" lon="8.88964">
        <ele>1526</ele>
        <time>2015-07-02T04:58:26Z</time>
      </trkpt>
      <trkpt lat="42.47225" lon="8.88962">
        <ele>1524.2</ele>
        <time>2015-07-02T04:58:34Z</time>
      </trkpt>
      <trkpt lat="42.47227" lon="8.8896">
        <ele>1523.4</ele>
        <time>2015-07-02T04:58:40Z</time>
      </trkpt>
      <trkpt lat="42.47231" lon="8.88957">
        <ele>1522.4</ele>
        <time>2015-07-02T04:58:46Z</time>
      </trkpt>
      <trkpt lat="42.47235" lon="8.88953">
        <ele>1521.2</ele>
        <time>2015-07-02T04:58:52Z</time>
      </trkpt>
      <trkpt lat="42.47238" lon="8.8895">
        <ele>1520.2</ele>
        <time>2015-07-02T04:58:57Z</time>
      </trkpt>
      <trkpt lat="42.4724" lon="8.88947">
        <ele>1519.8</ele>
        <time>2015-07-02T04:59:00Z</time>
      </trkpt>
      <trkpt lat="42.47239" lon="8.88944">
        <ele>1519.4</ele>
        <time>2015-07-02T04:59:02Z</time>
      </trkpt>
      <trkpt lat="42.47239" lon="8.88943">
        <ele>1519.2</ele>
        <time>2015-07-02T04:59:03Z</time>
      </trkpt>
      <trkpt lat="42.47235" lon="8.88939">
        <ele>1518.2</ele>
        <time>2015-07-02T04:59:08Z</time>
      </trkpt>
      <trkpt lat="42.47234" lon="8.88936">
        <ele>1517</ele>
        <time>2015-07-02T04:59:13Z</time>
      </trkpt>
      <trkpt lat="42.47231" lon="8.88932">
        <ele>1515.6</ele>
        <time>2015-07-02T04:59:19Z</time>
      </trkpt>
      <trkpt lat="42.47228" lon="8.88926">
        <ele>1514.4</ele>
        <time>2015-07-02T04:59:25Z</time>
      </trkpt>
      <trkpt lat="42.47226" lon="8.88921">
        <ele>1513.4</ele>
        <time>2015-07-02T04:59:30Z</time>
      </trkpt>
      <trkpt lat="42.47225" lon="8.88919">
        <ele>1512.8</ele>
        <time>2015-07-02T04:59:33Z</time>
      </trkpt>
      <trkpt lat="42.47226" lon="8.88917">
        <ele>1512.4</ele>
        <time>2015-07-02T04:59:36Z</time>
      </trkpt>
      <trkpt lat="42.47231" lon="8.88914">
        <ele>1511</ele>
        <time>2015-07-02T04:59:43Z</time>
      </trkpt>
      <trkpt lat="42.47236" lon="8.88911">
        <ele>1509.8</ele>
        <time>2015-07-02T04:59:49Z</time>
      </trkpt>
      <trkpt lat="42.4724" lon="8.88908">
        <ele>1508.8</ele>
        <time>2015-07-02T04:59:55Z</time>
      </trkpt>
      <trkpt lat="42.4724" lon="8.88903">
        <ele>1508</ele>
        <time>2015-07-02T05:00:00Z</time>
      </trkpt>
      <trkpt lat="42.47242" lon="8.88896">
        <ele>1506</ele>
        <time>2015-07-02T05:00:13Z</time>
      </trkpt>
      <trkpt lat="42.47243" lon="8.8889">
        <ele>1505.6</ele>
        <time>2015-07-02T05:00:18Z</time>
      </trkpt>
      <trkpt lat="42.47246" lon="8.88887">
        <ele>1504.4</ele>
        <time>2015-07-02T05:00:24Z</time>
      </trkpt>
      <trkpt lat="42.47249" lon="8.88884">
        <ele>1503.6</ele>
        <time>2015-07-02T05:00:28Z</time>
      </trkpt>
      <trkpt lat="42.47252" lon="8.88884">
        <ele>1503</ele>
        <time>2015-07-02T05:00:31Z</time>
      </trkpt>
      <trkpt lat="42.47258" lon="8.88883">
        <ele>1502</ele>
        <time>2015-07-02T05:00:39Z</time>
      </trkpt>
      <trkpt lat="42.47268" lon="8.8888">
        <ele>1500.2</ele>
        <time>2015-07-02T05:00:52Z</time>
      </trkpt>
      <trkpt lat="42.47272" lon="8.88875">
        <ele>1499.8</ele>
        <time>2015-07-02T05:01:01Z</time>
      </trkpt>
      <trkpt lat="42.47274" lon="8.8887">
        <ele>1499</ele>
        <time>2015-07-02T05:01:06Z</time>
      </trkpt>
      <trkpt lat="42.47276" lon="8.88864">
        <ele>1497.4</ele>
        <time>2015-07-02T05:02:18Z</time>
      </trkpt>
      <trkpt lat="42.47277" lon="8.88858">
        <ele>1496.6</ele>
        <time>2015-07-02T05:02:24Z</time>
      </trkpt>
      <trkpt lat="42.4728" lon="8.88853">
        <ele>1495.6</ele>
        <time>2015-07-02T05:02:29Z</time>
      </trkpt>
      <trkpt lat="42.47284" lon="8.88846">
        <ele>1494.2</ele>
        <time>2015-07-02T05:02:35Z</time>
      </trkpt>
      <trkpt lat="42.47286" lon="8.88846">
        <ele>1493.8</ele>
        <time>2015-07-02T05:02:37Z</time>
      </trkpt>
      <trkpt lat="42.47287" lon="8.88843">
        <ele>1493.2</ele>
        <time>2015-07-02T05:02:40Z</time>
      </trkpt>
      <trkpt lat="42.47288" lon="8.88842">
        <ele>1493</ele>
        <time>2015-07-02T05:02:41Z</time>
      </trkpt>
      <trkpt lat="42.47291" lon="8.88841">
        <ele>1492.4</ele>
        <time>2015-07-02T05:02:44Z</time>
      </trkpt>
      <trkpt lat="42.47292" lon="8.88838">
        <ele>1491.8</ele>
        <time>2015-07-02T05:02:47Z</time>
      </trkpt>
      <trkpt lat="42.47294" lon="8.88834">
        <ele>1491.4</ele>
        <time>2015-07-02T05:02:50Z</time>
      </trkpt>
      <trkpt lat="42.47296" lon="8.88834">
        <ele>1491</ele>
        <time>2015-07-02T05:02:52Z</time>
      </trkpt>
      <trkpt lat="42.47301" lon="8.88828">
        <ele>1489.8</ele>
        <time>2015-07-02T05:02:58Z</time>
      </trkpt>
      <trkpt lat="42.47304" lon="8.88821">
        <ele>1488.6</ele>
        <time>2015-07-02T05:03:04Z</time>
      </trkpt>
      <trkpt lat="42.47308" lon="8.88815">
        <ele>1487.2</ele>
        <time>2015-07-02T05:03:11Z</time>
      </trkpt>
      <trkpt lat="42.47312" lon="8.88813">
        <ele>1486.6</ele>
        <time>2015-07-02T05:03:17Z</time>
      </trkpt>
      <trkpt lat="42.47313" lon="8.88813">
        <ele>1486.4</ele>
        <time>2015-07-02T05:03:18Z</time>
      </trkpt>
      <trkpt lat="42.47314" lon="8.88815">
        <ele>1485.4</ele>
        <time>2015-07-02T05:03:23Z</time>
      </trkpt>
      <trkpt lat="42.47318" lon="8.88819">
        <ele>1483.8</ele>
        <time>2015-07-02T05:03:35Z</time>
      </trkpt>
      <trkpt lat="42.47319" lon="8.88824">
        <ele>1483</ele>
        <time>2015-07-02T05:03:42Z</time>
      </trkpt>
      <trkpt lat="42.47319" lon="8.88825">
        <ele>1482.4</ele>
        <time>2015-07-02T05:03:46Z</time>
      </trkpt>
      <trkpt lat="42.47321" lon="8.88829">
        <ele>1481.2</ele>
        <time>2015-07-02T05:03:51Z</time>
      </trkpt>
      <trkpt lat="42.47323" lon="8.88831">
        <ele>1480.2</ele>
        <time>2015-07-02T05:03:56Z</time>
      </trkpt>
      <trkpt lat="42.47326" lon="8.88835">
        <ele>1478.8</ele>
        <time>2015-07-02T05:04:02Z</time>
      </trkpt>
      <trkpt lat="42.47328" lon="8.88838">
        <ele>1477.4</ele>
        <time>2015-07-02T05:04:09Z</time>
      </trkpt>
      <trkpt lat="42.47331" lon="8.88841">
        <ele>1476.6</ele>
        <time>2015-07-02T05:04:14Z</time>
      </trkpt>
      <trkpt lat="42.47333" lon="8.88845">
        <ele>1475.6</ele>
        <time>2015-07-02T05:04:19Z</time>
      </trkpt>
      <trkpt lat="42.47334" lon="8.88847">
        <ele>1474.4</ele>
        <time>2015-07-02T05:04:25Z</time>
      </trkpt>
      <trkpt lat="42.47335" lon="8.88849">
        <ele>1473.2</ele>
        <time>2015-07-02T05:04:31Z</time>
      </trkpt>
      <trkpt lat="42.47339" lon="8.88851">
        <ele>1471.8</ele>
        <time>2015-07-02T05:04:38Z</time>
      </trkpt>
      <trkpt lat="42.4734" lon="8.88856">
        <ele>1471</ele>
        <time>2015-07-02T05:04:43Z</time>
      </trkpt>
      <trkpt lat="42.47341" lon="8.88859">
        <ele>1469.8</ele>
        <time>2015-07-02T05:04:49Z</time>
      </trkpt>
      <trkpt lat="42.47344" lon="8.88858">
        <ele>1468.8</ele>
        <time>2015-07-02T05:04:54Z</time>
      </trkpt>
      <trkpt lat="42.47345" lon="8.88857">
        <ele>1467.2</ele>
        <time>2015-07-02T05:05:03Z</time>
      </trkpt>
      <trkpt lat="42.47347" lon="8.88857">
        <ele>1466.6</ele>
        <time>2015-07-02T05:05:09Z</time>
      </trkpt>
      <trkpt lat="42.47348" lon="8.88857">
        <ele>1466</ele>
        <time>2015-07-02T05:05:12Z</time>
      </trkpt>
      <trkpt lat="42.47349" lon="8.88861">
        <ele>1465.6</ele>
        <time>2015-07-02T05:05:18Z</time>
      </trkpt>
      <trkpt lat="42.4735" lon="8.88863">
        <ele>1464.4</ele>
        <time>2015-07-02T05:05:24Z</time>
      </trkpt>
      <trkpt lat="42.47353" lon="8.8886">
        <ele>1463.4</ele>
        <time>2015-07-02T05:05:29Z</time>
      </trkpt>
      <trkpt lat="42.47355" lon="8.88856">
        <ele>1462.2</ele>
        <time>2015-07-02T05:05:35Z</time>
      </trkpt>
      <trkpt lat="42.47357" lon="8.88851">
        <ele>1461.2</ele>
        <time>2015-07-02T05:05:40Z</time>
      </trkpt>
      <trkpt lat="42.4736" lon="8.88845">
        <ele>1460</ele>
        <time>2015-07-02T05:05:46Z</time>
      </trkpt>
      <trkpt lat="42.47361" lon="8.88846">
        <ele>1459.8</ele>
        <time>2015-07-02T05:05:47Z</time>
      </trkpt>
      <trkpt lat="42.47363" lon="8.88842">
        <ele>1458.8</ele>
        <time>2015-07-02T05:05:52Z</time>
      </trkpt>
      <trkpt lat="42.47367" lon="8.88838">
        <ele>1457.6</ele>
        <time>2015-07-02T05:05:59Z</time>
      </trkpt>
      <trkpt lat="42.4737" lon="8.88833">
        <ele>1456.6</ele>
        <time>2015-07-02T05:06:06Z</time>
      </trkpt>
      <trkpt lat="42.47371" lon="8.88827">
        <ele>1455.6</ele>
        <time>2015-07-02T05:06:12Z</time>
      </trkpt>
      <trkpt lat="42.47373" lon="8.88825">
        <ele>1454.6</ele>
        <time>2015-07-02T05:06:17Z</time>
      </trkpt>
      <trkpt lat="42.47375" lon="8.88821">
        <ele>1453.4</ele>
        <time>2015-07-02T05:06:23Z</time>
      </trkpt>
      <trkpt lat="42.47378" lon="8.88815">
        <ele>1452.2</ele>
        <time>2015-07-02T05:06:30Z</time>
      </trkpt>
      <trkpt lat="42.47381" lon="8.88809">
        <ele>1451.2</ele>
        <time>2015-07-02T05:06:38Z</time>
      </trkpt>
      <trkpt lat="42.47385" lon="8.88806">
        <ele>1450.2</ele>
        <time>2015-07-02T05:06:44Z</time>
      </trkpt>
      <trkpt lat="42.47387" lon="8.88803">
        <ele>1449.2</ele>
        <time>2015-07-02T05:06:49Z</time>
      </trkpt>
      <trkpt lat="42.47389" lon="8.888">
        <ele>1448.2</ele>
        <time>2015-07-02T05:06:53Z</time>
      </trkpt>
      <trkpt lat="42.47392" lon="8.88798">
        <ele>1447</ele>
        <time>2015-07-02T05:06:59Z</time>
      </trkpt>
      <trkpt lat="42.47395" lon="8.88796">
        <ele>1445.8</ele>
        <time>2015-07-02T05:07:05Z</time>
      </trkpt>
      <trkpt lat="42.47397" lon="8.88795">
        <ele>1445</ele>
        <time>2015-07-02T05:07:10Z</time>
      </trkpt>
      <trkpt lat="42.47399" lon="8.88794">
        <ele>1443.6</ele>
        <time>2015-07-02T05:07:16Z</time>
      </trkpt>
      <trkpt lat="42.47402" lon="8.88792">
        <ele>1442.4</ele>
        <time>2015-07-02T05:07:22Z</time>
      </trkpt>
      <trkpt lat="42.47405" lon="8.88789">
        <ele>1441.4</ele>
        <time>2015-07-02T05:07:27Z</time>
      </trkpt>
      <trkpt lat="42.47406" lon="8.88784">
        <ele>1440.4</ele>
        <time>2015-07-02T05:07:32Z</time>
      </trkpt>
      <trkpt lat="42.47397" lon="8.88764">
        <ele>1439.4</ele>
        <time>2015-07-02T05:07:52Z</time>
      </trkpt>
      <trkpt lat="42.47395" lon="8.88764">
        <ele>1440.2</ele>
        <time>2015-07-02T05:07:59Z</time>
      </trkpt>
      <trkpt lat="42.47395" lon="8.8876">
        <ele>1441.4</ele>
        <time>2015-07-02T05:08:09Z</time>
      </trkpt>
      <trkpt lat="42.47407" lon="8.88703">
        <ele>1441.8</ele>
        <time>2015-07-02T05:09:09Z</time>
      </trkpt>
      <trkpt lat="42.47405" lon="8.88685">
        <ele>1442.8</ele>
        <time>2015-07-02T05:09:30Z</time>
      </trkpt>
      <trkpt lat="42.47406" lon="8.88681">
        <ele>1444</ele>
        <time>2015-07-02T05:09:37Z</time>
      </trkpt>
      <trkpt lat="42.47408" lon="8.88678">
        <ele>1445</ele>
        <time>2015-07-02T05:09:43Z</time>
      </trkpt>
      <trkpt lat="42.47408" lon="8.88674">
        <ele>1446.2</ele>
        <time>2015-07-02T05:09:49Z</time>
      </trkpt>
      <trkpt lat="42.47405" lon="8.8867">
        <ele>1447.6</ele>
        <time>2015-07-02T05:09:57Z</time>
      </trkpt>
      <trkpt lat="42.47406" lon="8.88666">
        <ele>1448.6</ele>
        <time>2015-07-02T05:10:04Z</time>
      </trkpt>
      <trkpt lat="42.47407" lon="8.88664">
        <ele>1449.6</ele>
        <time>2015-07-02T05:10:11Z</time>
      </trkpt>
      <trkpt lat="42.47406" lon="8.88661">
        <ele>1451</ele>
        <time>2015-07-02T05:10:19Z</time>
      </trkpt>
      <trkpt lat="42.47406" lon="8.88657">
        <ele>1452</ele>
        <time>2015-07-02T05:10:27Z</time>
      </trkpt>
      <trkpt lat="42.47407" lon="8.8865">
        <ele>1453.6</ele>
        <time>2015-07-02T05:10:36Z</time>
      </trkpt>
      <trkpt lat="42.47406" lon="8.88638">
        <ele>1455</ele>
        <time>2015-07-02T05:11:04Z</time>
      </trkpt>
      <trkpt lat="42.47407" lon="8.88611">
        <ele>1455.6</ele>
        <time>2015-07-02T05:11:27Z</time>
      </trkpt>
      <trkpt lat="42.47409" lon="8.88603">
        <ele>1457</ele>
        <time>2015-07-02T05:11:34Z</time>
      </trkpt>
      <trkpt lat="42.47411" lon="8.88592">
        <ele>1457</ele>
        <time>2015-07-02T05:11:42Z</time>
      </trkpt>
      <trkpt lat="42.47411" lon="8.8859">
        <ele>1457.2</ele>
        <time>2015-07-02T05:11:44Z</time>
      </trkpt>
      <trkpt lat="42.4741" lon="8.88584">
        <ele>1457.4</ele>
        <time>2015-07-02T05:11:48Z</time>
      </trkpt>
      <trkpt lat="42.47408" lon="8.88571">
        <ele>1458.4</ele>
        <time>2015-07-02T05:11:59Z</time>
      </trkpt>
      <trkpt lat="42.47409" lon="8.88566">
        <ele>1459.2</ele>
        <time>2015-07-02T05:12:06Z</time>
      </trkpt>
      <trkpt lat="42.47408" lon="8.88549">
        <ele>1461</ele>
        <time>2015-07-02T05:12:22Z</time>
      </trkpt>
      <trkpt lat="42.47407" lon="8.88539">
        <ele>1461.6</ele>
        <time>2015-07-02T05:12:29Z</time>
      </trkpt>
      <trkpt lat="42.47406" lon="8.88534">
        <ele>1462.6</ele>
        <time>2015-07-02T05:12:35Z</time>
      </trkpt>
      <trkpt lat="42.47404" lon="8.88528">
        <ele>1464</ele>
        <time>2015-07-02T05:12:42Z</time>
      </trkpt>
      <trkpt lat="42.47405" lon="8.88521">
        <ele>1465</ele>
        <time>2015-07-02T05:12:49Z</time>
      </trkpt>
      <trkpt lat="42.47405" lon="8.88514">
        <ele>1466.4</ele>
        <time>2015-07-02T05:12:56Z</time>
      </trkpt>
      <trkpt lat="42.47403" lon="8.88507">
        <ele>1467.8</ele>
        <time>2015-07-02T05:13:03Z</time>
      </trkpt>
      <trkpt lat="42.47402" lon="8.88491">
        <ele>1469.2</ele>
        <time>2015-07-02T05:13:17Z</time>
      </trkpt>
      <trkpt lat="42.47402" lon="8.8848">
        <ele>1470.6</ele>
        <time>2015-07-02T05:13:28Z</time>
      </trkpt>
      <trkpt lat="42.47412" lon="8.88442">
        <ele>1471.6</ele>
        <time>2015-07-02T05:14:06Z</time>
      </trkpt>
      <trkpt lat="42.47417" lon="8.88429">
        <ele>1471.2</ele>
        <time>2015-07-02T05:14:21Z</time>
      </trkpt>
      <trkpt lat="42.47429" lon="8.88398">
        <ele>1472</ele>
        <time>2015-07-02T05:14:51Z</time>
      </trkpt>
      <trkpt lat="42.47441" lon="8.88371">
        <ele>1471</ele>
        <time>2015-07-02T05:15:22Z</time>
      </trkpt>
      <trkpt lat="42.47437" lon="8.88367">
        <ele>1470</ele>
        <time>2015-07-02T05:17:13Z</time>
      </trkpt>
      <trkpt lat="42.47437" lon="8.88371">
        <ele>1469.8</ele>
        <time>2015-07-02T05:18:34Z</time>
      </trkpt>
      <trkpt lat="42.47439" lon="8.88367">
        <ele>1470</ele>
        <time>2015-07-02T05:21:08Z</time>
      </trkpt>
      <trkpt lat="42.47438" lon="8.88349">
        <ele>1469.8</ele>
        <time>2015-07-02T05:21:33Z</time>
      </trkpt>
      <trkpt lat="42.4744" lon="8.88342">
        <ele>1468.8</ele>
        <time>2015-07-02T05:21:39Z</time>
      </trkpt>
      <trkpt lat="42.4744" lon="8.88334">
        <ele>1467.6</ele>
        <time>2015-07-02T05:21:46Z</time>
      </trkpt>
      <trkpt lat="42.47445" lon="8.88323">
        <ele>1466.4</ele>
        <time>2015-07-02T05:21:57Z</time>
      </trkpt>
      <trkpt lat="42.47452" lon="8.88283">
        <ele>1465.4</ele>
        <time>2015-07-02T05:22:39Z</time>
      </trkpt>
      <trkpt lat="42.47455" lon="8.88276">
        <ele>1464.4</ele>
        <time>2015-07-02T05:22:46Z</time>
      </trkpt>
      <trkpt lat="42.47459" lon="8.88271">
        <ele>1463.4</ele>
        <time>2015-07-02T05:22:54Z</time>
      </trkpt>
      <trkpt lat="42.47462" lon="8.88267">
        <ele>1463</ele>
        <time>2015-07-02T05:22:59Z</time>
      </trkpt>
      <trkpt lat="42.47463" lon="8.8826">
        <ele>1462</ele>
        <time>2015-07-02T05:23:10Z</time>
      </trkpt>
      <trkpt lat="42.47464" lon="8.88256">
        <ele>1462.6</ele>
        <time>2015-07-02T05:23:16Z</time>
      </trkpt>
      <trkpt lat="42.47464" lon="8.88251">
        <ele>1463.6</ele>
        <time>2015-07-02T05:23:22Z</time>
      </trkpt>
      <trkpt lat="42.47462" lon="8.88246">
        <ele>1465</ele>
        <time>2015-07-02T05:23:33Z</time>
      </trkpt>
      <trkpt lat="42.47466" lon="8.88238">
        <ele>1465.4</ele>
        <time>2015-07-02T05:23:57Z</time>
      </trkpt>
      <trkpt lat="42.47465" lon="8.88232">
        <ele>1464.6</ele>
        <time>2015-07-02T05:24:03Z</time>
      </trkpt>
      <trkpt lat="42.47467" lon="8.88224">
        <ele>1463.4</ele>
        <time>2015-07-02T05:24:13Z</time>
      </trkpt>
      <trkpt lat="42.47471" lon="8.88217">
        <ele>1462.2</ele>
        <time>2015-07-02T05:24:21Z</time>
      </trkpt>
      <trkpt lat="42.4747" lon="8.8821">
        <ele>1461.4</ele>
        <time>2015-07-02T05:24:37Z</time>
      </trkpt>
      <trkpt lat="42.47483" lon="8.88182">
        <ele>1463.2</ele>
        <time>2015-07-02T05:25:21Z</time>
      </trkpt>
      <trkpt lat="42.47486" lon="8.88177">
        <ele>1463.2</ele>
        <time>2015-07-02T05:25:39Z</time>
      </trkpt>
      <trkpt lat="42.47485" lon="8.88173">
        <ele>1461.8</ele>
        <time>2015-07-02T05:25:49Z</time>
      </trkpt>
      <trkpt lat="42.47486" lon="8.88171">
        <ele>1461</ele>
        <time>2015-07-02T05:25:58Z</time>
      </trkpt>
      <trkpt lat="42.47486" lon="8.88168">
        <ele>1460</ele>
        <time>2015-07-02T05:26:05Z</time>
      </trkpt>
      <trkpt lat="42.47486" lon="8.88165">
        <ele>1459.4</ele>
        <time>2015-07-02T05:26:10Z</time>
      </trkpt>
      <trkpt lat="42.47484" lon="8.88162">
        <ele>1457.6</ele>
        <time>2015-07-02T05:26:19Z</time>
      </trkpt>
      <trkpt lat="42.47484" lon="8.88157">
        <ele>1456.8</ele>
        <time>2015-07-02T05:26:26Z</time>
      </trkpt>
      <trkpt lat="42.47484" lon="8.88155">
        <ele>1456.2</ele>
        <time>2015-07-02T05:26:30Z</time>
      </trkpt>
      <trkpt lat="42.47485" lon="8.88148">
        <ele>1454.6</ele>
        <time>2015-07-02T05:26:36Z</time>
      </trkpt>
      <trkpt lat="42.47485" lon="8.88131">
        <ele>1452.6</ele>
        <time>2015-07-02T05:27:07Z</time>
      </trkpt>
      <trkpt lat="42.47482" lon="8.88125">
        <ele>1451.8</ele>
        <time>2015-07-02T05:27:16Z</time>
      </trkpt>
      <trkpt lat="42.47479" lon="8.8812">
        <ele>1450.8</ele>
        <time>2015-07-02T05:27:30Z</time>
      </trkpt>
      <trkpt lat="42.47478" lon="8.88111">
        <ele>1449.8</ele>
        <time>2015-07-02T05:27:38Z</time>
      </trkpt>
      <trkpt lat="42.47477" lon="8.88111">
        <ele>1450</ele>
        <time>2015-07-02T05:27:39Z</time>
      </trkpt>
      <trkpt lat="42.47484" lon="8.88092">
        <ele>1448</ele>
        <time>2015-07-02T05:28:14Z</time>
      </trkpt>
      <trkpt lat="42.47487" lon="8.88089">
        <ele>1447.8</ele>
        <time>2015-07-02T05:28:19Z</time>
      </trkpt>
      <trkpt lat="42.4749" lon="8.88087">
        <ele>1446.2</ele>
        <time>2015-07-02T05:28:26Z</time>
      </trkpt>
      <trkpt lat="42.47494" lon="8.88085">
        <ele>1445</ele>
        <time>2015-07-02T05:28:32Z</time>
      </trkpt>
      <trkpt lat="42.47497" lon="8.88083">
        <ele>1444</ele>
        <time>2015-07-02T05:28:37Z</time>
      </trkpt>
      <trkpt lat="42.47499" lon="8.8808">
        <ele>1443.4</ele>
        <time>2015-07-02T05:28:41Z</time>
      </trkpt>
      <trkpt lat="42.47502" lon="8.88075">
        <ele>1441.4</ele>
        <time>2015-07-02T05:28:47Z</time>
      </trkpt>
      <trkpt lat="42.47507" lon="8.88056">
        <ele>1440.4</ele>
        <time>2015-07-02T05:29:08Z</time>
      </trkpt>
      <trkpt lat="42.47509" lon="8.88051">
        <ele>1441.4</ele>
        <time>2015-07-02T05:29:14Z</time>
      </trkpt>
      <trkpt lat="42.47509" lon="8.88041">
        <ele>1442.6</ele>
        <time>2015-07-02T05:29:24Z</time>
      </trkpt>
      <trkpt lat="42.47509" lon="8.88028">
        <ele>1444</ele>
        <time>2015-07-02T05:29:37Z</time>
      </trkpt>
      <trkpt lat="42.47509" lon="8.88023">
        <ele>1444.6</ele>
        <time>2015-07-02T05:29:44Z</time>
      </trkpt>
      <trkpt lat="42.47508" lon="8.88018">
        <ele>1445.4</ele>
        <time>2015-07-02T05:29:50Z</time>
      </trkpt>
      <trkpt lat="42.47507" lon="8.88013">
        <ele>1446.6</ele>
        <time>2015-07-02T05:29:58Z</time>
      </trkpt>
      <trkpt lat="42.47503" lon="8.88009">
        <ele>1447.6</ele>
        <time>2015-07-02T05:30:06Z</time>
      </trkpt>
      <trkpt lat="42.47502" lon="8.88004">
        <ele>1449</ele>
        <time>2015-07-02T05:30:15Z</time>
      </trkpt>
      <trkpt lat="42.47498" lon="8.87999">
        <ele>1449</ele>
        <time>2015-07-02T05:30:32Z</time>
      </trkpt>
      <trkpt lat="42.47501" lon="8.87988">
        <ele>1449.2</ele>
        <time>2015-07-02T05:30:58Z</time>
      </trkpt>
      <trkpt lat="42.47505" lon="8.87989">
        <ele>1448.2</ele>
        <time>2015-07-02T05:31:07Z</time>
      </trkpt>
      <trkpt lat="42.47507" lon="8.8799">
        <ele>1447</ele>
        <time>2015-07-02T05:31:14Z</time>
      </trkpt>
      <trkpt lat="42.47509" lon="8.8799">
        <ele>1446</ele>
        <time>2015-07-02T05:31:22Z</time>
      </trkpt>
      <trkpt lat="42.47511" lon="8.87989">
        <ele>1444.6</ele>
        <time>2015-07-02T05:31:47Z</time>
      </trkpt>
      <trkpt lat="42.47515" lon="8.87988">
        <ele>1443.6</ele>
        <time>2015-07-02T05:31:55Z</time>
      </trkpt>
      <trkpt lat="42.47516" lon="8.87985">
        <ele>1442.4</ele>
        <time>2015-07-02T05:32:02Z</time>
      </trkpt>
      <trkpt lat="42.47519" lon="8.87984">
        <ele>1441.4</ele>
        <time>2015-07-02T05:32:09Z</time>
      </trkpt>
      <trkpt lat="42.47518" lon="8.87987">
        <ele>1440</ele>
        <time>2015-07-02T05:32:18Z</time>
      </trkpt>
      <trkpt lat="42.47519" lon="8.87987">
        <ele>1439.2</ele>
        <time>2015-07-02T05:32:27Z</time>
      </trkpt>
      <trkpt lat="42.47519" lon="8.87993">
        <ele>1437.8</ele>
        <time>2015-07-02T05:32:36Z</time>
      </trkpt>
      <trkpt lat="42.47521" lon="8.87992">
        <ele>1436.2</ele>
        <time>2015-07-02T05:32:48Z</time>
      </trkpt>
      <trkpt lat="42.47522" lon="8.8799">
        <ele>1435.6</ele>
        <time>2015-07-02T05:32:59Z</time>
      </trkpt>
      <trkpt lat="42.47522" lon="8.87987">
        <ele>1434.4</ele>
        <time>2015-07-02T05:33:08Z</time>
      </trkpt>
      <trkpt lat="42.47521" lon="8.87985">
        <ele>1432.8</ele>
        <time>2015-07-02T05:33:25Z</time>
      </trkpt>
      <trkpt lat="42.47523" lon="8.87984">
        <ele>1431.8</ele>
        <time>2015-07-02T05:33:37Z</time>
      </trkpt>
      <trkpt lat="42.47525" lon="8.87981">
        <ele>1430.6</ele>
        <time>2015-07-02T05:33:48Z</time>
      </trkpt>
      <trkpt lat="42.47528" lon="8.87985">
        <ele>1429.8</ele>
        <time>2015-07-02T05:33:57Z</time>
      </trkpt>
      <trkpt lat="42.4753" lon="8.87986">
        <ele>1428.2</ele>
        <time>2015-07-02T05:34:07Z</time>
      </trkpt>
      <trkpt lat="42.47532" lon="8.87989">
        <ele>1427.6</ele>
        <time>2015-07-02T05:34:13Z</time>
      </trkpt>
      <trkpt lat="42.47533" lon="8.87992">
        <ele>1426.4</ele>
        <time>2015-07-02T05:34:20Z</time>
      </trkpt>
      <trkpt lat="42.47535" lon="8.87993">
        <ele>1424.6</ele>
        <time>2015-07-02T05:34:42Z</time>
      </trkpt>
      <trkpt lat="42.47534" lon="8.87997">
        <ele>1423.4</ele>
        <time>2015-07-02T05:34:55Z</time>
      </trkpt>
      <trkpt lat="42.47535" lon="8.87997">
        <ele>1422.8</ele>
        <time>2015-07-02T05:35:02Z</time>
      </trkpt>
      <trkpt lat="42.47537" lon="8.87996">
        <ele>1421.6</ele>
        <time>2015-07-02T05:35:09Z</time>
      </trkpt>
      <trkpt lat="42.47541" lon="8.87993">
        <ele>1419.8</ele>
        <time>2015-07-02T05:35:43Z</time>
      </trkpt>
      <trkpt lat="42.47542" lon="8.87999">
        <ele>1419</ele>
        <time>2015-07-02T05:35:51Z</time>
      </trkpt>
      <trkpt lat="42.47541" lon="8.88004">
        <ele>1417.4</ele>
        <time>2015-07-02T05:36:08Z</time>
      </trkpt>
      <trkpt lat="42.4754" lon="8.88008">
        <ele>1416.2</ele>
        <time>2015-07-02T05:36:27Z</time>
      </trkpt>
      <trkpt lat="42.47539" lon="8.88007">
        <ele>1415.8</ele>
        <time>2015-07-02T05:36:30Z</time>
      </trkpt>
      <trkpt lat="42.47541" lon="8.88004">
        <ele>1415.8</ele>
        <time>2015-07-02T05:36:53Z</time>
      </trkpt>
      <trkpt lat="42.47545" lon="8.88002">
        <ele>1415.4</ele>
        <time>2015-07-02T05:37:19Z</time>
      </trkpt>
      <trkpt lat="42.47558" lon="8.87995">
        <ele>1415</ele>
        <time>2015-07-02T05:38:18Z</time>
      </trkpt>
      <trkpt lat="42.47559" lon="8.87995">
        <ele>1415</ele>
        <time>2015-07-02T05:38:20Z</time>
      </trkpt>
      <trkpt lat="42.47561" lon="8.87995">
        <ele>1415</ele>
        <time>2015-07-02T05:38:22Z</time>
      </trkpt>
      <trkpt lat="42.47564" lon="8.87993">
        <ele>1415</ele>
        <time>2015-07-02T05:38:26Z</time>
      </trkpt>
      <trkpt lat="42.4757" lon="8.87994">
        <ele>1414</ele>
        <time>2015-07-02T05:38:38Z</time>
      </trkpt>
      <trkpt lat="42.47567" lon="8.87995">
        <ele>1412.8</ele>
        <time>2015-07-02T05:38:46Z</time>
      </trkpt>
      <trkpt lat="42.47569" lon="8.87994">
        <ele>1411.4</ele>
        <time>2015-07-02T05:38:59Z</time>
      </trkpt>
      <trkpt lat="42.4757" lon="8.8799">
        <ele>1409.8</ele>
        <time>2015-07-02T05:39:17Z</time>
      </trkpt>
      <trkpt lat="42.47572" lon="8.87988">
        <ele>1409.4</ele>
        <time>2015-07-02T05:39:24Z</time>
      </trkpt>
      <trkpt lat="42.47579" lon="8.87988">
        <ele>1407.8</ele>
        <time>2015-07-02T05:39:33Z</time>
      </trkpt>
      <trkpt lat="42.47582" lon="8.87986">
        <ele>1406.6</ele>
        <time>2015-07-02T05:39:56Z</time>
      </trkpt>
      <trkpt lat="42.47585" lon="8.87989">
        <ele>1405.2</ele>
        <time>2015-07-02T05:40:09Z</time>
      </trkpt>
      <trkpt lat="42.47586" lon="8.87987">
        <ele>1404.4</ele>
        <time>2015-07-02T05:40:15Z</time>
      </trkpt>
      <trkpt lat="42.47588" lon="8.87987">
        <ele>1402.8</ele>
        <time>2015-07-02T05:40:23Z</time>
      </trkpt>
      <trkpt lat="42.4759" lon="8.87988">
        <ele>1402</ele>
        <time>2015-07-02T05:40:31Z</time>
      </trkpt>
      <trkpt lat="42.47592" lon="8.87985">
        <ele>1401</ele>
        <time>2015-07-02T05:40:37Z</time>
      </trkpt>
      <trkpt lat="42.47594" lon="8.87986">
        <ele>1399.6</ele>
        <time>2015-07-02T05:40:47Z</time>
      </trkpt>
      <trkpt lat="42.47597" lon="8.87986">
        <ele>1398.4</ele>
        <time>2015-07-02T05:40:58Z</time>
      </trkpt>
      <trkpt lat="42.476" lon="8.87981">
        <ele>1397.4</ele>
        <time>2015-07-02T05:41:04Z</time>
      </trkpt>
      <trkpt lat="42.47608" lon="8.87954">
        <ele>1396.6</ele>
        <time>2015-07-02T05:41:33Z</time>
      </trkpt>
      <trkpt lat="42.47609" lon="8.87949">
        <ele>1397.2</ele>
        <time>2015-07-02T05:41:40Z</time>
      </trkpt>
      <trkpt lat="42.47607" lon="8.87952">
        <ele>1398.4</ele>
        <time>2015-07-02T05:41:48Z</time>
      </trkpt>
      <trkpt lat="42.47606" lon="8.87953">
        <ele>1399.2</ele>
        <time>2015-07-02T05:41:53Z</time>
      </trkpt>
      <trkpt lat="42.47604" lon="8.87951">
        <ele>1400.8</ele>
        <time>2015-07-02T05:42:07Z</time>
      </trkpt>
      <trkpt lat="42.47606" lon="8.87949">
        <ele>1401.6</ele>
        <time>2015-07-02T05:42:17Z</time>
      </trkpt>
      <trkpt lat="42.47608" lon="8.87948">
        <ele>1402.2</ele>
        <time>2015-07-02T05:42:23Z</time>
      </trkpt>
      <trkpt lat="42.47605" lon="8.87945">
        <ele>1403.4</ele>
        <time>2015-07-02T05:42:29Z</time>
      </trkpt>
      <trkpt lat="42.47604" lon="8.87943">
        <ele>1403.6</ele>
        <time>2015-07-02T05:42:32Z</time>
      </trkpt>
      <trkpt lat="42.47604" lon="8.8794">
        <ele>1404.4</ele>
        <time>2015-07-02T05:42:38Z</time>
      </trkpt>
      <trkpt lat="42.47604" lon="8.87933">
        <ele>1405.8</ele>
        <time>2015-07-02T05:42:47Z</time>
      </trkpt>
      <trkpt lat="42.47609" lon="8.87924">
        <ele>1406.2</ele>
        <time>2015-07-02T05:43:02Z</time>
      </trkpt>
      <trkpt lat="42.4761" lon="8.87916">
        <ele>1404.6</ele>
        <time>2015-07-02T05:43:13Z</time>
      </trkpt>
      <trkpt lat="42.47615" lon="8.87908">
        <ele>1404</ele>
        <time>2015-07-02T05:43:20Z</time>
      </trkpt>
      <trkpt lat="42.47621" lon="8.87902">
        <ele>1402.8</ele>
        <time>2015-07-02T05:43:28Z</time>
      </trkpt>
      <trkpt lat="42.47621" lon="8.87896">
        <ele>1402</ele>
        <time>2015-07-02T05:43:36Z</time>
      </trkpt>
      <trkpt lat="42.47625" lon="8.87894">
        <ele>1400.8</ele>
        <time>2015-07-02T05:43:44Z</time>
      </trkpt>
      <trkpt lat="42.47628" lon="8.87895">
        <ele>1400</ele>
        <time>2015-07-02T05:43:49Z</time>
      </trkpt>
      <trkpt lat="42.47629" lon="8.87894">
        <ele>1399.8</ele>
        <time>2015-07-02T05:43:50Z</time>
      </trkpt>
      <trkpt lat="42.47632" lon="8.87892">
        <ele>1399.2</ele>
        <time>2015-07-02T05:43:53Z</time>
      </trkpt>
      <trkpt lat="42.47631" lon="8.87873">
        <ele>1396.8</ele>
        <time>2015-07-02T05:44:17Z</time>
      </trkpt>
      <trkpt lat="42.47636" lon="8.87868">
        <ele>1395.6</ele>
        <time>2015-07-02T05:44:26Z</time>
      </trkpt>
      <trkpt lat="42.47638" lon="8.87864">
        <ele>1394.8</ele>
        <time>2015-07-02T05:44:34Z</time>
      </trkpt>
      <trkpt lat="42.47644" lon="8.87847">
        <ele>1393.4</ele>
        <time>2015-07-02T05:44:52Z</time>
      </trkpt>
      <trkpt lat="42.4765" lon="8.87844">
        <ele>1392.8</ele>
        <time>2015-07-02T05:45:01Z</time>
      </trkpt>
      <trkpt lat="42.47655" lon="8.87841">
        <ele>1392.4</ele>
        <time>2015-07-02T05:45:13Z</time>
      </trkpt>
      <trkpt lat="42.47652" lon="8.87837">
        <ele>1391.8</ele>
        <time>2015-07-02T05:45:20Z</time>
      </trkpt>
      <trkpt lat="42.47655" lon="8.87839">
        <ele>1391.2</ele>
        <time>2015-07-02T05:45:27Z</time>
      </trkpt>
      <trkpt lat="42.47656" lon="8.87839">
        <ele>1390.6</ele>
        <time>2015-07-02T05:45:33Z</time>
      </trkpt>
      <trkpt lat="42.4766" lon="8.87839">
        <ele>1389.2</ele>
        <time>2015-07-02T05:45:40Z</time>
      </trkpt>
      <trkpt lat="42.47663" lon="8.87838">
        <ele>1388.4</ele>
        <time>2015-07-02T05:45:47Z</time>
      </trkpt>
      <trkpt lat="42.47664" lon="8.87838">
        <ele>1386.8</ele>
        <time>2015-07-02T05:46:03Z</time>
      </trkpt>
      <trkpt lat="42.47662" lon="8.87843">
        <ele>1385.8</ele>
        <time>2015-07-02T05:46:11Z</time>
      </trkpt>
      <trkpt lat="42.47663" lon="8.87847">
        <ele>1385.2</ele>
        <time>2015-07-02T05:46:23Z</time>
      </trkpt>
      <trkpt lat="42.4766" lon="8.87851">
        <ele>1383.6</ele>
        <time>2015-07-02T05:46:33Z</time>
      </trkpt>
      <trkpt lat="42.47662" lon="8.87854">
        <ele>1382.4</ele>
        <time>2015-07-02T05:46:47Z</time>
      </trkpt>
      <trkpt lat="42.47665" lon="8.87858">
        <ele>1381.6</ele>
        <time>2015-07-02T05:46:56Z</time>
      </trkpt>
      <trkpt lat="42.47666" lon="8.87863">
        <ele>1380.8</ele>
        <time>2015-07-02T05:47:03Z</time>
      </trkpt>
      <trkpt lat="42.47666" lon="8.87864">
        <ele>1379.6</ele>
        <time>2015-07-02T05:47:10Z</time>
      </trkpt>
      <trkpt lat="42.47666" lon="8.87863">
        <ele>1378.6</ele>
        <time>2015-07-02T05:47:16Z</time>
      </trkpt>
      <trkpt lat="42.47669" lon="8.87861">
        <ele>1377.4</ele>
        <time>2015-07-02T05:47:22Z</time>
      </trkpt>
      <trkpt lat="42.47669" lon="8.87861">
        <ele>1377.2</ele>
        <time>2015-07-02T05:47:23Z</time>
      </trkpt>
      <trkpt lat="42.47673" lon="8.87861">
        <ele>1375.4</ele>
        <time>2015-07-02T05:47:36Z</time>
      </trkpt>
      <trkpt lat="42.47674" lon="8.87862">
        <ele>1374.8</ele>
        <time>2015-07-02T05:47:42Z</time>
      </trkpt>
      <trkpt lat="42.47673" lon="8.87864">
        <ele>1373.8</ele>
        <time>2015-07-02T05:47:48Z</time>
      </trkpt>
      <trkpt lat="42.47678" lon="8.87865">
        <ele>1372.4</ele>
        <time>2015-07-02T05:47:55Z</time>
      </trkpt>
      <trkpt lat="42.47681" lon="8.87867">
        <ele>1371.6</ele>
        <time>2015-07-02T05:48:02Z</time>
      </trkpt>
      <trkpt lat="42.47682" lon="8.87869">
        <ele>1370.8</ele>
        <time>2015-07-02T05:48:07Z</time>
      </trkpt>
      <trkpt lat="42.47685" lon="8.87872">
        <ele>1369.6</ele>
        <time>2015-07-02T05:48:12Z</time>
      </trkpt>
      <trkpt lat="42.47684" lon="8.87871">
        <ele>1368.4</ele>
        <time>2015-07-02T05:48:17Z</time>
      </trkpt>
      <trkpt lat="42.47688" lon="8.87871">
        <ele>1367</ele>
        <time>2015-07-02T05:48:23Z</time>
      </trkpt>
      <trkpt lat="42.47688" lon="8.87872">
        <ele>1366</ele>
        <time>2015-07-02T05:48:29Z</time>
      </trkpt>
      <trkpt lat="42.47689" lon="8.87868">
        <ele>1364.8</ele>
        <time>2015-07-02T05:48:34Z</time>
      </trkpt>
      <trkpt lat="42.47693" lon="8.87858">
        <ele>1362.8</ele>
        <time>2015-07-02T05:48:54Z</time>
      </trkpt>
      <trkpt lat="42.47698" lon="8.87861">
        <ele>1361.8</ele>
        <time>2015-07-02T05:49:21Z</time>
      </trkpt>
      <trkpt lat="42.47699" lon="8.8786">
        <ele>1360.8</ele>
        <time>2015-07-02T05:49:44Z</time>
      </trkpt>
      <trkpt lat="42.47697" lon="8.87865">
        <ele>1359.6</ele>
        <time>2015-07-02T05:50:15Z</time>
      </trkpt>
      <trkpt lat="42.47697" lon="8.87865">
        <ele>1359.4</ele>
        <time>2015-07-02T05:50:19Z</time>
      </trkpt>
      <trkpt lat="42.47698" lon="8.87865">
        <ele>1358.8</ele>
        <time>2015-07-02T05:50:24Z</time>
      </trkpt>
      <trkpt lat="42.47699" lon="8.87864">
        <ele>1358.2</ele>
        <time>2015-07-02T05:50:28Z</time>
      </trkpt>
      <trkpt lat="42.47702" lon="8.87863">
        <ele>1356</ele>
        <time>2015-07-02T05:50:56Z</time>
      </trkpt>
      <trkpt lat="42.47704" lon="8.87864">
        <ele>1355.2</ele>
        <time>2015-07-02T05:51:06Z</time>
      </trkpt>
      <trkpt lat="42.47702" lon="8.87866">
        <ele>1354</ele>
        <time>2015-07-02T05:51:33Z</time>
      </trkpt>
      <trkpt lat="42.4771" lon="8.87869">
        <ele>1353</ele>
        <time>2015-07-02T05:51:44Z</time>
      </trkpt>
      <trkpt lat="42.47709" lon="8.8787">
        <ele>1353</ele>
        <time>2015-07-02T05:51:45Z</time>
      </trkpt>
      <trkpt lat="42.47706" lon="8.8787">
        <ele>1352.4</ele>
        <time>2015-07-02T05:51:49Z</time>
      </trkpt>
      <trkpt lat="42.47706" lon="8.8787">
        <ele>1352.4</ele>
        <time>2015-07-02T05:51:50Z</time>
      </trkpt>
      <trkpt lat="42.47711" lon="8.87864">
        <ele>1351.4</ele>
        <time>2015-07-02T05:51:57Z</time>
      </trkpt>
      <trkpt lat="42.4771" lon="8.87852">
        <ele>1350.8</ele>
        <time>2015-07-02T05:52:25Z</time>
      </trkpt>
      <trkpt lat="42.47713" lon="8.87849">
        <ele>1349.6</ele>
        <time>2015-07-02T05:52:33Z</time>
      </trkpt>
      <trkpt lat="42.47716" lon="8.87849">
        <ele>1348.6</ele>
        <time>2015-07-02T05:52:40Z</time>
      </trkpt>
      <trkpt lat="42.47719" lon="8.87845">
        <ele>1347.4</ele>
        <time>2015-07-02T05:52:47Z</time>
      </trkpt>
      <trkpt lat="42.4772" lon="8.8784">
        <ele>1346.4</ele>
        <time>2015-07-02T05:52:54Z</time>
      </trkpt>
      <trkpt lat="42.47723" lon="8.87833">
        <ele>1345.2</ele>
        <time>2015-07-02T05:53:01Z</time>
      </trkpt>
      <trkpt lat="42.47733" lon="8.87831">
        <ele>1343.6</ele>
        <time>2015-07-02T05:53:14Z</time>
      </trkpt>
      <trkpt lat="42.47736" lon="8.87835">
        <ele>1343.2</ele>
        <time>2015-07-02T05:53:20Z</time>
      </trkpt>
      <trkpt lat="42.47739" lon="8.87836">
        <ele>1342.6</ele>
        <time>2015-07-02T05:53:28Z</time>
      </trkpt>
      <trkpt lat="42.47743" lon="8.87834">
        <ele>1341.6</ele>
        <time>2015-07-02T05:53:35Z</time>
      </trkpt>
      <trkpt lat="42.47749" lon="8.87832">
        <ele>1340.2</ele>
        <time>2015-07-02T05:53:56Z</time>
      </trkpt>
      <trkpt lat="42.4775" lon="8.87829">
        <ele>1338.6</ele>
        <time>2015-07-02T05:54:14Z</time>
      </trkpt>
      <trkpt lat="42.47753" lon="8.87825">
        <ele>1338.2</ele>
        <time>2015-07-02T05:54:23Z</time>
      </trkpt>
      <trkpt lat="42.47756" lon="8.87825">
        <ele>1336.8</ele>
        <time>2015-07-02T05:54:41Z</time>
      </trkpt>
      <trkpt lat="42.47758" lon="8.87828">
        <ele>1336.2</ele>
        <time>2015-07-02T05:54:53Z</time>
      </trkpt>
      <trkpt lat="42.47759" lon="8.87829">
        <ele>1335.6</ele>
        <time>2015-07-02T05:54:58Z</time>
      </trkpt>
      <trkpt lat="42.47762" lon="8.87832">
        <ele>1333.6</ele>
        <time>2015-07-02T05:55:09Z</time>
      </trkpt>
      <trkpt lat="42.47764" lon="8.87834">
        <ele>1332.8</ele>
        <time>2015-07-02T05:55:17Z</time>
      </trkpt>
      <trkpt lat="42.47765" lon="8.87835">
        <ele>1332</ele>
        <time>2015-07-02T05:55:23Z</time>
      </trkpt>
      <trkpt lat="42.47769" lon="8.87829">
        <ele>1331.2</ele>
        <time>2015-07-02T05:55:48Z</time>
      </trkpt>
      <trkpt lat="42.47771" lon="8.87823">
        <ele>1331.4</ele>
        <time>2015-07-02T05:55:56Z</time>
      </trkpt>
      <trkpt lat="42.47773" lon="8.87819">
        <ele>1331.8</ele>
        <time>2015-07-02T05:56:00Z</time>
      </trkpt>
      <trkpt lat="42.47773" lon="8.87818">
        <ele>1331.8</ele>
        <time>2015-07-02T05:56:01Z</time>
      </trkpt>
      <trkpt lat="42.47774" lon="8.8781">
        <ele>1333.4</ele>
        <time>2015-07-02T05:56:10Z</time>
      </trkpt>
      <trkpt lat="42.47778" lon="8.87807">
        <ele>1333.6</ele>
        <time>2015-07-02T05:56:15Z</time>
      </trkpt>
      <trkpt lat="42.47782" lon="8.87804">
        <ele>1333.6</ele>
        <time>2015-07-02T05:56:39Z</time>
      </trkpt>
      <trkpt lat="42.47786" lon="8.87809">
        <ele>1332.4</ele>
        <time>2015-07-02T05:56:52Z</time>
      </trkpt>
      <trkpt lat="42.47798" lon="8.87806">
        <ele>1331.4</ele>
        <time>2015-07-02T05:57:00Z</time>
      </trkpt>
      <trkpt lat="42.478" lon="8.87805">
        <ele>1331</ele>
        <time>2015-07-02T05:57:04Z</time>
      </trkpt>
      <trkpt lat="42.47798" lon="8.87803">
        <ele>1329.4</ele>
        <time>2015-07-02T05:57:11Z</time>
      </trkpt>
      <trkpt lat="42.47798" lon="8.87804">
        <ele>1328.8</ele>
        <time>2015-07-02T05:57:20Z</time>
      </trkpt>
      <trkpt lat="42.47801" lon="8.87805">
        <ele>1328.2</ele>
        <time>2015-07-02T05:57:27Z</time>
      </trkpt>
      <trkpt lat="42.47805" lon="8.87807">
        <ele>1326.6</ele>
        <time>2015-07-02T05:57:41Z</time>
      </trkpt>
      <trkpt lat="42.47802" lon="8.87809">
        <ele>1326.2</ele>
        <time>2015-07-02T05:57:48Z</time>
      </trkpt>
      <trkpt lat="42.47801" lon="8.87811">
        <ele>1324.2</ele>
        <time>2015-07-02T05:57:59Z</time>
      </trkpt>
      <trkpt lat="42.47799" lon="8.87814">
        <ele>1323.4</ele>
        <time>2015-07-02T05:58:09Z</time>
      </trkpt>
      <trkpt lat="42.478" lon="8.87815">
        <ele>1322.8</ele>
        <time>2015-07-02T05:58:15Z</time>
      </trkpt>
      <trkpt lat="42.47799" lon="8.87818">
        <ele>1321.8</ele>
        <time>2015-07-02T05:58:20Z</time>
      </trkpt>
      <trkpt lat="42.47802" lon="8.87819">
        <ele>1320.4</ele>
        <time>2015-07-02T05:58:26Z</time>
      </trkpt>
      <trkpt lat="42.47806" lon="8.87818">
        <ele>1318.8</ele>
        <time>2015-07-02T05:58:36Z</time>
      </trkpt>
      <trkpt lat="42.47806" lon="8.87818">
        <ele>1318.8</ele>
        <time>2015-07-02T05:58:37Z</time>
      </trkpt>
      <trkpt lat="42.47803" lon="8.87816">
        <ele>1317.6</ele>
        <time>2015-07-02T05:58:47Z</time>
      </trkpt>
      <trkpt lat="42.47806" lon="8.87814">
        <ele>1317</ele>
        <time>2015-07-02T05:58:53Z</time>
      </trkpt>
      <trkpt lat="42.47807" lon="8.87812">
        <ele>1316.4</ele>
        <time>2015-07-02T05:58:56Z</time>
      </trkpt>
      <trkpt lat="42.47809" lon="8.87809">
        <ele>1315.6</ele>
        <time>2015-07-02T05:59:00Z</time>
      </trkpt>
      <trkpt lat="42.47813" lon="8.87805">
        <ele>1313.4</ele>
        <time>2015-07-02T05:59:07Z</time>
      </trkpt>
      <trkpt lat="42.47819" lon="8.87797">
        <ele>1312</ele>
        <time>2015-07-02T05:59:27Z</time>
      </trkpt>
      <trkpt lat="42.47824" lon="8.87796">
        <ele>1311.4</ele>
        <time>2015-07-02T05:59:34Z</time>
      </trkpt>
      <trkpt lat="42.47832" lon="8.87793">
        <ele>1309.4</ele>
        <time>2015-07-02T05:59:45Z</time>
      </trkpt>
      <trkpt lat="42.47845" lon="8.87791">
        <ele>1309</ele>
        <time>2015-07-02T06:00:17Z</time>
      </trkpt>
      <trkpt lat="42.47845" lon="8.87781">
        <ele>1307.2</ele>
        <time>2015-07-02T06:00:39Z</time>
      </trkpt>
      <trkpt lat="42.47856" lon="8.87775">
        <ele>1306.6</ele>
        <time>2015-07-02T06:01:02Z</time>
      </trkpt>
      <trkpt lat="42.47859" lon="8.87774">
        <ele>1306.6</ele>
        <time>2015-07-02T06:01:05Z</time>
      </trkpt>
      <trkpt lat="42.47865" lon="8.87775">
        <ele>1306.8</ele>
        <time>2015-07-02T06:01:11Z</time>
      </trkpt>
      <trkpt lat="42.47868" lon="8.87774">
        <ele>1307</ele>
        <time>2015-07-02T06:01:15Z</time>
      </trkpt>
      <trkpt lat="42.47874" lon="8.8777">
        <ele>1307.2</ele>
        <time>2015-07-02T06:01:22Z</time>
      </trkpt>
      <trkpt lat="42.47878" lon="8.87771">
        <ele>1307.6</ele>
        <time>2015-07-02T06:01:26Z</time>
      </trkpt>
      <trkpt lat="42.4788" lon="8.8777">
        <ele>1307.8</ele>
        <time>2015-07-02T06:01:28Z</time>
      </trkpt>
      <trkpt lat="42.47889" lon="8.87763">
        <ele>1308.2</ele>
        <time>2015-07-02T06:01:43Z</time>
      </trkpt>
      <trkpt lat="42.47896" lon="8.87762">
        <ele>1306.4</ele>
        <time>2015-07-02T06:01:52Z</time>
      </trkpt>
      <trkpt lat="42.47899" lon="8.87763">
        <ele>1305.6</ele>
        <time>2015-07-02T06:01:58Z</time>
      </trkpt>
      <trkpt lat="42.47902" lon="8.87765">
        <ele>1304.8</ele>
        <time>2015-07-02T06:02:02Z</time>
      </trkpt>
      <trkpt lat="42.47904" lon="8.87764">
        <ele>1303.8</ele>
        <time>2015-07-02T06:02:06Z</time>
      </trkpt>
      <trkpt lat="42.47909" lon="8.87763">
        <ele>1302.4</ele>
        <time>2015-07-02T06:02:11Z</time>
      </trkpt>
      <trkpt lat="42.47912" lon="8.87762">
        <ele>1301.4</ele>
        <time>2015-07-02T06:02:15Z</time>
      </trkpt>
      <trkpt lat="42.47916" lon="8.8776">
        <ele>1299.8</ele>
        <time>2015-07-02T06:02:20Z</time>
      </trkpt>
      <trkpt lat="42.47923" lon="8.87755">
        <ele>1298</ele>
        <time>2015-07-02T06:02:30Z</time>
      </trkpt>
      <trkpt lat="42.47927" lon="8.87754">
        <ele>1297.2</ele>
        <time>2015-07-02T06:02:36Z</time>
      </trkpt>
      <trkpt lat="42.47934" lon="8.87748">
        <ele>1295.6</ele>
        <time>2015-07-02T06:02:45Z</time>
      </trkpt>
      <trkpt lat="42.47937" lon="8.87747">
        <ele>1294.8</ele>
        <time>2015-07-02T06:02:52Z</time>
      </trkpt>
      <trkpt lat="42.47939" lon="8.87746">
        <ele>1294.4</ele>
        <time>2015-07-02T06:02:54Z</time>
      </trkpt>
      <trkpt lat="42.47942" lon="8.87744">
        <ele>1294</ele>
        <time>2015-07-02T06:02:58Z</time>
      </trkpt>
      <trkpt lat="42.47947" lon="8.8774">
        <ele>1292.6</ele>
        <time>2015-07-02T06:03:06Z</time>
      </trkpt>
      <trkpt lat="42.4795" lon="8.87737">
        <ele>1291.8</ele>
        <time>2015-07-02T06:03:11Z</time>
      </trkpt>
      <trkpt lat="42.47952" lon="8.87732">
        <ele>1290.6</ele>
        <time>2015-07-02T06:03:16Z</time>
      </trkpt>
      <trkpt lat="42.47954" lon="8.87728">
        <ele>1289.4</ele>
        <time>2015-07-02T06:03:21Z</time>
      </trkpt>
      <trkpt lat="42.47956" lon="8.87733">
        <ele>1288</ele>
        <time>2015-07-02T06:03:27Z</time>
      </trkpt>
      <trkpt lat="42.47959" lon="8.87734">
        <ele>1287.2</ele>
        <time>2015-07-02T06:03:32Z</time>
      </trkpt>
      <trkpt lat="42.47963" lon="8.8773">
        <ele>1286</ele>
        <time>2015-07-02T06:03:37Z</time>
      </trkpt>
      <trkpt lat="42.47967" lon="8.87725">
        <ele>1284.8</ele>
        <time>2015-07-02T06:03:43Z</time>
      </trkpt>
      <trkpt lat="42.47971" lon="8.87725">
        <ele>1283.6</ele>
        <time>2015-07-02T06:03:48Z</time>
      </trkpt>
      <trkpt lat="42.47974" lon="8.87723">
        <ele>1282.4</ele>
        <time>2015-07-02T06:03:53Z</time>
      </trkpt>
      <trkpt lat="42.47976" lon="8.87718">
        <ele>1281.4</ele>
        <time>2015-07-02T06:03:59Z</time>
      </trkpt>
      <trkpt lat="42.47978" lon="8.87715">
        <ele>1280</ele>
        <time>2015-07-02T06:04:05Z</time>
      </trkpt>
      <trkpt lat="42.47981" lon="8.87716">
        <ele>1279.2</ele>
        <time>2015-07-02T06:04:09Z</time>
      </trkpt>
      <trkpt lat="42.47982" lon="8.87717">
        <ele>1279</ele>
        <time>2015-07-02T06:04:10Z</time>
      </trkpt>
      <trkpt lat="42.47986" lon="8.87718">
        <ele>1277.6</ele>
        <time>2015-07-02T06:04:16Z</time>
      </trkpt>
      <trkpt lat="42.47988" lon="8.87716">
        <ele>1276.6</ele>
        <time>2015-07-02T06:04:21Z</time>
      </trkpt>
      <trkpt lat="42.47989" lon="8.87716">
        <ele>1275.6</ele>
        <time>2015-07-02T06:04:26Z</time>
      </trkpt>
      <trkpt lat="42.47992" lon="8.87714">
        <ele>1274.6</ele>
        <time>2015-07-02T06:04:31Z</time>
      </trkpt>
      <trkpt lat="42.47995" lon="8.87713">
        <ele>1273.4</ele>
        <time>2015-07-02T06:04:36Z</time>
      </trkpt>
      <trkpt lat="42.48" lon="8.87712">
        <ele>1272.2</ele>
        <time>2015-07-02T06:04:41Z</time>
      </trkpt>
      <trkpt lat="42.48001" lon="8.87715">
        <ele>1271.8</ele>
        <time>2015-07-02T06:04:44Z</time>
      </trkpt>
      <trkpt lat="42.48002" lon="8.87717">
        <ele>1271.6</ele>
        <time>2015-07-02T06:04:45Z</time>
      </trkpt>
      <trkpt lat="42.48002" lon="8.87723">
        <ele>1270.2</ele>
        <time>2015-07-02T06:04:49Z</time>
      </trkpt>
      <trkpt lat="42.48002" lon="8.87727">
        <ele>1269.6</ele>
        <time>2015-07-02T06:04:51Z</time>
      </trkpt>
      <trkpt lat="42.48002" lon="8.87731">
        <ele>1268.4</ele>
        <time>2015-07-02T06:04:56Z</time>
      </trkpt>
      <trkpt lat="42.48006" lon="8.87736">
        <ele>1267.8</ele>
        <time>2015-07-02T06:05:01Z</time>
      </trkpt>
      <trkpt lat="42.48007" lon="8.87737">
        <ele>1267.6</ele>
        <time>2015-07-02T06:05:02Z</time>
      </trkpt>
      <trkpt lat="42.48011" lon="8.87741">
        <ele>1267</ele>
        <time>2015-07-02T06:05:06Z</time>
      </trkpt>
      <trkpt lat="42.48013" lon="8.87741">
        <ele>1266.8</ele>
        <time>2015-07-02T06:05:07Z</time>
      </trkpt>
      <trkpt lat="42.48013" lon="8.87742">
        <ele>1266.4</ele>
        <time>2015-07-02T06:05:08Z</time>
      </trkpt>
      <trkpt lat="42.48014" lon="8.87745">
        <ele>1265.2</ele>
        <time>2015-07-02T06:05:13Z</time>
      </trkpt>
      <trkpt lat="42.48015" lon="8.87748">
        <ele>1264.4</ele>
        <time>2015-07-02T06:05:17Z</time>
      </trkpt>
      <trkpt lat="42.48014" lon="8.87753">
        <ele>1263.6</ele>
        <time>2015-07-02T06:05:23Z</time>
      </trkpt>
      <trkpt lat="42.48016" lon="8.87754">
        <ele>1263.6</ele>
        <time>2015-07-02T06:05:25Z</time>
      </trkpt>
      <trkpt lat="42.48016" lon="8.87756">
        <ele>1263.4</ele>
        <time>2015-07-02T06:05:27Z</time>
      </trkpt>
      <trkpt lat="42.48017" lon="8.87758">
        <ele>1262.8</ele>
        <time>2015-07-02T06:05:29Z</time>
      </trkpt>
      <trkpt lat="42.48016" lon="8.8776">
        <ele>1262.4</ele>
        <time>2015-07-02T06:05:31Z</time>
      </trkpt>
      <trkpt lat="42.48014" lon="8.8776">
        <ele>1261.4</ele>
        <time>2015-07-02T06:05:36Z</time>
      </trkpt>
      <trkpt lat="42.48015" lon="8.87756">
        <ele>1260.6</ele>
        <time>2015-07-02T06:05:41Z</time>
      </trkpt>
      <trkpt lat="42.48016" lon="8.87754">
        <ele>1260.6</ele>
        <time>2015-07-02T06:05:42Z</time>
      </trkpt>
      <trkpt lat="42.48016" lon="8.87752">
        <ele>1259.2</ele>
        <time>2015-07-02T06:05:49Z</time>
      </trkpt>
      <trkpt lat="42.48015" lon="8.87749">
        <ele>1258.6</ele>
        <time>2015-07-02T06:05:54Z</time>
      </trkpt>
      <trkpt lat="42.48015" lon="8.87736">
        <ele>1256.2</ele>
        <time>2015-07-02T06:06:06Z</time>
      </trkpt>
      <trkpt lat="42.48017" lon="8.87733">
        <ele>1256</ele>
        <time>2015-07-02T06:06:11Z</time>
      </trkpt>
      <trkpt lat="42.48017" lon="8.8773">
        <ele>1255.8</ele>
        <time>2015-07-02T06:06:17Z</time>
      </trkpt>
      <trkpt lat="42.48019" lon="8.87724">
        <ele>1254.6</ele>
        <time>2015-07-02T06:06:24Z</time>
      </trkpt>
      <trkpt lat="42.48026" lon="8.87729">
        <ele>1253.6</ele>
        <time>2015-07-02T06:07:08Z</time>
      </trkpt>
      <trkpt lat="42.48023" lon="8.87729">
        <ele>1253.6</ele>
        <time>2015-07-02T06:07:13Z</time>
      </trkpt>
      <trkpt lat="42.48032" lon="8.87731">
        <ele>1253.6</ele>
        <time>2015-07-02T06:07:56Z</time>
      </trkpt>
      <trkpt lat="42.48023" lon="8.87729">
        <ele>1253.2</ele>
        <time>2015-07-02T06:08:04Z</time>
      </trkpt>
      <trkpt lat="42.48026" lon="8.87729">
        <ele>1253.4</ele>
        <time>2015-07-02T06:08:10Z</time>
      </trkpt>
      <trkpt lat="42.48028" lon="8.8773">
        <ele>1253.2</ele>
        <time>2015-07-02T06:08:12Z</time>
      </trkpt>
      <trkpt lat="42.48029" lon="8.87731">
        <ele>1253.6</ele>
        <time>2015-07-02T06:08:18Z</time>
      </trkpt>
      <trkpt lat="42.48025" lon="8.87725">
        <ele>1253.2</ele>
        <time>2015-07-02T06:08:44Z</time>
      </trkpt>
      <trkpt lat="42.48027" lon="8.87728">
        <ele>1253.4</ele>
        <time>2015-07-02T06:08:47Z</time>
      </trkpt>
      <trkpt lat="42.48033" lon="8.8773">
        <ele>1253.4</ele>
        <time>2015-07-02T06:08:51Z</time>
      </trkpt>
      <trkpt lat="42.48034" lon="8.87729">
        <ele>1253.4</ele>
        <time>2015-07-02T06:08:52Z</time>
      </trkpt>
      <trkpt lat="42.48045" lon="8.87722">
        <ele>1253.6</ele>
        <time>2015-07-02T06:09:04Z</time>
      </trkpt>
      <trkpt lat="42.48028" lon="8.87736">
        <ele>1253.6</ele>
        <time>2015-07-02T06:10:14Z</time>
      </trkpt>
      <trkpt lat="42.48024" lon="8.87736">
        <ele>1253.6</ele>
        <time>2015-07-02T06:10:18Z</time>
      </trkpt>
      <trkpt lat="42.48022" lon="8.87735">
        <ele>1253.4</ele>
        <time>2015-07-02T06:10:20Z</time>
      </trkpt>
      <trkpt lat="42.48023" lon="8.87732">
        <ele>1253.6</ele>
        <time>2015-07-02T06:10:23Z</time>
      </trkpt>
      <trkpt lat="42.48026" lon="8.87728">
        <ele>1253.6</ele>
        <time>2015-07-02T06:10:25Z</time>
      </trkpt>
      <trkpt lat="42.48027" lon="8.87723">
        <ele>1253.4</ele>
        <time>2015-07-02T06:10:28Z</time>
      </trkpt>
      <trkpt lat="42.48029" lon="8.87719">
        <ele>1253.4</ele>
        <time>2015-07-02T06:10:31Z</time>
      </trkpt>
      <trkpt lat="42.4803" lon="8.87717">
        <ele>1253.6</ele>
        <time>2015-07-02T06:10:33Z</time>
      </trkpt>
      <trkpt lat="42.48032" lon="8.87716">
        <ele>1253.4</ele>
        <time>2015-07-02T06:10:35Z</time>
      </trkpt>
      <trkpt lat="42.48042" lon="8.87708">
        <ele>1254.2</ele>
        <time>2015-07-02T06:10:48Z</time>
      </trkpt>
      <trkpt lat="42.48049" lon="8.87706">
        <ele>1254.2</ele>
        <time>2015-07-02T06:10:58Z</time>
      </trkpt>
      <trkpt lat="42.48055" lon="8.87705">
        <ele>1254.4</ele>
        <time>2015-07-02T06:11:04Z</time>
      </trkpt>
      <trkpt lat="42.48058" lon="8.87704">
        <ele>1254.4</ele>
        <time>2015-07-02T06:11:07Z</time>
      </trkpt>
      <trkpt lat="42.48082" lon="8.87679">
        <ele>1254.8</ele>
        <time>2015-07-02T06:11:52Z</time>
      </trkpt>
      <trkpt lat="42.48087" lon="8.87679">
        <ele>1255.2</ele>
        <time>2015-07-02T06:11:57Z</time>
      </trkpt>
      <trkpt lat="42.48091" lon="8.87679">
        <ele>1255.6</ele>
        <time>2015-07-02T06:12:00Z</time>
      </trkpt>
      <trkpt lat="42.48091" lon="8.8768">
        <ele>1255.6</ele>
        <time>2015-07-02T06:12:02Z</time>
      </trkpt>
      <trkpt lat="42.48097" lon="8.87676">
        <ele>1255.8</ele>
        <time>2015-07-02T06:12:15Z</time>
      </trkpt>
      <trkpt lat="42.48097" lon="8.87673">
        <ele>1255.8</ele>
        <time>2015-07-02T06:12:18Z</time>
      </trkpt>
      <trkpt lat="42.48098" lon="8.87671">
        <ele>1256</ele>
        <time>2015-07-02T06:12:20Z</time>
      </trkpt>
      <trkpt lat="42.48093" lon="8.8767">
        <ele>1256.2</ele>
        <time>2015-07-02T06:12:23Z</time>
      </trkpt>
      <trkpt lat="42.48089" lon="8.87669">
        <ele>1256.6</ele>
        <time>2015-07-02T06:12:25Z</time>
      </trkpt>
      <trkpt lat="42.48088" lon="8.87668">
        <ele>1256.6</ele>
        <time>2015-07-02T06:12:26Z</time>
      </trkpt>
      <trkpt lat="42.48085" lon="8.87665">
        <ele>1258</ele>
        <time>2015-07-02T06:12:34Z</time>
      </trkpt>
      <trkpt lat="42.48083" lon="8.87659">
        <ele>1258.8</ele>
        <time>2015-07-02T06:12:46Z</time>
      </trkpt>
      <trkpt lat="42.48083" lon="8.87658">
        <ele>1258.8</ele>
        <time>2015-07-02T06:12:47Z</time>
      </trkpt>
      <trkpt lat="42.48086" lon="8.87654">
        <ele>1260</ele>
        <time>2015-07-02T06:12:55Z</time>
      </trkpt>
      <trkpt lat="42.48087" lon="8.87651">
        <ele>1261</ele>
        <time>2015-07-02T06:13:02Z</time>
      </trkpt>
      <trkpt lat="42.4809" lon="8.87649">
        <ele>1261.4</ele>
        <time>2015-07-02T06:13:04Z</time>
      </trkpt>
      <trkpt lat="42.48093" lon="8.87648">
        <ele>1261.8</ele>
        <time>2015-07-02T06:13:06Z</time>
      </trkpt>
      <trkpt lat="42.48097" lon="8.87647">
        <ele>1262.2</ele>
        <time>2015-07-02T06:13:10Z</time>
      </trkpt>
      <trkpt lat="42.48098" lon="8.87647">
        <ele>1262.6</ele>
        <time>2015-07-02T06:13:12Z</time>
      </trkpt>
      <trkpt lat="42.481" lon="8.87646">
        <ele>1263.2</ele>
        <time>2015-07-02T06:13:17Z</time>
      </trkpt>
      <trkpt lat="42.48104" lon="8.87645">
        <ele>1264</ele>
        <time>2015-07-02T06:13:21Z</time>
      </trkpt>
      <trkpt lat="42.48106" lon="8.87644">
        <ele>1264.2</ele>
        <time>2015-07-02T06:13:24Z</time>
      </trkpt>
      <trkpt lat="42.48108" lon="8.87643">
        <ele>1264.6</ele>
        <time>2015-07-02T06:13:27Z</time>
      </trkpt>
      <trkpt lat="42.4811" lon="8.87643">
        <ele>1265.2</ele>
        <time>2015-07-02T06:13:31Z</time>
      </trkpt>
      <trkpt lat="42.4811" lon="8.87643">
        <ele>1265.4</ele>
        <time>2015-07-02T06:13:34Z</time>
      </trkpt>
      <trkpt lat="42.48111" lon="8.8764">
        <ele>1266.8</ele>
        <time>2015-07-02T06:13:43Z</time>
      </trkpt>
      <trkpt lat="42.48111" lon="8.87636">
        <ele>1268.2</ele>
        <time>2015-07-02T06:13:52Z</time>
      </trkpt>
      <trkpt lat="42.48114" lon="8.87632">
        <ele>1269.2</ele>
        <time>2015-07-02T06:14:00Z</time>
      </trkpt>
      <trkpt lat="42.48119" lon="8.87628">
        <ele>1270.2</ele>
        <time>2015-07-02T06:14:09Z</time>
      </trkpt>
      <trkpt lat="42.48121" lon="8.87625">
        <ele>1271.4</ele>
        <time>2015-07-02T06:14:17Z</time>
      </trkpt>
      <trkpt lat="42.48148" lon="8.87589">
        <ele>1272.6</ele>
        <time>2015-07-02T06:15:09Z</time>
      </trkpt>
      <trkpt lat="42.48155" lon="8.87573">
        <ele>1271.4</ele>
        <time>2015-07-02T06:15:29Z</time>
      </trkpt>
      <trkpt lat="42.48156" lon="8.87571">
        <ele>1270.4</ele>
        <time>2015-07-02T06:15:49Z</time>
      </trkpt>
      <trkpt lat="42.48167" lon="8.87563">
        <ele>1270</ele>
        <time>2015-07-02T06:16:29Z</time>
      </trkpt>
      <trkpt lat="42.48169" lon="8.87561">
        <ele>1269.6</ele>
        <time>2015-07-02T06:16:32Z</time>
      </trkpt>
      <trkpt lat="42.4817" lon="8.87556">
        <ele>1269</ele>
        <time>2015-07-02T06:16:36Z</time>
      </trkpt>
      <trkpt lat="42.48173" lon="8.8755">
        <ele>1268.2</ele>
        <time>2015-07-02T06:16:42Z</time>
      </trkpt>
      <trkpt lat="42.48173" lon="8.87549">
        <ele>1267.8</ele>
        <time>2015-07-02T06:16:43Z</time>
      </trkpt>
      <trkpt lat="42.48173" lon="8.87546">
        <ele>1267.2</ele>
        <time>2015-07-02T06:16:47Z</time>
      </trkpt>
      <trkpt lat="42.48173" lon="8.87541">
        <ele>1265.2</ele>
        <time>2015-07-02T06:17:04Z</time>
      </trkpt>
      <trkpt lat="42.48172" lon="8.87536">
        <ele>1265</ele>
        <time>2015-07-02T06:17:08Z</time>
      </trkpt>
      <trkpt lat="42.48173" lon="8.87532">
        <ele>1264.2</ele>
        <time>2015-07-02T06:17:12Z</time>
      </trkpt>
      <trkpt lat="42.48172" lon="8.87528">
        <ele>1262.6</ele>
        <time>2015-07-02T06:17:17Z</time>
      </trkpt>
      <trkpt lat="42.48169" lon="8.87526">
        <ele>1261.8</ele>
        <time>2015-07-02T06:17:21Z</time>
      </trkpt>
      <trkpt lat="42.48168" lon="8.87522">
        <ele>1260.8</ele>
        <time>2015-07-02T06:17:25Z</time>
      </trkpt>
      <trkpt lat="42.48167" lon="8.87518">
        <ele>1259.6</ele>
        <time>2015-07-02T06:17:29Z</time>
      </trkpt>
      <trkpt lat="42.48164" lon="8.87516">
        <ele>1258.6</ele>
        <time>2015-07-02T06:17:33Z</time>
      </trkpt>
      <trkpt lat="42.4816" lon="8.87513">
        <ele>1257.2</ele>
        <time>2015-07-02T06:17:39Z</time>
      </trkpt>
      <trkpt lat="42.48156" lon="8.8751">
        <ele>1256.2</ele>
        <time>2015-07-02T06:17:44Z</time>
      </trkpt>
      <trkpt lat="42.4815" lon="8.87509">
        <ele>1255</ele>
        <time>2015-07-02T06:17:50Z</time>
      </trkpt>
      <trkpt lat="42.48146" lon="8.87508">
        <ele>1253.8</ele>
        <time>2015-07-02T06:17:56Z</time>
      </trkpt>
      <trkpt lat="42.48141" lon="8.87506">
        <ele>1252.8</ele>
        <time>2015-07-02T06:18:02Z</time>
      </trkpt>
      <trkpt lat="42.48135" lon="8.87506">
        <ele>1251.6</ele>
        <time>2015-07-02T06:18:08Z</time>
      </trkpt>
      <trkpt lat="42.48131" lon="8.87503">
        <ele>1250.6</ele>
        <time>2015-07-02T06:18:13Z</time>
      </trkpt>
      <trkpt lat="42.48127" lon="8.875">
        <ele>1249.8</ele>
        <time>2015-07-02T06:18:18Z</time>
      </trkpt>
      <trkpt lat="42.48123" lon="8.87497">
        <ele>1248.6</ele>
        <time>2015-07-02T06:18:23Z</time>
      </trkpt>
      <trkpt lat="42.48118" lon="8.87495">
        <ele>1247.2</ele>
        <time>2015-07-02T06:18:29Z</time>
      </trkpt>
      <trkpt lat="42.48111" lon="8.87492">
        <ele>1246</ele>
        <time>2015-07-02T06:18:37Z</time>
      </trkpt>
      <trkpt lat="42.48107" lon="8.87492">
        <ele>1245.4</ele>
        <time>2015-07-02T06:18:42Z</time>
      </trkpt>
      <trkpt lat="42.48107" lon="8.87491">
        <ele>1245</ele>
        <time>2015-07-02T06:18:43Z</time>
      </trkpt>
      <trkpt lat="42.48104" lon="8.87488">
        <ele>1244.2</ele>
        <time>2015-07-02T06:18:47Z</time>
      </trkpt>
      <trkpt lat="42.48101" lon="8.87486">
        <ele>1243.4</ele>
        <time>2015-07-02T06:18:51Z</time>
      </trkpt>
      <trkpt lat="42.48097" lon="8.87485">
        <ele>1241.6</ele>
        <time>2015-07-02T06:18:57Z</time>
      </trkpt>
      <trkpt lat="42.48092" lon="8.87477">
        <ele>1240</ele>
        <time>2015-07-02T06:19:29Z</time>
      </trkpt>
      <trkpt lat="42.48089" lon="8.87474">
        <ele>1239.6</ele>
        <time>2015-07-02T06:19:34Z</time>
      </trkpt>
      <trkpt lat="42.48087" lon="8.8747">
        <ele>1238.2</ele>
        <time>2015-07-02T06:19:40Z</time>
      </trkpt>
      <trkpt lat="42.48083" lon="8.87467">
        <ele>1237.2</ele>
        <time>2015-07-02T06:19:46Z</time>
      </trkpt>
      <trkpt lat="42.48082" lon="8.87465">
        <ele>1236</ele>
        <time>2015-07-02T06:19:52Z</time>
      </trkpt>
      <trkpt lat="42.48077" lon="8.8746">
        <ele>1234.2</ele>
        <time>2015-07-02T06:20:01Z</time>
      </trkpt>
      <trkpt lat="42.48073" lon="8.87458">
        <ele>1234</ele>
        <time>2015-07-02T06:20:05Z</time>
      </trkpt>
      <trkpt lat="42.48066" lon="8.87455">
        <ele>1232.6</ele>
        <time>2015-07-02T06:20:11Z</time>
      </trkpt>
      <trkpt lat="42.48059" lon="8.87451">
        <ele>1231.2</ele>
        <time>2015-07-02T06:20:18Z</time>
      </trkpt>
      <trkpt lat="42.48055" lon="8.8745">
        <ele>1230.6</ele>
        <time>2015-07-02T06:20:22Z</time>
      </trkpt>
      <trkpt lat="42.48052" lon="8.87442">
        <ele>1229.6</ele>
        <time>2015-07-02T06:20:28Z</time>
      </trkpt>
      <trkpt lat="42.48048" lon="8.87435">
        <ele>1229.4</ele>
        <time>2015-07-02T06:20:33Z</time>
      </trkpt>
      <trkpt lat="42.48044" lon="8.8743">
        <ele>1227.6</ele>
        <time>2015-07-02T06:20:40Z</time>
      </trkpt>
      <trkpt lat="42.4804" lon="8.87428">
        <ele>1226.8</ele>
        <time>2015-07-02T06:20:46Z</time>
      </trkpt>
      <trkpt lat="42.48026" lon="8.87414">
        <ele>1225.2</ele>
        <time>2015-07-02T06:21:11Z</time>
      </trkpt>
      <trkpt lat="42.48021" lon="8.87408">
        <ele>1224.2</ele>
        <time>2015-07-02T06:21:18Z</time>
      </trkpt>
      <trkpt lat="42.48019" lon="8.87404">
        <ele>1223.8</ele>
        <time>2015-07-02T06:21:23Z</time>
      </trkpt>
      <trkpt lat="42.48018" lon="8.87401">
        <ele>1223</ele>
        <time>2015-07-02T06:21:27Z</time>
      </trkpt>
      <trkpt lat="42.48016" lon="8.87398">
        <ele>1221.8</ele>
        <time>2015-07-02T06:21:31Z</time>
      </trkpt>
      <trkpt lat="42.48015" lon="8.87396">
        <ele>1221.4</ele>
        <time>2015-07-02T06:21:33Z</time>
      </trkpt>
      <trkpt lat="42.48016" lon="8.87392">
        <ele>1220.6</ele>
        <time>2015-07-02T06:21:37Z</time>
      </trkpt>
      <trkpt lat="42.48017" lon="8.87392">
        <ele>1220.2</ele>
        <time>2015-07-02T06:21:38Z</time>
      </trkpt>
      <trkpt lat="42.48017" lon="8.87391">
        <ele>1220</ele>
        <time>2015-07-02T06:21:40Z</time>
      </trkpt>
      <trkpt lat="42.48017" lon="8.8739">
        <ele>1219.4</ele>
        <time>2015-07-02T06:21:42Z</time>
      </trkpt>
      <trkpt lat="42.48017" lon="8.87387">
        <ele>1218.6</ele>
        <time>2015-07-02T06:21:46Z</time>
      </trkpt>
      <trkpt lat="42.48019" lon="8.87386">
        <ele>1217.4</ele>
        <time>2015-07-02T06:21:51Z</time>
      </trkpt>
      <trkpt lat="42.48023" lon="8.87386">
        <ele>1216.2</ele>
        <time>2015-07-02T06:21:56Z</time>
      </trkpt>
      <trkpt lat="42.48024" lon="8.87385">
        <ele>1215</ele>
        <time>2015-07-02T06:22:02Z</time>
      </trkpt>
      <trkpt lat="42.48026" lon="8.87382">
        <ele>1213.8</ele>
        <time>2015-07-02T06:22:08Z</time>
      </trkpt>
      <trkpt lat="42.48027" lon="8.87381">
        <ele>1213.2</ele>
        <time>2015-07-02T06:22:12Z</time>
      </trkpt>
      <trkpt lat="42.48026" lon="8.8738">
        <ele>1211.8</ele>
        <time>2015-07-02T06:22:17Z</time>
      </trkpt>
      <trkpt lat="42.48025" lon="8.87378">
        <ele>1210.6</ele>
        <time>2015-07-02T06:22:22Z</time>
      </trkpt>
      <trkpt lat="42.48025" lon="8.87375">
        <ele>1209.6</ele>
        <time>2015-07-02T06:22:28Z</time>
      </trkpt>
      <trkpt lat="42.48024" lon="8.87372">
        <ele>1208.8</ele>
        <time>2015-07-02T06:22:32Z</time>
      </trkpt>
      <trkpt lat="42.48022" lon="8.87369">
        <ele>1207.6</ele>
        <time>2015-07-02T06:22:37Z</time>
      </trkpt>
      <trkpt lat="42.4802" lon="8.87366">
        <ele>1206.4</ele>
        <time>2015-07-02T06:22:42Z</time>
      </trkpt>
      <trkpt lat="42.48019" lon="8.87362">
        <ele>1205.6</ele>
        <time>2015-07-02T06:22:46Z</time>
      </trkpt>
      <trkpt lat="42.48018" lon="8.87356">
        <ele>1203.8</ele>
        <time>2015-07-02T06:22:53Z</time>
      </trkpt>
      <trkpt lat="42.48022" lon="8.87352">
        <ele>1203.2</ele>
        <time>2015-07-02T06:22:58Z</time>
      </trkpt>
      <trkpt lat="42.48026" lon="8.87349">
        <ele>1201.4</ele>
        <time>2015-07-02T06:23:05Z</time>
      </trkpt>
      <trkpt lat="42.48031" lon="8.87348">
        <ele>1200.4</ele>
        <time>2015-07-02T06:23:11Z</time>
      </trkpt>
      <trkpt lat="42.48036" lon="8.87348">
        <ele>1199.4</ele>
        <time>2015-07-02T06:23:16Z</time>
      </trkpt>
      <trkpt lat="42.4804" lon="8.8735">
        <ele>1198.4</ele>
        <time>2015-07-02T06:23:21Z</time>
      </trkpt>
      <trkpt lat="42.48046" lon="8.87354">
        <ele>1196.8</ele>
        <time>2015-07-02T06:23:28Z</time>
      </trkpt>
      <trkpt lat="42.48052" lon="8.87355">
        <ele>1196</ele>
        <time>2015-07-02T06:23:33Z</time>
      </trkpt>
      <trkpt lat="42.48057" lon="8.87358">
        <ele>1194.6</ele>
        <time>2015-07-02T06:23:39Z</time>
      </trkpt>
      <trkpt lat="42.48062" lon="8.87361">
        <ele>1193.2</ele>
        <time>2015-07-02T06:23:47Z</time>
      </trkpt>
      <trkpt lat="42.48065" lon="8.8736">
        <ele>1192.8</ele>
        <time>2015-07-02T06:23:52Z</time>
      </trkpt>
      <trkpt lat="42.48068" lon="8.8736">
        <ele>1192</ele>
        <time>2015-07-02T06:23:56Z</time>
      </trkpt>
      <trkpt lat="42.48069" lon="8.87361">
        <ele>1191.8</ele>
        <time>2015-07-02T06:23:57Z</time>
      </trkpt>
      <trkpt lat="42.48072" lon="8.8736">
        <ele>1190.6</ele>
        <time>2015-07-02T06:24:01Z</time>
      </trkpt>
      <trkpt lat="42.48075" lon="8.87361">
        <ele>1189.6</ele>
        <time>2015-07-02T06:24:06Z</time>
      </trkpt>
      <trkpt lat="42.48088" lon="8.87363">
        <ele>1187.8</ele>
        <time>2015-07-02T06:24:21Z</time>
      </trkpt>
      <trkpt lat="42.48089" lon="8.87363">
        <ele>1187.8</ele>
        <time>2015-07-02T06:24:22Z</time>
      </trkpt>
      <trkpt lat="42.48093" lon="8.87362">
        <ele>1187.2</ele>
        <time>2015-07-02T06:24:27Z</time>
      </trkpt>
      <trkpt lat="42.48097" lon="8.87362">
        <ele>1186.6</ele>
        <time>2015-07-02T06:24:31Z</time>
      </trkpt>
      <trkpt lat="42.48101" lon="8.8736">
        <ele>1185.4</ele>
        <time>2015-07-02T06:24:36Z</time>
      </trkpt>
      <trkpt lat="42.48105" lon="8.8736">
        <ele>1184.6</ele>
        <time>2015-07-02T06:24:40Z</time>
      </trkpt>
      <trkpt lat="42.48109" lon="8.87362">
        <ele>1183</ele>
        <time>2015-07-02T06:24:45Z</time>
      </trkpt>
      <trkpt lat="42.48114" lon="8.87363">
        <ele>1181.6</ele>
        <time>2015-07-02T06:24:52Z</time>
      </trkpt>
      <trkpt lat="42.48119" lon="8.87363">
        <ele>1181.2</ele>
        <time>2015-07-02T06:24:57Z</time>
      </trkpt>
      <trkpt lat="42.48127" lon="8.87357">
        <ele>1180.4</ele>
        <time>2015-07-02T06:25:04Z</time>
      </trkpt>
      <trkpt lat="42.48133" lon="8.87352">
        <ele>1179.8</ele>
        <time>2015-07-02T06:25:10Z</time>
      </trkpt>
      <trkpt lat="42.48139" lon="8.87346">
        <ele>1178.6</ele>
        <time>2015-07-02T06:25:18Z</time>
      </trkpt>
      <trkpt lat="42.48151" lon="8.87339">
        <ele>1177.4</ele>
        <time>2015-07-02T06:25:29Z</time>
      </trkpt>
      <trkpt lat="42.48154" lon="8.87335">
        <ele>1177.2</ele>
        <time>2015-07-02T06:25:33Z</time>
      </trkpt>
      <trkpt lat="42.48159" lon="8.87329">
        <ele>1175.4</ele>
        <time>2015-07-02T06:25:41Z</time>
      </trkpt>
      <trkpt lat="42.4816" lon="8.87325">
        <ele>1175.2</ele>
        <time>2015-07-02T06:25:45Z</time>
      </trkpt>
      <trkpt lat="42.48162" lon="8.87324">
        <ele>1174.2</ele>
        <time>2015-07-02T06:25:49Z</time>
      </trkpt>
      <trkpt lat="42.48164" lon="8.8732">
        <ele>1173</ele>
        <time>2015-07-02T06:25:54Z</time>
      </trkpt>
      <trkpt lat="42.48165" lon="8.87317">
        <ele>1172.2</ele>
        <time>2015-07-02T06:25:58Z</time>
      </trkpt>
      <trkpt lat="42.48167" lon="8.87314">
        <ele>1171.2</ele>
        <time>2015-07-02T06:26:02Z</time>
      </trkpt>
      <trkpt lat="42.48169" lon="8.87312">
        <ele>1170</ele>
        <time>2015-07-02T06:26:06Z</time>
      </trkpt>
      <trkpt lat="42.4817" lon="8.87308">
        <ele>1168.4</ele>
        <time>2015-07-02T06:26:11Z</time>
      </trkpt>
      <trkpt lat="42.48168" lon="8.87302">
        <ele>1167</ele>
        <time>2015-07-02T06:26:18Z</time>
      </trkpt>
      <trkpt lat="42.48165" lon="8.87301">
        <ele>1166.2</ele>
        <time>2015-07-02T06:26:23Z</time>
      </trkpt>
      <trkpt lat="42.48167" lon="8.873">
        <ele>1165</ele>
        <time>2015-07-02T06:26:29Z</time>
      </trkpt>
      <trkpt lat="42.48168" lon="8.87297">
        <ele>1164.2</ele>
        <time>2015-07-02T06:26:34Z</time>
      </trkpt>
      <trkpt lat="42.48169" lon="8.87296">
        <ele>1163</ele>
        <time>2015-07-02T06:26:39Z</time>
      </trkpt>
      <trkpt lat="42.48174" lon="8.87293">
        <ele>1162</ele>
        <time>2015-07-02T06:26:45Z</time>
      </trkpt>
      <trkpt lat="42.48175" lon="8.87288">
        <ele>1161.2</ele>
        <time>2015-07-02T06:26:50Z</time>
      </trkpt>
      <trkpt lat="42.48176" lon="8.87286">
        <ele>1160</ele>
        <time>2015-07-02T06:26:55Z</time>
      </trkpt>
      <trkpt lat="42.48177" lon="8.87283">
        <ele>1158.8</ele>
        <time>2015-07-02T06:27:00Z</time>
      </trkpt>
      <trkpt lat="42.48178" lon="8.8728">
        <ele>1157.8</ele>
        <time>2015-07-02T06:27:05Z</time>
      </trkpt>
      <trkpt lat="42.4818" lon="8.87276">
        <ele>1156.8</ele>
        <time>2015-07-02T06:27:10Z</time>
      </trkpt>
      <trkpt lat="42.48183" lon="8.87273">
        <ele>1155.8</ele>
        <time>2015-07-02T06:27:14Z</time>
      </trkpt>
      <trkpt lat="42.48186" lon="8.87269">
        <ele>1154.4</ele>
        <time>2015-07-02T06:27:20Z</time>
      </trkpt>
      <trkpt lat="42.48188" lon="8.87265">
        <ele>1153.2</ele>
        <time>2015-07-02T06:27:26Z</time>
      </trkpt>
      <trkpt lat="42.4819" lon="8.87263">
        <ele>1152.6</ele>
        <time>2015-07-02T06:27:30Z</time>
      </trkpt>
      <trkpt lat="42.48192" lon="8.87258">
        <ele>1151.4</ele>
        <time>2015-07-02T06:27:36Z</time>
      </trkpt>
      <trkpt lat="42.48193" lon="8.87254">
        <ele>1150.4</ele>
        <time>2015-07-02T06:27:41Z</time>
      </trkpt>
      <trkpt lat="42.48195" lon="8.87251">
        <ele>1149.4</ele>
        <time>2015-07-02T06:27:46Z</time>
      </trkpt>
      <trkpt lat="42.48198" lon="8.87248">
        <ele>1148.2</ele>
        <time>2015-07-02T06:27:53Z</time>
      </trkpt>
      <trkpt lat="42.48199" lon="8.87244">
        <ele>1147.4</ele>
        <time>2015-07-02T06:27:58Z</time>
      </trkpt>
      <trkpt lat="42.482" lon="8.8724">
        <ele>1146.4</ele>
        <time>2015-07-02T06:28:03Z</time>
      </trkpt>
      <trkpt lat="42.48202" lon="8.87239">
        <ele>1145.2</ele>
        <time>2015-07-02T06:28:08Z</time>
      </trkpt>
      <trkpt lat="42.48201" lon="8.87233">
        <ele>1144</ele>
        <time>2015-07-02T06:28:14Z</time>
      </trkpt>
      <trkpt lat="42.48201" lon="8.87228">
        <ele>1143.4</ele>
        <time>2015-07-02T06:28:18Z</time>
      </trkpt>
      <trkpt lat="42.48203" lon="8.87223">
        <ele>1142.2</ele>
        <time>2015-07-02T06:28:23Z</time>
      </trkpt>
      <trkpt lat="42.48205" lon="8.8722">
        <ele>1141</ele>
        <time>2015-07-02T06:28:28Z</time>
      </trkpt>
      <trkpt lat="42.48206" lon="8.87216">
        <ele>1140</ele>
        <time>2015-07-02T06:28:33Z</time>
      </trkpt>
      <trkpt lat="42.48209" lon="8.87215">
        <ele>1139.2</ele>
        <time>2015-07-02T06:28:37Z</time>
      </trkpt>
      <trkpt lat="42.4821" lon="8.8721">
        <ele>1137.8</ele>
        <time>2015-07-02T06:28:43Z</time>
      </trkpt>
      <trkpt lat="42.48211" lon="8.87207">
        <ele>1136.8</ele>
        <time>2015-07-02T06:28:48Z</time>
      </trkpt>
      <trkpt lat="42.48214" lon="8.87203">
        <ele>1135.6</ele>
        <time>2015-07-02T06:28:54Z</time>
      </trkpt>
      <trkpt lat="42.48215" lon="8.87198">
        <ele>1134.6</ele>
        <time>2015-07-02T06:28:59Z</time>
      </trkpt>
      <trkpt lat="42.48216" lon="8.87195">
        <ele>1134</ele>
        <time>2015-07-02T06:29:03Z</time>
      </trkpt>
      <trkpt lat="42.48218" lon="8.87189">
        <ele>1132.8</ele>
        <time>2015-07-02T06:29:08Z</time>
      </trkpt>
      <trkpt lat="42.4822" lon="8.87188">
        <ele>1131.8</ele>
        <time>2015-07-02T06:29:13Z</time>
      </trkpt>
      <trkpt lat="42.48221" lon="8.87183">
        <ele>1130.4</ele>
        <time>2015-07-02T06:29:19Z</time>
      </trkpt>
      <trkpt lat="42.4822" lon="8.8718">
        <ele>1129.4</ele>
        <time>2015-07-02T06:29:24Z</time>
      </trkpt>
      <trkpt lat="42.48217" lon="8.87179">
        <ele>1128.4</ele>
        <time>2015-07-02T06:29:29Z</time>
      </trkpt>
      <trkpt lat="42.48214" lon="8.87178">
        <ele>1127.4</ele>
        <time>2015-07-02T06:29:34Z</time>
      </trkpt>
      <trkpt lat="42.4821" lon="8.87179">
        <ele>1126.4</ele>
        <time>2015-07-02T06:29:39Z</time>
      </trkpt>
      <trkpt lat="42.48205" lon="8.87178">
        <ele>1124.8</ele>
        <time>2015-07-02T06:29:45Z</time>
      </trkpt>
      <trkpt lat="42.48201" lon="8.87176">
        <ele>1123.6</ele>
        <time>2015-07-02T06:29:51Z</time>
      </trkpt>
      <trkpt lat="42.48201" lon="8.87175">
        <ele>1123.4</ele>
        <time>2015-07-02T06:29:53Z</time>
      </trkpt>
      <trkpt lat="42.48201" lon="8.87175">
        <ele>1123</ele>
        <time>2015-07-02T06:29:55Z</time>
      </trkpt>
      <trkpt lat="42.48203" lon="8.87173">
        <ele>1122.4</ele>
        <time>2015-07-02T06:30:04Z</time>
      </trkpt>
      <trkpt lat="42.48205" lon="8.87171">
        <ele>1121.8</ele>
        <time>2015-07-02T06:30:08Z</time>
      </trkpt>
      <trkpt lat="42.48209" lon="8.87167">
        <ele>1120.6</ele>
        <time>2015-07-02T06:30:14Z</time>
      </trkpt>
      <trkpt lat="42.48213" lon="8.87161">
        <ele>1119.4</ele>
        <time>2015-07-02T06:30:22Z</time>
      </trkpt>
      <trkpt lat="42.48216" lon="8.87158">
        <ele>1118.6</ele>
        <time>2015-07-02T06:30:27Z</time>
      </trkpt>
      <trkpt lat="42.48219" lon="8.87152">
        <ele>1117.2</ele>
        <time>2015-07-02T06:30:35Z</time>
      </trkpt>
      <trkpt lat="42.48218" lon="8.87148">
        <ele>1116.8</ele>
        <time>2015-07-02T06:30:39Z</time>
      </trkpt>
      <trkpt lat="42.48214" lon="8.87145">
        <ele>1115.6</ele>
        <time>2015-07-02T06:30:44Z</time>
      </trkpt>
      <trkpt lat="42.48211" lon="8.87142">
        <ele>1114.2</ele>
        <time>2015-07-02T06:30:50Z</time>
      </trkpt>
      <trkpt lat="42.48209" lon="8.87141">
        <ele>1113.6</ele>
        <time>2015-07-02T06:30:55Z</time>
      </trkpt>
      <trkpt lat="42.48209" lon="8.87138">
        <ele>1112</ele>
        <time>2015-07-02T06:31:01Z</time>
      </trkpt>
      <trkpt lat="42.48208" lon="8.87134">
        <ele>1111.2</ele>
        <time>2015-07-02T06:31:06Z</time>
      </trkpt>
      <trkpt lat="42.48212" lon="8.87133">
        <ele>1109</ele>
        <time>2015-07-02T06:31:22Z</time>
      </trkpt>
      <trkpt lat="42.48208" lon="8.8713">
        <ele>1108.6</ele>
        <time>2015-07-02T06:31:40Z</time>
      </trkpt>
      <trkpt lat="42.48205" lon="8.87126">
        <ele>1107.8</ele>
        <time>2015-07-02T06:31:45Z</time>
      </trkpt>
      <trkpt lat="42.48202" lon="8.87125">
        <ele>1106.8</ele>
        <time>2015-07-02T06:31:50Z</time>
      </trkpt>
      <trkpt lat="42.48199" lon="8.87126">
        <ele>1105.8</ele>
        <time>2015-07-02T06:31:55Z</time>
      </trkpt>
      <trkpt lat="42.48193" lon="8.87127">
        <ele>1104.2</ele>
        <time>2015-07-02T06:32:01Z</time>
      </trkpt>
      <trkpt lat="42.4819" lon="8.87128">
        <ele>1103.8</ele>
        <time>2015-07-02T06:32:03Z</time>
      </trkpt>
      <trkpt lat="42.48184" lon="8.8713">
        <ele>1103.4</ele>
        <time>2015-07-02T06:32:08Z</time>
      </trkpt>
      <trkpt lat="42.48179" lon="8.87131">
        <ele>1102.4</ele>
        <time>2015-07-02T06:32:13Z</time>
      </trkpt>
      <trkpt lat="42.48176" lon="8.87133">
        <ele>1101.4</ele>
        <time>2015-07-02T06:32:18Z</time>
      </trkpt>
      <trkpt lat="42.48173" lon="8.87135">
        <ele>1099.8</ele>
        <time>2015-07-02T06:32:25Z</time>
      </trkpt>
      <trkpt lat="42.48168" lon="8.87134">
        <ele>1098.8</ele>
        <time>2015-07-02T06:32:33Z</time>
      </trkpt>
      <trkpt lat="42.48166" lon="8.87133">
        <ele>1098.6</ele>
        <time>2015-07-02T06:32:36Z</time>
      </trkpt>
      <trkpt lat="42.48165" lon="8.87131">
        <ele>1098.2</ele>
        <time>2015-07-02T06:32:41Z</time>
      </trkpt>
      <trkpt lat="42.48167" lon="8.87125">
        <ele>1096.4</ele>
        <time>2015-07-02T06:32:52Z</time>
      </trkpt>
      <trkpt lat="42.4817" lon="8.87123">
        <ele>1096</ele>
        <time>2015-07-02T06:32:57Z</time>
      </trkpt>
      <trkpt lat="42.48172" lon="8.87119">
        <ele>1094.6</ele>
        <time>2015-07-02T06:33:03Z</time>
      </trkpt>
      <trkpt lat="42.48172" lon="8.87114">
        <ele>1094</ele>
        <time>2015-07-02T06:33:08Z</time>
      </trkpt>
      <trkpt lat="42.48171" lon="8.87114">
        <ele>1093.6</ele>
        <time>2015-07-02T06:33:09Z</time>
      </trkpt>
      <trkpt lat="42.4817" lon="8.87114">
        <ele>1092.4</ele>
        <time>2015-07-02T06:33:14Z</time>
      </trkpt>
      <trkpt lat="42.48164" lon="8.87112">
        <ele>1091.2</ele>
        <time>2015-07-02T06:33:22Z</time>
      </trkpt>
      <trkpt lat="42.48159" lon="8.87113">
        <ele>1090.2</ele>
        <time>2015-07-02T06:33:28Z</time>
      </trkpt>
      <trkpt lat="42.48155" lon="8.87115">
        <ele>1089.2</ele>
        <time>2015-07-02T06:33:33Z</time>
      </trkpt>
      <trkpt lat="42.48151" lon="8.87116">
        <ele>1087.8</ele>
        <time>2015-07-02T06:33:40Z</time>
      </trkpt>
      <trkpt lat="42.48147" lon="8.87116">
        <ele>1086.8</ele>
        <time>2015-07-02T06:33:46Z</time>
      </trkpt>
      <trkpt lat="42.48145" lon="8.87117">
        <ele>1085.6</ele>
        <time>2015-07-02T06:33:52Z</time>
      </trkpt>
      <trkpt lat="42.48143" lon="8.87117">
        <ele>1084.6</ele>
        <time>2015-07-02T06:33:58Z</time>
      </trkpt>
      <trkpt lat="42.48142" lon="8.87116">
        <ele>1083</ele>
        <time>2015-07-02T06:34:08Z</time>
      </trkpt>
      <trkpt lat="42.48141" lon="8.87113">
        <ele>1082.6</ele>
        <time>2015-07-02T06:34:13Z</time>
      </trkpt>
      <trkpt lat="42.48141" lon="8.8711">
        <ele>1081.2</ele>
        <time>2015-07-02T06:34:19Z</time>
      </trkpt>
      <trkpt lat="42.48142" lon="8.87106">
        <ele>1080.4</ele>
        <time>2015-07-02T06:34:24Z</time>
      </trkpt>
      <trkpt lat="42.48146" lon="8.871">
        <ele>1079</ele>
        <time>2015-07-02T06:34:30Z</time>
      </trkpt>
      <trkpt lat="42.48149" lon="8.87095">
        <ele>1077.8</ele>
        <time>2015-07-02T06:34:36Z</time>
      </trkpt>
      <trkpt lat="42.48152" lon="8.87092">
        <ele>1077</ele>
        <time>2015-07-02T06:34:41Z</time>
      </trkpt>
      <trkpt lat="42.48152" lon="8.8709">
        <ele>1076.6</ele>
        <time>2015-07-02T06:34:43Z</time>
      </trkpt>
      <trkpt lat="42.48153" lon="8.87088">
        <ele>1076</ele>
        <time>2015-07-02T06:34:47Z</time>
      </trkpt>
      <trkpt lat="42.48155" lon="8.87082">
        <ele>1074</ele>
        <time>2015-07-02T06:34:59Z</time>
      </trkpt>
      <trkpt lat="42.48154" lon="8.87081">
        <ele>1074</ele>
        <time>2015-07-02T06:35:00Z</time>
      </trkpt>
      <trkpt lat="42.48154" lon="8.8708">
        <ele>1074</ele>
        <time>2015-07-02T06:35:02Z</time>
      </trkpt>
      <trkpt lat="42.48154" lon="8.8708">
        <ele>1073.8</ele>
        <time>2015-07-02T06:35:03Z</time>
      </trkpt>
      <trkpt lat="42.48156" lon="8.87075">
        <ele>1072.2</ele>
        <time>2015-07-02T06:35:09Z</time>
      </trkpt>
      <trkpt lat="42.4816" lon="8.87071">
        <ele>1071.2</ele>
        <time>2015-07-02T06:35:14Z</time>
      </trkpt>
      <trkpt lat="42.48182" lon="8.87056">
        <ele>1069.6</ele>
        <time>2015-07-02T06:35:37Z</time>
      </trkpt>
      <trkpt lat="42.48192" lon="8.87046">
        <ele>1068.8</ele>
        <time>2015-07-02T06:35:49Z</time>
      </trkpt>
      <trkpt lat="42.48193" lon="8.87041">
        <ele>1067.8</ele>
        <time>2015-07-02T06:35:55Z</time>
      </trkpt>
      <trkpt lat="42.48195" lon="8.87038">
        <ele>1067.2</ele>
        <time>2015-07-02T06:35:59Z</time>
      </trkpt>
      <trkpt lat="42.48197" lon="8.87034">
        <ele>1065.6</ele>
        <time>2015-07-02T06:36:05Z</time>
      </trkpt>
      <trkpt lat="42.48198" lon="8.8703">
        <ele>1065</ele>
        <time>2015-07-02T06:36:09Z</time>
      </trkpt>
      <trkpt lat="42.48198" lon="8.87027">
        <ele>1064.2</ele>
        <time>2015-07-02T06:36:12Z</time>
      </trkpt>
      <trkpt lat="42.48195" lon="8.87023">
        <ele>1062.8</ele>
        <time>2015-07-02T06:36:17Z</time>
      </trkpt>
      <trkpt lat="42.48193" lon="8.87023">
        <ele>1061.8</ele>
        <time>2015-07-02T06:36:21Z</time>
      </trkpt>
      <trkpt lat="42.48188" lon="8.87024">
        <ele>1060.8</ele>
        <time>2015-07-02T06:36:26Z</time>
      </trkpt>
      <trkpt lat="42.48183" lon="8.87024">
        <ele>1059.6</ele>
        <time>2015-07-02T06:36:32Z</time>
      </trkpt>
      <trkpt lat="42.48178" lon="8.87028">
        <ele>1058.8</ele>
        <time>2015-07-02T06:36:37Z</time>
      </trkpt>
      <trkpt lat="42.48172" lon="8.87028">
        <ele>1057.8</ele>
        <time>2015-07-02T06:36:42Z</time>
      </trkpt>
      <trkpt lat="42.48162" lon="8.87033">
        <ele>1056</ele>
        <time>2015-07-02T06:36:53Z</time>
      </trkpt>
      <trkpt lat="42.48151" lon="8.87038">
        <ele>1055.2</ele>
        <time>2015-07-02T06:37:11Z</time>
      </trkpt>
      <trkpt lat="42.48147" lon="8.87044">
        <ele>1054.6</ele>
        <time>2015-07-02T06:37:16Z</time>
      </trkpt>
      <trkpt lat="42.48125" lon="8.87071">
        <ele>1055</ele>
        <time>2015-07-02T06:37:41Z</time>
      </trkpt>
      <trkpt lat="42.48122" lon="8.87074">
        <ele>1055.2</ele>
        <time>2015-07-02T06:37:45Z</time>
      </trkpt>
      <trkpt lat="42.4811" lon="8.87076">
        <ele>1054.6</ele>
        <time>2015-07-02T06:38:04Z</time>
      </trkpt>
      <trkpt lat="42.48099" lon="8.87055">
        <ele>1054.6</ele>
        <time>2015-07-02T06:38:30Z</time>
      </trkpt>
      <trkpt lat="42.48098" lon="8.87054">
        <ele>1054.6</ele>
        <time>2015-07-02T06:38:33Z</time>
      </trkpt>
      <trkpt lat="42.48098" lon="8.87049">
        <ele>1054.8</ele>
        <time>2015-07-02T06:38:37Z</time>
      </trkpt>
      <trkpt lat="42.48096" lon="8.87045">
        <ele>1054.6</ele>
        <time>2015-07-02T06:38:41Z</time>
      </trkpt>
      <trkpt lat="42.48091" lon="8.87039">
        <ele>1053.2</ele>
        <time>2015-07-02T06:38:47Z</time>
      </trkpt>
      <trkpt lat="42.48087" lon="8.87032">
        <ele>1052.6</ele>
        <time>2015-07-02T06:38:52Z</time>
      </trkpt>
      <trkpt lat="42.48078" lon="8.87017">
        <ele>1050.8</ele>
        <time>2015-07-02T06:39:06Z</time>
      </trkpt>
      <trkpt lat="42.48066" lon="8.87008">
        <ele>1050.2</ele>
        <time>2015-07-02T06:39:20Z</time>
      </trkpt>
      <trkpt lat="42.48064" lon="8.87004">
        <ele>1049.4</ele>
        <time>2015-07-02T06:39:27Z</time>
      </trkpt>
      <trkpt lat="42.48059" lon="8.87001">
        <ele>1048.8</ele>
        <time>2015-07-02T06:39:31Z</time>
      </trkpt>
      <trkpt lat="42.48057" lon="8.86993">
        <ele>1047.2</ele>
        <time>2015-07-02T06:39:38Z</time>
      </trkpt>
      <trkpt lat="42.4806" lon="8.8697">
        <ele>1045.8</ele>
        <time>2015-07-02T06:39:57Z</time>
      </trkpt>
      <trkpt lat="42.48063" lon="8.86956">
        <ele>1045.2</ele>
        <time>2015-07-02T06:40:07Z</time>
      </trkpt>
      <trkpt lat="42.48055" lon="8.86917">
        <ele>1044.4</ele>
        <time>2015-07-02T06:40:51Z</time>
      </trkpt>
      <trkpt lat="42.48043" lon="8.86904">
        <ele>1043.2</ele>
        <time>2015-07-02T06:41:06Z</time>
      </trkpt>
      <trkpt lat="42.48035" lon="8.86898">
        <ele>1042.4</ele>
        <time>2015-07-02T06:41:18Z</time>
      </trkpt>
      <trkpt lat="42.48031" lon="8.86895">
        <ele>1042.2</ele>
        <time>2015-07-02T06:41:22Z</time>
      </trkpt>
      <trkpt lat="42.48025" lon="8.86886">
        <ele>1040.6</ele>
        <time>2015-07-02T06:41:31Z</time>
      </trkpt>
      <trkpt lat="42.48019" lon="8.86877">
        <ele>1039.6</ele>
        <time>2015-07-02T06:41:39Z</time>
      </trkpt>
      <trkpt lat="42.48008" lon="8.8687">
        <ele>1038.6</ele>
        <time>2015-07-02T06:41:50Z</time>
      </trkpt>
      <trkpt lat="42.48003" lon="8.86867">
        <ele>1038.2</ele>
        <time>2015-07-02T06:41:56Z</time>
      </trkpt>
      <trkpt lat="42.47999" lon="8.86864">
        <ele>1037.4</ele>
        <time>2015-07-02T06:42:01Z</time>
      </trkpt>
      <trkpt lat="42.47998" lon="8.86861">
        <ele>1036.8</ele>
        <time>2015-07-02T06:42:04Z</time>
      </trkpt>
      <trkpt lat="42.47996" lon="8.86857">
        <ele>1036.6</ele>
        <time>2015-07-02T06:42:08Z</time>
      </trkpt>
      <trkpt lat="42.47993" lon="8.86852">
        <ele>1035.4</ele>
        <time>2015-07-02T06:42:13Z</time>
      </trkpt>
      <trkpt lat="42.47986" lon="8.86836">
        <ele>1033.4</ele>
        <time>2015-07-02T06:42:31Z</time>
      </trkpt>
      <trkpt lat="42.47987" lon="8.86835">
        <ele>1033.2</ele>
        <time>2015-07-02T06:42:32Z</time>
      </trkpt>
      <trkpt lat="42.47988" lon="8.8683">
        <ele>1033.2</ele>
        <time>2015-07-02T06:42:36Z</time>
      </trkpt>
      <trkpt lat="42.47985" lon="8.86819">
        <ele>1031.8</ele>
        <time>2015-07-02T06:42:44Z</time>
      </trkpt>
      <trkpt lat="42.47983" lon="8.86801">
        <ele>1030.8</ele>
        <time>2015-07-02T06:43:03Z</time>
      </trkpt>
      <trkpt lat="42.47982" lon="8.86797">
        <ele>1030.6</ele>
        <time>2015-07-02T06:43:08Z</time>
      </trkpt>
      <trkpt lat="42.4798" lon="8.86791">
        <ele>1029.4</ele>
        <time>2015-07-02T06:43:13Z</time>
      </trkpt>
      <trkpt lat="42.47981" lon="8.86786">
        <ele>1028</ele>
        <time>2015-07-02T06:43:20Z</time>
      </trkpt>
      <trkpt lat="42.47986" lon="8.86787">
        <ele>1027.4</ele>
        <time>2015-07-02T06:43:25Z</time>
      </trkpt>
      <trkpt lat="42.47989" lon="8.8679">
        <ele>1026.4</ele>
        <time>2015-07-02T06:43:30Z</time>
      </trkpt>
      <trkpt lat="42.47989" lon="8.86789">
        <ele>1025</ele>
        <time>2015-07-02T06:43:37Z</time>
      </trkpt>
      <trkpt lat="42.47989" lon="8.86782">
        <ele>1024.2</ele>
        <time>2015-07-02T06:43:44Z</time>
      </trkpt>
      <trkpt lat="42.47989" lon="8.86779">
        <ele>1023.8</ele>
        <time>2015-07-02T06:43:48Z</time>
      </trkpt>
      <trkpt lat="42.47989" lon="8.86775">
        <ele>1022.6</ele>
        <time>2015-07-02T06:43:52Z</time>
      </trkpt>
      <trkpt lat="42.47987" lon="8.8677">
        <ele>1021.2</ele>
        <time>2015-07-02T06:43:57Z</time>
      </trkpt>
      <trkpt lat="42.47985" lon="8.86766">
        <ele>1020.2</ele>
        <time>2015-07-02T06:44:01Z</time>
      </trkpt>
      <trkpt lat="42.47984" lon="8.86761">
        <ele>1018.6</ele>
        <time>2015-07-02T06:44:07Z</time>
      </trkpt>
      <trkpt lat="42.47981" lon="8.86757">
        <ele>1017.8</ele>
        <time>2015-07-02T06:44:12Z</time>
      </trkpt>
      <trkpt lat="42.47979" lon="8.86752">
        <ele>1016.8</ele>
        <time>2015-07-02T06:44:17Z</time>
      </trkpt>
      <trkpt lat="42.47976" lon="8.86749">
        <ele>1016</ele>
        <time>2015-07-02T06:44:21Z</time>
      </trkpt>
      <trkpt lat="42.47973" lon="8.86747">
        <ele>1014.2</ele>
        <time>2015-07-02T06:44:28Z</time>
      </trkpt>
      <trkpt lat="42.4797" lon="8.86742">
        <ele>1013.4</ele>
        <time>2015-07-02T06:44:37Z</time>
      </trkpt>
      <trkpt lat="42.47968" lon="8.86737">
        <ele>1012.4</ele>
        <time>2015-07-02T06:44:42Z</time>
      </trkpt>
      <trkpt lat="42.47966" lon="8.86734">
        <ele>1011.6</ele>
        <time>2015-07-02T06:44:46Z</time>
      </trkpt>
      <trkpt lat="42.47964" lon="8.86728">
        <ele>1010</ele>
        <time>2015-07-02T06:44:52Z</time>
      </trkpt>
      <trkpt lat="42.47963" lon="8.86725">
        <ele>1009.4</ele>
        <time>2015-07-02T06:44:56Z</time>
      </trkpt>
      <trkpt lat="42.47963" lon="8.8672">
        <ele>1008.2</ele>
        <time>2015-07-02T06:45:01Z</time>
      </trkpt>
      <trkpt lat="42.47962" lon="8.86714">
        <ele>1006.8</ele>
        <time>2015-07-02T06:45:07Z</time>
      </trkpt>
      <trkpt lat="42.47961" lon="8.8671">
        <ele>1006.2</ele>
        <time>2015-07-02T06:45:11Z</time>
      </trkpt>
      <trkpt lat="42.47961" lon="8.86705">
        <ele>1005.4</ele>
        <time>2015-07-02T06:45:15Z</time>
      </trkpt>
      <trkpt lat="42.47959" lon="8.86701">
        <ele>1004.2</ele>
        <time>2015-07-02T06:45:19Z</time>
      </trkpt>
      <trkpt lat="42.47955" lon="8.86696">
        <ele>1002.8</ele>
        <time>2015-07-02T06:45:24Z</time>
      </trkpt>
      <trkpt lat="42.47953" lon="8.86691">
        <ele>1001.6</ele>
        <time>2015-07-02T06:45:29Z</time>
      </trkpt>
      <trkpt lat="42.47951" lon="8.86686">
        <ele>1000.6</ele>
        <time>2015-07-02T06:45:34Z</time>
      </trkpt>
      <trkpt lat="42.47949" lon="8.86681">
        <ele>999.2</ele>
        <time>2015-07-02T06:45:39Z</time>
      </trkpt>
      <trkpt lat="42.47949" lon="8.86677">
        <ele>998.4</ele>
        <time>2015-07-02T06:45:43Z</time>
      </trkpt>
      <trkpt lat="42.47947" lon="8.86669">
        <ele>997.2</ele>
        <time>2015-07-02T06:45:48Z</time>
      </trkpt>
      <trkpt lat="42.47947" lon="8.86666">
        <ele>996</ele>
        <time>2015-07-02T06:45:52Z</time>
      </trkpt>
      <trkpt lat="42.47948" lon="8.86665">
        <ele>995.8</ele>
        <time>2015-07-02T06:45:53Z</time>
      </trkpt>
      <trkpt lat="42.47946" lon="8.86661">
        <ele>994.6</ele>
        <time>2015-07-02T06:45:59Z</time>
      </trkpt>
      <trkpt lat="42.47944" lon="8.86656">
        <ele>993.8</ele>
        <time>2015-07-02T06:46:04Z</time>
      </trkpt>
      <trkpt lat="42.47941" lon="8.8665">
        <ele>992.4</ele>
        <time>2015-07-02T06:46:09Z</time>
      </trkpt>
      <trkpt lat="42.47936" lon="8.86644">
        <ele>991.4</ele>
        <time>2015-07-02T06:46:14Z</time>
      </trkpt>
      <trkpt lat="42.47932" lon="8.86638">
        <ele>989.6</ele>
        <time>2015-07-02T06:46:23Z</time>
      </trkpt>
      <trkpt lat="42.47924" lon="8.86634">
        <ele>988.8</ele>
        <time>2015-07-02T06:46:31Z</time>
      </trkpt>
      <trkpt lat="42.47916" lon="8.86628">
        <ele>988.4</ele>
        <time>2015-07-02T06:46:44Z</time>
      </trkpt>
      <trkpt lat="42.47909" lon="8.86624">
        <ele>987.8</ele>
        <time>2015-07-02T06:46:51Z</time>
      </trkpt>
      <trkpt lat="42.47885" lon="8.86619">
        <ele>986.4</ele>
        <time>2015-07-02T06:47:19Z</time>
      </trkpt>
      <trkpt lat="42.47885" lon="8.86619">
        <ele>986.4</ele>
        <time>2015-07-02T06:47:20Z</time>
      </trkpt>
      <trkpt lat="42.47886" lon="8.86617">
        <ele>986.2</ele>
        <time>2015-07-02T06:47:24Z</time>
      </trkpt>
      <trkpt lat="42.47889" lon="8.86614">
        <ele>985.6</ele>
        <time>2015-07-02T06:47:30Z</time>
      </trkpt>
      <trkpt lat="42.47892" lon="8.86613">
        <ele>984.2</ele>
        <time>2015-07-02T06:47:35Z</time>
      </trkpt>
      <trkpt lat="42.47893" lon="8.8661">
        <ele>983.2</ele>
        <time>2015-07-02T06:47:39Z</time>
      </trkpt>
      <trkpt lat="42.47896" lon="8.86607">
        <ele>982</ele>
        <time>2015-07-02T06:47:44Z</time>
      </trkpt>
      <trkpt lat="42.47899" lon="8.86604">
        <ele>981</ele>
        <time>2015-07-02T06:47:49Z</time>
      </trkpt>
      <trkpt lat="42.47901" lon="8.86603">
        <ele>979.8</ele>
        <time>2015-07-02T06:47:54Z</time>
      </trkpt>
      <trkpt lat="42.47906" lon="8.866">
        <ele>978.2</ele>
        <time>2015-07-02T06:48:04Z</time>
      </trkpt>
      <trkpt lat="42.4791" lon="8.86597">
        <ele>977.8</ele>
        <time>2015-07-02T06:48:09Z</time>
      </trkpt>
      <trkpt lat="42.47914" lon="8.86595">
        <ele>976.6</ele>
        <time>2015-07-02T06:48:14Z</time>
      </trkpt>
      <trkpt lat="42.47917" lon="8.86594">
        <ele>975.8</ele>
        <time>2015-07-02T06:48:18Z</time>
      </trkpt>
      <trkpt lat="42.47921" lon="8.86594">
        <ele>974.6</ele>
        <time>2015-07-02T06:48:23Z</time>
      </trkpt>
      <trkpt lat="42.47925" lon="8.86594">
        <ele>973.4</ele>
        <time>2015-07-02T06:48:28Z</time>
      </trkpt>
      <trkpt lat="42.47927" lon="8.86594">
        <ele>972.2</ele>
        <time>2015-07-02T06:48:33Z</time>
      </trkpt>
      <trkpt lat="42.47932" lon="8.86593">
        <ele>971</ele>
        <time>2015-07-02T06:48:39Z</time>
      </trkpt>
      <trkpt lat="42.47935" lon="8.86591">
        <ele>970.2</ele>
        <time>2015-07-02T06:48:43Z</time>
      </trkpt>
      <trkpt lat="42.47939" lon="8.86591">
        <ele>969.6</ele>
        <time>2015-07-02T06:48:47Z</time>
      </trkpt>
      <trkpt lat="42.47941" lon="8.8659">
        <ele>968</ele>
        <time>2015-07-02T06:48:52Z</time>
      </trkpt>
      <trkpt lat="42.47946" lon="8.86591">
        <ele>967</ele>
        <time>2015-07-02T06:48:57Z</time>
      </trkpt>
      <trkpt lat="42.4795" lon="8.86592">
        <ele>965.6</ele>
        <time>2015-07-02T06:49:02Z</time>
      </trkpt>
      <trkpt lat="42.47953" lon="8.86591">
        <ele>964.4</ele>
        <time>2015-07-02T06:49:07Z</time>
      </trkpt>
      <trkpt lat="42.47955" lon="8.86591">
        <ele>963.6</ele>
        <time>2015-07-02T06:49:11Z</time>
      </trkpt>
      <trkpt lat="42.47958" lon="8.86591">
        <ele>962.4</ele>
        <time>2015-07-02T06:49:16Z</time>
      </trkpt>
      <trkpt lat="42.47959" lon="8.86586">
        <ele>961.4</ele>
        <time>2015-07-02T06:49:21Z</time>
      </trkpt>
      <trkpt lat="42.47956" lon="8.86583">
        <ele>960.2</ele>
        <time>2015-07-02T06:49:26Z</time>
      </trkpt>
      <trkpt lat="42.47953" lon="8.86579">
        <ele>959.4</ele>
        <time>2015-07-02T06:49:31Z</time>
      </trkpt>
      <trkpt lat="42.47947" lon="8.86573">
        <ele>958.2</ele>
        <time>2015-07-02T06:49:38Z</time>
      </trkpt>
      <trkpt lat="42.47944" lon="8.86569">
        <ele>957.2</ele>
        <time>2015-07-02T06:49:43Z</time>
      </trkpt>
      <trkpt lat="42.47941" lon="8.86565">
        <ele>956.2</ele>
        <time>2015-07-02T06:49:48Z</time>
      </trkpt>
      <trkpt lat="42.47935" lon="8.8656">
        <ele>955.2</ele>
        <time>2015-07-02T06:49:54Z</time>
      </trkpt>
      <trkpt lat="42.47929" lon="8.86556">
        <ele>953.8</ele>
        <time>2015-07-02T06:50:01Z</time>
      </trkpt>
      <trkpt lat="42.47925" lon="8.86553">
        <ele>953.2</ele>
        <time>2015-07-02T06:50:06Z</time>
      </trkpt>
      <trkpt lat="42.4792" lon="8.86549">
        <ele>951.8</ele>
        <time>2015-07-02T06:50:12Z</time>
      </trkpt>
      <trkpt lat="42.47915" lon="8.86547">
        <ele>950.8</ele>
        <time>2015-07-02T06:50:17Z</time>
      </trkpt>
      <trkpt lat="42.47911" lon="8.86545">
        <ele>949.8</ele>
        <time>2015-07-02T06:50:22Z</time>
      </trkpt>
      <trkpt lat="42.47907" lon="8.86544">
        <ele>948.8</ele>
        <time>2015-07-02T06:50:27Z</time>
      </trkpt>
      <trkpt lat="42.47902" lon="8.86541">
        <ele>947.8</ele>
        <time>2015-07-02T06:50:33Z</time>
      </trkpt>
      <trkpt lat="42.47895" lon="8.86542">
        <ele>946.6</ele>
        <time>2015-07-02T06:50:39Z</time>
      </trkpt>
      <trkpt lat="42.47877" lon="8.8654">
        <ele>945</ele>
        <time>2015-07-02T06:50:56Z</time>
      </trkpt>
      <trkpt lat="42.47867" lon="8.86538">
        <ele>944.4</ele>
        <time>2015-07-02T06:51:08Z</time>
      </trkpt>
      <trkpt lat="42.47862" lon="8.86537">
        <ele>944.2</ele>
        <time>2015-07-02T06:51:13Z</time>
      </trkpt>
      <trkpt lat="42.47858" lon="8.86536">
        <ele>943</ele>
        <time>2015-07-02T06:51:18Z</time>
      </trkpt>
      <trkpt lat="42.47854" lon="8.86535">
        <ele>942</ele>
        <time>2015-07-02T06:51:23Z</time>
      </trkpt>
      <trkpt lat="42.47851" lon="8.86534">
        <ele>941.4</ele>
        <time>2015-07-02T06:51:27Z</time>
      </trkpt>
      <trkpt lat="42.47846" lon="8.8653">
        <ele>940.2</ele>
        <time>2015-07-02T06:51:32Z</time>
      </trkpt>
      <trkpt lat="42.47842" lon="8.86527">
        <ele>939</ele>
        <time>2015-07-02T06:51:37Z</time>
      </trkpt>
      <trkpt lat="42.47838" lon="8.86525">
        <ele>937.6</ele>
        <time>2015-07-02T06:51:43Z</time>
      </trkpt>
      <trkpt lat="42.47835" lon="8.86522">
        <ele>936.8</ele>
        <time>2015-07-02T06:51:48Z</time>
      </trkpt>
      <trkpt lat="42.47832" lon="8.8652">
        <ele>935.6</ele>
        <time>2015-07-02T06:51:53Z</time>
      </trkpt>
      <trkpt lat="42.4783" lon="8.8652">
        <ele>934.6</ele>
        <time>2015-07-02T06:51:58Z</time>
      </trkpt>
      <trkpt lat="42.47828" lon="8.86517">
        <ele>933.4</ele>
        <time>2015-07-02T06:52:04Z</time>
      </trkpt>
      <trkpt lat="42.47828" lon="8.86517">
        <ele>932.6</ele>
        <time>2015-07-02T06:52:09Z</time>
      </trkpt>
      <trkpt lat="42.47833" lon="8.86516">
        <ele>931.4</ele>
        <time>2015-07-02T06:52:14Z</time>
      </trkpt>
      <trkpt lat="42.47841" lon="8.86513">
        <ele>930.2</ele>
        <time>2015-07-02T06:52:21Z</time>
      </trkpt>
      <trkpt lat="42.47848" lon="8.86512">
        <ele>929.2</ele>
        <time>2015-07-02T06:52:28Z</time>
      </trkpt>
      <trkpt lat="42.47858" lon="8.8651">
        <ele>928</ele>
        <time>2015-07-02T06:52:37Z</time>
      </trkpt>
      <trkpt lat="42.47867" lon="8.86505">
        <ele>927.4</ele>
        <time>2015-07-02T06:52:44Z</time>
      </trkpt>
      <trkpt lat="42.47872" lon="8.86502">
        <ele>926.8</ele>
        <time>2015-07-02T06:52:49Z</time>
      </trkpt>
      <trkpt lat="42.47878" lon="8.865">
        <ele>925.6</ele>
        <time>2015-07-02T06:52:55Z</time>
      </trkpt>
      <trkpt lat="42.47882" lon="8.86499">
        <ele>924.8</ele>
        <time>2015-07-02T06:53:00Z</time>
      </trkpt>
      <trkpt lat="42.47886" lon="8.86497">
        <ele>923.8</ele>
        <time>2015-07-02T06:53:05Z</time>
      </trkpt>
      <trkpt lat="42.47889" lon="8.86495">
        <ele>922.6</ele>
        <time>2015-07-02T06:53:10Z</time>
      </trkpt>
      <trkpt lat="42.47893" lon="8.8649">
        <ele>921.6</ele>
        <time>2015-07-02T06:53:15Z</time>
      </trkpt>
      <trkpt lat="42.47898" lon="8.86488">
        <ele>920.4</ele>
        <time>2015-07-02T06:53:20Z</time>
      </trkpt>
      <trkpt lat="42.47903" lon="8.86485">
        <ele>919.2</ele>
        <time>2015-07-02T06:53:26Z</time>
      </trkpt>
      <trkpt lat="42.47907" lon="8.86482">
        <ele>918.2</ele>
        <time>2015-07-02T06:53:31Z</time>
      </trkpt>
      <trkpt lat="42.47911" lon="8.8648">
        <ele>917</ele>
        <time>2015-07-02T06:53:36Z</time>
      </trkpt>
      <trkpt lat="42.47914" lon="8.86476">
        <ele>916</ele>
        <time>2015-07-02T06:53:41Z</time>
      </trkpt>
      <trkpt lat="42.47917" lon="8.86474">
        <ele>914.8</ele>
        <time>2015-07-02T06:53:46Z</time>
      </trkpt>
      <trkpt lat="42.47921" lon="8.86472">
        <ele>913.6</ele>
        <time>2015-07-02T06:53:51Z</time>
      </trkpt>
      <trkpt lat="42.47926" lon="8.8647">
        <ele>912.6</ele>
        <time>2015-07-02T06:53:56Z</time>
      </trkpt>
      <trkpt lat="42.47931" lon="8.86466">
        <ele>911.6</ele>
        <time>2015-07-02T06:54:01Z</time>
      </trkpt>
      <trkpt lat="42.47935" lon="8.86462">
        <ele>910.6</ele>
        <time>2015-07-02T06:54:06Z</time>
      </trkpt>
      <trkpt lat="42.47939" lon="8.86459">
        <ele>909</ele>
        <time>2015-07-02T06:54:12Z</time>
      </trkpt>
      <trkpt lat="42.47943" lon="8.86456">
        <ele>908.2</ele>
        <time>2015-07-02T06:54:17Z</time>
      </trkpt>
      <trkpt lat="42.47948" lon="8.86452">
        <ele>907</ele>
        <time>2015-07-02T06:54:22Z</time>
      </trkpt>
      <trkpt lat="42.47951" lon="8.86448">
        <ele>906</ele>
        <time>2015-07-02T06:54:27Z</time>
      </trkpt>
      <trkpt lat="42.47954" lon="8.86447">
        <ele>905</ele>
        <time>2015-07-02T06:54:31Z</time>
      </trkpt>
      <trkpt lat="42.4796" lon="8.86445">
        <ele>903.6</ele>
        <time>2015-07-02T06:54:38Z</time>
      </trkpt>
      <trkpt lat="42.47963" lon="8.86445">
        <ele>903</ele>
        <time>2015-07-02T06:54:42Z</time>
      </trkpt>
      <trkpt lat="42.47967" lon="8.86442">
        <ele>901.8</ele>
        <time>2015-07-02T06:54:47Z</time>
      </trkpt>
      <trkpt lat="42.47971" lon="8.86441">
        <ele>900.8</ele>
        <time>2015-07-02T06:54:52Z</time>
      </trkpt>
      <trkpt lat="42.47973" lon="8.86439">
        <ele>900</ele>
        <time>2015-07-02T06:54:55Z</time>
      </trkpt>
      <trkpt lat="42.47973" lon="8.86438">
        <ele>899.8</ele>
        <time>2015-07-02T06:54:56Z</time>
      </trkpt>
      <trkpt lat="42.47972" lon="8.86433">
        <ele>898.8</ele>
        <time>2015-07-02T06:55:00Z</time>
      </trkpt>
      <trkpt lat="42.47968" lon="8.86427">
        <ele>897</ele>
        <time>2015-07-02T06:55:07Z</time>
      </trkpt>
      <trkpt lat="42.47964" lon="8.86425">
        <ele>896.4</ele>
        <time>2015-07-02T06:55:12Z</time>
      </trkpt>
      <trkpt lat="42.47962" lon="8.86423">
        <ele>894.4</ele>
        <time>2015-07-02T06:55:21Z</time>
      </trkpt>
      <trkpt lat="42.47961" lon="8.86421">
        <ele>894.2</ele>
        <time>2015-07-02T06:55:28Z</time>
      </trkpt>
      <trkpt lat="42.47964" lon="8.86418">
        <ele>893.4</ele>
        <time>2015-07-02T06:55:33Z</time>
      </trkpt>
      <trkpt lat="42.47967" lon="8.86417">
        <ele>892.8</ele>
        <time>2015-07-02T06:55:37Z</time>
      </trkpt>
      <trkpt lat="42.4797" lon="8.86417">
        <ele>891.4</ele>
        <time>2015-07-02T06:55:41Z</time>
      </trkpt>
      <trkpt lat="42.47974" lon="8.86415">
        <ele>890</ele>
        <time>2015-07-02T06:55:46Z</time>
      </trkpt>
      <trkpt lat="42.47978" lon="8.86414">
        <ele>888.8</ele>
        <time>2015-07-02T06:55:51Z</time>
      </trkpt>
      <trkpt lat="42.47981" lon="8.86414">
        <ele>887.8</ele>
        <time>2015-07-02T06:55:56Z</time>
      </trkpt>
      <trkpt lat="42.47985" lon="8.86413">
        <ele>886.6</ele>
        <time>2015-07-02T06:56:00Z</time>
      </trkpt>
      <trkpt lat="42.47993" lon="8.86417">
        <ele>884.8</ele>
        <time>2015-07-02T06:56:10Z</time>
      </trkpt>
      <trkpt lat="42.47999" lon="8.86423">
        <ele>884.2</ele>
        <time>2015-07-02T06:56:17Z</time>
      </trkpt>
      <trkpt lat="42.48003" lon="8.86426">
        <ele>883.6</ele>
        <time>2015-07-02T06:56:22Z</time>
      </trkpt>
      <trkpt lat="42.48005" lon="8.86428">
        <ele>882.6</ele>
        <time>2015-07-02T06:56:27Z</time>
      </trkpt>
      <trkpt lat="42.48007" lon="8.86431">
        <ele>881.4</ele>
        <time>2015-07-02T06:56:32Z</time>
      </trkpt>
      <trkpt lat="42.4801" lon="8.86434">
        <ele>880.6</ele>
        <time>2015-07-02T06:56:36Z</time>
      </trkpt>
      <trkpt lat="42.48014" lon="8.86437">
        <ele>879.6</ele>
        <time>2015-07-02T06:56:40Z</time>
      </trkpt>
      <trkpt lat="42.48018" lon="8.86437">
        <ele>878.6</ele>
        <time>2015-07-02T06:56:44Z</time>
      </trkpt>
      <trkpt lat="42.48022" lon="8.86438">
        <ele>877.4</ele>
        <time>2015-07-02T06:56:48Z</time>
      </trkpt>
      <trkpt lat="42.48025" lon="8.8644">
        <ele>876.4</ele>
        <time>2015-07-02T06:56:52Z</time>
      </trkpt>
      <trkpt lat="42.48028" lon="8.86442">
        <ele>875.4</ele>
        <time>2015-07-02T06:56:56Z</time>
      </trkpt>
      <trkpt lat="42.48035" lon="8.86446">
        <ele>873.4</ele>
        <time>2015-07-02T06:57:06Z</time>
      </trkpt>
      <trkpt lat="42.48039" lon="8.86447">
        <ele>872.8</ele>
        <time>2015-07-02T06:57:10Z</time>
      </trkpt>
      <trkpt lat="42.48043" lon="8.86447">
        <ele>872</ele>
        <time>2015-07-02T06:57:15Z</time>
      </trkpt>
      <trkpt lat="42.48045" lon="8.86448">
        <ele>871</ele>
        <time>2015-07-02T06:57:19Z</time>
      </trkpt>
      <trkpt lat="42.48047" lon="8.86448">
        <ele>870</ele>
        <time>2015-07-02T06:57:23Z</time>
      </trkpt>
      <trkpt lat="42.48049" lon="8.86447">
        <ele>868.8</ele>
        <time>2015-07-02T06:57:27Z</time>
      </trkpt>
      <trkpt lat="42.48052" lon="8.86447">
        <ele>867.8</ele>
        <time>2015-07-02T06:57:31Z</time>
      </trkpt>
      <trkpt lat="42.48057" lon="8.86451">
        <ele>865.6</ele>
        <time>2015-07-02T06:57:44Z</time>
      </trkpt>
      <trkpt lat="42.4806" lon="8.86455">
        <ele>865.6</ele>
        <time>2015-07-02T06:57:49Z</time>
      </trkpt>
      <trkpt lat="42.48073" lon="8.86464">
        <ele>865.4</ele>
        <time>2015-07-02T06:58:03Z</time>
      </trkpt>
      <trkpt lat="42.48078" lon="8.86467">
        <ele>864.6</ele>
        <time>2015-07-02T06:58:09Z</time>
      </trkpt>
      <trkpt lat="42.48084" lon="8.86468">
        <ele>864</ele>
        <time>2015-07-02T06:58:13Z</time>
      </trkpt>
      <trkpt lat="42.48089" lon="8.8647">
        <ele>862.4</ele>
        <time>2015-07-02T06:58:19Z</time>
      </trkpt>
      <trkpt lat="42.48096" lon="8.86469">
        <ele>861.2</ele>
        <time>2015-07-02T06:58:25Z</time>
      </trkpt>
      <trkpt lat="42.48101" lon="8.86469">
        <ele>860.6</ele>
        <time>2015-07-02T06:58:30Z</time>
      </trkpt>
      <trkpt lat="42.48106" lon="8.8647">
        <ele>859.2</ele>
        <time>2015-07-02T06:58:36Z</time>
      </trkpt>
      <trkpt lat="42.48113" lon="8.8647">
        <ele>858.2</ele>
        <time>2015-07-02T06:58:42Z</time>
      </trkpt>
      <trkpt lat="42.48126" lon="8.86472">
        <ele>856.4</ele>
        <time>2015-07-02T06:58:58Z</time>
      </trkpt>
      <trkpt lat="42.48128" lon="8.8647">
        <ele>856.2</ele>
        <time>2015-07-02T06:59:02Z</time>
      </trkpt>
      <trkpt lat="42.48131" lon="8.86469">
        <ele>855.2</ele>
        <time>2015-07-02T06:59:08Z</time>
      </trkpt>
      <trkpt lat="42.48138" lon="8.8647">
        <ele>854.2</ele>
        <time>2015-07-02T06:59:14Z</time>
      </trkpt>
      <trkpt lat="42.48145" lon="8.86471">
        <ele>853.2</ele>
        <time>2015-07-02T06:59:20Z</time>
      </trkpt>
      <trkpt lat="42.48153" lon="8.86471">
        <ele>851.8</ele>
        <time>2015-07-02T06:59:27Z</time>
      </trkpt>
      <trkpt lat="42.48161" lon="8.86471">
        <ele>851</ele>
        <time>2015-07-02T06:59:34Z</time>
      </trkpt>
      <trkpt lat="42.48169" lon="8.86475">
        <ele>849.8</ele>
        <time>2015-07-02T06:59:41Z</time>
      </trkpt>
      <trkpt lat="42.48181" lon="8.86482">
        <ele>848.4</ele>
        <time>2015-07-02T06:59:52Z</time>
      </trkpt>
      <trkpt lat="42.48189" lon="8.86487">
        <ele>847.8</ele>
        <time>2015-07-02T07:00:01Z</time>
      </trkpt>
      <trkpt lat="42.48202" lon="8.86486">
        <ele>846.4</ele>
        <time>2015-07-02T07:00:25Z</time>
      </trkpt>
      <trkpt lat="42.48204" lon="8.86486">
        <ele>846.4</ele>
        <time>2015-07-02T07:00:56Z</time>
      </trkpt>
      <trkpt lat="42.48201" lon="8.8649">
        <ele>846.6</ele>
        <time>2015-07-02T07:01:54Z</time>
      </trkpt>
      <trkpt lat="42.48205" lon="8.86484">
        <ele>847.2</ele>
        <time>2015-07-02T07:02:37Z</time>
      </trkpt>
      <trkpt lat="42.48206" lon="8.86484">
        <ele>846.8</ele>
        <time>2015-07-02T07:03:59Z</time>
      </trkpt>
      <trkpt lat="42.48206" lon="8.86485">
        <ele>847</ele>
        <time>2015-07-02T07:05:18Z</time>
      </trkpt>
      <trkpt lat="42.48206" lon="8.86485">
        <ele>846.4</ele>
        <time>2015-07-02T07:05:38Z</time>
      </trkpt>
      <trkpt lat="42.48205" lon="8.86482">
        <ele>846</ele>
        <time>2015-07-02T07:06:22Z</time>
      </trkpt>
      <trkpt lat="42.48203" lon="8.86485">
        <ele>846.2</ele>
        <time>2015-07-02T07:08:17Z</time>
      </trkpt>
      <trkpt lat="42.48201" lon="8.86486">
        <ele>845.6</ele>
        <time>2015-07-02T07:08:50Z</time>
      </trkpt>
      <trkpt lat="42.48204" lon="8.86488">
        <ele>846</ele>
        <time>2015-07-02T07:09:50Z</time>
      </trkpt>
      <trkpt lat="42.48205" lon="8.86512">
        <ele>845.6</ele>
        <time>2015-07-02T07:10:29Z</time>
      </trkpt>
      <trkpt lat="42.48206" lon="8.86518">
        <ele>845.2</ele>
        <time>2015-07-02T07:10:35Z</time>
      </trkpt>
      <trkpt lat="42.48208" lon="8.86526">
        <ele>844</ele>
        <time>2015-07-02T07:10:42Z</time>
      </trkpt>
      <trkpt lat="42.48208" lon="8.86531">
        <ele>843</ele>
        <time>2015-07-02T07:10:49Z</time>
      </trkpt>
      <trkpt lat="42.4821" lon="8.86534">
        <ele>842.6</ele>
        <time>2015-07-02T07:10:53Z</time>
      </trkpt>
      <trkpt lat="42.48213" lon="8.86533">
        <ele>841.4</ele>
        <time>2015-07-02T07:10:58Z</time>
      </trkpt>
      <trkpt lat="42.48217" lon="8.86531">
        <ele>840.2</ele>
        <time>2015-07-02T07:11:03Z</time>
      </trkpt>
      <trkpt lat="42.48219" lon="8.86531">
        <ele>839.2</ele>
        <time>2015-07-02T07:11:08Z</time>
      </trkpt>
      <trkpt lat="42.48221" lon="8.86532">
        <ele>838.2</ele>
        <time>2015-07-02T07:11:12Z</time>
      </trkpt>
      <trkpt lat="42.48224" lon="8.86533">
        <ele>837.2</ele>
        <time>2015-07-02T07:11:16Z</time>
      </trkpt>
      <trkpt lat="42.48228" lon="8.86531">
        <ele>836</ele>
        <time>2015-07-02T07:11:21Z</time>
      </trkpt>
      <trkpt lat="42.48231" lon="8.86528">
        <ele>835</ele>
        <time>2015-07-02T07:11:25Z</time>
      </trkpt>
      <trkpt lat="42.48233" lon="8.86522">
        <ele>833.2</ele>
        <time>2015-07-02T07:11:32Z</time>
      </trkpt>
      <trkpt lat="42.48234" lon="8.86516">
        <ele>832.4</ele>
        <time>2015-07-02T07:11:38Z</time>
      </trkpt>
      <trkpt lat="42.48239" lon="8.86508">
        <ele>831</ele>
        <time>2015-07-02T07:11:45Z</time>
      </trkpt>
      <trkpt lat="42.4824" lon="8.86507">
        <ele>830.8</ele>
        <time>2015-07-02T07:11:47Z</time>
      </trkpt>
      <trkpt lat="42.48243" lon="8.86507">
        <ele>830.4</ele>
        <time>2015-07-02T07:11:49Z</time>
      </trkpt>
      <trkpt lat="42.48245" lon="8.8651">
        <ele>829.4</ele>
        <time>2015-07-02T07:11:53Z</time>
      </trkpt>
      <trkpt lat="42.48246" lon="8.86512">
        <ele>829</ele>
        <time>2015-07-02T07:11:55Z</time>
      </trkpt>
      <trkpt lat="42.48246" lon="8.86514">
        <ele>828.2</ele>
        <time>2015-07-02T07:11:58Z</time>
      </trkpt>
      <trkpt lat="42.48245" lon="8.86519">
        <ele>827.6</ele>
        <time>2015-07-02T07:12:02Z</time>
      </trkpt>
      <trkpt lat="42.48244" lon="8.86527">
        <ele>826.6</ele>
        <time>2015-07-02T07:12:09Z</time>
      </trkpt>
      <trkpt lat="42.48245" lon="8.86528">
        <ele>826.2</ele>
        <time>2015-07-02T07:12:10Z</time>
      </trkpt>
      <trkpt lat="42.48248" lon="8.8653">
        <ele>825.6</ele>
        <time>2015-07-02T07:12:16Z</time>
      </trkpt>
      <trkpt lat="42.4825" lon="8.86535">
        <ele>824</ele>
        <time>2015-07-02T07:12:25Z</time>
      </trkpt>
      <trkpt lat="42.48247" lon="8.86537">
        <ele>823.6</ele>
        <time>2015-07-02T07:12:29Z</time>
      </trkpt>
      <trkpt lat="42.48246" lon="8.86543">
        <ele>822.6</ele>
        <time>2015-07-02T07:12:34Z</time>
      </trkpt>
      <trkpt lat="42.48269" lon="8.8656">
        <ele>821.2</ele>
        <time>2015-07-02T07:13:33Z</time>
      </trkpt>
      <trkpt lat="42.48273" lon="8.86558">
        <ele>820.2</ele>
        <time>2015-07-02T07:13:41Z</time>
      </trkpt>
      <trkpt lat="42.48279" lon="8.86558">
        <ele>819.2</ele>
        <time>2015-07-02T07:13:48Z</time>
      </trkpt>
      <trkpt lat="42.48282" lon="8.86554">
        <ele>818.4</ele>
        <time>2015-07-02T07:13:55Z</time>
      </trkpt>
      <trkpt lat="42.48281" lon="8.86549">
        <ele>817.4</ele>
        <time>2015-07-02T07:14:01Z</time>
      </trkpt>
      <trkpt lat="42.48281" lon="8.86547">
        <ele>816.8</ele>
        <time>2015-07-02T07:14:05Z</time>
      </trkpt>
      <trkpt lat="42.48283" lon="8.86544">
        <ele>816</ele>
        <time>2015-07-02T07:14:09Z</time>
      </trkpt>
      <trkpt lat="42.48285" lon="8.8654">
        <ele>814.8</ele>
        <time>2015-07-02T07:14:13Z</time>
      </trkpt>
      <trkpt lat="42.48288" lon="8.86538">
        <ele>813.6</ele>
        <time>2015-07-02T07:14:17Z</time>
      </trkpt>
      <trkpt lat="42.48289" lon="8.86534">
        <ele>811.8</ele>
        <time>2015-07-02T07:14:23Z</time>
      </trkpt>
      <trkpt lat="42.48291" lon="8.86531">
        <ele>811</ele>
        <time>2015-07-02T07:14:28Z</time>
      </trkpt>
      <trkpt lat="42.48293" lon="8.86526">
        <ele>809.6</ele>
        <time>2015-07-02T07:14:34Z</time>
      </trkpt>
      <trkpt lat="42.48296" lon="8.86522">
        <ele>809.2</ele>
        <time>2015-07-02T07:14:38Z</time>
      </trkpt>
      <trkpt lat="42.48301" lon="8.86519">
        <ele>807.4</ele>
        <time>2015-07-02T07:14:44Z</time>
      </trkpt>
      <trkpt lat="42.48315" lon="8.86524">
        <ele>806</ele>
        <time>2015-07-02T07:15:01Z</time>
      </trkpt>
      <trkpt lat="42.48318" lon="8.86526">
        <ele>805.6</ele>
        <time>2015-07-02T07:15:05Z</time>
      </trkpt>
      <trkpt lat="42.48319" lon="8.86528">
        <ele>805.2</ele>
        <time>2015-07-02T07:15:07Z</time>
      </trkpt>
      <trkpt lat="42.48322" lon="8.86529">
        <ele>803.8</ele>
        <time>2015-07-02T07:15:16Z</time>
      </trkpt>
      <trkpt lat="42.48324" lon="8.86525">
        <ele>802.8</ele>
        <time>2015-07-02T07:15:26Z</time>
      </trkpt>
      <trkpt lat="42.4833" lon="8.86522">
        <ele>801.2</ele>
        <time>2015-07-02T07:15:36Z</time>
      </trkpt>
      <trkpt lat="42.48333" lon="8.86515">
        <ele>800.8</ele>
        <time>2015-07-02T07:15:42Z</time>
      </trkpt>
      <trkpt lat="42.48334" lon="8.86512">
        <ele>800.4</ele>
        <time>2015-07-02T07:15:45Z</time>
      </trkpt>
      <trkpt lat="42.48334" lon="8.86512">
        <ele>800.2</ele>
        <time>2015-07-02T07:15:46Z</time>
      </trkpt>
      <trkpt lat="42.48338" lon="8.86506">
        <ele>799</ele>
        <time>2015-07-02T07:15:52Z</time>
      </trkpt>
      <trkpt lat="42.48339" lon="8.86505">
        <ele>798.6</ele>
        <time>2015-07-02T07:15:53Z</time>
      </trkpt>
      <trkpt lat="42.48343" lon="8.865">
        <ele>797.4</ele>
        <time>2015-07-02T07:16:00Z</time>
      </trkpt>
      <trkpt lat="42.48348" lon="8.86499">
        <ele>797</ele>
        <time>2015-07-02T07:16:04Z</time>
      </trkpt>
      <trkpt lat="42.4835" lon="8.865">
        <ele>796.6</ele>
        <time>2015-07-02T07:16:07Z</time>
      </trkpt>
      <trkpt lat="42.48353" lon="8.86498">
        <ele>796.4</ele>
        <time>2015-07-02T07:16:10Z</time>
      </trkpt>
      <trkpt lat="42.48356" lon="8.86493">
        <ele>795.4</ele>
        <time>2015-07-02T07:16:17Z</time>
      </trkpt>
      <trkpt lat="42.4836" lon="8.86491">
        <ele>794.4</ele>
        <time>2015-07-02T07:16:24Z</time>
      </trkpt>
      <trkpt lat="42.48362" lon="8.86487">
        <ele>793.4</ele>
        <time>2015-07-02T07:16:31Z</time>
      </trkpt>
      <trkpt lat="42.48364" lon="8.86482">
        <ele>792.6</ele>
        <time>2015-07-02T07:16:36Z</time>
      </trkpt>
      <trkpt lat="42.4837" lon="8.86479">
        <ele>791.2</ele>
        <time>2015-07-02T07:16:42Z</time>
      </trkpt>
      <trkpt lat="42.48374" lon="8.86476">
        <ele>790</ele>
        <time>2015-07-02T07:16:50Z</time>
      </trkpt>
      <trkpt lat="42.48378" lon="8.86473">
        <ele>789.2</ele>
        <time>2015-07-02T07:16:57Z</time>
      </trkpt>
      <trkpt lat="42.48386" lon="8.86467">
        <ele>787.8</ele>
        <time>2015-07-02T07:17:07Z</time>
      </trkpt>
      <trkpt lat="42.48396" lon="8.8646">
        <ele>786.8</ele>
        <time>2015-07-02T07:17:18Z</time>
      </trkpt>
      <trkpt lat="42.48405" lon="8.86456">
        <ele>786</ele>
        <time>2015-07-02T07:17:27Z</time>
      </trkpt>
      <trkpt lat="42.48411" lon="8.86455">
        <ele>785.6</ele>
        <time>2015-07-02T07:17:38Z</time>
      </trkpt>
      <trkpt lat="42.48416" lon="8.86449">
        <ele>785</ele>
        <time>2015-07-02T07:17:47Z</time>
      </trkpt>
      <trkpt lat="42.48414" lon="8.86447">
        <ele>784.2</ele>
        <time>2015-07-02T07:17:53Z</time>
      </trkpt>
      <trkpt lat="42.48419" lon="8.86442">
        <ele>783</ele>
        <time>2015-07-02T07:18:01Z</time>
      </trkpt>
      <trkpt lat="42.48422" lon="8.86436">
        <ele>781.8</ele>
        <time>2015-07-02T07:18:08Z</time>
      </trkpt>
      <trkpt lat="42.48428" lon="8.86435">
        <ele>780.8</ele>
        <time>2015-07-02T07:18:15Z</time>
      </trkpt>
      <trkpt lat="42.48431" lon="8.86431">
        <ele>779.8</ele>
        <time>2015-07-02T07:18:21Z</time>
      </trkpt>
      <trkpt lat="42.48435" lon="8.86428">
        <ele>779.2</ele>
        <time>2015-07-02T07:18:26Z</time>
      </trkpt>
      <trkpt lat="42.48438" lon="8.86425">
        <ele>777.6</ele>
        <time>2015-07-02T07:18:33Z</time>
      </trkpt>
      <trkpt lat="42.4844" lon="8.86423">
        <ele>776.8</ele>
        <time>2015-07-02T07:18:40Z</time>
      </trkpt>
      <trkpt lat="42.48443" lon="8.86422">
        <ele>776</ele>
        <time>2015-07-02T07:18:45Z</time>
      </trkpt>
      <trkpt lat="42.48446" lon="8.86419">
        <ele>775.2</ele>
        <time>2015-07-02T07:18:50Z</time>
      </trkpt>
      <trkpt lat="42.4845" lon="8.86416">
        <ele>773.6</ele>
        <time>2015-07-02T07:18:57Z</time>
      </trkpt>
      <trkpt lat="42.48453" lon="8.86414">
        <ele>772.8</ele>
        <time>2015-07-02T07:19:02Z</time>
      </trkpt>
      <trkpt lat="42.48458" lon="8.86411">
        <ele>771.6</ele>
        <time>2015-07-02T07:19:08Z</time>
      </trkpt>
      <trkpt lat="42.48462" lon="8.8641">
        <ele>770.6</ele>
        <time>2015-07-02T07:19:13Z</time>
      </trkpt>
      <trkpt lat="42.48466" lon="8.86411">
        <ele>769.4</ele>
        <time>2015-07-02T07:19:19Z</time>
      </trkpt>
      <trkpt lat="42.4847" lon="8.86413">
        <ele>768.4</ele>
        <time>2015-07-02T07:19:24Z</time>
      </trkpt>
      <trkpt lat="42.48475" lon="8.86412">
        <ele>767.4</ele>
        <time>2015-07-02T07:19:30Z</time>
      </trkpt>
      <trkpt lat="42.48481" lon="8.86408">
        <ele>766.4</ele>
        <time>2015-07-02T07:19:37Z</time>
      </trkpt>
      <trkpt lat="42.48486" lon="8.86404">
        <ele>765</ele>
        <time>2015-07-02T07:19:44Z</time>
      </trkpt>
      <trkpt lat="42.48493" lon="8.86398">
        <ele>764</ele>
        <time>2015-07-02T07:19:52Z</time>
      </trkpt>
      <trkpt lat="42.48498" lon="8.86393">
        <ele>763</ele>
        <time>2015-07-02T07:20:00Z</time>
      </trkpt>
      <trkpt lat="42.48504" lon="8.86388">
        <ele>762</ele>
        <time>2015-07-02T07:20:08Z</time>
      </trkpt>
      <trkpt lat="42.4851" lon="8.86382">
        <ele>761</ele>
        <time>2015-07-02T07:20:16Z</time>
      </trkpt>
      <trkpt lat="42.48515" lon="8.86374">
        <ele>759.6</ele>
        <time>2015-07-02T07:20:25Z</time>
      </trkpt>
      <trkpt lat="42.48518" lon="8.8637">
        <ele>759.2</ele>
        <time>2015-07-02T07:20:32Z</time>
      </trkpt>
      <trkpt lat="42.48516" lon="8.86366">
        <ele>758.4</ele>
        <time>2015-07-02T07:20:37Z</time>
      </trkpt>
      <trkpt lat="42.48521" lon="8.86359">
        <ele>756.8</ele>
        <time>2015-07-02T07:20:47Z</time>
      </trkpt>
      <trkpt lat="42.48525" lon="8.86356">
        <ele>755.8</ele>
        <time>2015-07-02T07:20:55Z</time>
      </trkpt>
      <trkpt lat="42.48528" lon="8.86349">
        <ele>754.8</ele>
        <time>2015-07-02T07:21:03Z</time>
      </trkpt>
      <trkpt lat="42.48532" lon="8.86341">
        <ele>753.6</ele>
        <time>2015-07-02T07:21:12Z</time>
      </trkpt>
      <trkpt lat="42.48532" lon="8.86333">
        <ele>752.8</ele>
        <time>2015-07-02T07:21:19Z</time>
      </trkpt>
      <trkpt lat="42.48532" lon="8.86326">
        <ele>751.8</ele>
        <time>2015-07-02T07:21:26Z</time>
      </trkpt>
      <trkpt lat="42.48533" lon="8.86321">
        <ele>751</ele>
        <time>2015-07-02T07:21:32Z</time>
      </trkpt>
      <trkpt lat="42.48535" lon="8.86314">
        <ele>749.8</ele>
        <time>2015-07-02T07:21:39Z</time>
      </trkpt>
      <trkpt lat="42.48535" lon="8.86309">
        <ele>748.8</ele>
        <time>2015-07-02T07:21:45Z</time>
      </trkpt>
      <trkpt lat="42.48537" lon="8.86301">
        <ele>747.6</ele>
        <time>2015-07-02T07:21:52Z</time>
      </trkpt>
      <trkpt lat="42.48539" lon="8.86295">
        <ele>746.8</ele>
        <time>2015-07-02T07:21:58Z</time>
      </trkpt>
      <trkpt lat="42.48543" lon="8.86287">
        <ele>745.4</ele>
        <time>2015-07-02T07:22:06Z</time>
      </trkpt>
      <trkpt lat="42.48545" lon="8.86281">
        <ele>744.6</ele>
        <time>2015-07-02T07:22:12Z</time>
      </trkpt>
      <trkpt lat="42.48546" lon="8.86276">
        <ele>743.8</ele>
        <time>2015-07-02T07:22:17Z</time>
      </trkpt>
      <trkpt lat="42.48549" lon="8.86269">
        <ele>742.4</ele>
        <time>2015-07-02T07:22:24Z</time>
      </trkpt>
      <trkpt lat="42.48553" lon="8.86263">
        <ele>741.4</ele>
        <time>2015-07-02T07:22:35Z</time>
      </trkpt>
      <trkpt lat="42.48557" lon="8.86257">
        <ele>740.6</ele>
        <time>2015-07-02T07:22:42Z</time>
      </trkpt>
      <trkpt lat="42.48559" lon="8.86255">
        <ele>740.6</ele>
        <time>2015-07-02T07:22:44Z</time>
      </trkpt>
      <trkpt lat="42.48563" lon="8.8625">
        <ele>740.6</ele>
        <time>2015-07-02T07:22:49Z</time>
      </trkpt>
      <trkpt lat="42.48569" lon="8.86244">
        <ele>740.6</ele>
        <time>2015-07-02T07:22:57Z</time>
      </trkpt>
      <trkpt lat="42.48575" lon="8.86234">
        <ele>740.4</ele>
        <time>2015-07-02T07:23:06Z</time>
      </trkpt>
      <trkpt lat="42.48582" lon="8.86221">
        <ele>739.6</ele>
        <time>2015-07-02T07:23:16Z</time>
      </trkpt>
      <trkpt lat="42.48584" lon="8.86218">
        <ele>739.4</ele>
        <time>2015-07-02T07:23:19Z</time>
      </trkpt>
      <trkpt lat="42.48585" lon="8.86213">
        <ele>738.8</ele>
        <time>2015-07-02T07:23:23Z</time>
      </trkpt>
      <trkpt lat="42.4859" lon="8.86209">
        <ele>738</ele>
        <time>2015-07-02T07:23:28Z</time>
      </trkpt>
      <trkpt lat="42.48596" lon="8.86201">
        <ele>736.6</ele>
        <time>2015-07-02T07:23:36Z</time>
      </trkpt>
      <trkpt lat="42.48604" lon="8.86193">
        <ele>735.6</ele>
        <time>2015-07-02T07:23:47Z</time>
      </trkpt>
      <trkpt lat="42.48607" lon="8.86189">
        <ele>735</ele>
        <time>2015-07-02T07:23:52Z</time>
      </trkpt>
      <trkpt lat="42.48611" lon="8.86185">
        <ele>733.6</ele>
        <time>2015-07-02T07:23:58Z</time>
      </trkpt>
      <trkpt lat="42.48617" lon="8.86179">
        <ele>732.4</ele>
        <time>2015-07-02T07:24:05Z</time>
      </trkpt>
      <trkpt lat="42.48623" lon="8.86175">
        <ele>731.8</ele>
        <time>2015-07-02T07:24:11Z</time>
      </trkpt>
      <trkpt lat="42.48634" lon="8.86165">
        <ele>730.2</ele>
        <time>2015-07-02T07:24:24Z</time>
      </trkpt>
      <trkpt lat="42.48641" lon="8.86157">
        <ele>729.6</ele>
        <time>2015-07-02T07:24:32Z</time>
      </trkpt>
      <trkpt lat="42.48648" lon="8.86143">
        <ele>728.4</ele>
        <time>2015-07-02T07:24:44Z</time>
      </trkpt>
      <trkpt lat="42.48649" lon="8.8614">
        <ele>728.2</ele>
        <time>2015-07-02T07:24:46Z</time>
      </trkpt>
      <trkpt lat="42.4865" lon="8.86138">
        <ele>728.2</ele>
        <time>2015-07-02T07:24:48Z</time>
      </trkpt>
      <trkpt lat="42.48656" lon="8.8612">
        <ele>727.4</ele>
        <time>2015-07-02T07:25:01Z</time>
      </trkpt>
      <trkpt lat="42.48659" lon="8.86112">
        <ele>727.2</ele>
        <time>2015-07-02T07:25:07Z</time>
      </trkpt>
      <trkpt lat="42.4866" lon="8.8611">
        <ele>727.2</ele>
        <time>2015-07-02T07:25:09Z</time>
      </trkpt>
      <trkpt lat="42.48669" lon="8.86102">
        <ele>727.2</ele>
        <time>2015-07-02T07:25:25Z</time>
      </trkpt>
      <trkpt lat="42.48672" lon="8.86096">
        <ele>726.2</ele>
        <time>2015-07-02T07:25:32Z</time>
      </trkpt>
      <trkpt lat="42.48675" lon="8.86089">
        <ele>725</ele>
        <time>2015-07-02T07:25:39Z</time>
      </trkpt>
      <trkpt lat="42.4868" lon="8.86077">
        <ele>723.8</ele>
        <time>2015-07-02T07:25:50Z</time>
      </trkpt>
      <trkpt lat="42.4868" lon="8.86075">
        <ele>723.6</ele>
        <time>2015-07-02T07:25:52Z</time>
      </trkpt>
      <trkpt lat="42.4868" lon="8.86071">
        <ele>723.2</ele>
        <time>2015-07-02T07:25:58Z</time>
      </trkpt>
      <trkpt lat="42.48684" lon="8.86065">
        <ele>721.6</ele>
        <time>2015-07-02T07:26:07Z</time>
      </trkpt>
      <trkpt lat="42.48685" lon="8.86058">
        <ele>721.2</ele>
        <time>2015-07-02T07:26:12Z</time>
      </trkpt>
      <trkpt lat="42.48691" lon="8.86049">
        <ele>719.6</ele>
        <time>2015-07-02T07:26:21Z</time>
      </trkpt>
      <trkpt lat="42.48692" lon="8.86048">
        <ele>719.4</ele>
        <time>2015-07-02T07:26:22Z</time>
      </trkpt>
      <trkpt lat="42.48696" lon="8.8604">
        <ele>719.2</ele>
        <time>2015-07-02T07:26:29Z</time>
      </trkpt>
      <trkpt lat="42.487" lon="8.8603">
        <ele>718.6</ele>
        <time>2015-07-02T07:26:39Z</time>
      </trkpt>
      <trkpt lat="42.487" lon="8.86029">
        <ele>718.6</ele>
        <time>2015-07-02T07:26:40Z</time>
      </trkpt>
      <trkpt lat="42.48701" lon="8.86028">
        <ele>718.6</ele>
        <time>2015-07-02T07:26:41Z</time>
      </trkpt>
      <trkpt lat="42.4871" lon="8.86011">
        <ele>718.2</ele>
        <time>2015-07-02T07:26:57Z</time>
      </trkpt>
      <trkpt lat="42.48716" lon="8.86005">
        <ele>716.6</ele>
        <time>2015-07-02T07:27:17Z</time>
      </trkpt>
      <trkpt lat="42.4872" lon="8.86">
        <ele>716.4</ele>
        <time>2015-07-02T07:27:22Z</time>
      </trkpt>
      <trkpt lat="42.48724" lon="8.85997">
        <ele>715.8</ele>
        <time>2015-07-02T07:27:26Z</time>
      </trkpt>
      <trkpt lat="42.48745" lon="8.86004">
        <ele>715.2</ele>
        <time>2015-07-02T07:27:55Z</time>
      </trkpt>
      <trkpt lat="42.48747" lon="8.86007">
        <ele>715.6</ele>
        <time>2015-07-02T07:28:02Z</time>
      </trkpt>
      <trkpt lat="42.48758" lon="8.86006">
        <ele>716</ele>
        <time>2015-07-02T07:28:17Z</time>
      </trkpt>
      <trkpt lat="42.48798" lon="8.85987">
        <ele>716.2</ele>
        <time>2015-07-02T07:29:01Z</time>
      </trkpt>
      <trkpt lat="42.48804" lon="8.85982">
        <ele>716.2</ele>
        <time>2015-07-02T07:29:08Z</time>
      </trkpt>
      <trkpt lat="42.48807" lon="8.8598">
        <ele>716.2</ele>
        <time>2015-07-02T07:29:12Z</time>
      </trkpt>
      <trkpt lat="42.48811" lon="8.85976">
        <ele>716.4</ele>
        <time>2015-07-02T07:29:18Z</time>
      </trkpt>
      <trkpt lat="42.48846" lon="8.85956">
        <ele>716.4</ele>
        <time>2015-07-02T07:29:53Z</time>
      </trkpt>
      <trkpt lat="42.48874" lon="8.85951">
        <ele>715.8</ele>
        <time>2015-07-02T07:30:21Z</time>
      </trkpt>
      <trkpt lat="42.48883" lon="8.85943">
        <ele>715.2</ele>
        <time>2015-07-02T07:30:31Z</time>
      </trkpt>
      <trkpt lat="42.48885" lon="8.85941">
        <ele>715.2</ele>
        <time>2015-07-02T07:30:33Z</time>
      </trkpt>
      <trkpt lat="42.48892" lon="8.85938">
        <ele>715</ele>
        <time>2015-07-02T07:30:40Z</time>
      </trkpt>
      <trkpt lat="42.48925" lon="8.8594">
        <ele>715.4</ele>
        <time>2015-07-02T07:31:10Z</time>
      </trkpt>
      <trkpt lat="42.48931" lon="8.85941">
        <ele>715</ele>
        <time>2015-07-02T07:31:16Z</time>
      </trkpt>
      <trkpt lat="42.48975" lon="8.8595">
        <ele>715.2</ele>
        <time>2015-07-02T07:31:53Z</time>
      </trkpt>
      <trkpt lat="42.4898" lon="8.8595">
        <ele>715.2</ele>
        <time>2015-07-02T07:31:57Z</time>
      </trkpt>
      <trkpt lat="42.48993" lon="8.85944">
        <ele>714.8</ele>
        <time>2015-07-02T07:32:09Z</time>
      </trkpt>
      <trkpt lat="42.48997" lon="8.85941">
        <ele>714.6</ele>
        <time>2015-07-02T07:32:13Z</time>
      </trkpt>
      <trkpt lat="42.49001" lon="8.85938">
        <ele>714.4</ele>
        <time>2015-07-02T07:32:17Z</time>
      </trkpt>
      <trkpt lat="42.49004" lon="8.85938">
        <ele>714.2</ele>
        <time>2015-07-02T07:32:21Z</time>
      </trkpt>
      <trkpt lat="42.49013" lon="8.85929">
        <ele>713.8</ele>
        <time>2015-07-02T07:32:31Z</time>
      </trkpt>
      <trkpt lat="42.49033" lon="8.85903">
        <ele>713</ele>
        <time>2015-07-02T07:32:55Z</time>
      </trkpt>
      <trkpt lat="42.49039" lon="8.85893">
        <ele>713.2</ele>
        <time>2015-07-02T07:33:05Z</time>
      </trkpt>
      <trkpt lat="42.49044" lon="8.85884">
        <ele>714.2</ele>
        <time>2015-07-02T07:33:17Z</time>
      </trkpt>
      <trkpt lat="42.49049" lon="8.85872">
        <ele>715.2</ele>
        <time>2015-07-02T07:33:40Z</time>
      </trkpt>
      <trkpt lat="42.49055" lon="8.85865">
        <ele>713.8</ele>
        <time>2015-07-02T07:33:47Z</time>
      </trkpt>
      <trkpt lat="42.49064" lon="8.85857">
        <ele>712.6</ele>
        <time>2015-07-02T07:33:57Z</time>
      </trkpt>
      <trkpt lat="42.49068" lon="8.85854">
        <ele>712.2</ele>
        <time>2015-07-02T07:34:02Z</time>
      </trkpt>
      <trkpt lat="42.49072" lon="8.85854">
        <ele>711.8</ele>
        <time>2015-07-02T07:34:09Z</time>
      </trkpt>
      <trkpt lat="42.49075" lon="8.85855">
        <ele>711.2</ele>
        <time>2015-07-02T07:34:14Z</time>
      </trkpt>
      <trkpt lat="42.49079" lon="8.85853">
        <ele>710.2</ele>
        <time>2015-07-02T07:34:19Z</time>
      </trkpt>
      <trkpt lat="42.49084" lon="8.85851">
        <ele>709</ele>
        <time>2015-07-02T07:34:24Z</time>
      </trkpt>
      <trkpt lat="42.49087" lon="8.85848">
        <ele>707.8</ele>
        <time>2015-07-02T07:34:29Z</time>
      </trkpt>
      <trkpt lat="42.4909" lon="8.85843">
        <ele>706.4</ele>
        <time>2015-07-02T07:34:37Z</time>
      </trkpt>
      <trkpt lat="42.49093" lon="8.85841">
        <ele>705.2</ele>
        <time>2015-07-02T07:34:45Z</time>
      </trkpt>
      <trkpt lat="42.49095" lon="8.85842">
        <ele>704.6</ele>
        <time>2015-07-02T07:34:49Z</time>
      </trkpt>
      <trkpt lat="42.49098" lon="8.85843">
        <ele>703.2</ele>
        <time>2015-07-02T07:34:55Z</time>
      </trkpt>
      <trkpt lat="42.49101" lon="8.85843">
        <ele>702.4</ele>
        <time>2015-07-02T07:35:00Z</time>
      </trkpt>
      <trkpt lat="42.49104" lon="8.85845">
        <ele>701.4</ele>
        <time>2015-07-02T07:35:04Z</time>
      </trkpt>
      <trkpt lat="42.49108" lon="8.85847">
        <ele>700.6</ele>
        <time>2015-07-02T07:35:08Z</time>
      </trkpt>
      <trkpt lat="42.49112" lon="8.8585">
        <ele>699.2</ele>
        <time>2015-07-02T07:35:13Z</time>
      </trkpt>
      <trkpt lat="42.49116" lon="8.8585">
        <ele>698</ele>
        <time>2015-07-02T07:35:19Z</time>
      </trkpt>
      <trkpt lat="42.49121" lon="8.85848">
        <ele>696.6</ele>
        <time>2015-07-02T07:35:26Z</time>
      </trkpt>
      <trkpt lat="42.49125" lon="8.85845">
        <ele>696</ele>
        <time>2015-07-02T07:35:31Z</time>
      </trkpt>
      <trkpt lat="42.4913" lon="8.85845">
        <ele>694.6</ele>
        <time>2015-07-02T07:35:37Z</time>
      </trkpt>
      <trkpt lat="42.49136" lon="8.85841">
        <ele>693.4</ele>
        <time>2015-07-02T07:35:47Z</time>
      </trkpt>
      <trkpt lat="42.4914" lon="8.85836">
        <ele>692.6</ele>
        <time>2015-07-02T07:35:53Z</time>
      </trkpt>
      <trkpt lat="42.49144" lon="8.85831">
        <ele>691.2</ele>
        <time>2015-07-02T07:36:01Z</time>
      </trkpt>
      <trkpt lat="42.4915" lon="8.85828">
        <ele>690.2</ele>
        <time>2015-07-02T07:36:10Z</time>
      </trkpt>
      <trkpt lat="42.49154" lon="8.85825">
        <ele>689.4</ele>
        <time>2015-07-02T07:36:17Z</time>
      </trkpt>
      <trkpt lat="42.49159" lon="8.85821">
        <ele>688.4</ele>
        <time>2015-07-02T07:36:25Z</time>
      </trkpt>
      <trkpt lat="42.49167" lon="8.85814">
        <ele>687.2</ele>
        <time>2015-07-02T07:36:36Z</time>
      </trkpt>
      <trkpt lat="42.49167" lon="8.85812">
        <ele>687.2</ele>
        <time>2015-07-02T07:36:37Z</time>
      </trkpt>
      <trkpt lat="42.49168" lon="8.85808">
        <ele>686.8</ele>
        <time>2015-07-02T07:36:41Z</time>
      </trkpt>
      <trkpt lat="42.49168" lon="8.85802">
        <ele>685.4</ele>
        <time>2015-07-02T07:36:48Z</time>
      </trkpt>
      <trkpt lat="42.4917" lon="8.85796">
        <ele>684.6</ele>
        <time>2015-07-02T07:36:55Z</time>
      </trkpt>
      <trkpt lat="42.49174" lon="8.85793">
        <ele>683.6</ele>
        <time>2015-07-02T07:37:00Z</time>
      </trkpt>
      <trkpt lat="42.49177" lon="8.85785">
        <ele>682</ele>
        <time>2015-07-02T07:37:08Z</time>
      </trkpt>
      <trkpt lat="42.49179" lon="8.85779">
        <ele>681</ele>
        <time>2015-07-02T07:37:15Z</time>
      </trkpt>
      <trkpt lat="42.49181" lon="8.85774">
        <ele>680.4</ele>
        <time>2015-07-02T07:37:20Z</time>
      </trkpt>
      <trkpt lat="42.49183" lon="8.85769">
        <ele>679</ele>
        <time>2015-07-02T07:37:26Z</time>
      </trkpt>
      <trkpt lat="42.49185" lon="8.85764">
        <ele>678.2</ele>
        <time>2015-07-02T07:37:31Z</time>
      </trkpt>
      <trkpt lat="42.49188" lon="8.85757">
        <ele>676.6</ele>
        <time>2015-07-02T07:37:39Z</time>
      </trkpt>
      <trkpt lat="42.49191" lon="8.8575">
        <ele>675.6</ele>
        <time>2015-07-02T07:37:47Z</time>
      </trkpt>
      <trkpt lat="42.49195" lon="8.85747">
        <ele>674.6</ele>
        <time>2015-07-02T07:37:55Z</time>
      </trkpt>
      <trkpt lat="42.49198" lon="8.85744">
        <ele>673.8</ele>
        <time>2015-07-02T07:38:02Z</time>
      </trkpt>
      <trkpt lat="42.49201" lon="8.8574">
        <ele>672.8</ele>
        <time>2015-07-02T07:38:08Z</time>
      </trkpt>
      <trkpt lat="42.49205" lon="8.85736">
        <ele>671.8</ele>
        <time>2015-07-02T07:38:13Z</time>
      </trkpt>
      <trkpt lat="42.49208" lon="8.85732">
        <ele>670.8</ele>
        <time>2015-07-02T07:38:18Z</time>
      </trkpt>
      <trkpt lat="42.4921" lon="8.85729">
        <ele>670</ele>
        <time>2015-07-02T07:38:22Z</time>
      </trkpt>
      <trkpt lat="42.4921" lon="8.85726">
        <ele>669.6</ele>
        <time>2015-07-02T07:38:24Z</time>
      </trkpt>
      <trkpt lat="42.4921" lon="8.85719">
        <ele>668.8</ele>
        <time>2015-07-02T07:38:30Z</time>
      </trkpt>
      <trkpt lat="42.49214" lon="8.85711">
        <ele>667.2</ele>
        <time>2015-07-02T07:38:38Z</time>
      </trkpt>
      <trkpt lat="42.49215" lon="8.85704">
        <ele>666.6</ele>
        <time>2015-07-02T07:38:44Z</time>
      </trkpt>
      <trkpt lat="42.49215" lon="8.85691">
        <ele>665.2</ele>
        <time>2015-07-02T07:38:53Z</time>
      </trkpt>
      <trkpt lat="42.49215" lon="8.8569">
        <ele>665</ele>
        <time>2015-07-02T07:38:54Z</time>
      </trkpt>
      <trkpt lat="42.49214" lon="8.85681">
        <ele>664.6</ele>
        <time>2015-07-02T07:39:00Z</time>
      </trkpt>
      <trkpt lat="42.49214" lon="8.85679">
        <ele>664.4</ele>
        <time>2015-07-02T07:39:02Z</time>
      </trkpt>
      <trkpt lat="42.4922" lon="8.8567">
        <ele>663.2</ele>
        <time>2015-07-02T07:39:11Z</time>
      </trkpt>
      <trkpt lat="42.49222" lon="8.8566">
        <ele>662.8</ele>
        <time>2015-07-02T07:39:18Z</time>
      </trkpt>
      <trkpt lat="42.49224" lon="8.85658">
        <ele>662.2</ele>
        <time>2015-07-02T07:39:20Z</time>
      </trkpt>
      <trkpt lat="42.49228" lon="8.85648">
        <ele>661.4</ele>
        <time>2015-07-02T07:39:31Z</time>
      </trkpt>
      <trkpt lat="42.4923" lon="8.8564">
        <ele>660.6</ele>
        <time>2015-07-02T07:39:37Z</time>
      </trkpt>
      <trkpt lat="42.49232" lon="8.85632">
        <ele>659.6</ele>
        <time>2015-07-02T07:39:43Z</time>
      </trkpt>
      <trkpt lat="42.49236" lon="8.85626">
        <ele>658.6</ele>
        <time>2015-07-02T07:39:50Z</time>
      </trkpt>
      <trkpt lat="42.49236" lon="8.85623">
        <ele>658.4</ele>
        <time>2015-07-02T07:39:52Z</time>
      </trkpt>
      <trkpt lat="42.49237" lon="8.85623">
        <ele>658.4</ele>
        <time>2015-07-02T07:39:53Z</time>
      </trkpt>
      <trkpt lat="42.4924" lon="8.85617">
        <ele>657.8</ele>
        <time>2015-07-02T07:39:59Z</time>
      </trkpt>
      <trkpt lat="42.49243" lon="8.85612">
        <ele>657.4</ele>
        <time>2015-07-02T07:40:03Z</time>
      </trkpt>
      <trkpt lat="42.49244" lon="8.85612">
        <ele>657.2</ele>
        <time>2015-07-02T07:40:04Z</time>
      </trkpt>
      <trkpt lat="42.49245" lon="8.85612">
        <ele>657</ele>
        <time>2015-07-02T07:40:06Z</time>
      </trkpt>
      <trkpt lat="42.4925" lon="8.85604">
        <ele>656.6</ele>
        <time>2015-07-02T07:40:13Z</time>
      </trkpt>
      <trkpt lat="42.49255" lon="8.85596">
        <ele>655.6</ele>
        <time>2015-07-02T07:40:22Z</time>
      </trkpt>
      <trkpt lat="42.4926" lon="8.8558">
        <ele>654.2</ele>
        <time>2015-07-02T07:40:37Z</time>
      </trkpt>
      <trkpt lat="42.49266" lon="8.85572">
        <ele>653.6</ele>
        <time>2015-07-02T07:40:49Z</time>
      </trkpt>
      <trkpt lat="42.49269" lon="8.85558">
        <ele>652.4</ele>
        <time>2015-07-02T07:41:01Z</time>
      </trkpt>
      <trkpt lat="42.49275" lon="8.85548">
        <ele>651.6</ele>
        <time>2015-07-02T07:41:10Z</time>
      </trkpt>
      <trkpt lat="42.49273" lon="8.85535">
        <ele>650.8</ele>
        <time>2015-07-02T07:41:19Z</time>
      </trkpt>
      <trkpt lat="42.49273" lon="8.85525">
        <ele>649.8</ele>
        <time>2015-07-02T07:41:26Z</time>
      </trkpt>
      <trkpt lat="42.49273" lon="8.85524">
        <ele>649.8</ele>
        <time>2015-07-02T07:41:27Z</time>
      </trkpt>
      <trkpt lat="42.49286" lon="8.85486">
        <ele>649</ele>
        <time>2015-07-02T07:41:57Z</time>
      </trkpt>
      <trkpt lat="42.49285" lon="8.85475">
        <ele>649</ele>
        <time>2015-07-02T07:42:06Z</time>
      </trkpt>
      <trkpt lat="42.49286" lon="8.85456">
        <ele>647.4</ele>
        <time>2015-07-02T07:42:21Z</time>
      </trkpt>
      <trkpt lat="42.49288" lon="8.85444">
        <ele>646.8</ele>
        <time>2015-07-02T07:42:29Z</time>
      </trkpt>
      <trkpt lat="42.4929" lon="8.85437">
        <ele>646.2</ele>
        <time>2015-07-02T07:42:34Z</time>
      </trkpt>
      <trkpt lat="42.4929" lon="8.85435">
        <ele>646</ele>
        <time>2015-07-02T07:42:36Z</time>
      </trkpt>
      <trkpt lat="42.4929" lon="8.85432">
        <ele>646</ele>
        <time>2015-07-02T07:42:38Z</time>
      </trkpt>
      <trkpt lat="42.49292" lon="8.85419">
        <ele>645.6</ele>
        <time>2015-07-02T07:42:48Z</time>
      </trkpt>
      <trkpt lat="42.49291" lon="8.85395">
        <ele>644.8</ele>
        <time>2015-07-02T07:43:06Z</time>
      </trkpt>
      <trkpt lat="42.4929" lon="8.85372">
        <ele>643.6</ele>
        <time>2015-07-02T07:43:22Z</time>
      </trkpt>
      <trkpt lat="42.49288" lon="8.85348">
        <ele>642.4</ele>
        <time>2015-07-02T07:43:39Z</time>
      </trkpt>
      <trkpt lat="42.49284" lon="8.85323">
        <ele>641.6</ele>
        <time>2015-07-02T07:43:55Z</time>
      </trkpt>
      <trkpt lat="42.49283" lon="8.8532">
        <ele>641.6</ele>
        <time>2015-07-02T07:43:57Z</time>
      </trkpt>
      <trkpt lat="42.49278" lon="8.853">
        <ele>640.8</ele>
        <time>2015-07-02T07:44:10Z</time>
      </trkpt>
      <trkpt lat="42.49271" lon="8.85255">
        <ele>639.6</ele>
        <time>2015-07-02T07:44:41Z</time>
      </trkpt>
      <trkpt lat="42.49265" lon="8.85222">
        <ele>639.8</ele>
        <time>2015-07-02T07:45:06Z</time>
      </trkpt>
      <trkpt lat="42.49265" lon="8.85217">
        <ele>639.8</ele>
        <time>2015-07-02T07:45:10Z</time>
      </trkpt>
      <trkpt lat="42.49252" lon="8.85181">
        <ele>639.8</ele>
        <time>2015-07-02T07:45:45Z</time>
      </trkpt>
      <trkpt lat="42.49249" lon="8.85179">
        <ele>639</ele>
        <time>2015-07-02T07:45:50Z</time>
      </trkpt>
      <trkpt lat="42.49245" lon="8.85172">
        <ele>637.4</ele>
        <time>2015-07-02T07:45:57Z</time>
      </trkpt>
      <trkpt lat="42.4924" lon="8.85166">
        <ele>636.2</ele>
        <time>2015-07-02T07:46:05Z</time>
      </trkpt>
      <trkpt lat="42.49238" lon="8.85162">
        <ele>635.8</ele>
        <time>2015-07-02T07:46:10Z</time>
      </trkpt>
      <trkpt lat="42.49236" lon="8.85153">
        <ele>634.2</ele>
        <time>2015-07-02T07:46:17Z</time>
      </trkpt>
      <trkpt lat="42.49237" lon="8.8515">
        <ele>634</ele>
        <time>2015-07-02T07:46:19Z</time>
      </trkpt>
      <trkpt lat="42.49238" lon="8.85147">
        <ele>633.6</ele>
        <time>2015-07-02T07:46:21Z</time>
      </trkpt>
      <trkpt lat="42.49238" lon="8.85145">
        <ele>633.2</ele>
        <time>2015-07-02T07:46:23Z</time>
      </trkpt>
      <trkpt lat="42.49241" lon="8.85133">
        <ele>631.8</ele>
        <time>2015-07-02T07:46:34Z</time>
      </trkpt>
      <trkpt lat="42.49249" lon="8.85119">
        <ele>632.6</ele>
        <time>2015-07-02T07:46:52Z</time>
      </trkpt>
      <trkpt lat="42.49257" lon="8.8511">
        <ele>634</ele>
        <time>2015-07-02T07:47:03Z</time>
      </trkpt>
      <trkpt lat="42.49259" lon="8.85095">
        <ele>634.4</ele>
        <time>2015-07-02T07:47:13Z</time>
      </trkpt>
      <trkpt lat="42.49269" lon="8.85089">
        <ele>634.8</ele>
        <time>2015-07-02T07:47:25Z</time>
      </trkpt>
      <trkpt lat="42.49276" lon="8.85086">
        <ele>635.8</ele>
        <time>2015-07-02T07:47:33Z</time>
      </trkpt>
      <trkpt lat="42.49277" lon="8.85092">
        <ele>637</ele>
        <time>2015-07-02T07:47:43Z</time>
      </trkpt>
      <trkpt lat="42.49279" lon="8.85099">
        <ele>637.8</ele>
        <time>2015-07-02T07:47:50Z</time>
      </trkpt>
      <trkpt lat="42.4928" lon="8.85102">
        <ele>638.8</ele>
        <time>2015-07-02T07:47:56Z</time>
      </trkpt>
      <trkpt lat="42.49284" lon="8.85102">
        <ele>640.2</ele>
        <time>2015-07-02T07:48:04Z</time>
      </trkpt>
      <trkpt lat="42.49288" lon="8.85101">
        <ele>640.8</ele>
        <time>2015-07-02T07:48:10Z</time>
      </trkpt>
      <trkpt lat="42.49293" lon="8.851">
        <ele>642</ele>
        <time>2015-07-02T07:48:16Z</time>
      </trkpt>
      <trkpt lat="42.493" lon="8.85096">
        <ele>643.6</ele>
        <time>2015-07-02T07:48:25Z</time>
      </trkpt>
      <trkpt lat="42.49305" lon="8.85093">
        <ele>644.6</ele>
        <time>2015-07-02T07:48:33Z</time>
      </trkpt>
      <trkpt lat="42.4931" lon="8.8509">
        <ele>645.4</ele>
        <time>2015-07-02T07:48:41Z</time>
      </trkpt>
      <trkpt lat="42.49316" lon="8.85087">
        <ele>646.8</ele>
        <time>2015-07-02T07:48:50Z</time>
      </trkpt>
      <trkpt lat="42.49321" lon="8.85083">
        <ele>647.8</ele>
        <time>2015-07-02T07:48:58Z</time>
      </trkpt>
      <trkpt lat="42.49327" lon="8.8508">
        <ele>649</ele>
        <time>2015-07-02T07:49:07Z</time>
      </trkpt>
      <trkpt lat="42.49332" lon="8.85077">
        <ele>650</ele>
        <time>2015-07-02T07:49:16Z</time>
      </trkpt>
      <trkpt lat="42.49339" lon="8.85073">
        <ele>651.4</ele>
        <time>2015-07-02T07:49:26Z</time>
      </trkpt>
      <trkpt lat="42.49345" lon="8.85074">
        <ele>652.6</ele>
        <time>2015-07-02T07:49:37Z</time>
      </trkpt>
      <trkpt lat="42.49351" lon="8.85075">
        <ele>653.6</ele>
        <time>2015-07-02T07:49:46Z</time>
      </trkpt>
      <trkpt lat="42.49358" lon="8.85071">
        <ele>654.8</ele>
        <time>2015-07-02T07:49:57Z</time>
      </trkpt>
      <trkpt lat="42.49368" lon="8.8506">
        <ele>656</ele>
        <time>2015-07-02T07:50:13Z</time>
      </trkpt>
      <trkpt lat="42.49372" lon="8.85053">
        <ele>657.2</ele>
        <time>2015-07-02T07:50:23Z</time>
      </trkpt>
      <trkpt lat="42.49377" lon="8.85052">
        <ele>658.2</ele>
        <time>2015-07-02T07:50:33Z</time>
      </trkpt>
      <trkpt lat="42.49382" lon="8.85047">
        <ele>659.2</ele>
        <time>2015-07-02T07:50:43Z</time>
      </trkpt>
      <trkpt lat="42.49384" lon="8.8504">
        <ele>660</ele>
        <time>2015-07-02T07:50:51Z</time>
      </trkpt>
      <trkpt lat="42.49389" lon="8.85031">
        <ele>661.2</ele>
        <time>2015-07-02T07:51:00Z</time>
      </trkpt>
      <trkpt lat="42.49399" lon="8.85021">
        <ele>663</ele>
        <time>2015-07-02T07:51:16Z</time>
      </trkpt>
      <trkpt lat="42.49425" lon="8.85006">
        <ele>663.4</ele>
        <time>2015-07-02T07:51:51Z</time>
      </trkpt>
      <trkpt lat="42.49428" lon="8.85005">
        <ele>663.2</ele>
        <time>2015-07-02T07:51:55Z</time>
      </trkpt>
      <trkpt lat="42.49429" lon="8.85003">
        <ele>663</ele>
        <time>2015-07-02T07:51:57Z</time>
      </trkpt>
      <trkpt lat="42.49434" lon="8.84998">
        <ele>662</ele>
        <time>2015-07-02T07:52:05Z</time>
      </trkpt>
      <trkpt lat="42.49437" lon="8.84994">
        <ele>661.6</ele>
        <time>2015-07-02T07:52:09Z</time>
      </trkpt>
      <trkpt lat="42.4944" lon="8.84985">
        <ele>660.8</ele>
        <time>2015-07-02T07:53:27Z</time>
      </trkpt>
      <trkpt lat="42.49442" lon="8.84983">
        <ele>660.8</ele>
        <time>2015-07-02T07:53:30Z</time>
      </trkpt>
      <trkpt lat="42.49444" lon="8.84983">
        <ele>660.8</ele>
        <time>2015-07-02T07:53:32Z</time>
      </trkpt>
      <trkpt lat="42.49445" lon="8.84983">
        <ele>660.8</ele>
        <time>2015-07-02T07:53:34Z</time>
      </trkpt>
      <trkpt lat="42.4945" lon="8.8498">
        <ele>659.6</ele>
        <time>2015-07-02T07:53:42Z</time>
      </trkpt>
      <trkpt lat="42.49453" lon="8.84979">
        <ele>659</ele>
        <time>2015-07-02T07:53:46Z</time>
      </trkpt>
      <trkpt lat="42.49456" lon="8.84983">
        <ele>657.8</ele>
        <time>2015-07-02T07:53:51Z</time>
      </trkpt>
      <trkpt lat="42.4946" lon="8.84987">
        <ele>656.2</ele>
        <time>2015-07-02T07:53:59Z</time>
      </trkpt>
      <trkpt lat="42.49463" lon="8.84985">
        <ele>656</ele>
        <time>2015-07-02T07:54:03Z</time>
      </trkpt>
      <trkpt lat="42.49466" lon="8.84985">
        <ele>655.2</ele>
        <time>2015-07-02T07:54:06Z</time>
      </trkpt>
      <trkpt lat="42.49467" lon="8.84986">
        <ele>654.6</ele>
        <time>2015-07-02T07:54:08Z</time>
      </trkpt>
      <trkpt lat="42.49467" lon="8.84988">
        <ele>654.4</ele>
        <time>2015-07-02T07:54:09Z</time>
      </trkpt>
      <trkpt lat="42.49465" lon="8.84993">
        <ele>653.4</ele>
        <time>2015-07-02T07:54:14Z</time>
      </trkpt>
      <trkpt lat="42.49464" lon="8.84994">
        <ele>653.2</ele>
        <time>2015-07-02T07:54:15Z</time>
      </trkpt>
      <trkpt lat="42.49464" lon="8.85002">
        <ele>652.2</ele>
        <time>2015-07-02T07:54:20Z</time>
      </trkpt>
      <trkpt lat="42.49462" lon="8.85005">
        <ele>651.8</ele>
        <time>2015-07-02T07:54:24Z</time>
      </trkpt>
      <trkpt lat="42.49462" lon="8.8501">
        <ele>651</ele>
        <time>2015-07-02T07:54:31Z</time>
      </trkpt>
      <trkpt lat="42.49463" lon="8.85014">
        <ele>650.4</ele>
        <time>2015-07-02T07:54:36Z</time>
      </trkpt>
      <trkpt lat="42.49464" lon="8.85018">
        <ele>649.2</ele>
        <time>2015-07-02T07:54:41Z</time>
      </trkpt>
      <trkpt lat="42.49469" lon="8.8502">
        <ele>647.4</ele>
        <time>2015-07-02T07:54:56Z</time>
      </trkpt>
      <trkpt lat="42.49473" lon="8.85017">
        <ele>647</ele>
        <time>2015-07-02T07:55:01Z</time>
      </trkpt>
      <trkpt lat="42.49478" lon="8.85017">
        <ele>646</ele>
        <time>2015-07-02T07:55:07Z</time>
      </trkpt>
      <trkpt lat="42.49478" lon="8.8502">
        <ele>645.2</ele>
        <time>2015-07-02T07:55:12Z</time>
      </trkpt>
      <trkpt lat="42.49475" lon="8.85029">
        <ele>643.2</ele>
        <time>2015-07-02T07:55:26Z</time>
      </trkpt>
      <trkpt lat="42.49476" lon="8.85036">
        <ele>643</ele>
        <time>2015-07-02T07:55:32Z</time>
      </trkpt>
      <trkpt lat="42.49482" lon="8.85037">
        <ele>641.8</ele>
        <time>2015-07-02T07:55:38Z</time>
      </trkpt>
      <trkpt lat="42.49486" lon="8.85033">
        <ele>640.6</ele>
        <time>2015-07-02T07:55:45Z</time>
      </trkpt>
      <trkpt lat="42.49491" lon="8.8503">
        <ele>639.8</ele>
        <time>2015-07-02T07:55:51Z</time>
      </trkpt>
      <trkpt lat="42.49491" lon="8.85035">
        <ele>639</ele>
        <time>2015-07-02T07:55:56Z</time>
      </trkpt>
      <trkpt lat="42.49491" lon="8.85041">
        <ele>637.8</ele>
        <time>2015-07-02T07:56:01Z</time>
      </trkpt>
      <trkpt lat="42.4949" lon="8.85043">
        <ele>637.6</ele>
        <time>2015-07-02T07:56:03Z</time>
      </trkpt>
      <trkpt lat="42.49489" lon="8.85045">
        <ele>637.2</ele>
        <time>2015-07-02T07:56:05Z</time>
      </trkpt>
      <trkpt lat="42.49488" lon="8.85048">
        <ele>636.8</ele>
        <time>2015-07-02T07:56:08Z</time>
      </trkpt>
      <trkpt lat="42.49487" lon="8.85054">
        <ele>636</ele>
        <time>2015-07-02T07:56:13Z</time>
      </trkpt>
      <trkpt lat="42.49487" lon="8.85057">
        <ele>636</ele>
        <time>2015-07-02T07:56:15Z</time>
      </trkpt>
      <trkpt lat="42.49486" lon="8.85059">
        <ele>635.8</ele>
        <time>2015-07-02T07:56:17Z</time>
      </trkpt>
      <trkpt lat="42.49487" lon="8.85066">
        <ele>635</ele>
        <time>2015-07-02T07:56:22Z</time>
      </trkpt>
      <trkpt lat="42.49488" lon="8.85073">
        <ele>634.2</ele>
        <time>2015-07-02T07:56:29Z</time>
      </trkpt>
      <trkpt lat="42.49489" lon="8.85074">
        <ele>634</ele>
        <time>2015-07-02T07:56:31Z</time>
      </trkpt>
      <trkpt lat="42.49491" lon="8.85075">
        <ele>633.8</ele>
        <time>2015-07-02T07:56:35Z</time>
      </trkpt>
      <trkpt lat="42.49492" lon="8.85075">
        <ele>633.6</ele>
        <time>2015-07-02T07:56:37Z</time>
      </trkpt>
      <trkpt lat="42.49494" lon="8.85074">
        <ele>632</ele>
        <time>2015-07-02T07:56:48Z</time>
      </trkpt>
      <trkpt lat="42.49499" lon="8.85064">
        <ele>631.2</ele>
        <time>2015-07-02T07:57:22Z</time>
      </trkpt>
      <trkpt lat="42.49504" lon="8.85055">
        <ele>630.4</ele>
        <time>2015-07-02T07:57:30Z</time>
      </trkpt>
      <trkpt lat="42.49509" lon="8.8505">
        <ele>629.4</ele>
        <time>2015-07-02T07:57:37Z</time>
      </trkpt>
      <trkpt lat="42.49515" lon="8.85046">
        <ele>628.4</ele>
        <time>2015-07-02T07:57:45Z</time>
      </trkpt>
      <trkpt lat="42.4952" lon="8.85041">
        <ele>627.6</ele>
        <time>2015-07-02T07:57:51Z</time>
      </trkpt>
      <trkpt lat="42.49523" lon="8.8504">
        <ele>626.8</ele>
        <time>2015-07-02T07:57:55Z</time>
      </trkpt>
      <trkpt lat="42.49525" lon="8.8504">
        <ele>626.6</ele>
        <time>2015-07-02T07:57:57Z</time>
      </trkpt>
      <trkpt lat="42.49526" lon="8.85039">
        <ele>626.4</ele>
        <time>2015-07-02T07:57:58Z</time>
      </trkpt>
      <trkpt lat="42.49531" lon="8.85034">
        <ele>625.2</ele>
        <time>2015-07-02T07:58:05Z</time>
      </trkpt>
      <trkpt lat="42.49532" lon="8.85033">
        <ele>625.2</ele>
        <time>2015-07-02T07:58:06Z</time>
      </trkpt>
      <trkpt lat="42.49536" lon="8.85028">
        <ele>624.4</ele>
        <time>2015-07-02T07:58:13Z</time>
      </trkpt>
      <trkpt lat="42.49537" lon="8.85028">
        <ele>624.2</ele>
        <time>2015-07-02T07:58:14Z</time>
      </trkpt>
      <trkpt lat="42.49542" lon="8.85024">
        <ele>623.4</ele>
        <time>2015-07-02T07:58:20Z</time>
      </trkpt>
      <trkpt lat="42.49546" lon="8.85022">
        <ele>622.2</ele>
        <time>2015-07-02T07:58:27Z</time>
      </trkpt>
      <trkpt lat="42.49551" lon="8.85022">
        <ele>621.2</ele>
        <time>2015-07-02T07:58:33Z</time>
      </trkpt>
      <trkpt lat="42.49555" lon="8.8502">
        <ele>620.2</ele>
        <time>2015-07-02T07:58:39Z</time>
      </trkpt>
      <trkpt lat="42.49559" lon="8.85018">
        <ele>619.2</ele>
        <time>2015-07-02T07:58:44Z</time>
      </trkpt>
      <trkpt lat="42.49565" lon="8.85014">
        <ele>618</ele>
        <time>2015-07-02T07:58:51Z</time>
      </trkpt>
      <trkpt lat="42.4957" lon="8.8501">
        <ele>616.6</ele>
        <time>2015-07-02T07:58:58Z</time>
      </trkpt>
      <trkpt lat="42.49575" lon="8.85007">
        <ele>615.6</ele>
        <time>2015-07-02T07:59:05Z</time>
      </trkpt>
      <trkpt lat="42.49578" lon="8.85005">
        <ele>615</ele>
        <time>2015-07-02T07:59:10Z</time>
      </trkpt>
      <trkpt lat="42.49582" lon="8.85003">
        <ele>613.8</ele>
        <time>2015-07-02T07:59:16Z</time>
      </trkpt>
      <trkpt lat="42.49586" lon="8.85002">
        <ele>612</ele>
        <time>2015-07-02T07:59:26Z</time>
      </trkpt>
      <trkpt lat="42.49591" lon="8.84997">
        <ele>611.2</ele>
        <time>2015-07-02T07:59:35Z</time>
      </trkpt>
      <trkpt lat="42.49595" lon="8.84995">
        <ele>610.8</ele>
        <time>2015-07-02T07:59:40Z</time>
      </trkpt>
      <trkpt lat="42.49601" lon="8.84994">
        <ele>609.4</ele>
        <time>2015-07-02T07:59:47Z</time>
      </trkpt>
      <trkpt lat="42.49607" lon="8.8499">
        <ele>608.4</ele>
        <time>2015-07-02T07:59:54Z</time>
      </trkpt>
      <trkpt lat="42.49612" lon="8.84985">
        <ele>607</ele>
        <time>2015-07-02T08:00:01Z</time>
      </trkpt>
      <trkpt lat="42.49615" lon="8.84982">
        <ele>606.2</ele>
        <time>2015-07-02T08:00:07Z</time>
      </trkpt>
      <trkpt lat="42.4962" lon="8.84978">
        <ele>605</ele>
        <time>2015-07-02T08:00:15Z</time>
      </trkpt>
      <trkpt lat="42.49625" lon="8.84974">
        <ele>603.8</ele>
        <time>2015-07-02T08:00:22Z</time>
      </trkpt>
      <trkpt lat="42.49627" lon="8.84976">
        <ele>602.2</ele>
        <time>2015-07-02T08:00:46Z</time>
      </trkpt>
      <trkpt lat="42.49626" lon="8.84974">
        <ele>602</ele>
        <time>2015-07-02T08:02:30Z</time>
      </trkpt>
      <trkpt lat="42.49626" lon="8.84971">
        <ele>602</ele>
        <time>2015-07-02T08:05:20Z</time>
      </trkpt>
      <trkpt lat="42.49623" lon="8.84976">
        <ele>602</ele>
        <time>2015-07-02T08:06:59Z</time>
      </trkpt>
      <trkpt lat="42.49625" lon="8.84983">
        <ele>601.4</ele>
        <time>2015-07-02T08:07:06Z</time>
      </trkpt>
      <trkpt lat="42.49626" lon="8.8499">
        <ele>600.8</ele>
        <time>2015-07-02T08:07:11Z</time>
      </trkpt>
      <trkpt lat="42.49625" lon="8.84997">
        <ele>599.4</ele>
        <time>2015-07-02T08:07:17Z</time>
      </trkpt>
      <trkpt lat="42.49626" lon="8.85005">
        <ele>598.4</ele>
        <time>2015-07-02T08:07:23Z</time>
      </trkpt>
      <trkpt lat="42.49626" lon="8.85011">
        <ele>597.4</ele>
        <time>2015-07-02T08:07:28Z</time>
      </trkpt>
      <trkpt lat="42.49626" lon="8.8502">
        <ele>596.2</ele>
        <time>2015-07-02T08:07:34Z</time>
      </trkpt>
      <trkpt lat="42.49627" lon="8.85026">
        <ele>595.4</ele>
        <time>2015-07-02T08:07:39Z</time>
      </trkpt>
      <trkpt lat="42.49627" lon="8.85032">
        <ele>594.2</ele>
        <time>2015-07-02T08:07:44Z</time>
      </trkpt>
      <trkpt lat="42.49628" lon="8.85041">
        <ele>593</ele>
        <time>2015-07-02T08:07:50Z</time>
      </trkpt>
      <trkpt lat="42.49628" lon="8.85047">
        <ele>592.2</ele>
        <time>2015-07-02T08:07:55Z</time>
      </trkpt>
      <trkpt lat="42.49628" lon="8.85056">
        <ele>590.8</ele>
        <time>2015-07-02T08:08:02Z</time>
      </trkpt>
      <trkpt lat="42.49628" lon="8.85066">
        <ele>589.6</ele>
        <time>2015-07-02T08:08:09Z</time>
      </trkpt>
      <trkpt lat="42.4963" lon="8.85074">
        <ele>588.6</ele>
        <time>2015-07-02T08:08:15Z</time>
      </trkpt>
      <trkpt lat="42.49633" lon="8.85084">
        <ele>587.2</ele>
        <time>2015-07-02T08:08:22Z</time>
      </trkpt>
      <trkpt lat="42.49635" lon="8.85097">
        <ele>586</ele>
        <time>2015-07-02T08:08:30Z</time>
      </trkpt>
      <trkpt lat="42.49638" lon="8.85112">
        <ele>584.8</ele>
        <time>2015-07-02T08:08:41Z</time>
      </trkpt>
      <trkpt lat="42.49641" lon="8.85125">
        <ele>583.8</ele>
        <time>2015-07-02T08:08:50Z</time>
      </trkpt>
      <trkpt lat="42.49642" lon="8.85128">
        <ele>583.4</ele>
        <time>2015-07-02T08:08:53Z</time>
      </trkpt>
      <trkpt lat="42.49645" lon="8.85135">
        <ele>582.8</ele>
        <time>2015-07-02T08:09:00Z</time>
      </trkpt>
      <trkpt lat="42.49653" lon="8.85143">
        <ele>581.6</ele>
        <time>2015-07-02T08:09:09Z</time>
      </trkpt>
      <trkpt lat="42.49653" lon="8.85144">
        <ele>581.6</ele>
        <time>2015-07-02T08:09:10Z</time>
      </trkpt>
      <trkpt lat="42.49658" lon="8.85153">
        <ele>580.6</ele>
        <time>2015-07-02T08:09:18Z</time>
      </trkpt>
      <trkpt lat="42.49664" lon="8.85163">
        <ele>579.8</ele>
        <time>2015-07-02T08:09:27Z</time>
      </trkpt>
      <trkpt lat="42.49666" lon="8.85165">
        <ele>579.6</ele>
        <time>2015-07-02T08:09:29Z</time>
      </trkpt>
      <trkpt lat="42.49677" lon="8.85182">
        <ele>578.4</ele>
        <time>2015-07-02T08:09:44Z</time>
      </trkpt>
      <trkpt lat="42.49678" lon="8.85183">
        <ele>578.4</ele>
        <time>2015-07-02T08:09:45Z</time>
      </trkpt>
      <trkpt lat="42.49687" lon="8.85192">
        <ele>577.8</ele>
        <time>2015-07-02T08:09:57Z</time>
      </trkpt>
      <trkpt lat="42.49696" lon="8.85198">
        <ele>576.8</ele>
        <time>2015-07-02T08:10:08Z</time>
      </trkpt>
      <trkpt lat="42.49707" lon="8.85207">
        <ele>575.4</ele>
        <time>2015-07-02T08:10:22Z</time>
      </trkpt>
      <trkpt lat="42.49721" lon="8.85214">
        <ele>574.8</ele>
        <time>2015-07-02T08:10:36Z</time>
      </trkpt>
      <trkpt lat="42.49723" lon="8.85215">
        <ele>574.8</ele>
        <time>2015-07-02T08:10:37Z</time>
      </trkpt>
      <trkpt lat="42.49734" lon="8.85216">
        <ele>574</ele>
        <time>2015-07-02T08:10:47Z</time>
      </trkpt>
      <trkpt lat="42.49736" lon="8.85216">
        <ele>573.8</ele>
        <time>2015-07-02T08:10:49Z</time>
      </trkpt>
      <trkpt lat="42.49748" lon="8.85216">
        <ele>572.8</ele>
        <time>2015-07-02T08:10:59Z</time>
      </trkpt>
      <trkpt lat="42.49763" lon="8.85217">
        <ele>571.8</ele>
        <time>2015-07-02T08:11:13Z</time>
      </trkpt>
      <trkpt lat="42.49768" lon="8.85218">
        <ele>571.4</ele>
        <time>2015-07-02T08:11:19Z</time>
      </trkpt>
      <trkpt lat="42.49769" lon="8.85218">
        <ele>571.2</ele>
        <time>2015-07-02T08:11:20Z</time>
      </trkpt>
      <trkpt lat="42.49776" lon="8.85224">
        <ele>570</ele>
        <time>2015-07-02T08:11:29Z</time>
      </trkpt>
      <trkpt lat="42.49784" lon="8.85227">
        <ele>569.2</ele>
        <time>2015-07-02T08:11:37Z</time>
      </trkpt>
      <trkpt lat="42.4979" lon="8.85231">
        <ele>568</ele>
        <time>2015-07-02T08:11:44Z</time>
      </trkpt>
      <trkpt lat="42.49796" lon="8.85234">
        <ele>567.2</ele>
        <time>2015-07-02T08:11:51Z</time>
      </trkpt>
      <trkpt lat="42.49805" lon="8.85238">
        <ele>565.8</ele>
        <time>2015-07-02T08:12:00Z</time>
      </trkpt>
      <trkpt lat="42.49811" lon="8.85241">
        <ele>565.2</ele>
        <time>2015-07-02T08:12:06Z</time>
      </trkpt>
      <trkpt lat="42.49821" lon="8.85247">
        <ele>563.6</ele>
        <time>2015-07-02T08:12:16Z</time>
      </trkpt>
      <trkpt lat="42.49824" lon="8.85249">
        <ele>563.4</ele>
        <time>2015-07-02T08:12:19Z</time>
      </trkpt>
      <trkpt lat="42.49829" lon="8.85252">
        <ele>562.8</ele>
        <time>2015-07-02T08:12:24Z</time>
      </trkpt>
      <trkpt lat="42.49832" lon="8.85254">
        <ele>562.4</ele>
        <time>2015-07-02T08:12:27Z</time>
      </trkpt>
      <trkpt lat="42.49837" lon="8.85257">
        <ele>561.8</ele>
        <time>2015-07-02T08:12:32Z</time>
      </trkpt>
      <trkpt lat="42.4984" lon="8.85259">
        <ele>561.6</ele>
        <time>2015-07-02T08:12:34Z</time>
      </trkpt>
      <trkpt lat="42.49847" lon="8.85262">
        <ele>560.8</ele>
        <time>2015-07-02T08:12:41Z</time>
      </trkpt>
      <trkpt lat="42.49851" lon="8.85264">
        <ele>560.6</ele>
        <time>2015-07-02T08:12:44Z</time>
      </trkpt>
      <trkpt lat="42.49862" lon="8.85271">
        <ele>559.8</ele>
        <time>2015-07-02T08:12:55Z</time>
      </trkpt>
      <trkpt lat="42.4987" lon="8.85271">
        <ele>559</ele>
        <time>2015-07-02T08:13:02Z</time>
      </trkpt>
      <trkpt lat="42.49873" lon="8.85272">
        <ele>558.8</ele>
        <time>2015-07-02T08:13:04Z</time>
      </trkpt>
      <trkpt lat="42.49879" lon="8.85273">
        <ele>557.8</ele>
        <time>2015-07-02T08:13:11Z</time>
      </trkpt>
      <trkpt lat="42.49885" lon="8.85273">
        <ele>556.8</ele>
        <time>2015-07-02T08:13:18Z</time>
      </trkpt>
      <trkpt lat="42.49885" lon="8.85272">
        <ele>556.8</ele>
        <time>2015-07-02T08:13:19Z</time>
      </trkpt>
      <trkpt lat="42.49892" lon="8.85273">
        <ele>555.8</ele>
        <time>2015-07-02T08:13:28Z</time>
      </trkpt>
      <trkpt lat="42.49898" lon="8.85267">
        <ele>554.8</ele>
        <time>2015-07-02T08:13:35Z</time>
      </trkpt>
      <trkpt lat="42.49903" lon="8.85262">
        <ele>553.8</ele>
        <time>2015-07-02T08:13:42Z</time>
      </trkpt>
      <trkpt lat="42.49906" lon="8.85261">
        <ele>553.4</ele>
        <time>2015-07-02T08:13:44Z</time>
      </trkpt>
      <trkpt lat="42.49907" lon="8.85265">
        <ele>552.8</ele>
        <time>2015-07-02T08:13:48Z</time>
      </trkpt>
      <trkpt lat="42.49909" lon="8.85272">
        <ele>551.8</ele>
        <time>2015-07-02T08:13:54Z</time>
      </trkpt>
      <trkpt lat="42.49909" lon="8.85281">
        <ele>550.4</ele>
        <time>2015-07-02T08:14:01Z</time>
      </trkpt>
      <trkpt lat="42.49909" lon="8.85282">
        <ele>550.2</ele>
        <time>2015-07-02T08:14:02Z</time>
      </trkpt>
      <trkpt lat="42.49909" lon="8.85285">
        <ele>549.6</ele>
        <time>2015-07-02T08:14:05Z</time>
      </trkpt>
      <trkpt lat="42.49913" lon="8.85287">
        <ele>549.2</ele>
        <time>2015-07-02T08:14:09Z</time>
      </trkpt>
      <trkpt lat="42.49919" lon="8.8529">
        <ele>548.4</ele>
        <time>2015-07-02T08:14:15Z</time>
      </trkpt>
      <trkpt lat="42.49921" lon="8.85291">
        <ele>548.2</ele>
        <time>2015-07-02T08:14:17Z</time>
      </trkpt>
      <trkpt lat="42.49923" lon="8.85292">
        <ele>547.6</ele>
        <time>2015-07-02T08:14:20Z</time>
      </trkpt>
      <trkpt lat="42.49923" lon="8.85294">
        <ele>547.2</ele>
        <time>2015-07-02T08:14:22Z</time>
      </trkpt>
      <trkpt lat="42.49929" lon="8.85295">
        <ele>546.2</ele>
        <time>2015-07-02T08:14:31Z</time>
      </trkpt>
      <trkpt lat="42.49934" lon="8.85296">
        <ele>545.2</ele>
        <time>2015-07-02T08:14:38Z</time>
      </trkpt>
      <trkpt lat="42.49939" lon="8.85293">
        <ele>544.2</ele>
        <time>2015-07-02T08:14:44Z</time>
      </trkpt>
      <trkpt lat="42.49943" lon="8.85295">
        <ele>543.2</ele>
        <time>2015-07-02T08:14:50Z</time>
      </trkpt>
      <trkpt lat="42.49948" lon="8.85293">
        <ele>542.2</ele>
        <time>2015-07-02T08:14:56Z</time>
      </trkpt>
      <trkpt lat="42.49953" lon="8.85291">
        <ele>540.8</ele>
        <time>2015-07-02T08:15:03Z</time>
      </trkpt>
      <trkpt lat="42.49958" lon="8.85289">
        <ele>540</ele>
        <time>2015-07-02T08:15:09Z</time>
      </trkpt>
      <trkpt lat="42.49961" lon="8.85287">
        <ele>539.2</ele>
        <time>2015-07-02T08:15:13Z</time>
      </trkpt>
      <trkpt lat="42.49962" lon="8.85285">
        <ele>538.8</ele>
        <time>2015-07-02T08:15:15Z</time>
      </trkpt>
      <trkpt lat="42.49963" lon="8.85281">
        <ele>537.8</ele>
        <time>2015-07-02T08:15:19Z</time>
      </trkpt>
      <trkpt lat="42.49964" lon="8.85277">
        <ele>536.8</ele>
        <time>2015-07-02T08:15:24Z</time>
      </trkpt>
      <trkpt lat="42.49967" lon="8.85273">
        <ele>535.8</ele>
        <time>2015-07-02T08:15:29Z</time>
      </trkpt>
      <trkpt lat="42.49972" lon="8.8527">
        <ele>534.6</ele>
        <time>2015-07-02T08:15:34Z</time>
      </trkpt>
      <trkpt lat="42.4998" lon="8.85269">
        <ele>533.2</ele>
        <time>2015-07-02T08:15:45Z</time>
      </trkpt>
      <trkpt lat="42.49985" lon="8.85269">
        <ele>532.4</ele>
        <time>2015-07-02T08:15:50Z</time>
      </trkpt>
      <trkpt lat="42.49992" lon="8.85272">
        <ele>531.2</ele>
        <time>2015-07-02T08:15:57Z</time>
      </trkpt>
      <trkpt lat="42.5" lon="8.85274">
        <ele>530</ele>
        <time>2015-07-02T08:16:05Z</time>
      </trkpt>
      <trkpt lat="42.50005" lon="8.85276">
        <ele>529.4</ele>
        <time>2015-07-02T08:16:10Z</time>
      </trkpt>
      <trkpt lat="42.5001" lon="8.85276">
        <ele>528.8</ele>
        <time>2015-07-02T08:16:14Z</time>
      </trkpt>
      <trkpt lat="42.50015" lon="8.85277">
        <ele>528.4</ele>
        <time>2015-07-02T08:16:19Z</time>
      </trkpt>
      <trkpt lat="42.50019" lon="8.8528">
        <ele>528.2</ele>
        <time>2015-07-02T08:16:23Z</time>
      </trkpt>
      <trkpt lat="42.50027" lon="8.85285">
        <ele>527.4</ele>
        <time>2015-07-02T08:16:30Z</time>
      </trkpt>
      <trkpt lat="42.50034" lon="8.85289">
        <ele>526.2</ele>
        <time>2015-07-02T08:16:37Z</time>
      </trkpt>
      <trkpt lat="42.50041" lon="8.85292">
        <ele>525.2</ele>
        <time>2015-07-02T08:16:44Z</time>
      </trkpt>
      <trkpt lat="42.50047" lon="8.85297">
        <ele>524.2</ele>
        <time>2015-07-02T08:16:51Z</time>
      </trkpt>
      <trkpt lat="42.50051" lon="8.85301">
        <ele>523.4</ele>
        <time>2015-07-02T08:16:56Z</time>
      </trkpt>
      <trkpt lat="42.50054" lon="8.85302">
        <ele>523</ele>
        <time>2015-07-02T08:17:00Z</time>
      </trkpt>
      <trkpt lat="42.50058" lon="8.85302">
        <ele>522.6</ele>
        <time>2015-07-02T08:17:05Z</time>
      </trkpt>
      <trkpt lat="42.50059" lon="8.85304">
        <ele>522.2</ele>
        <time>2015-07-02T08:17:07Z</time>
      </trkpt>
      <trkpt lat="42.50062" lon="8.85309">
        <ele>520.8</ele>
        <time>2015-07-02T08:17:16Z</time>
      </trkpt>
      <trkpt lat="42.50066" lon="8.85312">
        <ele>520.4</ele>
        <time>2015-07-02T08:17:21Z</time>
      </trkpt>
      <trkpt lat="42.50072" lon="8.85315">
        <ele>519.2</ele>
        <time>2015-07-02T08:17:29Z</time>
      </trkpt>
      <trkpt lat="42.50077" lon="8.85316">
        <ele>518.4</ele>
        <time>2015-07-02T08:17:34Z</time>
      </trkpt>
      <trkpt lat="42.50082" lon="8.8532">
        <ele>517</ele>
        <time>2015-07-02T08:17:41Z</time>
      </trkpt>
      <trkpt lat="42.50088" lon="8.85321">
        <ele>516.2</ele>
        <time>2015-07-02T08:17:48Z</time>
      </trkpt>
      <trkpt lat="42.50092" lon="8.85325">
        <ele>515.2</ele>
        <time>2015-07-02T08:17:54Z</time>
      </trkpt>
      <trkpt lat="42.50093" lon="8.85326">
        <ele>514.6</ele>
        <time>2015-07-02T08:17:56Z</time>
      </trkpt>
      <trkpt lat="42.50097" lon="8.85328">
        <ele>513.8</ele>
        <time>2015-07-02T08:18:02Z</time>
      </trkpt>
      <trkpt lat="42.50102" lon="8.85331">
        <ele>513</ele>
        <time>2015-07-02T08:18:10Z</time>
      </trkpt>
      <trkpt lat="42.50108" lon="8.85334">
        <ele>511.8</ele>
        <time>2015-07-02T08:18:18Z</time>
      </trkpt>
      <trkpt lat="42.50113" lon="8.85339">
        <ele>511</ele>
        <time>2015-07-02T08:18:25Z</time>
      </trkpt>
      <trkpt lat="42.5012" lon="8.85341">
        <ele>510</ele>
        <time>2015-07-02T08:18:33Z</time>
      </trkpt>
      <trkpt lat="42.50125" lon="8.85346">
        <ele>508.8</ele>
        <time>2015-07-02T08:18:40Z</time>
      </trkpt>
      <trkpt lat="42.5013" lon="8.8535">
        <ele>507.6</ele>
        <time>2015-07-02T08:18:47Z</time>
      </trkpt>
      <trkpt lat="42.50134" lon="8.85355">
        <ele>507</ele>
        <time>2015-07-02T08:18:52Z</time>
      </trkpt>
      <trkpt lat="42.50136" lon="8.85357">
        <ele>506.4</ele>
        <time>2015-07-02T08:18:55Z</time>
      </trkpt>
      <trkpt lat="42.50136" lon="8.85357">
        <ele>505.2</ele>
        <time>2015-07-02T08:19:06Z</time>
      </trkpt>
      <trkpt lat="42.50145" lon="8.85367">
        <ele>505</ele>
        <time>2015-07-02T08:19:24Z</time>
      </trkpt>
      <trkpt lat="42.50151" lon="8.85373">
        <ele>503.8</ele>
        <time>2015-07-02T08:19:31Z</time>
      </trkpt>
      <trkpt lat="42.50155" lon="8.85376">
        <ele>503.2</ele>
        <time>2015-07-02T08:19:36Z</time>
      </trkpt>
      <trkpt lat="42.50157" lon="8.85377">
        <ele>502.8</ele>
        <time>2015-07-02T08:19:38Z</time>
      </trkpt>
      <trkpt lat="42.50157" lon="8.85378">
        <ele>502.8</ele>
        <time>2015-07-02T08:19:39Z</time>
      </trkpt>
      <trkpt lat="42.50159" lon="8.85384">
        <ele>501.8</ele>
        <time>2015-07-02T08:19:48Z</time>
      </trkpt>
      <trkpt lat="42.50163" lon="8.8539">
        <ele>500.8</ele>
        <time>2015-07-02T08:19:56Z</time>
      </trkpt>
      <trkpt lat="42.50166" lon="8.85396">
        <ele>500</ele>
        <time>2015-07-02T08:20:02Z</time>
      </trkpt>
      <trkpt lat="42.50168" lon="8.854">
        <ele>499</ele>
        <time>2015-07-02T08:20:08Z</time>
      </trkpt>
      <trkpt lat="42.50171" lon="8.85405">
        <ele>497.4</ele>
        <time>2015-07-02T08:20:17Z</time>
      </trkpt>
      <trkpt lat="42.50173" lon="8.85409">
        <ele>496.4</ele>
        <time>2015-07-02T08:20:25Z</time>
      </trkpt>
      <trkpt lat="42.50177" lon="8.85414">
        <ele>495.4</ele>
        <time>2015-07-02T08:20:33Z</time>
      </trkpt>
      <trkpt lat="42.50181" lon="8.85416">
        <ele>494.4</ele>
        <time>2015-07-02T08:20:40Z</time>
      </trkpt>
      <trkpt lat="42.50185" lon="8.85421">
        <ele>493.6</ele>
        <time>2015-07-02T08:20:46Z</time>
      </trkpt>
      <trkpt lat="42.50188" lon="8.85428">
        <ele>492.2</ele>
        <time>2015-07-02T08:20:54Z</time>
      </trkpt>
      <trkpt lat="42.50192" lon="8.85435">
        <ele>491.2</ele>
        <time>2015-07-02T08:21:03Z</time>
      </trkpt>
      <trkpt lat="42.50195" lon="8.8544">
        <ele>490</ele>
        <time>2015-07-02T08:21:12Z</time>
      </trkpt>
      <trkpt lat="42.50198" lon="8.85444">
        <ele>489.2</ele>
        <time>2015-07-02T08:21:19Z</time>
      </trkpt>
      <trkpt lat="42.50204" lon="8.85454">
        <ele>487.8</ele>
        <time>2015-07-02T08:21:31Z</time>
      </trkpt>
      <trkpt lat="42.50208" lon="8.85462">
        <ele>487</ele>
        <time>2015-07-02T08:21:42Z</time>
      </trkpt>
      <trkpt lat="42.50211" lon="8.85463">
        <ele>486.6</ele>
        <time>2015-07-02T08:21:47Z</time>
      </trkpt>
      <trkpt lat="42.50215" lon="8.85467">
        <ele>485.2</ele>
        <time>2015-07-02T08:21:53Z</time>
      </trkpt>
      <trkpt lat="42.50221" lon="8.85475">
        <ele>484</ele>
        <time>2015-07-02T08:22:01Z</time>
      </trkpt>
      <trkpt lat="42.50226" lon="8.8548">
        <ele>483.2</ele>
        <time>2015-07-02T08:22:08Z</time>
      </trkpt>
      <trkpt lat="42.50231" lon="8.85488">
        <ele>481.6</ele>
        <time>2015-07-02T08:22:17Z</time>
      </trkpt>
      <trkpt lat="42.50239" lon="8.85498">
        <ele>480.8</ele>
        <time>2015-07-02T08:22:29Z</time>
      </trkpt>
      <trkpt lat="42.50241" lon="8.855">
        <ele>480.4</ele>
        <time>2015-07-02T08:22:31Z</time>
      </trkpt>
      <trkpt lat="42.50244" lon="8.85507">
        <ele>479.8</ele>
        <time>2015-07-02T08:22:38Z</time>
      </trkpt>
      <trkpt lat="42.50247" lon="8.85511">
        <ele>479.4</ele>
        <time>2015-07-02T08:22:43Z</time>
      </trkpt>
      <trkpt lat="42.50253" lon="8.85515">
        <ele>478.8</ele>
        <time>2015-07-02T08:22:49Z</time>
      </trkpt>
      <trkpt lat="42.50256" lon="8.85519">
        <ele>478.2</ele>
        <time>2015-07-02T08:22:55Z</time>
      </trkpt>
      <trkpt lat="42.50262" lon="8.85526">
        <ele>476.8</ele>
        <time>2015-07-02T08:23:04Z</time>
      </trkpt>
      <trkpt lat="42.5027" lon="8.85534">
        <ele>475.8</ele>
        <time>2015-07-02T08:23:14Z</time>
      </trkpt>
      <trkpt lat="42.50273" lon="8.85537">
        <ele>475.4</ele>
        <time>2015-07-02T08:23:18Z</time>
      </trkpt>
      <trkpt lat="42.50276" lon="8.85538">
        <ele>475</ele>
        <time>2015-07-02T08:23:21Z</time>
      </trkpt>
      <trkpt lat="42.50281" lon="8.85542">
        <ele>474.2</ele>
        <time>2015-07-02T08:23:28Z</time>
      </trkpt>
      <trkpt lat="42.50283" lon="8.85543">
        <ele>474</ele>
        <time>2015-07-02T08:23:30Z</time>
      </trkpt>
      <trkpt lat="42.50284" lon="8.85545">
        <ele>473.6</ele>
        <time>2015-07-02T08:23:32Z</time>
      </trkpt>
      <trkpt lat="42.50284" lon="8.8555">
        <ele>473</ele>
        <time>2015-07-02T08:23:36Z</time>
      </trkpt>
      <trkpt lat="42.50283" lon="8.85555">
        <ele>472</ele>
        <time>2015-07-02T08:23:41Z</time>
      </trkpt>
      <trkpt lat="42.50283" lon="8.85557">
        <ele>472</ele>
        <time>2015-07-02T08:23:43Z</time>
      </trkpt>
      <trkpt lat="42.50287" lon="8.85561">
        <ele>470.8</ele>
        <time>2015-07-02T08:23:49Z</time>
      </trkpt>
      <trkpt lat="42.5029" lon="8.85562">
        <ele>469.4</ele>
        <time>2015-07-02T08:23:56Z</time>
      </trkpt>
      <trkpt lat="42.50291" lon="8.85569">
        <ele>468.4</ele>
        <time>2015-07-02T08:24:03Z</time>
      </trkpt>
      <trkpt lat="42.50297" lon="8.85577">
        <ele>467.2</ele>
        <time>2015-07-02T08:24:12Z</time>
      </trkpt>
      <trkpt lat="42.503" lon="8.85584">
        <ele>466.4</ele>
        <time>2015-07-02T08:24:19Z</time>
      </trkpt>
      <trkpt lat="42.50306" lon="8.85592">
        <ele>465</ele>
        <time>2015-07-02T08:24:27Z</time>
      </trkpt>
      <trkpt lat="42.50309" lon="8.85597">
        <ele>463.8</ele>
        <time>2015-07-02T08:24:34Z</time>
      </trkpt>
      <trkpt lat="42.5031" lon="8.85601">
        <ele>463.2</ele>
        <time>2015-07-02T08:24:39Z</time>
      </trkpt>
      <trkpt lat="42.50309" lon="8.85605">
        <ele>462.4</ele>
        <time>2015-07-02T08:24:44Z</time>
      </trkpt>
      <trkpt lat="42.50309" lon="8.85613">
        <ele>460.6</ele>
        <time>2015-07-02T08:24:52Z</time>
      </trkpt>
      <trkpt lat="42.50308" lon="8.85619">
        <ele>460</ele>
        <time>2015-07-02T08:24:58Z</time>
      </trkpt>
      <trkpt lat="42.50309" lon="8.85626">
        <ele>458.8</ele>
        <time>2015-07-02T08:25:05Z</time>
      </trkpt>
      <trkpt lat="42.50308" lon="8.85634">
        <ele>457.8</ele>
        <time>2015-07-02T08:25:12Z</time>
      </trkpt>
      <trkpt lat="42.50309" lon="8.85642">
        <ele>456.8</ele>
        <time>2015-07-02T08:25:21Z</time>
      </trkpt>
      <trkpt lat="42.5031" lon="8.85646">
        <ele>456</ele>
        <time>2015-07-02T08:25:28Z</time>
      </trkpt>
      <trkpt lat="42.50308" lon="8.85657">
        <ele>454.8</ele>
        <time>2015-07-02T08:25:41Z</time>
      </trkpt>
      <trkpt lat="42.5031" lon="8.85661">
        <ele>454</ele>
        <time>2015-07-02T08:25:47Z</time>
      </trkpt>
      <trkpt lat="42.5031" lon="8.85667">
        <ele>452.6</ele>
        <time>2015-07-02T08:25:55Z</time>
      </trkpt>
      <trkpt lat="42.50313" lon="8.8567">
        <ele>451.8</ele>
        <time>2015-07-02T08:26:02Z</time>
      </trkpt>
      <trkpt lat="42.50313" lon="8.85675">
        <ele>450.8</ele>
        <time>2015-07-02T08:26:08Z</time>
      </trkpt>
      <trkpt lat="42.50313" lon="8.85686">
        <ele>449.6</ele>
        <time>2015-07-02T08:26:17Z</time>
      </trkpt>
      <trkpt lat="42.50311" lon="8.85693">
        <ele>448.6</ele>
        <time>2015-07-02T08:26:24Z</time>
      </trkpt>
      <trkpt lat="42.50312" lon="8.85698">
        <ele>447.6</ele>
        <time>2015-07-02T08:26:29Z</time>
      </trkpt>
      <trkpt lat="42.50312" lon="8.85704">
        <ele>446.8</ele>
        <time>2015-07-02T08:26:34Z</time>
      </trkpt>
      <trkpt lat="42.50312" lon="8.85705">
        <ele>446.2</ele>
        <time>2015-07-02T08:26:36Z</time>
      </trkpt>
      <trkpt lat="42.50315" lon="8.85713">
        <ele>445.4</ele>
        <time>2015-07-02T08:26:44Z</time>
      </trkpt>
      <trkpt lat="42.50316" lon="8.85721">
        <ele>444.4</ele>
        <time>2015-07-02T08:26:51Z</time>
      </trkpt>
      <trkpt lat="42.50318" lon="8.85726">
        <ele>443.2</ele>
        <time>2015-07-02T08:26:58Z</time>
      </trkpt>
      <trkpt lat="42.5032" lon="8.8573">
        <ele>442.4</ele>
        <time>2015-07-02T08:27:04Z</time>
      </trkpt>
      <trkpt lat="42.50322" lon="8.85732">
        <ele>441</ele>
        <time>2015-07-02T08:27:13Z</time>
      </trkpt>
      <trkpt lat="42.50325" lon="8.85737">
        <ele>440</ele>
        <time>2015-07-02T08:27:19Z</time>
      </trkpt>
      <trkpt lat="42.50325" lon="8.85746">
        <ele>439.2</ele>
        <time>2015-07-02T08:27:25Z</time>
      </trkpt>
      <trkpt lat="42.50328" lon="8.85754">
        <ele>437.8</ele>
        <time>2015-07-02T08:27:32Z</time>
      </trkpt>
      <trkpt lat="42.5033" lon="8.85758">
        <ele>437</ele>
        <time>2015-07-02T08:27:38Z</time>
      </trkpt>
      <trkpt lat="42.50332" lon="8.85763">
        <ele>436.2</ele>
        <time>2015-07-02T08:27:43Z</time>
      </trkpt>
      <trkpt lat="42.50335" lon="8.85765">
        <ele>434.4</ele>
        <time>2015-07-02T08:27:51Z</time>
      </trkpt>
      <trkpt lat="42.50336" lon="8.8576">
        <ele>433.8</ele>
        <time>2015-07-02T08:27:57Z</time>
      </trkpt>
      <trkpt lat="42.50339" lon="8.85761">
        <ele>433</ele>
        <time>2015-07-02T08:28:02Z</time>
      </trkpt>
      <trkpt lat="42.5034" lon="8.85765">
        <ele>431.6</ele>
        <time>2015-07-02T08:28:09Z</time>
      </trkpt>
      <trkpt lat="42.50343" lon="8.85768">
        <ele>430.8</ele>
        <time>2015-07-02T08:28:15Z</time>
      </trkpt>
      <trkpt lat="42.50345" lon="8.85774">
        <ele>429.2</ele>
        <time>2015-07-02T08:28:23Z</time>
      </trkpt>
      <trkpt lat="42.50346" lon="8.85782">
        <ele>428.8</ele>
        <time>2015-07-02T08:28:29Z</time>
      </trkpt>
      <trkpt lat="42.50347" lon="8.85789">
        <ele>427.6</ele>
        <time>2015-07-02T08:28:35Z</time>
      </trkpt>
      <trkpt lat="42.50348" lon="8.85793">
        <ele>427</ele>
        <time>2015-07-02T08:28:39Z</time>
      </trkpt>
      <trkpt lat="42.50352" lon="8.85787">
        <ele>425.8</ele>
        <time>2015-07-02T08:28:58Z</time>
      </trkpt>
      <trkpt lat="42.50356" lon="8.85785">
        <ele>425.6</ele>
        <time>2015-07-02T08:29:04Z</time>
      </trkpt>
      <trkpt lat="42.50359" lon="8.85789">
        <ele>424.8</ele>
        <time>2015-07-02T08:29:09Z</time>
      </trkpt>
      <trkpt lat="42.50359" lon="8.85793">
        <ele>424</ele>
        <time>2015-07-02T08:29:14Z</time>
      </trkpt>
      <trkpt lat="42.50359" lon="8.85801">
        <ele>422.2</ele>
        <time>2015-07-02T08:29:21Z</time>
      </trkpt>
      <trkpt lat="42.50359" lon="8.85806">
        <ele>422</ele>
        <time>2015-07-02T08:29:25Z</time>
      </trkpt>
      <trkpt lat="42.50359" lon="8.85807">
        <ele>421.6</ele>
        <time>2015-07-02T08:29:26Z</time>
      </trkpt>
      <trkpt lat="42.50364" lon="8.85804">
        <ele>420.2</ele>
        <time>2015-07-02T08:29:33Z</time>
      </trkpt>
      <trkpt lat="42.50364" lon="8.85803">
        <ele>420.2</ele>
        <time>2015-07-02T08:29:34Z</time>
      </trkpt>
      <trkpt lat="42.50367" lon="8.858">
        <ele>419.4</ele>
        <time>2015-07-02T08:29:39Z</time>
      </trkpt>
      <trkpt lat="42.50368" lon="8.85799">
        <ele>419</ele>
        <time>2015-07-02T08:29:41Z</time>
      </trkpt>
      <trkpt lat="42.5037" lon="8.85799">
        <ele>419</ele>
        <time>2015-07-02T08:29:43Z</time>
      </trkpt>
      <trkpt lat="42.50372" lon="8.85799">
        <ele>418.6</ele>
        <time>2015-07-02T08:29:45Z</time>
      </trkpt>
      <trkpt lat="42.50372" lon="8.85801">
        <ele>418.2</ele>
        <time>2015-07-02T08:29:47Z</time>
      </trkpt>
      <trkpt lat="42.50372" lon="8.85807">
        <ele>417.2</ele>
        <time>2015-07-02T08:29:53Z</time>
      </trkpt>
      <trkpt lat="42.50375" lon="8.85812">
        <ele>416</ele>
        <time>2015-07-02T08:30:00Z</time>
      </trkpt>
      <trkpt lat="42.50378" lon="8.85805">
        <ele>415</ele>
        <time>2015-07-02T08:30:07Z</time>
      </trkpt>
      <trkpt lat="42.50382" lon="8.85802">
        <ele>414.2</ele>
        <time>2015-07-02T08:30:13Z</time>
      </trkpt>
      <trkpt lat="42.50385" lon="8.85801">
        <ele>413.2</ele>
        <time>2015-07-02T08:30:19Z</time>
      </trkpt>
      <trkpt lat="42.50385" lon="8.85805">
        <ele>412</ele>
        <time>2015-07-02T08:30:25Z</time>
      </trkpt>
      <trkpt lat="42.50386" lon="8.8581">
        <ele>411.2</ele>
        <time>2015-07-02T08:30:31Z</time>
      </trkpt>
      <trkpt lat="42.5039" lon="8.85807">
        <ele>410</ele>
        <time>2015-07-02T08:30:37Z</time>
      </trkpt>
      <trkpt lat="42.50393" lon="8.858">
        <ele>408.6</ele>
        <time>2015-07-02T08:30:44Z</time>
      </trkpt>
      <trkpt lat="42.50396" lon="8.85793">
        <ele>407.6</ele>
        <time>2015-07-02T08:30:51Z</time>
      </trkpt>
      <trkpt lat="42.50401" lon="8.85789">
        <ele>406.8</ele>
        <time>2015-07-02T08:30:58Z</time>
      </trkpt>
      <trkpt lat="42.50405" lon="8.85788">
        <ele>405.6</ele>
        <time>2015-07-02T08:31:05Z</time>
      </trkpt>
      <trkpt lat="42.50408" lon="8.85785">
        <ele>404.8</ele>
        <time>2015-07-02T08:31:10Z</time>
      </trkpt>
      <trkpt lat="42.50413" lon="8.85778">
        <ele>403</ele>
        <time>2015-07-02T08:31:18Z</time>
      </trkpt>
      <trkpt lat="42.50414" lon="8.85771">
        <ele>402.2</ele>
        <time>2015-07-02T08:31:24Z</time>
      </trkpt>
      <trkpt lat="42.50416" lon="8.85765">
        <ele>401.2</ele>
        <time>2015-07-02T08:31:33Z</time>
      </trkpt>
      <trkpt lat="42.50419" lon="8.85768">
        <ele>400.6</ele>
        <time>2015-07-02T08:31:38Z</time>
      </trkpt>
      <trkpt lat="42.50424" lon="8.85768">
        <ele>399</ele>
        <time>2015-07-02T08:31:45Z</time>
      </trkpt>
      <trkpt lat="42.50428" lon="8.85764">
        <ele>398</ele>
        <time>2015-07-02T08:31:51Z</time>
      </trkpt>
      <trkpt lat="42.50433" lon="8.85757">
        <ele>397</ele>
        <time>2015-07-02T08:31:58Z</time>
      </trkpt>
      <trkpt lat="42.50438" lon="8.85751">
        <ele>396</ele>
        <time>2015-07-02T08:32:05Z</time>
      </trkpt>
      <trkpt lat="42.50441" lon="8.85751">
        <ele>395.2</ele>
        <time>2015-07-02T08:32:10Z</time>
      </trkpt>
      <trkpt lat="42.50446" lon="8.85749">
        <ele>394.6</ele>
        <time>2015-07-02T08:32:14Z</time>
      </trkpt>
      <trkpt lat="42.50458" lon="8.85743">
        <ele>392.8</ele>
        <time>2015-07-02T08:32:24Z</time>
      </trkpt>
      <trkpt lat="42.50467" lon="8.85737">
        <ele>391.6</ele>
        <time>2015-07-02T08:32:33Z</time>
      </trkpt>
      <trkpt lat="42.50473" lon="8.85734">
        <ele>390.8</ele>
        <time>2015-07-02T08:32:40Z</time>
      </trkpt>
      <trkpt lat="42.5048" lon="8.8573">
        <ele>389.8</ele>
        <time>2015-07-02T08:32:48Z</time>
      </trkpt>
      <trkpt lat="42.50487" lon="8.85724">
        <ele>388.6</ele>
        <time>2015-07-02T08:32:57Z</time>
      </trkpt>
      <trkpt lat="42.50492" lon="8.8572">
        <ele>387.6</ele>
        <time>2015-07-02T08:33:06Z</time>
      </trkpt>
      <trkpt lat="42.50498" lon="8.85713">
        <ele>386.6</ele>
        <time>2015-07-02T08:33:14Z</time>
      </trkpt>
      <trkpt lat="42.50507" lon="8.85704">
        <ele>385.6</ele>
        <time>2015-07-02T08:33:25Z</time>
      </trkpt>
      <trkpt lat="42.50512" lon="8.85697">
        <ele>384.6</ele>
        <time>2015-07-02T08:33:32Z</time>
      </trkpt>
      <trkpt lat="42.50516" lon="8.85693">
        <ele>383.6</ele>
        <time>2015-07-02T08:33:39Z</time>
      </trkpt>
      <trkpt lat="42.50521" lon="8.85688">
        <ele>382.6</ele>
        <time>2015-07-02T08:33:47Z</time>
      </trkpt>
      <trkpt lat="42.50523" lon="8.85681">
        <ele>381.8</ele>
        <time>2015-07-02T08:33:55Z</time>
      </trkpt>
      <trkpt lat="42.50525" lon="8.85679">
        <ele>381.6</ele>
        <time>2015-07-02T08:33:57Z</time>
      </trkpt>
      <trkpt lat="42.50529" lon="8.85673">
        <ele>380.8</ele>
        <time>2015-07-02T08:34:03Z</time>
      </trkpt>
      <trkpt lat="42.50532" lon="8.85669">
        <ele>379.4</ele>
        <time>2015-07-02T08:34:18Z</time>
      </trkpt>
      <trkpt lat="42.50535" lon="8.85663">
        <ele>378.4</ele>
        <time>2015-07-02T08:34:48Z</time>
      </trkpt>
      <trkpt lat="42.50539" lon="8.85662">
        <ele>378.2</ele>
        <time>2015-07-02T08:34:54Z</time>
      </trkpt>
      <trkpt lat="42.50541" lon="8.85663">
        <ele>377.4</ele>
        <time>2015-07-02T08:34:59Z</time>
      </trkpt>
      <trkpt lat="42.50543" lon="8.85661">
        <ele>376</ele>
        <time>2015-07-02T08:35:04Z</time>
      </trkpt>
      <trkpt lat="42.50545" lon="8.85658">
        <ele>375</ele>
        <time>2015-07-02T08:35:08Z</time>
      </trkpt>
      <trkpt lat="42.50548" lon="8.85654">
        <ele>374.4</ele>
        <time>2015-07-02T08:35:11Z</time>
      </trkpt>
      <trkpt lat="42.50549" lon="8.85654">
        <ele>374.2</ele>
        <time>2015-07-02T08:35:12Z</time>
      </trkpt>
      <trkpt lat="42.50554" lon="8.85648">
        <ele>373</ele>
        <time>2015-07-02T08:35:17Z</time>
      </trkpt>
      <trkpt lat="42.50557" lon="8.85646">
        <ele>372.2</ele>
        <time>2015-07-02T08:35:21Z</time>
      </trkpt>
      <trkpt lat="42.50559" lon="8.85644">
        <ele>370.8</ele>
        <time>2015-07-02T08:35:26Z</time>
      </trkpt>
      <trkpt lat="42.5056" lon="8.85639">
        <ele>369.6</ele>
        <time>2015-07-02T08:35:31Z</time>
      </trkpt>
      <trkpt lat="42.5056" lon="8.85635">
        <ele>368.4</ele>
        <time>2015-07-02T08:35:35Z</time>
      </trkpt>
      <trkpt lat="42.5056" lon="8.85634">
        <ele>368.2</ele>
        <time>2015-07-02T08:35:36Z</time>
      </trkpt>
      <trkpt lat="42.50561" lon="8.85634">
        <ele>366.6</ele>
        <time>2015-07-02T08:35:45Z</time>
      </trkpt>
      <trkpt lat="42.50563" lon="8.85632">
        <ele>366.2</ele>
        <time>2015-07-02T08:35:50Z</time>
      </trkpt>
      <trkpt lat="42.50562" lon="8.85637">
        <ele>365.6</ele>
        <time>2015-07-02T08:35:54Z</time>
      </trkpt>
      <trkpt lat="42.50562" lon="8.85637">
        <ele>365.2</ele>
        <time>2015-07-02T08:35:55Z</time>
      </trkpt>
      <trkpt lat="42.50568" lon="8.85634">
        <ele>364</ele>
        <time>2015-07-02T08:36:00Z</time>
      </trkpt>
      <trkpt lat="42.50569" lon="8.85632">
        <ele>363.6</ele>
        <time>2015-07-02T08:36:02Z</time>
      </trkpt>
      <trkpt lat="42.50572" lon="8.85627">
        <ele>362.8</ele>
        <time>2015-07-02T08:36:07Z</time>
      </trkpt>
      <trkpt lat="42.50573" lon="8.85623">
        <ele>361.6</ele>
        <time>2015-07-02T08:36:13Z</time>
      </trkpt>
      <trkpt lat="42.50578" lon="8.85615">
        <ele>360</ele>
        <time>2015-07-02T08:36:31Z</time>
      </trkpt>
      <trkpt lat="42.5058" lon="8.85611">
        <ele>359.8</ele>
        <time>2015-07-02T08:36:36Z</time>
      </trkpt>
      <trkpt lat="42.5058" lon="8.85605">
        <ele>358.6</ele>
        <time>2015-07-02T08:36:42Z</time>
      </trkpt>
      <trkpt lat="42.50584" lon="8.85593">
        <ele>357.6</ele>
        <time>2015-07-02T08:36:48Z</time>
      </trkpt>
      <trkpt lat="42.50586" lon="8.85587">
        <ele>356.8</ele>
        <time>2015-07-02T08:36:52Z</time>
      </trkpt>
      <trkpt lat="42.50589" lon="8.85581">
        <ele>355.6</ele>
        <time>2015-07-02T08:36:57Z</time>
      </trkpt>
      <trkpt lat="42.50594" lon="8.85577">
        <ele>354.6</ele>
        <time>2015-07-02T08:37:56Z</time>
      </trkpt>
      <trkpt lat="42.50594" lon="8.85579">
        <ele>354.4</ele>
        <time>2015-07-02T08:38:15Z</time>
      </trkpt>
      <trkpt lat="42.50594" lon="8.85576">
        <ele>353.8</ele>
        <time>2015-07-02T08:38:26Z</time>
      </trkpt>
      <trkpt lat="42.50594" lon="8.85575">
        <ele>353</ele>
        <time>2015-07-02T08:38:32Z</time>
      </trkpt>
    </trkseg>
  </trk>
</gpx>